<?xml version="1.0" encoding="UTF-8"?>
<gpx version="1.1" creator="https://www.youtrack.es" xsi:schemaLocation="http://www.topografix.com/GPX/1/1 http://www.topografix.com/GPX/1/1/gpx.xsd http://www.garmin.com/xmlschemas/GpxExtensions/v3 http://www.garmin.com/xmlschemas/GpxExtensionsv3.xsd http://www.garmin.com/xmlschemas/TrackPointExtension/v1 http://www.garmin.com/xmlschemas/TrackPointExtensionv1.xsd" xmlns:gpxtpx="http://www.garmin.com/xmlschemas/TrackPointExtension/v1" xmlns:gpxx="http://www.garmin.com/xmlschemas/GpxExtensions/v3" xmlns:xsi="http://www.w3.org/2001/XMLSchema-instance">
  <metadata>
    <link href="https://www.youtrack.es">
      <text>YouTrack.es</text>
    </link>
    <time>2026-05-08T01:59:49Z</time>
  </metadata>
  <trk>
    <src>https://www.youtrack.es</src>
    <link href="https://www.youtrack.es/ruta/24424-4-dias-por-la-sierra-de-madrid">
      <text>YouTrack.es</text>
    </link>
    <trkseg>
      <trkpt lat="40.900982" lon="-3.881302">
        <ele>1166.669</ele>
        <time>2021-07-28T17:23:42Z</time>
      </trkpt>
      <trkpt lat="40.900979" lon="-3.881310">
        <ele>1166.604</ele>
        <time>2021-07-28T17:24:00Z</time>
      </trkpt>
      <trkpt lat="40.900963" lon="-3.881345">
        <ele>1166.724</ele>
        <time>2021-07-28T17:24:02Z</time>
      </trkpt>
      <trkpt lat="40.900960" lon="-3.881382">
        <ele>1166.908</ele>
        <time>2021-07-28T17:24:04Z</time>
      </trkpt>
      <trkpt lat="40.900966" lon="-3.881418">
        <ele>1167.163</ele>
        <time>2021-07-28T17:24:06Z</time>
      </trkpt>
      <trkpt lat="40.900970" lon="-3.881458">
        <ele>1167.275</ele>
        <time>2021-07-28T17:24:08Z</time>
      </trkpt>
      <trkpt lat="40.900986" lon="-3.881488">
        <ele>1167.582</ele>
        <time>2021-07-28T17:24:10Z</time>
      </trkpt>
      <trkpt lat="40.901008" lon="-3.881495">
        <ele>1167.649</ele>
        <time>2021-07-28T17:24:14Z</time>
      </trkpt>
      <trkpt lat="40.901018" lon="-3.881523">
        <ele>1167.850</ele>
        <time>2021-07-28T17:24:19Z</time>
      </trkpt>
      <trkpt lat="40.901030" lon="-3.881548">
        <ele>1168.020</ele>
        <time>2021-07-28T17:24:22Z</time>
      </trkpt>
      <trkpt lat="40.901040" lon="-3.881570">
        <ele>1168.133</ele>
        <time>2021-07-28T17:24:24Z</time>
      </trkpt>
      <trkpt lat="40.901066" lon="-3.881580">
        <ele>1168.474</ele>
        <time>2021-07-28T17:24:26Z</time>
      </trkpt>
      <trkpt lat="40.901085" lon="-3.881603">
        <ele>1168.617</ele>
        <time>2021-07-28T17:24:29Z</time>
      </trkpt>
      <trkpt lat="40.901082" lon="-3.881632">
        <ele>1168.787</ele>
        <time>2021-07-28T17:24:31Z</time>
      </trkpt>
      <trkpt lat="40.901088" lon="-3.881670">
        <ele>1168.815</ele>
        <time>2021-07-28T17:24:34Z</time>
      </trkpt>
      <trkpt lat="40.901107" lon="-3.881690">
        <ele>1169.108</ele>
        <time>2021-07-28T17:24:36Z</time>
      </trkpt>
      <trkpt lat="40.901120" lon="-3.881720">
        <ele>1169.398</ele>
        <time>2021-07-28T17:24:38Z</time>
      </trkpt>
      <trkpt lat="40.901123" lon="-3.881747">
        <ele>1169.410</ele>
        <time>2021-07-28T17:24:41Z</time>
      </trkpt>
      <trkpt lat="40.901130" lon="-3.881775">
        <ele>1169.567</ele>
        <time>2021-07-28T17:24:43Z</time>
      </trkpt>
      <trkpt lat="40.901126" lon="-3.881817">
        <ele>1169.674</ele>
        <time>2021-07-28T17:24:45Z</time>
      </trkpt>
      <trkpt lat="40.901142" lon="-3.881848">
        <ele>1169.915</ele>
        <time>2021-07-28T17:24:47Z</time>
      </trkpt>
      <trkpt lat="40.901152" lon="-3.881877">
        <ele>1170.135</ele>
        <time>2021-07-28T17:24:49Z</time>
      </trkpt>
      <trkpt lat="40.901168" lon="-3.881900">
        <ele>1170.248</ele>
        <time>2021-07-28T17:24:51Z</time>
      </trkpt>
      <trkpt lat="40.901171" lon="-3.881928">
        <ele>1170.429</ele>
        <time>2021-07-28T17:24:53Z</time>
      </trkpt>
      <trkpt lat="40.901181" lon="-3.881952">
        <ele>1170.646</ele>
        <time>2021-07-28T17:24:55Z</time>
      </trkpt>
      <trkpt lat="40.901197" lon="-3.881973">
        <ele>1170.888</ele>
        <time>2021-07-28T17:24:57Z</time>
      </trkpt>
      <trkpt lat="40.901206" lon="-3.882008">
        <ele>1171.116</ele>
        <time>2021-07-28T17:25:00Z</time>
      </trkpt>
      <trkpt lat="40.901203" lon="-3.882038">
        <ele>1171.208</ele>
        <time>2021-07-28T17:25:02Z</time>
      </trkpt>
      <trkpt lat="40.901210" lon="-3.882077">
        <ele>1171.591</ele>
        <time>2021-07-28T17:25:04Z</time>
      </trkpt>
      <trkpt lat="40.901216" lon="-3.882104">
        <ele>1171.763</ele>
        <time>2021-07-28T17:25:06Z</time>
      </trkpt>
      <trkpt lat="40.901219" lon="-3.882133">
        <ele>1171.980</ele>
        <time>2021-07-28T17:25:08Z</time>
      </trkpt>
      <trkpt lat="40.901216" lon="-3.882158">
        <ele>1172.067</ele>
        <time>2021-07-28T17:25:10Z</time>
      </trkpt>
      <trkpt lat="40.901216" lon="-3.882183">
        <ele>1172.138</ele>
        <time>2021-07-28T17:25:12Z</time>
      </trkpt>
      <trkpt lat="40.901210" lon="-3.882208">
        <ele>1172.358</ele>
        <time>2021-07-28T17:25:14Z</time>
      </trkpt>
      <trkpt lat="40.901200" lon="-3.882245">
        <ele>1172.441</ele>
        <time>2021-07-28T17:25:17Z</time>
      </trkpt>
      <trkpt lat="40.901190" lon="-3.882273">
        <ele>1172.512</ele>
        <time>2021-07-28T17:25:19Z</time>
      </trkpt>
      <trkpt lat="40.901178" lon="-3.882296">
        <ele>1172.544</ele>
        <time>2021-07-28T17:25:21Z</time>
      </trkpt>
      <trkpt lat="40.901165" lon="-3.882322">
        <ele>1172.605</ele>
        <time>2021-07-28T17:25:23Z</time>
      </trkpt>
      <trkpt lat="40.901158" lon="-3.882353">
        <ele>1172.615</ele>
        <time>2021-07-28T17:25:25Z</time>
      </trkpt>
      <trkpt lat="40.901158" lon="-3.882380">
        <ele>1172.708</ele>
        <time>2021-07-28T17:25:27Z</time>
      </trkpt>
      <trkpt lat="40.901149" lon="-3.882403">
        <ele>1172.851</ele>
        <time>2021-07-28T17:25:29Z</time>
      </trkpt>
      <trkpt lat="40.901139" lon="-3.882425">
        <ele>1172.813</ele>
        <time>2021-07-28T17:25:31Z</time>
      </trkpt>
      <trkpt lat="40.901136" lon="-3.882452">
        <ele>1172.950</ele>
        <time>2021-07-28T17:25:33Z</time>
      </trkpt>
      <trkpt lat="40.901126" lon="-3.882478">
        <ele>1173.047</ele>
        <time>2021-07-28T17:25:35Z</time>
      </trkpt>
      <trkpt lat="40.901120" lon="-3.882507">
        <ele>1173.148</ele>
        <time>2021-07-28T17:25:37Z</time>
      </trkpt>
      <trkpt lat="40.901110" lon="-3.882542">
        <ele>1173.138</ele>
        <time>2021-07-28T17:25:40Z</time>
      </trkpt>
      <trkpt lat="40.901107" lon="-3.882570">
        <ele>1173.241</ele>
        <time>2021-07-28T17:25:42Z</time>
      </trkpt>
      <trkpt lat="40.901101" lon="-3.882598">
        <ele>1173.332</ele>
        <time>2021-07-28T17:25:44Z</time>
      </trkpt>
      <trkpt lat="40.901101" lon="-3.882628">
        <ele>1173.448</ele>
        <time>2021-07-28T17:25:46Z</time>
      </trkpt>
      <trkpt lat="40.901088" lon="-3.882658">
        <ele>1173.461</ele>
        <time>2021-07-28T17:25:48Z</time>
      </trkpt>
      <trkpt lat="40.901085" lon="-3.882687">
        <ele>1173.517</ele>
        <time>2021-07-28T17:25:50Z</time>
      </trkpt>
      <trkpt lat="40.901072" lon="-3.882717">
        <ele>1173.508</ele>
        <time>2021-07-28T17:25:52Z</time>
      </trkpt>
      <trkpt lat="40.901069" lon="-3.882747">
        <ele>1173.631</ele>
        <time>2021-07-28T17:25:54Z</time>
      </trkpt>
      <trkpt lat="40.901062" lon="-3.882780">
        <ele>1173.733</ele>
        <time>2021-07-28T17:25:56Z</time>
      </trkpt>
      <trkpt lat="40.901059" lon="-3.882808">
        <ele>1173.710</ele>
        <time>2021-07-28T17:25:58Z</time>
      </trkpt>
      <trkpt lat="40.901053" lon="-3.882848">
        <ele>1173.817</ele>
        <time>2021-07-28T17:26:00Z</time>
      </trkpt>
      <trkpt lat="40.901053" lon="-3.882873">
        <ele>1173.968</ele>
        <time>2021-07-28T17:26:02Z</time>
      </trkpt>
      <trkpt lat="40.901050" lon="-3.882900">
        <ele>1174.018</ele>
        <time>2021-07-28T17:26:04Z</time>
      </trkpt>
      <trkpt lat="40.901050" lon="-3.882932">
        <ele>1174.151</ele>
        <time>2021-07-28T17:26:06Z</time>
      </trkpt>
      <trkpt lat="40.901046" lon="-3.882966">
        <ele>1174.272</ele>
        <time>2021-07-28T17:26:08Z</time>
      </trkpt>
      <trkpt lat="40.901050" lon="-3.882998">
        <ele>1174.463</ele>
        <time>2021-07-28T17:26:10Z</time>
      </trkpt>
      <trkpt lat="40.901053" lon="-3.883028">
        <ele>1174.544</ele>
        <time>2021-07-28T17:26:12Z</time>
      </trkpt>
      <trkpt lat="40.901062" lon="-3.883057">
        <ele>1174.718</ele>
        <time>2021-07-28T17:26:14Z</time>
      </trkpt>
      <trkpt lat="40.901069" lon="-3.883080">
        <ele>1174.808</ele>
        <time>2021-07-28T17:26:16Z</time>
      </trkpt>
      <trkpt lat="40.901072" lon="-3.883107">
        <ele>1174.933</ele>
        <time>2021-07-28T17:26:18Z</time>
      </trkpt>
      <trkpt lat="40.901082" lon="-3.883130">
        <ele>1175.135</ele>
        <time>2021-07-28T17:26:20Z</time>
      </trkpt>
      <trkpt lat="40.901069" lon="-3.883157">
        <ele>1175.172</ele>
        <time>2021-07-28T17:26:24Z</time>
      </trkpt>
      <trkpt lat="40.901059" lon="-3.883182">
        <ele>1175.229</ele>
        <time>2021-07-28T17:26:27Z</time>
      </trkpt>
      <trkpt lat="40.901050" lon="-3.883213">
        <ele>1175.310</ele>
        <time>2021-07-28T17:26:29Z</time>
      </trkpt>
      <trkpt lat="40.901050" lon="-3.883242">
        <ele>1175.490</ele>
        <time>2021-07-28T17:26:31Z</time>
      </trkpt>
      <trkpt lat="40.901046" lon="-3.883272">
        <ele>1175.543</ele>
        <time>2021-07-28T17:26:33Z</time>
      </trkpt>
      <trkpt lat="40.901043" lon="-3.883308">
        <ele>1175.684</ele>
        <time>2021-07-28T17:26:36Z</time>
      </trkpt>
      <trkpt lat="40.901046" lon="-3.883336">
        <ele>1175.833</ele>
        <time>2021-07-28T17:26:38Z</time>
      </trkpt>
      <trkpt lat="40.901050" lon="-3.883370">
        <ele>1176.023</ele>
        <time>2021-07-28T17:26:40Z</time>
      </trkpt>
      <trkpt lat="40.901059" lon="-3.883403">
        <ele>1176.315</ele>
        <time>2021-07-28T17:26:42Z</time>
      </trkpt>
      <trkpt lat="40.901066" lon="-3.883427">
        <ele>1176.508</ele>
        <time>2021-07-28T17:26:44Z</time>
      </trkpt>
      <trkpt lat="40.901078" lon="-3.883457">
        <ele>1176.730</ele>
        <time>2021-07-28T17:26:46Z</time>
      </trkpt>
      <trkpt lat="40.901085" lon="-3.883484">
        <ele>1176.912</ele>
        <time>2021-07-28T17:26:48Z</time>
      </trkpt>
      <trkpt lat="40.901098" lon="-3.883507">
        <ele>1177.259</ele>
        <time>2021-07-28T17:26:50Z</time>
      </trkpt>
      <trkpt lat="40.901104" lon="-3.883532">
        <ele>1177.456</ele>
        <time>2021-07-28T17:26:52Z</time>
      </trkpt>
      <trkpt lat="40.901117" lon="-3.883552">
        <ele>1177.667</ele>
        <time>2021-07-28T17:26:54Z</time>
      </trkpt>
      <trkpt lat="40.901126" lon="-3.883573">
        <ele>1177.827</ele>
        <time>2021-07-28T17:26:56Z</time>
      </trkpt>
      <trkpt lat="40.901139" lon="-3.883602">
        <ele>1178.010</ele>
        <time>2021-07-28T17:26:58Z</time>
      </trkpt>
      <trkpt lat="40.901152" lon="-3.883630">
        <ele>1178.281</ele>
        <time>2021-07-28T17:27:00Z</time>
      </trkpt>
      <trkpt lat="40.901165" lon="-3.883652">
        <ele>1178.357</ele>
        <time>2021-07-28T17:27:02Z</time>
      </trkpt>
      <trkpt lat="40.901178" lon="-3.883670">
        <ele>1178.500</ele>
        <time>2021-07-28T17:27:04Z</time>
      </trkpt>
      <trkpt lat="40.901190" lon="-3.883703">
        <ele>1178.620</ele>
        <time>2021-07-28T17:27:07Z</time>
      </trkpt>
      <trkpt lat="40.901203" lon="-3.883728">
        <ele>1178.808</ele>
        <time>2021-07-28T17:27:09Z</time>
      </trkpt>
      <trkpt lat="40.901222" lon="-3.883757">
        <ele>1178.922</ele>
        <time>2021-07-28T17:27:12Z</time>
      </trkpt>
      <trkpt lat="40.901229" lon="-3.883783">
        <ele>1179.044</ele>
        <time>2021-07-28T17:27:14Z</time>
      </trkpt>
      <trkpt lat="40.901238" lon="-3.883810">
        <ele>1179.271</ele>
        <time>2021-07-28T17:27:16Z</time>
      </trkpt>
      <trkpt lat="40.901248" lon="-3.883835">
        <ele>1179.378</ele>
        <time>2021-07-28T17:27:18Z</time>
      </trkpt>
      <trkpt lat="40.901258" lon="-3.883860">
        <ele>1179.469</ele>
        <time>2021-07-28T17:27:20Z</time>
      </trkpt>
      <trkpt lat="40.901277" lon="-3.883895">
        <ele>1179.649</ele>
        <time>2021-07-28T17:27:23Z</time>
      </trkpt>
      <trkpt lat="40.901296" lon="-3.883930">
        <ele>1179.972</ele>
        <time>2021-07-28T17:27:26Z</time>
      </trkpt>
      <trkpt lat="40.901299" lon="-3.883955">
        <ele>1180.153</ele>
        <time>2021-07-28T17:27:28Z</time>
      </trkpt>
      <trkpt lat="40.901309" lon="-3.883983">
        <ele>1180.352</ele>
        <time>2021-07-28T17:27:30Z</time>
      </trkpt>
      <trkpt lat="40.901322" lon="-3.884000">
        <ele>1180.553</ele>
        <time>2021-07-28T17:27:32Z</time>
      </trkpt>
      <trkpt lat="40.901338" lon="-3.884032">
        <ele>1180.808</ele>
        <time>2021-07-28T17:27:35Z</time>
      </trkpt>
      <trkpt lat="40.901347" lon="-3.884058">
        <ele>1181.008</ele>
        <time>2021-07-28T17:27:37Z</time>
      </trkpt>
      <trkpt lat="40.901350" lon="-3.884083">
        <ele>1181.222</ele>
        <time>2021-07-28T17:27:39Z</time>
      </trkpt>
      <trkpt lat="40.901360" lon="-3.884110">
        <ele>1181.484</ele>
        <time>2021-07-28T17:27:42Z</time>
      </trkpt>
      <trkpt lat="40.901363" lon="-3.884140">
        <ele>1181.681</ele>
        <time>2021-07-28T17:27:44Z</time>
      </trkpt>
      <trkpt lat="40.901370" lon="-3.884172">
        <ele>1181.938</ele>
        <time>2021-07-28T17:27:47Z</time>
      </trkpt>
      <trkpt lat="40.901379" lon="-3.884205">
        <ele>1182.239</ele>
        <time>2021-07-28T17:27:50Z</time>
      </trkpt>
      <trkpt lat="40.901382" lon="-3.884228">
        <ele>1182.459</ele>
        <time>2021-07-28T17:27:52Z</time>
      </trkpt>
      <trkpt lat="40.901386" lon="-3.884253">
        <ele>1182.682</ele>
        <time>2021-07-28T17:27:54Z</time>
      </trkpt>
      <trkpt lat="40.901389" lon="-3.884283">
        <ele>1182.893</ele>
        <time>2021-07-28T17:27:56Z</time>
      </trkpt>
      <trkpt lat="40.901389" lon="-3.884312">
        <ele>1183.054</ele>
        <time>2021-07-28T17:27:58Z</time>
      </trkpt>
      <trkpt lat="40.901389" lon="-3.884340">
        <ele>1183.256</ele>
        <time>2021-07-28T17:28:00Z</time>
      </trkpt>
      <trkpt lat="40.901395" lon="-3.884368">
        <ele>1183.511</ele>
        <time>2021-07-28T17:28:02Z</time>
      </trkpt>
      <trkpt lat="40.901405" lon="-3.884400">
        <ele>1183.708</ele>
        <time>2021-07-28T17:28:05Z</time>
      </trkpt>
      <trkpt lat="40.901408" lon="-3.884430">
        <ele>1184.022</ele>
        <time>2021-07-28T17:28:07Z</time>
      </trkpt>
      <trkpt lat="40.901414" lon="-3.884455">
        <ele>1184.284</ele>
        <time>2021-07-28T17:28:09Z</time>
      </trkpt>
      <trkpt lat="40.901434" lon="-3.884485">
        <ele>1184.551</ele>
        <time>2021-07-28T17:28:12Z</time>
      </trkpt>
      <trkpt lat="40.901443" lon="-3.884507">
        <ele>1184.648</ele>
        <time>2021-07-28T17:28:14Z</time>
      </trkpt>
      <trkpt lat="40.901450" lon="-3.884530">
        <ele>1184.889</ele>
        <time>2021-07-28T17:28:16Z</time>
      </trkpt>
      <trkpt lat="40.901459" lon="-3.884552">
        <ele>1185.079</ele>
        <time>2021-07-28T17:28:18Z</time>
      </trkpt>
      <trkpt lat="40.901469" lon="-3.884587">
        <ele>1185.362</ele>
        <time>2021-07-28T17:28:21Z</time>
      </trkpt>
      <trkpt lat="40.901485" lon="-3.884610">
        <ele>1185.563</ele>
        <time>2021-07-28T17:28:23Z</time>
      </trkpt>
      <trkpt lat="40.901498" lon="-3.884628">
        <ele>1185.783</ele>
        <time>2021-07-28T17:28:25Z</time>
      </trkpt>
      <trkpt lat="40.901517" lon="-3.884655">
        <ele>1186.025</ele>
        <time>2021-07-28T17:28:28Z</time>
      </trkpt>
      <trkpt lat="40.901533" lon="-3.884685">
        <ele>1186.317</ele>
        <time>2021-07-28T17:28:31Z</time>
      </trkpt>
      <trkpt lat="40.901546" lon="-3.884714">
        <ele>1186.508</ele>
        <time>2021-07-28T17:28:34Z</time>
      </trkpt>
      <trkpt lat="40.901562" lon="-3.884738">
        <ele>1186.795</ele>
        <time>2021-07-28T17:28:36Z</time>
      </trkpt>
      <trkpt lat="40.901574" lon="-3.884770">
        <ele>1187.097</ele>
        <time>2021-07-28T17:28:39Z</time>
      </trkpt>
      <trkpt lat="40.901581" lon="-3.884793">
        <ele>1187.284</ele>
        <time>2021-07-28T17:28:41Z</time>
      </trkpt>
      <trkpt lat="40.901594" lon="-3.884830">
        <ele>1187.551</ele>
        <time>2021-07-28T17:28:44Z</time>
      </trkpt>
      <trkpt lat="40.901597" lon="-3.884860">
        <ele>1187.712</ele>
        <time>2021-07-28T17:28:46Z</time>
      </trkpt>
      <trkpt lat="40.901603" lon="-3.884885">
        <ele>1187.982</ele>
        <time>2021-07-28T17:28:48Z</time>
      </trkpt>
      <trkpt lat="40.901613" lon="-3.884918">
        <ele>1188.215</ele>
        <time>2021-07-28T17:28:50Z</time>
      </trkpt>
      <trkpt lat="40.901616" lon="-3.884945">
        <ele>1188.476</ele>
        <time>2021-07-28T17:28:52Z</time>
      </trkpt>
      <trkpt lat="40.901616" lon="-3.884977">
        <ele>1188.758</ele>
        <time>2021-07-28T17:28:54Z</time>
      </trkpt>
      <trkpt lat="40.901616" lon="-3.885007">
        <ele>1188.852</ele>
        <time>2021-07-28T17:28:56Z</time>
      </trkpt>
      <trkpt lat="40.901619" lon="-3.885037">
        <ele>1189.017</ele>
        <time>2021-07-28T17:28:58Z</time>
      </trkpt>
      <trkpt lat="40.901626" lon="-3.885076">
        <ele>1189.108</ele>
        <time>2021-07-28T17:29:01Z</time>
      </trkpt>
      <trkpt lat="40.901626" lon="-3.885105">
        <ele>1189.282</ele>
        <time>2021-07-28T17:29:03Z</time>
      </trkpt>
      <trkpt lat="40.901626" lon="-3.885132">
        <ele>1189.354</ele>
        <time>2021-07-28T17:29:05Z</time>
      </trkpt>
      <trkpt lat="40.901616" lon="-3.885163">
        <ele>1189.421</ele>
        <time>2021-07-28T17:29:07Z</time>
      </trkpt>
      <trkpt lat="40.901616" lon="-3.885188">
        <ele>1189.568</ele>
        <time>2021-07-28T17:29:09Z</time>
      </trkpt>
      <trkpt lat="40.901622" lon="-3.885222">
        <ele>1189.639</ele>
        <time>2021-07-28T17:29:12Z</time>
      </trkpt>
      <trkpt lat="40.901632" lon="-3.885247">
        <ele>1189.889</ele>
        <time>2021-07-28T17:29:14Z</time>
      </trkpt>
      <trkpt lat="40.901635" lon="-3.885272">
        <ele>1189.942</ele>
        <time>2021-07-28T17:29:16Z</time>
      </trkpt>
      <trkpt lat="40.901642" lon="-3.885306">
        <ele>1190.073</ele>
        <time>2021-07-28T17:29:19Z</time>
      </trkpt>
      <trkpt lat="40.901645" lon="-3.885330">
        <ele>1190.176</ele>
        <time>2021-07-28T17:29:21Z</time>
      </trkpt>
      <trkpt lat="40.901654" lon="-3.885360">
        <ele>1190.290</ele>
        <time>2021-07-28T17:29:23Z</time>
      </trkpt>
      <trkpt lat="40.901661" lon="-3.885383">
        <ele>1190.419</ele>
        <time>2021-07-28T17:29:25Z</time>
      </trkpt>
      <trkpt lat="40.901658" lon="-3.885417">
        <ele>1190.508</ele>
        <time>2021-07-28T17:29:27Z</time>
      </trkpt>
      <trkpt lat="40.901664" lon="-3.885448">
        <ele>1190.674</ele>
        <time>2021-07-28T17:29:29Z</time>
      </trkpt>
      <trkpt lat="40.901674" lon="-3.885475">
        <ele>1190.846</ele>
        <time>2021-07-28T17:29:31Z</time>
      </trkpt>
      <trkpt lat="40.901680" lon="-3.885507">
        <ele>1191.023</ele>
        <time>2021-07-28T17:29:33Z</time>
      </trkpt>
      <trkpt lat="40.901693" lon="-3.885533">
        <ele>1191.220</ele>
        <time>2021-07-28T17:29:35Z</time>
      </trkpt>
      <trkpt lat="40.901702" lon="-3.885558">
        <ele>1191.481</ele>
        <time>2021-07-28T17:29:37Z</time>
      </trkpt>
      <trkpt lat="40.901706" lon="-3.885587">
        <ele>1191.681</ele>
        <time>2021-07-28T17:29:39Z</time>
      </trkpt>
      <trkpt lat="40.901718" lon="-3.885615">
        <ele>1191.944</ele>
        <time>2021-07-28T17:29:41Z</time>
      </trkpt>
      <trkpt lat="40.901722" lon="-3.885644">
        <ele>1192.295</ele>
        <time>2021-07-28T17:29:43Z</time>
      </trkpt>
      <trkpt lat="40.901725" lon="-3.885682">
        <ele>1192.476</ele>
        <time>2021-07-28T17:29:45Z</time>
      </trkpt>
      <trkpt lat="40.901725" lon="-3.885715">
        <ele>1192.790</ele>
        <time>2021-07-28T17:29:47Z</time>
      </trkpt>
      <trkpt lat="40.901734" lon="-3.885743">
        <ele>1192.919</ele>
        <time>2021-07-28T17:29:49Z</time>
      </trkpt>
      <trkpt lat="40.901741" lon="-3.885772">
        <ele>1193.208</ele>
        <time>2021-07-28T17:29:51Z</time>
      </trkpt>
      <trkpt lat="40.901744" lon="-3.885802">
        <ele>1193.484</ele>
        <time>2021-07-28T17:29:53Z</time>
      </trkpt>
      <trkpt lat="40.901744" lon="-3.885835">
        <ele>1193.666</ele>
        <time>2021-07-28T17:29:55Z</time>
      </trkpt>
      <trkpt lat="40.901747" lon="-3.885860">
        <ele>1193.813</ele>
        <time>2021-07-28T17:29:57Z</time>
      </trkpt>
      <trkpt lat="40.901757" lon="-3.885895">
        <ele>1194.160</ele>
        <time>2021-07-28T17:29:59Z</time>
      </trkpt>
      <trkpt lat="40.901763" lon="-3.885920">
        <ele>1194.321</ele>
        <time>2021-07-28T17:30:01Z</time>
      </trkpt>
      <trkpt lat="40.901763" lon="-3.885948">
        <ele>1194.551</ele>
        <time>2021-07-28T17:30:03Z</time>
      </trkpt>
      <trkpt lat="40.901766" lon="-3.885978">
        <ele>1194.824</ele>
        <time>2021-07-28T17:30:05Z</time>
      </trkpt>
      <trkpt lat="40.901773" lon="-3.886017">
        <ele>1195.195</ele>
        <time>2021-07-28T17:30:08Z</time>
      </trkpt>
      <trkpt lat="40.901763" lon="-3.886047">
        <ele>1195.233</ele>
        <time>2021-07-28T17:30:10Z</time>
      </trkpt>
      <trkpt lat="40.901763" lon="-3.886077">
        <ele>1195.423</ele>
        <time>2021-07-28T17:30:12Z</time>
      </trkpt>
      <trkpt lat="40.901760" lon="-3.886108">
        <ele>1195.715</ele>
        <time>2021-07-28T17:30:14Z</time>
      </trkpt>
      <trkpt lat="40.901760" lon="-3.886133">
        <ele>1195.808</ele>
        <time>2021-07-28T17:30:16Z</time>
      </trkpt>
      <trkpt lat="40.901760" lon="-3.886163">
        <ele>1195.910</ele>
        <time>2021-07-28T17:30:18Z</time>
      </trkpt>
      <trkpt lat="40.901760" lon="-3.886202">
        <ele>1196.082</ele>
        <time>2021-07-28T17:30:21Z</time>
      </trkpt>
      <trkpt lat="40.901754" lon="-3.886233">
        <ele>1196.119</ele>
        <time>2021-07-28T17:30:23Z</time>
      </trkpt>
      <trkpt lat="40.901747" lon="-3.886263">
        <ele>1196.126</ele>
        <time>2021-07-28T17:30:25Z</time>
      </trkpt>
      <trkpt lat="40.901744" lon="-3.886295">
        <ele>1196.217</ele>
        <time>2021-07-28T17:30:27Z</time>
      </trkpt>
      <trkpt lat="40.901744" lon="-3.886322">
        <ele>1196.327</ele>
        <time>2021-07-28T17:30:29Z</time>
      </trkpt>
      <trkpt lat="40.901744" lon="-3.886346">
        <ele>1196.450</ele>
        <time>2021-07-28T17:30:31Z</time>
      </trkpt>
      <trkpt lat="40.901744" lon="-3.886377">
        <ele>1196.561</ele>
        <time>2021-07-28T17:30:33Z</time>
      </trkpt>
      <trkpt lat="40.901734" lon="-3.886403">
        <ele>1196.667</ele>
        <time>2021-07-28T17:30:35Z</time>
      </trkpt>
      <trkpt lat="40.901734" lon="-3.886433">
        <ele>1196.881</ele>
        <time>2021-07-28T17:30:37Z</time>
      </trkpt>
      <trkpt lat="40.901734" lon="-3.886462">
        <ele>1196.919</ele>
        <time>2021-07-28T17:30:39Z</time>
      </trkpt>
      <trkpt lat="40.901728" lon="-3.886488">
        <ele>1197.108</ele>
        <time>2021-07-28T17:30:41Z</time>
      </trkpt>
      <trkpt lat="40.901728" lon="-3.886516">
        <ele>1197.333</ele>
        <time>2021-07-28T17:30:43Z</time>
      </trkpt>
      <trkpt lat="40.901728" lon="-3.886543">
        <ele>1197.475</ele>
        <time>2021-07-28T17:30:45Z</time>
      </trkpt>
      <trkpt lat="40.901728" lon="-3.886585">
        <ele>1197.782</ele>
        <time>2021-07-28T17:30:48Z</time>
      </trkpt>
      <trkpt lat="40.901728" lon="-3.886623">
        <ele>1197.969</ele>
        <time>2021-07-28T17:30:50Z</time>
      </trkpt>
      <trkpt lat="40.901728" lon="-3.886657">
        <ele>1198.260</ele>
        <time>2021-07-28T17:30:52Z</time>
      </trkpt>
      <trkpt lat="40.901725" lon="-3.886684">
        <ele>1198.360</ele>
        <time>2021-07-28T17:30:54Z</time>
      </trkpt>
      <trkpt lat="40.901715" lon="-3.886723">
        <ele>1198.613</ele>
        <time>2021-07-28T17:30:57Z</time>
      </trkpt>
      <trkpt lat="40.901712" lon="-3.886752">
        <ele>1198.854</ele>
        <time>2021-07-28T17:30:59Z</time>
      </trkpt>
      <trkpt lat="40.901712" lon="-3.886778">
        <ele>1199.091</ele>
        <time>2021-07-28T17:31:01Z</time>
      </trkpt>
      <trkpt lat="40.901706" lon="-3.886803">
        <ele>1199.181</ele>
        <time>2021-07-28T17:31:03Z</time>
      </trkpt>
      <trkpt lat="40.901699" lon="-3.886836">
        <ele>1199.319</ele>
        <time>2021-07-28T17:31:05Z</time>
      </trkpt>
      <trkpt lat="40.901696" lon="-3.886863">
        <ele>1199.508</ele>
        <time>2021-07-28T17:31:07Z</time>
      </trkpt>
      <trkpt lat="40.901686" lon="-3.886888">
        <ele>1199.796</ele>
        <time>2021-07-28T17:31:09Z</time>
      </trkpt>
      <trkpt lat="40.901683" lon="-3.886920">
        <ele>1199.998</ele>
        <time>2021-07-28T17:31:11Z</time>
      </trkpt>
      <trkpt lat="40.901677" lon="-3.886943">
        <ele>1200.055</ele>
        <time>2021-07-28T17:31:13Z</time>
      </trkpt>
      <trkpt lat="40.901667" lon="-3.886967">
        <ele>1200.242</ele>
        <time>2021-07-28T17:31:15Z</time>
      </trkpt>
      <trkpt lat="40.901661" lon="-3.886997">
        <ele>1200.483</ele>
        <time>2021-07-28T17:31:17Z</time>
      </trkpt>
      <trkpt lat="40.901648" lon="-3.887024">
        <ele>1200.573</ele>
        <time>2021-07-28T17:31:19Z</time>
      </trkpt>
      <trkpt lat="40.901642" lon="-3.887055">
        <ele>1200.766</ele>
        <time>2021-07-28T17:31:21Z</time>
      </trkpt>
      <trkpt lat="40.901635" lon="-3.887080">
        <ele>1200.987</ele>
        <time>2021-07-28T17:31:23Z</time>
      </trkpt>
      <trkpt lat="40.901626" lon="-3.887107">
        <ele>1201.025</ele>
        <time>2021-07-28T17:31:25Z</time>
      </trkpt>
      <trkpt lat="40.901616" lon="-3.887130">
        <ele>1201.226</ele>
        <time>2021-07-28T17:31:27Z</time>
      </trkpt>
      <trkpt lat="40.901606" lon="-3.887160">
        <ele>1201.308</ele>
        <time>2021-07-28T17:31:29Z</time>
      </trkpt>
      <trkpt lat="40.901603" lon="-3.887186">
        <ele>1201.508</ele>
        <time>2021-07-28T17:31:31Z</time>
      </trkpt>
      <trkpt lat="40.901600" lon="-3.887212">
        <ele>1201.729</ele>
        <time>2021-07-28T17:31:33Z</time>
      </trkpt>
      <trkpt lat="40.901597" lon="-3.887236">
        <ele>1201.951</ele>
        <time>2021-07-28T17:31:35Z</time>
      </trkpt>
      <trkpt lat="40.901587" lon="-3.887270">
        <ele>1202.288</ele>
        <time>2021-07-28T17:31:37Z</time>
      </trkpt>
      <trkpt lat="40.901581" lon="-3.887295">
        <ele>1202.415</ele>
        <time>2021-07-28T17:31:39Z</time>
      </trkpt>
      <trkpt lat="40.901578" lon="-3.887325">
        <ele>1202.786</ele>
        <time>2021-07-28T17:31:41Z</time>
      </trkpt>
      <trkpt lat="40.901574" lon="-3.887352">
        <ele>1202.966</ele>
        <time>2021-07-28T17:31:43Z</time>
      </trkpt>
      <trkpt lat="40.901565" lon="-3.887385">
        <ele>1203.289</ele>
        <time>2021-07-28T17:31:46Z</time>
      </trkpt>
      <trkpt lat="40.901562" lon="-3.887410">
        <ele>1203.450</ele>
        <time>2021-07-28T17:31:48Z</time>
      </trkpt>
      <trkpt lat="40.901555" lon="-3.887433">
        <ele>1203.641</ele>
        <time>2021-07-28T17:31:50Z</time>
      </trkpt>
      <trkpt lat="40.901546" lon="-3.887457">
        <ele>1203.781</ele>
        <time>2021-07-28T17:31:52Z</time>
      </trkpt>
      <trkpt lat="40.901546" lon="-3.887482">
        <ele>1204.009</ele>
        <time>2021-07-28T17:31:54Z</time>
      </trkpt>
      <trkpt lat="40.901539" lon="-3.887513">
        <ele>1204.208</ele>
        <time>2021-07-28T17:31:57Z</time>
      </trkpt>
      <trkpt lat="40.901536" lon="-3.887540">
        <ele>1204.441</ele>
        <time>2021-07-28T17:31:59Z</time>
      </trkpt>
      <trkpt lat="40.901526" lon="-3.887562">
        <ele>1204.513</ele>
        <time>2021-07-28T17:32:01Z</time>
      </trkpt>
      <trkpt lat="40.901520" lon="-3.887598">
        <ele>1204.830</ele>
        <time>2021-07-28T17:32:04Z</time>
      </trkpt>
      <trkpt lat="40.901517" lon="-3.887628">
        <ele>1205.167</ele>
        <time>2021-07-28T17:32:06Z</time>
      </trkpt>
      <trkpt lat="40.901507" lon="-3.887657">
        <ele>1205.218</ele>
        <time>2021-07-28T17:32:08Z</time>
      </trkpt>
      <trkpt lat="40.901501" lon="-3.887683">
        <ele>1205.478</ele>
        <time>2021-07-28T17:32:10Z</time>
      </trkpt>
      <trkpt lat="40.901498" lon="-3.887714">
        <ele>1205.611</ele>
        <time>2021-07-28T17:32:12Z</time>
      </trkpt>
      <trkpt lat="40.901488" lon="-3.887740">
        <ele>1205.892</ele>
        <time>2021-07-28T17:32:14Z</time>
      </trkpt>
      <trkpt lat="40.901485" lon="-3.887772">
        <ele>1206.075</ele>
        <time>2021-07-28T17:32:16Z</time>
      </trkpt>
      <trkpt lat="40.901475" lon="-3.887798">
        <ele>1206.128</ele>
        <time>2021-07-28T17:32:18Z</time>
      </trkpt>
      <trkpt lat="40.901469" lon="-3.887827">
        <ele>1206.220</ele>
        <time>2021-07-28T17:32:20Z</time>
      </trkpt>
      <trkpt lat="40.901466" lon="-3.887852">
        <ele>1206.408</ele>
        <time>2021-07-28T17:32:22Z</time>
      </trkpt>
      <trkpt lat="40.901462" lon="-3.887880">
        <ele>1206.524</ele>
        <time>2021-07-28T17:32:24Z</time>
      </trkpt>
      <trkpt lat="40.901462" lon="-3.887906">
        <ele>1206.796</ele>
        <time>2021-07-28T17:32:26Z</time>
      </trkpt>
      <trkpt lat="40.901459" lon="-3.887935">
        <ele>1206.933</ele>
        <time>2021-07-28T17:32:28Z</time>
      </trkpt>
      <trkpt lat="40.901462" lon="-3.887963">
        <ele>1207.130</ele>
        <time>2021-07-28T17:32:30Z</time>
      </trkpt>
      <trkpt lat="40.901462" lon="-3.887990">
        <ele>1207.381</ele>
        <time>2021-07-28T17:32:32Z</time>
      </trkpt>
      <trkpt lat="40.901462" lon="-3.888017">
        <ele>1207.581</ele>
        <time>2021-07-28T17:32:34Z</time>
      </trkpt>
      <trkpt lat="40.901459" lon="-3.888048">
        <ele>1207.794</ele>
        <time>2021-07-28T17:32:36Z</time>
      </trkpt>
      <trkpt lat="40.901462" lon="-3.888078">
        <ele>1208.045</ele>
        <time>2021-07-28T17:32:38Z</time>
      </trkpt>
      <trkpt lat="40.901466" lon="-3.888103">
        <ele>1208.321</ele>
        <time>2021-07-28T17:32:40Z</time>
      </trkpt>
      <trkpt lat="40.901466" lon="-3.888133">
        <ele>1208.641</ele>
        <time>2021-07-28T17:32:42Z</time>
      </trkpt>
      <trkpt lat="40.901469" lon="-3.888162">
        <ele>1208.905</ele>
        <time>2021-07-28T17:32:44Z</time>
      </trkpt>
      <trkpt lat="40.901469" lon="-3.888198">
        <ele>1209.308</ele>
        <time>2021-07-28T17:32:47Z</time>
      </trkpt>
      <trkpt lat="40.901475" lon="-3.888228">
        <ele>1209.689</ele>
        <time>2021-07-28T17:32:49Z</time>
      </trkpt>
      <trkpt lat="40.901478" lon="-3.888255">
        <ele>1209.961</ele>
        <time>2021-07-28T17:32:51Z</time>
      </trkpt>
      <trkpt lat="40.901482" lon="-3.888288">
        <ele>1210.238</ele>
        <time>2021-07-28T17:32:54Z</time>
      </trkpt>
      <trkpt lat="40.901482" lon="-3.888315">
        <ele>1210.535</ele>
        <time>2021-07-28T17:32:56Z</time>
      </trkpt>
      <trkpt lat="40.901488" lon="-3.888340">
        <ele>1210.746</ele>
        <time>2021-07-28T17:32:58Z</time>
      </trkpt>
      <trkpt lat="40.901488" lon="-3.888380">
        <ele>1210.926</ele>
        <time>2021-07-28T17:33:01Z</time>
      </trkpt>
      <trkpt lat="40.901488" lon="-3.888407">
        <ele>1211.179</ele>
        <time>2021-07-28T17:33:03Z</time>
      </trkpt>
      <trkpt lat="40.901488" lon="-3.888440">
        <ele>1211.230</ele>
        <time>2021-07-28T17:33:05Z</time>
      </trkpt>
      <trkpt lat="40.901488" lon="-3.888466">
        <ele>1211.483</ele>
        <time>2021-07-28T17:33:07Z</time>
      </trkpt>
      <trkpt lat="40.901488" lon="-3.888495">
        <ele>1211.525</ele>
        <time>2021-07-28T17:33:09Z</time>
      </trkpt>
      <trkpt lat="40.901494" lon="-3.888523">
        <ele>1211.717</ele>
        <time>2021-07-28T17:33:11Z</time>
      </trkpt>
      <trkpt lat="40.901498" lon="-3.888553">
        <ele>1211.908</ele>
        <time>2021-07-28T17:33:13Z</time>
      </trkpt>
      <trkpt lat="40.901498" lon="-3.888582">
        <ele>1212.085</ele>
        <time>2021-07-28T17:33:15Z</time>
      </trkpt>
      <trkpt lat="40.901501" lon="-3.888610">
        <ele>1212.227</ele>
        <time>2021-07-28T17:33:17Z</time>
      </trkpt>
      <trkpt lat="40.901501" lon="-3.888640">
        <ele>1212.474</ele>
        <time>2021-07-28T17:33:19Z</time>
      </trkpt>
      <trkpt lat="40.901501" lon="-3.888672">
        <ele>1212.681</ele>
        <time>2021-07-28T17:33:21Z</time>
      </trkpt>
      <trkpt lat="40.901501" lon="-3.888702">
        <ele>1212.972</ele>
        <time>2021-07-28T17:33:23Z</time>
      </trkpt>
      <trkpt lat="40.901507" lon="-3.888735">
        <ele>1213.222</ele>
        <time>2021-07-28T17:33:25Z</time>
      </trkpt>
      <trkpt lat="40.901514" lon="-3.888760">
        <ele>1213.415</ele>
        <time>2021-07-28T17:33:27Z</time>
      </trkpt>
      <trkpt lat="40.901514" lon="-3.888790">
        <ele>1213.696</ele>
        <time>2021-07-28T17:33:29Z</time>
      </trkpt>
      <trkpt lat="40.901514" lon="-3.888822">
        <ele>1213.977</ele>
        <time>2021-07-28T17:33:31Z</time>
      </trkpt>
      <trkpt lat="40.901514" lon="-3.888850">
        <ele>1214.161</ele>
        <time>2021-07-28T17:33:33Z</time>
      </trkpt>
      <trkpt lat="40.901514" lon="-3.888882">
        <ele>1214.327</ele>
        <time>2021-07-28T17:33:35Z</time>
      </trkpt>
      <trkpt lat="40.901514" lon="-3.888920">
        <ele>1214.608</ele>
        <time>2021-07-28T17:33:37Z</time>
      </trkpt>
      <trkpt lat="40.901514" lon="-3.888953">
        <ele>1214.884</ele>
        <time>2021-07-28T17:33:39Z</time>
      </trkpt>
      <trkpt lat="40.901514" lon="-3.888983">
        <ele>1215.086</ele>
        <time>2021-07-28T17:33:41Z</time>
      </trkpt>
      <trkpt lat="40.901507" lon="-3.889013">
        <ele>1215.263</ele>
        <time>2021-07-28T17:33:43Z</time>
      </trkpt>
      <trkpt lat="40.901504" lon="-3.889040">
        <ele>1215.370</ele>
        <time>2021-07-28T17:33:45Z</time>
      </trkpt>
      <trkpt lat="40.901504" lon="-3.889070">
        <ele>1215.571</ele>
        <time>2021-07-28T17:33:47Z</time>
      </trkpt>
      <trkpt lat="40.901501" lon="-3.889097">
        <ele>1215.771</ele>
        <time>2021-07-28T17:33:49Z</time>
      </trkpt>
      <trkpt lat="40.901507" lon="-3.889122">
        <ele>1216.064</ele>
        <time>2021-07-28T17:33:51Z</time>
      </trkpt>
      <trkpt lat="40.901507" lon="-3.889150">
        <ele>1216.265</ele>
        <time>2021-07-28T17:33:53Z</time>
      </trkpt>
      <trkpt lat="40.901507" lon="-3.889182">
        <ele>1216.432</ele>
        <time>2021-07-28T17:33:55Z</time>
      </trkpt>
      <trkpt lat="40.901507" lon="-3.889210">
        <ele>1216.592</ele>
        <time>2021-07-28T17:33:57Z</time>
      </trkpt>
      <trkpt lat="40.901507" lon="-3.889247">
        <ele>1216.711</ele>
        <time>2021-07-28T17:33:59Z</time>
      </trkpt>
      <trkpt lat="40.901504" lon="-3.889275">
        <ele>1216.808</ele>
        <time>2021-07-28T17:34:01Z</time>
      </trkpt>
      <trkpt lat="40.901504" lon="-3.889305">
        <ele>1216.940</ele>
        <time>2021-07-28T17:34:03Z</time>
      </trkpt>
      <trkpt lat="40.901501" lon="-3.889336">
        <ele>1217.122</ele>
        <time>2021-07-28T17:34:05Z</time>
      </trkpt>
      <trkpt lat="40.901504" lon="-3.889377">
        <ele>1217.369</ele>
        <time>2021-07-28T17:34:08Z</time>
      </trkpt>
      <trkpt lat="40.901504" lon="-3.889407">
        <ele>1217.546</ele>
        <time>2021-07-28T17:34:10Z</time>
      </trkpt>
      <trkpt lat="40.901501" lon="-3.889435">
        <ele>1217.627</ele>
        <time>2021-07-28T17:34:12Z</time>
      </trkpt>
      <trkpt lat="40.901498" lon="-3.889467">
        <ele>1217.717</ele>
        <time>2021-07-28T17:34:14Z</time>
      </trkpt>
      <trkpt lat="40.901498" lon="-3.889498">
        <ele>1217.830</ele>
        <time>2021-07-28T17:34:16Z</time>
      </trkpt>
      <trkpt lat="40.901498" lon="-3.889533">
        <ele>1217.971</ele>
        <time>2021-07-28T17:34:18Z</time>
      </trkpt>
      <trkpt lat="40.901504" lon="-3.889563">
        <ele>1218.157</ele>
        <time>2021-07-28T17:34:20Z</time>
      </trkpt>
      <trkpt lat="40.901504" lon="-3.889600">
        <ele>1218.200</ele>
        <time>2021-07-28T17:34:22Z</time>
      </trkpt>
      <trkpt lat="40.901504" lon="-3.889634">
        <ele>1218.320</ele>
        <time>2021-07-28T17:34:24Z</time>
      </trkpt>
      <trkpt lat="40.901498" lon="-3.889666">
        <ele>1218.408</ele>
        <time>2021-07-28T17:34:26Z</time>
      </trkpt>
      <trkpt lat="40.901494" lon="-3.889703">
        <ele>1218.462</ele>
        <time>2021-07-28T17:34:28Z</time>
      </trkpt>
      <trkpt lat="40.901498" lon="-3.889738">
        <ele>1218.634</ele>
        <time>2021-07-28T17:34:30Z</time>
      </trkpt>
      <trkpt lat="40.901498" lon="-3.889772">
        <ele>1218.731</ele>
        <time>2021-07-28T17:34:32Z</time>
      </trkpt>
      <trkpt lat="40.901498" lon="-3.889800">
        <ele>1218.838</ele>
        <time>2021-07-28T17:34:34Z</time>
      </trkpt>
      <trkpt lat="40.901501" lon="-3.889834">
        <ele>1218.919</ele>
        <time>2021-07-28T17:34:36Z</time>
      </trkpt>
      <trkpt lat="40.901501" lon="-3.889865">
        <ele>1219.029</ele>
        <time>2021-07-28T17:34:38Z</time>
      </trkpt>
      <trkpt lat="40.901507" lon="-3.889900">
        <ele>1219.232</ele>
        <time>2021-07-28T17:34:40Z</time>
      </trkpt>
      <trkpt lat="40.901507" lon="-3.889932">
        <ele>1219.363</ele>
        <time>2021-07-28T17:34:42Z</time>
      </trkpt>
      <trkpt lat="40.901514" lon="-3.889963">
        <ele>1219.675</ele>
        <time>2021-07-28T17:34:44Z</time>
      </trkpt>
      <trkpt lat="40.901517" lon="-3.889996">
        <ele>1219.828</ele>
        <time>2021-07-28T17:34:46Z</time>
      </trkpt>
      <trkpt lat="40.901520" lon="-3.890028">
        <ele>1219.920</ele>
        <time>2021-07-28T17:34:48Z</time>
      </trkpt>
      <trkpt lat="40.901523" lon="-3.890062">
        <ele>1220.008</ele>
        <time>2021-07-28T17:34:50Z</time>
      </trkpt>
      <trkpt lat="40.901526" lon="-3.890095">
        <ele>1220.184</ele>
        <time>2021-07-28T17:34:52Z</time>
      </trkpt>
      <trkpt lat="40.901536" lon="-3.890122">
        <ele>1220.456</ele>
        <time>2021-07-28T17:34:54Z</time>
      </trkpt>
      <trkpt lat="40.901542" lon="-3.890150">
        <ele>1220.693</ele>
        <time>2021-07-28T17:34:56Z</time>
      </trkpt>
      <trkpt lat="40.901546" lon="-3.890185">
        <ele>1220.890</ele>
        <time>2021-07-28T17:34:58Z</time>
      </trkpt>
      <trkpt lat="40.901555" lon="-3.890222">
        <ele>1221.171</ele>
        <time>2021-07-28T17:35:00Z</time>
      </trkpt>
      <trkpt lat="40.901558" lon="-3.890260">
        <ele>1221.261</ele>
        <time>2021-07-28T17:35:02Z</time>
      </trkpt>
      <trkpt lat="40.901565" lon="-3.890290">
        <ele>1221.524</ele>
        <time>2021-07-28T17:35:04Z</time>
      </trkpt>
      <trkpt lat="40.901562" lon="-3.890324">
        <ele>1221.695</ele>
        <time>2021-07-28T17:35:06Z</time>
      </trkpt>
      <trkpt lat="40.901565" lon="-3.890353">
        <ele>1221.862</ele>
        <time>2021-07-28T17:35:08Z</time>
      </trkpt>
      <trkpt lat="40.901574" lon="-3.890386">
        <ele>1222.283</ele>
        <time>2021-07-28T17:35:10Z</time>
      </trkpt>
      <trkpt lat="40.901581" lon="-3.890422">
        <ele>1222.511</ele>
        <time>2021-07-28T17:35:12Z</time>
      </trkpt>
      <trkpt lat="40.901587" lon="-3.890453">
        <ele>1222.808</ele>
        <time>2021-07-28T17:35:14Z</time>
      </trkpt>
      <trkpt lat="40.901594" lon="-3.890482">
        <ele>1223.173</ele>
        <time>2021-07-28T17:35:16Z</time>
      </trkpt>
      <trkpt lat="40.901597" lon="-3.890515">
        <ele>1223.365</ele>
        <time>2021-07-28T17:35:18Z</time>
      </trkpt>
      <trkpt lat="40.901600" lon="-3.890545">
        <ele>1223.572</ele>
        <time>2021-07-28T17:35:20Z</time>
      </trkpt>
      <trkpt lat="40.901603" lon="-3.890583">
        <ele>1223.729</ele>
        <time>2021-07-28T17:35:22Z</time>
      </trkpt>
      <trkpt lat="40.901606" lon="-3.890612">
        <ele>1223.910</ele>
        <time>2021-07-28T17:35:24Z</time>
      </trkpt>
      <trkpt lat="40.901613" lon="-3.890642">
        <ele>1224.240</ele>
        <time>2021-07-28T17:35:26Z</time>
      </trkpt>
      <trkpt lat="40.901616" lon="-3.890670">
        <ele>1224.363</ele>
        <time>2021-07-28T17:35:28Z</time>
      </trkpt>
      <trkpt lat="40.901606" lon="-3.890706">
        <ele>1224.224</ele>
        <time>2021-07-28T17:35:30Z</time>
      </trkpt>
      <trkpt lat="40.901613" lon="-3.890736">
        <ele>1224.537</ele>
        <time>2021-07-28T17:35:32Z</time>
      </trkpt>
      <trkpt lat="40.901616" lon="-3.890770">
        <ele>1224.749</ele>
        <time>2021-07-28T17:35:34Z</time>
      </trkpt>
      <trkpt lat="40.901616" lon="-3.890802">
        <ele>1224.813</ele>
        <time>2021-07-28T17:35:36Z</time>
      </trkpt>
      <trkpt lat="40.901613" lon="-3.890835">
        <ele>1224.908</ele>
        <time>2021-07-28T17:35:38Z</time>
      </trkpt>
      <trkpt lat="40.901613" lon="-3.890868">
        <ele>1225.130</ele>
        <time>2021-07-28T17:35:40Z</time>
      </trkpt>
      <trkpt lat="40.901606" lon="-3.890907">
        <ele>1225.282</ele>
        <time>2021-07-28T17:35:42Z</time>
      </trkpt>
      <trkpt lat="40.901606" lon="-3.890935">
        <ele>1225.489</ele>
        <time>2021-07-28T17:35:44Z</time>
      </trkpt>
      <trkpt lat="40.901606" lon="-3.890967">
        <ele>1225.736</ele>
        <time>2021-07-28T17:35:46Z</time>
      </trkpt>
      <trkpt lat="40.901603" lon="-3.890997">
        <ele>1225.897</ele>
        <time>2021-07-28T17:35:48Z</time>
      </trkpt>
      <trkpt lat="40.901603" lon="-3.891027">
        <ele>1226.057</ele>
        <time>2021-07-28T17:35:50Z</time>
      </trkpt>
      <trkpt lat="40.901600" lon="-3.891060">
        <ele>1226.220</ele>
        <time>2021-07-28T17:35:52Z</time>
      </trkpt>
      <trkpt lat="40.901600" lon="-3.891086">
        <ele>1226.431</ele>
        <time>2021-07-28T17:35:54Z</time>
      </trkpt>
      <trkpt lat="40.901600" lon="-3.891112">
        <ele>1226.663</ele>
        <time>2021-07-28T17:35:56Z</time>
      </trkpt>
      <trkpt lat="40.901600" lon="-3.891143">
        <ele>1226.744</ele>
        <time>2021-07-28T17:35:58Z</time>
      </trkpt>
      <trkpt lat="40.901597" lon="-3.891168">
        <ele>1226.818</ele>
        <time>2021-07-28T17:36:00Z</time>
      </trkpt>
      <trkpt lat="40.901597" lon="-3.891200">
        <ele>1227.008</ele>
        <time>2021-07-28T17:36:02Z</time>
      </trkpt>
      <trkpt lat="40.901594" lon="-3.891230">
        <ele>1227.163</ele>
        <time>2021-07-28T17:36:04Z</time>
      </trkpt>
      <trkpt lat="40.901587" lon="-3.891262">
        <ele>1227.195</ele>
        <time>2021-07-28T17:36:06Z</time>
      </trkpt>
      <trkpt lat="40.901587" lon="-3.891288">
        <ele>1227.312</ele>
        <time>2021-07-28T17:36:08Z</time>
      </trkpt>
      <trkpt lat="40.901584" lon="-3.891318">
        <ele>1227.469</ele>
        <time>2021-07-28T17:36:10Z</time>
      </trkpt>
      <trkpt lat="40.901584" lon="-3.891348">
        <ele>1227.690</ele>
        <time>2021-07-28T17:36:12Z</time>
      </trkpt>
      <trkpt lat="40.901587" lon="-3.891387">
        <ele>1227.840</ele>
        <time>2021-07-28T17:36:15Z</time>
      </trkpt>
      <trkpt lat="40.901587" lon="-3.891418">
        <ele>1228.013</ele>
        <time>2021-07-28T17:36:17Z</time>
      </trkpt>
      <trkpt lat="40.901587" lon="-3.891446">
        <ele>1228.124</ele>
        <time>2021-07-28T17:36:19Z</time>
      </trkpt>
      <trkpt lat="40.901584" lon="-3.891482">
        <ele>1228.271</ele>
        <time>2021-07-28T17:36:21Z</time>
      </trkpt>
      <trkpt lat="40.901581" lon="-3.891512">
        <ele>1228.341</ele>
        <time>2021-07-28T17:36:23Z</time>
      </trkpt>
      <trkpt lat="40.901581" lon="-3.891543">
        <ele>1228.515</ele>
        <time>2021-07-28T17:36:25Z</time>
      </trkpt>
      <trkpt lat="40.901581" lon="-3.891575">
        <ele>1228.608</ele>
        <time>2021-07-28T17:36:27Z</time>
      </trkpt>
      <trkpt lat="40.901581" lon="-3.891608">
        <ele>1228.824</ele>
        <time>2021-07-28T17:36:29Z</time>
      </trkpt>
      <trkpt lat="40.901578" lon="-3.891637">
        <ele>1228.956</ele>
        <time>2021-07-28T17:36:31Z</time>
      </trkpt>
      <trkpt lat="40.901574" lon="-3.891667">
        <ele>1229.073</ele>
        <time>2021-07-28T17:36:33Z</time>
      </trkpt>
      <trkpt lat="40.901574" lon="-3.891695">
        <ele>1229.230</ele>
        <time>2021-07-28T17:36:35Z</time>
      </trkpt>
      <trkpt lat="40.901568" lon="-3.891723">
        <ele>1229.471</ele>
        <time>2021-07-28T17:36:37Z</time>
      </trkpt>
      <trkpt lat="40.901565" lon="-3.891756">
        <ele>1229.721</ele>
        <time>2021-07-28T17:36:39Z</time>
      </trkpt>
      <trkpt lat="40.901562" lon="-3.891785">
        <ele>1229.964</ele>
        <time>2021-07-28T17:36:41Z</time>
      </trkpt>
      <trkpt lat="40.901555" lon="-3.891817">
        <ele>1230.145</ele>
        <time>2021-07-28T17:36:43Z</time>
      </trkpt>
      <trkpt lat="40.901546" lon="-3.891845">
        <ele>1230.378</ele>
        <time>2021-07-28T17:36:45Z</time>
      </trkpt>
      <trkpt lat="40.901536" lon="-3.891872">
        <ele>1230.433</ele>
        <time>2021-07-28T17:36:47Z</time>
      </trkpt>
      <trkpt lat="40.901523" lon="-3.891897">
        <ele>1230.526</ele>
        <time>2021-07-28T17:36:49Z</time>
      </trkpt>
      <trkpt lat="40.901514" lon="-3.891925">
        <ele>1230.708</ele>
        <time>2021-07-28T17:36:51Z</time>
      </trkpt>
      <trkpt lat="40.901501" lon="-3.891948">
        <ele>1230.844</ele>
        <time>2021-07-28T17:36:53Z</time>
      </trkpt>
      <trkpt lat="40.901498" lon="-3.891976">
        <ele>1231.116</ele>
        <time>2021-07-28T17:36:55Z</time>
      </trkpt>
      <trkpt lat="40.901485" lon="-3.892005">
        <ele>1231.383</ele>
        <time>2021-07-28T17:36:57Z</time>
      </trkpt>
      <trkpt lat="40.901478" lon="-3.892033">
        <ele>1231.510</ele>
        <time>2021-07-28T17:36:59Z</time>
      </trkpt>
      <trkpt lat="40.901466" lon="-3.892065">
        <ele>1231.711</ele>
        <time>2021-07-28T17:37:01Z</time>
      </trkpt>
      <trkpt lat="40.901456" lon="-3.892096">
        <ele>1232.061</ele>
        <time>2021-07-28T17:37:03Z</time>
      </trkpt>
      <trkpt lat="40.901456" lon="-3.892123">
        <ele>1232.314</ele>
        <time>2021-07-28T17:37:05Z</time>
      </trkpt>
      <trkpt lat="40.901450" lon="-3.892150">
        <ele>1232.555</ele>
        <time>2021-07-28T17:37:07Z</time>
      </trkpt>
      <trkpt lat="40.901446" lon="-3.892183">
        <ele>1232.825</ele>
        <time>2021-07-28T17:37:09Z</time>
      </trkpt>
      <trkpt lat="40.901443" lon="-3.892213">
        <ele>1233.126</ele>
        <time>2021-07-28T17:37:11Z</time>
      </trkpt>
      <trkpt lat="40.901443" lon="-3.892243">
        <ele>1233.308</ele>
        <time>2021-07-28T17:37:13Z</time>
      </trkpt>
      <trkpt lat="40.901437" lon="-3.892270">
        <ele>1233.508</ele>
        <time>2021-07-28T17:37:15Z</time>
      </trkpt>
      <trkpt lat="40.901437" lon="-3.892295">
        <ele>1233.769</ele>
        <time>2021-07-28T17:37:18Z</time>
      </trkpt>
      <trkpt lat="40.901443" lon="-3.892320">
        <ele>1233.961</ele>
        <time>2021-07-28T17:37:24Z</time>
      </trkpt>
      <trkpt lat="40.901446" lon="-3.892353">
        <ele>1234.198</ele>
        <time>2021-07-28T17:37:27Z</time>
      </trkpt>
      <trkpt lat="40.901450" lon="-3.892378">
        <ele>1234.365</ele>
        <time>2021-07-28T17:37:29Z</time>
      </trkpt>
      <trkpt lat="40.901456" lon="-3.892405">
        <ele>1234.646</ele>
        <time>2021-07-28T17:37:32Z</time>
      </trkpt>
      <trkpt lat="40.901462" lon="-3.892444">
        <ele>1234.916</ele>
        <time>2021-07-28T17:37:35Z</time>
      </trkpt>
      <trkpt lat="40.901462" lon="-3.892476">
        <ele>1235.189</ele>
        <time>2021-07-28T17:37:37Z</time>
      </trkpt>
      <trkpt lat="40.901466" lon="-3.892506">
        <ele>1235.310</ele>
        <time>2021-07-28T17:37:39Z</time>
      </trkpt>
      <trkpt lat="40.901469" lon="-3.892535">
        <ele>1235.669</ele>
        <time>2021-07-28T17:37:41Z</time>
      </trkpt>
      <trkpt lat="40.901469" lon="-3.892567">
        <ele>1235.904</ele>
        <time>2021-07-28T17:37:43Z</time>
      </trkpt>
      <trkpt lat="40.901469" lon="-3.892595">
        <ele>1236.224</ele>
        <time>2021-07-28T17:37:45Z</time>
      </trkpt>
      <trkpt lat="40.901475" lon="-3.892627">
        <ele>1236.508</ele>
        <time>2021-07-28T17:37:47Z</time>
      </trkpt>
      <trkpt lat="40.901475" lon="-3.892654">
        <ele>1236.893</ele>
        <time>2021-07-28T17:37:49Z</time>
      </trkpt>
      <trkpt lat="40.901478" lon="-3.892682">
        <ele>1237.155</ele>
        <time>2021-07-28T17:37:51Z</time>
      </trkpt>
      <trkpt lat="40.901482" lon="-3.892707">
        <ele>1237.372</ele>
        <time>2021-07-28T17:37:53Z</time>
      </trkpt>
      <trkpt lat="40.901488" lon="-3.892735">
        <ele>1237.639</ele>
        <time>2021-07-28T17:37:56Z</time>
      </trkpt>
      <trkpt lat="40.901494" lon="-3.892762">
        <ele>1237.970</ele>
        <time>2021-07-28T17:37:58Z</time>
      </trkpt>
      <trkpt lat="40.901488" lon="-3.892788">
        <ele>1238.160</ele>
        <time>2021-07-28T17:38:00Z</time>
      </trkpt>
      <trkpt lat="40.901482" lon="-3.892820">
        <ele>1238.313</ele>
        <time>2021-07-28T17:38:02Z</time>
      </trkpt>
      <trkpt lat="40.901478" lon="-3.892848">
        <ele>1238.554</ele>
        <time>2021-07-28T17:38:04Z</time>
      </trkpt>
      <trkpt lat="40.901469" lon="-3.892875">
        <ele>1238.765</ele>
        <time>2021-07-28T17:38:06Z</time>
      </trkpt>
      <trkpt lat="40.901462" lon="-3.892900">
        <ele>1238.968</ele>
        <time>2021-07-28T17:38:08Z</time>
      </trkpt>
      <trkpt lat="40.901456" lon="-3.892927">
        <ele>1239.114</ele>
        <time>2021-07-28T17:38:10Z</time>
      </trkpt>
      <trkpt lat="40.901443" lon="-3.892955">
        <ele>1239.308</ele>
        <time>2021-07-28T17:38:12Z</time>
      </trkpt>
      <trkpt lat="40.901427" lon="-3.892980">
        <ele>1239.563</ele>
        <time>2021-07-28T17:38:14Z</time>
      </trkpt>
      <trkpt lat="40.901418" lon="-3.893008">
        <ele>1239.715</ele>
        <time>2021-07-28T17:38:16Z</time>
      </trkpt>
      <trkpt lat="40.901414" lon="-3.893037">
        <ele>1239.942</ele>
        <time>2021-07-28T17:38:18Z</time>
      </trkpt>
      <trkpt lat="40.901418" lon="-3.893072">
        <ele>1240.279</ele>
        <time>2021-07-28T17:38:20Z</time>
      </trkpt>
      <trkpt lat="40.901418" lon="-3.893100">
        <ele>1240.510</ele>
        <time>2021-07-28T17:38:22Z</time>
      </trkpt>
      <trkpt lat="40.901414" lon="-3.893128">
        <ele>1240.880</ele>
        <time>2021-07-28T17:38:24Z</time>
      </trkpt>
      <trkpt lat="40.901414" lon="-3.893160">
        <ele>1241.153</ele>
        <time>2021-07-28T17:38:26Z</time>
      </trkpt>
      <trkpt lat="40.901414" lon="-3.893190">
        <ele>1241.574</ele>
        <time>2021-07-28T17:38:28Z</time>
      </trkpt>
      <trkpt lat="40.901405" lon="-3.893220">
        <ele>1241.862</ele>
        <time>2021-07-28T17:38:30Z</time>
      </trkpt>
      <trkpt lat="40.901408" lon="-3.893247">
        <ele>1242.183</ele>
        <time>2021-07-28T17:38:32Z</time>
      </trkpt>
      <trkpt lat="40.901408" lon="-3.893273">
        <ele>1242.311</ele>
        <time>2021-07-28T17:38:34Z</time>
      </trkpt>
      <trkpt lat="40.901414" lon="-3.893302">
        <ele>1242.708</ele>
        <time>2021-07-28T17:38:36Z</time>
      </trkpt>
      <trkpt lat="40.901414" lon="-3.893338">
        <ele>1243.033</ele>
        <time>2021-07-28T17:38:38Z</time>
      </trkpt>
      <trkpt lat="40.901414" lon="-3.893367">
        <ele>1243.415</ele>
        <time>2021-07-28T17:38:40Z</time>
      </trkpt>
      <trkpt lat="40.901408" lon="-3.893390">
        <ele>1243.652</ele>
        <time>2021-07-28T17:38:42Z</time>
      </trkpt>
      <trkpt lat="40.901408" lon="-3.893418">
        <ele>1243.949</ele>
        <time>2021-07-28T17:38:44Z</time>
      </trkpt>
      <trkpt lat="40.901402" lon="-3.893442">
        <ele>1244.260</ele>
        <time>2021-07-28T17:38:46Z</time>
      </trkpt>
      <trkpt lat="40.901398" lon="-3.893470">
        <ele>1244.570</ele>
        <time>2021-07-28T17:38:48Z</time>
      </trkpt>
      <trkpt lat="40.901389" lon="-3.893497">
        <ele>1244.843</ele>
        <time>2021-07-28T17:38:50Z</time>
      </trkpt>
      <trkpt lat="40.901379" lon="-3.893523">
        <ele>1245.014</ele>
        <time>2021-07-28T17:38:52Z</time>
      </trkpt>
      <trkpt lat="40.901366" lon="-3.893556">
        <ele>1245.481</ele>
        <time>2021-07-28T17:38:55Z</time>
      </trkpt>
      <trkpt lat="40.901357" lon="-3.893580">
        <ele>1245.761</ele>
        <time>2021-07-28T17:38:57Z</time>
      </trkpt>
      <trkpt lat="40.901344" lon="-3.893597">
        <ele>1245.817</ele>
        <time>2021-07-28T17:38:59Z</time>
      </trkpt>
      <trkpt lat="40.901325" lon="-3.893623">
        <ele>1246.108</ele>
        <time>2021-07-28T17:39:02Z</time>
      </trkpt>
      <trkpt lat="40.901315" lon="-3.893652">
        <ele>1246.485</ele>
        <time>2021-07-28T17:39:05Z</time>
      </trkpt>
      <trkpt lat="40.901302" lon="-3.893672">
        <ele>1246.777</ele>
        <time>2021-07-28T17:39:07Z</time>
      </trkpt>
      <trkpt lat="40.901299" lon="-3.893697">
        <ele>1246.954</ele>
        <time>2021-07-28T17:39:09Z</time>
      </trkpt>
      <trkpt lat="40.901286" lon="-3.893722">
        <ele>1247.211</ele>
        <time>2021-07-28T17:39:11Z</time>
      </trkpt>
      <trkpt lat="40.901277" lon="-3.893745">
        <ele>1247.452</ele>
        <time>2021-07-28T17:39:13Z</time>
      </trkpt>
      <trkpt lat="40.901261" lon="-3.893768">
        <ele>1247.762</ele>
        <time>2021-07-28T17:39:15Z</time>
      </trkpt>
      <trkpt lat="40.901251" lon="-3.893790">
        <ele>1247.925</ele>
        <time>2021-07-28T17:39:17Z</time>
      </trkpt>
      <trkpt lat="40.901238" lon="-3.893812">
        <ele>1248.286</ele>
        <time>2021-07-28T17:39:19Z</time>
      </trkpt>
      <trkpt lat="40.901222" lon="-3.893828">
        <ele>1248.393</ele>
        <time>2021-07-28T17:39:21Z</time>
      </trkpt>
      <trkpt lat="40.901206" lon="-3.893850">
        <ele>1248.665</ele>
        <time>2021-07-28T17:39:23Z</time>
      </trkpt>
      <trkpt lat="40.901190" lon="-3.893875">
        <ele>1248.821</ele>
        <time>2021-07-28T17:39:26Z</time>
      </trkpt>
      <trkpt lat="40.901168" lon="-3.893890">
        <ele>1249.008</ele>
        <time>2021-07-28T17:39:29Z</time>
      </trkpt>
      <trkpt lat="40.901152" lon="-3.893905">
        <ele>1249.276</ele>
        <time>2021-07-28T17:39:31Z</time>
      </trkpt>
      <trkpt lat="40.901136" lon="-3.893928">
        <ele>1249.698</ele>
        <time>2021-07-28T17:39:34Z</time>
      </trkpt>
      <trkpt lat="40.901117" lon="-3.893947">
        <ele>1249.865</ele>
        <time>2021-07-28T17:39:36Z</time>
      </trkpt>
      <trkpt lat="40.901101" lon="-3.893958">
        <ele>1250.032</ele>
        <time>2021-07-28T17:39:38Z</time>
      </trkpt>
      <trkpt lat="40.901085" lon="-3.893973">
        <ele>1250.363</ele>
        <time>2021-07-28T17:39:40Z</time>
      </trkpt>
      <trkpt lat="40.901069" lon="-3.893987">
        <ele>1250.683</ele>
        <time>2021-07-28T17:39:42Z</time>
      </trkpt>
      <trkpt lat="40.901053" lon="-3.894003">
        <ele>1250.966</ele>
        <time>2021-07-28T17:39:44Z</time>
      </trkpt>
      <trkpt lat="40.901030" lon="-3.894025">
        <ele>1251.377</ele>
        <time>2021-07-28T17:39:47Z</time>
      </trkpt>
      <trkpt lat="40.901021" lon="-3.894047">
        <ele>1251.694</ele>
        <time>2021-07-28T17:39:49Z</time>
      </trkpt>
      <trkpt lat="40.901008" lon="-3.894070">
        <ele>1252.057</ele>
        <time>2021-07-28T17:39:51Z</time>
      </trkpt>
      <trkpt lat="40.900992" lon="-3.894098">
        <ele>1252.422</ele>
        <time>2021-07-28T17:39:54Z</time>
      </trkpt>
      <trkpt lat="40.900986" lon="-3.894128">
        <ele>1252.908</ele>
        <time>2021-07-28T17:39:57Z</time>
      </trkpt>
      <trkpt lat="40.900973" lon="-3.894158">
        <ele>1253.456</ele>
        <time>2021-07-28T17:40:00Z</time>
      </trkpt>
      <trkpt lat="40.900957" lon="-3.894182">
        <ele>1253.858</ele>
        <time>2021-07-28T17:40:03Z</time>
      </trkpt>
      <trkpt lat="40.900938" lon="-3.894202">
        <ele>1254.285</ele>
        <time>2021-07-28T17:40:05Z</time>
      </trkpt>
      <trkpt lat="40.900922" lon="-3.894222">
        <ele>1254.662</ele>
        <time>2021-07-28T17:40:07Z</time>
      </trkpt>
      <trkpt lat="40.900906" lon="-3.894240">
        <ele>1255.083</ele>
        <time>2021-07-28T17:40:09Z</time>
      </trkpt>
      <trkpt lat="40.900890" lon="-3.894253">
        <ele>1255.393</ele>
        <time>2021-07-28T17:40:11Z</time>
      </trkpt>
      <trkpt lat="40.900870" lon="-3.894262">
        <ele>1255.516</ele>
        <time>2021-07-28T17:40:13Z</time>
      </trkpt>
      <trkpt lat="40.900845" lon="-3.894272">
        <ele>1255.877</ele>
        <time>2021-07-28T17:40:16Z</time>
      </trkpt>
      <trkpt lat="40.900829" lon="-3.894288">
        <ele>1256.228</ele>
        <time>2021-07-28T17:40:18Z</time>
      </trkpt>
      <trkpt lat="40.900819" lon="-3.894320">
        <ele>1256.989</ele>
        <time>2021-07-28T17:40:21Z</time>
      </trkpt>
      <trkpt lat="40.900800" lon="-3.894342">
        <ele>1257.517</ele>
        <time>2021-07-28T17:40:24Z</time>
      </trkpt>
      <trkpt lat="40.900784" lon="-3.894355">
        <ele>1257.908</ele>
        <time>2021-07-28T17:40:26Z</time>
      </trkpt>
      <trkpt lat="40.900768" lon="-3.894374">
        <ele>1258.479</ele>
        <time>2021-07-28T17:40:29Z</time>
      </trkpt>
      <trkpt lat="40.900752" lon="-3.894394">
        <ele>1258.991</ele>
        <time>2021-07-28T17:40:31Z</time>
      </trkpt>
      <trkpt lat="40.900742" lon="-3.894415">
        <ele>1259.428</ele>
        <time>2021-07-28T17:40:34Z</time>
      </trkpt>
      <trkpt lat="40.900730" lon="-3.894435">
        <ele>1259.995</ele>
        <time>2021-07-28T17:40:37Z</time>
      </trkpt>
      <trkpt lat="40.900714" lon="-3.894448">
        <ele>1260.456</ele>
        <time>2021-07-28T17:40:39Z</time>
      </trkpt>
      <trkpt lat="40.900694" lon="-3.894472">
        <ele>1261.296</ele>
        <time>2021-07-28T17:40:42Z</time>
      </trkpt>
      <trkpt lat="40.900682" lon="-3.894500">
        <ele>1262.129</ele>
        <time>2021-07-28T17:40:45Z</time>
      </trkpt>
      <trkpt lat="40.900669" lon="-3.894522">
        <ele>1262.990</ele>
        <time>2021-07-28T17:40:48Z</time>
      </trkpt>
      <trkpt lat="40.900653" lon="-3.894533">
        <ele>1263.411</ele>
        <time>2021-07-28T17:40:50Z</time>
      </trkpt>
      <trkpt lat="40.900640" lon="-3.894555">
        <ele>1264.221</ele>
        <time>2021-07-28T17:40:53Z</time>
      </trkpt>
      <trkpt lat="40.900621" lon="-3.894570">
        <ele>1264.803</ele>
        <time>2021-07-28T17:40:56Z</time>
      </trkpt>
      <trkpt lat="40.900602" lon="-3.894586">
        <ele>1265.508</ele>
        <time>2021-07-28T17:40:59Z</time>
      </trkpt>
      <trkpt lat="40.900576" lon="-3.894602">
        <ele>1266.368</ele>
        <time>2021-07-28T17:41:03Z</time>
      </trkpt>
      <trkpt lat="40.900563" lon="-3.894627">
        <ele>1267.290</ele>
        <time>2021-07-28T17:41:07Z</time>
      </trkpt>
      <trkpt lat="40.900550" lon="-3.894648">
        <ele>1267.977</ele>
        <time>2021-07-28T17:41:09Z</time>
      </trkpt>
      <trkpt lat="40.900547" lon="-3.894677">
        <ele>1268.824</ele>
        <time>2021-07-28T17:41:12Z</time>
      </trkpt>
      <trkpt lat="40.900531" lon="-3.894698">
        <ele>1269.695</ele>
        <time>2021-07-28T17:41:16Z</time>
      </trkpt>
      <trkpt lat="40.900512" lon="-3.894702">
        <ele>1270.075</ele>
        <time>2021-07-28T17:41:19Z</time>
      </trkpt>
      <trkpt lat="40.900490" lon="-3.894702">
        <ele>1270.338</ele>
        <time>2021-07-28T17:41:22Z</time>
      </trkpt>
      <trkpt lat="40.900470" lon="-3.894707">
        <ele>1270.829</ele>
        <time>2021-07-28T17:41:24Z</time>
      </trkpt>
      <trkpt lat="40.900451" lon="-3.894720">
        <ele>1271.475</ele>
        <time>2021-07-28T17:41:27Z</time>
      </trkpt>
      <trkpt lat="40.900429" lon="-3.894738">
        <ele>1272.428</ele>
        <time>2021-07-28T17:41:30Z</time>
      </trkpt>
      <trkpt lat="40.900410" lon="-3.894755">
        <ele>1273.220</ele>
        <time>2021-07-28T17:41:33Z</time>
      </trkpt>
      <trkpt lat="40.900397" lon="-3.894776">
        <ele>1274.108</ele>
        <time>2021-07-28T17:41:36Z</time>
      </trkpt>
      <trkpt lat="40.900384" lon="-3.894797">
        <ele>1275.084</ele>
        <time>2021-07-28T17:41:40Z</time>
      </trkpt>
      <trkpt lat="40.900362" lon="-3.894812">
        <ele>1275.876</ele>
        <time>2021-07-28T17:41:44Z</time>
      </trkpt>
      <trkpt lat="40.900336" lon="-3.894820">
        <ele>1276.413</ele>
        <time>2021-07-28T17:41:46Z</time>
      </trkpt>
      <trkpt lat="40.900317" lon="-3.894838">
        <ele>1277.280</ele>
        <time>2021-07-28T17:41:49Z</time>
      </trkpt>
      <trkpt lat="40.900298" lon="-3.894828">
        <ele>1277.291</ele>
        <time>2021-07-28T17:41:52Z</time>
      </trkpt>
      <trkpt lat="40.900275" lon="-3.894820">
        <ele>1277.291</ele>
        <time>2021-07-28T17:41:55Z</time>
      </trkpt>
      <trkpt lat="40.900250" lon="-3.894815">
        <ele>1277.094</ele>
        <time>2021-07-28T17:41:58Z</time>
      </trkpt>
      <trkpt lat="40.900234" lon="-3.894827">
        <ele>1277.415</ele>
        <time>2021-07-28T17:42:01Z</time>
      </trkpt>
      <trkpt lat="40.900218" lon="-3.894858">
        <ele>1278.447</ele>
        <time>2021-07-28T17:42:04Z</time>
      </trkpt>
      <trkpt lat="40.900211" lon="-3.894887">
        <ele>1279.329</ele>
        <time>2021-07-28T17:42:08Z</time>
      </trkpt>
      <trkpt lat="40.900198" lon="-3.894908">
        <ele>1279.921</ele>
        <time>2021-07-28T17:42:11Z</time>
      </trkpt>
      <trkpt lat="40.900176" lon="-3.894913">
        <ele>1280.008</ele>
        <time>2021-07-28T17:42:15Z</time>
      </trkpt>
      <trkpt lat="40.900154" lon="-3.894906">
        <ele>1279.881</ele>
        <time>2021-07-28T17:42:18Z</time>
      </trkpt>
      <trkpt lat="40.900134" lon="-3.894900">
        <ele>1279.673</ele>
        <time>2021-07-28T17:42:20Z</time>
      </trkpt>
      <trkpt lat="40.900115" lon="-3.894898">
        <ele>1279.520</ele>
        <time>2021-07-28T17:42:22Z</time>
      </trkpt>
      <trkpt lat="40.900096" lon="-3.894902">
        <ele>1279.697</ele>
        <time>2021-07-28T17:42:24Z</time>
      </trkpt>
      <trkpt lat="40.900074" lon="-3.894908">
        <ele>1279.878</ele>
        <time>2021-07-28T17:42:26Z</time>
      </trkpt>
      <trkpt lat="40.900051" lon="-3.894915">
        <ele>1279.958</ele>
        <time>2021-07-28T17:42:28Z</time>
      </trkpt>
      <trkpt lat="40.900032" lon="-3.894918">
        <ele>1280.091</ele>
        <time>2021-07-28T17:42:30Z</time>
      </trkpt>
      <trkpt lat="40.900006" lon="-3.894925">
        <ele>1280.132</ele>
        <time>2021-07-28T17:42:33Z</time>
      </trkpt>
      <trkpt lat="40.899984" lon="-3.894935">
        <ele>1280.159</ele>
        <time>2021-07-28T17:42:36Z</time>
      </trkpt>
      <trkpt lat="40.899965" lon="-3.894945">
        <ele>1280.103</ele>
        <time>2021-07-28T17:42:38Z</time>
      </trkpt>
      <trkpt lat="40.899952" lon="-3.894965">
        <ele>1280.423</ele>
        <time>2021-07-28T17:42:40Z</time>
      </trkpt>
      <trkpt lat="40.899939" lon="-3.894982">
        <ele>1280.708</ele>
        <time>2021-07-28T17:42:42Z</time>
      </trkpt>
      <trkpt lat="40.899926" lon="-3.894998">
        <ele>1280.932</ele>
        <time>2021-07-28T17:42:44Z</time>
      </trkpt>
      <trkpt lat="40.899914" lon="-3.895017">
        <ele>1281.284</ele>
        <time>2021-07-28T17:42:46Z</time>
      </trkpt>
      <trkpt lat="40.899901" lon="-3.895038">
        <ele>1281.411</ele>
        <time>2021-07-28T17:42:49Z</time>
      </trkpt>
      <trkpt lat="40.899885" lon="-3.895070">
        <ele>1281.918</ele>
        <time>2021-07-28T17:42:52Z</time>
      </trkpt>
      <trkpt lat="40.899872" lon="-3.895090">
        <ele>1282.159</ele>
        <time>2021-07-28T17:42:54Z</time>
      </trkpt>
      <trkpt lat="40.899856" lon="-3.895105">
        <ele>1282.229</ele>
        <time>2021-07-28T17:42:56Z</time>
      </trkpt>
      <trkpt lat="40.899840" lon="-3.895133">
        <ele>1282.522</ele>
        <time>2021-07-28T17:42:59Z</time>
      </trkpt>
      <trkpt lat="40.899834" lon="-3.895157">
        <ele>1282.983</ele>
        <time>2021-07-28T17:43:01Z</time>
      </trkpt>
      <trkpt lat="40.899821" lon="-3.895175">
        <ele>1283.049</ele>
        <time>2021-07-28T17:43:03Z</time>
      </trkpt>
      <trkpt lat="40.899811" lon="-3.895195">
        <ele>1283.202</ele>
        <time>2021-07-28T17:43:05Z</time>
      </trkpt>
      <trkpt lat="40.899811" lon="-3.895230">
        <ele>1283.922</ele>
        <time>2021-07-28T17:43:08Z</time>
      </trkpt>
      <trkpt lat="40.899814" lon="-3.895256">
        <ele>1284.508</ele>
        <time>2021-07-28T17:43:11Z</time>
      </trkpt>
      <trkpt lat="40.899792" lon="-3.895285">
        <ele>1284.621</ele>
        <time>2021-07-28T17:43:14Z</time>
      </trkpt>
      <trkpt lat="40.899776" lon="-3.895306">
        <ele>1284.763</ele>
        <time>2021-07-28T17:43:16Z</time>
      </trkpt>
      <trkpt lat="40.899766" lon="-3.895330">
        <ele>1284.980</ele>
        <time>2021-07-28T17:43:18Z</time>
      </trkpt>
      <trkpt lat="40.899757" lon="-3.895355">
        <ele>1285.187</ele>
        <time>2021-07-28T17:43:20Z</time>
      </trkpt>
      <trkpt lat="40.899741" lon="-3.895377">
        <ele>1285.288</ele>
        <time>2021-07-28T17:43:22Z</time>
      </trkpt>
      <trkpt lat="40.899722" lon="-3.895408">
        <ele>1285.328</ele>
        <time>2021-07-28T17:43:25Z</time>
      </trkpt>
      <trkpt lat="40.899715" lon="-3.895438">
        <ele>1285.721</ele>
        <time>2021-07-28T17:43:28Z</time>
      </trkpt>
      <trkpt lat="40.899712" lon="-3.895462">
        <ele>1286.182</ele>
        <time>2021-07-28T17:43:30Z</time>
      </trkpt>
      <trkpt lat="40.899702" lon="-3.895486">
        <ele>1286.339</ele>
        <time>2021-07-28T17:43:32Z</time>
      </trkpt>
      <trkpt lat="40.899693" lon="-3.895515">
        <ele>1286.601</ele>
        <time>2021-07-28T17:43:35Z</time>
      </trkpt>
      <trkpt lat="40.899686" lon="-3.895547">
        <ele>1287.121</ele>
        <time>2021-07-28T17:43:38Z</time>
      </trkpt>
      <trkpt lat="40.899680" lon="-3.895577">
        <ele>1287.508</ele>
        <time>2021-07-28T17:43:41Z</time>
      </trkpt>
      <trkpt lat="40.899674" lon="-3.895605">
        <ele>1287.820</ele>
        <time>2021-07-28T17:43:43Z</time>
      </trkpt>
      <trkpt lat="40.899658" lon="-3.895635">
        <ele>1288.032</ele>
        <time>2021-07-28T17:43:46Z</time>
      </trkpt>
      <trkpt lat="40.899642" lon="-3.895652">
        <ele>1288.039</ele>
        <time>2021-07-28T17:43:48Z</time>
      </trkpt>
      <trkpt lat="40.899622" lon="-3.895668">
        <ele>1287.976</ele>
        <time>2021-07-28T17:43:50Z</time>
      </trkpt>
      <trkpt lat="40.899610" lon="-3.895687">
        <ele>1287.957</ele>
        <time>2021-07-28T17:43:52Z</time>
      </trkpt>
      <trkpt lat="40.899597" lon="-3.895707">
        <ele>1288.077</ele>
        <time>2021-07-28T17:43:54Z</time>
      </trkpt>
      <trkpt lat="40.899578" lon="-3.895725">
        <ele>1287.980</ele>
        <time>2021-07-28T17:43:56Z</time>
      </trkpt>
      <trkpt lat="40.899562" lon="-3.895747">
        <ele>1288.071</ele>
        <time>2021-07-28T17:43:58Z</time>
      </trkpt>
      <trkpt lat="40.899549" lon="-3.895770">
        <ele>1288.183</ele>
        <time>2021-07-28T17:44:00Z</time>
      </trkpt>
      <trkpt lat="40.899536" lon="-3.895795">
        <ele>1288.325</ele>
        <time>2021-07-28T17:44:02Z</time>
      </trkpt>
      <trkpt lat="40.899520" lon="-3.895822">
        <ele>1288.417</ele>
        <time>2021-07-28T17:44:04Z</time>
      </trkpt>
      <trkpt lat="40.899507" lon="-3.895842">
        <ele>1288.508</ele>
        <time>2021-07-28T17:44:06Z</time>
      </trkpt>
      <trkpt lat="40.899491" lon="-3.895865">
        <ele>1288.525</ele>
        <time>2021-07-28T17:44:09Z</time>
      </trkpt>
      <trkpt lat="40.899475" lon="-3.895878">
        <ele>1288.367</ele>
        <time>2021-07-28T17:44:11Z</time>
      </trkpt>
      <trkpt lat="40.899459" lon="-3.895890">
        <ele>1288.124</ele>
        <time>2021-07-28T17:44:14Z</time>
      </trkpt>
      <trkpt lat="40.899456" lon="-3.895915">
        <ele>1288.421</ele>
        <time>2021-07-28T17:44:18Z</time>
      </trkpt>
      <trkpt lat="40.899456" lon="-3.895940">
        <ele>1288.862</ele>
        <time>2021-07-28T17:44:20Z</time>
      </trkpt>
      <trkpt lat="40.899443" lon="-3.895972">
        <ele>1289.082</ele>
        <time>2021-07-28T17:44:23Z</time>
      </trkpt>
      <trkpt lat="40.899440" lon="-3.896002">
        <ele>1289.375</ele>
        <time>2021-07-28T17:44:26Z</time>
      </trkpt>
      <trkpt lat="40.899434" lon="-3.896035">
        <ele>1289.626</ele>
        <time>2021-07-28T17:44:29Z</time>
      </trkpt>
      <trkpt lat="40.899434" lon="-3.896070">
        <ele>1290.149</ele>
        <time>2021-07-28T17:44:32Z</time>
      </trkpt>
      <trkpt lat="40.899450" lon="-3.896090">
        <ele>1290.802</ele>
        <time>2021-07-28T17:44:34Z</time>
      </trkpt>
      <trkpt lat="40.899469" lon="-3.896112">
        <ele>1291.622</ele>
        <time>2021-07-28T17:44:37Z</time>
      </trkpt>
      <trkpt lat="40.899482" lon="-3.896132">
        <ele>1292.308</ele>
        <time>2021-07-28T17:44:40Z</time>
      </trkpt>
      <trkpt lat="40.899498" lon="-3.896162">
        <ele>1293.331</ele>
        <time>2021-07-28T17:44:44Z</time>
      </trkpt>
      <trkpt lat="40.899498" lon="-3.896188">
        <ele>1293.713</ele>
        <time>2021-07-28T17:44:48Z</time>
      </trkpt>
      <trkpt lat="40.899491" lon="-3.896217">
        <ele>1294.150</ele>
        <time>2021-07-28T17:44:52Z</time>
      </trkpt>
      <trkpt lat="40.899494" lon="-3.896248">
        <ele>1294.737</ele>
        <time>2021-07-28T17:44:56Z</time>
      </trkpt>
      <trkpt lat="40.899488" lon="-3.896278">
        <ele>1295.148</ele>
        <time>2021-07-28T17:44:59Z</time>
      </trkpt>
      <trkpt lat="40.899482" lon="-3.896302">
        <ele>1295.438</ele>
        <time>2021-07-28T17:45:02Z</time>
      </trkpt>
      <trkpt lat="40.899469" lon="-3.896320">
        <ele>1295.471</ele>
        <time>2021-07-28T17:45:04Z</time>
      </trkpt>
      <trkpt lat="40.899459" lon="-3.896342">
        <ele>1295.562</ele>
        <time>2021-07-28T17:45:06Z</time>
      </trkpt>
      <trkpt lat="40.899450" lon="-3.896370">
        <ele>1295.895</ele>
        <time>2021-07-28T17:45:09Z</time>
      </trkpt>
      <trkpt lat="40.899443" lon="-3.896395">
        <ele>1296.149</ele>
        <time>2021-07-28T17:45:11Z</time>
      </trkpt>
      <trkpt lat="40.899437" lon="-3.896422">
        <ele>1296.423</ele>
        <time>2021-07-28T17:45:13Z</time>
      </trkpt>
      <trkpt lat="40.899424" lon="-3.896450">
        <ele>1296.608</ele>
        <time>2021-07-28T17:45:16Z</time>
      </trkpt>
      <trkpt lat="40.899408" lon="-3.896470">
        <ele>1296.536</ele>
        <time>2021-07-28T17:45:19Z</time>
      </trkpt>
      <trkpt lat="40.899389" lon="-3.896494">
        <ele>1296.558</ele>
        <time>2021-07-28T17:45:22Z</time>
      </trkpt>
      <trkpt lat="40.899370" lon="-3.896520">
        <ele>1296.525</ele>
        <time>2021-07-28T17:45:25Z</time>
      </trkpt>
      <trkpt lat="40.899357" lon="-3.896547">
        <ele>1296.642</ele>
        <time>2021-07-28T17:45:28Z</time>
      </trkpt>
      <trkpt lat="40.899341" lon="-3.896565">
        <ele>1296.683</ele>
        <time>2021-07-28T17:45:30Z</time>
      </trkpt>
      <trkpt lat="40.899331" lon="-3.896588">
        <ele>1296.733</ele>
        <time>2021-07-28T17:45:33Z</time>
      </trkpt>
      <trkpt lat="40.899322" lon="-3.896615">
        <ele>1297.046</ele>
        <time>2021-07-28T17:45:36Z</time>
      </trkpt>
      <trkpt lat="40.899309" lon="-3.896648">
        <ele>1297.377</ele>
        <time>2021-07-28T17:45:39Z</time>
      </trkpt>
      <trkpt lat="40.899299" lon="-3.896675">
        <ele>1297.591</ele>
        <time>2021-07-28T17:45:42Z</time>
      </trkpt>
      <trkpt lat="40.899299" lon="-3.896700">
        <ele>1298.181</ele>
        <time>2021-07-28T17:45:44Z</time>
      </trkpt>
      <trkpt lat="40.899299" lon="-3.896730">
        <ele>1298.819</ele>
        <time>2021-07-28T17:45:47Z</time>
      </trkpt>
      <trkpt lat="40.899280" lon="-3.896753">
        <ele>1298.808</ele>
        <time>2021-07-28T17:45:50Z</time>
      </trkpt>
      <trkpt lat="40.899270" lon="-3.896787">
        <ele>1299.346</ele>
        <time>2021-07-28T17:45:53Z</time>
      </trkpt>
      <trkpt lat="40.899264" lon="-3.896815">
        <ele>1299.758</ele>
        <time>2021-07-28T17:45:55Z</time>
      </trkpt>
      <trkpt lat="40.899264" lon="-3.896847">
        <ele>1300.415</ele>
        <time>2021-07-28T17:45:57Z</time>
      </trkpt>
      <trkpt lat="40.899261" lon="-3.896874">
        <ele>1300.992</ele>
        <time>2021-07-28T17:46:00Z</time>
      </trkpt>
      <trkpt lat="40.899238" lon="-3.896882">
        <ele>1300.373</ele>
        <time>2021-07-28T17:46:03Z</time>
      </trkpt>
      <trkpt lat="40.899226" lon="-3.896902">
        <ele>1300.393</ele>
        <time>2021-07-28T17:46:05Z</time>
      </trkpt>
      <trkpt lat="40.899219" lon="-3.896925">
        <ele>1300.586</ele>
        <time>2021-07-28T17:46:08Z</time>
      </trkpt>
      <trkpt lat="40.899213" lon="-3.896957">
        <ele>1301.097</ele>
        <time>2021-07-28T17:46:10Z</time>
      </trkpt>
      <trkpt lat="40.899200" lon="-3.896978">
        <ele>1301.272</ele>
        <time>2021-07-28T17:46:12Z</time>
      </trkpt>
      <trkpt lat="40.899197" lon="-3.897008">
        <ele>1301.913</ele>
        <time>2021-07-28T17:46:15Z</time>
      </trkpt>
      <trkpt lat="40.899194" lon="-3.897036">
        <ele>1302.614</ele>
        <time>2021-07-28T17:46:18Z</time>
      </trkpt>
      <trkpt lat="40.899190" lon="-3.897065">
        <ele>1303.308</ele>
        <time>2021-07-28T17:46:20Z</time>
      </trkpt>
      <trkpt lat="40.899197" lon="-3.897090">
        <ele>1304.264</ele>
        <time>2021-07-28T17:46:23Z</time>
      </trkpt>
      <trkpt lat="40.899197" lon="-3.897115">
        <ele>1304.956</ele>
        <time>2021-07-28T17:46:27Z</time>
      </trkpt>
      <trkpt lat="40.899203" lon="-3.897143">
        <ele>1305.913</ele>
        <time>2021-07-28T17:46:32Z</time>
      </trkpt>
      <trkpt lat="40.899197" lon="-3.897178">
        <ele>1306.790</ele>
        <time>2021-07-28T17:46:35Z</time>
      </trkpt>
      <trkpt lat="40.899184" lon="-3.897208">
        <ele>1307.251</ele>
        <time>2021-07-28T17:46:37Z</time>
      </trkpt>
      <trkpt lat="40.899178" lon="-3.897233">
        <ele>1307.681</ele>
        <time>2021-07-28T17:46:39Z</time>
      </trkpt>
      <trkpt lat="40.899174" lon="-3.897265">
        <ele>1308.044</ele>
        <time>2021-07-28T17:46:41Z</time>
      </trkpt>
      <trkpt lat="40.899178" lon="-3.897300">
        <ele>1308.845</ele>
        <time>2021-07-28T17:46:44Z</time>
      </trkpt>
      <trkpt lat="40.899181" lon="-3.897333">
        <ele>1309.546</ele>
        <time>2021-07-28T17:46:46Z</time>
      </trkpt>
      <trkpt lat="40.899171" lon="-3.897370">
        <ele>1309.888</ele>
        <time>2021-07-28T17:46:48Z</time>
      </trkpt>
      <trkpt lat="40.899162" lon="-3.897396">
        <ele>1309.916</ele>
        <time>2021-07-28T17:46:52Z</time>
      </trkpt>
      <trkpt lat="40.899142" lon="-3.897412">
        <ele>1309.408</ele>
        <time>2021-07-28T17:46:56Z</time>
      </trkpt>
      <trkpt lat="40.899139" lon="-3.897442">
        <ele>1309.841</ele>
        <time>2021-07-28T17:46:59Z</time>
      </trkpt>
      <trkpt lat="40.899114" lon="-3.897480">
        <ele>1309.553</ele>
        <time>2021-07-28T17:47:01Z</time>
      </trkpt>
      <trkpt lat="40.899114" lon="-3.897517">
        <ele>1310.240</ele>
        <time>2021-07-28T17:47:04Z</time>
      </trkpt>
      <trkpt lat="40.899104" lon="-3.897544">
        <ele>1310.347</ele>
        <time>2021-07-28T17:47:06Z</time>
      </trkpt>
      <trkpt lat="40.899104" lon="-3.897570">
        <ele>1310.778</ele>
        <time>2021-07-28T17:47:08Z</time>
      </trkpt>
      <trkpt lat="40.899101" lon="-3.897603">
        <ele>1311.138</ele>
        <time>2021-07-28T17:47:11Z</time>
      </trkpt>
      <trkpt lat="40.899094" lon="-3.897638">
        <ele>1311.511</ele>
        <time>2021-07-28T17:47:14Z</time>
      </trkpt>
      <trkpt lat="40.899101" lon="-3.897663">
        <ele>1312.292</ele>
        <time>2021-07-28T17:47:16Z</time>
      </trkpt>
      <trkpt lat="40.899101" lon="-3.897693">
        <ele>1312.723</ele>
        <time>2021-07-28T17:47:18Z</time>
      </trkpt>
      <trkpt lat="40.899094" lon="-3.897720">
        <ele>1312.983</ele>
        <time>2021-07-28T17:47:20Z</time>
      </trkpt>
      <trkpt lat="40.899085" lon="-3.897752">
        <ele>1313.211</ele>
        <time>2021-07-28T17:47:23Z</time>
      </trkpt>
      <trkpt lat="40.899082" lon="-3.897788">
        <ele>1313.708</ele>
        <time>2021-07-28T17:47:26Z</time>
      </trkpt>
      <trkpt lat="40.899075" lon="-3.897820">
        <ele>1313.919</ele>
        <time>2021-07-28T17:47:29Z</time>
      </trkpt>
      <trkpt lat="40.899062" lon="-3.897848">
        <ele>1313.951</ele>
        <time>2021-07-28T17:47:32Z</time>
      </trkpt>
      <trkpt lat="40.899056" lon="-3.897880">
        <ele>1314.168</ele>
        <time>2021-07-28T17:47:35Z</time>
      </trkpt>
      <trkpt lat="40.899056" lon="-3.897905">
        <ele>1314.565</ele>
        <time>2021-07-28T17:47:37Z</time>
      </trkpt>
      <trkpt lat="40.899053" lon="-3.897936">
        <ele>1314.846</ele>
        <time>2021-07-28T17:47:40Z</time>
      </trkpt>
      <trkpt lat="40.899053" lon="-3.897973">
        <ele>1315.216</ele>
        <time>2021-07-28T17:47:43Z</time>
      </trkpt>
      <trkpt lat="40.899053" lon="-3.898000">
        <ele>1315.619</ele>
        <time>2021-07-28T17:47:45Z</time>
      </trkpt>
      <trkpt lat="40.899053" lon="-3.898027">
        <ele>1315.980</ele>
        <time>2021-07-28T17:47:47Z</time>
      </trkpt>
      <trkpt lat="40.899043" lon="-3.898052">
        <ele>1315.987</ele>
        <time>2021-07-28T17:47:49Z</time>
      </trkpt>
      <trkpt lat="40.899056" lon="-3.898072">
        <ele>1316.542</ele>
        <time>2021-07-28T17:47:52Z</time>
      </trkpt>
      <trkpt lat="40.899056" lon="-3.898106">
        <ele>1316.826</ele>
        <time>2021-07-28T17:47:55Z</time>
      </trkpt>
      <trkpt lat="40.899059" lon="-3.898138">
        <ele>1317.108</ele>
        <time>2021-07-28T17:47:58Z</time>
      </trkpt>
      <trkpt lat="40.899062" lon="-3.898175">
        <ele>1317.565</ele>
        <time>2021-07-28T17:48:01Z</time>
      </trkpt>
      <trkpt lat="40.899066" lon="-3.898200">
        <ele>1317.847</ele>
        <time>2021-07-28T17:48:03Z</time>
      </trkpt>
      <trkpt lat="40.899072" lon="-3.898225">
        <ele>1318.254</ele>
        <time>2021-07-28T17:48:05Z</time>
      </trkpt>
      <trkpt lat="40.899072" lon="-3.898257">
        <ele>1318.471</ele>
        <time>2021-07-28T17:48:08Z</time>
      </trkpt>
      <trkpt lat="40.899072" lon="-3.898282">
        <ele>1318.632</ele>
        <time>2021-07-28T17:48:11Z</time>
      </trkpt>
      <trkpt lat="40.899075" lon="-3.898307">
        <ele>1318.862</ele>
        <time>2021-07-28T17:48:13Z</time>
      </trkpt>
      <trkpt lat="40.899082" lon="-3.898332">
        <ele>1319.215</ele>
        <time>2021-07-28T17:48:15Z</time>
      </trkpt>
      <trkpt lat="40.899082" lon="-3.898358">
        <ele>1319.576</ele>
        <time>2021-07-28T17:48:17Z</time>
      </trkpt>
      <trkpt lat="40.899082" lon="-3.898385">
        <ele>1319.897</ele>
        <time>2021-07-28T17:48:19Z</time>
      </trkpt>
      <trkpt lat="40.899072" lon="-3.898410">
        <ele>1319.723</ele>
        <time>2021-07-28T17:48:21Z</time>
      </trkpt>
      <trkpt lat="40.899072" lon="-3.898436">
        <ele>1319.925</ele>
        <time>2021-07-28T17:48:23Z</time>
      </trkpt>
      <trkpt lat="40.899062" lon="-3.898458">
        <ele>1319.808</ele>
        <time>2021-07-28T17:48:25Z</time>
      </trkpt>
      <trkpt lat="40.899066" lon="-3.898483">
        <ele>1320.286</ele>
        <time>2021-07-28T17:48:27Z</time>
      </trkpt>
      <trkpt lat="40.899072" lon="-3.898513">
        <ele>1320.748</ele>
        <time>2021-07-28T17:48:30Z</time>
      </trkpt>
      <trkpt lat="40.899075" lon="-3.898537">
        <ele>1321.025</ele>
        <time>2021-07-28T17:48:33Z</time>
      </trkpt>
      <trkpt lat="40.899078" lon="-3.898565">
        <ele>1321.452</ele>
        <time>2021-07-28T17:48:35Z</time>
      </trkpt>
      <trkpt lat="40.899082" lon="-3.898590">
        <ele>1321.783</ele>
        <time>2021-07-28T17:48:37Z</time>
      </trkpt>
      <trkpt lat="40.899091" lon="-3.898625">
        <ele>1322.483</ele>
        <time>2021-07-28T17:48:41Z</time>
      </trkpt>
      <trkpt lat="40.899082" lon="-3.898648">
        <ele>1322.246</ele>
        <time>2021-07-28T17:48:43Z</time>
      </trkpt>
      <trkpt lat="40.899075" lon="-3.898672">
        <ele>1322.117</ele>
        <time>2021-07-28T17:48:45Z</time>
      </trkpt>
      <trkpt lat="40.899082" lon="-3.898703">
        <ele>1322.578</ele>
        <time>2021-07-28T17:48:48Z</time>
      </trkpt>
      <trkpt lat="40.899094" lon="-3.898727">
        <ele>1323.133</ele>
        <time>2021-07-28T17:48:50Z</time>
      </trkpt>
      <trkpt lat="40.899091" lon="-3.898755">
        <ele>1323.226</ele>
        <time>2021-07-28T17:48:53Z</time>
      </trkpt>
      <trkpt lat="40.899091" lon="-3.898783">
        <ele>1323.308</ele>
        <time>2021-07-28T17:48:55Z</time>
      </trkpt>
      <trkpt lat="40.899101" lon="-3.898818">
        <ele>1324.024</ele>
        <time>2021-07-28T17:48:57Z</time>
      </trkpt>
      <trkpt lat="40.899104" lon="-3.898843">
        <ele>1324.286</ele>
        <time>2021-07-28T17:48:59Z</time>
      </trkpt>
      <trkpt lat="40.899101" lon="-3.898875">
        <ele>1324.323</ele>
        <time>2021-07-28T17:49:01Z</time>
      </trkpt>
      <trkpt lat="40.899104" lon="-3.898905">
        <ele>1324.680</ele>
        <time>2021-07-28T17:49:04Z</time>
      </trkpt>
      <trkpt lat="40.899120" lon="-3.898927">
        <ele>1325.371</ele>
        <time>2021-07-28T17:49:06Z</time>
      </trkpt>
      <trkpt lat="40.899120" lon="-3.898958">
        <ele>1325.471</ele>
        <time>2021-07-28T17:49:08Z</time>
      </trkpt>
      <trkpt lat="40.899123" lon="-3.898993">
        <ele>1325.674</ele>
        <time>2021-07-28T17:49:10Z</time>
      </trkpt>
      <trkpt lat="40.899142" lon="-3.899005">
        <ele>1326.445</ele>
        <time>2021-07-28T17:49:12Z</time>
      </trkpt>
      <trkpt lat="40.899146" lon="-3.899037">
        <ele>1326.783</ele>
        <time>2021-07-28T17:49:15Z</time>
      </trkpt>
      <trkpt lat="40.899142" lon="-3.899073">
        <ele>1326.625</ele>
        <time>2021-07-28T17:49:18Z</time>
      </trkpt>
      <trkpt lat="40.899146" lon="-3.899097">
        <ele>1326.917</ele>
        <time>2021-07-28T17:49:21Z</time>
      </trkpt>
      <trkpt lat="40.899155" lon="-3.899126">
        <ele>1327.408</ele>
        <time>2021-07-28T17:49:24Z</time>
      </trkpt>
      <trkpt lat="40.899162" lon="-3.899158">
        <ele>1327.885</ele>
        <time>2021-07-28T17:49:27Z</time>
      </trkpt>
      <trkpt lat="40.899158" lon="-3.899192">
        <ele>1327.597</ele>
        <time>2021-07-28T17:49:29Z</time>
      </trkpt>
      <trkpt lat="40.899165" lon="-3.899227">
        <ele>1327.784</ele>
        <time>2021-07-28T17:49:32Z</time>
      </trkpt>
      <trkpt lat="40.899165" lon="-3.899253">
        <ele>1327.631</ele>
        <time>2021-07-28T17:49:34Z</time>
      </trkpt>
      <trkpt lat="40.899178" lon="-3.899273">
        <ele>1328.122</ele>
        <time>2021-07-28T17:49:36Z</time>
      </trkpt>
      <trkpt lat="40.899194" lon="-3.899288">
        <ele>1328.732</ele>
        <time>2021-07-28T17:49:38Z</time>
      </trkpt>
      <trkpt lat="40.899194" lon="-3.899314">
        <ele>1328.665</ele>
        <time>2021-07-28T17:49:41Z</time>
      </trkpt>
      <trkpt lat="40.899194" lon="-3.899340">
        <ele>1328.576</ele>
        <time>2021-07-28T17:49:44Z</time>
      </trkpt>
      <trkpt lat="40.899203" lon="-3.899367">
        <ele>1328.872</ele>
        <time>2021-07-28T17:49:46Z</time>
      </trkpt>
      <trkpt lat="40.899216" lon="-3.899398">
        <ele>1329.213</ele>
        <time>2021-07-28T17:49:49Z</time>
      </trkpt>
      <trkpt lat="40.899219" lon="-3.899425">
        <ele>1329.214</ele>
        <time>2021-07-28T17:49:52Z</time>
      </trkpt>
      <trkpt lat="40.899222" lon="-3.899458">
        <ele>1329.208</ele>
        <time>2021-07-28T17:49:55Z</time>
      </trkpt>
      <trkpt lat="40.899238" lon="-3.899482">
        <ele>1329.844</ele>
        <time>2021-07-28T17:49:57Z</time>
      </trkpt>
      <trkpt lat="40.899238" lon="-3.899512">
        <ele>1329.796</ele>
        <time>2021-07-28T17:50:00Z</time>
      </trkpt>
      <trkpt lat="40.899251" lon="-3.899545">
        <ele>1330.243</ele>
        <time>2021-07-28T17:50:03Z</time>
      </trkpt>
      <trkpt lat="40.899270" lon="-3.899575">
        <ele>1331.020</ele>
        <time>2021-07-28T17:50:06Z</time>
      </trkpt>
      <trkpt lat="40.899290" lon="-3.899590">
        <ele>1331.811</ele>
        <time>2021-07-28T17:50:08Z</time>
      </trkpt>
      <trkpt lat="40.899299" lon="-3.899615">
        <ele>1332.251</ele>
        <time>2021-07-28T17:50:13Z</time>
      </trkpt>
      <trkpt lat="40.899312" lon="-3.899635">
        <ele>1332.844</ele>
        <time>2021-07-28T17:50:16Z</time>
      </trkpt>
      <trkpt lat="40.899322" lon="-3.899657">
        <ele>1333.215</ele>
        <time>2021-07-28T17:50:18Z</time>
      </trkpt>
      <trkpt lat="40.899334" lon="-3.899677">
        <ele>1333.849</ele>
        <time>2021-07-28T17:50:20Z</time>
      </trkpt>
      <trkpt lat="40.899334" lon="-3.899702">
        <ele>1333.802</ele>
        <time>2021-07-28T17:50:21Z</time>
      </trkpt>
      <trkpt lat="40.899350" lon="-3.899727">
        <ele>1334.622</ele>
        <time>2021-07-28T17:50:23Z</time>
      </trkpt>
      <trkpt lat="40.899363" lon="-3.899748">
        <ele>1335.208</ele>
        <time>2021-07-28T17:50:25Z</time>
      </trkpt>
      <trkpt lat="40.899370" lon="-3.899792">
        <ele>1335.421</ele>
        <time>2021-07-28T17:50:27Z</time>
      </trkpt>
      <trkpt lat="40.899376" lon="-3.899820">
        <ele>1335.763</ele>
        <time>2021-07-28T17:50:29Z</time>
      </trkpt>
      <trkpt lat="40.899392" lon="-3.899838">
        <ele>1336.570</ele>
        <time>2021-07-28T17:50:31Z</time>
      </trkpt>
      <trkpt lat="40.899408" lon="-3.899858">
        <ele>1337.277</ele>
        <time>2021-07-28T17:50:33Z</time>
      </trkpt>
      <trkpt lat="40.899430" lon="-3.899875">
        <ele>1338.318</ele>
        <time>2021-07-28T17:50:37Z</time>
      </trkpt>
      <trkpt lat="40.899440" lon="-3.899905">
        <ele>1338.878</ele>
        <time>2021-07-28T17:50:40Z</time>
      </trkpt>
      <trkpt lat="40.899450" lon="-3.899937">
        <ele>1339.261</ele>
        <time>2021-07-28T17:50:43Z</time>
      </trkpt>
      <trkpt lat="40.899437" lon="-3.899968">
        <ele>1338.652</ele>
        <time>2021-07-28T17:50:45Z</time>
      </trkpt>
      <trkpt lat="40.899450" lon="-3.900007">
        <ele>1339.218</ele>
        <time>2021-07-28T17:50:47Z</time>
      </trkpt>
      <trkpt lat="40.899459" lon="-3.900032">
        <ele>1339.798</ele>
        <time>2021-07-28T17:50:49Z</time>
      </trkpt>
      <trkpt lat="40.899469" lon="-3.900057">
        <ele>1340.217</ele>
        <time>2021-07-28T17:50:52Z</time>
      </trkpt>
      <trkpt lat="40.899472" lon="-3.900082">
        <ele>1340.408</ele>
        <time>2021-07-28T17:50:54Z</time>
      </trkpt>
      <trkpt lat="40.899482" lon="-3.900103">
        <ele>1340.838</ele>
        <time>2021-07-28T17:50:56Z</time>
      </trkpt>
      <trkpt lat="40.899491" lon="-3.900128">
        <ele>1341.280</ele>
        <time>2021-07-28T17:50:58Z</time>
      </trkpt>
      <trkpt lat="40.899507" lon="-3.900145">
        <ele>1341.997</ele>
        <time>2021-07-28T17:51:00Z</time>
      </trkpt>
      <trkpt lat="40.899507" lon="-3.900175">
        <ele>1342.024</ele>
        <time>2021-07-28T17:51:02Z</time>
      </trkpt>
      <trkpt lat="40.899507" lon="-3.900208">
        <ele>1342.175</ele>
        <time>2021-07-28T17:51:05Z</time>
      </trkpt>
      <trkpt lat="40.899507" lon="-3.900245">
        <ele>1342.215</ele>
        <time>2021-07-28T17:51:08Z</time>
      </trkpt>
      <trkpt lat="40.899510" lon="-3.900275">
        <ele>1342.478</ele>
        <time>2021-07-28T17:51:12Z</time>
      </trkpt>
      <trkpt lat="40.899520" lon="-3.900305">
        <ele>1342.779</ele>
        <time>2021-07-28T17:51:15Z</time>
      </trkpt>
      <trkpt lat="40.899533" lon="-3.900334">
        <ele>1343.345</ele>
        <time>2021-07-28T17:51:17Z</time>
      </trkpt>
      <trkpt lat="40.899539" lon="-3.900364">
        <ele>1343.547</ele>
        <time>2021-07-28T17:51:20Z</time>
      </trkpt>
      <trkpt lat="40.899552" lon="-3.900388">
        <ele>1344.011</ele>
        <time>2021-07-28T17:51:22Z</time>
      </trkpt>
      <trkpt lat="40.899568" lon="-3.900415">
        <ele>1344.708</ele>
        <time>2021-07-28T17:51:26Z</time>
      </trkpt>
      <trkpt lat="40.899571" lon="-3.900438">
        <ele>1344.871</ele>
        <time>2021-07-28T17:51:28Z</time>
      </trkpt>
      <trkpt lat="40.899574" lon="-3.900463">
        <ele>1345.053</ele>
        <time>2021-07-28T17:51:30Z</time>
      </trkpt>
      <trkpt lat="40.899581" lon="-3.900487">
        <ele>1345.380</ele>
        <time>2021-07-28T17:51:33Z</time>
      </trkpt>
      <trkpt lat="40.899594" lon="-3.900508">
        <ele>1345.837</ele>
        <time>2021-07-28T17:51:35Z</time>
      </trkpt>
      <trkpt lat="40.899597" lon="-3.900535">
        <ele>1346.018</ele>
        <time>2021-07-28T17:51:37Z</time>
      </trkpt>
      <trkpt lat="40.899603" lon="-3.900568">
        <ele>1346.358</ele>
        <time>2021-07-28T17:51:39Z</time>
      </trkpt>
      <trkpt lat="40.899619" lon="-3.900593">
        <ele>1347.171</ele>
        <time>2021-07-28T17:51:41Z</time>
      </trkpt>
      <trkpt lat="40.899632" lon="-3.900612">
        <ele>1347.862</ele>
        <time>2021-07-28T17:51:43Z</time>
      </trkpt>
      <trkpt lat="40.899638" lon="-3.900643">
        <ele>1348.243</ele>
        <time>2021-07-28T17:51:45Z</time>
      </trkpt>
      <trkpt lat="40.899642" lon="-3.900667">
        <ele>1348.564</ele>
        <time>2021-07-28T17:51:47Z</time>
      </trkpt>
      <trkpt lat="40.899654" lon="-3.900688">
        <ele>1349.110</ele>
        <time>2021-07-28T17:51:49Z</time>
      </trkpt>
      <trkpt lat="40.899658" lon="-3.900722">
        <ele>1349.508</ele>
        <time>2021-07-28T17:51:51Z</time>
      </trkpt>
      <trkpt lat="40.899674" lon="-3.900750">
        <ele>1350.491</ele>
        <time>2021-07-28T17:51:54Z</time>
      </trkpt>
      <trkpt lat="40.899696" lon="-3.900758">
        <ele>1351.393</ele>
        <time>2021-07-28T17:51:57Z</time>
      </trkpt>
      <trkpt lat="40.899715" lon="-3.900777">
        <ele>1352.330</ele>
        <time>2021-07-28T17:51:59Z</time>
      </trkpt>
      <trkpt lat="40.899747" lon="-3.900795">
        <ele>1353.687</ele>
        <time>2021-07-28T17:52:01Z</time>
      </trkpt>
      <trkpt lat="40.899750" lon="-3.900828">
        <ele>1353.968</ele>
        <time>2021-07-28T17:52:05Z</time>
      </trkpt>
      <trkpt lat="40.899741" lon="-3.900855">
        <ele>1353.728</ele>
        <time>2021-07-28T17:52:08Z</time>
      </trkpt>
      <trkpt lat="40.899741" lon="-3.900882">
        <ele>1353.841</ele>
        <time>2021-07-28T17:52:11Z</time>
      </trkpt>
      <trkpt lat="40.899754" lon="-3.900903">
        <ele>1354.312</ele>
        <time>2021-07-28T17:52:14Z</time>
      </trkpt>
      <trkpt lat="40.899750" lon="-3.900933">
        <ele>1354.274</ele>
        <time>2021-07-28T17:52:17Z</time>
      </trkpt>
      <trkpt lat="40.899750" lon="-3.900960">
        <ele>1354.356</ele>
        <time>2021-07-28T17:52:20Z</time>
      </trkpt>
      <trkpt lat="40.899757" lon="-3.900983">
        <ele>1354.621</ele>
        <time>2021-07-28T17:52:22Z</time>
      </trkpt>
      <trkpt lat="40.899760" lon="-3.901010">
        <ele>1354.808</ele>
        <time>2021-07-28T17:52:25Z</time>
      </trkpt>
      <trkpt lat="40.899773" lon="-3.901035">
        <ele>1355.244</ele>
        <time>2021-07-28T17:52:28Z</time>
      </trkpt>
      <trkpt lat="40.899776" lon="-3.901065">
        <ele>1355.426</ele>
        <time>2021-07-28T17:52:31Z</time>
      </trkpt>
      <trkpt lat="40.899779" lon="-3.901095">
        <ele>1355.633</ele>
        <time>2021-07-28T17:52:33Z</time>
      </trkpt>
      <trkpt lat="40.899773" lon="-3.901122">
        <ele>1355.550</ele>
        <time>2021-07-28T17:52:35Z</time>
      </trkpt>
      <trkpt lat="40.899773" lon="-3.901152">
        <ele>1355.421</ele>
        <time>2021-07-28T17:52:37Z</time>
      </trkpt>
      <trkpt lat="40.899773" lon="-3.901178">
        <ele>1355.441</ele>
        <time>2021-07-28T17:52:39Z</time>
      </trkpt>
      <trkpt lat="40.899773" lon="-3.901208">
        <ele>1355.474</ele>
        <time>2021-07-28T17:52:41Z</time>
      </trkpt>
      <trkpt lat="40.899770" lon="-3.901235">
        <ele>1355.375</ele>
        <time>2021-07-28T17:52:45Z</time>
      </trkpt>
      <trkpt lat="40.899766" lon="-3.901265">
        <ele>1355.265</ele>
        <time>2021-07-28T17:52:48Z</time>
      </trkpt>
      <trkpt lat="40.899770" lon="-3.901292">
        <ele>1355.368</ele>
        <time>2021-07-28T17:52:50Z</time>
      </trkpt>
      <trkpt lat="40.899770" lon="-3.901318">
        <ele>1355.214</ele>
        <time>2021-07-28T17:52:53Z</time>
      </trkpt>
      <trkpt lat="40.899776" lon="-3.901342">
        <ele>1355.408</ele>
        <time>2021-07-28T17:52:56Z</time>
      </trkpt>
      <trkpt lat="40.899779" lon="-3.901370">
        <ele>1355.493</ele>
        <time>2021-07-28T17:52:59Z</time>
      </trkpt>
      <trkpt lat="40.899779" lon="-3.901398">
        <ele>1355.455</ele>
        <time>2021-07-28T17:53:02Z</time>
      </trkpt>
      <trkpt lat="40.899795" lon="-3.901418">
        <ele>1355.732</ele>
        <time>2021-07-28T17:53:04Z</time>
      </trkpt>
      <trkpt lat="40.899811" lon="-3.901445">
        <ele>1356.099</ele>
        <time>2021-07-28T17:53:06Z</time>
      </trkpt>
      <trkpt lat="40.899830" lon="-3.901483">
        <ele>1356.470</ele>
        <time>2021-07-28T17:53:10Z</time>
      </trkpt>
      <trkpt lat="40.899830" lon="-3.901518">
        <ele>1356.330</ele>
        <time>2021-07-28T17:53:13Z</time>
      </trkpt>
      <trkpt lat="40.899846" lon="-3.901547">
        <ele>1356.563</ele>
        <time>2021-07-28T17:53:16Z</time>
      </trkpt>
      <trkpt lat="40.899856" lon="-3.901580">
        <ele>1356.764</ele>
        <time>2021-07-28T17:53:18Z</time>
      </trkpt>
      <trkpt lat="40.899850" lon="-3.901618">
        <ele>1356.488</ele>
        <time>2021-07-28T17:53:20Z</time>
      </trkpt>
      <trkpt lat="40.899856" lon="-3.901653">
        <ele>1356.424</ele>
        <time>2021-07-28T17:53:23Z</time>
      </trkpt>
      <trkpt lat="40.899866" lon="-3.901685">
        <ele>1356.626</ele>
        <time>2021-07-28T17:53:25Z</time>
      </trkpt>
      <trkpt lat="40.899866" lon="-3.901715">
        <ele>1356.508</ele>
        <time>2021-07-28T17:53:27Z</time>
      </trkpt>
      <trkpt lat="40.899872" lon="-3.901742">
        <ele>1356.685</ele>
        <time>2021-07-28T17:53:29Z</time>
      </trkpt>
      <trkpt lat="40.899888" lon="-3.901768">
        <ele>1357.067</ele>
        <time>2021-07-28T17:53:32Z</time>
      </trkpt>
      <trkpt lat="40.899888" lon="-3.901794">
        <ele>1357.064</ele>
        <time>2021-07-28T17:53:34Z</time>
      </trkpt>
      <trkpt lat="40.899888" lon="-3.901830">
        <ele>1356.951</ele>
        <time>2021-07-28T17:53:36Z</time>
      </trkpt>
      <trkpt lat="40.899894" lon="-3.901853">
        <ele>1357.142</ele>
        <time>2021-07-28T17:53:38Z</time>
      </trkpt>
      <trkpt lat="40.899910" lon="-3.901877">
        <ele>1357.532</ele>
        <time>2021-07-28T17:53:40Z</time>
      </trkpt>
      <trkpt lat="40.899914" lon="-3.901903">
        <ele>1357.625</ele>
        <time>2021-07-28T17:53:42Z</time>
      </trkpt>
      <trkpt lat="40.899926" lon="-3.901924">
        <ele>1357.936</ele>
        <time>2021-07-28T17:53:44Z</time>
      </trkpt>
      <trkpt lat="40.899946" lon="-3.901950">
        <ele>1358.473</ele>
        <time>2021-07-28T17:53:47Z</time>
      </trkpt>
      <trkpt lat="40.899952" lon="-3.901982">
        <ele>1358.685</ele>
        <time>2021-07-28T17:53:50Z</time>
      </trkpt>
      <trkpt lat="40.899949" lon="-3.902007">
        <ele>1358.513</ele>
        <time>2021-07-28T17:53:52Z</time>
      </trkpt>
      <trkpt lat="40.899965" lon="-3.902033">
        <ele>1359.008</ele>
        <time>2021-07-28T17:53:54Z</time>
      </trkpt>
      <trkpt lat="40.899974" lon="-3.902063">
        <ele>1359.274</ele>
        <time>2021-07-28T17:53:56Z</time>
      </trkpt>
      <trkpt lat="40.899990" lon="-3.902078">
        <ele>1359.716</ele>
        <time>2021-07-28T17:53:57Z</time>
      </trkpt>
      <trkpt lat="40.900010" lon="-3.902088">
        <ele>1360.433</ele>
        <time>2021-07-28T17:53:58Z</time>
      </trkpt>
      <trkpt lat="40.900026" lon="-3.902104">
        <ele>1360.940</ele>
        <time>2021-07-28T17:54:00Z</time>
      </trkpt>
      <trkpt lat="40.900029" lon="-3.902134">
        <ele>1361.041</ele>
        <time>2021-07-28T17:54:02Z</time>
      </trkpt>
      <trkpt lat="40.900038" lon="-3.902158">
        <ele>1361.461</ele>
        <time>2021-07-28T17:54:05Z</time>
      </trkpt>
      <trkpt lat="40.900048" lon="-3.902183">
        <ele>1361.714</ele>
        <time>2021-07-28T17:54:08Z</time>
      </trkpt>
      <trkpt lat="40.900054" lon="-3.902208">
        <ele>1361.935</ele>
        <time>2021-07-28T17:54:11Z</time>
      </trkpt>
      <trkpt lat="40.900054" lon="-3.902238">
        <ele>1361.949</ele>
        <time>2021-07-28T17:54:13Z</time>
      </trkpt>
      <trkpt lat="40.900054" lon="-3.902288">
        <ele>1361.802</ele>
        <time>2021-07-28T17:54:15Z</time>
      </trkpt>
      <trkpt lat="40.900074" lon="-3.902303">
        <ele>1362.522</ele>
        <time>2021-07-28T17:54:17Z</time>
      </trkpt>
      <trkpt lat="40.900083" lon="-3.902352">
        <ele>1362.708</ele>
        <time>2021-07-28T17:54:20Z</time>
      </trkpt>
      <trkpt lat="40.900090" lon="-3.902382">
        <ele>1362.951</ele>
        <time>2021-07-28T17:54:22Z</time>
      </trkpt>
      <trkpt lat="40.900093" lon="-3.902405">
        <ele>1362.923</ele>
        <time>2021-07-28T17:54:24Z</time>
      </trkpt>
      <trkpt lat="40.900112" lon="-3.902415">
        <ele>1363.620</ele>
        <time>2021-07-28T17:54:27Z</time>
      </trkpt>
      <trkpt lat="40.900128" lon="-3.902430">
        <ele>1364.267</ele>
        <time>2021-07-28T17:54:29Z</time>
      </trkpt>
      <trkpt lat="40.900134" lon="-3.902460">
        <ele>1364.468</ele>
        <time>2021-07-28T17:54:32Z</time>
      </trkpt>
      <trkpt lat="40.900138" lon="-3.902490">
        <ele>1364.598</ele>
        <time>2021-07-28T17:54:34Z</time>
      </trkpt>
      <trkpt lat="40.900150" lon="-3.902513">
        <ele>1364.981</ele>
        <time>2021-07-28T17:54:36Z</time>
      </trkpt>
      <trkpt lat="40.900163" lon="-3.902547">
        <ele>1365.382</ele>
        <time>2021-07-28T17:54:39Z</time>
      </trkpt>
      <trkpt lat="40.900166" lon="-3.902578">
        <ele>1365.346</ele>
        <time>2021-07-28T17:54:41Z</time>
      </trkpt>
      <trkpt lat="40.900176" lon="-3.902607">
        <ele>1365.688</ele>
        <time>2021-07-28T17:54:43Z</time>
      </trkpt>
      <trkpt lat="40.900176" lon="-3.902643">
        <ele>1365.516</ele>
        <time>2021-07-28T17:54:46Z</time>
      </trkpt>
      <trkpt lat="40.900186" lon="-3.902666">
        <ele>1365.808</ele>
        <time>2021-07-28T17:54:48Z</time>
      </trkpt>
      <trkpt lat="40.900189" lon="-3.902693">
        <ele>1365.861</ele>
        <time>2021-07-28T17:54:50Z</time>
      </trkpt>
      <trkpt lat="40.900205" lon="-3.902725">
        <ele>1366.373</ele>
        <time>2021-07-28T17:54:52Z</time>
      </trkpt>
      <trkpt lat="40.900218" lon="-3.902747">
        <ele>1366.710</ele>
        <time>2021-07-28T17:54:54Z</time>
      </trkpt>
      <trkpt lat="40.900230" lon="-3.902768">
        <ele>1367.147</ele>
        <time>2021-07-28T17:54:56Z</time>
      </trkpt>
      <trkpt lat="40.900243" lon="-3.902790">
        <ele>1367.578</ele>
        <time>2021-07-28T17:54:58Z</time>
      </trkpt>
      <trkpt lat="40.900256" lon="-3.902812">
        <ele>1367.928</ele>
        <time>2021-07-28T17:55:00Z</time>
      </trkpt>
      <trkpt lat="40.900269" lon="-3.902834">
        <ele>1368.391</ele>
        <time>2021-07-28T17:55:02Z</time>
      </trkpt>
      <trkpt lat="40.900278" lon="-3.902863">
        <ele>1368.412</ele>
        <time>2021-07-28T17:55:05Z</time>
      </trkpt>
      <trkpt lat="40.900294" lon="-3.902888">
        <ele>1369.057</ele>
        <time>2021-07-28T17:55:08Z</time>
      </trkpt>
      <trkpt lat="40.900307" lon="-3.902917">
        <ele>1369.400</ele>
        <time>2021-07-28T17:55:10Z</time>
      </trkpt>
      <trkpt lat="40.900323" lon="-3.902945">
        <ele>1369.920</ele>
        <time>2021-07-28T17:55:13Z</time>
      </trkpt>
      <trkpt lat="40.900317" lon="-3.902978">
        <ele>1369.408</ele>
        <time>2021-07-28T17:55:15Z</time>
      </trkpt>
      <trkpt lat="40.900317" lon="-3.903012">
        <ele>1369.182</ele>
        <time>2021-07-28T17:55:18Z</time>
      </trkpt>
      <trkpt lat="40.900342" lon="-3.903033">
        <ele>1370.234</ele>
        <time>2021-07-28T17:55:20Z</time>
      </trkpt>
      <trkpt lat="40.900349" lon="-3.903065">
        <ele>1370.351</ele>
        <time>2021-07-28T17:55:21Z</time>
      </trkpt>
      <trkpt lat="40.900362" lon="-3.903087">
        <ele>1370.858</ele>
        <time>2021-07-28T17:55:22Z</time>
      </trkpt>
      <trkpt lat="40.900374" lon="-3.903112">
        <ele>1371.399</ele>
        <time>2021-07-28T17:55:23Z</time>
      </trkpt>
      <trkpt lat="40.900387" lon="-3.903137">
        <ele>1371.869</ele>
        <time>2021-07-28T17:55:25Z</time>
      </trkpt>
      <trkpt lat="40.900390" lon="-3.903164">
        <ele>1371.942</ele>
        <time>2021-07-28T17:55:28Z</time>
      </trkpt>
      <trkpt lat="40.900390" lon="-3.903194">
        <ele>1371.843</ele>
        <time>2021-07-28T17:55:30Z</time>
      </trkpt>
      <trkpt lat="40.900403" lon="-3.903223">
        <ele>1372.344</ele>
        <time>2021-07-28T17:55:32Z</time>
      </trkpt>
      <trkpt lat="40.900406" lon="-3.903250">
        <ele>1372.305</ele>
        <time>2021-07-28T17:55:34Z</time>
      </trkpt>
      <trkpt lat="40.900416" lon="-3.903273">
        <ele>1372.715</ele>
        <time>2021-07-28T17:55:36Z</time>
      </trkpt>
      <trkpt lat="40.900432" lon="-3.903290">
        <ele>1373.408</ele>
        <time>2021-07-28T17:55:38Z</time>
      </trkpt>
      <trkpt lat="40.900448" lon="-3.903317">
        <ele>1374.061</ele>
        <time>2021-07-28T17:55:41Z</time>
      </trkpt>
      <trkpt lat="40.900461" lon="-3.903346">
        <ele>1374.533</ele>
        <time>2021-07-28T17:55:44Z</time>
      </trkpt>
      <trkpt lat="40.900454" lon="-3.903382">
        <ele>1374.010</ele>
        <time>2021-07-28T17:55:47Z</time>
      </trkpt>
      <trkpt lat="40.900467" lon="-3.903417">
        <ele>1374.377</ele>
        <time>2021-07-28T17:55:50Z</time>
      </trkpt>
      <trkpt lat="40.900474" lon="-3.903440">
        <ele>1374.568</ele>
        <time>2021-07-28T17:55:54Z</time>
      </trkpt>
      <trkpt lat="40.900493" lon="-3.903457">
        <ele>1375.358</ele>
        <time>2021-07-28T17:55:56Z</time>
      </trkpt>
      <trkpt lat="40.900506" lon="-3.903492">
        <ele>1375.611</ele>
        <time>2021-07-28T17:55:59Z</time>
      </trkpt>
      <trkpt lat="40.900512" lon="-3.903518">
        <ele>1375.732</ele>
        <time>2021-07-28T17:56:02Z</time>
      </trkpt>
      <trkpt lat="40.900528" lon="-3.903532">
        <ele>1376.478</ele>
        <time>2021-07-28T17:56:04Z</time>
      </trkpt>
      <trkpt lat="40.900544" lon="-3.903562">
        <ele>1376.833</ele>
        <time>2021-07-28T17:56:07Z</time>
      </trkpt>
      <trkpt lat="40.900554" lon="-3.903600">
        <ele>1377.026</ele>
        <time>2021-07-28T17:56:09Z</time>
      </trkpt>
      <trkpt lat="40.900544" lon="-3.903633">
        <ele>1376.408</ele>
        <time>2021-07-28T17:56:11Z</time>
      </trkpt>
      <trkpt lat="40.900544" lon="-3.903662">
        <ele>1376.334</ele>
        <time>2021-07-28T17:56:14Z</time>
      </trkpt>
      <trkpt lat="40.900541" lon="-3.903695">
        <ele>1376.176</ele>
        <time>2021-07-28T17:56:17Z</time>
      </trkpt>
      <trkpt lat="40.900550" lon="-3.903720">
        <ele>1376.443</ele>
        <time>2021-07-28T17:56:19Z</time>
      </trkpt>
      <trkpt lat="40.900560" lon="-3.903748">
        <ele>1376.880</ele>
        <time>2021-07-28T17:56:21Z</time>
      </trkpt>
      <trkpt lat="40.900582" lon="-3.903752">
        <ele>1378.061</ele>
        <time>2021-07-28T17:56:23Z</time>
      </trkpt>
      <trkpt lat="40.900595" lon="-3.903773">
        <ele>1378.751</ele>
        <time>2021-07-28T17:56:25Z</time>
      </trkpt>
      <trkpt lat="40.900611" lon="-3.903800">
        <ele>1379.414</ele>
        <time>2021-07-28T17:56:27Z</time>
      </trkpt>
      <trkpt lat="40.900621" lon="-3.903833">
        <ele>1379.845</ele>
        <time>2021-07-28T17:56:30Z</time>
      </trkpt>
      <trkpt lat="40.900643" lon="-3.903848">
        <ele>1381.038</ele>
        <time>2021-07-28T17:56:33Z</time>
      </trkpt>
      <trkpt lat="40.900662" lon="-3.903874">
        <ele>1381.870</ele>
        <time>2021-07-28T17:56:36Z</time>
      </trkpt>
      <trkpt lat="40.900675" lon="-3.903900">
        <ele>1382.417</ele>
        <time>2021-07-28T17:56:39Z</time>
      </trkpt>
      <trkpt lat="40.900672" lon="-3.903928">
        <ele>1382.108</ele>
        <time>2021-07-28T17:56:43Z</time>
      </trkpt>
      <trkpt lat="40.900685" lon="-3.903955">
        <ele>1382.740</ele>
        <time>2021-07-28T17:56:45Z</time>
      </trkpt>
      <trkpt lat="40.900694" lon="-3.903982">
        <ele>1383.112</ele>
        <time>2021-07-28T17:56:47Z</time>
      </trkpt>
      <trkpt lat="40.900701" lon="-3.904007">
        <ele>1383.449</ele>
        <time>2021-07-28T17:56:49Z</time>
      </trkpt>
      <trkpt lat="40.900714" lon="-3.904035">
        <ele>1384.186</ele>
        <time>2021-07-28T17:56:53Z</time>
      </trkpt>
      <trkpt lat="40.900730" lon="-3.904050">
        <ele>1385.037</ele>
        <time>2021-07-28T17:56:55Z</time>
      </trkpt>
      <trkpt lat="40.900733" lon="-3.904076">
        <ele>1385.147</ele>
        <time>2021-07-28T17:56:58Z</time>
      </trkpt>
      <trkpt lat="40.900746" lon="-3.904102">
        <ele>1385.850</ele>
        <time>2021-07-28T17:57:01Z</time>
      </trkpt>
      <trkpt lat="40.900765" lon="-3.904132">
        <ele>1386.991</ele>
        <time>2021-07-28T17:57:03Z</time>
      </trkpt>
      <trkpt lat="40.900765" lon="-3.904158">
        <ele>1386.825</ele>
        <time>2021-07-28T17:57:05Z</time>
      </trkpt>
      <trkpt lat="40.900784" lon="-3.904180">
        <ele>1387.926</ele>
        <time>2021-07-28T17:57:08Z</time>
      </trkpt>
      <trkpt lat="40.900787" lon="-3.904204">
        <ele>1387.908</ele>
        <time>2021-07-28T17:57:12Z</time>
      </trkpt>
      <trkpt lat="40.900790" lon="-3.904230">
        <ele>1388.008</ele>
        <time>2021-07-28T17:57:14Z</time>
      </trkpt>
      <trkpt lat="40.900794" lon="-3.904262">
        <ele>1388.089</ele>
        <time>2021-07-28T17:57:17Z</time>
      </trkpt>
      <trkpt lat="40.900810" lon="-3.904295">
        <ele>1388.771</ele>
        <time>2021-07-28T17:57:20Z</time>
      </trkpt>
      <trkpt lat="40.900813" lon="-3.904323">
        <ele>1388.718</ele>
        <time>2021-07-28T17:57:23Z</time>
      </trkpt>
      <trkpt lat="40.900826" lon="-3.904347">
        <ele>1389.345</ele>
        <time>2021-07-28T17:57:25Z</time>
      </trkpt>
      <trkpt lat="40.900838" lon="-3.904374">
        <ele>1389.826</ele>
        <time>2021-07-28T17:57:27Z</time>
      </trkpt>
      <trkpt lat="40.900851" lon="-3.904405">
        <ele>1390.316</ele>
        <time>2021-07-28T17:57:30Z</time>
      </trkpt>
      <trkpt lat="40.900861" lon="-3.904428">
        <ele>1390.799</ele>
        <time>2021-07-28T17:57:34Z</time>
      </trkpt>
      <trkpt lat="40.900880" lon="-3.904460">
        <ele>1391.640</ele>
        <time>2021-07-28T17:57:37Z</time>
      </trkpt>
      <trkpt lat="40.900893" lon="-3.904488">
        <ele>1392.249</ele>
        <time>2021-07-28T17:57:39Z</time>
      </trkpt>
      <trkpt lat="40.900906" lon="-3.904508">
        <ele>1392.802</ele>
        <time>2021-07-28T17:57:41Z</time>
      </trkpt>
      <trkpt lat="40.900909" lon="-3.904542">
        <ele>1392.822</ele>
        <time>2021-07-28T17:57:45Z</time>
      </trkpt>
      <trkpt lat="40.900941" lon="-3.904557">
        <ele>1394.508</ele>
        <time>2021-07-28T17:57:47Z</time>
      </trkpt>
      <trkpt lat="40.900941" lon="-3.904597">
        <ele>1394.311</ele>
        <time>2021-07-28T17:57:49Z</time>
      </trkpt>
      <trkpt lat="40.900957" lon="-3.904610">
        <ele>1395.263</ele>
        <time>2021-07-28T17:57:51Z</time>
      </trkpt>
      <trkpt lat="40.900970" lon="-3.904633">
        <ele>1395.880</ele>
        <time>2021-07-28T17:57:54Z</time>
      </trkpt>
      <trkpt lat="40.900989" lon="-3.904655">
        <ele>1396.947</ele>
        <time>2021-07-28T17:57:57Z</time>
      </trkpt>
      <trkpt lat="40.901002" lon="-3.904680">
        <ele>1397.568</ele>
        <time>2021-07-28T17:58:00Z</time>
      </trkpt>
      <trkpt lat="40.901002" lon="-3.904713">
        <ele>1397.498</ele>
        <time>2021-07-28T17:58:04Z</time>
      </trkpt>
      <trkpt lat="40.901002" lon="-3.904746">
        <ele>1397.461</ele>
        <time>2021-07-28T17:58:06Z</time>
      </trkpt>
      <trkpt lat="40.901005" lon="-3.904775">
        <ele>1397.642</ele>
        <time>2021-07-28T17:58:08Z</time>
      </trkpt>
      <trkpt lat="40.901008" lon="-3.904800">
        <ele>1397.822</ele>
        <time>2021-07-28T17:58:11Z</time>
      </trkpt>
      <trkpt lat="40.901011" lon="-3.904827">
        <ele>1398.062</ele>
        <time>2021-07-28T17:58:13Z</time>
      </trkpt>
      <trkpt lat="40.901011" lon="-3.904852">
        <ele>1398.008</ele>
        <time>2021-07-28T17:58:15Z</time>
      </trkpt>
      <trkpt lat="40.901021" lon="-3.904873">
        <ele>1398.708</ele>
        <time>2021-07-28T17:58:17Z</time>
      </trkpt>
      <trkpt lat="40.901030" lon="-3.904905">
        <ele>1399.229</ele>
        <time>2021-07-28T17:58:20Z</time>
      </trkpt>
      <trkpt lat="40.901030" lon="-3.904937">
        <ele>1399.321</ele>
        <time>2021-07-28T17:58:22Z</time>
      </trkpt>
      <trkpt lat="40.901027" lon="-3.904968">
        <ele>1399.178</ele>
        <time>2021-07-28T17:58:24Z</time>
      </trkpt>
      <trkpt lat="40.901008" lon="-3.904992">
        <ele>1398.075</ele>
        <time>2021-07-28T17:58:26Z</time>
      </trkpt>
      <trkpt lat="40.901008" lon="-3.905020">
        <ele>1398.116</ele>
        <time>2021-07-28T17:58:28Z</time>
      </trkpt>
      <trkpt lat="40.901002" lon="-3.905043">
        <ele>1397.896</ele>
        <time>2021-07-28T17:58:30Z</time>
      </trkpt>
      <trkpt lat="40.901005" lon="-3.905072">
        <ele>1398.179</ele>
        <time>2021-07-28T17:58:32Z</time>
      </trkpt>
      <trkpt lat="40.901002" lon="-3.905115">
        <ele>1398.040</ele>
        <time>2021-07-28T17:58:34Z</time>
      </trkpt>
      <trkpt lat="40.901011" lon="-3.905142">
        <ele>1398.678</ele>
        <time>2021-07-28T17:58:36Z</time>
      </trkpt>
      <trkpt lat="40.901027" lon="-3.905162">
        <ele>1399.533</ele>
        <time>2021-07-28T17:58:38Z</time>
      </trkpt>
      <trkpt lat="40.901037" lon="-3.905185">
        <ele>1400.126</ele>
        <time>2021-07-28T17:58:40Z</time>
      </trkpt>
      <trkpt lat="40.901030" lon="-3.905213">
        <ele>1399.808</ele>
        <time>2021-07-28T17:58:42Z</time>
      </trkpt>
      <trkpt lat="40.901037" lon="-3.905242">
        <ele>1400.214</ele>
        <time>2021-07-28T17:58:44Z</time>
      </trkpt>
      <trkpt lat="40.901046" lon="-3.905267">
        <ele>1400.746</ele>
        <time>2021-07-28T17:58:46Z</time>
      </trkpt>
      <trkpt lat="40.901069" lon="-3.905290">
        <ele>1402.073</ele>
        <time>2021-07-28T17:58:48Z</time>
      </trkpt>
      <trkpt lat="40.901085" lon="-3.905315">
        <ele>1402.970</ele>
        <time>2021-07-28T17:58:51Z</time>
      </trkpt>
      <trkpt lat="40.901101" lon="-3.905338">
        <ele>1403.931</ele>
        <time>2021-07-28T17:58:53Z</time>
      </trkpt>
      <trkpt lat="40.901110" lon="-3.905367">
        <ele>1404.691</ele>
        <time>2021-07-28T17:58:55Z</time>
      </trkpt>
      <trkpt lat="40.901130" lon="-3.905398">
        <ele>1405.964</ele>
        <time>2021-07-28T17:58:57Z</time>
      </trkpt>
      <trkpt lat="40.901126" lon="-3.905432">
        <ele>1405.935</ele>
        <time>2021-07-28T17:58:59Z</time>
      </trkpt>
      <trkpt lat="40.901149" lon="-3.905452">
        <ele>1407.237</ele>
        <time>2021-07-28T17:59:01Z</time>
      </trkpt>
      <trkpt lat="40.901158" lon="-3.905476">
        <ele>1407.849</ele>
        <time>2021-07-28T17:59:03Z</time>
      </trkpt>
      <trkpt lat="40.901162" lon="-3.905503">
        <ele>1408.213</ele>
        <time>2021-07-28T17:59:06Z</time>
      </trkpt>
      <trkpt lat="40.901149" lon="-3.905523">
        <ele>1407.708</ele>
        <time>2021-07-28T17:59:08Z</time>
      </trkpt>
      <trkpt lat="40.901142" lon="-3.905548">
        <ele>1407.510</ele>
        <time>2021-07-28T17:59:10Z</time>
      </trkpt>
      <trkpt lat="40.901136" lon="-3.905573">
        <ele>1407.462</ele>
        <time>2021-07-28T17:59:13Z</time>
      </trkpt>
      <trkpt lat="40.901126" lon="-3.905607">
        <ele>1407.359</ele>
        <time>2021-07-28T17:59:16Z</time>
      </trkpt>
      <trkpt lat="40.901126" lon="-3.905634">
        <ele>1407.696</ele>
        <time>2021-07-28T17:59:18Z</time>
      </trkpt>
      <trkpt lat="40.901126" lon="-3.905666">
        <ele>1407.937</ele>
        <time>2021-07-28T17:59:21Z</time>
      </trkpt>
      <trkpt lat="40.901126" lon="-3.905702">
        <ele>1408.337</ele>
        <time>2021-07-28T17:59:24Z</time>
      </trkpt>
      <trkpt lat="40.901123" lon="-3.905727">
        <ele>1408.450</ele>
        <time>2021-07-28T17:59:26Z</time>
      </trkpt>
      <trkpt lat="40.901123" lon="-3.905763">
        <ele>1408.811</ele>
        <time>2021-07-28T17:59:28Z</time>
      </trkpt>
      <trkpt lat="40.901126" lon="-3.905790">
        <ele>1409.267</ele>
        <time>2021-07-28T17:59:30Z</time>
      </trkpt>
      <trkpt lat="40.901126" lon="-3.905830">
        <ele>1409.781</ele>
        <time>2021-07-28T17:59:33Z</time>
      </trkpt>
      <trkpt lat="40.901142" lon="-3.905853">
        <ele>1410.619</ele>
        <time>2021-07-28T17:59:35Z</time>
      </trkpt>
      <trkpt lat="40.901149" lon="-3.905887">
        <ele>1411.208</ele>
        <time>2021-07-28T17:59:38Z</time>
      </trkpt>
      <trkpt lat="40.901165" lon="-3.905913">
        <ele>1412.143</ele>
        <time>2021-07-28T17:59:40Z</time>
      </trkpt>
      <trkpt lat="40.901171" lon="-3.905937">
        <ele>1412.515</ele>
        <time>2021-07-28T17:59:42Z</time>
      </trkpt>
      <trkpt lat="40.901181" lon="-3.905968">
        <ele>1413.222</ele>
        <time>2021-07-28T17:59:45Z</time>
      </trkpt>
      <trkpt lat="40.901178" lon="-3.905995">
        <ele>1413.339</ele>
        <time>2021-07-28T17:59:49Z</time>
      </trkpt>
      <trkpt lat="40.901165" lon="-3.906016">
        <ele>1412.830</ele>
        <time>2021-07-28T17:59:52Z</time>
      </trkpt>
      <trkpt lat="40.901152" lon="-3.906043">
        <ele>1412.490</ele>
        <time>2021-07-28T17:59:54Z</time>
      </trkpt>
      <trkpt lat="40.901158" lon="-3.906075">
        <ele>1412.963</ele>
        <time>2021-07-28T17:59:56Z</time>
      </trkpt>
      <trkpt lat="40.901152" lon="-3.906105">
        <ele>1412.934</ele>
        <time>2021-07-28T17:59:58Z</time>
      </trkpt>
      <trkpt lat="40.901158" lon="-3.906140">
        <ele>1413.486</ele>
        <time>2021-07-28T17:59:59Z</time>
      </trkpt>
      <trkpt lat="40.901162" lon="-3.906183">
        <ele>1413.960</ele>
        <time>2021-07-28T18:00:01Z</time>
      </trkpt>
      <trkpt lat="40.901152" lon="-3.906207">
        <ele>1413.626</ele>
        <time>2021-07-28T18:00:05Z</time>
      </trkpt>
      <trkpt lat="40.901152" lon="-3.906238">
        <ele>1413.808</ele>
        <time>2021-07-28T18:00:08Z</time>
      </trkpt>
      <trkpt lat="40.901142" lon="-3.906273">
        <ele>1413.675</ele>
        <time>2021-07-28T18:00:10Z</time>
      </trkpt>
      <trkpt lat="40.901136" lon="-3.906307">
        <ele>1413.617</ele>
        <time>2021-07-28T18:00:12Z</time>
      </trkpt>
      <trkpt lat="40.901146" lon="-3.906338">
        <ele>1414.334</ele>
        <time>2021-07-28T18:00:14Z</time>
      </trkpt>
      <trkpt lat="40.901162" lon="-3.906357">
        <ele>1415.291</ele>
        <time>2021-07-28T18:00:15Z</time>
      </trkpt>
      <trkpt lat="40.901162" lon="-3.906387">
        <ele>1415.472</ele>
        <time>2021-07-28T18:00:17Z</time>
      </trkpt>
      <trkpt lat="40.901187" lon="-3.906407">
        <ele>1416.762</ele>
        <time>2021-07-28T18:00:21Z</time>
      </trkpt>
      <trkpt lat="40.901184" lon="-3.906432">
        <ele>1416.825</ele>
        <time>2021-07-28T18:00:24Z</time>
      </trkpt>
      <trkpt lat="40.901184" lon="-3.906463">
        <ele>1417.136</ele>
        <time>2021-07-28T18:00:26Z</time>
      </trkpt>
      <trkpt lat="40.901171" lon="-3.906485">
        <ele>1416.819</ele>
        <time>2021-07-28T18:00:29Z</time>
      </trkpt>
      <trkpt lat="40.901165" lon="-3.906522">
        <ele>1416.909</ele>
        <time>2021-07-28T18:00:32Z</time>
      </trkpt>
      <trkpt lat="40.901178" lon="-3.906546">
        <ele>1417.719</ele>
        <time>2021-07-28T18:00:34Z</time>
      </trkpt>
      <trkpt lat="40.901168" lon="-3.906572">
        <ele>1417.508</ele>
        <time>2021-07-28T18:00:37Z</time>
      </trkpt>
      <trkpt lat="40.901165" lon="-3.906603">
        <ele>1417.798</ele>
        <time>2021-07-28T18:00:40Z</time>
      </trkpt>
      <trkpt lat="40.901149" lon="-3.906630">
        <ele>1417.340</ele>
        <time>2021-07-28T18:00:42Z</time>
      </trkpt>
      <trkpt lat="40.901146" lon="-3.906654">
        <ele>1417.417</ele>
        <time>2021-07-28T18:00:44Z</time>
      </trkpt>
      <trkpt lat="40.901152" lon="-3.906687">
        <ele>1418.044</ele>
        <time>2021-07-28T18:00:46Z</time>
      </trkpt>
      <trkpt lat="40.901142" lon="-3.906720">
        <ele>1417.995</ele>
        <time>2021-07-28T18:00:48Z</time>
      </trkpt>
      <trkpt lat="40.901149" lon="-3.906745">
        <ele>1418.465</ele>
        <time>2021-07-28T18:00:50Z</time>
      </trkpt>
      <trkpt lat="40.901146" lon="-3.906770">
        <ele>1418.628</ele>
        <time>2021-07-28T18:00:52Z</time>
      </trkpt>
      <trkpt lat="40.901152" lon="-3.906800">
        <ele>1419.189</ele>
        <time>2021-07-28T18:00:55Z</time>
      </trkpt>
      <trkpt lat="40.901162" lon="-3.906828">
        <ele>1419.828</ele>
        <time>2021-07-28T18:00:57Z</time>
      </trkpt>
      <trkpt lat="40.901171" lon="-3.906858">
        <ele>1420.589</ele>
        <time>2021-07-28T18:01:00Z</time>
      </trkpt>
      <trkpt lat="40.901181" lon="-3.906890">
        <ele>1421.217</ele>
        <time>2021-07-28T18:01:02Z</time>
      </trkpt>
      <trkpt lat="40.901178" lon="-3.906920">
        <ele>1421.408</ele>
        <time>2021-07-28T18:01:04Z</time>
      </trkpt>
      <trkpt lat="40.901181" lon="-3.906948">
        <ele>1421.879</ele>
        <time>2021-07-28T18:01:07Z</time>
      </trkpt>
      <trkpt lat="40.901190" lon="-3.906980">
        <ele>1422.311</ele>
        <time>2021-07-28T18:01:10Z</time>
      </trkpt>
      <trkpt lat="40.901171" lon="-3.906998">
        <ele>1421.768</ele>
        <time>2021-07-28T18:01:12Z</time>
      </trkpt>
      <trkpt lat="40.901165" lon="-3.907027">
        <ele>1421.775</ele>
        <time>2021-07-28T18:01:14Z</time>
      </trkpt>
      <trkpt lat="40.901171" lon="-3.907052">
        <ele>1422.176</ele>
        <time>2021-07-28T18:01:16Z</time>
      </trkpt>
      <trkpt lat="40.901178" lon="-3.907080">
        <ele>1422.516</ele>
        <time>2021-07-28T18:01:17Z</time>
      </trkpt>
      <trkpt lat="40.901178" lon="-3.907107">
        <ele>1422.779</ele>
        <time>2021-07-28T18:01:19Z</time>
      </trkpt>
      <trkpt lat="40.901181" lon="-3.907135">
        <ele>1423.040</ele>
        <time>2021-07-28T18:01:21Z</time>
      </trkpt>
      <trkpt lat="40.901171" lon="-3.907168">
        <ele>1422.816</ele>
        <time>2021-07-28T18:01:24Z</time>
      </trkpt>
      <trkpt lat="40.901187" lon="-3.907194">
        <ele>1423.676</ele>
        <time>2021-07-28T18:01:26Z</time>
      </trkpt>
      <trkpt lat="40.901200" lon="-3.907213">
        <ele>1424.113</ele>
        <time>2021-07-28T18:01:28Z</time>
      </trkpt>
      <trkpt lat="40.901216" lon="-3.907236">
        <ele>1424.808</ele>
        <time>2021-07-28T18:01:30Z</time>
      </trkpt>
      <trkpt lat="40.901235" lon="-3.907255">
        <ele>1425.668</ele>
        <time>2021-07-28T18:01:32Z</time>
      </trkpt>
      <trkpt lat="40.901261" lon="-3.907257">
        <ele>1426.520</ele>
        <time>2021-07-28T18:01:35Z</time>
      </trkpt>
      <trkpt lat="40.901283" lon="-3.907255">
        <ele>1427.377</ele>
        <time>2021-07-28T18:01:38Z</time>
      </trkpt>
      <trkpt lat="40.901302" lon="-3.907245">
        <ele>1428.034</ele>
        <time>2021-07-28T18:01:40Z</time>
      </trkpt>
      <trkpt lat="40.901315" lon="-3.907223">
        <ele>1428.335</ele>
        <time>2021-07-28T18:01:42Z</time>
      </trkpt>
      <trkpt lat="40.901338" lon="-3.907194">
        <ele>1429.065</ele>
        <time>2021-07-28T18:01:45Z</time>
      </trkpt>
      <trkpt lat="40.901370" lon="-3.907152">
        <ele>1430.018</ele>
        <time>2021-07-28T18:01:48Z</time>
      </trkpt>
      <trkpt lat="40.901389" lon="-3.907125">
        <ele>1430.789</ele>
        <time>2021-07-28T18:01:50Z</time>
      </trkpt>
      <trkpt lat="40.901398" lon="-3.907100">
        <ele>1430.919</ele>
        <time>2021-07-28T18:01:52Z</time>
      </trkpt>
      <trkpt lat="40.901402" lon="-3.907070">
        <ele>1430.909</ele>
        <time>2021-07-28T18:01:54Z</time>
      </trkpt>
      <trkpt lat="40.901418" lon="-3.907050">
        <ele>1431.319</ele>
        <time>2021-07-28T18:01:56Z</time>
      </trkpt>
      <trkpt lat="40.901434" lon="-3.907037">
        <ele>1431.808</ele>
        <time>2021-07-28T18:01:57Z</time>
      </trkpt>
      <trkpt lat="40.901446" lon="-3.907012">
        <ele>1432.198</ele>
        <time>2021-07-28T18:01:58Z</time>
      </trkpt>
      <trkpt lat="40.901459" lon="-3.906992">
        <ele>1432.470</ele>
        <time>2021-07-28T18:01:59Z</time>
      </trkpt>
      <trkpt lat="40.901462" lon="-3.906967">
        <ele>1432.547</ele>
        <time>2021-07-28T18:02:00Z</time>
      </trkpt>
      <trkpt lat="40.901459" lon="-3.906928">
        <ele>1432.214</ele>
        <time>2021-07-28T18:02:02Z</time>
      </trkpt>
      <trkpt lat="40.901466" lon="-3.906898">
        <ele>1432.235</ele>
        <time>2021-07-28T18:02:05Z</time>
      </trkpt>
      <trkpt lat="40.901485" lon="-3.906868">
        <ele>1432.635</ele>
        <time>2021-07-28T18:02:07Z</time>
      </trkpt>
      <trkpt lat="40.901507" lon="-3.906848">
        <ele>1433.168</ele>
        <time>2021-07-28T18:02:09Z</time>
      </trkpt>
      <trkpt lat="40.901520" lon="-3.906823">
        <ele>1433.489</ele>
        <time>2021-07-28T18:02:11Z</time>
      </trkpt>
      <trkpt lat="40.901517" lon="-3.906793">
        <ele>1433.145</ele>
        <time>2021-07-28T18:02:14Z</time>
      </trkpt>
      <trkpt lat="40.901520" lon="-3.906758">
        <ele>1432.947</ele>
        <time>2021-07-28T18:02:17Z</time>
      </trkpt>
      <trkpt lat="40.901542" lon="-3.906738">
        <ele>1433.511</ele>
        <time>2021-07-28T18:02:19Z</time>
      </trkpt>
      <trkpt lat="40.901558" lon="-3.906722">
        <ele>1433.908</ele>
        <time>2021-07-28T18:02:21Z</time>
      </trkpt>
      <trkpt lat="40.901565" lon="-3.906690">
        <ele>1433.951</ele>
        <time>2021-07-28T18:02:24Z</time>
      </trkpt>
      <trkpt lat="40.901568" lon="-3.906665">
        <ele>1433.813</ele>
        <time>2021-07-28T18:02:25Z</time>
      </trkpt>
      <trkpt lat="40.901574" lon="-3.906640">
        <ele>1433.910</ele>
        <time>2021-07-28T18:02:28Z</time>
      </trkpt>
      <trkpt lat="40.901587" lon="-3.906607">
        <ele>1434.167</ele>
        <time>2021-07-28T18:02:30Z</time>
      </trkpt>
      <trkpt lat="40.901600" lon="-3.906573">
        <ele>1434.438</ele>
        <time>2021-07-28T18:02:32Z</time>
      </trkpt>
      <trkpt lat="40.901597" lon="-3.906543">
        <ele>1434.228</ele>
        <time>2021-07-28T18:02:34Z</time>
      </trkpt>
      <trkpt lat="40.901606" lon="-3.906516">
        <ele>1434.441</ele>
        <time>2021-07-28T18:02:38Z</time>
      </trkpt>
      <trkpt lat="40.901619" lon="-3.906498">
        <ele>1434.782</ele>
        <time>2021-07-28T18:02:40Z</time>
      </trkpt>
      <trkpt lat="40.901638" lon="-3.906482">
        <ele>1435.332</ele>
        <time>2021-07-28T18:02:41Z</time>
      </trkpt>
      <trkpt lat="40.901654" lon="-3.906467">
        <ele>1435.892</ele>
        <time>2021-07-28T18:02:42Z</time>
      </trkpt>
      <trkpt lat="40.901654" lon="-3.906432">
        <ele>1435.711</ele>
        <time>2021-07-28T18:02:44Z</time>
      </trkpt>
      <trkpt lat="40.901664" lon="-3.906400">
        <ele>1435.908</ele>
        <time>2021-07-28T18:02:46Z</time>
      </trkpt>
      <trkpt lat="40.901677" lon="-3.906368">
        <ele>1436.450</ele>
        <time>2021-07-28T18:02:48Z</time>
      </trkpt>
      <trkpt lat="40.901680" lon="-3.906332">
        <ele>1436.392</ele>
        <time>2021-07-28T18:02:51Z</time>
      </trkpt>
      <trkpt lat="40.901683" lon="-3.906292">
        <ele>1436.179</ele>
        <time>2021-07-28T18:02:53Z</time>
      </trkpt>
      <trkpt lat="40.901696" lon="-3.906265">
        <ele>1436.636</ele>
        <time>2021-07-28T18:02:57Z</time>
      </trkpt>
      <trkpt lat="40.901702" lon="-3.906237">
        <ele>1436.767</ele>
        <time>2021-07-28T18:03:02Z</time>
      </trkpt>
      <trkpt lat="40.901718" lon="-3.906215">
        <ele>1437.327</ele>
        <time>2021-07-28T18:03:04Z</time>
      </trkpt>
      <trkpt lat="40.901734" lon="-3.906198">
        <ele>1438.020</ele>
        <time>2021-07-28T18:03:05Z</time>
      </trkpt>
      <trkpt lat="40.901773" lon="-3.906172">
        <ele>1439.831</ele>
        <time>2021-07-28T18:03:07Z</time>
      </trkpt>
      <trkpt lat="40.901782" lon="-3.906145">
        <ele>1440.129</ele>
        <time>2021-07-28T18:03:10Z</time>
      </trkpt>
      <trkpt lat="40.901786" lon="-3.906115">
        <ele>1440.000</ele>
        <time>2021-07-28T18:03:12Z</time>
      </trkpt>
      <trkpt lat="40.901805" lon="-3.906077">
        <ele>1440.820</ele>
        <time>2021-07-28T18:03:14Z</time>
      </trkpt>
      <trkpt lat="40.901814" lon="-3.906052">
        <ele>1441.208</ele>
        <time>2021-07-28T18:03:15Z</time>
      </trkpt>
      <trkpt lat="40.901818" lon="-3.906022">
        <ele>1441.369</ele>
        <time>2021-07-28T18:03:17Z</time>
      </trkpt>
      <trkpt lat="40.901814" lon="-3.905992">
        <ele>1441.011</ele>
        <time>2021-07-28T18:03:19Z</time>
      </trkpt>
      <trkpt lat="40.901811" lon="-3.905967">
        <ele>1440.848</ele>
        <time>2021-07-28T18:03:21Z</time>
      </trkpt>
      <trkpt lat="40.901802" lon="-3.905932">
        <ele>1440.275</ele>
        <time>2021-07-28T18:03:24Z</time>
      </trkpt>
      <trkpt lat="40.901818" lon="-3.905908">
        <ele>1440.916</ele>
        <time>2021-07-28T18:03:26Z</time>
      </trkpt>
      <trkpt lat="40.901821" lon="-3.905877">
        <ele>1440.986</ele>
        <time>2021-07-28T18:03:28Z</time>
      </trkpt>
      <trkpt lat="40.901843" lon="-3.905852">
        <ele>1442.039</ele>
        <time>2021-07-28T18:03:30Z</time>
      </trkpt>
      <trkpt lat="40.901853" lon="-3.905826">
        <ele>1442.310</ele>
        <time>2021-07-28T18:03:31Z</time>
      </trkpt>
      <trkpt lat="40.901859" lon="-3.905792">
        <ele>1442.434</ele>
        <time>2021-07-28T18:03:33Z</time>
      </trkpt>
      <trkpt lat="40.901866" lon="-3.905762">
        <ele>1442.555</ele>
        <time>2021-07-28T18:03:35Z</time>
      </trkpt>
      <trkpt lat="40.901882" lon="-3.905745">
        <ele>1443.210</ele>
        <time>2021-07-28T18:03:37Z</time>
      </trkpt>
      <trkpt lat="40.901894" lon="-3.905723">
        <ele>1443.708</ele>
        <time>2021-07-28T18:03:40Z</time>
      </trkpt>
      <trkpt lat="40.901910" lon="-3.905697">
        <ele>1444.370</ele>
        <time>2021-07-28T18:03:43Z</time>
      </trkpt>
      <trkpt lat="40.901933" lon="-3.905680">
        <ele>1445.352</ele>
        <time>2021-07-28T18:03:45Z</time>
      </trkpt>
      <trkpt lat="40.901939" lon="-3.905652">
        <ele>1445.469</ele>
        <time>2021-07-28T18:03:47Z</time>
      </trkpt>
      <trkpt lat="40.901942" lon="-3.905615">
        <ele>1445.396</ele>
        <time>2021-07-28T18:03:49Z</time>
      </trkpt>
      <trkpt lat="40.901955" lon="-3.905593">
        <ele>1445.827</ele>
        <time>2021-07-28T18:03:50Z</time>
      </trkpt>
      <trkpt lat="40.901952" lon="-3.905553">
        <ele>1445.377</ele>
        <time>2021-07-28T18:03:52Z</time>
      </trkpt>
      <trkpt lat="40.901971" lon="-3.905550">
        <ele>1446.250</ele>
        <time>2021-07-28T18:03:57Z</time>
      </trkpt>
      <trkpt lat="40.901990" lon="-3.905542">
        <ele>1447.181</ele>
        <time>2021-07-28T18:03:58Z</time>
      </trkpt>
      <trkpt lat="40.902013" lon="-3.905515">
        <ele>1448.046</ele>
        <time>2021-07-28T18:04:01Z</time>
      </trkpt>
      <trkpt lat="40.902013" lon="-3.905490">
        <ele>1447.988</ele>
        <time>2021-07-28T18:04:03Z</time>
      </trkpt>
      <trkpt lat="40.902026" lon="-3.905462">
        <ele>1448.416</ele>
        <time>2021-07-28T18:04:05Z</time>
      </trkpt>
      <trkpt lat="40.902026" lon="-3.905424">
        <ele>1448.208</ele>
        <time>2021-07-28T18:04:07Z</time>
      </trkpt>
      <trkpt lat="40.902032" lon="-3.905385">
        <ele>1448.341</ele>
        <time>2021-07-28T18:04:09Z</time>
      </trkpt>
      <trkpt lat="40.902038" lon="-3.905357">
        <ele>1448.423</ele>
        <time>2021-07-28T18:04:12Z</time>
      </trkpt>
      <trkpt lat="40.902061" lon="-3.905338">
        <ele>1449.320</ele>
        <time>2021-07-28T18:04:14Z</time>
      </trkpt>
      <trkpt lat="40.902080" lon="-3.905315">
        <ele>1450.117</ele>
        <time>2021-07-28T18:04:16Z</time>
      </trkpt>
      <trkpt lat="40.902083" lon="-3.905287">
        <ele>1450.038</ele>
        <time>2021-07-28T18:04:19Z</time>
      </trkpt>
      <trkpt lat="40.902080" lon="-3.905262">
        <ele>1449.878</ele>
        <time>2021-07-28T18:04:21Z</time>
      </trkpt>
      <trkpt lat="40.902064" lon="-3.905233">
        <ele>1448.911</ele>
        <time>2021-07-28T18:04:23Z</time>
      </trkpt>
      <trkpt lat="40.902054" lon="-3.905202">
        <ele>1448.422</ele>
        <time>2021-07-28T18:04:25Z</time>
      </trkpt>
      <trkpt lat="40.902070" lon="-3.905180">
        <ele>1448.943</ele>
        <time>2021-07-28T18:04:27Z</time>
      </trkpt>
      <trkpt lat="40.902074" lon="-3.905140">
        <ele>1448.964</ele>
        <time>2021-07-28T18:04:30Z</time>
      </trkpt>
      <trkpt lat="40.902080" lon="-3.905110">
        <ele>1449.010</ele>
        <time>2021-07-28T18:04:32Z</time>
      </trkpt>
      <trkpt lat="40.902090" lon="-3.905077">
        <ele>1449.208</ele>
        <time>2021-07-28T18:04:34Z</time>
      </trkpt>
      <trkpt lat="40.902112" lon="-3.905048">
        <ele>1449.991</ele>
        <time>2021-07-28T18:04:36Z</time>
      </trkpt>
      <trkpt lat="40.902118" lon="-3.905018">
        <ele>1450.013</ele>
        <time>2021-07-28T18:04:38Z</time>
      </trkpt>
      <trkpt lat="40.902138" lon="-3.905002">
        <ele>1450.750</ele>
        <time>2021-07-28T18:04:40Z</time>
      </trkpt>
      <trkpt lat="40.902144" lon="-3.904968">
        <ele>1450.747</ele>
        <time>2021-07-28T18:04:43Z</time>
      </trkpt>
      <trkpt lat="40.902150" lon="-3.904942">
        <ele>1450.758</ele>
        <time>2021-07-28T18:04:45Z</time>
      </trkpt>
      <trkpt lat="40.902150" lon="-3.904907">
        <ele>1450.588</ele>
        <time>2021-07-28T18:04:48Z</time>
      </trkpt>
      <trkpt lat="40.902141" lon="-3.904885">
        <ele>1450.021</ele>
        <time>2021-07-28T18:04:50Z</time>
      </trkpt>
      <trkpt lat="40.902150" lon="-3.904853">
        <ele>1450.132</ele>
        <time>2021-07-28T18:04:53Z</time>
      </trkpt>
      <trkpt lat="40.902157" lon="-3.904825">
        <ele>1450.266</ele>
        <time>2021-07-28T18:04:55Z</time>
      </trkpt>
      <trkpt lat="40.902173" lon="-3.904798">
        <ele>1450.629</ele>
        <time>2021-07-28T18:04:58Z</time>
      </trkpt>
      <trkpt lat="40.902170" lon="-3.904745">
        <ele>1450.121</ele>
        <time>2021-07-28T18:05:00Z</time>
      </trkpt>
      <trkpt lat="40.902189" lon="-3.904712">
        <ele>1450.608</ele>
        <time>2021-07-28T18:05:04Z</time>
      </trkpt>
      <trkpt lat="40.902198" lon="-3.904680">
        <ele>1450.833</ele>
        <time>2021-07-28T18:05:05Z</time>
      </trkpt>
      <trkpt lat="40.902202" lon="-3.904638">
        <ele>1450.675</ele>
        <time>2021-07-28T18:05:07Z</time>
      </trkpt>
      <trkpt lat="40.902208" lon="-3.904612">
        <ele>1450.782</ele>
        <time>2021-07-28T18:05:09Z</time>
      </trkpt>
      <trkpt lat="40.902189" lon="-3.904602">
        <ele>1449.919</ele>
        <time>2021-07-28T18:05:10Z</time>
      </trkpt>
      <trkpt lat="40.902198" lon="-3.904572">
        <ele>1450.060</ele>
        <time>2021-07-28T18:05:16Z</time>
      </trkpt>
      <trkpt lat="40.902211" lon="-3.904554">
        <ele>1450.480</ele>
        <time>2021-07-28T18:05:17Z</time>
      </trkpt>
      <trkpt lat="40.902221" lon="-3.904532">
        <ele>1450.673</ele>
        <time>2021-07-28T18:05:18Z</time>
      </trkpt>
      <trkpt lat="40.902214" lon="-3.904505">
        <ele>1450.184</ele>
        <time>2021-07-28T18:05:20Z</time>
      </trkpt>
      <trkpt lat="40.902230" lon="-3.904477">
        <ele>1450.671</ele>
        <time>2021-07-28T18:05:23Z</time>
      </trkpt>
      <trkpt lat="40.902240" lon="-3.904453">
        <ele>1450.841</ele>
        <time>2021-07-28T18:05:27Z</time>
      </trkpt>
      <trkpt lat="40.902237" lon="-3.904422">
        <ele>1450.615</ele>
        <time>2021-07-28T18:05:29Z</time>
      </trkpt>
      <trkpt lat="40.902237" lon="-3.904396">
        <ele>1450.608</ele>
        <time>2021-07-28T18:05:30Z</time>
      </trkpt>
      <trkpt lat="40.902250" lon="-3.904370">
        <ele>1451.234</ele>
        <time>2021-07-28T18:05:32Z</time>
      </trkpt>
      <trkpt lat="40.902259" lon="-3.904348">
        <ele>1451.596</ele>
        <time>2021-07-28T18:05:36Z</time>
      </trkpt>
      <trkpt lat="40.902275" lon="-3.904330">
        <ele>1452.233</ele>
        <time>2021-07-28T18:05:38Z</time>
      </trkpt>
      <trkpt lat="40.902291" lon="-3.904310">
        <ele>1452.960</ele>
        <time>2021-07-28T18:05:40Z</time>
      </trkpt>
      <trkpt lat="40.902310" lon="-3.904280">
        <ele>1453.681</ele>
        <time>2021-07-28T18:05:43Z</time>
      </trkpt>
      <trkpt lat="40.902323" lon="-3.904256">
        <ele>1454.181</ele>
        <time>2021-07-28T18:05:45Z</time>
      </trkpt>
      <trkpt lat="40.902336" lon="-3.904237">
        <ele>1454.644</ele>
        <time>2021-07-28T18:05:47Z</time>
      </trkpt>
      <trkpt lat="40.902349" lon="-3.904210">
        <ele>1455.115</ele>
        <time>2021-07-28T18:05:49Z</time>
      </trkpt>
      <trkpt lat="40.902352" lon="-3.904180">
        <ele>1455.218</ele>
        <time>2021-07-28T18:05:51Z</time>
      </trkpt>
      <trkpt lat="40.902355" lon="-3.904147">
        <ele>1455.298</ele>
        <time>2021-07-28T18:05:54Z</time>
      </trkpt>
      <trkpt lat="40.902368" lon="-3.904120">
        <ele>1455.617</ele>
        <time>2021-07-28T18:05:56Z</time>
      </trkpt>
      <trkpt lat="40.902381" lon="-3.904095">
        <ele>1456.008</ele>
        <time>2021-07-28T18:05:58Z</time>
      </trkpt>
      <trkpt lat="40.902394" lon="-3.904060">
        <ele>1456.368</ele>
        <time>2021-07-28T18:06:00Z</time>
      </trkpt>
      <trkpt lat="40.902410" lon="-3.904036">
        <ele>1456.860</ele>
        <time>2021-07-28T18:06:02Z</time>
      </trkpt>
      <trkpt lat="40.902419" lon="-3.904010">
        <ele>1457.027</ele>
        <time>2021-07-28T18:06:05Z</time>
      </trkpt>
      <trkpt lat="40.902429" lon="-3.903983">
        <ele>1457.234</ele>
        <time>2021-07-28T18:06:07Z</time>
      </trkpt>
      <trkpt lat="40.902429" lon="-3.903953">
        <ele>1457.065</ele>
        <time>2021-07-28T18:06:10Z</time>
      </trkpt>
      <trkpt lat="40.902429" lon="-3.903922">
        <ele>1456.975</ele>
        <time>2021-07-28T18:06:12Z</time>
      </trkpt>
      <trkpt lat="40.902432" lon="-3.903890">
        <ele>1456.818</ele>
        <time>2021-07-28T18:06:14Z</time>
      </trkpt>
      <trkpt lat="40.902458" lon="-3.903864">
        <ele>1457.539</ele>
        <time>2021-07-28T18:06:16Z</time>
      </trkpt>
      <trkpt lat="40.902486" lon="-3.903835">
        <ele>1458.282</ele>
        <time>2021-07-28T18:06:18Z</time>
      </trkpt>
      <trkpt lat="40.902502" lon="-3.903807">
        <ele>1458.443</ele>
        <time>2021-07-28T18:06:20Z</time>
      </trkpt>
      <trkpt lat="40.902512" lon="-3.903783">
        <ele>1458.517</ele>
        <time>2021-07-28T18:06:22Z</time>
      </trkpt>
      <trkpt lat="40.902522" lon="-3.903750">
        <ele>1458.408</ele>
        <time>2021-07-28T18:06:24Z</time>
      </trkpt>
      <trkpt lat="40.902528" lon="-3.903713">
        <ele>1458.255</ele>
        <time>2021-07-28T18:06:26Z</time>
      </trkpt>
      <trkpt lat="40.902531" lon="-3.903683">
        <ele>1458.027</ele>
        <time>2021-07-28T18:06:28Z</time>
      </trkpt>
      <trkpt lat="40.902541" lon="-3.903662">
        <ele>1458.084</ele>
        <time>2021-07-28T18:06:31Z</time>
      </trkpt>
      <trkpt lat="40.902557" lon="-3.903632">
        <ele>1458.081</ele>
        <time>2021-07-28T18:06:33Z</time>
      </trkpt>
      <trkpt lat="40.902579" lon="-3.903613">
        <ele>1458.212</ele>
        <time>2021-07-28T18:06:35Z</time>
      </trkpt>
      <trkpt lat="40.902592" lon="-3.903588">
        <ele>1458.082</ele>
        <time>2021-07-28T18:06:37Z</time>
      </trkpt>
      <trkpt lat="40.902602" lon="-3.903565">
        <ele>1457.955</ele>
        <time>2021-07-28T18:06:40Z</time>
      </trkpt>
      <trkpt lat="40.902614" lon="-3.903545">
        <ele>1457.836</ele>
        <time>2021-07-28T18:06:42Z</time>
      </trkpt>
      <trkpt lat="40.902630" lon="-3.903522">
        <ele>1457.891</ele>
        <time>2021-07-28T18:06:45Z</time>
      </trkpt>
      <trkpt lat="40.902653" lon="-3.903497">
        <ele>1457.781</ele>
        <time>2021-07-28T18:06:47Z</time>
      </trkpt>
      <trkpt lat="40.902672" lon="-3.903492">
        <ele>1457.919</ele>
        <time>2021-07-28T18:06:49Z</time>
      </trkpt>
      <trkpt lat="40.902691" lon="-3.903490">
        <ele>1458.108</ele>
        <time>2021-07-28T18:06:52Z</time>
      </trkpt>
      <trkpt lat="40.902707" lon="-3.903505">
        <ele>1458.576</ele>
        <time>2021-07-28T18:06:57Z</time>
      </trkpt>
      <trkpt lat="40.902736" lon="-3.903507">
        <ele>1459.028</ele>
        <time>2021-07-28T18:06:59Z</time>
      </trkpt>
      <trkpt lat="40.902765" lon="-3.903515">
        <ele>1459.475</ele>
        <time>2021-07-28T18:07:02Z</time>
      </trkpt>
      <trkpt lat="40.902784" lon="-3.903514">
        <ele>1459.732</ele>
        <time>2021-07-28T18:07:05Z</time>
      </trkpt>
      <trkpt lat="40.902797" lon="-3.903532">
        <ele>1460.123</ele>
        <time>2021-07-28T18:07:09Z</time>
      </trkpt>
      <trkpt lat="40.902810" lon="-3.903558">
        <ele>1460.773</ele>
        <time>2021-07-28T18:07:12Z</time>
      </trkpt>
      <trkpt lat="40.902810" lon="-3.903587">
        <ele>1461.196</ele>
        <time>2021-07-28T18:07:15Z</time>
      </trkpt>
      <trkpt lat="40.902810" lon="-3.903615">
        <ele>1461.567</ele>
        <time>2021-07-28T18:07:19Z</time>
      </trkpt>
      <trkpt lat="40.902813" lon="-3.903638">
        <ele>1461.982</ele>
        <time>2021-07-28T18:07:22Z</time>
      </trkpt>
      <trkpt lat="40.902800" lon="-3.903655">
        <ele>1462.043</ele>
        <time>2021-07-28T18:07:24Z</time>
      </trkpt>
      <trkpt lat="40.902790" lon="-3.903678">
        <ele>1462.117</ele>
        <time>2021-07-28T18:07:26Z</time>
      </trkpt>
      <trkpt lat="40.902794" lon="-3.903705">
        <ele>1462.608</ele>
        <time>2021-07-28T18:07:28Z</time>
      </trkpt>
      <trkpt lat="40.902810" lon="-3.903733">
        <ele>1463.215</ele>
        <time>2021-07-28T18:07:30Z</time>
      </trkpt>
      <trkpt lat="40.902806" lon="-3.903763">
        <ele>1463.637</ele>
        <time>2021-07-28T18:07:33Z</time>
      </trkpt>
      <trkpt lat="40.902810" lon="-3.903790">
        <ele>1464.054</ele>
        <time>2021-07-28T18:07:35Z</time>
      </trkpt>
      <trkpt lat="40.902806" lon="-3.903818">
        <ele>1464.421</ele>
        <time>2021-07-28T18:07:37Z</time>
      </trkpt>
      <trkpt lat="40.902800" lon="-3.903842">
        <ele>1464.652</ele>
        <time>2021-07-28T18:07:39Z</time>
      </trkpt>
      <trkpt lat="40.902806" lon="-3.903877">
        <ele>1465.232</ele>
        <time>2021-07-28T18:07:42Z</time>
      </trkpt>
      <trkpt lat="40.902790" lon="-3.903903">
        <ele>1465.315</ele>
        <time>2021-07-28T18:07:44Z</time>
      </trkpt>
      <trkpt lat="40.902787" lon="-3.903928">
        <ele>1465.686</ele>
        <time>2021-07-28T18:07:46Z</time>
      </trkpt>
      <trkpt lat="40.902784" lon="-3.903960">
        <ele>1465.986</ele>
        <time>2021-07-28T18:07:49Z</time>
      </trkpt>
      <trkpt lat="40.902774" lon="-3.903988">
        <ele>1466.060</ele>
        <time>2021-07-28T18:07:53Z</time>
      </trkpt>
      <trkpt lat="40.902765" lon="-3.904013">
        <ele>1466.026</ele>
        <time>2021-07-28T18:07:56Z</time>
      </trkpt>
      <trkpt lat="40.902768" lon="-3.904043">
        <ele>1466.408</ele>
        <time>2021-07-28T18:08:00Z</time>
      </trkpt>
      <trkpt lat="40.902768" lon="-3.904075">
        <ele>1466.815</ele>
        <time>2021-07-28T18:08:02Z</time>
      </trkpt>
      <trkpt lat="40.902758" lon="-3.904100">
        <ele>1466.867</ele>
        <time>2021-07-28T18:08:04Z</time>
      </trkpt>
      <trkpt lat="40.902746" lon="-3.904137">
        <ele>1466.974</ele>
        <time>2021-07-28T18:08:06Z</time>
      </trkpt>
      <trkpt lat="40.902736" lon="-3.904158">
        <ele>1466.981</ele>
        <time>2021-07-28T18:08:07Z</time>
      </trkpt>
      <trkpt lat="40.902736" lon="-3.904197">
        <ele>1467.172</ele>
        <time>2021-07-28T18:08:09Z</time>
      </trkpt>
      <trkpt lat="40.902730" lon="-3.904228">
        <ele>1467.232</ele>
        <time>2021-07-28T18:08:11Z</time>
      </trkpt>
      <trkpt lat="40.902733" lon="-3.904263">
        <ele>1467.525</ele>
        <time>2021-07-28T18:08:13Z</time>
      </trkpt>
      <trkpt lat="40.902720" lon="-3.904292">
        <ele>1467.496</ele>
        <time>2021-07-28T18:08:16Z</time>
      </trkpt>
      <trkpt lat="40.902730" lon="-3.904322">
        <ele>1467.834</ele>
        <time>2021-07-28T18:08:19Z</time>
      </trkpt>
      <trkpt lat="40.902736" lon="-3.904345">
        <ele>1468.155</ele>
        <time>2021-07-28T18:08:21Z</time>
      </trkpt>
      <trkpt lat="40.902746" lon="-3.904380">
        <ele>1468.610</ele>
        <time>2021-07-28T18:08:23Z</time>
      </trkpt>
      <trkpt lat="40.902746" lon="-3.904410">
        <ele>1468.908</ele>
        <time>2021-07-28T18:08:25Z</time>
      </trkpt>
      <trkpt lat="40.902752" lon="-3.904443">
        <ele>1469.290</ele>
        <time>2021-07-28T18:08:27Z</time>
      </trkpt>
      <trkpt lat="40.902765" lon="-3.904472">
        <ele>1469.982</ele>
        <time>2021-07-28T18:08:29Z</time>
      </trkpt>
      <trkpt lat="40.902778" lon="-3.904490">
        <ele>1470.569</ele>
        <time>2021-07-28T18:08:31Z</time>
      </trkpt>
      <trkpt lat="40.902784" lon="-3.904513">
        <ele>1470.946</ele>
        <time>2021-07-28T18:08:33Z</time>
      </trkpt>
      <trkpt lat="40.902790" lon="-3.904550">
        <ele>1471.457</ele>
        <time>2021-07-28T18:08:36Z</time>
      </trkpt>
      <trkpt lat="40.902800" lon="-3.904584">
        <ele>1472.047</ele>
        <time>2021-07-28T18:08:38Z</time>
      </trkpt>
      <trkpt lat="40.902806" lon="-3.904613">
        <ele>1472.410</ele>
        <time>2021-07-28T18:08:40Z</time>
      </trkpt>
      <trkpt lat="40.902800" lon="-3.904643">
        <ele>1472.621</ele>
        <time>2021-07-28T18:08:42Z</time>
      </trkpt>
      <trkpt lat="40.902794" lon="-3.904672">
        <ele>1472.829</ele>
        <time>2021-07-28T18:08:44Z</time>
      </trkpt>
      <trkpt lat="40.902790" lon="-3.904700">
        <ele>1473.000</ele>
        <time>2021-07-28T18:08:46Z</time>
      </trkpt>
      <trkpt lat="40.902787" lon="-3.904732">
        <ele>1473.320</ele>
        <time>2021-07-28T18:08:48Z</time>
      </trkpt>
      <trkpt lat="40.902790" lon="-3.904755">
        <ele>1473.508</ele>
        <time>2021-07-28T18:08:50Z</time>
      </trkpt>
      <trkpt lat="40.902794" lon="-3.904786">
        <ele>1473.859</ele>
        <time>2021-07-28T18:08:52Z</time>
      </trkpt>
      <trkpt lat="40.902794" lon="-3.904812">
        <ele>1474.011</ele>
        <time>2021-07-28T18:08:54Z</time>
      </trkpt>
      <trkpt lat="40.902800" lon="-3.904840">
        <ele>1474.458</ele>
        <time>2021-07-28T18:08:56Z</time>
      </trkpt>
      <trkpt lat="40.902810" lon="-3.904863">
        <ele>1474.825</ele>
        <time>2021-07-28T18:08:58Z</time>
      </trkpt>
      <trkpt lat="40.902826" lon="-3.904887">
        <ele>1475.436</ele>
        <time>2021-07-28T18:09:00Z</time>
      </trkpt>
      <trkpt lat="40.902816" lon="-3.904914">
        <ele>1475.446</ele>
        <time>2021-07-28T18:09:02Z</time>
      </trkpt>
      <trkpt lat="40.902816" lon="-3.904948">
        <ele>1475.729</ele>
        <time>2021-07-28T18:09:04Z</time>
      </trkpt>
      <trkpt lat="40.902819" lon="-3.904985">
        <ele>1476.170</ele>
        <time>2021-07-28T18:09:06Z</time>
      </trkpt>
      <trkpt lat="40.902816" lon="-3.905020">
        <ele>1476.379</ele>
        <time>2021-07-28T18:09:08Z</time>
      </trkpt>
      <trkpt lat="40.902826" lon="-3.905050">
        <ele>1476.905</ele>
        <time>2021-07-28T18:09:10Z</time>
      </trkpt>
      <trkpt lat="40.902829" lon="-3.905098">
        <ele>1477.525</ele>
        <time>2021-07-28T18:09:12Z</time>
      </trkpt>
      <trkpt lat="40.902826" lon="-3.905138">
        <ele>1477.808</ele>
        <time>2021-07-28T18:09:14Z</time>
      </trkpt>
      <trkpt lat="40.902813" lon="-3.905163">
        <ele>1477.784</ele>
        <time>2021-07-28T18:09:17Z</time>
      </trkpt>
      <trkpt lat="40.902816" lon="-3.905213">
        <ele>1478.356</ele>
        <time>2021-07-28T18:09:20Z</time>
      </trkpt>
      <trkpt lat="40.902816" lon="-3.905238">
        <ele>1478.633</ele>
        <time>2021-07-28T18:09:21Z</time>
      </trkpt>
      <trkpt lat="40.902816" lon="-3.905265">
        <ele>1478.880</ele>
        <time>2021-07-28T18:09:22Z</time>
      </trkpt>
      <trkpt lat="40.902832" lon="-3.905302">
        <ele>1479.631</ele>
        <time>2021-07-28T18:09:24Z</time>
      </trkpt>
      <trkpt lat="40.902816" lon="-3.905328">
        <ele>1479.371</ele>
        <time>2021-07-28T18:09:26Z</time>
      </trkpt>
      <trkpt lat="40.902797" lon="-3.905360">
        <ele>1479.134</ele>
        <time>2021-07-28T18:09:28Z</time>
      </trkpt>
      <trkpt lat="40.902778" lon="-3.905387">
        <ele>1478.895</ele>
        <time>2021-07-28T18:09:30Z</time>
      </trkpt>
      <trkpt lat="40.902774" lon="-3.905437">
        <ele>1479.096</ele>
        <time>2021-07-28T18:09:32Z</time>
      </trkpt>
      <trkpt lat="40.902778" lon="-3.905466">
        <ele>1479.431</ele>
        <time>2021-07-28T18:09:34Z</time>
      </trkpt>
      <trkpt lat="40.902787" lon="-3.905488">
        <ele>1479.824</ele>
        <time>2021-07-28T18:09:36Z</time>
      </trkpt>
      <trkpt lat="40.902790" lon="-3.905522">
        <ele>1480.108</ele>
        <time>2021-07-28T18:09:38Z</time>
      </trkpt>
      <trkpt lat="40.902787" lon="-3.905560">
        <ele>1480.386</ele>
        <time>2021-07-28T18:09:40Z</time>
      </trkpt>
      <trkpt lat="40.902765" lon="-3.905595">
        <ele>1479.548</ele>
        <time>2021-07-28T18:09:42Z</time>
      </trkpt>
      <trkpt lat="40.902774" lon="-3.905618">
        <ele>1479.915</ele>
        <time>2021-07-28T18:09:44Z</time>
      </trkpt>
      <trkpt lat="40.902784" lon="-3.905660">
        <ele>1480.282</ele>
        <time>2021-07-28T18:09:46Z</time>
      </trkpt>
      <trkpt lat="40.902778" lon="-3.905690">
        <ele>1480.043</ele>
        <time>2021-07-28T18:09:48Z</time>
      </trkpt>
      <trkpt lat="40.902800" lon="-3.905713">
        <ele>1480.883</ele>
        <time>2021-07-28T18:09:49Z</time>
      </trkpt>
      <trkpt lat="40.902813" lon="-3.905743">
        <ele>1481.326</ele>
        <time>2021-07-28T18:09:53Z</time>
      </trkpt>
      <trkpt lat="40.902816" lon="-3.905767">
        <ele>1481.497</ele>
        <time>2021-07-28T18:09:54Z</time>
      </trkpt>
      <trkpt lat="40.902813" lon="-3.905793">
        <ele>1481.328</ele>
        <time>2021-07-28T18:09:55Z</time>
      </trkpt>
      <trkpt lat="40.902813" lon="-3.905825">
        <ele>1481.489</ele>
        <time>2021-07-28T18:09:58Z</time>
      </trkpt>
      <trkpt lat="40.902806" lon="-3.905862">
        <ele>1481.517</ele>
        <time>2021-07-28T18:10:01Z</time>
      </trkpt>
      <trkpt lat="40.902797" lon="-3.905885">
        <ele>1481.508</ele>
        <time>2021-07-28T18:10:02Z</time>
      </trkpt>
      <trkpt lat="40.902794" lon="-3.905922">
        <ele>1481.919</ele>
        <time>2021-07-28T18:10:04Z</time>
      </trkpt>
      <trkpt lat="40.902787" lon="-3.905960">
        <ele>1482.251</ele>
        <time>2021-07-28T18:10:06Z</time>
      </trkpt>
      <trkpt lat="40.902778" lon="-3.905990">
        <ele>1482.368</ele>
        <time>2021-07-28T18:10:08Z</time>
      </trkpt>
      <trkpt lat="40.902765" lon="-3.906012">
        <ele>1482.145</ele>
        <time>2021-07-28T18:10:10Z</time>
      </trkpt>
      <trkpt lat="40.902768" lon="-3.906042">
        <ele>1482.686</ele>
        <time>2021-07-28T18:10:12Z</time>
      </trkpt>
      <trkpt lat="40.902765" lon="-3.906067">
        <ele>1482.926</ele>
        <time>2021-07-28T18:10:13Z</time>
      </trkpt>
      <trkpt lat="40.902758" lon="-3.906092">
        <ele>1483.039</ele>
        <time>2021-07-28T18:10:15Z</time>
      </trkpt>
      <trkpt lat="40.902749" lon="-3.906113">
        <ele>1482.990</ele>
        <time>2021-07-28T18:10:16Z</time>
      </trkpt>
      <trkpt lat="40.902755" lon="-3.906140">
        <ele>1483.363</ele>
        <time>2021-07-28T18:10:17Z</time>
      </trkpt>
      <trkpt lat="40.902765" lon="-3.906165">
        <ele>1483.944</ele>
        <time>2021-07-28T18:10:18Z</time>
      </trkpt>
      <trkpt lat="40.902755" lon="-3.906192">
        <ele>1483.718</ele>
        <time>2021-07-28T18:10:20Z</time>
      </trkpt>
      <trkpt lat="40.902752" lon="-3.906245">
        <ele>1483.908</ele>
        <time>2021-07-28T18:10:22Z</time>
      </trkpt>
      <trkpt lat="40.902739" lon="-3.906275">
        <ele>1483.653</ele>
        <time>2021-07-28T18:10:23Z</time>
      </trkpt>
      <trkpt lat="40.902746" lon="-3.906298">
        <ele>1484.185</ele>
        <time>2021-07-28T18:10:25Z</time>
      </trkpt>
      <trkpt lat="40.902749" lon="-3.906325">
        <ele>1484.462</ele>
        <time>2021-07-28T18:10:29Z</time>
      </trkpt>
      <trkpt lat="40.902736" lon="-3.906355">
        <ele>1484.179</ele>
        <time>2021-07-28T18:10:31Z</time>
      </trkpt>
      <trkpt lat="40.902720" lon="-3.906372">
        <ele>1483.680</ele>
        <time>2021-07-28T18:10:32Z</time>
      </trkpt>
      <trkpt lat="40.902733" lon="-3.906405">
        <ele>1484.240</ele>
        <time>2021-07-28T18:10:34Z</time>
      </trkpt>
      <trkpt lat="40.902730" lon="-3.906442">
        <ele>1484.063</ele>
        <time>2021-07-28T18:10:36Z</time>
      </trkpt>
      <trkpt lat="40.902717" lon="-3.906485">
        <ele>1483.334</ele>
        <time>2021-07-28T18:10:38Z</time>
      </trkpt>
      <trkpt lat="40.902701" lon="-3.906513">
        <ele>1482.651</ele>
        <time>2021-07-28T18:10:41Z</time>
      </trkpt>
      <trkpt lat="40.902698" lon="-3.906543">
        <ele>1482.401</ele>
        <time>2021-07-28T18:10:43Z</time>
      </trkpt>
      <trkpt lat="40.902701" lon="-3.906573">
        <ele>1482.511</ele>
        <time>2021-07-28T18:10:45Z</time>
      </trkpt>
      <trkpt lat="40.902701" lon="-3.906610">
        <ele>1482.408</ele>
        <time>2021-07-28T18:10:47Z</time>
      </trkpt>
      <trkpt lat="40.902694" lon="-3.906643">
        <ele>1482.032</ele>
        <time>2021-07-28T18:10:49Z</time>
      </trkpt>
      <trkpt lat="40.902701" lon="-3.906685">
        <ele>1482.254</ele>
        <time>2021-07-28T18:10:51Z</time>
      </trkpt>
      <trkpt lat="40.902707" lon="-3.906732">
        <ele>1482.581</ele>
        <time>2021-07-28T18:10:53Z</time>
      </trkpt>
      <trkpt lat="40.902688" lon="-3.906757">
        <ele>1481.858</ele>
        <time>2021-07-28T18:10:55Z</time>
      </trkpt>
      <trkpt lat="40.902691" lon="-3.906782">
        <ele>1481.919</ele>
        <time>2021-07-28T18:10:57Z</time>
      </trkpt>
      <trkpt lat="40.902698" lon="-3.906813">
        <ele>1482.159</ele>
        <time>2021-07-28T18:10:59Z</time>
      </trkpt>
      <trkpt lat="40.902698" lon="-3.906850">
        <ele>1482.162</ele>
        <time>2021-07-28T18:11:01Z</time>
      </trkpt>
      <trkpt lat="40.902701" lon="-3.906880">
        <ele>1482.273</ele>
        <time>2021-07-28T18:11:03Z</time>
      </trkpt>
      <trkpt lat="40.902717" lon="-3.906907">
        <ele>1482.873</ele>
        <time>2021-07-28T18:11:05Z</time>
      </trkpt>
      <trkpt lat="40.902726" lon="-3.906945">
        <ele>1483.185</ele>
        <time>2021-07-28T18:11:08Z</time>
      </trkpt>
      <trkpt lat="40.902726" lon="-3.906978">
        <ele>1483.013</ele>
        <time>2021-07-28T18:11:10Z</time>
      </trkpt>
      <trkpt lat="40.902739" lon="-3.907020">
        <ele>1483.408</ele>
        <time>2021-07-28T18:11:13Z</time>
      </trkpt>
      <trkpt lat="40.902749" lon="-3.907045">
        <ele>1483.684</ele>
        <time>2021-07-28T18:11:14Z</time>
      </trkpt>
      <trkpt lat="40.902765" lon="-3.907078">
        <ele>1484.176</ele>
        <time>2021-07-28T18:11:16Z</time>
      </trkpt>
      <trkpt lat="40.902774" lon="-3.907100">
        <ele>1484.343</ele>
        <time>2021-07-28T18:11:18Z</time>
      </trkpt>
      <trkpt lat="40.902774" lon="-3.907132">
        <ele>1484.240</ele>
        <time>2021-07-28T18:11:20Z</time>
      </trkpt>
      <trkpt lat="40.902778" lon="-3.907163">
        <ele>1484.261</ele>
        <time>2021-07-28T18:11:22Z</time>
      </trkpt>
      <trkpt lat="40.902790" lon="-3.907188">
        <ele>1484.751</ele>
        <time>2021-07-28T18:11:23Z</time>
      </trkpt>
      <trkpt lat="40.902800" lon="-3.907213">
        <ele>1485.094</ele>
        <time>2021-07-28T18:11:25Z</time>
      </trkpt>
      <trkpt lat="40.902806" lon="-3.907246">
        <ele>1485.195</ele>
        <time>2021-07-28T18:11:27Z</time>
      </trkpt>
      <trkpt lat="40.902794" lon="-3.907265">
        <ele>1484.667</ele>
        <time>2021-07-28T18:11:28Z</time>
      </trkpt>
      <trkpt lat="40.902790" lon="-3.907293">
        <ele>1484.381</ele>
        <time>2021-07-28T18:11:29Z</time>
      </trkpt>
      <trkpt lat="40.902787" lon="-3.907318">
        <ele>1484.119</ele>
        <time>2021-07-28T18:11:30Z</time>
      </trkpt>
      <trkpt lat="40.902790" lon="-3.907352">
        <ele>1484.108</ele>
        <time>2021-07-28T18:11:33Z</time>
      </trkpt>
      <trkpt lat="40.902800" lon="-3.907395">
        <ele>1484.483</ele>
        <time>2021-07-28T18:11:36Z</time>
      </trkpt>
      <trkpt lat="40.902810" lon="-3.907435">
        <ele>1484.765</ele>
        <time>2021-07-28T18:11:38Z</time>
      </trkpt>
      <trkpt lat="40.902813" lon="-3.907472">
        <ele>1484.782</ele>
        <time>2021-07-28T18:11:40Z</time>
      </trkpt>
      <trkpt lat="40.902806" lon="-3.907503">
        <ele>1484.329</ele>
        <time>2021-07-28T18:11:42Z</time>
      </trkpt>
      <trkpt lat="40.902816" lon="-3.907537">
        <ele>1484.940</ele>
        <time>2021-07-28T18:11:44Z</time>
      </trkpt>
      <trkpt lat="40.902829" lon="-3.907565">
        <ele>1485.610</ele>
        <time>2021-07-28T18:11:46Z</time>
      </trkpt>
      <trkpt lat="40.902835" lon="-3.907588">
        <ele>1485.923</ele>
        <time>2021-07-28T18:11:48Z</time>
      </trkpt>
      <trkpt lat="40.902838" lon="-3.907618">
        <ele>1486.284</ele>
        <time>2021-07-28T18:11:51Z</time>
      </trkpt>
      <trkpt lat="40.902851" lon="-3.907643">
        <ele>1486.829</ele>
        <time>2021-07-28T18:11:54Z</time>
      </trkpt>
      <trkpt lat="40.902864" lon="-3.907660">
        <ele>1487.400</ele>
        <time>2021-07-28T18:11:56Z</time>
      </trkpt>
      <trkpt lat="40.902874" lon="-3.907690">
        <ele>1488.020</ele>
        <time>2021-07-28T18:11:59Z</time>
      </trkpt>
      <trkpt lat="40.902893" lon="-3.907715">
        <ele>1488.808</ele>
        <time>2021-07-28T18:12:02Z</time>
      </trkpt>
      <trkpt lat="40.902906" lon="-3.907745">
        <ele>1489.579</ele>
        <time>2021-07-28T18:12:05Z</time>
      </trkpt>
      <trkpt lat="40.902912" lon="-3.907775">
        <ele>1489.881</ele>
        <time>2021-07-28T18:12:08Z</time>
      </trkpt>
      <trkpt lat="40.902918" lon="-3.907805">
        <ele>1490.188</ele>
        <time>2021-07-28T18:12:10Z</time>
      </trkpt>
      <trkpt lat="40.902928" lon="-3.907830">
        <ele>1490.625</ele>
        <time>2021-07-28T18:12:12Z</time>
      </trkpt>
      <trkpt lat="40.902938" lon="-3.907858">
        <ele>1491.046</ele>
        <time>2021-07-28T18:12:14Z</time>
      </trkpt>
      <trkpt lat="40.902947" lon="-3.907880">
        <ele>1491.566</ele>
        <time>2021-07-28T18:12:16Z</time>
      </trkpt>
      <trkpt lat="40.902954" lon="-3.907905">
        <ele>1491.869</ele>
        <time>2021-07-28T18:12:18Z</time>
      </trkpt>
      <trkpt lat="40.902957" lon="-3.907932">
        <ele>1491.940</ele>
        <time>2021-07-28T18:12:20Z</time>
      </trkpt>
      <trkpt lat="40.902957" lon="-3.907962">
        <ele>1492.098</ele>
        <time>2021-07-28T18:12:22Z</time>
      </trkpt>
      <trkpt lat="40.902966" lon="-3.907990">
        <ele>1492.415</ele>
        <time>2021-07-28T18:12:24Z</time>
      </trkpt>
      <trkpt lat="40.902982" lon="-3.908022">
        <ele>1493.126</ele>
        <time>2021-07-28T18:12:27Z</time>
      </trkpt>
      <trkpt lat="40.902992" lon="-3.908043">
        <ele>1493.508</ele>
        <time>2021-07-28T18:12:29Z</time>
      </trkpt>
      <trkpt lat="40.903008" lon="-3.908058">
        <ele>1494.186</ele>
        <time>2021-07-28T18:12:31Z</time>
      </trkpt>
      <trkpt lat="40.903018" lon="-3.908094">
        <ele>1494.748</ele>
        <time>2021-07-28T18:12:34Z</time>
      </trkpt>
      <trkpt lat="40.903034" lon="-3.908118">
        <ele>1495.455</ele>
        <time>2021-07-28T18:12:36Z</time>
      </trkpt>
      <trkpt lat="40.903043" lon="-3.908148">
        <ele>1495.812</ele>
        <time>2021-07-28T18:12:38Z</time>
      </trkpt>
      <trkpt lat="40.903050" lon="-3.908190">
        <ele>1496.313</ele>
        <time>2021-07-28T18:12:40Z</time>
      </trkpt>
      <trkpt lat="40.903050" lon="-3.908223">
        <ele>1496.453</ele>
        <time>2021-07-28T18:12:42Z</time>
      </trkpt>
      <trkpt lat="40.903053" lon="-3.908256">
        <ele>1496.676</ele>
        <time>2021-07-28T18:12:44Z</time>
      </trkpt>
      <trkpt lat="40.903053" lon="-3.908290">
        <ele>1496.737</ele>
        <time>2021-07-28T18:12:46Z</time>
      </trkpt>
      <trkpt lat="40.903053" lon="-3.908318">
        <ele>1496.844</ele>
        <time>2021-07-28T18:12:48Z</time>
      </trkpt>
      <trkpt lat="40.903043" lon="-3.908340">
        <ele>1496.505</ele>
        <time>2021-07-28T18:12:49Z</time>
      </trkpt>
      <trkpt lat="40.903050" lon="-3.908378">
        <ele>1496.915</ele>
        <time>2021-07-28T18:12:51Z</time>
      </trkpt>
      <trkpt lat="40.903050" lon="-3.908410">
        <ele>1497.108</ele>
        <time>2021-07-28T18:12:53Z</time>
      </trkpt>
      <trkpt lat="40.903053" lon="-3.908435">
        <ele>1497.351</ele>
        <time>2021-07-28T18:12:55Z</time>
      </trkpt>
      <trkpt lat="40.903053" lon="-3.908465">
        <ele>1497.483</ele>
        <time>2021-07-28T18:12:58Z</time>
      </trkpt>
      <trkpt lat="40.903062" lon="-3.908490">
        <ele>1497.870</ele>
        <time>2021-07-28T18:13:00Z</time>
      </trkpt>
      <trkpt lat="40.903053" lon="-3.908512">
        <ele>1497.557</ele>
        <time>2021-07-28T18:13:02Z</time>
      </trkpt>
      <trkpt lat="40.903053" lon="-3.908545">
        <ele>1497.758</ele>
        <time>2021-07-28T18:13:05Z</time>
      </trkpt>
      <trkpt lat="40.903066" lon="-3.908582">
        <ele>1498.328</ele>
        <time>2021-07-28T18:13:08Z</time>
      </trkpt>
      <trkpt lat="40.903072" lon="-3.908606">
        <ele>1498.681</ele>
        <time>2021-07-28T18:13:10Z</time>
      </trkpt>
      <trkpt lat="40.903078" lon="-3.908636">
        <ele>1498.962</ele>
        <time>2021-07-28T18:13:12Z</time>
      </trkpt>
      <trkpt lat="40.903088" lon="-3.908662">
        <ele>1499.412</ele>
        <time>2021-07-28T18:13:14Z</time>
      </trkpt>
      <trkpt lat="40.903091" lon="-3.908687">
        <ele>1499.532</ele>
        <time>2021-07-28T18:13:16Z</time>
      </trkpt>
      <trkpt lat="40.903085" lon="-3.908717">
        <ele>1499.405</ele>
        <time>2021-07-28T18:13:18Z</time>
      </trkpt>
      <trkpt lat="40.903078" lon="-3.908750">
        <ele>1499.308</ele>
        <time>2021-07-28T18:13:21Z</time>
      </trkpt>
      <trkpt lat="40.903085" lon="-3.908774">
        <ele>1499.618</ele>
        <time>2021-07-28T18:13:23Z</time>
      </trkpt>
      <trkpt lat="40.903088" lon="-3.908800">
        <ele>1499.820</ele>
        <time>2021-07-28T18:13:25Z</time>
      </trkpt>
      <trkpt lat="40.903098" lon="-3.908833">
        <ele>1500.377</ele>
        <time>2021-07-28T18:13:28Z</time>
      </trkpt>
      <trkpt lat="40.903107" lon="-3.908865">
        <ele>1500.814</ele>
        <time>2021-07-28T18:13:30Z</time>
      </trkpt>
      <trkpt lat="40.903110" lon="-3.908890">
        <ele>1501.015</ele>
        <time>2021-07-28T18:13:32Z</time>
      </trkpt>
      <trkpt lat="40.903098" lon="-3.908915">
        <ele>1500.685</ele>
        <time>2021-07-28T18:13:34Z</time>
      </trkpt>
      <trkpt lat="40.903091" lon="-3.908950">
        <ele>1500.518</ele>
        <time>2021-07-28T18:13:37Z</time>
      </trkpt>
      <trkpt lat="40.903098" lon="-3.908975">
        <ele>1500.869</ele>
        <time>2021-07-28T18:13:40Z</time>
      </trkpt>
      <trkpt lat="40.903107" lon="-3.909003">
        <ele>1501.273</ele>
        <time>2021-07-28T18:13:43Z</time>
      </trkpt>
      <trkpt lat="40.903110" lon="-3.909032">
        <ele>1501.485</ele>
        <time>2021-07-28T18:13:45Z</time>
      </trkpt>
      <trkpt lat="40.903114" lon="-3.909065">
        <ele>1501.613</ele>
        <time>2021-07-28T18:13:47Z</time>
      </trkpt>
      <trkpt lat="40.903114" lon="-3.909093">
        <ele>1501.708</ele>
        <time>2021-07-28T18:13:48Z</time>
      </trkpt>
      <trkpt lat="40.903117" lon="-3.909135">
        <ele>1501.914</ele>
        <time>2021-07-28T18:13:50Z</time>
      </trkpt>
      <trkpt lat="40.903123" lon="-3.909170">
        <ele>1502.276</ele>
        <time>2021-07-28T18:13:52Z</time>
      </trkpt>
      <trkpt lat="40.903123" lon="-3.909212">
        <ele>1502.283</ele>
        <time>2021-07-28T18:13:54Z</time>
      </trkpt>
      <trkpt lat="40.903117" lon="-3.909247">
        <ele>1502.160</ele>
        <time>2021-07-28T18:13:56Z</time>
      </trkpt>
      <trkpt lat="40.903126" lon="-3.909273">
        <ele>1502.451</ele>
        <time>2021-07-28T18:13:58Z</time>
      </trkpt>
      <trkpt lat="40.903130" lon="-3.909297">
        <ele>1502.591</ele>
        <time>2021-07-28T18:14:00Z</time>
      </trkpt>
      <trkpt lat="40.903133" lon="-3.909323">
        <ele>1502.714</ele>
        <time>2021-07-28T18:14:02Z</time>
      </trkpt>
      <trkpt lat="40.903136" lon="-3.909348">
        <ele>1502.855</ele>
        <time>2021-07-28T18:14:04Z</time>
      </trkpt>
      <trkpt lat="40.903146" lon="-3.909375">
        <ele>1503.225</ele>
        <time>2021-07-28T18:14:06Z</time>
      </trkpt>
      <trkpt lat="40.903152" lon="-3.909407">
        <ele>1503.426</ele>
        <time>2021-07-28T18:14:08Z</time>
      </trkpt>
      <trkpt lat="40.903155" lon="-3.909437">
        <ele>1503.608</ele>
        <time>2021-07-28T18:14:10Z</time>
      </trkpt>
      <trkpt lat="40.903165" lon="-3.909468">
        <ele>1504.108</ele>
        <time>2021-07-28T18:14:12Z</time>
      </trkpt>
      <trkpt lat="40.903174" lon="-3.909495">
        <ele>1504.629</ele>
        <time>2021-07-28T18:14:14Z</time>
      </trkpt>
      <trkpt lat="40.903178" lon="-3.909520">
        <ele>1504.931</ele>
        <time>2021-07-28T18:14:16Z</time>
      </trkpt>
      <trkpt lat="40.903184" lon="-3.909543">
        <ele>1505.238</ele>
        <time>2021-07-28T18:14:18Z</time>
      </trkpt>
      <trkpt lat="40.903187" lon="-3.909572">
        <ele>1505.585</ele>
        <time>2021-07-28T18:14:21Z</time>
      </trkpt>
      <trkpt lat="40.903187" lon="-3.909602">
        <ele>1505.686</ele>
        <time>2021-07-28T18:14:23Z</time>
      </trkpt>
      <trkpt lat="40.903187" lon="-3.909632">
        <ele>1505.866</ele>
        <time>2021-07-28T18:14:25Z</time>
      </trkpt>
      <trkpt lat="40.903190" lon="-3.909660">
        <ele>1506.059</ele>
        <time>2021-07-28T18:14:27Z</time>
      </trkpt>
      <trkpt lat="40.903190" lon="-3.909695">
        <ele>1506.220</ele>
        <time>2021-07-28T18:14:30Z</time>
      </trkpt>
      <trkpt lat="40.903203" lon="-3.909718">
        <ele>1506.758</ele>
        <time>2021-07-28T18:14:32Z</time>
      </trkpt>
      <trkpt lat="40.903206" lon="-3.909747">
        <ele>1507.052</ele>
        <time>2021-07-28T18:14:35Z</time>
      </trkpt>
      <trkpt lat="40.903206" lon="-3.909777">
        <ele>1507.217</ele>
        <time>2021-07-28T18:14:37Z</time>
      </trkpt>
      <trkpt lat="40.903210" lon="-3.909803">
        <ele>1507.508</ele>
        <time>2021-07-28T18:14:39Z</time>
      </trkpt>
      <trkpt lat="40.903213" lon="-3.909832">
        <ele>1507.842</ele>
        <time>2021-07-28T18:14:41Z</time>
      </trkpt>
      <trkpt lat="40.903216" lon="-3.909862">
        <ele>1508.064</ele>
        <time>2021-07-28T18:14:43Z</time>
      </trkpt>
      <trkpt lat="40.903229" lon="-3.909893">
        <ele>1508.671</ele>
        <time>2021-07-28T18:14:45Z</time>
      </trkpt>
      <trkpt lat="40.903245" lon="-3.909923">
        <ele>1509.228</ele>
        <time>2021-07-28T18:14:47Z</time>
      </trkpt>
      <trkpt lat="40.903267" lon="-3.909942">
        <ele>1509.969</ele>
        <time>2021-07-28T18:14:49Z</time>
      </trkpt>
      <trkpt lat="40.903286" lon="-3.909948">
        <ele>1510.419</ele>
        <time>2021-07-28T18:14:51Z</time>
      </trkpt>
      <trkpt lat="40.903306" lon="-3.909953">
        <ele>1511.092</ele>
        <time>2021-07-28T18:14:53Z</time>
      </trkpt>
      <trkpt lat="40.903328" lon="-3.909975">
        <ele>1511.723</ele>
        <time>2021-07-28T18:14:55Z</time>
      </trkpt>
      <trkpt lat="40.903344" lon="-3.910005">
        <ele>1512.376</ele>
        <time>2021-07-28T18:14:58Z</time>
      </trkpt>
      <trkpt lat="40.903360" lon="-3.910032">
        <ele>1512.990</ele>
        <time>2021-07-28T18:15:01Z</time>
      </trkpt>
      <trkpt lat="40.903366" lon="-3.910065">
        <ele>1513.219</ele>
        <time>2021-07-28T18:15:04Z</time>
      </trkpt>
      <trkpt lat="40.903373" lon="-3.910097">
        <ele>1513.608</ele>
        <time>2021-07-28T18:15:06Z</time>
      </trkpt>
      <trkpt lat="40.903382" lon="-3.910128">
        <ele>1514.094</ele>
        <time>2021-07-28T18:15:08Z</time>
      </trkpt>
      <trkpt lat="40.903389" lon="-3.910155">
        <ele>1514.326</ele>
        <time>2021-07-28T18:15:11Z</time>
      </trkpt>
      <trkpt lat="40.903405" lon="-3.910177">
        <ele>1514.833</ele>
        <time>2021-07-28T18:15:14Z</time>
      </trkpt>
      <trkpt lat="40.903427" lon="-3.910197">
        <ele>1515.360</ele>
        <time>2021-07-28T18:15:18Z</time>
      </trkpt>
      <trkpt lat="40.903450" lon="-3.910223">
        <ele>1515.971</ele>
        <time>2021-07-28T18:15:21Z</time>
      </trkpt>
      <trkpt lat="40.903459" lon="-3.910258">
        <ele>1516.291</ele>
        <time>2021-07-28T18:15:24Z</time>
      </trkpt>
      <trkpt lat="40.903469" lon="-3.910282">
        <ele>1516.554</ele>
        <time>2021-07-28T18:15:26Z</time>
      </trkpt>
      <trkpt lat="40.903453" lon="-3.910300">
        <ele>1516.255</ele>
        <time>2021-07-28T18:15:29Z</time>
      </trkpt>
      <trkpt lat="40.903440" lon="-3.910318">
        <ele>1516.014</ele>
        <time>2021-07-28T18:15:32Z</time>
      </trkpt>
      <trkpt lat="40.903443" lon="-3.910352">
        <ele>1516.154</ele>
        <time>2021-07-28T18:15:36Z</time>
      </trkpt>
      <trkpt lat="40.903434" lon="-3.910376">
        <ele>1516.009</ele>
        <time>2021-07-28T18:15:38Z</time>
      </trkpt>
      <trkpt lat="40.903430" lon="-3.910403">
        <ele>1516.008</ele>
        <time>2021-07-28T18:15:40Z</time>
      </trkpt>
      <trkpt lat="40.903424" lon="-3.910433">
        <ele>1516.058</ele>
        <time>2021-07-28T18:15:42Z</time>
      </trkpt>
      <trkpt lat="40.903424" lon="-3.910458">
        <ele>1516.170</ele>
        <time>2021-07-28T18:15:44Z</time>
      </trkpt>
      <trkpt lat="40.903411" lon="-3.910497">
        <ele>1516.037</ele>
        <time>2021-07-28T18:15:47Z</time>
      </trkpt>
      <trkpt lat="40.903405" lon="-3.910524">
        <ele>1515.944</ele>
        <time>2021-07-28T18:15:49Z</time>
      </trkpt>
      <trkpt lat="40.903402" lon="-3.910548">
        <ele>1516.085</ele>
        <time>2021-07-28T18:15:51Z</time>
      </trkpt>
      <trkpt lat="40.903408" lon="-3.910575">
        <ele>1516.225</ele>
        <time>2021-07-28T18:15:53Z</time>
      </trkpt>
      <trkpt lat="40.903411" lon="-3.910598">
        <ele>1516.418</ele>
        <time>2021-07-28T18:15:55Z</time>
      </trkpt>
      <trkpt lat="40.903411" lon="-3.910623">
        <ele>1516.579</ele>
        <time>2021-07-28T18:16:01Z</time>
      </trkpt>
      <trkpt lat="40.903408" lon="-3.910648">
        <ele>1516.726</ele>
        <time>2021-07-28T18:16:08Z</time>
      </trkpt>
      <trkpt lat="40.903402" lon="-3.910673">
        <ele>1516.747</ele>
        <time>2021-07-28T18:16:11Z</time>
      </trkpt>
      <trkpt lat="40.903392" lon="-3.910694">
        <ele>1516.711</ele>
        <time>2021-07-28T18:16:20Z</time>
      </trkpt>
      <trkpt lat="40.903389" lon="-3.910718">
        <ele>1516.908</ele>
        <time>2021-07-28T18:16:31Z</time>
      </trkpt>
      <trkpt lat="40.903373" lon="-3.910736">
        <ele>1516.819</ele>
        <time>2021-07-28T18:18:27Z</time>
      </trkpt>
      <trkpt lat="40.903386" lon="-3.910756">
        <ele>1517.131</ele>
        <time>2021-07-28T18:18:28Z</time>
      </trkpt>
      <trkpt lat="40.903402" lon="-3.910793">
        <ele>1517.518</ele>
        <time>2021-07-28T18:18:30Z</time>
      </trkpt>
      <trkpt lat="40.903411" lon="-3.910830">
        <ele>1517.845</ele>
        <time>2021-07-28T18:18:32Z</time>
      </trkpt>
      <trkpt lat="40.903424" lon="-3.910855">
        <ele>1518.086</ele>
        <time>2021-07-28T18:18:33Z</time>
      </trkpt>
      <trkpt lat="40.903424" lon="-3.910880">
        <ele>1518.156</ele>
        <time>2021-07-28T18:18:34Z</time>
      </trkpt>
      <trkpt lat="40.903430" lon="-3.910924">
        <ele>1518.399</ele>
        <time>2021-07-28T18:18:36Z</time>
      </trkpt>
      <trkpt lat="40.903443" lon="-3.910955">
        <ele>1518.420</ele>
        <time>2021-07-28T18:18:38Z</time>
      </trkpt>
      <trkpt lat="40.903450" lon="-3.910978">
        <ele>1518.629</ele>
        <time>2021-07-28T18:18:40Z</time>
      </trkpt>
      <trkpt lat="40.903459" lon="-3.911012">
        <ele>1518.700</ele>
        <time>2021-07-28T18:18:42Z</time>
      </trkpt>
      <trkpt lat="40.903466" lon="-3.911037">
        <ele>1518.820</ele>
        <time>2021-07-28T18:18:44Z</time>
      </trkpt>
      <trkpt lat="40.903466" lon="-3.911065">
        <ele>1518.908</ele>
        <time>2021-07-28T18:18:47Z</time>
      </trkpt>
      <trkpt lat="40.903466" lon="-3.911093">
        <ele>1518.939</ele>
        <time>2021-07-28T18:18:50Z</time>
      </trkpt>
      <trkpt lat="40.903475" lon="-3.911128">
        <ele>1519.131</ele>
        <time>2021-07-28T18:18:52Z</time>
      </trkpt>
      <trkpt lat="40.903469" lon="-3.911157">
        <ele>1519.218</ele>
        <time>2021-07-28T18:18:54Z</time>
      </trkpt>
      <trkpt lat="40.903462" lon="-3.911208">
        <ele>1519.525</ele>
        <time>2021-07-28T18:18:56Z</time>
      </trkpt>
      <trkpt lat="40.903466" lon="-3.911240">
        <ele>1519.716</ele>
        <time>2021-07-28T18:18:58Z</time>
      </trkpt>
      <trkpt lat="40.903466" lon="-3.911268">
        <ele>1519.896</ele>
        <time>2021-07-28T18:19:01Z</time>
      </trkpt>
      <trkpt lat="40.903462" lon="-3.911298">
        <ele>1520.049</ele>
        <time>2021-07-28T18:19:04Z</time>
      </trkpt>
      <trkpt lat="40.903466" lon="-3.911330">
        <ele>1520.220</ele>
        <time>2021-07-28T18:19:10Z</time>
      </trkpt>
      <trkpt lat="40.903475" lon="-3.911363">
        <ele>1520.475</ele>
        <time>2021-07-28T18:19:12Z</time>
      </trkpt>
      <trkpt lat="40.903485" lon="-3.911398">
        <ele>1520.628</ele>
        <time>2021-07-28T18:19:14Z</time>
      </trkpt>
      <trkpt lat="40.903482" lon="-3.911443">
        <ele>1520.720</ele>
        <time>2021-07-28T18:19:16Z</time>
      </trkpt>
      <trkpt lat="40.903475" lon="-3.911477">
        <ele>1520.808</ele>
        <time>2021-07-28T18:19:18Z</time>
      </trkpt>
      <trkpt lat="40.903485" lon="-3.911500">
        <ele>1520.984</ele>
        <time>2021-07-28T18:19:19Z</time>
      </trkpt>
      <trkpt lat="40.903485" lon="-3.911542">
        <ele>1521.136</ele>
        <time>2021-07-28T18:19:21Z</time>
      </trkpt>
      <trkpt lat="40.903485" lon="-3.911568">
        <ele>1521.273</ele>
        <time>2021-07-28T18:19:22Z</time>
      </trkpt>
      <trkpt lat="40.903475" lon="-3.911602">
        <ele>1521.320</ele>
        <time>2021-07-28T18:19:23Z</time>
      </trkpt>
      <trkpt lat="40.903472" lon="-3.911647">
        <ele>1521.461</ele>
        <time>2021-07-28T18:19:25Z</time>
      </trkpt>
      <trkpt lat="40.903469" lon="-3.911677">
        <ele>1521.541</ele>
        <time>2021-07-28T18:19:28Z</time>
      </trkpt>
      <trkpt lat="40.903466" lon="-3.911707">
        <ele>1521.664</ele>
        <time>2021-07-28T18:19:30Z</time>
      </trkpt>
      <trkpt lat="40.903488" lon="-3.911754">
        <ele>1521.985</ele>
        <time>2021-07-28T18:19:32Z</time>
      </trkpt>
      <trkpt lat="40.903491" lon="-3.911793">
        <ele>1522.027</ele>
        <time>2021-07-28T18:19:35Z</time>
      </trkpt>
      <trkpt lat="40.903475" lon="-3.911830">
        <ele>1522.168</ele>
        <time>2021-07-28T18:19:37Z</time>
      </trkpt>
      <trkpt lat="40.903466" lon="-3.911862">
        <ele>1522.214</ele>
        <time>2021-07-28T18:19:39Z</time>
      </trkpt>
      <trkpt lat="40.903462" lon="-3.911885">
        <ele>1522.208</ele>
        <time>2021-07-28T18:19:40Z</time>
      </trkpt>
      <trkpt lat="40.903450" lon="-3.911903">
        <ele>1522.399</ele>
        <time>2021-07-28T18:19:42Z</time>
      </trkpt>
      <trkpt lat="40.903462" lon="-3.911930">
        <ele>1522.411</ele>
        <time>2021-07-28T18:19:45Z</time>
      </trkpt>
      <trkpt lat="40.903466" lon="-3.911962">
        <ele>1522.678</ele>
        <time>2021-07-28T18:19:47Z</time>
      </trkpt>
      <trkpt lat="40.903469" lon="-3.912005">
        <ele>1522.885</ele>
        <time>2021-07-28T18:19:49Z</time>
      </trkpt>
      <trkpt lat="40.903466" lon="-3.912040">
        <ele>1523.076</ele>
        <time>2021-07-28T18:19:51Z</time>
      </trkpt>
      <trkpt lat="40.903462" lon="-3.912073">
        <ele>1523.176</ele>
        <time>2021-07-28T18:19:54Z</time>
      </trkpt>
      <trkpt lat="40.903466" lon="-3.912097">
        <ele>1523.389</ele>
        <time>2021-07-28T18:19:56Z</time>
      </trkpt>
      <trkpt lat="40.903469" lon="-3.912125">
        <ele>1523.510</ele>
        <time>2021-07-28T18:19:59Z</time>
      </trkpt>
      <trkpt lat="40.903459" lon="-3.912152">
        <ele>1523.532</ele>
        <time>2021-07-28T18:20:02Z</time>
      </trkpt>
      <trkpt lat="40.903443" lon="-3.912177">
        <ele>1523.692</ele>
        <time>2021-07-28T18:20:04Z</time>
      </trkpt>
      <trkpt lat="40.903453" lon="-3.912205">
        <ele>1523.811</ele>
        <time>2021-07-28T18:20:07Z</time>
      </trkpt>
      <trkpt lat="40.903453" lon="-3.912237">
        <ele>1523.908</ele>
        <time>2021-07-28T18:20:10Z</time>
      </trkpt>
      <trkpt lat="40.903450" lon="-3.912270">
        <ele>1524.190</ele>
        <time>2021-07-28T18:20:12Z</time>
      </trkpt>
      <trkpt lat="40.903450" lon="-3.912297">
        <ele>1524.322</ele>
        <time>2021-07-28T18:20:14Z</time>
      </trkpt>
      <trkpt lat="40.903462" lon="-3.912330">
        <ele>1524.559</ele>
        <time>2021-07-28T18:20:16Z</time>
      </trkpt>
      <trkpt lat="40.903459" lon="-3.912370">
        <ele>1524.766</ele>
        <time>2021-07-28T18:20:19Z</time>
      </trkpt>
      <trkpt lat="40.903453" lon="-3.912407">
        <ele>1524.937</ele>
        <time>2021-07-28T18:20:21Z</time>
      </trkpt>
      <trkpt lat="40.903459" lon="-3.912437">
        <ele>1525.117</ele>
        <time>2021-07-28T18:20:23Z</time>
      </trkpt>
      <trkpt lat="40.903459" lon="-3.912476">
        <ele>1525.340</ele>
        <time>2021-07-28T18:20:25Z</time>
      </trkpt>
      <trkpt lat="40.903450" lon="-3.912503">
        <ele>1525.411</ele>
        <time>2021-07-28T18:20:27Z</time>
      </trkpt>
      <trkpt lat="40.903443" lon="-3.912537">
        <ele>1525.515</ele>
        <time>2021-07-28T18:20:30Z</time>
      </trkpt>
      <trkpt lat="40.903446" lon="-3.912565">
        <ele>1525.665</ele>
        <time>2021-07-28T18:20:32Z</time>
      </trkpt>
      <trkpt lat="40.903446" lon="-3.912598">
        <ele>1525.811</ele>
        <time>2021-07-28T18:20:34Z</time>
      </trkpt>
      <trkpt lat="40.903440" lon="-3.912628">
        <ele>1525.808</ele>
        <time>2021-07-28T18:20:36Z</time>
      </trkpt>
      <trkpt lat="40.903450" lon="-3.912664">
        <ele>1526.088</ele>
        <time>2021-07-28T18:20:38Z</time>
      </trkpt>
      <trkpt lat="40.903462" lon="-3.912693">
        <ele>1526.230</ele>
        <time>2021-07-28T18:20:40Z</time>
      </trkpt>
      <trkpt lat="40.903475" lon="-3.912725">
        <ele>1526.317</ele>
        <time>2021-07-28T18:20:42Z</time>
      </trkpt>
      <trkpt lat="40.903494" lon="-3.912747">
        <ele>1526.564</ele>
        <time>2021-07-28T18:20:44Z</time>
      </trkpt>
      <trkpt lat="40.903504" lon="-3.912778">
        <ele>1526.655</ele>
        <time>2021-07-28T18:20:47Z</time>
      </trkpt>
      <trkpt lat="40.903501" lon="-3.912807">
        <ele>1526.855</ele>
        <time>2021-07-28T18:20:49Z</time>
      </trkpt>
      <trkpt lat="40.903491" lon="-3.912835">
        <ele>1526.948</ele>
        <time>2021-07-28T18:20:52Z</time>
      </trkpt>
      <trkpt lat="40.903504" lon="-3.912856">
        <ele>1527.179</ele>
        <time>2021-07-28T18:20:53Z</time>
      </trkpt>
      <trkpt lat="40.903514" lon="-3.912888">
        <ele>1527.374</ele>
        <time>2021-07-28T18:20:55Z</time>
      </trkpt>
      <trkpt lat="40.903530" lon="-3.912933">
        <ele>1527.756</ele>
        <time>2021-07-28T18:20:57Z</time>
      </trkpt>
      <trkpt lat="40.903530" lon="-3.912968">
        <ele>1527.921</ele>
        <time>2021-07-28T18:20:59Z</time>
      </trkpt>
      <trkpt lat="40.903530" lon="-3.913005">
        <ele>1528.108</ele>
        <time>2021-07-28T18:21:01Z</time>
      </trkpt>
      <trkpt lat="40.903539" lon="-3.913038">
        <ele>1528.474</ele>
        <time>2021-07-28T18:21:03Z</time>
      </trkpt>
      <trkpt lat="40.903542" lon="-3.913072">
        <ele>1528.616</ele>
        <time>2021-07-28T18:21:04Z</time>
      </trkpt>
      <trkpt lat="40.903539" lon="-3.913105">
        <ele>1528.753</ele>
        <time>2021-07-28T18:21:05Z</time>
      </trkpt>
      <trkpt lat="40.903542" lon="-3.913150">
        <ele>1528.820</ele>
        <time>2021-07-28T18:21:07Z</time>
      </trkpt>
      <trkpt lat="40.903546" lon="-3.913182">
        <ele>1529.021</ele>
        <time>2021-07-28T18:21:09Z</time>
      </trkpt>
      <trkpt lat="40.903558" lon="-3.913213">
        <ele>1529.271</ele>
        <time>2021-07-28T18:21:11Z</time>
      </trkpt>
      <trkpt lat="40.903558" lon="-3.913250">
        <ele>1529.354</ele>
        <time>2021-07-28T18:21:14Z</time>
      </trkpt>
      <trkpt lat="40.903549" lon="-3.913272">
        <ele>1529.345</ele>
        <time>2021-07-28T18:21:15Z</time>
      </trkpt>
      <trkpt lat="40.903558" lon="-3.913305">
        <ele>1529.588</ele>
        <time>2021-07-28T18:21:16Z</time>
      </trkpt>
      <trkpt lat="40.903568" lon="-3.913335">
        <ele>1529.724</ele>
        <time>2021-07-28T18:21:17Z</time>
      </trkpt>
      <trkpt lat="40.903565" lon="-3.913362">
        <ele>1529.926</ele>
        <time>2021-07-28T18:21:19Z</time>
      </trkpt>
      <trkpt lat="40.903565" lon="-3.913400">
        <ele>1530.108</ele>
        <time>2021-07-28T18:21:21Z</time>
      </trkpt>
      <trkpt lat="40.903571" lon="-3.913425">
        <ele>1530.325</ele>
        <time>2021-07-28T18:21:22Z</time>
      </trkpt>
      <trkpt lat="40.903584" lon="-3.913445">
        <ele>1530.687</ele>
        <time>2021-07-28T18:21:24Z</time>
      </trkpt>
      <trkpt lat="40.903571" lon="-3.913465">
        <ele>1530.614</ele>
        <time>2021-07-28T18:21:25Z</time>
      </trkpt>
      <trkpt lat="40.903562" lon="-3.913497">
        <ele>1530.721</ele>
        <time>2021-07-28T18:21:27Z</time>
      </trkpt>
      <trkpt lat="40.903565" lon="-3.913533">
        <ele>1531.022</ele>
        <time>2021-07-28T18:21:30Z</time>
      </trkpt>
      <trkpt lat="40.903565" lon="-3.913563">
        <ele>1531.262</ele>
        <time>2021-07-28T18:21:32Z</time>
      </trkpt>
      <trkpt lat="40.903565" lon="-3.913600">
        <ele>1531.485</ele>
        <time>2021-07-28T18:21:34Z</time>
      </trkpt>
      <trkpt lat="40.903568" lon="-3.913635">
        <ele>1531.716</ele>
        <time>2021-07-28T18:21:36Z</time>
      </trkpt>
      <trkpt lat="40.903574" lon="-3.913663">
        <ele>1532.066</ele>
        <time>2021-07-28T18:21:38Z</time>
      </trkpt>
      <trkpt lat="40.903568" lon="-3.913687">
        <ele>1532.129</ele>
        <time>2021-07-28T18:21:40Z</time>
      </trkpt>
      <trkpt lat="40.903552" lon="-3.913714">
        <ele>1532.121</ele>
        <time>2021-07-28T18:21:42Z</time>
      </trkpt>
      <trkpt lat="40.903533" lon="-3.913736">
        <ele>1532.108</ele>
        <time>2021-07-28T18:21:44Z</time>
      </trkpt>
      <trkpt lat="40.903530" lon="-3.913772">
        <ele>1532.353</ele>
        <time>2021-07-28T18:21:46Z</time>
      </trkpt>
      <trkpt lat="40.903520" lon="-3.913798">
        <ele>1532.415</ele>
        <time>2021-07-28T18:21:48Z</time>
      </trkpt>
      <trkpt lat="40.903514" lon="-3.913832">
        <ele>1532.562</ele>
        <time>2021-07-28T18:21:50Z</time>
      </trkpt>
      <trkpt lat="40.903514" lon="-3.913866">
        <ele>1532.869</ele>
        <time>2021-07-28T18:21:52Z</time>
      </trkpt>
      <trkpt lat="40.903501" lon="-3.913898">
        <ele>1532.930</ele>
        <time>2021-07-28T18:21:54Z</time>
      </trkpt>
      <trkpt lat="40.903494" lon="-3.913928">
        <ele>1533.040</ele>
        <time>2021-07-28T18:21:56Z</time>
      </trkpt>
      <trkpt lat="40.903488" lon="-3.913957">
        <ele>1533.213</ele>
        <time>2021-07-28T18:21:59Z</time>
      </trkpt>
      <trkpt lat="40.903482" lon="-3.913990">
        <ele>1533.384</ele>
        <time>2021-07-28T18:22:02Z</time>
      </trkpt>
      <trkpt lat="40.903469" lon="-3.914018">
        <ele>1533.434</ele>
        <time>2021-07-28T18:22:04Z</time>
      </trkpt>
      <trkpt lat="40.903459" lon="-3.914052">
        <ele>1533.555</ele>
        <time>2021-07-28T18:22:06Z</time>
      </trkpt>
      <trkpt lat="40.903466" lon="-3.914088">
        <ele>1533.910</ele>
        <time>2021-07-28T18:22:08Z</time>
      </trkpt>
      <trkpt lat="40.903459" lon="-3.914120">
        <ele>1534.008</ele>
        <time>2021-07-28T18:22:10Z</time>
      </trkpt>
      <trkpt lat="40.903446" lon="-3.914145">
        <ele>1534.110</ele>
        <time>2021-07-28T18:22:12Z</time>
      </trkpt>
      <trkpt lat="40.903450" lon="-3.914177">
        <ele>1534.312</ele>
        <time>2021-07-28T18:22:14Z</time>
      </trkpt>
      <trkpt lat="40.903443" lon="-3.914204">
        <ele>1534.389</ele>
        <time>2021-07-28T18:22:16Z</time>
      </trkpt>
      <trkpt lat="40.903424" lon="-3.914226">
        <ele>1534.386</ele>
        <time>2021-07-28T18:22:18Z</time>
      </trkpt>
      <trkpt lat="40.903424" lon="-3.914255">
        <ele>1534.437</ele>
        <time>2021-07-28T18:22:20Z</time>
      </trkpt>
      <trkpt lat="40.903427" lon="-3.914290">
        <ele>1534.647</ele>
        <time>2021-07-28T18:22:21Z</time>
      </trkpt>
      <trkpt lat="40.903424" lon="-3.914330">
        <ele>1534.890</ele>
        <time>2021-07-28T18:22:23Z</time>
      </trkpt>
      <trkpt lat="40.903411" lon="-3.914362">
        <ele>1534.911</ele>
        <time>2021-07-28T18:22:25Z</time>
      </trkpt>
      <trkpt lat="40.903411" lon="-3.914398">
        <ele>1535.013</ele>
        <time>2021-07-28T18:22:27Z</time>
      </trkpt>
      <trkpt lat="40.903424" lon="-3.914432">
        <ele>1535.343</ele>
        <time>2021-07-28T18:22:29Z</time>
      </trkpt>
      <trkpt lat="40.903421" lon="-3.914468">
        <ele>1535.507</ele>
        <time>2021-07-28T18:22:31Z</time>
      </trkpt>
      <trkpt lat="40.903408" lon="-3.914503">
        <ele>1535.608</ele>
        <time>2021-07-28T18:22:33Z</time>
      </trkpt>
      <trkpt lat="40.903389" lon="-3.914528">
        <ele>1535.758</ele>
        <time>2021-07-28T18:22:35Z</time>
      </trkpt>
      <trkpt lat="40.903386" lon="-3.914560">
        <ele>1535.980</ele>
        <time>2021-07-28T18:22:37Z</time>
      </trkpt>
      <trkpt lat="40.903373" lon="-3.914582">
        <ele>1536.197</ele>
        <time>2021-07-28T18:22:39Z</time>
      </trkpt>
      <trkpt lat="40.903360" lon="-3.914612">
        <ele>1536.254</ele>
        <time>2021-07-28T18:22:41Z</time>
      </trkpt>
      <trkpt lat="40.903331" lon="-3.914625">
        <ele>1536.395</ele>
        <time>2021-07-28T18:22:44Z</time>
      </trkpt>
      <trkpt lat="40.903309" lon="-3.914625">
        <ele>1536.365</ele>
        <time>2021-07-28T18:22:46Z</time>
      </trkpt>
      <trkpt lat="40.903286" lon="-3.914613">
        <ele>1536.178</ele>
        <time>2021-07-28T18:22:48Z</time>
      </trkpt>
      <trkpt lat="40.903254" lon="-3.914603">
        <ele>1536.059</ele>
        <time>2021-07-28T18:22:50Z</time>
      </trkpt>
      <trkpt lat="40.903235" lon="-3.914598">
        <ele>1535.996</ele>
        <time>2021-07-28T18:22:52Z</time>
      </trkpt>
      <trkpt lat="40.903216" lon="-3.914595">
        <ele>1535.931</ele>
        <time>2021-07-28T18:22:55Z</time>
      </trkpt>
      <trkpt lat="40.903187" lon="-3.914603">
        <ele>1535.924</ele>
        <time>2021-07-28T18:22:57Z</time>
      </trkpt>
      <trkpt lat="40.903155" lon="-3.914615">
        <ele>1536.008</ele>
        <time>2021-07-28T18:22:59Z</time>
      </trkpt>
      <trkpt lat="40.903133" lon="-3.914618">
        <ele>1536.066</ele>
        <time>2021-07-28T18:23:00Z</time>
      </trkpt>
      <trkpt lat="40.903110" lon="-3.914638">
        <ele>1536.298</ele>
        <time>2021-07-28T18:23:02Z</time>
      </trkpt>
      <trkpt lat="40.903088" lon="-3.914658">
        <ele>1536.395</ele>
        <time>2021-07-28T18:23:05Z</time>
      </trkpt>
      <trkpt lat="40.903072" lon="-3.914672">
        <ele>1536.582</ele>
        <time>2021-07-28T18:23:06Z</time>
      </trkpt>
      <trkpt lat="40.903053" lon="-3.914690">
        <ele>1536.623</ele>
        <time>2021-07-28T18:23:08Z</time>
      </trkpt>
      <trkpt lat="40.903050" lon="-3.914718">
        <ele>1536.963</ele>
        <time>2021-07-28T18:23:11Z</time>
      </trkpt>
      <trkpt lat="40.903034" lon="-3.914750">
        <ele>1537.176</ele>
        <time>2021-07-28T18:23:13Z</time>
      </trkpt>
      <trkpt lat="40.903018" lon="-3.914775">
        <ele>1537.247</ele>
        <time>2021-07-28T18:23:15Z</time>
      </trkpt>
      <trkpt lat="40.902992" lon="-3.914798">
        <ele>1537.348</ele>
        <time>2021-07-28T18:23:18Z</time>
      </trkpt>
      <trkpt lat="40.902970" lon="-3.914808">
        <ele>1537.261</ele>
        <time>2021-07-28T18:23:20Z</time>
      </trkpt>
      <trkpt lat="40.902944" lon="-3.914815">
        <ele>1537.117</ele>
        <time>2021-07-28T18:23:22Z</time>
      </trkpt>
      <trkpt lat="40.902918" lon="-3.914828">
        <ele>1537.008</ele>
        <time>2021-07-28T18:23:24Z</time>
      </trkpt>
      <trkpt lat="40.902893" lon="-3.914843">
        <ele>1537.141</ele>
        <time>2021-07-28T18:23:26Z</time>
      </trkpt>
      <trkpt lat="40.902874" lon="-3.914867">
        <ele>1537.353</ele>
        <time>2021-07-28T18:23:28Z</time>
      </trkpt>
      <trkpt lat="40.902858" lon="-3.914892">
        <ele>1537.620</ele>
        <time>2021-07-28T18:23:30Z</time>
      </trkpt>
      <trkpt lat="40.902845" lon="-3.914914">
        <ele>1537.837</ele>
        <time>2021-07-28T18:23:32Z</time>
      </trkpt>
      <trkpt lat="40.902826" lon="-3.914938">
        <ele>1538.188</ele>
        <time>2021-07-28T18:23:34Z</time>
      </trkpt>
      <trkpt lat="40.902800" lon="-3.914955">
        <ele>1538.388</ele>
        <time>2021-07-28T18:23:36Z</time>
      </trkpt>
      <trkpt lat="40.902794" lon="-3.914978">
        <ele>1538.761</ele>
        <time>2021-07-28T18:23:38Z</time>
      </trkpt>
      <trkpt lat="40.902778" lon="-3.914998">
        <ele>1539.092</ele>
        <time>2021-07-28T18:23:40Z</time>
      </trkpt>
      <trkpt lat="40.902765" lon="-3.915017">
        <ele>1539.228</ele>
        <time>2021-07-28T18:23:42Z</time>
      </trkpt>
      <trkpt lat="40.902739" lon="-3.915033">
        <ele>1539.189</ele>
        <time>2021-07-28T18:23:44Z</time>
      </trkpt>
      <trkpt lat="40.902726" lon="-3.915050">
        <ele>1539.317</ele>
        <time>2021-07-28T18:23:46Z</time>
      </trkpt>
      <trkpt lat="40.902714" lon="-3.915067">
        <ele>1539.508</ele>
        <time>2021-07-28T18:23:48Z</time>
      </trkpt>
      <trkpt lat="40.902694" lon="-3.915104">
        <ele>1539.979</ele>
        <time>2021-07-28T18:23:51Z</time>
      </trkpt>
      <trkpt lat="40.902685" lon="-3.915134">
        <ele>1540.431</ele>
        <time>2021-07-28T18:23:53Z</time>
      </trkpt>
      <trkpt lat="40.902669" lon="-3.915158">
        <ele>1540.678</ele>
        <time>2021-07-28T18:23:55Z</time>
      </trkpt>
      <trkpt lat="40.902653" lon="-3.915175">
        <ele>1540.725</ele>
        <time>2021-07-28T18:23:57Z</time>
      </trkpt>
      <trkpt lat="40.902640" lon="-3.915198">
        <ele>1540.956</ele>
        <time>2021-07-28T18:23:59Z</time>
      </trkpt>
      <trkpt lat="40.902618" lon="-3.915207">
        <ele>1540.716</ele>
        <time>2021-07-28T18:24:01Z</time>
      </trkpt>
      <trkpt lat="40.902595" lon="-3.915223">
        <ele>1540.799</ele>
        <time>2021-07-28T18:24:03Z</time>
      </trkpt>
      <trkpt lat="40.902579" lon="-3.915243">
        <ele>1540.890</ele>
        <time>2021-07-28T18:24:05Z</time>
      </trkpt>
      <trkpt lat="40.902560" lon="-3.915254">
        <ele>1540.686</ele>
        <time>2021-07-28T18:24:07Z</time>
      </trkpt>
      <trkpt lat="40.902541" lon="-3.915268">
        <ele>1540.660</ele>
        <time>2021-07-28T18:24:09Z</time>
      </trkpt>
      <trkpt lat="40.902522" lon="-3.915292">
        <ele>1540.826</ele>
        <time>2021-07-28T18:24:13Z</time>
      </trkpt>
      <trkpt lat="40.902512" lon="-3.915323">
        <ele>1541.308</ele>
        <time>2021-07-28T18:24:15Z</time>
      </trkpt>
      <trkpt lat="40.902499" lon="-3.915345">
        <ele>1541.775</ele>
        <time>2021-07-28T18:24:16Z</time>
      </trkpt>
      <trkpt lat="40.902486" lon="-3.915367">
        <ele>1541.937</ele>
        <time>2021-07-28T18:24:18Z</time>
      </trkpt>
      <trkpt lat="40.902477" lon="-3.915397">
        <ele>1542.464</ele>
        <time>2021-07-28T18:24:20Z</time>
      </trkpt>
      <trkpt lat="40.902474" lon="-3.915425">
        <ele>1543.021</ele>
        <time>2021-07-28T18:24:22Z</time>
      </trkpt>
      <trkpt lat="40.902461" lon="-3.915455">
        <ele>1543.482</ele>
        <time>2021-07-28T18:24:24Z</time>
      </trkpt>
      <trkpt lat="40.902448" lon="-3.915475">
        <ele>1543.532</ele>
        <time>2021-07-28T18:24:26Z</time>
      </trkpt>
      <trkpt lat="40.902438" lon="-3.915498">
        <ele>1543.855</ele>
        <time>2021-07-28T18:24:28Z</time>
      </trkpt>
      <trkpt lat="40.902422" lon="-3.915528">
        <ele>1544.196</ele>
        <time>2021-07-28T18:24:31Z</time>
      </trkpt>
      <trkpt lat="40.902422" lon="-3.915557">
        <ele>1544.855</ele>
        <time>2021-07-28T18:24:34Z</time>
      </trkpt>
      <trkpt lat="40.902419" lon="-3.915585">
        <ele>1545.507</ele>
        <time>2021-07-28T18:24:37Z</time>
      </trkpt>
      <trkpt lat="40.902403" lon="-3.915614">
        <ele>1545.917</ele>
        <time>2021-07-28T18:24:39Z</time>
      </trkpt>
      <trkpt lat="40.902390" lon="-3.915635">
        <ele>1546.208</ele>
        <time>2021-07-28T18:24:41Z</time>
      </trkpt>
      <trkpt lat="40.902378" lon="-3.915673">
        <ele>1547.062</ele>
        <time>2021-07-28T18:24:43Z</time>
      </trkpt>
      <trkpt lat="40.902368" lon="-3.915707">
        <ele>1547.864</ele>
        <time>2021-07-28T18:24:45Z</time>
      </trkpt>
      <trkpt lat="40.902368" lon="-3.915740">
        <ele>1548.841</ele>
        <time>2021-07-28T18:24:47Z</time>
      </trkpt>
      <trkpt lat="40.902355" lon="-3.915768">
        <ele>1549.458</ele>
        <time>2021-07-28T18:24:49Z</time>
      </trkpt>
      <trkpt lat="40.902358" lon="-3.915794">
        <ele>1550.219</ele>
        <time>2021-07-28T18:24:51Z</time>
      </trkpt>
      <trkpt lat="40.902355" lon="-3.915818">
        <ele>1550.969</ele>
        <time>2021-07-28T18:24:53Z</time>
      </trkpt>
      <trkpt lat="40.902352" lon="-3.915846">
        <ele>1551.752</ele>
        <time>2021-07-28T18:24:55Z</time>
      </trkpt>
      <trkpt lat="40.902330" lon="-3.915863">
        <ele>1551.793</ele>
        <time>2021-07-28T18:24:58Z</time>
      </trkpt>
      <trkpt lat="40.902317" lon="-3.915882">
        <ele>1552.042</ele>
        <time>2021-07-28T18:25:01Z</time>
      </trkpt>
      <trkpt lat="40.902310" lon="-3.915908">
        <ele>1552.722</ele>
        <time>2021-07-28T18:25:04Z</time>
      </trkpt>
      <trkpt lat="40.902288" lon="-3.915928">
        <ele>1552.914</ele>
        <time>2021-07-28T18:25:07Z</time>
      </trkpt>
      <trkpt lat="40.902272" lon="-3.915942">
        <ele>1553.108</ele>
        <time>2021-07-28T18:25:09Z</time>
      </trkpt>
      <trkpt lat="40.902259" lon="-3.915960">
        <ele>1553.531</ele>
        <time>2021-07-28T18:25:11Z</time>
      </trkpt>
      <trkpt lat="40.902243" lon="-3.915978">
        <ele>1553.993</ele>
        <time>2021-07-28T18:25:13Z</time>
      </trkpt>
      <trkpt lat="40.902230" lon="-3.915995">
        <ele>1554.320</ele>
        <time>2021-07-28T18:25:15Z</time>
      </trkpt>
      <trkpt lat="40.902214" lon="-3.916010">
        <ele>1554.517</ele>
        <time>2021-07-28T18:25:17Z</time>
      </trkpt>
      <trkpt lat="40.902198" lon="-3.916025">
        <ele>1554.658</ele>
        <time>2021-07-28T18:25:19Z</time>
      </trkpt>
      <trkpt lat="40.902179" lon="-3.916037">
        <ele>1554.688</ele>
        <time>2021-07-28T18:25:21Z</time>
      </trkpt>
      <trkpt lat="40.902163" lon="-3.916050">
        <ele>1554.641</ele>
        <time>2021-07-28T18:25:23Z</time>
      </trkpt>
      <trkpt lat="40.902141" lon="-3.916067">
        <ele>1554.752</ele>
        <time>2021-07-28T18:25:26Z</time>
      </trkpt>
      <trkpt lat="40.902122" lon="-3.916083">
        <ele>1554.911</ele>
        <time>2021-07-28T18:25:28Z</time>
      </trkpt>
      <trkpt lat="40.902102" lon="-3.916110">
        <ele>1555.421</ele>
        <time>2021-07-28T18:25:31Z</time>
      </trkpt>
      <trkpt lat="40.902083" lon="-3.916123">
        <ele>1555.303</ele>
        <time>2021-07-28T18:25:33Z</time>
      </trkpt>
      <trkpt lat="40.902061" lon="-3.916138">
        <ele>1555.308</ele>
        <time>2021-07-28T18:25:35Z</time>
      </trkpt>
      <trkpt lat="40.902045" lon="-3.916160">
        <ele>1555.698</ele>
        <time>2021-07-28T18:25:37Z</time>
      </trkpt>
      <trkpt lat="40.902022" lon="-3.916182">
        <ele>1555.810</ele>
        <time>2021-07-28T18:25:39Z</time>
      </trkpt>
      <trkpt lat="40.901997" lon="-3.916203">
        <ele>1555.957</ele>
        <time>2021-07-28T18:25:41Z</time>
      </trkpt>
      <trkpt lat="40.901984" lon="-3.916223">
        <ele>1556.374</ele>
        <time>2021-07-28T18:25:43Z</time>
      </trkpt>
      <trkpt lat="40.901965" lon="-3.916238">
        <ele>1556.515</ele>
        <time>2021-07-28T18:25:45Z</time>
      </trkpt>
      <trkpt lat="40.901939" lon="-3.916255">
        <ele>1556.675</ele>
        <time>2021-07-28T18:25:48Z</time>
      </trkpt>
      <trkpt lat="40.901920" lon="-3.916260">
        <ele>1556.418</ele>
        <time>2021-07-28T18:25:50Z</time>
      </trkpt>
      <trkpt lat="40.901894" lon="-3.916273">
        <ele>1556.389</ele>
        <time>2021-07-28T18:25:52Z</time>
      </trkpt>
      <trkpt lat="40.901872" lon="-3.916292">
        <ele>1556.674</ele>
        <time>2021-07-28T18:25:55Z</time>
      </trkpt>
      <trkpt lat="40.901853" lon="-3.916303">
        <ele>1556.656</ele>
        <time>2021-07-28T18:25:57Z</time>
      </trkpt>
      <trkpt lat="40.901837" lon="-3.916318">
        <ele>1556.821</ele>
        <time>2021-07-28T18:25:59Z</time>
      </trkpt>
      <trkpt lat="40.901818" lon="-3.916335">
        <ele>1557.008</ele>
        <time>2021-07-28T18:26:01Z</time>
      </trkpt>
      <trkpt lat="40.901802" lon="-3.916356">
        <ele>1557.494</ele>
        <time>2021-07-28T18:26:03Z</time>
      </trkpt>
      <trkpt lat="40.901786" lon="-3.916372">
        <ele>1557.616</ele>
        <time>2021-07-28T18:26:05Z</time>
      </trkpt>
      <trkpt lat="40.901763" lon="-3.916388">
        <ele>1557.783</ele>
        <time>2021-07-28T18:26:07Z</time>
      </trkpt>
      <trkpt lat="40.901744" lon="-3.916408">
        <ele>1557.960</ele>
        <time>2021-07-28T18:26:09Z</time>
      </trkpt>
      <trkpt lat="40.901725" lon="-3.916427">
        <ele>1558.151</ele>
        <time>2021-07-28T18:26:11Z</time>
      </trkpt>
      <trkpt lat="40.901706" lon="-3.916452">
        <ele>1558.541</ele>
        <time>2021-07-28T18:26:13Z</time>
      </trkpt>
      <trkpt lat="40.901693" lon="-3.916475">
        <ele>1558.944</ele>
        <time>2021-07-28T18:26:16Z</time>
      </trkpt>
      <trkpt lat="40.901674" lon="-3.916484">
        <ele>1558.945</ele>
        <time>2021-07-28T18:26:18Z</time>
      </trkpt>
      <trkpt lat="40.901645" lon="-3.916495">
        <ele>1558.854</ele>
        <time>2021-07-28T18:26:20Z</time>
      </trkpt>
      <trkpt lat="40.901626" lon="-3.916504">
        <ele>1558.856</ele>
        <time>2021-07-28T18:26:22Z</time>
      </trkpt>
      <trkpt lat="40.901600" lon="-3.916524">
        <ele>1559.011</ele>
        <time>2021-07-28T18:26:25Z</time>
      </trkpt>
      <trkpt lat="40.901581" lon="-3.916545">
        <ele>1559.408</ele>
        <time>2021-07-28T18:26:28Z</time>
      </trkpt>
      <trkpt lat="40.901565" lon="-3.916556">
        <ele>1559.682</ele>
        <time>2021-07-28T18:26:29Z</time>
      </trkpt>
      <trkpt lat="40.901546" lon="-3.916567">
        <ele>1559.724</ele>
        <time>2021-07-28T18:26:31Z</time>
      </trkpt>
      <trkpt lat="40.901523" lon="-3.916593">
        <ele>1560.251</ele>
        <time>2021-07-28T18:26:34Z</time>
      </trkpt>
      <trkpt lat="40.901504" lon="-3.916618">
        <ele>1560.728</ele>
        <time>2021-07-28T18:26:37Z</time>
      </trkpt>
      <trkpt lat="40.901485" lon="-3.916637">
        <ele>1561.179</ele>
        <time>2021-07-28T18:26:39Z</time>
      </trkpt>
      <trkpt lat="40.901466" lon="-3.916648">
        <ele>1561.269</ele>
        <time>2021-07-28T18:26:41Z</time>
      </trkpt>
      <trkpt lat="40.901443" lon="-3.916650">
        <ele>1561.122</ele>
        <time>2021-07-28T18:26:42Z</time>
      </trkpt>
      <trkpt lat="40.901424" lon="-3.916655">
        <ele>1561.083</ele>
        <time>2021-07-28T18:26:43Z</time>
      </trkpt>
      <trkpt lat="40.901402" lon="-3.916664">
        <ele>1561.118</ele>
        <time>2021-07-28T18:26:45Z</time>
      </trkpt>
      <trkpt lat="40.901382" lon="-3.916676">
        <ele>1561.298</ele>
        <time>2021-07-28T18:26:47Z</time>
      </trkpt>
      <trkpt lat="40.901363" lon="-3.916696">
        <ele>1561.617</ele>
        <time>2021-07-28T18:26:50Z</time>
      </trkpt>
      <trkpt lat="40.901341" lon="-3.916703">
        <ele>1561.508</ele>
        <time>2021-07-28T18:26:52Z</time>
      </trkpt>
      <trkpt lat="40.901315" lon="-3.916703">
        <ele>1561.138</ele>
        <time>2021-07-28T18:26:54Z</time>
      </trkpt>
      <trkpt lat="40.901302" lon="-3.916725">
        <ele>1561.740</ele>
        <time>2021-07-28T18:26:56Z</time>
      </trkpt>
      <trkpt lat="40.901283" lon="-3.916738">
        <ele>1561.987</ele>
        <time>2021-07-28T18:26:58Z</time>
      </trkpt>
      <trkpt lat="40.901267" lon="-3.916765">
        <ele>1562.694</ele>
        <time>2021-07-28T18:27:00Z</time>
      </trkpt>
      <trkpt lat="40.901245" lon="-3.916787">
        <ele>1563.125</ele>
        <time>2021-07-28T18:27:02Z</time>
      </trkpt>
      <trkpt lat="40.901235" lon="-3.916827">
        <ele>1564.345</ele>
        <time>2021-07-28T18:27:04Z</time>
      </trkpt>
      <trkpt lat="40.901219" lon="-3.916847">
        <ele>1564.848</ele>
        <time>2021-07-28T18:27:06Z</time>
      </trkpt>
      <trkpt lat="40.901210" lon="-3.916877">
        <ele>1565.719</ele>
        <time>2021-07-28T18:27:10Z</time>
      </trkpt>
      <trkpt lat="40.901190" lon="-3.916902">
        <ele>1566.457</ele>
        <time>2021-07-28T18:27:13Z</time>
      </trkpt>
      <trkpt lat="40.901187" lon="-3.916927">
        <ele>1567.200</ele>
        <time>2021-07-28T18:27:15Z</time>
      </trkpt>
      <trkpt lat="40.901171" lon="-3.916948">
        <ele>1567.720</ele>
        <time>2021-07-28T18:27:18Z</time>
      </trkpt>
      <trkpt lat="40.901149" lon="-3.916952">
        <ele>1567.608</ele>
        <time>2021-07-28T18:27:20Z</time>
      </trkpt>
      <trkpt lat="40.901126" lon="-3.916963">
        <ele>1567.752</ele>
        <time>2021-07-28T18:27:23Z</time>
      </trkpt>
      <trkpt lat="40.901117" lon="-3.916985">
        <ele>1568.244</ele>
        <time>2021-07-28T18:27:25Z</time>
      </trkpt>
      <trkpt lat="40.901104" lon="-3.917003">
        <ele>1568.641</ele>
        <time>2021-07-28T18:27:27Z</time>
      </trkpt>
      <trkpt lat="40.901085" lon="-3.917014">
        <ele>1568.798</ele>
        <time>2021-07-28T18:27:29Z</time>
      </trkpt>
      <trkpt lat="40.901072" lon="-3.917035">
        <ele>1569.289</ele>
        <time>2021-07-28T18:27:31Z</time>
      </trkpt>
      <trkpt lat="40.901046" lon="-3.917052">
        <ele>1569.569</ele>
        <time>2021-07-28T18:27:34Z</time>
      </trkpt>
      <trkpt lat="40.901024" lon="-3.917066">
        <ele>1569.732</ele>
        <time>2021-07-28T18:27:36Z</time>
      </trkpt>
      <trkpt lat="40.901011" lon="-3.917090">
        <ele>1570.313</ele>
        <time>2021-07-28T18:27:39Z</time>
      </trkpt>
      <trkpt lat="40.900986" lon="-3.917118">
        <ele>1570.996</ele>
        <time>2021-07-28T18:27:41Z</time>
      </trkpt>
      <trkpt lat="40.900970" lon="-3.917132">
        <ele>1571.231</ele>
        <time>2021-07-28T18:27:43Z</time>
      </trkpt>
      <trkpt lat="40.900941" lon="-3.917128">
        <ele>1570.924</ele>
        <time>2021-07-28T18:27:45Z</time>
      </trkpt>
      <trkpt lat="40.900918" lon="-3.917138">
        <ele>1571.008</ele>
        <time>2021-07-28T18:27:47Z</time>
      </trkpt>
      <trkpt lat="40.900909" lon="-3.917162">
        <ele>1571.756</ele>
        <time>2021-07-28T18:27:49Z</time>
      </trkpt>
      <trkpt lat="40.900886" lon="-3.917175">
        <ele>1571.958</ele>
        <time>2021-07-28T18:27:51Z</time>
      </trkpt>
      <trkpt lat="40.900883" lon="-3.917202">
        <ele>1572.795</ele>
        <time>2021-07-28T18:27:53Z</time>
      </trkpt>
      <trkpt lat="40.900893" lon="-3.917225">
        <ele>1573.562</ele>
        <time>2021-07-28T18:27:54Z</time>
      </trkpt>
      <trkpt lat="40.900874" lon="-3.917244">
        <ele>1574.093</ele>
        <time>2021-07-28T18:27:57Z</time>
      </trkpt>
      <trkpt lat="40.900851" lon="-3.917238">
        <ele>1573.693</ele>
        <time>2021-07-28T18:27:59Z</time>
      </trkpt>
      <trkpt lat="40.900829" lon="-3.917237">
        <ele>1573.426</ele>
        <time>2021-07-28T18:28:01Z</time>
      </trkpt>
      <trkpt lat="40.900806" lon="-3.917246">
        <ele>1573.587</ele>
        <time>2021-07-28T18:28:03Z</time>
      </trkpt>
      <trkpt lat="40.900784" lon="-3.917253">
        <ele>1573.411</ele>
        <time>2021-07-28T18:28:05Z</time>
      </trkpt>
      <trkpt lat="40.900765" lon="-3.917260">
        <ele>1573.521</ele>
        <time>2021-07-28T18:28:07Z</time>
      </trkpt>
      <trkpt lat="40.900742" lon="-3.917258">
        <ele>1573.103</ele>
        <time>2021-07-28T18:28:09Z</time>
      </trkpt>
      <trkpt lat="40.900720" lon="-3.917267">
        <ele>1573.208</ele>
        <time>2021-07-28T18:28:11Z</time>
      </trkpt>
      <trkpt lat="40.900694" lon="-3.917270">
        <ele>1573.078</ele>
        <time>2021-07-28T18:28:13Z</time>
      </trkpt>
      <trkpt lat="40.900672" lon="-3.917273">
        <ele>1572.880</ele>
        <time>2021-07-28T18:28:15Z</time>
      </trkpt>
      <trkpt lat="40.900650" lon="-3.917275">
        <ele>1572.687</ele>
        <time>2021-07-28T18:28:17Z</time>
      </trkpt>
      <trkpt lat="40.900627" lon="-3.917283">
        <ele>1572.694</ele>
        <time>2021-07-28T18:28:19Z</time>
      </trkpt>
      <trkpt lat="40.900611" lon="-3.917298">
        <ele>1572.825</ele>
        <time>2021-07-28T18:28:21Z</time>
      </trkpt>
      <trkpt lat="40.900595" lon="-3.917313">
        <ele>1573.185</ele>
        <time>2021-07-28T18:28:23Z</time>
      </trkpt>
      <trkpt lat="40.900576" lon="-3.917328">
        <ele>1573.398</ele>
        <time>2021-07-28T18:28:25Z</time>
      </trkpt>
      <trkpt lat="40.900563" lon="-3.917347">
        <ele>1573.789</ele>
        <time>2021-07-28T18:28:27Z</time>
      </trkpt>
      <trkpt lat="40.900544" lon="-3.917357">
        <ele>1573.764</ele>
        <time>2021-07-28T18:28:29Z</time>
      </trkpt>
      <trkpt lat="40.900522" lon="-3.917375">
        <ele>1573.906</ele>
        <time>2021-07-28T18:28:31Z</time>
      </trkpt>
      <trkpt lat="40.900496" lon="-3.917403">
        <ele>1574.316</ele>
        <time>2021-07-28T18:28:33Z</time>
      </trkpt>
      <trkpt lat="40.900483" lon="-3.917436">
        <ele>1575.108</ele>
        <time>2021-07-28T18:28:35Z</time>
      </trkpt>
      <trkpt lat="40.900461" lon="-3.917455">
        <ele>1575.383</ele>
        <time>2021-07-28T18:28:37Z</time>
      </trkpt>
      <trkpt lat="40.900435" lon="-3.917477">
        <ele>1575.665</ele>
        <time>2021-07-28T18:28:39Z</time>
      </trkpt>
      <trkpt lat="40.900394" lon="-3.917482">
        <ele>1575.222</ele>
        <time>2021-07-28T18:28:41Z</time>
      </trkpt>
      <trkpt lat="40.900387" lon="-3.917507">
        <ele>1575.829</ele>
        <time>2021-07-28T18:28:43Z</time>
      </trkpt>
      <trkpt lat="40.900384" lon="-3.917548">
        <ele>1576.850</ele>
        <time>2021-07-28T18:28:45Z</time>
      </trkpt>
      <trkpt lat="40.900378" lon="-3.917578">
        <ele>1577.530</ele>
        <time>2021-07-28T18:28:47Z</time>
      </trkpt>
      <trkpt lat="40.900352" lon="-3.917592">
        <ele>1577.533</ele>
        <time>2021-07-28T18:28:49Z</time>
      </trkpt>
      <trkpt lat="40.900323" lon="-3.917605">
        <ele>1577.444</ele>
        <time>2021-07-28T18:28:51Z</time>
      </trkpt>
      <trkpt lat="40.900291" lon="-3.917615">
        <ele>1577.111</ele>
        <time>2021-07-28T18:28:53Z</time>
      </trkpt>
      <trkpt lat="40.900275" lon="-3.917635">
        <ele>1577.421</ele>
        <time>2021-07-28T18:28:55Z</time>
      </trkpt>
      <trkpt lat="40.900266" lon="-3.917658">
        <ele>1577.803</ele>
        <time>2021-07-28T18:28:57Z</time>
      </trkpt>
      <trkpt lat="40.900262" lon="-3.917683">
        <ele>1578.408</ele>
        <time>2021-07-28T18:28:59Z</time>
      </trkpt>
      <trkpt lat="40.900253" lon="-3.917712">
        <ele>1579.088</ele>
        <time>2021-07-28T18:29:01Z</time>
      </trkpt>
      <trkpt lat="40.900237" lon="-3.917728">
        <ele>1579.250</ele>
        <time>2021-07-28T18:29:03Z</time>
      </trkpt>
      <trkpt lat="40.900224" lon="-3.917756">
        <ele>1579.727</ele>
        <time>2021-07-28T18:29:06Z</time>
      </trkpt>
      <trkpt lat="40.900208" lon="-3.917786">
        <ele>1580.264</ele>
        <time>2021-07-28T18:29:08Z</time>
      </trkpt>
      <trkpt lat="40.900189" lon="-3.917800">
        <ele>1580.435</ele>
        <time>2021-07-28T18:29:10Z</time>
      </trkpt>
      <trkpt lat="40.900176" lon="-3.917820">
        <ele>1580.825</ele>
        <time>2021-07-28T18:29:12Z</time>
      </trkpt>
      <trkpt lat="40.900163" lon="-3.917845">
        <ele>1581.398</ele>
        <time>2021-07-28T18:29:15Z</time>
      </trkpt>
      <trkpt lat="40.900150" lon="-3.917870">
        <ele>1581.869</ele>
        <time>2021-07-28T18:29:18Z</time>
      </trkpt>
      <trkpt lat="40.900134" lon="-3.917885">
        <ele>1582.059</ele>
        <time>2021-07-28T18:29:20Z</time>
      </trkpt>
      <trkpt lat="40.900115" lon="-3.917914">
        <ele>1582.603</ele>
        <time>2021-07-28T18:29:23Z</time>
      </trkpt>
      <trkpt lat="40.900099" lon="-3.917940">
        <ele>1583.123</ele>
        <time>2021-07-28T18:29:26Z</time>
      </trkpt>
      <trkpt lat="40.900086" lon="-3.917972">
        <ele>1583.808</ele>
        <time>2021-07-28T18:29:29Z</time>
      </trkpt>
      <trkpt lat="40.900070" lon="-3.917987">
        <ele>1584.082</ele>
        <time>2021-07-28T18:29:31Z</time>
      </trkpt>
      <trkpt lat="40.900054" lon="-3.918000">
        <ele>1584.234</ele>
        <time>2021-07-28T18:29:33Z</time>
      </trkpt>
      <trkpt lat="40.900038" lon="-3.918020">
        <ele>1584.581</ele>
        <time>2021-07-28T18:29:35Z</time>
      </trkpt>
      <trkpt lat="40.900029" lon="-3.918047">
        <ele>1585.268</ele>
        <time>2021-07-28T18:29:37Z</time>
      </trkpt>
      <trkpt lat="40.900016" lon="-3.918070">
        <ele>1585.679</ele>
        <time>2021-07-28T18:29:39Z</time>
      </trkpt>
      <trkpt lat="40.899994" lon="-3.918085">
        <ele>1585.789</ele>
        <time>2021-07-28T18:29:41Z</time>
      </trkpt>
      <trkpt lat="40.899971" lon="-3.918108">
        <ele>1586.052</ele>
        <time>2021-07-28T18:29:43Z</time>
      </trkpt>
      <trkpt lat="40.899955" lon="-3.918122">
        <ele>1586.333</ele>
        <time>2021-07-28T18:29:44Z</time>
      </trkpt>
      <trkpt lat="40.899936" lon="-3.918142">
        <ele>1586.643</ele>
        <time>2021-07-28T18:29:46Z</time>
      </trkpt>
      <trkpt lat="40.899926" lon="-3.918175">
        <ele>1587.464</ele>
        <time>2021-07-28T18:29:49Z</time>
      </trkpt>
      <trkpt lat="40.899910" lon="-3.918195">
        <ele>1587.910</ele>
        <time>2021-07-28T18:29:52Z</time>
      </trkpt>
      <trkpt lat="40.899891" lon="-3.918197">
        <ele>1587.808</ele>
        <time>2021-07-28T18:29:54Z</time>
      </trkpt>
      <trkpt lat="40.899866" lon="-3.918193">
        <ele>1587.571</ele>
        <time>2021-07-28T18:29:57Z</time>
      </trkpt>
      <trkpt lat="40.899837" lon="-3.918190">
        <ele>1587.273</ele>
        <time>2021-07-28T18:29:59Z</time>
      </trkpt>
      <trkpt lat="40.899814" lon="-3.918188">
        <ele>1587.070</ele>
        <time>2021-07-28T18:30:02Z</time>
      </trkpt>
      <trkpt lat="40.899792" lon="-3.918198">
        <ele>1587.117</ele>
        <time>2021-07-28T18:30:05Z</time>
      </trkpt>
      <trkpt lat="40.899770" lon="-3.918212">
        <ele>1587.448</ele>
        <time>2021-07-28T18:30:07Z</time>
      </trkpt>
      <trkpt lat="40.899750" lon="-3.918230">
        <ele>1587.828</ele>
        <time>2021-07-28T18:30:10Z</time>
      </trkpt>
      <trkpt lat="40.899734" lon="-3.918247">
        <ele>1588.391</ele>
        <time>2021-07-28T18:30:12Z</time>
      </trkpt>
      <trkpt lat="40.899712" lon="-3.918257">
        <ele>1588.562</ele>
        <time>2021-07-28T18:30:14Z</time>
      </trkpt>
      <trkpt lat="40.899686" lon="-3.918267">
        <ele>1588.857</ele>
        <time>2021-07-28T18:30:16Z</time>
      </trkpt>
      <trkpt lat="40.899670" lon="-3.918285">
        <ele>1589.300</ele>
        <time>2021-07-28T18:30:18Z</time>
      </trkpt>
      <trkpt lat="40.899648" lon="-3.918305">
        <ele>1589.820</ele>
        <time>2021-07-28T18:30:20Z</time>
      </trkpt>
      <trkpt lat="40.899629" lon="-3.918325">
        <ele>1590.408</ele>
        <time>2021-07-28T18:30:22Z</time>
      </trkpt>
      <trkpt lat="40.899610" lon="-3.918345">
        <ele>1590.862</ele>
        <time>2021-07-28T18:30:24Z</time>
      </trkpt>
      <trkpt lat="40.899590" lon="-3.918365">
        <ele>1591.234</ele>
        <time>2021-07-28T18:30:26Z</time>
      </trkpt>
      <trkpt lat="40.899571" lon="-3.918382">
        <ele>1591.541</ele>
        <time>2021-07-28T18:30:28Z</time>
      </trkpt>
      <trkpt lat="40.899552" lon="-3.918400">
        <ele>1591.868</ele>
        <time>2021-07-28T18:30:30Z</time>
      </trkpt>
      <trkpt lat="40.899530" lon="-3.918414">
        <ele>1592.049</ele>
        <time>2021-07-28T18:30:32Z</time>
      </trkpt>
      <trkpt lat="40.899510" lon="-3.918425">
        <ele>1592.299</ele>
        <time>2021-07-28T18:30:34Z</time>
      </trkpt>
      <trkpt lat="40.899494" lon="-3.918438">
        <ele>1592.492</ele>
        <time>2021-07-28T18:30:36Z</time>
      </trkpt>
      <trkpt lat="40.899488" lon="-3.918465">
        <ele>1593.043</ele>
        <time>2021-07-28T18:30:39Z</time>
      </trkpt>
      <trkpt lat="40.899472" lon="-3.918478">
        <ele>1593.282</ele>
        <time>2021-07-28T18:30:41Z</time>
      </trkpt>
      <trkpt lat="40.899450" lon="-3.918483">
        <ele>1593.343</ele>
        <time>2021-07-28T18:30:43Z</time>
      </trkpt>
      <trkpt lat="40.899430" lon="-3.918482">
        <ele>1593.317</ele>
        <time>2021-07-28T18:30:44Z</time>
      </trkpt>
      <trkpt lat="40.899411" lon="-3.918497">
        <ele>1593.708</ele>
        <time>2021-07-28T18:30:51Z</time>
      </trkpt>
      <trkpt lat="40.899389" lon="-3.918502">
        <ele>1593.835</ele>
        <time>2021-07-28T18:30:53Z</time>
      </trkpt>
      <trkpt lat="40.899357" lon="-3.918497">
        <ele>1593.847</ele>
        <time>2021-07-28T18:30:55Z</time>
      </trkpt>
      <trkpt lat="40.899334" lon="-3.918495">
        <ele>1593.914</ele>
        <time>2021-07-28T18:30:56Z</time>
      </trkpt>
      <trkpt lat="40.899302" lon="-3.918490">
        <ele>1593.911</ele>
        <time>2021-07-28T18:30:58Z</time>
      </trkpt>
      <trkpt lat="40.899277" lon="-3.918493">
        <ele>1594.162</ele>
        <time>2021-07-28T18:31:00Z</time>
      </trkpt>
      <trkpt lat="40.899258" lon="-3.918493">
        <ele>1594.182</ele>
        <time>2021-07-28T18:31:01Z</time>
      </trkpt>
      <trkpt lat="40.899232" lon="-3.918500">
        <ele>1594.445</ele>
        <time>2021-07-28T18:31:03Z</time>
      </trkpt>
      <trkpt lat="40.899200" lon="-3.918500">
        <ele>1594.566</ele>
        <time>2021-07-28T18:31:05Z</time>
      </trkpt>
      <trkpt lat="40.899171" lon="-3.918502">
        <ele>1594.693</ele>
        <time>2021-07-28T18:31:07Z</time>
      </trkpt>
      <trkpt lat="40.899142" lon="-3.918502">
        <ele>1594.665</ele>
        <time>2021-07-28T18:31:09Z</time>
      </trkpt>
      <trkpt lat="40.899117" lon="-3.918508">
        <ele>1594.821</ele>
        <time>2021-07-28T18:31:12Z</time>
      </trkpt>
      <trkpt lat="40.899101" lon="-3.918523">
        <ele>1595.108</ele>
        <time>2021-07-28T18:31:14Z</time>
      </trkpt>
      <trkpt lat="40.899075" lon="-3.918538">
        <ele>1595.486</ele>
        <time>2021-07-28T18:31:16Z</time>
      </trkpt>
      <trkpt lat="40.899046" lon="-3.918550">
        <ele>1595.728</ele>
        <time>2021-07-28T18:31:18Z</time>
      </trkpt>
      <trkpt lat="40.899027" lon="-3.918563">
        <ele>1596.085</ele>
        <time>2021-07-28T18:31:20Z</time>
      </trkpt>
      <trkpt lat="40.899002" lon="-3.918583">
        <ele>1596.482</ele>
        <time>2021-07-28T18:31:23Z</time>
      </trkpt>
      <trkpt lat="40.898982" lon="-3.918592">
        <ele>1596.613</ele>
        <time>2021-07-28T18:31:25Z</time>
      </trkpt>
      <trkpt lat="40.898957" lon="-3.918590">
        <ele>1596.563</ele>
        <time>2021-07-28T18:31:27Z</time>
      </trkpt>
      <trkpt lat="40.898934" lon="-3.918604">
        <ele>1596.876</ele>
        <time>2021-07-28T18:31:29Z</time>
      </trkpt>
      <trkpt lat="40.898915" lon="-3.918618">
        <ele>1597.237</ele>
        <time>2021-07-28T18:31:31Z</time>
      </trkpt>
      <trkpt lat="40.898896" lon="-3.918634">
        <ele>1597.798</ele>
        <time>2021-07-28T18:31:33Z</time>
      </trkpt>
      <trkpt lat="40.898877" lon="-3.918653">
        <ele>1598.215</ele>
        <time>2021-07-28T18:31:36Z</time>
      </trkpt>
      <trkpt lat="40.898858" lon="-3.918672">
        <ele>1598.826</ele>
        <time>2021-07-28T18:31:38Z</time>
      </trkpt>
      <trkpt lat="40.898835" lon="-3.918692">
        <ele>1599.308</ele>
        <time>2021-07-28T18:31:40Z</time>
      </trkpt>
      <trkpt lat="40.898819" lon="-3.918712">
        <ele>1599.996</ele>
        <time>2021-07-28T18:31:42Z</time>
      </trkpt>
      <trkpt lat="40.898813" lon="-3.918743">
        <ele>1600.838</ele>
        <time>2021-07-28T18:31:44Z</time>
      </trkpt>
      <trkpt lat="40.898800" lon="-3.918772">
        <ele>1601.645</ele>
        <time>2021-07-28T18:31:46Z</time>
      </trkpt>
      <trkpt lat="40.898794" lon="-3.918795">
        <ele>1602.322</ele>
        <time>2021-07-28T18:31:48Z</time>
      </trkpt>
      <trkpt lat="40.898781" lon="-3.918813">
        <ele>1602.833</ele>
        <time>2021-07-28T18:31:50Z</time>
      </trkpt>
      <trkpt lat="40.898781" lon="-3.918853">
        <ele>1604.053</ele>
        <time>2021-07-28T18:31:52Z</time>
      </trkpt>
      <trkpt lat="40.898768" lon="-3.918873">
        <ele>1604.546</ele>
        <time>2021-07-28T18:31:54Z</time>
      </trkpt>
      <trkpt lat="40.898746" lon="-3.918887">
        <ele>1604.987</ele>
        <time>2021-07-28T18:31:56Z</time>
      </trkpt>
      <trkpt lat="40.898736" lon="-3.918910">
        <ele>1605.626</ele>
        <time>2021-07-28T18:31:58Z</time>
      </trkpt>
      <trkpt lat="40.898733" lon="-3.918942">
        <ele>1606.547</ele>
        <time>2021-07-28T18:32:00Z</time>
      </trkpt>
      <trkpt lat="40.898707" lon="-3.918955">
        <ele>1606.811</ele>
        <time>2021-07-28T18:32:02Z</time>
      </trkpt>
      <trkpt lat="40.898688" lon="-3.918974">
        <ele>1607.308</ele>
        <time>2021-07-28T18:32:04Z</time>
      </trkpt>
      <trkpt lat="40.898669" lon="-3.918984">
        <ele>1607.519</ele>
        <time>2021-07-28T18:32:06Z</time>
      </trkpt>
      <trkpt lat="40.898646" lon="-3.918987">
        <ele>1607.691</ele>
        <time>2021-07-28T18:32:08Z</time>
      </trkpt>
      <trkpt lat="40.898624" lon="-3.918992">
        <ele>1607.688</ele>
        <time>2021-07-28T18:32:10Z</time>
      </trkpt>
      <trkpt lat="40.898605" lon="-3.919000">
        <ele>1607.855</ele>
        <time>2021-07-28T18:32:12Z</time>
      </trkpt>
      <trkpt lat="40.898582" lon="-3.919010">
        <ele>1608.016</ele>
        <time>2021-07-28T18:32:15Z</time>
      </trkpt>
      <trkpt lat="40.898563" lon="-3.919015">
        <ele>1608.096</ele>
        <time>2021-07-28T18:32:17Z</time>
      </trkpt>
      <trkpt lat="40.898538" lon="-3.919016">
        <ele>1608.099</ele>
        <time>2021-07-28T18:32:19Z</time>
      </trkpt>
      <trkpt lat="40.898515" lon="-3.919018">
        <ele>1607.960</ele>
        <time>2021-07-28T18:32:21Z</time>
      </trkpt>
      <trkpt lat="40.898490" lon="-3.919023">
        <ele>1608.091</ele>
        <time>2021-07-28T18:32:23Z</time>
      </trkpt>
      <trkpt lat="40.898470" lon="-3.919030">
        <ele>1608.081</ele>
        <time>2021-07-28T18:32:25Z</time>
      </trkpt>
      <trkpt lat="40.898451" lon="-3.919032">
        <ele>1608.019</ele>
        <time>2021-07-28T18:32:27Z</time>
      </trkpt>
      <trkpt lat="40.898429" lon="-3.919047">
        <ele>1608.208</ele>
        <time>2021-07-28T18:32:29Z</time>
      </trkpt>
      <trkpt lat="40.898410" lon="-3.919060">
        <ele>1608.426</ele>
        <time>2021-07-28T18:32:31Z</time>
      </trkpt>
      <trkpt lat="40.898390" lon="-3.919078">
        <ele>1608.728</ele>
        <time>2021-07-28T18:32:33Z</time>
      </trkpt>
      <trkpt lat="40.898365" lon="-3.919103">
        <ele>1609.025</ele>
        <time>2021-07-28T18:32:36Z</time>
      </trkpt>
      <trkpt lat="40.898346" lon="-3.919128">
        <ele>1609.492</ele>
        <time>2021-07-28T18:32:38Z</time>
      </trkpt>
      <trkpt lat="40.898336" lon="-3.919150">
        <ele>1609.723</ele>
        <time>2021-07-28T18:32:40Z</time>
      </trkpt>
      <trkpt lat="40.898317" lon="-3.919168">
        <ele>1610.023</ele>
        <time>2021-07-28T18:32:42Z</time>
      </trkpt>
      <trkpt lat="40.898301" lon="-3.919186">
        <ele>1610.246</ele>
        <time>2021-07-28T18:32:44Z</time>
      </trkpt>
      <trkpt lat="40.898291" lon="-3.919213">
        <ele>1610.697</ele>
        <time>2021-07-28T18:32:46Z</time>
      </trkpt>
      <trkpt lat="40.898282" lon="-3.919237">
        <ele>1611.042</ele>
        <time>2021-07-28T18:32:48Z</time>
      </trkpt>
      <trkpt lat="40.898269" lon="-3.919263">
        <ele>1611.322</ele>
        <time>2021-07-28T18:32:50Z</time>
      </trkpt>
      <trkpt lat="40.898259" lon="-3.919288">
        <ele>1611.714</ele>
        <time>2021-07-28T18:32:52Z</time>
      </trkpt>
      <trkpt lat="40.898246" lon="-3.919314">
        <ele>1612.008</ele>
        <time>2021-07-28T18:32:54Z</time>
      </trkpt>
      <trkpt lat="40.898240" lon="-3.919345">
        <ele>1612.461</ele>
        <time>2021-07-28T18:32:57Z</time>
      </trkpt>
      <trkpt lat="40.898240" lon="-3.919375">
        <ele>1612.913</ele>
        <time>2021-07-28T18:32:59Z</time>
      </trkpt>
      <trkpt lat="40.898240" lon="-3.919407">
        <ele>1613.460</ele>
        <time>2021-07-28T18:33:02Z</time>
      </trkpt>
      <trkpt lat="40.898230" lon="-3.919433">
        <ele>1613.737</ele>
        <time>2021-07-28T18:33:05Z</time>
      </trkpt>
      <trkpt lat="40.898224" lon="-3.919457">
        <ele>1614.068</ele>
        <time>2021-07-28T18:33:07Z</time>
      </trkpt>
      <trkpt lat="40.898211" lon="-3.919480">
        <ele>1614.298</ele>
        <time>2021-07-28T18:33:09Z</time>
      </trkpt>
      <trkpt lat="40.898202" lon="-3.919518">
        <ele>1614.641</ele>
        <time>2021-07-28T18:33:12Z</time>
      </trkpt>
      <trkpt lat="40.898192" lon="-3.919540">
        <ele>1614.832</ele>
        <time>2021-07-28T18:33:14Z</time>
      </trkpt>
      <trkpt lat="40.898179" lon="-3.919563">
        <ele>1615.029</ele>
        <time>2021-07-28T18:33:16Z</time>
      </trkpt>
      <trkpt lat="40.898166" lon="-3.919580">
        <ele>1615.100</ele>
        <time>2021-07-28T18:33:18Z</time>
      </trkpt>
      <trkpt lat="40.898163" lon="-3.919610">
        <ele>1615.520</ele>
        <time>2021-07-28T18:33:21Z</time>
      </trkpt>
      <trkpt lat="40.898163" lon="-3.919638">
        <ele>1615.908</ele>
        <time>2021-07-28T18:33:23Z</time>
      </trkpt>
      <trkpt lat="40.898150" lon="-3.919665">
        <ele>1616.249</ele>
        <time>2021-07-28T18:33:25Z</time>
      </trkpt>
      <trkpt lat="40.898144" lon="-3.919692">
        <ele>1616.591</ele>
        <time>2021-07-28T18:33:27Z</time>
      </trkpt>
      <trkpt lat="40.898144" lon="-3.919716">
        <ele>1616.968</ele>
        <time>2021-07-28T18:33:29Z</time>
      </trkpt>
      <trkpt lat="40.898147" lon="-3.919748">
        <ele>1617.395</ele>
        <time>2021-07-28T18:33:31Z</time>
      </trkpt>
      <trkpt lat="40.898147" lon="-3.919773">
        <ele>1617.646</ele>
        <time>2021-07-28T18:33:33Z</time>
      </trkpt>
      <trkpt lat="40.898144" lon="-3.919800">
        <ele>1617.966</ele>
        <time>2021-07-28T18:33:35Z</time>
      </trkpt>
      <trkpt lat="40.898141" lon="-3.919835">
        <ele>1618.319</ele>
        <time>2021-07-28T18:33:38Z</time>
      </trkpt>
      <trkpt lat="40.898144" lon="-3.919865">
        <ele>1618.750</ele>
        <time>2021-07-28T18:33:40Z</time>
      </trkpt>
      <trkpt lat="40.898144" lon="-3.919890">
        <ele>1619.039</ele>
        <time>2021-07-28T18:33:42Z</time>
      </trkpt>
      <trkpt lat="40.898141" lon="-3.919915">
        <ele>1619.201</ele>
        <time>2021-07-28T18:33:44Z</time>
      </trkpt>
      <trkpt lat="40.898138" lon="-3.919938">
        <ele>1619.521</ele>
        <time>2021-07-28T18:33:46Z</time>
      </trkpt>
      <trkpt lat="40.898128" lon="-3.919962">
        <ele>1619.608</ele>
        <time>2021-07-28T18:33:48Z</time>
      </trkpt>
      <trkpt lat="40.898122" lon="-3.919985">
        <ele>1619.820</ele>
        <time>2021-07-28T18:33:50Z</time>
      </trkpt>
      <trkpt lat="40.898109" lon="-3.920014">
        <ele>1619.982</ele>
        <time>2021-07-28T18:33:52Z</time>
      </trkpt>
      <trkpt lat="40.898102" lon="-3.920044">
        <ele>1620.249</ele>
        <time>2021-07-28T18:33:55Z</time>
      </trkpt>
      <trkpt lat="40.898099" lon="-3.920068">
        <ele>1620.466</ele>
        <time>2021-07-28T18:33:57Z</time>
      </trkpt>
      <trkpt lat="40.898099" lon="-3.920093">
        <ele>1620.737</ele>
        <time>2021-07-28T18:33:59Z</time>
      </trkpt>
      <trkpt lat="40.898099" lon="-3.920120">
        <ele>1621.187</ele>
        <time>2021-07-28T18:34:01Z</time>
      </trkpt>
      <trkpt lat="40.898093" lon="-3.920148">
        <ele>1621.350</ele>
        <time>2021-07-28T18:34:04Z</time>
      </trkpt>
      <trkpt lat="40.898086" lon="-3.920174">
        <ele>1621.581</ele>
        <time>2021-07-28T18:34:06Z</time>
      </trkpt>
      <trkpt lat="40.898080" lon="-3.920200">
        <ele>1621.674</ele>
        <time>2021-07-28T18:34:08Z</time>
      </trkpt>
      <trkpt lat="40.898080" lon="-3.920235">
        <ele>1622.056</ele>
        <time>2021-07-28T18:34:10Z</time>
      </trkpt>
      <trkpt lat="40.898080" lon="-3.920265">
        <ele>1622.421</ele>
        <time>2021-07-28T18:34:13Z</time>
      </trkpt>
      <trkpt lat="40.898074" lon="-3.920288">
        <ele>1622.508</ele>
        <time>2021-07-28T18:34:15Z</time>
      </trkpt>
      <trkpt lat="40.898064" lon="-3.920318">
        <ele>1622.864</ele>
        <time>2021-07-28T18:34:18Z</time>
      </trkpt>
      <trkpt lat="40.898058" lon="-3.920345">
        <ele>1623.026</ele>
        <time>2021-07-28T18:34:20Z</time>
      </trkpt>
      <trkpt lat="40.898048" lon="-3.920372">
        <ele>1623.243</ele>
        <time>2021-07-28T18:34:22Z</time>
      </trkpt>
      <trkpt lat="40.898045" lon="-3.920405">
        <ele>1623.650</ele>
        <time>2021-07-28T18:34:25Z</time>
      </trkpt>
      <trkpt lat="40.898042" lon="-3.920430">
        <ele>1623.961</ele>
        <time>2021-07-28T18:34:27Z</time>
      </trkpt>
      <trkpt lat="40.898038" lon="-3.920460">
        <ele>1624.291</ele>
        <time>2021-07-28T18:34:29Z</time>
      </trkpt>
      <trkpt lat="40.898032" lon="-3.920490">
        <ele>1624.544</ele>
        <time>2021-07-28T18:34:31Z</time>
      </trkpt>
      <trkpt lat="40.898032" lon="-3.920518">
        <ele>1624.975</ele>
        <time>2021-07-28T18:34:33Z</time>
      </trkpt>
      <trkpt lat="40.898038" lon="-3.920542">
        <ele>1625.434</ele>
        <time>2021-07-28T18:34:35Z</time>
      </trkpt>
      <trkpt lat="40.898032" lon="-3.920582">
        <ele>1625.855</ele>
        <time>2021-07-28T18:34:38Z</time>
      </trkpt>
      <trkpt lat="40.898022" lon="-3.920612">
        <ele>1626.010</ele>
        <time>2021-07-28T18:34:41Z</time>
      </trkpt>
      <trkpt lat="40.898022" lon="-3.920642">
        <ele>1626.408</ele>
        <time>2021-07-28T18:34:43Z</time>
      </trkpt>
      <trkpt lat="40.898019" lon="-3.920665">
        <ele>1626.710</ele>
        <time>2021-07-28T18:34:45Z</time>
      </trkpt>
      <trkpt lat="40.898010" lon="-3.920688">
        <ele>1626.872</ele>
        <time>2021-07-28T18:34:47Z</time>
      </trkpt>
      <trkpt lat="40.898003" lon="-3.920714">
        <ele>1627.029</ele>
        <time>2021-07-28T18:34:49Z</time>
      </trkpt>
      <trkpt lat="40.898003" lon="-3.920738">
        <ele>1627.376</ele>
        <time>2021-07-28T18:34:51Z</time>
      </trkpt>
      <trkpt lat="40.897994" lon="-3.920763">
        <ele>1627.437</ele>
        <time>2021-07-28T18:34:53Z</time>
      </trkpt>
      <trkpt lat="40.897981" lon="-3.920788">
        <ele>1627.527</ele>
        <time>2021-07-28T18:34:55Z</time>
      </trkpt>
      <trkpt lat="40.897968" lon="-3.920810">
        <ele>1627.550</ele>
        <time>2021-07-28T18:34:57Z</time>
      </trkpt>
      <trkpt lat="40.897958" lon="-3.920838">
        <ele>1627.671</ele>
        <time>2021-07-28T18:34:59Z</time>
      </trkpt>
      <trkpt lat="40.897949" lon="-3.920874">
        <ele>1627.877</ele>
        <time>2021-07-28T18:35:02Z</time>
      </trkpt>
      <trkpt lat="40.897946" lon="-3.920898">
        <ele>1628.061</ele>
        <time>2021-07-28T18:35:04Z</time>
      </trkpt>
      <trkpt lat="40.897939" lon="-3.920925">
        <ele>1628.127</ele>
        <time>2021-07-28T18:35:06Z</time>
      </trkpt>
      <trkpt lat="40.897926" lon="-3.920948">
        <ele>1628.108</ele>
        <time>2021-07-28T18:35:08Z</time>
      </trkpt>
      <trkpt lat="40.897914" lon="-3.920978">
        <ele>1628.344</ele>
        <time>2021-07-28T18:35:10Z</time>
      </trkpt>
      <trkpt lat="40.897907" lon="-3.921005">
        <ele>1628.576</ele>
        <time>2021-07-28T18:35:12Z</time>
      </trkpt>
      <trkpt lat="40.897894" lon="-3.921032">
        <ele>1628.673</ele>
        <time>2021-07-28T18:35:14Z</time>
      </trkpt>
      <trkpt lat="40.897885" lon="-3.921057">
        <ele>1628.880</ele>
        <time>2021-07-28T18:35:16Z</time>
      </trkpt>
      <trkpt lat="40.897875" lon="-3.921085">
        <ele>1629.011</ele>
        <time>2021-07-28T18:35:18Z</time>
      </trkpt>
      <trkpt lat="40.897866" lon="-3.921113">
        <ele>1629.381</ele>
        <time>2021-07-28T18:35:20Z</time>
      </trkpt>
      <trkpt lat="40.897869" lon="-3.921155">
        <ele>1629.914</ele>
        <time>2021-07-28T18:35:23Z</time>
      </trkpt>
      <trkpt lat="40.897862" lon="-3.921182">
        <ele>1630.295</ele>
        <time>2021-07-28T18:35:25Z</time>
      </trkpt>
      <trkpt lat="40.897859" lon="-3.921210">
        <ele>1630.549</ele>
        <time>2021-07-28T18:35:27Z</time>
      </trkpt>
      <trkpt lat="40.897862" lon="-3.921243">
        <ele>1631.002</ele>
        <time>2021-07-28T18:35:30Z</time>
      </trkpt>
      <trkpt lat="40.897869" lon="-3.921276">
        <ele>1631.522</ele>
        <time>2021-07-28T18:35:33Z</time>
      </trkpt>
      <trkpt lat="40.897875" lon="-3.921313">
        <ele>1632.108</ele>
        <time>2021-07-28T18:35:36Z</time>
      </trkpt>
      <trkpt lat="40.897875" lon="-3.921342">
        <ele>1632.441</ele>
        <time>2021-07-28T18:35:39Z</time>
      </trkpt>
      <trkpt lat="40.897882" lon="-3.921377">
        <ele>1633.053</ele>
        <time>2021-07-28T18:35:42Z</time>
      </trkpt>
      <trkpt lat="40.897885" lon="-3.921408">
        <ele>1633.490</ele>
        <time>2021-07-28T18:35:45Z</time>
      </trkpt>
      <trkpt lat="40.897885" lon="-3.921434">
        <ele>1633.687</ele>
        <time>2021-07-28T18:35:47Z</time>
      </trkpt>
      <trkpt lat="40.897875" lon="-3.921463">
        <ele>1633.818</ele>
        <time>2021-07-28T18:35:50Z</time>
      </trkpt>
      <trkpt lat="40.897872" lon="-3.921490">
        <ele>1634.178</ele>
        <time>2021-07-28T18:35:52Z</time>
      </trkpt>
      <trkpt lat="40.897862" lon="-3.921512">
        <ele>1634.221</ele>
        <time>2021-07-28T18:35:54Z</time>
      </trkpt>
      <trkpt lat="40.897850" lon="-3.921537">
        <ele>1634.442</ele>
        <time>2021-07-28T18:35:56Z</time>
      </trkpt>
      <trkpt lat="40.897840" lon="-3.921567">
        <ele>1634.634</ele>
        <time>2021-07-28T18:35:58Z</time>
      </trkpt>
      <trkpt lat="40.897824" lon="-3.921596">
        <ele>1634.755</ele>
        <time>2021-07-28T18:36:01Z</time>
      </trkpt>
      <trkpt lat="40.897811" lon="-3.921620">
        <ele>1634.910</ele>
        <time>2021-07-28T18:36:03Z</time>
      </trkpt>
      <trkpt lat="40.897802" lon="-3.921648">
        <ele>1635.108</ele>
        <time>2021-07-28T18:36:05Z</time>
      </trkpt>
      <trkpt lat="40.897789" lon="-3.921667">
        <ele>1635.140</ele>
        <time>2021-07-28T18:36:07Z</time>
      </trkpt>
      <trkpt lat="40.897776" lon="-3.921688">
        <ele>1635.232</ele>
        <time>2021-07-28T18:36:09Z</time>
      </trkpt>
      <trkpt lat="40.897760" lon="-3.921715">
        <ele>1635.279</ele>
        <time>2021-07-28T18:36:11Z</time>
      </trkpt>
      <trkpt lat="40.897744" lon="-3.921743">
        <ele>1635.316</ele>
        <time>2021-07-28T18:36:13Z</time>
      </trkpt>
      <trkpt lat="40.897731" lon="-3.921765">
        <ele>1635.337</ele>
        <time>2021-07-28T18:36:15Z</time>
      </trkpt>
      <trkpt lat="40.897722" lon="-3.921787">
        <ele>1635.567</ele>
        <time>2021-07-28T18:36:17Z</time>
      </trkpt>
      <trkpt lat="40.897712" lon="-3.921815">
        <ele>1635.740</ele>
        <time>2021-07-28T18:36:19Z</time>
      </trkpt>
      <trkpt lat="40.897706" lon="-3.921840">
        <ele>1635.991</ele>
        <time>2021-07-28T18:36:21Z</time>
      </trkpt>
      <trkpt lat="40.897706" lon="-3.921867">
        <ele>1636.232</ele>
        <time>2021-07-28T18:36:24Z</time>
      </trkpt>
      <trkpt lat="40.897712" lon="-3.921905">
        <ele>1636.892</ele>
        <time>2021-07-28T18:36:26Z</time>
      </trkpt>
      <trkpt lat="40.897722" lon="-3.921930">
        <ele>1637.211</ele>
        <time>2021-07-28T18:36:28Z</time>
      </trkpt>
      <trkpt lat="40.897734" lon="-3.921958">
        <ele>1637.808</ele>
        <time>2021-07-28T18:36:31Z</time>
      </trkpt>
      <trkpt lat="40.897754" lon="-3.921968">
        <ele>1638.260</ele>
        <time>2021-07-28T18:36:33Z</time>
      </trkpt>
      <trkpt lat="40.897773" lon="-3.921973">
        <ele>1638.612</ele>
        <time>2021-07-28T18:36:35Z</time>
      </trkpt>
      <trkpt lat="40.897792" lon="-3.921976">
        <ele>1638.979</ele>
        <time>2021-07-28T18:36:37Z</time>
      </trkpt>
      <trkpt lat="40.897824" lon="-3.921985">
        <ele>1639.696</ele>
        <time>2021-07-28T18:36:39Z</time>
      </trkpt>
      <trkpt lat="40.897843" lon="-3.921978">
        <ele>1639.777</ele>
        <time>2021-07-28T18:36:41Z</time>
      </trkpt>
      <trkpt lat="40.897862" lon="-3.921976">
        <ele>1639.917</ele>
        <time>2021-07-28T18:36:43Z</time>
      </trkpt>
      <trkpt lat="40.897885" lon="-3.921965">
        <ele>1640.010</ele>
        <time>2021-07-28T18:36:45Z</time>
      </trkpt>
      <trkpt lat="40.897904" lon="-3.921958">
        <ele>1640.111</ele>
        <time>2021-07-28T18:36:47Z</time>
      </trkpt>
      <trkpt lat="40.897968" lon="-3.921932">
        <ele>1640.667</ele>
        <time>2021-07-28T18:36:52Z</time>
      </trkpt>
      <trkpt lat="40.897994" lon="-3.921930">
        <ele>1640.981</ele>
        <time>2021-07-28T18:36:54Z</time>
      </trkpt>
      <trkpt lat="40.898013" lon="-3.921925">
        <ele>1641.119</ele>
        <time>2021-07-28T18:36:56Z</time>
      </trkpt>
      <trkpt lat="40.898042" lon="-3.921907">
        <ele>1641.308</ele>
        <time>2021-07-28T18:36:59Z</time>
      </trkpt>
      <trkpt lat="40.898061" lon="-3.921885">
        <ele>1641.253</ele>
        <time>2021-07-28T18:37:01Z</time>
      </trkpt>
      <trkpt lat="40.898083" lon="-3.921867">
        <ele>1641.295</ele>
        <time>2021-07-28T18:37:04Z</time>
      </trkpt>
      <trkpt lat="40.898102" lon="-3.921853">
        <ele>1641.252</ele>
        <time>2021-07-28T18:37:06Z</time>
      </trkpt>
      <trkpt lat="40.898128" lon="-3.921840">
        <ele>1641.319</ele>
        <time>2021-07-28T18:37:08Z</time>
      </trkpt>
      <trkpt lat="40.898157" lon="-3.921838">
        <ele>1641.630</ele>
        <time>2021-07-28T18:37:11Z</time>
      </trkpt>
      <trkpt lat="40.898186" lon="-3.921842">
        <ele>1641.990</ele>
        <time>2021-07-28T18:37:13Z</time>
      </trkpt>
      <trkpt lat="40.898218" lon="-3.921827">
        <ele>1642.133</ele>
        <time>2021-07-28T18:37:15Z</time>
      </trkpt>
      <trkpt lat="40.898243" lon="-3.921822">
        <ele>1642.364</ele>
        <time>2021-07-28T18:37:17Z</time>
      </trkpt>
      <trkpt lat="40.898262" lon="-3.921822">
        <ele>1642.551</ele>
        <time>2021-07-28T18:37:19Z</time>
      </trkpt>
      <trkpt lat="40.898291" lon="-3.921832">
        <ele>1642.901</ele>
        <time>2021-07-28T18:37:21Z</time>
      </trkpt>
      <trkpt lat="40.898307" lon="-3.921820">
        <ele>1642.911</ele>
        <time>2021-07-28T18:37:23Z</time>
      </trkpt>
      <trkpt lat="40.898330" lon="-3.921832">
        <ele>1643.308</ele>
        <time>2021-07-28T18:37:25Z</time>
      </trkpt>
      <trkpt lat="40.898352" lon="-3.921848">
        <ele>1643.792</ele>
        <time>2021-07-28T18:37:27Z</time>
      </trkpt>
      <trkpt lat="40.898381" lon="-3.921857">
        <ele>1643.944</ele>
        <time>2021-07-28T18:37:29Z</time>
      </trkpt>
      <trkpt lat="40.898403" lon="-3.921873">
        <ele>1644.231</ele>
        <time>2021-07-28T18:37:31Z</time>
      </trkpt>
      <trkpt lat="40.898429" lon="-3.921873">
        <ele>1644.368</ele>
        <time>2021-07-28T18:37:33Z</time>
      </trkpt>
      <trkpt lat="40.898448" lon="-3.921885">
        <ele>1644.669</ele>
        <time>2021-07-28T18:37:35Z</time>
      </trkpt>
      <trkpt lat="40.898464" lon="-3.921900">
        <ele>1644.899</ele>
        <time>2021-07-28T18:37:37Z</time>
      </trkpt>
      <trkpt lat="40.898480" lon="-3.921918">
        <ele>1645.192</ele>
        <time>2021-07-28T18:37:39Z</time>
      </trkpt>
      <trkpt lat="40.898496" lon="-3.921934">
        <ele>1645.473</ele>
        <time>2021-07-28T18:37:41Z</time>
      </trkpt>
      <trkpt lat="40.898515" lon="-3.921968">
        <ele>1645.998</ele>
        <time>2021-07-28T18:37:43Z</time>
      </trkpt>
      <trkpt lat="40.898538" lon="-3.922003">
        <ele>1646.415</ele>
        <time>2021-07-28T18:37:45Z</time>
      </trkpt>
      <trkpt lat="40.898550" lon="-3.922025">
        <ele>1646.726</ele>
        <time>2021-07-28T18:37:47Z</time>
      </trkpt>
      <trkpt lat="40.898566" lon="-3.922038">
        <ele>1646.908</ele>
        <time>2021-07-28T18:37:49Z</time>
      </trkpt>
      <trkpt lat="40.898589" lon="-3.922057">
        <ele>1647.276</ele>
        <time>2021-07-28T18:37:51Z</time>
      </trkpt>
      <trkpt lat="40.898608" lon="-3.922075">
        <ele>1647.418</ele>
        <time>2021-07-28T18:37:54Z</time>
      </trkpt>
      <trkpt lat="40.898627" lon="-3.922095">
        <ele>1647.595</ele>
        <time>2021-07-28T18:37:56Z</time>
      </trkpt>
      <trkpt lat="40.898650" lon="-3.922117">
        <ele>1647.732</ele>
        <time>2021-07-28T18:37:59Z</time>
      </trkpt>
      <trkpt lat="40.898669" lon="-3.922148">
        <ele>1647.983</ele>
        <time>2021-07-28T18:38:01Z</time>
      </trkpt>
      <trkpt lat="40.898678" lon="-3.922173">
        <ele>1648.273</ele>
        <time>2021-07-28T18:38:03Z</time>
      </trkpt>
      <trkpt lat="40.898698" lon="-3.922198">
        <ele>1648.456</ele>
        <time>2021-07-28T18:38:05Z</time>
      </trkpt>
      <trkpt lat="40.898717" lon="-3.922220">
        <ele>1648.627</ele>
        <time>2021-07-28T18:38:07Z</time>
      </trkpt>
      <trkpt lat="40.898723" lon="-3.922247">
        <ele>1649.121</ele>
        <time>2021-07-28T18:38:09Z</time>
      </trkpt>
      <trkpt lat="40.898733" lon="-3.922268">
        <ele>1649.441</ele>
        <time>2021-07-28T18:38:11Z</time>
      </trkpt>
      <trkpt lat="40.898739" lon="-3.922296">
        <ele>1649.905</ele>
        <time>2021-07-28T18:38:13Z</time>
      </trkpt>
      <trkpt lat="40.898749" lon="-3.922326">
        <ele>1650.408</ele>
        <time>2021-07-28T18:38:15Z</time>
      </trkpt>
      <trkpt lat="40.898765" lon="-3.922355">
        <ele>1650.869</ele>
        <time>2021-07-28T18:38:17Z</time>
      </trkpt>
      <trkpt lat="40.898781" lon="-3.922380">
        <ele>1651.111</ele>
        <time>2021-07-28T18:38:19Z</time>
      </trkpt>
      <trkpt lat="40.898787" lon="-3.922412">
        <ele>1651.678</ele>
        <time>2021-07-28T18:38:21Z</time>
      </trkpt>
      <trkpt lat="40.898800" lon="-3.922432">
        <ele>1651.835</ele>
        <time>2021-07-28T18:38:23Z</time>
      </trkpt>
      <trkpt lat="40.898816" lon="-3.922457">
        <ele>1652.196</ele>
        <time>2021-07-28T18:38:26Z</time>
      </trkpt>
      <trkpt lat="40.898835" lon="-3.922480">
        <ele>1652.346</ele>
        <time>2021-07-28T18:38:28Z</time>
      </trkpt>
      <trkpt lat="40.898835" lon="-3.922513">
        <ele>1652.959</ele>
        <time>2021-07-28T18:38:30Z</time>
      </trkpt>
      <trkpt lat="40.898842" lon="-3.922548">
        <ele>1653.630</ele>
        <time>2021-07-28T18:38:32Z</time>
      </trkpt>
      <trkpt lat="40.898854" lon="-3.922573">
        <ele>1654.059</ele>
        <time>2021-07-28T18:38:35Z</time>
      </trkpt>
      <trkpt lat="40.898874" lon="-3.922598">
        <ele>1654.303</ele>
        <time>2021-07-28T18:38:37Z</time>
      </trkpt>
      <trkpt lat="40.898886" lon="-3.922625">
        <ele>1654.723</ele>
        <time>2021-07-28T18:38:39Z</time>
      </trkpt>
      <trkpt lat="40.898899" lon="-3.922650">
        <ele>1655.108</ele>
        <time>2021-07-28T18:38:41Z</time>
      </trkpt>
      <trkpt lat="40.898906" lon="-3.922673">
        <ele>1655.612</ele>
        <time>2021-07-28T18:38:43Z</time>
      </trkpt>
      <trkpt lat="40.898915" lon="-3.922702">
        <ele>1656.164</ele>
        <time>2021-07-28T18:38:45Z</time>
      </trkpt>
      <trkpt lat="40.898922" lon="-3.922732">
        <ele>1656.731</ele>
        <time>2021-07-28T18:38:47Z</time>
      </trkpt>
      <trkpt lat="40.898928" lon="-3.922767">
        <ele>1657.378</ele>
        <time>2021-07-28T18:38:50Z</time>
      </trkpt>
      <trkpt lat="40.898925" lon="-3.922793">
        <ele>1658.029</ele>
        <time>2021-07-28T18:38:52Z</time>
      </trkpt>
      <trkpt lat="40.898912" lon="-3.922814">
        <ele>1658.799</ele>
        <time>2021-07-28T18:38:54Z</time>
      </trkpt>
      <trkpt lat="40.898896" lon="-3.922800">
        <ele>1658.542</ele>
        <time>2021-07-28T18:38:59Z</time>
      </trkpt>
      <trkpt lat="40.898864" lon="-3.922797">
        <ele>1658.833</ele>
        <time>2021-07-28T18:39:01Z</time>
      </trkpt>
      <trkpt lat="40.898842" lon="-3.922782">
        <ele>1658.887</ele>
        <time>2021-07-28T18:39:03Z</time>
      </trkpt>
      <trkpt lat="40.898822" lon="-3.922772">
        <ele>1658.842</ele>
        <time>2021-07-28T18:39:04Z</time>
      </trkpt>
      <trkpt lat="40.898797" lon="-3.922748">
        <ele>1658.626</ele>
        <time>2021-07-28T18:39:06Z</time>
      </trkpt>
      <trkpt lat="40.898774" lon="-3.922728">
        <ele>1658.508</ele>
        <time>2021-07-28T18:39:08Z</time>
      </trkpt>
      <trkpt lat="40.898742" lon="-3.922705">
        <ele>1658.485</ele>
        <time>2021-07-28T18:39:10Z</time>
      </trkpt>
      <trkpt lat="40.898720" lon="-3.922700">
        <ele>1658.667</ele>
        <time>2021-07-28T18:39:13Z</time>
      </trkpt>
      <trkpt lat="40.898698" lon="-3.922698">
        <ele>1658.854</ele>
        <time>2021-07-28T18:39:16Z</time>
      </trkpt>
      <trkpt lat="40.898678" lon="-3.922696">
        <ele>1659.011</ele>
        <time>2021-07-28T18:39:18Z</time>
      </trkpt>
      <trkpt lat="40.898659" lon="-3.922693">
        <ele>1659.242</ele>
        <time>2021-07-28T18:39:21Z</time>
      </trkpt>
      <trkpt lat="40.898646" lon="-3.922675">
        <ele>1659.082</ele>
        <time>2021-07-28T18:39:23Z</time>
      </trkpt>
      <trkpt lat="40.898627" lon="-3.922668">
        <ele>1659.095</ele>
        <time>2021-07-28T18:39:25Z</time>
      </trkpt>
      <trkpt lat="40.898602" lon="-3.922666">
        <ele>1659.276</ele>
        <time>2021-07-28T18:39:27Z</time>
      </trkpt>
      <trkpt lat="40.898582" lon="-3.922665">
        <ele>1659.359</ele>
        <time>2021-07-28T18:39:29Z</time>
      </trkpt>
      <trkpt lat="40.898550" lon="-3.922672">
        <ele>1659.603</ele>
        <time>2021-07-28T18:39:32Z</time>
      </trkpt>
      <trkpt lat="40.898525" lon="-3.922660">
        <ele>1659.323</ele>
        <time>2021-07-28T18:39:36Z</time>
      </trkpt>
      <trkpt lat="40.898506" lon="-3.922658">
        <ele>1659.408</ele>
        <time>2021-07-28T18:39:38Z</time>
      </trkpt>
      <trkpt lat="40.898486" lon="-3.922663">
        <ele>1659.622</ele>
        <time>2021-07-28T18:39:40Z</time>
      </trkpt>
      <trkpt lat="40.898467" lon="-3.922673">
        <ele>1659.914</ele>
        <time>2021-07-28T18:39:42Z</time>
      </trkpt>
      <trkpt lat="40.898445" lon="-3.922678">
        <ele>1660.171</ele>
        <time>2021-07-28T18:39:44Z</time>
      </trkpt>
      <trkpt lat="40.898422" lon="-3.922682">
        <ele>1660.328</ele>
        <time>2021-07-28T18:39:46Z</time>
      </trkpt>
      <trkpt lat="40.898403" lon="-3.922683">
        <ele>1660.419</ele>
        <time>2021-07-28T18:39:48Z</time>
      </trkpt>
      <trkpt lat="40.898378" lon="-3.922688">
        <ele>1660.659</ele>
        <time>2021-07-28T18:39:51Z</time>
      </trkpt>
      <trkpt lat="40.898349" lon="-3.922685">
        <ele>1660.692</ele>
        <time>2021-07-28T18:39:53Z</time>
      </trkpt>
      <trkpt lat="40.898323" lon="-3.922686">
        <ele>1660.763</ele>
        <time>2021-07-28T18:39:55Z</time>
      </trkpt>
      <trkpt lat="40.898291" lon="-3.922685">
        <ele>1660.592</ele>
        <time>2021-07-28T18:39:57Z</time>
      </trkpt>
      <trkpt lat="40.898269" lon="-3.922686">
        <ele>1660.573</ele>
        <time>2021-07-28T18:39:59Z</time>
      </trkpt>
      <trkpt lat="40.898243" lon="-3.922686">
        <ele>1660.420</ele>
        <time>2021-07-28T18:40:01Z</time>
      </trkpt>
      <trkpt lat="40.898208" lon="-3.922690">
        <ele>1660.308</ele>
        <time>2021-07-28T18:40:03Z</time>
      </trkpt>
      <trkpt lat="40.898189" lon="-3.922693">
        <ele>1660.336</ele>
        <time>2021-07-28T18:40:05Z</time>
      </trkpt>
      <trkpt lat="40.898170" lon="-3.922707">
        <ele>1660.668</ele>
        <time>2021-07-28T18:40:07Z</time>
      </trkpt>
      <trkpt lat="40.898147" lon="-3.922727">
        <ele>1661.075</ele>
        <time>2021-07-28T18:40:10Z</time>
      </trkpt>
      <trkpt lat="40.898128" lon="-3.922733">
        <ele>1661.172</ele>
        <time>2021-07-28T18:40:12Z</time>
      </trkpt>
      <trkpt lat="40.898112" lon="-3.922752">
        <ele>1661.633</ele>
        <time>2021-07-28T18:40:15Z</time>
      </trkpt>
      <trkpt lat="40.898099" lon="-3.922772">
        <ele>1662.073</ele>
        <time>2021-07-28T18:40:17Z</time>
      </trkpt>
      <trkpt lat="40.898083" lon="-3.922787">
        <ele>1662.346</ele>
        <time>2021-07-28T18:40:19Z</time>
      </trkpt>
      <trkpt lat="40.898058" lon="-3.922800">
        <ele>1662.637</ele>
        <time>2021-07-28T18:40:21Z</time>
      </trkpt>
      <trkpt lat="40.898032" lon="-3.922810">
        <ele>1662.644</ele>
        <time>2021-07-28T18:40:23Z</time>
      </trkpt>
      <trkpt lat="40.898013" lon="-3.922828">
        <ele>1662.805</ele>
        <time>2021-07-28T18:40:25Z</time>
      </trkpt>
      <trkpt lat="40.897990" lon="-3.922828">
        <ele>1662.615</ele>
        <time>2021-07-28T18:40:27Z</time>
      </trkpt>
      <trkpt lat="40.897968" lon="-3.922837">
        <ele>1662.508</ele>
        <time>2021-07-28T18:40:29Z</time>
      </trkpt>
      <trkpt lat="40.897946" lon="-3.922855">
        <ele>1662.821</ele>
        <time>2021-07-28T18:40:31Z</time>
      </trkpt>
      <trkpt lat="40.897930" lon="-3.922868">
        <ele>1662.913</ele>
        <time>2021-07-28T18:40:33Z</time>
      </trkpt>
      <trkpt lat="40.897920" lon="-3.922893">
        <ele>1663.450</ele>
        <time>2021-07-28T18:40:36Z</time>
      </trkpt>
      <trkpt lat="40.897904" lon="-3.922923">
        <ele>1664.067</ele>
        <time>2021-07-28T18:40:39Z</time>
      </trkpt>
      <trkpt lat="40.897885" lon="-3.922938">
        <ele>1664.288</ele>
        <time>2021-07-28T18:40:41Z</time>
      </trkpt>
      <trkpt lat="40.897866" lon="-3.922963">
        <ele>1664.648</ele>
        <time>2021-07-28T18:40:43Z</time>
      </trkpt>
      <trkpt lat="40.897840" lon="-3.922973">
        <ele>1664.671</ele>
        <time>2021-07-28T18:40:45Z</time>
      </trkpt>
      <trkpt lat="40.897814" lon="-3.922988">
        <ele>1664.712</ele>
        <time>2021-07-28T18:40:48Z</time>
      </trkpt>
      <trkpt lat="40.897808" lon="-3.923025">
        <ele>1665.698</ele>
        <time>2021-07-28T18:40:51Z</time>
      </trkpt>
      <trkpt lat="40.897795" lon="-3.923048">
        <ele>1666.015</ele>
        <time>2021-07-28T18:40:53Z</time>
      </trkpt>
      <trkpt lat="40.897770" lon="-3.923058">
        <ele>1665.926</ele>
        <time>2021-07-28T18:40:55Z</time>
      </trkpt>
      <trkpt lat="40.897747" lon="-3.923077">
        <ele>1665.908</ele>
        <time>2021-07-28T18:40:57Z</time>
      </trkpt>
      <trkpt lat="40.897734" lon="-3.923095">
        <ele>1666.126</ele>
        <time>2021-07-28T18:40:59Z</time>
      </trkpt>
      <trkpt lat="40.897709" lon="-3.923113">
        <ele>1666.048</ele>
        <time>2021-07-28T18:41:02Z</time>
      </trkpt>
      <trkpt lat="40.897686" lon="-3.923123">
        <ele>1665.815</ele>
        <time>2021-07-28T18:41:04Z</time>
      </trkpt>
      <trkpt lat="40.897670" lon="-3.923145">
        <ele>1666.172</ele>
        <time>2021-07-28T18:41:06Z</time>
      </trkpt>
      <trkpt lat="40.897651" lon="-3.923165">
        <ele>1666.243</ele>
        <time>2021-07-28T18:41:08Z</time>
      </trkpt>
      <trkpt lat="40.897635" lon="-3.923192">
        <ele>1666.613</ele>
        <time>2021-07-28T18:41:11Z</time>
      </trkpt>
      <trkpt lat="40.897626" lon="-3.923214">
        <ele>1667.016</ele>
        <time>2021-07-28T18:41:13Z</time>
      </trkpt>
      <trkpt lat="40.897610" lon="-3.923230">
        <ele>1667.217</ele>
        <time>2021-07-28T18:41:15Z</time>
      </trkpt>
      <trkpt lat="40.897597" lon="-3.923253">
        <ele>1667.519</ele>
        <time>2021-07-28T18:41:17Z</time>
      </trkpt>
      <trkpt lat="40.897571" lon="-3.923270">
        <ele>1667.509</ele>
        <time>2021-07-28T18:41:20Z</time>
      </trkpt>
      <trkpt lat="40.897549" lon="-3.923280">
        <ele>1667.419</ele>
        <time>2021-07-28T18:41:22Z</time>
      </trkpt>
      <trkpt lat="40.897536" lon="-3.923300">
        <ele>1667.708</ele>
        <time>2021-07-28T18:41:24Z</time>
      </trkpt>
      <trkpt lat="40.897517" lon="-3.923328">
        <ele>1668.228</ele>
        <time>2021-07-28T18:41:27Z</time>
      </trkpt>
      <trkpt lat="40.897494" lon="-3.923356">
        <ele>1668.520</ele>
        <time>2021-07-28T18:41:30Z</time>
      </trkpt>
      <trkpt lat="40.897488" lon="-3.923380">
        <ele>1669.027</ele>
        <time>2021-07-28T18:41:32Z</time>
      </trkpt>
      <trkpt lat="40.897482" lon="-3.923407">
        <ele>1669.694</ele>
        <time>2021-07-28T18:41:34Z</time>
      </trkpt>
      <trkpt lat="40.897475" lon="-3.923433">
        <ele>1670.155</ele>
        <time>2021-07-28T18:41:36Z</time>
      </trkpt>
      <trkpt lat="40.897472" lon="-3.923468">
        <ele>1671.085</ele>
        <time>2021-07-28T18:41:38Z</time>
      </trkpt>
      <trkpt lat="40.897482" lon="-3.923502">
        <ele>1672.388</ele>
        <time>2021-07-28T18:41:40Z</time>
      </trkpt>
      <trkpt lat="40.897504" lon="-3.923528">
        <ele>1673.729</ele>
        <time>2021-07-28T18:41:42Z</time>
      </trkpt>
      <trkpt lat="40.897523" lon="-3.923557">
        <ele>1674.974</ele>
        <time>2021-07-28T18:41:44Z</time>
      </trkpt>
      <trkpt lat="40.897546" lon="-3.923568">
        <ele>1675.656</ele>
        <time>2021-07-28T18:41:46Z</time>
      </trkpt>
      <trkpt lat="40.897571" lon="-3.923558">
        <ele>1675.721</ele>
        <time>2021-07-28T18:41:50Z</time>
      </trkpt>
      <trkpt lat="40.897597" lon="-3.923540">
        <ele>1675.708</ele>
        <time>2021-07-28T18:41:52Z</time>
      </trkpt>
      <trkpt lat="40.897622" lon="-3.923532">
        <ele>1675.994</ele>
        <time>2021-07-28T18:41:54Z</time>
      </trkpt>
      <trkpt lat="40.897651" lon="-3.923520">
        <ele>1676.136</ele>
        <time>2021-07-28T18:41:56Z</time>
      </trkpt>
      <trkpt lat="40.897674" lon="-3.923527">
        <ele>1676.763</ele>
        <time>2021-07-28T18:41:59Z</time>
      </trkpt>
      <trkpt lat="40.897702" lon="-3.923530">
        <ele>1677.340</ele>
        <time>2021-07-28T18:42:01Z</time>
      </trkpt>
      <trkpt lat="40.897722" lon="-3.923514">
        <ele>1677.221</ele>
        <time>2021-07-28T18:42:03Z</time>
      </trkpt>
      <trkpt lat="40.897744" lon="-3.923510">
        <ele>1677.571</ele>
        <time>2021-07-28T18:42:05Z</time>
      </trkpt>
      <trkpt lat="40.897770" lon="-3.923512">
        <ele>1678.044</ele>
        <time>2021-07-28T18:42:07Z</time>
      </trkpt>
      <trkpt lat="40.897792" lon="-3.923505">
        <ele>1678.145</ele>
        <time>2021-07-28T18:42:09Z</time>
      </trkpt>
      <trkpt lat="40.897824" lon="-3.923498">
        <ele>1678.112</ele>
        <time>2021-07-28T18:42:11Z</time>
      </trkpt>
      <trkpt lat="40.897843" lon="-3.923495">
        <ele>1678.232</ele>
        <time>2021-07-28T18:42:13Z</time>
      </trkpt>
      <trkpt lat="40.897869" lon="-3.923490">
        <ele>1678.305</ele>
        <time>2021-07-28T18:42:15Z</time>
      </trkpt>
      <trkpt lat="40.897904" lon="-3.923480">
        <ele>1678.308</ele>
        <time>2021-07-28T18:42:17Z</time>
      </trkpt>
      <trkpt lat="40.897930" lon="-3.923483">
        <ele>1678.798</ele>
        <time>2021-07-28T18:42:19Z</time>
      </trkpt>
      <trkpt lat="40.897958" lon="-3.923495">
        <ele>1679.210</ele>
        <time>2021-07-28T18:42:21Z</time>
      </trkpt>
      <trkpt lat="40.897981" lon="-3.923505">
        <ele>1679.727</ele>
        <time>2021-07-28T18:42:23Z</time>
      </trkpt>
      <trkpt lat="40.898000" lon="-3.923517">
        <ele>1680.244</ele>
        <time>2021-07-28T18:42:25Z</time>
      </trkpt>
      <trkpt lat="40.898022" lon="-3.923534">
        <ele>1680.835</ele>
        <time>2021-07-28T18:42:27Z</time>
      </trkpt>
      <trkpt lat="40.898048" lon="-3.923537">
        <ele>1681.155</ele>
        <time>2021-07-28T18:42:30Z</time>
      </trkpt>
      <trkpt lat="40.898074" lon="-3.923550">
        <ele>1681.428</ele>
        <time>2021-07-28T18:42:33Z</time>
      </trkpt>
      <trkpt lat="40.898093" lon="-3.923578">
        <ele>1682.089</ele>
        <time>2021-07-28T18:42:36Z</time>
      </trkpt>
      <trkpt lat="40.898122" lon="-3.923602">
        <ele>1682.555</ele>
        <time>2021-07-28T18:42:38Z</time>
      </trkpt>
      <trkpt lat="40.898138" lon="-3.923622">
        <ele>1683.007</ele>
        <time>2021-07-28T18:42:40Z</time>
      </trkpt>
      <trkpt lat="40.898157" lon="-3.923625">
        <ele>1683.017</ele>
        <time>2021-07-28T18:42:42Z</time>
      </trkpt>
      <trkpt lat="40.898192" lon="-3.923603">
        <ele>1682.308</ele>
        <time>2021-07-28T18:42:44Z</time>
      </trkpt>
      <trkpt lat="40.898230" lon="-3.923595">
        <ele>1682.042</ele>
        <time>2021-07-28T18:42:46Z</time>
      </trkpt>
      <trkpt lat="40.898259" lon="-3.923590">
        <ele>1681.874</ele>
        <time>2021-07-28T18:42:48Z</time>
      </trkpt>
      <trkpt lat="40.898285" lon="-3.923582">
        <ele>1681.591</ele>
        <time>2021-07-28T18:42:50Z</time>
      </trkpt>
      <trkpt lat="40.898307" lon="-3.923593">
        <ele>1681.738</ele>
        <time>2021-07-28T18:42:52Z</time>
      </trkpt>
      <trkpt lat="40.898330" lon="-3.923612">
        <ele>1682.069</ele>
        <time>2021-07-28T18:42:54Z</time>
      </trkpt>
      <trkpt lat="40.898349" lon="-3.923630">
        <ele>1682.779</ele>
        <time>2021-07-28T18:42:56Z</time>
      </trkpt>
      <trkpt lat="40.898365" lon="-3.923645">
        <ele>1683.292</ele>
        <time>2021-07-28T18:42:58Z</time>
      </trkpt>
      <trkpt lat="40.898390" lon="-3.923658">
        <ele>1683.753</ele>
        <time>2021-07-28T18:43:00Z</time>
      </trkpt>
      <trkpt lat="40.898403" lon="-3.923678">
        <ele>1684.468</ele>
        <time>2021-07-28T18:43:02Z</time>
      </trkpt>
      <trkpt lat="40.898419" lon="-3.923705">
        <ele>1685.242</ele>
        <time>2021-07-28T18:43:04Z</time>
      </trkpt>
      <trkpt lat="40.898451" lon="-3.923696">
        <ele>1685.026</ele>
        <time>2021-07-28T18:43:06Z</time>
      </trkpt>
      <trkpt lat="40.898480" lon="-3.923687">
        <ele>1684.808</ele>
        <time>2021-07-28T18:43:08Z</time>
      </trkpt>
      <trkpt lat="40.898499" lon="-3.923663">
        <ele>1684.243</ele>
        <time>2021-07-28T18:43:09Z</time>
      </trkpt>
      <trkpt lat="40.898518" lon="-3.923655">
        <ele>1684.055</ele>
        <time>2021-07-28T18:43:10Z</time>
      </trkpt>
      <trkpt lat="40.898547" lon="-3.923657">
        <ele>1684.142</ele>
        <time>2021-07-28T18:43:12Z</time>
      </trkpt>
      <trkpt lat="40.898576" lon="-3.923657">
        <ele>1684.279</ele>
        <time>2021-07-28T18:43:14Z</time>
      </trkpt>
      <trkpt lat="40.898598" lon="-3.923675">
        <ele>1684.870</ele>
        <time>2021-07-28T18:43:16Z</time>
      </trkpt>
      <trkpt lat="40.898624" lon="-3.923682">
        <ele>1684.950</ele>
        <time>2021-07-28T18:43:18Z</time>
      </trkpt>
      <trkpt lat="40.898646" lon="-3.923694">
        <ele>1685.123</ele>
        <time>2021-07-28T18:43:20Z</time>
      </trkpt>
      <trkpt lat="40.898659" lon="-3.923718">
        <ele>1685.734</ele>
        <time>2021-07-28T18:43:22Z</time>
      </trkpt>
      <trkpt lat="40.898678" lon="-3.923722">
        <ele>1685.753</ele>
        <time>2021-07-28T18:43:24Z</time>
      </trkpt>
      <trkpt lat="40.898707" lon="-3.923718">
        <ele>1685.404</ele>
        <time>2021-07-28T18:43:26Z</time>
      </trkpt>
      <trkpt lat="40.898736" lon="-3.923718">
        <ele>1685.214</ele>
        <time>2021-07-28T18:43:28Z</time>
      </trkpt>
      <trkpt lat="40.898762" lon="-3.923726">
        <ele>1685.208</ele>
        <time>2021-07-28T18:43:30Z</time>
      </trkpt>
      <trkpt lat="40.898778" lon="-3.923745">
        <ele>1685.712</ele>
        <time>2021-07-28T18:43:32Z</time>
      </trkpt>
      <trkpt lat="40.898813" lon="-3.923758">
        <ele>1685.814</ele>
        <time>2021-07-28T18:43:34Z</time>
      </trkpt>
      <trkpt lat="40.898838" lon="-3.923763">
        <ele>1685.711</ele>
        <time>2021-07-28T18:43:36Z</time>
      </trkpt>
      <trkpt lat="40.898867" lon="-3.923775">
        <ele>1685.998</ele>
        <time>2021-07-28T18:43:38Z</time>
      </trkpt>
      <trkpt lat="40.898893" lon="-3.923797">
        <ele>1686.329</ele>
        <time>2021-07-28T18:43:40Z</time>
      </trkpt>
      <trkpt lat="40.898915" lon="-3.923795">
        <ele>1685.969</ele>
        <time>2021-07-28T18:43:43Z</time>
      </trkpt>
      <trkpt lat="40.898934" lon="-3.923822">
        <ele>1686.462</ele>
        <time>2021-07-28T18:43:45Z</time>
      </trkpt>
      <trkpt lat="40.898944" lon="-3.923850">
        <ele>1687.113</ele>
        <time>2021-07-28T18:43:47Z</time>
      </trkpt>
      <trkpt lat="40.898966" lon="-3.923858">
        <ele>1687.017</ele>
        <time>2021-07-28T18:43:49Z</time>
      </trkpt>
      <trkpt lat="40.898986" lon="-3.923867">
        <ele>1686.987</ele>
        <time>2021-07-28T18:43:51Z</time>
      </trkpt>
      <trkpt lat="40.899005" lon="-3.923880">
        <ele>1687.115</ele>
        <time>2021-07-28T18:43:53Z</time>
      </trkpt>
      <trkpt lat="40.899040" lon="-3.923894">
        <ele>1687.008</ele>
        <time>2021-07-28T18:43:55Z</time>
      </trkpt>
      <trkpt lat="40.899056" lon="-3.923910">
        <ele>1687.238</ele>
        <time>2021-07-28T18:43:57Z</time>
      </trkpt>
      <trkpt lat="40.899072" lon="-3.923925">
        <ele>1687.480</ele>
        <time>2021-07-28T18:43:59Z</time>
      </trkpt>
      <trkpt lat="40.899098" lon="-3.923938">
        <ele>1687.447</ele>
        <time>2021-07-28T18:44:01Z</time>
      </trkpt>
      <trkpt lat="40.899120" lon="-3.923942">
        <ele>1687.264</ele>
        <time>2021-07-28T18:44:03Z</time>
      </trkpt>
      <trkpt lat="40.899152" lon="-3.923953">
        <ele>1687.055</ele>
        <time>2021-07-28T18:44:05Z</time>
      </trkpt>
      <trkpt lat="40.899174" lon="-3.923977">
        <ele>1687.425</ele>
        <time>2021-07-28T18:44:07Z</time>
      </trkpt>
      <trkpt lat="40.899194" lon="-3.923995">
        <ele>1687.588</ele>
        <time>2021-07-28T18:44:09Z</time>
      </trkpt>
      <trkpt lat="40.899210" lon="-3.924012">
        <ele>1687.659</ele>
        <time>2021-07-28T18:44:11Z</time>
      </trkpt>
      <trkpt lat="40.899222" lon="-3.924030">
        <ele>1687.985</ele>
        <time>2021-07-28T18:44:13Z</time>
      </trkpt>
      <trkpt lat="40.899245" lon="-3.924045">
        <ele>1687.889</ele>
        <time>2021-07-28T18:44:15Z</time>
      </trkpt>
      <trkpt lat="40.899264" lon="-3.924066">
        <ele>1688.017</ele>
        <time>2021-07-28T18:44:17Z</time>
      </trkpt>
      <trkpt lat="40.899290" lon="-3.924083">
        <ele>1687.908</ele>
        <time>2021-07-28T18:44:19Z</time>
      </trkpt>
      <trkpt lat="40.899309" lon="-3.924103">
        <ele>1688.125</ele>
        <time>2021-07-28T18:44:21Z</time>
      </trkpt>
      <trkpt lat="40.899322" lon="-3.924137">
        <ele>1688.867</ele>
        <time>2021-07-28T18:44:24Z</time>
      </trkpt>
      <trkpt lat="40.899338" lon="-3.924158">
        <ele>1689.074</ele>
        <time>2021-07-28T18:44:26Z</time>
      </trkpt>
      <trkpt lat="40.899350" lon="-3.924183">
        <ele>1689.581</ele>
        <time>2021-07-28T18:44:28Z</time>
      </trkpt>
      <trkpt lat="40.899370" lon="-3.924198">
        <ele>1689.442</ele>
        <time>2021-07-28T18:44:30Z</time>
      </trkpt>
      <trkpt lat="40.899395" lon="-3.924210">
        <ele>1689.262</ele>
        <time>2021-07-28T18:44:32Z</time>
      </trkpt>
      <trkpt lat="40.899408" lon="-3.924232">
        <ele>1689.595</ele>
        <time>2021-07-28T18:44:34Z</time>
      </trkpt>
      <trkpt lat="40.899434" lon="-3.924250">
        <ele>1689.356</ele>
        <time>2021-07-28T18:44:37Z</time>
      </trkpt>
      <trkpt lat="40.899453" lon="-3.924280">
        <ele>1689.765</ele>
        <time>2021-07-28T18:44:40Z</time>
      </trkpt>
      <trkpt lat="40.899475" lon="-3.924303">
        <ele>1689.868</ele>
        <time>2021-07-28T18:44:43Z</time>
      </trkpt>
      <trkpt lat="40.899488" lon="-3.924325">
        <ele>1690.114</ele>
        <time>2021-07-28T18:44:45Z</time>
      </trkpt>
      <trkpt lat="40.899501" lon="-3.924352">
        <ele>1690.608</ele>
        <time>2021-07-28T18:44:48Z</time>
      </trkpt>
      <trkpt lat="40.899517" lon="-3.924368">
        <ele>1690.713</ele>
        <time>2021-07-28T18:44:50Z</time>
      </trkpt>
      <trkpt lat="40.899520" lon="-3.924398">
        <ele>1691.425</ele>
        <time>2021-07-28T18:44:53Z</time>
      </trkpt>
      <trkpt lat="40.899520" lon="-3.924425">
        <ele>1692.152</ele>
        <time>2021-07-28T18:44:56Z</time>
      </trkpt>
      <trkpt lat="40.899510" lon="-3.924450">
        <ele>1693.049</ele>
        <time>2021-07-28T18:44:59Z</time>
      </trkpt>
      <trkpt lat="40.899482" lon="-3.924462">
        <ele>1693.830</ele>
        <time>2021-07-28T18:45:02Z</time>
      </trkpt>
      <trkpt lat="40.899462" lon="-3.924473">
        <ele>1694.520</ele>
        <time>2021-07-28T18:45:04Z</time>
      </trkpt>
      <trkpt lat="40.899440" lon="-3.924468">
        <ele>1694.883</ele>
        <time>2021-07-28T18:45:06Z</time>
      </trkpt>
      <trkpt lat="40.899421" lon="-3.924445">
        <ele>1694.684</ele>
        <time>2021-07-28T18:45:08Z</time>
      </trkpt>
      <trkpt lat="40.899398" lon="-3.924430">
        <ele>1694.859</ele>
        <time>2021-07-28T18:45:10Z</time>
      </trkpt>
      <trkpt lat="40.899379" lon="-3.924413">
        <ele>1694.803</ele>
        <time>2021-07-28T18:45:12Z</time>
      </trkpt>
      <trkpt lat="40.899360" lon="-3.924392">
        <ele>1694.723</ele>
        <time>2021-07-28T18:45:14Z</time>
      </trkpt>
      <trkpt lat="40.899338" lon="-3.924373">
        <ele>1694.808</ele>
        <time>2021-07-28T18:45:16Z</time>
      </trkpt>
      <trkpt lat="40.899322" lon="-3.924350">
        <ele>1694.622</ele>
        <time>2021-07-28T18:45:18Z</time>
      </trkpt>
      <trkpt lat="40.899312" lon="-3.924328">
        <ele>1694.284</ele>
        <time>2021-07-28T18:45:21Z</time>
      </trkpt>
      <trkpt lat="40.899283" lon="-3.924317">
        <ele>1694.681</ele>
        <time>2021-07-28T18:45:23Z</time>
      </trkpt>
      <trkpt lat="40.899261" lon="-3.924312">
        <ele>1695.028</ele>
        <time>2021-07-28T18:45:25Z</time>
      </trkpt>
      <trkpt lat="40.899242" lon="-3.924298">
        <ele>1695.089</ele>
        <time>2021-07-28T18:45:28Z</time>
      </trkpt>
      <trkpt lat="40.899219" lon="-3.924280">
        <ele>1695.159</ele>
        <time>2021-07-28T18:45:30Z</time>
      </trkpt>
      <trkpt lat="40.899203" lon="-3.924268">
        <ele>1695.112</ele>
        <time>2021-07-28T18:45:34Z</time>
      </trkpt>
      <trkpt lat="40.899184" lon="-3.924276">
        <ele>1695.893</ele>
        <time>2021-07-28T18:45:37Z</time>
      </trkpt>
      <trkpt lat="40.899162" lon="-3.924273">
        <ele>1696.142</ele>
        <time>2021-07-28T18:45:40Z</time>
      </trkpt>
      <trkpt lat="40.899139" lon="-3.924272">
        <ele>1696.322</ele>
        <time>2021-07-28T18:45:42Z</time>
      </trkpt>
      <trkpt lat="40.899114" lon="-3.924272">
        <ele>1696.614</ele>
        <time>2021-07-28T18:45:44Z</time>
      </trkpt>
      <trkpt lat="40.899091" lon="-3.924267">
        <ele>1696.708</ele>
        <time>2021-07-28T18:45:47Z</time>
      </trkpt>
      <trkpt lat="40.899062" lon="-3.924262">
        <ele>1696.941</ele>
        <time>2021-07-28T18:45:49Z</time>
      </trkpt>
      <trkpt lat="40.899040" lon="-3.924268">
        <ele>1697.373</ele>
        <time>2021-07-28T18:45:51Z</time>
      </trkpt>
      <trkpt lat="40.899011" lon="-3.924267">
        <ele>1697.680</ele>
        <time>2021-07-28T18:45:53Z</time>
      </trkpt>
      <trkpt lat="40.898986" lon="-3.924257">
        <ele>1697.697</ele>
        <time>2021-07-28T18:45:54Z</time>
      </trkpt>
      <trkpt lat="40.898966" lon="-3.924247">
        <ele>1697.538</ele>
        <time>2021-07-28T18:45:57Z</time>
      </trkpt>
      <trkpt lat="40.898947" lon="-3.924244">
        <ele>1697.628</ele>
        <time>2021-07-28T18:45:58Z</time>
      </trkpt>
      <trkpt lat="40.898918" lon="-3.924228">
        <ele>1697.541</ele>
        <time>2021-07-28T18:46:03Z</time>
      </trkpt>
      <trkpt lat="40.898899" lon="-3.924234">
        <ele>1697.872</ele>
        <time>2021-07-28T18:46:05Z</time>
      </trkpt>
      <trkpt lat="40.898877" lon="-3.924238">
        <ele>1698.154</ele>
        <time>2021-07-28T18:46:07Z</time>
      </trkpt>
      <trkpt lat="40.898842" lon="-3.924242">
        <ele>1698.356</ele>
        <time>2021-07-28T18:46:09Z</time>
      </trkpt>
      <trkpt lat="40.898813" lon="-3.924238">
        <ele>1698.311</ele>
        <time>2021-07-28T18:46:12Z</time>
      </trkpt>
      <trkpt lat="40.898778" lon="-3.924235">
        <ele>1698.408</ele>
        <time>2021-07-28T18:46:14Z</time>
      </trkpt>
      <trkpt lat="40.898749" lon="-3.924235">
        <ele>1698.582</ele>
        <time>2021-07-28T18:46:16Z</time>
      </trkpt>
      <trkpt lat="40.898720" lon="-3.924235">
        <ele>1698.634</ele>
        <time>2021-07-28T18:46:18Z</time>
      </trkpt>
      <trkpt lat="40.898682" lon="-3.924240">
        <ele>1698.931</ele>
        <time>2021-07-28T18:46:20Z</time>
      </trkpt>
      <trkpt lat="40.898656" lon="-3.924250">
        <ele>1699.258</ele>
        <time>2021-07-28T18:46:22Z</time>
      </trkpt>
      <trkpt lat="40.898624" lon="-3.924247">
        <ele>1699.339</ele>
        <time>2021-07-28T18:46:25Z</time>
      </trkpt>
      <trkpt lat="40.898605" lon="-3.924245">
        <ele>1699.379</ele>
        <time>2021-07-28T18:46:26Z</time>
      </trkpt>
      <trkpt lat="40.898570" lon="-3.924247">
        <ele>1699.582</ele>
        <time>2021-07-28T18:46:28Z</time>
      </trkpt>
      <trkpt lat="40.898541" lon="-3.924245">
        <ele>1699.583</ele>
        <time>2021-07-28T18:46:30Z</time>
      </trkpt>
      <trkpt lat="40.898518" lon="-3.924250">
        <ele>1699.739</ele>
        <time>2021-07-28T18:46:32Z</time>
      </trkpt>
      <trkpt lat="40.898496" lon="-3.924262">
        <ele>1700.201</ele>
        <time>2021-07-28T18:46:34Z</time>
      </trkpt>
      <trkpt lat="40.898477" lon="-3.924276">
        <ele>1700.621</ele>
        <time>2021-07-28T18:46:36Z</time>
      </trkpt>
      <trkpt lat="40.898458" lon="-3.924285">
        <ele>1701.008</ele>
        <time>2021-07-28T18:46:38Z</time>
      </trkpt>
      <trkpt lat="40.898438" lon="-3.924283">
        <ele>1701.090</ele>
        <time>2021-07-28T18:46:40Z</time>
      </trkpt>
      <trkpt lat="40.898419" lon="-3.924298">
        <ele>1701.592</ele>
        <time>2021-07-28T18:46:42Z</time>
      </trkpt>
      <trkpt lat="40.898384" lon="-3.924300">
        <ele>1701.749</ele>
        <time>2021-07-28T18:46:44Z</time>
      </trkpt>
      <trkpt lat="40.898365" lon="-3.924302">
        <ele>1701.846</ele>
        <time>2021-07-28T18:46:45Z</time>
      </trkpt>
      <trkpt lat="40.898336" lon="-3.924315">
        <ele>1702.357</ele>
        <time>2021-07-28T18:46:47Z</time>
      </trkpt>
      <trkpt lat="40.898310" lon="-3.924317">
        <ele>1702.227</ele>
        <time>2021-07-28T18:46:49Z</time>
      </trkpt>
      <trkpt lat="40.898285" lon="-3.924310">
        <ele>1702.030</ele>
        <time>2021-07-28T18:46:51Z</time>
      </trkpt>
      <trkpt lat="40.898259" lon="-3.924312">
        <ele>1701.971</ele>
        <time>2021-07-28T18:46:53Z</time>
      </trkpt>
      <trkpt lat="40.898237" lon="-3.924318">
        <ele>1702.097</ele>
        <time>2021-07-28T18:46:56Z</time>
      </trkpt>
      <trkpt lat="40.898221" lon="-3.924332">
        <ele>1702.423</ele>
        <time>2021-07-28T18:46:58Z</time>
      </trkpt>
      <trkpt lat="40.898202" lon="-3.924337">
        <ele>1702.425</ele>
        <time>2021-07-28T18:47:00Z</time>
      </trkpt>
      <trkpt lat="40.898182" lon="-3.924355">
        <ele>1702.908</ele>
        <time>2021-07-28T18:47:02Z</time>
      </trkpt>
      <trkpt lat="40.898150" lon="-3.924363">
        <ele>1703.016</ele>
        <time>2021-07-28T18:47:05Z</time>
      </trkpt>
      <trkpt lat="40.898131" lon="-3.924372">
        <ele>1703.228</ele>
        <time>2021-07-28T18:47:07Z</time>
      </trkpt>
      <trkpt lat="40.898109" lon="-3.924385">
        <ele>1703.515</ele>
        <time>2021-07-28T18:47:09Z</time>
      </trkpt>
      <trkpt lat="40.898086" lon="-3.924398">
        <ele>1703.822</ele>
        <time>2021-07-28T18:47:11Z</time>
      </trkpt>
      <trkpt lat="40.898064" lon="-3.924408">
        <ele>1704.053</ele>
        <time>2021-07-28T18:47:13Z</time>
      </trkpt>
      <trkpt lat="40.898032" lon="-3.924423">
        <ele>1704.373</ele>
        <time>2021-07-28T18:47:15Z</time>
      </trkpt>
      <trkpt lat="40.898006" lon="-3.924436">
        <ele>1704.666</ele>
        <time>2021-07-28T18:47:17Z</time>
      </trkpt>
      <trkpt lat="40.897987" lon="-3.924475">
        <ele>1705.817</ele>
        <time>2021-07-28T18:47:19Z</time>
      </trkpt>
      <trkpt lat="40.897971" lon="-3.924495">
        <ele>1706.421</ele>
        <time>2021-07-28T18:47:21Z</time>
      </trkpt>
      <trkpt lat="40.897952" lon="-3.924508">
        <ele>1706.841</ele>
        <time>2021-07-28T18:47:24Z</time>
      </trkpt>
      <trkpt lat="40.897920" lon="-3.924520">
        <ele>1707.105</ele>
        <time>2021-07-28T18:47:27Z</time>
      </trkpt>
      <trkpt lat="40.897901" lon="-3.924512">
        <ele>1706.808</ele>
        <time>2021-07-28T18:47:29Z</time>
      </trkpt>
      <trkpt lat="40.897875" lon="-3.924507">
        <ele>1706.539</ele>
        <time>2021-07-28T18:47:31Z</time>
      </trkpt>
      <trkpt lat="40.897846" lon="-3.924527">
        <ele>1707.131</ele>
        <time>2021-07-28T18:47:33Z</time>
      </trkpt>
      <trkpt lat="40.897827" lon="-3.924538">
        <ele>1707.538</ele>
        <time>2021-07-28T18:47:34Z</time>
      </trkpt>
      <trkpt lat="40.897808" lon="-3.924557">
        <ele>1708.125</ele>
        <time>2021-07-28T18:47:36Z</time>
      </trkpt>
      <trkpt lat="40.897786" lon="-3.924572">
        <ele>1708.616</ele>
        <time>2021-07-28T18:47:38Z</time>
      </trkpt>
      <trkpt lat="40.897754" lon="-3.924568">
        <ele>1708.386</ele>
        <time>2021-07-28T18:47:40Z</time>
      </trkpt>
      <trkpt lat="40.897734" lon="-3.924567">
        <ele>1708.119</ele>
        <time>2021-07-28T18:47:41Z</time>
      </trkpt>
      <trkpt lat="40.897715" lon="-3.924584">
        <ele>1708.690</ele>
        <time>2021-07-28T18:47:43Z</time>
      </trkpt>
      <trkpt lat="40.897693" lon="-3.924600">
        <ele>1709.011</ele>
        <time>2021-07-28T18:47:45Z</time>
      </trkpt>
      <trkpt lat="40.897661" lon="-3.924597">
        <ele>1708.721</ele>
        <time>2021-07-28T18:47:48Z</time>
      </trkpt>
      <trkpt lat="40.897632" lon="-3.924592">
        <ele>1708.303</ele>
        <time>2021-07-28T18:47:50Z</time>
      </trkpt>
      <trkpt lat="40.897606" lon="-3.924597">
        <ele>1708.308</ele>
        <time>2021-07-28T18:47:52Z</time>
      </trkpt>
      <trkpt lat="40.897587" lon="-3.924590">
        <ele>1707.988</ele>
        <time>2021-07-28T18:47:54Z</time>
      </trkpt>
      <trkpt lat="40.897562" lon="-3.924594">
        <ele>1707.870</ele>
        <time>2021-07-28T18:47:56Z</time>
      </trkpt>
      <trkpt lat="40.897533" lon="-3.924594">
        <ele>1707.667</ele>
        <time>2021-07-28T18:47:58Z</time>
      </trkpt>
      <trkpt lat="40.897507" lon="-3.924597">
        <ele>1707.524</ele>
        <time>2021-07-28T18:48:00Z</time>
      </trkpt>
      <trkpt lat="40.897488" lon="-3.924595">
        <ele>1707.385</ele>
        <time>2021-07-28T18:48:02Z</time>
      </trkpt>
      <trkpt lat="40.897466" lon="-3.924604">
        <ele>1707.515</ele>
        <time>2021-07-28T18:48:04Z</time>
      </trkpt>
      <trkpt lat="40.897446" lon="-3.924614">
        <ele>1707.728</ele>
        <time>2021-07-28T18:48:06Z</time>
      </trkpt>
      <trkpt lat="40.897418" lon="-3.924623">
        <ele>1707.829</ele>
        <time>2021-07-28T18:48:08Z</time>
      </trkpt>
      <trkpt lat="40.897395" lon="-3.924632">
        <ele>1707.921</ele>
        <time>2021-07-28T18:48:10Z</time>
      </trkpt>
      <trkpt lat="40.897373" lon="-3.924638">
        <ele>1707.941</ele>
        <time>2021-07-28T18:48:12Z</time>
      </trkpt>
      <trkpt lat="40.897354" lon="-3.924652">
        <ele>1708.205</ele>
        <time>2021-07-28T18:48:14Z</time>
      </trkpt>
      <trkpt lat="40.897328" lon="-3.924668">
        <ele>1708.408</ele>
        <time>2021-07-28T18:48:16Z</time>
      </trkpt>
      <trkpt lat="40.897309" lon="-3.924687">
        <ele>1708.889</ele>
        <time>2021-07-28T18:48:18Z</time>
      </trkpt>
      <trkpt lat="40.897286" lon="-3.924698">
        <ele>1709.081</ele>
        <time>2021-07-28T18:48:20Z</time>
      </trkpt>
      <trkpt lat="40.897267" lon="-3.924713">
        <ele>1709.228</ele>
        <time>2021-07-28T18:48:22Z</time>
      </trkpt>
      <trkpt lat="40.897251" lon="-3.924734">
        <ele>1709.755</ele>
        <time>2021-07-28T18:48:24Z</time>
      </trkpt>
      <trkpt lat="40.897235" lon="-3.924755">
        <ele>1710.286</ele>
        <time>2021-07-28T18:48:26Z</time>
      </trkpt>
      <trkpt lat="40.897219" lon="-3.924783">
        <ele>1710.996</ele>
        <time>2021-07-28T18:48:28Z</time>
      </trkpt>
      <trkpt lat="40.897206" lon="-3.924805">
        <ele>1711.479</ele>
        <time>2021-07-28T18:48:30Z</time>
      </trkpt>
      <trkpt lat="40.897194" lon="-3.924822">
        <ele>1711.750</ele>
        <time>2021-07-28T18:48:32Z</time>
      </trkpt>
      <trkpt lat="40.897178" lon="-3.924842">
        <ele>1711.916</ele>
        <time>2021-07-28T18:48:34Z</time>
      </trkpt>
      <trkpt lat="40.897165" lon="-3.924860">
        <ele>1712.276</ele>
        <time>2021-07-28T18:48:36Z</time>
      </trkpt>
      <trkpt lat="40.897146" lon="-3.924885">
        <ele>1712.613</ele>
        <time>2021-07-28T18:48:38Z</time>
      </trkpt>
      <trkpt lat="40.897139" lon="-3.924915">
        <ele>1713.308</ele>
        <time>2021-07-28T18:48:40Z</time>
      </trkpt>
      <trkpt lat="40.897133" lon="-3.924942">
        <ele>1714.038</ele>
        <time>2021-07-28T18:48:42Z</time>
      </trkpt>
      <trkpt lat="40.897114" lon="-3.924964">
        <ele>1714.280</ele>
        <time>2021-07-28T18:48:44Z</time>
      </trkpt>
      <trkpt lat="40.897107" lon="-3.924990">
        <ele>1714.857</ele>
        <time>2021-07-28T18:48:46Z</time>
      </trkpt>
      <trkpt lat="40.897091" lon="-3.925020">
        <ele>1715.134</ele>
        <time>2021-07-28T18:48:48Z</time>
      </trkpt>
      <trkpt lat="40.897069" lon="-3.925047">
        <ele>1715.155</ele>
        <time>2021-07-28T18:48:50Z</time>
      </trkpt>
      <trkpt lat="40.897056" lon="-3.925072">
        <ele>1715.225</ele>
        <time>2021-07-28T18:48:52Z</time>
      </trkpt>
      <trkpt lat="40.897037" lon="-3.925087">
        <ele>1715.068</ele>
        <time>2021-07-28T18:48:54Z</time>
      </trkpt>
      <trkpt lat="40.897027" lon="-3.925118">
        <ele>1715.319</ele>
        <time>2021-07-28T18:48:57Z</time>
      </trkpt>
      <trkpt lat="40.897018" lon="-3.925143">
        <ele>1715.677</ele>
        <time>2021-07-28T18:48:59Z</time>
      </trkpt>
      <trkpt lat="40.897002" lon="-3.925170">
        <ele>1715.661</ele>
        <time>2021-07-28T18:49:01Z</time>
      </trkpt>
      <trkpt lat="40.896995" lon="-3.925197">
        <ele>1715.927</ele>
        <time>2021-07-28T18:49:03Z</time>
      </trkpt>
      <trkpt lat="40.896989" lon="-3.925228">
        <ele>1716.408</ele>
        <time>2021-07-28T18:49:05Z</time>
      </trkpt>
      <trkpt lat="40.896973" lon="-3.925253">
        <ele>1716.464</ele>
        <time>2021-07-28T18:49:07Z</time>
      </trkpt>
      <trkpt lat="40.896950" lon="-3.925287">
        <ele>1716.386</ele>
        <time>2021-07-28T18:49:09Z</time>
      </trkpt>
      <trkpt lat="40.896934" lon="-3.925317">
        <ele>1716.223</ele>
        <time>2021-07-28T18:49:11Z</time>
      </trkpt>
      <trkpt lat="40.896928" lon="-3.925348">
        <ele>1716.430</ele>
        <time>2021-07-28T18:49:13Z</time>
      </trkpt>
      <trkpt lat="40.896922" lon="-3.925375">
        <ele>1716.531</ele>
        <time>2021-07-28T18:49:15Z</time>
      </trkpt>
      <trkpt lat="40.896922" lon="-3.925407">
        <ele>1717.011</ele>
        <time>2021-07-28T18:49:18Z</time>
      </trkpt>
      <trkpt lat="40.896915" lon="-3.925440">
        <ele>1717.254</ele>
        <time>2021-07-28T18:49:21Z</time>
      </trkpt>
      <trkpt lat="40.896912" lon="-3.925480">
        <ele>1717.785</ele>
        <time>2021-07-28T18:49:24Z</time>
      </trkpt>
      <trkpt lat="40.896909" lon="-3.925520">
        <ele>1718.269</ele>
        <time>2021-07-28T18:49:26Z</time>
      </trkpt>
      <trkpt lat="40.896912" lon="-3.925557">
        <ele>1718.804</ele>
        <time>2021-07-28T18:49:28Z</time>
      </trkpt>
      <trkpt lat="40.896912" lon="-3.925587">
        <ele>1719.224</ele>
        <time>2021-07-28T18:49:30Z</time>
      </trkpt>
      <trkpt lat="40.896909" lon="-3.925620">
        <ele>1719.408</ele>
        <time>2021-07-28T18:49:32Z</time>
      </trkpt>
      <trkpt lat="40.896899" lon="-3.925652">
        <ele>1719.313</ele>
        <time>2021-07-28T18:49:34Z</time>
      </trkpt>
      <trkpt lat="40.896896" lon="-3.925685">
        <ele>1719.635</ele>
        <time>2021-07-28T18:49:36Z</time>
      </trkpt>
      <trkpt lat="40.896893" lon="-3.925708">
        <ele>1719.732</ele>
        <time>2021-07-28T18:49:38Z</time>
      </trkpt>
      <trkpt lat="40.896886" lon="-3.925735">
        <ele>1719.759</ele>
        <time>2021-07-28T18:49:40Z</time>
      </trkpt>
      <trkpt lat="40.896880" lon="-3.925767">
        <ele>1719.870</ele>
        <time>2021-07-28T18:49:42Z</time>
      </trkpt>
      <trkpt lat="40.896874" lon="-3.925802">
        <ele>1719.920</ele>
        <time>2021-07-28T18:49:44Z</time>
      </trkpt>
      <trkpt lat="40.896858" lon="-3.925826">
        <ele>1719.513</ele>
        <time>2021-07-28T18:49:46Z</time>
      </trkpt>
      <trkpt lat="40.896851" lon="-3.925858">
        <ele>1719.634</ele>
        <time>2021-07-28T18:49:48Z</time>
      </trkpt>
      <trkpt lat="40.896838" lon="-3.925887">
        <ele>1719.448</ele>
        <time>2021-07-28T18:49:50Z</time>
      </trkpt>
      <trkpt lat="40.896838" lon="-3.925915">
        <ele>1719.761</ele>
        <time>2021-07-28T18:49:52Z</time>
      </trkpt>
      <trkpt lat="40.896838" lon="-3.925947">
        <ele>1720.017</ele>
        <time>2021-07-28T18:49:54Z</time>
      </trkpt>
      <trkpt lat="40.896842" lon="-3.925987">
        <ele>1720.608</ele>
        <time>2021-07-28T18:49:56Z</time>
      </trkpt>
      <trkpt lat="40.896838" lon="-3.926014">
        <ele>1720.751</ele>
        <time>2021-07-28T18:49:58Z</time>
      </trkpt>
      <trkpt lat="40.896829" lon="-3.926040">
        <ele>1720.733</ele>
        <time>2021-07-28T18:50:00Z</time>
      </trkpt>
      <trkpt lat="40.896822" lon="-3.926083">
        <ele>1720.890</ele>
        <time>2021-07-28T18:50:02Z</time>
      </trkpt>
      <trkpt lat="40.896819" lon="-3.926120">
        <ele>1721.197</ele>
        <time>2021-07-28T18:50:04Z</time>
      </trkpt>
      <trkpt lat="40.896819" lon="-3.926154">
        <ele>1721.558</ele>
        <time>2021-07-28T18:50:08Z</time>
      </trkpt>
      <trkpt lat="40.896829" lon="-3.926185">
        <ele>1722.258</ele>
        <time>2021-07-28T18:50:11Z</time>
      </trkpt>
      <trkpt lat="40.896822" lon="-3.926210">
        <ele>1722.271</ele>
        <time>2021-07-28T18:50:13Z</time>
      </trkpt>
      <trkpt lat="40.896829" lon="-3.926238">
        <ele>1722.852</ele>
        <time>2021-07-28T18:50:16Z</time>
      </trkpt>
      <trkpt lat="40.896819" lon="-3.926273">
        <ele>1722.829</ele>
        <time>2021-07-28T18:50:19Z</time>
      </trkpt>
      <trkpt lat="40.896822" lon="-3.926303">
        <ele>1723.200</ele>
        <time>2021-07-28T18:50:21Z</time>
      </trkpt>
      <trkpt lat="40.896829" lon="-3.926334">
        <ele>1723.820</ele>
        <time>2021-07-28T18:50:23Z</time>
      </trkpt>
      <trkpt lat="40.896822" lon="-3.926365">
        <ele>1723.908</ele>
        <time>2021-07-28T18:50:25Z</time>
      </trkpt>
      <trkpt lat="40.896822" lon="-3.926397">
        <ele>1724.219</ele>
        <time>2021-07-28T18:50:28Z</time>
      </trkpt>
      <trkpt lat="40.896832" lon="-3.926420">
        <ele>1724.831</ele>
        <time>2021-07-28T18:50:31Z</time>
      </trkpt>
      <trkpt lat="40.896829" lon="-3.926457">
        <ele>1724.958</ele>
        <time>2021-07-28T18:50:34Z</time>
      </trkpt>
      <trkpt lat="40.896829" lon="-3.926492">
        <ele>1725.285</ele>
        <time>2021-07-28T18:50:36Z</time>
      </trkpt>
      <trkpt lat="40.896838" lon="-3.926526">
        <ele>1725.886</ele>
        <time>2021-07-28T18:50:38Z</time>
      </trkpt>
      <trkpt lat="40.896838" lon="-3.926563">
        <ele>1726.056</ele>
        <time>2021-07-28T18:50:40Z</time>
      </trkpt>
      <trkpt lat="40.896838" lon="-3.926590">
        <ele>1726.249</ele>
        <time>2021-07-28T18:50:43Z</time>
      </trkpt>
      <trkpt lat="40.896848" lon="-3.926618">
        <ele>1726.840</ele>
        <time>2021-07-28T18:50:45Z</time>
      </trkpt>
      <trkpt lat="40.896851" lon="-3.926657">
        <ele>1727.291</ele>
        <time>2021-07-28T18:50:48Z</time>
      </trkpt>
      <trkpt lat="40.896854" lon="-3.926692">
        <ele>1727.581</ele>
        <time>2021-07-28T18:50:52Z</time>
      </trkpt>
      <trkpt lat="40.896854" lon="-3.926726">
        <ele>1727.619</ele>
        <time>2021-07-28T18:50:55Z</time>
      </trkpt>
      <trkpt lat="40.896851" lon="-3.926755">
        <ele>1727.608</ele>
        <time>2021-07-28T18:50:58Z</time>
      </trkpt>
      <trkpt lat="40.896854" lon="-3.926783">
        <ele>1727.876</ele>
        <time>2021-07-28T18:51:01Z</time>
      </trkpt>
      <trkpt lat="40.896854" lon="-3.926817">
        <ele>1728.038</ele>
        <time>2021-07-28T18:51:04Z</time>
      </trkpt>
      <trkpt lat="40.896861" lon="-3.926844">
        <ele>1728.495</ele>
        <time>2021-07-28T18:51:06Z</time>
      </trkpt>
      <trkpt lat="40.896870" lon="-3.926865">
        <ele>1728.992</ele>
        <time>2021-07-28T18:51:08Z</time>
      </trkpt>
      <trkpt lat="40.896877" lon="-3.926898">
        <ele>1729.483</ele>
        <time>2021-07-28T18:51:11Z</time>
      </trkpt>
      <trkpt lat="40.896893" lon="-3.926925">
        <ele>1730.333</ele>
        <time>2021-07-28T18:51:15Z</time>
      </trkpt>
      <trkpt lat="40.896912" lon="-3.926935">
        <ele>1731.396</ele>
        <time>2021-07-28T18:51:17Z</time>
      </trkpt>
      <trkpt lat="40.896938" lon="-3.926948">
        <ele>1732.737</ele>
        <time>2021-07-28T18:51:20Z</time>
      </trkpt>
      <trkpt lat="40.896957" lon="-3.926947">
        <ele>1733.644</ele>
        <time>2021-07-28T18:51:22Z</time>
      </trkpt>
      <trkpt lat="40.896973" lon="-3.926933">
        <ele>1734.205</ele>
        <time>2021-07-28T18:51:24Z</time>
      </trkpt>
      <trkpt lat="40.896986" lon="-3.926910">
        <ele>1734.515</ele>
        <time>2021-07-28T18:51:26Z</time>
      </trkpt>
      <trkpt lat="40.896992" lon="-3.926885">
        <ele>1734.608</ele>
        <time>2021-07-28T18:51:28Z</time>
      </trkpt>
      <trkpt lat="40.896998" lon="-3.926854">
        <ele>1734.721</ele>
        <time>2021-07-28T18:51:30Z</time>
      </trkpt>
      <trkpt lat="40.897008" lon="-3.926825">
        <ele>1734.943</ele>
        <time>2021-07-28T18:51:32Z</time>
      </trkpt>
      <trkpt lat="40.897014" lon="-3.926795">
        <ele>1734.950</ele>
        <time>2021-07-28T18:51:34Z</time>
      </trkpt>
      <trkpt lat="40.897014" lon="-3.926763">
        <ele>1734.757</ele>
        <time>2021-07-28T18:51:36Z</time>
      </trkpt>
      <trkpt lat="40.897018" lon="-3.926724">
        <ele>1734.678</ele>
        <time>2021-07-28T18:51:38Z</time>
      </trkpt>
      <trkpt lat="40.897021" lon="-3.926697">
        <ele>1734.518</ele>
        <time>2021-07-28T18:51:40Z</time>
      </trkpt>
      <trkpt lat="40.897030" lon="-3.926665">
        <ele>1734.771</ele>
        <time>2021-07-28T18:51:42Z</time>
      </trkpt>
      <trkpt lat="40.897037" lon="-3.926637">
        <ele>1734.792</ele>
        <time>2021-07-28T18:51:44Z</time>
      </trkpt>
      <trkpt lat="40.897053" lon="-3.926610">
        <ele>1735.283</ele>
        <time>2021-07-28T18:51:46Z</time>
      </trkpt>
      <trkpt lat="40.897069" lon="-3.926582">
        <ele>1735.625</ele>
        <time>2021-07-28T18:51:48Z</time>
      </trkpt>
      <trkpt lat="40.897078" lon="-3.926545">
        <ele>1735.717</ele>
        <time>2021-07-28T18:51:50Z</time>
      </trkpt>
      <trkpt lat="40.897085" lon="-3.926506">
        <ele>1735.608</ele>
        <time>2021-07-28T18:51:52Z</time>
      </trkpt>
      <trkpt lat="40.897091" lon="-3.926473">
        <ele>1735.635</ele>
        <time>2021-07-28T18:51:54Z</time>
      </trkpt>
      <trkpt lat="40.897101" lon="-3.926452">
        <ele>1735.867</ele>
        <time>2021-07-28T18:51:56Z</time>
      </trkpt>
      <trkpt lat="40.897114" lon="-3.926428">
        <ele>1736.154</ele>
        <time>2021-07-28T18:51:57Z</time>
      </trkpt>
      <trkpt lat="40.897117" lon="-3.926395">
        <ele>1735.911</ele>
        <time>2021-07-28T18:51:58Z</time>
      </trkpt>
      <trkpt lat="40.897117" lon="-3.926368">
        <ele>1735.732</ele>
        <time>2021-07-28T18:52:00Z</time>
      </trkpt>
      <trkpt lat="40.897149" lon="-3.926350">
        <ele>1736.862</ele>
        <time>2021-07-28T18:52:02Z</time>
      </trkpt>
      <trkpt lat="40.897155" lon="-3.926315">
        <ele>1736.795</ele>
        <time>2021-07-28T18:52:04Z</time>
      </trkpt>
      <trkpt lat="40.897165" lon="-3.926280">
        <ele>1736.966</ele>
        <time>2021-07-28T18:52:06Z</time>
      </trkpt>
      <trkpt lat="40.897168" lon="-3.926250">
        <ele>1736.837</ele>
        <time>2021-07-28T18:52:08Z</time>
      </trkpt>
      <trkpt lat="40.897174" lon="-3.926215">
        <ele>1736.749</ele>
        <time>2021-07-28T18:52:11Z</time>
      </trkpt>
      <trkpt lat="40.897194" lon="-3.926200">
        <ele>1737.513</ele>
        <time>2021-07-28T18:52:13Z</time>
      </trkpt>
      <trkpt lat="40.897197" lon="-3.926162">
        <ele>1737.308</ele>
        <time>2021-07-28T18:52:15Z</time>
      </trkpt>
      <trkpt lat="40.897210" lon="-3.926142">
        <ele>1737.720</ele>
        <time>2021-07-28T18:52:17Z</time>
      </trkpt>
      <trkpt lat="40.897216" lon="-3.926108">
        <ele>1737.752</ele>
        <time>2021-07-28T18:52:19Z</time>
      </trkpt>
      <trkpt lat="40.897229" lon="-3.926085">
        <ele>1737.869</ele>
        <time>2021-07-28T18:52:22Z</time>
      </trkpt>
      <trkpt lat="40.897238" lon="-3.926063">
        <ele>1737.786</ele>
        <time>2021-07-28T18:52:24Z</time>
      </trkpt>
      <trkpt lat="40.897251" lon="-3.926040">
        <ele>1737.737</ele>
        <time>2021-07-28T18:52:26Z</time>
      </trkpt>
      <trkpt lat="40.897270" lon="-3.926015">
        <ele>1737.977</ele>
        <time>2021-07-28T18:52:28Z</time>
      </trkpt>
      <trkpt lat="40.897293" lon="-3.925992">
        <ele>1738.220</ele>
        <time>2021-07-28T18:52:30Z</time>
      </trkpt>
      <trkpt lat="40.897315" lon="-3.925968">
        <ele>1738.451</ele>
        <time>2021-07-28T18:52:32Z</time>
      </trkpt>
      <trkpt lat="40.897331" lon="-3.925957">
        <ele>1738.722</ele>
        <time>2021-07-28T18:52:33Z</time>
      </trkpt>
      <trkpt lat="40.897350" lon="-3.925933">
        <ele>1739.062</ele>
        <time>2021-07-28T18:52:35Z</time>
      </trkpt>
      <trkpt lat="40.897370" lon="-3.925920">
        <ele>1739.308</ele>
        <time>2021-07-28T18:52:37Z</time>
      </trkpt>
      <trkpt lat="40.897392" lon="-3.925903">
        <ele>1739.708</ele>
        <time>2021-07-28T18:52:39Z</time>
      </trkpt>
      <trkpt lat="40.897408" lon="-3.925892">
        <ele>1740.119</ele>
        <time>2021-07-28T18:52:40Z</time>
      </trkpt>
      <trkpt lat="40.897424" lon="-3.925870">
        <ele>1740.281</ele>
        <time>2021-07-28T18:52:42Z</time>
      </trkpt>
      <trkpt lat="40.897450" lon="-3.925856">
        <ele>1740.818</ele>
        <time>2021-07-28T18:52:44Z</time>
      </trkpt>
      <trkpt lat="40.897469" lon="-3.925842">
        <ele>1741.265</ele>
        <time>2021-07-28T18:52:46Z</time>
      </trkpt>
      <trkpt lat="40.897485" lon="-3.925813">
        <ele>1741.226</ele>
        <time>2021-07-28T18:52:48Z</time>
      </trkpt>
      <trkpt lat="40.897507" lon="-3.925790">
        <ele>1741.386</ele>
        <time>2021-07-28T18:52:50Z</time>
      </trkpt>
      <trkpt lat="40.897530" lon="-3.925760">
        <ele>1741.259</ele>
        <time>2021-07-28T18:52:52Z</time>
      </trkpt>
      <trkpt lat="40.897552" lon="-3.925748">
        <ele>1741.430</ele>
        <time>2021-07-28T18:52:55Z</time>
      </trkpt>
      <trkpt lat="40.897568" lon="-3.925735">
        <ele>1741.514</ele>
        <time>2021-07-28T18:52:57Z</time>
      </trkpt>
      <trkpt lat="40.897590" lon="-3.925710">
        <ele>1741.454</ele>
        <time>2021-07-28T18:52:59Z</time>
      </trkpt>
      <trkpt lat="40.897610" lon="-3.925692">
        <ele>1741.409</ele>
        <time>2021-07-28T18:53:01Z</time>
      </trkpt>
      <trkpt lat="40.897626" lon="-3.925665">
        <ele>1741.208</ele>
        <time>2021-07-28T18:53:03Z</time>
      </trkpt>
      <trkpt lat="40.897642" lon="-3.925645">
        <ele>1741.238</ele>
        <time>2021-07-28T18:53:05Z</time>
      </trkpt>
      <trkpt lat="40.897661" lon="-3.925634">
        <ele>1741.330</ele>
        <time>2021-07-28T18:53:07Z</time>
      </trkpt>
      <trkpt lat="40.897690" lon="-3.925632">
        <ele>1741.817</ele>
        <time>2021-07-28T18:53:10Z</time>
      </trkpt>
      <trkpt lat="40.897712" lon="-3.925638">
        <ele>1742.364</ele>
        <time>2021-07-28T18:53:12Z</time>
      </trkpt>
      <trkpt lat="40.897731" lon="-3.925655">
        <ele>1742.995</ele>
        <time>2021-07-28T18:53:14Z</time>
      </trkpt>
      <trkpt lat="40.897747" lon="-3.925683">
        <ele>1743.775</ele>
        <time>2021-07-28T18:53:17Z</time>
      </trkpt>
      <trkpt lat="40.897760" lon="-3.925707">
        <ele>1744.428</ele>
        <time>2021-07-28T18:53:19Z</time>
      </trkpt>
      <trkpt lat="40.897766" lon="-3.925745">
        <ele>1745.219</ele>
        <time>2021-07-28T18:53:22Z</time>
      </trkpt>
      <trkpt lat="40.897760" lon="-3.925777">
        <ele>1745.718</ele>
        <time>2021-07-28T18:53:25Z</time>
      </trkpt>
      <trkpt lat="40.897744" lon="-3.925792">
        <ele>1745.698</ele>
        <time>2021-07-28T18:53:27Z</time>
      </trkpt>
      <trkpt lat="40.897731" lon="-3.925812">
        <ele>1745.817</ele>
        <time>2021-07-28T18:53:29Z</time>
      </trkpt>
      <trkpt lat="40.897712" lon="-3.925828">
        <ele>1745.708</ele>
        <time>2021-07-28T18:53:31Z</time>
      </trkpt>
      <trkpt lat="40.897693" lon="-3.925840">
        <ele>1745.618</ele>
        <time>2021-07-28T18:53:33Z</time>
      </trkpt>
      <trkpt lat="40.897667" lon="-3.925860">
        <ele>1745.690</ele>
        <time>2021-07-28T18:53:36Z</time>
      </trkpt>
      <trkpt lat="40.897645" lon="-3.925880">
        <ele>1745.677</ele>
        <time>2021-07-28T18:53:39Z</time>
      </trkpt>
      <trkpt lat="40.897629" lon="-3.925893">
        <ele>1745.664</ele>
        <time>2021-07-28T18:53:41Z</time>
      </trkpt>
      <trkpt lat="40.897613" lon="-3.925913">
        <ele>1745.645</ele>
        <time>2021-07-28T18:53:43Z</time>
      </trkpt>
      <trkpt lat="40.897597" lon="-3.925943">
        <ele>1745.885</ele>
        <time>2021-07-28T18:53:46Z</time>
      </trkpt>
      <trkpt lat="40.897594" lon="-3.925967">
        <ele>1746.138</ele>
        <time>2021-07-28T18:53:48Z</time>
      </trkpt>
      <trkpt lat="40.897584" lon="-3.926000">
        <ele>1746.499</ele>
        <time>2021-07-28T18:53:51Z</time>
      </trkpt>
      <trkpt lat="40.897571" lon="-3.926026">
        <ele>1746.449</ele>
        <time>2021-07-28T18:53:53Z</time>
      </trkpt>
      <trkpt lat="40.897562" lon="-3.926047">
        <ele>1746.502</ele>
        <time>2021-07-28T18:53:55Z</time>
      </trkpt>
      <trkpt lat="40.897546" lon="-3.926072">
        <ele>1746.322</ele>
        <time>2021-07-28T18:53:58Z</time>
      </trkpt>
      <trkpt lat="40.897533" lon="-3.926092">
        <ele>1746.108</ele>
        <time>2021-07-28T18:54:00Z</time>
      </trkpt>
      <trkpt lat="40.897514" lon="-3.926115">
        <ele>1745.641</ele>
        <time>2021-07-28T18:54:02Z</time>
      </trkpt>
      <trkpt lat="40.897504" lon="-3.926145">
        <ele>1745.723</ele>
        <time>2021-07-28T18:54:04Z</time>
      </trkpt>
      <trkpt lat="40.897491" lon="-3.926173">
        <ele>1745.790</ele>
        <time>2021-07-28T18:54:06Z</time>
      </trkpt>
      <trkpt lat="40.897485" lon="-3.926210">
        <ele>1746.077</ele>
        <time>2021-07-28T18:54:09Z</time>
      </trkpt>
      <trkpt lat="40.897482" lon="-3.926240">
        <ele>1746.388</ele>
        <time>2021-07-28T18:54:11Z</time>
      </trkpt>
      <trkpt lat="40.897472" lon="-3.926265">
        <ele>1746.488</ele>
        <time>2021-07-28T18:54:13Z</time>
      </trkpt>
      <trkpt lat="40.897466" lon="-3.926300">
        <ele>1746.721</ele>
        <time>2021-07-28T18:54:16Z</time>
      </trkpt>
      <trkpt lat="40.897462" lon="-3.926324">
        <ele>1746.992</ele>
        <time>2021-07-28T18:54:18Z</time>
      </trkpt>
      <trkpt lat="40.897446" lon="-3.926352">
        <ele>1746.846</ele>
        <time>2021-07-28T18:54:20Z</time>
      </trkpt>
      <trkpt lat="40.897437" lon="-3.926374">
        <ele>1746.888</ele>
        <time>2021-07-28T18:54:22Z</time>
      </trkpt>
      <trkpt lat="40.897434" lon="-3.926407">
        <ele>1747.116</ele>
        <time>2021-07-28T18:54:24Z</time>
      </trkpt>
      <trkpt lat="40.897427" lon="-3.926432">
        <ele>1747.208</ele>
        <time>2021-07-28T18:54:26Z</time>
      </trkpt>
      <trkpt lat="40.897424" lon="-3.926457">
        <ele>1747.541</ele>
        <time>2021-07-28T18:54:28Z</time>
      </trkpt>
      <trkpt lat="40.897414" lon="-3.926482">
        <ele>1747.543</ele>
        <time>2021-07-28T18:54:30Z</time>
      </trkpt>
      <trkpt lat="40.897408" lon="-3.926506">
        <ele>1747.650</ele>
        <time>2021-07-28T18:54:32Z</time>
      </trkpt>
      <trkpt lat="40.897398" lon="-3.926536">
        <ele>1747.637</ele>
        <time>2021-07-28T18:54:34Z</time>
      </trkpt>
      <trkpt lat="40.897398" lon="-3.926565">
        <ele>1748.098</ele>
        <time>2021-07-28T18:54:36Z</time>
      </trkpt>
      <trkpt lat="40.897389" lon="-3.926593">
        <ele>1748.088</ele>
        <time>2021-07-28T18:54:38Z</time>
      </trkpt>
      <trkpt lat="40.897373" lon="-3.926630">
        <ele>1748.011</ele>
        <time>2021-07-28T18:54:41Z</time>
      </trkpt>
      <trkpt lat="40.897366" lon="-3.926658">
        <ele>1748.162</ele>
        <time>2021-07-28T18:54:43Z</time>
      </trkpt>
      <trkpt lat="40.897357" lon="-3.926682">
        <ele>1748.158</ele>
        <time>2021-07-28T18:54:45Z</time>
      </trkpt>
      <trkpt lat="40.897357" lon="-3.926710">
        <ele>1748.552</ele>
        <time>2021-07-28T18:54:47Z</time>
      </trkpt>
      <trkpt lat="40.897350" lon="-3.926738">
        <ele>1748.617</ele>
        <time>2021-07-28T18:54:49Z</time>
      </trkpt>
      <trkpt lat="40.897344" lon="-3.926773">
        <ele>1748.808</ele>
        <time>2021-07-28T18:54:51Z</time>
      </trkpt>
      <trkpt lat="40.897338" lon="-3.926800">
        <ele>1748.992</ele>
        <time>2021-07-28T18:54:53Z</time>
      </trkpt>
      <trkpt lat="40.897334" lon="-3.926827">
        <ele>1749.114</ele>
        <time>2021-07-28T18:54:55Z</time>
      </trkpt>
      <trkpt lat="40.897331" lon="-3.926858">
        <ele>1749.461</ele>
        <time>2021-07-28T18:54:57Z</time>
      </trkpt>
      <trkpt lat="40.897325" lon="-3.926888">
        <ele>1749.558</ele>
        <time>2021-07-28T18:54:59Z</time>
      </trkpt>
      <trkpt lat="40.897318" lon="-3.926922">
        <ele>1749.639</ele>
        <time>2021-07-28T18:55:01Z</time>
      </trkpt>
      <trkpt lat="40.897315" lon="-3.926963">
        <ele>1749.999</ele>
        <time>2021-07-28T18:55:04Z</time>
      </trkpt>
      <trkpt lat="40.897315" lon="-3.926992">
        <ele>1750.232</ele>
        <time>2021-07-28T18:55:06Z</time>
      </trkpt>
      <trkpt lat="40.897318" lon="-3.927024">
        <ele>1750.743</ele>
        <time>2021-07-28T18:55:08Z</time>
      </trkpt>
      <trkpt lat="40.897315" lon="-3.927058">
        <ele>1750.975</ele>
        <time>2021-07-28T18:55:10Z</time>
      </trkpt>
      <trkpt lat="40.897315" lon="-3.927085">
        <ele>1751.228</ele>
        <time>2021-07-28T18:55:12Z</time>
      </trkpt>
      <trkpt lat="40.897315" lon="-3.927117">
        <ele>1751.520</ele>
        <time>2021-07-28T18:55:14Z</time>
      </trkpt>
      <trkpt lat="40.897312" lon="-3.927143">
        <ele>1751.708</ele>
        <time>2021-07-28T18:55:16Z</time>
      </trkpt>
      <trkpt lat="40.897309" lon="-3.927180">
        <ele>1751.994</ele>
        <time>2021-07-28T18:55:18Z</time>
      </trkpt>
      <trkpt lat="40.897312" lon="-3.927207">
        <ele>1752.436</ele>
        <time>2021-07-28T18:55:20Z</time>
      </trkpt>
      <trkpt lat="40.897315" lon="-3.927238">
        <ele>1752.863</ele>
        <time>2021-07-28T18:55:22Z</time>
      </trkpt>
      <trkpt lat="40.897315" lon="-3.927266">
        <ele>1753.050</ele>
        <time>2021-07-28T18:55:24Z</time>
      </trkpt>
      <trkpt lat="40.897312" lon="-3.927298">
        <ele>1753.141</ele>
        <time>2021-07-28T18:55:26Z</time>
      </trkpt>
      <trkpt lat="40.897309" lon="-3.927327">
        <ele>1753.141</ele>
        <time>2021-07-28T18:55:28Z</time>
      </trkpt>
      <trkpt lat="40.897309" lon="-3.927360">
        <ele>1753.444</ele>
        <time>2021-07-28T18:55:30Z</time>
      </trkpt>
      <trkpt lat="40.897306" lon="-3.927390">
        <ele>1753.445</ele>
        <time>2021-07-28T18:55:32Z</time>
      </trkpt>
      <trkpt lat="40.897309" lon="-3.927415">
        <ele>1753.859</ele>
        <time>2021-07-28T18:55:34Z</time>
      </trkpt>
      <trkpt lat="40.897306" lon="-3.927452">
        <ele>1753.903</ele>
        <time>2021-07-28T18:55:36Z</time>
      </trkpt>
      <trkpt lat="40.897299" lon="-3.927482">
        <ele>1753.723</ele>
        <time>2021-07-28T18:55:38Z</time>
      </trkpt>
      <trkpt lat="40.897296" lon="-3.927513">
        <ele>1753.908</ele>
        <time>2021-07-28T18:55:40Z</time>
      </trkpt>
      <trkpt lat="40.897296" lon="-3.927542">
        <ele>1754.212</ele>
        <time>2021-07-28T18:55:42Z</time>
      </trkpt>
      <trkpt lat="40.897306" lon="-3.927573">
        <ele>1755.014</ele>
        <time>2021-07-28T18:55:44Z</time>
      </trkpt>
      <trkpt lat="40.897299" lon="-3.927608">
        <ele>1755.081</ele>
        <time>2021-07-28T18:55:46Z</time>
      </trkpt>
      <trkpt lat="40.897293" lon="-3.927635">
        <ele>1755.058</ele>
        <time>2021-07-28T18:55:48Z</time>
      </trkpt>
      <trkpt lat="40.897296" lon="-3.927663">
        <ele>1755.599</ele>
        <time>2021-07-28T18:55:50Z</time>
      </trkpt>
      <trkpt lat="40.897296" lon="-3.927693">
        <ele>1755.829</ele>
        <time>2021-07-28T18:55:52Z</time>
      </trkpt>
      <trkpt lat="40.897296" lon="-3.927727">
        <ele>1756.252</ele>
        <time>2021-07-28T18:55:54Z</time>
      </trkpt>
      <trkpt lat="40.897299" lon="-3.927760">
        <ele>1756.753</ele>
        <time>2021-07-28T18:55:56Z</time>
      </trkpt>
      <trkpt lat="40.897299" lon="-3.927788">
        <ele>1757.061</ele>
        <time>2021-07-28T18:55:58Z</time>
      </trkpt>
      <trkpt lat="40.897299" lon="-3.927828">
        <ele>1757.521</ele>
        <time>2021-07-28T18:56:01Z</time>
      </trkpt>
      <trkpt lat="40.897293" lon="-3.927863">
        <ele>1757.613</ele>
        <time>2021-07-28T18:56:03Z</time>
      </trkpt>
      <trkpt lat="40.897296" lon="-3.927897">
        <ele>1758.208</ele>
        <time>2021-07-28T18:56:05Z</time>
      </trkpt>
      <trkpt lat="40.897296" lon="-3.927926">
        <ele>1758.643</ele>
        <time>2021-07-28T18:56:07Z</time>
      </trkpt>
      <trkpt lat="40.897293" lon="-3.927955">
        <ele>1758.875</ele>
        <time>2021-07-28T18:56:09Z</time>
      </trkpt>
      <trkpt lat="40.897283" lon="-3.927978">
        <ele>1758.662</ele>
        <time>2021-07-28T18:56:11Z</time>
      </trkpt>
      <trkpt lat="40.897277" lon="-3.928008">
        <ele>1758.779</ele>
        <time>2021-07-28T18:56:13Z</time>
      </trkpt>
      <trkpt lat="40.897270" lon="-3.928040">
        <ele>1758.970</ele>
        <time>2021-07-28T18:56:15Z</time>
      </trkpt>
      <trkpt lat="40.897274" lon="-3.928072">
        <ele>1759.460</ele>
        <time>2021-07-28T18:56:17Z</time>
      </trkpt>
      <trkpt lat="40.897277" lon="-3.928097">
        <ele>1759.713</ele>
        <time>2021-07-28T18:56:18Z</time>
      </trkpt>
      <trkpt lat="40.897277" lon="-3.928127">
        <ele>1759.984</ele>
        <time>2021-07-28T18:56:20Z</time>
      </trkpt>
      <trkpt lat="40.897267" lon="-3.928162">
        <ele>1759.864</ele>
        <time>2021-07-28T18:56:23Z</time>
      </trkpt>
      <trkpt lat="40.897264" lon="-3.928187">
        <ele>1759.806</ele>
        <time>2021-07-28T18:56:25Z</time>
      </trkpt>
      <trkpt lat="40.897264" lon="-3.928218">
        <ele>1760.116</ele>
        <time>2021-07-28T18:56:27Z</time>
      </trkpt>
      <trkpt lat="40.897258" lon="-3.928247">
        <ele>1760.008</ele>
        <time>2021-07-28T18:56:29Z</time>
      </trkpt>
      <trkpt lat="40.897254" lon="-3.928275">
        <ele>1760.093</ele>
        <time>2021-07-28T18:56:31Z</time>
      </trkpt>
      <trkpt lat="40.897251" lon="-3.928300">
        <ele>1760.135</ele>
        <time>2021-07-28T18:56:33Z</time>
      </trkpt>
      <trkpt lat="40.897251" lon="-3.928328">
        <ele>1760.392</ele>
        <time>2021-07-28T18:56:35Z</time>
      </trkpt>
      <trkpt lat="40.897248" lon="-3.928358">
        <ele>1760.649</ele>
        <time>2021-07-28T18:56:38Z</time>
      </trkpt>
      <trkpt lat="40.897245" lon="-3.928383">
        <ele>1760.890</ele>
        <time>2021-07-28T18:56:40Z</time>
      </trkpt>
      <trkpt lat="40.897238" lon="-3.928417">
        <ele>1760.960</ele>
        <time>2021-07-28T18:56:43Z</time>
      </trkpt>
      <trkpt lat="40.897232" lon="-3.928444">
        <ele>1761.133</ele>
        <time>2021-07-28T18:56:45Z</time>
      </trkpt>
      <trkpt lat="40.897229" lon="-3.928478">
        <ele>1761.474</ele>
        <time>2021-07-28T18:56:48Z</time>
      </trkpt>
      <trkpt lat="40.897229" lon="-3.928503">
        <ele>1761.891</ele>
        <time>2021-07-28T18:56:50Z</time>
      </trkpt>
      <trkpt lat="40.897226" lon="-3.928535">
        <ele>1762.181</ele>
        <time>2021-07-28T18:56:53Z</time>
      </trkpt>
      <trkpt lat="40.897216" lon="-3.928560">
        <ele>1761.919</ele>
        <time>2021-07-28T18:56:55Z</time>
      </trkpt>
      <trkpt lat="40.897216" lon="-3.928598">
        <ele>1762.408</ele>
        <time>2021-07-28T18:56:58Z</time>
      </trkpt>
      <trkpt lat="40.897213" lon="-3.928628">
        <ele>1762.646</ele>
        <time>2021-07-28T18:57:00Z</time>
      </trkpt>
      <trkpt lat="40.897216" lon="-3.928658">
        <ele>1763.128</ele>
        <time>2021-07-28T18:57:02Z</time>
      </trkpt>
      <trkpt lat="40.897210" lon="-3.928693">
        <ele>1763.225</ele>
        <time>2021-07-28T18:57:05Z</time>
      </trkpt>
      <trkpt lat="40.897210" lon="-3.928718">
        <ele>1763.422</ele>
        <time>2021-07-28T18:57:07Z</time>
      </trkpt>
      <trkpt lat="40.897206" lon="-3.928748">
        <ele>1763.583</ele>
        <time>2021-07-28T18:57:10Z</time>
      </trkpt>
      <trkpt lat="40.897206" lon="-3.928784">
        <ele>1763.973</ele>
        <time>2021-07-28T18:57:13Z</time>
      </trkpt>
      <trkpt lat="40.897200" lon="-3.928817">
        <ele>1764.036</ele>
        <time>2021-07-28T18:57:16Z</time>
      </trkpt>
      <trkpt lat="40.897197" lon="-3.928850">
        <ele>1764.247</ele>
        <time>2021-07-28T18:57:19Z</time>
      </trkpt>
      <trkpt lat="40.897194" lon="-3.928878">
        <ele>1764.389</ele>
        <time>2021-07-28T18:57:21Z</time>
      </trkpt>
      <trkpt lat="40.897194" lon="-3.928907">
        <ele>1764.706</ele>
        <time>2021-07-28T18:57:23Z</time>
      </trkpt>
      <trkpt lat="40.897187" lon="-3.928943">
        <ele>1764.926</ele>
        <time>2021-07-28T18:57:26Z</time>
      </trkpt>
      <trkpt lat="40.897178" lon="-3.928966">
        <ele>1764.708</ele>
        <time>2021-07-28T18:57:28Z</time>
      </trkpt>
      <trkpt lat="40.897184" lon="-3.928995">
        <ele>1765.415</ele>
        <time>2021-07-28T18:57:30Z</time>
      </trkpt>
      <trkpt lat="40.897187" lon="-3.929020">
        <ele>1765.977</ele>
        <time>2021-07-28T18:57:32Z</time>
      </trkpt>
      <trkpt lat="40.897194" lon="-3.929048">
        <ele>1766.764</ele>
        <time>2021-07-28T18:57:35Z</time>
      </trkpt>
      <trkpt lat="40.897216" lon="-3.929057">
        <ele>1768.161</ele>
        <time>2021-07-28T18:57:38Z</time>
      </trkpt>
      <trkpt lat="40.897238" lon="-3.929040">
        <ele>1768.992</ele>
        <time>2021-07-28T18:57:41Z</time>
      </trkpt>
      <trkpt lat="40.897251" lon="-3.929018">
        <ele>1769.342</ele>
        <time>2021-07-28T18:57:43Z</time>
      </trkpt>
      <trkpt lat="40.897267" lon="-3.928993">
        <ele>1769.755</ele>
        <time>2021-07-28T18:57:45Z</time>
      </trkpt>
      <trkpt lat="40.897270" lon="-3.928963">
        <ele>1769.436</ele>
        <time>2021-07-28T18:57:47Z</time>
      </trkpt>
      <trkpt lat="40.897283" lon="-3.928937">
        <ele>1769.777</ele>
        <time>2021-07-28T18:57:49Z</time>
      </trkpt>
      <trkpt lat="40.897286" lon="-3.928907">
        <ele>1769.561</ele>
        <time>2021-07-28T18:57:51Z</time>
      </trkpt>
      <trkpt lat="40.897293" lon="-3.928875">
        <ele>1769.427</ele>
        <time>2021-07-28T18:57:53Z</time>
      </trkpt>
      <trkpt lat="40.897306" lon="-3.928843">
        <ele>1769.708</ele>
        <time>2021-07-28T18:57:55Z</time>
      </trkpt>
      <trkpt lat="40.897312" lon="-3.928815">
        <ele>1769.684</ele>
        <time>2021-07-28T18:57:57Z</time>
      </trkpt>
      <trkpt lat="40.897325" lon="-3.928790">
        <ele>1770.036</ele>
        <time>2021-07-28T18:57:59Z</time>
      </trkpt>
      <trkpt lat="40.897338" lon="-3.928760">
        <ele>1770.283</ele>
        <time>2021-07-28T18:58:01Z</time>
      </trkpt>
      <trkpt lat="40.897350" lon="-3.928728">
        <ele>1770.420</ele>
        <time>2021-07-28T18:58:03Z</time>
      </trkpt>
      <trkpt lat="40.897350" lon="-3.928697">
        <ele>1770.041</ele>
        <time>2021-07-28T18:58:05Z</time>
      </trkpt>
      <trkpt lat="40.897357" lon="-3.928662">
        <ele>1769.961</ele>
        <time>2021-07-28T18:58:07Z</time>
      </trkpt>
      <trkpt lat="40.897373" lon="-3.928642">
        <ele>1770.594</ele>
        <time>2021-07-28T18:58:09Z</time>
      </trkpt>
      <trkpt lat="40.897366" lon="-3.928607">
        <ele>1769.745</ele>
        <time>2021-07-28T18:58:11Z</time>
      </trkpt>
      <trkpt lat="40.897373" lon="-3.928578">
        <ele>1769.666</ele>
        <time>2021-07-28T18:58:13Z</time>
      </trkpt>
      <trkpt lat="40.897386" lon="-3.928548">
        <ele>1769.829</ele>
        <time>2021-07-28T18:58:15Z</time>
      </trkpt>
      <trkpt lat="40.897398" lon="-3.928520">
        <ele>1769.921</ele>
        <time>2021-07-28T18:58:17Z</time>
      </trkpt>
      <trkpt lat="40.897408" lon="-3.928495">
        <ele>1770.008</ele>
        <time>2021-07-28T18:58:19Z</time>
      </trkpt>
      <trkpt lat="40.897418" lon="-3.928455">
        <ele>1769.913</ele>
        <time>2021-07-28T18:58:21Z</time>
      </trkpt>
      <trkpt lat="40.897434" lon="-3.928425">
        <ele>1770.225</ele>
        <time>2021-07-28T18:58:23Z</time>
      </trkpt>
      <trkpt lat="40.897443" lon="-3.928388">
        <ele>1770.192</ele>
        <time>2021-07-28T18:58:25Z</time>
      </trkpt>
      <trkpt lat="40.897450" lon="-3.928357">
        <ele>1770.089</ele>
        <time>2021-07-28T18:58:27Z</time>
      </trkpt>
      <trkpt lat="40.897450" lon="-3.928323">
        <ele>1769.650</ele>
        <time>2021-07-28T18:58:29Z</time>
      </trkpt>
      <trkpt lat="40.897453" lon="-3.928293">
        <ele>1769.490</ele>
        <time>2021-07-28T18:58:31Z</time>
      </trkpt>
      <trkpt lat="40.897469" lon="-3.928263">
        <ele>1769.883</ele>
        <time>2021-07-28T18:58:33Z</time>
      </trkpt>
      <trkpt lat="40.897482" lon="-3.928230">
        <ele>1770.124</ele>
        <time>2021-07-28T18:58:35Z</time>
      </trkpt>
      <trkpt lat="40.897485" lon="-3.928203">
        <ele>1769.916</ele>
        <time>2021-07-28T18:58:37Z</time>
      </trkpt>
      <trkpt lat="40.897498" lon="-3.928172">
        <ele>1770.276</ele>
        <time>2021-07-28T18:58:39Z</time>
      </trkpt>
      <trkpt lat="40.897507" lon="-3.928143">
        <ele>1770.313</ele>
        <time>2021-07-28T18:58:41Z</time>
      </trkpt>
      <trkpt lat="40.897517" lon="-3.928108">
        <ele>1770.408</ele>
        <time>2021-07-28T18:58:44Z</time>
      </trkpt>
      <trkpt lat="40.897530" lon="-3.928080">
        <ele>1770.888</ele>
        <time>2021-07-28T18:58:46Z</time>
      </trkpt>
      <trkpt lat="40.897542" lon="-3.928047">
        <ele>1771.150</ele>
        <time>2021-07-28T18:58:48Z</time>
      </trkpt>
      <trkpt lat="40.897562" lon="-3.928013">
        <ele>1771.817</ele>
        <time>2021-07-28T18:58:50Z</time>
      </trkpt>
      <trkpt lat="40.897571" lon="-3.927973">
        <ele>1771.964</ele>
        <time>2021-07-28T18:58:53Z</time>
      </trkpt>
      <trkpt lat="40.897587" lon="-3.927948">
        <ele>1772.535</ele>
        <time>2021-07-28T18:58:55Z</time>
      </trkpt>
      <trkpt lat="40.897587" lon="-3.927922">
        <ele>1772.335</ele>
        <time>2021-07-28T18:58:57Z</time>
      </trkpt>
      <trkpt lat="40.897594" lon="-3.927892">
        <ele>1772.468</ele>
        <time>2021-07-28T18:58:59Z</time>
      </trkpt>
      <trkpt lat="40.897603" lon="-3.927865">
        <ele>1772.639</ele>
        <time>2021-07-28T18:59:01Z</time>
      </trkpt>
      <trkpt lat="40.897613" lon="-3.927838">
        <ele>1772.873</ele>
        <time>2021-07-28T18:59:03Z</time>
      </trkpt>
      <trkpt lat="40.897622" lon="-3.927803">
        <ele>1772.985</ele>
        <time>2021-07-28T18:59:05Z</time>
      </trkpt>
      <trkpt lat="40.897626" lon="-3.927767">
        <ele>1772.813</ele>
        <time>2021-07-28T18:59:07Z</time>
      </trkpt>
      <trkpt lat="40.897642" lon="-3.927747">
        <ele>1773.408</ele>
        <time>2021-07-28T18:59:09Z</time>
      </trkpt>
      <trkpt lat="40.897651" lon="-3.927722">
        <ele>1773.654</ele>
        <time>2021-07-28T18:59:11Z</time>
      </trkpt>
      <trkpt lat="40.897667" lon="-3.927690">
        <ele>1774.166</ele>
        <time>2021-07-28T18:59:13Z</time>
      </trkpt>
      <trkpt lat="40.897683" lon="-3.927660">
        <ele>1774.613</ele>
        <time>2021-07-28T18:59:16Z</time>
      </trkpt>
      <trkpt lat="40.897693" lon="-3.927630">
        <ele>1774.870</ele>
        <time>2021-07-28T18:59:18Z</time>
      </trkpt>
      <trkpt lat="40.897702" lon="-3.927605">
        <ele>1775.081</ele>
        <time>2021-07-28T18:59:20Z</time>
      </trkpt>
      <trkpt lat="40.897715" lon="-3.927568">
        <ele>1775.441</ele>
        <time>2021-07-28T18:59:23Z</time>
      </trkpt>
      <trkpt lat="40.897728" lon="-3.927542">
        <ele>1775.884</ele>
        <time>2021-07-28T18:59:25Z</time>
      </trkpt>
      <trkpt lat="40.897731" lon="-3.927513">
        <ele>1775.735</ele>
        <time>2021-07-28T18:59:27Z</time>
      </trkpt>
      <trkpt lat="40.897741" lon="-3.927487">
        <ele>1776.058</ele>
        <time>2021-07-28T18:59:29Z</time>
      </trkpt>
      <trkpt lat="40.897744" lon="-3.927457">
        <ele>1775.952</ele>
        <time>2021-07-28T18:59:31Z</time>
      </trkpt>
      <trkpt lat="40.897747" lon="-3.927418">
        <ele>1775.617</ele>
        <time>2021-07-28T18:59:33Z</time>
      </trkpt>
      <trkpt lat="40.897760" lon="-3.927400">
        <ele>1776.008</ele>
        <time>2021-07-28T18:59:34Z</time>
      </trkpt>
      <trkpt lat="40.897786" lon="-3.927380">
        <ele>1776.922</ele>
        <time>2021-07-28T18:59:36Z</time>
      </trkpt>
      <trkpt lat="40.897786" lon="-3.927342">
        <ele>1776.574</ele>
        <time>2021-07-28T18:59:38Z</time>
      </trkpt>
      <trkpt lat="40.897795" lon="-3.927313">
        <ele>1776.471</ele>
        <time>2021-07-28T18:59:40Z</time>
      </trkpt>
      <trkpt lat="40.897814" lon="-3.927285">
        <ele>1776.628</ele>
        <time>2021-07-28T18:59:42Z</time>
      </trkpt>
      <trkpt lat="40.897840" lon="-3.927263">
        <ele>1777.059</ele>
        <time>2021-07-28T18:59:44Z</time>
      </trkpt>
      <trkpt lat="40.897859" lon="-3.927255">
        <ele>1777.419</ele>
        <time>2021-07-28T18:59:45Z</time>
      </trkpt>
      <trkpt lat="40.897875" lon="-3.927230">
        <ele>1777.512</ele>
        <time>2021-07-28T18:59:48Z</time>
      </trkpt>
      <trkpt lat="40.897885" lon="-3.927205">
        <ele>1777.693</ele>
        <time>2021-07-28T18:59:50Z</time>
      </trkpt>
      <trkpt lat="40.897891" lon="-3.927182">
        <ele>1777.665</ele>
        <time>2021-07-28T18:59:52Z</time>
      </trkpt>
      <trkpt lat="40.897904" lon="-3.927155">
        <ele>1777.868</ele>
        <time>2021-07-28T18:59:54Z</time>
      </trkpt>
      <trkpt lat="40.897920" lon="-3.927128">
        <ele>1778.114</ele>
        <time>2021-07-28T18:59:58Z</time>
      </trkpt>
      <trkpt lat="40.897933" lon="-3.927108">
        <ele>1778.308</ele>
        <time>2021-07-28T19:00:00Z</time>
      </trkpt>
      <trkpt lat="40.897949" lon="-3.927090">
        <ele>1778.753</ele>
        <time>2021-07-28T19:00:02Z</time>
      </trkpt>
      <trkpt lat="40.897965" lon="-3.927076">
        <ele>1779.075</ele>
        <time>2021-07-28T19:00:04Z</time>
      </trkpt>
      <trkpt lat="40.897987" lon="-3.927062">
        <ele>1779.662</ele>
        <time>2021-07-28T19:00:06Z</time>
      </trkpt>
      <trkpt lat="40.898010" lon="-3.927052">
        <ele>1780.189</ele>
        <time>2021-07-28T19:00:08Z</time>
      </trkpt>
      <trkpt lat="40.898032" lon="-3.927040">
        <ele>1780.730</ele>
        <time>2021-07-28T19:00:11Z</time>
      </trkpt>
      <trkpt lat="40.898058" lon="-3.927027">
        <ele>1781.340</ele>
        <time>2021-07-28T19:00:14Z</time>
      </trkpt>
      <trkpt lat="40.898083" lon="-3.927017">
        <ele>1781.343</ele>
        <time>2021-07-28T19:00:17Z</time>
      </trkpt>
      <trkpt lat="40.898102" lon="-3.927020">
        <ele>1781.374</ele>
        <time>2021-07-28T19:00:19Z</time>
      </trkpt>
      <trkpt lat="40.898125" lon="-3.927022">
        <ele>1781.383</ele>
        <time>2021-07-28T19:00:21Z</time>
      </trkpt>
      <trkpt lat="40.898144" lon="-3.927030">
        <ele>1781.425</ele>
        <time>2021-07-28T19:00:23Z</time>
      </trkpt>
      <trkpt lat="40.898170" lon="-3.927047">
        <ele>1781.517</ele>
        <time>2021-07-28T19:00:26Z</time>
      </trkpt>
      <trkpt lat="40.898189" lon="-3.927064">
        <ele>1781.608</ele>
        <time>2021-07-28T19:00:28Z</time>
      </trkpt>
      <trkpt lat="40.898208" lon="-3.927086">
        <ele>1781.815</ele>
        <time>2021-07-28T19:00:30Z</time>
      </trkpt>
      <trkpt lat="40.898230" lon="-3.927105">
        <ele>1781.917</ele>
        <time>2021-07-28T19:00:33Z</time>
      </trkpt>
      <trkpt lat="40.898246" lon="-3.927122">
        <ele>1782.154</ele>
        <time>2021-07-28T19:00:35Z</time>
      </trkpt>
      <trkpt lat="40.898259" lon="-3.927142">
        <ele>1782.211</ele>
        <time>2021-07-28T19:00:37Z</time>
      </trkpt>
      <trkpt lat="40.898272" lon="-3.927165">
        <ele>1782.412</ele>
        <time>2021-07-28T19:00:39Z</time>
      </trkpt>
      <trkpt lat="40.898288" lon="-3.927188">
        <ele>1782.632</ele>
        <time>2021-07-28T19:00:41Z</time>
      </trkpt>
      <trkpt lat="40.898301" lon="-3.927213">
        <ele>1782.845</ele>
        <time>2021-07-28T19:00:43Z</time>
      </trkpt>
      <trkpt lat="40.898317" lon="-3.927243">
        <ele>1783.036</ele>
        <time>2021-07-28T19:00:45Z</time>
      </trkpt>
      <trkpt lat="40.898323" lon="-3.927280">
        <ele>1783.252</ele>
        <time>2021-07-28T19:00:47Z</time>
      </trkpt>
      <trkpt lat="40.898326" lon="-3.927312">
        <ele>1783.353</ele>
        <time>2021-07-28T19:00:49Z</time>
      </trkpt>
      <trkpt lat="40.898326" lon="-3.927340">
        <ele>1783.408</ele>
        <time>2021-07-28T19:00:51Z</time>
      </trkpt>
      <trkpt lat="40.898317" lon="-3.927370">
        <ele>1783.508</ele>
        <time>2021-07-28T19:00:53Z</time>
      </trkpt>
      <trkpt lat="40.898307" lon="-3.927404">
        <ele>1783.622</ele>
        <time>2021-07-28T19:00:55Z</time>
      </trkpt>
      <trkpt lat="40.898304" lon="-3.927436">
        <ele>1783.774</ele>
        <time>2021-07-28T19:00:58Z</time>
      </trkpt>
      <trkpt lat="40.898301" lon="-3.927462">
        <ele>1783.831</ele>
        <time>2021-07-28T19:01:00Z</time>
      </trkpt>
      <trkpt lat="40.898288" lon="-3.927488">
        <ele>1784.078</ele>
        <time>2021-07-28T19:01:02Z</time>
      </trkpt>
      <trkpt lat="40.898272" lon="-3.927522">
        <ele>1784.229</ele>
        <time>2021-07-28T19:01:04Z</time>
      </trkpt>
      <trkpt lat="40.898262" lon="-3.927544">
        <ele>1784.319</ele>
        <time>2021-07-28T19:01:06Z</time>
      </trkpt>
      <trkpt lat="40.898243" lon="-3.927565">
        <ele>1784.582</ele>
        <time>2021-07-28T19:01:08Z</time>
      </trkpt>
      <trkpt lat="40.898237" lon="-3.927590">
        <ele>1784.683</ele>
        <time>2021-07-28T19:01:10Z</time>
      </trkpt>
      <trkpt lat="40.898230" lon="-3.927622">
        <ele>1784.972</ele>
        <time>2021-07-28T19:01:12Z</time>
      </trkpt>
      <trkpt lat="40.898224" lon="-3.927653">
        <ele>1785.113</ele>
        <time>2021-07-28T19:01:14Z</time>
      </trkpt>
      <trkpt lat="40.898224" lon="-3.927678">
        <ele>1785.314</ele>
        <time>2021-07-28T19:01:16Z</time>
      </trkpt>
      <trkpt lat="40.898211" lon="-3.927702">
        <ele>1785.508</ele>
        <time>2021-07-28T19:01:18Z</time>
      </trkpt>
      <trkpt lat="40.898205" lon="-3.927732">
        <ele>1785.784</ele>
        <time>2021-07-28T19:01:20Z</time>
      </trkpt>
      <trkpt lat="40.898205" lon="-3.927768">
        <ele>1785.946</ele>
        <time>2021-07-28T19:01:22Z</time>
      </trkpt>
      <trkpt lat="40.898198" lon="-3.927803">
        <ele>1786.213</ele>
        <time>2021-07-28T19:01:24Z</time>
      </trkpt>
      <trkpt lat="40.898192" lon="-3.927828">
        <ele>1786.470</ele>
        <time>2021-07-28T19:01:26Z</time>
      </trkpt>
      <trkpt lat="40.898186" lon="-3.927858">
        <ele>1786.621</ele>
        <time>2021-07-28T19:01:28Z</time>
      </trkpt>
      <trkpt lat="40.898179" lon="-3.927888">
        <ele>1786.881</ele>
        <time>2021-07-28T19:01:30Z</time>
      </trkpt>
      <trkpt lat="40.898173" lon="-3.927918">
        <ele>1787.094</ele>
        <time>2021-07-28T19:01:32Z</time>
      </trkpt>
      <trkpt lat="40.898166" lon="-3.927948">
        <ele>1787.235</ele>
        <time>2021-07-28T19:01:34Z</time>
      </trkpt>
      <trkpt lat="40.898163" lon="-3.927963">
        <ele>1787.378</ele>
        <time>2021-07-28T19:01:35Z</time>
      </trkpt>
      <trkpt lat="40.898163" lon="-3.928043">
        <ele>1787.933</ele>
        <time>2021-07-28T19:01:40Z</time>
      </trkpt>
      <trkpt lat="40.898157" lon="-3.928085">
        <ele>1788.226</ele>
        <time>2021-07-28T19:01:42Z</time>
      </trkpt>
      <trkpt lat="40.898150" lon="-3.928108">
        <ele>1788.408</ele>
        <time>2021-07-28T19:01:44Z</time>
      </trkpt>
      <trkpt lat="40.898150" lon="-3.928140">
        <ele>1788.634</ele>
        <time>2021-07-28T19:01:46Z</time>
      </trkpt>
      <trkpt lat="40.898147" lon="-3.928178">
        <ele>1788.916</ele>
        <time>2021-07-28T19:01:49Z</time>
      </trkpt>
      <trkpt lat="40.898144" lon="-3.928208">
        <ele>1789.163</ele>
        <time>2021-07-28T19:01:51Z</time>
      </trkpt>
      <trkpt lat="40.898141" lon="-3.928247">
        <ele>1789.490</ele>
        <time>2021-07-28T19:01:54Z</time>
      </trkpt>
      <trkpt lat="40.898131" lon="-3.928276">
        <ele>1789.641</ele>
        <time>2021-07-28T19:01:56Z</time>
      </trkpt>
      <trkpt lat="40.898131" lon="-3.928303">
        <ele>1789.881</ele>
        <time>2021-07-28T19:01:58Z</time>
      </trkpt>
      <trkpt lat="40.898131" lon="-3.928328">
        <ele>1790.034</ele>
        <time>2021-07-28T19:02:00Z</time>
      </trkpt>
      <trkpt lat="40.898131" lon="-3.928357">
        <ele>1790.315</ele>
        <time>2021-07-28T19:02:02Z</time>
      </trkpt>
      <trkpt lat="40.898138" lon="-3.928393">
        <ele>1790.671</ele>
        <time>2021-07-28T19:02:04Z</time>
      </trkpt>
      <trkpt lat="40.898131" lon="-3.928428">
        <ele>1791.041</ele>
        <time>2021-07-28T19:02:06Z</time>
      </trkpt>
      <trkpt lat="40.898128" lon="-3.928457">
        <ele>1791.315</ele>
        <time>2021-07-28T19:02:08Z</time>
      </trkpt>
      <trkpt lat="40.898125" lon="-3.928490">
        <ele>1791.708</ele>
        <time>2021-07-28T19:02:10Z</time>
      </trkpt>
      <trkpt lat="40.898125" lon="-3.928517">
        <ele>1792.014</ele>
        <time>2021-07-28T19:02:12Z</time>
      </trkpt>
      <trkpt lat="40.898128" lon="-3.928555">
        <ele>1792.466</ele>
        <time>2021-07-28T19:02:14Z</time>
      </trkpt>
      <trkpt lat="40.898138" lon="-3.928587">
        <ele>1792.793</ele>
        <time>2021-07-28T19:02:16Z</time>
      </trkpt>
      <trkpt lat="40.898150" lon="-3.928613">
        <ele>1793.040</ele>
        <time>2021-07-28T19:02:18Z</time>
      </trkpt>
      <trkpt lat="40.898163" lon="-3.928638">
        <ele>1793.491</ele>
        <time>2021-07-28T19:02:20Z</time>
      </trkpt>
      <trkpt lat="40.898166" lon="-3.928672">
        <ele>1793.971</ele>
        <time>2021-07-28T19:02:22Z</time>
      </trkpt>
      <trkpt lat="40.898179" lon="-3.928707">
        <ele>1794.414</ele>
        <time>2021-07-28T19:02:24Z</time>
      </trkpt>
      <trkpt lat="40.898192" lon="-3.928735">
        <ele>1794.845</ele>
        <time>2021-07-28T19:02:26Z</time>
      </trkpt>
      <trkpt lat="40.898205" lon="-3.928753">
        <ele>1795.018</ele>
        <time>2021-07-28T19:02:28Z</time>
      </trkpt>
      <trkpt lat="40.898208" lon="-3.928784">
        <ele>1795.598</ele>
        <time>2021-07-28T19:02:30Z</time>
      </trkpt>
      <trkpt lat="40.898224" lon="-3.928818">
        <ele>1796.017</ele>
        <time>2021-07-28T19:02:32Z</time>
      </trkpt>
      <trkpt lat="40.898240" lon="-3.928840">
        <ele>1796.308</ele>
        <time>2021-07-28T19:02:34Z</time>
      </trkpt>
      <trkpt lat="40.898262" lon="-3.928857">
        <ele>1796.548</ele>
        <time>2021-07-28T19:02:36Z</time>
      </trkpt>
      <trkpt lat="40.898278" lon="-3.928868">
        <ele>1796.760</ele>
        <time>2021-07-28T19:02:37Z</time>
      </trkpt>
      <trkpt lat="40.898301" lon="-3.928888">
        <ele>1797.047</ele>
        <time>2021-07-28T19:02:39Z</time>
      </trkpt>
      <trkpt lat="40.898310" lon="-3.928913">
        <ele>1797.444</ele>
        <time>2021-07-28T19:02:42Z</time>
      </trkpt>
      <trkpt lat="40.898326" lon="-3.928927">
        <ele>1797.775</ele>
        <time>2021-07-28T19:02:43Z</time>
      </trkpt>
      <trkpt lat="40.898349" lon="-3.928954">
        <ele>1798.195</ele>
        <time>2021-07-28T19:02:46Z</time>
      </trkpt>
      <trkpt lat="40.898352" lon="-3.928995">
        <ele>1798.988</ele>
        <time>2021-07-28T19:02:48Z</time>
      </trkpt>
      <trkpt lat="40.898365" lon="-3.929025">
        <ele>1799.469</ele>
        <time>2021-07-28T19:02:50Z</time>
      </trkpt>
      <trkpt lat="40.898378" lon="-3.929052">
        <ele>1799.967</ele>
        <time>2021-07-28T19:02:52Z</time>
      </trkpt>
      <trkpt lat="40.898397" lon="-3.929077">
        <ele>1800.381</ele>
        <time>2021-07-28T19:02:54Z</time>
      </trkpt>
      <trkpt lat="40.898419" lon="-3.929100">
        <ele>1800.719</ele>
        <time>2021-07-28T19:02:57Z</time>
      </trkpt>
      <trkpt lat="40.898438" lon="-3.929112">
        <ele>1800.908</ele>
        <time>2021-07-28T19:02:59Z</time>
      </trkpt>
      <trkpt lat="40.898461" lon="-3.929125">
        <ele>1801.273</ele>
        <time>2021-07-28T19:03:01Z</time>
      </trkpt>
      <trkpt lat="40.898486" lon="-3.929130">
        <ele>1801.355</ele>
        <time>2021-07-28T19:03:03Z</time>
      </trkpt>
      <trkpt lat="40.898506" lon="-3.929138">
        <ele>1801.462</ele>
        <time>2021-07-28T19:03:05Z</time>
      </trkpt>
      <trkpt lat="40.898522" lon="-3.929152">
        <ele>1801.769</ele>
        <time>2021-07-28T19:03:07Z</time>
      </trkpt>
      <trkpt lat="40.898547" lon="-3.929160">
        <ele>1801.940</ele>
        <time>2021-07-28T19:03:10Z</time>
      </trkpt>
      <trkpt lat="40.898576" lon="-3.929160">
        <ele>1801.980</ele>
        <time>2021-07-28T19:03:12Z</time>
      </trkpt>
      <trkpt lat="40.898586" lon="-3.929182">
        <ele>1802.563</ele>
        <time>2021-07-28T19:03:14Z</time>
      </trkpt>
      <trkpt lat="40.898608" lon="-3.929185">
        <ele>1802.684</ele>
        <time>2021-07-28T19:03:16Z</time>
      </trkpt>
      <trkpt lat="40.898627" lon="-3.929177">
        <ele>1802.359</ele>
        <time>2021-07-28T19:03:18Z</time>
      </trkpt>
      <trkpt lat="40.898646" lon="-3.929188">
        <ele>1802.703</ele>
        <time>2021-07-28T19:03:20Z</time>
      </trkpt>
      <trkpt lat="40.898675" lon="-3.929196">
        <ele>1802.923</ele>
        <time>2021-07-28T19:03:22Z</time>
      </trkpt>
      <trkpt lat="40.898698" lon="-3.929203">
        <ele>1803.108</ele>
        <time>2021-07-28T19:03:24Z</time>
      </trkpt>
      <trkpt lat="40.898720" lon="-3.929202">
        <ele>1803.172</ele>
        <time>2021-07-28T19:03:26Z</time>
      </trkpt>
      <trkpt lat="40.898746" lon="-3.929212">
        <ele>1803.474</ele>
        <time>2021-07-28T19:03:29Z</time>
      </trkpt>
      <trkpt lat="40.898774" lon="-3.929220">
        <ele>1803.691</ele>
        <time>2021-07-28T19:03:32Z</time>
      </trkpt>
      <trkpt lat="40.898800" lon="-3.929235">
        <ele>1804.098</ele>
        <time>2021-07-28T19:03:34Z</time>
      </trkpt>
      <trkpt lat="40.898822" lon="-3.929245">
        <ele>1804.399</ele>
        <time>2021-07-28T19:03:37Z</time>
      </trkpt>
      <trkpt lat="40.898842" lon="-3.929253">
        <ele>1804.569</ele>
        <time>2021-07-28T19:03:39Z</time>
      </trkpt>
      <trkpt lat="40.898858" lon="-3.929267">
        <ele>1804.952</ele>
        <time>2021-07-28T19:03:41Z</time>
      </trkpt>
      <trkpt lat="40.898864" lon="-3.929292">
        <ele>1805.713</ele>
        <time>2021-07-28T19:03:43Z</time>
      </trkpt>
      <trkpt lat="40.898867" lon="-3.929315">
        <ele>1806.354</ele>
        <time>2021-07-28T19:03:45Z</time>
      </trkpt>
      <trkpt lat="40.898861" lon="-3.929345">
        <ele>1807.256</ele>
        <time>2021-07-28T19:03:48Z</time>
      </trkpt>
      <trkpt lat="40.898838" lon="-3.929366">
        <ele>1807.911</ele>
        <time>2021-07-28T19:03:51Z</time>
      </trkpt>
      <trkpt lat="40.898819" lon="-3.929373">
        <ele>1808.108</ele>
        <time>2021-07-28T19:03:53Z</time>
      </trkpt>
      <trkpt lat="40.898797" lon="-3.929375">
        <ele>1808.232</ele>
        <time>2021-07-28T19:03:55Z</time>
      </trkpt>
      <trkpt lat="40.898768" lon="-3.929372">
        <ele>1808.274</ele>
        <time>2021-07-28T19:03:57Z</time>
      </trkpt>
      <trkpt lat="40.898746" lon="-3.929377">
        <ele>1808.481</ele>
        <time>2021-07-28T19:03:59Z</time>
      </trkpt>
      <trkpt lat="40.898720" lon="-3.929373">
        <ele>1808.418</ele>
        <time>2021-07-28T19:04:01Z</time>
      </trkpt>
      <trkpt lat="40.898698" lon="-3.929362">
        <ele>1808.189</ele>
        <time>2021-07-28T19:04:03Z</time>
      </trkpt>
      <trkpt lat="40.898675" lon="-3.929356">
        <ele>1808.059</ele>
        <time>2021-07-28T19:04:05Z</time>
      </trkpt>
      <trkpt lat="40.898656" lon="-3.929353">
        <ele>1807.952</ele>
        <time>2021-07-28T19:04:07Z</time>
      </trkpt>
      <trkpt lat="40.898634" lon="-3.929355">
        <ele>1808.023</ele>
        <time>2021-07-28T19:04:09Z</time>
      </trkpt>
      <trkpt lat="40.898608" lon="-3.929350">
        <ele>1807.916</ele>
        <time>2021-07-28T19:04:11Z</time>
      </trkpt>
      <trkpt lat="40.898582" lon="-3.929350">
        <ele>1807.776</ele>
        <time>2021-07-28T19:04:13Z</time>
      </trkpt>
      <trkpt lat="40.898563" lon="-3.929356">
        <ele>1807.813</ele>
        <time>2021-07-28T19:04:15Z</time>
      </trkpt>
      <trkpt lat="40.898534" lon="-3.929353">
        <ele>1807.508</ele>
        <time>2021-07-28T19:04:17Z</time>
      </trkpt>
      <trkpt lat="40.898506" lon="-3.929358">
        <ele>1807.438</ele>
        <time>2021-07-28T19:04:20Z</time>
      </trkpt>
      <trkpt lat="40.898483" lon="-3.929353">
        <ele>1807.160</ele>
        <time>2021-07-28T19:04:22Z</time>
      </trkpt>
      <trkpt lat="40.898458" lon="-3.929366">
        <ele>1807.337</ele>
        <time>2021-07-28T19:04:25Z</time>
      </trkpt>
      <trkpt lat="40.898435" lon="-3.929368">
        <ele>1807.114</ele>
        <time>2021-07-28T19:04:27Z</time>
      </trkpt>
      <trkpt lat="40.898410" lon="-3.929370">
        <ele>1807.035</ele>
        <time>2021-07-28T19:04:29Z</time>
      </trkpt>
      <trkpt lat="40.898390" lon="-3.929370">
        <ele>1806.875</ele>
        <time>2021-07-28T19:04:31Z</time>
      </trkpt>
      <trkpt lat="40.898371" lon="-3.929377">
        <ele>1806.998</ele>
        <time>2021-07-28T19:04:33Z</time>
      </trkpt>
      <trkpt lat="40.898346" lon="-3.929382">
        <ele>1806.869</ele>
        <time>2021-07-28T19:04:35Z</time>
      </trkpt>
      <trkpt lat="40.898323" lon="-3.929390">
        <ele>1806.861</ele>
        <time>2021-07-28T19:04:37Z</time>
      </trkpt>
      <trkpt lat="40.898298" lon="-3.929402">
        <ele>1806.821</ele>
        <time>2021-07-28T19:04:40Z</time>
      </trkpt>
      <trkpt lat="40.898269" lon="-3.929413">
        <ele>1806.913</ele>
        <time>2021-07-28T19:04:43Z</time>
      </trkpt>
      <trkpt lat="40.898246" lon="-3.929413">
        <ele>1806.708</ele>
        <time>2021-07-28T19:04:45Z</time>
      </trkpt>
      <trkpt lat="40.898224" lon="-3.929412">
        <ele>1806.643</ele>
        <time>2021-07-28T19:04:47Z</time>
      </trkpt>
      <trkpt lat="40.898198" lon="-3.929422">
        <ele>1806.665</ele>
        <time>2021-07-28T19:04:49Z</time>
      </trkpt>
      <trkpt lat="40.898179" lon="-3.929430">
        <ele>1806.652</ele>
        <time>2021-07-28T19:04:51Z</time>
      </trkpt>
      <trkpt lat="40.898157" lon="-3.929438">
        <ele>1806.669</ele>
        <time>2021-07-28T19:04:53Z</time>
      </trkpt>
      <trkpt lat="40.898131" lon="-3.929455">
        <ele>1806.890</ele>
        <time>2021-07-28T19:04:55Z</time>
      </trkpt>
      <trkpt lat="40.898112" lon="-3.929472">
        <ele>1807.290</ele>
        <time>2021-07-28T19:04:57Z</time>
      </trkpt>
      <trkpt lat="40.898093" lon="-3.929487">
        <ele>1807.443</ele>
        <time>2021-07-28T19:04:59Z</time>
      </trkpt>
      <trkpt lat="40.898074" lon="-3.929505">
        <ele>1807.774</ele>
        <time>2021-07-28T19:05:01Z</time>
      </trkpt>
      <trkpt lat="40.898058" lon="-3.929527">
        <ele>1808.131</ele>
        <time>2021-07-28T19:05:03Z</time>
      </trkpt>
      <trkpt lat="40.898038" lon="-3.929548">
        <ele>1808.261</ele>
        <time>2021-07-28T19:05:05Z</time>
      </trkpt>
      <trkpt lat="40.898019" lon="-3.929573">
        <ele>1808.407</ele>
        <time>2021-07-28T19:05:07Z</time>
      </trkpt>
      <trkpt lat="40.898000" lon="-3.929592">
        <ele>1808.408</ele>
        <time>2021-07-28T19:05:09Z</time>
      </trkpt>
      <trkpt lat="40.897984" lon="-3.929612">
        <ele>1808.510</ele>
        <time>2021-07-28T19:05:11Z</time>
      </trkpt>
      <trkpt lat="40.897965" lon="-3.929635">
        <ele>1808.632</ele>
        <time>2021-07-28T19:05:13Z</time>
      </trkpt>
      <trkpt lat="40.897952" lon="-3.929657">
        <ele>1808.849</ele>
        <time>2021-07-28T19:05:15Z</time>
      </trkpt>
      <trkpt lat="40.897933" lon="-3.929690">
        <ele>1809.256</ele>
        <time>2021-07-28T19:05:18Z</time>
      </trkpt>
      <trkpt lat="40.897923" lon="-3.929716">
        <ele>1809.527</ele>
        <time>2021-07-28T19:05:20Z</time>
      </trkpt>
      <trkpt lat="40.897914" lon="-3.929740">
        <ele>1809.977</ele>
        <time>2021-07-28T19:05:22Z</time>
      </trkpt>
      <trkpt lat="40.897907" lon="-3.929768">
        <ele>1810.470</ele>
        <time>2021-07-28T19:05:24Z</time>
      </trkpt>
      <trkpt lat="40.897914" lon="-3.929795">
        <ele>1811.331</ele>
        <time>2021-07-28T19:05:26Z</time>
      </trkpt>
      <trkpt lat="40.897923" lon="-3.929817">
        <ele>1812.127</ele>
        <time>2021-07-28T19:05:28Z</time>
      </trkpt>
      <trkpt lat="40.897939" lon="-3.929840">
        <ele>1813.168</ele>
        <time>2021-07-28T19:05:30Z</time>
      </trkpt>
      <trkpt lat="40.897958" lon="-3.929855">
        <ele>1814.014</ele>
        <time>2021-07-28T19:05:32Z</time>
      </trkpt>
      <trkpt lat="40.897981" lon="-3.929855">
        <ele>1814.708</ele>
        <time>2021-07-28T19:05:34Z</time>
      </trkpt>
      <trkpt lat="40.898003" lon="-3.929857">
        <ele>1815.469</ele>
        <time>2021-07-28T19:05:36Z</time>
      </trkpt>
      <trkpt lat="40.898022" lon="-3.929844">
        <ele>1815.661</ele>
        <time>2021-07-28T19:05:38Z</time>
      </trkpt>
      <trkpt lat="40.898045" lon="-3.929830">
        <ele>1815.848</ele>
        <time>2021-07-28T19:05:40Z</time>
      </trkpt>
      <trkpt lat="40.898064" lon="-3.929812">
        <ele>1815.855</ele>
        <time>2021-07-28T19:05:42Z</time>
      </trkpt>
      <trkpt lat="40.898086" lon="-3.929793">
        <ele>1815.726</ele>
        <time>2021-07-28T19:05:44Z</time>
      </trkpt>
      <trkpt lat="40.898106" lon="-3.929778">
        <ele>1815.756</ele>
        <time>2021-07-28T19:05:46Z</time>
      </trkpt>
      <trkpt lat="40.898125" lon="-3.929762">
        <ele>1815.789</ele>
        <time>2021-07-28T19:05:48Z</time>
      </trkpt>
      <trkpt lat="40.898144" lon="-3.929740">
        <ele>1815.430</ele>
        <time>2021-07-28T19:05:50Z</time>
      </trkpt>
      <trkpt lat="40.898160" lon="-3.929727">
        <ele>1815.446</ele>
        <time>2021-07-28T19:05:51Z</time>
      </trkpt>
      <trkpt lat="40.898179" lon="-3.929710">
        <ele>1815.388</ele>
        <time>2021-07-28T19:05:53Z</time>
      </trkpt>
      <trkpt lat="40.898202" lon="-3.929695">
        <ele>1815.316</ele>
        <time>2021-07-28T19:05:55Z</time>
      </trkpt>
      <trkpt lat="40.898221" lon="-3.929683">
        <ele>1815.208</ele>
        <time>2021-07-28T19:05:57Z</time>
      </trkpt>
      <trkpt lat="40.898243" lon="-3.929672">
        <ele>1815.361</ele>
        <time>2021-07-28T19:05:59Z</time>
      </trkpt>
      <trkpt lat="40.898269" lon="-3.929668">
        <ele>1815.613</ele>
        <time>2021-07-28T19:06:01Z</time>
      </trkpt>
      <trkpt lat="40.898288" lon="-3.929670">
        <ele>1816.150</ele>
        <time>2021-07-28T19:06:03Z</time>
      </trkpt>
      <trkpt lat="40.898307" lon="-3.929666">
        <ele>1816.367</ele>
        <time>2021-07-28T19:06:05Z</time>
      </trkpt>
      <trkpt lat="40.898336" lon="-3.929668">
        <ele>1816.988</ele>
        <time>2021-07-28T19:06:07Z</time>
      </trkpt>
      <trkpt lat="40.898358" lon="-3.929678">
        <ele>1817.468</ele>
        <time>2021-07-28T19:06:09Z</time>
      </trkpt>
      <trkpt lat="40.898378" lon="-3.929682">
        <ele>1817.851</ele>
        <time>2021-07-28T19:06:11Z</time>
      </trkpt>
      <trkpt lat="40.898403" lon="-3.929696">
        <ele>1818.542</ele>
        <time>2021-07-28T19:06:14Z</time>
      </trkpt>
      <trkpt lat="40.898426" lon="-3.929700">
        <ele>1818.891</ele>
        <time>2021-07-28T19:06:16Z</time>
      </trkpt>
      <trkpt lat="40.898448" lon="-3.929708">
        <ele>1819.381</ele>
        <time>2021-07-28T19:06:18Z</time>
      </trkpt>
      <trkpt lat="40.898470" lon="-3.929718">
        <ele>1819.819</ele>
        <time>2021-07-28T19:06:20Z</time>
      </trkpt>
      <trkpt lat="40.898496" lon="-3.929732">
        <ele>1820.508</ele>
        <time>2021-07-28T19:06:22Z</time>
      </trkpt>
      <trkpt lat="40.898522" lon="-3.929750">
        <ele>1821.266</ele>
        <time>2021-07-28T19:06:25Z</time>
      </trkpt>
      <trkpt lat="40.898541" lon="-3.929767">
        <ele>1821.828</ele>
        <time>2021-07-28T19:06:27Z</time>
      </trkpt>
      <trkpt lat="40.898560" lon="-3.929783">
        <ele>1822.475</ele>
        <time>2021-07-28T19:06:29Z</time>
      </trkpt>
      <trkpt lat="40.898579" lon="-3.929800">
        <ele>1823.062</ele>
        <time>2021-07-28T19:06:31Z</time>
      </trkpt>
      <trkpt lat="40.898602" lon="-3.929815">
        <ele>1823.693</ele>
        <time>2021-07-28T19:06:33Z</time>
      </trkpt>
      <trkpt lat="40.898621" lon="-3.929825">
        <ele>1823.973</ele>
        <time>2021-07-28T19:06:35Z</time>
      </trkpt>
      <trkpt lat="40.898646" lon="-3.929837">
        <ele>1824.126</ele>
        <time>2021-07-28T19:06:37Z</time>
      </trkpt>
      <trkpt lat="40.898669" lon="-3.929857">
        <ele>1824.647</ele>
        <time>2021-07-28T19:06:40Z</time>
      </trkpt>
      <trkpt lat="40.898694" lon="-3.929874">
        <ele>1824.962</ele>
        <time>2021-07-28T19:06:42Z</time>
      </trkpt>
      <trkpt lat="40.898714" lon="-3.929890">
        <ele>1825.383</ele>
        <time>2021-07-28T19:06:44Z</time>
      </trkpt>
      <trkpt lat="40.898733" lon="-3.929912">
        <ele>1825.911</ele>
        <time>2021-07-28T19:06:46Z</time>
      </trkpt>
      <trkpt lat="40.898749" lon="-3.929925">
        <ele>1826.208</ele>
        <time>2021-07-28T19:06:48Z</time>
      </trkpt>
      <trkpt lat="40.898768" lon="-3.929933">
        <ele>1826.433</ele>
        <time>2021-07-28T19:06:50Z</time>
      </trkpt>
      <trkpt lat="40.898794" lon="-3.929942">
        <ele>1826.585</ele>
        <time>2021-07-28T19:06:53Z</time>
      </trkpt>
      <trkpt lat="40.898816" lon="-3.929953">
        <ele>1826.882</ele>
        <time>2021-07-28T19:06:55Z</time>
      </trkpt>
      <trkpt lat="40.898835" lon="-3.929972">
        <ele>1827.389</ele>
        <time>2021-07-28T19:06:57Z</time>
      </trkpt>
      <trkpt lat="40.898854" lon="-3.929987">
        <ele>1827.710</ele>
        <time>2021-07-28T19:06:59Z</time>
      </trkpt>
      <trkpt lat="40.898874" lon="-3.929978">
        <ele>1827.320</ele>
        <time>2021-07-28T19:07:01Z</time>
      </trkpt>
      <trkpt lat="40.898893" lon="-3.929985">
        <ele>1827.593</ele>
        <time>2021-07-28T19:07:03Z</time>
      </trkpt>
      <trkpt lat="40.898912" lon="-3.929990">
        <ele>1827.354</ele>
        <time>2021-07-28T19:07:05Z</time>
      </trkpt>
      <trkpt lat="40.898934" lon="-3.929998">
        <ele>1827.342</ele>
        <time>2021-07-28T19:07:07Z</time>
      </trkpt>
      <trkpt lat="40.898954" lon="-3.930007">
        <ele>1827.322</ele>
        <time>2021-07-28T19:07:09Z</time>
      </trkpt>
      <trkpt lat="40.898973" lon="-3.930012">
        <ele>1827.114</ele>
        <time>2021-07-28T19:07:11Z</time>
      </trkpt>
      <trkpt lat="40.898998" lon="-3.930023">
        <ele>1827.108</ele>
        <time>2021-07-28T19:07:13Z</time>
      </trkpt>
      <trkpt lat="40.899018" lon="-3.930035">
        <ele>1827.121</ele>
        <time>2021-07-28T19:07:15Z</time>
      </trkpt>
      <trkpt lat="40.899043" lon="-3.930050">
        <ele>1827.293</ele>
        <time>2021-07-28T19:07:17Z</time>
      </trkpt>
      <trkpt lat="40.899062" lon="-3.930055">
        <ele>1827.130</ele>
        <time>2021-07-28T19:07:19Z</time>
      </trkpt>
      <trkpt lat="40.899085" lon="-3.930058">
        <ele>1826.867</ele>
        <time>2021-07-28T19:07:22Z</time>
      </trkpt>
      <trkpt lat="40.899104" lon="-3.930063">
        <ele>1826.798</ele>
        <time>2021-07-28T19:07:24Z</time>
      </trkpt>
      <trkpt lat="40.899126" lon="-3.930065">
        <ele>1826.588</ele>
        <time>2021-07-28T19:07:26Z</time>
      </trkpt>
      <trkpt lat="40.899152" lon="-3.930076">
        <ele>1826.471</ele>
        <time>2021-07-28T19:07:28Z</time>
      </trkpt>
      <trkpt lat="40.899174" lon="-3.930082">
        <ele>1826.422</ele>
        <time>2021-07-28T19:07:30Z</time>
      </trkpt>
      <trkpt lat="40.899197" lon="-3.930088">
        <ele>1826.555</ele>
        <time>2021-07-28T19:07:32Z</time>
      </trkpt>
      <trkpt lat="40.899216" lon="-3.930097">
        <ele>1826.707</ele>
        <time>2021-07-28T19:07:34Z</time>
      </trkpt>
      <trkpt lat="40.899238" lon="-3.930107">
        <ele>1827.017</ele>
        <time>2021-07-28T19:07:36Z</time>
      </trkpt>
      <trkpt lat="40.899258" lon="-3.930117">
        <ele>1827.208</ele>
        <time>2021-07-28T19:07:38Z</time>
      </trkpt>
      <trkpt lat="40.899274" lon="-3.930143">
        <ele>1827.992</ele>
        <time>2021-07-28T19:07:41Z</time>
      </trkpt>
      <trkpt lat="40.899270" lon="-3.930170">
        <ele>1828.794</ele>
        <time>2021-07-28T19:07:43Z</time>
      </trkpt>
      <trkpt lat="40.899261" lon="-3.930194">
        <ele>1829.391</ele>
        <time>2021-07-28T19:07:45Z</time>
      </trkpt>
      <trkpt lat="40.899251" lon="-3.930224">
        <ele>1830.218</ele>
        <time>2021-07-28T19:07:48Z</time>
      </trkpt>
      <trkpt lat="40.899226" lon="-3.930240">
        <ele>1830.749</ele>
        <time>2021-07-28T19:07:51Z</time>
      </trkpt>
      <trkpt lat="40.899203" lon="-3.930246">
        <ele>1831.099</ele>
        <time>2021-07-28T19:07:54Z</time>
      </trkpt>
      <trkpt lat="40.899184" lon="-3.930230">
        <ele>1830.622</ele>
        <time>2021-07-28T19:07:57Z</time>
      </trkpt>
      <trkpt lat="40.899174" lon="-3.930257">
        <ele>1831.433</ele>
        <time>2021-07-28T19:12:43Z</time>
      </trkpt>
      <trkpt lat="40.899162" lon="-3.930277">
        <ele>1832.061</ele>
        <time>2021-07-28T19:12:51Z</time>
      </trkpt>
      <trkpt lat="40.899181" lon="-3.930263">
        <ele>1831.521</ele>
        <time>2021-07-28T19:13:08Z</time>
      </trkpt>
      <trkpt lat="40.899184" lon="-3.930235">
        <ele>1830.713</ele>
        <time>2021-07-28T19:13:29Z</time>
      </trkpt>
      <trkpt lat="40.899181" lon="-3.930245">
        <ele>1831.008</ele>
        <time>2021-07-28T19:17:15Z</time>
      </trkpt>
      <trkpt lat="40.899184" lon="-3.930232">
        <ele>1830.663</ele>
        <time>2021-07-28T19:17:25Z</time>
      </trkpt>
      <trkpt lat="40.899181" lon="-3.930207">
        <ele>1829.935</ele>
        <time>2021-07-28T19:17:29Z</time>
      </trkpt>
      <trkpt lat="40.899162" lon="-3.930200">
        <ele>1829.812</ele>
        <time>2021-07-28T19:17:42Z</time>
      </trkpt>
      <trkpt lat="40.899146" lon="-3.930224">
        <ele>1830.769</ele>
        <time>2021-07-28T19:18:18Z</time>
      </trkpt>
      <trkpt lat="40.899120" lon="-3.930217">
        <ele>1830.940</ele>
        <time>2021-07-28T19:18:20Z</time>
      </trkpt>
      <trkpt lat="40.899094" lon="-3.930205">
        <ele>1831.010</ele>
        <time>2021-07-28T19:18:22Z</time>
      </trkpt>
      <trkpt lat="40.899066" lon="-3.930192">
        <ele>1831.083</ele>
        <time>2021-07-28T19:18:24Z</time>
      </trkpt>
      <trkpt lat="40.899040" lon="-3.930187">
        <ele>1831.284</ele>
        <time>2021-07-28T19:18:26Z</time>
      </trkpt>
      <trkpt lat="40.899014" lon="-3.930177">
        <ele>1831.334</ele>
        <time>2021-07-28T19:18:28Z</time>
      </trkpt>
      <trkpt lat="40.898992" lon="-3.930168">
        <ele>1831.455</ele>
        <time>2021-07-28T19:18:30Z</time>
      </trkpt>
      <trkpt lat="40.898963" lon="-3.930160">
        <ele>1831.510</ele>
        <time>2021-07-28T19:18:32Z</time>
      </trkpt>
      <trkpt lat="40.898944" lon="-3.930148">
        <ele>1831.508</ele>
        <time>2021-07-28T19:18:34Z</time>
      </trkpt>
      <trkpt lat="40.898918" lon="-3.930142">
        <ele>1831.710</ele>
        <time>2021-07-28T19:18:36Z</time>
      </trkpt>
      <trkpt lat="40.898896" lon="-3.930135">
        <ele>1831.812</ele>
        <time>2021-07-28T19:18:38Z</time>
      </trkpt>
      <trkpt lat="40.898874" lon="-3.930128">
        <ele>1831.759</ele>
        <time>2021-07-28T19:18:40Z</time>
      </trkpt>
      <trkpt lat="40.898848" lon="-3.930135">
        <ele>1832.066</ele>
        <time>2021-07-28T19:18:42Z</time>
      </trkpt>
      <trkpt lat="40.898762" lon="-3.930128">
        <ele>1831.997</ele>
        <time>2021-07-28T19:18:50Z</time>
      </trkpt>
      <trkpt lat="40.898739" lon="-3.930133">
        <ele>1832.167</ele>
        <time>2021-07-28T19:18:53Z</time>
      </trkpt>
      <trkpt lat="40.898720" lon="-3.930133">
        <ele>1832.160</ele>
        <time>2021-07-28T19:18:55Z</time>
      </trkpt>
      <trkpt lat="40.898698" lon="-3.930130">
        <ele>1832.171</ele>
        <time>2021-07-28T19:18:57Z</time>
      </trkpt>
      <trkpt lat="40.898669" lon="-3.930143">
        <ele>1832.562</ele>
        <time>2021-07-28T19:19:00Z</time>
      </trkpt>
      <trkpt lat="40.898643" lon="-3.930143">
        <ele>1832.583</ele>
        <time>2021-07-28T19:19:03Z</time>
      </trkpt>
      <trkpt lat="40.898624" lon="-3.930138">
        <ele>1832.511</ele>
        <time>2021-07-28T19:19:05Z</time>
      </trkpt>
      <trkpt lat="40.898602" lon="-3.930132">
        <ele>1832.308</ele>
        <time>2021-07-28T19:19:07Z</time>
      </trkpt>
      <trkpt lat="40.898570" lon="-3.930125">
        <ele>1831.993</ele>
        <time>2021-07-28T19:19:10Z</time>
      </trkpt>
      <trkpt lat="40.898550" lon="-3.930132">
        <ele>1832.035</ele>
        <time>2021-07-28T19:19:12Z</time>
      </trkpt>
      <trkpt lat="40.898522" lon="-3.930142">
        <ele>1832.142</ele>
        <time>2021-07-28T19:19:15Z</time>
      </trkpt>
      <trkpt lat="40.898502" lon="-3.930152">
        <ele>1832.269</ele>
        <time>2021-07-28T19:19:17Z</time>
      </trkpt>
      <trkpt lat="40.898480" lon="-3.930165">
        <ele>1832.460</ele>
        <time>2021-07-28T19:19:20Z</time>
      </trkpt>
      <trkpt lat="40.898464" lon="-3.930180">
        <ele>1832.750</ele>
        <time>2021-07-28T19:19:22Z</time>
      </trkpt>
      <trkpt lat="40.898448" lon="-3.930195">
        <ele>1832.993</ele>
        <time>2021-07-28T19:19:24Z</time>
      </trkpt>
      <trkpt lat="40.898429" lon="-3.930214">
        <ele>1833.234</ele>
        <time>2021-07-28T19:19:26Z</time>
      </trkpt>
      <trkpt lat="40.898410" lon="-3.930234">
        <ele>1833.688</ele>
        <time>2021-07-28T19:19:28Z</time>
      </trkpt>
      <trkpt lat="40.898397" lon="-3.930253">
        <ele>1833.924</ele>
        <time>2021-07-28T19:19:30Z</time>
      </trkpt>
      <trkpt lat="40.898381" lon="-3.930270">
        <ele>1834.226</ele>
        <time>2021-07-28T19:19:32Z</time>
      </trkpt>
      <trkpt lat="40.898365" lon="-3.930287">
        <ele>1834.408</ele>
        <time>2021-07-28T19:19:34Z</time>
      </trkpt>
      <trkpt lat="40.898346" lon="-3.930310">
        <ele>1834.685</ele>
        <time>2021-07-28T19:19:37Z</time>
      </trkpt>
      <trkpt lat="40.898330" lon="-3.930330">
        <ele>1834.787</ele>
        <time>2021-07-28T19:19:39Z</time>
      </trkpt>
      <trkpt lat="40.898323" lon="-3.930355">
        <ele>1834.914</ele>
        <time>2021-07-28T19:19:41Z</time>
      </trkpt>
      <trkpt lat="40.898304" lon="-3.930380">
        <ele>1834.851</ele>
        <time>2021-07-28T19:19:43Z</time>
      </trkpt>
      <trkpt lat="40.898291" lon="-3.930398">
        <ele>1834.722</ele>
        <time>2021-07-28T19:19:45Z</time>
      </trkpt>
      <trkpt lat="40.898278" lon="-3.930418">
        <ele>1834.732</ele>
        <time>2021-07-28T19:19:47Z</time>
      </trkpt>
      <trkpt lat="40.898262" lon="-3.930440">
        <ele>1834.745</ele>
        <time>2021-07-28T19:19:49Z</time>
      </trkpt>
      <trkpt lat="40.898246" lon="-3.930460">
        <ele>1834.626</ele>
        <time>2021-07-28T19:19:51Z</time>
      </trkpt>
      <trkpt lat="40.898227" lon="-3.930493">
        <ele>1834.761</ele>
        <time>2021-07-28T19:19:54Z</time>
      </trkpt>
      <trkpt lat="40.898208" lon="-3.930522">
        <ele>1834.821</ele>
        <time>2021-07-28T19:19:56Z</time>
      </trkpt>
      <trkpt lat="40.898198" lon="-3.930545">
        <ele>1834.913</ele>
        <time>2021-07-28T19:19:58Z</time>
      </trkpt>
      <trkpt lat="40.898186" lon="-3.930567">
        <ele>1835.008</ele>
        <time>2021-07-28T19:20:00Z</time>
      </trkpt>
      <trkpt lat="40.898170" lon="-3.930588">
        <ele>1834.923</ele>
        <time>2021-07-28T19:20:02Z</time>
      </trkpt>
      <trkpt lat="40.898150" lon="-3.930620">
        <ele>1835.095</ele>
        <time>2021-07-28T19:20:05Z</time>
      </trkpt>
      <trkpt lat="40.898141" lon="-3.930647">
        <ele>1835.272</ele>
        <time>2021-07-28T19:20:07Z</time>
      </trkpt>
      <trkpt lat="40.898125" lon="-3.930667">
        <ele>1835.119</ele>
        <time>2021-07-28T19:20:09Z</time>
      </trkpt>
      <trkpt lat="40.898112" lon="-3.930690">
        <ele>1835.210</ele>
        <time>2021-07-28T19:20:11Z</time>
      </trkpt>
      <trkpt lat="40.898093" lon="-3.930722">
        <ele>1835.290</ele>
        <time>2021-07-28T19:20:14Z</time>
      </trkpt>
      <trkpt lat="40.898080" lon="-3.930745">
        <ele>1835.393</ele>
        <time>2021-07-28T19:20:16Z</time>
      </trkpt>
      <trkpt lat="40.898067" lon="-3.930763">
        <ele>1835.274</ele>
        <time>2021-07-28T19:20:18Z</time>
      </trkpt>
      <trkpt lat="40.898048" lon="-3.930795">
        <ele>1835.254</ele>
        <time>2021-07-28T19:20:20Z</time>
      </trkpt>
      <trkpt lat="40.898038" lon="-3.930818">
        <ele>1835.256</ele>
        <time>2021-07-28T19:20:22Z</time>
      </trkpt>
      <trkpt lat="40.898029" lon="-3.930845">
        <ele>1835.311</ele>
        <time>2021-07-28T19:20:24Z</time>
      </trkpt>
      <trkpt lat="40.898019" lon="-3.930875">
        <ele>1835.408</ele>
        <time>2021-07-28T19:20:26Z</time>
      </trkpt>
      <trkpt lat="40.898013" lon="-3.930900">
        <ele>1835.632</ele>
        <time>2021-07-28T19:20:28Z</time>
      </trkpt>
      <trkpt lat="40.898003" lon="-3.930928">
        <ele>1835.764</ele>
        <time>2021-07-28T19:20:31Z</time>
      </trkpt>
      <trkpt lat="40.897990" lon="-3.930958">
        <ele>1835.891</ele>
        <time>2021-07-28T19:20:33Z</time>
      </trkpt>
      <trkpt lat="40.897974" lon="-3.930992">
        <ele>1835.878</ele>
        <time>2021-07-28T19:20:36Z</time>
      </trkpt>
      <trkpt lat="40.897965" lon="-3.931018">
        <ele>1835.959</ele>
        <time>2021-07-28T19:20:38Z</time>
      </trkpt>
      <trkpt lat="40.897958" lon="-3.931050">
        <ele>1836.239</ele>
        <time>2021-07-28T19:20:40Z</time>
      </trkpt>
      <trkpt lat="40.897946" lon="-3.931080">
        <ele>1836.492</ele>
        <time>2021-07-28T19:20:42Z</time>
      </trkpt>
      <trkpt lat="40.897939" lon="-3.931112">
        <ele>1836.723</ele>
        <time>2021-07-28T19:20:44Z</time>
      </trkpt>
      <trkpt lat="40.897930" lon="-3.931147">
        <ele>1836.842</ele>
        <time>2021-07-28T19:20:46Z</time>
      </trkpt>
      <trkpt lat="40.897926" lon="-3.931182">
        <ele>1837.022</ele>
        <time>2021-07-28T19:20:49Z</time>
      </trkpt>
      <trkpt lat="40.897923" lon="-3.931207">
        <ele>1837.214</ele>
        <time>2021-07-28T19:20:51Z</time>
      </trkpt>
      <trkpt lat="40.897923" lon="-3.931240">
        <ele>1837.608</ele>
        <time>2021-07-28T19:20:54Z</time>
      </trkpt>
      <trkpt lat="40.897923" lon="-3.931265">
        <ele>1837.841</ele>
        <time>2021-07-28T19:20:56Z</time>
      </trkpt>
      <trkpt lat="40.897914" lon="-3.931295">
        <ele>1837.983</ele>
        <time>2021-07-28T19:20:58Z</time>
      </trkpt>
      <trkpt lat="40.897910" lon="-3.931320">
        <ele>1838.160</ele>
        <time>2021-07-28T19:21:00Z</time>
      </trkpt>
      <trkpt lat="40.897904" lon="-3.931355">
        <ele>1838.327</ele>
        <time>2021-07-28T19:21:02Z</time>
      </trkpt>
      <trkpt lat="40.897888" lon="-3.931383">
        <ele>1838.168</ele>
        <time>2021-07-28T19:21:04Z</time>
      </trkpt>
      <trkpt lat="40.897888" lon="-3.931410">
        <ele>1838.448</ele>
        <time>2021-07-28T19:21:06Z</time>
      </trkpt>
      <trkpt lat="40.897885" lon="-3.931438">
        <ele>1838.751</ele>
        <time>2021-07-28T19:21:08Z</time>
      </trkpt>
      <trkpt lat="40.897885" lon="-3.931468">
        <ele>1839.132</ele>
        <time>2021-07-28T19:21:10Z</time>
      </trkpt>
      <trkpt lat="40.897875" lon="-3.931493">
        <ele>1839.272</ele>
        <time>2021-07-28T19:21:12Z</time>
      </trkpt>
      <trkpt lat="40.897869" lon="-3.931520">
        <ele>1839.413</ele>
        <time>2021-07-28T19:21:14Z</time>
      </trkpt>
      <trkpt lat="40.897866" lon="-3.931547">
        <ele>1839.614</ele>
        <time>2021-07-28T19:21:16Z</time>
      </trkpt>
      <trkpt lat="40.897862" lon="-3.931577">
        <ele>1839.908</ele>
        <time>2021-07-28T19:21:18Z</time>
      </trkpt>
      <trkpt lat="40.897853" lon="-3.931605">
        <ele>1840.154</ele>
        <time>2021-07-28T19:21:20Z</time>
      </trkpt>
      <trkpt lat="40.897846" lon="-3.931634">
        <ele>1840.326</ele>
        <time>2021-07-28T19:21:22Z</time>
      </trkpt>
      <trkpt lat="40.897840" lon="-3.931660">
        <ele>1840.523</ele>
        <time>2021-07-28T19:21:24Z</time>
      </trkpt>
      <trkpt lat="40.897840" lon="-3.931688">
        <ele>1840.840</ele>
        <time>2021-07-28T19:21:26Z</time>
      </trkpt>
      <trkpt lat="40.897840" lon="-3.931725">
        <ele>1841.241</ele>
        <time>2021-07-28T19:21:29Z</time>
      </trkpt>
      <trkpt lat="40.897834" lon="-3.931753">
        <ele>1841.371</ele>
        <time>2021-07-28T19:21:31Z</time>
      </trkpt>
      <trkpt lat="40.897834" lon="-3.931785">
        <ele>1841.754</ele>
        <time>2021-07-28T19:21:33Z</time>
      </trkpt>
      <trkpt lat="40.897830" lon="-3.931810">
        <ele>1841.975</ele>
        <time>2021-07-28T19:21:35Z</time>
      </trkpt>
      <trkpt lat="40.897827" lon="-3.931840">
        <ele>1842.132</ele>
        <time>2021-07-28T19:21:37Z</time>
      </trkpt>
      <trkpt lat="40.897824" lon="-3.931867">
        <ele>1842.392</ele>
        <time>2021-07-28T19:21:39Z</time>
      </trkpt>
      <trkpt lat="40.897821" lon="-3.931902">
        <ele>1842.611</ele>
        <time>2021-07-28T19:21:41Z</time>
      </trkpt>
      <trkpt lat="40.897814" lon="-3.931934">
        <ele>1842.808</ele>
        <time>2021-07-28T19:21:43Z</time>
      </trkpt>
      <trkpt lat="40.897814" lon="-3.931960">
        <ele>1843.060</ele>
        <time>2021-07-28T19:21:45Z</time>
      </trkpt>
      <trkpt lat="40.897814" lon="-3.931988">
        <ele>1843.252</ele>
        <time>2021-07-28T19:21:47Z</time>
      </trkpt>
      <trkpt lat="40.897811" lon="-3.932017">
        <ele>1843.449</ele>
        <time>2021-07-28T19:21:49Z</time>
      </trkpt>
      <trkpt lat="40.897811" lon="-3.932047">
        <ele>1843.686</ele>
        <time>2021-07-28T19:21:51Z</time>
      </trkpt>
      <trkpt lat="40.897808" lon="-3.932073">
        <ele>1843.727</ele>
        <time>2021-07-28T19:21:53Z</time>
      </trkpt>
      <trkpt lat="40.897805" lon="-3.932098">
        <ele>1843.837</ele>
        <time>2021-07-28T19:21:55Z</time>
      </trkpt>
      <trkpt lat="40.897792" lon="-3.932130">
        <ele>1843.750</ele>
        <time>2021-07-28T19:21:57Z</time>
      </trkpt>
      <trkpt lat="40.897786" lon="-3.932158">
        <ele>1843.811</ele>
        <time>2021-07-28T19:21:59Z</time>
      </trkpt>
      <trkpt lat="40.897776" lon="-3.932190">
        <ele>1843.795</ele>
        <time>2021-07-28T19:22:01Z</time>
      </trkpt>
      <trkpt lat="40.897776" lon="-3.932217">
        <ele>1843.949</ele>
        <time>2021-07-28T19:22:03Z</time>
      </trkpt>
      <trkpt lat="40.897766" lon="-3.932255">
        <ele>1844.023</ele>
        <time>2021-07-28T19:22:05Z</time>
      </trkpt>
      <trkpt lat="40.897760" lon="-3.932285">
        <ele>1844.108</ele>
        <time>2021-07-28T19:22:07Z</time>
      </trkpt>
      <trkpt lat="40.897747" lon="-3.932314">
        <ele>1844.076</ele>
        <time>2021-07-28T19:22:09Z</time>
      </trkpt>
      <trkpt lat="40.897750" lon="-3.932340">
        <ele>1844.478</ele>
        <time>2021-07-28T19:22:11Z</time>
      </trkpt>
      <trkpt lat="40.897744" lon="-3.932372">
        <ele>1844.585</ele>
        <time>2021-07-28T19:22:13Z</time>
      </trkpt>
      <trkpt lat="40.897731" lon="-3.932412">
        <ele>1844.552</ele>
        <time>2021-07-28T19:22:16Z</time>
      </trkpt>
      <trkpt lat="40.897728" lon="-3.932443">
        <ele>1844.893</ele>
        <time>2021-07-28T19:22:18Z</time>
      </trkpt>
      <trkpt lat="40.897722" lon="-3.932474">
        <ele>1844.943</ele>
        <time>2021-07-28T19:22:20Z</time>
      </trkpt>
      <trkpt lat="40.897715" lon="-3.932498">
        <ele>1844.956</ele>
        <time>2021-07-28T19:22:22Z</time>
      </trkpt>
      <trkpt lat="40.897715" lon="-3.932528">
        <ele>1845.367</ele>
        <time>2021-07-28T19:22:24Z</time>
      </trkpt>
      <trkpt lat="40.897715" lon="-3.932553">
        <ele>1845.667</ele>
        <time>2021-07-28T19:22:26Z</time>
      </trkpt>
      <trkpt lat="40.897709" lon="-3.932580">
        <ele>1845.781</ele>
        <time>2021-07-28T19:22:28Z</time>
      </trkpt>
      <trkpt lat="40.897696" lon="-3.932617">
        <ele>1845.719</ele>
        <time>2021-07-28T19:22:31Z</time>
      </trkpt>
      <trkpt lat="40.897690" lon="-3.932644">
        <ele>1845.908</ele>
        <time>2021-07-28T19:22:33Z</time>
      </trkpt>
      <trkpt lat="40.897686" lon="-3.932684">
        <ele>1846.223</ele>
        <time>2021-07-28T19:22:35Z</time>
      </trkpt>
      <trkpt lat="40.897677" lon="-3.932713">
        <ele>1846.325</ele>
        <time>2021-07-28T19:22:37Z</time>
      </trkpt>
      <trkpt lat="40.897677" lon="-3.932738">
        <ele>1846.622</ele>
        <time>2021-07-28T19:22:39Z</time>
      </trkpt>
      <trkpt lat="40.897670" lon="-3.932767">
        <ele>1846.819</ele>
        <time>2021-07-28T19:22:41Z</time>
      </trkpt>
      <trkpt lat="40.897664" lon="-3.932798">
        <ele>1846.980</ele>
        <time>2021-07-28T19:22:44Z</time>
      </trkpt>
      <trkpt lat="40.897654" lon="-3.932822">
        <ele>1846.980</ele>
        <time>2021-07-28T19:22:46Z</time>
      </trkpt>
      <trkpt lat="40.897651" lon="-3.932850">
        <ele>1847.113</ele>
        <time>2021-07-28T19:22:48Z</time>
      </trkpt>
      <trkpt lat="40.897651" lon="-3.932876">
        <ele>1847.474</ele>
        <time>2021-07-28T19:22:50Z</time>
      </trkpt>
      <trkpt lat="40.897645" lon="-3.932908">
        <ele>1847.697</ele>
        <time>2021-07-28T19:22:52Z</time>
      </trkpt>
      <trkpt lat="40.897632" lon="-3.932942">
        <ele>1847.623</ele>
        <time>2021-07-28T19:22:54Z</time>
      </trkpt>
      <trkpt lat="40.897629" lon="-3.932967">
        <ele>1847.825</ele>
        <time>2021-07-28T19:22:56Z</time>
      </trkpt>
      <trkpt lat="40.897622" lon="-3.932997">
        <ele>1847.908</ele>
        <time>2021-07-28T19:22:58Z</time>
      </trkpt>
      <trkpt lat="40.897613" lon="-3.933025">
        <ele>1847.946</ele>
        <time>2021-07-28T19:23:00Z</time>
      </trkpt>
      <trkpt lat="40.897606" lon="-3.933052">
        <ele>1848.068</ele>
        <time>2021-07-28T19:23:02Z</time>
      </trkpt>
      <trkpt lat="40.897594" lon="-3.933078">
        <ele>1848.085</ele>
        <time>2021-07-28T19:23:04Z</time>
      </trkpt>
      <trkpt lat="40.897594" lon="-3.933107">
        <ele>1848.322</ele>
        <time>2021-07-28T19:23:06Z</time>
      </trkpt>
      <trkpt lat="40.897578" lon="-3.933132">
        <ele>1848.163</ele>
        <time>2021-07-28T19:23:08Z</time>
      </trkpt>
      <trkpt lat="40.897568" lon="-3.933160">
        <ele>1848.293</ele>
        <time>2021-07-28T19:23:10Z</time>
      </trkpt>
      <trkpt lat="40.897562" lon="-3.933186">
        <ele>1848.326</ele>
        <time>2021-07-28T19:23:12Z</time>
      </trkpt>
      <trkpt lat="40.897562" lon="-3.933215">
        <ele>1848.657</ele>
        <time>2021-07-28T19:23:14Z</time>
      </trkpt>
      <trkpt lat="40.897549" lon="-3.933257">
        <ele>1848.727</ele>
        <time>2021-07-28T19:23:17Z</time>
      </trkpt>
      <trkpt lat="40.897546" lon="-3.933295">
        <ele>1849.168</ele>
        <time>2021-07-28T19:23:19Z</time>
      </trkpt>
      <trkpt lat="40.897533" lon="-3.933328">
        <ele>1849.014</ele>
        <time>2021-07-28T19:23:21Z</time>
      </trkpt>
      <trkpt lat="40.897523" lon="-3.933355">
        <ele>1849.108</ele>
        <time>2021-07-28T19:23:23Z</time>
      </trkpt>
      <trkpt lat="40.897517" lon="-3.933387">
        <ele>1849.379</ele>
        <time>2021-07-28T19:23:25Z</time>
      </trkpt>
      <trkpt lat="40.897510" lon="-3.933420">
        <ele>1849.641</ele>
        <time>2021-07-28T19:23:28Z</time>
      </trkpt>
      <trkpt lat="40.897494" lon="-3.933445">
        <ele>1849.428</ele>
        <time>2021-07-28T19:23:30Z</time>
      </trkpt>
      <trkpt lat="40.897488" lon="-3.933477">
        <ele>1849.655</ele>
        <time>2021-07-28T19:23:32Z</time>
      </trkpt>
      <trkpt lat="40.897485" lon="-3.933515">
        <ele>1850.026</ele>
        <time>2021-07-28T19:23:35Z</time>
      </trkpt>
      <trkpt lat="40.897482" lon="-3.933545">
        <ele>1850.336</ele>
        <time>2021-07-28T19:23:37Z</time>
      </trkpt>
      <trkpt lat="40.897475" lon="-3.933576">
        <ele>1850.459</ele>
        <time>2021-07-28T19:23:39Z</time>
      </trkpt>
      <trkpt lat="40.897469" lon="-3.933607">
        <ele>1850.660</ele>
        <time>2021-07-28T19:23:41Z</time>
      </trkpt>
      <trkpt lat="40.897469" lon="-3.933633">
        <ele>1850.979</ele>
        <time>2021-07-28T19:23:43Z</time>
      </trkpt>
      <trkpt lat="40.897466" lon="-3.933660">
        <ele>1851.105</ele>
        <time>2021-07-28T19:23:45Z</time>
      </trkpt>
      <trkpt lat="40.897462" lon="-3.933685">
        <ele>1851.225</ele>
        <time>2021-07-28T19:23:47Z</time>
      </trkpt>
      <trkpt lat="40.897453" lon="-3.933715">
        <ele>1851.208</ele>
        <time>2021-07-28T19:23:49Z</time>
      </trkpt>
      <trkpt lat="40.897446" lon="-3.933745">
        <ele>1851.314</ele>
        <time>2021-07-28T19:23:51Z</time>
      </trkpt>
      <trkpt lat="40.897430" lon="-3.933768">
        <ele>1851.056</ele>
        <time>2021-07-28T19:23:53Z</time>
      </trkpt>
      <trkpt lat="40.897424" lon="-3.933798">
        <ele>1851.193</ele>
        <time>2021-07-28T19:23:55Z</time>
      </trkpt>
      <trkpt lat="40.897414" lon="-3.933827">
        <ele>1851.190</ele>
        <time>2021-07-28T19:23:57Z</time>
      </trkpt>
      <trkpt lat="40.897408" lon="-3.933853">
        <ele>1851.251</ele>
        <time>2021-07-28T19:23:59Z</time>
      </trkpt>
      <trkpt lat="40.897411" lon="-3.933883">
        <ele>1851.771</ele>
        <time>2021-07-28T19:24:01Z</time>
      </trkpt>
      <trkpt lat="40.897411" lon="-3.933913">
        <ele>1852.214</ele>
        <time>2021-07-28T19:24:03Z</time>
      </trkpt>
      <trkpt lat="40.897411" lon="-3.933950">
        <ele>1852.745</ele>
        <time>2021-07-28T19:24:06Z</time>
      </trkpt>
      <trkpt lat="40.897398" lon="-3.933978">
        <ele>1852.733</ele>
        <time>2021-07-28T19:24:08Z</time>
      </trkpt>
      <trkpt lat="40.897398" lon="-3.934007">
        <ele>1853.223</ele>
        <time>2021-07-28T19:24:10Z</time>
      </trkpt>
      <trkpt lat="40.897408" lon="-3.934038">
        <ele>1854.015</ele>
        <time>2021-07-28T19:24:12Z</time>
      </trkpt>
      <trkpt lat="40.897395" lon="-3.934064">
        <ele>1854.008</ele>
        <time>2021-07-28T19:24:14Z</time>
      </trkpt>
      <trkpt lat="40.897389" lon="-3.934088">
        <ele>1854.240</ele>
        <time>2021-07-28T19:24:16Z</time>
      </trkpt>
      <trkpt lat="40.897389" lon="-3.934118">
        <ele>1854.642</ele>
        <time>2021-07-28T19:24:18Z</time>
      </trkpt>
      <trkpt lat="40.897382" lon="-3.934142">
        <ele>1854.849</ele>
        <time>2021-07-28T19:24:20Z</time>
      </trkpt>
      <trkpt lat="40.897382" lon="-3.934175">
        <ele>1855.276</ele>
        <time>2021-07-28T19:24:22Z</time>
      </trkpt>
      <trkpt lat="40.897373" lon="-3.934208">
        <ele>1855.337</ele>
        <time>2021-07-28T19:24:24Z</time>
      </trkpt>
      <trkpt lat="40.897366" lon="-3.934235">
        <ele>1855.377</ele>
        <time>2021-07-28T19:24:26Z</time>
      </trkpt>
      <trkpt lat="40.897363" lon="-3.934263">
        <ele>1855.450</ele>
        <time>2021-07-28T19:24:28Z</time>
      </trkpt>
      <trkpt lat="40.897363" lon="-3.934295">
        <ele>1855.791</ele>
        <time>2021-07-28T19:24:30Z</time>
      </trkpt>
      <trkpt lat="40.897366" lon="-3.934320">
        <ele>1856.017</ele>
        <time>2021-07-28T19:24:32Z</time>
      </trkpt>
      <trkpt lat="40.897357" lon="-3.934353">
        <ele>1856.187</ele>
        <time>2021-07-28T19:24:34Z</time>
      </trkpt>
      <trkpt lat="40.897354" lon="-3.934378">
        <ele>1856.215</ele>
        <time>2021-07-28T19:24:36Z</time>
      </trkpt>
      <trkpt lat="40.897347" lon="-3.934404">
        <ele>1856.208</ele>
        <time>2021-07-28T19:24:38Z</time>
      </trkpt>
      <trkpt lat="40.897338" lon="-3.934434">
        <ele>1856.238</ele>
        <time>2021-07-28T19:24:40Z</time>
      </trkpt>
      <trkpt lat="40.897331" lon="-3.934456">
        <ele>1856.340</ele>
        <time>2021-07-28T19:24:42Z</time>
      </trkpt>
      <trkpt lat="40.897325" lon="-3.934483">
        <ele>1856.577</ele>
        <time>2021-07-28T19:24:44Z</time>
      </trkpt>
      <trkpt lat="40.897315" lon="-3.934508">
        <ele>1856.654</ele>
        <time>2021-07-28T19:24:46Z</time>
      </trkpt>
      <trkpt lat="40.897312" lon="-3.934535">
        <ele>1856.965</ele>
        <time>2021-07-28T19:24:48Z</time>
      </trkpt>
      <trkpt lat="40.897309" lon="-3.934562">
        <ele>1857.265</ele>
        <time>2021-07-28T19:24:50Z</time>
      </trkpt>
      <trkpt lat="40.897309" lon="-3.934593">
        <ele>1857.688</ele>
        <time>2021-07-28T19:24:52Z</time>
      </trkpt>
      <trkpt lat="40.897299" lon="-3.934622">
        <ele>1857.859</ele>
        <time>2021-07-28T19:24:54Z</time>
      </trkpt>
      <trkpt lat="40.897299" lon="-3.934648">
        <ele>1858.197</ele>
        <time>2021-07-28T19:24:56Z</time>
      </trkpt>
      <trkpt lat="40.897306" lon="-3.934675">
        <ele>1858.723</ele>
        <time>2021-07-28T19:24:58Z</time>
      </trkpt>
      <trkpt lat="40.897306" lon="-3.934702">
        <ele>1859.125</ele>
        <time>2021-07-28T19:25:00Z</time>
      </trkpt>
      <trkpt lat="40.897293" lon="-3.934728">
        <ele>1859.108</ele>
        <time>2021-07-28T19:25:02Z</time>
      </trkpt>
      <trkpt lat="40.897283" lon="-3.934758">
        <ele>1859.226</ele>
        <time>2021-07-28T19:25:05Z</time>
      </trkpt>
      <trkpt lat="40.897274" lon="-3.934790">
        <ele>1859.498</ele>
        <time>2021-07-28T19:25:07Z</time>
      </trkpt>
      <trkpt lat="40.897267" lon="-3.934815">
        <ele>1859.625</ele>
        <time>2021-07-28T19:25:09Z</time>
      </trkpt>
      <trkpt lat="40.897258" lon="-3.934838">
        <ele>1859.612</ele>
        <time>2021-07-28T19:25:11Z</time>
      </trkpt>
      <trkpt lat="40.897258" lon="-3.934867">
        <ele>1860.053</ele>
        <time>2021-07-28T19:25:13Z</time>
      </trkpt>
      <trkpt lat="40.897251" lon="-3.934897">
        <ele>1860.343</ele>
        <time>2021-07-28T19:25:15Z</time>
      </trkpt>
      <trkpt lat="40.897238" lon="-3.934932">
        <ele>1860.446</ele>
        <time>2021-07-28T19:25:17Z</time>
      </trkpt>
      <trkpt lat="40.897229" lon="-3.934955">
        <ele>1860.517</ele>
        <time>2021-07-28T19:25:19Z</time>
      </trkpt>
      <trkpt lat="40.897229" lon="-3.934983">
        <ele>1860.986</ele>
        <time>2021-07-28T19:25:21Z</time>
      </trkpt>
      <trkpt lat="40.897229" lon="-3.935012">
        <ele>1861.360</ele>
        <time>2021-07-28T19:25:23Z</time>
      </trkpt>
      <trkpt lat="40.897226" lon="-3.935042">
        <ele>1861.526</ele>
        <time>2021-07-28T19:25:25Z</time>
      </trkpt>
      <trkpt lat="40.897226" lon="-3.935067">
        <ele>1861.808</ele>
        <time>2021-07-28T19:25:27Z</time>
      </trkpt>
      <trkpt lat="40.897219" lon="-3.935097">
        <ele>1861.955</ele>
        <time>2021-07-28T19:25:29Z</time>
      </trkpt>
      <trkpt lat="40.897213" lon="-3.935134">
        <ele>1862.117</ele>
        <time>2021-07-28T19:25:31Z</time>
      </trkpt>
      <trkpt lat="40.897210" lon="-3.935165">
        <ele>1862.354</ele>
        <time>2021-07-28T19:25:33Z</time>
      </trkpt>
      <trkpt lat="40.897200" lon="-3.935200">
        <ele>1862.341</ele>
        <time>2021-07-28T19:25:35Z</time>
      </trkpt>
      <trkpt lat="40.897197" lon="-3.935228">
        <ele>1862.512</ele>
        <time>2021-07-28T19:25:37Z</time>
      </trkpt>
      <trkpt lat="40.897187" lon="-3.935252">
        <ele>1862.432</ele>
        <time>2021-07-28T19:25:39Z</time>
      </trkpt>
      <trkpt lat="40.897174" lon="-3.935284">
        <ele>1862.355</ele>
        <time>2021-07-28T19:25:41Z</time>
      </trkpt>
      <trkpt lat="40.897168" lon="-3.935323">
        <ele>1862.496</ele>
        <time>2021-07-28T19:25:44Z</time>
      </trkpt>
      <trkpt lat="40.897165" lon="-3.935352">
        <ele>1862.616</ele>
        <time>2021-07-28T19:25:46Z</time>
      </trkpt>
      <trkpt lat="40.897155" lon="-3.935382">
        <ele>1862.576</ele>
        <time>2021-07-28T19:25:48Z</time>
      </trkpt>
      <trkpt lat="40.897149" lon="-3.935405">
        <ele>1862.513</ele>
        <time>2021-07-28T19:25:50Z</time>
      </trkpt>
      <trkpt lat="40.897136" lon="-3.935432">
        <ele>1862.408</ele>
        <time>2021-07-28T19:25:52Z</time>
      </trkpt>
      <trkpt lat="40.897139" lon="-3.935472">
        <ele>1862.818</ele>
        <time>2021-07-28T19:25:55Z</time>
      </trkpt>
      <trkpt lat="40.897136" lon="-3.935506">
        <ele>1863.070</ele>
        <time>2021-07-28T19:25:57Z</time>
      </trkpt>
      <trkpt lat="40.897126" lon="-3.935538">
        <ele>1863.177</ele>
        <time>2021-07-28T19:25:59Z</time>
      </trkpt>
      <trkpt lat="40.897110" lon="-3.935577">
        <ele>1863.084</ele>
        <time>2021-07-28T19:26:01Z</time>
      </trkpt>
      <trkpt lat="40.897101" lon="-3.935605">
        <ele>1863.065</ele>
        <time>2021-07-28T19:26:03Z</time>
      </trkpt>
      <trkpt lat="40.897098" lon="-3.935632">
        <ele>1863.275</ele>
        <time>2021-07-28T19:26:05Z</time>
      </trkpt>
      <trkpt lat="40.897094" lon="-3.935666">
        <ele>1863.518</ele>
        <time>2021-07-28T19:26:08Z</time>
      </trkpt>
      <trkpt lat="40.897088" lon="-3.935695">
        <ele>1863.699</ele>
        <time>2021-07-28T19:26:10Z</time>
      </trkpt>
      <trkpt lat="40.897085" lon="-3.935723">
        <ele>1863.937</ele>
        <time>2021-07-28T19:26:12Z</time>
      </trkpt>
      <trkpt lat="40.897078" lon="-3.935753">
        <ele>1864.049</ele>
        <time>2021-07-28T19:26:14Z</time>
      </trkpt>
      <trkpt lat="40.897075" lon="-3.935782">
        <ele>1864.213</ele>
        <time>2021-07-28T19:26:16Z</time>
      </trkpt>
      <trkpt lat="40.897078" lon="-3.935814">
        <ele>1864.608</ele>
        <time>2021-07-28T19:26:18Z</time>
      </trkpt>
      <trkpt lat="40.897072" lon="-3.935850">
        <ele>1864.990</ele>
        <time>2021-07-28T19:26:20Z</time>
      </trkpt>
      <trkpt lat="40.897066" lon="-3.935880">
        <ele>1865.072</ele>
        <time>2021-07-28T19:26:22Z</time>
      </trkpt>
      <trkpt lat="40.897069" lon="-3.935913">
        <ele>1865.599</ele>
        <time>2021-07-28T19:26:24Z</time>
      </trkpt>
      <trkpt lat="40.897056" lon="-3.935937">
        <ele>1865.466</ele>
        <time>2021-07-28T19:26:26Z</time>
      </trkpt>
      <trkpt lat="40.897046" lon="-3.935962">
        <ele>1865.457</ele>
        <time>2021-07-28T19:26:28Z</time>
      </trkpt>
      <trkpt lat="40.897030" lon="-3.935986">
        <ele>1865.327</ele>
        <time>2021-07-28T19:26:31Z</time>
      </trkpt>
      <trkpt lat="40.897014" lon="-3.936002">
        <ele>1865.160</ele>
        <time>2021-07-28T19:26:33Z</time>
      </trkpt>
      <trkpt lat="40.897002" lon="-3.936020">
        <ele>1865.181</ele>
        <time>2021-07-28T19:26:35Z</time>
      </trkpt>
      <trkpt lat="40.897011" lon="-3.936048">
        <ele>1865.616</ele>
        <time>2021-07-28T19:26:45Z</time>
      </trkpt>
      <trkpt lat="40.897021" lon="-3.936083">
        <ele>1866.376</ele>
        <time>2021-07-28T19:26:47Z</time>
      </trkpt>
      <trkpt lat="40.897027" lon="-3.936112">
        <ele>1866.813</ele>
        <time>2021-07-28T19:26:49Z</time>
      </trkpt>
      <trkpt lat="40.897034" lon="-3.936147">
        <ele>1867.308</ele>
        <time>2021-07-28T19:26:51Z</time>
      </trkpt>
      <trkpt lat="40.897040" lon="-3.936187">
        <ele>1867.848</ele>
        <time>2021-07-28T19:26:54Z</time>
      </trkpt>
      <trkpt lat="40.897034" lon="-3.936218">
        <ele>1868.050</ele>
        <time>2021-07-28T19:26:56Z</time>
      </trkpt>
      <trkpt lat="40.897021" lon="-3.936257">
        <ele>1868.117</ele>
        <time>2021-07-28T19:26:58Z</time>
      </trkpt>
      <trkpt lat="40.897014" lon="-3.936282">
        <ele>1868.274</ele>
        <time>2021-07-28T19:27:00Z</time>
      </trkpt>
      <trkpt lat="40.897008" lon="-3.936305">
        <ele>1868.385</ele>
        <time>2021-07-28T19:27:01Z</time>
      </trkpt>
      <trkpt lat="40.896998" lon="-3.936335">
        <ele>1868.425</ele>
        <time>2021-07-28T19:27:03Z</time>
      </trkpt>
      <trkpt lat="40.896992" lon="-3.936360">
        <ele>1868.698</ele>
        <time>2021-07-28T19:27:05Z</time>
      </trkpt>
      <trkpt lat="40.896989" lon="-3.936386">
        <ele>1868.849</ele>
        <time>2021-07-28T19:27:07Z</time>
      </trkpt>
      <trkpt lat="40.896979" lon="-3.936417">
        <ele>1869.179</ele>
        <time>2021-07-28T19:27:09Z</time>
      </trkpt>
      <trkpt lat="40.896979" lon="-3.936450">
        <ele>1869.605</ele>
        <time>2021-07-28T19:27:12Z</time>
      </trkpt>
      <trkpt lat="40.896976" lon="-3.936477">
        <ele>1870.025</ele>
        <time>2021-07-28T19:27:15Z</time>
      </trkpt>
      <trkpt lat="40.896954" lon="-3.936492">
        <ele>1870.008</ele>
        <time>2021-07-28T19:27:56Z</time>
      </trkpt>
      <trkpt lat="40.896960" lon="-3.936515">
        <ele>1870.514</ele>
        <time>2021-07-28T19:27:57Z</time>
      </trkpt>
      <trkpt lat="40.896966" lon="-3.936538">
        <ele>1870.966</ele>
        <time>2021-07-28T19:27:58Z</time>
      </trkpt>
      <trkpt lat="40.896970" lon="-3.936565">
        <ele>1871.573</ele>
        <time>2021-07-28T19:27:59Z</time>
      </trkpt>
      <trkpt lat="40.896970" lon="-3.936608">
        <ele>1872.280</ele>
        <time>2021-07-28T19:28:01Z</time>
      </trkpt>
      <trkpt lat="40.896970" lon="-3.936635">
        <ele>1872.651</ele>
        <time>2021-07-28T19:28:02Z</time>
      </trkpt>
      <trkpt lat="40.896970" lon="-3.936668">
        <ele>1873.221</ele>
        <time>2021-07-28T19:28:04Z</time>
      </trkpt>
      <trkpt lat="40.896973" lon="-3.936698">
        <ele>1873.844</ele>
        <time>2021-07-28T19:28:06Z</time>
      </trkpt>
      <trkpt lat="40.896957" lon="-3.936728">
        <ele>1874.455</ele>
        <time>2021-07-28T19:28:10Z</time>
      </trkpt>
      <trkpt lat="40.896938" lon="-3.936736">
        <ele>1874.825</ele>
        <time>2021-07-28T19:28:13Z</time>
      </trkpt>
      <trkpt lat="40.896918" lon="-3.936732">
        <ele>1875.526</ele>
        <time>2021-07-28T19:28:15Z</time>
      </trkpt>
      <trkpt lat="40.896896" lon="-3.936745">
        <ele>1876.708</ele>
        <time>2021-07-28T19:28:18Z</time>
      </trkpt>
      <trkpt lat="40.896909" lon="-3.936763">
        <ele>1876.608</ele>
        <time>2021-07-28T19:28:23Z</time>
      </trkpt>
      <trkpt lat="40.896928" lon="-3.936788">
        <ele>1876.329</ele>
        <time>2021-07-28T19:28:25Z</time>
      </trkpt>
      <trkpt lat="40.896934" lon="-3.936813">
        <ele>1876.661</ele>
        <time>2021-07-28T19:28:29Z</time>
      </trkpt>
      <trkpt lat="40.896947" lon="-3.936894">
        <ele>1877.928</ele>
        <time>2021-07-28T19:30:22Z</time>
      </trkpt>
      <trkpt lat="40.896947" lon="-3.936935">
        <ele>1878.855</ele>
        <time>2021-07-28T19:35:24Z</time>
      </trkpt>
      <trkpt lat="40.896938" lon="-3.936843">
        <ele>1877.196</ele>
        <time>2021-07-28T19:39:33Z</time>
      </trkpt>
      <trkpt lat="40.896954" lon="-3.936820">
        <ele>1876.346</ele>
        <time>2021-07-28T19:39:36Z</time>
      </trkpt>
      <trkpt lat="40.896954" lon="-3.936792">
        <ele>1875.759</ele>
        <time>2021-07-28T19:39:41Z</time>
      </trkpt>
      <trkpt lat="40.896902" lon="-3.936840">
        <ele>1878.510</ele>
        <time>2021-07-28T19:42:04Z</time>
      </trkpt>
      <trkpt lat="40.896928" lon="-3.936842">
        <ele>1877.565</ele>
        <time>2021-07-28T19:42:24Z</time>
      </trkpt>
      <trkpt lat="40.896950" lon="-3.936813">
        <ele>1876.268</ele>
        <time>2021-07-28T19:42:26Z</time>
      </trkpt>
      <trkpt lat="40.896966" lon="-3.936792">
        <ele>1875.714</ele>
        <time>2021-07-28T19:42:27Z</time>
      </trkpt>
      <trkpt lat="40.897008" lon="-3.936753">
        <ele>1875.008</ele>
        <time>2021-07-28T19:42:34Z</time>
      </trkpt>
      <trkpt lat="40.896998" lon="-3.936728">
        <ele>1874.523</ele>
        <time>2021-07-28T19:42:37Z</time>
      </trkpt>
      <trkpt lat="40.896998" lon="-3.936715">
        <ele>1874.335</ele>
        <time>2021-07-28T19:42:38Z</time>
      </trkpt>
      <trkpt lat="40.896995" lon="-3.936662">
        <ele>1873.382</ele>
        <time>2021-07-28T19:42:42Z</time>
      </trkpt>
      <trkpt lat="40.897002" lon="-3.936632">
        <ele>1872.949</ele>
        <time>2021-07-28T19:42:52Z</time>
      </trkpt>
      <trkpt lat="40.897011" lon="-3.936600">
        <ele>1872.530</ele>
        <time>2021-07-28T19:42:54Z</time>
      </trkpt>
      <trkpt lat="40.897014" lon="-3.936566">
        <ele>1872.090</ele>
        <time>2021-07-28T19:42:56Z</time>
      </trkpt>
      <trkpt lat="40.897014" lon="-3.936537">
        <ele>1871.583</ele>
        <time>2021-07-28T19:42:58Z</time>
      </trkpt>
      <trkpt lat="40.897014" lon="-3.936504">
        <ele>1871.054</ele>
        <time>2021-07-28T19:43:00Z</time>
      </trkpt>
      <trkpt lat="40.897008" lon="-3.936475">
        <ele>1870.594</ele>
        <time>2021-07-28T19:43:02Z</time>
      </trkpt>
      <trkpt lat="40.897008" lon="-3.936447">
        <ele>1870.057</ele>
        <time>2021-07-28T19:43:04Z</time>
      </trkpt>
      <trkpt lat="40.896995" lon="-3.936428">
        <ele>1869.522</ele>
        <time>2021-07-28T19:43:07Z</time>
      </trkpt>
      <trkpt lat="40.897008" lon="-3.936390">
        <ele>1869.208</ele>
        <time>2021-07-28T19:43:10Z</time>
      </trkpt>
      <trkpt lat="40.897008" lon="-3.936365">
        <ele>1868.966</ele>
        <time>2021-07-28T19:43:12Z</time>
      </trkpt>
      <trkpt lat="40.897018" lon="-3.936343">
        <ele>1868.988</ele>
        <time>2021-07-28T19:43:14Z</time>
      </trkpt>
      <trkpt lat="40.897027" lon="-3.936318">
        <ele>1868.815</ele>
        <time>2021-07-28T19:43:16Z</time>
      </trkpt>
      <trkpt lat="40.897030" lon="-3.936282">
        <ele>1868.532</ele>
        <time>2021-07-28T19:43:18Z</time>
      </trkpt>
      <trkpt lat="40.897030" lon="-3.936250">
        <ele>1868.253</ele>
        <time>2021-07-28T19:43:20Z</time>
      </trkpt>
      <trkpt lat="40.897040" lon="-3.936215">
        <ele>1868.163</ele>
        <time>2021-07-28T19:43:23Z</time>
      </trkpt>
      <trkpt lat="40.897053" lon="-3.936192">
        <ele>1868.116</ele>
        <time>2021-07-28T19:43:25Z</time>
      </trkpt>
      <trkpt lat="40.897072" lon="-3.936158">
        <ele>1868.227</ele>
        <time>2021-07-28T19:43:28Z</time>
      </trkpt>
      <trkpt lat="40.897091" lon="-3.936150">
        <ele>1868.577</ele>
        <time>2021-07-28T19:43:29Z</time>
      </trkpt>
      <trkpt lat="40.897110" lon="-3.936123">
        <ele>1868.761</ele>
        <time>2021-07-28T19:43:31Z</time>
      </trkpt>
      <trkpt lat="40.897133" lon="-3.936108">
        <ele>1869.027</ele>
        <time>2021-07-28T19:43:33Z</time>
      </trkpt>
      <trkpt lat="40.897149" lon="-3.936097">
        <ele>1869.308</ele>
        <time>2021-07-28T19:43:35Z</time>
      </trkpt>
      <trkpt lat="40.897165" lon="-3.936072">
        <ele>1869.444</ele>
        <time>2021-07-28T19:43:38Z</time>
      </trkpt>
      <trkpt lat="40.897174" lon="-3.936048">
        <ele>1869.436</ele>
        <time>2021-07-28T19:43:40Z</time>
      </trkpt>
      <trkpt lat="40.897190" lon="-3.936022">
        <ele>1869.683</ele>
        <time>2021-07-28T19:43:43Z</time>
      </trkpt>
      <trkpt lat="40.897200" lon="-3.935998">
        <ele>1869.640</ele>
        <time>2021-07-28T19:43:45Z</time>
      </trkpt>
      <trkpt lat="40.897213" lon="-3.935974">
        <ele>1869.871</ele>
        <time>2021-07-28T19:43:47Z</time>
      </trkpt>
      <trkpt lat="40.897216" lon="-3.935947">
        <ele>1869.771</ele>
        <time>2021-07-28T19:43:49Z</time>
      </trkpt>
      <trkpt lat="40.897229" lon="-3.935918">
        <ele>1869.824</ele>
        <time>2021-07-28T19:43:51Z</time>
      </trkpt>
      <trkpt lat="40.897245" lon="-3.935895">
        <ele>1870.055</ele>
        <time>2021-07-28T19:43:53Z</time>
      </trkpt>
      <trkpt lat="40.897258" lon="-3.935862">
        <ele>1870.114</ele>
        <time>2021-07-28T19:43:55Z</time>
      </trkpt>
      <trkpt lat="40.897274" lon="-3.935837">
        <ele>1870.354</ele>
        <time>2021-07-28T19:43:57Z</time>
      </trkpt>
      <trkpt lat="40.897290" lon="-3.935812">
        <ele>1870.509</ele>
        <time>2021-07-28T19:43:59Z</time>
      </trkpt>
      <trkpt lat="40.897306" lon="-3.935793">
        <ele>1870.708</ele>
        <time>2021-07-28T19:44:01Z</time>
      </trkpt>
      <trkpt lat="40.897312" lon="-3.935763">
        <ele>1870.548</ele>
        <time>2021-07-28T19:44:03Z</time>
      </trkpt>
      <trkpt lat="40.897328" lon="-3.935730">
        <ele>1870.550</ele>
        <time>2021-07-28T19:44:05Z</time>
      </trkpt>
      <trkpt lat="40.897334" lon="-3.935703">
        <ele>1870.477</ele>
        <time>2021-07-28T19:44:07Z</time>
      </trkpt>
      <trkpt lat="40.897344" lon="-3.935673">
        <ele>1870.344</ele>
        <time>2021-07-28T19:44:09Z</time>
      </trkpt>
      <trkpt lat="40.897354" lon="-3.935648">
        <ele>1870.355</ele>
        <time>2021-07-28T19:44:11Z</time>
      </trkpt>
      <trkpt lat="40.897366" lon="-3.935622">
        <ele>1870.355</ele>
        <time>2021-07-28T19:44:13Z</time>
      </trkpt>
      <trkpt lat="40.897376" lon="-3.935593">
        <ele>1870.338</ele>
        <time>2021-07-28T19:44:15Z</time>
      </trkpt>
      <trkpt lat="40.897389" lon="-3.935563">
        <ele>1870.379</ele>
        <time>2021-07-28T19:44:17Z</time>
      </trkpt>
      <trkpt lat="40.897389" lon="-3.935537">
        <ele>1870.127</ele>
        <time>2021-07-28T19:44:19Z</time>
      </trkpt>
      <trkpt lat="40.897408" lon="-3.935512">
        <ele>1870.468</ele>
        <time>2021-07-28T19:44:21Z</time>
      </trkpt>
      <trkpt lat="40.897430" lon="-3.935492">
        <ele>1870.814</ele>
        <time>2021-07-28T19:44:23Z</time>
      </trkpt>
      <trkpt lat="40.897450" lon="-3.935470">
        <ele>1871.108</ele>
        <time>2021-07-28T19:44:25Z</time>
      </trkpt>
      <trkpt lat="40.897456" lon="-3.935438">
        <ele>1871.099</ele>
        <time>2021-07-28T19:44:26Z</time>
      </trkpt>
      <trkpt lat="40.897469" lon="-3.935418">
        <ele>1871.261</ele>
        <time>2021-07-28T19:44:27Z</time>
      </trkpt>
      <trkpt lat="40.897488" lon="-3.935400">
        <ele>1871.638</ele>
        <time>2021-07-28T19:44:29Z</time>
      </trkpt>
      <trkpt lat="40.897507" lon="-3.935377">
        <ele>1871.965</ele>
        <time>2021-07-28T19:44:31Z</time>
      </trkpt>
      <trkpt lat="40.897526" lon="-3.935358">
        <ele>1872.376</ele>
        <time>2021-07-28T19:44:33Z</time>
      </trkpt>
      <trkpt lat="40.897542" lon="-3.935333">
        <ele>1872.616</ele>
        <time>2021-07-28T19:44:35Z</time>
      </trkpt>
      <trkpt lat="40.897552" lon="-3.935305">
        <ele>1872.759</ele>
        <time>2021-07-28T19:44:37Z</time>
      </trkpt>
      <trkpt lat="40.897568" lon="-3.935277">
        <ele>1873.050</ele>
        <time>2021-07-28T19:44:39Z</time>
      </trkpt>
      <trkpt lat="40.897587" lon="-3.935247">
        <ele>1873.224</ele>
        <time>2021-07-28T19:44:41Z</time>
      </trkpt>
      <trkpt lat="40.897594" lon="-3.935218">
        <ele>1873.104</ele>
        <time>2021-07-28T19:44:43Z</time>
      </trkpt>
      <trkpt lat="40.897603" lon="-3.935193">
        <ele>1873.114</ele>
        <time>2021-07-28T19:44:45Z</time>
      </trkpt>
      <trkpt lat="40.897613" lon="-3.935156">
        <ele>1872.908</ele>
        <time>2021-07-28T19:44:47Z</time>
      </trkpt>
      <trkpt lat="40.897622" lon="-3.935130">
        <ele>1872.919</ele>
        <time>2021-07-28T19:44:49Z</time>
      </trkpt>
      <trkpt lat="40.897632" lon="-3.935108">
        <ele>1873.021</ele>
        <time>2021-07-28T19:44:51Z</time>
      </trkpt>
      <trkpt lat="40.897648" lon="-3.935088">
        <ele>1873.258</ele>
        <time>2021-07-28T19:44:53Z</time>
      </trkpt>
      <trkpt lat="40.897664" lon="-3.935067">
        <ele>1873.435</ele>
        <time>2021-07-28T19:44:55Z</time>
      </trkpt>
      <trkpt lat="40.897674" lon="-3.935043">
        <ele>1873.536</ele>
        <time>2021-07-28T19:44:57Z</time>
      </trkpt>
      <trkpt lat="40.897686" lon="-3.935020">
        <ele>1873.616</ele>
        <time>2021-07-28T19:44:59Z</time>
      </trkpt>
      <trkpt lat="40.897693" lon="-3.934992">
        <ele>1873.569</ele>
        <time>2021-07-28T19:45:01Z</time>
      </trkpt>
      <trkpt lat="40.897709" lon="-3.934960">
        <ele>1873.790</ele>
        <time>2021-07-28T19:45:03Z</time>
      </trkpt>
      <trkpt lat="40.897722" lon="-3.934935">
        <ele>1873.913</ele>
        <time>2021-07-28T19:45:05Z</time>
      </trkpt>
      <trkpt lat="40.897731" lon="-3.934908">
        <ele>1873.943</ele>
        <time>2021-07-28T19:45:07Z</time>
      </trkpt>
      <trkpt lat="40.897747" lon="-3.934887">
        <ele>1874.307</ele>
        <time>2021-07-28T19:45:09Z</time>
      </trkpt>
      <trkpt lat="40.897760" lon="-3.934868">
        <ele>1874.508</ele>
        <time>2021-07-28T19:45:11Z</time>
      </trkpt>
      <trkpt lat="40.897773" lon="-3.934850">
        <ele>1874.818</ele>
        <time>2021-07-28T19:45:13Z</time>
      </trkpt>
      <trkpt lat="40.897786" lon="-3.934820">
        <ele>1875.090</ele>
        <time>2021-07-28T19:45:15Z</time>
      </trkpt>
      <trkpt lat="40.897802" lon="-3.934797">
        <ele>1875.417</ele>
        <time>2021-07-28T19:45:17Z</time>
      </trkpt>
      <trkpt lat="40.897814" lon="-3.934774">
        <ele>1875.784</ele>
        <time>2021-07-28T19:45:19Z</time>
      </trkpt>
      <trkpt lat="40.897827" lon="-3.934752">
        <ele>1876.065</ele>
        <time>2021-07-28T19:45:21Z</time>
      </trkpt>
      <trkpt lat="40.897843" lon="-3.934725">
        <ele>1876.435</ele>
        <time>2021-07-28T19:45:23Z</time>
      </trkpt>
      <trkpt lat="40.897859" lon="-3.934700">
        <ele>1876.788</ele>
        <time>2021-07-28T19:45:25Z</time>
      </trkpt>
      <trkpt lat="40.897872" lon="-3.934677">
        <ele>1877.039</ele>
        <time>2021-07-28T19:45:27Z</time>
      </trkpt>
      <trkpt lat="40.897888" lon="-3.934653">
        <ele>1877.313</ele>
        <time>2021-07-28T19:45:29Z</time>
      </trkpt>
      <trkpt lat="40.897904" lon="-3.934630">
        <ele>1877.743</ele>
        <time>2021-07-28T19:45:31Z</time>
      </trkpt>
      <trkpt lat="40.897920" lon="-3.934606">
        <ele>1878.107</ele>
        <time>2021-07-28T19:45:33Z</time>
      </trkpt>
      <trkpt lat="40.897930" lon="-3.934580">
        <ele>1878.208</ele>
        <time>2021-07-28T19:45:35Z</time>
      </trkpt>
      <trkpt lat="40.897942" lon="-3.934557">
        <ele>1878.558</ele>
        <time>2021-07-28T19:45:37Z</time>
      </trkpt>
      <trkpt lat="40.897974" lon="-3.934488">
        <ele>1879.160</ele>
        <time>2021-07-28T19:45:42Z</time>
      </trkpt>
      <trkpt lat="40.897990" lon="-3.934475">
        <ele>1879.717</ele>
        <time>2021-07-28T19:45:43Z</time>
      </trkpt>
      <trkpt lat="40.898010" lon="-3.934447">
        <ele>1880.234</ele>
        <time>2021-07-28T19:45:45Z</time>
      </trkpt>
      <trkpt lat="40.898026" lon="-3.934425">
        <ele>1880.745</ele>
        <time>2021-07-28T19:45:47Z</time>
      </trkpt>
      <trkpt lat="40.898045" lon="-3.934404">
        <ele>1881.395</ele>
        <time>2021-07-28T19:45:49Z</time>
      </trkpt>
      <trkpt lat="40.898058" lon="-3.934382">
        <ele>1881.698</ele>
        <time>2021-07-28T19:45:51Z</time>
      </trkpt>
      <trkpt lat="40.898067" lon="-3.934358">
        <ele>1881.719</ele>
        <time>2021-07-28T19:45:53Z</time>
      </trkpt>
      <trkpt lat="40.898083" lon="-3.934340">
        <ele>1881.979</ele>
        <time>2021-07-28T19:45:55Z</time>
      </trkpt>
      <trkpt lat="40.898099" lon="-3.934318">
        <ele>1882.105</ele>
        <time>2021-07-28T19:45:57Z</time>
      </trkpt>
      <trkpt lat="40.898122" lon="-3.934297">
        <ele>1882.525</ele>
        <time>2021-07-28T19:46:00Z</time>
      </trkpt>
      <trkpt lat="40.898138" lon="-3.934273">
        <ele>1882.708</ele>
        <time>2021-07-28T19:46:03Z</time>
      </trkpt>
      <trkpt lat="40.898150" lon="-3.934256">
        <ele>1882.854</ele>
        <time>2021-07-28T19:46:05Z</time>
      </trkpt>
      <trkpt lat="40.898166" lon="-3.934236">
        <ele>1883.056</ele>
        <time>2021-07-28T19:46:07Z</time>
      </trkpt>
      <trkpt lat="40.898186" lon="-3.934210">
        <ele>1883.233</ele>
        <time>2021-07-28T19:46:10Z</time>
      </trkpt>
      <trkpt lat="40.898198" lon="-3.934190">
        <ele>1883.330</ele>
        <time>2021-07-28T19:46:12Z</time>
      </trkpt>
      <trkpt lat="40.898218" lon="-3.934170">
        <ele>1883.561</ele>
        <time>2021-07-28T19:46:14Z</time>
      </trkpt>
      <trkpt lat="40.898230" lon="-3.934152">
        <ele>1883.641</ele>
        <time>2021-07-28T19:46:16Z</time>
      </trkpt>
      <trkpt lat="40.898243" lon="-3.934128">
        <ele>1883.624</ele>
        <time>2021-07-28T19:46:18Z</time>
      </trkpt>
      <trkpt lat="40.898259" lon="-3.934112">
        <ele>1883.895</ele>
        <time>2021-07-28T19:46:20Z</time>
      </trkpt>
      <trkpt lat="40.898272" lon="-3.934092">
        <ele>1883.836</ele>
        <time>2021-07-28T19:46:22Z</time>
      </trkpt>
      <trkpt lat="40.898285" lon="-3.934070">
        <ele>1883.917</ele>
        <time>2021-07-28T19:46:24Z</time>
      </trkpt>
      <trkpt lat="40.898291" lon="-3.934045">
        <ele>1883.718</ele>
        <time>2021-07-28T19:46:26Z</time>
      </trkpt>
      <trkpt lat="40.898317" lon="-3.934030">
        <ele>1884.108</ele>
        <time>2021-07-28T19:46:28Z</time>
      </trkpt>
      <trkpt lat="40.898342" lon="-3.934010">
        <ele>1884.520</ele>
        <time>2021-07-28T19:46:31Z</time>
      </trkpt>
      <trkpt lat="40.898365" lon="-3.933995">
        <ele>1884.982</ele>
        <time>2021-07-28T19:46:33Z</time>
      </trkpt>
      <trkpt lat="40.898384" lon="-3.933978">
        <ele>1885.129</ele>
        <time>2021-07-28T19:46:35Z</time>
      </trkpt>
      <trkpt lat="40.898406" lon="-3.933967">
        <ele>1885.586</ele>
        <time>2021-07-28T19:46:37Z</time>
      </trkpt>
      <trkpt lat="40.898426" lon="-3.933962">
        <ele>1885.937</ele>
        <time>2021-07-28T19:46:39Z</time>
      </trkpt>
      <trkpt lat="40.898448" lon="-3.933953">
        <ele>1886.347</ele>
        <time>2021-07-28T19:46:41Z</time>
      </trkpt>
      <trkpt lat="40.898470" lon="-3.933942">
        <ele>1886.620</ele>
        <time>2021-07-28T19:46:43Z</time>
      </trkpt>
      <trkpt lat="40.898499" lon="-3.933928">
        <ele>1887.121</ele>
        <time>2021-07-28T19:46:45Z</time>
      </trkpt>
      <trkpt lat="40.898518" lon="-3.933922">
        <ele>1887.492</ele>
        <time>2021-07-28T19:46:47Z</time>
      </trkpt>
      <trkpt lat="40.898538" lon="-3.933913">
        <ele>1887.773</ele>
        <time>2021-07-28T19:46:49Z</time>
      </trkpt>
      <trkpt lat="40.898560" lon="-3.933908">
        <ele>1888.220</ele>
        <time>2021-07-28T19:46:51Z</time>
      </trkpt>
      <trkpt lat="40.898582" lon="-3.933900">
        <ele>1888.508</ele>
        <time>2021-07-28T19:46:53Z</time>
      </trkpt>
      <trkpt lat="40.898602" lon="-3.933892">
        <ele>1888.876</ele>
        <time>2021-07-28T19:46:55Z</time>
      </trkpt>
      <trkpt lat="40.898621" lon="-3.933886">
        <ele>1889.168</ele>
        <time>2021-07-28T19:46:57Z</time>
      </trkpt>
      <trkpt lat="40.898646" lon="-3.933882">
        <ele>1889.435</ele>
        <time>2021-07-28T19:46:59Z</time>
      </trkpt>
      <trkpt lat="40.898669" lon="-3.933878">
        <ele>1889.732</ele>
        <time>2021-07-28T19:47:01Z</time>
      </trkpt>
      <trkpt lat="40.898698" lon="-3.933864">
        <ele>1889.963</ele>
        <time>2021-07-28T19:47:03Z</time>
      </trkpt>
      <trkpt lat="40.898720" lon="-3.933853">
        <ele>1890.153</ele>
        <time>2021-07-28T19:47:05Z</time>
      </trkpt>
      <trkpt lat="40.898742" lon="-3.933845">
        <ele>1890.326</ele>
        <time>2021-07-28T19:47:07Z</time>
      </trkpt>
      <trkpt lat="40.898765" lon="-3.933840">
        <ele>1890.597</ele>
        <time>2021-07-28T19:47:09Z</time>
      </trkpt>
      <trkpt lat="40.898800" lon="-3.933837">
        <ele>1891.064</ele>
        <time>2021-07-28T19:47:11Z</time>
      </trkpt>
      <trkpt lat="40.898822" lon="-3.933828">
        <ele>1891.206</ele>
        <time>2021-07-28T19:47:13Z</time>
      </trkpt>
      <trkpt lat="40.898845" lon="-3.933822">
        <ele>1891.416</ele>
        <time>2021-07-28T19:47:15Z</time>
      </trkpt>
      <trkpt lat="40.898864" lon="-3.933813">
        <ele>1891.508</ele>
        <time>2021-07-28T19:47:17Z</time>
      </trkpt>
      <trkpt lat="40.898893" lon="-3.933808">
        <ele>1891.993</ele>
        <time>2021-07-28T19:47:19Z</time>
      </trkpt>
      <trkpt lat="40.898912" lon="-3.933798">
        <ele>1891.935</ele>
        <time>2021-07-28T19:47:21Z</time>
      </trkpt>
      <trkpt lat="40.898934" lon="-3.933790">
        <ele>1891.992</ele>
        <time>2021-07-28T19:47:24Z</time>
      </trkpt>
      <trkpt lat="40.898957" lon="-3.933787">
        <ele>1892.049</ele>
        <time>2021-07-28T19:47:26Z</time>
      </trkpt>
      <trkpt lat="40.898979" lon="-3.933782">
        <ele>1892.190</ele>
        <time>2021-07-28T19:47:28Z</time>
      </trkpt>
      <trkpt lat="40.899005" lon="-3.933770">
        <ele>1892.110</ele>
        <time>2021-07-28T19:47:30Z</time>
      </trkpt>
      <trkpt lat="40.899024" lon="-3.933765">
        <ele>1892.273</ele>
        <time>2021-07-28T19:47:32Z</time>
      </trkpt>
      <trkpt lat="40.899053" lon="-3.933762">
        <ele>1892.424</ele>
        <time>2021-07-28T19:47:34Z</time>
      </trkpt>
      <trkpt lat="40.899075" lon="-3.933763">
        <ele>1892.522</ele>
        <time>2021-07-28T19:47:36Z</time>
      </trkpt>
      <trkpt lat="40.899101" lon="-3.933768">
        <ele>1892.862</ele>
        <time>2021-07-28T19:47:38Z</time>
      </trkpt>
      <trkpt lat="40.899123" lon="-3.933772">
        <ele>1893.008</ele>
        <time>2021-07-28T19:47:40Z</time>
      </trkpt>
      <trkpt lat="40.899146" lon="-3.933783">
        <ele>1893.308</ele>
        <time>2021-07-28T19:47:43Z</time>
      </trkpt>
      <trkpt lat="40.899171" lon="-3.933788">
        <ele>1893.589</ele>
        <time>2021-07-28T19:47:45Z</time>
      </trkpt>
      <trkpt lat="40.899197" lon="-3.933792">
        <ele>1893.661</ele>
        <time>2021-07-28T19:47:47Z</time>
      </trkpt>
      <trkpt lat="40.899216" lon="-3.933800">
        <ele>1893.748</ele>
        <time>2021-07-28T19:47:49Z</time>
      </trkpt>
      <trkpt lat="40.899238" lon="-3.933812">
        <ele>1893.995</ele>
        <time>2021-07-28T19:47:51Z</time>
      </trkpt>
      <trkpt lat="40.899261" lon="-3.933815">
        <ele>1893.936</ele>
        <time>2021-07-28T19:47:53Z</time>
      </trkpt>
      <trkpt lat="40.899290" lon="-3.933823">
        <ele>1894.136</ele>
        <time>2021-07-28T19:47:56Z</time>
      </trkpt>
      <trkpt lat="40.899315" lon="-3.933818">
        <ele>1894.079</ele>
        <time>2021-07-28T19:47:58Z</time>
      </trkpt>
      <trkpt lat="40.899334" lon="-3.933833">
        <ele>1894.210</ele>
        <time>2021-07-28T19:48:00Z</time>
      </trkpt>
      <trkpt lat="40.899350" lon="-3.933850">
        <ele>1894.428</ele>
        <time>2021-07-28T19:48:02Z</time>
      </trkpt>
      <trkpt lat="40.899370" lon="-3.933862">
        <ele>1894.689</ele>
        <time>2021-07-28T19:48:04Z</time>
      </trkpt>
      <trkpt lat="40.899395" lon="-3.933885">
        <ele>1894.917</ele>
        <time>2021-07-28T19:48:07Z</time>
      </trkpt>
      <trkpt lat="40.899418" lon="-3.933896">
        <ele>1895.108</ele>
        <time>2021-07-28T19:48:09Z</time>
      </trkpt>
      <trkpt lat="40.899450" lon="-3.933903">
        <ele>1895.239</ele>
        <time>2021-07-28T19:48:12Z</time>
      </trkpt>
      <trkpt lat="40.899469" lon="-3.933912">
        <ele>1895.361</ele>
        <time>2021-07-28T19:48:14Z</time>
      </trkpt>
      <trkpt lat="40.899488" lon="-3.933938">
        <ele>1895.728</ele>
        <time>2021-07-28T19:48:17Z</time>
      </trkpt>
      <trkpt lat="40.899507" lon="-3.933945">
        <ele>1895.885</ele>
        <time>2021-07-28T19:48:19Z</time>
      </trkpt>
      <trkpt lat="40.899530" lon="-3.933960">
        <ele>1896.036</ele>
        <time>2021-07-28T19:48:21Z</time>
      </trkpt>
      <trkpt lat="40.899542" lon="-3.933982">
        <ele>1896.376</ele>
        <time>2021-07-28T19:48:23Z</time>
      </trkpt>
      <trkpt lat="40.899568" lon="-3.933990">
        <ele>1896.499</ele>
        <time>2021-07-28T19:48:25Z</time>
      </trkpt>
      <trkpt lat="40.899594" lon="-3.934008">
        <ele>1896.680</ele>
        <time>2021-07-28T19:48:28Z</time>
      </trkpt>
      <trkpt lat="40.899613" lon="-3.934017">
        <ele>1896.744</ele>
        <time>2021-07-28T19:48:30Z</time>
      </trkpt>
      <trkpt lat="40.899632" lon="-3.934030">
        <ele>1896.905</ele>
        <time>2021-07-28T19:48:32Z</time>
      </trkpt>
      <trkpt lat="40.899651" lon="-3.934048">
        <ele>1897.115</ele>
        <time>2021-07-28T19:48:35Z</time>
      </trkpt>
      <trkpt lat="40.899674" lon="-3.934062">
        <ele>1897.308</ele>
        <time>2021-07-28T19:48:37Z</time>
      </trkpt>
      <trkpt lat="40.899693" lon="-3.934090">
        <ele>1897.751</ele>
        <time>2021-07-28T19:48:39Z</time>
      </trkpt>
      <trkpt lat="40.899712" lon="-3.934105">
        <ele>1897.923</ele>
        <time>2021-07-28T19:48:41Z</time>
      </trkpt>
      <trkpt lat="40.899731" lon="-3.934115">
        <ele>1898.030</ele>
        <time>2021-07-28T19:48:43Z</time>
      </trkpt>
      <trkpt lat="40.899738" lon="-3.934145">
        <ele>1898.697</ele>
        <time>2021-07-28T19:48:45Z</time>
      </trkpt>
      <trkpt lat="40.899757" lon="-3.934167">
        <ele>1898.928</ele>
        <time>2021-07-28T19:48:47Z</time>
      </trkpt>
      <trkpt lat="40.899789" lon="-3.934170">
        <ele>1898.828</ele>
        <time>2021-07-28T19:48:49Z</time>
      </trkpt>
      <trkpt lat="40.899811" lon="-3.934168">
        <ele>1898.751</ele>
        <time>2021-07-28T19:48:50Z</time>
      </trkpt>
      <trkpt lat="40.899821" lon="-3.934192">
        <ele>1899.152</ele>
        <time>2021-07-28T19:48:52Z</time>
      </trkpt>
      <trkpt lat="40.899837" lon="-3.934213">
        <ele>1899.551</ele>
        <time>2021-07-28T19:48:54Z</time>
      </trkpt>
      <trkpt lat="40.899859" lon="-3.934230">
        <ele>1899.801</ele>
        <time>2021-07-28T19:48:56Z</time>
      </trkpt>
      <trkpt lat="40.899869" lon="-3.934252">
        <ele>1900.211</ele>
        <time>2021-07-28T19:48:58Z</time>
      </trkpt>
      <trkpt lat="40.899885" lon="-3.934268">
        <ele>1900.508</ele>
        <time>2021-07-28T19:49:00Z</time>
      </trkpt>
      <trkpt lat="40.899910" lon="-3.934283">
        <ele>1900.722</ele>
        <time>2021-07-28T19:49:03Z</time>
      </trkpt>
      <trkpt lat="40.899930" lon="-3.934300">
        <ele>1901.084</ele>
        <time>2021-07-28T19:49:05Z</time>
      </trkpt>
      <trkpt lat="40.899949" lon="-3.934318">
        <ele>1901.431</ele>
        <time>2021-07-28T19:49:07Z</time>
      </trkpt>
      <trkpt lat="40.899971" lon="-3.934327">
        <ele>1901.518</ele>
        <time>2021-07-28T19:49:09Z</time>
      </trkpt>
      <trkpt lat="40.899997" lon="-3.934332">
        <ele>1901.619</ele>
        <time>2021-07-28T19:49:11Z</time>
      </trkpt>
      <trkpt lat="40.900019" lon="-3.934335">
        <ele>1901.689</ele>
        <time>2021-07-28T19:49:13Z</time>
      </trkpt>
      <trkpt lat="40.900045" lon="-3.934345">
        <ele>1901.962</ele>
        <time>2021-07-28T19:49:15Z</time>
      </trkpt>
      <trkpt lat="40.900064" lon="-3.934353">
        <ele>1902.063</ele>
        <time>2021-07-28T19:49:17Z</time>
      </trkpt>
      <trkpt lat="40.900086" lon="-3.934358">
        <ele>1902.154</ele>
        <time>2021-07-28T19:49:19Z</time>
      </trkpt>
      <trkpt lat="40.900106" lon="-3.934365">
        <ele>1902.356</ele>
        <time>2021-07-28T19:49:21Z</time>
      </trkpt>
      <trkpt lat="40.900125" lon="-3.934370">
        <ele>1902.411</ele>
        <time>2021-07-28T19:49:23Z</time>
      </trkpt>
      <trkpt lat="40.900147" lon="-3.934383">
        <ele>1902.708</ele>
        <time>2021-07-28T19:49:25Z</time>
      </trkpt>
      <trkpt lat="40.900166" lon="-3.934395">
        <ele>1902.992</ele>
        <time>2021-07-28T19:49:27Z</time>
      </trkpt>
      <trkpt lat="40.900189" lon="-3.934404">
        <ele>1903.194</ele>
        <time>2021-07-28T19:49:29Z</time>
      </trkpt>
      <trkpt lat="40.900211" lon="-3.934408">
        <ele>1903.291</ele>
        <time>2021-07-28T19:49:31Z</time>
      </trkpt>
      <trkpt lat="40.900230" lon="-3.934418">
        <ele>1903.488</ele>
        <time>2021-07-28T19:49:33Z</time>
      </trkpt>
      <trkpt lat="40.900250" lon="-3.934435">
        <ele>1903.899</ele>
        <time>2021-07-28T19:49:35Z</time>
      </trkpt>
      <trkpt lat="40.900269" lon="-3.934445">
        <ele>1904.059</ele>
        <time>2021-07-28T19:49:37Z</time>
      </trkpt>
      <trkpt lat="40.900294" lon="-3.934453">
        <ele>1904.172</ele>
        <time>2021-07-28T19:49:40Z</time>
      </trkpt>
      <trkpt lat="40.900323" lon="-3.934460">
        <ele>1904.073</ele>
        <time>2021-07-28T19:49:42Z</time>
      </trkpt>
      <trkpt lat="40.900342" lon="-3.934467">
        <ele>1904.067</ele>
        <time>2021-07-28T19:49:44Z</time>
      </trkpt>
      <trkpt lat="40.900362" lon="-3.934473">
        <ele>1904.081</ele>
        <time>2021-07-28T19:49:46Z</time>
      </trkpt>
      <trkpt lat="40.900384" lon="-3.934487">
        <ele>1904.219</ele>
        <time>2021-07-28T19:49:48Z</time>
      </trkpt>
      <trkpt lat="40.900410" lon="-3.934487">
        <ele>1904.008</ele>
        <time>2021-07-28T19:49:50Z</time>
      </trkpt>
      <trkpt lat="40.900429" lon="-3.934500">
        <ele>1904.243</ele>
        <time>2021-07-28T19:49:52Z</time>
      </trkpt>
      <trkpt lat="40.900451" lon="-3.934518">
        <ele>1904.575</ele>
        <time>2021-07-28T19:49:54Z</time>
      </trkpt>
      <trkpt lat="40.900474" lon="-3.934527">
        <ele>1904.672</ele>
        <time>2021-07-28T19:49:56Z</time>
      </trkpt>
      <trkpt lat="40.900496" lon="-3.934540">
        <ele>1904.869</ele>
        <time>2021-07-28T19:49:58Z</time>
      </trkpt>
      <trkpt lat="40.900515" lon="-3.934550">
        <ele>1904.950</ele>
        <time>2021-07-28T19:50:00Z</time>
      </trkpt>
      <trkpt lat="40.900541" lon="-3.934557">
        <ele>1904.970</ele>
        <time>2021-07-28T19:50:02Z</time>
      </trkpt>
      <trkpt lat="40.900560" lon="-3.934586">
        <ele>1905.533</ele>
        <time>2021-07-28T19:50:05Z</time>
      </trkpt>
      <trkpt lat="40.900576" lon="-3.934612">
        <ele>1905.984</ele>
        <time>2021-07-28T19:50:08Z</time>
      </trkpt>
      <trkpt lat="40.900592" lon="-3.934626">
        <ele>1905.987</ele>
        <time>2021-07-28T19:50:10Z</time>
      </trkpt>
      <trkpt lat="40.900602" lon="-3.934655">
        <ele>1906.542</ele>
        <time>2021-07-28T19:50:13Z</time>
      </trkpt>
      <trkpt lat="40.900602" lon="-3.934690">
        <ele>1907.426</ele>
        <time>2021-07-28T19:50:17Z</time>
      </trkpt>
      <trkpt lat="40.900586" lon="-3.934707">
        <ele>1908.108</ele>
        <time>2021-07-28T19:50:20Z</time>
      </trkpt>
      <trkpt lat="40.900560" lon="-3.934710">
        <ele>1908.625</ele>
        <time>2021-07-28T19:50:23Z</time>
      </trkpt>
      <trkpt lat="40.900541" lon="-3.934717">
        <ele>1908.997</ele>
        <time>2021-07-28T19:50:25Z</time>
      </trkpt>
      <trkpt lat="40.900515" lon="-3.934710">
        <ele>1908.844</ele>
        <time>2021-07-28T19:50:27Z</time>
      </trkpt>
      <trkpt lat="40.900493" lon="-3.934697">
        <ele>1908.681</ele>
        <time>2021-07-28T19:50:29Z</time>
      </trkpt>
      <trkpt lat="40.900470" lon="-3.934688">
        <ele>1908.572</ele>
        <time>2021-07-28T19:50:31Z</time>
      </trkpt>
      <trkpt lat="40.900451" lon="-3.934678">
        <ele>1908.372</ele>
        <time>2021-07-28T19:50:33Z</time>
      </trkpt>
      <trkpt lat="40.900429" lon="-3.934668">
        <ele>1908.225</ele>
        <time>2021-07-28T19:50:35Z</time>
      </trkpt>
      <trkpt lat="40.900410" lon="-3.934655">
        <ele>1908.066</ele>
        <time>2021-07-28T19:50:37Z</time>
      </trkpt>
      <trkpt lat="40.900384" lon="-3.934636">
        <ele>1907.647</ele>
        <time>2021-07-28T19:50:39Z</time>
      </trkpt>
      <trkpt lat="40.900362" lon="-3.934633">
        <ele>1907.729</ele>
        <time>2021-07-28T19:50:41Z</time>
      </trkpt>
      <trkpt lat="40.900336" lon="-3.934630">
        <ele>1907.721</ele>
        <time>2021-07-28T19:50:43Z</time>
      </trkpt>
      <trkpt lat="40.900310" lon="-3.934633">
        <ele>1907.908</ele>
        <time>2021-07-28T19:50:45Z</time>
      </trkpt>
      <trkpt lat="40.900291" lon="-3.934636">
        <ele>1908.111</ele>
        <time>2021-07-28T19:50:47Z</time>
      </trkpt>
      <trkpt lat="40.900269" lon="-3.934638">
        <ele>1908.233</ele>
        <time>2021-07-28T19:50:49Z</time>
      </trkpt>
      <trkpt lat="40.900237" lon="-3.934643">
        <ele>1908.370</ele>
        <time>2021-07-28T19:50:51Z</time>
      </trkpt>
      <trkpt lat="40.900211" lon="-3.934648">
        <ele>1908.487</ele>
        <time>2021-07-28T19:50:53Z</time>
      </trkpt>
      <trkpt lat="40.900189" lon="-3.934652">
        <ele>1908.518</ele>
        <time>2021-07-28T19:50:55Z</time>
      </trkpt>
      <trkpt lat="40.900166" lon="-3.934663">
        <ele>1908.798</ele>
        <time>2021-07-28T19:50:57Z</time>
      </trkpt>
      <trkpt lat="40.900144" lon="-3.934673">
        <ele>1908.981</ele>
        <time>2021-07-28T19:50:59Z</time>
      </trkpt>
      <trkpt lat="40.900118" lon="-3.934682">
        <ele>1909.162</ele>
        <time>2021-07-28T19:51:01Z</time>
      </trkpt>
      <trkpt lat="40.900099" lon="-3.934688">
        <ele>1909.348</ele>
        <time>2021-07-28T19:51:03Z</time>
      </trkpt>
      <trkpt lat="40.900070" lon="-3.934695">
        <ele>1909.461</ele>
        <time>2021-07-28T19:51:06Z</time>
      </trkpt>
      <trkpt lat="40.900048" lon="-3.934705">
        <ele>1909.617</ele>
        <time>2021-07-28T19:51:08Z</time>
      </trkpt>
      <trkpt lat="40.900029" lon="-3.934715">
        <ele>1909.808</ele>
        <time>2021-07-28T19:51:10Z</time>
      </trkpt>
      <trkpt lat="40.899997" lon="-3.934725">
        <ele>1910.031</ele>
        <time>2021-07-28T19:51:12Z</time>
      </trkpt>
      <trkpt lat="40.899974" lon="-3.934740">
        <ele>1910.333</ele>
        <time>2021-07-28T19:51:15Z</time>
      </trkpt>
      <trkpt lat="40.899955" lon="-3.934752">
        <ele>1910.570</ele>
        <time>2021-07-28T19:51:17Z</time>
      </trkpt>
      <trkpt lat="40.899936" lon="-3.934760">
        <ele>1910.787</ele>
        <time>2021-07-28T19:51:19Z</time>
      </trkpt>
      <trkpt lat="40.899914" lon="-3.934782">
        <ele>1911.138</ele>
        <time>2021-07-28T19:51:21Z</time>
      </trkpt>
      <trkpt lat="40.899898" lon="-3.934797">
        <ele>1911.358</ele>
        <time>2021-07-28T19:51:23Z</time>
      </trkpt>
      <trkpt lat="40.899872" lon="-3.934815">
        <ele>1911.711</ele>
        <time>2021-07-28T19:51:26Z</time>
      </trkpt>
      <trkpt lat="40.899853" lon="-3.934827">
        <ele>1911.942</ele>
        <time>2021-07-28T19:51:28Z</time>
      </trkpt>
      <trkpt lat="40.899834" lon="-3.934840">
        <ele>1912.153</ele>
        <time>2021-07-28T19:51:30Z</time>
      </trkpt>
      <trkpt lat="40.899811" lon="-3.934848">
        <ele>1912.304</ele>
        <time>2021-07-28T19:51:32Z</time>
      </trkpt>
      <trkpt lat="40.899792" lon="-3.934857">
        <ele>1912.414</ele>
        <time>2021-07-28T19:51:34Z</time>
      </trkpt>
      <trkpt lat="40.899766" lon="-3.934867">
        <ele>1912.608</ele>
        <time>2021-07-28T19:51:36Z</time>
      </trkpt>
      <trkpt lat="40.899747" lon="-3.934880">
        <ele>1912.882</ele>
        <time>2021-07-28T19:51:38Z</time>
      </trkpt>
      <trkpt lat="40.899722" lon="-3.934890">
        <ele>1913.044</ele>
        <time>2021-07-28T19:51:40Z</time>
      </trkpt>
      <trkpt lat="40.899699" lon="-3.934898">
        <ele>1913.131</ele>
        <time>2021-07-28T19:51:42Z</time>
      </trkpt>
      <trkpt lat="40.899680" lon="-3.934907">
        <ele>1913.218</ele>
        <time>2021-07-28T19:51:44Z</time>
      </trkpt>
      <trkpt lat="40.899658" lon="-3.934925">
        <ele>1913.539</ele>
        <time>2021-07-28T19:51:46Z</time>
      </trkpt>
      <trkpt lat="40.899638" lon="-3.934940">
        <ele>1913.789</ele>
        <time>2021-07-28T19:51:48Z</time>
      </trkpt>
      <trkpt lat="40.899616" lon="-3.934945">
        <ele>1913.722</ele>
        <time>2021-07-28T19:51:50Z</time>
      </trkpt>
      <trkpt lat="40.899594" lon="-3.934956">
        <ele>1913.853</ele>
        <time>2021-07-28T19:51:52Z</time>
      </trkpt>
      <trkpt lat="40.899578" lon="-3.934973">
        <ele>1914.084</ele>
        <time>2021-07-28T19:51:54Z</time>
      </trkpt>
      <trkpt lat="40.899555" lon="-3.934988">
        <ele>1914.207</ele>
        <time>2021-07-28T19:51:56Z</time>
      </trkpt>
      <trkpt lat="40.899536" lon="-3.935003">
        <ele>1914.417</ele>
        <time>2021-07-28T19:51:58Z</time>
      </trkpt>
      <trkpt lat="40.899517" lon="-3.935022">
        <ele>1914.608</ele>
        <time>2021-07-28T19:52:00Z</time>
      </trkpt>
      <trkpt lat="40.899501" lon="-3.935040">
        <ele>1914.835</ele>
        <time>2021-07-28T19:52:02Z</time>
      </trkpt>
      <trkpt lat="40.899482" lon="-3.935053">
        <ele>1914.937</ele>
        <time>2021-07-28T19:52:04Z</time>
      </trkpt>
      <trkpt lat="40.899459" lon="-3.935068">
        <ele>1915.044</ele>
        <time>2021-07-28T19:52:06Z</time>
      </trkpt>
      <trkpt lat="40.899443" lon="-3.935082">
        <ele>1915.271</ele>
        <time>2021-07-28T19:52:08Z</time>
      </trkpt>
      <trkpt lat="40.899424" lon="-3.935097">
        <ele>1915.242</ele>
        <time>2021-07-28T19:52:10Z</time>
      </trkpt>
      <trkpt lat="40.899408" lon="-3.935115">
        <ele>1915.412</ele>
        <time>2021-07-28T19:52:12Z</time>
      </trkpt>
      <trkpt lat="40.899392" lon="-3.935130">
        <ele>1915.535</ele>
        <time>2021-07-28T19:52:14Z</time>
      </trkpt>
      <trkpt lat="40.899373" lon="-3.935150">
        <ele>1915.656</ele>
        <time>2021-07-28T19:52:16Z</time>
      </trkpt>
      <trkpt lat="40.899357" lon="-3.935162">
        <ele>1915.779</ele>
        <time>2021-07-28T19:52:18Z</time>
      </trkpt>
      <trkpt lat="40.899334" lon="-3.935175">
        <ele>1915.705</ele>
        <time>2021-07-28T19:52:20Z</time>
      </trkpt>
      <trkpt lat="40.899318" lon="-3.935193">
        <ele>1915.925</ele>
        <time>2021-07-28T19:52:22Z</time>
      </trkpt>
      <trkpt lat="40.899299" lon="-3.935218">
        <ele>1916.108</ele>
        <time>2021-07-28T19:52:24Z</time>
      </trkpt>
      <trkpt lat="40.899283" lon="-3.935233">
        <ele>1916.294</ele>
        <time>2021-07-28T19:52:26Z</time>
      </trkpt>
      <trkpt lat="40.899264" lon="-3.935252">
        <ele>1916.346</ele>
        <time>2021-07-28T19:52:28Z</time>
      </trkpt>
      <trkpt lat="40.899245" lon="-3.935270">
        <ele>1916.593</ele>
        <time>2021-07-28T19:52:30Z</time>
      </trkpt>
      <trkpt lat="40.899226" lon="-3.935295">
        <ele>1916.770</ele>
        <time>2021-07-28T19:52:33Z</time>
      </trkpt>
      <trkpt lat="40.899210" lon="-3.935312">
        <ele>1916.851</ele>
        <time>2021-07-28T19:52:35Z</time>
      </trkpt>
      <trkpt lat="40.899197" lon="-3.935328">
        <ele>1916.991</ele>
        <time>2021-07-28T19:52:37Z</time>
      </trkpt>
      <trkpt lat="40.899174" lon="-3.935348">
        <ele>1917.184</ele>
        <time>2021-07-28T19:52:39Z</time>
      </trkpt>
      <trkpt lat="40.899155" lon="-3.935358">
        <ele>1917.065</ele>
        <time>2021-07-28T19:52:42Z</time>
      </trkpt>
      <trkpt lat="40.899136" lon="-3.935358">
        <ele>1916.833</ele>
        <time>2021-07-28T19:52:58Z</time>
      </trkpt>
      <trkpt lat="40.899126" lon="-3.935385">
        <ele>1917.023</ele>
        <time>2021-07-28T19:53:01Z</time>
      </trkpt>
      <trkpt lat="40.899104" lon="-3.935405">
        <ele>1916.915</ele>
        <time>2021-07-28T19:53:04Z</time>
      </trkpt>
      <trkpt lat="40.899085" lon="-3.935438">
        <ele>1917.108</ele>
        <time>2021-07-28T19:53:07Z</time>
      </trkpt>
      <trkpt lat="40.899075" lon="-3.935462">
        <ele>1917.250</ele>
        <time>2021-07-28T19:53:09Z</time>
      </trkpt>
      <trkpt lat="40.899062" lon="-3.935480">
        <ele>1917.252</ele>
        <time>2021-07-28T19:53:10Z</time>
      </trkpt>
      <trkpt lat="40.899046" lon="-3.935505">
        <ele>1917.369</ele>
        <time>2021-07-28T19:53:12Z</time>
      </trkpt>
      <trkpt lat="40.899037" lon="-3.935535">
        <ele>1917.476</ele>
        <time>2021-07-28T19:53:14Z</time>
      </trkpt>
      <trkpt lat="40.899027" lon="-3.935558">
        <ele>1917.527</ele>
        <time>2021-07-28T19:53:16Z</time>
      </trkpt>
      <trkpt lat="40.899021" lon="-3.935583">
        <ele>1917.777</ele>
        <time>2021-07-28T19:53:18Z</time>
      </trkpt>
      <trkpt lat="40.899005" lon="-3.935615">
        <ele>1917.780</ele>
        <time>2021-07-28T19:53:20Z</time>
      </trkpt>
      <trkpt lat="40.898998" lon="-3.935643">
        <ele>1917.921</ele>
        <time>2021-07-28T19:53:22Z</time>
      </trkpt>
      <trkpt lat="40.898992" lon="-3.935672">
        <ele>1918.198</ele>
        <time>2021-07-28T19:53:24Z</time>
      </trkpt>
      <trkpt lat="40.898979" lon="-3.935702">
        <ele>1918.215</ele>
        <time>2021-07-28T19:53:26Z</time>
      </trkpt>
      <trkpt lat="40.898966" lon="-3.935733">
        <ele>1918.326</ele>
        <time>2021-07-28T19:53:28Z</time>
      </trkpt>
      <trkpt lat="40.898960" lon="-3.935762">
        <ele>1918.508</ele>
        <time>2021-07-28T19:53:30Z</time>
      </trkpt>
      <trkpt lat="40.898954" lon="-3.935792">
        <ele>1918.726</ele>
        <time>2021-07-28T19:53:32Z</time>
      </trkpt>
      <trkpt lat="40.898944" lon="-3.935825">
        <ele>1918.998</ele>
        <time>2021-07-28T19:53:34Z</time>
      </trkpt>
      <trkpt lat="40.898954" lon="-3.935858">
        <ele>1919.455</ele>
        <time>2021-07-28T19:53:37Z</time>
      </trkpt>
      <trkpt lat="40.898944" lon="-3.935895">
        <ele>1919.612</ele>
        <time>2021-07-28T19:53:39Z</time>
      </trkpt>
      <trkpt lat="40.898934" lon="-3.935933">
        <ele>1919.813</ele>
        <time>2021-07-28T19:53:41Z</time>
      </trkpt>
      <trkpt lat="40.898925" lon="-3.935965">
        <ele>1920.033</ele>
        <time>2021-07-28T19:53:43Z</time>
      </trkpt>
      <trkpt lat="40.898918" lon="-3.935996">
        <ele>1920.226</ele>
        <time>2021-07-28T19:53:45Z</time>
      </trkpt>
      <trkpt lat="40.898915" lon="-3.936030">
        <ele>1920.587</ele>
        <time>2021-07-28T19:53:47Z</time>
      </trkpt>
      <trkpt lat="40.898906" lon="-3.936062">
        <ele>1920.789</ele>
        <time>2021-07-28T19:53:49Z</time>
      </trkpt>
      <trkpt lat="40.898899" lon="-3.936098">
        <ele>1921.006</ele>
        <time>2021-07-28T19:53:51Z</time>
      </trkpt>
      <trkpt lat="40.898886" lon="-3.936135">
        <ele>1921.126</ele>
        <time>2021-07-28T19:53:53Z</time>
      </trkpt>
      <trkpt lat="40.898877" lon="-3.936170">
        <ele>1921.108</ele>
        <time>2021-07-28T19:53:55Z</time>
      </trkpt>
      <trkpt lat="40.898864" lon="-3.936200">
        <ele>1921.095</ele>
        <time>2021-07-28T19:53:57Z</time>
      </trkpt>
      <trkpt lat="40.898861" lon="-3.936233">
        <ele>1921.237</ele>
        <time>2021-07-28T19:53:59Z</time>
      </trkpt>
      <trkpt lat="40.898858" lon="-3.936265">
        <ele>1921.394</ele>
        <time>2021-07-28T19:54:01Z</time>
      </trkpt>
      <trkpt lat="40.898854" lon="-3.936297">
        <ele>1921.471</ele>
        <time>2021-07-28T19:54:03Z</time>
      </trkpt>
      <trkpt lat="40.898854" lon="-3.936335">
        <ele>1921.712</ele>
        <time>2021-07-28T19:54:05Z</time>
      </trkpt>
      <trkpt lat="40.898848" lon="-3.936368">
        <ele>1921.732</ele>
        <time>2021-07-28T19:54:07Z</time>
      </trkpt>
      <trkpt lat="40.898842" lon="-3.936407">
        <ele>1921.615</ele>
        <time>2021-07-28T19:54:09Z</time>
      </trkpt>
      <trkpt lat="40.898842" lon="-3.936437">
        <ele>1921.556</ele>
        <time>2021-07-28T19:54:11Z</time>
      </trkpt>
      <trkpt lat="40.898854" lon="-3.936472">
        <ele>1921.737</ele>
        <time>2021-07-28T19:54:14Z</time>
      </trkpt>
      <trkpt lat="40.898867" lon="-3.936497">
        <ele>1922.049</ele>
        <time>2021-07-28T19:54:17Z</time>
      </trkpt>
      <trkpt lat="40.898883" lon="-3.936515">
        <ele>1922.413</ele>
        <time>2021-07-28T19:54:19Z</time>
      </trkpt>
      <trkpt lat="40.898896" lon="-3.936534">
        <ele>1922.608</ele>
        <time>2021-07-28T19:54:21Z</time>
      </trkpt>
      <trkpt lat="40.898915" lon="-3.936537">
        <ele>1922.980</ele>
        <time>2021-07-28T19:54:23Z</time>
      </trkpt>
      <trkpt lat="40.898934" lon="-3.936545">
        <ele>1923.342</ele>
        <time>2021-07-28T19:54:26Z</time>
      </trkpt>
      <trkpt lat="40.898957" lon="-3.936555">
        <ele>1923.789</ele>
        <time>2021-07-28T19:54:28Z</time>
      </trkpt>
      <trkpt lat="40.898976" lon="-3.936572">
        <ele>1924.096</ele>
        <time>2021-07-28T19:54:31Z</time>
      </trkpt>
      <trkpt lat="40.898992" lon="-3.936583">
        <ele>1924.387</ele>
        <time>2021-07-28T19:54:33Z</time>
      </trkpt>
      <trkpt lat="40.899011" lon="-3.936592">
        <ele>1924.777</ele>
        <time>2021-07-28T19:54:36Z</time>
      </trkpt>
      <trkpt lat="40.899034" lon="-3.936598">
        <ele>1925.130</ele>
        <time>2021-07-28T19:54:39Z</time>
      </trkpt>
      <trkpt lat="40.899053" lon="-3.936598">
        <ele>1925.521</ele>
        <time>2021-07-28T19:54:41Z</time>
      </trkpt>
      <trkpt lat="40.899072" lon="-3.936608">
        <ele>1925.968</ele>
        <time>2021-07-28T19:54:44Z</time>
      </trkpt>
      <trkpt lat="40.899091" lon="-3.936607">
        <ele>1926.342</ele>
        <time>2021-07-28T19:54:46Z</time>
      </trkpt>
      <trkpt lat="40.899110" lon="-3.936605">
        <ele>1926.626</ele>
        <time>2021-07-28T19:54:49Z</time>
      </trkpt>
      <trkpt lat="40.899133" lon="-3.936600">
        <ele>1927.108</ele>
        <time>2021-07-28T19:54:51Z</time>
      </trkpt>
      <trkpt lat="40.899155" lon="-3.936605">
        <ele>1927.553</ele>
        <time>2021-07-28T19:54:54Z</time>
      </trkpt>
      <trkpt lat="40.899181" lon="-3.936608">
        <ele>1928.025</ele>
        <time>2021-07-28T19:54:57Z</time>
      </trkpt>
      <trkpt lat="40.899203" lon="-3.936617">
        <ele>1928.542</ele>
        <time>2021-07-28T19:55:00Z</time>
      </trkpt>
      <trkpt lat="40.899226" lon="-3.936642">
        <ele>1929.019</ele>
        <time>2021-07-28T19:55:03Z</time>
      </trkpt>
      <trkpt lat="40.899238" lon="-3.936660">
        <ele>1929.390</ele>
        <time>2021-07-28T19:55:05Z</time>
      </trkpt>
      <trkpt lat="40.899261" lon="-3.936677">
        <ele>1929.790</ele>
        <time>2021-07-28T19:55:08Z</time>
      </trkpt>
      <trkpt lat="40.899283" lon="-3.936693">
        <ele>1930.033</ele>
        <time>2021-07-28T19:55:11Z</time>
      </trkpt>
      <trkpt lat="40.899302" lon="-3.936706">
        <ele>1930.454</ele>
        <time>2021-07-28T19:55:13Z</time>
      </trkpt>
      <trkpt lat="40.899322" lon="-3.936718">
        <ele>1930.788</ele>
        <time>2021-07-28T19:55:15Z</time>
      </trkpt>
      <trkpt lat="40.899341" lon="-3.936728">
        <ele>1931.124</ele>
        <time>2021-07-28T19:55:17Z</time>
      </trkpt>
      <trkpt lat="40.899363" lon="-3.936730">
        <ele>1931.526</ele>
        <time>2021-07-28T19:55:19Z</time>
      </trkpt>
      <trkpt lat="40.899389" lon="-3.936730">
        <ele>1932.008</ele>
        <time>2021-07-28T19:55:21Z</time>
      </trkpt>
      <trkpt lat="40.899411" lon="-3.936738">
        <ele>1932.425</ele>
        <time>2021-07-28T19:55:23Z</time>
      </trkpt>
      <trkpt lat="40.899434" lon="-3.936738">
        <ele>1932.877</ele>
        <time>2021-07-28T19:55:25Z</time>
      </trkpt>
      <trkpt lat="40.899459" lon="-3.936740">
        <ele>1933.224</ele>
        <time>2021-07-28T19:55:28Z</time>
      </trkpt>
      <trkpt lat="40.899482" lon="-3.936742">
        <ele>1933.671</ele>
        <time>2021-07-28T19:55:30Z</time>
      </trkpt>
      <trkpt lat="40.899501" lon="-3.936742">
        <ele>1933.972</ele>
        <time>2021-07-28T19:55:32Z</time>
      </trkpt>
      <trkpt lat="40.899523" lon="-3.936758">
        <ele>1934.362</ele>
        <time>2021-07-28T19:55:35Z</time>
      </trkpt>
      <trkpt lat="40.899549" lon="-3.936757">
        <ele>1934.815</ele>
        <time>2021-07-28T19:55:37Z</time>
      </trkpt>
      <trkpt lat="40.899574" lon="-3.936767">
        <ele>1935.216</ele>
        <time>2021-07-28T19:55:40Z</time>
      </trkpt>
      <trkpt lat="40.899594" lon="-3.936773">
        <ele>1935.624</ele>
        <time>2021-07-28T19:55:42Z</time>
      </trkpt>
      <trkpt lat="40.899613" lon="-3.936780">
        <ele>1935.904</ele>
        <time>2021-07-28T19:55:45Z</time>
      </trkpt>
      <trkpt lat="40.899632" lon="-3.936777">
        <ele>1936.214</ele>
        <time>2021-07-28T19:55:47Z</time>
      </trkpt>
      <trkpt lat="40.899658" lon="-3.936785">
        <ele>1936.708</ele>
        <time>2021-07-28T19:55:50Z</time>
      </trkpt>
      <trkpt lat="40.899677" lon="-3.936788">
        <ele>1937.179</ele>
        <time>2021-07-28T19:55:52Z</time>
      </trkpt>
      <trkpt lat="40.899696" lon="-3.936788">
        <ele>1937.451</ele>
        <time>2021-07-28T19:55:54Z</time>
      </trkpt>
      <trkpt lat="40.899715" lon="-3.936792">
        <ele>1937.878</ele>
        <time>2021-07-28T19:55:56Z</time>
      </trkpt>
      <trkpt lat="40.899738" lon="-3.936795">
        <ele>1938.085</ele>
        <time>2021-07-28T19:55:59Z</time>
      </trkpt>
      <trkpt lat="40.899757" lon="-3.936793">
        <ele>1938.216</ele>
        <time>2021-07-28T19:56:01Z</time>
      </trkpt>
      <trkpt lat="40.899776" lon="-3.936795">
        <ele>1938.386</ele>
        <time>2021-07-28T19:56:03Z</time>
      </trkpt>
      <trkpt lat="40.899802" lon="-3.936810">
        <ele>1938.679</ele>
        <time>2021-07-28T19:56:06Z</time>
      </trkpt>
      <trkpt lat="40.899818" lon="-3.936822">
        <ele>1938.840</ele>
        <time>2021-07-28T19:56:08Z</time>
      </trkpt>
      <trkpt lat="40.899837" lon="-3.936830">
        <ele>1938.957</ele>
        <time>2021-07-28T19:56:10Z</time>
      </trkpt>
      <trkpt lat="40.899856" lon="-3.936850">
        <ele>1939.100</ele>
        <time>2021-07-28T19:56:13Z</time>
      </trkpt>
      <trkpt lat="40.899872" lon="-3.936864">
        <ele>1939.320</ele>
        <time>2021-07-28T19:56:15Z</time>
      </trkpt>
      <trkpt lat="40.899894" lon="-3.936875">
        <ele>1939.408</ele>
        <time>2021-07-28T19:56:18Z</time>
      </trkpt>
      <trkpt lat="40.899910" lon="-3.936888">
        <ele>1939.552</ele>
        <time>2021-07-28T19:56:20Z</time>
      </trkpt>
      <trkpt lat="40.899936" lon="-3.936898">
        <ele>1939.764</ele>
        <time>2021-07-28T19:56:22Z</time>
      </trkpt>
      <trkpt lat="40.899958" lon="-3.936902">
        <ele>1939.811</ele>
        <time>2021-07-28T19:56:24Z</time>
      </trkpt>
      <trkpt lat="40.899984" lon="-3.936907">
        <ele>1939.978</ele>
        <time>2021-07-28T19:56:26Z</time>
      </trkpt>
      <trkpt lat="40.900000" lon="-3.936930">
        <ele>1940.029</ele>
        <time>2021-07-28T19:56:29Z</time>
      </trkpt>
      <trkpt lat="40.900016" lon="-3.936945">
        <ele>1940.039</ele>
        <time>2021-07-28T19:56:31Z</time>
      </trkpt>
      <trkpt lat="40.900032" lon="-3.936957">
        <ele>1940.092</ele>
        <time>2021-07-28T19:56:33Z</time>
      </trkpt>
      <trkpt lat="40.900054" lon="-3.936972">
        <ele>1940.033</ele>
        <time>2021-07-28T19:56:35Z</time>
      </trkpt>
      <trkpt lat="40.900070" lon="-3.936995">
        <ele>1940.041</ele>
        <time>2021-07-28T19:56:37Z</time>
      </trkpt>
      <trkpt lat="40.900086" lon="-3.937010">
        <ele>1940.081</ele>
        <time>2021-07-28T19:56:39Z</time>
      </trkpt>
      <trkpt lat="40.900099" lon="-3.937030">
        <ele>1940.009</ele>
        <time>2021-07-28T19:56:41Z</time>
      </trkpt>
      <trkpt lat="40.900115" lon="-3.937048">
        <ele>1940.008</ele>
        <time>2021-07-28T19:56:43Z</time>
      </trkpt>
      <trkpt lat="40.900128" lon="-3.937075">
        <ele>1940.071</ele>
        <time>2021-07-28T19:56:45Z</time>
      </trkpt>
      <trkpt lat="40.900138" lon="-3.937102">
        <ele>1940.023</ele>
        <time>2021-07-28T19:56:47Z</time>
      </trkpt>
      <trkpt lat="40.900154" lon="-3.937128">
        <ele>1940.040</ele>
        <time>2021-07-28T19:56:49Z</time>
      </trkpt>
      <trkpt lat="40.900166" lon="-3.937162">
        <ele>1940.017</ele>
        <time>2021-07-28T19:56:51Z</time>
      </trkpt>
      <trkpt lat="40.900189" lon="-3.937188">
        <ele>1940.018</ele>
        <time>2021-07-28T19:56:54Z</time>
      </trkpt>
      <trkpt lat="40.900208" lon="-3.937217">
        <ele>1940.078</ele>
        <time>2021-07-28T19:56:57Z</time>
      </trkpt>
      <trkpt lat="40.900227" lon="-3.937234">
        <ele>1940.091</ele>
        <time>2021-07-28T19:56:59Z</time>
      </trkpt>
      <trkpt lat="40.900243" lon="-3.937250">
        <ele>1940.062</ele>
        <time>2021-07-28T19:57:01Z</time>
      </trkpt>
      <trkpt lat="40.900262" lon="-3.937273">
        <ele>1940.071</ele>
        <time>2021-07-28T19:57:03Z</time>
      </trkpt>
      <trkpt lat="40.900275" lon="-3.937292">
        <ele>1940.041</ele>
        <time>2021-07-28T19:57:05Z</time>
      </trkpt>
      <trkpt lat="40.900291" lon="-3.937307">
        <ele>1940.115</ele>
        <time>2021-07-28T19:57:07Z</time>
      </trkpt>
      <trkpt lat="40.900310" lon="-3.937325">
        <ele>1940.208</ele>
        <time>2021-07-28T19:57:09Z</time>
      </trkpt>
      <trkpt lat="40.900333" lon="-3.937333">
        <ele>1940.354</ele>
        <time>2021-07-28T19:57:11Z</time>
      </trkpt>
      <trkpt lat="40.900355" lon="-3.937343">
        <ele>1940.436</ele>
        <time>2021-07-28T19:57:13Z</time>
      </trkpt>
      <trkpt lat="40.900378" lon="-3.937363">
        <ele>1940.593</ele>
        <time>2021-07-28T19:57:15Z</time>
      </trkpt>
      <trkpt lat="40.900403" lon="-3.937378">
        <ele>1940.740</ele>
        <time>2021-07-28T19:57:17Z</time>
      </trkpt>
      <trkpt lat="40.900422" lon="-3.937392">
        <ele>1940.831</ele>
        <time>2021-07-28T19:57:19Z</time>
      </trkpt>
      <trkpt lat="40.900445" lon="-3.937406">
        <ele>1941.021</ele>
        <time>2021-07-28T19:57:21Z</time>
      </trkpt>
      <trkpt lat="40.900464" lon="-3.937423">
        <ele>1941.214</ele>
        <time>2021-07-28T19:57:23Z</time>
      </trkpt>
      <trkpt lat="40.900486" lon="-3.937445">
        <ele>1941.455</ele>
        <time>2021-07-28T19:57:25Z</time>
      </trkpt>
      <trkpt lat="40.900506" lon="-3.937468">
        <ele>1941.594</ele>
        <time>2021-07-28T19:57:27Z</time>
      </trkpt>
      <trkpt lat="40.900525" lon="-3.937482">
        <ele>1941.757</ele>
        <time>2021-07-28T19:57:29Z</time>
      </trkpt>
      <trkpt lat="40.900544" lon="-3.937503">
        <ele>1941.922</ele>
        <time>2021-07-28T19:57:31Z</time>
      </trkpt>
      <trkpt lat="40.900566" lon="-3.937518">
        <ele>1942.008</ele>
        <time>2021-07-28T19:57:33Z</time>
      </trkpt>
      <trkpt lat="40.900586" lon="-3.937537">
        <ele>1942.136</ele>
        <time>2021-07-28T19:57:35Z</time>
      </trkpt>
      <trkpt lat="40.900605" lon="-3.937560">
        <ele>1942.278</ele>
        <time>2021-07-28T19:57:37Z</time>
      </trkpt>
      <trkpt lat="40.900627" lon="-3.937580">
        <ele>1942.365</ele>
        <time>2021-07-28T19:57:39Z</time>
      </trkpt>
      <trkpt lat="40.900646" lon="-3.937598">
        <ele>1942.472</ele>
        <time>2021-07-28T19:57:41Z</time>
      </trkpt>
      <trkpt lat="40.900666" lon="-3.937616">
        <ele>1942.683</ele>
        <time>2021-07-28T19:57:43Z</time>
      </trkpt>
      <trkpt lat="40.900688" lon="-3.937632">
        <ele>1942.783</ele>
        <time>2021-07-28T19:57:45Z</time>
      </trkpt>
      <trkpt lat="40.900710" lon="-3.937645">
        <ele>1942.836</ele>
        <time>2021-07-28T19:57:47Z</time>
      </trkpt>
      <trkpt lat="40.900733" lon="-3.937662">
        <ele>1943.077</ele>
        <time>2021-07-28T19:57:49Z</time>
      </trkpt>
      <trkpt lat="40.900758" lon="-3.937668">
        <ele>1943.244</ele>
        <time>2021-07-28T19:57:51Z</time>
      </trkpt>
      <trkpt lat="40.900781" lon="-3.937683">
        <ele>1943.305</ele>
        <time>2021-07-28T19:57:53Z</time>
      </trkpt>
      <trkpt lat="40.900800" lon="-3.937697">
        <ele>1943.515</ele>
        <time>2021-07-28T19:57:55Z</time>
      </trkpt>
      <trkpt lat="40.900822" lon="-3.937705">
        <ele>1943.708</ele>
        <time>2021-07-28T19:57:57Z</time>
      </trkpt>
      <trkpt lat="40.900848" lon="-3.937717">
        <ele>1943.961</ele>
        <time>2021-07-28T19:57:59Z</time>
      </trkpt>
      <trkpt lat="40.900870" lon="-3.937728">
        <ele>1944.163</ele>
        <time>2021-07-28T19:58:01Z</time>
      </trkpt>
      <trkpt lat="40.900890" lon="-3.937742">
        <ele>1944.310</ele>
        <time>2021-07-28T19:58:03Z</time>
      </trkpt>
      <trkpt lat="40.900909" lon="-3.937756">
        <ele>1944.577</ele>
        <time>2021-07-28T19:58:05Z</time>
      </trkpt>
      <trkpt lat="40.900928" lon="-3.937770">
        <ele>1944.788</ele>
        <time>2021-07-28T19:58:07Z</time>
      </trkpt>
      <trkpt lat="40.900950" lon="-3.937785">
        <ele>1944.938</ele>
        <time>2021-07-28T19:58:09Z</time>
      </trkpt>
      <trkpt lat="40.900966" lon="-3.937798">
        <ele>1945.121</ele>
        <time>2021-07-28T19:58:11Z</time>
      </trkpt>
      <trkpt lat="40.900992" lon="-3.937815">
        <ele>1945.442</ele>
        <time>2021-07-28T19:58:13Z</time>
      </trkpt>
      <trkpt lat="40.901011" lon="-3.937827">
        <ele>1945.695</ele>
        <time>2021-07-28T19:58:15Z</time>
      </trkpt>
      <trkpt lat="40.901030" lon="-3.937837">
        <ele>1945.849</ele>
        <time>2021-07-28T19:58:17Z</time>
      </trkpt>
      <trkpt lat="40.901053" lon="-3.937845">
        <ele>1946.023</ele>
        <time>2021-07-28T19:58:19Z</time>
      </trkpt>
      <trkpt lat="40.901082" lon="-3.937850">
        <ele>1946.308</ele>
        <time>2021-07-28T19:58:21Z</time>
      </trkpt>
      <trkpt lat="40.901104" lon="-3.937860">
        <ele>1946.576</ele>
        <time>2021-07-28T19:58:23Z</time>
      </trkpt>
      <trkpt lat="40.901126" lon="-3.937872">
        <ele>1946.898</ele>
        <time>2021-07-28T19:58:25Z</time>
      </trkpt>
      <trkpt lat="40.901149" lon="-3.937883">
        <ele>1946.925</ele>
        <time>2021-07-28T19:58:27Z</time>
      </trkpt>
      <trkpt lat="40.901178" lon="-3.937892">
        <ele>1947.222</ele>
        <time>2021-07-28T19:58:29Z</time>
      </trkpt>
      <trkpt lat="40.901197" lon="-3.937898">
        <ele>1947.353</ele>
        <time>2021-07-28T19:58:31Z</time>
      </trkpt>
      <trkpt lat="40.901219" lon="-3.937912">
        <ele>1947.533</ele>
        <time>2021-07-28T19:58:33Z</time>
      </trkpt>
      <trkpt lat="40.901242" lon="-3.937925">
        <ele>1947.896</ele>
        <time>2021-07-28T19:58:35Z</time>
      </trkpt>
      <trkpt lat="40.901261" lon="-3.937940">
        <ele>1948.087</ele>
        <time>2021-07-28T19:58:37Z</time>
      </trkpt>
      <trkpt lat="40.901283" lon="-3.937950">
        <ele>1948.286</ele>
        <time>2021-07-28T19:58:39Z</time>
      </trkpt>
      <trkpt lat="40.901302" lon="-3.937958">
        <ele>1948.460</ele>
        <time>2021-07-28T19:58:41Z</time>
      </trkpt>
      <trkpt lat="40.901325" lon="-3.937962">
        <ele>1948.626</ele>
        <time>2021-07-28T19:58:43Z</time>
      </trkpt>
      <trkpt lat="40.901344" lon="-3.937960">
        <ele>1948.708</ele>
        <time>2021-07-28T19:58:45Z</time>
      </trkpt>
      <trkpt lat="40.901366" lon="-3.937963">
        <ele>1948.925</ele>
        <time>2021-07-28T19:58:47Z</time>
      </trkpt>
      <trkpt lat="40.901382" lon="-3.937976">
        <ele>1949.187</ele>
        <time>2021-07-28T19:58:49Z</time>
      </trkpt>
      <trkpt lat="40.901395" lon="-3.937998">
        <ele>1949.484</ele>
        <time>2021-07-28T19:58:51Z</time>
      </trkpt>
      <trkpt lat="40.901418" lon="-3.938020">
        <ele>1949.841</ele>
        <time>2021-07-28T19:58:54Z</time>
      </trkpt>
      <trkpt lat="40.901434" lon="-3.938032">
        <ele>1950.172</ele>
        <time>2021-07-28T19:58:56Z</time>
      </trkpt>
      <trkpt lat="40.901456" lon="-3.938033">
        <ele>1950.262</ele>
        <time>2021-07-28T19:58:58Z</time>
      </trkpt>
      <trkpt lat="40.901478" lon="-3.938055">
        <ele>1950.615</ele>
        <time>2021-07-28T19:59:01Z</time>
      </trkpt>
      <trkpt lat="40.901498" lon="-3.938067">
        <ele>1950.936</ele>
        <time>2021-07-28T19:59:03Z</time>
      </trkpt>
      <trkpt lat="40.901517" lon="-3.938084">
        <ele>1951.117</ele>
        <time>2021-07-28T19:59:05Z</time>
      </trkpt>
      <trkpt lat="40.901533" lon="-3.938102">
        <ele>1951.487</ele>
        <time>2021-07-28T19:59:07Z</time>
      </trkpt>
      <trkpt lat="40.901546" lon="-3.938120">
        <ele>1951.615</ele>
        <time>2021-07-28T19:59:09Z</time>
      </trkpt>
      <trkpt lat="40.901562" lon="-3.938140">
        <ele>1951.908</ele>
        <time>2021-07-28T19:59:11Z</time>
      </trkpt>
      <trkpt lat="40.901574" lon="-3.938168">
        <ele>1952.158</ele>
        <time>2021-07-28T19:59:13Z</time>
      </trkpt>
      <trkpt lat="40.901587" lon="-3.938190">
        <ele>1952.450</ele>
        <time>2021-07-28T19:59:15Z</time>
      </trkpt>
      <trkpt lat="40.901600" lon="-3.938207">
        <ele>1952.667</ele>
        <time>2021-07-28T19:59:17Z</time>
      </trkpt>
      <trkpt lat="40.901616" lon="-3.938235">
        <ele>1952.964</ele>
        <time>2021-07-28T19:59:20Z</time>
      </trkpt>
      <trkpt lat="40.901622" lon="-3.938258">
        <ele>1953.125</ele>
        <time>2021-07-28T19:59:22Z</time>
      </trkpt>
      <trkpt lat="40.901635" lon="-3.938280">
        <ele>1953.485</ele>
        <time>2021-07-28T19:59:24Z</time>
      </trkpt>
      <trkpt lat="40.901648" lon="-3.938312">
        <ele>1953.788</ele>
        <time>2021-07-28T19:59:27Z</time>
      </trkpt>
      <trkpt lat="40.901664" lon="-3.938337">
        <ele>1954.039</ele>
        <time>2021-07-28T19:59:30Z</time>
      </trkpt>
      <trkpt lat="40.901680" lon="-3.938352">
        <ele>1954.471</ele>
        <time>2021-07-28T19:59:32Z</time>
      </trkpt>
      <trkpt lat="40.901693" lon="-3.938383">
        <ele>1955.041</ele>
        <time>2021-07-28T19:59:35Z</time>
      </trkpt>
      <trkpt lat="40.901706" lon="-3.938408">
        <ele>1955.515</ele>
        <time>2021-07-28T19:59:38Z</time>
      </trkpt>
      <trkpt lat="40.901722" lon="-3.938434">
        <ele>1956.008</ele>
        <time>2021-07-28T19:59:41Z</time>
      </trkpt>
      <trkpt lat="40.901738" lon="-3.938445">
        <ele>1956.414</ele>
        <time>2021-07-28T19:59:43Z</time>
      </trkpt>
      <trkpt lat="40.901754" lon="-3.938460">
        <ele>1956.886</ele>
        <time>2021-07-28T19:59:45Z</time>
      </trkpt>
      <trkpt lat="40.901773" lon="-3.938476">
        <ele>1957.393</ele>
        <time>2021-07-28T19:59:48Z</time>
      </trkpt>
      <trkpt lat="40.901786" lon="-3.938498">
        <ele>1957.710</ele>
        <time>2021-07-28T19:59:51Z</time>
      </trkpt>
      <trkpt lat="40.901805" lon="-3.938507">
        <ele>1958.121</ele>
        <time>2021-07-28T19:59:54Z</time>
      </trkpt>
      <trkpt lat="40.901821" lon="-3.938530">
        <ele>1958.511</ele>
        <time>2021-07-28T19:59:57Z</time>
      </trkpt>
      <trkpt lat="40.901834" lon="-3.938547">
        <ele>1958.934</ele>
        <time>2021-07-28T19:59:59Z</time>
      </trkpt>
      <trkpt lat="40.901843" lon="-3.938568">
        <ele>1959.295</ele>
        <time>2021-07-28T20:00:02Z</time>
      </trkpt>
      <trkpt lat="40.901856" lon="-3.938593">
        <ele>1959.654</ele>
        <time>2021-07-28T20:00:06Z</time>
      </trkpt>
      <trkpt lat="40.901866" lon="-3.938618">
        <ele>1959.956</ele>
        <time>2021-07-28T20:00:09Z</time>
      </trkpt>
      <trkpt lat="40.901878" lon="-3.938647">
        <ele>1960.311</ele>
        <time>2021-07-28T20:00:12Z</time>
      </trkpt>
      <trkpt lat="40.901891" lon="-3.938668">
        <ele>1960.608</ele>
        <time>2021-07-28T20:00:15Z</time>
      </trkpt>
      <trkpt lat="40.901901" lon="-3.938693">
        <ele>1961.042</ele>
        <time>2021-07-28T20:00:18Z</time>
      </trkpt>
      <trkpt lat="40.901917" lon="-3.938717">
        <ele>1961.454</ele>
        <time>2021-07-28T20:00:20Z</time>
      </trkpt>
      <trkpt lat="40.901939" lon="-3.938717">
        <ele>1961.791</ele>
        <time>2021-07-28T20:00:23Z</time>
      </trkpt>
      <trkpt lat="40.901958" lon="-3.938725">
        <ele>1962.078</ele>
        <time>2021-07-28T20:00:26Z</time>
      </trkpt>
      <trkpt lat="40.901978" lon="-3.938725">
        <ele>1962.329</ele>
        <time>2021-07-28T20:00:28Z</time>
      </trkpt>
      <trkpt lat="40.902003" lon="-3.938723">
        <ele>1962.669</ele>
        <time>2021-07-28T20:00:31Z</time>
      </trkpt>
      <trkpt lat="40.902022" lon="-3.938718">
        <ele>1962.992</ele>
        <time>2021-07-28T20:00:33Z</time>
      </trkpt>
      <trkpt lat="40.902045" lon="-3.938718">
        <ele>1963.213</ele>
        <time>2021-07-28T20:00:36Z</time>
      </trkpt>
      <trkpt lat="40.902074" lon="-3.938720">
        <ele>1963.737</ele>
        <time>2021-07-28T20:00:40Z</time>
      </trkpt>
      <trkpt lat="40.902096" lon="-3.938732">
        <ele>1964.149</ele>
        <time>2021-07-28T20:00:43Z</time>
      </trkpt>
      <trkpt lat="40.902115" lon="-3.938743">
        <ele>1964.413</ele>
        <time>2021-07-28T20:00:46Z</time>
      </trkpt>
      <trkpt lat="40.902131" lon="-3.938755">
        <ele>1964.708</ele>
        <time>2021-07-28T20:00:49Z</time>
      </trkpt>
      <trkpt lat="40.902150" lon="-3.938768">
        <ele>1965.110</ele>
        <time>2021-07-28T20:00:52Z</time>
      </trkpt>
      <trkpt lat="40.902163" lon="-3.938785">
        <ele>1965.442</ele>
        <time>2021-07-28T20:00:55Z</time>
      </trkpt>
      <trkpt lat="40.902182" lon="-3.938795">
        <ele>1965.749</ele>
        <time>2021-07-28T20:00:58Z</time>
      </trkpt>
      <trkpt lat="40.902198" lon="-3.938808">
        <ele>1966.146</ele>
        <time>2021-07-28T20:01:01Z</time>
      </trkpt>
      <trkpt lat="40.902211" lon="-3.938826">
        <ele>1966.487</ele>
        <time>2021-07-28T20:01:03Z</time>
      </trkpt>
      <trkpt lat="40.902224" lon="-3.938846">
        <ele>1966.757</ele>
        <time>2021-07-28T20:01:06Z</time>
      </trkpt>
      <trkpt lat="40.902240" lon="-3.938873">
        <ele>1967.370</ele>
        <time>2021-07-28T20:01:09Z</time>
      </trkpt>
      <trkpt lat="40.902253" lon="-3.938895">
        <ele>1967.741</ele>
        <time>2021-07-28T20:01:12Z</time>
      </trkpt>
      <trkpt lat="40.902269" lon="-3.938922">
        <ele>1968.346</ele>
        <time>2021-07-28T20:01:15Z</time>
      </trkpt>
      <trkpt lat="40.902282" lon="-3.938945">
        <ele>1968.988</ele>
        <time>2021-07-28T20:01:18Z</time>
      </trkpt>
      <trkpt lat="40.902291" lon="-3.938972">
        <ele>1969.316</ele>
        <time>2021-07-28T20:01:21Z</time>
      </trkpt>
      <trkpt lat="40.902310" lon="-3.938985">
        <ele>1969.808</ele>
        <time>2021-07-28T20:01:24Z</time>
      </trkpt>
      <trkpt lat="40.902320" lon="-3.939018">
        <ele>1970.351</ele>
        <time>2021-07-28T20:01:28Z</time>
      </trkpt>
      <trkpt lat="40.902320" lon="-3.939045">
        <ele>1970.623</ele>
        <time>2021-07-28T20:01:30Z</time>
      </trkpt>
      <trkpt lat="40.902336" lon="-3.939057">
        <ele>1971.040</ele>
        <time>2021-07-28T20:01:32Z</time>
      </trkpt>
      <trkpt lat="40.902349" lon="-3.939077">
        <ele>1971.537</ele>
        <time>2021-07-28T20:01:34Z</time>
      </trkpt>
      <trkpt lat="40.902358" lon="-3.939105">
        <ele>1971.998</ele>
        <time>2021-07-28T20:01:38Z</time>
      </trkpt>
      <trkpt lat="40.902368" lon="-3.939130">
        <ele>1972.348</ele>
        <time>2021-07-28T20:01:40Z</time>
      </trkpt>
      <trkpt lat="40.902374" lon="-3.939158">
        <ele>1972.721</ele>
        <time>2021-07-28T20:01:43Z</time>
      </trkpt>
      <trkpt lat="40.902378" lon="-3.939188">
        <ele>1972.932</ele>
        <time>2021-07-28T20:01:46Z</time>
      </trkpt>
      <trkpt lat="40.902381" lon="-3.939218">
        <ele>1973.196</ele>
        <time>2021-07-28T20:01:48Z</time>
      </trkpt>
      <trkpt lat="40.902378" lon="-3.939252">
        <ele>1973.331</ele>
        <time>2021-07-28T20:01:50Z</time>
      </trkpt>
      <trkpt lat="40.902394" lon="-3.939287">
        <ele>1973.824</ele>
        <time>2021-07-28T20:01:54Z</time>
      </trkpt>
      <trkpt lat="40.902397" lon="-3.939320">
        <ele>1974.008</ele>
        <time>2021-07-28T20:01:57Z</time>
      </trkpt>
      <trkpt lat="40.902397" lon="-3.939345">
        <ele>1974.236</ele>
        <time>2021-07-28T20:01:59Z</time>
      </trkpt>
      <trkpt lat="40.902403" lon="-3.939370">
        <ele>1974.588</ele>
        <time>2021-07-28T20:02:02Z</time>
      </trkpt>
      <trkpt lat="40.902413" lon="-3.939392">
        <ele>1974.835</ele>
        <time>2021-07-28T20:02:05Z</time>
      </trkpt>
      <trkpt lat="40.902422" lon="-3.939417">
        <ele>1975.162</ele>
        <time>2021-07-28T20:02:08Z</time>
      </trkpt>
      <trkpt lat="40.902429" lon="-3.939440">
        <ele>1975.433</ele>
        <time>2021-07-28T20:02:10Z</time>
      </trkpt>
      <trkpt lat="40.902432" lon="-3.939468">
        <ele>1975.793</ele>
        <time>2021-07-28T20:02:12Z</time>
      </trkpt>
      <trkpt lat="40.902442" lon="-3.939500">
        <ele>1976.186</ele>
        <time>2021-07-28T20:02:15Z</time>
      </trkpt>
      <trkpt lat="40.902448" lon="-3.939525">
        <ele>1976.537</ele>
        <time>2021-07-28T20:02:17Z</time>
      </trkpt>
      <trkpt lat="40.902451" lon="-3.939553">
        <ele>1976.785</ele>
        <time>2021-07-28T20:02:19Z</time>
      </trkpt>
      <trkpt lat="40.902458" lon="-3.939588">
        <ele>1977.189</ele>
        <time>2021-07-28T20:02:22Z</time>
      </trkpt>
      <trkpt lat="40.902470" lon="-3.939617">
        <ele>1977.617</ele>
        <time>2021-07-28T20:02:25Z</time>
      </trkpt>
      <trkpt lat="40.902474" lon="-3.939650">
        <ele>1977.908</ele>
        <time>2021-07-28T20:02:28Z</time>
      </trkpt>
      <trkpt lat="40.902486" lon="-3.939670">
        <ele>1978.375</ele>
        <time>2021-07-28T20:02:30Z</time>
      </trkpt>
      <trkpt lat="40.902493" lon="-3.939695">
        <ele>1978.767</ele>
        <time>2021-07-28T20:02:32Z</time>
      </trkpt>
      <trkpt lat="40.902499" lon="-3.939725">
        <ele>1979.014</ele>
        <time>2021-07-28T20:02:35Z</time>
      </trkpt>
      <trkpt lat="40.902512" lon="-3.939755">
        <ele>1979.431</ele>
        <time>2021-07-28T20:02:38Z</time>
      </trkpt>
      <trkpt lat="40.902518" lon="-3.939778">
        <ele>1979.622</ele>
        <time>2021-07-28T20:02:40Z</time>
      </trkpt>
      <trkpt lat="40.902534" lon="-3.939792">
        <ele>1980.052</ele>
        <time>2021-07-28T20:02:42Z</time>
      </trkpt>
      <trkpt lat="40.902547" lon="-3.939813">
        <ele>1980.435</ele>
        <time>2021-07-28T20:02:45Z</time>
      </trkpt>
      <trkpt lat="40.902550" lon="-3.939844">
        <ele>1980.646</ele>
        <time>2021-07-28T20:02:47Z</time>
      </trkpt>
      <trkpt lat="40.902554" lon="-3.939878">
        <ele>1980.813</ele>
        <time>2021-07-28T20:02:50Z</time>
      </trkpt>
      <trkpt lat="40.902557" lon="-3.939910">
        <ele>1981.043</ele>
        <time>2021-07-28T20:02:52Z</time>
      </trkpt>
      <trkpt lat="40.902560" lon="-3.939940">
        <ele>1981.207</ele>
        <time>2021-07-28T20:02:54Z</time>
      </trkpt>
      <trkpt lat="40.902576" lon="-3.939958">
        <ele>1981.708</ele>
        <time>2021-07-28T20:02:56Z</time>
      </trkpt>
      <trkpt lat="40.902589" lon="-3.939980">
        <ele>1982.168</ele>
        <time>2021-07-28T20:02:59Z</time>
      </trkpt>
      <trkpt lat="40.902595" lon="-3.940003">
        <ele>1982.420</ele>
        <time>2021-07-28T20:03:01Z</time>
      </trkpt>
      <trkpt lat="40.902602" lon="-3.940034">
        <ele>1982.957</ele>
        <time>2021-07-28T20:03:03Z</time>
      </trkpt>
      <trkpt lat="40.902611" lon="-3.940060">
        <ele>1983.354</ele>
        <time>2021-07-28T20:03:06Z</time>
      </trkpt>
      <trkpt lat="40.902621" lon="-3.940083">
        <ele>1983.845</ele>
        <time>2021-07-28T20:03:08Z</time>
      </trkpt>
      <trkpt lat="40.902637" lon="-3.940098">
        <ele>1984.365</ele>
        <time>2021-07-28T20:03:10Z</time>
      </trkpt>
      <trkpt lat="40.902653" lon="-3.940125">
        <ele>1985.078</ele>
        <time>2021-07-28T20:03:12Z</time>
      </trkpt>
      <trkpt lat="40.902666" lon="-3.940142">
        <ele>1985.529</ele>
        <time>2021-07-28T20:03:14Z</time>
      </trkpt>
      <trkpt lat="40.902688" lon="-3.940152">
        <ele>1986.254</ele>
        <time>2021-07-28T20:03:17Z</time>
      </trkpt>
      <trkpt lat="40.902707" lon="-3.940168">
        <ele>1986.956</ele>
        <time>2021-07-28T20:03:20Z</time>
      </trkpt>
      <trkpt lat="40.902714" lon="-3.940194">
        <ele>1987.311</ele>
        <time>2021-07-28T20:03:23Z</time>
      </trkpt>
      <trkpt lat="40.902720" lon="-3.940222">
        <ele>1987.808</ele>
        <time>2021-07-28T20:03:25Z</time>
      </trkpt>
      <trkpt lat="40.902736" lon="-3.940243">
        <ele>1988.482</ele>
        <time>2021-07-28T20:03:28Z</time>
      </trkpt>
      <trkpt lat="40.902746" lon="-3.940273">
        <ele>1989.064</ele>
        <time>2021-07-28T20:03:32Z</time>
      </trkpt>
      <trkpt lat="40.902749" lon="-3.940307">
        <ele>1989.321</ele>
        <time>2021-07-28T20:03:35Z</time>
      </trkpt>
      <trkpt lat="40.902758" lon="-3.940338">
        <ele>1989.768</ele>
        <time>2021-07-28T20:03:38Z</time>
      </trkpt>
      <trkpt lat="40.902768" lon="-3.940365">
        <ele>1990.179</ele>
        <time>2021-07-28T20:03:41Z</time>
      </trkpt>
      <trkpt lat="40.902787" lon="-3.940382">
        <ele>1990.559</ele>
        <time>2021-07-28T20:03:44Z</time>
      </trkpt>
      <trkpt lat="40.902794" lon="-3.940407">
        <ele>1990.852</ele>
        <time>2021-07-28T20:03:47Z</time>
      </trkpt>
      <trkpt lat="40.902800" lon="-3.940438">
        <ele>1991.073</ele>
        <time>2021-07-28T20:03:50Z</time>
      </trkpt>
      <trkpt lat="40.902810" lon="-3.940465">
        <ele>1991.371</ele>
        <time>2021-07-28T20:03:53Z</time>
      </trkpt>
      <trkpt lat="40.902816" lon="-3.940495">
        <ele>1991.541</ele>
        <time>2021-07-28T20:03:56Z</time>
      </trkpt>
      <trkpt lat="40.902819" lon="-3.940527">
        <ele>1991.815</ele>
        <time>2021-07-28T20:04:00Z</time>
      </trkpt>
      <trkpt lat="40.902829" lon="-3.940553">
        <ele>1992.108</ele>
        <time>2021-07-28T20:04:03Z</time>
      </trkpt>
      <trkpt lat="40.902832" lon="-3.940580">
        <ele>1992.324</ele>
        <time>2021-07-28T20:04:06Z</time>
      </trkpt>
      <trkpt lat="40.902832" lon="-3.940612">
        <ele>1992.616</ele>
        <time>2021-07-28T20:04:09Z</time>
      </trkpt>
      <trkpt lat="40.902845" lon="-3.940642">
        <ele>1993.143</ele>
        <time>2021-07-28T20:04:12Z</time>
      </trkpt>
      <trkpt lat="40.902845" lon="-3.940670">
        <ele>1993.330</ele>
        <time>2021-07-28T20:04:15Z</time>
      </trkpt>
      <trkpt lat="40.902835" lon="-3.940710">
        <ele>1993.331</ele>
        <time>2021-07-28T20:04:17Z</time>
      </trkpt>
      <trkpt lat="40.902835" lon="-3.940737">
        <ele>1993.571</ele>
        <time>2021-07-28T20:04:19Z</time>
      </trkpt>
      <trkpt lat="40.902835" lon="-3.940764">
        <ele>1993.774</ele>
        <time>2021-07-28T20:04:21Z</time>
      </trkpt>
      <trkpt lat="40.902838" lon="-3.940797">
        <ele>1994.085</ele>
        <time>2021-07-28T20:04:24Z</time>
      </trkpt>
      <trkpt lat="40.902845" lon="-3.940830">
        <ele>1994.485</ele>
        <time>2021-07-28T20:04:27Z</time>
      </trkpt>
      <trkpt lat="40.902851" lon="-3.940867">
        <ele>1994.889</ele>
        <time>2021-07-28T20:04:30Z</time>
      </trkpt>
      <trkpt lat="40.902864" lon="-3.940894">
        <ele>1995.317</ele>
        <time>2021-07-28T20:04:33Z</time>
      </trkpt>
      <trkpt lat="40.902877" lon="-3.940915">
        <ele>1995.708</ele>
        <time>2021-07-28T20:04:36Z</time>
      </trkpt>
      <trkpt lat="40.902890" lon="-3.940935">
        <ele>1996.265</ele>
        <time>2021-07-28T20:04:39Z</time>
      </trkpt>
      <trkpt lat="40.902909" lon="-3.940962">
        <ele>1996.827</ele>
        <time>2021-07-28T20:04:42Z</time>
      </trkpt>
      <trkpt lat="40.902918" lon="-3.940995">
        <ele>1997.284</ele>
        <time>2021-07-28T20:04:46Z</time>
      </trkpt>
      <trkpt lat="40.902934" lon="-3.941008">
        <ele>1997.611</ele>
        <time>2021-07-28T20:04:49Z</time>
      </trkpt>
      <trkpt lat="40.902950" lon="-3.941030">
        <ele>1998.142</ele>
        <time>2021-07-28T20:04:53Z</time>
      </trkpt>
      <trkpt lat="40.902957" lon="-3.941055">
        <ele>1998.562</ele>
        <time>2021-07-28T20:04:56Z</time>
      </trkpt>
      <trkpt lat="40.902973" lon="-3.941080">
        <ele>1999.025</ele>
        <time>2021-07-28T20:04:59Z</time>
      </trkpt>
      <trkpt lat="40.902976" lon="-3.941107">
        <ele>1999.346</ele>
        <time>2021-07-28T20:05:01Z</time>
      </trkpt>
      <trkpt lat="40.902986" lon="-3.941128">
        <ele>1999.672</ele>
        <time>2021-07-28T20:05:03Z</time>
      </trkpt>
      <trkpt lat="40.902998" lon="-3.941150">
        <ele>2000.013</ele>
        <time>2021-07-28T20:05:06Z</time>
      </trkpt>
      <trkpt lat="40.903014" lon="-3.941167">
        <ele>2000.514</ele>
        <time>2021-07-28T20:05:08Z</time>
      </trkpt>
      <trkpt lat="40.903027" lon="-3.941185">
        <ele>2000.908</ele>
        <time>2021-07-28T20:05:10Z</time>
      </trkpt>
      <trkpt lat="40.903037" lon="-3.941207">
        <ele>2001.344</ele>
        <time>2021-07-28T20:05:12Z</time>
      </trkpt>
      <trkpt lat="40.903050" lon="-3.941230">
        <ele>2001.736</ele>
        <time>2021-07-28T20:05:14Z</time>
      </trkpt>
      <trkpt lat="40.903056" lon="-3.941255">
        <ele>2002.073</ele>
        <time>2021-07-28T20:05:17Z</time>
      </trkpt>
      <trkpt lat="40.903062" lon="-3.941280">
        <ele>2002.350</ele>
        <time>2021-07-28T20:05:21Z</time>
      </trkpt>
      <trkpt lat="40.903075" lon="-3.941306">
        <ele>2002.651</ele>
        <time>2021-07-28T20:05:25Z</time>
      </trkpt>
      <trkpt lat="40.903085" lon="-3.941330">
        <ele>2002.961</ele>
        <time>2021-07-28T20:05:27Z</time>
      </trkpt>
      <trkpt lat="40.903094" lon="-3.941365">
        <ele>2003.394</ele>
        <time>2021-07-28T20:05:30Z</time>
      </trkpt>
      <trkpt lat="40.903107" lon="-3.941392">
        <ele>2003.635</ele>
        <time>2021-07-28T20:05:33Z</time>
      </trkpt>
      <trkpt lat="40.903126" lon="-3.941420">
        <ele>2004.096</ele>
        <time>2021-07-28T20:05:37Z</time>
      </trkpt>
      <trkpt lat="40.903133" lon="-3.941447">
        <ele>2004.331</ele>
        <time>2021-07-28T20:05:40Z</time>
      </trkpt>
      <trkpt lat="40.903152" lon="-3.941467">
        <ele>2004.624</ele>
        <time>2021-07-28T20:05:43Z</time>
      </trkpt>
      <trkpt lat="40.903165" lon="-3.941497">
        <ele>2005.008</ele>
        <time>2021-07-28T20:05:46Z</time>
      </trkpt>
      <trkpt lat="40.903184" lon="-3.941520">
        <ele>2005.366</ele>
        <time>2021-07-28T20:05:49Z</time>
      </trkpt>
      <trkpt lat="40.903203" lon="-3.941530">
        <ele>2005.638</ele>
        <time>2021-07-28T20:05:52Z</time>
      </trkpt>
      <trkpt lat="40.903222" lon="-3.941528">
        <ele>2005.825</ele>
        <time>2021-07-28T20:05:54Z</time>
      </trkpt>
      <trkpt lat="40.903242" lon="-3.941542">
        <ele>2006.142</ele>
        <time>2021-07-28T20:05:57Z</time>
      </trkpt>
      <trkpt lat="40.903261" lon="-3.941548">
        <ele>2006.473</ele>
        <time>2021-07-28T20:06:00Z</time>
      </trkpt>
      <trkpt lat="40.903277" lon="-3.941563">
        <ele>2006.663</ele>
        <time>2021-07-28T20:06:03Z</time>
      </trkpt>
      <trkpt lat="40.903306" lon="-3.941568">
        <ele>2007.056</ele>
        <time>2021-07-28T20:06:06Z</time>
      </trkpt>
      <trkpt lat="40.903328" lon="-3.941577">
        <ele>2007.357</ele>
        <time>2021-07-28T20:06:09Z</time>
      </trkpt>
      <trkpt lat="40.903347" lon="-3.941572">
        <ele>2007.688</ele>
        <time>2021-07-28T20:06:11Z</time>
      </trkpt>
      <trkpt lat="40.903366" lon="-3.941573">
        <ele>2008.124</ele>
        <time>2021-07-28T20:06:14Z</time>
      </trkpt>
      <trkpt lat="40.903386" lon="-3.941583">
        <ele>2008.626</ele>
        <time>2021-07-28T20:06:16Z</time>
      </trkpt>
      <trkpt lat="40.903411" lon="-3.941585">
        <ele>2009.208</ele>
        <time>2021-07-28T20:06:20Z</time>
      </trkpt>
      <trkpt lat="40.903434" lon="-3.941597">
        <ele>2009.835</ele>
        <time>2021-07-28T20:06:23Z</time>
      </trkpt>
      <trkpt lat="40.903459" lon="-3.941606">
        <ele>2010.467</ele>
        <time>2021-07-28T20:06:26Z</time>
      </trkpt>
      <trkpt lat="40.903472" lon="-3.941630">
        <ele>2010.824</ele>
        <time>2021-07-28T20:06:29Z</time>
      </trkpt>
      <trkpt lat="40.903504" lon="-3.941645">
        <ele>2011.641</ele>
        <time>2021-07-28T20:06:32Z</time>
      </trkpt>
      <trkpt lat="40.903523" lon="-3.941662">
        <ele>2012.172</ele>
        <time>2021-07-28T20:06:35Z</time>
      </trkpt>
      <trkpt lat="40.903539" lon="-3.941683">
        <ele>2012.632</ele>
        <time>2021-07-28T20:06:38Z</time>
      </trkpt>
      <trkpt lat="40.903558" lon="-3.941695">
        <ele>2013.145</ele>
        <time>2021-07-28T20:06:40Z</time>
      </trkpt>
      <trkpt lat="40.903568" lon="-3.941722">
        <ele>2013.576</ele>
        <time>2021-07-28T20:06:43Z</time>
      </trkpt>
      <trkpt lat="40.903584" lon="-3.941747">
        <ele>2014.084</ele>
        <time>2021-07-28T20:06:46Z</time>
      </trkpt>
      <trkpt lat="40.903603" lon="-3.941760">
        <ele>2014.507</ele>
        <time>2021-07-28T20:06:49Z</time>
      </trkpt>
      <trkpt lat="40.903626" lon="-3.941780">
        <ele>2015.017</ele>
        <time>2021-07-28T20:06:52Z</time>
      </trkpt>
      <trkpt lat="40.903632" lon="-3.941807">
        <ele>2015.308</ele>
        <time>2021-07-28T20:06:54Z</time>
      </trkpt>
      <trkpt lat="40.903648" lon="-3.941820">
        <ele>2015.655</ele>
        <time>2021-07-28T20:06:56Z</time>
      </trkpt>
      <trkpt lat="40.903661" lon="-3.941842">
        <ele>2016.087</ele>
        <time>2021-07-28T20:06:58Z</time>
      </trkpt>
      <trkpt lat="40.903674" lon="-3.941868">
        <ele>2016.484</ele>
        <time>2021-07-28T20:07:01Z</time>
      </trkpt>
      <trkpt lat="40.903686" lon="-3.941887">
        <ele>2016.791</ele>
        <time>2021-07-28T20:07:03Z</time>
      </trkpt>
      <trkpt lat="40.903702" lon="-3.941910">
        <ele>2017.172</ele>
        <time>2021-07-28T20:07:05Z</time>
      </trkpt>
      <trkpt lat="40.903709" lon="-3.941947">
        <ele>2017.452</ele>
        <time>2021-07-28T20:07:08Z</time>
      </trkpt>
      <trkpt lat="40.903725" lon="-3.941965">
        <ele>2017.725</ele>
        <time>2021-07-28T20:07:11Z</time>
      </trkpt>
      <trkpt lat="40.903741" lon="-3.941986">
        <ele>2018.126</ele>
        <time>2021-07-28T20:07:14Z</time>
      </trkpt>
      <trkpt lat="40.903750" lon="-3.942013">
        <ele>2018.499</ele>
        <time>2021-07-28T20:07:17Z</time>
      </trkpt>
      <trkpt lat="40.903763" lon="-3.942037">
        <ele>2018.707</ele>
        <time>2021-07-28T20:07:19Z</time>
      </trkpt>
      <trkpt lat="40.903779" lon="-3.942065">
        <ele>2019.127</ele>
        <time>2021-07-28T20:07:22Z</time>
      </trkpt>
      <trkpt lat="40.903792" lon="-3.942098">
        <ele>2019.508</ele>
        <time>2021-07-28T20:07:25Z</time>
      </trkpt>
      <trkpt lat="40.903808" lon="-3.942122">
        <ele>2019.956</ele>
        <time>2021-07-28T20:07:27Z</time>
      </trkpt>
      <trkpt lat="40.903821" lon="-3.942144">
        <ele>2020.378</ele>
        <time>2021-07-28T20:07:29Z</time>
      </trkpt>
      <trkpt lat="40.903830" lon="-3.942167">
        <ele>2020.635</ele>
        <time>2021-07-28T20:07:32Z</time>
      </trkpt>
      <trkpt lat="40.903840" lon="-3.942192">
        <ele>2020.942</ele>
        <time>2021-07-28T20:07:35Z</time>
      </trkpt>
      <trkpt lat="40.903850" lon="-3.942220">
        <ele>2021.383</ele>
        <time>2021-07-28T20:07:38Z</time>
      </trkpt>
      <trkpt lat="40.903862" lon="-3.942248">
        <ele>2021.713</ele>
        <time>2021-07-28T20:07:42Z</time>
      </trkpt>
      <trkpt lat="40.903866" lon="-3.942273">
        <ele>2022.026</ele>
        <time>2021-07-28T20:07:45Z</time>
      </trkpt>
      <trkpt lat="40.903872" lon="-3.942304">
        <ele>2022.347</ele>
        <time>2021-07-28T20:07:48Z</time>
      </trkpt>
      <trkpt lat="40.903872" lon="-3.942340">
        <ele>2022.579</ele>
        <time>2021-07-28T20:07:51Z</time>
      </trkpt>
      <trkpt lat="40.903872" lon="-3.942370">
        <ele>2022.805</ele>
        <time>2021-07-28T20:07:53Z</time>
      </trkpt>
      <trkpt lat="40.903878" lon="-3.942402">
        <ele>2023.125</ele>
        <time>2021-07-28T20:07:56Z</time>
      </trkpt>
      <trkpt lat="40.903882" lon="-3.942428">
        <ele>2023.408</ele>
        <time>2021-07-28T20:07:58Z</time>
      </trkpt>
      <trkpt lat="40.903882" lon="-3.942455">
        <ele>2023.644</ele>
        <time>2021-07-28T20:08:00Z</time>
      </trkpt>
      <trkpt lat="40.903885" lon="-3.942480">
        <ele>2023.856</ele>
        <time>2021-07-28T20:08:02Z</time>
      </trkpt>
      <trkpt lat="40.903888" lon="-3.942504">
        <ele>2024.083</ele>
        <time>2021-07-28T20:08:04Z</time>
      </trkpt>
      <trkpt lat="40.903898" lon="-3.942526">
        <ele>2024.590</ele>
        <time>2021-07-28T20:08:06Z</time>
      </trkpt>
      <trkpt lat="40.903891" lon="-3.942555">
        <ele>2024.661</ele>
        <time>2021-07-28T20:08:08Z</time>
      </trkpt>
      <trkpt lat="40.903898" lon="-3.942582">
        <ele>2025.181</ele>
        <time>2021-07-28T20:08:10Z</time>
      </trkpt>
      <trkpt lat="40.903901" lon="-3.942615">
        <ele>2025.524</ele>
        <time>2021-07-28T20:08:12Z</time>
      </trkpt>
      <trkpt lat="40.903907" lon="-3.942650">
        <ele>2025.965</ele>
        <time>2021-07-28T20:08:15Z</time>
      </trkpt>
      <trkpt lat="40.903910" lon="-3.942688">
        <ele>2026.495</ele>
        <time>2021-07-28T20:08:18Z</time>
      </trkpt>
      <trkpt lat="40.903923" lon="-3.942706">
        <ele>2026.849</ele>
        <time>2021-07-28T20:08:20Z</time>
      </trkpt>
      <trkpt lat="40.903910" lon="-3.942740">
        <ele>2026.923</ele>
        <time>2021-07-28T20:08:23Z</time>
      </trkpt>
      <trkpt lat="40.903910" lon="-3.942772">
        <ele>2027.208</ele>
        <time>2021-07-28T20:08:25Z</time>
      </trkpt>
      <trkpt lat="40.903907" lon="-3.942800">
        <ele>2027.516</ele>
        <time>2021-07-28T20:08:27Z</time>
      </trkpt>
      <trkpt lat="40.903907" lon="-3.942825">
        <ele>2027.818</ele>
        <time>2021-07-28T20:08:29Z</time>
      </trkpt>
      <trkpt lat="40.903907" lon="-3.942858">
        <ele>2028.145</ele>
        <time>2021-07-28T20:08:32Z</time>
      </trkpt>
      <trkpt lat="40.903904" lon="-3.942885">
        <ele>2028.482</ele>
        <time>2021-07-28T20:08:34Z</time>
      </trkpt>
      <trkpt lat="40.903901" lon="-3.942908">
        <ele>2028.623</ele>
        <time>2021-07-28T20:08:36Z</time>
      </trkpt>
      <trkpt lat="40.903891" lon="-3.942938">
        <ele>2028.883</ele>
        <time>2021-07-28T20:08:39Z</time>
      </trkpt>
      <trkpt lat="40.903882" lon="-3.942967">
        <ele>2028.956</ele>
        <time>2021-07-28T20:08:41Z</time>
      </trkpt>
      <trkpt lat="40.903872" lon="-3.942988">
        <ele>2029.037</ele>
        <time>2021-07-28T20:08:43Z</time>
      </trkpt>
      <trkpt lat="40.903866" lon="-3.943015">
        <ele>2029.273</ele>
        <time>2021-07-28T20:08:45Z</time>
      </trkpt>
      <trkpt lat="40.903859" lon="-3.943040">
        <ele>2029.485</ele>
        <time>2021-07-28T20:08:47Z</time>
      </trkpt>
      <trkpt lat="40.903850" lon="-3.943073">
        <ele>2029.613</ele>
        <time>2021-07-28T20:08:49Z</time>
      </trkpt>
      <trkpt lat="40.903846" lon="-3.943098">
        <ele>2029.708</ele>
        <time>2021-07-28T20:08:51Z</time>
      </trkpt>
      <trkpt lat="40.903843" lon="-3.943133">
        <ele>2030.074</ele>
        <time>2021-07-28T20:08:54Z</time>
      </trkpt>
      <trkpt lat="40.903846" lon="-3.943157">
        <ele>2030.286</ele>
        <time>2021-07-28T20:08:56Z</time>
      </trkpt>
      <trkpt lat="40.903846" lon="-3.943188">
        <ele>2030.563</ele>
        <time>2021-07-28T20:08:59Z</time>
      </trkpt>
      <trkpt lat="40.903846" lon="-3.943228">
        <ele>2030.890</ele>
        <time>2021-07-28T20:09:03Z</time>
      </trkpt>
      <trkpt lat="40.903846" lon="-3.943262">
        <ele>2031.121</ele>
        <time>2021-07-28T20:09:05Z</time>
      </trkpt>
      <trkpt lat="40.903846" lon="-3.943300">
        <ele>2031.451</ele>
        <time>2021-07-28T20:09:09Z</time>
      </trkpt>
      <trkpt lat="40.903840" lon="-3.943333">
        <ele>2031.654</ele>
        <time>2021-07-28T20:09:12Z</time>
      </trkpt>
      <trkpt lat="40.903824" lon="-3.943355">
        <ele>2031.695</ele>
        <time>2021-07-28T20:09:14Z</time>
      </trkpt>
      <trkpt lat="40.903811" lon="-3.943375">
        <ele>2031.685</ele>
        <time>2021-07-28T20:09:16Z</time>
      </trkpt>
      <trkpt lat="40.903798" lon="-3.943402">
        <ele>2031.689</ele>
        <time>2021-07-28T20:09:19Z</time>
      </trkpt>
      <trkpt lat="40.903782" lon="-3.943422">
        <ele>2031.517</ele>
        <time>2021-07-28T20:09:21Z</time>
      </trkpt>
      <trkpt lat="40.903766" lon="-3.943445">
        <ele>2031.508</ele>
        <time>2021-07-28T20:09:23Z</time>
      </trkpt>
      <trkpt lat="40.903754" lon="-3.943473">
        <ele>2031.555</ele>
        <time>2021-07-28T20:09:26Z</time>
      </trkpt>
      <trkpt lat="40.903744" lon="-3.943498">
        <ele>2031.567</ele>
        <time>2021-07-28T20:09:28Z</time>
      </trkpt>
      <trkpt lat="40.903741" lon="-3.943524">
        <ele>2031.684</ele>
        <time>2021-07-28T20:09:30Z</time>
      </trkpt>
      <trkpt lat="40.903731" lon="-3.943557">
        <ele>2031.751</ele>
        <time>2021-07-28T20:09:33Z</time>
      </trkpt>
      <trkpt lat="40.903722" lon="-3.943585">
        <ele>2031.782</ele>
        <time>2021-07-28T20:09:35Z</time>
      </trkpt>
      <trkpt lat="40.903709" lon="-3.943618">
        <ele>2031.782</ele>
        <time>2021-07-28T20:09:38Z</time>
      </trkpt>
      <trkpt lat="40.903702" lon="-3.943643">
        <ele>2031.715</ele>
        <time>2021-07-28T20:09:40Z</time>
      </trkpt>
      <trkpt lat="40.903693" lon="-3.943675">
        <ele>2031.866</ele>
        <time>2021-07-28T20:09:43Z</time>
      </trkpt>
      <trkpt lat="40.903693" lon="-3.943700">
        <ele>2031.843</ele>
        <time>2021-07-28T20:09:45Z</time>
      </trkpt>
      <trkpt lat="40.903686" lon="-3.943730">
        <ele>2031.964</ele>
        <time>2021-07-28T20:09:47Z</time>
      </trkpt>
      <trkpt lat="40.903680" lon="-3.943755">
        <ele>2031.910</ele>
        <time>2021-07-28T20:09:49Z</time>
      </trkpt>
      <trkpt lat="40.903674" lon="-3.943782">
        <ele>2031.908</ele>
        <time>2021-07-28T20:09:51Z</time>
      </trkpt>
      <trkpt lat="40.903667" lon="-3.943812">
        <ele>2032.061</ele>
        <time>2021-07-28T20:09:54Z</time>
      </trkpt>
      <trkpt lat="40.903658" lon="-3.943833">
        <ele>2032.043</ele>
        <time>2021-07-28T20:09:56Z</time>
      </trkpt>
      <trkpt lat="40.903651" lon="-3.943857">
        <ele>2032.070</ele>
        <time>2021-07-28T20:09:58Z</time>
      </trkpt>
      <trkpt lat="40.903648" lon="-3.943888">
        <ele>2032.147</ele>
        <time>2021-07-28T20:10:01Z</time>
      </trkpt>
      <trkpt lat="40.903638" lon="-3.943915">
        <ele>2032.298</ele>
        <time>2021-07-28T20:10:03Z</time>
      </trkpt>
      <trkpt lat="40.903629" lon="-3.943940">
        <ele>2032.218</ele>
        <time>2021-07-28T20:10:05Z</time>
      </trkpt>
      <trkpt lat="40.903622" lon="-3.943967">
        <ele>2032.341</ele>
        <time>2021-07-28T20:10:07Z</time>
      </trkpt>
      <trkpt lat="40.903610" lon="-3.943993">
        <ele>2032.492</ele>
        <time>2021-07-28T20:10:09Z</time>
      </trkpt>
      <trkpt lat="40.903606" lon="-3.944027">
        <ele>2032.523</ele>
        <time>2021-07-28T20:10:11Z</time>
      </trkpt>
      <trkpt lat="40.903600" lon="-3.944055">
        <ele>2032.683</ele>
        <time>2021-07-28T20:10:14Z</time>
      </trkpt>
      <trkpt lat="40.903594" lon="-3.944080">
        <ele>2032.811</ele>
        <time>2021-07-28T20:10:16Z</time>
      </trkpt>
      <trkpt lat="40.903594" lon="-3.944122">
        <ele>2032.908</ele>
        <time>2021-07-28T20:10:18Z</time>
      </trkpt>
      <trkpt lat="40.903600" lon="-3.944157">
        <ele>2033.089</ele>
        <time>2021-07-28T20:10:21Z</time>
      </trkpt>
      <trkpt lat="40.903610" lon="-3.944190">
        <ele>2033.141</ele>
        <time>2021-07-28T20:10:24Z</time>
      </trkpt>
      <trkpt lat="40.903610" lon="-3.944220">
        <ele>2033.288</ele>
        <time>2021-07-28T20:10:26Z</time>
      </trkpt>
      <trkpt lat="40.903610" lon="-3.944250">
        <ele>2033.385</ele>
        <time>2021-07-28T20:10:28Z</time>
      </trkpt>
      <trkpt lat="40.903619" lon="-3.944280">
        <ele>2033.486</ele>
        <time>2021-07-28T20:10:30Z</time>
      </trkpt>
      <trkpt lat="40.903622" lon="-3.944307">
        <ele>2033.576</ele>
        <time>2021-07-28T20:10:32Z</time>
      </trkpt>
      <trkpt lat="40.903629" lon="-3.944333">
        <ele>2033.689</ele>
        <time>2021-07-28T20:10:34Z</time>
      </trkpt>
      <trkpt lat="40.903638" lon="-3.944362">
        <ele>2033.690</ele>
        <time>2021-07-28T20:10:36Z</time>
      </trkpt>
      <trkpt lat="40.903642" lon="-3.944393">
        <ele>2033.784</ele>
        <time>2021-07-28T20:10:38Z</time>
      </trkpt>
      <trkpt lat="40.903642" lon="-3.944430">
        <ele>2033.807</ele>
        <time>2021-07-28T20:10:41Z</time>
      </trkpt>
      <trkpt lat="40.903638" lon="-3.944460">
        <ele>2034.017</ele>
        <time>2021-07-28T20:10:43Z</time>
      </trkpt>
      <trkpt lat="40.903629" lon="-3.944498">
        <ele>2034.108</ele>
        <time>2021-07-28T20:10:45Z</time>
      </trkpt>
      <trkpt lat="40.903619" lon="-3.944528">
        <ele>2034.355</ele>
        <time>2021-07-28T20:10:47Z</time>
      </trkpt>
      <trkpt lat="40.903603" lon="-3.944548">
        <ele>2034.417</ele>
        <time>2021-07-28T20:10:49Z</time>
      </trkpt>
      <trkpt lat="40.903584" lon="-3.944578">
        <ele>2034.734</ele>
        <time>2021-07-28T20:10:51Z</time>
      </trkpt>
      <trkpt lat="40.903562" lon="-3.944597">
        <ele>2035.051</ele>
        <time>2021-07-28T20:10:53Z</time>
      </trkpt>
      <trkpt lat="40.903542" lon="-3.944607">
        <ele>2035.252</ele>
        <time>2021-07-28T20:10:55Z</time>
      </trkpt>
      <trkpt lat="40.903514" lon="-3.944620">
        <ele>2035.672</ele>
        <time>2021-07-28T20:10:57Z</time>
      </trkpt>
      <trkpt lat="40.903491" lon="-3.944625">
        <ele>2035.815</ele>
        <time>2021-07-28T20:10:59Z</time>
      </trkpt>
      <trkpt lat="40.903469" lon="-3.944633">
        <ele>2036.016</ele>
        <time>2021-07-28T20:11:01Z</time>
      </trkpt>
      <trkpt lat="40.903450" lon="-3.944646">
        <ele>2036.387</ele>
        <time>2021-07-28T20:11:03Z</time>
      </trkpt>
      <trkpt lat="40.903427" lon="-3.944658">
        <ele>2036.642</ele>
        <time>2021-07-28T20:11:05Z</time>
      </trkpt>
      <trkpt lat="40.903408" lon="-3.944672">
        <ele>2036.926</ele>
        <time>2021-07-28T20:11:07Z</time>
      </trkpt>
      <trkpt lat="40.903386" lon="-3.944680">
        <ele>2037.208</ele>
        <time>2021-07-28T20:11:09Z</time>
      </trkpt>
      <trkpt lat="40.903363" lon="-3.944692">
        <ele>2037.545</ele>
        <time>2021-07-28T20:11:11Z</time>
      </trkpt>
      <trkpt lat="40.903344" lon="-3.944705">
        <ele>2037.877</ele>
        <time>2021-07-28T20:11:13Z</time>
      </trkpt>
      <trkpt lat="40.903322" lon="-3.944710">
        <ele>2038.144</ele>
        <time>2021-07-28T20:11:15Z</time>
      </trkpt>
      <trkpt lat="40.903302" lon="-3.944728">
        <ele>2038.541</ele>
        <time>2021-07-28T20:11:17Z</time>
      </trkpt>
      <trkpt lat="40.903283" lon="-3.944737">
        <ele>2038.852</ele>
        <time>2021-07-28T20:11:19Z</time>
      </trkpt>
      <trkpt lat="40.903264" lon="-3.944752">
        <ele>2039.122</ele>
        <time>2021-07-28T20:11:21Z</time>
      </trkpt>
      <trkpt lat="40.903248" lon="-3.944765">
        <ele>2039.355</ele>
        <time>2021-07-28T20:11:23Z</time>
      </trkpt>
      <trkpt lat="40.903229" lon="-3.944788">
        <ele>2039.776</ele>
        <time>2021-07-28T20:11:25Z</time>
      </trkpt>
      <trkpt lat="40.903206" lon="-3.944802">
        <ele>2040.029</ele>
        <time>2021-07-28T20:11:28Z</time>
      </trkpt>
      <trkpt lat="40.903187" lon="-3.944815">
        <ele>2040.300</ele>
        <time>2021-07-28T20:11:30Z</time>
      </trkpt>
      <trkpt lat="40.903165" lon="-3.944827">
        <ele>2040.620</ele>
        <time>2021-07-28T20:11:32Z</time>
      </trkpt>
      <trkpt lat="40.903149" lon="-3.944840">
        <ele>2040.808</ele>
        <time>2021-07-28T20:11:34Z</time>
      </trkpt>
      <trkpt lat="40.903133" lon="-3.944857">
        <ele>2041.079</ele>
        <time>2021-07-28T20:11:36Z</time>
      </trkpt>
      <trkpt lat="40.903117" lon="-3.944870">
        <ele>2041.221</ele>
        <time>2021-07-28T20:11:38Z</time>
      </trkpt>
      <trkpt lat="40.903094" lon="-3.944887">
        <ele>2041.528</ele>
        <time>2021-07-28T20:11:40Z</time>
      </trkpt>
      <trkpt lat="40.903078" lon="-3.944903">
        <ele>2041.745</ele>
        <time>2021-07-28T20:11:42Z</time>
      </trkpt>
      <trkpt lat="40.903062" lon="-3.944917">
        <ele>2041.936</ele>
        <time>2021-07-28T20:11:44Z</time>
      </trkpt>
      <trkpt lat="40.903043" lon="-3.944930">
        <ele>2042.296</ele>
        <time>2021-07-28T20:11:46Z</time>
      </trkpt>
      <trkpt lat="40.903024" lon="-3.944942">
        <ele>2042.489</ele>
        <time>2021-07-28T20:11:48Z</time>
      </trkpt>
      <trkpt lat="40.903005" lon="-3.944954">
        <ele>2042.710</ele>
        <time>2021-07-28T20:11:50Z</time>
      </trkpt>
      <trkpt lat="40.902989" lon="-3.944967">
        <ele>2042.925</ele>
        <time>2021-07-28T20:11:52Z</time>
      </trkpt>
      <trkpt lat="40.902963" lon="-3.944975">
        <ele>2043.326</ele>
        <time>2021-07-28T20:11:55Z</time>
      </trkpt>
      <trkpt lat="40.902938" lon="-3.944970">
        <ele>2043.608</ele>
        <time>2021-07-28T20:11:58Z</time>
      </trkpt>
      <trkpt lat="40.902915" lon="-3.944990">
        <ele>2044.008</ele>
        <time>2021-07-28T20:12:01Z</time>
      </trkpt>
      <trkpt lat="40.902893" lon="-3.945003">
        <ele>2044.399</ele>
        <time>2021-07-28T20:12:04Z</time>
      </trkpt>
      <trkpt lat="40.902874" lon="-3.945012">
        <ele>2044.631</ele>
        <time>2021-07-28T20:12:06Z</time>
      </trkpt>
      <trkpt lat="40.902854" lon="-3.945027">
        <ele>2044.898</ele>
        <time>2021-07-28T20:12:08Z</time>
      </trkpt>
      <trkpt lat="40.902832" lon="-3.945050">
        <ele>2045.065</ele>
        <time>2021-07-28T20:12:11Z</time>
      </trkpt>
      <trkpt lat="40.902813" lon="-3.945063">
        <ele>2045.326</ele>
        <time>2021-07-28T20:12:13Z</time>
      </trkpt>
      <trkpt lat="40.902790" lon="-3.945077">
        <ele>2045.566</ele>
        <time>2021-07-28T20:12:16Z</time>
      </trkpt>
      <trkpt lat="40.902771" lon="-3.945095">
        <ele>2045.889</ele>
        <time>2021-07-28T20:12:18Z</time>
      </trkpt>
      <trkpt lat="40.902752" lon="-3.945104">
        <ele>2046.080</ele>
        <time>2021-07-28T20:12:20Z</time>
      </trkpt>
      <trkpt lat="40.902733" lon="-3.945118">
        <ele>2046.359</ele>
        <time>2021-07-28T20:12:22Z</time>
      </trkpt>
      <trkpt lat="40.902714" lon="-3.945125">
        <ele>2046.603</ele>
        <time>2021-07-28T20:12:24Z</time>
      </trkpt>
      <trkpt lat="40.902688" lon="-3.945135">
        <ele>2047.023</ele>
        <time>2021-07-28T20:12:27Z</time>
      </trkpt>
      <trkpt lat="40.902672" lon="-3.945146">
        <ele>2047.208</ele>
        <time>2021-07-28T20:12:29Z</time>
      </trkpt>
      <trkpt lat="40.902656" lon="-3.945160">
        <ele>2047.422</ele>
        <time>2021-07-28T20:12:31Z</time>
      </trkpt>
      <trkpt lat="40.902637" lon="-3.945170">
        <ele>2047.734</ele>
        <time>2021-07-28T20:12:33Z</time>
      </trkpt>
      <trkpt lat="40.902618" lon="-3.945180">
        <ele>2048.091</ele>
        <time>2021-07-28T20:12:35Z</time>
      </trkpt>
      <trkpt lat="40.902602" lon="-3.945210">
        <ele>2048.348</ele>
        <time>2021-07-28T20:12:38Z</time>
      </trkpt>
      <trkpt lat="40.902579" lon="-3.945225">
        <ele>2048.679</ele>
        <time>2021-07-28T20:12:41Z</time>
      </trkpt>
      <trkpt lat="40.902560" lon="-3.945233">
        <ele>2049.069</ele>
        <time>2021-07-28T20:12:43Z</time>
      </trkpt>
      <trkpt lat="40.902534" lon="-3.945260">
        <ele>2049.452</ele>
        <time>2021-07-28T20:12:46Z</time>
      </trkpt>
      <trkpt lat="40.902512" lon="-3.945275">
        <ele>2049.833</ele>
        <time>2021-07-28T20:12:49Z</time>
      </trkpt>
      <trkpt lat="40.902496" lon="-3.945294">
        <ele>2050.073</ele>
        <time>2021-07-28T20:12:51Z</time>
      </trkpt>
      <trkpt lat="40.902480" lon="-3.945310">
        <ele>2050.285</ele>
        <time>2021-07-28T20:12:53Z</time>
      </trkpt>
      <trkpt lat="40.902467" lon="-3.945327">
        <ele>2050.413</ele>
        <time>2021-07-28T20:12:55Z</time>
      </trkpt>
      <trkpt lat="40.902451" lon="-3.945342">
        <ele>2050.508</ele>
        <time>2021-07-28T20:12:57Z</time>
      </trkpt>
      <trkpt lat="40.902432" lon="-3.945365">
        <ele>2050.744</ele>
        <time>2021-07-28T20:13:00Z</time>
      </trkpt>
      <trkpt lat="40.902413" lon="-3.945375">
        <ele>2050.916</ele>
        <time>2021-07-28T20:13:02Z</time>
      </trkpt>
      <trkpt lat="40.902397" lon="-3.945387">
        <ele>2051.113</ele>
        <time>2021-07-28T20:13:04Z</time>
      </trkpt>
      <trkpt lat="40.902381" lon="-3.945402">
        <ele>2051.370</ele>
        <time>2021-07-28T20:13:06Z</time>
      </trkpt>
      <trkpt lat="40.902368" lon="-3.945427">
        <ele>2051.491</ele>
        <time>2021-07-28T20:13:09Z</time>
      </trkpt>
      <trkpt lat="40.902349" lon="-3.945447">
        <ele>2051.621</ele>
        <time>2021-07-28T20:13:11Z</time>
      </trkpt>
      <trkpt lat="40.902330" lon="-3.945454">
        <ele>2051.844</ele>
        <time>2021-07-28T20:13:13Z</time>
      </trkpt>
      <trkpt lat="40.902301" lon="-3.945468">
        <ele>2052.115</ele>
        <time>2021-07-28T20:13:16Z</time>
      </trkpt>
      <trkpt lat="40.902288" lon="-3.945495">
        <ele>2052.368</ele>
        <time>2021-07-28T20:13:19Z</time>
      </trkpt>
      <trkpt lat="40.902269" lon="-3.945508">
        <ele>2052.542</ele>
        <time>2021-07-28T20:13:21Z</time>
      </trkpt>
      <trkpt lat="40.902253" lon="-3.945520">
        <ele>2052.726</ele>
        <time>2021-07-28T20:13:23Z</time>
      </trkpt>
      <trkpt lat="40.902230" lon="-3.945535">
        <ele>2052.908</ele>
        <time>2021-07-28T20:13:25Z</time>
      </trkpt>
      <trkpt lat="40.902198" lon="-3.945543">
        <ele>2053.623</ele>
        <time>2021-07-28T20:13:28Z</time>
      </trkpt>
      <trkpt lat="40.902176" lon="-3.945558">
        <ele>2054.215</ele>
        <time>2021-07-28T20:13:31Z</time>
      </trkpt>
      <trkpt lat="40.902163" lon="-3.945577">
        <ele>2054.522</ele>
        <time>2021-07-28T20:13:33Z</time>
      </trkpt>
      <trkpt lat="40.902141" lon="-3.945582">
        <ele>2055.139</ele>
        <time>2021-07-28T20:13:35Z</time>
      </trkpt>
      <trkpt lat="40.902118" lon="-3.945590">
        <ele>2055.790</ele>
        <time>2021-07-28T20:13:37Z</time>
      </trkpt>
      <trkpt lat="40.902096" lon="-3.945598">
        <ele>2056.210</ele>
        <time>2021-07-28T20:13:40Z</time>
      </trkpt>
      <trkpt lat="40.902074" lon="-3.945608">
        <ele>2056.883</ele>
        <time>2021-07-28T20:13:42Z</time>
      </trkpt>
      <trkpt lat="40.902054" lon="-3.945613">
        <ele>2057.454</ele>
        <time>2021-07-28T20:13:44Z</time>
      </trkpt>
      <trkpt lat="40.902035" lon="-3.945613">
        <ele>2057.985</ele>
        <time>2021-07-28T20:13:46Z</time>
      </trkpt>
      <trkpt lat="40.902016" lon="-3.945607">
        <ele>2058.389</ele>
        <time>2021-07-28T20:13:48Z</time>
      </trkpt>
      <trkpt lat="40.901994" lon="-3.945602">
        <ele>2058.917</ele>
        <time>2021-07-28T20:13:51Z</time>
      </trkpt>
      <trkpt lat="40.901971" lon="-3.945593">
        <ele>2059.508</ele>
        <time>2021-07-28T20:13:54Z</time>
      </trkpt>
      <trkpt lat="40.901952" lon="-3.945585">
        <ele>2059.935</ele>
        <time>2021-07-28T20:13:56Z</time>
      </trkpt>
      <trkpt lat="40.901933" lon="-3.945578">
        <ele>2060.217</ele>
        <time>2021-07-28T20:13:58Z</time>
      </trkpt>
      <trkpt lat="40.901904" lon="-3.945573">
        <ele>2060.534</ele>
        <time>2021-07-28T20:14:01Z</time>
      </trkpt>
      <trkpt lat="40.901885" lon="-3.945570">
        <ele>2060.711</ele>
        <time>2021-07-28T20:14:03Z</time>
      </trkpt>
      <trkpt lat="40.901866" lon="-3.945575">
        <ele>2060.922</ele>
        <time>2021-07-28T20:14:05Z</time>
      </trkpt>
      <trkpt lat="40.901846" lon="-3.945585">
        <ele>2061.282</ele>
        <time>2021-07-28T20:14:08Z</time>
      </trkpt>
      <trkpt lat="40.901827" lon="-3.945588">
        <ele>2061.425</ele>
        <time>2021-07-28T20:14:10Z</time>
      </trkpt>
      <trkpt lat="40.901805" lon="-3.945605">
        <ele>2061.886</ele>
        <time>2021-07-28T20:14:13Z</time>
      </trkpt>
      <trkpt lat="40.901786" lon="-3.945622">
        <ele>2062.174</ele>
        <time>2021-07-28T20:14:16Z</time>
      </trkpt>
      <trkpt lat="40.901763" lon="-3.945622">
        <ele>2062.456</ele>
        <time>2021-07-28T20:14:18Z</time>
      </trkpt>
      <trkpt lat="40.901744" lon="-3.945628">
        <ele>2062.621</ele>
        <time>2021-07-28T20:14:20Z</time>
      </trkpt>
      <trkpt lat="40.901722" lon="-3.945642">
        <ele>2063.008</ele>
        <time>2021-07-28T20:14:22Z</time>
      </trkpt>
      <trkpt lat="40.901702" lon="-3.945652">
        <ele>2063.324</ele>
        <time>2021-07-28T20:14:24Z</time>
      </trkpt>
      <trkpt lat="40.901683" lon="-3.945660">
        <ele>2063.676</ele>
        <time>2021-07-28T20:14:26Z</time>
      </trkpt>
      <trkpt lat="40.901664" lon="-3.945670">
        <ele>2063.993</ele>
        <time>2021-07-28T20:14:28Z</time>
      </trkpt>
      <trkpt lat="40.901642" lon="-3.945667">
        <ele>2064.280</ele>
        <time>2021-07-28T20:14:30Z</time>
      </trkpt>
      <trkpt lat="40.901622" lon="-3.945665">
        <ele>2064.671</ele>
        <time>2021-07-28T20:14:32Z</time>
      </trkpt>
      <trkpt lat="40.901600" lon="-3.945664">
        <ele>2064.931</ele>
        <time>2021-07-28T20:14:34Z</time>
      </trkpt>
      <trkpt lat="40.901581" lon="-3.945648">
        <ele>2065.184</ele>
        <time>2021-07-28T20:14:36Z</time>
      </trkpt>
      <trkpt lat="40.901562" lon="-3.945645">
        <ele>2065.425</ele>
        <time>2021-07-28T20:14:37Z</time>
      </trkpt>
      <trkpt lat="40.901539" lon="-3.945644">
        <ele>2065.834</ele>
        <time>2021-07-28T20:14:39Z</time>
      </trkpt>
      <trkpt lat="40.901507" lon="-3.945642">
        <ele>2066.355</ele>
        <time>2021-07-28T20:14:41Z</time>
      </trkpt>
      <trkpt lat="40.901488" lon="-3.945642">
        <ele>2066.610</ele>
        <time>2021-07-28T20:14:43Z</time>
      </trkpt>
      <trkpt lat="40.901466" lon="-3.945632">
        <ele>2066.808</ele>
        <time>2021-07-28T20:14:45Z</time>
      </trkpt>
      <trkpt lat="40.901440" lon="-3.945622">
        <ele>2067.180</ele>
        <time>2021-07-28T20:14:47Z</time>
      </trkpt>
      <trkpt lat="40.901418" lon="-3.945622">
        <ele>2067.522</ele>
        <time>2021-07-28T20:14:49Z</time>
      </trkpt>
      <trkpt lat="40.901398" lon="-3.945620">
        <ele>2067.849</ele>
        <time>2021-07-28T20:14:51Z</time>
      </trkpt>
      <trkpt lat="40.901376" lon="-3.945620">
        <ele>2067.986</ele>
        <time>2021-07-28T20:14:53Z</time>
      </trkpt>
      <trkpt lat="40.901350" lon="-3.945618">
        <ele>2067.967</ele>
        <time>2021-07-28T20:14:55Z</time>
      </trkpt>
      <trkpt lat="40.901328" lon="-3.945612">
        <ele>2067.987</ele>
        <time>2021-07-28T20:15:00Z</time>
      </trkpt>
      <trkpt lat="40.901302" lon="-3.945615">
        <ele>2067.980</ele>
        <time>2021-07-28T20:15:18Z</time>
      </trkpt>
      <trkpt lat="40.901277" lon="-3.945613">
        <ele>2067.961</ele>
        <time>2021-07-28T20:15:20Z</time>
      </trkpt>
      <trkpt lat="40.901248" lon="-3.945613">
        <ele>2067.957</ele>
        <time>2021-07-28T20:15:22Z</time>
      </trkpt>
      <trkpt lat="40.901222" lon="-3.945618">
        <ele>2068.000</ele>
        <time>2021-07-28T20:15:24Z</time>
      </trkpt>
      <trkpt lat="40.901197" lon="-3.945622">
        <ele>2068.120</ele>
        <time>2021-07-28T20:15:26Z</time>
      </trkpt>
      <trkpt lat="40.901178" lon="-3.945628">
        <ele>2068.208</ele>
        <time>2021-07-28T20:15:28Z</time>
      </trkpt>
      <trkpt lat="40.901152" lon="-3.945628">
        <ele>2068.312</ele>
        <time>2021-07-28T20:15:30Z</time>
      </trkpt>
      <trkpt lat="40.901120" lon="-3.945628">
        <ele>2068.314</ele>
        <time>2021-07-28T20:15:33Z</time>
      </trkpt>
      <trkpt lat="40.901098" lon="-3.945627">
        <ele>2068.311</ele>
        <time>2021-07-28T20:15:35Z</time>
      </trkpt>
      <trkpt lat="40.901072" lon="-3.945623">
        <ele>2068.268</ele>
        <time>2021-07-28T20:15:37Z</time>
      </trkpt>
      <trkpt lat="40.901053" lon="-3.945632">
        <ele>2068.439</ele>
        <time>2021-07-28T20:15:48Z</time>
      </trkpt>
      <trkpt lat="40.901008" lon="-3.945644">
        <ele>2068.649</ele>
        <time>2021-07-28T20:16:27Z</time>
      </trkpt>
      <trkpt lat="40.900992" lon="-3.945615">
        <ele>2068.152</ele>
        <time>2021-07-28T20:18:08Z</time>
      </trkpt>
      <trkpt lat="40.900960" lon="-3.945613">
        <ele>2068.043</ele>
        <time>2021-07-28T20:18:10Z</time>
      </trkpt>
      <trkpt lat="40.900941" lon="-3.945613">
        <ele>2068.056</ele>
        <time>2021-07-28T20:18:11Z</time>
      </trkpt>
      <trkpt lat="40.900922" lon="-3.945615">
        <ele>2068.159</ele>
        <time>2021-07-28T20:18:12Z</time>
      </trkpt>
      <trkpt lat="40.900902" lon="-3.945618">
        <ele>2068.114</ele>
        <time>2021-07-28T20:18:13Z</time>
      </trkpt>
      <trkpt lat="40.900870" lon="-3.945620">
        <ele>2068.208</ele>
        <time>2021-07-28T20:18:15Z</time>
      </trkpt>
      <trkpt lat="40.900838" lon="-3.945623">
        <ele>2068.222</ele>
        <time>2021-07-28T20:18:17Z</time>
      </trkpt>
      <trkpt lat="40.900758" lon="-3.945617">
        <ele>2068.114</ele>
        <time>2021-07-28T20:18:23Z</time>
      </trkpt>
      <trkpt lat="40.900733" lon="-3.945618">
        <ele>2068.111</ele>
        <time>2021-07-28T20:18:25Z</time>
      </trkpt>
      <trkpt lat="40.900714" lon="-3.945622">
        <ele>2068.248</ele>
        <time>2021-07-28T20:18:27Z</time>
      </trkpt>
      <trkpt lat="40.900688" lon="-3.945620">
        <ele>2068.239</ele>
        <time>2021-07-28T20:18:29Z</time>
      </trkpt>
      <trkpt lat="40.900666" lon="-3.945623">
        <ele>2068.269</ele>
        <time>2021-07-28T20:18:31Z</time>
      </trkpt>
      <trkpt lat="40.900646" lon="-3.945613">
        <ele>2068.082</ele>
        <time>2021-07-28T20:18:33Z</time>
      </trkpt>
      <trkpt lat="40.900621" lon="-3.945608">
        <ele>2067.933</ele>
        <time>2021-07-28T20:18:35Z</time>
      </trkpt>
      <trkpt lat="40.900595" lon="-3.945610">
        <ele>2068.086</ele>
        <time>2021-07-28T20:18:37Z</time>
      </trkpt>
      <trkpt lat="40.900573" lon="-3.945613">
        <ele>2068.060</ele>
        <time>2021-07-28T20:18:39Z</time>
      </trkpt>
      <trkpt lat="40.900547" lon="-3.945628">
        <ele>2068.326</ele>
        <time>2021-07-28T20:18:42Z</time>
      </trkpt>
      <trkpt lat="40.900531" lon="-3.945644">
        <ele>2068.508</ele>
        <time>2021-07-28T20:18:44Z</time>
      </trkpt>
      <trkpt lat="40.900515" lon="-3.945660">
        <ele>2068.775</ele>
        <time>2021-07-28T20:18:46Z</time>
      </trkpt>
      <trkpt lat="40.900493" lon="-3.945680">
        <ele>2069.037</ele>
        <time>2021-07-28T20:18:49Z</time>
      </trkpt>
      <trkpt lat="40.900486" lon="-3.945712">
        <ele>2069.634</ele>
        <time>2021-07-28T20:18:52Z</time>
      </trkpt>
      <trkpt lat="40.900477" lon="-3.945735">
        <ele>2069.991</ele>
        <time>2021-07-28T20:18:54Z</time>
      </trkpt>
      <trkpt lat="40.900467" lon="-3.945758">
        <ele>2070.362</ele>
        <time>2021-07-28T20:18:57Z</time>
      </trkpt>
      <trkpt lat="40.900451" lon="-3.945775">
        <ele>2070.612</ele>
        <time>2021-07-28T20:19:03Z</time>
      </trkpt>
      <trkpt lat="40.900442" lon="-3.945802">
        <ele>2071.095</ele>
        <time>2021-07-28T20:19:06Z</time>
      </trkpt>
      <trkpt lat="40.900429" lon="-3.945825">
        <ele>2071.496</ele>
        <time>2021-07-28T20:19:09Z</time>
      </trkpt>
      <trkpt lat="40.900416" lon="-3.945853">
        <ele>2071.867</ele>
        <time>2021-07-28T20:19:13Z</time>
      </trkpt>
      <trkpt lat="40.900406" lon="-3.945883">
        <ele>2072.381</ele>
        <time>2021-07-28T20:19:16Z</time>
      </trkpt>
      <trkpt lat="40.900403" lon="-3.945913">
        <ele>2072.819</ele>
        <time>2021-07-28T20:19:19Z</time>
      </trkpt>
      <trkpt lat="40.900394" lon="-3.945935">
        <ele>2073.108</ele>
        <time>2021-07-28T20:19:22Z</time>
      </trkpt>
      <trkpt lat="40.900387" lon="-3.945960">
        <ele>2073.563</ele>
        <time>2021-07-28T20:19:25Z</time>
      </trkpt>
      <trkpt lat="40.900378" lon="-3.945984">
        <ele>2073.965</ele>
        <time>2021-07-28T20:19:28Z</time>
      </trkpt>
      <trkpt lat="40.900371" lon="-3.946014">
        <ele>2074.442</ele>
        <time>2021-07-28T20:19:31Z</time>
      </trkpt>
      <trkpt lat="40.900365" lon="-3.946042">
        <ele>2074.859</ele>
        <time>2021-07-28T20:19:34Z</time>
      </trkpt>
      <trkpt lat="40.900352" lon="-3.946070">
        <ele>2075.370</ele>
        <time>2021-07-28T20:19:37Z</time>
      </trkpt>
      <trkpt lat="40.900346" lon="-3.946095">
        <ele>2075.710</ele>
        <time>2021-07-28T20:19:39Z</time>
      </trkpt>
      <trkpt lat="40.900336" lon="-3.946115">
        <ele>2076.113</ele>
        <time>2021-07-28T20:19:41Z</time>
      </trkpt>
      <trkpt lat="40.900323" lon="-3.946143">
        <ele>2076.694</ele>
        <time>2021-07-28T20:19:44Z</time>
      </trkpt>
      <trkpt lat="40.900314" lon="-3.946172">
        <ele>2077.198</ele>
        <time>2021-07-28T20:19:48Z</time>
      </trkpt>
      <trkpt lat="40.900307" lon="-3.946198">
        <ele>2077.615</ele>
        <time>2021-07-28T20:19:53Z</time>
      </trkpt>
      <trkpt lat="40.900294" lon="-3.946218">
        <ele>2077.926</ele>
        <time>2021-07-28T20:19:55Z</time>
      </trkpt>
      <trkpt lat="40.900288" lon="-3.946250">
        <ele>2078.508</ele>
        <time>2021-07-28T20:19:59Z</time>
      </trkpt>
      <trkpt lat="40.900278" lon="-3.946280">
        <ele>2079.026</ele>
        <time>2021-07-28T20:20:02Z</time>
      </trkpt>
      <trkpt lat="40.900269" lon="-3.946302">
        <ele>2079.458</ele>
        <time>2021-07-28T20:20:05Z</time>
      </trkpt>
      <trkpt lat="40.900266" lon="-3.946327">
        <ele>2079.815</ele>
        <time>2021-07-28T20:20:07Z</time>
      </trkpt>
      <trkpt lat="40.900256" lon="-3.946348">
        <ele>2080.292</ele>
        <time>2021-07-28T20:20:10Z</time>
      </trkpt>
      <trkpt lat="40.900253" lon="-3.946372">
        <ele>2080.643</ele>
        <time>2021-07-28T20:20:14Z</time>
      </trkpt>
      <trkpt lat="40.900246" lon="-3.946403">
        <ele>2081.273</ele>
        <time>2021-07-28T20:20:18Z</time>
      </trkpt>
      <trkpt lat="40.900243" lon="-3.946430">
        <ele>2081.776</ele>
        <time>2021-07-28T20:20:21Z</time>
      </trkpt>
      <trkpt lat="40.900234" lon="-3.946452">
        <ele>2082.267</ele>
        <time>2021-07-28T20:20:23Z</time>
      </trkpt>
      <trkpt lat="40.900227" lon="-3.946478">
        <ele>2082.712</ele>
        <time>2021-07-28T20:20:26Z</time>
      </trkpt>
      <trkpt lat="40.900218" lon="-3.946502">
        <ele>2083.132</ele>
        <time>2021-07-28T20:20:29Z</time>
      </trkpt>
      <trkpt lat="40.900214" lon="-3.946525">
        <ele>2083.605</ele>
        <time>2021-07-28T20:20:31Z</time>
      </trkpt>
      <trkpt lat="40.900205" lon="-3.946552">
        <ele>2084.108</ele>
        <time>2021-07-28T20:20:34Z</time>
      </trkpt>
      <trkpt lat="40.900195" lon="-3.946575">
        <ele>2084.588</ele>
        <time>2021-07-28T20:20:36Z</time>
      </trkpt>
      <trkpt lat="40.900182" lon="-3.946598">
        <ele>2084.910</ele>
        <time>2021-07-28T20:20:40Z</time>
      </trkpt>
      <trkpt lat="40.900166" lon="-3.946625">
        <ele>2085.477</ele>
        <time>2021-07-28T20:20:44Z</time>
      </trkpt>
      <trkpt lat="40.900157" lon="-3.946645">
        <ele>2085.764</ele>
        <time>2021-07-28T20:20:46Z</time>
      </trkpt>
      <trkpt lat="40.900134" lon="-3.946673">
        <ele>2086.085</ele>
        <time>2021-07-28T20:20:49Z</time>
      </trkpt>
      <trkpt lat="40.900118" lon="-3.946688">
        <ele>2086.135</ele>
        <time>2021-07-28T20:20:51Z</time>
      </trkpt>
      <trkpt lat="40.900099" lon="-3.946712">
        <ele>2086.338</ele>
        <time>2021-07-28T20:20:54Z</time>
      </trkpt>
      <trkpt lat="40.900086" lon="-3.946737">
        <ele>2086.669</ele>
        <time>2021-07-28T20:20:56Z</time>
      </trkpt>
      <trkpt lat="40.900074" lon="-3.946757">
        <ele>2086.753</ele>
        <time>2021-07-28T20:20:58Z</time>
      </trkpt>
      <trkpt lat="40.900064" lon="-3.946778">
        <ele>2087.004</ele>
        <time>2021-07-28T20:21:00Z</time>
      </trkpt>
      <trkpt lat="40.900051" lon="-3.946798">
        <ele>2087.214</ele>
        <time>2021-07-28T20:21:02Z</time>
      </trkpt>
      <trkpt lat="40.900045" lon="-3.946825">
        <ele>2087.508</ele>
        <time>2021-07-28T20:21:04Z</time>
      </trkpt>
      <trkpt lat="40.900032" lon="-3.946850">
        <ele>2087.832</ele>
        <time>2021-07-28T20:21:06Z</time>
      </trkpt>
      <trkpt lat="40.900029" lon="-3.946876">
        <ele>2088.124</ele>
        <time>2021-07-28T20:21:09Z</time>
      </trkpt>
      <trkpt lat="40.900016" lon="-3.946908">
        <ele>2088.561</ele>
        <time>2021-07-28T20:21:12Z</time>
      </trkpt>
      <trkpt lat="40.900000" lon="-3.946938">
        <ele>2088.928</ele>
        <time>2021-07-28T20:21:15Z</time>
      </trkpt>
      <trkpt lat="40.899994" lon="-3.946967">
        <ele>2089.069</ele>
        <time>2021-07-28T20:21:18Z</time>
      </trkpt>
      <trkpt lat="40.899987" lon="-3.946992">
        <ele>2089.139</ele>
        <time>2021-07-28T20:21:20Z</time>
      </trkpt>
      <trkpt lat="40.899971" lon="-3.947023">
        <ele>2089.152</ele>
        <time>2021-07-28T20:21:23Z</time>
      </trkpt>
      <trkpt lat="40.899965" lon="-3.947048">
        <ele>2089.273</ele>
        <time>2021-07-28T20:21:25Z</time>
      </trkpt>
      <trkpt lat="40.899952" lon="-3.947080">
        <ele>2089.394</ele>
        <time>2021-07-28T20:21:27Z</time>
      </trkpt>
      <trkpt lat="40.899946" lon="-3.947106">
        <ele>2089.457</ele>
        <time>2021-07-28T20:21:29Z</time>
      </trkpt>
      <trkpt lat="40.899939" lon="-3.947133">
        <ele>2089.522</ele>
        <time>2021-07-28T20:21:31Z</time>
      </trkpt>
      <trkpt lat="40.899930" lon="-3.947168">
        <ele>2089.708</ele>
        <time>2021-07-28T20:21:34Z</time>
      </trkpt>
      <trkpt lat="40.899914" lon="-3.947198">
        <ele>2089.916</ele>
        <time>2021-07-28T20:21:36Z</time>
      </trkpt>
      <trkpt lat="40.899910" lon="-3.947225">
        <ele>2090.088</ele>
        <time>2021-07-28T20:21:38Z</time>
      </trkpt>
      <trkpt lat="40.899898" lon="-3.947248">
        <ele>2090.055</ele>
        <time>2021-07-28T20:21:40Z</time>
      </trkpt>
      <trkpt lat="40.899894" lon="-3.947275">
        <ele>2090.062</ele>
        <time>2021-07-28T20:21:42Z</time>
      </trkpt>
      <trkpt lat="40.899885" lon="-3.947302">
        <ele>2090.043</ele>
        <time>2021-07-28T20:21:44Z</time>
      </trkpt>
      <trkpt lat="40.899875" lon="-3.947327">
        <ele>2090.013</ele>
        <time>2021-07-28T20:21:46Z</time>
      </trkpt>
      <trkpt lat="40.899869" lon="-3.947355">
        <ele>2090.026</ele>
        <time>2021-07-28T20:21:48Z</time>
      </trkpt>
      <trkpt lat="40.899856" lon="-3.947380">
        <ele>2090.057</ele>
        <time>2021-07-28T20:21:50Z</time>
      </trkpt>
      <trkpt lat="40.899846" lon="-3.947405">
        <ele>2090.077</ele>
        <time>2021-07-28T20:21:52Z</time>
      </trkpt>
      <trkpt lat="40.899834" lon="-3.947425">
        <ele>2090.061</ele>
        <time>2021-07-28T20:21:54Z</time>
      </trkpt>
      <trkpt lat="40.899818" lon="-3.947452">
        <ele>2090.027</ele>
        <time>2021-07-28T20:21:56Z</time>
      </trkpt>
      <trkpt lat="40.899798" lon="-3.947470">
        <ele>2090.008</ele>
        <time>2021-07-28T20:21:58Z</time>
      </trkpt>
      <trkpt lat="40.899779" lon="-3.947498">
        <ele>2090.064</ele>
        <time>2021-07-28T20:22:00Z</time>
      </trkpt>
      <trkpt lat="40.899757" lon="-3.947525">
        <ele>2090.046</ele>
        <time>2021-07-28T20:22:03Z</time>
      </trkpt>
      <trkpt lat="40.899738" lon="-3.947547">
        <ele>2090.013</ele>
        <time>2021-07-28T20:22:05Z</time>
      </trkpt>
      <trkpt lat="40.899715" lon="-3.947565">
        <ele>2090.030</ele>
        <time>2021-07-28T20:22:07Z</time>
      </trkpt>
      <trkpt lat="40.899702" lon="-3.947585">
        <ele>2090.031</ele>
        <time>2021-07-28T20:22:09Z</time>
      </trkpt>
      <trkpt lat="40.899680" lon="-3.947603">
        <ele>2090.041</ele>
        <time>2021-07-28T20:22:11Z</time>
      </trkpt>
      <trkpt lat="40.899658" lon="-3.947620">
        <ele>2090.094</ele>
        <time>2021-07-28T20:22:13Z</time>
      </trkpt>
      <trkpt lat="40.899638" lon="-3.947633">
        <ele>2090.085</ele>
        <time>2021-07-28T20:22:15Z</time>
      </trkpt>
      <trkpt lat="40.899619" lon="-3.947647">
        <ele>2090.011</ele>
        <time>2021-07-28T20:22:17Z</time>
      </trkpt>
      <trkpt lat="40.899597" lon="-3.947667">
        <ele>2090.021</ele>
        <time>2021-07-28T20:22:19Z</time>
      </trkpt>
      <trkpt lat="40.899571" lon="-3.947687">
        <ele>2090.003</ele>
        <time>2021-07-28T20:22:22Z</time>
      </trkpt>
      <trkpt lat="40.899552" lon="-3.947700">
        <ele>2090.008</ele>
        <time>2021-07-28T20:22:24Z</time>
      </trkpt>
      <trkpt lat="40.899533" lon="-3.947710">
        <ele>2090.018</ele>
        <time>2021-07-28T20:22:26Z</time>
      </trkpt>
      <trkpt lat="40.899514" lon="-3.947727">
        <ele>2090.050</ele>
        <time>2021-07-28T20:22:28Z</time>
      </trkpt>
      <trkpt lat="40.899491" lon="-3.947748">
        <ele>2090.097</ele>
        <time>2021-07-28T20:22:30Z</time>
      </trkpt>
      <trkpt lat="40.899472" lon="-3.947765">
        <ele>2090.014</ele>
        <time>2021-07-28T20:22:32Z</time>
      </trkpt>
      <trkpt lat="40.899450" lon="-3.947774">
        <ele>2090.045</ele>
        <time>2021-07-28T20:22:34Z</time>
      </trkpt>
      <trkpt lat="40.899421" lon="-3.947790">
        <ele>2089.935</ele>
        <time>2021-07-28T20:22:36Z</time>
      </trkpt>
      <trkpt lat="40.899398" lon="-3.947806">
        <ele>2089.838</ele>
        <time>2021-07-28T20:22:38Z</time>
      </trkpt>
      <trkpt lat="40.899382" lon="-3.947822">
        <ele>2089.819</ele>
        <time>2021-07-28T20:22:40Z</time>
      </trkpt>
      <trkpt lat="40.899357" lon="-3.947828">
        <ele>2089.782</ele>
        <time>2021-07-28T20:22:42Z</time>
      </trkpt>
      <trkpt lat="40.899338" lon="-3.947845">
        <ele>2089.743</ele>
        <time>2021-07-28T20:22:44Z</time>
      </trkpt>
      <trkpt lat="40.899318" lon="-3.947867">
        <ele>2089.717</ele>
        <time>2021-07-28T20:22:46Z</time>
      </trkpt>
      <trkpt lat="40.899293" lon="-3.947877">
        <ele>2089.708</ele>
        <time>2021-07-28T20:22:48Z</time>
      </trkpt>
      <trkpt lat="40.899264" lon="-3.947885">
        <ele>2089.615</ele>
        <time>2021-07-28T20:22:50Z</time>
      </trkpt>
      <trkpt lat="40.899242" lon="-3.947895">
        <ele>2089.677</ele>
        <time>2021-07-28T20:22:52Z</time>
      </trkpt>
      <trkpt lat="40.899219" lon="-3.947912">
        <ele>2089.684</ele>
        <time>2021-07-28T20:22:54Z</time>
      </trkpt>
      <trkpt lat="40.899203" lon="-3.947932">
        <ele>2089.691</ele>
        <time>2021-07-28T20:22:56Z</time>
      </trkpt>
      <trkpt lat="40.899184" lon="-3.947940">
        <ele>2089.642</ele>
        <time>2021-07-28T20:23:02Z</time>
      </trkpt>
      <trkpt lat="40.899165" lon="-3.947946">
        <ele>2089.642</ele>
        <time>2021-07-28T20:23:04Z</time>
      </trkpt>
      <trkpt lat="40.899142" lon="-3.947965">
        <ele>2089.415</ele>
        <time>2021-07-28T20:23:06Z</time>
      </trkpt>
      <trkpt lat="40.899123" lon="-3.947982">
        <ele>2089.276</ele>
        <time>2021-07-28T20:23:08Z</time>
      </trkpt>
      <trkpt lat="40.899104" lon="-3.947990">
        <ele>2089.057</ele>
        <time>2021-07-28T20:23:10Z</time>
      </trkpt>
      <trkpt lat="40.899085" lon="-3.948005">
        <ele>2088.900</ele>
        <time>2021-07-28T20:23:12Z</time>
      </trkpt>
      <trkpt lat="40.899059" lon="-3.948028">
        <ele>2088.720</ele>
        <time>2021-07-28T20:23:14Z</time>
      </trkpt>
      <trkpt lat="40.899037" lon="-3.948042">
        <ele>2088.508</ele>
        <time>2021-07-28T20:23:16Z</time>
      </trkpt>
      <trkpt lat="40.899014" lon="-3.948062">
        <ele>2088.492</ele>
        <time>2021-07-28T20:23:18Z</time>
      </trkpt>
      <trkpt lat="40.898992" lon="-3.948075">
        <ele>2088.264</ele>
        <time>2021-07-28T20:23:20Z</time>
      </trkpt>
      <trkpt lat="40.898966" lon="-3.948092">
        <ele>2088.141</ele>
        <time>2021-07-28T20:23:24Z</time>
      </trkpt>
      <trkpt lat="40.898941" lon="-3.948110">
        <ele>2088.098</ele>
        <time>2021-07-28T20:23:27Z</time>
      </trkpt>
      <trkpt lat="40.898915" lon="-3.948122">
        <ele>2087.969</ele>
        <time>2021-07-28T20:23:29Z</time>
      </trkpt>
      <trkpt lat="40.898896" lon="-3.948142">
        <ele>2088.069</ele>
        <time>2021-07-28T20:23:31Z</time>
      </trkpt>
      <trkpt lat="40.898877" lon="-3.948158">
        <ele>2088.082</ele>
        <time>2021-07-28T20:23:33Z</time>
      </trkpt>
      <trkpt lat="40.898858" lon="-3.948175">
        <ele>2087.943</ele>
        <time>2021-07-28T20:23:35Z</time>
      </trkpt>
      <trkpt lat="40.898842" lon="-3.948192">
        <ele>2087.921</ele>
        <time>2021-07-28T20:23:37Z</time>
      </trkpt>
      <trkpt lat="40.898816" lon="-3.948210">
        <ele>2087.741</ele>
        <time>2021-07-28T20:23:40Z</time>
      </trkpt>
      <trkpt lat="40.898800" lon="-3.948223">
        <ele>2087.705</ele>
        <time>2021-07-28T20:23:41Z</time>
      </trkpt>
      <trkpt lat="40.898778" lon="-3.948235">
        <ele>2087.508</ele>
        <time>2021-07-28T20:23:43Z</time>
      </trkpt>
      <trkpt lat="40.898758" lon="-3.948253">
        <ele>2087.489</ele>
        <time>2021-07-28T20:23:45Z</time>
      </trkpt>
      <trkpt lat="40.898742" lon="-3.948276">
        <ele>2087.451</ele>
        <time>2021-07-28T20:23:46Z</time>
      </trkpt>
      <trkpt lat="40.898726" lon="-3.948296">
        <ele>2087.388</ele>
        <time>2021-07-28T20:23:48Z</time>
      </trkpt>
      <trkpt lat="40.898707" lon="-3.948312">
        <ele>2087.235</ele>
        <time>2021-07-28T20:23:50Z</time>
      </trkpt>
      <trkpt lat="40.898688" lon="-3.948330">
        <ele>2087.196</ele>
        <time>2021-07-28T20:23:52Z</time>
      </trkpt>
      <trkpt lat="40.898675" lon="-3.948348">
        <ele>2086.986</ele>
        <time>2021-07-28T20:23:54Z</time>
      </trkpt>
      <trkpt lat="40.898650" lon="-3.948373">
        <ele>2086.559</ele>
        <time>2021-07-28T20:23:56Z</time>
      </trkpt>
      <trkpt lat="40.898627" lon="-3.948395">
        <ele>2086.250</ele>
        <time>2021-07-28T20:23:59Z</time>
      </trkpt>
      <trkpt lat="40.898608" lon="-3.948410">
        <ele>2086.072</ele>
        <time>2021-07-28T20:24:01Z</time>
      </trkpt>
      <trkpt lat="40.898589" lon="-3.948423">
        <ele>2085.813</ele>
        <time>2021-07-28T20:24:03Z</time>
      </trkpt>
      <trkpt lat="40.898563" lon="-3.948440">
        <ele>2085.514</ele>
        <time>2021-07-28T20:24:05Z</time>
      </trkpt>
      <trkpt lat="40.898544" lon="-3.948450">
        <ele>2085.408</ele>
        <time>2021-07-28T20:24:07Z</time>
      </trkpt>
      <trkpt lat="40.898525" lon="-3.948465">
        <ele>2085.234</ele>
        <time>2021-07-28T20:24:09Z</time>
      </trkpt>
      <trkpt lat="40.898506" lon="-3.948480">
        <ele>2085.136</ele>
        <time>2021-07-28T20:24:11Z</time>
      </trkpt>
      <trkpt lat="40.898480" lon="-3.948500">
        <ele>2084.923</ele>
        <time>2021-07-28T20:24:13Z</time>
      </trkpt>
      <trkpt lat="40.898461" lon="-3.948506">
        <ele>2084.740</ele>
        <time>2021-07-28T20:24:15Z</time>
      </trkpt>
      <trkpt lat="40.898442" lon="-3.948515">
        <ele>2084.631</ele>
        <time>2021-07-28T20:24:17Z</time>
      </trkpt>
      <trkpt lat="40.898410" lon="-3.948527">
        <ele>2084.361</ele>
        <time>2021-07-28T20:24:19Z</time>
      </trkpt>
      <trkpt lat="40.898384" lon="-3.948550">
        <ele>2084.274</ele>
        <time>2021-07-28T20:24:22Z</time>
      </trkpt>
      <trkpt lat="40.898368" lon="-3.948565">
        <ele>2084.195</ele>
        <time>2021-07-28T20:24:24Z</time>
      </trkpt>
      <trkpt lat="40.898346" lon="-3.948580">
        <ele>2084.058</ele>
        <time>2021-07-28T20:24:26Z</time>
      </trkpt>
      <trkpt lat="40.898330" lon="-3.948592">
        <ele>2083.952</ele>
        <time>2021-07-28T20:24:27Z</time>
      </trkpt>
      <trkpt lat="40.898304" lon="-3.948608">
        <ele>2083.717</ele>
        <time>2021-07-28T20:24:29Z</time>
      </trkpt>
      <trkpt lat="40.898285" lon="-3.948626">
        <ele>2083.408</ele>
        <time>2021-07-28T20:24:31Z</time>
      </trkpt>
      <trkpt lat="40.898269" lon="-3.948643">
        <ele>2083.132</ele>
        <time>2021-07-28T20:24:33Z</time>
      </trkpt>
      <trkpt lat="40.898246" lon="-3.948662">
        <ele>2082.824</ele>
        <time>2021-07-28T20:24:35Z</time>
      </trkpt>
      <trkpt lat="40.898230" lon="-3.948675">
        <ele>2082.681</ele>
        <time>2021-07-28T20:24:36Z</time>
      </trkpt>
      <trkpt lat="40.898205" lon="-3.948688">
        <ele>2082.378</ele>
        <time>2021-07-28T20:24:38Z</time>
      </trkpt>
      <trkpt lat="40.898186" lon="-3.948697">
        <ele>2082.199</ele>
        <time>2021-07-28T20:24:40Z</time>
      </trkpt>
      <trkpt lat="40.898157" lon="-3.948708">
        <ele>2081.849</ele>
        <time>2021-07-28T20:24:42Z</time>
      </trkpt>
      <trkpt lat="40.898128" lon="-3.948723">
        <ele>2081.642</ele>
        <time>2021-07-28T20:24:44Z</time>
      </trkpt>
      <trkpt lat="40.898106" lon="-3.948738">
        <ele>2081.433</ele>
        <time>2021-07-28T20:24:46Z</time>
      </trkpt>
      <trkpt lat="40.898086" lon="-3.948752">
        <ele>2081.291</ele>
        <time>2021-07-28T20:24:48Z</time>
      </trkpt>
      <trkpt lat="40.898064" lon="-3.948765">
        <ele>2081.181</ele>
        <time>2021-07-28T20:24:50Z</time>
      </trkpt>
      <trkpt lat="40.898042" lon="-3.948782">
        <ele>2081.019</ele>
        <time>2021-07-28T20:24:52Z</time>
      </trkpt>
      <trkpt lat="40.898022" lon="-3.948788">
        <ele>2080.908</ele>
        <time>2021-07-28T20:24:54Z</time>
      </trkpt>
      <trkpt lat="40.898000" lon="-3.948805">
        <ele>2080.886</ele>
        <time>2021-07-28T20:24:56Z</time>
      </trkpt>
      <trkpt lat="40.897984" lon="-3.948817">
        <ele>2080.768</ele>
        <time>2021-07-28T20:24:58Z</time>
      </trkpt>
      <trkpt lat="40.897962" lon="-3.948827">
        <ele>2080.775</ele>
        <time>2021-07-28T20:25:02Z</time>
      </trkpt>
      <trkpt lat="40.897946" lon="-3.948842">
        <ele>2080.662</ele>
        <time>2021-07-28T20:25:04Z</time>
      </trkpt>
      <trkpt lat="40.897926" lon="-3.948858">
        <ele>2080.553</ele>
        <time>2021-07-28T20:25:06Z</time>
      </trkpt>
      <trkpt lat="40.897907" lon="-3.948877">
        <ele>2080.593</ele>
        <time>2021-07-28T20:25:08Z</time>
      </trkpt>
      <trkpt lat="40.897891" lon="-3.948893">
        <ele>2080.476</ele>
        <time>2021-07-28T20:25:10Z</time>
      </trkpt>
      <trkpt lat="40.897872" lon="-3.948908">
        <ele>2080.337</ele>
        <time>2021-07-28T20:25:12Z</time>
      </trkpt>
      <trkpt lat="40.897853" lon="-3.948937">
        <ele>2080.293</ele>
        <time>2021-07-28T20:25:14Z</time>
      </trkpt>
      <trkpt lat="40.897834" lon="-3.948957">
        <ele>2080.265</ele>
        <time>2021-07-28T20:25:16Z</time>
      </trkpt>
      <trkpt lat="40.897821" lon="-3.948990">
        <ele>2080.121</ele>
        <time>2021-07-28T20:25:19Z</time>
      </trkpt>
      <trkpt lat="40.897805" lon="-3.949010">
        <ele>2080.108</ele>
        <time>2021-07-28T20:25:21Z</time>
      </trkpt>
      <trkpt lat="40.897782" lon="-3.949030">
        <ele>2080.076</ele>
        <time>2021-07-28T20:25:23Z</time>
      </trkpt>
      <trkpt lat="40.897763" lon="-3.949048">
        <ele>2080.038</ele>
        <time>2021-07-28T20:25:25Z</time>
      </trkpt>
      <trkpt lat="40.897744" lon="-3.949057">
        <ele>2080.055</ele>
        <time>2021-07-28T20:25:27Z</time>
      </trkpt>
      <trkpt lat="40.897722" lon="-3.949068">
        <ele>2080.072</ele>
        <time>2021-07-28T20:25:29Z</time>
      </trkpt>
      <trkpt lat="40.897702" lon="-3.949093">
        <ele>2080.093</ele>
        <time>2021-07-28T20:25:31Z</time>
      </trkpt>
      <trkpt lat="40.897683" lon="-3.949113">
        <ele>2080.043</ele>
        <time>2021-07-28T20:25:33Z</time>
      </trkpt>
      <trkpt lat="40.897670" lon="-3.949138">
        <ele>2080.096</ele>
        <time>2021-07-28T20:25:35Z</time>
      </trkpt>
      <trkpt lat="40.897651" lon="-3.949155">
        <ele>2080.057</ele>
        <time>2021-07-28T20:25:37Z</time>
      </trkpt>
      <trkpt lat="40.897635" lon="-3.949170">
        <ele>2080.077</ele>
        <time>2021-07-28T20:25:39Z</time>
      </trkpt>
      <trkpt lat="40.897616" lon="-3.949190">
        <ele>2080.061</ele>
        <time>2021-07-28T20:25:41Z</time>
      </trkpt>
      <trkpt lat="40.897603" lon="-3.949212">
        <ele>2080.027</ele>
        <time>2021-07-28T20:25:43Z</time>
      </trkpt>
      <trkpt lat="40.897578" lon="-3.949230">
        <ele>2080.008</ele>
        <time>2021-07-28T20:25:45Z</time>
      </trkpt>
      <trkpt lat="40.897565" lon="-3.949247">
        <ele>2080.034</ele>
        <time>2021-07-28T20:25:47Z</time>
      </trkpt>
      <trkpt lat="40.897549" lon="-3.949267">
        <ele>2080.026</ele>
        <time>2021-07-28T20:25:49Z</time>
      </trkpt>
      <trkpt lat="40.897530" lon="-3.949288">
        <ele>2080.033</ele>
        <time>2021-07-28T20:25:51Z</time>
      </trkpt>
      <trkpt lat="40.897510" lon="-3.949307">
        <ele>2080.070</ele>
        <time>2021-07-28T20:25:53Z</time>
      </trkpt>
      <trkpt lat="40.897494" lon="-3.949328">
        <ele>2080.021</ele>
        <time>2021-07-28T20:25:55Z</time>
      </trkpt>
      <trkpt lat="40.897482" lon="-3.949350">
        <ele>2080.071</ele>
        <time>2021-07-28T20:25:57Z</time>
      </trkpt>
      <trkpt lat="40.897456" lon="-3.949372">
        <ele>2080.114</ele>
        <time>2021-07-28T20:25:59Z</time>
      </trkpt>
      <trkpt lat="40.897430" lon="-3.949393">
        <ele>2080.215</ele>
        <time>2021-07-28T20:26:02Z</time>
      </trkpt>
      <trkpt lat="40.897414" lon="-3.949408">
        <ele>2080.332</ele>
        <time>2021-07-28T20:26:04Z</time>
      </trkpt>
      <trkpt lat="40.897398" lon="-3.949433">
        <ele>2080.492</ele>
        <time>2021-07-28T20:26:06Z</time>
      </trkpt>
      <trkpt lat="40.897386" lon="-3.949457">
        <ele>2080.511</ele>
        <time>2021-07-28T20:26:08Z</time>
      </trkpt>
      <trkpt lat="40.897363" lon="-3.949480">
        <ele>2080.608</ele>
        <time>2021-07-28T20:26:11Z</time>
      </trkpt>
      <trkpt lat="40.897347" lon="-3.949498">
        <ele>2080.780</ele>
        <time>2021-07-28T20:26:13Z</time>
      </trkpt>
      <trkpt lat="40.897331" lon="-3.949517">
        <ele>2080.942</ele>
        <time>2021-07-28T20:26:15Z</time>
      </trkpt>
      <trkpt lat="40.897318" lon="-3.949534">
        <ele>2081.089</ele>
        <time>2021-07-28T20:26:17Z</time>
      </trkpt>
      <trkpt lat="40.897312" lon="-3.949568">
        <ele>2081.156</ele>
        <time>2021-07-28T20:26:20Z</time>
      </trkpt>
      <trkpt lat="40.897290" lon="-3.949592">
        <ele>2081.387</ele>
        <time>2021-07-28T20:26:23Z</time>
      </trkpt>
      <trkpt lat="40.897270" lon="-3.949603">
        <ele>2081.497</ele>
        <time>2021-07-28T20:26:25Z</time>
      </trkpt>
      <trkpt lat="40.897251" lon="-3.949618">
        <ele>2081.590</ele>
        <time>2021-07-28T20:26:27Z</time>
      </trkpt>
      <trkpt lat="40.897229" lon="-3.949640">
        <ele>2081.771</ele>
        <time>2021-07-28T20:26:29Z</time>
      </trkpt>
      <trkpt lat="40.897210" lon="-3.949662">
        <ele>2081.972</ele>
        <time>2021-07-28T20:26:31Z</time>
      </trkpt>
      <trkpt lat="40.897197" lon="-3.949695">
        <ele>2082.213</ele>
        <time>2021-07-28T20:26:34Z</time>
      </trkpt>
      <trkpt lat="40.897187" lon="-3.949716">
        <ele>2082.414</ele>
        <time>2021-07-28T20:26:36Z</time>
      </trkpt>
      <trkpt lat="40.897168" lon="-3.949726">
        <ele>2082.608</ele>
        <time>2021-07-28T20:26:38Z</time>
      </trkpt>
      <trkpt lat="40.897155" lon="-3.949747">
        <ele>2082.814</ele>
        <time>2021-07-28T20:26:40Z</time>
      </trkpt>
      <trkpt lat="40.897139" lon="-3.949772">
        <ele>2083.186</ele>
        <time>2021-07-28T20:26:42Z</time>
      </trkpt>
      <trkpt lat="40.897130" lon="-3.949798">
        <ele>2083.463</ele>
        <time>2021-07-28T20:26:44Z</time>
      </trkpt>
      <trkpt lat="40.897110" lon="-3.949812">
        <ele>2083.730</ele>
        <time>2021-07-28T20:26:46Z</time>
      </trkpt>
      <trkpt lat="40.897094" lon="-3.949823">
        <ele>2083.991</ele>
        <time>2021-07-28T20:26:48Z</time>
      </trkpt>
      <trkpt lat="40.897072" lon="-3.949847">
        <ele>2084.361</ele>
        <time>2021-07-28T20:26:51Z</time>
      </trkpt>
      <trkpt lat="40.897056" lon="-3.949858">
        <ele>2084.664</ele>
        <time>2021-07-28T20:26:53Z</time>
      </trkpt>
      <trkpt lat="40.897034" lon="-3.949877">
        <ele>2085.025</ele>
        <time>2021-07-28T20:26:56Z</time>
      </trkpt>
      <trkpt lat="40.897021" lon="-3.949895">
        <ele>2085.229</ele>
        <time>2021-07-28T20:26:58Z</time>
      </trkpt>
      <trkpt lat="40.897008" lon="-3.949912">
        <ele>2085.500</ele>
        <time>2021-07-28T20:27:00Z</time>
      </trkpt>
      <trkpt lat="40.896992" lon="-3.949927">
        <ele>2085.820</ele>
        <time>2021-07-28T20:27:02Z</time>
      </trkpt>
      <trkpt lat="40.896970" lon="-3.949943">
        <ele>2086.208</ele>
        <time>2021-07-28T20:27:05Z</time>
      </trkpt>
      <trkpt lat="40.896954" lon="-3.949962">
        <ele>2086.669</ele>
        <time>2021-07-28T20:27:07Z</time>
      </trkpt>
      <trkpt lat="40.896938" lon="-3.949993">
        <ele>2087.041</ele>
        <time>2021-07-28T20:27:10Z</time>
      </trkpt>
      <trkpt lat="40.896918" lon="-3.950008">
        <ele>2087.348</ele>
        <time>2021-07-28T20:27:13Z</time>
      </trkpt>
      <trkpt lat="40.896899" lon="-3.950020">
        <ele>2087.635</ele>
        <time>2021-07-28T20:27:15Z</time>
      </trkpt>
      <trkpt lat="40.896880" lon="-3.950035">
        <ele>2087.966</ele>
        <time>2021-07-28T20:27:18Z</time>
      </trkpt>
      <trkpt lat="40.896861" lon="-3.950060">
        <ele>2088.396</ele>
        <time>2021-07-28T20:27:21Z</time>
      </trkpt>
      <trkpt lat="40.896848" lon="-3.950078">
        <ele>2088.649</ele>
        <time>2021-07-28T20:27:23Z</time>
      </trkpt>
      <trkpt lat="40.896832" lon="-3.950093">
        <ele>2088.970</ele>
        <time>2021-07-28T20:27:26Z</time>
      </trkpt>
      <trkpt lat="40.896816" lon="-3.950108">
        <ele>2089.219</ele>
        <time>2021-07-28T20:27:28Z</time>
      </trkpt>
      <trkpt lat="40.896800" lon="-3.950122">
        <ele>2089.409</ele>
        <time>2021-07-28T20:27:30Z</time>
      </trkpt>
      <trkpt lat="40.896778" lon="-3.950132">
        <ele>2089.719</ele>
        <time>2021-07-28T20:27:33Z</time>
      </trkpt>
      <trkpt lat="40.896758" lon="-3.950140">
        <ele>2090.008</ele>
        <time>2021-07-28T20:27:35Z</time>
      </trkpt>
      <trkpt lat="40.896736" lon="-3.950152">
        <ele>2090.338</ele>
        <time>2021-07-28T20:27:38Z</time>
      </trkpt>
      <trkpt lat="40.896720" lon="-3.950165">
        <ele>2090.680</ele>
        <time>2021-07-28T20:27:40Z</time>
      </trkpt>
      <trkpt lat="40.896698" lon="-3.950182">
        <ele>2091.097</ele>
        <time>2021-07-28T20:27:43Z</time>
      </trkpt>
      <trkpt lat="40.896678" lon="-3.950210">
        <ele>2091.444</ele>
        <time>2021-07-28T20:27:46Z</time>
      </trkpt>
      <trkpt lat="40.896662" lon="-3.950230">
        <ele>2091.735</ele>
        <time>2021-07-28T20:27:48Z</time>
      </trkpt>
      <trkpt lat="40.896640" lon="-3.950244">
        <ele>2091.915</ele>
        <time>2021-07-28T20:27:51Z</time>
      </trkpt>
      <trkpt lat="40.896621" lon="-3.950258">
        <ele>2092.278</ele>
        <time>2021-07-28T20:27:53Z</time>
      </trkpt>
      <trkpt lat="40.896602" lon="-3.950266">
        <ele>2092.429</ele>
        <time>2021-07-28T20:27:56Z</time>
      </trkpt>
      <trkpt lat="40.896589" lon="-3.950283">
        <ele>2092.647</ele>
        <time>2021-07-28T20:27:58Z</time>
      </trkpt>
      <trkpt lat="40.896570" lon="-3.950303">
        <ele>2092.829</ele>
        <time>2021-07-28T20:28:01Z</time>
      </trkpt>
      <trkpt lat="40.896550" lon="-3.950317">
        <ele>2093.021</ele>
        <time>2021-07-28T20:28:04Z</time>
      </trkpt>
      <trkpt lat="40.896531" lon="-3.950342">
        <ele>2093.308</ele>
        <time>2021-07-28T20:28:07Z</time>
      </trkpt>
      <trkpt lat="40.896512" lon="-3.950360">
        <ele>2093.671</ele>
        <time>2021-07-28T20:28:09Z</time>
      </trkpt>
      <trkpt lat="40.896496" lon="-3.950377">
        <ele>2093.843</ele>
        <time>2021-07-28T20:28:11Z</time>
      </trkpt>
      <trkpt lat="40.896480" lon="-3.950400">
        <ele>2094.130</ele>
        <time>2021-07-28T20:28:14Z</time>
      </trkpt>
      <trkpt lat="40.896464" lon="-3.950423">
        <ele>2094.457</ele>
        <time>2021-07-28T20:28:17Z</time>
      </trkpt>
      <trkpt lat="40.896451" lon="-3.950447">
        <ele>2094.698</ele>
        <time>2021-07-28T20:28:20Z</time>
      </trkpt>
      <trkpt lat="40.896435" lon="-3.950468">
        <ele>2094.968</ele>
        <time>2021-07-28T20:28:23Z</time>
      </trkpt>
      <trkpt lat="40.896416" lon="-3.950492">
        <ele>2095.331</ele>
        <time>2021-07-28T20:28:26Z</time>
      </trkpt>
      <trkpt lat="40.896400" lon="-3.950505">
        <ele>2095.542</ele>
        <time>2021-07-28T20:28:28Z</time>
      </trkpt>
      <trkpt lat="40.896384" lon="-3.950532">
        <ele>2095.997</ele>
        <time>2021-07-28T20:28:31Z</time>
      </trkpt>
      <trkpt lat="40.896365" lon="-3.950555">
        <ele>2096.423</ele>
        <time>2021-07-28T20:28:34Z</time>
      </trkpt>
      <trkpt lat="40.896342" lon="-3.950568">
        <ele>2096.925</ele>
        <time>2021-07-28T20:28:36Z</time>
      </trkpt>
      <trkpt lat="40.896323" lon="-3.950600">
        <ele>2097.308</ele>
        <time>2021-07-28T20:28:39Z</time>
      </trkpt>
      <trkpt lat="40.896304" lon="-3.950625">
        <ele>2097.746</ele>
        <time>2021-07-28T20:28:42Z</time>
      </trkpt>
      <trkpt lat="40.896282" lon="-3.950638">
        <ele>2098.178</ele>
        <time>2021-07-28T20:28:45Z</time>
      </trkpt>
      <trkpt lat="40.896266" lon="-3.950658">
        <ele>2098.465</ele>
        <time>2021-07-28T20:28:48Z</time>
      </trkpt>
      <trkpt lat="40.896259" lon="-3.950682">
        <ele>2098.652</ele>
        <time>2021-07-28T20:28:50Z</time>
      </trkpt>
      <trkpt lat="40.896253" lon="-3.950705">
        <ele>2098.793</ele>
        <time>2021-07-28T20:28:52Z</time>
      </trkpt>
      <trkpt lat="40.896246" lon="-3.950730">
        <ele>2098.953</ele>
        <time>2021-07-28T20:28:54Z</time>
      </trkpt>
      <trkpt lat="40.896253" lon="-3.950756">
        <ele>2098.816</ele>
        <time>2021-07-28T20:28:56Z</time>
      </trkpt>
      <trkpt lat="40.896253" lon="-3.950782">
        <ele>2098.927</ele>
        <time>2021-07-28T20:28:58Z</time>
      </trkpt>
      <trkpt lat="40.896243" lon="-3.950813">
        <ele>2099.177</ele>
        <time>2021-07-28T20:29:01Z</time>
      </trkpt>
      <trkpt lat="40.896237" lon="-3.950840">
        <ele>2099.261</ele>
        <time>2021-07-28T20:29:03Z</time>
      </trkpt>
      <trkpt lat="40.896227" lon="-3.950868">
        <ele>2099.327</ele>
        <time>2021-07-28T20:29:05Z</time>
      </trkpt>
      <trkpt lat="40.896224" lon="-3.950898">
        <ele>2099.408</ele>
        <time>2021-07-28T20:29:07Z</time>
      </trkpt>
      <trkpt lat="40.896218" lon="-3.950922">
        <ele>2099.544</ele>
        <time>2021-07-28T20:29:09Z</time>
      </trkpt>
      <trkpt lat="40.896211" lon="-3.950952">
        <ele>2099.636</ele>
        <time>2021-07-28T20:29:11Z</time>
      </trkpt>
      <trkpt lat="40.896198" lon="-3.950977">
        <ele>2099.783</ele>
        <time>2021-07-28T20:29:13Z</time>
      </trkpt>
      <trkpt lat="40.896186" lon="-3.951002">
        <ele>2099.920</ele>
        <time>2021-07-28T20:29:15Z</time>
      </trkpt>
      <trkpt lat="40.896176" lon="-3.951027">
        <ele>2100.111</ele>
        <time>2021-07-28T20:29:17Z</time>
      </trkpt>
      <trkpt lat="40.896166" lon="-3.951053">
        <ele>2100.241</ele>
        <time>2021-07-28T20:29:20Z</time>
      </trkpt>
      <trkpt lat="40.896157" lon="-3.951075">
        <ele>2100.364</ele>
        <time>2021-07-28T20:29:22Z</time>
      </trkpt>
      <trkpt lat="40.896144" lon="-3.951098">
        <ele>2100.535</ele>
        <time>2021-07-28T20:29:24Z</time>
      </trkpt>
      <trkpt lat="40.896134" lon="-3.951122">
        <ele>2100.752</ele>
        <time>2021-07-28T20:29:26Z</time>
      </trkpt>
      <trkpt lat="40.896122" lon="-3.951142">
        <ele>2100.853</ele>
        <time>2021-07-28T20:29:28Z</time>
      </trkpt>
      <trkpt lat="40.896115" lon="-3.951170">
        <ele>2100.908</ele>
        <time>2021-07-28T20:29:30Z</time>
      </trkpt>
      <trkpt lat="40.896102" lon="-3.951190">
        <ele>2101.208</ele>
        <time>2021-07-28T20:29:32Z</time>
      </trkpt>
      <trkpt lat="40.896093" lon="-3.951227">
        <ele>2101.362</ele>
        <time>2021-07-28T20:29:35Z</time>
      </trkpt>
      <trkpt lat="40.896080" lon="-3.951255">
        <ele>2101.634</ele>
        <time>2021-07-28T20:29:37Z</time>
      </trkpt>
      <trkpt lat="40.896064" lon="-3.951275">
        <ele>2101.821</ele>
        <time>2021-07-28T20:29:39Z</time>
      </trkpt>
      <trkpt lat="40.896048" lon="-3.951297">
        <ele>2102.168</ele>
        <time>2021-07-28T20:29:41Z</time>
      </trkpt>
      <trkpt lat="40.896042" lon="-3.951325">
        <ele>2102.259</ele>
        <time>2021-07-28T20:29:43Z</time>
      </trkpt>
      <trkpt lat="40.896035" lon="-3.951350">
        <ele>2102.469</ele>
        <time>2021-07-28T20:29:45Z</time>
      </trkpt>
      <trkpt lat="40.896016" lon="-3.951375">
        <ele>2102.742</ele>
        <time>2021-07-28T20:29:47Z</time>
      </trkpt>
      <trkpt lat="40.896000" lon="-3.951397">
        <ele>2103.063</ele>
        <time>2021-07-28T20:29:49Z</time>
      </trkpt>
      <trkpt lat="40.895984" lon="-3.951422">
        <ele>2103.226</ele>
        <time>2021-07-28T20:29:51Z</time>
      </trkpt>
      <trkpt lat="40.895974" lon="-3.951448">
        <ele>2103.447</ele>
        <time>2021-07-28T20:29:53Z</time>
      </trkpt>
      <trkpt lat="40.895958" lon="-3.951473">
        <ele>2103.611</ele>
        <time>2021-07-28T20:29:55Z</time>
      </trkpt>
      <trkpt lat="40.895939" lon="-3.951493">
        <ele>2103.908</ele>
        <time>2021-07-28T20:29:57Z</time>
      </trkpt>
      <trkpt lat="40.895926" lon="-3.951518">
        <ele>2104.069</ele>
        <time>2021-07-28T20:29:59Z</time>
      </trkpt>
      <trkpt lat="40.895885" lon="-3.951590">
        <ele>2104.581</ele>
        <time>2021-07-28T20:30:06Z</time>
      </trkpt>
      <trkpt lat="40.895869" lon="-3.951617">
        <ele>2104.678</ele>
        <time>2021-07-28T20:30:08Z</time>
      </trkpt>
      <trkpt lat="40.895850" lon="-3.951652">
        <ele>2104.875</ele>
        <time>2021-07-28T20:30:10Z</time>
      </trkpt>
      <trkpt lat="40.895840" lon="-3.951678">
        <ele>2104.956</ele>
        <time>2021-07-28T20:30:13Z</time>
      </trkpt>
      <trkpt lat="40.895824" lon="-3.951702">
        <ele>2105.036</ele>
        <time>2021-07-28T20:30:15Z</time>
      </trkpt>
      <trkpt lat="40.895808" lon="-3.951722">
        <ele>2105.269</ele>
        <time>2021-07-28T20:30:17Z</time>
      </trkpt>
      <trkpt lat="40.895786" lon="-3.951730">
        <ele>2105.660</ele>
        <time>2021-07-28T20:30:19Z</time>
      </trkpt>
      <trkpt lat="40.895776" lon="-3.951755">
        <ele>2105.633</ele>
        <time>2021-07-28T20:30:21Z</time>
      </trkpt>
      <trkpt lat="40.895763" lon="-3.951778">
        <ele>2105.823</ele>
        <time>2021-07-28T20:30:23Z</time>
      </trkpt>
      <trkpt lat="40.895750" lon="-3.951805">
        <ele>2105.915</ele>
        <time>2021-07-28T20:30:25Z</time>
      </trkpt>
      <trkpt lat="40.895738" lon="-3.951828">
        <ele>2105.908</ele>
        <time>2021-07-28T20:30:27Z</time>
      </trkpt>
      <trkpt lat="40.895722" lon="-3.951848">
        <ele>2106.190</ele>
        <time>2021-07-28T20:30:29Z</time>
      </trkpt>
      <trkpt lat="40.895702" lon="-3.951873">
        <ele>2106.392</ele>
        <time>2021-07-28T20:30:32Z</time>
      </trkpt>
      <trkpt lat="40.895686" lon="-3.951895">
        <ele>2106.479</ele>
        <time>2021-07-28T20:30:34Z</time>
      </trkpt>
      <trkpt lat="40.895667" lon="-3.951900">
        <ele>2106.716</ele>
        <time>2021-07-28T20:30:36Z</time>
      </trkpt>
      <trkpt lat="40.895648" lon="-3.951885">
        <ele>2107.027</ele>
        <time>2021-07-28T20:30:38Z</time>
      </trkpt>
      <trkpt lat="40.895629" lon="-3.951862">
        <ele>2107.527</ele>
        <time>2021-07-28T20:30:41Z</time>
      </trkpt>
      <trkpt lat="40.895610" lon="-3.951833">
        <ele>2107.920</ele>
        <time>2021-07-28T20:30:44Z</time>
      </trkpt>
      <trkpt lat="40.895600" lon="-3.951812">
        <ele>2108.281</ele>
        <time>2021-07-28T20:30:46Z</time>
      </trkpt>
      <trkpt lat="40.895590" lon="-3.951786">
        <ele>2108.635</ele>
        <time>2021-07-28T20:30:48Z</time>
      </trkpt>
      <trkpt lat="40.895603" lon="-3.951757">
        <ele>2108.686</ele>
        <time>2021-07-28T20:30:50Z</time>
      </trkpt>
      <trkpt lat="40.895616" lon="-3.951725">
        <ele>2108.514</ele>
        <time>2021-07-28T20:30:52Z</time>
      </trkpt>
      <trkpt lat="40.895610" lon="-3.951692">
        <ele>2108.908</ele>
        <time>2021-07-28T20:30:54Z</time>
      </trkpt>
      <trkpt lat="40.895616" lon="-3.951655">
        <ele>2109.080</ele>
        <time>2021-07-28T20:30:56Z</time>
      </trkpt>
      <trkpt lat="40.895619" lon="-3.951628">
        <ele>2109.042</ele>
        <time>2021-07-28T20:30:58Z</time>
      </trkpt>
      <trkpt lat="40.895610" lon="-3.951593">
        <ele>2109.369</ele>
        <time>2021-07-28T20:31:00Z</time>
      </trkpt>
      <trkpt lat="40.895603" lon="-3.951570">
        <ele>2109.516</ele>
        <time>2021-07-28T20:31:02Z</time>
      </trkpt>
      <trkpt lat="40.895584" lon="-3.951553">
        <ele>2109.937</ele>
        <time>2021-07-28T20:31:05Z</time>
      </trkpt>
      <trkpt lat="40.895568" lon="-3.951540">
        <ele>2110.267</ele>
        <time>2021-07-28T20:31:07Z</time>
      </trkpt>
      <trkpt lat="40.895549" lon="-3.951522">
        <ele>2110.610</ele>
        <time>2021-07-28T20:31:10Z</time>
      </trkpt>
      <trkpt lat="40.895536" lon="-3.951505">
        <ele>2110.861</ele>
        <time>2021-07-28T20:31:12Z</time>
      </trkpt>
      <trkpt lat="40.895523" lon="-3.951486">
        <ele>2110.965</ele>
        <time>2021-07-28T20:31:14Z</time>
      </trkpt>
      <trkpt lat="40.895510" lon="-3.951465">
        <ele>2111.168</ele>
        <time>2021-07-28T20:31:16Z</time>
      </trkpt>
      <trkpt lat="40.895491" lon="-3.951440">
        <ele>2111.314</ele>
        <time>2021-07-28T20:31:19Z</time>
      </trkpt>
      <trkpt lat="40.895478" lon="-3.951418">
        <ele>2111.508</ele>
        <time>2021-07-28T20:31:21Z</time>
      </trkpt>
      <trkpt lat="40.895459" lon="-3.951402">
        <ele>2111.783</ele>
        <time>2021-07-28T20:31:23Z</time>
      </trkpt>
      <trkpt lat="40.895443" lon="-3.951387">
        <ele>2111.875</ele>
        <time>2021-07-28T20:31:25Z</time>
      </trkpt>
      <trkpt lat="40.895421" lon="-3.951377">
        <ele>2111.992</ele>
        <time>2021-07-28T20:31:27Z</time>
      </trkpt>
      <trkpt lat="40.895402" lon="-3.951368">
        <ele>2112.069</ele>
        <time>2021-07-28T20:31:29Z</time>
      </trkpt>
      <trkpt lat="40.895379" lon="-3.951357">
        <ele>2112.170</ele>
        <time>2021-07-28T20:31:31Z</time>
      </trkpt>
      <trkpt lat="40.895357" lon="-3.951353">
        <ele>2112.210</ele>
        <time>2021-07-28T20:31:33Z</time>
      </trkpt>
      <trkpt lat="40.895338" lon="-3.951350">
        <ele>2112.323</ele>
        <time>2021-07-28T20:31:37Z</time>
      </trkpt>
      <trkpt lat="40.895312" lon="-3.951337">
        <ele>2112.474</ele>
        <time>2021-07-28T20:31:42Z</time>
      </trkpt>
      <trkpt lat="40.895286" lon="-3.951325">
        <ele>2112.548</ele>
        <time>2021-07-28T20:31:44Z</time>
      </trkpt>
      <trkpt lat="40.895267" lon="-3.951310">
        <ele>2112.561</ele>
        <time>2021-07-28T20:31:46Z</time>
      </trkpt>
      <trkpt lat="40.895248" lon="-3.951297">
        <ele>2112.617</ele>
        <time>2021-07-28T20:31:48Z</time>
      </trkpt>
      <trkpt lat="40.895226" lon="-3.951284">
        <ele>2112.708</ele>
        <time>2021-07-28T20:31:51Z</time>
      </trkpt>
      <trkpt lat="40.895203" lon="-3.951260">
        <ele>2112.891</ele>
        <time>2021-07-28T20:31:53Z</time>
      </trkpt>
      <trkpt lat="40.895184" lon="-3.951248">
        <ele>2112.813</ele>
        <time>2021-07-28T20:31:55Z</time>
      </trkpt>
      <trkpt lat="40.895165" lon="-3.951242">
        <ele>2112.960</ele>
        <time>2021-07-28T20:31:57Z</time>
      </trkpt>
      <trkpt lat="40.895142" lon="-3.951220">
        <ele>2113.067</ele>
        <time>2021-07-28T20:31:59Z</time>
      </trkpt>
      <trkpt lat="40.895130" lon="-3.951197">
        <ele>2112.828</ele>
        <time>2021-07-28T20:32:01Z</time>
      </trkpt>
      <trkpt lat="40.895107" lon="-3.951165">
        <ele>2112.728</ele>
        <time>2021-07-28T20:32:03Z</time>
      </trkpt>
      <trkpt lat="40.895088" lon="-3.951135">
        <ele>2112.671</ele>
        <time>2021-07-28T20:32:05Z</time>
      </trkpt>
      <trkpt lat="40.895075" lon="-3.951110">
        <ele>2112.442</ele>
        <time>2021-07-28T20:32:07Z</time>
      </trkpt>
      <trkpt lat="40.895066" lon="-3.951084">
        <ele>2112.268</ele>
        <time>2021-07-28T20:32:09Z</time>
      </trkpt>
      <trkpt lat="40.895062" lon="-3.951052">
        <ele>2111.942</ele>
        <time>2021-07-28T20:32:11Z</time>
      </trkpt>
      <trkpt lat="40.895050" lon="-3.951027">
        <ele>2111.726</ele>
        <time>2021-07-28T20:32:13Z</time>
      </trkpt>
      <trkpt lat="40.895034" lon="-3.950997">
        <ele>2111.508</ele>
        <time>2021-07-28T20:32:16Z</time>
      </trkpt>
      <trkpt lat="40.895014" lon="-3.950960">
        <ele>2111.353</ele>
        <time>2021-07-28T20:32:18Z</time>
      </trkpt>
      <trkpt lat="40.894995" lon="-3.950942">
        <ele>2111.285</ele>
        <time>2021-07-28T20:32:20Z</time>
      </trkpt>
      <trkpt lat="40.894966" lon="-3.950924">
        <ele>2111.122</ele>
        <time>2021-07-28T20:32:23Z</time>
      </trkpt>
      <trkpt lat="40.894944" lon="-3.950918">
        <ele>2111.269</ele>
        <time>2021-07-28T20:32:25Z</time>
      </trkpt>
      <trkpt lat="40.894925" lon="-3.950928">
        <ele>2111.480</ele>
        <time>2021-07-28T20:32:30Z</time>
      </trkpt>
      <trkpt lat="40.894906" lon="-3.950934">
        <ele>2111.580</ele>
        <time>2021-07-28T20:32:33Z</time>
      </trkpt>
      <trkpt lat="40.894883" lon="-3.950944">
        <ele>2111.893</ele>
        <time>2021-07-28T20:32:36Z</time>
      </trkpt>
      <trkpt lat="40.894864" lon="-3.950956">
        <ele>2112.014</ele>
        <time>2021-07-28T20:32:38Z</time>
      </trkpt>
      <trkpt lat="40.894835" lon="-3.950968">
        <ele>2112.389</ele>
        <time>2021-07-28T20:32:41Z</time>
      </trkpt>
      <trkpt lat="40.894806" lon="-3.950973">
        <ele>2112.606</ele>
        <time>2021-07-28T20:32:44Z</time>
      </trkpt>
      <trkpt lat="40.894787" lon="-3.950972">
        <ele>2112.626</ele>
        <time>2021-07-28T20:32:46Z</time>
      </trkpt>
      <trkpt lat="40.894768" lon="-3.950977">
        <ele>2112.808</ele>
        <time>2021-07-28T20:32:48Z</time>
      </trkpt>
      <trkpt lat="40.894746" lon="-3.950980">
        <ele>2113.015</ele>
        <time>2021-07-28T20:32:50Z</time>
      </trkpt>
      <trkpt lat="40.894723" lon="-3.950977">
        <ele>2113.157</ele>
        <time>2021-07-28T20:32:52Z</time>
      </trkpt>
      <trkpt lat="40.894694" lon="-3.950982">
        <ele>2113.484</ele>
        <time>2021-07-28T20:32:55Z</time>
      </trkpt>
      <trkpt lat="40.894669" lon="-3.950988">
        <ele>2113.751</ele>
        <time>2021-07-28T20:32:58Z</time>
      </trkpt>
      <trkpt lat="40.894646" lon="-3.950988">
        <ele>2113.972</ele>
        <time>2021-07-28T20:33:00Z</time>
      </trkpt>
      <trkpt lat="40.894627" lon="-3.950995">
        <ele>2114.292</ele>
        <time>2021-07-28T20:33:02Z</time>
      </trkpt>
      <trkpt lat="40.894605" lon="-3.950995">
        <ele>2114.455</ele>
        <time>2021-07-28T20:33:04Z</time>
      </trkpt>
      <trkpt lat="40.894586" lon="-3.950995">
        <ele>2114.676</ele>
        <time>2021-07-28T20:33:06Z</time>
      </trkpt>
      <trkpt lat="40.894557" lon="-3.950998">
        <ele>2114.946</ele>
        <time>2021-07-28T20:33:08Z</time>
      </trkpt>
      <trkpt lat="40.894534" lon="-3.950997">
        <ele>2115.188</ele>
        <time>2021-07-28T20:33:10Z</time>
      </trkpt>
      <trkpt lat="40.894509" lon="-3.950983">
        <ele>2115.116</ele>
        <time>2021-07-28T20:33:13Z</time>
      </trkpt>
      <trkpt lat="40.894493" lon="-3.950972">
        <ele>2115.108</ele>
        <time>2021-07-28T20:33:14Z</time>
      </trkpt>
      <trkpt lat="40.894464" lon="-3.950962">
        <ele>2115.111</ele>
        <time>2021-07-28T20:33:16Z</time>
      </trkpt>
      <trkpt lat="40.894438" lon="-3.950958">
        <ele>2115.383</ele>
        <time>2021-07-28T20:33:18Z</time>
      </trkpt>
      <trkpt lat="40.894416" lon="-3.950952">
        <ele>2115.460</ele>
        <time>2021-07-28T20:33:20Z</time>
      </trkpt>
      <trkpt lat="40.894387" lon="-3.950942">
        <ele>2115.677</ele>
        <time>2021-07-28T20:33:22Z</time>
      </trkpt>
      <trkpt lat="40.894365" lon="-3.950935">
        <ele>2115.788</ele>
        <time>2021-07-28T20:33:24Z</time>
      </trkpt>
      <trkpt lat="40.894355" lon="-3.950934">
        <ele>2115.848</ele>
        <time>2021-07-28T20:33:25Z</time>
      </trkpt>
      <trkpt lat="40.894285" lon="-3.950924">
        <ele>2116.471</ele>
        <time>2021-07-28T20:33:31Z</time>
      </trkpt>
      <trkpt lat="40.894259" lon="-3.950934">
        <ele>2116.832</ele>
        <time>2021-07-28T20:33:34Z</time>
      </trkpt>
      <trkpt lat="40.894240" lon="-3.950927">
        <ele>2116.955</ele>
        <time>2021-07-28T20:33:36Z</time>
      </trkpt>
      <trkpt lat="40.894218" lon="-3.950922">
        <ele>2117.007</ele>
        <time>2021-07-28T20:33:38Z</time>
      </trkpt>
      <trkpt lat="40.894192" lon="-3.950908">
        <ele>2117.117</ele>
        <time>2021-07-28T20:33:40Z</time>
      </trkpt>
      <trkpt lat="40.894173" lon="-3.950890">
        <ele>2117.008</ele>
        <time>2021-07-28T20:33:42Z</time>
      </trkpt>
      <trkpt lat="40.894147" lon="-3.950870">
        <ele>2116.812</ele>
        <time>2021-07-28T20:33:44Z</time>
      </trkpt>
      <trkpt lat="40.894118" lon="-3.950855">
        <ele>2116.754</ele>
        <time>2021-07-28T20:33:46Z</time>
      </trkpt>
      <trkpt lat="40.894093" lon="-3.950843">
        <ele>2116.751</ele>
        <time>2021-07-28T20:33:48Z</time>
      </trkpt>
      <trkpt lat="40.894061" lon="-3.950840">
        <ele>2116.988</ele>
        <time>2021-07-28T20:33:50Z</time>
      </trkpt>
      <trkpt lat="40.894035" lon="-3.950848">
        <ele>2117.249</ele>
        <time>2021-07-28T20:33:53Z</time>
      </trkpt>
      <trkpt lat="40.894006" lon="-3.950838">
        <ele>2117.249</ele>
        <time>2021-07-28T20:33:55Z</time>
      </trkpt>
      <trkpt lat="40.893987" lon="-3.950828">
        <ele>2117.292</ele>
        <time>2021-07-28T20:33:57Z</time>
      </trkpt>
      <trkpt lat="40.893971" lon="-3.950812">
        <ele>2116.913</ele>
        <time>2021-07-28T20:33:59Z</time>
      </trkpt>
      <trkpt lat="40.893952" lon="-3.950792">
        <ele>2116.737</ele>
        <time>2021-07-28T20:34:01Z</time>
      </trkpt>
      <trkpt lat="40.893936" lon="-3.950775">
        <ele>2116.449</ele>
        <time>2021-07-28T20:34:03Z</time>
      </trkpt>
      <trkpt lat="40.893917" lon="-3.950753">
        <ele>2116.113</ele>
        <time>2021-07-28T20:34:05Z</time>
      </trkpt>
      <trkpt lat="40.893894" lon="-3.950730">
        <ele>2115.708</ele>
        <time>2021-07-28T20:34:07Z</time>
      </trkpt>
      <trkpt lat="40.893875" lon="-3.950712">
        <ele>2115.420</ele>
        <time>2021-07-28T20:34:09Z</time>
      </trkpt>
      <trkpt lat="40.893859" lon="-3.950690">
        <ele>2114.952</ele>
        <time>2021-07-28T20:34:11Z</time>
      </trkpt>
      <trkpt lat="40.893840" lon="-3.950667">
        <ele>2114.379</ele>
        <time>2021-07-28T20:34:13Z</time>
      </trkpt>
      <trkpt lat="40.893824" lon="-3.950645">
        <ele>2113.926</ele>
        <time>2021-07-28T20:34:15Z</time>
      </trkpt>
      <trkpt lat="40.893811" lon="-3.950615">
        <ele>2113.227</ele>
        <time>2021-07-28T20:34:18Z</time>
      </trkpt>
      <trkpt lat="40.893811" lon="-3.950587">
        <ele>2112.657</ele>
        <time>2021-07-28T20:34:26Z</time>
      </trkpt>
      <trkpt lat="40.893808" lon="-3.950554">
        <ele>2112.070</ele>
        <time>2021-07-28T20:34:29Z</time>
      </trkpt>
      <trkpt lat="40.893798" lon="-3.950525">
        <ele>2111.221</ele>
        <time>2021-07-28T20:34:32Z</time>
      </trkpt>
      <trkpt lat="40.893782" lon="-3.950507">
        <ele>2110.857</ele>
        <time>2021-07-28T20:34:34Z</time>
      </trkpt>
      <trkpt lat="40.893770" lon="-3.950490">
        <ele>2110.300</ele>
        <time>2021-07-28T20:34:37Z</time>
      </trkpt>
      <trkpt lat="40.893754" lon="-3.950473">
        <ele>2109.920</ele>
        <time>2021-07-28T20:34:39Z</time>
      </trkpt>
      <trkpt lat="40.893757" lon="-3.950445">
        <ele>2109.208</ele>
        <time>2021-07-28T20:34:50Z</time>
      </trkpt>
      <trkpt lat="40.893741" lon="-3.950418">
        <ele>2108.552</ele>
        <time>2021-07-28T20:34:57Z</time>
      </trkpt>
      <trkpt lat="40.893722" lon="-3.950398">
        <ele>2108.014</ele>
        <time>2021-07-28T20:35:00Z</time>
      </trkpt>
      <trkpt lat="40.893709" lon="-3.950365">
        <ele>2107.251</ele>
        <time>2021-07-28T20:35:20Z</time>
      </trkpt>
      <trkpt lat="40.893693" lon="-3.950342">
        <ele>2106.668</ele>
        <time>2021-07-28T20:35:22Z</time>
      </trkpt>
      <trkpt lat="40.893677" lon="-3.950315">
        <ele>2105.959</ele>
        <time>2021-07-28T20:35:24Z</time>
      </trkpt>
      <trkpt lat="40.893661" lon="-3.950295">
        <ele>2105.419</ele>
        <time>2021-07-28T20:35:25Z</time>
      </trkpt>
      <trkpt lat="40.893645" lon="-3.950272">
        <ele>2104.862</ele>
        <time>2021-07-28T20:35:26Z</time>
      </trkpt>
      <trkpt lat="40.893622" lon="-3.950242">
        <ele>2104.063</ele>
        <time>2021-07-28T20:35:28Z</time>
      </trkpt>
      <trkpt lat="40.893603" lon="-3.950225">
        <ele>2103.437</ele>
        <time>2021-07-28T20:35:30Z</time>
      </trkpt>
      <trkpt lat="40.893584" lon="-3.950200">
        <ele>2102.649</ele>
        <time>2021-07-28T20:35:33Z</time>
      </trkpt>
      <trkpt lat="40.893571" lon="-3.950177">
        <ele>2101.913</ele>
        <time>2021-07-28T20:35:35Z</time>
      </trkpt>
      <trkpt lat="40.893552" lon="-3.950158">
        <ele>2101.208</ele>
        <time>2021-07-28T20:35:37Z</time>
      </trkpt>
      <trkpt lat="40.893526" lon="-3.950140">
        <ele>2100.690</ele>
        <time>2021-07-28T20:35:40Z</time>
      </trkpt>
      <trkpt lat="40.893510" lon="-3.950117">
        <ele>2099.922</ele>
        <time>2021-07-28T20:35:42Z</time>
      </trkpt>
      <trkpt lat="40.893491" lon="-3.950098">
        <ele>2099.269</ele>
        <time>2021-07-28T20:35:44Z</time>
      </trkpt>
      <trkpt lat="40.893475" lon="-3.950080">
        <ele>2098.736</ele>
        <time>2021-07-28T20:35:46Z</time>
      </trkpt>
      <trkpt lat="40.893459" lon="-3.950066">
        <ele>2098.247</ele>
        <time>2021-07-28T20:35:48Z</time>
      </trkpt>
      <trkpt lat="40.893443" lon="-3.950050">
        <ele>2097.797</ele>
        <time>2021-07-28T20:35:50Z</time>
      </trkpt>
      <trkpt lat="40.893430" lon="-3.950033">
        <ele>2097.270</ele>
        <time>2021-07-28T20:35:52Z</time>
      </trkpt>
      <trkpt lat="40.893414" lon="-3.950017">
        <ele>2096.771</ele>
        <time>2021-07-28T20:35:54Z</time>
      </trkpt>
      <trkpt lat="40.893398" lon="-3.950000">
        <ele>2096.235</ele>
        <time>2021-07-28T20:35:56Z</time>
      </trkpt>
      <trkpt lat="40.893382" lon="-3.949987">
        <ele>2095.886</ele>
        <time>2021-07-28T20:35:58Z</time>
      </trkpt>
      <trkpt lat="40.893366" lon="-3.949972">
        <ele>2095.314</ele>
        <time>2021-07-28T20:36:00Z</time>
      </trkpt>
      <trkpt lat="40.893347" lon="-3.949962">
        <ele>2095.008</ele>
        <time>2021-07-28T20:36:02Z</time>
      </trkpt>
      <trkpt lat="40.893331" lon="-3.949948">
        <ele>2094.580</ele>
        <time>2021-07-28T20:36:04Z</time>
      </trkpt>
      <trkpt lat="40.893315" lon="-3.949933">
        <ele>2094.022</ele>
        <time>2021-07-28T20:36:08Z</time>
      </trkpt>
      <trkpt lat="40.893293" lon="-3.949923">
        <ele>2093.749</ele>
        <time>2021-07-28T20:36:11Z</time>
      </trkpt>
      <trkpt lat="40.893267" lon="-3.949915">
        <ele>2093.476</ele>
        <time>2021-07-28T20:36:14Z</time>
      </trkpt>
      <trkpt lat="40.893248" lon="-3.949906">
        <ele>2093.127</ele>
        <time>2021-07-28T20:36:18Z</time>
      </trkpt>
      <trkpt lat="40.893222" lon="-3.949895">
        <ele>2092.737</ele>
        <time>2021-07-28T20:36:21Z</time>
      </trkpt>
      <trkpt lat="40.893194" lon="-3.949885">
        <ele>2092.430</ele>
        <time>2021-07-28T20:36:23Z</time>
      </trkpt>
      <trkpt lat="40.893162" lon="-3.949877">
        <ele>2092.141</ele>
        <time>2021-07-28T20:36:25Z</time>
      </trkpt>
      <trkpt lat="40.893136" lon="-3.949870">
        <ele>2091.983</ele>
        <time>2021-07-28T20:36:27Z</time>
      </trkpt>
      <trkpt lat="40.893117" lon="-3.949874">
        <ele>2091.925</ele>
        <time>2021-07-28T20:36:29Z</time>
      </trkpt>
      <trkpt lat="40.893088" lon="-3.949874">
        <ele>2091.917</ele>
        <time>2021-07-28T20:36:31Z</time>
      </trkpt>
      <trkpt lat="40.893062" lon="-3.949872">
        <ele>2091.808</ele>
        <time>2021-07-28T20:36:33Z</time>
      </trkpt>
      <trkpt lat="40.893037" lon="-3.949867">
        <ele>2091.685</ele>
        <time>2021-07-28T20:36:35Z</time>
      </trkpt>
      <trkpt lat="40.893018" lon="-3.949865">
        <ele>2091.577</ele>
        <time>2021-07-28T20:36:37Z</time>
      </trkpt>
      <trkpt lat="40.892995" lon="-3.949864">
        <ele>2091.594</ele>
        <time>2021-07-28T20:36:39Z</time>
      </trkpt>
      <trkpt lat="40.892976" lon="-3.949865">
        <ele>2091.521</ele>
        <time>2021-07-28T20:36:41Z</time>
      </trkpt>
      <trkpt lat="40.892947" lon="-3.949868">
        <ele>2091.562</ele>
        <time>2021-07-28T20:36:43Z</time>
      </trkpt>
      <trkpt lat="40.892928" lon="-3.949875">
        <ele>2091.642</ele>
        <time>2021-07-28T20:36:45Z</time>
      </trkpt>
      <trkpt lat="40.892909" lon="-3.949898">
        <ele>2092.145</ele>
        <time>2021-07-28T20:36:47Z</time>
      </trkpt>
      <trkpt lat="40.892896" lon="-3.949923">
        <ele>2092.616</ele>
        <time>2021-07-28T20:36:49Z</time>
      </trkpt>
      <trkpt lat="40.892883" lon="-3.949947">
        <ele>2093.215</ele>
        <time>2021-07-28T20:36:51Z</time>
      </trkpt>
      <trkpt lat="40.892864" lon="-3.949967">
        <ele>2093.665</ele>
        <time>2021-07-28T20:36:53Z</time>
      </trkpt>
      <trkpt lat="40.892845" lon="-3.949988">
        <ele>2094.011</ele>
        <time>2021-07-28T20:36:56Z</time>
      </trkpt>
      <trkpt lat="40.892829" lon="-3.950002">
        <ele>2094.208</ele>
        <time>2021-07-28T20:36:58Z</time>
      </trkpt>
      <trkpt lat="40.892806" lon="-3.950020">
        <ele>2094.548</ele>
        <time>2021-07-28T20:37:01Z</time>
      </trkpt>
      <trkpt lat="40.892790" lon="-3.950042">
        <ele>2094.830</ele>
        <time>2021-07-28T20:37:04Z</time>
      </trkpt>
      <trkpt lat="40.892758" lon="-3.950078">
        <ele>2095.267</ele>
        <time>2021-07-28T20:37:09Z</time>
      </trkpt>
      <trkpt lat="40.892739" lon="-3.950095">
        <ele>2095.494</ele>
        <time>2021-07-28T20:37:11Z</time>
      </trkpt>
      <trkpt lat="40.892723" lon="-3.950110">
        <ele>2095.585</ele>
        <time>2021-07-28T20:37:14Z</time>
      </trkpt>
      <trkpt lat="40.892707" lon="-3.950123">
        <ele>2095.625</ele>
        <time>2021-07-28T20:37:16Z</time>
      </trkpt>
      <trkpt lat="40.892691" lon="-3.950135">
        <ele>2095.748</ele>
        <time>2021-07-28T20:37:18Z</time>
      </trkpt>
      <trkpt lat="40.892669" lon="-3.950160">
        <ele>2095.979</ele>
        <time>2021-07-28T20:37:21Z</time>
      </trkpt>
      <trkpt lat="40.892656" lon="-3.950190">
        <ele>2096.236</ele>
        <time>2021-07-28T20:37:24Z</time>
      </trkpt>
      <trkpt lat="40.892640" lon="-3.950217">
        <ele>2096.517</ele>
        <time>2021-07-28T20:37:26Z</time>
      </trkpt>
      <trkpt lat="40.892627" lon="-3.950247">
        <ele>2096.918</ele>
        <time>2021-07-28T20:37:29Z</time>
      </trkpt>
      <trkpt lat="40.892611" lon="-3.950268">
        <ele>2097.008</ele>
        <time>2021-07-28T20:37:31Z</time>
      </trkpt>
      <trkpt lat="40.892592" lon="-3.950298">
        <ele>2097.360</ele>
        <time>2021-07-28T20:37:34Z</time>
      </trkpt>
      <trkpt lat="40.892582" lon="-3.950327">
        <ele>2097.662</ele>
        <time>2021-07-28T20:37:36Z</time>
      </trkpt>
      <trkpt lat="40.892573" lon="-3.950350">
        <ele>2097.849</ele>
        <time>2021-07-28T20:37:38Z</time>
      </trkpt>
      <trkpt lat="40.892560" lon="-3.950375">
        <ele>2098.086</ele>
        <time>2021-07-28T20:37:40Z</time>
      </trkpt>
      <trkpt lat="40.892544" lon="-3.950393">
        <ele>2098.187</ele>
        <time>2021-07-28T20:37:42Z</time>
      </trkpt>
      <trkpt lat="40.892528" lon="-3.950413">
        <ele>2098.247</ele>
        <time>2021-07-28T20:37:44Z</time>
      </trkpt>
      <trkpt lat="40.892509" lon="-3.950445">
        <ele>2098.570</ele>
        <time>2021-07-28T20:37:47Z</time>
      </trkpt>
      <trkpt lat="40.892490" lon="-3.950473">
        <ele>2098.621</ele>
        <time>2021-07-28T20:37:50Z</time>
      </trkpt>
      <trkpt lat="40.892480" lon="-3.950502">
        <ele>2098.858</ele>
        <time>2021-07-28T20:37:56Z</time>
      </trkpt>
      <trkpt lat="40.892464" lon="-3.950520">
        <ele>2098.752</ele>
        <time>2021-07-28T20:37:58Z</time>
      </trkpt>
      <trkpt lat="40.892448" lon="-3.950533">
        <ele>2098.617</ele>
        <time>2021-07-28T20:38:00Z</time>
      </trkpt>
      <trkpt lat="40.892429" lon="-3.950548">
        <ele>2098.408</ele>
        <time>2021-07-28T20:38:02Z</time>
      </trkpt>
      <trkpt lat="40.892413" lon="-3.950562">
        <ele>2098.252</ele>
        <time>2021-07-28T20:38:05Z</time>
      </trkpt>
      <trkpt lat="40.892400" lon="-3.950544">
        <ele>2097.724</ele>
        <time>2021-07-28T20:38:15Z</time>
      </trkpt>
      <trkpt lat="40.892374" lon="-3.950540">
        <ele>2097.131</ele>
        <time>2021-07-28T20:38:18Z</time>
      </trkpt>
      <trkpt lat="40.892346" lon="-3.950542">
        <ele>2096.578</ele>
        <time>2021-07-28T20:38:21Z</time>
      </trkpt>
      <trkpt lat="40.892326" lon="-3.950533">
        <ele>2096.039</ele>
        <time>2021-07-28T20:38:23Z</time>
      </trkpt>
      <trkpt lat="40.892307" lon="-3.950527">
        <ele>2095.699</ele>
        <time>2021-07-28T20:38:25Z</time>
      </trkpt>
      <trkpt lat="40.892285" lon="-3.950530">
        <ele>2095.182</ele>
        <time>2021-07-28T20:38:28Z</time>
      </trkpt>
      <trkpt lat="40.892262" lon="-3.950525">
        <ele>2094.683</ele>
        <time>2021-07-28T20:38:31Z</time>
      </trkpt>
      <trkpt lat="40.892246" lon="-3.950512">
        <ele>2094.252</ele>
        <time>2021-07-28T20:38:33Z</time>
      </trkpt>
      <trkpt lat="40.892227" lon="-3.950502">
        <ele>2093.753</ele>
        <time>2021-07-28T20:38:35Z</time>
      </trkpt>
      <trkpt lat="40.892208" lon="-3.950500">
        <ele>2093.308</ele>
        <time>2021-07-28T20:38:38Z</time>
      </trkpt>
      <trkpt lat="40.892189" lon="-3.950492">
        <ele>2092.908</ele>
        <time>2021-07-28T20:38:40Z</time>
      </trkpt>
      <trkpt lat="40.892173" lon="-3.950473">
        <ele>2092.592</ele>
        <time>2021-07-28T20:38:42Z</time>
      </trkpt>
      <trkpt lat="40.892147" lon="-3.950455">
        <ele>2091.834</ele>
        <time>2021-07-28T20:38:45Z</time>
      </trkpt>
      <trkpt lat="40.892128" lon="-3.950447">
        <ele>2091.421</ele>
        <time>2021-07-28T20:38:47Z</time>
      </trkpt>
      <trkpt lat="40.892109" lon="-3.950438">
        <ele>2090.938</ele>
        <time>2021-07-28T20:38:50Z</time>
      </trkpt>
      <trkpt lat="40.892093" lon="-3.950425">
        <ele>2090.589</ele>
        <time>2021-07-28T20:38:57Z</time>
      </trkpt>
      <trkpt lat="40.892070" lon="-3.950406">
        <ele>2089.999</ele>
        <time>2021-07-28T20:39:00Z</time>
      </trkpt>
      <trkpt lat="40.892051" lon="-3.950385">
        <ele>2089.342</ele>
        <time>2021-07-28T20:39:02Z</time>
      </trkpt>
      <trkpt lat="40.892035" lon="-3.950363">
        <ele>2088.863</ele>
        <time>2021-07-28T20:39:04Z</time>
      </trkpt>
      <trkpt lat="40.892013" lon="-3.950338">
        <ele>2088.175</ele>
        <time>2021-07-28T20:39:07Z</time>
      </trkpt>
      <trkpt lat="40.891997" lon="-3.950320">
        <ele>2087.628</ele>
        <time>2021-07-28T20:39:10Z</time>
      </trkpt>
      <trkpt lat="40.891981" lon="-3.950303">
        <ele>2087.120</ele>
        <time>2021-07-28T20:39:12Z</time>
      </trkpt>
      <trkpt lat="40.891965" lon="-3.950280">
        <ele>2086.508</ele>
        <time>2021-07-28T20:39:15Z</time>
      </trkpt>
      <trkpt lat="40.891952" lon="-3.950260">
        <ele>2085.974</ele>
        <time>2021-07-28T20:39:17Z</time>
      </trkpt>
      <trkpt lat="40.891933" lon="-3.950238">
        <ele>2085.216</ele>
        <time>2021-07-28T20:39:20Z</time>
      </trkpt>
      <trkpt lat="40.891917" lon="-3.950218">
        <ele>2084.643</ele>
        <time>2021-07-28T20:39:22Z</time>
      </trkpt>
      <trkpt lat="40.891898" lon="-3.950202">
        <ele>2084.050</ele>
        <time>2021-07-28T20:39:24Z</time>
      </trkpt>
      <trkpt lat="40.891875" lon="-3.950185">
        <ele>2083.351</ele>
        <time>2021-07-28T20:39:27Z</time>
      </trkpt>
      <trkpt lat="40.891856" lon="-3.950167">
        <ele>2082.741</ele>
        <time>2021-07-28T20:39:29Z</time>
      </trkpt>
      <trkpt lat="40.891837" lon="-3.950152">
        <ele>2082.294</ele>
        <time>2021-07-28T20:39:31Z</time>
      </trkpt>
      <trkpt lat="40.891818" lon="-3.950135">
        <ele>2081.755</ele>
        <time>2021-07-28T20:39:33Z</time>
      </trkpt>
      <trkpt lat="40.891795" lon="-3.950113">
        <ele>2081.078</ele>
        <time>2021-07-28T20:39:36Z</time>
      </trkpt>
      <trkpt lat="40.891782" lon="-3.950095">
        <ele>2080.633</ele>
        <time>2021-07-28T20:39:39Z</time>
      </trkpt>
      <trkpt lat="40.891763" lon="-3.950072">
        <ele>2080.126</ele>
        <time>2021-07-28T20:39:42Z</time>
      </trkpt>
      <trkpt lat="40.891747" lon="-3.950052">
        <ele>2079.608</ele>
        <time>2021-07-28T20:39:44Z</time>
      </trkpt>
      <trkpt lat="40.891734" lon="-3.950025">
        <ele>2079.284</ele>
        <time>2021-07-28T20:39:46Z</time>
      </trkpt>
      <trkpt lat="40.891718" lon="-3.950002">
        <ele>2078.856</ele>
        <time>2021-07-28T20:39:48Z</time>
      </trkpt>
      <trkpt lat="40.891699" lon="-3.949982">
        <ele>2078.263</ele>
        <time>2021-07-28T20:39:50Z</time>
      </trkpt>
      <trkpt lat="40.891690" lon="-3.949958">
        <ele>2077.770</ele>
        <time>2021-07-28T20:39:52Z</time>
      </trkpt>
      <trkpt lat="40.891677" lon="-3.949930">
        <ele>2077.151</ele>
        <time>2021-07-28T20:39:54Z</time>
      </trkpt>
      <trkpt lat="40.891670" lon="-3.949905">
        <ele>2076.721</ele>
        <time>2021-07-28T20:39:56Z</time>
      </trkpt>
      <trkpt lat="40.891651" lon="-3.949882">
        <ele>2076.164</ele>
        <time>2021-07-28T20:39:58Z</time>
      </trkpt>
      <trkpt lat="40.891638" lon="-3.949858">
        <ele>2075.555</ele>
        <time>2021-07-28T20:40:00Z</time>
      </trkpt>
      <trkpt lat="40.891635" lon="-3.949822">
        <ele>2075.067</ele>
        <time>2021-07-28T20:40:02Z</time>
      </trkpt>
      <trkpt lat="40.891629" lon="-3.949795">
        <ele>2074.681</ele>
        <time>2021-07-28T20:40:04Z</time>
      </trkpt>
      <trkpt lat="40.891619" lon="-3.949768">
        <ele>2074.119</ele>
        <time>2021-07-28T20:40:06Z</time>
      </trkpt>
      <trkpt lat="40.891606" lon="-3.949742">
        <ele>2073.608</ele>
        <time>2021-07-28T20:40:09Z</time>
      </trkpt>
      <trkpt lat="40.891590" lon="-3.949716">
        <ele>2073.173</ele>
        <time>2021-07-28T20:40:11Z</time>
      </trkpt>
      <trkpt lat="40.891578" lon="-3.949688">
        <ele>2072.715</ele>
        <time>2021-07-28T20:40:13Z</time>
      </trkpt>
      <trkpt lat="40.891568" lon="-3.949667">
        <ele>2072.392</ele>
        <time>2021-07-28T20:40:15Z</time>
      </trkpt>
      <trkpt lat="40.891552" lon="-3.949645">
        <ele>2071.989</ele>
        <time>2021-07-28T20:40:17Z</time>
      </trkpt>
      <trkpt lat="40.891539" lon="-3.949622">
        <ele>2071.530</ele>
        <time>2021-07-28T20:40:19Z</time>
      </trkpt>
      <trkpt lat="40.891514" lon="-3.949602">
        <ele>2071.140</ele>
        <time>2021-07-28T20:40:22Z</time>
      </trkpt>
      <trkpt lat="40.891494" lon="-3.949593">
        <ele>2070.713</ele>
        <time>2021-07-28T20:40:24Z</time>
      </trkpt>
      <trkpt lat="40.891472" lon="-3.949587">
        <ele>2070.484</ele>
        <time>2021-07-28T20:40:26Z</time>
      </trkpt>
      <trkpt lat="40.891446" lon="-3.949585">
        <ele>2070.149</ele>
        <time>2021-07-28T20:40:28Z</time>
      </trkpt>
      <trkpt lat="40.891418" lon="-3.949588">
        <ele>2069.902</ele>
        <time>2021-07-28T20:40:30Z</time>
      </trkpt>
      <trkpt lat="40.891392" lon="-3.949600">
        <ele>2069.722</ele>
        <time>2021-07-28T20:40:32Z</time>
      </trkpt>
      <trkpt lat="40.891370" lon="-3.949617">
        <ele>2069.508</ele>
        <time>2021-07-28T20:40:34Z</time>
      </trkpt>
      <trkpt lat="40.891350" lon="-3.949642">
        <ele>2069.471</ele>
        <time>2021-07-28T20:40:36Z</time>
      </trkpt>
      <trkpt lat="40.891331" lon="-3.949655">
        <ele>2069.263</ele>
        <time>2021-07-28T20:40:38Z</time>
      </trkpt>
      <trkpt lat="40.891312" lon="-3.949667">
        <ele>2069.020</ele>
        <time>2021-07-28T20:40:40Z</time>
      </trkpt>
      <trkpt lat="40.891286" lon="-3.949680">
        <ele>2068.767</ele>
        <time>2021-07-28T20:40:42Z</time>
      </trkpt>
      <trkpt lat="40.891267" lon="-3.949686">
        <ele>2068.478</ele>
        <time>2021-07-28T20:40:44Z</time>
      </trkpt>
      <trkpt lat="40.891242" lon="-3.949686">
        <ele>2068.058</ele>
        <time>2021-07-28T20:40:46Z</time>
      </trkpt>
      <trkpt lat="40.891216" lon="-3.949685">
        <ele>2067.561</ele>
        <time>2021-07-28T20:40:48Z</time>
      </trkpt>
      <trkpt lat="40.891194" lon="-3.949692">
        <ele>2067.262</ele>
        <time>2021-07-28T20:40:50Z</time>
      </trkpt>
      <trkpt lat="40.891168" lon="-3.949693">
        <ele>2066.782</ele>
        <time>2021-07-28T20:40:53Z</time>
      </trkpt>
      <trkpt lat="40.891142" lon="-3.949700">
        <ele>2066.343</ele>
        <time>2021-07-28T20:40:55Z</time>
      </trkpt>
      <trkpt lat="40.891120" lon="-3.949712">
        <ele>2066.117</ele>
        <time>2021-07-28T20:40:57Z</time>
      </trkpt>
      <trkpt lat="40.891101" lon="-3.949718">
        <ele>2065.808</ele>
        <time>2021-07-28T20:40:59Z</time>
      </trkpt>
      <trkpt lat="40.891075" lon="-3.949730">
        <ele>2065.675</ele>
        <time>2021-07-28T20:41:01Z</time>
      </trkpt>
      <trkpt lat="40.891053" lon="-3.949738">
        <ele>2065.337</ele>
        <time>2021-07-28T20:41:03Z</time>
      </trkpt>
      <trkpt lat="40.891030" lon="-3.949743">
        <ele>2065.064</ele>
        <time>2021-07-28T20:41:05Z</time>
      </trkpt>
      <trkpt lat="40.891002" lon="-3.949760">
        <ele>2064.731</ele>
        <time>2021-07-28T20:41:07Z</time>
      </trkpt>
      <trkpt lat="40.890973" lon="-3.949772">
        <ele>2064.462</ele>
        <time>2021-07-28T20:41:10Z</time>
      </trkpt>
      <trkpt lat="40.890957" lon="-3.949785">
        <ele>2064.252</ele>
        <time>2021-07-28T20:41:12Z</time>
      </trkpt>
      <trkpt lat="40.890934" lon="-3.949792">
        <ele>2063.995</ele>
        <time>2021-07-28T20:41:14Z</time>
      </trkpt>
      <trkpt lat="40.890909" lon="-3.949790">
        <ele>2063.556</ele>
        <time>2021-07-28T20:41:16Z</time>
      </trkpt>
      <trkpt lat="40.890890" lon="-3.949790">
        <ele>2063.297</ele>
        <time>2021-07-28T20:41:18Z</time>
      </trkpt>
      <trkpt lat="40.890864" lon="-3.949785">
        <ele>2062.723</ele>
        <time>2021-07-28T20:41:20Z</time>
      </trkpt>
      <trkpt lat="40.890845" lon="-3.949772">
        <ele>2062.425</ele>
        <time>2021-07-28T20:41:22Z</time>
      </trkpt>
      <trkpt lat="40.890822" lon="-3.949750">
        <ele>2061.908</ele>
        <time>2021-07-28T20:41:24Z</time>
      </trkpt>
      <trkpt lat="40.890813" lon="-3.949722">
        <ele>2061.666</ele>
        <time>2021-07-28T20:41:26Z</time>
      </trkpt>
      <trkpt lat="40.890797" lon="-3.949693">
        <ele>2061.148</ele>
        <time>2021-07-28T20:41:28Z</time>
      </trkpt>
      <trkpt lat="40.890781" lon="-3.949675">
        <ele>2060.835</ele>
        <time>2021-07-28T20:41:30Z</time>
      </trkpt>
      <trkpt lat="40.890762" lon="-3.949657">
        <ele>2060.382</ele>
        <time>2021-07-28T20:41:32Z</time>
      </trkpt>
      <trkpt lat="40.890742" lon="-3.949637">
        <ele>2059.823</ele>
        <time>2021-07-28T20:41:34Z</time>
      </trkpt>
      <trkpt lat="40.890726" lon="-3.949613">
        <ele>2059.443</ele>
        <time>2021-07-28T20:41:36Z</time>
      </trkpt>
      <trkpt lat="40.890710" lon="-3.949580">
        <ele>2059.016</ele>
        <time>2021-07-28T20:41:39Z</time>
      </trkpt>
      <trkpt lat="40.890694" lon="-3.949553">
        <ele>2058.677</ele>
        <time>2021-07-28T20:41:41Z</time>
      </trkpt>
      <trkpt lat="40.890678" lon="-3.949527">
        <ele>2058.292</ele>
        <time>2021-07-28T20:41:43Z</time>
      </trkpt>
      <trkpt lat="40.890659" lon="-3.949504">
        <ele>2057.873</ele>
        <time>2021-07-28T20:41:45Z</time>
      </trkpt>
      <trkpt lat="40.890640" lon="-3.949478">
        <ele>2057.420</ele>
        <time>2021-07-28T20:41:47Z</time>
      </trkpt>
      <trkpt lat="40.890624" lon="-3.949452">
        <ele>2057.008</ele>
        <time>2021-07-28T20:41:49Z</time>
      </trkpt>
      <trkpt lat="40.890611" lon="-3.949423">
        <ele>2056.696</ele>
        <time>2021-07-28T20:41:51Z</time>
      </trkpt>
      <trkpt lat="40.890592" lon="-3.949407">
        <ele>2056.278</ele>
        <time>2021-07-28T20:41:53Z</time>
      </trkpt>
      <trkpt lat="40.890573" lon="-3.949386">
        <ele>2055.895</ele>
        <time>2021-07-28T20:41:55Z</time>
      </trkpt>
      <trkpt lat="40.890554" lon="-3.949365">
        <ele>2055.432</ele>
        <time>2021-07-28T20:41:57Z</time>
      </trkpt>
      <trkpt lat="40.890534" lon="-3.949342">
        <ele>2054.923</ele>
        <time>2021-07-28T20:41:59Z</time>
      </trkpt>
      <trkpt lat="40.890522" lon="-3.949320">
        <ele>2054.613</ele>
        <time>2021-07-28T20:42:01Z</time>
      </trkpt>
      <trkpt lat="40.890512" lon="-3.949292">
        <ele>2054.346</ele>
        <time>2021-07-28T20:42:03Z</time>
      </trkpt>
      <trkpt lat="40.890496" lon="-3.949275">
        <ele>2054.067</ele>
        <time>2021-07-28T20:42:05Z</time>
      </trkpt>
      <trkpt lat="40.890480" lon="-3.949257">
        <ele>2053.765</ele>
        <time>2021-07-28T20:42:07Z</time>
      </trkpt>
      <trkpt lat="40.890464" lon="-3.949238">
        <ele>2053.468</ele>
        <time>2021-07-28T20:42:09Z</time>
      </trkpt>
      <trkpt lat="40.890448" lon="-3.949227">
        <ele>2053.114</ele>
        <time>2021-07-28T20:42:11Z</time>
      </trkpt>
      <trkpt lat="40.890432" lon="-3.949205">
        <ele>2052.808</ele>
        <time>2021-07-28T20:42:13Z</time>
      </trkpt>
      <trkpt lat="40.890419" lon="-3.949187">
        <ele>2052.643</ele>
        <time>2021-07-28T20:42:15Z</time>
      </trkpt>
      <trkpt lat="40.890403" lon="-3.949164">
        <ele>2052.325</ele>
        <time>2021-07-28T20:42:17Z</time>
      </trkpt>
      <trkpt lat="40.890387" lon="-3.949140">
        <ele>2052.172</ele>
        <time>2021-07-28T20:42:19Z</time>
      </trkpt>
      <trkpt lat="40.890368" lon="-3.949120">
        <ele>2051.929</ele>
        <time>2021-07-28T20:42:21Z</time>
      </trkpt>
      <trkpt lat="40.890355" lon="-3.949100">
        <ele>2051.760</ele>
        <time>2021-07-28T20:42:23Z</time>
      </trkpt>
      <trkpt lat="40.890339" lon="-3.949078">
        <ele>2051.560</ele>
        <time>2021-07-28T20:42:25Z</time>
      </trkpt>
      <trkpt lat="40.890320" lon="-3.949057">
        <ele>2051.323</ele>
        <time>2021-07-28T20:42:27Z</time>
      </trkpt>
      <trkpt lat="40.890307" lon="-3.949035">
        <ele>2051.274</ele>
        <time>2021-07-28T20:42:29Z</time>
      </trkpt>
      <trkpt lat="40.890294" lon="-3.949010">
        <ele>2051.182</ele>
        <time>2021-07-28T20:42:31Z</time>
      </trkpt>
      <trkpt lat="40.890275" lon="-3.948983">
        <ele>2051.043</ele>
        <time>2021-07-28T20:42:33Z</time>
      </trkpt>
      <trkpt lat="40.890259" lon="-3.948955">
        <ele>2051.017</ele>
        <time>2021-07-28T20:42:35Z</time>
      </trkpt>
      <trkpt lat="40.890246" lon="-3.948933">
        <ele>2051.008</ele>
        <time>2021-07-28T20:42:37Z</time>
      </trkpt>
      <trkpt lat="40.890237" lon="-3.948910">
        <ele>2051.095</ele>
        <time>2021-07-28T20:42:39Z</time>
      </trkpt>
      <trkpt lat="40.890221" lon="-3.948882">
        <ele>2051.057</ele>
        <time>2021-07-28T20:42:41Z</time>
      </trkpt>
      <trkpt lat="40.890208" lon="-3.948860">
        <ele>2050.994</ele>
        <time>2021-07-28T20:42:43Z</time>
      </trkpt>
      <trkpt lat="40.890195" lon="-3.948827">
        <ele>2050.981</ele>
        <time>2021-07-28T20:42:46Z</time>
      </trkpt>
      <trkpt lat="40.890189" lon="-3.948804">
        <ele>2050.912</ele>
        <time>2021-07-28T20:42:48Z</time>
      </trkpt>
      <trkpt lat="40.890182" lon="-3.948772">
        <ele>2050.932</ele>
        <time>2021-07-28T20:42:50Z</time>
      </trkpt>
      <trkpt lat="40.890176" lon="-3.948745">
        <ele>2050.945</ele>
        <time>2021-07-28T20:42:52Z</time>
      </trkpt>
      <trkpt lat="40.890170" lon="-3.948713">
        <ele>2050.976</ele>
        <time>2021-07-28T20:42:54Z</time>
      </trkpt>
      <trkpt lat="40.890160" lon="-3.948680">
        <ele>2050.935</ele>
        <time>2021-07-28T20:42:56Z</time>
      </trkpt>
      <trkpt lat="40.890147" lon="-3.948656">
        <ele>2051.086</ele>
        <time>2021-07-28T20:42:58Z</time>
      </trkpt>
      <trkpt lat="40.890128" lon="-3.948626">
        <ele>2051.114</ele>
        <time>2021-07-28T20:43:00Z</time>
      </trkpt>
      <trkpt lat="40.890106" lon="-3.948602">
        <ele>2051.308</ele>
        <time>2021-07-28T20:43:03Z</time>
      </trkpt>
      <trkpt lat="40.890083" lon="-3.948588">
        <ele>2051.520</ele>
        <time>2021-07-28T20:43:05Z</time>
      </trkpt>
      <trkpt lat="40.890058" lon="-3.948575">
        <ele>2051.782</ele>
        <time>2021-07-28T20:43:08Z</time>
      </trkpt>
      <trkpt lat="40.890038" lon="-3.948565">
        <ele>2051.969</ele>
        <time>2021-07-28T20:43:10Z</time>
      </trkpt>
      <trkpt lat="40.890016" lon="-3.948558">
        <ele>2052.116</ele>
        <time>2021-07-28T20:43:12Z</time>
      </trkpt>
      <trkpt lat="40.889984" lon="-3.948543">
        <ele>2052.567</ele>
        <time>2021-07-28T20:43:14Z</time>
      </trkpt>
      <trkpt lat="40.889958" lon="-3.948538">
        <ele>2052.967</ele>
        <time>2021-07-28T20:43:16Z</time>
      </trkpt>
      <trkpt lat="40.889936" lon="-3.948528">
        <ele>2053.490</ele>
        <time>2021-07-28T20:43:18Z</time>
      </trkpt>
      <trkpt lat="40.889910" lon="-3.948515">
        <ele>2053.961</ele>
        <time>2021-07-28T20:43:20Z</time>
      </trkpt>
      <trkpt lat="40.889885" lon="-3.948502">
        <ele>2054.422</ele>
        <time>2021-07-28T20:43:22Z</time>
      </trkpt>
      <trkpt lat="40.889866" lon="-3.948484">
        <ele>2054.862</ele>
        <time>2021-07-28T20:43:24Z</time>
      </trkpt>
      <trkpt lat="40.889846" lon="-3.948468">
        <ele>2055.308</ele>
        <time>2021-07-28T20:43:26Z</time>
      </trkpt>
      <trkpt lat="40.889824" lon="-3.948448">
        <ele>2055.908</ele>
        <time>2021-07-28T20:43:28Z</time>
      </trkpt>
      <trkpt lat="40.889805" lon="-3.948425">
        <ele>2056.479</ele>
        <time>2021-07-28T20:43:30Z</time>
      </trkpt>
      <trkpt lat="40.889792" lon="-3.948402">
        <ele>2056.921</ele>
        <time>2021-07-28T20:43:32Z</time>
      </trkpt>
      <trkpt lat="40.889779" lon="-3.948382">
        <ele>2057.328</ele>
        <time>2021-07-28T20:43:34Z</time>
      </trkpt>
      <trkpt lat="40.889763" lon="-3.948357">
        <ele>2057.995</ele>
        <time>2021-07-28T20:43:36Z</time>
      </trkpt>
      <trkpt lat="40.889747" lon="-3.948330">
        <ele>2058.546</ele>
        <time>2021-07-28T20:43:38Z</time>
      </trkpt>
      <trkpt lat="40.889731" lon="-3.948303">
        <ele>2058.976</ele>
        <time>2021-07-28T20:43:40Z</time>
      </trkpt>
      <trkpt lat="40.889712" lon="-3.948283">
        <ele>2059.119</ele>
        <time>2021-07-28T20:43:42Z</time>
      </trkpt>
      <trkpt lat="40.889693" lon="-3.948257">
        <ele>2059.050</ele>
        <time>2021-07-28T20:43:44Z</time>
      </trkpt>
      <trkpt lat="40.889670" lon="-3.948230">
        <ele>2059.065</ele>
        <time>2021-07-28T20:43:46Z</time>
      </trkpt>
      <trkpt lat="40.889658" lon="-3.948212">
        <ele>2059.068</ele>
        <time>2021-07-28T20:43:48Z</time>
      </trkpt>
      <trkpt lat="40.889632" lon="-3.948188">
        <ele>2059.114</ele>
        <time>2021-07-28T20:43:50Z</time>
      </trkpt>
      <trkpt lat="40.889610" lon="-3.948175">
        <ele>2059.008</ele>
        <time>2021-07-28T20:43:52Z</time>
      </trkpt>
      <trkpt lat="40.889594" lon="-3.948160">
        <ele>2059.163</ele>
        <time>2021-07-28T20:43:54Z</time>
      </trkpt>
      <trkpt lat="40.889581" lon="-3.948134">
        <ele>2059.355</ele>
        <time>2021-07-28T20:43:56Z</time>
      </trkpt>
      <trkpt lat="40.889558" lon="-3.948110">
        <ele>2059.592</ele>
        <time>2021-07-28T20:43:58Z</time>
      </trkpt>
      <trkpt lat="40.889539" lon="-3.948084">
        <ele>2059.719</ele>
        <time>2021-07-28T20:44:00Z</time>
      </trkpt>
      <trkpt lat="40.889530" lon="-3.948058">
        <ele>2060.070</ele>
        <time>2021-07-28T20:44:02Z</time>
      </trkpt>
      <trkpt lat="40.889520" lon="-3.948033">
        <ele>2060.160</ele>
        <time>2021-07-28T20:44:04Z</time>
      </trkpt>
      <trkpt lat="40.889510" lon="-3.948005">
        <ele>2060.183</ele>
        <time>2021-07-28T20:44:06Z</time>
      </trkpt>
      <trkpt lat="40.889507" lon="-3.947965">
        <ele>2060.354</ele>
        <time>2021-07-28T20:44:09Z</time>
      </trkpt>
      <trkpt lat="40.889494" lon="-3.947935">
        <ele>2060.417</ele>
        <time>2021-07-28T20:44:11Z</time>
      </trkpt>
      <trkpt lat="40.889488" lon="-3.947908">
        <ele>2060.487</ele>
        <time>2021-07-28T20:44:13Z</time>
      </trkpt>
      <trkpt lat="40.889485" lon="-3.947877">
        <ele>2060.515</ele>
        <time>2021-07-28T20:44:15Z</time>
      </trkpt>
      <trkpt lat="40.889472" lon="-3.947847">
        <ele>2060.708</ele>
        <time>2021-07-28T20:44:17Z</time>
      </trkpt>
      <trkpt lat="40.889462" lon="-3.947817">
        <ele>2060.898</ele>
        <time>2021-07-28T20:44:19Z</time>
      </trkpt>
      <trkpt lat="40.889450" lon="-3.947790">
        <ele>2060.930</ele>
        <time>2021-07-28T20:44:21Z</time>
      </trkpt>
      <trkpt lat="40.889440" lon="-3.947760">
        <ele>2061.097</ele>
        <time>2021-07-28T20:44:23Z</time>
      </trkpt>
      <trkpt lat="40.889430" lon="-3.947730">
        <ele>2061.134</ele>
        <time>2021-07-28T20:44:25Z</time>
      </trkpt>
      <trkpt lat="40.889427" lon="-3.947695">
        <ele>2061.245</ele>
        <time>2021-07-28T20:44:27Z</time>
      </trkpt>
      <trkpt lat="40.889421" lon="-3.947662">
        <ele>2061.415</ele>
        <time>2021-07-28T20:44:29Z</time>
      </trkpt>
      <trkpt lat="40.889414" lon="-3.947633">
        <ele>2061.588</ele>
        <time>2021-07-28T20:44:31Z</time>
      </trkpt>
      <trkpt lat="40.889421" lon="-3.947593">
        <ele>2061.759</ele>
        <time>2021-07-28T20:44:33Z</time>
      </trkpt>
      <trkpt lat="40.889427" lon="-3.947565">
        <ele>2061.862</ele>
        <time>2021-07-28T20:44:35Z</time>
      </trkpt>
      <trkpt lat="40.889440" lon="-3.947528">
        <ele>2061.983</ele>
        <time>2021-07-28T20:44:37Z</time>
      </trkpt>
      <trkpt lat="40.889446" lon="-3.947493">
        <ele>2062.011</ele>
        <time>2021-07-28T20:44:39Z</time>
      </trkpt>
      <trkpt lat="40.889450" lon="-3.947463">
        <ele>2061.908</ele>
        <time>2021-07-28T20:44:41Z</time>
      </trkpt>
      <trkpt lat="40.889453" lon="-3.947432">
        <ele>2061.923</ele>
        <time>2021-07-28T20:44:43Z</time>
      </trkpt>
      <trkpt lat="40.889462" lon="-3.947404">
        <ele>2061.765</ele>
        <time>2021-07-28T20:44:45Z</time>
      </trkpt>
      <trkpt lat="40.889466" lon="-3.947362">
        <ele>2061.722</ele>
        <time>2021-07-28T20:44:47Z</time>
      </trkpt>
      <trkpt lat="40.889469" lon="-3.947327">
        <ele>2061.649</ele>
        <time>2021-07-28T20:44:49Z</time>
      </trkpt>
      <trkpt lat="40.889472" lon="-3.947293">
        <ele>2061.580</ele>
        <time>2021-07-28T20:44:51Z</time>
      </trkpt>
      <trkpt lat="40.889475" lon="-3.947262">
        <ele>2061.520</ele>
        <time>2021-07-28T20:44:53Z</time>
      </trkpt>
      <trkpt lat="40.889488" lon="-3.947225">
        <ele>2061.223</ele>
        <time>2021-07-28T20:44:55Z</time>
      </trkpt>
      <trkpt lat="40.889501" lon="-3.947188">
        <ele>2061.054</ele>
        <time>2021-07-28T20:44:57Z</time>
      </trkpt>
      <trkpt lat="40.889507" lon="-3.947153">
        <ele>2060.916</ele>
        <time>2021-07-28T20:44:59Z</time>
      </trkpt>
      <trkpt lat="40.889514" lon="-3.947117">
        <ele>2060.776</ele>
        <time>2021-07-28T20:45:01Z</time>
      </trkpt>
      <trkpt lat="40.889514" lon="-3.947074">
        <ele>2060.713</ele>
        <time>2021-07-28T20:45:03Z</time>
      </trkpt>
      <trkpt lat="40.889526" lon="-3.947035">
        <ele>2060.508</ele>
        <time>2021-07-28T20:45:05Z</time>
      </trkpt>
      <trkpt lat="40.889530" lon="-3.947000">
        <ele>2060.538</ele>
        <time>2021-07-28T20:45:07Z</time>
      </trkpt>
      <trkpt lat="40.889539" lon="-3.946960">
        <ele>2060.370</ele>
        <time>2021-07-28T20:45:09Z</time>
      </trkpt>
      <trkpt lat="40.889539" lon="-3.946926">
        <ele>2060.227</ele>
        <time>2021-07-28T20:45:11Z</time>
      </trkpt>
      <trkpt lat="40.889546" lon="-3.946893">
        <ele>2060.064</ele>
        <time>2021-07-28T20:45:13Z</time>
      </trkpt>
      <trkpt lat="40.889558" lon="-3.946864">
        <ele>2059.735</ele>
        <time>2021-07-28T20:45:15Z</time>
      </trkpt>
      <trkpt lat="40.889568" lon="-3.946823">
        <ele>2059.525</ele>
        <time>2021-07-28T20:45:17Z</time>
      </trkpt>
      <trkpt lat="40.889574" lon="-3.946793">
        <ele>2059.338</ele>
        <time>2021-07-28T20:45:19Z</time>
      </trkpt>
      <trkpt lat="40.889581" lon="-3.946770">
        <ele>2059.239</ele>
        <time>2021-07-28T20:45:20Z</time>
      </trkpt>
      <trkpt lat="40.889587" lon="-3.946728">
        <ele>2059.135</ele>
        <time>2021-07-28T20:45:22Z</time>
      </trkpt>
      <trkpt lat="40.889594" lon="-3.946698">
        <ele>2059.086</ele>
        <time>2021-07-28T20:45:24Z</time>
      </trkpt>
      <trkpt lat="40.889600" lon="-3.946662">
        <ele>2058.914</ele>
        <time>2021-07-28T20:45:26Z</time>
      </trkpt>
      <trkpt lat="40.889594" lon="-3.946630">
        <ele>2058.908</ele>
        <time>2021-07-28T20:45:28Z</time>
      </trkpt>
      <trkpt lat="40.889594" lon="-3.946588">
        <ele>2058.950</ele>
        <time>2021-07-28T20:45:30Z</time>
      </trkpt>
      <trkpt lat="40.889590" lon="-3.946556">
        <ele>2059.092</ele>
        <time>2021-07-28T20:45:32Z</time>
      </trkpt>
      <trkpt lat="40.889587" lon="-3.946523">
        <ele>2059.019</ele>
        <time>2021-07-28T20:45:34Z</time>
      </trkpt>
      <trkpt lat="40.889587" lon="-3.946487">
        <ele>2059.076</ele>
        <time>2021-07-28T20:45:36Z</time>
      </trkpt>
      <trkpt lat="40.889584" lon="-3.946448">
        <ele>2059.067</ele>
        <time>2021-07-28T20:45:38Z</time>
      </trkpt>
      <trkpt lat="40.889574" lon="-3.946418">
        <ele>2059.017</ele>
        <time>2021-07-28T20:45:40Z</time>
      </trkpt>
      <trkpt lat="40.889565" lon="-3.946392">
        <ele>2059.020</ele>
        <time>2021-07-28T20:45:42Z</time>
      </trkpt>
      <trkpt lat="40.889552" lon="-3.946372">
        <ele>2059.031</ele>
        <time>2021-07-28T20:45:43Z</time>
      </trkpt>
      <trkpt lat="40.889539" lon="-3.946345">
        <ele>2059.072</ele>
        <time>2021-07-28T20:45:45Z</time>
      </trkpt>
      <trkpt lat="40.889523" lon="-3.946317">
        <ele>2059.013</ele>
        <time>2021-07-28T20:45:47Z</time>
      </trkpt>
      <trkpt lat="40.889501" lon="-3.946290">
        <ele>2059.014</ele>
        <time>2021-07-28T20:45:49Z</time>
      </trkpt>
      <trkpt lat="40.889482" lon="-3.946265">
        <ele>2059.008</ele>
        <time>2021-07-28T20:45:52Z</time>
      </trkpt>
      <trkpt lat="40.889462" lon="-3.946267">
        <ele>2059.064</ele>
        <time>2021-07-28T20:45:54Z</time>
      </trkpt>
      <trkpt lat="40.889440" lon="-3.946272">
        <ele>2059.186</ele>
        <time>2021-07-28T20:46:08Z</time>
      </trkpt>
      <trkpt lat="40.889427" lon="-3.946230">
        <ele>2059.393</ele>
        <time>2021-07-28T20:48:19Z</time>
      </trkpt>
      <trkpt lat="40.889414" lon="-3.946195">
        <ele>2059.520</ele>
        <time>2021-07-28T20:48:21Z</time>
      </trkpt>
      <trkpt lat="40.889405" lon="-3.946150">
        <ele>2059.651</ele>
        <time>2021-07-28T20:48:23Z</time>
      </trkpt>
      <trkpt lat="40.889392" lon="-3.946112">
        <ele>2059.811</ele>
        <time>2021-07-28T20:48:25Z</time>
      </trkpt>
      <trkpt lat="40.889370" lon="-3.946068">
        <ele>2060.174</ele>
        <time>2021-07-28T20:48:27Z</time>
      </trkpt>
      <trkpt lat="40.889360" lon="-3.946046">
        <ele>2060.345</ele>
        <time>2021-07-28T20:48:28Z</time>
      </trkpt>
      <trkpt lat="40.889354" lon="-3.946024">
        <ele>2060.443</ele>
        <time>2021-07-28T20:48:30Z</time>
      </trkpt>
      <trkpt lat="40.889344" lon="-3.945997">
        <ele>2060.664</ele>
        <time>2021-07-28T20:48:32Z</time>
      </trkpt>
      <trkpt lat="40.889334" lon="-3.945972">
        <ele>2060.710</ele>
        <time>2021-07-28T20:48:34Z</time>
      </trkpt>
      <trkpt lat="40.889328" lon="-3.945945">
        <ele>2060.808</ele>
        <time>2021-07-28T20:48:36Z</time>
      </trkpt>
      <trkpt lat="40.889312" lon="-3.945915">
        <ele>2060.911</ele>
        <time>2021-07-28T20:48:38Z</time>
      </trkpt>
      <trkpt lat="40.889296" lon="-3.945887">
        <ele>2061.113</ele>
        <time>2021-07-28T20:48:40Z</time>
      </trkpt>
      <trkpt lat="40.889280" lon="-3.945858">
        <ele>2061.270</ele>
        <time>2021-07-28T20:48:43Z</time>
      </trkpt>
      <trkpt lat="40.889264" lon="-3.945836">
        <ele>2061.377</ele>
        <time>2021-07-28T20:48:45Z</time>
      </trkpt>
      <trkpt lat="40.889245" lon="-3.945818">
        <ele>2061.518</ele>
        <time>2021-07-28T20:48:47Z</time>
      </trkpt>
      <trkpt lat="40.889226" lon="-3.945795">
        <ele>2061.728</ele>
        <time>2021-07-28T20:48:49Z</time>
      </trkpt>
      <trkpt lat="40.889210" lon="-3.945773">
        <ele>2061.921</ele>
        <time>2021-07-28T20:48:51Z</time>
      </trkpt>
      <trkpt lat="40.889190" lon="-3.945743">
        <ele>2062.282</ele>
        <time>2021-07-28T20:48:53Z</time>
      </trkpt>
      <trkpt lat="40.889184" lon="-3.945718">
        <ele>2062.316</ele>
        <time>2021-07-28T20:48:55Z</time>
      </trkpt>
      <trkpt lat="40.889171" lon="-3.945690">
        <ele>2062.576</ele>
        <time>2021-07-28T20:48:57Z</time>
      </trkpt>
      <trkpt lat="40.889162" lon="-3.945665">
        <ele>2062.613</ele>
        <time>2021-07-28T20:48:59Z</time>
      </trkpt>
      <trkpt lat="40.889142" lon="-3.945637">
        <ele>2062.608</ele>
        <time>2021-07-28T20:49:01Z</time>
      </trkpt>
      <trkpt lat="40.889126" lon="-3.945607">
        <ele>2062.728</ele>
        <time>2021-07-28T20:49:03Z</time>
      </trkpt>
      <trkpt lat="40.889114" lon="-3.945575">
        <ele>2062.890</ele>
        <time>2021-07-28T20:49:05Z</time>
      </trkpt>
      <trkpt lat="40.889104" lon="-3.945550">
        <ele>2062.847</ele>
        <time>2021-07-28T20:49:07Z</time>
      </trkpt>
      <trkpt lat="40.889085" lon="-3.945522">
        <ele>2062.884</ele>
        <time>2021-07-28T20:49:09Z</time>
      </trkpt>
      <trkpt lat="40.889072" lon="-3.945493">
        <ele>2062.855</ele>
        <time>2021-07-28T20:49:11Z</time>
      </trkpt>
      <trkpt lat="40.889053" lon="-3.945460">
        <ele>2062.875</ele>
        <time>2021-07-28T20:49:13Z</time>
      </trkpt>
      <trkpt lat="40.889037" lon="-3.945433">
        <ele>2062.838</ele>
        <time>2021-07-28T20:49:15Z</time>
      </trkpt>
      <trkpt lat="40.889024" lon="-3.945403">
        <ele>2062.849</ele>
        <time>2021-07-28T20:49:17Z</time>
      </trkpt>
      <trkpt lat="40.889008" lon="-3.945385">
        <ele>2062.744</ele>
        <time>2021-07-28T20:49:19Z</time>
      </trkpt>
      <trkpt lat="40.888989" lon="-3.945373">
        <ele>2062.605</ele>
        <time>2021-07-28T20:49:21Z</time>
      </trkpt>
      <trkpt lat="40.888982" lon="-3.945372">
        <ele>2062.615</ele>
        <time>2021-07-28T20:49:22Z</time>
      </trkpt>
      <trkpt lat="40.888858" lon="-3.945298">
        <ele>2061.808</ele>
        <time>2021-07-28T20:49:28Z</time>
      </trkpt>
      <trkpt lat="40.888835" lon="-3.945272">
        <ele>2061.671</ele>
        <time>2021-07-28T20:49:29Z</time>
      </trkpt>
      <trkpt lat="40.888819" lon="-3.945260">
        <ele>2061.583</ele>
        <time>2021-07-28T20:49:30Z</time>
      </trkpt>
      <trkpt lat="40.888800" lon="-3.945263">
        <ele>2061.480</ele>
        <time>2021-07-28T20:49:34Z</time>
      </trkpt>
      <trkpt lat="40.888778" lon="-3.945248">
        <ele>2061.217</ele>
        <time>2021-07-28T20:49:36Z</time>
      </trkpt>
      <trkpt lat="40.888752" lon="-3.945228">
        <ele>2061.058</ele>
        <time>2021-07-28T20:49:38Z</time>
      </trkpt>
      <trkpt lat="40.888736" lon="-3.945215">
        <ele>2060.918</ele>
        <time>2021-07-28T20:49:40Z</time>
      </trkpt>
      <trkpt lat="40.888717" lon="-3.945218">
        <ele>2060.811</ele>
        <time>2021-07-28T20:49:42Z</time>
      </trkpt>
      <trkpt lat="40.888688" lon="-3.945210">
        <ele>2060.632</ele>
        <time>2021-07-28T20:49:44Z</time>
      </trkpt>
      <trkpt lat="40.888672" lon="-3.945197">
        <ele>2060.444</ele>
        <time>2021-07-28T20:49:52Z</time>
      </trkpt>
      <trkpt lat="40.888653" lon="-3.945205">
        <ele>2060.305</ele>
        <time>2021-07-28T20:49:56Z</time>
      </trkpt>
      <trkpt lat="40.888630" lon="-3.945193">
        <ele>2060.115</ele>
        <time>2021-07-28T20:49:58Z</time>
      </trkpt>
      <trkpt lat="40.888605" lon="-3.945183">
        <ele>2059.908</ele>
        <time>2021-07-28T20:50:01Z</time>
      </trkpt>
      <trkpt lat="40.888579" lon="-3.945180">
        <ele>2059.651</ele>
        <time>2021-07-28T20:50:03Z</time>
      </trkpt>
      <trkpt lat="40.888560" lon="-3.945173">
        <ele>2059.413</ele>
        <time>2021-07-28T20:50:05Z</time>
      </trkpt>
      <trkpt lat="40.888534" lon="-3.945173">
        <ele>2059.120</ele>
        <time>2021-07-28T20:50:07Z</time>
      </trkpt>
      <trkpt lat="40.888509" lon="-3.945162">
        <ele>2058.797</ele>
        <time>2021-07-28T20:50:09Z</time>
      </trkpt>
      <trkpt lat="40.888486" lon="-3.945153">
        <ele>2058.468</ele>
        <time>2021-07-28T20:50:11Z</time>
      </trkpt>
      <trkpt lat="40.888467" lon="-3.945140">
        <ele>2058.288</ele>
        <time>2021-07-28T20:50:13Z</time>
      </trkpt>
      <trkpt lat="40.888451" lon="-3.945126">
        <ele>2058.061</ele>
        <time>2021-07-28T20:50:15Z</time>
      </trkpt>
      <trkpt lat="40.888432" lon="-3.945110">
        <ele>2057.732</ele>
        <time>2021-07-28T20:50:17Z</time>
      </trkpt>
      <trkpt lat="40.888416" lon="-3.945090">
        <ele>2057.451</ele>
        <time>2021-07-28T20:50:19Z</time>
      </trkpt>
      <trkpt lat="40.888400" lon="-3.945068">
        <ele>2057.101</ele>
        <time>2021-07-28T20:50:21Z</time>
      </trkpt>
      <trkpt lat="40.888387" lon="-3.945047">
        <ele>2056.911</ele>
        <time>2021-07-28T20:50:23Z</time>
      </trkpt>
      <trkpt lat="40.888368" lon="-3.945027">
        <ele>2056.608</ele>
        <time>2021-07-28T20:50:25Z</time>
      </trkpt>
      <trkpt lat="40.888352" lon="-3.945005">
        <ele>2056.392</ele>
        <time>2021-07-28T20:50:27Z</time>
      </trkpt>
      <trkpt lat="40.888333" lon="-3.944983">
        <ele>2056.174</ele>
        <time>2021-07-28T20:50:29Z</time>
      </trkpt>
      <trkpt lat="40.888310" lon="-3.944962">
        <ele>2055.951</ele>
        <time>2021-07-28T20:50:31Z</time>
      </trkpt>
      <trkpt lat="40.888291" lon="-3.944948">
        <ele>2055.868</ele>
        <time>2021-07-28T20:50:33Z</time>
      </trkpt>
      <trkpt lat="40.888272" lon="-3.944928">
        <ele>2055.779</ele>
        <time>2021-07-28T20:50:35Z</time>
      </trkpt>
      <trkpt lat="40.888253" lon="-3.944920">
        <ele>2055.519</ele>
        <time>2021-07-28T20:50:37Z</time>
      </trkpt>
      <trkpt lat="40.888237" lon="-3.944897">
        <ele>2055.542</ele>
        <time>2021-07-28T20:50:40Z</time>
      </trkpt>
      <trkpt lat="40.888218" lon="-3.944895">
        <ele>2055.323</ele>
        <time>2021-07-28T20:50:43Z</time>
      </trkpt>
      <trkpt lat="40.888202" lon="-3.944875">
        <ele>2055.277</ele>
        <time>2021-07-28T20:50:46Z</time>
      </trkpt>
      <trkpt lat="40.888189" lon="-3.944857">
        <ele>2055.261</ele>
        <time>2021-07-28T20:50:48Z</time>
      </trkpt>
      <trkpt lat="40.888176" lon="-3.944833">
        <ele>2055.327</ele>
        <time>2021-07-28T20:50:50Z</time>
      </trkpt>
      <trkpt lat="40.888160" lon="-3.944806">
        <ele>2055.308</ele>
        <time>2021-07-28T20:50:52Z</time>
      </trkpt>
      <trkpt lat="40.888150" lon="-3.944782">
        <ele>2055.494</ele>
        <time>2021-07-28T20:50:54Z</time>
      </trkpt>
      <trkpt lat="40.888138" lon="-3.944760">
        <ele>2055.596</ele>
        <time>2021-07-28T20:50:56Z</time>
      </trkpt>
      <trkpt lat="40.888118" lon="-3.944733">
        <ele>2055.613</ele>
        <time>2021-07-28T20:50:58Z</time>
      </trkpt>
      <trkpt lat="40.888099" lon="-3.944708">
        <ele>2055.650</ele>
        <time>2021-07-28T20:51:00Z</time>
      </trkpt>
      <trkpt lat="40.888080" lon="-3.944687">
        <ele>2055.671</ele>
        <time>2021-07-28T20:51:02Z</time>
      </trkpt>
      <trkpt lat="40.888064" lon="-3.944675">
        <ele>2055.691</ele>
        <time>2021-07-28T20:51:04Z</time>
      </trkpt>
      <trkpt lat="40.888045" lon="-3.944655">
        <ele>2055.664</ele>
        <time>2021-07-28T20:51:07Z</time>
      </trkpt>
      <trkpt lat="40.888032" lon="-3.944633">
        <ele>2055.685</ele>
        <time>2021-07-28T20:51:09Z</time>
      </trkpt>
      <trkpt lat="40.888013" lon="-3.944607">
        <ele>2055.653</ele>
        <time>2021-07-28T20:51:11Z</time>
      </trkpt>
      <trkpt lat="40.887994" lon="-3.944585">
        <ele>2055.604</ele>
        <time>2021-07-28T20:51:13Z</time>
      </trkpt>
      <trkpt lat="40.887974" lon="-3.944565">
        <ele>2055.614</ele>
        <time>2021-07-28T20:51:15Z</time>
      </trkpt>
      <trkpt lat="40.887952" lon="-3.944552">
        <ele>2055.408</ele>
        <time>2021-07-28T20:51:17Z</time>
      </trkpt>
      <trkpt lat="40.887923" lon="-3.944537">
        <ele>2055.342</ele>
        <time>2021-07-28T20:51:19Z</time>
      </trkpt>
      <trkpt lat="40.887904" lon="-3.944528">
        <ele>2055.174</ele>
        <time>2021-07-28T20:51:21Z</time>
      </trkpt>
      <trkpt lat="40.887882" lon="-3.944527">
        <ele>2054.941</ele>
        <time>2021-07-28T20:51:23Z</time>
      </trkpt>
      <trkpt lat="40.887862" lon="-3.944513">
        <ele>2054.878</ele>
        <time>2021-07-28T20:51:25Z</time>
      </trkpt>
      <trkpt lat="40.887837" lon="-3.944495">
        <ele>2054.899</ele>
        <time>2021-07-28T20:51:27Z</time>
      </trkpt>
      <trkpt lat="40.887821" lon="-3.944478">
        <ele>2054.939</ele>
        <time>2021-07-28T20:51:29Z</time>
      </trkpt>
      <trkpt lat="40.887805" lon="-3.944463">
        <ele>2055.032</ele>
        <time>2021-07-28T20:51:31Z</time>
      </trkpt>
      <trkpt lat="40.887792" lon="-3.944446">
        <ele>2055.173</ele>
        <time>2021-07-28T20:51:33Z</time>
      </trkpt>
      <trkpt lat="40.887773" lon="-3.944440">
        <ele>2055.152</ele>
        <time>2021-07-28T20:51:35Z</time>
      </trkpt>
      <trkpt lat="40.887754" lon="-3.944432">
        <ele>2055.253</ele>
        <time>2021-07-28T20:51:37Z</time>
      </trkpt>
      <trkpt lat="40.887734" lon="-3.944408">
        <ele>2055.608</ele>
        <time>2021-07-28T20:51:40Z</time>
      </trkpt>
      <trkpt lat="40.887712" lon="-3.944395">
        <ele>2055.808</ele>
        <time>2021-07-28T20:51:42Z</time>
      </trkpt>
      <trkpt lat="40.887693" lon="-3.944375">
        <ele>2056.272</ele>
        <time>2021-07-28T20:51:44Z</time>
      </trkpt>
      <trkpt lat="40.887674" lon="-3.944360">
        <ele>2056.454</ele>
        <time>2021-07-28T20:51:46Z</time>
      </trkpt>
      <trkpt lat="40.887648" lon="-3.944340">
        <ele>2056.781</ele>
        <time>2021-07-28T20:51:48Z</time>
      </trkpt>
      <trkpt lat="40.887632" lon="-3.944322">
        <ele>2057.028</ele>
        <time>2021-07-28T20:51:50Z</time>
      </trkpt>
      <trkpt lat="40.887616" lon="-3.944308">
        <ele>2057.299</ele>
        <time>2021-07-28T20:51:52Z</time>
      </trkpt>
      <trkpt lat="40.887594" lon="-3.944293">
        <ele>2057.459</ele>
        <time>2021-07-28T20:51:54Z</time>
      </trkpt>
      <trkpt lat="40.887574" lon="-3.944277">
        <ele>2057.652</ele>
        <time>2021-07-28T20:51:56Z</time>
      </trkpt>
      <trkpt lat="40.887549" lon="-3.944257">
        <ele>2057.813</ele>
        <time>2021-07-28T20:51:58Z</time>
      </trkpt>
      <trkpt lat="40.887533" lon="-3.944240">
        <ele>2058.087</ele>
        <time>2021-07-28T20:52:00Z</time>
      </trkpt>
      <trkpt lat="40.887514" lon="-3.944228">
        <ele>2058.242</ele>
        <time>2021-07-28T20:52:02Z</time>
      </trkpt>
      <trkpt lat="40.887498" lon="-3.944208">
        <ele>2058.426</ele>
        <time>2021-07-28T20:52:04Z</time>
      </trkpt>
      <trkpt lat="40.887478" lon="-3.944193">
        <ele>2058.408</ele>
        <time>2021-07-28T20:52:06Z</time>
      </trkpt>
      <trkpt lat="40.887459" lon="-3.944177">
        <ele>2058.485</ele>
        <time>2021-07-28T20:52:08Z</time>
      </trkpt>
      <trkpt lat="40.887443" lon="-3.944153">
        <ele>2058.687</ele>
        <time>2021-07-28T20:52:10Z</time>
      </trkpt>
      <trkpt lat="40.887427" lon="-3.944123">
        <ele>2058.834</ele>
        <time>2021-07-28T20:52:12Z</time>
      </trkpt>
      <trkpt lat="40.887408" lon="-3.944100">
        <ele>2059.041</ele>
        <time>2021-07-28T20:52:14Z</time>
      </trkpt>
      <trkpt lat="40.887402" lon="-3.944075">
        <ele>2059.352</ele>
        <time>2021-07-28T20:52:16Z</time>
      </trkpt>
      <trkpt lat="40.887389" lon="-3.944055">
        <ele>2059.442</ele>
        <time>2021-07-28T20:52:18Z</time>
      </trkpt>
      <trkpt lat="40.887376" lon="-3.944038">
        <ele>2059.585</ele>
        <time>2021-07-28T20:52:20Z</time>
      </trkpt>
      <trkpt lat="40.887363" lon="-3.944018">
        <ele>2059.776</ele>
        <time>2021-07-28T20:52:22Z</time>
      </trkpt>
      <trkpt lat="40.887347" lon="-3.943990">
        <ele>2059.981</ele>
        <time>2021-07-28T20:52:24Z</time>
      </trkpt>
      <trkpt lat="40.887328" lon="-3.943960">
        <ele>2060.161</ele>
        <time>2021-07-28T20:52:26Z</time>
      </trkpt>
      <trkpt lat="40.887315" lon="-3.943942">
        <ele>2060.217</ele>
        <time>2021-07-28T20:52:28Z</time>
      </trkpt>
      <trkpt lat="40.887299" lon="-3.943922">
        <ele>2060.408</ele>
        <time>2021-07-28T20:52:30Z</time>
      </trkpt>
      <trkpt lat="40.887280" lon="-3.943895">
        <ele>2060.525</ele>
        <time>2021-07-28T20:52:32Z</time>
      </trkpt>
      <trkpt lat="40.887261" lon="-3.943875">
        <ele>2060.617</ele>
        <time>2021-07-28T20:52:34Z</time>
      </trkpt>
      <trkpt lat="40.887238" lon="-3.943858">
        <ele>2060.514</ele>
        <time>2021-07-28T20:52:36Z</time>
      </trkpt>
      <trkpt lat="40.887219" lon="-3.943842">
        <ele>2060.561</ele>
        <time>2021-07-28T20:52:38Z</time>
      </trkpt>
      <trkpt lat="40.887197" lon="-3.943827">
        <ele>2060.312</ele>
        <time>2021-07-28T20:52:40Z</time>
      </trkpt>
      <trkpt lat="40.887168" lon="-3.943813">
        <ele>2060.132</ele>
        <time>2021-07-28T20:52:42Z</time>
      </trkpt>
      <trkpt lat="40.887142" lon="-3.943800">
        <ele>2059.955</ele>
        <time>2021-07-28T20:52:44Z</time>
      </trkpt>
      <trkpt lat="40.887123" lon="-3.943788">
        <ele>2059.816</ele>
        <time>2021-07-28T20:52:46Z</time>
      </trkpt>
      <trkpt lat="40.887101" lon="-3.943775">
        <ele>2059.729</ele>
        <time>2021-07-28T20:52:48Z</time>
      </trkpt>
      <trkpt lat="40.887078" lon="-3.943755">
        <ele>2059.600</ele>
        <time>2021-07-28T20:52:50Z</time>
      </trkpt>
      <trkpt lat="40.887059" lon="-3.943742">
        <ele>2059.520</ele>
        <time>2021-07-28T20:52:52Z</time>
      </trkpt>
      <trkpt lat="40.886992" lon="-3.943675">
        <ele>2059.608</ele>
        <time>2021-07-28T20:52:59Z</time>
      </trkpt>
      <trkpt lat="40.886982" lon="-3.943667">
        <ele>2059.669</ele>
        <time>2021-07-28T20:53:00Z</time>
      </trkpt>
      <trkpt lat="40.886966" lon="-3.943680">
        <ele>2059.381</ele>
        <time>2021-07-28T20:53:03Z</time>
      </trkpt>
      <trkpt lat="40.886944" lon="-3.943667">
        <ele>2059.258</ele>
        <time>2021-07-28T20:53:05Z</time>
      </trkpt>
      <trkpt lat="40.886922" lon="-3.943648">
        <ele>2059.175</ele>
        <time>2021-07-28T20:53:07Z</time>
      </trkpt>
      <trkpt lat="40.886902" lon="-3.943627">
        <ele>2059.036</ele>
        <time>2021-07-28T20:53:09Z</time>
      </trkpt>
      <trkpt lat="40.886880" lon="-3.943612">
        <ele>2058.856</ele>
        <time>2021-07-28T20:53:11Z</time>
      </trkpt>
      <trkpt lat="40.886864" lon="-3.943597">
        <ele>2058.759</ele>
        <time>2021-07-28T20:53:13Z</time>
      </trkpt>
      <trkpt lat="40.886848" lon="-3.943583">
        <ele>2058.570</ele>
        <time>2021-07-28T20:53:14Z</time>
      </trkpt>
      <trkpt lat="40.886822" lon="-3.943552">
        <ele>2058.312</ele>
        <time>2021-07-28T20:53:16Z</time>
      </trkpt>
      <trkpt lat="40.886803" lon="-3.943535">
        <ele>2058.132</ele>
        <time>2021-07-28T20:53:17Z</time>
      </trkpt>
      <trkpt lat="40.886781" lon="-3.943525">
        <ele>2057.905</ele>
        <time>2021-07-28T20:53:19Z</time>
      </trkpt>
      <trkpt lat="40.886768" lon="-3.943508">
        <ele>2057.808</ele>
        <time>2021-07-28T20:53:21Z</time>
      </trkpt>
      <trkpt lat="40.886752" lon="-3.943497">
        <ele>2057.628</ele>
        <time>2021-07-28T20:53:22Z</time>
      </trkpt>
      <trkpt lat="40.886720" lon="-3.943470">
        <ele>2057.490</ele>
        <time>2021-07-28T20:53:24Z</time>
      </trkpt>
      <trkpt lat="40.886701" lon="-3.943453">
        <ele>2057.317</ele>
        <time>2021-07-28T20:53:26Z</time>
      </trkpt>
      <trkpt lat="40.886682" lon="-3.943432">
        <ele>2057.284</ele>
        <time>2021-07-28T20:53:29Z</time>
      </trkpt>
      <trkpt lat="40.886653" lon="-3.943413">
        <ele>2056.925</ele>
        <time>2021-07-28T20:53:31Z</time>
      </trkpt>
      <trkpt lat="40.886627" lon="-3.943395">
        <ele>2056.755</ele>
        <time>2021-07-28T20:53:33Z</time>
      </trkpt>
      <trkpt lat="40.886608" lon="-3.943385">
        <ele>2056.658</ele>
        <time>2021-07-28T20:53:35Z</time>
      </trkpt>
      <trkpt lat="40.886582" lon="-3.943378">
        <ele>2056.269</ele>
        <time>2021-07-28T20:53:37Z</time>
      </trkpt>
      <trkpt lat="40.886563" lon="-3.943362">
        <ele>2056.247</ele>
        <time>2021-07-28T20:53:39Z</time>
      </trkpt>
      <trkpt lat="40.886541" lon="-3.943335">
        <ele>2056.229</ele>
        <time>2021-07-28T20:53:41Z</time>
      </trkpt>
      <trkpt lat="40.886522" lon="-3.943315">
        <ele>2056.121</ele>
        <time>2021-07-28T20:53:43Z</time>
      </trkpt>
      <trkpt lat="40.886502" lon="-3.943300">
        <ele>2056.008</ele>
        <time>2021-07-28T20:53:45Z</time>
      </trkpt>
      <trkpt lat="40.886483" lon="-3.943292">
        <ele>2055.821</ele>
        <time>2021-07-28T20:53:47Z</time>
      </trkpt>
      <trkpt lat="40.886464" lon="-3.943283">
        <ele>2055.723</ele>
        <time>2021-07-28T20:53:49Z</time>
      </trkpt>
      <trkpt lat="40.886451" lon="-3.943265">
        <ele>2055.870</ele>
        <time>2021-07-28T20:53:51Z</time>
      </trkpt>
      <trkpt lat="40.886442" lon="-3.943238">
        <ele>2056.027</ele>
        <time>2021-07-28T20:53:53Z</time>
      </trkpt>
      <trkpt lat="40.886426" lon="-3.943208">
        <ele>2056.218</ele>
        <time>2021-07-28T20:53:55Z</time>
      </trkpt>
      <trkpt lat="40.886397" lon="-3.943192">
        <ele>2056.188</ele>
        <time>2021-07-28T20:53:58Z</time>
      </trkpt>
      <trkpt lat="40.886374" lon="-3.943178">
        <ele>2056.151</ele>
        <time>2021-07-28T20:54:00Z</time>
      </trkpt>
      <trkpt lat="40.886352" lon="-3.943167">
        <ele>2056.152</ele>
        <time>2021-07-28T20:54:03Z</time>
      </trkpt>
      <trkpt lat="40.886317" lon="-3.943088">
        <ele>2057.048</ele>
        <time>2021-07-28T20:54:11Z</time>
      </trkpt>
      <trkpt lat="40.886314" lon="-3.943056">
        <ele>2057.561</ele>
        <time>2021-07-28T20:54:13Z</time>
      </trkpt>
      <trkpt lat="40.886317" lon="-3.943025">
        <ele>2057.817</ele>
        <time>2021-07-28T20:54:17Z</time>
      </trkpt>
      <trkpt lat="40.886314" lon="-3.942987">
        <ele>2058.108</ele>
        <time>2021-07-28T20:54:20Z</time>
      </trkpt>
      <trkpt lat="40.886304" lon="-3.942963">
        <ele>2058.391</ele>
        <time>2021-07-28T20:54:22Z</time>
      </trkpt>
      <trkpt lat="40.886291" lon="-3.942935">
        <ele>2058.573</ele>
        <time>2021-07-28T20:54:25Z</time>
      </trkpt>
      <trkpt lat="40.886275" lon="-3.942910">
        <ele>2058.740</ele>
        <time>2021-07-28T20:54:28Z</time>
      </trkpt>
      <trkpt lat="40.886266" lon="-3.942883">
        <ele>2058.947</ele>
        <time>2021-07-28T20:54:30Z</time>
      </trkpt>
      <trkpt lat="40.886250" lon="-3.942857">
        <ele>2059.128</ele>
        <time>2021-07-28T20:54:32Z</time>
      </trkpt>
      <trkpt lat="40.886227" lon="-3.942840">
        <ele>2059.358</ele>
        <time>2021-07-28T20:54:34Z</time>
      </trkpt>
      <trkpt lat="40.886214" lon="-3.942820">
        <ele>2059.591</ele>
        <time>2021-07-28T20:54:36Z</time>
      </trkpt>
      <trkpt lat="40.886198" lon="-3.942790">
        <ele>2059.992</ele>
        <time>2021-07-28T20:54:39Z</time>
      </trkpt>
      <trkpt lat="40.886189" lon="-3.942767">
        <ele>2060.036</ele>
        <time>2021-07-28T20:54:41Z</time>
      </trkpt>
      <trkpt lat="40.886182" lon="-3.942730">
        <ele>2060.017</ele>
        <time>2021-07-28T20:54:44Z</time>
      </trkpt>
      <trkpt lat="40.886170" lon="-3.942698">
        <ele>2060.118</ele>
        <time>2021-07-28T20:54:46Z</time>
      </trkpt>
      <trkpt lat="40.886157" lon="-3.942675">
        <ele>2060.108</ele>
        <time>2021-07-28T20:54:48Z</time>
      </trkpt>
      <trkpt lat="40.886144" lon="-3.942650">
        <ele>2060.120</ele>
        <time>2021-07-28T20:54:50Z</time>
      </trkpt>
      <trkpt lat="40.886128" lon="-3.942628">
        <ele>2060.042</ele>
        <time>2021-07-28T20:54:52Z</time>
      </trkpt>
      <trkpt lat="40.886112" lon="-3.942608">
        <ele>2060.039</ele>
        <time>2021-07-28T20:54:54Z</time>
      </trkpt>
      <trkpt lat="40.886096" lon="-3.942585">
        <ele>2059.876</ele>
        <time>2021-07-28T20:54:56Z</time>
      </trkpt>
      <trkpt lat="40.886077" lon="-3.942565">
        <ele>2059.557</ele>
        <time>2021-07-28T20:54:58Z</time>
      </trkpt>
      <trkpt lat="40.886064" lon="-3.942547">
        <ele>2059.467</ele>
        <time>2021-07-28T20:55:00Z</time>
      </trkpt>
      <trkpt lat="40.886051" lon="-3.942520">
        <ele>2059.330</ele>
        <time>2021-07-28T20:55:02Z</time>
      </trkpt>
      <trkpt lat="40.886038" lon="-3.942494">
        <ele>2059.241</ele>
        <time>2021-07-28T20:55:04Z</time>
      </trkpt>
      <trkpt lat="40.886035" lon="-3.942468">
        <ele>2059.463</ele>
        <time>2021-07-28T20:55:06Z</time>
      </trkpt>
      <trkpt lat="40.886035" lon="-3.942442">
        <ele>2059.544</ele>
        <time>2021-07-28T20:55:08Z</time>
      </trkpt>
      <trkpt lat="40.886029" lon="-3.942413">
        <ele>2059.618</ele>
        <time>2021-07-28T20:55:10Z</time>
      </trkpt>
      <trkpt lat="40.886016" lon="-3.942387">
        <ele>2059.708</ele>
        <time>2021-07-28T20:55:12Z</time>
      </trkpt>
      <trkpt lat="40.886010" lon="-3.942358">
        <ele>2059.833</ele>
        <time>2021-07-28T20:55:14Z</time>
      </trkpt>
      <trkpt lat="40.885997" lon="-3.942333">
        <ele>2059.945</ele>
        <time>2021-07-28T20:55:16Z</time>
      </trkpt>
      <trkpt lat="40.885978" lon="-3.942313">
        <ele>2059.962</ele>
        <time>2021-07-28T20:55:22Z</time>
      </trkpt>
      <trkpt lat="40.885958" lon="-3.942294">
        <ele>2059.949</ele>
        <time>2021-07-28T20:55:25Z</time>
      </trkpt>
      <trkpt lat="40.885939" lon="-3.942275">
        <ele>2060.050</ele>
        <time>2021-07-28T20:55:27Z</time>
      </trkpt>
      <trkpt lat="40.885920" lon="-3.942267">
        <ele>2059.950</ele>
        <time>2021-07-28T20:55:29Z</time>
      </trkpt>
      <trkpt lat="40.885904" lon="-3.942278">
        <ele>2059.843</ele>
        <time>2021-07-28T20:55:36Z</time>
      </trkpt>
      <trkpt lat="40.885878" lon="-3.942280">
        <ele>2059.664</ele>
        <time>2021-07-28T20:55:38Z</time>
      </trkpt>
      <trkpt lat="40.885859" lon="-3.942280">
        <ele>2059.526</ele>
        <time>2021-07-28T20:55:40Z</time>
      </trkpt>
      <trkpt lat="40.885834" lon="-3.942277">
        <ele>2059.447</ele>
        <time>2021-07-28T20:55:43Z</time>
      </trkpt>
      <trkpt lat="40.885814" lon="-3.942272">
        <ele>2059.111</ele>
        <time>2021-07-28T20:55:45Z</time>
      </trkpt>
      <trkpt lat="40.885792" lon="-3.942283">
        <ele>2058.508</ele>
        <time>2021-07-28T20:55:48Z</time>
      </trkpt>
      <trkpt lat="40.885770" lon="-3.942268">
        <ele>2058.229</ele>
        <time>2021-07-28T20:55:52Z</time>
      </trkpt>
      <trkpt lat="40.885754" lon="-3.942253">
        <ele>2058.061</ele>
        <time>2021-07-28T20:55:54Z</time>
      </trkpt>
      <trkpt lat="40.885731" lon="-3.942247">
        <ele>2057.618</ele>
        <time>2021-07-28T20:55:57Z</time>
      </trkpt>
      <trkpt lat="40.885712" lon="-3.942240">
        <ele>2057.315</ele>
        <time>2021-07-28T20:55:59Z</time>
      </trkpt>
      <trkpt lat="40.885690" lon="-3.942242">
        <ele>2056.886</ele>
        <time>2021-07-28T20:56:01Z</time>
      </trkpt>
      <trkpt lat="40.885661" lon="-3.942258">
        <ele>2056.186</ele>
        <time>2021-07-28T20:56:04Z</time>
      </trkpt>
      <trkpt lat="40.885642" lon="-3.942267">
        <ele>2055.769</ele>
        <time>2021-07-28T20:56:07Z</time>
      </trkpt>
      <trkpt lat="40.885622" lon="-3.942262">
        <ele>2055.350</ele>
        <time>2021-07-28T20:56:09Z</time>
      </trkpt>
      <trkpt lat="40.885606" lon="-3.942250">
        <ele>2055.045</ele>
        <time>2021-07-28T20:56:11Z</time>
      </trkpt>
      <trkpt lat="40.885587" lon="-3.942238">
        <ele>2054.747</ele>
        <time>2021-07-28T20:56:13Z</time>
      </trkpt>
      <trkpt lat="40.885568" lon="-3.942235">
        <ele>2054.311</ele>
        <time>2021-07-28T20:56:15Z</time>
      </trkpt>
      <trkpt lat="40.885549" lon="-3.942233">
        <ele>2053.908</ele>
        <time>2021-07-28T20:56:17Z</time>
      </trkpt>
      <trkpt lat="40.885523" lon="-3.942237">
        <ele>2053.611</ele>
        <time>2021-07-28T20:56:19Z</time>
      </trkpt>
      <trkpt lat="40.885494" lon="-3.942242">
        <ele>2053.343</ele>
        <time>2021-07-28T20:56:22Z</time>
      </trkpt>
      <trkpt lat="40.885469" lon="-3.942250">
        <ele>2053.040</ele>
        <time>2021-07-28T20:56:25Z</time>
      </trkpt>
      <trkpt lat="40.885450" lon="-3.942247">
        <ele>2052.817</ele>
        <time>2021-07-28T20:56:27Z</time>
      </trkpt>
      <trkpt lat="40.885430" lon="-3.942248">
        <ele>2052.658</ele>
        <time>2021-07-28T20:56:29Z</time>
      </trkpt>
      <trkpt lat="40.885398" lon="-3.942253">
        <ele>2052.298</ele>
        <time>2021-07-28T20:56:32Z</time>
      </trkpt>
      <trkpt lat="40.885379" lon="-3.942257">
        <ele>2052.031</ele>
        <time>2021-07-28T20:56:34Z</time>
      </trkpt>
      <trkpt lat="40.885357" lon="-3.942258">
        <ele>2051.812</ele>
        <time>2021-07-28T20:56:36Z</time>
      </trkpt>
      <trkpt lat="40.885338" lon="-3.942257">
        <ele>2051.672</ele>
        <time>2021-07-28T20:56:38Z</time>
      </trkpt>
      <trkpt lat="40.885315" lon="-3.942252">
        <ele>2051.313</ele>
        <time>2021-07-28T20:56:40Z</time>
      </trkpt>
      <trkpt lat="40.885293" lon="-3.942243">
        <ele>2051.114</ele>
        <time>2021-07-28T20:56:43Z</time>
      </trkpt>
      <trkpt lat="40.885264" lon="-3.942248">
        <ele>2050.708</ele>
        <time>2021-07-28T20:56:46Z</time>
      </trkpt>
      <trkpt lat="40.885245" lon="-3.942248">
        <ele>2050.324</ele>
        <time>2021-07-28T20:56:48Z</time>
      </trkpt>
      <trkpt lat="40.885222" lon="-3.942255">
        <ele>2049.956</ele>
        <time>2021-07-28T20:56:50Z</time>
      </trkpt>
      <trkpt lat="40.885200" lon="-3.942253">
        <ele>2049.543</ele>
        <time>2021-07-28T20:56:52Z</time>
      </trkpt>
      <trkpt lat="40.885181" lon="-3.942257">
        <ele>2049.120</ele>
        <time>2021-07-28T20:56:54Z</time>
      </trkpt>
      <trkpt lat="40.885162" lon="-3.942270">
        <ele>2048.771</ele>
        <time>2021-07-28T20:56:56Z</time>
      </trkpt>
      <trkpt lat="40.885136" lon="-3.942270">
        <ele>2048.361</ele>
        <time>2021-07-28T20:56:59Z</time>
      </trkpt>
      <trkpt lat="40.885114" lon="-3.942260">
        <ele>2047.954</ele>
        <time>2021-07-28T20:57:01Z</time>
      </trkpt>
      <trkpt lat="40.885085" lon="-3.942257">
        <ele>2047.465</ele>
        <time>2021-07-28T20:57:04Z</time>
      </trkpt>
      <trkpt lat="40.885066" lon="-3.942258">
        <ele>2047.179</ele>
        <time>2021-07-28T20:57:06Z</time>
      </trkpt>
      <trkpt lat="40.885046" lon="-3.942262">
        <ele>2046.705</ele>
        <time>2021-07-28T20:57:08Z</time>
      </trkpt>
      <trkpt lat="40.885021" lon="-3.942272">
        <ele>2046.225</ele>
        <time>2021-07-28T20:57:11Z</time>
      </trkpt>
      <trkpt lat="40.884992" lon="-3.942272">
        <ele>2045.708</ele>
        <time>2021-07-28T20:57:14Z</time>
      </trkpt>
      <trkpt lat="40.884973" lon="-3.942272">
        <ele>2045.464</ele>
        <time>2021-07-28T20:57:16Z</time>
      </trkpt>
      <trkpt lat="40.884954" lon="-3.942285">
        <ele>2045.146</ele>
        <time>2021-07-28T20:57:18Z</time>
      </trkpt>
      <trkpt lat="40.884934" lon="-3.942297">
        <ele>2044.843</ele>
        <time>2021-07-28T20:57:20Z</time>
      </trkpt>
      <trkpt lat="40.884918" lon="-3.942320">
        <ele>2044.630</ele>
        <time>2021-07-28T20:57:23Z</time>
      </trkpt>
      <trkpt lat="40.884896" lon="-3.942332">
        <ele>2044.371</ele>
        <time>2021-07-28T20:57:25Z</time>
      </trkpt>
      <trkpt lat="40.884874" lon="-3.942336">
        <ele>2044.071</ele>
        <time>2021-07-28T20:57:27Z</time>
      </trkpt>
      <trkpt lat="40.884848" lon="-3.942342">
        <ele>2043.654</ele>
        <time>2021-07-28T20:57:29Z</time>
      </trkpt>
      <trkpt lat="40.884819" lon="-3.942350">
        <ele>2043.255</ele>
        <time>2021-07-28T20:57:32Z</time>
      </trkpt>
      <trkpt lat="40.884800" lon="-3.942356">
        <ele>2043.077</ele>
        <time>2021-07-28T20:57:34Z</time>
      </trkpt>
      <trkpt lat="40.884774" lon="-3.942365">
        <ele>2042.761</ele>
        <time>2021-07-28T20:57:37Z</time>
      </trkpt>
      <trkpt lat="40.884746" lon="-3.942358">
        <ele>2042.327</ele>
        <time>2021-07-28T20:57:39Z</time>
      </trkpt>
      <trkpt lat="40.884726" lon="-3.942348">
        <ele>2042.008</ele>
        <time>2021-07-28T20:57:41Z</time>
      </trkpt>
      <trkpt lat="40.884704" lon="-3.942338">
        <ele>2041.734</ele>
        <time>2021-07-28T20:57:43Z</time>
      </trkpt>
      <trkpt lat="40.884685" lon="-3.942336">
        <ele>2041.446</ele>
        <time>2021-07-28T20:57:45Z</time>
      </trkpt>
      <trkpt lat="40.884662" lon="-3.942340">
        <ele>2041.183</ele>
        <time>2021-07-28T20:57:47Z</time>
      </trkpt>
      <trkpt lat="40.884643" lon="-3.942342">
        <ele>2040.890</ele>
        <time>2021-07-28T20:57:49Z</time>
      </trkpt>
      <trkpt lat="40.884618" lon="-3.942353">
        <ele>2040.521</ele>
        <time>2021-07-28T20:57:52Z</time>
      </trkpt>
      <trkpt lat="40.884602" lon="-3.942365">
        <ele>2040.351</ele>
        <time>2021-07-28T20:57:54Z</time>
      </trkpt>
      <trkpt lat="40.884586" lon="-3.942377">
        <ele>2040.194</ele>
        <time>2021-07-28T20:57:56Z</time>
      </trkpt>
      <trkpt lat="40.884576" lon="-3.942400">
        <ele>2040.095</ele>
        <time>2021-07-28T20:58:03Z</time>
      </trkpt>
      <trkpt lat="40.884560" lon="-3.942418">
        <ele>2039.975</ele>
        <time>2021-07-28T20:58:40Z</time>
      </trkpt>
      <trkpt lat="40.884541" lon="-3.942437">
        <ele>2039.728</ele>
        <time>2021-07-28T20:58:42Z</time>
      </trkpt>
      <trkpt lat="40.884515" lon="-3.942455">
        <ele>2039.520</ele>
        <time>2021-07-28T20:58:44Z</time>
      </trkpt>
      <trkpt lat="40.884490" lon="-3.942482">
        <ele>2039.408</ele>
        <time>2021-07-28T20:58:46Z</time>
      </trkpt>
      <trkpt lat="40.884464" lon="-3.942512">
        <ele>2039.134</ele>
        <time>2021-07-28T20:58:48Z</time>
      </trkpt>
      <trkpt lat="40.884442" lon="-3.942524">
        <ele>2038.786</ele>
        <time>2021-07-28T20:58:50Z</time>
      </trkpt>
      <trkpt lat="40.884429" lon="-3.942547">
        <ele>2038.253</ele>
        <time>2021-07-28T20:58:53Z</time>
      </trkpt>
      <trkpt lat="40.884419" lon="-3.942573">
        <ele>2037.870</ele>
        <time>2021-07-28T20:58:56Z</time>
      </trkpt>
      <trkpt lat="40.884403" lon="-3.942590">
        <ele>2037.421</ele>
        <time>2021-07-28T20:58:59Z</time>
      </trkpt>
      <trkpt lat="40.884384" lon="-3.942600">
        <ele>2037.061</ele>
        <time>2021-07-28T20:59:01Z</time>
      </trkpt>
      <trkpt lat="40.884358" lon="-3.942610">
        <ele>2036.524</ele>
        <time>2021-07-28T20:59:04Z</time>
      </trkpt>
      <trkpt lat="40.884339" lon="-3.942620">
        <ele>2036.195</ele>
        <time>2021-07-28T20:59:07Z</time>
      </trkpt>
      <trkpt lat="40.884317" lon="-3.942622">
        <ele>2035.849</ele>
        <time>2021-07-28T20:59:10Z</time>
      </trkpt>
      <trkpt lat="40.884298" lon="-3.942628">
        <ele>2035.502</ele>
        <time>2021-07-28T20:59:13Z</time>
      </trkpt>
      <trkpt lat="40.884278" lon="-3.942625">
        <ele>2035.222</ele>
        <time>2021-07-28T20:59:15Z</time>
      </trkpt>
      <trkpt lat="40.884259" lon="-3.942638">
        <ele>2034.808</ele>
        <time>2021-07-28T20:59:19Z</time>
      </trkpt>
      <trkpt lat="40.884230" lon="-3.942645">
        <ele>2034.421</ele>
        <time>2021-07-28T20:59:22Z</time>
      </trkpt>
      <trkpt lat="40.884205" lon="-3.942652">
        <ele>2034.043</ele>
        <time>2021-07-28T20:59:25Z</time>
      </trkpt>
      <trkpt lat="40.884182" lon="-3.942648">
        <ele>2033.780</ele>
        <time>2021-07-28T20:59:27Z</time>
      </trkpt>
      <trkpt lat="40.884163" lon="-3.942654">
        <ele>2033.447</ele>
        <time>2021-07-28T20:59:29Z</time>
      </trkpt>
      <trkpt lat="40.884141" lon="-3.942655">
        <ele>2033.138</ele>
        <time>2021-07-28T20:59:31Z</time>
      </trkpt>
      <trkpt lat="40.884122" lon="-3.942650">
        <ele>2032.948</ele>
        <time>2021-07-28T20:59:33Z</time>
      </trkpt>
      <trkpt lat="40.884093" lon="-3.942652">
        <ele>2032.561</ele>
        <time>2021-07-28T20:59:35Z</time>
      </trkpt>
      <trkpt lat="40.884074" lon="-3.942657">
        <ele>2032.362</ele>
        <time>2021-07-28T20:59:37Z</time>
      </trkpt>
      <trkpt lat="40.884058" lon="-3.942670">
        <ele>2032.158</ele>
        <time>2021-07-28T20:59:39Z</time>
      </trkpt>
      <trkpt lat="40.884042" lon="-3.942682">
        <ele>2031.852</ele>
        <time>2021-07-28T20:59:41Z</time>
      </trkpt>
      <trkpt lat="40.884022" lon="-3.942685">
        <ele>2031.617</ele>
        <time>2021-07-28T20:59:43Z</time>
      </trkpt>
      <trkpt lat="40.883994" lon="-3.942690">
        <ele>2031.308</ele>
        <time>2021-07-28T20:59:45Z</time>
      </trkpt>
      <trkpt lat="40.883971" lon="-3.942703">
        <ele>2031.042</ele>
        <time>2021-07-28T20:59:48Z</time>
      </trkpt>
      <trkpt lat="40.883952" lon="-3.942700">
        <ele>2030.724</ele>
        <time>2021-07-28T20:59:50Z</time>
      </trkpt>
      <trkpt lat="40.883930" lon="-3.942692">
        <ele>2030.521</ele>
        <time>2021-07-28T20:59:52Z</time>
      </trkpt>
      <trkpt lat="40.883910" lon="-3.942692">
        <ele>2030.368</ele>
        <time>2021-07-28T20:59:54Z</time>
      </trkpt>
      <trkpt lat="40.883888" lon="-3.942682">
        <ele>2030.089</ele>
        <time>2021-07-28T20:59:57Z</time>
      </trkpt>
      <trkpt lat="40.883866" lon="-3.942668">
        <ele>2029.699</ele>
        <time>2021-07-28T21:00:02Z</time>
      </trkpt>
      <trkpt lat="40.883846" lon="-3.942665">
        <ele>2029.242</ele>
        <time>2021-07-28T21:00:04Z</time>
      </trkpt>
      <trkpt lat="40.883827" lon="-3.942657">
        <ele>2028.983</ele>
        <time>2021-07-28T21:00:06Z</time>
      </trkpt>
      <trkpt lat="40.883808" lon="-3.942647">
        <ele>2028.566</ele>
        <time>2021-07-28T21:00:08Z</time>
      </trkpt>
      <trkpt lat="40.883789" lon="-3.942635">
        <ele>2028.229</ele>
        <time>2021-07-28T21:00:10Z</time>
      </trkpt>
      <trkpt lat="40.883760" lon="-3.942630">
        <ele>2027.721</ele>
        <time>2021-07-28T21:00:12Z</time>
      </trkpt>
      <trkpt lat="40.883741" lon="-3.942617">
        <ele>2027.308</ele>
        <time>2021-07-28T21:00:14Z</time>
      </trkpt>
      <trkpt lat="40.883715" lon="-3.942603">
        <ele>2026.963</ele>
        <time>2021-07-28T21:00:16Z</time>
      </trkpt>
      <trkpt lat="40.883693" lon="-3.942597">
        <ele>2026.585</ele>
        <time>2021-07-28T21:00:18Z</time>
      </trkpt>
      <trkpt lat="40.883670" lon="-3.942590">
        <ele>2026.122</ele>
        <time>2021-07-28T21:00:20Z</time>
      </trkpt>
      <trkpt lat="40.883651" lon="-3.942588">
        <ele>2025.779</ele>
        <time>2021-07-28T21:00:22Z</time>
      </trkpt>
      <trkpt lat="40.883626" lon="-3.942577">
        <ele>2025.350</ele>
        <time>2021-07-28T21:00:25Z</time>
      </trkpt>
      <trkpt lat="40.883597" lon="-3.942578">
        <ele>2024.980</ele>
        <time>2021-07-28T21:00:28Z</time>
      </trkpt>
      <trkpt lat="40.883574" lon="-3.942580">
        <ele>2024.673</ele>
        <time>2021-07-28T21:00:30Z</time>
      </trkpt>
      <trkpt lat="40.883546" lon="-3.942587">
        <ele>2024.444</ele>
        <time>2021-07-28T21:00:33Z</time>
      </trkpt>
      <trkpt lat="40.883523" lon="-3.942587">
        <ele>2024.123</ele>
        <time>2021-07-28T21:00:35Z</time>
      </trkpt>
      <trkpt lat="40.883504" lon="-3.942587">
        <ele>2024.083</ele>
        <time>2021-07-28T21:00:37Z</time>
      </trkpt>
      <trkpt lat="40.883482" lon="-3.942587">
        <ele>2023.811</ele>
        <time>2021-07-28T21:00:39Z</time>
      </trkpt>
      <trkpt lat="40.883450" lon="-3.942585">
        <ele>2023.408</ele>
        <time>2021-07-28T21:00:41Z</time>
      </trkpt>
      <trkpt lat="40.883427" lon="-3.942590">
        <ele>2023.269</ele>
        <time>2021-07-28T21:00:43Z</time>
      </trkpt>
      <trkpt lat="40.883408" lon="-3.942593">
        <ele>2023.191</ele>
        <time>2021-07-28T21:00:45Z</time>
      </trkpt>
      <trkpt lat="40.883389" lon="-3.942598">
        <ele>2022.998</ele>
        <time>2021-07-28T21:00:47Z</time>
      </trkpt>
      <trkpt lat="40.883366" lon="-3.942603">
        <ele>2022.725</ele>
        <time>2021-07-28T21:00:49Z</time>
      </trkpt>
      <trkpt lat="40.883344" lon="-3.942608">
        <ele>2022.566</ele>
        <time>2021-07-28T21:00:51Z</time>
      </trkpt>
      <trkpt lat="40.883318" lon="-3.942617">
        <ele>2022.366</ele>
        <time>2021-07-28T21:00:53Z</time>
      </trkpt>
      <trkpt lat="40.883296" lon="-3.942630">
        <ele>2022.189</ele>
        <time>2021-07-28T21:00:55Z</time>
      </trkpt>
      <trkpt lat="40.883274" lon="-3.942630">
        <ele>2021.930</ele>
        <time>2021-07-28T21:00:57Z</time>
      </trkpt>
      <trkpt lat="40.883251" lon="-3.942625">
        <ele>2021.735</ele>
        <time>2021-07-28T21:00:59Z</time>
      </trkpt>
      <trkpt lat="40.883229" lon="-3.942633">
        <ele>2021.586</ele>
        <time>2021-07-28T21:01:01Z</time>
      </trkpt>
      <trkpt lat="40.883206" lon="-3.942642">
        <ele>2021.414</ele>
        <time>2021-07-28T21:01:03Z</time>
      </trkpt>
      <trkpt lat="40.883184" lon="-3.942652">
        <ele>2021.208</ele>
        <time>2021-07-28T21:01:05Z</time>
      </trkpt>
      <trkpt lat="40.883165" lon="-3.942668">
        <ele>2021.090</ele>
        <time>2021-07-28T21:01:07Z</time>
      </trkpt>
      <trkpt lat="40.883136" lon="-3.942678">
        <ele>2020.832</ele>
        <time>2021-07-28T21:01:09Z</time>
      </trkpt>
      <trkpt lat="40.883117" lon="-3.942686">
        <ele>2020.679</ele>
        <time>2021-07-28T21:01:11Z</time>
      </trkpt>
      <trkpt lat="40.883094" lon="-3.942698">
        <ele>2020.476</ele>
        <time>2021-07-28T21:01:13Z</time>
      </trkpt>
      <trkpt lat="40.883072" lon="-3.942708">
        <ele>2020.287</ele>
        <time>2021-07-28T21:01:15Z</time>
      </trkpt>
      <trkpt lat="40.883053" lon="-3.942720">
        <ele>2020.097</ele>
        <time>2021-07-28T21:01:17Z</time>
      </trkpt>
      <trkpt lat="40.883030" lon="-3.942728">
        <ele>2020.080</ele>
        <time>2021-07-28T21:01:19Z</time>
      </trkpt>
      <trkpt lat="40.883008" lon="-3.942735">
        <ele>2020.021</ele>
        <time>2021-07-28T21:01:21Z</time>
      </trkpt>
      <trkpt lat="40.882986" lon="-3.942737">
        <ele>2020.056</ele>
        <time>2021-07-28T21:01:23Z</time>
      </trkpt>
      <trkpt lat="40.882966" lon="-3.942747">
        <ele>2020.059</ele>
        <time>2021-07-28T21:01:25Z</time>
      </trkpt>
      <trkpt lat="40.882950" lon="-3.942760">
        <ele>2020.014</ele>
        <time>2021-07-28T21:01:27Z</time>
      </trkpt>
      <trkpt lat="40.882931" lon="-3.942772">
        <ele>2020.008</ele>
        <time>2021-07-28T21:01:29Z</time>
      </trkpt>
      <trkpt lat="40.882915" lon="-3.942788">
        <ele>2020.062</ele>
        <time>2021-07-28T21:01:31Z</time>
      </trkpt>
      <trkpt lat="40.882893" lon="-3.942798">
        <ele>2019.944</ele>
        <time>2021-07-28T21:01:34Z</time>
      </trkpt>
      <trkpt lat="40.882874" lon="-3.942805">
        <ele>2019.981</ele>
        <time>2021-07-28T21:01:36Z</time>
      </trkpt>
      <trkpt lat="40.882854" lon="-3.942813">
        <ele>2019.968</ele>
        <time>2021-07-28T21:01:39Z</time>
      </trkpt>
      <trkpt lat="40.882829" lon="-3.942820">
        <ele>2019.859</ele>
        <time>2021-07-28T21:01:41Z</time>
      </trkpt>
      <trkpt lat="40.882806" lon="-3.942832">
        <ele>2019.859</ele>
        <time>2021-07-28T21:01:43Z</time>
      </trkpt>
      <trkpt lat="40.882778" lon="-3.942848">
        <ele>2019.712</ele>
        <time>2021-07-28T21:01:45Z</time>
      </trkpt>
      <trkpt lat="40.882755" lon="-3.942860">
        <ele>2019.743</ele>
        <time>2021-07-28T21:01:47Z</time>
      </trkpt>
      <trkpt lat="40.882739" lon="-3.942874">
        <ele>2019.798</ele>
        <time>2021-07-28T21:01:49Z</time>
      </trkpt>
      <trkpt lat="40.882717" lon="-3.942882">
        <ele>2019.715</ele>
        <time>2021-07-28T21:01:51Z</time>
      </trkpt>
      <trkpt lat="40.882691" lon="-3.942892">
        <ele>2019.726</ele>
        <time>2021-07-28T21:01:54Z</time>
      </trkpt>
      <trkpt lat="40.882669" lon="-3.942905">
        <ele>2019.708</ele>
        <time>2021-07-28T21:01:57Z</time>
      </trkpt>
      <trkpt lat="40.882653" lon="-3.942918">
        <ele>2019.796</ele>
        <time>2021-07-28T21:01:59Z</time>
      </trkpt>
      <trkpt lat="40.882637" lon="-3.942930">
        <ele>2019.728</ele>
        <time>2021-07-28T21:02:01Z</time>
      </trkpt>
      <trkpt lat="40.882611" lon="-3.942935">
        <ele>2019.815</ele>
        <time>2021-07-28T21:02:04Z</time>
      </trkpt>
      <trkpt lat="40.882589" lon="-3.942937">
        <ele>2019.882</ele>
        <time>2021-07-28T21:02:06Z</time>
      </trkpt>
      <trkpt lat="40.882570" lon="-3.942948">
        <ele>2019.833</ele>
        <time>2021-07-28T21:02:08Z</time>
      </trkpt>
      <trkpt lat="40.882550" lon="-3.942960">
        <ele>2019.973</ele>
        <time>2021-07-28T21:02:10Z</time>
      </trkpt>
      <trkpt lat="40.882518" lon="-3.942970">
        <ele>2020.036</ele>
        <time>2021-07-28T21:02:12Z</time>
      </trkpt>
      <trkpt lat="40.882496" lon="-3.942980">
        <ele>2020.027</ele>
        <time>2021-07-28T21:02:14Z</time>
      </trkpt>
      <trkpt lat="40.882474" lon="-3.942990">
        <ele>2020.196</ele>
        <time>2021-07-28T21:02:16Z</time>
      </trkpt>
      <trkpt lat="40.882454" lon="-3.942998">
        <ele>2020.231</ele>
        <time>2021-07-28T21:02:18Z</time>
      </trkpt>
      <trkpt lat="40.882429" lon="-3.942998">
        <ele>2020.324</ele>
        <time>2021-07-28T21:02:20Z</time>
      </trkpt>
      <trkpt lat="40.882410" lon="-3.943012">
        <ele>2020.308</ele>
        <time>2021-07-28T21:02:22Z</time>
      </trkpt>
      <trkpt lat="40.882384" lon="-3.943015">
        <ele>2020.496</ele>
        <time>2021-07-28T21:02:24Z</time>
      </trkpt>
      <trkpt lat="40.882362" lon="-3.943023">
        <ele>2020.538</ele>
        <time>2021-07-28T21:02:26Z</time>
      </trkpt>
      <trkpt lat="40.882336" lon="-3.943026">
        <ele>2020.625</ele>
        <time>2021-07-28T21:02:28Z</time>
      </trkpt>
      <trkpt lat="40.882317" lon="-3.943035">
        <ele>2020.792</ele>
        <time>2021-07-28T21:02:30Z</time>
      </trkpt>
      <trkpt lat="40.882294" lon="-3.943045">
        <ele>2020.793</ele>
        <time>2021-07-28T21:02:32Z</time>
      </trkpt>
      <trkpt lat="40.882275" lon="-3.943052">
        <ele>2020.833</ele>
        <time>2021-07-28T21:02:34Z</time>
      </trkpt>
      <trkpt lat="40.882253" lon="-3.943062">
        <ele>2020.886</ele>
        <time>2021-07-28T21:02:36Z</time>
      </trkpt>
      <trkpt lat="40.882224" lon="-3.943068">
        <ele>2020.927</ele>
        <time>2021-07-28T21:02:38Z</time>
      </trkpt>
      <trkpt lat="40.882205" lon="-3.943070">
        <ele>2021.159</ele>
        <time>2021-07-28T21:02:40Z</time>
      </trkpt>
      <trkpt lat="40.882182" lon="-3.943077">
        <ele>2021.403</ele>
        <time>2021-07-28T21:02:42Z</time>
      </trkpt>
      <trkpt lat="40.882160" lon="-3.943083">
        <ele>2021.723</ele>
        <time>2021-07-28T21:02:44Z</time>
      </trkpt>
      <trkpt lat="40.882138" lon="-3.943092">
        <ele>2022.008</ele>
        <time>2021-07-28T21:02:46Z</time>
      </trkpt>
      <trkpt lat="40.882122" lon="-3.943107">
        <ele>2022.132</ele>
        <time>2021-07-28T21:02:48Z</time>
      </trkpt>
      <trkpt lat="40.882099" lon="-3.943125">
        <ele>2022.364</ele>
        <time>2021-07-28T21:02:50Z</time>
      </trkpt>
      <trkpt lat="40.882080" lon="-3.943138">
        <ele>2022.591</ele>
        <time>2021-07-28T21:02:52Z</time>
      </trkpt>
      <trkpt lat="40.882058" lon="-3.943142">
        <ele>2022.768</ele>
        <time>2021-07-28T21:02:54Z</time>
      </trkpt>
      <trkpt lat="40.882038" lon="-3.943147">
        <ele>2023.069</ele>
        <time>2021-07-28T21:02:56Z</time>
      </trkpt>
      <trkpt lat="40.882016" lon="-3.943152">
        <ele>2023.339</ele>
        <time>2021-07-28T21:02:58Z</time>
      </trkpt>
      <trkpt lat="40.881994" lon="-3.943163">
        <ele>2023.572</ele>
        <time>2021-07-28T21:03:00Z</time>
      </trkpt>
      <trkpt lat="40.881974" lon="-3.943175">
        <ele>2023.773</ele>
        <time>2021-07-28T21:03:02Z</time>
      </trkpt>
      <trkpt lat="40.881955" lon="-3.943190">
        <ele>2023.934</ele>
        <time>2021-07-28T21:03:04Z</time>
      </trkpt>
      <trkpt lat="40.881936" lon="-3.943200">
        <ele>2024.155</ele>
        <time>2021-07-28T21:03:06Z</time>
      </trkpt>
      <trkpt lat="40.881914" lon="-3.943208">
        <ele>2024.310</ele>
        <time>2021-07-28T21:03:08Z</time>
      </trkpt>
      <trkpt lat="40.881894" lon="-3.943220">
        <ele>2024.508</ele>
        <time>2021-07-28T21:03:10Z</time>
      </trkpt>
      <trkpt lat="40.881869" lon="-3.943235">
        <ele>2024.870</ele>
        <time>2021-07-28T21:03:12Z</time>
      </trkpt>
      <trkpt lat="40.881850" lon="-3.943250">
        <ele>2025.042</ele>
        <time>2021-07-28T21:03:14Z</time>
      </trkpt>
      <trkpt lat="40.881827" lon="-3.943263">
        <ele>2025.249</ele>
        <time>2021-07-28T21:03:17Z</time>
      </trkpt>
      <trkpt lat="40.881808" lon="-3.943268">
        <ele>2025.426</ele>
        <time>2021-07-28T21:03:20Z</time>
      </trkpt>
      <trkpt lat="40.881789" lon="-3.943285">
        <ele>2025.617</ele>
        <time>2021-07-28T21:03:22Z</time>
      </trkpt>
      <trkpt lat="40.881776" lon="-3.943308">
        <ele>2025.687</ele>
        <time>2021-07-28T21:03:24Z</time>
      </trkpt>
      <trkpt lat="40.881763" lon="-3.943327">
        <ele>2025.740</ele>
        <time>2021-07-28T21:03:26Z</time>
      </trkpt>
      <trkpt lat="40.881747" lon="-3.943354">
        <ele>2025.661</ele>
        <time>2021-07-28T21:03:28Z</time>
      </trkpt>
      <trkpt lat="40.881734" lon="-3.943373">
        <ele>2025.673</ele>
        <time>2021-07-28T21:03:30Z</time>
      </trkpt>
      <trkpt lat="40.881715" lon="-3.943390">
        <ele>2025.785</ele>
        <time>2021-07-28T21:03:32Z</time>
      </trkpt>
      <trkpt lat="40.881686" lon="-3.943408">
        <ele>2025.913</ele>
        <time>2021-07-28T21:03:35Z</time>
      </trkpt>
      <trkpt lat="40.881670" lon="-3.943427">
        <ele>2025.908</ele>
        <time>2021-07-28T21:03:37Z</time>
      </trkpt>
      <trkpt lat="40.881648" lon="-3.943440">
        <ele>2026.124</ele>
        <time>2021-07-28T21:03:40Z</time>
      </trkpt>
      <trkpt lat="40.881622" lon="-3.943445">
        <ele>2026.516</ele>
        <time>2021-07-28T21:03:42Z</time>
      </trkpt>
      <trkpt lat="40.881606" lon="-3.943462">
        <ele>2026.663</ele>
        <time>2021-07-28T21:03:44Z</time>
      </trkpt>
      <trkpt lat="40.881587" lon="-3.943478">
        <ele>2026.760</ele>
        <time>2021-07-28T21:03:46Z</time>
      </trkpt>
      <trkpt lat="40.881565" lon="-3.943480">
        <ele>2027.181</ele>
        <time>2021-07-28T21:03:48Z</time>
      </trkpt>
      <trkpt lat="40.881542" lon="-3.943485">
        <ele>2027.441</ele>
        <time>2021-07-28T21:03:50Z</time>
      </trkpt>
      <trkpt lat="40.881523" lon="-3.943498">
        <ele>2027.624</ele>
        <time>2021-07-28T21:03:52Z</time>
      </trkpt>
      <trkpt lat="40.881507" lon="-3.943515">
        <ele>2027.735</ele>
        <time>2021-07-28T21:03:54Z</time>
      </trkpt>
      <trkpt lat="40.881488" lon="-3.943524">
        <ele>2028.088</ele>
        <time>2021-07-28T21:03:56Z</time>
      </trkpt>
      <trkpt lat="40.881469" lon="-3.943537">
        <ele>2028.224</ele>
        <time>2021-07-28T21:03:58Z</time>
      </trkpt>
      <trkpt lat="40.881443" lon="-3.943558">
        <ele>2028.426</ele>
        <time>2021-07-28T21:04:01Z</time>
      </trkpt>
      <trkpt lat="40.881427" lon="-3.943572">
        <ele>2028.608</ele>
        <time>2021-07-28T21:04:03Z</time>
      </trkpt>
      <trkpt lat="40.881411" lon="-3.943588">
        <ele>2028.875</ele>
        <time>2021-07-28T21:04:05Z</time>
      </trkpt>
      <trkpt lat="40.881392" lon="-3.943608">
        <ele>2029.097</ele>
        <time>2021-07-28T21:04:08Z</time>
      </trkpt>
      <trkpt lat="40.881366" lon="-3.943625">
        <ele>2029.144</ele>
        <time>2021-07-28T21:04:10Z</time>
      </trkpt>
      <trkpt lat="40.881350" lon="-3.943642">
        <ele>2029.071</ele>
        <time>2021-07-28T21:04:12Z</time>
      </trkpt>
      <trkpt lat="40.881328" lon="-3.943663">
        <ele>2029.072</ele>
        <time>2021-07-28T21:04:15Z</time>
      </trkpt>
      <trkpt lat="40.881312" lon="-3.943677">
        <ele>2028.912</ele>
        <time>2021-07-28T21:04:17Z</time>
      </trkpt>
      <trkpt lat="40.881290" lon="-3.943702">
        <ele>2028.965</ele>
        <time>2021-07-28T21:04:20Z</time>
      </trkpt>
      <trkpt lat="40.881270" lon="-3.943712">
        <ele>2029.036</ele>
        <time>2021-07-28T21:04:22Z</time>
      </trkpt>
      <trkpt lat="40.881251" lon="-3.943712">
        <ele>2029.283</ele>
        <time>2021-07-28T21:04:24Z</time>
      </trkpt>
      <trkpt lat="40.881229" lon="-3.943702">
        <ele>2029.625</ele>
        <time>2021-07-28T21:04:26Z</time>
      </trkpt>
      <trkpt lat="40.881206" lon="-3.943685">
        <ele>2030.117</ele>
        <time>2021-07-28T21:04:29Z</time>
      </trkpt>
      <trkpt lat="40.881194" lon="-3.943668">
        <ele>2030.408</ele>
        <time>2021-07-28T21:04:31Z</time>
      </trkpt>
      <trkpt lat="40.881194" lon="-3.943635">
        <ele>2030.885</ele>
        <time>2021-07-28T21:04:34Z</time>
      </trkpt>
      <trkpt lat="40.881184" lon="-3.943613">
        <ele>2031.287</ele>
        <time>2021-07-28T21:04:36Z</time>
      </trkpt>
      <trkpt lat="40.881165" lon="-3.943597">
        <ele>2031.564</ele>
        <time>2021-07-28T21:04:38Z</time>
      </trkpt>
      <trkpt lat="40.881142" lon="-3.943582">
        <ele>2031.991</ele>
        <time>2021-07-28T21:04:41Z</time>
      </trkpt>
      <trkpt lat="40.881126" lon="-3.943567">
        <ele>2032.232</ele>
        <time>2021-07-28T21:04:43Z</time>
      </trkpt>
      <trkpt lat="40.881107" lon="-3.943550">
        <ele>2032.592</ele>
        <time>2021-07-28T21:04:46Z</time>
      </trkpt>
      <trkpt lat="40.881088" lon="-3.943540">
        <ele>2032.815</ele>
        <time>2021-07-28T21:04:48Z</time>
      </trkpt>
      <trkpt lat="40.881066" lon="-3.943524">
        <ele>2033.176</ele>
        <time>2021-07-28T21:04:51Z</time>
      </trkpt>
      <trkpt lat="40.881040" lon="-3.943513">
        <ele>2033.546</ele>
        <time>2021-07-28T21:04:54Z</time>
      </trkpt>
      <trkpt lat="40.881021" lon="-3.943517">
        <ele>2033.788</ele>
        <time>2021-07-28T21:04:56Z</time>
      </trkpt>
      <trkpt lat="40.880995" lon="-3.943525">
        <ele>2033.916</ele>
        <time>2021-07-28T21:04:58Z</time>
      </trkpt>
      <trkpt lat="40.880973" lon="-3.943540">
        <ele>2034.008</ele>
        <time>2021-07-28T21:05:00Z</time>
      </trkpt>
      <trkpt lat="40.880947" lon="-3.943548">
        <ele>2034.221</ele>
        <time>2021-07-28T21:05:03Z</time>
      </trkpt>
      <trkpt lat="40.880922" lon="-3.943540">
        <ele>2034.623</ele>
        <time>2021-07-28T21:05:07Z</time>
      </trkpt>
      <trkpt lat="40.880896" lon="-3.943532">
        <ele>2034.960</ele>
        <time>2021-07-28T21:05:10Z</time>
      </trkpt>
      <trkpt lat="40.880870" lon="-3.943527">
        <ele>2035.287</ele>
        <time>2021-07-28T21:05:13Z</time>
      </trkpt>
      <trkpt lat="40.880851" lon="-3.943528">
        <ele>2035.438</ele>
        <time>2021-07-28T21:05:15Z</time>
      </trkpt>
      <trkpt lat="40.880832" lon="-3.943524">
        <ele>2035.688</ele>
        <time>2021-07-28T21:05:17Z</time>
      </trkpt>
      <trkpt lat="40.880813" lon="-3.943527">
        <ele>2035.861</ele>
        <time>2021-07-28T21:05:19Z</time>
      </trkpt>
      <trkpt lat="40.880794" lon="-3.943530">
        <ele>2036.082</ele>
        <time>2021-07-28T21:05:21Z</time>
      </trkpt>
      <trkpt lat="40.880774" lon="-3.943542">
        <ele>2036.147</ele>
        <time>2021-07-28T21:05:23Z</time>
      </trkpt>
      <trkpt lat="40.880752" lon="-3.943538">
        <ele>2036.429</ele>
        <time>2021-07-28T21:05:26Z</time>
      </trkpt>
      <trkpt lat="40.880733" lon="-3.943538">
        <ele>2036.621</ele>
        <time>2021-07-28T21:05:28Z</time>
      </trkpt>
      <trkpt lat="40.880714" lon="-3.943534">
        <ele>2036.808</ele>
        <time>2021-07-28T21:05:30Z</time>
      </trkpt>
      <trkpt lat="40.880691" lon="-3.943530">
        <ele>2037.151</ele>
        <time>2021-07-28T21:05:32Z</time>
      </trkpt>
      <trkpt lat="40.880672" lon="-3.943528">
        <ele>2037.363</ele>
        <time>2021-07-28T21:05:35Z</time>
      </trkpt>
      <trkpt lat="40.880653" lon="-3.943525">
        <ele>2037.630</ele>
        <time>2021-07-28T21:05:37Z</time>
      </trkpt>
      <trkpt lat="40.880634" lon="-3.943517">
        <ele>2037.877</ele>
        <time>2021-07-28T21:05:39Z</time>
      </trkpt>
      <trkpt lat="40.880614" lon="-3.943520">
        <ele>2038.088</ele>
        <time>2021-07-28T21:05:41Z</time>
      </trkpt>
      <trkpt lat="40.880595" lon="-3.943522">
        <ele>2038.238</ele>
        <time>2021-07-28T21:05:43Z</time>
      </trkpt>
      <trkpt lat="40.880576" lon="-3.943525">
        <ele>2038.451</ele>
        <time>2021-07-28T21:05:45Z</time>
      </trkpt>
      <trkpt lat="40.880554" lon="-3.943528">
        <ele>2038.622</ele>
        <time>2021-07-28T21:05:47Z</time>
      </trkpt>
      <trkpt lat="40.880534" lon="-3.943527">
        <ele>2038.786</ele>
        <time>2021-07-28T21:05:49Z</time>
      </trkpt>
      <trkpt lat="40.880509" lon="-3.943510">
        <ele>2038.860</ele>
        <time>2021-07-28T21:05:52Z</time>
      </trkpt>
      <trkpt lat="40.880486" lon="-3.943507">
        <ele>2038.926</ele>
        <time>2021-07-28T21:05:54Z</time>
      </trkpt>
      <trkpt lat="40.880464" lon="-3.943498">
        <ele>2039.008</ele>
        <time>2021-07-28T21:05:56Z</time>
      </trkpt>
      <trkpt lat="40.880445" lon="-3.943503">
        <ele>2039.015</ele>
        <time>2021-07-28T21:05:58Z</time>
      </trkpt>
      <trkpt lat="40.880413" lon="-3.943515">
        <ele>2039.017</ele>
        <time>2021-07-28T21:06:01Z</time>
      </trkpt>
      <trkpt lat="40.880394" lon="-3.943522">
        <ele>2039.054</ele>
        <time>2021-07-28T21:06:03Z</time>
      </trkpt>
      <trkpt lat="40.880374" lon="-3.943528">
        <ele>2039.121</ele>
        <time>2021-07-28T21:06:05Z</time>
      </trkpt>
      <trkpt lat="40.880352" lon="-3.943534">
        <ele>2039.132</ele>
        <time>2021-07-28T21:06:07Z</time>
      </trkpt>
      <trkpt lat="40.880333" lon="-3.943534">
        <ele>2039.192</ele>
        <time>2021-07-28T21:06:09Z</time>
      </trkpt>
      <trkpt lat="40.880310" lon="-3.943538">
        <ele>2039.235</ele>
        <time>2021-07-28T21:06:11Z</time>
      </trkpt>
      <trkpt lat="40.880291" lon="-3.943545">
        <ele>2039.246</ele>
        <time>2021-07-28T21:06:13Z</time>
      </trkpt>
      <trkpt lat="40.880272" lon="-3.943545">
        <ele>2039.387</ele>
        <time>2021-07-28T21:06:15Z</time>
      </trkpt>
      <trkpt lat="40.880253" lon="-3.943538">
        <ele>2039.342</ele>
        <time>2021-07-28T21:06:17Z</time>
      </trkpt>
      <trkpt lat="40.880227" lon="-3.943532">
        <ele>2039.426</ele>
        <time>2021-07-28T21:06:20Z</time>
      </trkpt>
      <trkpt lat="40.880198" lon="-3.943535">
        <ele>2039.508</ele>
        <time>2021-07-28T21:06:22Z</time>
      </trkpt>
      <trkpt lat="40.880179" lon="-3.943540">
        <ele>2039.535</ele>
        <time>2021-07-28T21:06:24Z</time>
      </trkpt>
      <trkpt lat="40.880157" lon="-3.943550">
        <ele>2039.697</ele>
        <time>2021-07-28T21:06:26Z</time>
      </trkpt>
      <trkpt lat="40.880131" lon="-3.943564">
        <ele>2039.654</ele>
        <time>2021-07-28T21:06:28Z</time>
      </trkpt>
      <trkpt lat="40.880112" lon="-3.943568">
        <ele>2039.731</ele>
        <time>2021-07-28T21:06:30Z</time>
      </trkpt>
      <trkpt lat="40.880086" lon="-3.943574">
        <ele>2039.742</ele>
        <time>2021-07-28T21:06:32Z</time>
      </trkpt>
      <trkpt lat="40.880058" lon="-3.943583">
        <ele>2039.882</ele>
        <time>2021-07-28T21:06:34Z</time>
      </trkpt>
      <trkpt lat="40.880032" lon="-3.943595">
        <ele>2039.925</ele>
        <time>2021-07-28T21:06:36Z</time>
      </trkpt>
      <trkpt lat="40.880010" lon="-3.943600">
        <ele>2040.086</ele>
        <time>2021-07-28T21:06:38Z</time>
      </trkpt>
      <trkpt lat="40.879978" lon="-3.943607">
        <ele>2040.064</ele>
        <time>2021-07-28T21:06:40Z</time>
      </trkpt>
      <trkpt lat="40.879958" lon="-3.943622">
        <ele>2039.906</ele>
        <time>2021-07-28T21:06:42Z</time>
      </trkpt>
      <trkpt lat="40.879939" lon="-3.943638">
        <ele>2039.816</ele>
        <time>2021-07-28T21:06:44Z</time>
      </trkpt>
      <trkpt lat="40.879914" lon="-3.943658">
        <ele>2039.808</ele>
        <time>2021-07-28T21:06:46Z</time>
      </trkpt>
      <trkpt lat="40.879891" lon="-3.943675">
        <ele>2039.733</ele>
        <time>2021-07-28T21:06:48Z</time>
      </trkpt>
      <trkpt lat="40.879872" lon="-3.943692">
        <ele>2039.765</ele>
        <time>2021-07-28T21:06:50Z</time>
      </trkpt>
      <trkpt lat="40.879853" lon="-3.943692">
        <ele>2039.742</ele>
        <time>2021-07-28T21:06:52Z</time>
      </trkpt>
      <trkpt lat="40.879830" lon="-3.943675">
        <ele>2039.899</ele>
        <time>2021-07-28T21:06:54Z</time>
      </trkpt>
      <trkpt lat="40.879821" lon="-3.943653">
        <ele>2039.920</ele>
        <time>2021-07-28T21:06:57Z</time>
      </trkpt>
      <trkpt lat="40.879802" lon="-3.943645">
        <ele>2039.930</ele>
        <time>2021-07-28T21:07:01Z</time>
      </trkpt>
      <trkpt lat="40.879782" lon="-3.943650">
        <ele>2039.953</ele>
        <time>2021-07-28T21:07:04Z</time>
      </trkpt>
      <trkpt lat="40.879757" lon="-3.943662">
        <ele>2040.084</ele>
        <time>2021-07-28T21:07:06Z</time>
      </trkpt>
      <trkpt lat="40.879738" lon="-3.943680">
        <ele>2040.099</ele>
        <time>2021-07-28T21:07:08Z</time>
      </trkpt>
      <trkpt lat="40.879722" lon="-3.943705">
        <ele>2040.007</ele>
        <time>2021-07-28T21:07:10Z</time>
      </trkpt>
      <trkpt lat="40.879702" lon="-3.943725">
        <ele>2040.027</ele>
        <time>2021-07-28T21:07:12Z</time>
      </trkpt>
      <trkpt lat="40.879677" lon="-3.943745">
        <ele>2040.008</ele>
        <time>2021-07-28T21:07:14Z</time>
      </trkpt>
      <trkpt lat="40.879654" lon="-3.943762">
        <ele>2040.066</ele>
        <time>2021-07-28T21:07:16Z</time>
      </trkpt>
      <trkpt lat="40.879632" lon="-3.943768">
        <ele>2040.048</ele>
        <time>2021-07-28T21:07:18Z</time>
      </trkpt>
      <trkpt lat="40.879600" lon="-3.943770">
        <ele>2040.035</ele>
        <time>2021-07-28T21:07:20Z</time>
      </trkpt>
      <trkpt lat="40.879574" lon="-3.943780">
        <ele>2040.072</ele>
        <time>2021-07-28T21:07:22Z</time>
      </trkpt>
      <trkpt lat="40.879546" lon="-3.943787">
        <ele>2040.043</ele>
        <time>2021-07-28T21:07:24Z</time>
      </trkpt>
      <trkpt lat="40.879530" lon="-3.943800">
        <ele>2040.023</ele>
        <time>2021-07-28T21:07:26Z</time>
      </trkpt>
      <trkpt lat="40.879504" lon="-3.943813">
        <ele>2040.066</ele>
        <time>2021-07-28T21:07:28Z</time>
      </trkpt>
      <trkpt lat="40.879478" lon="-3.943812">
        <ele>2040.057</ele>
        <time>2021-07-28T21:07:31Z</time>
      </trkpt>
      <trkpt lat="40.879456" lon="-3.943810">
        <ele>2040.037</ele>
        <time>2021-07-28T21:07:33Z</time>
      </trkpt>
      <trkpt lat="40.879437" lon="-3.943808">
        <ele>2040.149</ele>
        <time>2021-07-28T21:07:34Z</time>
      </trkpt>
      <trkpt lat="40.879414" lon="-3.943808">
        <ele>2040.213</ele>
        <time>2021-07-28T21:07:36Z</time>
      </trkpt>
      <trkpt lat="40.879395" lon="-3.943815">
        <ele>2040.408</ele>
        <time>2021-07-28T21:07:38Z</time>
      </trkpt>
      <trkpt lat="40.879376" lon="-3.943818">
        <ele>2040.580</ele>
        <time>2021-07-28T21:07:40Z</time>
      </trkpt>
      <trkpt lat="40.879357" lon="-3.943828">
        <ele>2040.612</ele>
        <time>2021-07-28T21:07:42Z</time>
      </trkpt>
      <trkpt lat="40.879334" lon="-3.943832">
        <ele>2040.849</ele>
        <time>2021-07-28T21:07:44Z</time>
      </trkpt>
      <trkpt lat="40.879312" lon="-3.943810">
        <ele>2041.096</ele>
        <time>2021-07-28T21:07:46Z</time>
      </trkpt>
      <trkpt lat="40.879286" lon="-3.943802">
        <ele>2041.167</ele>
        <time>2021-07-28T21:07:48Z</time>
      </trkpt>
      <trkpt lat="40.879264" lon="-3.943808">
        <ele>2041.387</ele>
        <time>2021-07-28T21:07:50Z</time>
      </trkpt>
      <trkpt lat="40.879238" lon="-3.943812">
        <ele>2041.560</ele>
        <time>2021-07-28T21:07:52Z</time>
      </trkpt>
      <trkpt lat="40.879219" lon="-3.943812">
        <ele>2041.681</ele>
        <time>2021-07-28T21:07:54Z</time>
      </trkpt>
      <trkpt lat="40.879197" lon="-3.943812">
        <ele>2041.862</ele>
        <time>2021-07-28T21:07:56Z</time>
      </trkpt>
      <trkpt lat="40.879168" lon="-3.943808">
        <ele>2042.083</ele>
        <time>2021-07-28T21:07:58Z</time>
      </trkpt>
      <trkpt lat="40.879149" lon="-3.943803">
        <ele>2042.211</ele>
        <time>2021-07-28T21:08:00Z</time>
      </trkpt>
      <trkpt lat="40.879120" lon="-3.943793">
        <ele>2042.408</ele>
        <time>2021-07-28T21:08:03Z</time>
      </trkpt>
      <trkpt lat="40.879094" lon="-3.943787">
        <ele>2042.773</ele>
        <time>2021-07-28T21:08:05Z</time>
      </trkpt>
      <trkpt lat="40.879066" lon="-3.943787">
        <ele>2043.075</ele>
        <time>2021-07-28T21:08:07Z</time>
      </trkpt>
      <trkpt lat="40.879043" lon="-3.943787">
        <ele>2043.292</ele>
        <time>2021-07-28T21:08:09Z</time>
      </trkpt>
      <trkpt lat="40.879024" lon="-3.943793">
        <ele>2043.429</ele>
        <time>2021-07-28T21:08:11Z</time>
      </trkpt>
      <trkpt lat="40.879005" lon="-3.943817">
        <ele>2043.620</ele>
        <time>2021-07-28T21:08:14Z</time>
      </trkpt>
      <trkpt lat="40.878986" lon="-3.943825">
        <ele>2043.890</ele>
        <time>2021-07-28T21:08:16Z</time>
      </trkpt>
      <trkpt lat="40.878966" lon="-3.943838">
        <ele>2044.043</ele>
        <time>2021-07-28T21:08:18Z</time>
      </trkpt>
      <trkpt lat="40.878954" lon="-3.943858">
        <ele>2044.214</ele>
        <time>2021-07-28T21:08:20Z</time>
      </trkpt>
      <trkpt lat="40.878938" lon="-3.943874">
        <ele>2044.437</ele>
        <time>2021-07-28T21:08:22Z</time>
      </trkpt>
      <trkpt lat="40.878909" lon="-3.943878">
        <ele>2044.749</ele>
        <time>2021-07-28T21:08:25Z</time>
      </trkpt>
      <trkpt lat="40.878886" lon="-3.943884">
        <ele>2045.013</ele>
        <time>2021-07-28T21:08:27Z</time>
      </trkpt>
      <trkpt lat="40.878864" lon="-3.943882">
        <ele>2045.208</ele>
        <time>2021-07-28T21:08:29Z</time>
      </trkpt>
      <trkpt lat="40.878848" lon="-3.943895">
        <ele>2045.310</ele>
        <time>2021-07-28T21:08:31Z</time>
      </trkpt>
      <trkpt lat="40.878838" lon="-3.943918">
        <ele>2045.532</ele>
        <time>2021-07-28T21:08:33Z</time>
      </trkpt>
      <trkpt lat="40.878829" lon="-3.943940">
        <ele>2045.769</ele>
        <time>2021-07-28T21:08:35Z</time>
      </trkpt>
      <trkpt lat="40.878810" lon="-3.943965">
        <ele>2045.936</ele>
        <time>2021-07-28T21:08:38Z</time>
      </trkpt>
      <trkpt lat="40.878790" lon="-3.943957">
        <ele>2046.077</ele>
        <time>2021-07-28T21:08:40Z</time>
      </trkpt>
      <trkpt lat="40.878768" lon="-3.943965">
        <ele>2046.387</ele>
        <time>2021-07-28T21:08:42Z</time>
      </trkpt>
      <trkpt lat="40.878742" lon="-3.943983">
        <ele>2046.670</ele>
        <time>2021-07-28T21:08:45Z</time>
      </trkpt>
      <trkpt lat="40.878720" lon="-3.943998">
        <ele>2046.821</ele>
        <time>2021-07-28T21:08:48Z</time>
      </trkpt>
      <trkpt lat="40.878701" lon="-3.944018">
        <ele>2047.145</ele>
        <time>2021-07-28T21:08:52Z</time>
      </trkpt>
      <trkpt lat="40.878688" lon="-3.944037">
        <ele>2047.447</ele>
        <time>2021-07-28T21:08:54Z</time>
      </trkpt>
      <trkpt lat="40.878669" lon="-3.944058">
        <ele>2047.711</ele>
        <time>2021-07-28T21:08:57Z</time>
      </trkpt>
      <trkpt lat="40.878646" lon="-3.944072">
        <ele>2048.008</ele>
        <time>2021-07-28T21:09:05Z</time>
      </trkpt>
      <trkpt lat="40.878621" lon="-3.944080">
        <ele>2048.351</ele>
        <time>2021-07-28T21:09:09Z</time>
      </trkpt>
      <trkpt lat="40.878598" lon="-3.944083">
        <ele>2048.623</ele>
        <time>2021-07-28T21:09:11Z</time>
      </trkpt>
      <trkpt lat="40.878582" lon="-3.944108">
        <ele>2048.970</ele>
        <time>2021-07-28T21:09:14Z</time>
      </trkpt>
      <trkpt lat="40.878557" lon="-3.944122">
        <ele>2049.397</ele>
        <time>2021-07-28T21:09:17Z</time>
      </trkpt>
      <trkpt lat="40.878538" lon="-3.944130">
        <ele>2049.648</ele>
        <time>2021-07-28T21:09:19Z</time>
      </trkpt>
      <trkpt lat="40.878509" lon="-3.944143">
        <ele>2050.058</ele>
        <time>2021-07-28T21:09:22Z</time>
      </trkpt>
      <trkpt lat="40.878486" lon="-3.944152">
        <ele>2050.361</ele>
        <time>2021-07-28T21:09:24Z</time>
      </trkpt>
      <trkpt lat="40.878470" lon="-3.944168">
        <ele>2050.572</ele>
        <time>2021-07-28T21:09:26Z</time>
      </trkpt>
      <trkpt lat="40.878442" lon="-3.944183">
        <ele>2050.961</ele>
        <time>2021-07-28T21:09:29Z</time>
      </trkpt>
      <trkpt lat="40.878419" lon="-3.944187">
        <ele>2051.121</ele>
        <time>2021-07-28T21:09:31Z</time>
      </trkpt>
      <trkpt lat="40.878394" lon="-3.944187">
        <ele>2051.413</ele>
        <time>2021-07-28T21:09:33Z</time>
      </trkpt>
      <trkpt lat="40.878365" lon="-3.944183">
        <ele>2051.708</ele>
        <time>2021-07-28T21:09:36Z</time>
      </trkpt>
      <trkpt lat="40.878339" lon="-3.944178">
        <ele>2052.023</ele>
        <time>2021-07-28T21:09:38Z</time>
      </trkpt>
      <trkpt lat="40.878320" lon="-3.944178">
        <ele>2052.165</ele>
        <time>2021-07-28T21:09:40Z</time>
      </trkpt>
      <trkpt lat="40.878301" lon="-3.944180">
        <ele>2052.392</ele>
        <time>2021-07-28T21:09:42Z</time>
      </trkpt>
      <trkpt lat="40.878282" lon="-3.944192">
        <ele>2052.579</ele>
        <time>2021-07-28T21:09:44Z</time>
      </trkpt>
      <trkpt lat="40.878262" lon="-3.944200">
        <ele>2052.760</ele>
        <time>2021-07-28T21:09:46Z</time>
      </trkpt>
      <trkpt lat="40.878234" lon="-3.944207">
        <ele>2052.910</ele>
        <time>2021-07-28T21:09:49Z</time>
      </trkpt>
      <trkpt lat="40.878214" lon="-3.944225">
        <ele>2053.233</ele>
        <time>2021-07-28T21:09:52Z</time>
      </trkpt>
      <trkpt lat="40.878195" lon="-3.944232">
        <ele>2053.344</ele>
        <time>2021-07-28T21:09:54Z</time>
      </trkpt>
      <trkpt lat="40.878170" lon="-3.944234">
        <ele>2053.655</ele>
        <time>2021-07-28T21:09:57Z</time>
      </trkpt>
      <trkpt lat="40.878147" lon="-3.944238">
        <ele>2053.807</ele>
        <time>2021-07-28T21:10:00Z</time>
      </trkpt>
      <trkpt lat="40.878131" lon="-3.944250">
        <ele>2054.017</ele>
        <time>2021-07-28T21:10:02Z</time>
      </trkpt>
      <trkpt lat="40.878109" lon="-3.944258">
        <ele>2054.208</ele>
        <time>2021-07-28T21:10:05Z</time>
      </trkpt>
      <trkpt lat="40.878090" lon="-3.944262">
        <ele>2054.422</ele>
        <time>2021-07-28T21:10:07Z</time>
      </trkpt>
      <trkpt lat="40.878067" lon="-3.944274">
        <ele>2054.764</ele>
        <time>2021-07-28T21:10:10Z</time>
      </trkpt>
      <trkpt lat="40.878042" lon="-3.944278">
        <ele>2054.911</ele>
        <time>2021-07-28T21:10:13Z</time>
      </trkpt>
      <trkpt lat="40.878016" lon="-3.944270">
        <ele>2055.288</ele>
        <time>2021-07-28T21:10:15Z</time>
      </trkpt>
      <trkpt lat="40.877997" lon="-3.944264">
        <ele>2055.339</ele>
        <time>2021-07-28T21:10:17Z</time>
      </trkpt>
      <trkpt lat="40.877981" lon="-3.944275">
        <ele>2055.619</ele>
        <time>2021-07-28T21:10:19Z</time>
      </trkpt>
      <trkpt lat="40.877955" lon="-3.944286">
        <ele>2055.922</ele>
        <time>2021-07-28T21:10:22Z</time>
      </trkpt>
      <trkpt lat="40.877933" lon="-3.944295">
        <ele>2056.293</ele>
        <time>2021-07-28T21:10:25Z</time>
      </trkpt>
      <trkpt lat="40.877917" lon="-3.944312">
        <ele>2056.545</ele>
        <time>2021-07-28T21:10:30Z</time>
      </trkpt>
      <trkpt lat="40.877898" lon="-3.944330">
        <ele>2056.947</ele>
        <time>2021-07-28T21:10:33Z</time>
      </trkpt>
      <trkpt lat="40.877882" lon="-3.944342">
        <ele>2057.111</ele>
        <time>2021-07-28T21:10:35Z</time>
      </trkpt>
      <trkpt lat="40.877853" lon="-3.944358">
        <ele>2057.608</ele>
        <time>2021-07-28T21:10:38Z</time>
      </trkpt>
      <trkpt lat="40.877837" lon="-3.944373">
        <ele>2057.841</ele>
        <time>2021-07-28T21:10:40Z</time>
      </trkpt>
      <trkpt lat="40.877814" lon="-3.944393">
        <ele>2058.263</ele>
        <time>2021-07-28T21:10:43Z</time>
      </trkpt>
      <trkpt lat="40.877792" lon="-3.944410">
        <ele>2058.670</ele>
        <time>2021-07-28T21:10:46Z</time>
      </trkpt>
      <trkpt lat="40.877776" lon="-3.944425">
        <ele>2058.997</ele>
        <time>2021-07-28T21:10:48Z</time>
      </trkpt>
      <trkpt lat="40.877750" lon="-3.944432">
        <ele>2059.258</ele>
        <time>2021-07-28T21:10:51Z</time>
      </trkpt>
      <trkpt lat="40.877725" lon="-3.944432">
        <ele>2059.598</ele>
        <time>2021-07-28T21:10:54Z</time>
      </trkpt>
      <trkpt lat="40.877702" lon="-3.944446">
        <ele>2059.861</ele>
        <time>2021-07-28T21:10:57Z</time>
      </trkpt>
      <trkpt lat="40.877686" lon="-3.944458">
        <ele>2060.062</ele>
        <time>2021-07-28T21:10:59Z</time>
      </trkpt>
      <trkpt lat="40.877658" lon="-3.944465">
        <ele>2060.329</ele>
        <time>2021-07-28T21:11:02Z</time>
      </trkpt>
      <trkpt lat="40.877638" lon="-3.944465">
        <ele>2060.500</ele>
        <time>2021-07-28T21:11:04Z</time>
      </trkpt>
      <trkpt lat="40.877619" lon="-3.944462">
        <ele>2060.720</ele>
        <time>2021-07-28T21:11:06Z</time>
      </trkpt>
      <trkpt lat="40.877597" lon="-3.944466">
        <ele>2061.008</ele>
        <time>2021-07-28T21:11:09Z</time>
      </trkpt>
      <trkpt lat="40.877571" lon="-3.944465">
        <ele>2061.279</ele>
        <time>2021-07-28T21:11:12Z</time>
      </trkpt>
      <trkpt lat="40.877552" lon="-3.944466">
        <ele>2061.421</ele>
        <time>2021-07-28T21:11:15Z</time>
      </trkpt>
      <trkpt lat="40.877536" lon="-3.944482">
        <ele>2061.648</ele>
        <time>2021-07-28T21:11:18Z</time>
      </trkpt>
      <trkpt lat="40.877517" lon="-3.944485">
        <ele>2061.885</ele>
        <time>2021-07-28T21:11:20Z</time>
      </trkpt>
      <trkpt lat="40.877494" lon="-3.944490">
        <ele>2062.196</ele>
        <time>2021-07-28T21:11:23Z</time>
      </trkpt>
      <trkpt lat="40.877472" lon="-3.944492">
        <ele>2062.296</ele>
        <time>2021-07-28T21:11:25Z</time>
      </trkpt>
      <trkpt lat="40.877450" lon="-3.944493">
        <ele>2062.459</ele>
        <time>2021-07-28T21:11:28Z</time>
      </trkpt>
      <trkpt lat="40.877430" lon="-3.944490">
        <ele>2062.670</ele>
        <time>2021-07-28T21:11:30Z</time>
      </trkpt>
      <trkpt lat="40.877408" lon="-3.944485">
        <ele>2062.831</ele>
        <time>2021-07-28T21:11:33Z</time>
      </trkpt>
      <trkpt lat="40.877386" lon="-3.944478">
        <ele>2062.961</ele>
        <time>2021-07-28T21:11:36Z</time>
      </trkpt>
      <trkpt lat="40.877360" lon="-3.944475">
        <ele>2063.107</ele>
        <time>2021-07-28T21:11:39Z</time>
      </trkpt>
      <trkpt lat="40.877338" lon="-3.944472">
        <ele>2063.308</ele>
        <time>2021-07-28T21:11:42Z</time>
      </trkpt>
      <trkpt lat="40.877318" lon="-3.944477">
        <ele>2063.560</ele>
        <time>2021-07-28T21:11:44Z</time>
      </trkpt>
      <trkpt lat="40.877296" lon="-3.944487">
        <ele>2063.762</ele>
        <time>2021-07-28T21:11:47Z</time>
      </trkpt>
      <trkpt lat="40.877274" lon="-3.944495">
        <ele>2063.949</ele>
        <time>2021-07-28T21:11:50Z</time>
      </trkpt>
      <trkpt lat="40.877251" lon="-3.944495">
        <ele>2064.116</ele>
        <time>2021-07-28T21:11:52Z</time>
      </trkpt>
      <trkpt lat="40.877222" lon="-3.944507">
        <ele>2064.567</ele>
        <time>2021-07-28T21:11:55Z</time>
      </trkpt>
      <trkpt lat="40.877197" lon="-3.944507">
        <ele>2065.277</ele>
        <time>2021-07-28T21:11:58Z</time>
      </trkpt>
      <trkpt lat="40.877178" lon="-3.944508">
        <ele>2065.770</ele>
        <time>2021-07-28T21:12:00Z</time>
      </trkpt>
      <trkpt lat="40.877155" lon="-3.944517">
        <ele>2066.461</ele>
        <time>2021-07-28T21:12:03Z</time>
      </trkpt>
      <trkpt lat="40.877136" lon="-3.944522">
        <ele>2067.083</ele>
        <time>2021-07-28T21:12:05Z</time>
      </trkpt>
      <trkpt lat="40.877117" lon="-3.944523">
        <ele>2067.525</ele>
        <time>2021-07-28T21:12:07Z</time>
      </trkpt>
      <trkpt lat="40.877098" lon="-3.944527">
        <ele>2068.017</ele>
        <time>2021-07-28T21:12:09Z</time>
      </trkpt>
      <trkpt lat="40.877075" lon="-3.944535">
        <ele>2068.708</ele>
        <time>2021-07-28T21:12:12Z</time>
      </trkpt>
      <trkpt lat="40.877059" lon="-3.944553">
        <ele>2069.375</ele>
        <time>2021-07-28T21:12:14Z</time>
      </trkpt>
      <trkpt lat="40.877037" lon="-3.944570">
        <ele>2069.997</ele>
        <time>2021-07-28T21:12:17Z</time>
      </trkpt>
      <trkpt lat="40.877018" lon="-3.944585">
        <ele>2070.534</ele>
        <time>2021-07-28T21:12:20Z</time>
      </trkpt>
      <trkpt lat="40.876998" lon="-3.944594">
        <ele>2071.151</ele>
        <time>2021-07-28T21:12:22Z</time>
      </trkpt>
      <trkpt lat="40.876979" lon="-3.944595">
        <ele>2071.682</ele>
        <time>2021-07-28T21:12:24Z</time>
      </trkpt>
      <trkpt lat="40.876960" lon="-3.944587">
        <ele>2072.162</ele>
        <time>2021-07-28T21:12:26Z</time>
      </trkpt>
      <trkpt lat="40.876941" lon="-3.944577">
        <ele>2072.665</ele>
        <time>2021-07-28T21:12:29Z</time>
      </trkpt>
      <trkpt lat="40.876922" lon="-3.944584">
        <ele>2073.066</ele>
        <time>2021-07-28T21:12:32Z</time>
      </trkpt>
      <trkpt lat="40.876902" lon="-3.944588">
        <ele>2073.467</ele>
        <time>2021-07-28T21:12:34Z</time>
      </trkpt>
      <trkpt lat="40.876880" lon="-3.944598">
        <ele>2074.081</ele>
        <time>2021-07-28T21:12:37Z</time>
      </trkpt>
      <trkpt lat="40.876854" lon="-3.944608">
        <ele>2074.619</ele>
        <time>2021-07-28T21:12:40Z</time>
      </trkpt>
      <trkpt lat="40.876829" lon="-3.944622">
        <ele>2075.208</ele>
        <time>2021-07-28T21:12:43Z</time>
      </trkpt>
      <trkpt lat="40.876810" lon="-3.944643">
        <ele>2075.833</ele>
        <time>2021-07-28T21:12:46Z</time>
      </trkpt>
      <trkpt lat="40.876784" lon="-3.944662">
        <ele>2076.685</ele>
        <time>2021-07-28T21:12:49Z</time>
      </trkpt>
      <trkpt lat="40.876771" lon="-3.944680">
        <ele>2077.092</ele>
        <time>2021-07-28T21:12:52Z</time>
      </trkpt>
      <trkpt lat="40.876755" lon="-3.944695">
        <ele>2077.599</ele>
        <time>2021-07-28T21:12:55Z</time>
      </trkpt>
      <trkpt lat="40.876730" lon="-3.944700">
        <ele>2078.260</ele>
        <time>2021-07-28T21:12:58Z</time>
      </trkpt>
      <trkpt lat="40.876710" lon="-3.944722">
        <ele>2078.960</ele>
        <time>2021-07-28T21:13:01Z</time>
      </trkpt>
      <trkpt lat="40.876694" lon="-3.944740">
        <ele>2079.313</ele>
        <time>2021-07-28T21:13:03Z</time>
      </trkpt>
      <trkpt lat="40.876682" lon="-3.944772">
        <ele>2079.674</ele>
        <time>2021-07-28T21:13:06Z</time>
      </trkpt>
      <trkpt lat="40.876662" lon="-3.944790">
        <ele>2080.176</ele>
        <time>2021-07-28T21:13:09Z</time>
      </trkpt>
      <trkpt lat="40.876646" lon="-3.944808">
        <ele>2080.390</ele>
        <time>2021-07-28T21:13:12Z</time>
      </trkpt>
      <trkpt lat="40.876621" lon="-3.944818">
        <ele>2080.719</ele>
        <time>2021-07-28T21:13:16Z</time>
      </trkpt>
      <trkpt lat="40.876598" lon="-3.944820">
        <ele>2081.008</ele>
        <time>2021-07-28T21:13:18Z</time>
      </trkpt>
      <trkpt lat="40.876576" lon="-3.944823">
        <ele>2081.394</ele>
        <time>2021-07-28T21:13:21Z</time>
      </trkpt>
      <trkpt lat="40.876554" lon="-3.944820">
        <ele>2081.626</ele>
        <time>2021-07-28T21:13:24Z</time>
      </trkpt>
      <trkpt lat="40.876531" lon="-3.944823">
        <ele>2082.083</ele>
        <time>2021-07-28T21:13:27Z</time>
      </trkpt>
      <trkpt lat="40.876506" lon="-3.944827">
        <ele>2082.450</ele>
        <time>2021-07-28T21:13:29Z</time>
      </trkpt>
      <trkpt lat="40.876486" lon="-3.944833">
        <ele>2082.771</ele>
        <time>2021-07-28T21:13:31Z</time>
      </trkpt>
      <trkpt lat="40.876467" lon="-3.944848">
        <ele>2083.121</ele>
        <time>2021-07-28T21:13:33Z</time>
      </trkpt>
      <trkpt lat="40.876445" lon="-3.944863">
        <ele>2083.694</ele>
        <time>2021-07-28T21:13:36Z</time>
      </trkpt>
      <trkpt lat="40.876426" lon="-3.944875">
        <ele>2084.055</ele>
        <time>2021-07-28T21:13:38Z</time>
      </trkpt>
      <trkpt lat="40.876406" lon="-3.944880">
        <ele>2084.444</ele>
        <time>2021-07-28T21:13:40Z</time>
      </trkpt>
      <trkpt lat="40.876387" lon="-3.944877">
        <ele>2084.705</ele>
        <time>2021-07-28T21:13:42Z</time>
      </trkpt>
      <trkpt lat="40.876362" lon="-3.944878">
        <ele>2085.015</ele>
        <time>2021-07-28T21:13:45Z</time>
      </trkpt>
      <trkpt lat="40.876336" lon="-3.944877">
        <ele>2085.308</ele>
        <time>2021-07-28T21:13:48Z</time>
      </trkpt>
      <trkpt lat="40.876317" lon="-3.944895">
        <ele>2085.821</ele>
        <time>2021-07-28T21:13:51Z</time>
      </trkpt>
      <trkpt lat="40.876298" lon="-3.944918">
        <ele>2086.393</ele>
        <time>2021-07-28T21:13:55Z</time>
      </trkpt>
      <trkpt lat="40.876282" lon="-3.944932">
        <ele>2086.760</ele>
        <time>2021-07-28T21:13:58Z</time>
      </trkpt>
      <trkpt lat="40.876266" lon="-3.944950">
        <ele>2087.277</ele>
        <time>2021-07-28T21:14:01Z</time>
      </trkpt>
      <trkpt lat="40.876259" lon="-3.944974">
        <ele>2087.518</ele>
        <time>2021-07-28T21:14:03Z</time>
      </trkpt>
      <trkpt lat="40.876246" lon="-3.945000">
        <ele>2088.138</ele>
        <time>2021-07-28T21:14:06Z</time>
      </trkpt>
      <trkpt lat="40.876227" lon="-3.945018">
        <ele>2088.651</ele>
        <time>2021-07-28T21:14:09Z</time>
      </trkpt>
      <trkpt lat="40.876202" lon="-3.945032">
        <ele>2089.222</ele>
        <time>2021-07-28T21:14:12Z</time>
      </trkpt>
      <trkpt lat="40.876182" lon="-3.945040">
        <ele>2089.679</ele>
        <time>2021-07-28T21:14:15Z</time>
      </trkpt>
      <trkpt lat="40.876163" lon="-3.945043">
        <ele>2090.005</ele>
        <time>2021-07-28T21:14:17Z</time>
      </trkpt>
      <trkpt lat="40.876141" lon="-3.945048">
        <ele>2090.425</ele>
        <time>2021-07-28T21:14:20Z</time>
      </trkpt>
      <trkpt lat="40.876115" lon="-3.945065">
        <ele>2091.108</ele>
        <time>2021-07-28T21:14:23Z</time>
      </trkpt>
      <trkpt lat="40.876096" lon="-3.945088">
        <ele>2091.734</ele>
        <time>2021-07-28T21:14:26Z</time>
      </trkpt>
      <trkpt lat="40.876077" lon="-3.945097">
        <ele>2092.026</ele>
        <time>2021-07-28T21:14:28Z</time>
      </trkpt>
      <trkpt lat="40.876058" lon="-3.945107">
        <ele>2092.413</ele>
        <time>2021-07-28T21:14:31Z</time>
      </trkpt>
      <trkpt lat="40.876029" lon="-3.945120">
        <ele>2092.950</ele>
        <time>2021-07-28T21:14:34Z</time>
      </trkpt>
      <trkpt lat="40.876010" lon="-3.945130">
        <ele>2093.241</ele>
        <time>2021-07-28T21:14:36Z</time>
      </trkpt>
      <trkpt lat="40.875990" lon="-3.945155">
        <ele>2093.971</ele>
        <time>2021-07-28T21:14:39Z</time>
      </trkpt>
      <trkpt lat="40.875968" lon="-3.945172">
        <ele>2094.454</ele>
        <time>2021-07-28T21:14:42Z</time>
      </trkpt>
      <trkpt lat="40.875949" lon="-3.945193">
        <ele>2095.055</ele>
        <time>2021-07-28T21:14:45Z</time>
      </trkpt>
      <trkpt lat="40.875930" lon="-3.945218">
        <ele>2095.722</ele>
        <time>2021-07-28T21:14:49Z</time>
      </trkpt>
      <trkpt lat="40.875917" lon="-3.945242">
        <ele>2096.462</ele>
        <time>2021-07-28T21:14:52Z</time>
      </trkpt>
      <trkpt lat="40.875904" lon="-3.945263">
        <ele>2096.908</ele>
        <time>2021-07-28T21:14:55Z</time>
      </trkpt>
      <trkpt lat="40.875891" lon="-3.945280">
        <ele>2097.408</ele>
        <time>2021-07-28T21:14:57Z</time>
      </trkpt>
      <trkpt lat="40.875882" lon="-3.945302">
        <ele>2097.669</ele>
        <time>2021-07-28T21:15:31Z</time>
      </trkpt>
      <trkpt lat="40.875866" lon="-3.945328">
        <ele>2098.021</ele>
        <time>2021-07-28T21:15:33Z</time>
      </trkpt>
      <trkpt lat="40.875850" lon="-3.945362">
        <ele>2098.468</ele>
        <time>2021-07-28T21:15:35Z</time>
      </trkpt>
      <trkpt lat="40.875837" lon="-3.945387">
        <ele>2098.765</ele>
        <time>2021-07-28T21:15:37Z</time>
      </trkpt>
      <trkpt lat="40.875821" lon="-3.945418">
        <ele>2099.076</ele>
        <time>2021-07-28T21:15:39Z</time>
      </trkpt>
      <trkpt lat="40.875805" lon="-3.945440">
        <ele>2099.276</ele>
        <time>2021-07-28T21:15:41Z</time>
      </trkpt>
      <trkpt lat="40.875789" lon="-3.945460">
        <ele>2099.439</ele>
        <time>2021-07-28T21:15:44Z</time>
      </trkpt>
      <trkpt lat="40.875773" lon="-3.945473">
        <ele>2099.620</ele>
        <time>2021-07-28T21:15:46Z</time>
      </trkpt>
      <trkpt lat="40.875757" lon="-3.945498">
        <ele>2099.853</ele>
        <time>2021-07-28T21:15:49Z</time>
      </trkpt>
      <trkpt lat="40.875741" lon="-3.945525">
        <ele>2100.104</ele>
        <time>2021-07-28T21:15:52Z</time>
      </trkpt>
      <trkpt lat="40.875722" lon="-3.945537">
        <ele>2100.214</ele>
        <time>2021-07-28T21:15:55Z</time>
      </trkpt>
      <trkpt lat="40.875699" lon="-3.945545">
        <ele>2100.408</ele>
        <time>2021-07-28T21:15:58Z</time>
      </trkpt>
      <trkpt lat="40.875677" lon="-3.945550">
        <ele>2100.552</ele>
        <time>2021-07-28T21:16:01Z</time>
      </trkpt>
      <trkpt lat="40.875651" lon="-3.945553">
        <ele>2100.614</ele>
        <time>2021-07-28T21:16:03Z</time>
      </trkpt>
      <trkpt lat="40.875632" lon="-3.945563">
        <ele>2100.731</ele>
        <time>2021-07-28T21:16:05Z</time>
      </trkpt>
      <trkpt lat="40.875610" lon="-3.945582">
        <ele>2100.938</ele>
        <time>2021-07-28T21:16:08Z</time>
      </trkpt>
      <trkpt lat="40.875594" lon="-3.945607">
        <ele>2101.089</ele>
        <time>2021-07-28T21:16:11Z</time>
      </trkpt>
      <trkpt lat="40.875587" lon="-3.945638">
        <ele>2101.269</ele>
        <time>2021-07-28T21:16:14Z</time>
      </trkpt>
      <trkpt lat="40.875581" lon="-3.945662">
        <ele>2101.322</ele>
        <time>2021-07-28T21:16:17Z</time>
      </trkpt>
      <trkpt lat="40.875571" lon="-3.945695">
        <ele>2101.413</ele>
        <time>2021-07-28T21:16:20Z</time>
      </trkpt>
      <trkpt lat="40.875578" lon="-3.945723">
        <ele>2101.531</ele>
        <time>2021-07-28T21:16:23Z</time>
      </trkpt>
      <trkpt lat="40.875571" lon="-3.945748">
        <ele>2101.661</ele>
        <time>2021-07-28T21:16:25Z</time>
      </trkpt>
      <trkpt lat="40.875571" lon="-3.945777">
        <ele>2101.707</ele>
        <time>2021-07-28T21:16:28Z</time>
      </trkpt>
      <trkpt lat="40.875552" lon="-3.945800">
        <ele>2102.008</ele>
        <time>2021-07-28T21:16:31Z</time>
      </trkpt>
      <trkpt lat="40.875539" lon="-3.945830">
        <ele>2102.530</ele>
        <time>2021-07-28T21:16:35Z</time>
      </trkpt>
      <trkpt lat="40.875526" lon="-3.945860">
        <ele>2103.042</ele>
        <time>2021-07-28T21:16:38Z</time>
      </trkpt>
      <trkpt lat="40.875514" lon="-3.945888">
        <ele>2103.599</ele>
        <time>2021-07-28T21:16:41Z</time>
      </trkpt>
      <trkpt lat="40.875504" lon="-3.945912">
        <ele>2104.066</ele>
        <time>2021-07-28T21:16:44Z</time>
      </trkpt>
      <trkpt lat="40.875488" lon="-3.945933">
        <ele>2104.777</ele>
        <time>2021-07-28T21:16:47Z</time>
      </trkpt>
      <trkpt lat="40.875469" lon="-3.945952">
        <ele>2105.697</ele>
        <time>2021-07-28T21:16:51Z</time>
      </trkpt>
      <trkpt lat="40.875453" lon="-3.945968">
        <ele>2106.370</ele>
        <time>2021-07-28T21:16:54Z</time>
      </trkpt>
      <trkpt lat="40.875434" lon="-3.945970">
        <ele>2107.121</ele>
        <time>2021-07-28T21:16:56Z</time>
      </trkpt>
      <trkpt lat="40.875414" lon="-3.945975">
        <ele>2107.977</ele>
        <time>2021-07-28T21:16:58Z</time>
      </trkpt>
      <trkpt lat="40.875395" lon="-3.945982">
        <ele>2108.761</ele>
        <time>2021-07-28T21:17:00Z</time>
      </trkpt>
      <trkpt lat="40.875370" lon="-3.945988">
        <ele>2109.827</ele>
        <time>2021-07-28T21:17:03Z</time>
      </trkpt>
      <trkpt lat="40.875344" lon="-3.946000">
        <ele>2111.008</ele>
        <time>2021-07-28T21:17:06Z</time>
      </trkpt>
      <trkpt lat="40.875322" lon="-3.946005">
        <ele>2111.994</ele>
        <time>2021-07-28T21:17:09Z</time>
      </trkpt>
      <trkpt lat="40.875296" lon="-3.946008">
        <ele>2113.066</ele>
        <time>2021-07-28T21:17:12Z</time>
      </trkpt>
      <trkpt lat="40.875267" lon="-3.946002">
        <ele>2113.793</ele>
        <time>2021-07-28T21:17:15Z</time>
      </trkpt>
      <trkpt lat="40.875245" lon="-3.946000">
        <ele>2113.950</ele>
        <time>2021-07-28T21:17:18Z</time>
      </trkpt>
      <trkpt lat="40.875216" lon="-3.945997">
        <ele>2114.091</ele>
        <time>2021-07-28T21:17:20Z</time>
      </trkpt>
      <trkpt lat="40.875197" lon="-3.946004">
        <ele>2114.321</ele>
        <time>2021-07-28T21:17:22Z</time>
      </trkpt>
      <trkpt lat="40.875181" lon="-3.946020">
        <ele>2114.824</ele>
        <time>2021-07-28T21:17:24Z</time>
      </trkpt>
      <trkpt lat="40.875165" lon="-3.946040">
        <ele>2115.555</ele>
        <time>2021-07-28T21:17:26Z</time>
      </trkpt>
      <trkpt lat="40.875152" lon="-3.946060">
        <ele>2116.117</ele>
        <time>2021-07-28T21:17:28Z</time>
      </trkpt>
      <trkpt lat="40.875133" lon="-3.946070">
        <ele>2116.587</ele>
        <time>2021-07-28T21:17:31Z</time>
      </trkpt>
      <trkpt lat="40.875110" lon="-3.946070">
        <ele>2116.715</ele>
        <time>2021-07-28T21:17:33Z</time>
      </trkpt>
      <trkpt lat="40.875088" lon="-3.946075">
        <ele>2117.108</ele>
        <time>2021-07-28T21:17:36Z</time>
      </trkpt>
      <trkpt lat="40.875066" lon="-3.946088">
        <ele>2117.738</ele>
        <time>2021-07-28T21:17:39Z</time>
      </trkpt>
      <trkpt lat="40.875046" lon="-3.946090">
        <ele>2117.980</ele>
        <time>2021-07-28T21:17:41Z</time>
      </trkpt>
      <trkpt lat="40.875024" lon="-3.946100">
        <ele>2118.467</ele>
        <time>2021-07-28T21:17:44Z</time>
      </trkpt>
      <trkpt lat="40.875008" lon="-3.946113">
        <ele>2118.924</ele>
        <time>2021-07-28T21:17:46Z</time>
      </trkpt>
      <trkpt lat="40.874992" lon="-3.946135">
        <ele>2119.095</ele>
        <time>2021-07-28T21:17:49Z</time>
      </trkpt>
      <trkpt lat="40.874970" lon="-3.946143">
        <ele>2118.895</ele>
        <time>2021-07-28T21:17:52Z</time>
      </trkpt>
      <trkpt lat="40.874950" lon="-3.946142">
        <ele>2118.648</ele>
        <time>2021-07-28T21:17:54Z</time>
      </trkpt>
      <trkpt lat="40.874931" lon="-3.946135">
        <ele>2118.459</ele>
        <time>2021-07-28T21:17:56Z</time>
      </trkpt>
      <trkpt lat="40.874909" lon="-3.946128">
        <ele>2118.166</ele>
        <time>2021-07-28T21:17:58Z</time>
      </trkpt>
      <trkpt lat="40.874890" lon="-3.946137">
        <ele>2117.929</ele>
        <time>2021-07-28T21:18:01Z</time>
      </trkpt>
      <trkpt lat="40.874867" lon="-3.946148">
        <ele>2117.821</ele>
        <time>2021-07-28T21:18:04Z</time>
      </trkpt>
      <trkpt lat="40.874848" lon="-3.946152">
        <ele>2117.608</ele>
        <time>2021-07-28T21:18:06Z</time>
      </trkpt>
      <trkpt lat="40.874832" lon="-3.946175">
        <ele>2117.633</ele>
        <time>2021-07-28T21:18:08Z</time>
      </trkpt>
      <trkpt lat="40.874826" lon="-3.946200">
        <ele>2117.675</ele>
        <time>2021-07-28T21:18:10Z</time>
      </trkpt>
      <trkpt lat="40.874819" lon="-3.946225">
        <ele>2117.792</ele>
        <time>2021-07-28T21:18:12Z</time>
      </trkpt>
      <trkpt lat="40.874803" lon="-3.946240">
        <ele>2117.729</ele>
        <time>2021-07-28T21:18:15Z</time>
      </trkpt>
      <trkpt lat="40.874784" lon="-3.946248">
        <ele>2117.590</ele>
        <time>2021-07-28T21:18:17Z</time>
      </trkpt>
      <trkpt lat="40.874758" lon="-3.946253">
        <ele>2117.330</ele>
        <time>2021-07-28T21:18:20Z</time>
      </trkpt>
      <trkpt lat="40.874739" lon="-3.946265">
        <ele>2117.313</ele>
        <time>2021-07-28T21:18:22Z</time>
      </trkpt>
      <trkpt lat="40.874720" lon="-3.946280">
        <ele>2117.214</ele>
        <time>2021-07-28T21:18:25Z</time>
      </trkpt>
      <trkpt lat="40.874698" lon="-3.946292">
        <ele>2117.453</ele>
        <time>2021-07-28T21:18:28Z</time>
      </trkpt>
      <trkpt lat="40.874672" lon="-3.946312">
        <ele>2117.604</ele>
        <time>2021-07-28T21:18:31Z</time>
      </trkpt>
      <trkpt lat="40.874656" lon="-3.946328">
        <ele>2117.814</ele>
        <time>2021-07-28T21:18:33Z</time>
      </trkpt>
      <trkpt lat="40.874640" lon="-3.946345">
        <ele>2118.108</ele>
        <time>2021-07-28T21:18:35Z</time>
      </trkpt>
      <trkpt lat="40.874618" lon="-3.946352">
        <ele>2118.372</ele>
        <time>2021-07-28T21:18:38Z</time>
      </trkpt>
      <trkpt lat="40.874592" lon="-3.946342">
        <ele>2118.394</ele>
        <time>2021-07-28T21:18:40Z</time>
      </trkpt>
      <trkpt lat="40.874573" lon="-3.946327">
        <ele>2118.291</ele>
        <time>2021-07-28T21:18:43Z</time>
      </trkpt>
      <trkpt lat="40.874557" lon="-3.946307">
        <ele>2117.998</ele>
        <time>2021-07-28T21:18:46Z</time>
      </trkpt>
      <trkpt lat="40.874538" lon="-3.946290">
        <ele>2117.789</ele>
        <time>2021-07-28T21:18:48Z</time>
      </trkpt>
      <trkpt lat="40.874518" lon="-3.946293">
        <ele>2117.819</ele>
        <time>2021-07-28T21:18:50Z</time>
      </trkpt>
      <trkpt lat="40.874496" lon="-3.946300">
        <ele>2117.992</ele>
        <time>2021-07-28T21:18:52Z</time>
      </trkpt>
      <trkpt lat="40.874474" lon="-3.946315">
        <ele>2118.343</ele>
        <time>2021-07-28T21:18:55Z</time>
      </trkpt>
      <trkpt lat="40.874451" lon="-3.946325">
        <ele>2118.657</ele>
        <time>2021-07-28T21:18:58Z</time>
      </trkpt>
      <trkpt lat="40.874422" lon="-3.946328">
        <ele>2118.600</ele>
        <time>2021-07-28T21:19:01Z</time>
      </trkpt>
      <trkpt lat="40.874406" lon="-3.946344">
        <ele>2119.020</ele>
        <time>2021-07-28T21:19:04Z</time>
      </trkpt>
      <trkpt lat="40.874394" lon="-3.946364">
        <ele>2119.408</ele>
        <time>2021-07-28T21:19:07Z</time>
      </trkpt>
      <trkpt lat="40.874371" lon="-3.946375">
        <ele>2119.712</ele>
        <time>2021-07-28T21:19:11Z</time>
      </trkpt>
      <trkpt lat="40.874352" lon="-3.946382">
        <ele>2119.824</ele>
        <time>2021-07-28T21:19:13Z</time>
      </trkpt>
      <trkpt lat="40.874336" lon="-3.946403">
        <ele>2119.971</ele>
        <time>2021-07-28T21:19:16Z</time>
      </trkpt>
      <trkpt lat="40.874317" lon="-3.946418">
        <ele>2119.948</ele>
        <time>2021-07-28T21:19:19Z</time>
      </trkpt>
      <trkpt lat="40.874298" lon="-3.946417">
        <ele>2120.059</ele>
        <time>2021-07-28T21:19:21Z</time>
      </trkpt>
      <trkpt lat="40.874275" lon="-3.946417">
        <ele>2120.019</ele>
        <time>2021-07-28T21:19:23Z</time>
      </trkpt>
      <trkpt lat="40.874250" lon="-3.946428">
        <ele>2120.132</ele>
        <time>2021-07-28T21:19:26Z</time>
      </trkpt>
      <trkpt lat="40.874230" lon="-3.946427">
        <ele>2120.283</ele>
        <time>2021-07-28T21:19:28Z</time>
      </trkpt>
      <trkpt lat="40.874211" lon="-3.946435">
        <ele>2120.313</ele>
        <time>2021-07-28T21:19:30Z</time>
      </trkpt>
      <trkpt lat="40.874195" lon="-3.946458">
        <ele>2120.643</ele>
        <time>2021-07-28T21:19:33Z</time>
      </trkpt>
      <trkpt lat="40.874179" lon="-3.946475">
        <ele>2120.807</ele>
        <time>2021-07-28T21:19:36Z</time>
      </trkpt>
      <trkpt lat="40.874163" lon="-3.946497">
        <ele>2121.208</ele>
        <time>2021-07-28T21:19:39Z</time>
      </trkpt>
      <trkpt lat="40.874154" lon="-3.946518">
        <ele>2121.528</ele>
        <time>2021-07-28T21:19:44Z</time>
      </trkpt>
      <trkpt lat="40.874144" lon="-3.946542">
        <ele>2121.980</ele>
        <time>2021-07-28T21:19:48Z</time>
      </trkpt>
      <trkpt lat="40.874122" lon="-3.946548">
        <ele>2122.377</ele>
        <time>2021-07-28T21:19:51Z</time>
      </trkpt>
      <trkpt lat="40.874099" lon="-3.946556">
        <ele>2122.724</ele>
        <time>2021-07-28T21:19:55Z</time>
      </trkpt>
      <trkpt lat="40.874080" lon="-3.946575">
        <ele>2123.415</ele>
        <time>2021-07-28T21:19:59Z</time>
      </trkpt>
      <trkpt lat="40.874064" lon="-3.946595">
        <ele>2124.115</ele>
        <time>2021-07-28T21:20:02Z</time>
      </trkpt>
      <trkpt lat="40.874054" lon="-3.946618">
        <ele>2124.728</ele>
        <time>2021-07-28T21:20:04Z</time>
      </trkpt>
      <trkpt lat="40.874035" lon="-3.946633">
        <ele>2125.599</ele>
        <time>2021-07-28T21:20:06Z</time>
      </trkpt>
      <trkpt lat="40.874013" lon="-3.946652">
        <ele>2126.552</ele>
        <time>2021-07-28T21:20:08Z</time>
      </trkpt>
      <trkpt lat="40.873997" lon="-3.946663">
        <ele>2127.253</ele>
        <time>2021-07-28T21:20:10Z</time>
      </trkpt>
      <trkpt lat="40.873978" lon="-3.946678">
        <ele>2127.608</ele>
        <time>2021-07-28T21:20:12Z</time>
      </trkpt>
      <trkpt lat="40.873958" lon="-3.946687">
        <ele>2127.908</ele>
        <time>2021-07-28T21:20:14Z</time>
      </trkpt>
      <trkpt lat="40.873936" lon="-3.946688">
        <ele>2128.592</ele>
        <time>2021-07-28T21:20:16Z</time>
      </trkpt>
      <trkpt lat="40.873917" lon="-3.946694">
        <ele>2128.914</ele>
        <time>2021-07-28T21:20:18Z</time>
      </trkpt>
      <trkpt lat="40.873891" lon="-3.946700">
        <ele>2129.561</ele>
        <time>2021-07-28T21:20:20Z</time>
      </trkpt>
      <trkpt lat="40.873878" lon="-3.946727">
        <ele>2129.158</ele>
        <time>2021-07-28T21:20:22Z</time>
      </trkpt>
      <trkpt lat="40.873872" lon="-3.946752">
        <ele>2128.839</ele>
        <time>2021-07-28T21:20:24Z</time>
      </trkpt>
      <trkpt lat="40.873859" lon="-3.946770">
        <ele>2128.589</ele>
        <time>2021-07-28T21:20:26Z</time>
      </trkpt>
      <trkpt lat="40.873837" lon="-3.946777">
        <ele>2128.592</ele>
        <time>2021-07-28T21:20:28Z</time>
      </trkpt>
      <trkpt lat="40.873811" lon="-3.946787">
        <ele>2128.453</ele>
        <time>2021-07-28T21:20:32Z</time>
      </trkpt>
      <trkpt lat="40.873795" lon="-3.946808">
        <ele>2128.329</ele>
        <time>2021-07-28T21:20:34Z</time>
      </trkpt>
      <trkpt lat="40.873776" lon="-3.946818">
        <ele>2128.300</ele>
        <time>2021-07-28T21:20:36Z</time>
      </trkpt>
      <trkpt lat="40.873776" lon="-3.946847">
        <ele>2128.220</ele>
        <time>2021-07-28T21:20:39Z</time>
      </trkpt>
      <trkpt lat="40.873773" lon="-3.946872">
        <ele>2128.108</ele>
        <time>2021-07-28T21:20:47Z</time>
      </trkpt>
      <trkpt lat="40.873760" lon="-3.946893">
        <ele>2128.149</ele>
        <time>2021-07-28T21:20:51Z</time>
      </trkpt>
      <trkpt lat="40.873747" lon="-3.946910">
        <ele>2128.261</ele>
        <time>2021-07-28T21:20:56Z</time>
      </trkpt>
      <trkpt lat="40.873725" lon="-3.946933">
        <ele>2128.428</ele>
        <time>2021-07-28T21:21:02Z</time>
      </trkpt>
      <trkpt lat="40.873702" lon="-3.946953">
        <ele>2128.635</ele>
        <time>2021-07-28T21:21:05Z</time>
      </trkpt>
      <trkpt lat="40.873680" lon="-3.946962">
        <ele>2128.826</ele>
        <time>2021-07-28T21:21:07Z</time>
      </trkpt>
      <trkpt lat="40.873664" lon="-3.946973">
        <ele>2128.956</ele>
        <time>2021-07-28T21:21:09Z</time>
      </trkpt>
      <trkpt lat="40.873638" lon="-3.946972">
        <ele>2129.389</ele>
        <time>2021-07-28T21:21:11Z</time>
      </trkpt>
      <trkpt lat="40.873606" lon="-3.946972">
        <ele>2129.760</ele>
        <time>2021-07-28T21:21:13Z</time>
      </trkpt>
      <trkpt lat="40.873581" lon="-3.946978">
        <ele>2129.798</ele>
        <time>2021-07-28T21:21:15Z</time>
      </trkpt>
      <trkpt lat="40.873558" lon="-3.946988">
        <ele>2129.615</ele>
        <time>2021-07-28T21:21:18Z</time>
      </trkpt>
      <trkpt lat="40.873542" lon="-3.947005">
        <ele>2129.526</ele>
        <time>2021-07-28T21:21:21Z</time>
      </trkpt>
      <trkpt lat="40.873526" lon="-3.947020">
        <ele>2129.408</ele>
        <time>2021-07-28T21:21:23Z</time>
      </trkpt>
      <trkpt lat="40.873514" lon="-3.947045">
        <ele>2129.346</ele>
        <time>2021-07-28T21:21:27Z</time>
      </trkpt>
      <trkpt lat="40.873494" lon="-3.947065">
        <ele>2129.288</ele>
        <time>2021-07-28T21:21:32Z</time>
      </trkpt>
      <trkpt lat="40.873475" lon="-3.947084">
        <ele>2129.215</ele>
        <time>2021-07-28T21:21:42Z</time>
      </trkpt>
      <trkpt lat="40.873462" lon="-3.947112">
        <ele>2129.242</ele>
        <time>2021-07-28T21:21:45Z</time>
      </trkpt>
      <trkpt lat="40.873456" lon="-3.947142">
        <ele>2129.183</ele>
        <time>2021-07-28T21:21:50Z</time>
      </trkpt>
      <trkpt lat="40.873434" lon="-3.947142">
        <ele>2129.293</ele>
        <time>2021-07-28T21:21:53Z</time>
      </trkpt>
      <trkpt lat="40.873418" lon="-3.947158">
        <ele>2129.336</ele>
        <time>2021-07-28T21:21:56Z</time>
      </trkpt>
      <trkpt lat="40.873402" lon="-3.947177">
        <ele>2129.497</ele>
        <time>2021-07-28T21:22:00Z</time>
      </trkpt>
      <trkpt lat="40.873389" lon="-3.947200">
        <ele>2129.427</ele>
        <time>2021-07-28T21:22:03Z</time>
      </trkpt>
      <trkpt lat="40.873386" lon="-3.947232">
        <ele>2129.368</ele>
        <time>2021-07-28T21:22:07Z</time>
      </trkpt>
      <trkpt lat="40.873379" lon="-3.947256">
        <ele>2129.114</ele>
        <time>2021-07-28T21:22:10Z</time>
      </trkpt>
      <trkpt lat="40.873360" lon="-3.947236">
        <ele>2129.508</ele>
        <time>2021-07-28T21:22:16Z</time>
      </trkpt>
      <trkpt lat="40.873347" lon="-3.947212">
        <ele>2129.979</ele>
        <time>2021-07-28T21:22:20Z</time>
      </trkpt>
      <trkpt lat="40.873325" lon="-3.947203">
        <ele>2130.021</ele>
        <time>2021-07-28T21:22:23Z</time>
      </trkpt>
      <trkpt lat="40.873302" lon="-3.947207">
        <ele>2130.098</ele>
        <time>2021-07-28T21:22:26Z</time>
      </trkpt>
      <trkpt lat="40.873286" lon="-3.947222">
        <ele>2130.075</ele>
        <time>2021-07-28T21:22:29Z</time>
      </trkpt>
      <trkpt lat="40.873270" lon="-3.947233">
        <ele>2129.976</ele>
        <time>2021-07-28T21:22:31Z</time>
      </trkpt>
      <trkpt lat="40.873258" lon="-3.947253">
        <ele>2129.716</ele>
        <time>2021-07-28T21:22:33Z</time>
      </trkpt>
      <trkpt lat="40.873238" lon="-3.947275">
        <ele>2129.629</ele>
        <time>2021-07-28T21:22:35Z</time>
      </trkpt>
      <trkpt lat="40.873219" lon="-3.947285">
        <ele>2129.580</ele>
        <time>2021-07-28T21:22:37Z</time>
      </trkpt>
      <trkpt lat="40.873203" lon="-3.947302">
        <ele>2129.499</ele>
        <time>2021-07-28T21:22:39Z</time>
      </trkpt>
      <trkpt lat="40.873190" lon="-3.947333">
        <ele>2129.207</ele>
        <time>2021-07-28T21:22:42Z</time>
      </trkpt>
      <trkpt lat="40.873178" lon="-3.947357">
        <ele>2129.127</ele>
        <time>2021-07-28T21:22:45Z</time>
      </trkpt>
      <trkpt lat="40.873158" lon="-3.947367">
        <ele>2129.108</ele>
        <time>2021-07-28T21:22:48Z</time>
      </trkpt>
      <trkpt lat="40.873136" lon="-3.947367">
        <ele>2129.266</ele>
        <time>2021-07-28T21:22:51Z</time>
      </trkpt>
      <trkpt lat="40.873107" lon="-3.947370">
        <ele>2129.378</ele>
        <time>2021-07-28T21:22:53Z</time>
      </trkpt>
      <trkpt lat="40.873088" lon="-3.947385">
        <ele>2129.375</ele>
        <time>2021-07-28T21:22:55Z</time>
      </trkpt>
      <trkpt lat="40.873066" lon="-3.947390">
        <ele>2129.442</ele>
        <time>2021-07-28T21:22:58Z</time>
      </trkpt>
      <trkpt lat="40.873046" lon="-3.947392">
        <ele>2129.383</ele>
        <time>2021-07-28T21:23:00Z</time>
      </trkpt>
      <trkpt lat="40.873027" lon="-3.947388">
        <ele>2129.233</ele>
        <time>2021-07-28T21:23:02Z</time>
      </trkpt>
      <trkpt lat="40.873005" lon="-3.947388">
        <ele>2129.136</ele>
        <time>2021-07-28T21:23:04Z</time>
      </trkpt>
      <trkpt lat="40.872989" lon="-3.947372">
        <ele>2129.147</ele>
        <time>2021-07-28T21:23:07Z</time>
      </trkpt>
      <trkpt lat="40.872966" lon="-3.947365">
        <ele>2129.049</ele>
        <time>2021-07-28T21:23:09Z</time>
      </trkpt>
      <trkpt lat="40.872941" lon="-3.947355">
        <ele>2128.902</ele>
        <time>2021-07-28T21:23:11Z</time>
      </trkpt>
      <trkpt lat="40.872918" lon="-3.947347">
        <ele>2128.922</ele>
        <time>2021-07-28T21:23:13Z</time>
      </trkpt>
      <trkpt lat="40.872890" lon="-3.947342">
        <ele>2128.808</ele>
        <time>2021-07-28T21:23:19Z</time>
      </trkpt>
      <trkpt lat="40.872867" lon="-3.947337">
        <ele>2128.761</ele>
        <time>2021-07-28T21:23:21Z</time>
      </trkpt>
      <trkpt lat="40.872848" lon="-3.947335">
        <ele>2128.763</ele>
        <time>2021-07-28T21:23:23Z</time>
      </trkpt>
      <trkpt lat="40.872826" lon="-3.947333">
        <ele>2128.620</ele>
        <time>2021-07-28T21:23:25Z</time>
      </trkpt>
      <trkpt lat="40.872806" lon="-3.947332">
        <ele>2128.577</ele>
        <time>2021-07-28T21:23:27Z</time>
      </trkpt>
      <trkpt lat="40.872787" lon="-3.947318">
        <ele>2128.768</ele>
        <time>2021-07-28T21:23:29Z</time>
      </trkpt>
      <trkpt lat="40.872768" lon="-3.947300">
        <ele>2128.778</ele>
        <time>2021-07-28T21:23:31Z</time>
      </trkpt>
      <trkpt lat="40.872752" lon="-3.947283">
        <ele>2128.621</ele>
        <time>2021-07-28T21:23:34Z</time>
      </trkpt>
      <trkpt lat="40.872726" lon="-3.947273">
        <ele>2128.272</ele>
        <time>2021-07-28T21:23:36Z</time>
      </trkpt>
      <trkpt lat="40.872701" lon="-3.947266">
        <ele>2127.852</ele>
        <time>2021-07-28T21:23:38Z</time>
      </trkpt>
      <trkpt lat="40.872678" lon="-3.947258">
        <ele>2127.453</ele>
        <time>2021-07-28T21:23:40Z</time>
      </trkpt>
      <trkpt lat="40.872653" lon="-3.947260">
        <ele>2126.908</ele>
        <time>2021-07-28T21:23:43Z</time>
      </trkpt>
      <trkpt lat="40.872630" lon="-3.947256">
        <ele>2126.508</ele>
        <time>2021-07-28T21:24:24Z</time>
      </trkpt>
      <trkpt lat="40.872608" lon="-3.947262">
        <ele>2125.912</ele>
        <time>2021-07-28T21:24:26Z</time>
      </trkpt>
      <trkpt lat="40.872582" lon="-3.947268">
        <ele>2125.324</ele>
        <time>2021-07-28T21:24:28Z</time>
      </trkpt>
      <trkpt lat="40.872560" lon="-3.947272">
        <ele>2124.991</ele>
        <time>2021-07-28T21:24:30Z</time>
      </trkpt>
      <trkpt lat="40.872528" lon="-3.947266">
        <ele>2124.318</ele>
        <time>2021-07-28T21:24:32Z</time>
      </trkpt>
      <trkpt lat="40.872506" lon="-3.947252">
        <ele>2123.939</ele>
        <time>2021-07-28T21:24:34Z</time>
      </trkpt>
      <trkpt lat="40.872490" lon="-3.947236">
        <ele>2123.889</ele>
        <time>2021-07-28T21:24:36Z</time>
      </trkpt>
      <trkpt lat="40.872467" lon="-3.947223">
        <ele>2123.582</ele>
        <time>2021-07-28T21:24:38Z</time>
      </trkpt>
      <trkpt lat="40.872445" lon="-3.947214">
        <ele>2123.333</ele>
        <time>2021-07-28T21:24:40Z</time>
      </trkpt>
      <trkpt lat="40.872416" lon="-3.947208">
        <ele>2122.925</ele>
        <time>2021-07-28T21:24:42Z</time>
      </trkpt>
      <trkpt lat="40.872397" lon="-3.947225">
        <ele>2122.526</ele>
        <time>2021-07-28T21:24:44Z</time>
      </trkpt>
      <trkpt lat="40.872381" lon="-3.947238">
        <ele>2122.208</ele>
        <time>2021-07-28T21:24:46Z</time>
      </trkpt>
      <trkpt lat="40.872355" lon="-3.947250">
        <ele>2121.808</ele>
        <time>2021-07-28T21:24:48Z</time>
      </trkpt>
      <trkpt lat="40.872333" lon="-3.947263">
        <ele>2121.519</ele>
        <time>2021-07-28T21:24:50Z</time>
      </trkpt>
      <trkpt lat="40.872314" lon="-3.947263">
        <ele>2121.251</ele>
        <time>2021-07-28T21:24:52Z</time>
      </trkpt>
      <trkpt lat="40.872291" lon="-3.947265">
        <ele>2120.948</ele>
        <time>2021-07-28T21:24:54Z</time>
      </trkpt>
      <trkpt lat="40.872269" lon="-3.947268">
        <ele>2120.695</ele>
        <time>2021-07-28T21:24:56Z</time>
      </trkpt>
      <trkpt lat="40.872250" lon="-3.947270">
        <ele>2120.436</ele>
        <time>2021-07-28T21:24:59Z</time>
      </trkpt>
      <trkpt lat="40.872227" lon="-3.947268">
        <ele>2120.166</ele>
        <time>2021-07-28T21:25:01Z</time>
      </trkpt>
      <trkpt lat="40.872208" lon="-3.947272">
        <ele>2120.029</ele>
        <time>2021-07-28T21:25:03Z</time>
      </trkpt>
      <trkpt lat="40.872186" lon="-3.947270">
        <ele>2120.060</ele>
        <time>2021-07-28T21:25:05Z</time>
      </trkpt>
      <trkpt lat="40.872163" lon="-3.947272">
        <ele>2120.037</ele>
        <time>2021-07-28T21:25:07Z</time>
      </trkpt>
      <trkpt lat="40.872138" lon="-3.947275">
        <ele>2120.049</ele>
        <time>2021-07-28T21:25:09Z</time>
      </trkpt>
      <trkpt lat="40.872118" lon="-3.947283">
        <ele>2120.013</ele>
        <time>2021-07-28T21:25:11Z</time>
      </trkpt>
      <trkpt lat="40.872096" lon="-3.947282">
        <ele>2120.008</ele>
        <time>2021-07-28T21:25:13Z</time>
      </trkpt>
      <trkpt lat="40.872077" lon="-3.947276">
        <ele>2120.010</ele>
        <time>2021-07-28T21:25:15Z</time>
      </trkpt>
      <trkpt lat="40.872058" lon="-3.947275">
        <ele>2120.052</ele>
        <time>2021-07-28T21:25:17Z</time>
      </trkpt>
      <trkpt lat="40.872035" lon="-3.947276">
        <ele>2120.039</ele>
        <time>2021-07-28T21:25:19Z</time>
      </trkpt>
      <trkpt lat="40.872013" lon="-3.947276">
        <ele>2120.086</ele>
        <time>2021-07-28T21:25:21Z</time>
      </trkpt>
      <trkpt lat="40.871990" lon="-3.947276">
        <ele>2120.077</ele>
        <time>2021-07-28T21:25:23Z</time>
      </trkpt>
      <trkpt lat="40.871971" lon="-3.947283">
        <ele>2120.027</ele>
        <time>2021-07-28T21:25:25Z</time>
      </trkpt>
      <trkpt lat="40.871952" lon="-3.947292">
        <ele>2120.030</ele>
        <time>2021-07-28T21:25:27Z</time>
      </trkpt>
      <trkpt lat="40.871936" lon="-3.947307">
        <ele>2120.071</ele>
        <time>2021-07-28T21:25:29Z</time>
      </trkpt>
      <trkpt lat="40.871920" lon="-3.947318">
        <ele>2120.093</ele>
        <time>2021-07-28T21:25:31Z</time>
      </trkpt>
      <trkpt lat="40.871894" lon="-3.947320">
        <ele>2120.065</ele>
        <time>2021-07-28T21:25:34Z</time>
      </trkpt>
      <trkpt lat="40.871875" lon="-3.947315">
        <ele>2120.021</ele>
        <time>2021-07-28T21:25:36Z</time>
      </trkpt>
      <trkpt lat="40.871853" lon="-3.947305">
        <ele>2120.008</ele>
        <time>2021-07-28T21:25:39Z</time>
      </trkpt>
      <trkpt lat="40.871837" lon="-3.947292">
        <ele>2120.076</ele>
        <time>2021-07-28T21:25:41Z</time>
      </trkpt>
      <trkpt lat="40.871818" lon="-3.947278">
        <ele>2120.048</ele>
        <time>2021-07-28T21:25:44Z</time>
      </trkpt>
      <trkpt lat="40.871795" lon="-3.947275">
        <ele>2120.075</ele>
        <time>2021-07-28T21:25:46Z</time>
      </trkpt>
      <trkpt lat="40.871776" lon="-3.947276">
        <ele>2120.052</ele>
        <time>2021-07-28T21:25:48Z</time>
      </trkpt>
      <trkpt lat="40.871754" lon="-3.947272">
        <ele>2120.033</ele>
        <time>2021-07-28T21:25:50Z</time>
      </trkpt>
      <trkpt lat="40.871738" lon="-3.947260">
        <ele>2120.073</ele>
        <time>2021-07-28T21:25:52Z</time>
      </trkpt>
      <trkpt lat="40.871722" lon="-3.947248">
        <ele>2120.066</ele>
        <time>2021-07-28T21:25:55Z</time>
      </trkpt>
      <trkpt lat="40.871699" lon="-3.947242">
        <ele>2120.027</ele>
        <time>2021-07-28T21:25:58Z</time>
      </trkpt>
      <trkpt lat="40.871680" lon="-3.947240">
        <ele>2120.045</ele>
        <time>2021-07-28T21:26:00Z</time>
      </trkpt>
      <trkpt lat="40.871661" lon="-3.947230">
        <ele>2120.047</ele>
        <time>2021-07-28T21:26:02Z</time>
      </trkpt>
      <trkpt lat="40.871642" lon="-3.947215">
        <ele>2120.011</ele>
        <time>2021-07-28T21:26:04Z</time>
      </trkpt>
      <trkpt lat="40.871622" lon="-3.947214">
        <ele>2120.008</ele>
        <time>2021-07-28T21:26:06Z</time>
      </trkpt>
      <trkpt lat="40.871594" lon="-3.947212">
        <ele>2120.071</ele>
        <time>2021-07-28T21:26:09Z</time>
      </trkpt>
      <trkpt lat="40.871574" lon="-3.947208">
        <ele>2120.073</ele>
        <time>2021-07-28T21:26:11Z</time>
      </trkpt>
      <trkpt lat="40.871552" lon="-3.947207">
        <ele>2120.080</ele>
        <time>2021-07-28T21:26:13Z</time>
      </trkpt>
      <trkpt lat="40.871530" lon="-3.947205">
        <ele>2120.087</ele>
        <time>2021-07-28T21:26:16Z</time>
      </trkpt>
      <trkpt lat="40.871517" lon="-3.947175">
        <ele>2119.988</ele>
        <time>2021-07-28T21:26:19Z</time>
      </trkpt>
      <trkpt lat="40.871498" lon="-3.947162">
        <ele>2119.998</ele>
        <time>2021-07-28T21:26:21Z</time>
      </trkpt>
      <trkpt lat="40.871472" lon="-3.947160">
        <ele>2119.841</ele>
        <time>2021-07-28T21:26:24Z</time>
      </trkpt>
      <trkpt lat="40.871450" lon="-3.947158">
        <ele>2119.892</ele>
        <time>2021-07-28T21:26:27Z</time>
      </trkpt>
      <trkpt lat="40.871430" lon="-3.947147">
        <ele>2119.837</ele>
        <time>2021-07-28T21:26:29Z</time>
      </trkpt>
      <trkpt lat="40.871408" lon="-3.947148">
        <ele>2119.849</ele>
        <time>2021-07-28T21:26:31Z</time>
      </trkpt>
      <trkpt lat="40.871382" lon="-3.947153">
        <ele>2119.713</ele>
        <time>2021-07-28T21:26:33Z</time>
      </trkpt>
      <trkpt lat="40.871363" lon="-3.947157">
        <ele>2119.408</ele>
        <time>2021-07-28T21:26:36Z</time>
      </trkpt>
      <trkpt lat="40.871344" lon="-3.947148">
        <ele>2119.150</ele>
        <time>2021-07-28T21:26:39Z</time>
      </trkpt>
      <trkpt lat="40.871328" lon="-3.947135">
        <ele>2118.962</ele>
        <time>2021-07-28T21:26:41Z</time>
      </trkpt>
      <trkpt lat="40.871302" lon="-3.947128">
        <ele>2118.569</ele>
        <time>2021-07-28T21:26:43Z</time>
      </trkpt>
      <trkpt lat="40.871277" lon="-3.947125">
        <ele>2118.216</ele>
        <time>2021-07-28T21:26:46Z</time>
      </trkpt>
      <trkpt lat="40.871258" lon="-3.947113">
        <ele>2117.947</ele>
        <time>2021-07-28T21:26:50Z</time>
      </trkpt>
      <trkpt lat="40.871251" lon="-3.947078">
        <ele>2117.847</ele>
        <time>2021-07-28T21:26:54Z</time>
      </trkpt>
      <trkpt lat="40.871235" lon="-3.947064">
        <ele>2117.570</ele>
        <time>2021-07-28T21:26:56Z</time>
      </trkpt>
      <trkpt lat="40.871213" lon="-3.947067">
        <ele>2117.321</ele>
        <time>2021-07-28T21:26:59Z</time>
      </trkpt>
      <trkpt lat="40.871194" lon="-3.947064">
        <ele>2117.069</ele>
        <time>2021-07-28T21:27:03Z</time>
      </trkpt>
      <trkpt lat="40.871174" lon="-3.947042">
        <ele>2116.804</ele>
        <time>2021-07-28T21:27:06Z</time>
      </trkpt>
      <trkpt lat="40.871162" lon="-3.947018">
        <ele>2116.624</ele>
        <time>2021-07-28T21:27:08Z</time>
      </trkpt>
      <trkpt lat="40.871146" lon="-3.946995">
        <ele>2116.408</ele>
        <time>2021-07-28T21:27:11Z</time>
      </trkpt>
      <trkpt lat="40.871120" lon="-3.946998">
        <ele>2116.143</ele>
        <time>2021-07-28T21:27:14Z</time>
      </trkpt>
      <trkpt lat="40.871101" lon="-3.946990">
        <ele>2115.875</ele>
        <time>2021-07-28T21:27:17Z</time>
      </trkpt>
      <trkpt lat="40.871085" lon="-3.946978">
        <ele>2115.682</ele>
        <time>2021-07-28T21:27:19Z</time>
      </trkpt>
      <trkpt lat="40.871066" lon="-3.946965">
        <ele>2115.349</ele>
        <time>2021-07-28T21:27:21Z</time>
      </trkpt>
      <trkpt lat="40.871040" lon="-3.946963">
        <ele>2114.910</ele>
        <time>2021-07-28T21:27:24Z</time>
      </trkpt>
      <trkpt lat="40.871021" lon="-3.946973">
        <ele>2114.620</ele>
        <time>2021-07-28T21:27:26Z</time>
      </trkpt>
      <trkpt lat="40.870998" lon="-3.946990">
        <ele>2114.273</ele>
        <time>2021-07-28T21:27:29Z</time>
      </trkpt>
      <trkpt lat="40.870979" lon="-3.947008">
        <ele>2113.854</ele>
        <time>2021-07-28T21:27:32Z</time>
      </trkpt>
      <trkpt lat="40.870957" lon="-3.947008">
        <ele>2113.427</ele>
        <time>2021-07-28T21:27:35Z</time>
      </trkpt>
      <trkpt lat="40.870941" lon="-3.947022">
        <ele>2113.068</ele>
        <time>2021-07-28T21:27:37Z</time>
      </trkpt>
      <trkpt lat="40.870925" lon="-3.947034">
        <ele>2112.714</ele>
        <time>2021-07-28T21:27:39Z</time>
      </trkpt>
      <trkpt lat="40.870912" lon="-3.947058">
        <ele>2112.308</ele>
        <time>2021-07-28T21:27:42Z</time>
      </trkpt>
      <trkpt lat="40.870893" lon="-3.947048">
        <ele>2112.079</ele>
        <time>2021-07-28T21:27:46Z</time>
      </trkpt>
      <trkpt lat="40.870864" lon="-3.947038">
        <ele>2111.581</ele>
        <time>2021-07-28T21:27:48Z</time>
      </trkpt>
      <trkpt lat="40.870854" lon="-3.947012">
        <ele>2111.658</ele>
        <time>2021-07-28T21:27:54Z</time>
      </trkpt>
      <trkpt lat="40.870842" lon="-3.946993">
        <ele>2111.695</ele>
        <time>2021-07-28T21:27:57Z</time>
      </trkpt>
      <trkpt lat="40.870826" lon="-3.946978">
        <ele>2111.546</ele>
        <time>2021-07-28T21:28:01Z</time>
      </trkpt>
      <trkpt lat="40.870806" lon="-3.946977">
        <ele>2111.196</ele>
        <time>2021-07-28T21:28:05Z</time>
      </trkpt>
      <trkpt lat="40.870784" lon="-3.946980">
        <ele>2110.659</ele>
        <time>2021-07-28T21:28:08Z</time>
      </trkpt>
      <trkpt lat="40.870762" lon="-3.946982">
        <ele>2110.140</ele>
        <time>2021-07-28T21:28:11Z</time>
      </trkpt>
      <trkpt lat="40.870736" lon="-3.946983">
        <ele>2109.556</ele>
        <time>2021-07-28T21:28:14Z</time>
      </trkpt>
      <trkpt lat="40.870714" lon="-3.947000">
        <ele>2108.959</ele>
        <time>2021-07-28T21:28:17Z</time>
      </trkpt>
      <trkpt lat="40.870698" lon="-3.947023">
        <ele>2108.414</ele>
        <time>2021-07-28T21:28:20Z</time>
      </trkpt>
      <trkpt lat="40.870669" lon="-3.947032">
        <ele>2107.708</ele>
        <time>2021-07-28T21:28:24Z</time>
      </trkpt>
      <trkpt lat="40.870659" lon="-3.947057">
        <ele>2107.392</ele>
        <time>2021-07-28T21:28:27Z</time>
      </trkpt>
      <trkpt lat="40.870637" lon="-3.947058">
        <ele>2106.814</ele>
        <time>2021-07-28T21:28:31Z</time>
      </trkpt>
      <trkpt lat="40.870614" lon="-3.947064">
        <ele>2106.361</ele>
        <time>2021-07-28T21:28:37Z</time>
      </trkpt>
      <trkpt lat="40.870595" lon="-3.947054">
        <ele>2106.088</ele>
        <time>2021-07-28T21:28:39Z</time>
      </trkpt>
      <trkpt lat="40.870582" lon="-3.947023">
        <ele>2106.089</ele>
        <time>2021-07-28T21:28:42Z</time>
      </trkpt>
      <trkpt lat="40.870570" lon="-3.947002">
        <ele>2105.929</ele>
        <time>2021-07-28T21:28:44Z</time>
      </trkpt>
      <trkpt lat="40.870557" lon="-3.946983">
        <ele>2105.872</ele>
        <time>2021-07-28T21:28:46Z</time>
      </trkpt>
      <trkpt lat="40.870538" lon="-3.946965">
        <ele>2105.533</ele>
        <time>2021-07-28T21:28:48Z</time>
      </trkpt>
      <trkpt lat="40.870518" lon="-3.946962">
        <ele>2105.213</ele>
        <time>2021-07-28T21:28:50Z</time>
      </trkpt>
      <trkpt lat="40.870496" lon="-3.946965">
        <ele>2104.843</ele>
        <time>2021-07-28T21:28:52Z</time>
      </trkpt>
      <trkpt lat="40.870477" lon="-3.946970">
        <ele>2104.407</ele>
        <time>2021-07-28T21:28:54Z</time>
      </trkpt>
      <trkpt lat="40.870458" lon="-3.946968">
        <ele>2104.108</ele>
        <time>2021-07-28T21:28:56Z</time>
      </trkpt>
      <trkpt lat="40.870438" lon="-3.946967">
        <ele>2103.868</ele>
        <time>2021-07-28T21:29:00Z</time>
      </trkpt>
      <trkpt lat="40.870416" lon="-3.946958">
        <ele>2103.410</ele>
        <time>2021-07-28T21:29:03Z</time>
      </trkpt>
      <trkpt lat="40.870390" lon="-3.946943">
        <ele>2103.037</ele>
        <time>2021-07-28T21:29:06Z</time>
      </trkpt>
      <trkpt lat="40.870371" lon="-3.946932">
        <ele>2102.624</ele>
        <time>2021-07-28T21:29:09Z</time>
      </trkpt>
      <trkpt lat="40.870349" lon="-3.946923">
        <ele>2102.225</ele>
        <time>2021-07-28T21:29:12Z</time>
      </trkpt>
      <trkpt lat="40.870323" lon="-3.946918">
        <ele>2101.815</ele>
        <time>2021-07-28T21:29:14Z</time>
      </trkpt>
      <trkpt lat="40.870301" lon="-3.946912">
        <ele>2101.418</ele>
        <time>2021-07-28T21:29:16Z</time>
      </trkpt>
      <trkpt lat="40.870282" lon="-3.946910">
        <ele>2101.129</ele>
        <time>2021-07-28T21:29:18Z</time>
      </trkpt>
      <trkpt lat="40.870259" lon="-3.946922">
        <ele>2101.074</ele>
        <time>2021-07-28T21:29:21Z</time>
      </trkpt>
      <trkpt lat="40.870227" lon="-3.946922">
        <ele>2101.056</ele>
        <time>2021-07-28T21:29:24Z</time>
      </trkpt>
      <trkpt lat="40.870205" lon="-3.946928">
        <ele>2101.021</ele>
        <time>2021-07-28T21:29:27Z</time>
      </trkpt>
      <trkpt lat="40.870198" lon="-3.946953">
        <ele>2100.908</ele>
        <time>2021-07-28T21:29:31Z</time>
      </trkpt>
      <trkpt lat="40.870176" lon="-3.946963">
        <ele>2100.914</ele>
        <time>2021-07-28T21:29:34Z</time>
      </trkpt>
      <trkpt lat="40.870157" lon="-3.946960">
        <ele>2100.936</ele>
        <time>2021-07-28T21:29:36Z</time>
      </trkpt>
      <trkpt lat="40.870131" lon="-3.946952">
        <ele>2100.993</ele>
        <time>2021-07-28T21:29:39Z</time>
      </trkpt>
      <trkpt lat="40.870109" lon="-3.946942">
        <ele>2101.050</ele>
        <time>2021-07-28T21:29:42Z</time>
      </trkpt>
      <trkpt lat="40.870083" lon="-3.946955">
        <ele>2100.921</ele>
        <time>2021-07-28T21:29:45Z</time>
      </trkpt>
      <trkpt lat="40.870064" lon="-3.946968">
        <ele>2100.791</ele>
        <time>2021-07-28T21:29:48Z</time>
      </trkpt>
      <trkpt lat="40.870045" lon="-3.946970">
        <ele>2100.774</ele>
        <time>2021-07-28T21:29:51Z</time>
      </trkpt>
      <trkpt lat="40.870022" lon="-3.946965">
        <ele>2100.765</ele>
        <time>2021-07-28T21:29:54Z</time>
      </trkpt>
      <trkpt lat="40.869994" lon="-3.946972">
        <ele>2100.546</ele>
        <time>2021-07-28T21:29:57Z</time>
      </trkpt>
      <trkpt lat="40.869965" lon="-3.946980">
        <ele>2100.188</ele>
        <time>2021-07-28T21:30:01Z</time>
      </trkpt>
      <trkpt lat="40.869942" lon="-3.946990">
        <ele>2099.716</ele>
        <time>2021-07-28T21:30:04Z</time>
      </trkpt>
      <trkpt lat="40.869920" lon="-3.946998">
        <ele>2099.408</ele>
        <time>2021-07-28T21:30:06Z</time>
      </trkpt>
      <trkpt lat="40.869891" lon="-3.947003">
        <ele>2099.051</ele>
        <time>2021-07-28T21:30:09Z</time>
      </trkpt>
      <trkpt lat="40.869869" lon="-3.946998">
        <ele>2098.893</ele>
        <time>2021-07-28T21:30:11Z</time>
      </trkpt>
      <trkpt lat="40.869846" lon="-3.946987">
        <ele>2098.740</ele>
        <time>2021-07-28T21:30:13Z</time>
      </trkpt>
      <trkpt lat="40.869821" lon="-3.946973">
        <ele>2098.747</ele>
        <time>2021-07-28T21:30:15Z</time>
      </trkpt>
      <trkpt lat="40.869795" lon="-3.946963">
        <ele>2098.568</ele>
        <time>2021-07-28T21:30:17Z</time>
      </trkpt>
      <trkpt lat="40.869773" lon="-3.946962">
        <ele>2098.398</ele>
        <time>2021-07-28T21:30:19Z</time>
      </trkpt>
      <trkpt lat="40.869754" lon="-3.946958">
        <ele>2098.161</ele>
        <time>2021-07-28T21:30:22Z</time>
      </trkpt>
      <trkpt lat="40.869734" lon="-3.946950">
        <ele>2098.092</ele>
        <time>2021-07-28T21:30:24Z</time>
      </trkpt>
      <trkpt lat="40.869709" lon="-3.946933">
        <ele>2098.035</ele>
        <time>2021-07-28T21:30:26Z</time>
      </trkpt>
      <trkpt lat="40.869690" lon="-3.946912">
        <ele>2098.186</ele>
        <time>2021-07-28T21:30:28Z</time>
      </trkpt>
      <trkpt lat="40.869670" lon="-3.946890">
        <ele>2098.214</ele>
        <time>2021-07-28T21:30:30Z</time>
      </trkpt>
      <trkpt lat="40.869651" lon="-3.946875">
        <ele>2098.308</ele>
        <time>2021-07-28T21:30:32Z</time>
      </trkpt>
      <trkpt lat="40.869622" lon="-3.946862">
        <ele>2098.320</ele>
        <time>2021-07-28T21:30:34Z</time>
      </trkpt>
      <trkpt lat="40.869597" lon="-3.946855">
        <ele>2098.262</ele>
        <time>2021-07-28T21:30:36Z</time>
      </trkpt>
      <trkpt lat="40.869574" lon="-3.946842">
        <ele>2098.259</ele>
        <time>2021-07-28T21:30:40Z</time>
      </trkpt>
      <trkpt lat="40.869562" lon="-3.946822">
        <ele>2098.446</ele>
        <time>2021-07-28T21:30:42Z</time>
      </trkpt>
      <trkpt lat="40.869533" lon="-3.946788">
        <ele>2098.767</ele>
        <time>2021-07-28T21:30:44Z</time>
      </trkpt>
      <trkpt lat="40.869510" lon="-3.946792">
        <ele>2098.547</ele>
        <time>2021-07-28T21:30:46Z</time>
      </trkpt>
      <trkpt lat="40.869491" lon="-3.946787">
        <ele>2098.510</ele>
        <time>2021-07-28T21:30:48Z</time>
      </trkpt>
      <trkpt lat="40.869472" lon="-3.946780">
        <ele>2098.591</ele>
        <time>2021-07-28T21:30:50Z</time>
      </trkpt>
      <trkpt lat="40.869453" lon="-3.946773">
        <ele>2098.511</ele>
        <time>2021-07-28T21:30:52Z</time>
      </trkpt>
      <trkpt lat="40.869427" lon="-3.946777">
        <ele>2098.321</ele>
        <time>2021-07-28T21:30:55Z</time>
      </trkpt>
      <trkpt lat="40.869402" lon="-3.946770">
        <ele>2098.203</ele>
        <time>2021-07-28T21:30:57Z</time>
      </trkpt>
      <trkpt lat="40.869382" lon="-3.946763">
        <ele>2098.208</ele>
        <time>2021-07-28T21:30:59Z</time>
      </trkpt>
      <trkpt lat="40.869354" lon="-3.946760">
        <ele>2098.078</ele>
        <time>2021-07-28T21:31:01Z</time>
      </trkpt>
      <trkpt lat="40.869334" lon="-3.946753">
        <ele>2098.050</ele>
        <time>2021-07-28T21:31:03Z</time>
      </trkpt>
      <trkpt lat="40.869315" lon="-3.946746">
        <ele>2097.997</ele>
        <time>2021-07-28T21:31:05Z</time>
      </trkpt>
      <trkpt lat="40.869296" lon="-3.946743">
        <ele>2097.834</ele>
        <time>2021-07-28T21:31:07Z</time>
      </trkpt>
      <trkpt lat="40.869274" lon="-3.946742">
        <ele>2097.775</ele>
        <time>2021-07-28T21:31:10Z</time>
      </trkpt>
      <trkpt lat="40.869254" lon="-3.946732">
        <ele>2097.735</ele>
        <time>2021-07-28T21:31:12Z</time>
      </trkpt>
      <trkpt lat="40.869232" lon="-3.946718">
        <ele>2097.738</ele>
        <time>2021-07-28T21:31:14Z</time>
      </trkpt>
      <trkpt lat="40.869210" lon="-3.946715">
        <ele>2097.689</ele>
        <time>2021-07-28T21:31:16Z</time>
      </trkpt>
      <trkpt lat="40.869187" lon="-3.946717">
        <ele>2097.476</ele>
        <time>2021-07-28T21:31:18Z</time>
      </trkpt>
      <trkpt lat="40.869168" lon="-3.946707">
        <ele>2097.490</ele>
        <time>2021-07-28T21:31:20Z</time>
      </trkpt>
      <trkpt lat="40.869149" lon="-3.946697">
        <ele>2097.419</ele>
        <time>2021-07-28T21:31:22Z</time>
      </trkpt>
      <trkpt lat="40.869130" lon="-3.946692">
        <ele>2097.408</ele>
        <time>2021-07-28T21:31:24Z</time>
      </trkpt>
      <trkpt lat="40.869104" lon="-3.946698">
        <ele>2097.124</ele>
        <time>2021-07-28T21:31:27Z</time>
      </trkpt>
      <trkpt lat="40.869085" lon="-3.946700">
        <ele>2097.096</ele>
        <time>2021-07-28T21:31:29Z</time>
      </trkpt>
      <trkpt lat="40.869056" lon="-3.946698">
        <ele>2096.883</ele>
        <time>2021-07-28T21:31:31Z</time>
      </trkpt>
      <trkpt lat="40.869037" lon="-3.946698">
        <ele>2096.720</ele>
        <time>2021-07-28T21:31:33Z</time>
      </trkpt>
      <trkpt lat="40.869014" lon="-3.946700">
        <ele>2096.681</ele>
        <time>2021-07-28T21:31:35Z</time>
      </trkpt>
      <trkpt lat="40.868992" lon="-3.946698">
        <ele>2096.471</ele>
        <time>2021-07-28T21:31:37Z</time>
      </trkpt>
      <trkpt lat="40.868973" lon="-3.946692">
        <ele>2096.494</ele>
        <time>2021-07-28T21:31:39Z</time>
      </trkpt>
      <trkpt lat="40.868954" lon="-3.946690">
        <ele>2096.365</ele>
        <time>2021-07-28T21:31:41Z</time>
      </trkpt>
      <trkpt lat="40.868928" lon="-3.946692">
        <ele>2096.199</ele>
        <time>2021-07-28T21:31:43Z</time>
      </trkpt>
      <trkpt lat="40.868909" lon="-3.946685">
        <ele>2096.007</ele>
        <time>2021-07-28T21:31:45Z</time>
      </trkpt>
      <trkpt lat="40.868886" lon="-3.946687">
        <ele>2095.827</ele>
        <time>2021-07-28T21:31:47Z</time>
      </trkpt>
      <trkpt lat="40.868867" lon="-3.946688">
        <ele>2095.608</ele>
        <time>2021-07-28T21:31:49Z</time>
      </trkpt>
      <trkpt lat="40.868842" lon="-3.946697">
        <ele>2095.356</ele>
        <time>2021-07-28T21:31:51Z</time>
      </trkpt>
      <trkpt lat="40.868819" lon="-3.946698">
        <ele>2095.058</ele>
        <time>2021-07-28T21:31:54Z</time>
      </trkpt>
      <trkpt lat="40.868794" lon="-3.946697">
        <ele>2094.825</ele>
        <time>2021-07-28T21:31:56Z</time>
      </trkpt>
      <trkpt lat="40.868771" lon="-3.946687">
        <ele>2094.642</ele>
        <time>2021-07-28T21:31:58Z</time>
      </trkpt>
      <trkpt lat="40.868749" lon="-3.946684">
        <ele>2094.433</ele>
        <time>2021-07-28T21:32:00Z</time>
      </trkpt>
      <trkpt lat="40.868726" lon="-3.946682">
        <ele>2094.273</ele>
        <time>2021-07-28T21:32:02Z</time>
      </trkpt>
      <trkpt lat="40.868701" lon="-3.946685">
        <ele>2093.976</ele>
        <time>2021-07-28T21:32:04Z</time>
      </trkpt>
      <trkpt lat="40.868678" lon="-3.946692">
        <ele>2093.637</ele>
        <time>2021-07-28T21:32:07Z</time>
      </trkpt>
      <trkpt lat="40.868656" lon="-3.946704">
        <ele>2093.326</ele>
        <time>2021-07-28T21:32:10Z</time>
      </trkpt>
      <trkpt lat="40.868634" lon="-3.946708">
        <ele>2093.147</ele>
        <time>2021-07-28T21:32:12Z</time>
      </trkpt>
      <trkpt lat="40.868608" lon="-3.946700">
        <ele>2092.811</ele>
        <time>2021-07-28T21:32:14Z</time>
      </trkpt>
      <trkpt lat="40.868579" lon="-3.946694">
        <ele>2092.608</ele>
        <time>2021-07-28T21:32:17Z</time>
      </trkpt>
      <trkpt lat="40.868560" lon="-3.946694">
        <ele>2092.479</ele>
        <time>2021-07-28T21:32:19Z</time>
      </trkpt>
      <trkpt lat="40.868541" lon="-3.946698">
        <ele>2092.291</ele>
        <time>2021-07-28T21:32:21Z</time>
      </trkpt>
      <trkpt lat="40.868518" lon="-3.946700">
        <ele>2091.918</ele>
        <time>2021-07-28T21:32:23Z</time>
      </trkpt>
      <trkpt lat="40.868499" lon="-3.946700">
        <ele>2091.755</ele>
        <time>2021-07-28T21:32:25Z</time>
      </trkpt>
      <trkpt lat="40.868477" lon="-3.946702">
        <ele>2091.566</ele>
        <time>2021-07-28T21:32:27Z</time>
      </trkpt>
      <trkpt lat="40.868454" lon="-3.946704">
        <ele>2091.256</ele>
        <time>2021-07-28T21:32:29Z</time>
      </trkpt>
      <trkpt lat="40.868432" lon="-3.946704">
        <ele>2091.079</ele>
        <time>2021-07-28T21:32:31Z</time>
      </trkpt>
      <trkpt lat="40.868410" lon="-3.946705">
        <ele>2090.830</ele>
        <time>2021-07-28T21:32:33Z</time>
      </trkpt>
      <trkpt lat="40.868381" lon="-3.946704">
        <ele>2090.511</ele>
        <time>2021-07-28T21:32:35Z</time>
      </trkpt>
      <trkpt lat="40.868358" lon="-3.946708">
        <ele>2090.321</ele>
        <time>2021-07-28T21:32:38Z</time>
      </trkpt>
      <trkpt lat="40.868339" lon="-3.946715">
        <ele>2090.103</ele>
        <time>2021-07-28T21:32:40Z</time>
      </trkpt>
      <trkpt lat="40.868320" lon="-3.946718">
        <ele>2090.208</ele>
        <time>2021-07-28T21:32:42Z</time>
      </trkpt>
      <trkpt lat="40.868298" lon="-3.946732">
        <ele>2090.578</ele>
        <time>2021-07-28T21:32:44Z</time>
      </trkpt>
      <trkpt lat="40.868278" lon="-3.946740">
        <ele>2090.850</ele>
        <time>2021-07-28T21:32:47Z</time>
      </trkpt>
      <trkpt lat="40.868256" lon="-3.946752">
        <ele>2091.117</ele>
        <time>2021-07-28T21:32:50Z</time>
      </trkpt>
      <trkpt lat="40.868240" lon="-3.946763">
        <ele>2091.374</ele>
        <time>2021-07-28T21:32:52Z</time>
      </trkpt>
      <trkpt lat="40.868214" lon="-3.946770">
        <ele>2091.745</ele>
        <time>2021-07-28T21:32:55Z</time>
      </trkpt>
      <trkpt lat="40.868195" lon="-3.946778">
        <ele>2092.095</ele>
        <time>2021-07-28T21:32:58Z</time>
      </trkpt>
      <trkpt lat="40.868176" lon="-3.946782">
        <ele>2092.328</ele>
        <time>2021-07-28T21:33:00Z</time>
      </trkpt>
      <trkpt lat="40.868150" lon="-3.946778">
        <ele>2092.689</ele>
        <time>2021-07-28T21:33:02Z</time>
      </trkpt>
      <trkpt lat="40.868125" lon="-3.946782">
        <ele>2093.069</ele>
        <time>2021-07-28T21:33:05Z</time>
      </trkpt>
      <trkpt lat="40.868112" lon="-3.946758">
        <ele>2093.204</ele>
        <time>2021-07-28T21:34:40Z</time>
      </trkpt>
      <trkpt lat="40.868093" lon="-3.946773">
        <ele>2093.524</ele>
        <time>2021-07-28T21:35:06Z</time>
      </trkpt>
      <trkpt lat="40.868074" lon="-3.946777">
        <ele>2093.708</ele>
        <time>2021-07-28T21:35:11Z</time>
      </trkpt>
      <trkpt lat="40.868054" lon="-3.946782">
        <ele>2094.063</ele>
        <time>2021-07-28T21:35:14Z</time>
      </trkpt>
      <trkpt lat="40.868032" lon="-3.946790">
        <ele>2094.315</ele>
        <time>2021-07-28T21:35:17Z</time>
      </trkpt>
      <trkpt lat="40.868013" lon="-3.946800">
        <ele>2094.552</ele>
        <time>2021-07-28T21:35:19Z</time>
      </trkpt>
      <trkpt lat="40.867987" lon="-3.946803">
        <ele>2094.769</ele>
        <time>2021-07-28T21:35:22Z</time>
      </trkpt>
      <trkpt lat="40.867968" lon="-3.946802">
        <ele>2095.030</ele>
        <time>2021-07-28T21:35:24Z</time>
      </trkpt>
      <trkpt lat="40.867942" lon="-3.946810">
        <ele>2095.290</ele>
        <time>2021-07-28T21:35:28Z</time>
      </trkpt>
      <trkpt lat="40.867920" lon="-3.946813">
        <ele>2095.473</ele>
        <time>2021-07-28T21:35:30Z</time>
      </trkpt>
      <trkpt lat="40.867901" lon="-3.946830">
        <ele>2095.664</ele>
        <time>2021-07-28T21:35:33Z</time>
      </trkpt>
      <trkpt lat="40.867882" lon="-3.946840">
        <ele>2095.739</ele>
        <time>2021-07-28T21:35:35Z</time>
      </trkpt>
      <trkpt lat="40.867866" lon="-3.946852">
        <ele>2095.801</ele>
        <time>2021-07-28T21:35:37Z</time>
      </trkpt>
      <trkpt lat="40.867846" lon="-3.946855">
        <ele>2096.021</ele>
        <time>2021-07-28T21:35:40Z</time>
      </trkpt>
      <trkpt lat="40.867827" lon="-3.946845">
        <ele>2096.208</ele>
        <time>2021-07-28T21:35:42Z</time>
      </trkpt>
      <trkpt lat="40.867805" lon="-3.946835">
        <ele>2096.590</ele>
        <time>2021-07-28T21:35:45Z</time>
      </trkpt>
      <trkpt lat="40.867789" lon="-3.946810">
        <ele>2096.842</ele>
        <time>2021-07-28T21:35:49Z</time>
      </trkpt>
      <trkpt lat="40.867776" lon="-3.946792">
        <ele>2097.199</ele>
        <time>2021-07-28T21:35:52Z</time>
      </trkpt>
      <trkpt lat="40.867757" lon="-3.946772">
        <ele>2097.536</ele>
        <time>2021-07-28T21:35:54Z</time>
      </trkpt>
      <trkpt lat="40.867741" lon="-3.946755">
        <ele>2097.857</ele>
        <time>2021-07-28T21:35:56Z</time>
      </trkpt>
      <trkpt lat="40.867722" lon="-3.946743">
        <ele>2098.177</ele>
        <time>2021-07-28T21:35:58Z</time>
      </trkpt>
      <trkpt lat="40.867702" lon="-3.946738">
        <ele>2098.420</ele>
        <time>2021-07-28T21:36:00Z</time>
      </trkpt>
      <trkpt lat="40.867683" lon="-3.946738">
        <ele>2098.691</ele>
        <time>2021-07-28T21:36:03Z</time>
      </trkpt>
      <trkpt lat="40.867664" lon="-3.946738">
        <ele>2098.868</ele>
        <time>2021-07-28T21:36:05Z</time>
      </trkpt>
      <trkpt lat="40.867645" lon="-3.946743">
        <ele>2099.042</ele>
        <time>2021-07-28T21:36:07Z</time>
      </trkpt>
      <trkpt lat="40.867622" lon="-3.946750">
        <ele>2099.326</ele>
        <time>2021-07-28T21:36:10Z</time>
      </trkpt>
      <trkpt lat="40.867597" lon="-3.946748">
        <ele>2099.608</ele>
        <time>2021-07-28T21:36:13Z</time>
      </trkpt>
      <trkpt lat="40.867578" lon="-3.946746">
        <ele>2099.843</ele>
        <time>2021-07-28T21:36:15Z</time>
      </trkpt>
      <trkpt lat="40.867555" lon="-3.946748">
        <ele>2100.155</ele>
        <time>2021-07-28T21:36:18Z</time>
      </trkpt>
      <trkpt lat="40.867530" lon="-3.946748">
        <ele>2100.452</ele>
        <time>2021-07-28T21:36:21Z</time>
      </trkpt>
      <trkpt lat="40.867510" lon="-3.946738">
        <ele>2100.619</ele>
        <time>2021-07-28T21:36:24Z</time>
      </trkpt>
      <trkpt lat="40.867485" lon="-3.946735">
        <ele>2101.040</ele>
        <time>2021-07-28T21:36:27Z</time>
      </trkpt>
      <trkpt lat="40.867459" lon="-3.946742">
        <ele>2101.390</ele>
        <time>2021-07-28T21:36:30Z</time>
      </trkpt>
      <trkpt lat="40.867437" lon="-3.946743">
        <ele>2101.623</ele>
        <time>2021-07-28T21:36:34Z</time>
      </trkpt>
      <trkpt lat="40.867411" lon="-3.946743">
        <ele>2101.934</ele>
        <time>2021-07-28T21:36:38Z</time>
      </trkpt>
      <trkpt lat="40.867389" lon="-3.946734">
        <ele>2102.369</ele>
        <time>2021-07-28T21:36:41Z</time>
      </trkpt>
      <trkpt lat="40.867366" lon="-3.946724">
        <ele>2102.604</ele>
        <time>2021-07-28T21:36:44Z</time>
      </trkpt>
      <trkpt lat="40.867344" lon="-3.946712">
        <ele>2103.024</ele>
        <time>2021-07-28T21:36:47Z</time>
      </trkpt>
      <trkpt lat="40.867325" lon="-3.946708">
        <ele>2103.308</ele>
        <time>2021-07-28T21:36:50Z</time>
      </trkpt>
      <trkpt lat="40.867306" lon="-3.946714">
        <ele>2103.523</ele>
        <time>2021-07-28T21:36:52Z</time>
      </trkpt>
      <trkpt lat="40.867286" lon="-3.946718">
        <ele>2103.895</ele>
        <time>2021-07-28T21:36:55Z</time>
      </trkpt>
      <trkpt lat="40.867267" lon="-3.946715">
        <ele>2104.092</ele>
        <time>2021-07-28T21:36:57Z</time>
      </trkpt>
      <trkpt lat="40.867248" lon="-3.946718">
        <ele>2104.399</ele>
        <time>2021-07-28T21:37:00Z</time>
      </trkpt>
      <trkpt lat="40.867222" lon="-3.946724">
        <ele>2104.640</ele>
        <time>2021-07-28T21:37:03Z</time>
      </trkpt>
      <trkpt lat="40.867203" lon="-3.946735">
        <ele>2104.710</ele>
        <time>2021-07-28T21:37:06Z</time>
      </trkpt>
      <trkpt lat="40.867181" lon="-3.946732">
        <ele>2105.053</ele>
        <time>2021-07-28T21:37:09Z</time>
      </trkpt>
      <trkpt lat="40.867162" lon="-3.946724">
        <ele>2105.384</ele>
        <time>2021-07-28T21:37:11Z</time>
      </trkpt>
      <trkpt lat="40.867142" lon="-3.946717">
        <ele>2105.615</ele>
        <time>2021-07-28T21:37:14Z</time>
      </trkpt>
      <trkpt lat="40.867120" lon="-3.946714">
        <ele>2105.865</ele>
        <time>2021-07-28T21:37:17Z</time>
      </trkpt>
      <trkpt lat="40.867101" lon="-3.946722">
        <ele>2106.011</ele>
        <time>2021-07-28T21:37:20Z</time>
      </trkpt>
      <trkpt lat="40.867082" lon="-3.946732">
        <ele>2106.208</ele>
        <time>2021-07-28T21:37:22Z</time>
      </trkpt>
      <trkpt lat="40.867062" lon="-3.946740">
        <ele>2106.488</ele>
        <time>2021-07-28T21:37:24Z</time>
      </trkpt>
      <trkpt lat="40.867046" lon="-3.946752">
        <ele>2106.550</ele>
        <time>2021-07-28T21:37:26Z</time>
      </trkpt>
      <trkpt lat="40.867027" lon="-3.946768">
        <ele>2106.657</ele>
        <time>2021-07-28T21:37:29Z</time>
      </trkpt>
      <trkpt lat="40.867008" lon="-3.946777">
        <ele>2106.834</ele>
        <time>2021-07-28T21:37:31Z</time>
      </trkpt>
      <trkpt lat="40.866989" lon="-3.946787">
        <ele>2107.055</ele>
        <time>2021-07-28T21:37:33Z</time>
      </trkpt>
      <trkpt lat="40.866970" lon="-3.946803">
        <ele>2107.245</ele>
        <time>2021-07-28T21:37:36Z</time>
      </trkpt>
      <trkpt lat="40.866950" lon="-3.946817">
        <ele>2107.498</ele>
        <time>2021-07-28T21:37:39Z</time>
      </trkpt>
      <trkpt lat="40.866931" lon="-3.946803">
        <ele>2107.879</ele>
        <time>2021-07-28T21:37:43Z</time>
      </trkpt>
      <trkpt lat="40.866912" lon="-3.946782">
        <ele>2108.334</ele>
        <time>2021-07-28T21:37:47Z</time>
      </trkpt>
      <trkpt lat="40.866890" lon="-3.946775">
        <ele>2108.855</ele>
        <time>2021-07-28T21:37:51Z</time>
      </trkpt>
      <trkpt lat="40.866870" lon="-3.946780">
        <ele>2109.210</ele>
        <time>2021-07-28T21:37:53Z</time>
      </trkpt>
      <trkpt lat="40.866851" lon="-3.946797">
        <ele>2109.508</ele>
        <time>2021-07-28T21:37:56Z</time>
      </trkpt>
      <trkpt lat="40.866835" lon="-3.946820">
        <ele>2109.870</ele>
        <time>2021-07-28T21:37:59Z</time>
      </trkpt>
      <trkpt lat="40.866816" lon="-3.946837">
        <ele>2110.212</ele>
        <time>2021-07-28T21:38:02Z</time>
      </trkpt>
      <trkpt lat="40.866800" lon="-3.946857">
        <ele>2110.469</ele>
        <time>2021-07-28T21:38:06Z</time>
      </trkpt>
      <trkpt lat="40.866774" lon="-3.946868">
        <ele>2111.066</ele>
        <time>2021-07-28T21:38:11Z</time>
      </trkpt>
      <trkpt lat="40.866755" lon="-3.946885">
        <ele>2111.357</ele>
        <time>2021-07-28T21:38:14Z</time>
      </trkpt>
      <trkpt lat="40.866736" lon="-3.946895">
        <ele>2111.717</ele>
        <time>2021-07-28T21:38:17Z</time>
      </trkpt>
      <trkpt lat="40.866714" lon="-3.946886">
        <ele>2112.250</ele>
        <time>2021-07-28T21:38:21Z</time>
      </trkpt>
      <trkpt lat="40.866694" lon="-3.946875">
        <ele>2112.741</ele>
        <time>2021-07-28T21:38:25Z</time>
      </trkpt>
      <trkpt lat="40.866672" lon="-3.946870">
        <ele>2113.224</ele>
        <time>2021-07-28T21:38:28Z</time>
      </trkpt>
      <trkpt lat="40.866653" lon="-3.946873">
        <ele>2113.504</ele>
        <time>2021-07-28T21:38:31Z</time>
      </trkpt>
      <trkpt lat="40.866630" lon="-3.946870">
        <ele>2113.914</ele>
        <time>2021-07-28T21:38:35Z</time>
      </trkpt>
      <trkpt lat="40.866611" lon="-3.946865">
        <ele>2114.308</ele>
        <time>2021-07-28T21:38:39Z</time>
      </trkpt>
      <trkpt lat="40.866589" lon="-3.946858">
        <ele>2114.759</ele>
        <time>2021-07-28T21:38:42Z</time>
      </trkpt>
      <trkpt lat="40.866570" lon="-3.946852">
        <ele>2115.191</ele>
        <time>2021-07-28T21:38:45Z</time>
      </trkpt>
      <trkpt lat="40.866544" lon="-3.946838">
        <ele>2115.618</ele>
        <time>2021-07-28T21:38:49Z</time>
      </trkpt>
      <trkpt lat="40.866525" lon="-3.946828">
        <ele>2116.055</ele>
        <time>2021-07-28T21:38:52Z</time>
      </trkpt>
      <trkpt lat="40.866502" lon="-3.946817">
        <ele>2116.476</ele>
        <time>2021-07-28T21:38:56Z</time>
      </trkpt>
      <trkpt lat="40.866486" lon="-3.946833">
        <ele>2116.736</ele>
        <time>2021-07-28T21:38:59Z</time>
      </trkpt>
      <trkpt lat="40.866467" lon="-3.946852">
        <ele>2116.919</ele>
        <time>2021-07-28T21:39:02Z</time>
      </trkpt>
      <trkpt lat="40.866451" lon="-3.946867">
        <ele>2117.270</ele>
        <time>2021-07-28T21:39:06Z</time>
      </trkpt>
      <trkpt lat="40.866429" lon="-3.946852">
        <ele>2117.625</ele>
        <time>2021-07-28T21:39:11Z</time>
      </trkpt>
      <trkpt lat="40.866410" lon="-3.946843">
        <ele>2118.026</ele>
        <time>2021-07-28T21:39:13Z</time>
      </trkpt>
      <trkpt lat="40.866387" lon="-3.946837">
        <ele>2118.408</ele>
        <time>2021-07-28T21:39:16Z</time>
      </trkpt>
      <trkpt lat="40.866368" lon="-3.946835">
        <ele>2118.908</ele>
        <time>2021-07-28T21:39:19Z</time>
      </trkpt>
      <trkpt lat="40.866349" lon="-3.946830">
        <ele>2119.449</ele>
        <time>2021-07-28T21:39:22Z</time>
      </trkpt>
      <trkpt lat="40.866330" lon="-3.946827">
        <ele>2119.821</ele>
        <time>2021-07-28T21:39:25Z</time>
      </trkpt>
      <trkpt lat="40.866310" lon="-3.946822">
        <ele>2120.358</ele>
        <time>2021-07-28T21:39:28Z</time>
      </trkpt>
      <trkpt lat="40.866291" lon="-3.946825">
        <ele>2120.725</ele>
        <time>2021-07-28T21:39:31Z</time>
      </trkpt>
      <trkpt lat="40.866272" lon="-3.946835">
        <ele>2121.256</ele>
        <time>2021-07-28T21:39:34Z</time>
      </trkpt>
      <trkpt lat="40.866246" lon="-3.946838">
        <ele>2121.886</ele>
        <time>2021-07-28T21:39:38Z</time>
      </trkpt>
      <trkpt lat="40.866221" lon="-3.946837">
        <ele>2122.469</ele>
        <time>2021-07-28T21:39:42Z</time>
      </trkpt>
      <trkpt lat="40.866198" lon="-3.946835">
        <ele>2122.980</ele>
        <time>2021-07-28T21:39:45Z</time>
      </trkpt>
      <trkpt lat="40.866176" lon="-3.946832">
        <ele>2123.518</ele>
        <time>2021-07-28T21:39:48Z</time>
      </trkpt>
      <trkpt lat="40.866154" lon="-3.946830">
        <ele>2124.098</ele>
        <time>2021-07-28T21:39:51Z</time>
      </trkpt>
      <trkpt lat="40.866138" lon="-3.946842">
        <ele>2124.417</ele>
        <time>2021-07-28T21:39:55Z</time>
      </trkpt>
      <trkpt lat="40.866118" lon="-3.946835">
        <ele>2124.808</ele>
        <time>2021-07-28T21:39:58Z</time>
      </trkpt>
      <trkpt lat="40.866099" lon="-3.946832">
        <ele>2125.398</ele>
        <time>2021-07-28T21:40:01Z</time>
      </trkpt>
      <trkpt lat="40.866080" lon="-3.946827">
        <ele>2125.710</ele>
        <time>2021-07-28T21:40:06Z</time>
      </trkpt>
      <trkpt lat="40.866058" lon="-3.946832">
        <ele>2126.117</ele>
        <time>2021-07-28T21:40:10Z</time>
      </trkpt>
      <trkpt lat="40.866038" lon="-3.946833">
        <ele>2126.624</ele>
        <time>2021-07-28T21:40:14Z</time>
      </trkpt>
      <trkpt lat="40.866019" lon="-3.946837">
        <ele>2127.075</ele>
        <time>2021-07-28T21:40:18Z</time>
      </trkpt>
      <trkpt lat="40.866000" lon="-3.946823">
        <ele>2127.415</ele>
        <time>2021-07-28T21:40:22Z</time>
      </trkpt>
      <trkpt lat="40.865981" lon="-3.946818">
        <ele>2127.828</ele>
        <time>2021-07-28T21:40:26Z</time>
      </trkpt>
      <trkpt lat="40.865958" lon="-3.946813">
        <ele>2128.339</ele>
        <time>2021-07-28T21:40:30Z</time>
      </trkpt>
      <trkpt lat="40.865936" lon="-3.946803">
        <ele>2128.832</ele>
        <time>2021-07-28T21:40:34Z</time>
      </trkpt>
      <trkpt lat="40.865917" lon="-3.946785">
        <ele>2129.292</ele>
        <time>2021-07-28T21:40:38Z</time>
      </trkpt>
      <trkpt lat="40.865898" lon="-3.946785">
        <ele>2129.611</ele>
        <time>2021-07-28T21:40:41Z</time>
      </trkpt>
      <trkpt lat="40.865878" lon="-3.946795">
        <ele>2130.008</ele>
        <time>2021-07-28T21:40:45Z</time>
      </trkpt>
      <trkpt lat="40.865859" lon="-3.946795">
        <ele>2130.480</ele>
        <time>2021-07-28T21:40:48Z</time>
      </trkpt>
      <trkpt lat="40.865840" lon="-3.946792">
        <ele>2130.942</ele>
        <time>2021-07-28T21:40:51Z</time>
      </trkpt>
      <trkpt lat="40.865821" lon="-3.946792">
        <ele>2131.269</ele>
        <time>2021-07-28T21:40:54Z</time>
      </trkpt>
      <trkpt lat="40.865802" lon="-3.946788">
        <ele>2131.536</ele>
        <time>2021-07-28T21:40:58Z</time>
      </trkpt>
      <trkpt lat="40.865779" lon="-3.946787">
        <ele>2131.977</ele>
        <time>2021-07-28T21:41:02Z</time>
      </trkpt>
      <trkpt lat="40.865760" lon="-3.946788">
        <ele>2132.227</ele>
        <time>2021-07-28T21:41:05Z</time>
      </trkpt>
      <trkpt lat="40.865741" lon="-3.946783">
        <ele>2132.520</ele>
        <time>2021-07-28T21:41:08Z</time>
      </trkpt>
      <trkpt lat="40.865722" lon="-3.946782">
        <ele>2132.871</ele>
        <time>2021-07-28T21:41:11Z</time>
      </trkpt>
      <trkpt lat="40.865699" lon="-3.946778">
        <ele>2133.191</ele>
        <time>2021-07-28T21:41:15Z</time>
      </trkpt>
      <trkpt lat="40.865677" lon="-3.946782">
        <ele>2133.581</ele>
        <time>2021-07-28T21:41:19Z</time>
      </trkpt>
      <trkpt lat="40.865654" lon="-3.946782">
        <ele>2133.819</ele>
        <time>2021-07-28T21:41:23Z</time>
      </trkpt>
      <trkpt lat="40.865635" lon="-3.946778">
        <ele>2134.108</ele>
        <time>2021-07-28T21:41:26Z</time>
      </trkpt>
      <trkpt lat="40.865616" lon="-3.946780">
        <ele>2134.456</ele>
        <time>2021-07-28T21:41:30Z</time>
      </trkpt>
      <trkpt lat="40.865597" lon="-3.946782">
        <ele>2134.818</ele>
        <time>2021-07-28T21:41:34Z</time>
      </trkpt>
      <trkpt lat="40.865574" lon="-3.946787">
        <ele>2135.125</ele>
        <time>2021-07-28T21:41:38Z</time>
      </trkpt>
      <trkpt lat="40.865555" lon="-3.946790">
        <ele>2135.552</ele>
        <time>2021-07-28T21:41:41Z</time>
      </trkpt>
      <trkpt lat="40.865533" lon="-3.946777">
        <ele>2135.993</ele>
        <time>2021-07-28T21:41:44Z</time>
      </trkpt>
      <trkpt lat="40.865514" lon="-3.946777">
        <ele>2136.293</ele>
        <time>2021-07-28T21:41:47Z</time>
      </trkpt>
      <trkpt lat="40.865494" lon="-3.946777">
        <ele>2136.626</ele>
        <time>2021-07-28T21:41:50Z</time>
      </trkpt>
      <trkpt lat="40.865475" lon="-3.946785">
        <ele>2137.097</ele>
        <time>2021-07-28T21:41:54Z</time>
      </trkpt>
      <trkpt lat="40.865456" lon="-3.946785">
        <ele>2137.446</ele>
        <time>2021-07-28T21:41:57Z</time>
      </trkpt>
      <trkpt lat="40.865434" lon="-3.946787">
        <ele>2137.988</ele>
        <time>2021-07-28T21:42:00Z</time>
      </trkpt>
      <trkpt lat="40.865411" lon="-3.946792">
        <ele>2138.316</ele>
        <time>2021-07-28T21:42:03Z</time>
      </trkpt>
      <trkpt lat="40.865395" lon="-3.946807">
        <ele>2138.708</ele>
        <time>2021-07-28T21:42:06Z</time>
      </trkpt>
      <trkpt lat="40.865379" lon="-3.946818">
        <ele>2139.071</ele>
        <time>2021-07-28T21:42:09Z</time>
      </trkpt>
      <trkpt lat="40.865363" lon="-3.946830">
        <ele>2139.343</ele>
        <time>2021-07-28T21:42:13Z</time>
      </trkpt>
      <trkpt lat="40.865357" lon="-3.946853">
        <ele>2139.520</ele>
        <time>2021-07-28T21:42:23Z</time>
      </trkpt>
      <trkpt lat="40.865334" lon="-3.946872">
        <ele>2139.957</ele>
        <time>2021-07-28T21:43:02Z</time>
      </trkpt>
      <trkpt lat="40.865302" lon="-3.946883">
        <ele>2140.518</ele>
        <time>2021-07-28T21:43:04Z</time>
      </trkpt>
      <trkpt lat="40.865283" lon="-3.946888">
        <ele>2140.988</ele>
        <time>2021-07-28T21:43:05Z</time>
      </trkpt>
      <trkpt lat="40.865254" lon="-3.946902">
        <ele>2141.411</ele>
        <time>2021-07-28T21:43:07Z</time>
      </trkpt>
      <trkpt lat="40.865226" lon="-3.946915">
        <ele>2141.952</ele>
        <time>2021-07-28T21:43:09Z</time>
      </trkpt>
      <trkpt lat="40.865206" lon="-3.946923">
        <ele>2142.391</ele>
        <time>2021-07-28T21:43:11Z</time>
      </trkpt>
      <trkpt lat="40.865184" lon="-3.946937">
        <ele>2142.781</ele>
        <time>2021-07-28T21:43:15Z</time>
      </trkpt>
      <trkpt lat="40.865165" lon="-3.946945">
        <ele>2143.019</ele>
        <time>2021-07-28T21:43:18Z</time>
      </trkpt>
      <trkpt lat="40.865142" lon="-3.946933">
        <ele>2143.408</ele>
        <time>2021-07-28T21:43:20Z</time>
      </trkpt>
      <trkpt lat="40.865123" lon="-3.946928">
        <ele>2143.856</ele>
        <time>2021-07-28T21:43:22Z</time>
      </trkpt>
      <trkpt lat="40.865104" lon="-3.946940">
        <ele>2144.128</ele>
        <time>2021-07-28T21:43:25Z</time>
      </trkpt>
      <trkpt lat="40.865082" lon="-3.946950">
        <ele>2144.585</ele>
        <time>2021-07-28T21:43:28Z</time>
      </trkpt>
      <trkpt lat="40.865066" lon="-3.946968">
        <ele>2144.932</ele>
        <time>2021-07-28T21:43:31Z</time>
      </trkpt>
      <trkpt lat="40.865043" lon="-3.946985">
        <ele>2145.423</ele>
        <time>2021-07-28T21:43:35Z</time>
      </trkpt>
      <trkpt lat="40.865024" lon="-3.946990">
        <ele>2145.733</ele>
        <time>2021-07-28T21:43:37Z</time>
      </trkpt>
      <trkpt lat="40.865002" lon="-3.947000">
        <ele>2146.216</ele>
        <time>2021-07-28T21:43:40Z</time>
      </trkpt>
      <trkpt lat="40.864979" lon="-3.947018">
        <ele>2146.667</ele>
        <time>2021-07-28T21:43:44Z</time>
      </trkpt>
      <trkpt lat="40.864960" lon="-3.947037">
        <ele>2147.115</ele>
        <time>2021-07-28T21:43:47Z</time>
      </trkpt>
      <trkpt lat="40.864938" lon="-3.947048">
        <ele>2147.565</ele>
        <time>2021-07-28T21:43:51Z</time>
      </trkpt>
      <trkpt lat="40.864918" lon="-3.947052">
        <ele>2147.911</ele>
        <time>2021-07-28T21:43:55Z</time>
      </trkpt>
      <trkpt lat="40.864896" lon="-3.947058">
        <ele>2148.308</ele>
        <time>2021-07-28T21:43:59Z</time>
      </trkpt>
      <trkpt lat="40.864877" lon="-3.947062">
        <ele>2148.678</ele>
        <time>2021-07-28T21:44:01Z</time>
      </trkpt>
      <trkpt lat="40.864854" lon="-3.947068">
        <ele>2149.160</ele>
        <time>2021-07-28T21:44:04Z</time>
      </trkpt>
      <trkpt lat="40.864829" lon="-3.947075">
        <ele>2149.577</ele>
        <time>2021-07-28T21:44:08Z</time>
      </trkpt>
      <trkpt lat="40.864810" lon="-3.947087">
        <ele>2149.974</ele>
        <time>2021-07-28T21:44:11Z</time>
      </trkpt>
      <trkpt lat="40.864790" lon="-3.947087">
        <ele>2150.335</ele>
        <time>2021-07-28T21:44:14Z</time>
      </trkpt>
      <trkpt lat="40.864771" lon="-3.947087">
        <ele>2150.675</ele>
        <time>2021-07-28T21:44:17Z</time>
      </trkpt>
      <trkpt lat="40.864746" lon="-3.947085">
        <ele>2151.178</ele>
        <time>2021-07-28T21:44:20Z</time>
      </trkpt>
      <trkpt lat="40.864723" lon="-3.947092">
        <ele>2151.599</ele>
        <time>2021-07-28T21:44:23Z</time>
      </trkpt>
      <trkpt lat="40.864701" lon="-3.947098">
        <ele>2151.853</ele>
        <time>2021-07-28T21:44:27Z</time>
      </trkpt>
      <trkpt lat="40.864678" lon="-3.947084">
        <ele>2152.004</ele>
        <time>2021-07-28T21:44:30Z</time>
      </trkpt>
      <trkpt lat="40.864659" lon="-3.947088">
        <ele>2152.214</ele>
        <time>2021-07-28T21:44:33Z</time>
      </trkpt>
      <trkpt lat="40.864643" lon="-3.947103">
        <ele>2152.408</ele>
        <time>2021-07-28T21:44:36Z</time>
      </trkpt>
      <trkpt lat="40.864630" lon="-3.947123">
        <ele>2152.642</ele>
        <time>2021-07-28T21:44:39Z</time>
      </trkpt>
      <trkpt lat="40.864611" lon="-3.947135">
        <ele>2152.924</ele>
        <time>2021-07-28T21:44:43Z</time>
      </trkpt>
      <trkpt lat="40.864592" lon="-3.947135">
        <ele>2153.111</ele>
        <time>2021-07-28T21:44:47Z</time>
      </trkpt>
      <trkpt lat="40.864566" lon="-3.947130">
        <ele>2153.448</ele>
        <time>2021-07-28T21:44:51Z</time>
      </trkpt>
      <trkpt lat="40.864547" lon="-3.947120">
        <ele>2153.589</ele>
        <time>2021-07-28T21:44:54Z</time>
      </trkpt>
      <trkpt lat="40.864528" lon="-3.947122">
        <ele>2153.749</ele>
        <time>2021-07-28T21:44:57Z</time>
      </trkpt>
      <trkpt lat="40.864509" lon="-3.947125">
        <ele>2154.032</ele>
        <time>2021-07-28T21:45:00Z</time>
      </trkpt>
      <trkpt lat="40.864486" lon="-3.947130">
        <ele>2154.213</ele>
        <time>2021-07-28T21:45:03Z</time>
      </trkpt>
      <trkpt lat="40.864470" lon="-3.947147">
        <ele>2154.582</ele>
        <time>2021-07-28T21:45:06Z</time>
      </trkpt>
      <trkpt lat="40.864451" lon="-3.947160">
        <ele>2154.743</ele>
        <time>2021-07-28T21:45:09Z</time>
      </trkpt>
      <trkpt lat="40.864429" lon="-3.947172">
        <ele>2155.217</ele>
        <time>2021-07-28T21:45:13Z</time>
      </trkpt>
      <trkpt lat="40.864410" lon="-3.947178">
        <ele>2155.608</ele>
        <time>2021-07-28T21:45:16Z</time>
      </trkpt>
      <trkpt lat="40.864387" lon="-3.947183">
        <ele>2156.145</ele>
        <time>2021-07-28T21:45:20Z</time>
      </trkpt>
      <trkpt lat="40.864365" lon="-3.947192">
        <ele>2156.617</ele>
        <time>2021-07-28T21:45:23Z</time>
      </trkpt>
      <trkpt lat="40.864346" lon="-3.947202">
        <ele>2157.124</ele>
        <time>2021-07-28T21:45:26Z</time>
      </trkpt>
      <trkpt lat="40.864326" lon="-3.947203">
        <ele>2157.531</ele>
        <time>2021-07-28T21:45:29Z</time>
      </trkpt>
      <trkpt lat="40.864304" lon="-3.947212">
        <ele>2158.092</ele>
        <time>2021-07-28T21:45:33Z</time>
      </trkpt>
      <trkpt lat="40.864282" lon="-3.947208">
        <ele>2158.522</ele>
        <time>2021-07-28T21:45:37Z</time>
      </trkpt>
      <trkpt lat="40.864259" lon="-3.947212">
        <ele>2159.085</ele>
        <time>2021-07-28T21:45:39Z</time>
      </trkpt>
      <trkpt lat="40.864243" lon="-3.947228">
        <ele>2159.426</ele>
        <time>2021-07-28T21:45:42Z</time>
      </trkpt>
      <trkpt lat="40.864224" lon="-3.947242">
        <ele>2159.828</ele>
        <time>2021-07-28T21:45:45Z</time>
      </trkpt>
      <trkpt lat="40.864195" lon="-3.947255">
        <ele>2160.489</ele>
        <time>2021-07-28T21:45:48Z</time>
      </trkpt>
      <trkpt lat="40.864170" lon="-3.947265">
        <ele>2160.917</ele>
        <time>2021-07-28T21:45:51Z</time>
      </trkpt>
      <trkpt lat="40.864150" lon="-3.947275">
        <ele>2161.108</ele>
        <time>2021-07-28T21:45:53Z</time>
      </trkpt>
      <trkpt lat="40.864131" lon="-3.947293">
        <ele>2161.329</ele>
        <time>2021-07-28T21:45:56Z</time>
      </trkpt>
      <trkpt lat="40.864115" lon="-3.947310">
        <ele>2161.431</ele>
        <time>2021-07-28T21:45:59Z</time>
      </trkpt>
      <trkpt lat="40.864096" lon="-3.947325">
        <ele>2161.648</ele>
        <time>2021-07-28T21:46:02Z</time>
      </trkpt>
      <trkpt lat="40.864074" lon="-3.947343">
        <ele>2161.895</ele>
        <time>2021-07-28T21:46:05Z</time>
      </trkpt>
      <trkpt lat="40.864061" lon="-3.947360">
        <ele>2161.996</ele>
        <time>2021-07-28T21:46:08Z</time>
      </trkpt>
      <trkpt lat="40.864048" lon="-3.947378">
        <ele>2162.146</ele>
        <time>2021-07-28T21:46:11Z</time>
      </trkpt>
      <trkpt lat="40.864029" lon="-3.947392">
        <ele>2162.329</ele>
        <time>2021-07-28T21:46:14Z</time>
      </trkpt>
      <trkpt lat="40.864010" lon="-3.947397">
        <ele>2162.530</ele>
        <time>2021-07-28T21:46:16Z</time>
      </trkpt>
      <trkpt lat="40.863987" lon="-3.947412">
        <ele>2162.717</ele>
        <time>2021-07-28T21:46:20Z</time>
      </trkpt>
      <trkpt lat="40.863971" lon="-3.947430">
        <ele>2162.987</ele>
        <time>2021-07-28T21:46:23Z</time>
      </trkpt>
      <trkpt lat="40.863955" lon="-3.947448">
        <ele>2163.115</ele>
        <time>2021-07-28T21:46:26Z</time>
      </trkpt>
      <trkpt lat="40.863933" lon="-3.947467">
        <ele>2163.408</ele>
        <time>2021-07-28T21:46:29Z</time>
      </trkpt>
      <trkpt lat="40.863914" lon="-3.947477">
        <ele>2163.748</ele>
        <time>2021-07-28T21:46:32Z</time>
      </trkpt>
      <trkpt lat="40.863894" lon="-3.947473">
        <ele>2163.870</ele>
        <time>2021-07-28T21:46:35Z</time>
      </trkpt>
      <trkpt lat="40.863872" lon="-3.947460">
        <ele>2164.047</ele>
        <time>2021-07-28T21:46:38Z</time>
      </trkpt>
      <trkpt lat="40.863850" lon="-3.947445">
        <ele>2164.294</ele>
        <time>2021-07-28T21:46:41Z</time>
      </trkpt>
      <trkpt lat="40.863830" lon="-3.947435">
        <ele>2164.475</ele>
        <time>2021-07-28T21:46:43Z</time>
      </trkpt>
      <trkpt lat="40.863811" lon="-3.947434">
        <ele>2164.645</ele>
        <time>2021-07-28T21:46:45Z</time>
      </trkpt>
      <trkpt lat="40.863792" lon="-3.947427">
        <ele>2164.858</ele>
        <time>2021-07-28T21:46:48Z</time>
      </trkpt>
      <trkpt lat="40.863770" lon="-3.947414">
        <ele>2165.099</ele>
        <time>2021-07-28T21:46:51Z</time>
      </trkpt>
      <trkpt lat="40.863750" lon="-3.947410">
        <ele>2165.225</ele>
        <time>2021-07-28T21:46:53Z</time>
      </trkpt>
      <trkpt lat="40.863731" lon="-3.947410">
        <ele>2165.426</ele>
        <time>2021-07-28T21:46:55Z</time>
      </trkpt>
      <trkpt lat="40.863709" lon="-3.947410">
        <ele>2165.608</ele>
        <time>2021-07-28T21:46:57Z</time>
      </trkpt>
      <trkpt lat="40.863690" lon="-3.947407">
        <ele>2165.808</ele>
        <time>2021-07-28T21:46:59Z</time>
      </trkpt>
      <trkpt lat="40.863670" lon="-3.947395">
        <ele>2166.059</ele>
        <time>2021-07-28T21:47:01Z</time>
      </trkpt>
      <trkpt lat="40.863648" lon="-3.947382">
        <ele>2166.241</ele>
        <time>2021-07-28T21:47:04Z</time>
      </trkpt>
      <trkpt lat="40.863629" lon="-3.947370">
        <ele>2166.388</ele>
        <time>2021-07-28T21:47:06Z</time>
      </trkpt>
      <trkpt lat="40.863603" lon="-3.947357">
        <ele>2166.625</ele>
        <time>2021-07-28T21:47:08Z</time>
      </trkpt>
      <trkpt lat="40.863584" lon="-3.947347">
        <ele>2166.956</ele>
        <time>2021-07-28T21:47:10Z</time>
      </trkpt>
      <trkpt lat="40.863565" lon="-3.947342">
        <ele>2167.336</ele>
        <time>2021-07-28T21:47:12Z</time>
      </trkpt>
      <trkpt lat="40.863546" lon="-3.947340">
        <ele>2167.649</ele>
        <time>2021-07-28T21:47:14Z</time>
      </trkpt>
      <trkpt lat="40.863520" lon="-3.947335">
        <ele>2168.050</ele>
        <time>2021-07-28T21:47:17Z</time>
      </trkpt>
      <trkpt lat="40.863494" lon="-3.947322">
        <ele>2168.544</ele>
        <time>2021-07-28T21:47:20Z</time>
      </trkpt>
      <trkpt lat="40.863469" lon="-3.947303">
        <ele>2168.805</ele>
        <time>2021-07-28T21:47:23Z</time>
      </trkpt>
      <trkpt lat="40.863446" lon="-3.947290">
        <ele>2169.215</ele>
        <time>2021-07-28T21:47:26Z</time>
      </trkpt>
      <trkpt lat="40.863421" lon="-3.947275">
        <ele>2169.608</ele>
        <time>2021-07-28T21:47:29Z</time>
      </trkpt>
      <trkpt lat="40.863392" lon="-3.947268">
        <ele>2170.161</ele>
        <time>2021-07-28T21:47:32Z</time>
      </trkpt>
      <trkpt lat="40.863366" lon="-3.947260">
        <ele>2170.583</ele>
        <time>2021-07-28T21:47:34Z</time>
      </trkpt>
      <trkpt lat="40.863347" lon="-3.947260">
        <ele>2170.940</ele>
        <time>2021-07-28T21:47:36Z</time>
      </trkpt>
      <trkpt lat="40.863328" lon="-3.947256">
        <ele>2171.277</ele>
        <time>2021-07-28T21:47:38Z</time>
      </trkpt>
      <trkpt lat="40.863309" lon="-3.947253">
        <ele>2171.368</ele>
        <time>2021-07-28T21:47:40Z</time>
      </trkpt>
      <trkpt lat="40.863290" lon="-3.947248">
        <ele>2171.478</ele>
        <time>2021-07-28T21:47:42Z</time>
      </trkpt>
      <trkpt lat="40.863267" lon="-3.947242">
        <ele>2171.591</ele>
        <time>2021-07-28T21:47:45Z</time>
      </trkpt>
      <trkpt lat="40.863248" lon="-3.947242">
        <ele>2171.742</ele>
        <time>2021-07-28T21:47:47Z</time>
      </trkpt>
      <trkpt lat="40.863229" lon="-3.947242">
        <ele>2171.812</ele>
        <time>2021-07-28T21:47:49Z</time>
      </trkpt>
      <trkpt lat="40.863210" lon="-3.947235">
        <ele>2171.932</ele>
        <time>2021-07-28T21:47:51Z</time>
      </trkpt>
      <trkpt lat="40.863190" lon="-3.947230">
        <ele>2172.105</ele>
        <time>2021-07-28T21:47:53Z</time>
      </trkpt>
      <trkpt lat="40.863171" lon="-3.947226">
        <ele>2172.208</ele>
        <time>2021-07-28T21:47:55Z</time>
      </trkpt>
      <trkpt lat="40.863152" lon="-3.947228">
        <ele>2172.398</ele>
        <time>2021-07-28T21:47:57Z</time>
      </trkpt>
      <trkpt lat="40.863130" lon="-3.947222">
        <ele>2172.520</ele>
        <time>2021-07-28T21:48:00Z</time>
      </trkpt>
      <trkpt lat="40.863110" lon="-3.947203">
        <ele>2172.597</ele>
        <time>2021-07-28T21:48:03Z</time>
      </trkpt>
      <trkpt lat="40.863098" lon="-3.947185">
        <ele>2172.674</ele>
        <time>2021-07-28T21:48:05Z</time>
      </trkpt>
      <trkpt lat="40.863088" lon="-3.947155">
        <ele>2172.565</ele>
        <time>2021-07-28T21:48:08Z</time>
      </trkpt>
      <trkpt lat="40.863062" lon="-3.947138">
        <ele>2172.775</ele>
        <time>2021-07-28T21:48:10Z</time>
      </trkpt>
      <trkpt lat="40.863040" lon="-3.947123">
        <ele>2172.888</ele>
        <time>2021-07-28T21:48:12Z</time>
      </trkpt>
      <trkpt lat="40.863021" lon="-3.947105">
        <ele>2172.959</ele>
        <time>2021-07-28T21:48:14Z</time>
      </trkpt>
      <trkpt lat="40.862995" lon="-3.947080">
        <ele>2173.095</ele>
        <time>2021-07-28T21:48:17Z</time>
      </trkpt>
      <trkpt lat="40.862973" lon="-3.947067">
        <ele>2173.249</ele>
        <time>2021-07-28T21:48:19Z</time>
      </trkpt>
      <trkpt lat="40.862944" lon="-3.947057">
        <ele>2173.423</ele>
        <time>2021-07-28T21:48:22Z</time>
      </trkpt>
      <trkpt lat="40.862918" lon="-3.947042">
        <ele>2173.508</ele>
        <time>2021-07-28T21:48:25Z</time>
      </trkpt>
      <trkpt lat="40.862896" lon="-3.947030">
        <ele>2173.686</ele>
        <time>2021-07-28T21:48:28Z</time>
      </trkpt>
      <trkpt lat="40.862874" lon="-3.947013">
        <ele>2173.728</ele>
        <time>2021-07-28T21:48:31Z</time>
      </trkpt>
      <trkpt lat="40.862854" lon="-3.947000">
        <ele>2173.825</ele>
        <time>2021-07-28T21:48:33Z</time>
      </trkpt>
      <trkpt lat="40.862832" lon="-3.946992">
        <ele>2173.952</ele>
        <time>2021-07-28T21:48:35Z</time>
      </trkpt>
      <trkpt lat="40.862810" lon="-3.946985">
        <ele>2174.063</ele>
        <time>2021-07-28T21:48:37Z</time>
      </trkpt>
      <trkpt lat="40.862781" lon="-3.946973">
        <ele>2174.283</ele>
        <time>2021-07-28T21:48:40Z</time>
      </trkpt>
      <trkpt lat="40.862765" lon="-3.946962">
        <ele>2174.236</ele>
        <time>2021-07-28T21:48:42Z</time>
      </trkpt>
      <trkpt lat="40.862746" lon="-3.946950">
        <ele>2174.317</ele>
        <time>2021-07-28T21:48:44Z</time>
      </trkpt>
      <trkpt lat="40.862720" lon="-3.946937">
        <ele>2174.425</ele>
        <time>2021-07-28T21:48:47Z</time>
      </trkpt>
      <trkpt lat="40.862694" lon="-3.946923">
        <ele>2174.426</ele>
        <time>2021-07-28T21:48:50Z</time>
      </trkpt>
      <trkpt lat="40.862675" lon="-3.946915">
        <ele>2174.508</ele>
        <time>2021-07-28T21:48:52Z</time>
      </trkpt>
      <trkpt lat="40.862650" lon="-3.946910">
        <ele>2174.708</ele>
        <time>2021-07-28T21:48:54Z</time>
      </trkpt>
      <trkpt lat="40.862630" lon="-3.946905">
        <ele>2174.899</ele>
        <time>2021-07-28T21:48:57Z</time>
      </trkpt>
      <trkpt lat="40.862611" lon="-3.946896">
        <ele>2174.931</ele>
        <time>2021-07-28T21:48:59Z</time>
      </trkpt>
      <trkpt lat="40.862582" lon="-3.946883">
        <ele>2175.048</ele>
        <time>2021-07-28T21:49:02Z</time>
      </trkpt>
      <trkpt lat="40.862563" lon="-3.946883">
        <ele>2175.165</ele>
        <time>2021-07-28T21:49:04Z</time>
      </trkpt>
      <trkpt lat="40.862541" lon="-3.946880">
        <ele>2175.226</ele>
        <time>2021-07-28T21:49:06Z</time>
      </trkpt>
      <trkpt lat="40.862522" lon="-3.946873">
        <ele>2175.346</ele>
        <time>2021-07-28T21:49:08Z</time>
      </trkpt>
      <trkpt lat="40.862502" lon="-3.946867">
        <ele>2175.449</ele>
        <time>2021-07-28T21:49:10Z</time>
      </trkpt>
      <trkpt lat="40.862483" lon="-3.946862">
        <ele>2175.650</ele>
        <time>2021-07-28T21:49:12Z</time>
      </trkpt>
      <trkpt lat="40.862464" lon="-3.946857">
        <ele>2175.745</ele>
        <time>2021-07-28T21:49:14Z</time>
      </trkpt>
      <trkpt lat="40.862438" lon="-3.946848">
        <ele>2175.947</ele>
        <time>2021-07-28T21:49:17Z</time>
      </trkpt>
      <trkpt lat="40.862413" lon="-3.946845">
        <ele>2176.111</ele>
        <time>2021-07-28T21:49:20Z</time>
      </trkpt>
      <trkpt lat="40.862394" lon="-3.946843">
        <ele>2176.308</ele>
        <time>2021-07-28T21:49:22Z</time>
      </trkpt>
      <trkpt lat="40.862374" lon="-3.946833">
        <ele>2176.431</ele>
        <time>2021-07-28T21:49:24Z</time>
      </trkpt>
      <trkpt lat="40.862355" lon="-3.946822">
        <ele>2176.513</ele>
        <time>2021-07-28T21:49:26Z</time>
      </trkpt>
      <trkpt lat="40.862294" lon="-3.946793">
        <ele>2176.720</ele>
        <time>2021-07-28T21:49:33Z</time>
      </trkpt>
      <trkpt lat="40.862269" lon="-3.946792">
        <ele>2176.917</ele>
        <time>2021-07-28T21:49:36Z</time>
      </trkpt>
      <trkpt lat="40.862246" lon="-3.946788">
        <ele>2177.128</ele>
        <time>2021-07-28T21:49:40Z</time>
      </trkpt>
      <trkpt lat="40.862227" lon="-3.946782">
        <ele>2177.298</ele>
        <time>2021-07-28T21:49:53Z</time>
      </trkpt>
      <trkpt lat="40.862205" lon="-3.946765">
        <ele>2177.131</ele>
        <time>2021-07-28T21:49:57Z</time>
      </trkpt>
      <trkpt lat="40.862186" lon="-3.946752">
        <ele>2177.032</ele>
        <time>2021-07-28T21:49:59Z</time>
      </trkpt>
      <trkpt lat="40.862163" lon="-3.946740">
        <ele>2176.833</ele>
        <time>2021-07-28T21:50:01Z</time>
      </trkpt>
      <trkpt lat="40.862138" lon="-3.946743">
        <ele>2176.923</ele>
        <time>2021-07-28T21:50:04Z</time>
      </trkpt>
      <trkpt lat="40.862109" lon="-3.946748">
        <ele>2177.015</ele>
        <time>2021-07-28T21:50:07Z</time>
      </trkpt>
      <trkpt lat="40.862090" lon="-3.946746">
        <ele>2177.008</ele>
        <time>2021-07-28T21:50:09Z</time>
      </trkpt>
      <trkpt lat="40.862070" lon="-3.946743">
        <ele>2177.010</ele>
        <time>2021-07-28T21:50:12Z</time>
      </trkpt>
      <trkpt lat="40.862045" lon="-3.946737">
        <ele>2176.932</ele>
        <time>2021-07-28T21:50:15Z</time>
      </trkpt>
      <trkpt lat="40.862022" lon="-3.946738">
        <ele>2177.069</ele>
        <time>2021-07-28T21:50:18Z</time>
      </trkpt>
      <trkpt lat="40.862000" lon="-3.946735">
        <ele>2176.986</ele>
        <time>2021-07-28T21:50:20Z</time>
      </trkpt>
      <trkpt lat="40.861981" lon="-3.946728">
        <ele>2176.967</ele>
        <time>2021-07-28T21:50:22Z</time>
      </trkpt>
      <trkpt lat="40.861958" lon="-3.946718">
        <ele>2176.737</ele>
        <time>2021-07-28T21:50:24Z</time>
      </trkpt>
      <trkpt lat="40.861939" lon="-3.946720">
        <ele>2176.820</ele>
        <time>2021-07-28T21:50:26Z</time>
      </trkpt>
      <trkpt lat="40.861910" lon="-3.946718">
        <ele>2176.771</ele>
        <time>2021-07-28T21:50:28Z</time>
      </trkpt>
      <trkpt lat="40.861891" lon="-3.946717">
        <ele>2176.747</ele>
        <time>2021-07-28T21:50:30Z</time>
      </trkpt>
      <trkpt lat="40.861869" lon="-3.946714">
        <ele>2176.729</ele>
        <time>2021-07-28T21:50:32Z</time>
      </trkpt>
      <trkpt lat="40.861846" lon="-3.946708">
        <ele>2176.621</ele>
        <time>2021-07-28T21:50:34Z</time>
      </trkpt>
      <trkpt lat="40.861827" lon="-3.946700">
        <ele>2176.508</ele>
        <time>2021-07-28T21:50:36Z</time>
      </trkpt>
      <trkpt lat="40.861805" lon="-3.946694">
        <ele>2176.411</ele>
        <time>2021-07-28T21:50:38Z</time>
      </trkpt>
      <trkpt lat="40.861782" lon="-3.946688">
        <ele>2176.383</ele>
        <time>2021-07-28T21:50:40Z</time>
      </trkpt>
      <trkpt lat="40.861760" lon="-3.946685">
        <ele>2176.360</ele>
        <time>2021-07-28T21:50:42Z</time>
      </trkpt>
      <trkpt lat="40.861738" lon="-3.946685">
        <ele>2176.377</ele>
        <time>2021-07-28T21:50:44Z</time>
      </trkpt>
      <trkpt lat="40.861709" lon="-3.946688">
        <ele>2176.318</ele>
        <time>2021-07-28T21:50:46Z</time>
      </trkpt>
      <trkpt lat="40.861686" lon="-3.946692">
        <ele>2176.438</ele>
        <time>2021-07-28T21:50:48Z</time>
      </trkpt>
      <trkpt lat="40.861664" lon="-3.946695">
        <ele>2176.421</ele>
        <time>2021-07-28T21:50:50Z</time>
      </trkpt>
      <trkpt lat="40.861642" lon="-3.946707">
        <ele>2176.442</ele>
        <time>2021-07-28T21:50:52Z</time>
      </trkpt>
      <trkpt lat="40.861622" lon="-3.946714">
        <ele>2176.439</ele>
        <time>2021-07-28T21:50:54Z</time>
      </trkpt>
      <trkpt lat="40.861600" lon="-3.946722">
        <ele>2176.401</ele>
        <time>2021-07-28T21:50:56Z</time>
      </trkpt>
      <trkpt lat="40.861578" lon="-3.946732">
        <ele>2176.421</ele>
        <time>2021-07-28T21:50:58Z</time>
      </trkpt>
      <trkpt lat="40.861552" lon="-3.946745">
        <ele>2176.408</ele>
        <time>2021-07-28T21:51:00Z</time>
      </trkpt>
      <trkpt lat="40.861533" lon="-3.946770">
        <ele>2176.740</ele>
        <time>2021-07-28T21:51:03Z</time>
      </trkpt>
      <trkpt lat="40.861514" lon="-3.946782">
        <ele>2176.892</ele>
        <time>2021-07-28T21:51:05Z</time>
      </trkpt>
      <trkpt lat="40.861491" lon="-3.946788">
        <ele>2176.859</ele>
        <time>2021-07-28T21:51:07Z</time>
      </trkpt>
      <trkpt lat="40.861469" lon="-3.946790">
        <ele>2176.726</ele>
        <time>2021-07-28T21:51:09Z</time>
      </trkpt>
      <trkpt lat="40.861443" lon="-3.946790">
        <ele>2176.557</ele>
        <time>2021-07-28T21:51:11Z</time>
      </trkpt>
      <trkpt lat="40.861421" lon="-3.946792">
        <ele>2176.417</ele>
        <time>2021-07-28T21:51:13Z</time>
      </trkpt>
      <trkpt lat="40.861395" lon="-3.946797">
        <ele>2176.430</ele>
        <time>2021-07-28T21:51:15Z</time>
      </trkpt>
      <trkpt lat="40.861370" lon="-3.946797">
        <ele>2176.131</ele>
        <time>2021-07-28T21:51:17Z</time>
      </trkpt>
      <trkpt lat="40.861344" lon="-3.946802">
        <ele>2175.938</ele>
        <time>2021-07-28T21:51:19Z</time>
      </trkpt>
      <trkpt lat="40.861325" lon="-3.946810">
        <ele>2175.870</ele>
        <time>2021-07-28T21:51:21Z</time>
      </trkpt>
      <trkpt lat="40.861306" lon="-3.946818">
        <ele>2175.717</ele>
        <time>2021-07-28T21:51:23Z</time>
      </trkpt>
      <trkpt lat="40.861283" lon="-3.946825">
        <ele>2175.508</ele>
        <time>2021-07-28T21:51:25Z</time>
      </trkpt>
      <trkpt lat="40.861261" lon="-3.946830">
        <ele>2175.310</ele>
        <time>2021-07-28T21:51:27Z</time>
      </trkpt>
      <trkpt lat="40.861235" lon="-3.946830">
        <ele>2175.012</ele>
        <time>2021-07-28T21:51:29Z</time>
      </trkpt>
      <trkpt lat="40.861213" lon="-3.946832">
        <ele>2174.789</ele>
        <time>2021-07-28T21:51:31Z</time>
      </trkpt>
      <trkpt lat="40.861190" lon="-3.946832">
        <ele>2174.436</ele>
        <time>2021-07-28T21:51:33Z</time>
      </trkpt>
      <trkpt lat="40.861171" lon="-3.946833">
        <ele>2174.287</ele>
        <time>2021-07-28T21:51:35Z</time>
      </trkpt>
      <trkpt lat="40.861152" lon="-3.946833">
        <ele>2173.957</ele>
        <time>2021-07-28T21:51:37Z</time>
      </trkpt>
      <trkpt lat="40.861130" lon="-3.946830">
        <ele>2173.670</ele>
        <time>2021-07-28T21:51:39Z</time>
      </trkpt>
      <trkpt lat="40.861107" lon="-3.946820">
        <ele>2173.271</ele>
        <time>2021-07-28T21:51:41Z</time>
      </trkpt>
      <trkpt lat="40.861088" lon="-3.946812">
        <ele>2173.071</ele>
        <time>2021-07-28T21:51:43Z</time>
      </trkpt>
      <trkpt lat="40.861066" lon="-3.946802">
        <ele>2172.941</ele>
        <time>2021-07-28T21:51:45Z</time>
      </trkpt>
      <trkpt lat="40.861046" lon="-3.946782">
        <ele>2172.615</ele>
        <time>2021-07-28T21:51:47Z</time>
      </trkpt>
      <trkpt lat="40.861027" lon="-3.946767">
        <ele>2172.308</ele>
        <time>2021-07-28T21:51:49Z</time>
      </trkpt>
      <trkpt lat="40.861005" lon="-3.946752">
        <ele>2172.124</ele>
        <time>2021-07-28T21:51:52Z</time>
      </trkpt>
      <trkpt lat="40.860986" lon="-3.946737">
        <ele>2171.966</ele>
        <time>2021-07-28T21:51:55Z</time>
      </trkpt>
      <trkpt lat="40.860966" lon="-3.946738">
        <ele>2171.953</ele>
        <time>2021-07-28T21:51:58Z</time>
      </trkpt>
      <trkpt lat="40.861002" lon="-3.946715">
        <ele>2171.670</ele>
        <time>2021-07-28T21:53:10Z</time>
      </trkpt>
      <trkpt lat="40.860970" lon="-3.946725">
        <ele>2171.721</ele>
        <time>2021-07-28T21:53:12Z</time>
      </trkpt>
      <trkpt lat="40.860947" lon="-3.946738">
        <ele>2171.941</ele>
        <time>2021-07-28T21:53:14Z</time>
      </trkpt>
      <trkpt lat="40.860918" lon="-3.946752">
        <ele>2172.064</ele>
        <time>2021-07-28T21:53:16Z</time>
      </trkpt>
      <trkpt lat="40.860896" lon="-3.946763">
        <ele>2172.175</ele>
        <time>2021-07-28T21:53:19Z</time>
      </trkpt>
      <trkpt lat="40.860870" lon="-3.946775">
        <ele>2172.291</ele>
        <time>2021-07-28T21:53:23Z</time>
      </trkpt>
      <trkpt lat="40.860848" lon="-3.946785">
        <ele>2172.381</ele>
        <time>2021-07-28T21:53:27Z</time>
      </trkpt>
      <trkpt lat="40.860829" lon="-3.946788">
        <ele>2172.319</ele>
        <time>2021-07-28T21:53:29Z</time>
      </trkpt>
      <trkpt lat="40.860810" lon="-3.946792">
        <ele>2172.308</ele>
        <time>2021-07-28T21:53:31Z</time>
      </trkpt>
      <trkpt lat="40.860790" lon="-3.946797">
        <ele>2172.366</ele>
        <time>2021-07-28T21:53:34Z</time>
      </trkpt>
      <trkpt lat="40.860765" lon="-3.946798">
        <ele>2172.398</ele>
        <time>2021-07-28T21:53:38Z</time>
      </trkpt>
      <trkpt lat="40.860746" lon="-3.946807">
        <ele>2172.415</ele>
        <time>2021-07-28T21:53:40Z</time>
      </trkpt>
      <trkpt lat="40.860726" lon="-3.946815">
        <ele>2172.452</ele>
        <time>2021-07-28T21:53:42Z</time>
      </trkpt>
      <trkpt lat="40.860698" lon="-3.946833">
        <ele>2172.533</ele>
        <time>2021-07-28T21:53:45Z</time>
      </trkpt>
      <trkpt lat="40.860685" lon="-3.946855">
        <ele>2172.763</ele>
        <time>2021-07-28T21:53:47Z</time>
      </trkpt>
      <trkpt lat="40.860669" lon="-3.946872">
        <ele>2172.846</ele>
        <time>2021-07-28T21:53:49Z</time>
      </trkpt>
      <trkpt lat="40.860653" lon="-3.946886">
        <ele>2172.947</ele>
        <time>2021-07-28T21:53:51Z</time>
      </trkpt>
      <trkpt lat="40.860634" lon="-3.946902">
        <ele>2172.919</ele>
        <time>2021-07-28T21:53:53Z</time>
      </trkpt>
      <trkpt lat="40.860614" lon="-3.946913">
        <ele>2173.009</ele>
        <time>2021-07-28T21:53:55Z</time>
      </trkpt>
      <trkpt lat="40.860592" lon="-3.946926">
        <ele>2173.019</ele>
        <time>2021-07-28T21:53:57Z</time>
      </trkpt>
      <trkpt lat="40.860573" lon="-3.946943">
        <ele>2173.108</ele>
        <time>2021-07-28T21:53:59Z</time>
      </trkpt>
      <trkpt lat="40.860554" lon="-3.946962">
        <ele>2173.128</ele>
        <time>2021-07-28T21:54:01Z</time>
      </trkpt>
      <trkpt lat="40.860538" lon="-3.946980">
        <ele>2173.290</ele>
        <time>2021-07-28T21:54:03Z</time>
      </trkpt>
      <trkpt lat="40.860525" lon="-3.947003">
        <ele>2173.397</ele>
        <time>2021-07-28T21:54:05Z</time>
      </trkpt>
      <trkpt lat="40.860509" lon="-3.947020">
        <ele>2173.414</ele>
        <time>2021-07-28T21:54:07Z</time>
      </trkpt>
      <trkpt lat="40.860490" lon="-3.947037">
        <ele>2173.455</ele>
        <time>2021-07-28T21:54:09Z</time>
      </trkpt>
      <trkpt lat="40.860470" lon="-3.947060">
        <ele>2173.545</ele>
        <time>2021-07-28T21:54:11Z</time>
      </trkpt>
      <trkpt lat="40.860451" lon="-3.947084">
        <ele>2173.638</ele>
        <time>2021-07-28T21:54:13Z</time>
      </trkpt>
      <trkpt lat="40.860435" lon="-3.947098">
        <ele>2173.749</ele>
        <time>2021-07-28T21:54:15Z</time>
      </trkpt>
      <trkpt lat="40.860419" lon="-3.947112">
        <ele>2173.768</ele>
        <time>2021-07-28T21:54:17Z</time>
      </trkpt>
      <trkpt lat="40.860394" lon="-3.947137">
        <ele>2173.842</ele>
        <time>2021-07-28T21:54:20Z</time>
      </trkpt>
      <trkpt lat="40.860378" lon="-3.947155">
        <ele>2173.926</ele>
        <time>2021-07-28T21:54:22Z</time>
      </trkpt>
      <trkpt lat="40.860368" lon="-3.947178">
        <ele>2174.008</ele>
        <time>2021-07-28T21:54:24Z</time>
      </trkpt>
      <trkpt lat="40.860352" lon="-3.947195">
        <ele>2174.153</ele>
        <time>2021-07-28T21:54:26Z</time>
      </trkpt>
      <trkpt lat="40.860336" lon="-3.947215">
        <ele>2174.215</ele>
        <time>2021-07-28T21:54:28Z</time>
      </trkpt>
      <trkpt lat="40.860317" lon="-3.947238">
        <ele>2174.372</ele>
        <time>2021-07-28T21:54:30Z</time>
      </trkpt>
      <trkpt lat="40.860307" lon="-3.947260">
        <ele>2174.419</ele>
        <time>2021-07-28T21:54:32Z</time>
      </trkpt>
      <trkpt lat="40.860291" lon="-3.947280">
        <ele>2174.590</ele>
        <time>2021-07-28T21:54:34Z</time>
      </trkpt>
      <trkpt lat="40.860275" lon="-3.947302">
        <ele>2174.640</ele>
        <time>2021-07-28T21:54:36Z</time>
      </trkpt>
      <trkpt lat="40.860262" lon="-3.947323">
        <ele>2174.753</ele>
        <time>2021-07-28T21:54:38Z</time>
      </trkpt>
      <trkpt lat="40.860243" lon="-3.947337">
        <ele>2174.784</ele>
        <time>2021-07-28T21:54:40Z</time>
      </trkpt>
      <trkpt lat="40.860221" lon="-3.947357">
        <ele>2174.848</ele>
        <time>2021-07-28T21:54:43Z</time>
      </trkpt>
      <trkpt lat="40.860202" lon="-3.947373">
        <ele>2174.861</ele>
        <time>2021-07-28T21:54:46Z</time>
      </trkpt>
      <trkpt lat="40.860179" lon="-3.947368">
        <ele>2174.717</ele>
        <time>2021-07-28T21:54:51Z</time>
      </trkpt>
      <trkpt lat="40.860163" lon="-3.947355">
        <ele>2174.508</ele>
        <time>2021-07-28T21:54:53Z</time>
      </trkpt>
      <trkpt lat="40.860150" lon="-3.947337">
        <ele>2174.481</ele>
        <time>2021-07-28T21:54:55Z</time>
      </trkpt>
      <trkpt lat="40.860131" lon="-3.947317">
        <ele>2174.213</ele>
        <time>2021-07-28T21:54:57Z</time>
      </trkpt>
      <trkpt lat="40.860102" lon="-3.947308">
        <ele>2174.040</ele>
        <time>2021-07-28T21:55:00Z</time>
      </trkpt>
      <trkpt lat="40.860080" lon="-3.947305">
        <ele>2173.987</ele>
        <time>2021-07-28T21:55:03Z</time>
      </trkpt>
      <trkpt lat="40.860061" lon="-3.947302">
        <ele>2173.898</ele>
        <time>2021-07-28T21:55:05Z</time>
      </trkpt>
      <trkpt lat="40.860042" lon="-3.947300">
        <ele>2173.778</ele>
        <time>2021-07-28T21:55:07Z</time>
      </trkpt>
      <trkpt lat="40.860022" lon="-3.947292">
        <ele>2173.611</ele>
        <time>2021-07-28T21:55:09Z</time>
      </trkpt>
      <trkpt lat="40.859997" lon="-3.947282">
        <ele>2173.482</ele>
        <time>2021-07-28T21:55:11Z</time>
      </trkpt>
      <trkpt lat="40.859978" lon="-3.947280">
        <ele>2173.384</ele>
        <time>2021-07-28T21:55:14Z</time>
      </trkpt>
      <trkpt lat="40.859965" lon="-3.947248">
        <ele>2173.107</ele>
        <time>2021-07-28T21:55:44Z</time>
      </trkpt>
      <trkpt lat="40.859955" lon="-3.947205">
        <ele>2172.817</ele>
        <time>2021-07-28T21:55:46Z</time>
      </trkpt>
      <trkpt lat="40.859949" lon="-3.947180">
        <ele>2172.608</ele>
        <time>2021-07-28T21:55:48Z</time>
      </trkpt>
      <trkpt lat="40.859936" lon="-3.947152">
        <ele>2172.555</ele>
        <time>2021-07-28T21:55:51Z</time>
      </trkpt>
      <trkpt lat="40.859933" lon="-3.947177">
        <ele>2172.657</ele>
        <time>2021-07-28T21:56:02Z</time>
      </trkpt>
      <trkpt lat="40.859939" lon="-3.947205">
        <ele>2172.734</ele>
        <time>2021-07-28T21:56:05Z</time>
      </trkpt>
      <trkpt lat="40.859949" lon="-3.947228">
        <ele>2172.951</ele>
        <time>2021-07-28T21:56:10Z</time>
      </trkpt>
      <trkpt lat="40.859965" lon="-3.947255">
        <ele>2173.112</ele>
        <time>2021-07-28T21:56:13Z</time>
      </trkpt>
      <trkpt lat="40.859981" lon="-3.947280">
        <ele>2173.372</ele>
        <time>2021-07-28T21:56:15Z</time>
      </trkpt>
      <trkpt lat="40.859997" lon="-3.947302">
        <ele>2173.625</ele>
        <time>2021-07-28T21:56:17Z</time>
      </trkpt>
      <trkpt lat="40.860013" lon="-3.947325">
        <ele>2173.836</ele>
        <time>2021-07-28T21:56:19Z</time>
      </trkpt>
      <trkpt lat="40.860035" lon="-3.947350">
        <ele>2174.036</ele>
        <time>2021-07-28T21:56:21Z</time>
      </trkpt>
      <trkpt lat="40.860051" lon="-3.947367">
        <ele>2174.217</ele>
        <time>2021-07-28T21:56:23Z</time>
      </trkpt>
      <trkpt lat="40.860064" lon="-3.947398">
        <ele>2174.518</ele>
        <time>2021-07-28T21:56:25Z</time>
      </trkpt>
      <trkpt lat="40.860077" lon="-3.947434">
        <ele>2174.808</ele>
        <time>2021-07-28T21:56:27Z</time>
      </trkpt>
      <trkpt lat="40.860083" lon="-3.947460">
        <ele>2175.030</ele>
        <time>2021-07-28T21:56:29Z</time>
      </trkpt>
      <trkpt lat="40.860099" lon="-3.947492">
        <ele>2175.362</ele>
        <time>2021-07-28T21:56:31Z</time>
      </trkpt>
      <trkpt lat="40.860112" lon="-3.947523">
        <ele>2175.549</ele>
        <time>2021-07-28T21:56:33Z</time>
      </trkpt>
      <trkpt lat="40.860118" lon="-3.947552">
        <ele>2175.656</ele>
        <time>2021-07-28T21:56:35Z</time>
      </trkpt>
      <trkpt lat="40.860128" lon="-3.947580">
        <ele>2175.747</ele>
        <time>2021-07-28T21:56:37Z</time>
      </trkpt>
      <trkpt lat="40.860134" lon="-3.947622">
        <ele>2175.937</ele>
        <time>2021-07-28T21:56:39Z</time>
      </trkpt>
      <trkpt lat="40.860134" lon="-3.947652">
        <ele>2176.050</ele>
        <time>2021-07-28T21:56:41Z</time>
      </trkpt>
      <trkpt lat="40.860138" lon="-3.947677">
        <ele>2176.161</ele>
        <time>2021-07-28T21:56:43Z</time>
      </trkpt>
      <trkpt lat="40.860134" lon="-3.947713">
        <ele>2176.225</ele>
        <time>2021-07-28T21:56:45Z</time>
      </trkpt>
      <trkpt lat="40.860128" lon="-3.947742">
        <ele>2176.326</ele>
        <time>2021-07-28T21:56:47Z</time>
      </trkpt>
      <trkpt lat="40.860122" lon="-3.947767">
        <ele>2176.408</ele>
        <time>2021-07-28T21:56:48Z</time>
      </trkpt>
      <trkpt lat="40.860115" lon="-3.947806">
        <ele>2176.608</ele>
        <time>2021-07-28T21:56:50Z</time>
      </trkpt>
      <trkpt lat="40.860102" lon="-3.947838">
        <ele>2176.799</ele>
        <time>2021-07-28T21:56:52Z</time>
      </trkpt>
      <trkpt lat="40.860096" lon="-3.947870">
        <ele>2176.831</ele>
        <time>2021-07-28T21:56:54Z</time>
      </trkpt>
      <trkpt lat="40.860083" lon="-3.947902">
        <ele>2176.918</ele>
        <time>2021-07-28T21:56:56Z</time>
      </trkpt>
      <trkpt lat="40.860070" lon="-3.947940">
        <ele>2177.065</ele>
        <time>2021-07-28T21:56:58Z</time>
      </trkpt>
      <trkpt lat="40.860058" lon="-3.947980">
        <ele>2177.156</ele>
        <time>2021-07-28T21:57:00Z</time>
      </trkpt>
      <trkpt lat="40.860045" lon="-3.948002">
        <ele>2177.196</ele>
        <time>2021-07-28T21:57:01Z</time>
      </trkpt>
      <trkpt lat="40.860035" lon="-3.948038">
        <ele>2177.269</ele>
        <time>2021-07-28T21:57:03Z</time>
      </trkpt>
      <trkpt lat="40.860022" lon="-3.948065">
        <ele>2177.230</ele>
        <time>2021-07-28T21:57:05Z</time>
      </trkpt>
      <trkpt lat="40.860016" lon="-3.948110">
        <ele>2177.597</ele>
        <time>2021-07-28T21:57:08Z</time>
      </trkpt>
      <trkpt lat="40.860010" lon="-3.948152">
        <ele>2177.823</ele>
        <time>2021-07-28T21:57:10Z</time>
      </trkpt>
      <trkpt lat="40.859997" lon="-3.948185">
        <ele>2177.925</ele>
        <time>2021-07-28T21:57:12Z</time>
      </trkpt>
      <trkpt lat="40.859981" lon="-3.948202">
        <ele>2178.008</ele>
        <time>2021-07-28T21:57:14Z</time>
      </trkpt>
      <trkpt lat="40.859958" lon="-3.948215">
        <ele>2178.136</ele>
        <time>2021-07-28T21:57:16Z</time>
      </trkpt>
      <trkpt lat="40.859939" lon="-3.948225">
        <ele>2178.198</ele>
        <time>2021-07-28T21:57:18Z</time>
      </trkpt>
      <trkpt lat="40.859920" lon="-3.948242">
        <ele>2178.165</ele>
        <time>2021-07-28T21:57:21Z</time>
      </trkpt>
      <trkpt lat="40.859901" lon="-3.948270">
        <ele>2178.352</ele>
        <time>2021-07-28T21:57:24Z</time>
      </trkpt>
      <trkpt lat="40.859891" lon="-3.948293">
        <ele>2178.473</ele>
        <time>2021-07-28T21:57:26Z</time>
      </trkpt>
      <trkpt lat="40.859891" lon="-3.948330">
        <ele>2178.663</ele>
        <time>2021-07-28T21:57:28Z</time>
      </trkpt>
      <trkpt lat="40.859898" lon="-3.948358">
        <ele>2178.866</ele>
        <time>2021-07-28T21:57:30Z</time>
      </trkpt>
      <trkpt lat="40.859904" lon="-3.948382">
        <ele>2178.927</ele>
        <time>2021-07-28T21:57:32Z</time>
      </trkpt>
      <trkpt lat="40.859917" lon="-3.948403">
        <ele>2179.019</ele>
        <time>2021-07-28T21:57:34Z</time>
      </trkpt>
      <trkpt lat="40.859930" lon="-3.948430">
        <ele>2179.209</ele>
        <time>2021-07-28T21:57:37Z</time>
      </trkpt>
      <trkpt lat="40.859754" lon="-3.948265">
        <ele>2177.878</ele>
        <time>2021-07-29T08:37:26Z</time>
      </trkpt>
      <trkpt lat="40.859763" lon="-3.948274">
        <ele>2177.933</ele>
        <time>2021-07-29T08:37:27Z</time>
      </trkpt>
      <trkpt lat="40.859792" lon="-3.948288">
        <ele>2178.026</ele>
        <time>2021-07-29T08:37:29Z</time>
      </trkpt>
      <trkpt lat="40.859821" lon="-3.948306">
        <ele>2178.208</ele>
        <time>2021-07-29T08:37:31Z</time>
      </trkpt>
      <trkpt lat="40.859853" lon="-3.948320">
        <ele>2178.414</ele>
        <time>2021-07-29T08:37:33Z</time>
      </trkpt>
      <trkpt lat="40.859872" lon="-3.948342">
        <ele>2178.666</ele>
        <time>2021-07-29T08:37:35Z</time>
      </trkpt>
      <trkpt lat="40.859885" lon="-3.948368">
        <ele>2178.813</ele>
        <time>2021-07-29T08:37:38Z</time>
      </trkpt>
      <trkpt lat="40.859901" lon="-3.948388">
        <ele>2178.980</ele>
        <time>2021-07-29T08:37:40Z</time>
      </trkpt>
      <trkpt lat="40.859917" lon="-3.948410">
        <ele>2179.181</ele>
        <time>2021-07-29T08:37:42Z</time>
      </trkpt>
      <trkpt lat="40.859933" lon="-3.948427">
        <ele>2179.251</ele>
        <time>2021-07-29T08:37:44Z</time>
      </trkpt>
      <trkpt lat="40.859958" lon="-3.948437">
        <ele>2179.334</ele>
        <time>2021-07-29T08:37:47Z</time>
      </trkpt>
      <trkpt lat="40.859978" lon="-3.948448">
        <ele>2179.433</ele>
        <time>2021-07-29T08:37:49Z</time>
      </trkpt>
      <trkpt lat="40.859990" lon="-3.948467">
        <ele>2179.566</ele>
        <time>2021-07-29T08:37:51Z</time>
      </trkpt>
      <trkpt lat="40.860013" lon="-3.948487">
        <ele>2179.829</ele>
        <time>2021-07-29T08:37:55Z</time>
      </trkpt>
      <trkpt lat="40.860042" lon="-3.948490">
        <ele>2180.421</ele>
        <time>2021-07-29T08:37:58Z</time>
      </trkpt>
      <trkpt lat="40.860061" lon="-3.948495">
        <ele>2180.808</ele>
        <time>2021-07-29T08:38:00Z</time>
      </trkpt>
      <trkpt lat="40.860080" lon="-3.948490">
        <ele>2181.243</ele>
        <time>2021-07-29T08:38:02Z</time>
      </trkpt>
      <trkpt lat="40.860099" lon="-3.948482">
        <ele>2181.495</ele>
        <time>2021-07-29T08:38:05Z</time>
      </trkpt>
      <trkpt lat="40.860112" lon="-3.948462">
        <ele>2181.482</ele>
        <time>2021-07-29T08:38:07Z</time>
      </trkpt>
      <trkpt lat="40.860118" lon="-3.948428">
        <ele>2180.949</ele>
        <time>2021-07-29T08:38:10Z</time>
      </trkpt>
      <trkpt lat="40.860134" lon="-3.948415">
        <ele>2180.970</ele>
        <time>2021-07-29T08:38:12Z</time>
      </trkpt>
      <trkpt lat="40.860154" lon="-3.948398">
        <ele>2180.890</ele>
        <time>2021-07-29T08:38:14Z</time>
      </trkpt>
      <trkpt lat="40.860173" lon="-3.948375">
        <ele>2180.573</ele>
        <time>2021-07-29T08:38:16Z</time>
      </trkpt>
      <trkpt lat="40.860189" lon="-3.948352">
        <ele>2180.182</ele>
        <time>2021-07-29T08:38:18Z</time>
      </trkpt>
      <trkpt lat="40.860202" lon="-3.948335">
        <ele>2179.873</ele>
        <time>2021-07-29T08:38:20Z</time>
      </trkpt>
      <trkpt lat="40.860218" lon="-3.948318">
        <ele>2179.785</ele>
        <time>2021-07-29T08:38:22Z</time>
      </trkpt>
      <trkpt lat="40.860237" lon="-3.948295">
        <ele>2179.713</ele>
        <time>2021-07-29T08:38:25Z</time>
      </trkpt>
      <trkpt lat="40.860256" lon="-3.948283">
        <ele>2179.708</ele>
        <time>2021-07-29T08:38:27Z</time>
      </trkpt>
      <trkpt lat="40.860272" lon="-3.948267">
        <ele>2179.754</ele>
        <time>2021-07-29T08:38:29Z</time>
      </trkpt>
      <trkpt lat="40.860288" lon="-3.948243">
        <ele>2179.946</ele>
        <time>2021-07-29T08:38:32Z</time>
      </trkpt>
      <trkpt lat="40.860310" lon="-3.948225">
        <ele>2180.293</ele>
        <time>2021-07-29T08:38:35Z</time>
      </trkpt>
      <trkpt lat="40.860330" lon="-3.948208">
        <ele>2180.520</ele>
        <time>2021-07-29T08:38:37Z</time>
      </trkpt>
      <trkpt lat="40.860349" lon="-3.948190">
        <ele>2180.621</ele>
        <time>2021-07-29T08:38:39Z</time>
      </trkpt>
      <trkpt lat="40.860368" lon="-3.948167">
        <ele>2180.641</ele>
        <time>2021-07-29T08:38:42Z</time>
      </trkpt>
      <trkpt lat="40.860387" lon="-3.948140">
        <ele>2180.544</ele>
        <time>2021-07-29T08:38:45Z</time>
      </trkpt>
      <trkpt lat="40.860410" lon="-3.948117">
        <ele>2180.463</ele>
        <time>2021-07-29T08:38:48Z</time>
      </trkpt>
      <trkpt lat="40.860426" lon="-3.948097">
        <ele>2180.239</ele>
        <time>2021-07-29T08:38:50Z</time>
      </trkpt>
      <trkpt lat="40.860442" lon="-3.948082">
        <ele>2180.101</ele>
        <time>2021-07-29T08:38:52Z</time>
      </trkpt>
      <trkpt lat="40.860454" lon="-3.948047">
        <ele>2179.621</ele>
        <time>2021-07-29T08:38:55Z</time>
      </trkpt>
      <trkpt lat="40.860470" lon="-3.948028">
        <ele>2179.508</ele>
        <time>2021-07-29T08:38:57Z</time>
      </trkpt>
      <trkpt lat="40.860493" lon="-3.948007">
        <ele>2179.480</ele>
        <time>2021-07-29T08:38:59Z</time>
      </trkpt>
      <trkpt lat="40.860506" lon="-3.947983">
        <ele>2179.362</ele>
        <time>2021-07-29T08:39:01Z</time>
      </trkpt>
      <trkpt lat="40.860518" lon="-3.947952">
        <ele>2179.179</ele>
        <time>2021-07-29T08:39:04Z</time>
      </trkpt>
      <trkpt lat="40.860538" lon="-3.947933">
        <ele>2179.116</ele>
        <time>2021-07-29T08:39:06Z</time>
      </trkpt>
      <trkpt lat="40.860566" lon="-3.947915">
        <ele>2179.217</ele>
        <time>2021-07-29T08:39:09Z</time>
      </trkpt>
      <trkpt lat="40.860589" lon="-3.947900">
        <ele>2179.797</ele>
        <time>2021-07-29T08:39:11Z</time>
      </trkpt>
      <trkpt lat="40.860605" lon="-3.947882">
        <ele>2179.980</ele>
        <time>2021-07-29T08:39:13Z</time>
      </trkpt>
      <trkpt lat="40.860614" lon="-3.947850">
        <ele>2179.789</ele>
        <time>2021-07-29T08:39:16Z</time>
      </trkpt>
      <trkpt lat="40.860624" lon="-3.947822">
        <ele>2179.548</ele>
        <time>2021-07-29T08:39:18Z</time>
      </trkpt>
      <trkpt lat="40.861053" lon="-3.947160">
        <ele>2177.661</ele>
        <time>2021-07-29T08:40:20Z</time>
      </trkpt>
      <trkpt lat="40.861069" lon="-3.947140">
        <ele>2177.517</ele>
        <time>2021-07-29T08:40:22Z</time>
      </trkpt>
      <trkpt lat="40.861091" lon="-3.947133">
        <ele>2177.508</ele>
        <time>2021-07-29T08:40:24Z</time>
      </trkpt>
      <trkpt lat="40.861110" lon="-3.947127">
        <ele>2177.681</ele>
        <time>2021-07-29T08:40:27Z</time>
      </trkpt>
      <trkpt lat="40.861133" lon="-3.947120">
        <ele>2177.843</ele>
        <time>2021-07-29T08:40:29Z</time>
      </trkpt>
      <trkpt lat="40.861152" lon="-3.947125">
        <ele>2178.220</ele>
        <time>2021-07-29T08:40:32Z</time>
      </trkpt>
      <trkpt lat="40.861168" lon="-3.947140">
        <ele>2178.627</ele>
        <time>2021-07-29T08:40:35Z</time>
      </trkpt>
      <trkpt lat="40.861181" lon="-3.947160">
        <ele>2179.128</ele>
        <time>2021-07-29T08:40:38Z</time>
      </trkpt>
      <trkpt lat="40.861200" lon="-3.947175">
        <ele>2179.668</ele>
        <time>2021-07-29T08:40:41Z</time>
      </trkpt>
      <trkpt lat="40.861213" lon="-3.947197">
        <ele>2180.151</ele>
        <time>2021-07-29T08:40:45Z</time>
      </trkpt>
      <trkpt lat="40.861216" lon="-3.947226">
        <ele>2180.620</ele>
        <time>2021-07-29T08:40:48Z</time>
      </trkpt>
      <trkpt lat="40.861235" lon="-3.947240">
        <ele>2181.199</ele>
        <time>2021-07-29T08:40:52Z</time>
      </trkpt>
      <trkpt lat="40.861251" lon="-3.947253">
        <ele>2181.607</ele>
        <time>2021-07-29T08:40:57Z</time>
      </trkpt>
      <trkpt lat="40.861264" lon="-3.947272">
        <ele>2182.127</ele>
        <time>2021-07-29T08:41:00Z</time>
      </trkpt>
      <trkpt lat="40.861261" lon="-3.947297">
        <ele>2182.508</ele>
        <time>2021-07-29T08:41:03Z</time>
      </trkpt>
      <trkpt lat="40.861267" lon="-3.947322">
        <ele>2183.086</ele>
        <time>2021-07-29T08:41:07Z</time>
      </trkpt>
      <trkpt lat="40.861270" lon="-3.947352">
        <ele>2183.658</ele>
        <time>2021-07-29T08:41:11Z</time>
      </trkpt>
      <trkpt lat="40.861290" lon="-3.947367">
        <ele>2184.235</ele>
        <time>2021-07-29T08:41:14Z</time>
      </trkpt>
      <trkpt lat="40.861309" lon="-3.947378">
        <ele>2184.722</ele>
        <time>2021-07-29T08:41:19Z</time>
      </trkpt>
      <trkpt lat="40.861315" lon="-3.947404">
        <ele>2185.263</ele>
        <time>2021-07-29T08:41:23Z</time>
      </trkpt>
      <trkpt lat="40.861315" lon="-3.947430">
        <ele>2185.743</ele>
        <time>2021-07-29T08:41:26Z</time>
      </trkpt>
      <trkpt lat="40.861325" lon="-3.947460">
        <ele>2186.416</ele>
        <time>2021-07-29T08:41:30Z</time>
      </trkpt>
      <trkpt lat="40.861328" lon="-3.947492">
        <ele>2187.045</ele>
        <time>2021-07-29T08:41:34Z</time>
      </trkpt>
      <trkpt lat="40.861331" lon="-3.947515">
        <ele>2187.443</ele>
        <time>2021-07-29T08:41:37Z</time>
      </trkpt>
      <trkpt lat="40.861341" lon="-3.947537">
        <ele>2187.964</ele>
        <time>2021-07-29T08:41:40Z</time>
      </trkpt>
      <trkpt lat="40.861350" lon="-3.947564">
        <ele>2188.410</ele>
        <time>2021-07-29T08:41:44Z</time>
      </trkpt>
      <trkpt lat="40.861360" lon="-3.947588">
        <ele>2188.908</ele>
        <time>2021-07-29T08:41:48Z</time>
      </trkpt>
      <trkpt lat="40.861363" lon="-3.947612">
        <ele>2189.361</ele>
        <time>2021-07-29T08:41:51Z</time>
      </trkpt>
      <trkpt lat="40.861360" lon="-3.947640">
        <ele>2189.733</ele>
        <time>2021-07-29T08:41:54Z</time>
      </trkpt>
      <trkpt lat="40.861354" lon="-3.947670">
        <ele>2190.150</ele>
        <time>2021-07-29T08:41:57Z</time>
      </trkpt>
      <trkpt lat="40.861347" lon="-3.947698">
        <ele>2190.557</ele>
        <time>2021-07-29T08:42:00Z</time>
      </trkpt>
      <trkpt lat="40.861347" lon="-3.947732">
        <ele>2191.048</ele>
        <time>2021-07-29T08:42:04Z</time>
      </trkpt>
      <trkpt lat="40.861334" lon="-3.947755">
        <ele>2191.268</ele>
        <time>2021-07-29T08:42:07Z</time>
      </trkpt>
      <trkpt lat="40.861322" lon="-3.947782">
        <ele>2191.671</ele>
        <time>2021-07-29T08:42:10Z</time>
      </trkpt>
      <trkpt lat="40.861306" lon="-3.947793">
        <ele>2191.790</ele>
        <time>2021-07-29T08:42:12Z</time>
      </trkpt>
      <trkpt lat="40.861290" lon="-3.947823">
        <ele>2192.222</ele>
        <time>2021-07-29T08:42:16Z</time>
      </trkpt>
      <trkpt lat="40.861283" lon="-3.947850">
        <ele>2192.762</ele>
        <time>2021-07-29T08:42:19Z</time>
      </trkpt>
      <trkpt lat="40.861280" lon="-3.947875">
        <ele>2193.208</ele>
        <time>2021-07-29T08:42:23Z</time>
      </trkpt>
      <trkpt lat="40.861280" lon="-3.947902">
        <ele>2193.808</ele>
        <time>2021-07-29T08:42:26Z</time>
      </trkpt>
      <trkpt lat="40.861267" lon="-3.947924">
        <ele>2194.239</ele>
        <time>2021-07-29T08:42:29Z</time>
      </trkpt>
      <trkpt lat="40.861261" lon="-3.947958">
        <ele>2194.911</ele>
        <time>2021-07-29T08:42:32Z</time>
      </trkpt>
      <trkpt lat="40.861264" lon="-3.947983">
        <ele>2195.598</ele>
        <time>2021-07-29T08:42:36Z</time>
      </trkpt>
      <trkpt lat="40.861261" lon="-3.948013">
        <ele>2196.155</ele>
        <time>2021-07-29T08:42:39Z</time>
      </trkpt>
      <trkpt lat="40.861248" lon="-3.948032">
        <ele>2196.576</ele>
        <time>2021-07-29T08:42:41Z</time>
      </trkpt>
      <trkpt lat="40.861242" lon="-3.948060">
        <ele>2197.136</ele>
        <time>2021-07-29T08:42:44Z</time>
      </trkpt>
      <trkpt lat="40.861245" lon="-3.948084">
        <ele>2197.429</ele>
        <time>2021-07-29T08:42:47Z</time>
      </trkpt>
      <trkpt lat="40.861248" lon="-3.948112">
        <ele>2197.838</ele>
        <time>2021-07-29T08:42:51Z</time>
      </trkpt>
      <trkpt lat="40.861242" lon="-3.948142">
        <ele>2198.357</ele>
        <time>2021-07-29T08:42:55Z</time>
      </trkpt>
      <trkpt lat="40.861229" lon="-3.948172">
        <ele>2198.700</ele>
        <time>2021-07-29T08:42:58Z</time>
      </trkpt>
      <trkpt lat="40.861213" lon="-3.948188">
        <ele>2199.020</ele>
        <time>2021-07-29T08:43:02Z</time>
      </trkpt>
      <trkpt lat="40.861194" lon="-3.948205">
        <ele>2199.408</ele>
        <time>2021-07-29T08:43:05Z</time>
      </trkpt>
      <trkpt lat="40.861171" lon="-3.948213">
        <ele>2199.632</ele>
        <time>2021-07-29T08:43:08Z</time>
      </trkpt>
      <trkpt lat="40.861165" lon="-3.948238">
        <ele>2200.054</ele>
        <time>2021-07-29T08:43:11Z</time>
      </trkpt>
      <trkpt lat="40.861162" lon="-3.948264">
        <ele>2200.531</ele>
        <time>2021-07-29T08:43:14Z</time>
      </trkpt>
      <trkpt lat="40.861146" lon="-3.948280">
        <ele>2200.888</ele>
        <time>2021-07-29T08:43:17Z</time>
      </trkpt>
      <trkpt lat="40.861130" lon="-3.948295">
        <ele>2201.239</ele>
        <time>2021-07-29T08:43:19Z</time>
      </trkpt>
      <trkpt lat="40.861123" lon="-3.948320">
        <ele>2201.759</ele>
        <time>2021-07-29T08:43:22Z</time>
      </trkpt>
      <trkpt lat="40.861107" lon="-3.948345">
        <ele>2202.182</ele>
        <time>2021-07-29T08:43:25Z</time>
      </trkpt>
      <trkpt lat="40.861114" lon="-3.948373">
        <ele>2202.551</ele>
        <time>2021-07-29T08:43:29Z</time>
      </trkpt>
      <trkpt lat="40.861110" lon="-3.948398">
        <ele>2202.992</ele>
        <time>2021-07-29T08:43:33Z</time>
      </trkpt>
      <trkpt lat="40.861107" lon="-3.948430">
        <ele>2203.473</ele>
        <time>2021-07-29T08:43:36Z</time>
      </trkpt>
      <trkpt lat="40.861117" lon="-3.948455">
        <ele>2203.720</ele>
        <time>2021-07-29T08:43:39Z</time>
      </trkpt>
      <trkpt lat="40.861114" lon="-3.948482">
        <ele>2204.108</ele>
        <time>2021-07-29T08:43:43Z</time>
      </trkpt>
      <trkpt lat="40.861101" lon="-3.948508">
        <ele>2204.616</ele>
        <time>2021-07-29T08:43:46Z</time>
      </trkpt>
      <trkpt lat="40.861082" lon="-3.948520">
        <ele>2204.828</ele>
        <time>2021-07-29T08:43:49Z</time>
      </trkpt>
      <trkpt lat="40.861056" lon="-3.948527">
        <ele>2205.175</ele>
        <time>2021-07-29T08:43:52Z</time>
      </trkpt>
      <trkpt lat="40.861037" lon="-3.948545">
        <ele>2205.612</ele>
        <time>2021-07-29T08:43:55Z</time>
      </trkpt>
      <trkpt lat="40.861018" lon="-3.948560">
        <ele>2206.113</ele>
        <time>2021-07-29T08:43:58Z</time>
      </trkpt>
      <trkpt lat="40.861002" lon="-3.948575">
        <ele>2206.633</ele>
        <time>2021-07-29T08:44:00Z</time>
      </trkpt>
      <trkpt lat="40.860986" lon="-3.948592">
        <ele>2207.356</ele>
        <time>2021-07-29T08:44:03Z</time>
      </trkpt>
      <trkpt lat="40.860970" lon="-3.948608">
        <ele>2207.915</ele>
        <time>2021-07-29T08:44:06Z</time>
      </trkpt>
      <trkpt lat="40.860950" lon="-3.948620">
        <ele>2208.433</ele>
        <time>2021-07-29T08:44:10Z</time>
      </trkpt>
      <trkpt lat="40.860938" lon="-3.948640">
        <ele>2208.923</ele>
        <time>2021-07-29T08:44:13Z</time>
      </trkpt>
      <trkpt lat="40.860925" lon="-3.948668">
        <ele>2209.515</ele>
        <time>2021-07-29T08:44:18Z</time>
      </trkpt>
      <trkpt lat="40.860915" lon="-3.948693">
        <ele>2210.008</ele>
        <time>2021-07-29T08:44:22Z</time>
      </trkpt>
      <trkpt lat="40.860915" lon="-3.948718">
        <ele>2210.470</ele>
        <time>2021-07-29T08:44:25Z</time>
      </trkpt>
      <trkpt lat="40.860925" lon="-3.948745">
        <ele>2210.682</ele>
        <time>2021-07-29T08:44:29Z</time>
      </trkpt>
      <trkpt lat="40.860918" lon="-3.948772">
        <ele>2211.199</ele>
        <time>2021-07-29T08:44:37Z</time>
      </trkpt>
      <trkpt lat="40.860893" lon="-3.948782">
        <ele>2211.636</ele>
        <time>2021-07-29T08:44:42Z</time>
      </trkpt>
      <trkpt lat="40.860874" lon="-3.948790">
        <ele>2212.067</ele>
        <time>2021-07-29T08:44:47Z</time>
      </trkpt>
      <trkpt lat="40.860854" lon="-3.948800">
        <ele>2212.447</ele>
        <time>2021-07-29T08:44:52Z</time>
      </trkpt>
      <trkpt lat="40.860838" lon="-3.948814">
        <ele>2212.920</ele>
        <time>2021-07-29T08:44:56Z</time>
      </trkpt>
      <trkpt lat="40.860826" lon="-3.948834">
        <ele>2213.139</ele>
        <time>2021-07-29T08:45:00Z</time>
      </trkpt>
      <trkpt lat="40.860810" lon="-3.948852">
        <ele>2213.353</ele>
        <time>2021-07-29T08:45:06Z</time>
      </trkpt>
      <trkpt lat="40.860797" lon="-3.948873">
        <ele>2213.604</ele>
        <time>2021-07-29T08:45:10Z</time>
      </trkpt>
      <trkpt lat="40.860778" lon="-3.948882">
        <ele>2213.714</ele>
        <time>2021-07-29T08:45:46Z</time>
      </trkpt>
      <trkpt lat="40.860765" lon="-3.948907">
        <ele>2214.108</ele>
        <time>2021-07-29T08:45:48Z</time>
      </trkpt>
      <trkpt lat="40.860739" lon="-3.948932">
        <ele>2214.522</ele>
        <time>2021-07-29T08:45:50Z</time>
      </trkpt>
      <trkpt lat="40.860717" lon="-3.948957">
        <ele>2215.114</ele>
        <time>2021-07-29T08:45:52Z</time>
      </trkpt>
      <trkpt lat="40.860704" lon="-3.948986">
        <ele>2215.771</ele>
        <time>2021-07-29T08:45:54Z</time>
      </trkpt>
      <trkpt lat="40.860688" lon="-3.949003">
        <ele>2216.248</ele>
        <time>2021-07-29T08:45:56Z</time>
      </trkpt>
      <trkpt lat="40.860672" lon="-3.949018">
        <ele>2216.669</ele>
        <time>2021-07-29T08:45:59Z</time>
      </trkpt>
      <trkpt lat="40.860656" lon="-3.949036">
        <ele>2217.289</ele>
        <time>2021-07-29T08:46:02Z</time>
      </trkpt>
      <trkpt lat="40.860637" lon="-3.949058">
        <ele>2217.912</ele>
        <time>2021-07-29T08:46:05Z</time>
      </trkpt>
      <trkpt lat="40.860634" lon="-3.949085">
        <ele>2218.691</ele>
        <time>2021-07-29T08:46:08Z</time>
      </trkpt>
      <trkpt lat="40.860630" lon="-3.949112">
        <ele>2219.422</ele>
        <time>2021-07-29T08:46:11Z</time>
      </trkpt>
      <trkpt lat="40.860627" lon="-3.949140">
        <ele>2220.262</ele>
        <time>2021-07-29T08:46:15Z</time>
      </trkpt>
      <trkpt lat="40.860627" lon="-3.949174">
        <ele>2221.108</ele>
        <time>2021-07-29T08:46:18Z</time>
      </trkpt>
      <trkpt lat="40.860627" lon="-3.949198">
        <ele>2221.308</ele>
        <time>2021-07-29T08:46:21Z</time>
      </trkpt>
      <trkpt lat="40.860618" lon="-3.949220">
        <ele>2221.729</ele>
        <time>2021-07-29T08:46:24Z</time>
      </trkpt>
      <trkpt lat="40.860611" lon="-3.949250">
        <ele>2222.211</ele>
        <time>2021-07-29T08:46:27Z</time>
      </trkpt>
      <trkpt lat="40.860598" lon="-3.949285">
        <ele>2222.978</ele>
        <time>2021-07-29T08:46:31Z</time>
      </trkpt>
      <trkpt lat="40.860579" lon="-3.949314">
        <ele>2223.795</ele>
        <time>2021-07-29T08:46:34Z</time>
      </trkpt>
      <trkpt lat="40.860570" lon="-3.949343">
        <ele>2224.226</ele>
        <time>2021-07-29T08:46:37Z</time>
      </trkpt>
      <trkpt lat="40.860554" lon="-3.949360">
        <ele>2224.886</ele>
        <time>2021-07-29T08:46:40Z</time>
      </trkpt>
      <trkpt lat="40.860538" lon="-3.949380">
        <ele>2224.959</ele>
        <time>2021-07-29T08:46:43Z</time>
      </trkpt>
      <trkpt lat="40.860518" lon="-3.949393">
        <ele>2224.928</ele>
        <time>2021-07-29T08:46:45Z</time>
      </trkpt>
      <trkpt lat="40.860499" lon="-3.949417">
        <ele>2225.327</ele>
        <time>2021-07-29T08:46:48Z</time>
      </trkpt>
      <trkpt lat="40.860490" lon="-3.949438">
        <ele>2225.668</ele>
        <time>2021-07-29T08:46:50Z</time>
      </trkpt>
      <trkpt lat="40.860470" lon="-3.949462">
        <ele>2226.114</ele>
        <time>2021-07-29T08:46:53Z</time>
      </trkpt>
      <trkpt lat="40.860458" lon="-3.949485">
        <ele>2226.508</ele>
        <time>2021-07-29T08:46:56Z</time>
      </trkpt>
      <trkpt lat="40.860442" lon="-3.949507">
        <ele>2227.069</ele>
        <time>2021-07-29T08:46:59Z</time>
      </trkpt>
      <trkpt lat="40.860429" lon="-3.949530">
        <ele>2227.671</ele>
        <time>2021-07-29T08:47:06Z</time>
      </trkpt>
      <trkpt lat="40.860413" lon="-3.949552">
        <ele>2228.298</ele>
        <time>2021-07-29T08:47:10Z</time>
      </trkpt>
      <trkpt lat="40.860400" lon="-3.949568">
        <ele>2228.725</ele>
        <time>2021-07-29T08:47:13Z</time>
      </trkpt>
      <trkpt lat="40.860381" lon="-3.949583">
        <ele>2229.216</ele>
        <time>2021-07-29T08:47:16Z</time>
      </trkpt>
      <trkpt lat="40.860368" lon="-3.949612">
        <ele>2230.266</ele>
        <time>2021-07-29T08:47:20Z</time>
      </trkpt>
      <trkpt lat="40.860352" lon="-3.949628">
        <ele>2230.869</ele>
        <time>2021-07-29T08:47:23Z</time>
      </trkpt>
      <trkpt lat="40.860339" lon="-3.949657">
        <ele>2231.928</ele>
        <time>2021-07-29T08:47:27Z</time>
      </trkpt>
      <trkpt lat="40.860320" lon="-3.949674">
        <ele>2232.731</ele>
        <time>2021-07-29T08:47:31Z</time>
      </trkpt>
      <trkpt lat="40.860301" lon="-3.949686">
        <ele>2233.361</ele>
        <time>2021-07-29T08:47:34Z</time>
      </trkpt>
      <trkpt lat="40.860298" lon="-3.949715">
        <ele>2234.407</ele>
        <time>2021-07-29T08:47:37Z</time>
      </trkpt>
      <trkpt lat="40.860307" lon="-3.949740">
        <ele>2234.908</ele>
        <time>2021-07-29T08:47:40Z</time>
      </trkpt>
      <trkpt lat="40.860307" lon="-3.949767">
        <ele>2235.540</ele>
        <time>2021-07-29T08:47:45Z</time>
      </trkpt>
      <trkpt lat="40.860291" lon="-3.949787">
        <ele>2236.352</ele>
        <time>2021-07-29T08:47:48Z</time>
      </trkpt>
      <trkpt lat="40.860282" lon="-3.949812">
        <ele>2237.299</ele>
        <time>2021-07-29T08:47:52Z</time>
      </trkpt>
      <trkpt lat="40.860275" lon="-3.949835">
        <ele>2237.966</ele>
        <time>2021-07-29T08:47:56Z</time>
      </trkpt>
      <trkpt lat="40.860259" lon="-3.949848">
        <ele>2238.387</ele>
        <time>2021-07-29T08:47:59Z</time>
      </trkpt>
      <trkpt lat="40.860240" lon="-3.949854">
        <ele>2238.637</ele>
        <time>2021-07-29T08:48:02Z</time>
      </trkpt>
      <trkpt lat="40.860221" lon="-3.949864">
        <ele>2239.160</ele>
        <time>2021-07-29T08:48:05Z</time>
      </trkpt>
      <trkpt lat="40.860202" lon="-3.949885">
        <ele>2239.989</ele>
        <time>2021-07-29T08:48:08Z</time>
      </trkpt>
      <trkpt lat="40.860192" lon="-3.949910">
        <ele>2240.988</ele>
        <time>2021-07-29T08:48:12Z</time>
      </trkpt>
      <trkpt lat="40.860179" lon="-3.949927">
        <ele>2241.624</ele>
        <time>2021-07-29T08:48:15Z</time>
      </trkpt>
      <trkpt lat="40.860157" lon="-3.949928">
        <ele>2242.026</ele>
        <time>2021-07-29T08:48:18Z</time>
      </trkpt>
      <trkpt lat="40.860138" lon="-3.949935">
        <ele>2242.608</ele>
        <time>2021-07-29T08:48:21Z</time>
      </trkpt>
      <trkpt lat="40.860118" lon="-3.949947">
        <ele>2243.385</ele>
        <time>2021-07-29T08:48:25Z</time>
      </trkpt>
      <trkpt lat="40.860099" lon="-3.949970">
        <ele>2244.617</ele>
        <time>2021-07-29T08:48:28Z</time>
      </trkpt>
      <trkpt lat="40.860083" lon="-3.949985">
        <ele>2245.654</ele>
        <time>2021-07-29T08:48:32Z</time>
      </trkpt>
      <trkpt lat="40.860061" lon="-3.949987">
        <ele>2246.111</ele>
        <time>2021-07-29T08:48:35Z</time>
      </trkpt>
      <trkpt lat="40.860042" lon="-3.949993">
        <ele>2246.862</ele>
        <time>2021-07-29T08:48:38Z</time>
      </trkpt>
      <trkpt lat="40.860019" lon="-3.949995">
        <ele>2247.352</ele>
        <time>2021-07-29T08:48:41Z</time>
      </trkpt>
      <trkpt lat="40.860000" lon="-3.949997">
        <ele>2247.875</ele>
        <time>2021-07-29T08:48:43Z</time>
      </trkpt>
      <trkpt lat="40.859981" lon="-3.950007">
        <ele>2248.374</ele>
        <time>2021-07-29T08:48:47Z</time>
      </trkpt>
      <trkpt lat="40.859971" lon="-3.950032">
        <ele>2248.858</ele>
        <time>2021-07-29T08:48:52Z</time>
      </trkpt>
      <trkpt lat="40.859955" lon="-3.950048">
        <ele>2249.252</ele>
        <time>2021-07-29T08:48:55Z</time>
      </trkpt>
      <trkpt lat="40.859942" lon="-3.950066">
        <ele>2249.617</ele>
        <time>2021-07-29T08:48:58Z</time>
      </trkpt>
      <trkpt lat="40.859923" lon="-3.950075">
        <ele>2249.908</ele>
        <time>2021-07-29T08:49:00Z</time>
      </trkpt>
      <trkpt lat="40.859914" lon="-3.950098">
        <ele>2250.412</ele>
        <time>2021-07-29T08:49:05Z</time>
      </trkpt>
      <trkpt lat="40.859894" lon="-3.950112">
        <ele>2250.834</ele>
        <time>2021-07-29T08:49:09Z</time>
      </trkpt>
      <trkpt lat="40.859891" lon="-3.950140">
        <ele>2251.381</ele>
        <time>2021-07-29T08:49:12Z</time>
      </trkpt>
      <trkpt lat="40.859878" lon="-3.950157">
        <ele>2251.778</ele>
        <time>2021-07-29T08:49:15Z</time>
      </trkpt>
      <trkpt lat="40.859862" lon="-3.950173">
        <ele>2252.159</ele>
        <time>2021-07-29T08:49:18Z</time>
      </trkpt>
      <trkpt lat="40.859843" lon="-3.950180">
        <ele>2252.439</ele>
        <time>2021-07-29T08:49:21Z</time>
      </trkpt>
      <trkpt lat="40.859824" lon="-3.950192">
        <ele>2252.752</ele>
        <time>2021-07-29T08:49:24Z</time>
      </trkpt>
      <trkpt lat="40.859811" lon="-3.950214">
        <ele>2253.231</ele>
        <time>2021-07-29T08:49:28Z</time>
      </trkpt>
      <trkpt lat="40.859802" lon="-3.950240">
        <ele>2253.717</ele>
        <time>2021-07-29T08:49:31Z</time>
      </trkpt>
      <trkpt lat="40.859792" lon="-3.950268">
        <ele>2254.387</ele>
        <time>2021-07-29T08:49:35Z</time>
      </trkpt>
      <trkpt lat="40.859779" lon="-3.950293">
        <ele>2254.815</ele>
        <time>2021-07-29T08:49:39Z</time>
      </trkpt>
      <trkpt lat="40.859779" lon="-3.950320">
        <ele>2255.308</ele>
        <time>2021-07-29T08:49:43Z</time>
      </trkpt>
      <trkpt lat="40.859766" lon="-3.950340">
        <ele>2255.768</ele>
        <time>2021-07-29T08:49:47Z</time>
      </trkpt>
      <trkpt lat="40.859750" lon="-3.950352">
        <ele>2256.160</ele>
        <time>2021-07-29T08:49:50Z</time>
      </trkpt>
      <trkpt lat="40.859741" lon="-3.950386">
        <ele>2256.897</ele>
        <time>2021-07-29T08:49:53Z</time>
      </trkpt>
      <trkpt lat="40.859734" lon="-3.950412">
        <ele>2257.354</ele>
        <time>2021-07-29T08:49:56Z</time>
      </trkpt>
      <trkpt lat="40.859718" lon="-3.950428">
        <ele>2257.775</ele>
        <time>2021-07-29T08:49:59Z</time>
      </trkpt>
      <trkpt lat="40.859699" lon="-3.950440">
        <ele>2257.995</ele>
        <time>2021-07-29T08:50:02Z</time>
      </trkpt>
      <trkpt lat="40.859686" lon="-3.950468">
        <ele>2258.358</ele>
        <time>2021-07-29T08:50:05Z</time>
      </trkpt>
      <trkpt lat="40.859693" lon="-3.950495">
        <ele>2258.737</ele>
        <time>2021-07-29T08:50:07Z</time>
      </trkpt>
      <trkpt lat="40.859693" lon="-3.950523">
        <ele>2259.242</ele>
        <time>2021-07-29T08:50:12Z</time>
      </trkpt>
      <trkpt lat="40.859683" lon="-3.950547">
        <ele>2259.422</ele>
        <time>2021-07-29T08:50:15Z</time>
      </trkpt>
      <trkpt lat="40.859664" lon="-3.950575">
        <ele>2259.314</ele>
        <time>2021-07-29T08:50:19Z</time>
      </trkpt>
      <trkpt lat="40.859654" lon="-3.950597">
        <ele>2259.208</ele>
        <time>2021-07-29T08:50:22Z</time>
      </trkpt>
      <trkpt lat="40.859638" lon="-3.950625">
        <ele>2258.921</ele>
        <time>2021-07-29T08:50:24Z</time>
      </trkpt>
      <trkpt lat="40.859632" lon="-3.950652">
        <ele>2258.793</ele>
        <time>2021-07-29T08:50:26Z</time>
      </trkpt>
      <trkpt lat="40.859613" lon="-3.950670">
        <ele>2258.360</ele>
        <time>2021-07-29T08:50:29Z</time>
      </trkpt>
      <trkpt lat="40.859587" lon="-3.950683">
        <ele>2257.997</ele>
        <time>2021-07-29T08:50:31Z</time>
      </trkpt>
      <trkpt lat="40.859574" lon="-3.950702">
        <ele>2257.658</ele>
        <time>2021-07-29T08:50:33Z</time>
      </trkpt>
      <trkpt lat="40.859558" lon="-3.950718">
        <ele>2257.298</ele>
        <time>2021-07-29T08:50:35Z</time>
      </trkpt>
      <trkpt lat="40.859546" lon="-3.950740">
        <ele>2256.841</ele>
        <time>2021-07-29T08:50:37Z</time>
      </trkpt>
      <trkpt lat="40.859520" lon="-3.950765">
        <ele>2256.290</ele>
        <time>2021-07-29T08:50:40Z</time>
      </trkpt>
      <trkpt lat="40.859504" lon="-3.950786">
        <ele>2255.714</ele>
        <time>2021-07-29T08:50:42Z</time>
      </trkpt>
      <trkpt lat="40.859485" lon="-3.950810">
        <ele>2255.154</ele>
        <time>2021-07-29T08:50:44Z</time>
      </trkpt>
      <trkpt lat="40.859466" lon="-3.950830">
        <ele>2254.509</ele>
        <time>2021-07-29T08:50:46Z</time>
      </trkpt>
      <trkpt lat="40.859456" lon="-3.950857">
        <ele>2253.908</ele>
        <time>2021-07-29T08:50:52Z</time>
      </trkpt>
      <trkpt lat="40.859440" lon="-3.950882">
        <ele>2253.518</ele>
        <time>2021-07-29T08:50:55Z</time>
      </trkpt>
      <trkpt lat="40.859424" lon="-3.950900">
        <ele>2253.660</ele>
        <time>2021-07-29T08:50:57Z</time>
      </trkpt>
      <trkpt lat="40.859405" lon="-3.950915">
        <ele>2253.737</ele>
        <time>2021-07-29T08:50:59Z</time>
      </trkpt>
      <trkpt lat="40.859395" lon="-3.950938">
        <ele>2253.694</ele>
        <time>2021-07-29T08:51:01Z</time>
      </trkpt>
      <trkpt lat="40.859386" lon="-3.950968">
        <ele>2253.595</ele>
        <time>2021-07-29T08:51:03Z</time>
      </trkpt>
      <trkpt lat="40.859379" lon="-3.951000">
        <ele>2253.365</ele>
        <time>2021-07-29T08:51:05Z</time>
      </trkpt>
      <trkpt lat="40.859376" lon="-3.951025">
        <ele>2253.138</ele>
        <time>2021-07-29T08:51:07Z</time>
      </trkpt>
      <trkpt lat="40.859360" lon="-3.951045">
        <ele>2253.247</ele>
        <time>2021-07-29T08:51:09Z</time>
      </trkpt>
      <trkpt lat="40.859347" lon="-3.951072">
        <ele>2253.161</ele>
        <time>2021-07-29T08:51:12Z</time>
      </trkpt>
      <trkpt lat="40.859325" lon="-3.951092">
        <ele>2253.321</ele>
        <time>2021-07-29T08:51:15Z</time>
      </trkpt>
      <trkpt lat="40.859309" lon="-3.951105">
        <ele>2253.513</ele>
        <time>2021-07-29T08:51:17Z</time>
      </trkpt>
      <trkpt lat="40.859296" lon="-3.951125">
        <ele>2253.408</ele>
        <time>2021-07-29T08:51:19Z</time>
      </trkpt>
      <trkpt lat="40.859283" lon="-3.951143">
        <ele>2253.453</ele>
        <time>2021-07-29T08:51:22Z</time>
      </trkpt>
      <trkpt lat="40.859267" lon="-3.951168">
        <ele>2253.365</ele>
        <time>2021-07-29T08:51:25Z</time>
      </trkpt>
      <trkpt lat="40.859248" lon="-3.951183">
        <ele>2253.552</ele>
        <time>2021-07-29T08:52:24Z</time>
      </trkpt>
      <trkpt lat="40.859219" lon="-3.951197">
        <ele>2253.969</ele>
        <time>2021-07-29T08:52:26Z</time>
      </trkpt>
      <trkpt lat="40.859190" lon="-3.951200">
        <ele>2254.580</ele>
        <time>2021-07-29T08:52:28Z</time>
      </trkpt>
      <trkpt lat="40.859162" lon="-3.951210">
        <ele>2255.150</ele>
        <time>2021-07-29T08:52:30Z</time>
      </trkpt>
      <trkpt lat="40.859142" lon="-3.951223">
        <ele>2255.473</ele>
        <time>2021-07-29T08:52:32Z</time>
      </trkpt>
      <trkpt lat="40.859123" lon="-3.951237">
        <ele>2255.842</ele>
        <time>2021-07-29T08:52:35Z</time>
      </trkpt>
      <trkpt lat="40.859098" lon="-3.951244">
        <ele>2256.497</ele>
        <time>2021-07-29T08:52:38Z</time>
      </trkpt>
      <trkpt lat="40.859078" lon="-3.951252">
        <ele>2256.923</ele>
        <time>2021-07-29T08:52:41Z</time>
      </trkpt>
      <trkpt lat="40.859059" lon="-3.951258">
        <ele>2257.425</ele>
        <time>2021-07-29T08:52:45Z</time>
      </trkpt>
      <trkpt lat="40.859040" lon="-3.951270">
        <ele>2257.808</ele>
        <time>2021-07-29T08:52:48Z</time>
      </trkpt>
      <trkpt lat="40.859018" lon="-3.951280">
        <ele>2258.416</ele>
        <time>2021-07-29T08:52:51Z</time>
      </trkpt>
      <trkpt lat="40.858998" lon="-3.951295">
        <ele>2258.968</ele>
        <time>2021-07-29T08:52:54Z</time>
      </trkpt>
      <trkpt lat="40.858976" lon="-3.951300">
        <ele>2259.585</ele>
        <time>2021-07-29T08:52:57Z</time>
      </trkpt>
      <trkpt lat="40.858957" lon="-3.951306">
        <ele>2260.072</ele>
        <time>2021-07-29T08:53:00Z</time>
      </trkpt>
      <trkpt lat="40.858938" lon="-3.951313">
        <ele>2260.663</ele>
        <time>2021-07-29T08:53:03Z</time>
      </trkpt>
      <trkpt lat="40.858918" lon="-3.951323">
        <ele>2261.193</ele>
        <time>2021-07-29T08:53:06Z</time>
      </trkpt>
      <trkpt lat="40.858902" lon="-3.951338">
        <ele>2261.676</ele>
        <time>2021-07-29T08:53:08Z</time>
      </trkpt>
      <trkpt lat="40.858883" lon="-3.951342">
        <ele>2262.275</ele>
        <time>2021-07-29T08:53:11Z</time>
      </trkpt>
      <trkpt lat="40.858864" lon="-3.951335">
        <ele>2262.953</ele>
        <time>2021-07-29T08:53:15Z</time>
      </trkpt>
      <trkpt lat="40.858845" lon="-3.951335">
        <ele>2263.604</ele>
        <time>2021-07-29T08:53:18Z</time>
      </trkpt>
      <trkpt lat="40.858822" lon="-3.951335">
        <ele>2264.514</ele>
        <time>2021-07-29T08:53:21Z</time>
      </trkpt>
      <trkpt lat="40.858803" lon="-3.951342">
        <ele>2265.208</ele>
        <time>2021-07-29T08:53:23Z</time>
      </trkpt>
      <trkpt lat="40.858784" lon="-3.951337">
        <ele>2265.972</ele>
        <time>2021-07-29T08:53:28Z</time>
      </trkpt>
      <trkpt lat="40.858765" lon="-3.951328">
        <ele>2266.644</ele>
        <time>2021-07-29T08:53:32Z</time>
      </trkpt>
      <trkpt lat="40.858742" lon="-3.951332">
        <ele>2267.551</ele>
        <time>2021-07-29T08:53:36Z</time>
      </trkpt>
      <trkpt lat="40.858723" lon="-3.951330">
        <ele>2268.278</ele>
        <time>2021-07-29T08:53:39Z</time>
      </trkpt>
      <trkpt lat="40.858701" lon="-3.951337">
        <ele>2269.119</ele>
        <time>2021-07-29T08:53:42Z</time>
      </trkpt>
      <trkpt lat="40.858685" lon="-3.951355">
        <ele>2269.859</ele>
        <time>2021-07-29T08:53:45Z</time>
      </trkpt>
      <trkpt lat="40.858669" lon="-3.951367">
        <ele>2270.562</ele>
        <time>2021-07-29T08:53:47Z</time>
      </trkpt>
      <trkpt lat="40.858659" lon="-3.951397">
        <ele>2271.091</ele>
        <time>2021-07-29T08:53:50Z</time>
      </trkpt>
      <trkpt lat="40.858653" lon="-3.951422">
        <ele>2271.098</ele>
        <time>2021-07-29T08:53:53Z</time>
      </trkpt>
      <trkpt lat="40.858640" lon="-3.951442">
        <ele>2271.315</ele>
        <time>2021-07-29T08:53:57Z</time>
      </trkpt>
      <trkpt lat="40.858621" lon="-3.951458">
        <ele>2271.926</ele>
        <time>2021-07-29T08:54:02Z</time>
      </trkpt>
      <trkpt lat="40.858608" lon="-3.951478">
        <ele>2272.108</ele>
        <time>2021-07-29T08:54:04Z</time>
      </trkpt>
      <trkpt lat="40.858586" lon="-3.951492">
        <ele>2272.756</ele>
        <time>2021-07-29T08:54:07Z</time>
      </trkpt>
      <trkpt lat="40.858573" lon="-3.951513">
        <ele>2272.998</ele>
        <time>2021-07-29T08:54:10Z</time>
      </trkpt>
      <trkpt lat="40.858554" lon="-3.951528">
        <ele>2273.315</ele>
        <time>2021-07-29T08:54:14Z</time>
      </trkpt>
      <trkpt lat="40.858534" lon="-3.951535">
        <ele>2273.912</ele>
        <time>2021-07-29T08:54:19Z</time>
      </trkpt>
      <trkpt lat="40.858515" lon="-3.951522">
        <ele>2274.733</ele>
        <time>2021-07-29T08:54:24Z</time>
      </trkpt>
      <trkpt lat="40.858490" lon="-3.951515">
        <ele>2275.563</ele>
        <time>2021-07-29T08:54:29Z</time>
      </trkpt>
      <trkpt lat="40.858474" lon="-3.951527">
        <ele>2275.976</ele>
        <time>2021-07-29T08:54:32Z</time>
      </trkpt>
      <trkpt lat="40.858451" lon="-3.951543">
        <ele>2276.655</ele>
        <time>2021-07-29T08:54:37Z</time>
      </trkpt>
      <trkpt lat="40.858432" lon="-3.951533">
        <ele>2277.325</ele>
        <time>2021-07-29T08:54:41Z</time>
      </trkpt>
      <trkpt lat="40.858416" lon="-3.951522">
        <ele>2277.926</ele>
        <time>2021-07-29T08:54:44Z</time>
      </trkpt>
      <trkpt lat="40.858400" lon="-3.951503">
        <ele>2278.508</ele>
        <time>2021-07-29T08:54:48Z</time>
      </trkpt>
      <trkpt lat="40.858387" lon="-3.951485">
        <ele>2279.008</ele>
        <time>2021-07-29T08:54:50Z</time>
      </trkpt>
      <trkpt lat="40.858371" lon="-3.951472">
        <ele>2279.559</ele>
        <time>2021-07-29T08:54:52Z</time>
      </trkpt>
      <trkpt lat="40.858349" lon="-3.951473">
        <ele>2280.291</ele>
        <time>2021-07-29T08:54:55Z</time>
      </trkpt>
      <trkpt lat="40.858330" lon="-3.951480">
        <ele>2280.858</ele>
        <time>2021-07-29T08:54:58Z</time>
      </trkpt>
      <trkpt lat="40.858314" lon="-3.951500">
        <ele>2281.415</ele>
        <time>2021-07-29T08:55:02Z</time>
      </trkpt>
      <trkpt lat="40.858301" lon="-3.951530">
        <ele>2282.066</ele>
        <time>2021-07-29T08:55:06Z</time>
      </trkpt>
      <trkpt lat="40.858282" lon="-3.951545">
        <ele>2282.936</ele>
        <time>2021-07-29T08:55:09Z</time>
      </trkpt>
      <trkpt lat="40.858266" lon="-3.951560">
        <ele>2283.879</ele>
        <time>2021-07-29T08:55:12Z</time>
      </trkpt>
      <trkpt lat="40.858262" lon="-3.951590">
        <ele>2284.338</ele>
        <time>2021-07-29T08:55:15Z</time>
      </trkpt>
      <trkpt lat="40.858250" lon="-3.951608">
        <ele>2285.391</ele>
        <time>2021-07-29T08:55:17Z</time>
      </trkpt>
      <trkpt lat="40.858237" lon="-3.951627">
        <ele>2286.381</ele>
        <time>2021-07-29T08:55:20Z</time>
      </trkpt>
      <trkpt lat="40.858224" lon="-3.951645">
        <ele>2287.519</ele>
        <time>2021-07-29T08:55:25Z</time>
      </trkpt>
      <trkpt lat="40.858205" lon="-3.951645">
        <ele>2288.808</ele>
        <time>2021-07-29T08:55:30Z</time>
      </trkpt>
      <trkpt lat="40.858186" lon="-3.951648">
        <ele>2290.136</ele>
        <time>2021-07-29T08:55:35Z</time>
      </trkpt>
      <trkpt lat="40.858173" lon="-3.951666">
        <ele>2291.568</ele>
        <time>2021-07-29T08:55:39Z</time>
      </trkpt>
      <trkpt lat="40.858166" lon="-3.951697">
        <ele>2291.235</ele>
        <time>2021-07-29T08:55:44Z</time>
      </trkpt>
      <trkpt lat="40.858163" lon="-3.951723">
        <ele>2290.762</ele>
        <time>2021-07-29T08:55:48Z</time>
      </trkpt>
      <trkpt lat="40.858163" lon="-3.951752">
        <ele>2289.923</ele>
        <time>2021-07-29T08:55:53Z</time>
      </trkpt>
      <trkpt lat="40.858138" lon="-3.951748">
        <ele>2291.733</ele>
        <time>2021-07-29T08:56:02Z</time>
      </trkpt>
      <trkpt lat="40.858118" lon="-3.951735">
        <ele>2293.536</ele>
        <time>2021-07-29T08:56:06Z</time>
      </trkpt>
      <trkpt lat="40.858093" lon="-3.951728">
        <ele>2295.475</ele>
        <time>2021-07-29T08:56:18Z</time>
      </trkpt>
      <trkpt lat="40.858083" lon="-3.951750">
        <ele>2295.433</ele>
        <time>2021-07-29T08:56:28Z</time>
      </trkpt>
      <trkpt lat="40.858054" lon="-3.951740">
        <ele>2297.723</ele>
        <time>2021-07-29T08:56:53Z</time>
      </trkpt>
      <trkpt lat="40.858029" lon="-3.951745">
        <ele>2298.715</ele>
        <time>2021-07-29T08:56:56Z</time>
      </trkpt>
      <trkpt lat="40.858006" lon="-3.951745">
        <ele>2299.808</ele>
        <time>2021-07-29T08:56:58Z</time>
      </trkpt>
      <trkpt lat="40.857987" lon="-3.951732">
        <ele>2301.130</ele>
        <time>2021-07-29T08:57:00Z</time>
      </trkpt>
      <trkpt lat="40.857968" lon="-3.951725">
        <ele>2302.252</ele>
        <time>2021-07-29T08:57:03Z</time>
      </trkpt>
      <trkpt lat="40.857952" lon="-3.951740">
        <ele>2302.539</ele>
        <time>2021-07-29T08:57:09Z</time>
      </trkpt>
      <trkpt lat="40.857936" lon="-3.951752">
        <ele>2302.886</ele>
        <time>2021-07-29T08:57:16Z</time>
      </trkpt>
      <trkpt lat="40.857917" lon="-3.951748">
        <ele>2303.817</ele>
        <time>2021-07-29T08:57:21Z</time>
      </trkpt>
      <trkpt lat="40.857898" lon="-3.951742">
        <ele>2304.977</ele>
        <time>2021-07-29T08:57:25Z</time>
      </trkpt>
      <trkpt lat="40.857878" lon="-3.951743">
        <ele>2305.820</ele>
        <time>2021-07-29T08:57:29Z</time>
      </trkpt>
      <trkpt lat="40.857869" lon="-3.951765">
        <ele>2305.559</ele>
        <time>2021-07-29T08:57:34Z</time>
      </trkpt>
      <trkpt lat="40.857856" lon="-3.951785">
        <ele>2305.569</ele>
        <time>2021-07-29T08:57:41Z</time>
      </trkpt>
      <trkpt lat="40.857840" lon="-3.951796">
        <ele>2305.904</ele>
        <time>2021-07-29T08:57:45Z</time>
      </trkpt>
      <trkpt lat="40.857818" lon="-3.951806">
        <ele>2306.624</ele>
        <time>2021-07-29T08:57:52Z</time>
      </trkpt>
      <trkpt lat="40.857805" lon="-3.951832">
        <ele>2306.408</ele>
        <time>2021-07-29T08:57:58Z</time>
      </trkpt>
      <trkpt lat="40.857786" lon="-3.951835">
        <ele>2307.263</ele>
        <time>2021-07-29T08:58:04Z</time>
      </trkpt>
      <trkpt lat="40.857773" lon="-3.951853">
        <ele>2307.295</ele>
        <time>2021-07-29T08:58:10Z</time>
      </trkpt>
      <trkpt lat="40.857754" lon="-3.951845">
        <ele>2308.512</ele>
        <time>2021-07-29T08:58:18Z</time>
      </trkpt>
      <trkpt lat="40.857741" lon="-3.951822">
        <ele>2309.859</ele>
        <time>2021-07-29T08:58:24Z</time>
      </trkpt>
      <trkpt lat="40.857728" lon="-3.951802">
        <ele>2311.070</ele>
        <time>2021-07-29T08:58:28Z</time>
      </trkpt>
      <trkpt lat="40.857712" lon="-3.951780">
        <ele>2312.380</ele>
        <time>2021-07-29T08:58:33Z</time>
      </trkpt>
      <trkpt lat="40.857709" lon="-3.951748">
        <ele>2313.163</ele>
        <time>2021-07-29T08:58:37Z</time>
      </trkpt>
      <trkpt lat="40.857696" lon="-3.951732">
        <ele>2314.062</ele>
        <time>2021-07-29T08:58:40Z</time>
      </trkpt>
      <trkpt lat="40.857677" lon="-3.951735">
        <ele>2314.768</ele>
        <time>2021-07-29T08:58:44Z</time>
      </trkpt>
      <trkpt lat="40.857670" lon="-3.951758">
        <ele>2314.542</ele>
        <time>2021-07-29T08:58:50Z</time>
      </trkpt>
      <trkpt lat="40.857651" lon="-3.951762">
        <ele>2315.326</ele>
        <time>2021-07-29T08:58:54Z</time>
      </trkpt>
      <trkpt lat="40.857635" lon="-3.951745">
        <ele>2316.208</ele>
        <time>2021-07-29T08:58:58Z</time>
      </trkpt>
      <trkpt lat="40.857616" lon="-3.951740">
        <ele>2317.063</ele>
        <time>2021-07-29T08:59:02Z</time>
      </trkpt>
      <trkpt lat="40.857597" lon="-3.951750">
        <ele>2317.795</ele>
        <time>2021-07-29T08:59:06Z</time>
      </trkpt>
      <trkpt lat="40.857578" lon="-3.951763">
        <ele>2318.442</ele>
        <time>2021-07-29T08:59:11Z</time>
      </trkpt>
      <trkpt lat="40.857562" lon="-3.951778">
        <ele>2319.089</ele>
        <time>2021-07-29T08:59:15Z</time>
      </trkpt>
      <trkpt lat="40.857549" lon="-3.951798">
        <ele>2319.650</ele>
        <time>2021-07-29T08:59:20Z</time>
      </trkpt>
      <trkpt lat="40.857533" lon="-3.951822">
        <ele>2320.470</ele>
        <time>2021-07-29T08:59:25Z</time>
      </trkpt>
      <trkpt lat="40.857514" lon="-3.951835">
        <ele>2321.593</ele>
        <time>2021-07-29T08:59:29Z</time>
      </trkpt>
      <trkpt lat="40.857494" lon="-3.951838">
        <ele>2322.482</ele>
        <time>2021-07-29T08:59:32Z</time>
      </trkpt>
      <trkpt lat="40.857472" lon="-3.951846">
        <ele>2322.919</ele>
        <time>2021-07-29T08:59:36Z</time>
      </trkpt>
      <trkpt lat="40.857450" lon="-3.951843">
        <ele>2323.309</ele>
        <time>2021-07-29T08:59:39Z</time>
      </trkpt>
      <trkpt lat="40.857437" lon="-3.951860">
        <ele>2323.819</ele>
        <time>2021-07-29T08:59:41Z</time>
      </trkpt>
      <trkpt lat="40.857418" lon="-3.951870">
        <ele>2324.308</ele>
        <time>2021-07-29T08:59:46Z</time>
      </trkpt>
      <trkpt lat="40.857402" lon="-3.951882">
        <ele>2324.888</ele>
        <time>2021-07-29T08:59:49Z</time>
      </trkpt>
      <trkpt lat="40.857379" lon="-3.951882">
        <ele>2325.310</ele>
        <time>2021-07-29T08:59:53Z</time>
      </trkpt>
      <trkpt lat="40.857360" lon="-3.951875">
        <ele>2325.787</ele>
        <time>2021-07-29T08:59:57Z</time>
      </trkpt>
      <trkpt lat="40.857350" lon="-3.951897">
        <ele>2326.254</ele>
        <time>2021-07-29T09:00:00Z</time>
      </trkpt>
      <trkpt lat="40.857341" lon="-3.951920">
        <ele>2326.745</ele>
        <time>2021-07-29T09:00:09Z</time>
      </trkpt>
      <trkpt lat="40.857331" lon="-3.951943">
        <ele>2327.245</ele>
        <time>2021-07-29T09:00:14Z</time>
      </trkpt>
      <trkpt lat="40.857315" lon="-3.951964">
        <ele>2326.498</ele>
        <time>2021-07-29T09:00:20Z</time>
      </trkpt>
      <trkpt lat="40.857293" lon="-3.951975">
        <ele>2326.447</ele>
        <time>2021-07-29T09:00:23Z</time>
      </trkpt>
      <trkpt lat="40.857270" lon="-3.951984">
        <ele>2326.552</ele>
        <time>2021-07-29T09:00:27Z</time>
      </trkpt>
      <trkpt lat="40.857251" lon="-3.951984">
        <ele>2327.053</ele>
        <time>2021-07-29T09:00:31Z</time>
      </trkpt>
      <trkpt lat="40.857232" lon="-3.951974">
        <ele>2328.108</ele>
        <time>2021-07-29T09:00:34Z</time>
      </trkpt>
      <trkpt lat="40.857213" lon="-3.951955">
        <ele>2329.408</ele>
        <time>2021-07-29T09:00:38Z</time>
      </trkpt>
      <trkpt lat="40.857194" lon="-3.951958">
        <ele>2329.362</ele>
        <time>2021-07-29T09:00:45Z</time>
      </trkpt>
      <trkpt lat="40.857171" lon="-3.951947">
        <ele>2329.914</ele>
        <time>2021-07-29T09:00:48Z</time>
      </trkpt>
      <trkpt lat="40.857142" lon="-3.951942">
        <ele>2330.081</ele>
        <time>2021-07-29T09:00:52Z</time>
      </trkpt>
      <trkpt lat="40.857117" lon="-3.951948">
        <ele>2329.818</ele>
        <time>2021-07-29T09:00:55Z</time>
      </trkpt>
      <trkpt lat="40.857094" lon="-3.951948">
        <ele>2329.879</ele>
        <time>2021-07-29T09:00:58Z</time>
      </trkpt>
      <trkpt lat="40.857075" lon="-3.951954">
        <ele>2329.569</ele>
        <time>2021-07-29T09:01:00Z</time>
      </trkpt>
      <trkpt lat="40.857056" lon="-3.951964">
        <ele>2329.032</ele>
        <time>2021-07-29T09:01:02Z</time>
      </trkpt>
      <trkpt lat="40.857037" lon="-3.951968">
        <ele>2328.821</ele>
        <time>2021-07-29T09:01:05Z</time>
      </trkpt>
      <trkpt lat="40.857021" lon="-3.951982">
        <ele>2328.277</ele>
        <time>2021-07-29T09:01:08Z</time>
      </trkpt>
      <trkpt lat="40.857002" lon="-3.951977">
        <ele>2328.461</ele>
        <time>2021-07-29T09:01:10Z</time>
      </trkpt>
      <trkpt lat="40.856982" lon="-3.951972">
        <ele>2328.727</ele>
        <time>2021-07-29T09:01:12Z</time>
      </trkpt>
      <trkpt lat="40.856963" lon="-3.951958">
        <ele>2329.408</ele>
        <time>2021-07-29T09:01:18Z</time>
      </trkpt>
      <trkpt lat="40.856944" lon="-3.951954">
        <ele>2329.684</ele>
        <time>2021-07-29T09:01:21Z</time>
      </trkpt>
      <trkpt lat="40.856922" lon="-3.951950">
        <ele>2329.896</ele>
        <time>2021-07-29T09:02:01Z</time>
      </trkpt>
      <trkpt lat="40.856899" lon="-3.951955">
        <ele>2329.693</ele>
        <time>2021-07-29T09:02:03Z</time>
      </trkpt>
      <trkpt lat="40.856880" lon="-3.951952">
        <ele>2329.710</ele>
        <time>2021-07-29T09:02:05Z</time>
      </trkpt>
      <trkpt lat="40.856854" lon="-3.951948">
        <ele>2329.991</ele>
        <time>2021-07-29T09:02:07Z</time>
      </trkpt>
      <trkpt lat="40.856832" lon="-3.951957">
        <ele>2329.571</ele>
        <time>2021-07-29T09:02:09Z</time>
      </trkpt>
      <trkpt lat="40.856816" lon="-3.951968">
        <ele>2329.244</ele>
        <time>2021-07-29T09:02:11Z</time>
      </trkpt>
      <trkpt lat="40.856797" lon="-3.951968">
        <ele>2329.243</ele>
        <time>2021-07-29T09:02:16Z</time>
      </trkpt>
      <trkpt lat="40.856778" lon="-3.951950">
        <ele>2329.852</ele>
        <time>2021-07-29T09:02:20Z</time>
      </trkpt>
      <trkpt lat="40.856758" lon="-3.951948">
        <ele>2329.953</ele>
        <time>2021-07-29T09:02:23Z</time>
      </trkpt>
      <trkpt lat="40.856742" lon="-3.951928">
        <ele>2329.808</ele>
        <time>2021-07-29T09:02:27Z</time>
      </trkpt>
      <trkpt lat="40.856720" lon="-3.951970">
        <ele>2329.308</ele>
        <time>2021-07-29T09:03:26Z</time>
      </trkpt>
      <trkpt lat="40.856698" lon="-3.951980">
        <ele>2329.152</ele>
        <time>2021-07-29T09:03:28Z</time>
      </trkpt>
      <trkpt lat="40.856669" lon="-3.951988">
        <ele>2329.184</ele>
        <time>2021-07-29T09:03:30Z</time>
      </trkpt>
      <trkpt lat="40.856643" lon="-3.951990">
        <ele>2329.871</ele>
        <time>2021-07-29T09:03:32Z</time>
      </trkpt>
      <trkpt lat="40.856618" lon="-3.951992">
        <ele>2330.678</ele>
        <time>2021-07-29T09:03:34Z</time>
      </trkpt>
      <trkpt lat="40.856595" lon="-3.951992">
        <ele>2331.439</ele>
        <time>2021-07-29T09:03:37Z</time>
      </trkpt>
      <trkpt lat="40.856576" lon="-3.951997">
        <ele>2331.939</ele>
        <time>2021-07-29T09:03:41Z</time>
      </trkpt>
      <trkpt lat="40.856557" lon="-3.952006">
        <ele>2332.482</ele>
        <time>2021-07-29T09:03:44Z</time>
      </trkpt>
      <trkpt lat="40.856534" lon="-3.951995">
        <ele>2333.451</ele>
        <time>2021-07-29T09:03:48Z</time>
      </trkpt>
      <trkpt lat="40.856518" lon="-3.951982">
        <ele>2334.351</ele>
        <time>2021-07-29T09:03:50Z</time>
      </trkpt>
      <trkpt lat="40.856496" lon="-3.951978">
        <ele>2335.201</ele>
        <time>2021-07-29T09:03:53Z</time>
      </trkpt>
      <trkpt lat="40.856467" lon="-3.951980">
        <ele>2336.111</ele>
        <time>2021-07-29T09:03:57Z</time>
      </trkpt>
      <trkpt lat="40.856448" lon="-3.951968">
        <ele>2337.208</ele>
        <time>2021-07-29T09:04:00Z</time>
      </trkpt>
      <trkpt lat="40.856429" lon="-3.951960">
        <ele>2338.192</ele>
        <time>2021-07-29T09:04:03Z</time>
      </trkpt>
      <trkpt lat="40.856410" lon="-3.951964">
        <ele>2338.654</ele>
        <time>2021-07-29T09:04:06Z</time>
      </trkpt>
      <trkpt lat="40.856390" lon="-3.951957">
        <ele>2339.611</ele>
        <time>2021-07-29T09:04:09Z</time>
      </trkpt>
      <trkpt lat="40.856365" lon="-3.951968">
        <ele>2339.938</ele>
        <time>2021-07-29T09:04:13Z</time>
      </trkpt>
      <trkpt lat="40.856339" lon="-3.951974">
        <ele>2340.589</ele>
        <time>2021-07-29T09:04:16Z</time>
      </trkpt>
      <trkpt lat="40.856320" lon="-3.951974">
        <ele>2341.159</ele>
        <time>2021-07-29T09:04:20Z</time>
      </trkpt>
      <trkpt lat="40.856301" lon="-3.951980">
        <ele>2341.522</ele>
        <time>2021-07-29T09:04:24Z</time>
      </trkpt>
      <trkpt lat="40.856278" lon="-3.951978">
        <ele>2342.211</ele>
        <time>2021-07-29T09:04:29Z</time>
      </trkpt>
      <trkpt lat="40.856259" lon="-3.951980">
        <ele>2342.754</ele>
        <time>2021-07-29T09:04:32Z</time>
      </trkpt>
      <trkpt lat="40.856237" lon="-3.951975">
        <ele>2343.556</ele>
        <time>2021-07-29T09:04:36Z</time>
      </trkpt>
      <trkpt lat="40.856218" lon="-3.951977">
        <ele>2344.011</ele>
        <time>2021-07-29T09:04:38Z</time>
      </trkpt>
      <trkpt lat="40.856198" lon="-3.951970">
        <ele>2344.808</ele>
        <time>2021-07-29T09:04:41Z</time>
      </trkpt>
      <trkpt lat="40.856179" lon="-3.951972">
        <ele>2345.322</ele>
        <time>2021-07-29T09:04:44Z</time>
      </trkpt>
      <trkpt lat="40.856160" lon="-3.951980">
        <ele>2345.754</ele>
        <time>2021-07-29T09:04:48Z</time>
      </trkpt>
      <trkpt lat="40.856141" lon="-3.951972">
        <ele>2346.441</ele>
        <time>2021-07-29T09:04:51Z</time>
      </trkpt>
      <trkpt lat="40.856125" lon="-3.951957">
        <ele>2347.358</ele>
        <time>2021-07-29T09:04:53Z</time>
      </trkpt>
      <trkpt lat="40.856109" lon="-3.951942">
        <ele>2348.139</ele>
        <time>2021-07-29T09:04:58Z</time>
      </trkpt>
      <trkpt lat="40.856090" lon="-3.951930">
        <ele>2348.649</ele>
        <time>2021-07-29T09:05:01Z</time>
      </trkpt>
      <trkpt lat="40.856070" lon="-3.951922">
        <ele>2349.222</ele>
        <time>2021-07-29T09:05:05Z</time>
      </trkpt>
      <trkpt lat="40.856048" lon="-3.951932">
        <ele>2350.141</ele>
        <time>2021-07-29T09:05:09Z</time>
      </trkpt>
      <trkpt lat="40.856029" lon="-3.951940">
        <ele>2350.936</ele>
        <time>2021-07-29T09:05:12Z</time>
      </trkpt>
      <trkpt lat="40.856006" lon="-3.951954">
        <ele>2351.517</ele>
        <time>2021-07-29T09:05:16Z</time>
      </trkpt>
      <trkpt lat="40.855987" lon="-3.951968">
        <ele>2351.818</ele>
        <time>2021-07-29T09:05:19Z</time>
      </trkpt>
      <trkpt lat="40.855971" lon="-3.951980">
        <ele>2352.108</ele>
        <time>2021-07-29T09:05:22Z</time>
      </trkpt>
      <trkpt lat="40.855952" lon="-3.951988">
        <ele>2352.520</ele>
        <time>2021-07-29T09:05:25Z</time>
      </trkpt>
      <trkpt lat="40.855930" lon="-3.952002">
        <ele>2352.962</ele>
        <time>2021-07-29T09:05:28Z</time>
      </trkpt>
      <trkpt lat="40.855910" lon="-3.952006">
        <ele>2353.549</ele>
        <time>2021-07-29T09:05:31Z</time>
      </trkpt>
      <trkpt lat="40.855894" lon="-3.952028">
        <ele>2353.586</ele>
        <time>2021-07-29T09:05:35Z</time>
      </trkpt>
      <trkpt lat="40.855878" lon="-3.952047">
        <ele>2353.587</ele>
        <time>2021-07-29T09:05:38Z</time>
      </trkpt>
      <trkpt lat="40.855862" lon="-3.952062">
        <ele>2353.697</ele>
        <time>2021-07-29T09:05:41Z</time>
      </trkpt>
      <trkpt lat="40.855843" lon="-3.952075">
        <ele>2353.970</ele>
        <time>2021-07-29T09:05:44Z</time>
      </trkpt>
      <trkpt lat="40.855824" lon="-3.952087">
        <ele>2354.319</ele>
        <time>2021-07-29T09:05:47Z</time>
      </trkpt>
      <trkpt lat="40.855805" lon="-3.952090">
        <ele>2355.069</ele>
        <time>2021-07-29T09:05:50Z</time>
      </trkpt>
      <trkpt lat="40.855786" lon="-3.952095">
        <ele>2355.604</ele>
        <time>2021-07-29T09:05:52Z</time>
      </trkpt>
      <trkpt lat="40.855766" lon="-3.952110">
        <ele>2356.024</ele>
        <time>2021-07-29T09:05:55Z</time>
      </trkpt>
      <trkpt lat="40.855754" lon="-3.952130">
        <ele>2355.908</ele>
        <time>2021-07-29T09:05:58Z</time>
      </trkpt>
      <trkpt lat="40.855728" lon="-3.952128">
        <ele>2357.073</ele>
        <time>2021-07-29T09:06:01Z</time>
      </trkpt>
      <trkpt lat="40.855712" lon="-3.952148">
        <ele>2357.125</ele>
        <time>2021-07-29T09:06:05Z</time>
      </trkpt>
      <trkpt lat="40.855706" lon="-3.952173">
        <ele>2356.532</ele>
        <time>2021-07-29T09:06:08Z</time>
      </trkpt>
      <trkpt lat="40.855693" lon="-3.952198">
        <ele>2356.319</ele>
        <time>2021-07-29T09:06:13Z</time>
      </trkpt>
      <trkpt lat="40.855670" lon="-3.952208">
        <ele>2356.980</ele>
        <time>2021-07-29T09:06:16Z</time>
      </trkpt>
      <trkpt lat="40.855651" lon="-3.952222">
        <ele>2357.290</ele>
        <time>2021-07-29T09:06:19Z</time>
      </trkpt>
      <trkpt lat="40.855645" lon="-3.952245">
        <ele>2356.653</ele>
        <time>2021-07-29T09:06:22Z</time>
      </trkpt>
      <trkpt lat="40.855626" lon="-3.952258">
        <ele>2356.822</ele>
        <time>2021-07-29T09:06:26Z</time>
      </trkpt>
      <trkpt lat="40.855606" lon="-3.952270">
        <ele>2357.176</ele>
        <time>2021-07-29T09:06:28Z</time>
      </trkpt>
      <trkpt lat="40.855587" lon="-3.952287">
        <ele>2357.290</ele>
        <time>2021-07-29T09:06:32Z</time>
      </trkpt>
      <trkpt lat="40.855571" lon="-3.952308">
        <ele>2357.019</ele>
        <time>2021-07-29T09:06:35Z</time>
      </trkpt>
      <trkpt lat="40.855555" lon="-3.952328">
        <ele>2356.808</ele>
        <time>2021-07-29T09:06:37Z</time>
      </trkpt>
      <trkpt lat="40.855552" lon="-3.952355">
        <ele>2355.934</ele>
        <time>2021-07-29T09:06:39Z</time>
      </trkpt>
      <trkpt lat="40.855536" lon="-3.952377">
        <ele>2355.816</ele>
        <time>2021-07-29T09:06:42Z</time>
      </trkpt>
      <trkpt lat="40.855517" lon="-3.952368">
        <ele>2357.113</ele>
        <time>2021-07-29T09:06:44Z</time>
      </trkpt>
      <trkpt lat="40.855501" lon="-3.952380">
        <ele>2357.470</ele>
        <time>2021-07-29T09:06:47Z</time>
      </trkpt>
      <trkpt lat="40.855482" lon="-3.952387">
        <ele>2358.061</ele>
        <time>2021-07-29T09:06:50Z</time>
      </trkpt>
      <trkpt lat="40.855466" lon="-3.952398">
        <ele>2358.361</ele>
        <time>2021-07-29T09:06:52Z</time>
      </trkpt>
      <trkpt lat="40.855443" lon="-3.952410">
        <ele>2359.054</ele>
        <time>2021-07-29T09:06:55Z</time>
      </trkpt>
      <trkpt lat="40.855427" lon="-3.952423">
        <ele>2359.233</ele>
        <time>2021-07-29T09:06:59Z</time>
      </trkpt>
      <trkpt lat="40.855424" lon="-3.952447">
        <ele>2358.375</ele>
        <time>2021-07-29T09:07:03Z</time>
      </trkpt>
      <trkpt lat="40.855402" lon="-3.952463">
        <ele>2358.728</ele>
        <time>2021-07-29T09:07:08Z</time>
      </trkpt>
      <trkpt lat="40.855382" lon="-3.952480">
        <ele>2359.020</ele>
        <time>2021-07-29T09:07:11Z</time>
      </trkpt>
      <trkpt lat="40.855363" lon="-3.952496">
        <ele>2359.208</ele>
        <time>2021-07-29T09:07:15Z</time>
      </trkpt>
      <trkpt lat="40.855347" lon="-3.952508">
        <ele>2359.484</ele>
        <time>2021-07-29T09:07:17Z</time>
      </trkpt>
      <trkpt lat="40.855328" lon="-3.952523">
        <ele>2359.726</ele>
        <time>2021-07-29T09:07:20Z</time>
      </trkpt>
      <trkpt lat="40.855309" lon="-3.952533">
        <ele>2360.233</ele>
        <time>2021-07-29T09:07:23Z</time>
      </trkpt>
      <trkpt lat="40.855290" lon="-3.952543">
        <ele>2360.780</ele>
        <time>2021-07-29T09:07:26Z</time>
      </trkpt>
      <trkpt lat="40.855267" lon="-3.952546">
        <ele>2361.621</ele>
        <time>2021-07-29T09:07:28Z</time>
      </trkpt>
      <trkpt lat="40.855251" lon="-3.952563">
        <ele>2361.691</ele>
        <time>2021-07-29T09:07:32Z</time>
      </trkpt>
      <trkpt lat="40.855232" lon="-3.952577">
        <ele>2361.844</ele>
        <time>2021-07-29T09:07:36Z</time>
      </trkpt>
      <trkpt lat="40.855210" lon="-3.952583">
        <ele>2362.513</ele>
        <time>2021-07-29T09:07:39Z</time>
      </trkpt>
      <trkpt lat="40.855190" lon="-3.952590">
        <ele>2363.099</ele>
        <time>2021-07-29T09:07:42Z</time>
      </trkpt>
      <trkpt lat="40.855174" lon="-3.952610">
        <ele>2362.907</ele>
        <time>2021-07-29T09:07:45Z</time>
      </trkpt>
      <trkpt lat="40.855158" lon="-3.952632">
        <ele>2362.727</ele>
        <time>2021-07-29T09:07:49Z</time>
      </trkpt>
      <trkpt lat="40.855136" lon="-3.952645">
        <ele>2363.108</ele>
        <time>2021-07-29T09:07:53Z</time>
      </trkpt>
      <trkpt lat="40.855114" lon="-3.952647">
        <ele>2364.016</ele>
        <time>2021-07-29T09:07:56Z</time>
      </trkpt>
      <trkpt lat="40.855088" lon="-3.952655">
        <ele>2364.848</ele>
        <time>2021-07-29T09:07:58Z</time>
      </trkpt>
      <trkpt lat="40.855069" lon="-3.952660">
        <ele>2365.415</ele>
        <time>2021-07-29T09:08:03Z</time>
      </trkpt>
      <trkpt lat="40.855050" lon="-3.952652">
        <ele>2366.452</ele>
        <time>2021-07-29T09:08:05Z</time>
      </trkpt>
      <trkpt lat="40.855030" lon="-3.952657">
        <ele>2367.163</ele>
        <time>2021-07-29T09:08:09Z</time>
      </trkpt>
      <trkpt lat="40.855011" lon="-3.952672">
        <ele>2367.373</ele>
        <time>2021-07-29T09:08:13Z</time>
      </trkpt>
      <trkpt lat="40.854992" lon="-3.952684">
        <ele>2367.656</ele>
        <time>2021-07-29T09:08:16Z</time>
      </trkpt>
      <trkpt lat="40.854973" lon="-3.952692">
        <ele>2367.915</ele>
        <time>2021-07-29T09:08:19Z</time>
      </trkpt>
      <trkpt lat="40.854954" lon="-3.952700">
        <ele>2368.345</ele>
        <time>2021-07-29T09:08:31Z</time>
      </trkpt>
      <trkpt lat="40.854925" lon="-3.952710">
        <ele>2368.947</ele>
        <time>2021-07-29T09:08:50Z</time>
      </trkpt>
      <trkpt lat="40.854896" lon="-3.952725">
        <ele>2369.411</ele>
        <time>2021-07-29T09:08:52Z</time>
      </trkpt>
      <trkpt lat="40.854867" lon="-3.952737">
        <ele>2370.008</ele>
        <time>2021-07-29T09:08:54Z</time>
      </trkpt>
      <trkpt lat="40.854835" lon="-3.952748">
        <ele>2370.811</ele>
        <time>2021-07-29T09:08:56Z</time>
      </trkpt>
      <trkpt lat="40.854816" lon="-3.952757">
        <ele>2371.253</ele>
        <time>2021-07-29T09:08:58Z</time>
      </trkpt>
      <trkpt lat="40.854790" lon="-3.952768">
        <ele>2371.860</ele>
        <time>2021-07-29T09:09:01Z</time>
      </trkpt>
      <trkpt lat="40.854774" lon="-3.952785">
        <ele>2371.877</ele>
        <time>2021-07-29T09:09:04Z</time>
      </trkpt>
      <trkpt lat="40.854758" lon="-3.952802">
        <ele>2371.718</ele>
        <time>2021-07-29T09:09:08Z</time>
      </trkpt>
      <trkpt lat="40.854742" lon="-3.952825">
        <ele>2371.428</ele>
        <time>2021-07-29T09:09:11Z</time>
      </trkpt>
      <trkpt lat="40.854730" lon="-3.952845">
        <ele>2371.181</ele>
        <time>2021-07-29T09:09:14Z</time>
      </trkpt>
      <trkpt lat="40.854714" lon="-3.952868">
        <ele>2370.610</ele>
        <time>2021-07-29T09:09:17Z</time>
      </trkpt>
      <trkpt lat="40.854694" lon="-3.952876">
        <ele>2370.832</ele>
        <time>2021-07-29T09:09:19Z</time>
      </trkpt>
      <trkpt lat="40.854682" lon="-3.952912">
        <ele>2369.692</ele>
        <time>2021-07-29T09:09:22Z</time>
      </trkpt>
      <trkpt lat="40.854669" lon="-3.952933">
        <ele>2369.111</ele>
        <time>2021-07-29T09:09:24Z</time>
      </trkpt>
      <trkpt lat="40.854650" lon="-3.952947">
        <ele>2369.008</ele>
        <time>2021-07-29T09:09:25Z</time>
      </trkpt>
      <trkpt lat="40.854637" lon="-3.952977">
        <ele>2368.240</ele>
        <time>2021-07-29T09:09:26Z</time>
      </trkpt>
      <trkpt lat="40.854595" lon="-3.952992">
        <ele>2368.672</ele>
        <time>2021-07-29T09:09:28Z</time>
      </trkpt>
      <trkpt lat="40.854576" lon="-3.952985">
        <ele>2369.399</ele>
        <time>2021-07-29T09:09:29Z</time>
      </trkpt>
      <trkpt lat="40.854560" lon="-3.953000">
        <ele>2369.276</ele>
        <time>2021-07-29T09:09:32Z</time>
      </trkpt>
      <trkpt lat="40.854541" lon="-3.953005">
        <ele>2369.497</ele>
        <time>2021-07-29T09:09:39Z</time>
      </trkpt>
      <trkpt lat="40.854522" lon="-3.953017">
        <ele>2369.547</ele>
        <time>2021-07-29T09:09:44Z</time>
      </trkpt>
      <trkpt lat="40.854509" lon="-3.953040">
        <ele>2368.950</ele>
        <time>2021-07-29T09:09:46Z</time>
      </trkpt>
      <trkpt lat="40.854496" lon="-3.953062">
        <ele>2368.569</ele>
        <time>2021-07-29T09:09:50Z</time>
      </trkpt>
      <trkpt lat="40.854477" lon="-3.953065">
        <ele>2368.965</ele>
        <time>2021-07-29T09:09:57Z</time>
      </trkpt>
      <trkpt lat="40.854458" lon="-3.953075">
        <ele>2369.168</ele>
        <time>2021-07-29T09:10:05Z</time>
      </trkpt>
      <trkpt lat="40.854451" lon="-3.953052">
        <ele>2370.014</ele>
        <time>2021-07-29T09:10:14Z</time>
      </trkpt>
      <trkpt lat="40.854429" lon="-3.953052">
        <ele>2370.708</ele>
        <time>2021-07-29T09:10:17Z</time>
      </trkpt>
      <trkpt lat="40.854410" lon="-3.953063">
        <ele>2371.043</ele>
        <time>2021-07-29T09:10:22Z</time>
      </trkpt>
      <trkpt lat="40.854390" lon="-3.953066">
        <ele>2371.725</ele>
        <time>2021-07-29T09:10:27Z</time>
      </trkpt>
      <trkpt lat="40.854365" lon="-3.953077">
        <ele>2372.282</ele>
        <time>2021-07-29T09:10:57Z</time>
      </trkpt>
      <trkpt lat="40.854330" lon="-3.953077">
        <ele>2373.519</ele>
        <time>2021-07-29T09:10:59Z</time>
      </trkpt>
      <trkpt lat="40.854304" lon="-3.953087">
        <ele>2374.250</ele>
        <time>2021-07-29T09:11:01Z</time>
      </trkpt>
      <trkpt lat="40.854285" lon="-3.953103">
        <ele>2374.450</ele>
        <time>2021-07-29T09:11:03Z</time>
      </trkpt>
      <trkpt lat="40.854266" lon="-3.953118">
        <ele>2374.683</ele>
        <time>2021-07-29T09:11:05Z</time>
      </trkpt>
      <trkpt lat="40.854250" lon="-3.953135">
        <ele>2374.772</ele>
        <time>2021-07-29T09:11:10Z</time>
      </trkpt>
      <trkpt lat="40.854237" lon="-3.953158">
        <ele>2374.537</ele>
        <time>2021-07-29T09:11:14Z</time>
      </trkpt>
      <trkpt lat="40.854214" lon="-3.953180">
        <ele>2374.749</ele>
        <time>2021-07-29T09:11:42Z</time>
      </trkpt>
      <trkpt lat="40.854198" lon="-3.953210">
        <ele>2374.413</ele>
        <time>2021-07-29T09:11:44Z</time>
      </trkpt>
      <trkpt lat="40.854182" lon="-3.953228">
        <ele>2374.508</ele>
        <time>2021-07-29T09:11:46Z</time>
      </trkpt>
      <trkpt lat="40.854163" lon="-3.953245">
        <ele>2374.510</ele>
        <time>2021-07-29T09:11:48Z</time>
      </trkpt>
      <trkpt lat="40.854141" lon="-3.953265">
        <ele>2373.682</ele>
        <time>2021-07-29T09:11:50Z</time>
      </trkpt>
      <trkpt lat="40.854125" lon="-3.953285">
        <ele>2373.079</ele>
        <time>2021-07-29T09:11:52Z</time>
      </trkpt>
      <trkpt lat="40.854112" lon="-3.953307">
        <ele>2372.566</ele>
        <time>2021-07-29T09:11:55Z</time>
      </trkpt>
      <trkpt lat="40.854102" lon="-3.953328">
        <ele>2372.397</ele>
        <time>2021-07-29T09:12:05Z</time>
      </trkpt>
      <trkpt lat="40.854086" lon="-3.953348">
        <ele>2371.817</ele>
        <time>2021-07-29T09:12:10Z</time>
      </trkpt>
      <trkpt lat="40.854064" lon="-3.953357">
        <ele>2371.680</ele>
        <time>2021-07-29T09:12:21Z</time>
      </trkpt>
      <trkpt lat="40.854045" lon="-3.953355">
        <ele>2371.899</ele>
        <time>2021-07-29T09:12:26Z</time>
      </trkpt>
      <trkpt lat="40.854026" lon="-3.953362">
        <ele>2371.733</ele>
        <time>2021-07-29T09:13:20Z</time>
      </trkpt>
      <trkpt lat="40.854013" lon="-3.953387">
        <ele>2371.123</ele>
        <time>2021-07-29T09:13:22Z</time>
      </trkpt>
      <trkpt lat="40.853997" lon="-3.953410">
        <ele>2370.615</ele>
        <time>2021-07-29T09:13:24Z</time>
      </trkpt>
      <trkpt lat="40.853974" lon="-3.953438">
        <ele>2370.308</ele>
        <time>2021-07-29T09:13:27Z</time>
      </trkpt>
      <trkpt lat="40.853962" lon="-3.953457">
        <ele>2370.030</ele>
        <time>2021-07-29T09:13:31Z</time>
      </trkpt>
      <trkpt lat="40.853946" lon="-3.953472">
        <ele>2370.032</ele>
        <time>2021-07-29T09:13:38Z</time>
      </trkpt>
      <trkpt lat="40.853933" lon="-3.953495">
        <ele>2369.819</ele>
        <time>2021-07-29T09:13:42Z</time>
      </trkpt>
      <trkpt lat="40.853923" lon="-3.953518">
        <ele>2369.666</ele>
        <time>2021-07-29T09:13:47Z</time>
      </trkpt>
      <trkpt lat="40.853904" lon="-3.953518">
        <ele>2370.097</ele>
        <time>2021-07-29T09:13:51Z</time>
      </trkpt>
      <trkpt lat="40.853888" lon="-3.953532">
        <ele>2370.177</ele>
        <time>2021-07-29T09:13:54Z</time>
      </trkpt>
      <trkpt lat="40.853869" lon="-3.953532">
        <ele>2370.160</ele>
        <time>2021-07-29T09:13:58Z</time>
      </trkpt>
      <trkpt lat="40.853856" lon="-3.953552">
        <ele>2369.979</ele>
        <time>2021-07-29T09:14:01Z</time>
      </trkpt>
      <trkpt lat="40.853837" lon="-3.953562">
        <ele>2369.875</ele>
        <time>2021-07-29T09:14:04Z</time>
      </trkpt>
      <trkpt lat="40.853818" lon="-3.953572">
        <ele>2369.728</ele>
        <time>2021-07-29T09:14:08Z</time>
      </trkpt>
      <trkpt lat="40.853802" lon="-3.953560">
        <ele>2369.820</ele>
        <time>2021-07-29T09:14:12Z</time>
      </trkpt>
      <trkpt lat="40.853782" lon="-3.953573">
        <ele>2369.708</ele>
        <time>2021-07-29T09:14:17Z</time>
      </trkpt>
      <trkpt lat="40.853763" lon="-3.953580">
        <ele>2369.774</ele>
        <time>2021-07-29T09:14:21Z</time>
      </trkpt>
      <trkpt lat="40.853747" lon="-3.953592">
        <ele>2369.656</ele>
        <time>2021-07-29T09:14:24Z</time>
      </trkpt>
      <trkpt lat="40.853728" lon="-3.953613">
        <ele>2369.583</ele>
        <time>2021-07-29T09:14:28Z</time>
      </trkpt>
      <trkpt lat="40.853709" lon="-3.953618">
        <ele>2369.560</ele>
        <time>2021-07-29T09:14:33Z</time>
      </trkpt>
      <trkpt lat="40.853690" lon="-3.953625">
        <ele>2369.441</ele>
        <time>2021-07-29T09:14:36Z</time>
      </trkpt>
      <trkpt lat="40.853677" lon="-3.953642">
        <ele>2369.261</ele>
        <time>2021-07-29T09:14:41Z</time>
      </trkpt>
      <trkpt lat="40.853654" lon="-3.953643">
        <ele>2369.344</ele>
        <time>2021-07-29T09:14:44Z</time>
      </trkpt>
      <trkpt lat="40.853638" lon="-3.953663">
        <ele>2369.173</ele>
        <time>2021-07-29T09:14:46Z</time>
      </trkpt>
      <trkpt lat="40.853626" lon="-3.953680">
        <ele>2368.975</ele>
        <time>2021-07-29T09:14:48Z</time>
      </trkpt>
      <trkpt lat="40.853610" lon="-3.953692">
        <ele>2368.828</ele>
        <time>2021-07-29T09:14:50Z</time>
      </trkpt>
      <trkpt lat="40.853590" lon="-3.953697">
        <ele>2368.920</ele>
        <time>2021-07-29T09:14:52Z</time>
      </trkpt>
      <trkpt lat="40.853578" lon="-3.953722">
        <ele>2368.608</ele>
        <time>2021-07-29T09:14:56Z</time>
      </trkpt>
      <trkpt lat="40.853558" lon="-3.953727">
        <ele>2368.764</ele>
        <time>2021-07-29T09:14:58Z</time>
      </trkpt>
      <trkpt lat="40.853536" lon="-3.953732">
        <ele>2368.726</ele>
        <time>2021-07-29T09:15:01Z</time>
      </trkpt>
      <trkpt lat="40.853517" lon="-3.953735">
        <ele>2368.873</ele>
        <time>2021-07-29T09:15:03Z</time>
      </trkpt>
      <trkpt lat="40.853498" lon="-3.953737">
        <ele>2368.970</ele>
        <time>2021-07-29T09:15:06Z</time>
      </trkpt>
      <trkpt lat="40.853478" lon="-3.953735">
        <ele>2369.171</ele>
        <time>2021-07-29T09:15:08Z</time>
      </trkpt>
      <trkpt lat="40.853459" lon="-3.953735">
        <ele>2369.261</ele>
        <time>2021-07-29T09:15:12Z</time>
      </trkpt>
      <trkpt lat="40.853440" lon="-3.953737">
        <ele>2369.384</ele>
        <time>2021-07-29T09:15:14Z</time>
      </trkpt>
      <trkpt lat="40.853418" lon="-3.953735">
        <ele>2369.593</ele>
        <time>2021-07-29T09:15:17Z</time>
      </trkpt>
      <trkpt lat="40.853402" lon="-3.953724">
        <ele>2369.688</ele>
        <time>2021-07-29T09:15:19Z</time>
      </trkpt>
      <trkpt lat="40.853379" lon="-3.953715">
        <ele>2369.824</ele>
        <time>2021-07-29T09:15:21Z</time>
      </trkpt>
      <trkpt lat="40.853360" lon="-3.953710">
        <ele>2369.926</ele>
        <time>2021-07-29T09:15:23Z</time>
      </trkpt>
      <trkpt lat="40.853341" lon="-3.953718">
        <ele>2370.008</ele>
        <time>2021-07-29T09:15:25Z</time>
      </trkpt>
      <trkpt lat="40.853325" lon="-3.953732">
        <ele>2370.095</ele>
        <time>2021-07-29T09:15:27Z</time>
      </trkpt>
      <trkpt lat="40.853312" lon="-3.953754">
        <ele>2369.987</ele>
        <time>2021-07-29T09:15:30Z</time>
      </trkpt>
      <trkpt lat="40.853302" lon="-3.953776">
        <ele>2370.084</ele>
        <time>2021-07-29T09:15:32Z</time>
      </trkpt>
      <trkpt lat="40.853286" lon="-3.953790">
        <ele>2370.041</ele>
        <time>2021-07-29T09:15:35Z</time>
      </trkpt>
      <trkpt lat="40.853270" lon="-3.953802">
        <ele>2370.172</ele>
        <time>2021-07-29T09:15:38Z</time>
      </trkpt>
      <trkpt lat="40.853264" lon="-3.953828">
        <ele>2370.352</ele>
        <time>2021-07-29T09:15:41Z</time>
      </trkpt>
      <trkpt lat="40.853251" lon="-3.953863">
        <ele>2370.735</ele>
        <time>2021-07-29T09:15:44Z</time>
      </trkpt>
      <trkpt lat="40.853242" lon="-3.953884">
        <ele>2370.994</ele>
        <time>2021-07-29T09:15:47Z</time>
      </trkpt>
      <trkpt lat="40.853226" lon="-3.953902">
        <ele>2371.189</ele>
        <time>2021-07-29T09:15:50Z</time>
      </trkpt>
      <trkpt lat="40.853210" lon="-3.953925">
        <ele>2371.306</ele>
        <time>2021-07-29T09:15:54Z</time>
      </trkpt>
      <trkpt lat="40.853194" lon="-3.953936">
        <ele>2371.526</ele>
        <time>2021-07-29T09:15:57Z</time>
      </trkpt>
      <trkpt lat="40.853171" lon="-3.953946">
        <ele>2371.908</ele>
        <time>2021-07-29T09:16:01Z</time>
      </trkpt>
      <trkpt lat="40.853152" lon="-3.953957">
        <ele>2372.255</ele>
        <time>2021-07-29T09:16:04Z</time>
      </trkpt>
      <trkpt lat="40.853133" lon="-3.953982">
        <ele>2372.687</ele>
        <time>2021-07-29T09:16:09Z</time>
      </trkpt>
      <trkpt lat="40.853123" lon="-3.954005">
        <ele>2372.974</ele>
        <time>2021-07-29T09:16:14Z</time>
      </trkpt>
      <trkpt lat="40.853104" lon="-3.954020">
        <ele>2373.421</ele>
        <time>2021-07-29T09:16:18Z</time>
      </trkpt>
      <trkpt lat="40.853078" lon="-3.954035">
        <ele>2374.152</ele>
        <time>2021-07-29T09:16:24Z</time>
      </trkpt>
      <trkpt lat="40.853059" lon="-3.954048">
        <ele>2374.692</ele>
        <time>2021-07-29T09:16:28Z</time>
      </trkpt>
      <trkpt lat="40.853043" lon="-3.954062">
        <ele>2374.925</ele>
        <time>2021-07-29T09:16:31Z</time>
      </trkpt>
      <trkpt lat="40.853027" lon="-3.954074">
        <ele>2375.244</ele>
        <time>2021-07-29T09:16:34Z</time>
      </trkpt>
      <trkpt lat="40.853008" lon="-3.954067">
        <ele>2375.219</ele>
        <time>2021-07-29T09:16:36Z</time>
      </trkpt>
      <trkpt lat="40.852989" lon="-3.954064">
        <ele>2375.209</ele>
        <time>2021-07-29T09:16:39Z</time>
      </trkpt>
      <trkpt lat="40.852970" lon="-3.954077">
        <ele>2375.619</ele>
        <time>2021-07-29T09:16:42Z</time>
      </trkpt>
      <trkpt lat="40.852954" lon="-3.954102">
        <ele>2376.208</ele>
        <time>2021-07-29T09:16:45Z</time>
      </trkpt>
      <trkpt lat="40.852947" lon="-3.954135">
        <ele>2376.968</ele>
        <time>2021-07-29T09:16:48Z</time>
      </trkpt>
      <trkpt lat="40.852944" lon="-3.954162">
        <ele>2377.540</ele>
        <time>2021-07-29T09:16:50Z</time>
      </trkpt>
      <trkpt lat="40.852931" lon="-3.954183">
        <ele>2377.687</ele>
        <time>2021-07-29T09:16:52Z</time>
      </trkpt>
      <trkpt lat="40.852915" lon="-3.954205">
        <ele>2377.524</ele>
        <time>2021-07-29T09:16:56Z</time>
      </trkpt>
      <trkpt lat="40.852899" lon="-3.954228">
        <ele>2377.635</ele>
        <time>2021-07-29T09:17:00Z</time>
      </trkpt>
      <trkpt lat="40.852886" lon="-3.954246">
        <ele>2377.695</ele>
        <time>2021-07-29T09:17:03Z</time>
      </trkpt>
      <trkpt lat="40.852867" lon="-3.954263">
        <ele>2377.838</ele>
        <time>2021-07-29T09:17:06Z</time>
      </trkpt>
      <trkpt lat="40.852851" lon="-3.954283">
        <ele>2378.097</ele>
        <time>2021-07-29T09:17:09Z</time>
      </trkpt>
      <trkpt lat="40.852832" lon="-3.954288">
        <ele>2378.436</ele>
        <time>2021-07-29T09:17:12Z</time>
      </trkpt>
      <trkpt lat="40.852813" lon="-3.954298">
        <ele>2378.717</ele>
        <time>2021-07-29T09:17:15Z</time>
      </trkpt>
      <trkpt lat="40.852790" lon="-3.954307">
        <ele>2379.218</ele>
        <time>2021-07-29T09:17:18Z</time>
      </trkpt>
      <trkpt lat="40.852771" lon="-3.954312">
        <ele>2379.608</ele>
        <time>2021-07-29T09:17:20Z</time>
      </trkpt>
      <trkpt lat="40.852746" lon="-3.954323">
        <ele>2379.850</ele>
        <time>2021-07-29T09:17:23Z</time>
      </trkpt>
      <trkpt lat="40.852726" lon="-3.954338">
        <ele>2380.022</ele>
        <time>2021-07-29T09:17:26Z</time>
      </trkpt>
      <trkpt lat="40.852707" lon="-3.954357">
        <ele>2380.349</ele>
        <time>2021-07-29T09:17:30Z</time>
      </trkpt>
      <trkpt lat="40.852685" lon="-3.954373">
        <ele>2380.686</ele>
        <time>2021-07-29T09:17:33Z</time>
      </trkpt>
      <trkpt lat="40.852662" lon="-3.954380">
        <ele>2380.987</ele>
        <time>2021-07-29T09:17:36Z</time>
      </trkpt>
      <trkpt lat="40.852643" lon="-3.954397">
        <ele>2381.387</ele>
        <time>2021-07-29T09:17:38Z</time>
      </trkpt>
      <trkpt lat="40.852627" lon="-3.954410">
        <ele>2381.630</ele>
        <time>2021-07-29T09:17:40Z</time>
      </trkpt>
      <trkpt lat="40.852611" lon="-3.954425">
        <ele>2381.919</ele>
        <time>2021-07-29T09:17:42Z</time>
      </trkpt>
      <trkpt lat="40.852592" lon="-3.954430">
        <ele>2382.373</ele>
        <time>2021-07-29T09:17:44Z</time>
      </trkpt>
      <trkpt lat="40.852573" lon="-3.954435">
        <ele>2382.685</ele>
        <time>2021-07-29T09:17:46Z</time>
      </trkpt>
      <trkpt lat="40.852550" lon="-3.954438">
        <ele>2383.013</ele>
        <time>2021-07-29T09:17:48Z</time>
      </trkpt>
      <trkpt lat="40.852531" lon="-3.954444">
        <ele>2383.408</ele>
        <time>2021-07-29T09:17:50Z</time>
      </trkpt>
      <trkpt lat="40.852512" lon="-3.954450">
        <ele>2383.854</ele>
        <time>2021-07-29T09:17:52Z</time>
      </trkpt>
      <trkpt lat="40.852493" lon="-3.954450">
        <ele>2384.166</ele>
        <time>2021-07-29T09:17:54Z</time>
      </trkpt>
      <trkpt lat="40.852470" lon="-3.954452">
        <ele>2384.573</ele>
        <time>2021-07-29T09:17:56Z</time>
      </trkpt>
      <trkpt lat="40.852438" lon="-3.954435">
        <ele>2384.820</ele>
        <time>2021-07-29T09:17:59Z</time>
      </trkpt>
      <trkpt lat="40.852413" lon="-3.954427">
        <ele>2385.071</ele>
        <time>2021-07-29T09:18:02Z</time>
      </trkpt>
      <trkpt lat="40.852390" lon="-3.954434">
        <ele>2385.471</ele>
        <time>2021-07-29T09:18:05Z</time>
      </trkpt>
      <trkpt lat="40.852365" lon="-3.954437">
        <ele>2385.894</ele>
        <time>2021-07-29T09:18:08Z</time>
      </trkpt>
      <trkpt lat="40.852339" lon="-3.954444">
        <ele>2386.393</ele>
        <time>2021-07-29T09:18:11Z</time>
      </trkpt>
      <trkpt lat="40.852314" lon="-3.954447">
        <ele>2386.714</ele>
        <time>2021-07-29T09:18:14Z</time>
      </trkpt>
      <trkpt lat="40.852294" lon="-3.954450">
        <ele>2387.054</ele>
        <time>2021-07-29T09:18:16Z</time>
      </trkpt>
      <trkpt lat="40.852275" lon="-3.954458">
        <ele>2387.409</ele>
        <time>2021-07-29T09:18:18Z</time>
      </trkpt>
      <trkpt lat="40.852256" lon="-3.954466">
        <ele>2387.808</ele>
        <time>2021-07-29T09:18:20Z</time>
      </trkpt>
      <trkpt lat="40.852234" lon="-3.954483">
        <ele>2388.478</ele>
        <time>2021-07-29T09:18:23Z</time>
      </trkpt>
      <trkpt lat="40.852214" lon="-3.954493">
        <ele>2388.990</ele>
        <time>2021-07-29T09:18:25Z</time>
      </trkpt>
      <trkpt lat="40.852195" lon="-3.954497">
        <ele>2389.367</ele>
        <time>2021-07-29T09:18:27Z</time>
      </trkpt>
      <trkpt lat="40.852176" lon="-3.954498">
        <ele>2389.674</ele>
        <time>2021-07-29T09:18:29Z</time>
      </trkpt>
      <trkpt lat="40.852157" lon="-3.954505">
        <ele>2390.195</ele>
        <time>2021-07-29T09:18:31Z</time>
      </trkpt>
      <trkpt lat="40.852138" lon="-3.954503">
        <ele>2390.445</ele>
        <time>2021-07-29T09:18:33Z</time>
      </trkpt>
      <trkpt lat="40.852112" lon="-3.954517">
        <ele>2391.128</ele>
        <time>2021-07-29T09:18:36Z</time>
      </trkpt>
      <trkpt lat="40.852086" lon="-3.954520">
        <ele>2391.777</ele>
        <time>2021-07-29T09:18:39Z</time>
      </trkpt>
      <trkpt lat="40.852067" lon="-3.954522">
        <ele>2392.121</ele>
        <time>2021-07-29T09:18:42Z</time>
      </trkpt>
      <trkpt lat="40.852048" lon="-3.954518">
        <ele>2392.441</ele>
        <time>2021-07-29T09:18:44Z</time>
      </trkpt>
      <trkpt lat="40.852029" lon="-3.954523">
        <ele>2392.805</ele>
        <time>2021-07-29T09:18:46Z</time>
      </trkpt>
      <trkpt lat="40.852010" lon="-3.954517">
        <ele>2393.108</ele>
        <time>2021-07-29T09:18:49Z</time>
      </trkpt>
      <trkpt lat="40.851987" lon="-3.954517">
        <ele>2393.539</ele>
        <time>2021-07-29T09:18:52Z</time>
      </trkpt>
      <trkpt lat="40.851622" lon="-3.954562">
        <ele>2401.241</ele>
        <time>2021-07-29T09:19:56Z</time>
      </trkpt>
      <trkpt lat="40.851341" lon="-3.954945">
        <ele>2412.228</ele>
        <time>2021-07-29T09:20:56Z</time>
      </trkpt>
      <trkpt lat="40.851002" lon="-3.955297">
        <ele>2416.235</ele>
        <time>2021-07-29T09:21:56Z</time>
      </trkpt>
      <trkpt lat="40.850918" lon="-3.955342">
        <ele>2413.546</ele>
        <time>2021-07-29T09:22:56Z</time>
      </trkpt>
      <trkpt lat="40.850608" lon="-3.955815">
        <ele>2416.016</ele>
        <time>2021-07-29T09:24:56Z</time>
      </trkpt>
      <trkpt lat="40.850166" lon="-3.955995">
        <ele>2420.039</ele>
        <time>2021-07-29T09:25:56Z</time>
      </trkpt>
      <trkpt lat="40.850070" lon="-3.956075">
        <ele>2420.048</ele>
        <time>2021-07-29T09:26:56Z</time>
      </trkpt>
      <trkpt lat="40.850074" lon="-3.956100">
        <ele>2420.052</ele>
        <time>2021-07-29T09:27:56Z</time>
      </trkpt>
      <trkpt lat="40.850016" lon="-3.955994">
        <ele>2420.053</ele>
        <time>2021-07-29T09:29:56Z</time>
      </trkpt>
      <trkpt lat="40.850051" lon="-3.956078">
        <ele>2420.008</ele>
        <time>2021-07-29T09:32:56Z</time>
      </trkpt>
      <trkpt lat="40.850125" lon="-3.955965">
        <ele>2420.008</ele>
        <time>2021-07-29T09:35:56Z</time>
      </trkpt>
      <trkpt lat="40.850090" lon="-3.956097">
        <ele>2420.092</ele>
        <time>2021-07-29T09:37:56Z</time>
      </trkpt>
      <trkpt lat="40.850013" lon="-3.956113">
        <ele>2420.074</ele>
        <time>2021-07-29T09:38:56Z</time>
      </trkpt>
      <trkpt lat="40.850035" lon="-3.956122">
        <ele>2420.041</ele>
        <time>2021-07-29T09:40:56Z</time>
      </trkpt>
      <trkpt lat="40.850093" lon="-3.956087">
        <ele>2420.058</ele>
        <time>2021-07-29T09:41:56Z</time>
      </trkpt>
      <trkpt lat="40.849930" lon="-3.956242">
        <ele>2419.699</ele>
        <time>2021-07-29T09:43:56Z</time>
      </trkpt>
      <trkpt lat="40.849584" lon="-3.956625">
        <ele>2414.399</ele>
        <time>2021-07-29T09:44:56Z</time>
      </trkpt>
      <trkpt lat="40.849293" lon="-3.956884">
        <ele>2410.082</ele>
        <time>2021-07-29T09:45:46Z</time>
      </trkpt>
      <trkpt lat="40.849277" lon="-3.956895">
        <ele>2409.981</ele>
        <time>2021-07-29T09:45:47Z</time>
      </trkpt>
      <trkpt lat="40.849242" lon="-3.956965">
        <ele>2409.026</ele>
        <time>2021-07-29T09:45:48Z</time>
      </trkpt>
      <trkpt lat="40.849238" lon="-3.956995">
        <ele>2408.647</ele>
        <time>2021-07-29T09:45:49Z</time>
      </trkpt>
      <trkpt lat="40.849213" lon="-3.957012">
        <ele>2408.211</ele>
        <time>2021-07-29T09:45:53Z</time>
      </trkpt>
      <trkpt lat="40.849190" lon="-3.957017">
        <ele>2408.108</ele>
        <time>2021-07-29T09:45:56Z</time>
      </trkpt>
      <trkpt lat="40.849174" lon="-3.957002">
        <ele>2408.279</ele>
        <time>2021-07-29T09:45:58Z</time>
      </trkpt>
      <trkpt lat="40.849155" lon="-3.956980">
        <ele>2408.351</ele>
        <time>2021-07-29T09:46:00Z</time>
      </trkpt>
      <trkpt lat="40.849133" lon="-3.956972">
        <ele>2408.148</ele>
        <time>2021-07-29T09:46:02Z</time>
      </trkpt>
      <trkpt lat="40.849114" lon="-3.956980">
        <ele>2407.735</ele>
        <time>2021-07-29T09:46:04Z</time>
      </trkpt>
      <trkpt lat="40.849094" lon="-3.956995">
        <ele>2407.276</ele>
        <time>2021-07-29T09:46:06Z</time>
      </trkpt>
      <trkpt lat="40.849075" lon="-3.957013">
        <ele>2406.736</ele>
        <time>2021-07-29T09:46:08Z</time>
      </trkpt>
      <trkpt lat="40.849059" lon="-3.957030">
        <ele>2406.229</ele>
        <time>2021-07-29T09:46:10Z</time>
      </trkpt>
      <trkpt lat="40.849043" lon="-3.957042">
        <ele>2405.858</ele>
        <time>2021-07-29T09:46:12Z</time>
      </trkpt>
      <trkpt lat="40.849027" lon="-3.957053">
        <ele>2405.426</ele>
        <time>2021-07-29T09:46:14Z</time>
      </trkpt>
      <trkpt lat="40.849008" lon="-3.957060">
        <ele>2405.147</ele>
        <time>2021-07-29T09:46:16Z</time>
      </trkpt>
      <trkpt lat="40.848979" lon="-3.957063">
        <ele>2404.611</ele>
        <time>2021-07-29T09:46:19Z</time>
      </trkpt>
      <trkpt lat="40.848960" lon="-3.957070">
        <ele>2404.208</ele>
        <time>2021-07-29T09:46:21Z</time>
      </trkpt>
      <trkpt lat="40.848941" lon="-3.957083">
        <ele>2403.889</ele>
        <time>2021-07-29T09:46:24Z</time>
      </trkpt>
      <trkpt lat="40.848928" lon="-3.957102">
        <ele>2403.371</ele>
        <time>2021-07-29T09:46:26Z</time>
      </trkpt>
      <trkpt lat="40.848909" lon="-3.957110">
        <ele>2402.968</ele>
        <time>2021-07-29T09:46:28Z</time>
      </trkpt>
      <trkpt lat="40.848890" lon="-3.957110">
        <ele>2402.635</ele>
        <time>2021-07-29T09:46:30Z</time>
      </trkpt>
      <trkpt lat="40.848870" lon="-3.957118">
        <ele>2402.266</ele>
        <time>2021-07-29T09:46:32Z</time>
      </trkpt>
      <trkpt lat="40.848851" lon="-3.957127">
        <ele>2401.996</ele>
        <time>2021-07-29T09:46:34Z</time>
      </trkpt>
      <trkpt lat="40.848832" lon="-3.957138">
        <ele>2401.589</ele>
        <time>2021-07-29T09:46:36Z</time>
      </trkpt>
      <trkpt lat="40.848816" lon="-3.957150">
        <ele>2401.198</ele>
        <time>2021-07-29T09:46:38Z</time>
      </trkpt>
      <trkpt lat="40.848797" lon="-3.957160">
        <ele>2400.897</ele>
        <time>2021-07-29T09:46:40Z</time>
      </trkpt>
      <trkpt lat="40.848781" lon="-3.957172">
        <ele>2400.423</ele>
        <time>2021-07-29T09:46:42Z</time>
      </trkpt>
      <trkpt lat="40.848765" lon="-3.957183">
        <ele>2400.125</ele>
        <time>2021-07-29T09:46:44Z</time>
      </trkpt>
      <trkpt lat="40.848752" lon="-3.957205">
        <ele>2399.708</ele>
        <time>2021-07-29T09:46:47Z</time>
      </trkpt>
      <trkpt lat="40.848736" lon="-3.957227">
        <ele>2399.396</ele>
        <time>2021-07-29T09:46:49Z</time>
      </trkpt>
      <trkpt lat="40.848720" lon="-3.957238">
        <ele>2398.998</ele>
        <time>2021-07-29T09:46:51Z</time>
      </trkpt>
      <trkpt lat="40.848701" lon="-3.957257">
        <ele>2398.415</ele>
        <time>2021-07-29T09:46:53Z</time>
      </trkpt>
      <trkpt lat="40.848682" lon="-3.957278">
        <ele>2397.982</ele>
        <time>2021-07-29T09:46:56Z</time>
      </trkpt>
      <trkpt lat="40.848662" lon="-3.957302">
        <ele>2397.373</ele>
        <time>2021-07-29T09:46:58Z</time>
      </trkpt>
      <trkpt lat="40.848653" lon="-3.957338">
        <ele>2396.753</ele>
        <time>2021-07-29T09:47:01Z</time>
      </trkpt>
      <trkpt lat="40.848650" lon="-3.957368">
        <ele>2396.256</ele>
        <time>2021-07-29T09:47:03Z</time>
      </trkpt>
      <trkpt lat="40.848637" lon="-3.957388">
        <ele>2395.865</ele>
        <time>2021-07-29T09:47:05Z</time>
      </trkpt>
      <trkpt lat="40.848621" lon="-3.957406">
        <ele>2395.489</ele>
        <time>2021-07-29T09:47:07Z</time>
      </trkpt>
      <trkpt lat="40.848605" lon="-3.957425">
        <ele>2395.006</ele>
        <time>2021-07-29T09:47:09Z</time>
      </trkpt>
      <trkpt lat="40.848595" lon="-3.957448">
        <ele>2394.526</ele>
        <time>2021-07-29T09:47:11Z</time>
      </trkpt>
      <trkpt lat="40.848579" lon="-3.957470">
        <ele>2394.008</ele>
        <time>2021-07-29T09:47:13Z</time>
      </trkpt>
      <trkpt lat="40.848563" lon="-3.957488">
        <ele>2393.565</ele>
        <time>2021-07-29T09:47:16Z</time>
      </trkpt>
      <trkpt lat="40.848544" lon="-3.957495">
        <ele>2393.147</ele>
        <time>2021-07-29T09:47:19Z</time>
      </trkpt>
      <trkpt lat="40.848525" lon="-3.957518">
        <ele>2392.534</ele>
        <time>2021-07-29T09:47:22Z</time>
      </trkpt>
      <trkpt lat="40.848502" lon="-3.957543">
        <ele>2391.741</ele>
        <time>2021-07-29T09:47:25Z</time>
      </trkpt>
      <trkpt lat="40.848480" lon="-3.957562">
        <ele>2391.152</ele>
        <time>2021-07-29T09:47:28Z</time>
      </trkpt>
      <trkpt lat="40.848464" lon="-3.957575">
        <ele>2390.752</ele>
        <time>2021-07-29T09:47:30Z</time>
      </trkpt>
      <trkpt lat="40.848442" lon="-3.957584">
        <ele>2390.245</ele>
        <time>2021-07-29T09:47:32Z</time>
      </trkpt>
      <trkpt lat="40.848422" lon="-3.957590">
        <ele>2389.884</ele>
        <time>2021-07-29T09:47:34Z</time>
      </trkpt>
      <trkpt lat="40.848400" lon="-3.957585">
        <ele>2389.529</ele>
        <time>2021-07-29T09:47:36Z</time>
      </trkpt>
      <trkpt lat="40.848374" lon="-3.957574">
        <ele>2389.300</ele>
        <time>2021-07-29T09:47:39Z</time>
      </trkpt>
      <trkpt lat="40.848355" lon="-3.957577">
        <ele>2388.920</ele>
        <time>2021-07-29T09:47:41Z</time>
      </trkpt>
      <trkpt lat="40.848336" lon="-3.957594">
        <ele>2388.308</ele>
        <time>2021-07-29T09:47:44Z</time>
      </trkpt>
      <trkpt lat="40.848314" lon="-3.957604">
        <ele>2387.719</ele>
        <time>2021-07-29T09:47:46Z</time>
      </trkpt>
      <trkpt lat="40.848298" lon="-3.957617">
        <ele>2387.281</ele>
        <time>2021-07-29T09:47:48Z</time>
      </trkpt>
      <trkpt lat="40.848278" lon="-3.957626">
        <ele>2386.648</ele>
        <time>2021-07-29T09:47:50Z</time>
      </trkpt>
      <trkpt lat="40.848262" lon="-3.957640">
        <ele>2386.135</ele>
        <time>2021-07-29T09:47:52Z</time>
      </trkpt>
      <trkpt lat="40.848253" lon="-3.957670">
        <ele>2385.456</ele>
        <time>2021-07-29T09:47:55Z</time>
      </trkpt>
      <trkpt lat="40.848240" lon="-3.957690">
        <ele>2384.836</ele>
        <time>2021-07-29T09:47:57Z</time>
      </trkpt>
      <trkpt lat="40.848227" lon="-3.957710">
        <ele>2384.299</ele>
        <time>2021-07-29T09:47:59Z</time>
      </trkpt>
      <trkpt lat="40.848218" lon="-3.957738">
        <ele>2383.668</ele>
        <time>2021-07-29T09:48:02Z</time>
      </trkpt>
      <trkpt lat="40.848202" lon="-3.957760">
        <ele>2382.965</ele>
        <time>2021-07-29T09:48:04Z</time>
      </trkpt>
      <trkpt lat="40.848179" lon="-3.957768">
        <ele>2382.468</ele>
        <time>2021-07-29T09:48:08Z</time>
      </trkpt>
      <trkpt lat="40.848163" lon="-3.957786">
        <ele>2381.814</ele>
        <time>2021-07-29T09:48:11Z</time>
      </trkpt>
      <trkpt lat="40.848138" lon="-3.957796">
        <ele>2381.208</ele>
        <time>2021-07-29T09:48:14Z</time>
      </trkpt>
      <trkpt lat="40.848115" lon="-3.957793">
        <ele>2380.823</ele>
        <time>2021-07-29T09:48:16Z</time>
      </trkpt>
      <trkpt lat="40.848096" lon="-3.957790">
        <ele>2380.575</ele>
        <time>2021-07-29T09:48:18Z</time>
      </trkpt>
      <trkpt lat="40.848080" lon="-3.957803">
        <ele>2380.132</ele>
        <time>2021-07-29T09:48:21Z</time>
      </trkpt>
      <trkpt lat="40.848061" lon="-3.957810">
        <ele>2379.619</ele>
        <time>2021-07-29T09:48:24Z</time>
      </trkpt>
      <trkpt lat="40.848042" lon="-3.957817">
        <ele>2379.320</ele>
        <time>2021-07-29T09:48:26Z</time>
      </trkpt>
      <trkpt lat="40.848016" lon="-3.957825">
        <ele>2378.820</ele>
        <time>2021-07-29T09:48:29Z</time>
      </trkpt>
      <trkpt lat="40.847997" lon="-3.957845">
        <ele>2378.313</ele>
        <time>2021-07-29T09:48:32Z</time>
      </trkpt>
      <trkpt lat="40.847978" lon="-3.957867">
        <ele>2377.882</ele>
        <time>2021-07-29T09:48:35Z</time>
      </trkpt>
      <trkpt lat="40.847962" lon="-3.957890">
        <ele>2377.386</ele>
        <time>2021-07-29T09:48:38Z</time>
      </trkpt>
      <trkpt lat="40.847942" lon="-3.957898">
        <ele>2377.060</ele>
        <time>2021-07-29T09:48:41Z</time>
      </trkpt>
      <trkpt lat="40.847923" lon="-3.957912">
        <ele>2376.626</ele>
        <time>2021-07-29T09:48:44Z</time>
      </trkpt>
      <trkpt lat="40.847907" lon="-3.957935">
        <ele>2376.208</ele>
        <time>2021-07-29T09:48:46Z</time>
      </trkpt>
      <trkpt lat="40.847888" lon="-3.957952">
        <ele>2375.865</ele>
        <time>2021-07-29T09:48:49Z</time>
      </trkpt>
      <trkpt lat="40.847862" lon="-3.957970">
        <ele>2375.447</ele>
        <time>2021-07-29T09:48:52Z</time>
      </trkpt>
      <trkpt lat="40.847843" lon="-3.957982">
        <ele>2375.174</ele>
        <time>2021-07-29T09:48:55Z</time>
      </trkpt>
      <trkpt lat="40.847824" lon="-3.957995">
        <ele>2374.891</ele>
        <time>2021-07-29T09:48:58Z</time>
      </trkpt>
      <trkpt lat="40.847805" lon="-3.958012">
        <ele>2374.512</ele>
        <time>2021-07-29T09:49:01Z</time>
      </trkpt>
      <trkpt lat="40.847786" lon="-3.958018">
        <ele>2374.332</ele>
        <time>2021-07-29T09:49:04Z</time>
      </trkpt>
      <trkpt lat="40.847766" lon="-3.958033">
        <ele>2373.925</ele>
        <time>2021-07-29T09:49:07Z</time>
      </trkpt>
      <trkpt lat="40.847750" lon="-3.958053">
        <ele>2373.484</ele>
        <time>2021-07-29T09:49:10Z</time>
      </trkpt>
      <trkpt lat="40.847731" lon="-3.958065">
        <ele>2372.928</ele>
        <time>2021-07-29T09:49:18Z</time>
      </trkpt>
      <trkpt lat="40.847712" lon="-3.958072">
        <ele>2372.489</ele>
        <time>2021-07-29T09:49:25Z</time>
      </trkpt>
      <trkpt lat="40.847693" lon="-3.958102">
        <ele>2371.717</ele>
        <time>2021-07-29T09:49:29Z</time>
      </trkpt>
      <trkpt lat="40.847680" lon="-3.958132">
        <ele>2371.108</ele>
        <time>2021-07-29T09:49:32Z</time>
      </trkpt>
      <trkpt lat="40.847661" lon="-3.958148">
        <ele>2370.569</ele>
        <time>2021-07-29T09:49:35Z</time>
      </trkpt>
      <trkpt lat="40.847632" lon="-3.958166">
        <ele>2369.771</ele>
        <time>2021-07-29T09:49:38Z</time>
      </trkpt>
      <trkpt lat="40.847619" lon="-3.958183">
        <ele>2369.238</ele>
        <time>2021-07-29T09:49:41Z</time>
      </trkpt>
      <trkpt lat="40.847590" lon="-3.958202">
        <ele>2368.425</ele>
        <time>2021-07-29T09:49:43Z</time>
      </trkpt>
      <trkpt lat="40.847568" lon="-3.958207">
        <ele>2367.896</ele>
        <time>2021-07-29T09:49:45Z</time>
      </trkpt>
      <trkpt lat="40.847546" lon="-3.958215">
        <ele>2367.336</ele>
        <time>2021-07-29T09:49:47Z</time>
      </trkpt>
      <trkpt lat="40.847530" lon="-3.958238">
        <ele>2366.799</ele>
        <time>2021-07-29T09:49:49Z</time>
      </trkpt>
      <trkpt lat="40.847523" lon="-3.958262">
        <ele>2366.338</ele>
        <time>2021-07-29T09:49:51Z</time>
      </trkpt>
      <trkpt lat="40.847514" lon="-3.958290">
        <ele>2365.897</ele>
        <time>2021-07-29T09:49:53Z</time>
      </trkpt>
      <trkpt lat="40.847504" lon="-3.958315">
        <ele>2365.323</ele>
        <time>2021-07-29T09:49:56Z</time>
      </trkpt>
      <trkpt lat="40.847488" lon="-3.958330">
        <ele>2364.825</ele>
        <time>2021-07-29T09:49:58Z</time>
      </trkpt>
      <trkpt lat="40.847482" lon="-3.958357">
        <ele>2364.408</ele>
        <time>2021-07-29T09:50:01Z</time>
      </trkpt>
      <trkpt lat="40.847485" lon="-3.958387">
        <ele>2364.216</ele>
        <time>2021-07-29T09:50:04Z</time>
      </trkpt>
      <trkpt lat="40.847469" lon="-3.958417">
        <ele>2363.588</ele>
        <time>2021-07-29T09:50:07Z</time>
      </trkpt>
      <trkpt lat="40.847453" lon="-3.958428">
        <ele>2363.125</ele>
        <time>2021-07-29T09:50:09Z</time>
      </trkpt>
      <trkpt lat="40.847434" lon="-3.958437">
        <ele>2362.752</ele>
        <time>2021-07-29T09:50:11Z</time>
      </trkpt>
      <trkpt lat="40.847408" lon="-3.958440">
        <ele>2362.213</ele>
        <time>2021-07-29T09:50:13Z</time>
      </trkpt>
      <trkpt lat="40.847389" lon="-3.958448">
        <ele>2361.843</ele>
        <time>2021-07-29T09:50:14Z</time>
      </trkpt>
      <trkpt lat="40.847370" lon="-3.958462">
        <ele>2361.336</ele>
        <time>2021-07-29T09:50:16Z</time>
      </trkpt>
      <trkpt lat="40.847354" lon="-3.958486">
        <ele>2360.755</ele>
        <time>2021-07-29T09:50:18Z</time>
      </trkpt>
      <trkpt lat="40.847334" lon="-3.958503">
        <ele>2360.214</ele>
        <time>2021-07-29T09:50:21Z</time>
      </trkpt>
      <trkpt lat="40.847315" lon="-3.958513">
        <ele>2359.754</ele>
        <time>2021-07-29T09:50:23Z</time>
      </trkpt>
      <trkpt lat="40.847293" lon="-3.958513">
        <ele>2359.309</ele>
        <time>2021-07-29T09:50:25Z</time>
      </trkpt>
      <trkpt lat="40.847274" lon="-3.958525">
        <ele>2358.908</ele>
        <time>2021-07-29T09:50:28Z</time>
      </trkpt>
      <trkpt lat="40.847251" lon="-3.958532">
        <ele>2358.498</ele>
        <time>2021-07-29T09:50:30Z</time>
      </trkpt>
      <trkpt lat="40.847235" lon="-3.958553">
        <ele>2357.990</ele>
        <time>2021-07-29T09:50:34Z</time>
      </trkpt>
      <trkpt lat="40.847213" lon="-3.958563">
        <ele>2357.387</ele>
        <time>2021-07-29T09:50:37Z</time>
      </trkpt>
      <trkpt lat="40.847190" lon="-3.958583">
        <ele>2356.584</ele>
        <time>2021-07-29T09:50:41Z</time>
      </trkpt>
      <trkpt lat="40.847174" lon="-3.958608">
        <ele>2355.825</ele>
        <time>2021-07-29T09:50:44Z</time>
      </trkpt>
      <trkpt lat="40.847168" lon="-3.958632">
        <ele>2355.345</ele>
        <time>2021-07-29T09:50:47Z</time>
      </trkpt>
      <trkpt lat="40.847155" lon="-3.958648">
        <ele>2354.718</ele>
        <time>2021-07-29T09:50:50Z</time>
      </trkpt>
      <trkpt lat="40.847133" lon="-3.958665">
        <ele>2353.997</ele>
        <time>2021-07-29T09:50:54Z</time>
      </trkpt>
      <trkpt lat="40.847110" lon="-3.958675">
        <ele>2353.221</ele>
        <time>2021-07-29T09:50:57Z</time>
      </trkpt>
      <trkpt lat="40.847094" lon="-3.958692">
        <ele>2352.641</ele>
        <time>2021-07-29T09:51:00Z</time>
      </trkpt>
      <trkpt lat="40.847075" lon="-3.958720">
        <ele>2351.705</ele>
        <time>2021-07-29T09:51:04Z</time>
      </trkpt>
      <trkpt lat="40.847053" lon="-3.958733">
        <ele>2351.108</ele>
        <time>2021-07-29T09:51:07Z</time>
      </trkpt>
      <trkpt lat="40.847027" lon="-3.958745">
        <ele>2350.399</ele>
        <time>2021-07-29T09:51:10Z</time>
      </trkpt>
      <trkpt lat="40.847011" lon="-3.958760">
        <ele>2349.841</ele>
        <time>2021-07-29T09:51:12Z</time>
      </trkpt>
      <trkpt lat="40.846989" lon="-3.958768">
        <ele>2349.288</ele>
        <time>2021-07-29T09:51:14Z</time>
      </trkpt>
      <trkpt lat="40.846970" lon="-3.958782">
        <ele>2348.765</ele>
        <time>2021-07-29T09:51:17Z</time>
      </trkpt>
      <trkpt lat="40.846947" lon="-3.958778">
        <ele>2348.376</ele>
        <time>2021-07-29T09:51:20Z</time>
      </trkpt>
      <trkpt lat="40.846922" lon="-3.958788">
        <ele>2347.836</ele>
        <time>2021-07-29T09:51:23Z</time>
      </trkpt>
      <trkpt lat="40.846902" lon="-3.958795">
        <ele>2347.429</ele>
        <time>2021-07-29T09:51:26Z</time>
      </trkpt>
      <trkpt lat="40.846886" lon="-3.958807">
        <ele>2347.078</ele>
        <time>2021-07-29T09:51:28Z</time>
      </trkpt>
      <trkpt lat="40.846870" lon="-3.958820">
        <ele>2346.733</ele>
        <time>2021-07-29T09:51:30Z</time>
      </trkpt>
      <trkpt lat="40.846854" lon="-3.958835">
        <ele>2346.323</ele>
        <time>2021-07-29T09:51:33Z</time>
      </trkpt>
      <trkpt lat="40.846845" lon="-3.958858">
        <ele>2345.915</ele>
        <time>2021-07-29T09:51:36Z</time>
      </trkpt>
      <trkpt lat="40.846816" lon="-3.958865">
        <ele>2345.408</ele>
        <time>2021-07-29T09:51:39Z</time>
      </trkpt>
      <trkpt lat="40.846797" lon="-3.958878">
        <ele>2345.050</ele>
        <time>2021-07-29T09:51:42Z</time>
      </trkpt>
      <trkpt lat="40.846778" lon="-3.958898">
        <ele>2344.562</ele>
        <time>2021-07-29T09:51:45Z</time>
      </trkpt>
      <trkpt lat="40.846755" lon="-3.958915">
        <ele>2344.129</ele>
        <time>2021-07-29T09:51:48Z</time>
      </trkpt>
      <trkpt lat="40.846739" lon="-3.958927">
        <ele>2343.756</ele>
        <time>2021-07-29T09:51:50Z</time>
      </trkpt>
      <trkpt lat="40.846723" lon="-3.958938">
        <ele>2343.417</ele>
        <time>2021-07-29T09:51:52Z</time>
      </trkpt>
      <trkpt lat="40.846704" lon="-3.958953">
        <ele>2343.097</ele>
        <time>2021-07-29T09:51:54Z</time>
      </trkpt>
      <trkpt lat="40.846685" lon="-3.958970">
        <ele>2342.760</ele>
        <time>2021-07-29T09:51:56Z</time>
      </trkpt>
      <trkpt lat="40.846669" lon="-3.958992">
        <ele>2342.369</ele>
        <time>2021-07-29T09:51:58Z</time>
      </trkpt>
      <trkpt lat="40.846653" lon="-3.959007">
        <ele>2342.041</ele>
        <time>2021-07-29T09:52:00Z</time>
      </trkpt>
      <trkpt lat="40.846630" lon="-3.959025">
        <ele>2341.681</ele>
        <time>2021-07-29T09:52:03Z</time>
      </trkpt>
      <trkpt lat="40.846614" lon="-3.959042">
        <ele>2341.309</ele>
        <time>2021-07-29T09:52:05Z</time>
      </trkpt>
      <trkpt lat="40.846592" lon="-3.959055">
        <ele>2341.008</ele>
        <time>2021-07-29T09:52:07Z</time>
      </trkpt>
      <trkpt lat="40.846573" lon="-3.959068">
        <ele>2340.781</ele>
        <time>2021-07-29T09:52:09Z</time>
      </trkpt>
      <trkpt lat="40.846554" lon="-3.959082">
        <ele>2340.433</ele>
        <time>2021-07-29T09:52:11Z</time>
      </trkpt>
      <trkpt lat="40.846541" lon="-3.959098">
        <ele>2340.170</ele>
        <time>2021-07-29T09:52:13Z</time>
      </trkpt>
      <trkpt lat="40.846525" lon="-3.959120">
        <ele>2339.837</ele>
        <time>2021-07-29T09:52:16Z</time>
      </trkpt>
      <trkpt lat="40.846506" lon="-3.959132">
        <ele>2339.548</ele>
        <time>2021-07-29T09:52:18Z</time>
      </trkpt>
      <trkpt lat="40.846490" lon="-3.959155">
        <ele>2339.278</ele>
        <time>2021-07-29T09:52:21Z</time>
      </trkpt>
      <trkpt lat="40.846467" lon="-3.959168">
        <ele>2338.841</ele>
        <time>2021-07-29T09:52:23Z</time>
      </trkpt>
      <trkpt lat="40.846442" lon="-3.959188">
        <ele>2338.330</ele>
        <time>2021-07-29T09:52:25Z</time>
      </trkpt>
      <trkpt lat="40.846426" lon="-3.959205">
        <ele>2338.071</ele>
        <time>2021-07-29T09:52:27Z</time>
      </trkpt>
      <trkpt lat="40.846406" lon="-3.959225">
        <ele>2337.641</ele>
        <time>2021-07-29T09:52:29Z</time>
      </trkpt>
      <trkpt lat="40.846394" lon="-3.959243">
        <ele>2337.215</ele>
        <time>2021-07-29T09:52:31Z</time>
      </trkpt>
      <trkpt lat="40.846378" lon="-3.959260">
        <ele>2336.808</ele>
        <time>2021-07-29T09:52:33Z</time>
      </trkpt>
      <trkpt lat="40.846355" lon="-3.959273">
        <ele>2336.474</ele>
        <time>2021-07-29T09:52:35Z</time>
      </trkpt>
      <trkpt lat="40.846333" lon="-3.959282">
        <ele>2336.056</ele>
        <time>2021-07-29T09:52:37Z</time>
      </trkpt>
      <trkpt lat="40.846314" lon="-3.959297">
        <ele>2335.673</ele>
        <time>2021-07-29T09:52:39Z</time>
      </trkpt>
      <trkpt lat="40.846298" lon="-3.959308">
        <ele>2335.390</ele>
        <time>2021-07-29T09:52:41Z</time>
      </trkpt>
      <trkpt lat="40.846275" lon="-3.959324">
        <ele>2334.911</ele>
        <time>2021-07-29T09:52:44Z</time>
      </trkpt>
      <trkpt lat="40.846256" lon="-3.959338">
        <ele>2334.551</ele>
        <time>2021-07-29T09:52:46Z</time>
      </trkpt>
      <trkpt lat="40.846237" lon="-3.959348">
        <ele>2334.244</ele>
        <time>2021-07-29T09:52:48Z</time>
      </trkpt>
      <trkpt lat="40.846211" lon="-3.959362">
        <ele>2333.883</ele>
        <time>2021-07-29T09:52:50Z</time>
      </trkpt>
      <trkpt lat="40.846192" lon="-3.959380">
        <ele>2333.431</ele>
        <time>2021-07-29T09:52:52Z</time>
      </trkpt>
      <trkpt lat="40.846173" lon="-3.959400">
        <ele>2333.061</ele>
        <time>2021-07-29T09:52:54Z</time>
      </trkpt>
      <trkpt lat="40.846154" lon="-3.959425">
        <ele>2332.607</ele>
        <time>2021-07-29T09:52:56Z</time>
      </trkpt>
      <trkpt lat="40.846131" lon="-3.959448">
        <ele>2332.208</ele>
        <time>2021-07-29T09:52:58Z</time>
      </trkpt>
      <trkpt lat="40.846115" lon="-3.959468">
        <ele>2332.010</ele>
        <time>2021-07-29T09:53:00Z</time>
      </trkpt>
      <trkpt lat="40.846099" lon="-3.959482">
        <ele>2331.882</ele>
        <time>2021-07-29T09:53:02Z</time>
      </trkpt>
      <trkpt lat="40.846080" lon="-3.959502">
        <ele>2331.639</ele>
        <time>2021-07-29T09:53:04Z</time>
      </trkpt>
      <trkpt lat="40.846061" lon="-3.959522">
        <ele>2331.436</ele>
        <time>2021-07-29T09:53:06Z</time>
      </trkpt>
      <trkpt lat="40.846048" lon="-3.959542">
        <ele>2331.247</ele>
        <time>2021-07-29T09:53:08Z</time>
      </trkpt>
      <trkpt lat="40.846032" lon="-3.959558">
        <ele>2331.067</ele>
        <time>2021-07-29T09:53:10Z</time>
      </trkpt>
      <trkpt lat="40.846013" lon="-3.959578">
        <ele>2330.820</ele>
        <time>2021-07-29T09:53:12Z</time>
      </trkpt>
      <trkpt lat="40.845990" lon="-3.959590">
        <ele>2330.619</ele>
        <time>2021-07-29T09:53:14Z</time>
      </trkpt>
      <trkpt lat="40.845971" lon="-3.959597">
        <ele>2330.471</ele>
        <time>2021-07-29T09:53:16Z</time>
      </trkpt>
      <trkpt lat="40.845955" lon="-3.959612">
        <ele>2330.341</ele>
        <time>2021-07-29T09:53:19Z</time>
      </trkpt>
      <trkpt lat="40.845933" lon="-3.959622">
        <ele>2330.115</ele>
        <time>2021-07-29T09:53:21Z</time>
      </trkpt>
      <trkpt lat="40.845910" lon="-3.959627">
        <ele>2329.908</ele>
        <time>2021-07-29T09:53:23Z</time>
      </trkpt>
      <trkpt lat="40.845885" lon="-3.959645">
        <ele>2329.714</ele>
        <time>2021-07-29T09:53:26Z</time>
      </trkpt>
      <trkpt lat="40.845866" lon="-3.959658">
        <ele>2329.526</ele>
        <time>2021-07-29T09:53:28Z</time>
      </trkpt>
      <trkpt lat="40.845850" lon="-3.959672">
        <ele>2329.353</ele>
        <time>2021-07-29T09:53:30Z</time>
      </trkpt>
      <trkpt lat="40.845830" lon="-3.959685">
        <ele>2329.130</ele>
        <time>2021-07-29T09:53:32Z</time>
      </trkpt>
      <trkpt lat="40.845814" lon="-3.959698">
        <ele>2328.891</ele>
        <time>2021-07-29T09:53:34Z</time>
      </trkpt>
      <trkpt lat="40.845795" lon="-3.959710">
        <ele>2328.541</ele>
        <time>2021-07-29T09:53:36Z</time>
      </trkpt>
      <trkpt lat="40.845773" lon="-3.959728">
        <ele>2328.194</ele>
        <time>2021-07-29T09:53:38Z</time>
      </trkpt>
      <trkpt lat="40.845754" lon="-3.959740">
        <ele>2327.783</ele>
        <time>2021-07-29T09:53:40Z</time>
      </trkpt>
      <trkpt lat="40.845738" lon="-3.959755">
        <ele>2327.386</ele>
        <time>2021-07-29T09:53:42Z</time>
      </trkpt>
      <trkpt lat="40.845722" lon="-3.959770">
        <ele>2326.960</ele>
        <time>2021-07-29T09:53:44Z</time>
      </trkpt>
      <trkpt lat="40.845702" lon="-3.959792">
        <ele>2326.426</ele>
        <time>2021-07-29T09:53:47Z</time>
      </trkpt>
      <trkpt lat="40.845683" lon="-3.959807">
        <ele>2325.908</ele>
        <time>2021-07-29T09:53:49Z</time>
      </trkpt>
      <trkpt lat="40.845664" lon="-3.959817">
        <ele>2325.535</ele>
        <time>2021-07-29T09:53:51Z</time>
      </trkpt>
      <trkpt lat="40.845645" lon="-3.959840">
        <ele>2325.057</ele>
        <time>2021-07-29T09:53:54Z</time>
      </trkpt>
      <trkpt lat="40.845626" lon="-3.959850">
        <ele>2324.674</ele>
        <time>2021-07-29T09:53:56Z</time>
      </trkpt>
      <trkpt lat="40.845613" lon="-3.959870">
        <ele>2324.271</ele>
        <time>2021-07-29T09:53:59Z</time>
      </trkpt>
      <trkpt lat="40.845600" lon="-3.959892">
        <ele>2323.822</ele>
        <time>2021-07-29T09:54:01Z</time>
      </trkpt>
      <trkpt lat="40.845587" lon="-3.959910">
        <ele>2323.492</ele>
        <time>2021-07-29T09:54:03Z</time>
      </trkpt>
      <trkpt lat="40.845578" lon="-3.959938">
        <ele>2323.075</ele>
        <time>2021-07-29T09:54:06Z</time>
      </trkpt>
      <trkpt lat="40.845562" lon="-3.959970">
        <ele>2322.434</ele>
        <time>2021-07-29T09:54:09Z</time>
      </trkpt>
      <trkpt lat="40.845546" lon="-3.959995">
        <ele>2321.968</ele>
        <time>2021-07-29T09:54:15Z</time>
      </trkpt>
      <trkpt lat="40.845536" lon="-3.960018">
        <ele>2321.642</ele>
        <time>2021-07-29T09:54:18Z</time>
      </trkpt>
      <trkpt lat="40.845520" lon="-3.960038">
        <ele>2321.226</ele>
        <time>2021-07-29T09:54:21Z</time>
      </trkpt>
      <trkpt lat="40.845507" lon="-3.960062">
        <ele>2320.908</ele>
        <time>2021-07-29T09:54:24Z</time>
      </trkpt>
      <trkpt lat="40.845494" lon="-3.960085">
        <ele>2320.523</ele>
        <time>2021-07-29T09:54:27Z</time>
      </trkpt>
      <trkpt lat="40.845475" lon="-3.960098">
        <ele>2320.185</ele>
        <time>2021-07-29T09:54:30Z</time>
      </trkpt>
      <trkpt lat="40.845456" lon="-3.960098">
        <ele>2319.952</ele>
        <time>2021-07-29T09:54:32Z</time>
      </trkpt>
      <trkpt lat="40.845440" lon="-3.960115">
        <ele>2319.549</ele>
        <time>2021-07-29T09:54:34Z</time>
      </trkpt>
      <trkpt lat="40.845427" lon="-3.960133">
        <ele>2319.210</ele>
        <time>2021-07-29T09:54:36Z</time>
      </trkpt>
      <trkpt lat="40.845408" lon="-3.960153">
        <ele>2318.860</ele>
        <time>2021-07-29T09:54:39Z</time>
      </trkpt>
      <trkpt lat="40.845395" lon="-3.960173">
        <ele>2318.483</ele>
        <time>2021-07-29T09:54:42Z</time>
      </trkpt>
      <trkpt lat="40.845376" lon="-3.960190">
        <ele>2318.072</ele>
        <time>2021-07-29T09:54:45Z</time>
      </trkpt>
      <trkpt lat="40.845360" lon="-3.960213">
        <ele>2317.799</ele>
        <time>2021-07-29T09:54:48Z</time>
      </trkpt>
      <trkpt lat="40.845341" lon="-3.960223">
        <ele>2317.307</ele>
        <time>2021-07-29T09:54:51Z</time>
      </trkpt>
      <trkpt lat="40.845318" lon="-3.960233">
        <ele>2316.927</ele>
        <time>2021-07-29T09:54:54Z</time>
      </trkpt>
      <trkpt lat="40.845299" lon="-3.960250">
        <ele>2316.508</ele>
        <time>2021-07-29T09:54:57Z</time>
      </trkpt>
      <trkpt lat="40.845286" lon="-3.960273">
        <ele>2316.246</ele>
        <time>2021-07-29T09:55:00Z</time>
      </trkpt>
      <trkpt lat="40.845277" lon="-3.960300">
        <ele>2315.778</ele>
        <time>2021-07-29T09:55:02Z</time>
      </trkpt>
      <trkpt lat="40.845267" lon="-3.960327">
        <ele>2315.335</ele>
        <time>2021-07-29T09:55:04Z</time>
      </trkpt>
      <trkpt lat="40.845264" lon="-3.960353">
        <ele>2315.042</ele>
        <time>2021-07-29T09:55:06Z</time>
      </trkpt>
      <trkpt lat="40.845264" lon="-3.960378">
        <ele>2314.783</ele>
        <time>2021-07-29T09:55:08Z</time>
      </trkpt>
      <trkpt lat="40.845264" lon="-3.960410">
        <ele>2314.493</ele>
        <time>2021-07-29T09:55:11Z</time>
      </trkpt>
      <trkpt lat="40.845254" lon="-3.960435">
        <ele>2314.016</ele>
        <time>2021-07-29T09:55:14Z</time>
      </trkpt>
      <trkpt lat="40.845242" lon="-3.960458">
        <ele>2313.625</ele>
        <time>2021-07-29T09:55:17Z</time>
      </trkpt>
      <trkpt lat="40.845235" lon="-3.960488">
        <ele>2313.227</ele>
        <time>2021-07-29T09:55:20Z</time>
      </trkpt>
      <trkpt lat="40.845219" lon="-3.960505">
        <ele>2312.968</ele>
        <time>2021-07-29T09:55:22Z</time>
      </trkpt>
      <trkpt lat="40.845203" lon="-3.960520">
        <ele>2312.514</ele>
        <time>2021-07-29T09:55:24Z</time>
      </trkpt>
      <trkpt lat="40.845187" lon="-3.960535">
        <ele>2312.208</ele>
        <time>2021-07-29T09:55:26Z</time>
      </trkpt>
      <trkpt lat="40.845174" lon="-3.960558">
        <ele>2311.919</ele>
        <time>2021-07-29T09:55:29Z</time>
      </trkpt>
      <trkpt lat="40.845158" lon="-3.960572">
        <ele>2311.651</ele>
        <time>2021-07-29T09:55:31Z</time>
      </trkpt>
      <trkpt lat="40.845142" lon="-3.960588">
        <ele>2311.358</ele>
        <time>2021-07-29T09:55:33Z</time>
      </trkpt>
      <trkpt lat="40.845126" lon="-3.960606">
        <ele>2311.025</ele>
        <time>2021-07-29T09:55:36Z</time>
      </trkpt>
      <trkpt lat="40.845107" lon="-3.960628">
        <ele>2310.656</ele>
        <time>2021-07-29T09:55:39Z</time>
      </trkpt>
      <trkpt lat="40.845088" lon="-3.960652">
        <ele>2310.376</ele>
        <time>2021-07-29T09:55:42Z</time>
      </trkpt>
      <trkpt lat="40.845069" lon="-3.960675">
        <ele>2309.959</ele>
        <time>2021-07-29T09:55:45Z</time>
      </trkpt>
      <trkpt lat="40.845050" lon="-3.960688">
        <ele>2309.678</ele>
        <time>2021-07-29T09:56:35Z</time>
      </trkpt>
      <trkpt lat="40.845030" lon="-3.960715">
        <ele>2309.245</ele>
        <time>2021-07-29T09:56:37Z</time>
      </trkpt>
      <trkpt lat="40.845008" lon="-3.960737">
        <ele>2308.847</ele>
        <time>2021-07-29T09:56:39Z</time>
      </trkpt>
      <trkpt lat="40.844989" lon="-3.960762">
        <ele>2308.311</ele>
        <time>2021-07-29T09:56:41Z</time>
      </trkpt>
      <trkpt lat="40.844966" lon="-3.960790">
        <ele>2307.808</ele>
        <time>2021-07-29T09:56:43Z</time>
      </trkpt>
      <trkpt lat="40.844950" lon="-3.960820">
        <ele>2307.421</ele>
        <time>2021-07-29T09:56:45Z</time>
      </trkpt>
      <trkpt lat="40.844941" lon="-3.960852">
        <ele>2307.043</ele>
        <time>2021-07-29T09:56:49Z</time>
      </trkpt>
      <trkpt lat="40.844928" lon="-3.960870">
        <ele>2306.650</ele>
        <time>2021-07-29T09:56:51Z</time>
      </trkpt>
      <trkpt lat="40.844912" lon="-3.960888">
        <ele>2306.277</ele>
        <time>2021-07-29T09:56:53Z</time>
      </trkpt>
      <trkpt lat="40.844899" lon="-3.960907">
        <ele>2305.818</ele>
        <time>2021-07-29T09:56:55Z</time>
      </trkpt>
      <trkpt lat="40.844886" lon="-3.960925">
        <ele>2305.558</ele>
        <time>2021-07-29T09:56:57Z</time>
      </trkpt>
      <trkpt lat="40.844870" lon="-3.960956">
        <ele>2305.091</ele>
        <time>2021-07-29T09:57:00Z</time>
      </trkpt>
      <trkpt lat="40.844858" lon="-3.960975">
        <ele>2304.760</ele>
        <time>2021-07-29T09:57:02Z</time>
      </trkpt>
      <trkpt lat="40.844845" lon="-3.960992">
        <ele>2304.451</ele>
        <time>2021-07-29T09:57:04Z</time>
      </trkpt>
      <trkpt lat="40.844822" lon="-3.961012">
        <ele>2303.901</ele>
        <time>2021-07-29T09:57:07Z</time>
      </trkpt>
      <trkpt lat="40.844806" lon="-3.961025">
        <ele>2303.611</ele>
        <time>2021-07-29T09:57:09Z</time>
      </trkpt>
      <trkpt lat="40.844790" lon="-3.961040">
        <ele>2303.308</ele>
        <time>2021-07-29T09:57:11Z</time>
      </trkpt>
      <trkpt lat="40.844768" lon="-3.961058">
        <ele>2302.972</ele>
        <time>2021-07-29T09:57:14Z</time>
      </trkpt>
      <trkpt lat="40.844752" lon="-3.961080">
        <ele>2302.644</ele>
        <time>2021-07-29T09:57:17Z</time>
      </trkpt>
      <trkpt lat="40.844742" lon="-3.961107">
        <ele>2302.221</ele>
        <time>2021-07-29T09:57:20Z</time>
      </trkpt>
      <trkpt lat="40.844720" lon="-3.961127">
        <ele>2301.978</ele>
        <time>2021-07-29T09:57:22Z</time>
      </trkpt>
      <trkpt lat="40.844701" lon="-3.961136">
        <ele>2301.879</ele>
        <time>2021-07-29T09:57:24Z</time>
      </trkpt>
      <trkpt lat="40.844685" lon="-3.961152">
        <ele>2301.659</ele>
        <time>2021-07-29T09:57:26Z</time>
      </trkpt>
      <trkpt lat="40.844672" lon="-3.961168">
        <ele>2301.452</ele>
        <time>2021-07-29T09:57:28Z</time>
      </trkpt>
      <trkpt lat="40.844653" lon="-3.961185">
        <ele>2301.291</ele>
        <time>2021-07-29T09:57:31Z</time>
      </trkpt>
      <trkpt lat="40.844630" lon="-3.961203">
        <ele>2300.931</ele>
        <time>2021-07-29T09:57:33Z</time>
      </trkpt>
      <trkpt lat="40.844611" lon="-3.961220">
        <ele>2300.761</ele>
        <time>2021-07-29T09:57:35Z</time>
      </trkpt>
      <trkpt lat="40.844598" lon="-3.961250">
        <ele>2300.407</ele>
        <time>2021-07-29T09:57:37Z</time>
      </trkpt>
      <trkpt lat="40.844579" lon="-3.961273">
        <ele>2300.108</ele>
        <time>2021-07-29T09:57:39Z</time>
      </trkpt>
      <trkpt lat="40.844566" lon="-3.961290">
        <ele>2299.930</ele>
        <time>2021-07-29T09:57:41Z</time>
      </trkpt>
      <trkpt lat="40.844554" lon="-3.961316">
        <ele>2299.662</ele>
        <time>2021-07-29T09:57:43Z</time>
      </trkpt>
      <trkpt lat="40.844534" lon="-3.961345">
        <ele>2299.249</ele>
        <time>2021-07-29T09:57:45Z</time>
      </trkpt>
      <trkpt lat="40.844515" lon="-3.961365">
        <ele>2298.946</ele>
        <time>2021-07-29T09:57:47Z</time>
      </trkpt>
      <trkpt lat="40.844502" lon="-3.961390">
        <ele>2298.667</ele>
        <time>2021-07-29T09:57:50Z</time>
      </trkpt>
      <trkpt lat="40.844486" lon="-3.961407">
        <ele>2298.487</ele>
        <time>2021-07-29T09:57:52Z</time>
      </trkpt>
      <trkpt lat="40.844467" lon="-3.961423">
        <ele>2298.170</ele>
        <time>2021-07-29T09:57:54Z</time>
      </trkpt>
      <trkpt lat="40.844451" lon="-3.961444">
        <ele>2297.929</ele>
        <time>2021-07-29T09:57:56Z</time>
      </trkpt>
      <trkpt lat="40.844435" lon="-3.961460">
        <ele>2297.686</ele>
        <time>2021-07-29T09:57:58Z</time>
      </trkpt>
      <trkpt lat="40.844422" lon="-3.961482">
        <ele>2297.360</ele>
        <time>2021-07-29T09:58:00Z</time>
      </trkpt>
      <trkpt lat="40.844400" lon="-3.961502">
        <ele>2296.926</ele>
        <time>2021-07-29T09:58:02Z</time>
      </trkpt>
      <trkpt lat="40.844381" lon="-3.961510">
        <ele>2296.508</ele>
        <time>2021-07-29T09:58:04Z</time>
      </trkpt>
      <trkpt lat="40.844355" lon="-3.961523">
        <ele>2296.115</ele>
        <time>2021-07-29T09:58:06Z</time>
      </trkpt>
      <trkpt lat="40.844333" lon="-3.961540">
        <ele>2295.797</ele>
        <time>2021-07-29T09:58:08Z</time>
      </trkpt>
      <trkpt lat="40.844314" lon="-3.961558">
        <ele>2295.334</ele>
        <time>2021-07-29T09:58:10Z</time>
      </trkpt>
      <trkpt lat="40.844294" lon="-3.961575">
        <ele>2295.011</ele>
        <time>2021-07-29T09:58:12Z</time>
      </trkpt>
      <trkpt lat="40.844272" lon="-3.961597">
        <ele>2294.622</ele>
        <time>2021-07-29T09:58:14Z</time>
      </trkpt>
      <trkpt lat="40.844253" lon="-3.961617">
        <ele>2294.342</ele>
        <time>2021-07-29T09:58:16Z</time>
      </trkpt>
      <trkpt lat="40.844227" lon="-3.961628">
        <ele>2293.975</ele>
        <time>2021-07-29T09:58:18Z</time>
      </trkpt>
      <trkpt lat="40.844205" lon="-3.961640">
        <ele>2293.684</ele>
        <time>2021-07-29T09:58:20Z</time>
      </trkpt>
      <trkpt lat="40.844182" lon="-3.961650">
        <ele>2293.215</ele>
        <time>2021-07-29T09:58:22Z</time>
      </trkpt>
      <trkpt lat="40.844166" lon="-3.961665">
        <ele>2293.065</ele>
        <time>2021-07-29T09:58:24Z</time>
      </trkpt>
      <trkpt lat="40.844144" lon="-3.961683">
        <ele>2292.711</ele>
        <time>2021-07-29T09:58:26Z</time>
      </trkpt>
      <trkpt lat="40.844125" lon="-3.961708">
        <ele>2292.408</ele>
        <time>2021-07-29T09:58:28Z</time>
      </trkpt>
      <trkpt lat="40.844102" lon="-3.961737">
        <ele>2292.148</ele>
        <time>2021-07-29T09:58:31Z</time>
      </trkpt>
      <trkpt lat="40.844077" lon="-3.961758">
        <ele>2291.880</ele>
        <time>2021-07-29T09:58:33Z</time>
      </trkpt>
      <trkpt lat="40.844058" lon="-3.961784">
        <ele>2291.617</ele>
        <time>2021-07-29T09:58:35Z</time>
      </trkpt>
      <trkpt lat="40.844045" lon="-3.961802">
        <ele>2291.464</ele>
        <time>2021-07-29T09:58:37Z</time>
      </trkpt>
      <trkpt lat="40.844029" lon="-3.961825">
        <ele>2291.235</ele>
        <time>2021-07-29T09:58:39Z</time>
      </trkpt>
      <trkpt lat="40.844010" lon="-3.961843">
        <ele>2291.045</ele>
        <time>2021-07-29T09:58:41Z</time>
      </trkpt>
      <trkpt lat="40.843990" lon="-3.961855">
        <ele>2290.878</ele>
        <time>2021-07-29T09:58:43Z</time>
      </trkpt>
      <trkpt lat="40.843971" lon="-3.961873">
        <ele>2290.747</ele>
        <time>2021-07-29T09:58:45Z</time>
      </trkpt>
      <trkpt lat="40.843955" lon="-3.961895">
        <ele>2290.513</ele>
        <time>2021-07-29T09:58:47Z</time>
      </trkpt>
      <trkpt lat="40.843939" lon="-3.961915">
        <ele>2290.443</ele>
        <time>2021-07-29T09:58:49Z</time>
      </trkpt>
      <trkpt lat="40.843923" lon="-3.961933">
        <ele>2290.307</ele>
        <time>2021-07-29T09:58:51Z</time>
      </trkpt>
      <trkpt lat="40.843904" lon="-3.961952">
        <ele>2290.108</ele>
        <time>2021-07-29T09:58:53Z</time>
      </trkpt>
      <trkpt lat="40.843885" lon="-3.961970">
        <ele>2290.068</ele>
        <time>2021-07-29T09:58:55Z</time>
      </trkpt>
      <trkpt lat="40.843859" lon="-3.961990">
        <ele>2289.720</ele>
        <time>2021-07-29T09:58:57Z</time>
      </trkpt>
      <trkpt lat="40.843834" lon="-3.962006">
        <ele>2289.517</ele>
        <time>2021-07-29T09:59:00Z</time>
      </trkpt>
      <trkpt lat="40.843805" lon="-3.962022">
        <ele>2289.354</ele>
        <time>2021-07-29T09:59:02Z</time>
      </trkpt>
      <trkpt lat="40.843779" lon="-3.962032">
        <ele>2289.195</ele>
        <time>2021-07-29T09:59:04Z</time>
      </trkpt>
      <trkpt lat="40.843760" lon="-3.962042">
        <ele>2288.915</ele>
        <time>2021-07-29T09:59:06Z</time>
      </trkpt>
      <trkpt lat="40.843734" lon="-3.962052">
        <ele>2288.898</ele>
        <time>2021-07-29T09:59:08Z</time>
      </trkpt>
      <trkpt lat="40.843712" lon="-3.962065">
        <ele>2288.667</ele>
        <time>2021-07-29T09:59:10Z</time>
      </trkpt>
      <trkpt lat="40.843690" lon="-3.962080">
        <ele>2288.685</ele>
        <time>2021-07-29T09:59:12Z</time>
      </trkpt>
      <trkpt lat="40.843670" lon="-3.962097">
        <ele>2288.589</ele>
        <time>2021-07-29T09:59:14Z</time>
      </trkpt>
      <trkpt lat="40.843651" lon="-3.962113">
        <ele>2288.517</ele>
        <time>2021-07-29T09:59:16Z</time>
      </trkpt>
      <trkpt lat="40.843635" lon="-3.962137">
        <ele>2288.508</ele>
        <time>2021-07-29T09:59:18Z</time>
      </trkpt>
      <trkpt lat="40.843616" lon="-3.962154">
        <ele>2288.585</ele>
        <time>2021-07-29T09:59:20Z</time>
      </trkpt>
      <trkpt lat="40.843594" lon="-3.962182">
        <ele>2288.397</ele>
        <time>2021-07-29T09:59:22Z</time>
      </trkpt>
      <trkpt lat="40.843574" lon="-3.962205">
        <ele>2287.934</ele>
        <time>2021-07-29T09:59:24Z</time>
      </trkpt>
      <trkpt lat="40.843562" lon="-3.962228">
        <ele>2287.851</ele>
        <time>2021-07-29T09:59:26Z</time>
      </trkpt>
      <trkpt lat="40.843549" lon="-3.962248">
        <ele>2287.682</ele>
        <time>2021-07-29T09:59:28Z</time>
      </trkpt>
      <trkpt lat="40.843530" lon="-3.962268">
        <ele>2287.222</ele>
        <time>2021-07-29T09:59:30Z</time>
      </trkpt>
      <trkpt lat="40.843514" lon="-3.962283">
        <ele>2286.975</ele>
        <time>2021-07-29T09:59:32Z</time>
      </trkpt>
      <trkpt lat="40.843488" lon="-3.962300">
        <ele>2286.444</ele>
        <time>2021-07-29T09:59:34Z</time>
      </trkpt>
      <trkpt lat="40.843459" lon="-3.962317">
        <ele>2285.988</ele>
        <time>2021-07-29T09:59:36Z</time>
      </trkpt>
      <trkpt lat="40.843437" lon="-3.962330">
        <ele>2285.524</ele>
        <time>2021-07-29T09:59:38Z</time>
      </trkpt>
      <trkpt lat="40.843421" lon="-3.962346">
        <ele>2285.326</ele>
        <time>2021-07-29T09:59:40Z</time>
      </trkpt>
      <trkpt lat="40.843398" lon="-3.962362">
        <ele>2284.908</ele>
        <time>2021-07-29T09:59:42Z</time>
      </trkpt>
      <trkpt lat="40.843379" lon="-3.962375">
        <ele>2284.685</ele>
        <time>2021-07-29T09:59:44Z</time>
      </trkpt>
      <trkpt lat="40.843360" lon="-3.962387">
        <ele>2284.367</ele>
        <time>2021-07-29T09:59:46Z</time>
      </trkpt>
      <trkpt lat="40.843334" lon="-3.962407">
        <ele>2284.094</ele>
        <time>2021-07-29T09:59:48Z</time>
      </trkpt>
      <trkpt lat="40.843315" lon="-3.962425">
        <ele>2283.991</ele>
        <time>2021-07-29T09:59:50Z</time>
      </trkpt>
      <trkpt lat="40.843296" lon="-3.962443">
        <ele>2283.872</ele>
        <time>2021-07-29T09:59:52Z</time>
      </trkpt>
      <trkpt lat="40.843274" lon="-3.962462">
        <ele>2283.752</ele>
        <time>2021-07-29T09:59:54Z</time>
      </trkpt>
      <trkpt lat="40.843261" lon="-3.962484">
        <ele>2283.835</ele>
        <time>2021-07-29T09:59:56Z</time>
      </trkpt>
      <trkpt lat="40.843242" lon="-3.962500">
        <ele>2283.714</ele>
        <time>2021-07-29T09:59:58Z</time>
      </trkpt>
      <trkpt lat="40.843222" lon="-3.962522">
        <ele>2283.529</ele>
        <time>2021-07-29T10:00:00Z</time>
      </trkpt>
      <trkpt lat="40.843203" lon="-3.962538">
        <ele>2283.300</ele>
        <time>2021-07-29T10:00:02Z</time>
      </trkpt>
      <trkpt lat="40.843181" lon="-3.962557">
        <ele>2283.020</ele>
        <time>2021-07-29T10:00:04Z</time>
      </trkpt>
      <trkpt lat="40.843162" lon="-3.962572">
        <ele>2282.908</ele>
        <time>2021-07-29T10:00:06Z</time>
      </trkpt>
      <trkpt lat="40.843139" lon="-3.962593">
        <ele>2282.769</ele>
        <time>2021-07-29T10:00:09Z</time>
      </trkpt>
      <trkpt lat="40.843117" lon="-3.962608">
        <ele>2282.521</ele>
        <time>2021-07-29T10:00:11Z</time>
      </trkpt>
      <trkpt lat="40.843091" lon="-3.962622">
        <ele>2282.378</ele>
        <time>2021-07-29T10:00:13Z</time>
      </trkpt>
      <trkpt lat="40.843072" lon="-3.962640">
        <ele>2282.215</ele>
        <time>2021-07-29T10:00:15Z</time>
      </trkpt>
      <trkpt lat="40.843050" lon="-3.962660">
        <ele>2282.136</ele>
        <time>2021-07-29T10:00:17Z</time>
      </trkpt>
      <trkpt lat="40.843030" lon="-3.962675">
        <ele>2281.946</ele>
        <time>2021-07-29T10:00:19Z</time>
      </trkpt>
      <trkpt lat="40.843005" lon="-3.962693">
        <ele>2281.769</ele>
        <time>2021-07-29T10:00:21Z</time>
      </trkpt>
      <trkpt lat="40.842992" lon="-3.962712">
        <ele>2281.698</ele>
        <time>2021-07-29T10:00:23Z</time>
      </trkpt>
      <trkpt lat="40.842973" lon="-3.962725">
        <ele>2281.482</ele>
        <time>2021-07-29T10:00:25Z</time>
      </trkpt>
      <trkpt lat="40.842957" lon="-3.962745">
        <ele>2281.343</ele>
        <time>2021-07-29T10:00:27Z</time>
      </trkpt>
      <trkpt lat="40.842941" lon="-3.962763">
        <ele>2281.217</ele>
        <time>2021-07-29T10:00:29Z</time>
      </trkpt>
      <trkpt lat="40.842925" lon="-3.962778">
        <ele>2281.108</ele>
        <time>2021-07-29T10:00:31Z</time>
      </trkpt>
      <trkpt lat="40.842906" lon="-3.962797">
        <ele>2280.655</ele>
        <time>2021-07-29T10:00:33Z</time>
      </trkpt>
      <trkpt lat="40.842883" lon="-3.962807">
        <ele>2280.187</ele>
        <time>2021-07-29T10:00:35Z</time>
      </trkpt>
      <trkpt lat="40.842861" lon="-3.962810">
        <ele>2279.884</ele>
        <time>2021-07-29T10:00:37Z</time>
      </trkpt>
      <trkpt lat="40.842842" lon="-3.962815">
        <ele>2279.411</ele>
        <time>2021-07-29T10:00:39Z</time>
      </trkpt>
      <trkpt lat="40.842822" lon="-3.962817">
        <ele>2279.192</ele>
        <time>2021-07-29T10:00:41Z</time>
      </trkpt>
      <trkpt lat="40.842803" lon="-3.962822">
        <ele>2278.712</ele>
        <time>2021-07-29T10:00:43Z</time>
      </trkpt>
      <trkpt lat="40.842781" lon="-3.962827">
        <ele>2278.365</ele>
        <time>2021-07-29T10:00:45Z</time>
      </trkpt>
      <trkpt lat="40.842762" lon="-3.962835">
        <ele>2278.354</ele>
        <time>2021-07-29T10:00:46Z</time>
      </trkpt>
      <trkpt lat="40.842746" lon="-3.962848">
        <ele>2278.284</ele>
        <time>2021-07-29T10:00:48Z</time>
      </trkpt>
      <trkpt lat="40.842720" lon="-3.962864">
        <ele>2278.207</ele>
        <time>2021-07-29T10:00:52Z</time>
      </trkpt>
      <trkpt lat="40.842704" lon="-3.962882">
        <ele>2278.217</ele>
        <time>2021-07-29T10:00:54Z</time>
      </trkpt>
      <trkpt lat="40.842688" lon="-3.962902">
        <ele>2278.108</ele>
        <time>2021-07-29T10:00:56Z</time>
      </trkpt>
      <trkpt lat="40.842685" lon="-3.962928">
        <ele>2277.995</ele>
        <time>2021-07-29T10:00:58Z</time>
      </trkpt>
      <trkpt lat="40.842685" lon="-3.962955">
        <ele>2277.667</ele>
        <time>2021-07-29T10:01:00Z</time>
      </trkpt>
      <trkpt lat="40.842685" lon="-3.962987">
        <ele>2277.374</ele>
        <time>2021-07-29T10:01:02Z</time>
      </trkpt>
      <trkpt lat="40.842678" lon="-3.963012">
        <ele>2277.271</ele>
        <time>2021-07-29T10:01:04Z</time>
      </trkpt>
      <trkpt lat="40.842672" lon="-3.963042">
        <ele>2277.072</ele>
        <time>2021-07-29T10:01:07Z</time>
      </trkpt>
      <trkpt lat="40.842662" lon="-3.963062">
        <ele>2276.962</ele>
        <time>2021-07-29T10:01:09Z</time>
      </trkpt>
      <trkpt lat="40.842659" lon="-3.963093">
        <ele>2276.375</ele>
        <time>2021-07-29T10:01:12Z</time>
      </trkpt>
      <trkpt lat="40.842656" lon="-3.963125">
        <ele>2275.644</ele>
        <time>2021-07-29T10:01:15Z</time>
      </trkpt>
      <trkpt lat="40.842646" lon="-3.963147">
        <ele>2275.169</ele>
        <time>2021-07-29T10:01:17Z</time>
      </trkpt>
      <trkpt lat="40.842640" lon="-3.963173">
        <ele>2274.504</ele>
        <time>2021-07-29T10:01:20Z</time>
      </trkpt>
      <trkpt lat="40.842637" lon="-3.963197">
        <ele>2273.924</ele>
        <time>2021-07-29T10:01:22Z</time>
      </trkpt>
      <trkpt lat="40.842627" lon="-3.963224">
        <ele>2273.308</ele>
        <time>2021-07-29T10:01:24Z</time>
      </trkpt>
      <trkpt lat="40.842624" lon="-3.963255">
        <ele>2272.453</ele>
        <time>2021-07-29T10:01:27Z</time>
      </trkpt>
      <trkpt lat="40.842621" lon="-3.963290">
        <ele>2271.585</ele>
        <time>2021-07-29T10:01:30Z</time>
      </trkpt>
      <trkpt lat="40.842627" lon="-3.963318">
        <ele>2270.812</ele>
        <time>2021-07-29T10:01:33Z</time>
      </trkpt>
      <trkpt lat="40.842627" lon="-3.963347">
        <ele>2270.289</ele>
        <time>2021-07-29T10:01:36Z</time>
      </trkpt>
      <trkpt lat="40.842624" lon="-3.963378">
        <ele>2269.730</ele>
        <time>2021-07-29T10:01:39Z</time>
      </trkpt>
      <trkpt lat="40.842618" lon="-3.963410">
        <ele>2269.240</ele>
        <time>2021-07-29T10:01:42Z</time>
      </trkpt>
      <trkpt lat="40.842602" lon="-3.963425">
        <ele>2268.833</ele>
        <time>2021-07-29T10:01:44Z</time>
      </trkpt>
      <trkpt lat="40.842586" lon="-3.963452">
        <ele>2268.242</ele>
        <time>2021-07-29T10:01:47Z</time>
      </trkpt>
      <trkpt lat="40.842560" lon="-3.963477">
        <ele>2267.621</ele>
        <time>2021-07-29T10:01:50Z</time>
      </trkpt>
      <trkpt lat="40.842544" lon="-3.963492">
        <ele>2267.241</ele>
        <time>2021-07-29T10:01:52Z</time>
      </trkpt>
      <trkpt lat="40.842522" lon="-3.963502">
        <ele>2266.805</ele>
        <time>2021-07-29T10:01:54Z</time>
      </trkpt>
      <trkpt lat="40.842502" lon="-3.963508">
        <ele>2266.508</ele>
        <time>2021-07-29T10:01:56Z</time>
      </trkpt>
      <trkpt lat="40.842483" lon="-3.963507">
        <ele>2266.379</ele>
        <time>2021-07-29T10:01:58Z</time>
      </trkpt>
      <trkpt lat="40.842464" lon="-3.963503">
        <ele>2266.251</ele>
        <time>2021-07-29T10:02:00Z</time>
      </trkpt>
      <trkpt lat="40.842442" lon="-3.963493">
        <ele>2266.128</ele>
        <time>2021-07-29T10:02:02Z</time>
      </trkpt>
      <trkpt lat="40.842422" lon="-3.963483">
        <ele>2266.075</ele>
        <time>2021-07-29T10:02:04Z</time>
      </trkpt>
      <trkpt lat="40.842403" lon="-3.963478">
        <ele>2265.996</ele>
        <time>2021-07-29T10:02:06Z</time>
      </trkpt>
      <trkpt lat="40.842378" lon="-3.963475">
        <ele>2265.716</ele>
        <time>2021-07-29T10:02:08Z</time>
      </trkpt>
      <trkpt lat="40.842349" lon="-3.963468">
        <ele>2265.499</ele>
        <time>2021-07-29T10:02:11Z</time>
      </trkpt>
      <trkpt lat="40.842326" lon="-3.963465">
        <ele>2265.278</ele>
        <time>2021-07-29T10:02:13Z</time>
      </trkpt>
      <trkpt lat="40.842307" lon="-3.963460">
        <ele>2265.099</ele>
        <time>2021-07-29T10:02:15Z</time>
      </trkpt>
      <trkpt lat="40.842282" lon="-3.963460">
        <ele>2264.807</ele>
        <time>2021-07-29T10:02:17Z</time>
      </trkpt>
      <trkpt lat="40.842256" lon="-3.963458">
        <ele>2264.527</ele>
        <time>2021-07-29T10:02:20Z</time>
      </trkpt>
      <trkpt lat="40.842230" lon="-3.963457">
        <ele>2264.208</ele>
        <time>2021-07-29T10:02:23Z</time>
      </trkpt>
      <trkpt lat="40.842208" lon="-3.963450">
        <ele>2263.986</ele>
        <time>2021-07-29T10:02:26Z</time>
      </trkpt>
      <trkpt lat="40.842189" lon="-3.963452">
        <ele>2263.728</ele>
        <time>2021-07-29T10:02:28Z</time>
      </trkpt>
      <trkpt lat="40.842170" lon="-3.963442">
        <ele>2263.415</ele>
        <time>2021-07-29T10:02:30Z</time>
      </trkpt>
      <trkpt lat="40.842147" lon="-3.963430">
        <ele>2263.152</ele>
        <time>2021-07-29T10:02:32Z</time>
      </trkpt>
      <trkpt lat="40.842122" lon="-3.963416">
        <ele>2262.863</ele>
        <time>2021-07-29T10:02:34Z</time>
      </trkpt>
      <trkpt lat="40.842102" lon="-3.963412">
        <ele>2262.523</ele>
        <time>2021-07-29T10:02:36Z</time>
      </trkpt>
      <trkpt lat="40.842080" lon="-3.963412">
        <ele>2262.276</ele>
        <time>2021-07-29T10:02:38Z</time>
      </trkpt>
      <trkpt lat="40.842058" lon="-3.963422">
        <ele>2261.835</ele>
        <time>2021-07-29T10:02:40Z</time>
      </trkpt>
      <trkpt lat="40.842032" lon="-3.963430">
        <ele>2261.461</ele>
        <time>2021-07-29T10:02:42Z</time>
      </trkpt>
      <trkpt lat="40.842006" lon="-3.963438">
        <ele>2260.921</ele>
        <time>2021-07-29T10:02:45Z</time>
      </trkpt>
      <trkpt lat="40.841987" lon="-3.963437">
        <ele>2260.713</ele>
        <time>2021-07-29T10:02:47Z</time>
      </trkpt>
      <trkpt lat="40.841962" lon="-3.963435">
        <ele>2260.308</ele>
        <time>2021-07-29T10:02:49Z</time>
      </trkpt>
      <trkpt lat="40.841942" lon="-3.963437">
        <ele>2260.083</ele>
        <time>2021-07-29T10:02:51Z</time>
      </trkpt>
      <trkpt lat="40.841920" lon="-3.963442">
        <ele>2260.045</ele>
        <time>2021-07-29T10:02:53Z</time>
      </trkpt>
      <trkpt lat="40.841901" lon="-3.963443">
        <ele>2260.042</ele>
        <time>2021-07-29T10:02:55Z</time>
      </trkpt>
      <trkpt lat="40.841878" lon="-3.963445">
        <ele>2260.089</ele>
        <time>2021-07-29T10:02:58Z</time>
      </trkpt>
      <trkpt lat="40.841850" lon="-3.963438">
        <ele>2260.010</ele>
        <time>2021-07-29T10:03:00Z</time>
      </trkpt>
      <trkpt lat="40.841827" lon="-3.963437">
        <ele>2260.010</ele>
        <time>2021-07-29T10:03:02Z</time>
      </trkpt>
      <trkpt lat="40.841802" lon="-3.963437">
        <ele>2260.083</ele>
        <time>2021-07-29T10:03:04Z</time>
      </trkpt>
      <trkpt lat="40.841779" lon="-3.963437">
        <ele>2260.042</ele>
        <time>2021-07-29T10:03:06Z</time>
      </trkpt>
      <trkpt lat="40.841750" lon="-3.963437">
        <ele>2260.049</ele>
        <time>2021-07-29T10:03:08Z</time>
      </trkpt>
      <trkpt lat="40.841728" lon="-3.963437">
        <ele>2260.002</ele>
        <time>2021-07-29T10:03:10Z</time>
      </trkpt>
      <trkpt lat="40.841706" lon="-3.963438">
        <ele>2260.022</ele>
        <time>2021-07-29T10:03:12Z</time>
      </trkpt>
      <trkpt lat="40.841683" lon="-3.963438">
        <ele>2260.008</ele>
        <time>2021-07-29T10:03:14Z</time>
      </trkpt>
      <trkpt lat="40.841664" lon="-3.963442">
        <ele>2260.031</ele>
        <time>2021-07-29T10:03:16Z</time>
      </trkpt>
      <trkpt lat="40.841642" lon="-3.963443">
        <ele>2260.083</ele>
        <time>2021-07-29T10:03:18Z</time>
      </trkpt>
      <trkpt lat="40.841616" lon="-3.963453">
        <ele>2260.040</ele>
        <time>2021-07-29T10:03:20Z</time>
      </trkpt>
      <trkpt lat="40.841600" lon="-3.963468">
        <ele>2260.037</ele>
        <time>2021-07-29T10:03:22Z</time>
      </trkpt>
      <trkpt lat="40.841581" lon="-3.963485">
        <ele>2260.018</ele>
        <time>2021-07-29T10:03:24Z</time>
      </trkpt>
      <trkpt lat="40.841555" lon="-3.963498">
        <ele>2260.078</ele>
        <time>2021-07-29T10:03:26Z</time>
      </trkpt>
      <trkpt lat="40.841530" lon="-3.963520">
        <ele>2260.031</ele>
        <time>2021-07-29T10:03:29Z</time>
      </trkpt>
      <trkpt lat="40.841507" lon="-3.963534">
        <ele>2260.080</ele>
        <time>2021-07-29T10:03:31Z</time>
      </trkpt>
      <trkpt lat="40.841482" lon="-3.963548">
        <ele>2260.021</ele>
        <time>2021-07-29T10:03:33Z</time>
      </trkpt>
      <trkpt lat="40.841456" lon="-3.963564">
        <ele>2260.041</ele>
        <time>2021-07-29T10:03:35Z</time>
      </trkpt>
      <trkpt lat="40.841434" lon="-3.963570">
        <ele>2260.005</ele>
        <time>2021-07-29T10:03:37Z</time>
      </trkpt>
      <trkpt lat="40.841411" lon="-3.963580">
        <ele>2260.008</ele>
        <time>2021-07-29T10:03:39Z</time>
      </trkpt>
      <trkpt lat="40.841386" lon="-3.963588">
        <ele>2260.019</ele>
        <time>2021-07-29T10:03:41Z</time>
      </trkpt>
      <trkpt lat="40.841363" lon="-3.963598">
        <ele>2260.031</ele>
        <time>2021-07-29T10:03:43Z</time>
      </trkpt>
      <trkpt lat="40.841338" lon="-3.963608">
        <ele>2260.088</ele>
        <time>2021-07-29T10:03:45Z</time>
      </trkpt>
      <trkpt lat="40.841309" lon="-3.963625">
        <ele>2259.985</ele>
        <time>2021-07-29T10:03:48Z</time>
      </trkpt>
      <trkpt lat="40.841293" lon="-3.963643">
        <ele>2259.896</ele>
        <time>2021-07-29T10:03:50Z</time>
      </trkpt>
      <trkpt lat="40.841277" lon="-3.963663">
        <ele>2259.826</ele>
        <time>2021-07-29T10:03:52Z</time>
      </trkpt>
      <trkpt lat="40.841254" lon="-3.963682">
        <ele>2259.779</ele>
        <time>2021-07-29T10:03:54Z</time>
      </trkpt>
      <trkpt lat="40.841238" lon="-3.963693">
        <ele>2259.768</ele>
        <time>2021-07-29T10:03:56Z</time>
      </trkpt>
      <trkpt lat="40.841216" lon="-3.963707">
        <ele>2259.762</ele>
        <time>2021-07-29T10:03:58Z</time>
      </trkpt>
      <trkpt lat="40.841197" lon="-3.963715">
        <ele>2259.883</ele>
        <time>2021-07-29T10:04:00Z</time>
      </trkpt>
      <trkpt lat="40.841178" lon="-3.963730">
        <ele>2259.811</ele>
        <time>2021-07-29T10:04:02Z</time>
      </trkpt>
      <trkpt lat="40.841158" lon="-3.963742">
        <ele>2259.808</ele>
        <time>2021-07-29T10:04:04Z</time>
      </trkpt>
      <trkpt lat="40.841133" lon="-3.963758">
        <ele>2259.953</ele>
        <time>2021-07-29T10:04:06Z</time>
      </trkpt>
      <trkpt lat="40.841114" lon="-3.963772">
        <ele>2260.085</ele>
        <time>2021-07-29T10:04:08Z</time>
      </trkpt>
      <trkpt lat="40.841098" lon="-3.963788">
        <ele>2260.122</ele>
        <time>2021-07-29T10:04:10Z</time>
      </trkpt>
      <trkpt lat="40.841085" lon="-3.963807">
        <ele>2260.219</ele>
        <time>2021-07-29T10:04:12Z</time>
      </trkpt>
      <trkpt lat="40.841069" lon="-3.963825">
        <ele>2260.460</ele>
        <time>2021-07-29T10:04:14Z</time>
      </trkpt>
      <trkpt lat="40.841046" lon="-3.963840">
        <ele>2260.690</ele>
        <time>2021-07-29T10:04:16Z</time>
      </trkpt>
      <trkpt lat="40.841024" lon="-3.963852">
        <ele>2260.763</ele>
        <time>2021-07-29T10:04:18Z</time>
      </trkpt>
      <trkpt lat="40.841005" lon="-3.963865">
        <ele>2260.842</ele>
        <time>2021-07-29T10:04:20Z</time>
      </trkpt>
      <trkpt lat="40.840986" lon="-3.963882">
        <ele>2260.926</ele>
        <time>2021-07-29T10:04:22Z</time>
      </trkpt>
      <trkpt lat="40.840960" lon="-3.963892">
        <ele>2261.147</ele>
        <time>2021-07-29T10:04:24Z</time>
      </trkpt>
      <trkpt lat="40.840938" lon="-3.963900">
        <ele>2261.211</ele>
        <time>2021-07-29T10:04:26Z</time>
      </trkpt>
      <trkpt lat="40.840912" lon="-3.963908">
        <ele>2261.308</ele>
        <time>2021-07-29T10:04:28Z</time>
      </trkpt>
      <trkpt lat="40.840893" lon="-3.963924">
        <ele>2261.319</ele>
        <time>2021-07-29T10:04:30Z</time>
      </trkpt>
      <trkpt lat="40.840867" lon="-3.963935">
        <ele>2261.431</ele>
        <time>2021-07-29T10:04:32Z</time>
      </trkpt>
      <trkpt lat="40.840848" lon="-3.963946">
        <ele>2261.578</ele>
        <time>2021-07-29T10:04:34Z</time>
      </trkpt>
      <trkpt lat="40.840829" lon="-3.963956">
        <ele>2261.645</ele>
        <time>2021-07-29T10:04:36Z</time>
      </trkpt>
      <trkpt lat="40.840806" lon="-3.963970">
        <ele>2261.886</ele>
        <time>2021-07-29T10:04:39Z</time>
      </trkpt>
      <trkpt lat="40.840790" lon="-3.963982">
        <ele>2261.986</ele>
        <time>2021-07-29T10:04:41Z</time>
      </trkpt>
      <trkpt lat="40.840768" lon="-3.963988">
        <ele>2262.139</ele>
        <time>2021-07-29T10:04:43Z</time>
      </trkpt>
      <trkpt lat="40.840749" lon="-3.963997">
        <ele>2262.398</ele>
        <time>2021-07-29T10:04:45Z</time>
      </trkpt>
      <trkpt lat="40.840726" lon="-3.964008">
        <ele>2262.537</ele>
        <time>2021-07-29T10:04:47Z</time>
      </trkpt>
      <trkpt lat="40.840701" lon="-3.964022">
        <ele>2262.749</ele>
        <time>2021-07-29T10:04:50Z</time>
      </trkpt>
      <trkpt lat="40.840682" lon="-3.964023">
        <ele>2263.013</ele>
        <time>2021-07-29T10:04:52Z</time>
      </trkpt>
      <trkpt lat="40.840659" lon="-3.964020">
        <ele>2263.308</ele>
        <time>2021-07-29T10:04:54Z</time>
      </trkpt>
      <trkpt lat="40.840640" lon="-3.964037">
        <ele>2263.380</ele>
        <time>2021-07-29T10:04:57Z</time>
      </trkpt>
      <trkpt lat="40.840621" lon="-3.964043">
        <ele>2263.592</ele>
        <time>2021-07-29T10:04:59Z</time>
      </trkpt>
      <trkpt lat="40.840602" lon="-3.964048">
        <ele>2263.719</ele>
        <time>2021-07-29T10:05:01Z</time>
      </trkpt>
      <trkpt lat="40.840582" lon="-3.964058">
        <ele>2263.926</ele>
        <time>2021-07-29T10:05:03Z</time>
      </trkpt>
      <trkpt lat="40.840563" lon="-3.964072">
        <ele>2263.977</ele>
        <time>2021-07-29T10:05:05Z</time>
      </trkpt>
      <trkpt lat="40.840534" lon="-3.964086">
        <ele>2264.177</ele>
        <time>2021-07-29T10:05:08Z</time>
      </trkpt>
      <trkpt lat="40.840512" lon="-3.964095">
        <ele>2264.380</ele>
        <time>2021-07-29T10:05:10Z</time>
      </trkpt>
      <trkpt lat="40.840490" lon="-3.964105">
        <ele>2264.499</ele>
        <time>2021-07-29T10:05:12Z</time>
      </trkpt>
      <trkpt lat="40.840470" lon="-3.964108">
        <ele>2264.634</ele>
        <time>2021-07-29T10:05:14Z</time>
      </trkpt>
      <trkpt lat="40.840448" lon="-3.964106">
        <ele>2264.955</ele>
        <time>2021-07-29T10:05:16Z</time>
      </trkpt>
      <trkpt lat="40.840429" lon="-3.964106">
        <ele>2265.110</ele>
        <time>2021-07-29T10:05:18Z</time>
      </trkpt>
      <trkpt lat="40.840400" lon="-3.964112">
        <ele>2265.408</ele>
        <time>2021-07-29T10:05:20Z</time>
      </trkpt>
      <trkpt lat="40.840378" lon="-3.964128">
        <ele>2265.470</ele>
        <time>2021-07-29T10:05:23Z</time>
      </trkpt>
      <trkpt lat="40.840362" lon="-3.964142">
        <ele>2265.462</ele>
        <time>2021-07-29T10:05:25Z</time>
      </trkpt>
      <trkpt lat="40.840349" lon="-3.964158">
        <ele>2265.369</ele>
        <time>2021-07-29T10:05:27Z</time>
      </trkpt>
      <trkpt lat="40.840333" lon="-3.964180">
        <ele>2265.326</ele>
        <time>2021-07-29T10:05:29Z</time>
      </trkpt>
      <trkpt lat="40.840317" lon="-3.964193">
        <ele>2265.317</ele>
        <time>2021-07-29T10:05:31Z</time>
      </trkpt>
      <trkpt lat="40.840294" lon="-3.964198">
        <ele>2265.517</ele>
        <time>2021-07-29T10:05:33Z</time>
      </trkpt>
      <trkpt lat="40.840278" lon="-3.964210">
        <ele>2265.570</ele>
        <time>2021-07-29T10:05:35Z</time>
      </trkpt>
      <trkpt lat="40.840259" lon="-3.964230">
        <ele>2265.519</ele>
        <time>2021-07-29T10:05:38Z</time>
      </trkpt>
      <trkpt lat="40.840237" lon="-3.964237">
        <ele>2265.588</ele>
        <time>2021-07-29T10:05:40Z</time>
      </trkpt>
      <trkpt lat="40.840218" lon="-3.964245">
        <ele>2265.624</ele>
        <time>2021-07-29T10:05:42Z</time>
      </trkpt>
      <trkpt lat="40.840195" lon="-3.964252">
        <ele>2265.726</ele>
        <time>2021-07-29T10:05:44Z</time>
      </trkpt>
      <trkpt lat="40.840176" lon="-3.964260">
        <ele>2265.708</ele>
        <time>2021-07-29T10:05:46Z</time>
      </trkpt>
      <trkpt lat="40.840154" lon="-3.964267">
        <ele>2265.845</ele>
        <time>2021-07-29T10:05:48Z</time>
      </trkpt>
      <trkpt lat="40.840134" lon="-3.964278">
        <ele>2265.827</ele>
        <time>2021-07-29T10:05:50Z</time>
      </trkpt>
      <trkpt lat="40.840118" lon="-3.964298">
        <ele>2265.724</ele>
        <time>2021-07-29T10:05:52Z</time>
      </trkpt>
      <trkpt lat="40.840102" lon="-3.964317">
        <ele>2265.661</ele>
        <time>2021-07-29T10:05:54Z</time>
      </trkpt>
      <trkpt lat="40.840077" lon="-3.964327">
        <ele>2265.742</ele>
        <time>2021-07-29T10:05:57Z</time>
      </trkpt>
      <trkpt lat="40.840051" lon="-3.964335">
        <ele>2265.882</ele>
        <time>2021-07-29T10:05:59Z</time>
      </trkpt>
      <trkpt lat="40.840032" lon="-3.964343">
        <ele>2265.945</ele>
        <time>2021-07-29T10:06:01Z</time>
      </trkpt>
      <trkpt lat="40.840000" lon="-3.964352">
        <ele>2266.094</ele>
        <time>2021-07-29T10:06:03Z</time>
      </trkpt>
      <trkpt lat="40.839978" lon="-3.964357">
        <ele>2266.071</ele>
        <time>2021-07-29T10:06:05Z</time>
      </trkpt>
      <trkpt lat="40.839955" lon="-3.964373">
        <ele>2265.941</ele>
        <time>2021-07-29T10:06:08Z</time>
      </trkpt>
      <trkpt lat="40.839933" lon="-3.964383">
        <ele>2265.915</ele>
        <time>2021-07-29T10:06:11Z</time>
      </trkpt>
      <trkpt lat="40.839907" lon="-3.964385">
        <ele>2266.008</ele>
        <time>2021-07-29T10:06:13Z</time>
      </trkpt>
      <trkpt lat="40.839885" lon="-3.964387">
        <ele>2266.094</ele>
        <time>2021-07-29T10:06:15Z</time>
      </trkpt>
      <trkpt lat="40.839866" lon="-3.964398">
        <ele>2266.036</ele>
        <time>2021-07-29T10:06:17Z</time>
      </trkpt>
      <trkpt lat="40.839843" lon="-3.964407">
        <ele>2266.043</ele>
        <time>2021-07-29T10:06:19Z</time>
      </trkpt>
      <trkpt lat="40.839824" lon="-3.964410">
        <ele>2266.020</ele>
        <time>2021-07-29T10:06:21Z</time>
      </trkpt>
      <trkpt lat="40.839805" lon="-3.964415">
        <ele>2266.021</ele>
        <time>2021-07-29T10:06:23Z</time>
      </trkpt>
      <trkpt lat="40.839786" lon="-3.964417">
        <ele>2266.191</ele>
        <time>2021-07-29T10:06:25Z</time>
      </trkpt>
      <trkpt lat="40.839766" lon="-3.964424">
        <ele>2266.174</ele>
        <time>2021-07-29T10:06:27Z</time>
      </trkpt>
      <trkpt lat="40.839747" lon="-3.964422">
        <ele>2266.263</ele>
        <time>2021-07-29T10:06:29Z</time>
      </trkpt>
      <trkpt lat="40.839722" lon="-3.964417">
        <ele>2266.343</ele>
        <time>2021-07-29T10:06:32Z</time>
      </trkpt>
      <trkpt lat="40.839699" lon="-3.964420">
        <ele>2266.364</ele>
        <time>2021-07-29T10:06:34Z</time>
      </trkpt>
      <trkpt lat="40.839680" lon="-3.964418">
        <ele>2266.310</ele>
        <time>2021-07-29T10:06:36Z</time>
      </trkpt>
      <trkpt lat="40.839658" lon="-3.964415">
        <ele>2266.308</ele>
        <time>2021-07-29T10:06:38Z</time>
      </trkpt>
      <trkpt lat="40.839635" lon="-3.964417">
        <ele>2266.391</ele>
        <time>2021-07-29T10:06:41Z</time>
      </trkpt>
      <trkpt lat="40.839616" lon="-3.964425">
        <ele>2266.273</ele>
        <time>2021-07-29T10:06:43Z</time>
      </trkpt>
      <trkpt lat="40.839606" lon="-3.964446">
        <ele>2266.050</ele>
        <time>2021-07-29T10:06:45Z</time>
      </trkpt>
      <trkpt lat="40.839590" lon="-3.964470">
        <ele>2265.747</ele>
        <time>2021-07-29T10:06:48Z</time>
      </trkpt>
      <trkpt lat="40.839578" lon="-3.964492">
        <ele>2265.548</ele>
        <time>2021-07-29T10:06:51Z</time>
      </trkpt>
      <trkpt lat="40.839558" lon="-3.964498">
        <ele>2265.418</ele>
        <time>2021-07-29T10:06:53Z</time>
      </trkpt>
      <trkpt lat="40.839536" lon="-3.964515">
        <ele>2265.261</ele>
        <time>2021-07-29T10:06:55Z</time>
      </trkpt>
      <trkpt lat="40.839520" lon="-3.964532">
        <ele>2265.190</ele>
        <time>2021-07-29T10:06:57Z</time>
      </trkpt>
      <trkpt lat="40.839498" lon="-3.964545">
        <ele>2264.991</ele>
        <time>2021-07-29T10:06:59Z</time>
      </trkpt>
      <trkpt lat="40.839478" lon="-3.964555">
        <ele>2264.881</ele>
        <time>2021-07-29T10:07:01Z</time>
      </trkpt>
      <trkpt lat="40.839459" lon="-3.964563">
        <ele>2264.719</ele>
        <time>2021-07-29T10:07:03Z</time>
      </trkpt>
      <trkpt lat="40.839440" lon="-3.964573">
        <ele>2264.608</ele>
        <time>2021-07-29T10:07:05Z</time>
      </trkpt>
      <trkpt lat="40.839418" lon="-3.964590">
        <ele>2264.376</ele>
        <time>2021-07-29T10:07:07Z</time>
      </trkpt>
      <trkpt lat="40.839395" lon="-3.964600">
        <ele>2264.158</ele>
        <time>2021-07-29T10:07:09Z</time>
      </trkpt>
      <trkpt lat="40.839370" lon="-3.964600">
        <ele>2263.975</ele>
        <time>2021-07-29T10:07:11Z</time>
      </trkpt>
      <trkpt lat="40.839347" lon="-3.964602">
        <ele>2263.862</ele>
        <time>2021-07-29T10:07:13Z</time>
      </trkpt>
      <trkpt lat="40.839325" lon="-3.964617">
        <ele>2263.533</ele>
        <time>2021-07-29T10:07:16Z</time>
      </trkpt>
      <trkpt lat="40.839306" lon="-3.964628">
        <ele>2263.383</ele>
        <time>2021-07-29T10:07:18Z</time>
      </trkpt>
      <trkpt lat="40.839286" lon="-3.964650">
        <ele>2263.146</ele>
        <time>2021-07-29T10:07:21Z</time>
      </trkpt>
      <trkpt lat="40.839261" lon="-3.964655">
        <ele>2262.945</ele>
        <time>2021-07-29T10:07:23Z</time>
      </trkpt>
      <trkpt lat="40.839245" lon="-3.964668">
        <ele>2262.783</ele>
        <time>2021-07-29T10:07:25Z</time>
      </trkpt>
      <trkpt lat="40.839229" lon="-3.964685">
        <ele>2262.525</ele>
        <time>2021-07-29T10:07:28Z</time>
      </trkpt>
      <trkpt lat="40.839203" lon="-3.964700">
        <ele>2262.317</ele>
        <time>2021-07-29T10:07:31Z</time>
      </trkpt>
      <trkpt lat="40.839187" lon="-3.964715">
        <ele>2262.108</ele>
        <time>2021-07-29T10:07:33Z</time>
      </trkpt>
      <trkpt lat="40.839171" lon="-3.964740">
        <ele>2261.875</ele>
        <time>2021-07-29T10:07:35Z</time>
      </trkpt>
      <trkpt lat="40.839152" lon="-3.964755">
        <ele>2261.577</ele>
        <time>2021-07-29T10:07:37Z</time>
      </trkpt>
      <trkpt lat="40.839130" lon="-3.964767">
        <ele>2261.384</ele>
        <time>2021-07-29T10:07:39Z</time>
      </trkpt>
      <trkpt lat="40.839104" lon="-3.964774">
        <ele>2261.021</ele>
        <time>2021-07-29T10:07:42Z</time>
      </trkpt>
      <trkpt lat="40.839085" lon="-3.964775">
        <ele>2260.962</ele>
        <time>2021-07-29T10:07:44Z</time>
      </trkpt>
      <trkpt lat="40.839062" lon="-3.964775">
        <ele>2260.792</ele>
        <time>2021-07-29T10:07:46Z</time>
      </trkpt>
      <trkpt lat="40.839040" lon="-3.964783">
        <ele>2260.575</ele>
        <time>2021-07-29T10:07:48Z</time>
      </trkpt>
      <trkpt lat="40.839014" lon="-3.964793">
        <ele>2260.364</ele>
        <time>2021-07-29T10:07:50Z</time>
      </trkpt>
      <trkpt lat="40.838992" lon="-3.964803">
        <ele>2260.188</ele>
        <time>2021-07-29T10:07:52Z</time>
      </trkpt>
      <trkpt lat="40.838970" lon="-3.964813">
        <ele>2259.824</ele>
        <time>2021-07-29T10:07:54Z</time>
      </trkpt>
      <trkpt lat="40.838947" lon="-3.964822">
        <ele>2259.626</ele>
        <time>2021-07-29T10:07:56Z</time>
      </trkpt>
      <trkpt lat="40.838931" lon="-3.964835">
        <ele>2259.408</ele>
        <time>2021-07-29T10:07:58Z</time>
      </trkpt>
      <trkpt lat="40.838906" lon="-3.964845">
        <ele>2259.215</ele>
        <time>2021-07-29T10:08:00Z</time>
      </trkpt>
      <trkpt lat="40.838883" lon="-3.964852">
        <ele>2259.087</ele>
        <time>2021-07-29T10:08:02Z</time>
      </trkpt>
      <trkpt lat="40.838861" lon="-3.964862">
        <ele>2258.554</ele>
        <time>2021-07-29T10:08:04Z</time>
      </trkpt>
      <trkpt lat="40.838835" lon="-3.964875">
        <ele>2258.011</ele>
        <time>2021-07-29T10:08:06Z</time>
      </trkpt>
      <trkpt lat="40.838816" lon="-3.964895">
        <ele>2257.652</ele>
        <time>2021-07-29T10:08:08Z</time>
      </trkpt>
      <trkpt lat="40.838800" lon="-3.964908">
        <ele>2257.392</ele>
        <time>2021-07-29T10:08:10Z</time>
      </trkpt>
      <trkpt lat="40.838774" lon="-3.964920">
        <ele>2256.865</ele>
        <time>2021-07-29T10:08:13Z</time>
      </trkpt>
      <trkpt lat="40.838755" lon="-3.964932">
        <ele>2256.474</ele>
        <time>2021-07-29T10:08:15Z</time>
      </trkpt>
      <trkpt lat="40.838730" lon="-3.964950">
        <ele>2256.016</ele>
        <time>2021-07-29T10:08:18Z</time>
      </trkpt>
      <trkpt lat="40.838707" lon="-3.964955">
        <ele>2255.676</ele>
        <time>2021-07-29T10:08:20Z</time>
      </trkpt>
      <trkpt lat="40.838688" lon="-3.964960">
        <ele>2255.313</ele>
        <time>2021-07-29T10:08:22Z</time>
      </trkpt>
      <trkpt lat="40.838666" lon="-3.964970">
        <ele>2254.908</ele>
        <time>2021-07-29T10:08:24Z</time>
      </trkpt>
      <trkpt lat="40.838637" lon="-3.964978">
        <ele>2254.528</ele>
        <time>2021-07-29T10:08:27Z</time>
      </trkpt>
      <trkpt lat="40.838611" lon="-3.964985">
        <ele>2254.170</ele>
        <time>2021-07-29T10:08:29Z</time>
      </trkpt>
      <trkpt lat="40.838586" lon="-3.964995">
        <ele>2253.787</ele>
        <time>2021-07-29T10:08:31Z</time>
      </trkpt>
      <trkpt lat="40.838557" lon="-3.965002">
        <ele>2253.484</ele>
        <time>2021-07-29T10:08:33Z</time>
      </trkpt>
      <trkpt lat="40.838531" lon="-3.965005">
        <ele>2253.155</ele>
        <time>2021-07-29T10:08:35Z</time>
      </trkpt>
      <trkpt lat="40.838509" lon="-3.965010">
        <ele>2252.965</ele>
        <time>2021-07-29T10:08:37Z</time>
      </trkpt>
      <trkpt lat="40.838486" lon="-3.965012">
        <ele>2252.668</ele>
        <time>2021-07-29T10:08:39Z</time>
      </trkpt>
      <trkpt lat="40.838467" lon="-3.965023">
        <ele>2252.417</ele>
        <time>2021-07-29T10:08:41Z</time>
      </trkpt>
      <trkpt lat="40.838445" lon="-3.965042">
        <ele>2252.119</ele>
        <time>2021-07-29T10:08:43Z</time>
      </trkpt>
      <trkpt lat="40.838429" lon="-3.965057">
        <ele>2251.909</ele>
        <time>2021-07-29T10:08:45Z</time>
      </trkpt>
      <trkpt lat="40.838406" lon="-3.965068">
        <ele>2251.719</ele>
        <time>2021-07-29T10:08:47Z</time>
      </trkpt>
      <trkpt lat="40.838384" lon="-3.965072">
        <ele>2251.508</ele>
        <time>2021-07-29T10:08:49Z</time>
      </trkpt>
      <trkpt lat="40.838358" lon="-3.965080">
        <ele>2251.248</ele>
        <time>2021-07-29T10:08:51Z</time>
      </trkpt>
      <trkpt lat="40.838336" lon="-3.965093">
        <ele>2251.070</ele>
        <time>2021-07-29T10:08:53Z</time>
      </trkpt>
      <trkpt lat="40.838317" lon="-3.965107">
        <ele>2251.027</ele>
        <time>2021-07-29T10:08:55Z</time>
      </trkpt>
      <trkpt lat="40.838298" lon="-3.965124">
        <ele>2251.024</ele>
        <time>2021-07-29T10:08:57Z</time>
      </trkpt>
      <trkpt lat="40.838278" lon="-3.965136">
        <ele>2251.095</ele>
        <time>2021-07-29T10:08:59Z</time>
      </trkpt>
      <trkpt lat="40.838256" lon="-3.965152">
        <ele>2251.035</ele>
        <time>2021-07-29T10:09:01Z</time>
      </trkpt>
      <trkpt lat="40.838234" lon="-3.965168">
        <ele>2251.088</ele>
        <time>2021-07-29T10:09:03Z</time>
      </trkpt>
      <trkpt lat="40.838214" lon="-3.965183">
        <ele>2251.037</ele>
        <time>2021-07-29T10:09:05Z</time>
      </trkpt>
      <trkpt lat="40.838198" lon="-3.965195">
        <ele>2251.033</ele>
        <time>2021-07-29T10:09:07Z</time>
      </trkpt>
      <trkpt lat="40.838176" lon="-3.965205">
        <ele>2251.023</ele>
        <time>2021-07-29T10:09:09Z</time>
      </trkpt>
      <trkpt lat="40.838154" lon="-3.965218">
        <ele>2251.015</ele>
        <time>2021-07-29T10:09:11Z</time>
      </trkpt>
      <trkpt lat="40.838131" lon="-3.965228">
        <ele>2251.008</ele>
        <time>2021-07-29T10:09:13Z</time>
      </trkpt>
      <trkpt lat="40.838112" lon="-3.965243">
        <ele>2251.070</ele>
        <time>2021-07-29T10:09:15Z</time>
      </trkpt>
      <trkpt lat="40.838096" lon="-3.965265">
        <ele>2251.022</ele>
        <time>2021-07-29T10:09:17Z</time>
      </trkpt>
      <trkpt lat="40.838086" lon="-3.965288">
        <ele>2251.099</ele>
        <time>2021-07-29T10:09:19Z</time>
      </trkpt>
      <trkpt lat="40.838067" lon="-3.965307">
        <ele>2250.996</ele>
        <time>2021-07-29T10:09:21Z</time>
      </trkpt>
      <trkpt lat="40.838045" lon="-3.965325">
        <ele>2250.837</ele>
        <time>2021-07-29T10:09:23Z</time>
      </trkpt>
      <trkpt lat="40.838026" lon="-3.965338">
        <ele>2250.827</ele>
        <time>2021-07-29T10:09:25Z</time>
      </trkpt>
      <trkpt lat="40.838010" lon="-3.965350">
        <ele>2250.750</ele>
        <time>2021-07-29T10:09:27Z</time>
      </trkpt>
      <trkpt lat="40.837990" lon="-3.965348">
        <ele>2250.749</ele>
        <time>2021-07-29T10:09:28Z</time>
      </trkpt>
      <trkpt lat="40.837968" lon="-3.965358">
        <ele>2250.766</ele>
        <time>2021-07-29T10:09:30Z</time>
      </trkpt>
      <trkpt lat="40.837946" lon="-3.965353">
        <ele>2250.729</ele>
        <time>2021-07-29T10:09:32Z</time>
      </trkpt>
      <trkpt lat="40.837920" lon="-3.965353">
        <ele>2250.721</ele>
        <time>2021-07-29T10:09:34Z</time>
      </trkpt>
      <trkpt lat="40.837901" lon="-3.965356">
        <ele>2250.708</ele>
        <time>2021-07-29T10:09:36Z</time>
      </trkpt>
      <trkpt lat="40.837882" lon="-3.965360">
        <ele>2250.743</ele>
        <time>2021-07-29T10:09:38Z</time>
      </trkpt>
      <trkpt lat="40.837859" lon="-3.965362">
        <ele>2250.725</ele>
        <time>2021-07-29T10:09:40Z</time>
      </trkpt>
      <trkpt lat="40.837834" lon="-3.965363">
        <ele>2250.732</ele>
        <time>2021-07-29T10:09:42Z</time>
      </trkpt>
      <trkpt lat="40.837814" lon="-3.965373">
        <ele>2250.719</ele>
        <time>2021-07-29T10:09:44Z</time>
      </trkpt>
      <trkpt lat="40.837792" lon="-3.965393">
        <ele>2250.690</ele>
        <time>2021-07-29T10:09:47Z</time>
      </trkpt>
      <trkpt lat="40.837770" lon="-3.965405">
        <ele>2250.650</ele>
        <time>2021-07-29T10:09:50Z</time>
      </trkpt>
      <trkpt lat="40.837750" lon="-3.965422">
        <ele>2250.583</ele>
        <time>2021-07-29T10:09:52Z</time>
      </trkpt>
      <trkpt lat="40.837731" lon="-3.965435">
        <ele>2250.592</ele>
        <time>2021-07-29T10:09:54Z</time>
      </trkpt>
      <trkpt lat="40.837702" lon="-3.965450">
        <ele>2250.551</ele>
        <time>2021-07-29T10:09:58Z</time>
      </trkpt>
      <trkpt lat="40.837677" lon="-3.965453">
        <ele>2250.601</ele>
        <time>2021-07-29T10:10:00Z</time>
      </trkpt>
      <trkpt lat="40.837658" lon="-3.965452">
        <ele>2250.611</ele>
        <time>2021-07-29T10:10:02Z</time>
      </trkpt>
      <trkpt lat="40.837635" lon="-3.965448">
        <ele>2250.708</ele>
        <time>2021-07-29T10:10:04Z</time>
      </trkpt>
      <trkpt lat="40.837613" lon="-3.965440">
        <ele>2250.882</ele>
        <time>2021-07-29T10:10:06Z</time>
      </trkpt>
      <trkpt lat="40.837590" lon="-3.965437">
        <ele>2250.894</ele>
        <time>2021-07-29T10:10:08Z</time>
      </trkpt>
      <trkpt lat="40.837565" lon="-3.965440">
        <ele>2250.991</ele>
        <time>2021-07-29T10:10:10Z</time>
      </trkpt>
      <trkpt lat="40.837533" lon="-3.965445">
        <ele>2250.998</ele>
        <time>2021-07-29T10:10:13Z</time>
      </trkpt>
      <trkpt lat="40.837510" lon="-3.965442">
        <ele>2251.099</ele>
        <time>2021-07-29T10:10:15Z</time>
      </trkpt>
      <trkpt lat="40.837485" lon="-3.965443">
        <ele>2251.179</ele>
        <time>2021-07-29T10:10:17Z</time>
      </trkpt>
      <trkpt lat="40.837462" lon="-3.965440">
        <ele>2251.382</ele>
        <time>2021-07-29T10:10:19Z</time>
      </trkpt>
      <trkpt lat="40.837437" lon="-3.965435">
        <ele>2251.591</ele>
        <time>2021-07-29T10:10:21Z</time>
      </trkpt>
      <trkpt lat="40.837411" lon="-3.965430">
        <ele>2251.783</ele>
        <time>2021-07-29T10:10:23Z</time>
      </trkpt>
      <trkpt lat="40.837382" lon="-3.965427">
        <ele>2251.925</ele>
        <time>2021-07-29T10:10:25Z</time>
      </trkpt>
      <trkpt lat="40.837363" lon="-3.965425">
        <ele>2252.017</ele>
        <time>2021-07-29T10:10:27Z</time>
      </trkpt>
      <trkpt lat="40.837341" lon="-3.965428">
        <ele>2252.208</ele>
        <time>2021-07-29T10:10:29Z</time>
      </trkpt>
      <trkpt lat="40.837318" lon="-3.965433">
        <ele>2252.445</ele>
        <time>2021-07-29T10:10:31Z</time>
      </trkpt>
      <trkpt lat="40.837296" lon="-3.965435">
        <ele>2252.697</ele>
        <time>2021-07-29T10:10:33Z</time>
      </trkpt>
      <trkpt lat="40.837274" lon="-3.965447">
        <ele>2252.834</ele>
        <time>2021-07-29T10:10:35Z</time>
      </trkpt>
      <trkpt lat="40.837245" lon="-3.965447">
        <ele>2253.071</ele>
        <time>2021-07-29T10:10:37Z</time>
      </trkpt>
      <trkpt lat="40.837222" lon="-3.965450">
        <ele>2253.242</ele>
        <time>2021-07-29T10:10:39Z</time>
      </trkpt>
      <trkpt lat="40.837200" lon="-3.965443">
        <ele>2253.522</ele>
        <time>2021-07-29T10:10:42Z</time>
      </trkpt>
      <trkpt lat="40.837178" lon="-3.965445">
        <ele>2253.835</ele>
        <time>2021-07-29T10:10:44Z</time>
      </trkpt>
      <trkpt lat="40.837152" lon="-3.965452">
        <ele>2254.214</ele>
        <time>2021-07-29T10:10:46Z</time>
      </trkpt>
      <trkpt lat="40.837126" lon="-3.965452">
        <ele>2254.515</ele>
        <time>2021-07-29T10:10:48Z</time>
      </trkpt>
      <trkpt lat="40.837104" lon="-3.965452">
        <ele>2254.865</ele>
        <time>2021-07-29T10:10:50Z</time>
      </trkpt>
      <trkpt lat="40.837085" lon="-3.965452">
        <ele>2255.011</ele>
        <time>2021-07-29T10:10:52Z</time>
      </trkpt>
      <trkpt lat="40.837066" lon="-3.965460">
        <ele>2255.408</ele>
        <time>2021-07-29T10:10:54Z</time>
      </trkpt>
      <trkpt lat="40.837040" lon="-3.965460">
        <ele>2255.758</ele>
        <time>2021-07-29T10:10:56Z</time>
      </trkpt>
      <trkpt lat="40.837014" lon="-3.965462">
        <ele>2256.160</ele>
        <time>2021-07-29T10:10:59Z</time>
      </trkpt>
      <trkpt lat="40.836989" lon="-3.965463">
        <ele>2256.427</ele>
        <time>2021-07-29T10:11:01Z</time>
      </trkpt>
      <trkpt lat="40.836960" lon="-3.965472">
        <ele>2256.974</ele>
        <time>2021-07-29T10:11:04Z</time>
      </trkpt>
      <trkpt lat="40.836938" lon="-3.965482">
        <ele>2257.335</ele>
        <time>2021-07-29T10:11:06Z</time>
      </trkpt>
      <trkpt lat="40.836922" lon="-3.965495">
        <ele>2257.615</ele>
        <time>2021-07-29T10:11:08Z</time>
      </trkpt>
      <trkpt lat="40.836899" lon="-3.965513">
        <ele>2257.978</ele>
        <time>2021-07-29T10:11:10Z</time>
      </trkpt>
      <trkpt lat="40.836883" lon="-3.965526">
        <ele>2258.257</ele>
        <time>2021-07-29T10:11:12Z</time>
      </trkpt>
      <trkpt lat="40.836858" lon="-3.965542">
        <ele>2258.552</ele>
        <time>2021-07-29T10:11:15Z</time>
      </trkpt>
      <trkpt lat="40.836842" lon="-3.965553">
        <ele>2258.753</ele>
        <time>2021-07-29T10:11:17Z</time>
      </trkpt>
      <trkpt lat="40.836819" lon="-3.965565">
        <ele>2258.908</ele>
        <time>2021-07-29T10:11:19Z</time>
      </trkpt>
      <trkpt lat="40.836800" lon="-3.965580">
        <ele>2259.008</ele>
        <time>2021-07-29T10:11:21Z</time>
      </trkpt>
      <trkpt lat="40.836781" lon="-3.965592">
        <ele>2259.222</ele>
        <time>2021-07-29T10:11:23Z</time>
      </trkpt>
      <trkpt lat="40.836758" lon="-3.965600">
        <ele>2259.374</ele>
        <time>2021-07-29T10:11:26Z</time>
      </trkpt>
      <trkpt lat="40.836739" lon="-3.965608">
        <ele>2259.551</ele>
        <time>2021-07-29T10:11:28Z</time>
      </trkpt>
      <trkpt lat="40.836710" lon="-3.965613">
        <ele>2259.798</ele>
        <time>2021-07-29T10:11:31Z</time>
      </trkpt>
      <trkpt lat="40.836685" lon="-3.965615">
        <ele>2259.949</ele>
        <time>2021-07-29T10:11:34Z</time>
      </trkpt>
      <trkpt lat="40.836666" lon="-3.965617">
        <ele>2260.029</ele>
        <time>2021-07-29T10:11:36Z</time>
      </trkpt>
      <trkpt lat="40.836646" lon="-3.965618">
        <ele>2260.052</ele>
        <time>2021-07-29T10:11:38Z</time>
      </trkpt>
      <trkpt lat="40.836627" lon="-3.965625">
        <ele>2260.051</ele>
        <time>2021-07-29T10:11:40Z</time>
      </trkpt>
      <trkpt lat="40.836608" lon="-3.965630">
        <ele>2260.097</ele>
        <time>2021-07-29T10:11:42Z</time>
      </trkpt>
      <trkpt lat="40.836589" lon="-3.965637">
        <ele>2260.023</ele>
        <time>2021-07-29T10:11:44Z</time>
      </trkpt>
      <trkpt lat="40.836566" lon="-3.965640">
        <ele>2260.025</ele>
        <time>2021-07-29T10:11:46Z</time>
      </trkpt>
      <trkpt lat="40.836547" lon="-3.965638">
        <ele>2260.008</ele>
        <time>2021-07-29T10:11:48Z</time>
      </trkpt>
      <trkpt lat="40.836528" lon="-3.965633">
        <ele>2260.016</ele>
        <time>2021-07-29T10:11:50Z</time>
      </trkpt>
      <trkpt lat="40.836506" lon="-3.965625">
        <ele>2260.058</ele>
        <time>2021-07-29T10:11:53Z</time>
      </trkpt>
      <trkpt lat="40.836483" lon="-3.965615">
        <ele>2260.025</ele>
        <time>2021-07-29T10:11:56Z</time>
      </trkpt>
      <trkpt lat="40.836464" lon="-3.965607">
        <ele>2260.092</ele>
        <time>2021-07-29T10:11:58Z</time>
      </trkpt>
      <trkpt lat="40.836442" lon="-3.965605">
        <ele>2260.033</ele>
        <time>2021-07-29T10:12:01Z</time>
      </trkpt>
      <trkpt lat="40.836419" lon="-3.965598">
        <ele>2260.083</ele>
        <time>2021-07-29T10:12:03Z</time>
      </trkpt>
      <trkpt lat="40.836400" lon="-3.965583">
        <ele>2260.076</ele>
        <time>2021-07-29T10:12:05Z</time>
      </trkpt>
      <trkpt lat="40.836371" lon="-3.965578">
        <ele>2260.055</ele>
        <time>2021-07-29T10:12:07Z</time>
      </trkpt>
      <trkpt lat="40.836349" lon="-3.965577">
        <ele>2260.021</ele>
        <time>2021-07-29T10:12:09Z</time>
      </trkpt>
      <trkpt lat="40.836330" lon="-3.965570">
        <ele>2260.041</ele>
        <time>2021-07-29T10:12:11Z</time>
      </trkpt>
      <trkpt lat="40.836307" lon="-3.965563">
        <ele>2260.005</ele>
        <time>2021-07-29T10:12:13Z</time>
      </trkpt>
      <trkpt lat="40.836285" lon="-3.965557">
        <ele>2260.008</ele>
        <time>2021-07-29T10:12:15Z</time>
      </trkpt>
      <trkpt lat="40.836262" lon="-3.965543">
        <ele>2260.019</ele>
        <time>2021-07-29T10:12:17Z</time>
      </trkpt>
      <trkpt lat="40.836240" lon="-3.965538">
        <ele>2260.031</ele>
        <time>2021-07-29T10:12:19Z</time>
      </trkpt>
      <trkpt lat="40.836214" lon="-3.965530">
        <ele>2260.038</ele>
        <time>2021-07-29T10:12:21Z</time>
      </trkpt>
      <trkpt lat="40.836192" lon="-3.965515">
        <ele>2260.085</ele>
        <time>2021-07-29T10:12:23Z</time>
      </trkpt>
      <trkpt lat="40.836173" lon="-3.965516">
        <ele>2260.036</ele>
        <time>2021-07-29T10:12:25Z</time>
      </trkpt>
      <trkpt lat="40.836154" lon="-3.965518">
        <ele>2260.056</ele>
        <time>2021-07-29T10:12:27Z</time>
      </trkpt>
      <trkpt lat="40.836128" lon="-3.965526">
        <ele>2260.029</ele>
        <time>2021-07-29T10:12:29Z</time>
      </trkpt>
      <trkpt lat="40.836109" lon="-3.965533">
        <ele>2260.068</ele>
        <time>2021-07-29T10:12:31Z</time>
      </trkpt>
      <trkpt lat="40.836086" lon="-3.965536">
        <ele>2260.081</ele>
        <time>2021-07-29T10:12:33Z</time>
      </trkpt>
      <trkpt lat="40.836064" lon="-3.965543">
        <ele>2260.061</ele>
        <time>2021-07-29T10:12:35Z</time>
      </trkpt>
      <trkpt lat="40.836035" lon="-3.965553">
        <ele>2260.017</ele>
        <time>2021-07-29T10:12:37Z</time>
      </trkpt>
      <trkpt lat="40.836010" lon="-3.965563">
        <ele>2260.008</ele>
        <time>2021-07-29T10:12:39Z</time>
      </trkpt>
      <trkpt lat="40.835990" lon="-3.965560">
        <ele>2260.055</ele>
        <time>2021-07-29T10:12:41Z</time>
      </trkpt>
      <trkpt lat="40.835968" lon="-3.965562">
        <ele>2260.097</ele>
        <time>2021-07-29T10:12:43Z</time>
      </trkpt>
      <trkpt lat="40.835942" lon="-3.965560">
        <ele>2260.044</ele>
        <time>2021-07-29T10:12:45Z</time>
      </trkpt>
      <trkpt lat="40.835914" lon="-3.965557">
        <ele>2260.081</ele>
        <time>2021-07-29T10:12:47Z</time>
      </trkpt>
      <trkpt lat="40.835894" lon="-3.965553">
        <ele>2260.052</ele>
        <time>2021-07-29T10:12:48Z</time>
      </trkpt>
      <trkpt lat="40.835869" lon="-3.965550">
        <ele>2260.092</ele>
        <time>2021-07-29T10:12:50Z</time>
      </trkpt>
      <trkpt lat="40.835846" lon="-3.965552">
        <ele>2260.095</ele>
        <time>2021-07-29T10:12:52Z</time>
      </trkpt>
      <trkpt lat="40.835827" lon="-3.965560">
        <ele>2260.014</ele>
        <time>2021-07-29T10:12:54Z</time>
      </trkpt>
      <trkpt lat="40.835805" lon="-3.965567">
        <ele>2260.059</ele>
        <time>2021-07-29T10:12:56Z</time>
      </trkpt>
      <trkpt lat="40.835786" lon="-3.965567">
        <ele>2260.003</ele>
        <time>2021-07-29T10:12:58Z</time>
      </trkpt>
      <trkpt lat="40.835757" lon="-3.965563">
        <ele>2260.023</ele>
        <time>2021-07-29T10:13:00Z</time>
      </trkpt>
      <trkpt lat="40.835734" lon="-3.965543">
        <ele>2260.008</ele>
        <time>2021-07-29T10:13:02Z</time>
      </trkpt>
      <trkpt lat="40.835722" lon="-3.965525">
        <ele>2260.042</ele>
        <time>2021-07-29T10:13:04Z</time>
      </trkpt>
      <trkpt lat="40.835702" lon="-3.965512">
        <ele>2260.084</ele>
        <time>2021-07-29T10:13:06Z</time>
      </trkpt>
      <trkpt lat="40.835677" lon="-3.965493">
        <ele>2260.091</ele>
        <time>2021-07-29T10:13:08Z</time>
      </trkpt>
      <trkpt lat="40.835651" lon="-3.965482">
        <ele>2260.028</ele>
        <time>2021-07-29T10:13:10Z</time>
      </trkpt>
      <trkpt lat="40.835629" lon="-3.965474">
        <ele>2260.059</ele>
        <time>2021-07-29T10:13:12Z</time>
      </trkpt>
      <trkpt lat="40.835603" lon="-3.965463">
        <ele>2260.049</ele>
        <time>2021-07-29T10:13:14Z</time>
      </trkpt>
      <trkpt lat="40.835584" lon="-3.965452">
        <ele>2260.082</ele>
        <time>2021-07-29T10:13:16Z</time>
      </trkpt>
      <trkpt lat="40.835558" lon="-3.965438">
        <ele>2260.061</ele>
        <time>2021-07-29T10:13:18Z</time>
      </trkpt>
      <trkpt lat="40.835533" lon="-3.965420">
        <ele>2260.056</ele>
        <time>2021-07-29T10:13:21Z</time>
      </trkpt>
      <trkpt lat="40.835510" lon="-3.965395">
        <ele>2260.059</ele>
        <time>2021-07-29T10:13:24Z</time>
      </trkpt>
      <trkpt lat="40.835491" lon="-3.965378">
        <ele>2260.014</ele>
        <time>2021-07-29T10:13:26Z</time>
      </trkpt>
      <trkpt lat="40.835469" lon="-3.965375">
        <ele>2260.008</ele>
        <time>2021-07-29T10:13:28Z</time>
      </trkpt>
      <trkpt lat="40.835453" lon="-3.965353">
        <ele>2260.022</ele>
        <time>2021-07-29T10:13:30Z</time>
      </trkpt>
      <trkpt lat="40.835437" lon="-3.965327">
        <ele>2260.034</ele>
        <time>2021-07-29T10:13:32Z</time>
      </trkpt>
      <trkpt lat="40.835418" lon="-3.965294">
        <ele>2260.061</ele>
        <time>2021-07-29T10:13:34Z</time>
      </trkpt>
      <trkpt lat="40.835398" lon="-3.965262">
        <ele>2259.928</ele>
        <time>2021-07-29T10:13:36Z</time>
      </trkpt>
      <trkpt lat="40.835392" lon="-3.965225">
        <ele>2259.769</ele>
        <time>2021-07-29T10:13:39Z</time>
      </trkpt>
      <trkpt lat="40.835389" lon="-3.965192">
        <ele>2259.589</ele>
        <time>2021-07-29T10:13:41Z</time>
      </trkpt>
      <trkpt lat="40.835386" lon="-3.965160">
        <ele>2259.392</ele>
        <time>2021-07-29T10:13:43Z</time>
      </trkpt>
      <trkpt lat="40.835376" lon="-3.965136">
        <ele>2259.341</ele>
        <time>2021-07-29T10:13:45Z</time>
      </trkpt>
      <trkpt lat="40.835379" lon="-3.965108">
        <ele>2259.188</ele>
        <time>2021-07-29T10:13:58Z</time>
      </trkpt>
      <trkpt lat="40.835366" lon="-3.965085">
        <ele>2259.124</ele>
        <time>2021-07-29T10:14:00Z</time>
      </trkpt>
      <trkpt lat="40.835350" lon="-3.965070">
        <ele>2259.226</ele>
        <time>2021-07-29T10:14:02Z</time>
      </trkpt>
      <trkpt lat="40.835328" lon="-3.965060">
        <ele>2259.408</ele>
        <time>2021-07-29T10:14:04Z</time>
      </trkpt>
      <trkpt lat="40.835309" lon="-3.965043">
        <ele>2259.665</ele>
        <time>2021-07-29T10:14:07Z</time>
      </trkpt>
      <trkpt lat="40.835293" lon="-3.965028">
        <ele>2259.887</ele>
        <time>2021-07-29T10:14:09Z</time>
      </trkpt>
      <trkpt lat="40.835280" lon="-3.965012">
        <ele>2260.024</ele>
        <time>2021-07-29T10:14:17Z</time>
      </trkpt>
      <trkpt lat="40.835267" lon="-3.964992">
        <ele>2259.941</ele>
        <time>2021-07-29T10:14:22Z</time>
      </trkpt>
      <trkpt lat="40.835238" lon="-3.964984">
        <ele>2259.952</ele>
        <time>2021-07-29T10:14:25Z</time>
      </trkpt>
      <trkpt lat="40.835216" lon="-3.964978">
        <ele>2259.832</ele>
        <time>2021-07-29T10:14:27Z</time>
      </trkpt>
      <trkpt lat="40.835194" lon="-3.964967">
        <ele>2259.765</ele>
        <time>2021-07-29T10:14:29Z</time>
      </trkpt>
      <trkpt lat="40.835168" lon="-3.964964">
        <ele>2259.764</ele>
        <time>2021-07-29T10:14:32Z</time>
      </trkpt>
      <trkpt lat="40.835139" lon="-3.964958">
        <ele>2259.647</ele>
        <time>2021-07-29T10:14:34Z</time>
      </trkpt>
      <trkpt lat="40.835114" lon="-3.964948">
        <ele>2259.529</ele>
        <time>2021-07-29T10:14:36Z</time>
      </trkpt>
      <trkpt lat="40.835094" lon="-3.964958">
        <ele>2259.621</ele>
        <time>2021-07-29T10:14:38Z</time>
      </trkpt>
      <trkpt lat="40.835072" lon="-3.964978">
        <ele>2259.808</ele>
        <time>2021-07-29T10:14:43Z</time>
      </trkpt>
      <trkpt lat="40.835050" lon="-3.964964">
        <ele>2259.681</ele>
        <time>2021-07-29T10:15:09Z</time>
      </trkpt>
      <trkpt lat="40.835027" lon="-3.964962">
        <ele>2259.613</ele>
        <time>2021-07-29T10:15:11Z</time>
      </trkpt>
      <trkpt lat="40.834995" lon="-3.964955">
        <ele>2259.510</ele>
        <time>2021-07-29T10:15:13Z</time>
      </trkpt>
      <trkpt lat="40.834970" lon="-3.964947">
        <ele>2259.417</ele>
        <time>2021-07-29T10:15:15Z</time>
      </trkpt>
      <trkpt lat="40.834941" lon="-3.964938">
        <ele>2259.388</ele>
        <time>2021-07-29T10:15:17Z</time>
      </trkpt>
      <trkpt lat="40.834918" lon="-3.964940">
        <ele>2259.348</ele>
        <time>2021-07-29T10:15:21Z</time>
      </trkpt>
      <trkpt lat="40.834899" lon="-3.964930">
        <ele>2259.211</ele>
        <time>2021-07-29T10:15:23Z</time>
      </trkpt>
      <trkpt lat="40.834880" lon="-3.964925">
        <ele>2259.120</ele>
        <time>2021-07-29T10:15:25Z</time>
      </trkpt>
      <trkpt lat="40.834858" lon="-3.964925">
        <ele>2259.171</ele>
        <time>2021-07-29T10:15:27Z</time>
      </trkpt>
      <trkpt lat="40.834832" lon="-3.964920">
        <ele>2259.041</ele>
        <time>2021-07-29T10:15:29Z</time>
      </trkpt>
      <trkpt lat="40.834803" lon="-3.964915">
        <ele>2258.915</ele>
        <time>2021-07-29T10:15:31Z</time>
      </trkpt>
      <trkpt lat="40.834781" lon="-3.964913">
        <ele>2258.808</ele>
        <time>2021-07-29T10:15:33Z</time>
      </trkpt>
      <trkpt lat="40.834755" lon="-3.964895">
        <ele>2258.534</ele>
        <time>2021-07-29T10:15:36Z</time>
      </trkpt>
      <trkpt lat="40.834730" lon="-3.964882">
        <ele>2258.396</ele>
        <time>2021-07-29T10:15:38Z</time>
      </trkpt>
      <trkpt lat="40.834704" lon="-3.964868">
        <ele>2258.033</ele>
        <time>2021-07-29T10:15:40Z</time>
      </trkpt>
      <trkpt lat="40.834678" lon="-3.964872">
        <ele>2257.820</ele>
        <time>2021-07-29T10:15:42Z</time>
      </trkpt>
      <trkpt lat="40.834656" lon="-3.964868">
        <ele>2257.651</ele>
        <time>2021-07-29T10:15:44Z</time>
      </trkpt>
      <trkpt lat="40.834634" lon="-3.964867">
        <ele>2257.431</ele>
        <time>2021-07-29T10:15:46Z</time>
      </trkpt>
      <trkpt lat="40.834611" lon="-3.964873">
        <ele>2257.434</ele>
        <time>2021-07-29T10:15:48Z</time>
      </trkpt>
      <trkpt lat="40.834579" lon="-3.964877">
        <ele>2257.253</ele>
        <time>2021-07-29T10:15:50Z</time>
      </trkpt>
      <trkpt lat="40.834557" lon="-3.964875">
        <ele>2257.012</ele>
        <time>2021-07-29T10:15:52Z</time>
      </trkpt>
      <trkpt lat="40.834534" lon="-3.964880">
        <ele>2256.932</ele>
        <time>2021-07-29T10:15:54Z</time>
      </trkpt>
      <trkpt lat="40.834502" lon="-3.964888">
        <ele>2256.805</ele>
        <time>2021-07-29T10:15:57Z</time>
      </trkpt>
      <trkpt lat="40.834474" lon="-3.964892">
        <ele>2256.708</ele>
        <time>2021-07-29T10:15:59Z</time>
      </trkpt>
      <trkpt lat="40.834445" lon="-3.964892">
        <ele>2256.438</ele>
        <time>2021-07-29T10:16:01Z</time>
      </trkpt>
      <trkpt lat="40.834426" lon="-3.964888">
        <ele>2256.110</ele>
        <time>2021-07-29T10:16:03Z</time>
      </trkpt>
      <trkpt lat="40.834406" lon="-3.964895">
        <ele>2255.837</ele>
        <time>2021-07-29T10:16:05Z</time>
      </trkpt>
      <trkpt lat="40.834384" lon="-3.964905">
        <ele>2255.654</ele>
        <time>2021-07-29T10:16:07Z</time>
      </trkpt>
      <trkpt lat="40.834365" lon="-3.964905">
        <ele>2255.345</ele>
        <time>2021-07-29T10:16:09Z</time>
      </trkpt>
      <trkpt lat="40.834346" lon="-3.964898">
        <ele>2254.945</ele>
        <time>2021-07-29T10:16:11Z</time>
      </trkpt>
      <trkpt lat="40.834323" lon="-3.964877">
        <ele>2254.268</ele>
        <time>2021-07-29T10:16:13Z</time>
      </trkpt>
      <trkpt lat="40.834307" lon="-3.964858">
        <ele>2253.727</ele>
        <time>2021-07-29T10:16:15Z</time>
      </trkpt>
      <trkpt lat="40.834301" lon="-3.964835">
        <ele>2253.318</ele>
        <time>2021-07-29T10:16:18Z</time>
      </trkpt>
      <trkpt lat="40.834285" lon="-3.964818">
        <ele>2252.998</ele>
        <time>2021-07-29T10:16:21Z</time>
      </trkpt>
      <trkpt lat="40.834272" lon="-3.964790">
        <ele>2252.317</ele>
        <time>2021-07-29T10:16:25Z</time>
      </trkpt>
      <trkpt lat="40.834256" lon="-3.964778">
        <ele>2252.008</ele>
        <time>2021-07-29T10:16:27Z</time>
      </trkpt>
      <trkpt lat="40.834240" lon="-3.964758">
        <ele>2251.558</ele>
        <time>2021-07-29T10:16:29Z</time>
      </trkpt>
      <trkpt lat="40.834224" lon="-3.964745">
        <ele>2251.150</ele>
        <time>2021-07-29T10:16:31Z</time>
      </trkpt>
      <trkpt lat="40.834208" lon="-3.964727">
        <ele>2250.627</ele>
        <time>2021-07-29T10:16:33Z</time>
      </trkpt>
      <trkpt lat="40.834195" lon="-3.964710">
        <ele>2250.284</ele>
        <time>2021-07-29T10:16:35Z</time>
      </trkpt>
      <trkpt lat="40.834176" lon="-3.964693">
        <ele>2249.625</ele>
        <time>2021-07-29T10:16:41Z</time>
      </trkpt>
      <trkpt lat="40.834147" lon="-3.964682">
        <ele>2249.025</ele>
        <time>2021-07-29T10:16:44Z</time>
      </trkpt>
      <trkpt lat="40.834125" lon="-3.964677">
        <ele>2248.638</ele>
        <time>2021-07-29T10:16:46Z</time>
      </trkpt>
      <trkpt lat="40.834102" lon="-3.964667">
        <ele>2248.167</ele>
        <time>2021-07-29T10:16:49Z</time>
      </trkpt>
      <trkpt lat="40.834083" lon="-3.964668">
        <ele>2247.939</ele>
        <time>2021-07-29T10:16:51Z</time>
      </trkpt>
      <trkpt lat="40.834058" lon="-3.964668">
        <ele>2247.501</ele>
        <time>2021-07-29T10:16:54Z</time>
      </trkpt>
      <trkpt lat="40.834038" lon="-3.964665">
        <ele>2247.221</ele>
        <time>2021-07-29T10:16:56Z</time>
      </trkpt>
      <trkpt lat="40.834019" lon="-3.964663">
        <ele>2246.908</ele>
        <time>2021-07-29T10:16:58Z</time>
      </trkpt>
      <trkpt lat="40.833994" lon="-3.964670">
        <ele>2246.750</ele>
        <time>2021-07-29T10:17:01Z</time>
      </trkpt>
      <trkpt lat="40.833974" lon="-3.964673">
        <ele>2246.522</ele>
        <time>2021-07-29T10:17:03Z</time>
      </trkpt>
      <trkpt lat="40.833946" lon="-3.964687">
        <ele>2246.389</ele>
        <time>2021-07-29T10:17:06Z</time>
      </trkpt>
      <trkpt lat="40.833923" lon="-3.964700">
        <ele>2246.296</ele>
        <time>2021-07-29T10:17:09Z</time>
      </trkpt>
      <trkpt lat="40.833904" lon="-3.964707">
        <ele>2246.017</ele>
        <time>2021-07-29T10:17:11Z</time>
      </trkpt>
      <trkpt lat="40.833885" lon="-3.964717">
        <ele>2245.877</ele>
        <time>2021-07-29T10:17:13Z</time>
      </trkpt>
      <trkpt lat="40.833869" lon="-3.964728">
        <ele>2245.410</ele>
        <time>2021-07-29T10:17:15Z</time>
      </trkpt>
      <trkpt lat="40.833850" lon="-3.964737">
        <ele>2244.849</ele>
        <time>2021-07-29T10:17:17Z</time>
      </trkpt>
      <trkpt lat="40.833827" lon="-3.964752">
        <ele>2244.264</ele>
        <time>2021-07-29T10:17:20Z</time>
      </trkpt>
      <trkpt lat="40.833805" lon="-3.964765">
        <ele>2243.506</ele>
        <time>2021-07-29T10:17:22Z</time>
      </trkpt>
      <trkpt lat="40.833789" lon="-3.964778">
        <ele>2243.116</ele>
        <time>2021-07-29T10:17:24Z</time>
      </trkpt>
      <trkpt lat="40.833770" lon="-3.964795">
        <ele>2242.508</ele>
        <time>2021-07-29T10:17:26Z</time>
      </trkpt>
      <trkpt lat="40.833757" lon="-3.964822">
        <ele>2242.363</ele>
        <time>2021-07-29T10:17:29Z</time>
      </trkpt>
      <trkpt lat="40.833741" lon="-3.964840">
        <ele>2241.975</ele>
        <time>2021-07-29T10:17:31Z</time>
      </trkpt>
      <trkpt lat="40.833725" lon="-3.964857">
        <ele>2241.532</ele>
        <time>2021-07-29T10:17:33Z</time>
      </trkpt>
      <trkpt lat="40.833709" lon="-3.964873">
        <ele>2241.089</ele>
        <time>2021-07-29T10:17:36Z</time>
      </trkpt>
      <trkpt lat="40.833696" lon="-3.964892">
        <ele>2240.720</ele>
        <time>2021-07-29T10:17:39Z</time>
      </trkpt>
      <trkpt lat="40.833680" lon="-3.964905">
        <ele>2240.180</ele>
        <time>2021-07-29T10:17:41Z</time>
      </trkpt>
      <trkpt lat="40.833661" lon="-3.964922">
        <ele>2239.513</ele>
        <time>2021-07-29T10:17:44Z</time>
      </trkpt>
      <trkpt lat="40.833642" lon="-3.964944">
        <ele>2238.922</ele>
        <time>2021-07-29T10:17:47Z</time>
      </trkpt>
      <trkpt lat="40.833626" lon="-3.964958">
        <ele>2238.343</ele>
        <time>2021-07-29T10:17:49Z</time>
      </trkpt>
      <trkpt lat="40.833613" lon="-3.964975">
        <ele>2237.964</ele>
        <time>2021-07-29T10:17:51Z</time>
      </trkpt>
      <trkpt lat="40.833590" lon="-3.964998">
        <ele>2237.410</ele>
        <time>2021-07-29T10:17:54Z</time>
      </trkpt>
      <trkpt lat="40.833571" lon="-3.965023">
        <ele>2237.008</ele>
        <time>2021-07-29T10:17:57Z</time>
      </trkpt>
      <trkpt lat="40.833558" lon="-3.965048">
        <ele>2236.861</ele>
        <time>2021-07-29T10:18:00Z</time>
      </trkpt>
      <trkpt lat="40.833546" lon="-3.965065">
        <ele>2236.563</ele>
        <time>2021-07-29T10:18:02Z</time>
      </trkpt>
      <trkpt lat="40.833530" lon="-3.965085">
        <ele>2236.170</ele>
        <time>2021-07-29T10:18:05Z</time>
      </trkpt>
      <trkpt lat="40.833514" lon="-3.965103">
        <ele>2235.747</ele>
        <time>2021-07-29T10:18:08Z</time>
      </trkpt>
      <trkpt lat="40.833498" lon="-3.965122">
        <ele>2235.338</ele>
        <time>2021-07-29T10:18:11Z</time>
      </trkpt>
      <trkpt lat="40.833485" lon="-3.965145">
        <ele>2234.918</ele>
        <time>2021-07-29T10:18:14Z</time>
      </trkpt>
      <trkpt lat="40.833478" lon="-3.965168">
        <ele>2234.841</ele>
        <time>2021-07-29T10:18:16Z</time>
      </trkpt>
      <trkpt lat="40.833462" lon="-3.965183">
        <ele>2234.360</ele>
        <time>2021-07-29T10:18:18Z</time>
      </trkpt>
      <trkpt lat="40.833446" lon="-3.965195">
        <ele>2233.857</ele>
        <time>2021-07-29T10:18:20Z</time>
      </trkpt>
      <trkpt lat="40.833430" lon="-3.965207">
        <ele>2233.300</ele>
        <time>2021-07-29T10:18:22Z</time>
      </trkpt>
      <trkpt lat="40.833411" lon="-3.965220">
        <ele>2232.720</ele>
        <time>2021-07-29T10:18:25Z</time>
      </trkpt>
      <trkpt lat="40.833389" lon="-3.965237">
        <ele>2231.908</ele>
        <time>2021-07-29T10:18:28Z</time>
      </trkpt>
      <trkpt lat="40.833370" lon="-3.965262">
        <ele>2231.382</ele>
        <time>2021-07-29T10:18:31Z</time>
      </trkpt>
      <trkpt lat="40.833354" lon="-3.965278">
        <ele>2230.774</ele>
        <time>2021-07-29T10:18:33Z</time>
      </trkpt>
      <trkpt lat="40.833331" lon="-3.965300">
        <ele>2229.971</ele>
        <time>2021-07-29T10:18:36Z</time>
      </trkpt>
      <trkpt lat="40.833318" lon="-3.965318">
        <ele>2229.558</ele>
        <time>2021-07-29T10:18:38Z</time>
      </trkpt>
      <trkpt lat="40.833302" lon="-3.965334">
        <ele>2229.029</ele>
        <time>2021-07-29T10:18:40Z</time>
      </trkpt>
      <trkpt lat="40.833286" lon="-3.965358">
        <ele>2228.549</ele>
        <time>2021-07-29T10:18:43Z</time>
      </trkpt>
      <trkpt lat="40.833267" lon="-3.965383">
        <ele>2227.982</ele>
        <time>2021-07-29T10:18:46Z</time>
      </trkpt>
      <trkpt lat="40.833248" lon="-3.965407">
        <ele>2227.211</ele>
        <time>2021-07-29T10:18:49Z</time>
      </trkpt>
      <trkpt lat="40.833232" lon="-3.965423">
        <ele>2226.746</ele>
        <time>2021-07-29T10:18:51Z</time>
      </trkpt>
      <trkpt lat="40.833222" lon="-3.965448">
        <ele>2226.488</ele>
        <time>2021-07-29T10:18:54Z</time>
      </trkpt>
      <trkpt lat="40.833210" lon="-3.965465">
        <ele>2226.016</ele>
        <time>2021-07-29T10:18:56Z</time>
      </trkpt>
      <trkpt lat="40.833194" lon="-3.965488">
        <ele>2225.508</ele>
        <time>2021-07-29T10:18:58Z</time>
      </trkpt>
      <trkpt lat="40.833181" lon="-3.965512">
        <ele>2225.191</ele>
        <time>2021-07-29T10:19:00Z</time>
      </trkpt>
      <trkpt lat="40.833168" lon="-3.965528">
        <ele>2224.633</ele>
        <time>2021-07-29T10:19:02Z</time>
      </trkpt>
      <trkpt lat="40.833152" lon="-3.965550">
        <ele>2224.130</ele>
        <time>2021-07-29T10:19:04Z</time>
      </trkpt>
      <trkpt lat="40.833133" lon="-3.965577">
        <ele>2223.527</ele>
        <time>2021-07-29T10:19:07Z</time>
      </trkpt>
      <trkpt lat="40.833123" lon="-3.965598">
        <ele>2223.128</ele>
        <time>2021-07-29T10:19:09Z</time>
      </trkpt>
      <trkpt lat="40.833110" lon="-3.965628">
        <ele>2222.798</ele>
        <time>2021-07-29T10:19:12Z</time>
      </trkpt>
      <trkpt lat="40.833091" lon="-3.965660">
        <ele>2222.171</ele>
        <time>2021-07-29T10:19:15Z</time>
      </trkpt>
      <trkpt lat="40.833082" lon="-3.965684">
        <ele>2221.890</ele>
        <time>2021-07-29T10:19:17Z</time>
      </trkpt>
      <trkpt lat="40.833072" lon="-3.965712">
        <ele>2221.581</ele>
        <time>2021-07-29T10:19:19Z</time>
      </trkpt>
      <trkpt lat="40.833062" lon="-3.965735">
        <ele>2221.261</ele>
        <time>2021-07-29T10:19:21Z</time>
      </trkpt>
      <trkpt lat="40.833046" lon="-3.965755">
        <ele>2220.717</ele>
        <time>2021-07-29T10:19:23Z</time>
      </trkpt>
      <trkpt lat="40.833034" lon="-3.965773">
        <ele>2220.208</ele>
        <time>2021-07-29T10:19:25Z</time>
      </trkpt>
      <trkpt lat="40.833027" lon="-3.965798">
        <ele>2220.015</ele>
        <time>2021-07-29T10:19:27Z</time>
      </trkpt>
      <trkpt lat="40.833011" lon="-3.965820">
        <ele>2219.447</ele>
        <time>2021-07-29T10:19:29Z</time>
      </trkpt>
      <trkpt lat="40.833002" lon="-3.965846">
        <ele>2219.114</ele>
        <time>2021-07-29T10:19:32Z</time>
      </trkpt>
      <trkpt lat="40.832989" lon="-3.965870">
        <ele>2218.661</ele>
        <time>2021-07-29T10:19:34Z</time>
      </trkpt>
      <trkpt lat="40.832973" lon="-3.965898">
        <ele>2218.132</ele>
        <time>2021-07-29T10:19:37Z</time>
      </trkpt>
      <trkpt lat="40.832957" lon="-3.965918">
        <ele>2217.662</ele>
        <time>2021-07-29T10:19:39Z</time>
      </trkpt>
      <trkpt lat="40.832947" lon="-3.965953">
        <ele>2217.385</ele>
        <time>2021-07-29T10:19:42Z</time>
      </trkpt>
      <trkpt lat="40.832944" lon="-3.965982">
        <ele>2217.244</ele>
        <time>2021-07-29T10:19:44Z</time>
      </trkpt>
      <trkpt lat="40.832938" lon="-3.966008">
        <ele>2217.038</ele>
        <time>2021-07-29T10:19:46Z</time>
      </trkpt>
      <trkpt lat="40.832931" lon="-3.966032">
        <ele>2216.870</ele>
        <time>2021-07-29T10:19:48Z</time>
      </trkpt>
      <trkpt lat="40.832922" lon="-3.966063">
        <ele>2216.617</ele>
        <time>2021-07-29T10:19:51Z</time>
      </trkpt>
      <trkpt lat="40.832906" lon="-3.966082">
        <ele>2216.108</ele>
        <time>2021-07-29T10:19:53Z</time>
      </trkpt>
      <trkpt lat="40.832890" lon="-3.966098">
        <ele>2215.670</ele>
        <time>2021-07-29T10:19:55Z</time>
      </trkpt>
      <trkpt lat="40.832867" lon="-3.966103">
        <ele>2214.942</ele>
        <time>2021-07-29T10:19:58Z</time>
      </trkpt>
      <trkpt lat="40.832848" lon="-3.966093">
        <ele>2214.219</ele>
        <time>2021-07-29T10:20:00Z</time>
      </trkpt>
      <trkpt lat="40.832832" lon="-3.966077">
        <ele>2213.726</ele>
        <time>2021-07-29T10:20:02Z</time>
      </trkpt>
      <trkpt lat="40.832822" lon="-3.966050">
        <ele>2213.247</ele>
        <time>2021-07-29T10:20:04Z</time>
      </trkpt>
      <trkpt lat="40.832810" lon="-3.966025">
        <ele>2212.877</ele>
        <time>2021-07-29T10:20:06Z</time>
      </trkpt>
      <trkpt lat="40.832803" lon="-3.966000">
        <ele>2212.560</ele>
        <time>2021-07-29T10:20:08Z</time>
      </trkpt>
      <trkpt lat="40.832797" lon="-3.965970">
        <ele>2212.249</ele>
        <time>2021-07-29T10:20:10Z</time>
      </trkpt>
      <trkpt lat="40.832794" lon="-3.965937">
        <ele>2211.924</ele>
        <time>2021-07-29T10:20:12Z</time>
      </trkpt>
      <trkpt lat="40.832787" lon="-3.965908">
        <ele>2211.604</ele>
        <time>2021-07-29T10:20:14Z</time>
      </trkpt>
      <trkpt lat="40.832784" lon="-3.965880">
        <ele>2211.414</ele>
        <time>2021-07-29T10:20:16Z</time>
      </trkpt>
      <trkpt lat="40.832778" lon="-3.965853">
        <ele>2211.108</ele>
        <time>2021-07-29T10:20:18Z</time>
      </trkpt>
      <trkpt lat="40.832774" lon="-3.965827">
        <ele>2210.929</ele>
        <time>2021-07-29T10:20:20Z</time>
      </trkpt>
      <trkpt lat="40.832774" lon="-3.965795">
        <ele>2210.911</ele>
        <time>2021-07-29T10:20:22Z</time>
      </trkpt>
      <trkpt lat="40.832765" lon="-3.965770">
        <ele>2210.628</ele>
        <time>2021-07-29T10:20:25Z</time>
      </trkpt>
      <trkpt lat="40.832765" lon="-3.965745">
        <ele>2210.695</ele>
        <time>2021-07-29T10:20:32Z</time>
      </trkpt>
      <trkpt lat="40.832771" lon="-3.965722">
        <ele>2210.866</ele>
        <time>2021-07-29T10:20:34Z</time>
      </trkpt>
      <trkpt lat="40.832771" lon="-3.965695">
        <ele>2210.856</ele>
        <time>2021-07-29T10:20:36Z</time>
      </trkpt>
      <trkpt lat="40.832768" lon="-3.965667">
        <ele>2210.759</ele>
        <time>2021-07-29T10:20:38Z</time>
      </trkpt>
      <trkpt lat="40.832765" lon="-3.965637">
        <ele>2210.688</ele>
        <time>2021-07-29T10:20:40Z</time>
      </trkpt>
      <trkpt lat="40.832758" lon="-3.965607">
        <ele>2210.439</ele>
        <time>2021-07-29T10:20:42Z</time>
      </trkpt>
      <trkpt lat="40.832752" lon="-3.965578">
        <ele>2210.301</ele>
        <time>2021-07-29T10:20:44Z</time>
      </trkpt>
      <trkpt lat="40.832749" lon="-3.965550">
        <ele>2210.221</ele>
        <time>2021-07-29T10:20:46Z</time>
      </trkpt>
      <trkpt lat="40.832739" lon="-3.965523">
        <ele>2209.908</ele>
        <time>2021-07-29T10:20:48Z</time>
      </trkpt>
      <trkpt lat="40.832739" lon="-3.965495">
        <ele>2209.920</ele>
        <time>2021-07-29T10:20:50Z</time>
      </trkpt>
      <trkpt lat="40.832733" lon="-3.965457">
        <ele>2209.792</ele>
        <time>2021-07-29T10:20:53Z</time>
      </trkpt>
      <trkpt lat="40.832726" lon="-3.965430">
        <ele>2209.489</ele>
        <time>2021-07-29T10:20:55Z</time>
      </trkpt>
      <trkpt lat="40.832726" lon="-3.965403">
        <ele>2209.476</ele>
        <time>2021-07-29T10:20:57Z</time>
      </trkpt>
      <trkpt lat="40.832717" lon="-3.965382">
        <ele>2209.137</ele>
        <time>2021-07-29T10:20:59Z</time>
      </trkpt>
      <trkpt lat="40.832710" lon="-3.965347">
        <ele>2208.917</ele>
        <time>2021-07-29T10:21:02Z</time>
      </trkpt>
      <trkpt lat="40.832704" lon="-3.965324">
        <ele>2208.710</ele>
        <time>2021-07-29T10:21:04Z</time>
      </trkpt>
      <trkpt lat="40.832694" lon="-3.965290">
        <ele>2208.359</ele>
        <time>2021-07-29T10:21:07Z</time>
      </trkpt>
      <trkpt lat="40.832678" lon="-3.965268">
        <ele>2207.787</ele>
        <time>2021-07-29T10:21:10Z</time>
      </trkpt>
      <trkpt lat="40.832659" lon="-3.965262">
        <ele>2207.142</ele>
        <time>2021-07-29T10:21:12Z</time>
      </trkpt>
      <trkpt lat="40.832634" lon="-3.965262">
        <ele>2206.326</ele>
        <time>2021-07-29T10:21:15Z</time>
      </trkpt>
      <trkpt lat="40.832611" lon="-3.965280">
        <ele>2205.608</ele>
        <time>2021-07-29T10:21:18Z</time>
      </trkpt>
      <trkpt lat="40.832595" lon="-3.965302">
        <ele>2205.195</ele>
        <time>2021-07-29T10:21:20Z</time>
      </trkpt>
      <trkpt lat="40.832586" lon="-3.965325">
        <ele>2204.967</ele>
        <time>2021-07-29T10:21:22Z</time>
      </trkpt>
      <trkpt lat="40.832576" lon="-3.965353">
        <ele>2204.744</ele>
        <time>2021-07-29T10:21:24Z</time>
      </trkpt>
      <trkpt lat="40.832570" lon="-3.965387">
        <ele>2204.641</ele>
        <time>2021-07-29T10:21:27Z</time>
      </trkpt>
      <trkpt lat="40.832557" lon="-3.965413">
        <ele>2204.292</ele>
        <time>2021-07-29T10:21:29Z</time>
      </trkpt>
      <trkpt lat="40.832538" lon="-3.965443">
        <ele>2203.712</ele>
        <time>2021-07-29T10:21:31Z</time>
      </trkpt>
      <trkpt lat="40.832528" lon="-3.965468">
        <ele>2203.595</ele>
        <time>2021-07-29T10:21:33Z</time>
      </trkpt>
      <trkpt lat="40.832518" lon="-3.965495">
        <ele>2203.324</ele>
        <time>2021-07-29T10:21:35Z</time>
      </trkpt>
      <trkpt lat="40.832512" lon="-3.965525">
        <ele>2203.246</ele>
        <time>2021-07-29T10:21:37Z</time>
      </trkpt>
      <trkpt lat="40.832506" lon="-3.965548">
        <ele>2203.188</ele>
        <time>2021-07-29T10:21:39Z</time>
      </trkpt>
      <trkpt lat="40.832496" lon="-3.965580">
        <ele>2202.816</ele>
        <time>2021-07-29T10:21:42Z</time>
      </trkpt>
      <trkpt lat="40.832490" lon="-3.965607">
        <ele>2202.608</ele>
        <time>2021-07-29T10:21:44Z</time>
      </trkpt>
      <trkpt lat="40.832477" lon="-3.965632">
        <ele>2202.151</ele>
        <time>2021-07-29T10:21:47Z</time>
      </trkpt>
      <trkpt lat="40.832470" lon="-3.965665">
        <ele>2201.933</ele>
        <time>2021-07-29T10:21:50Z</time>
      </trkpt>
      <trkpt lat="40.832461" lon="-3.965692">
        <ele>2201.520</ele>
        <time>2021-07-29T10:21:52Z</time>
      </trkpt>
      <trkpt lat="40.832445" lon="-3.965723">
        <ele>2200.987</ele>
        <time>2021-07-29T10:21:55Z</time>
      </trkpt>
      <trkpt lat="40.832432" lon="-3.965750">
        <ele>2200.558</ele>
        <time>2021-07-29T10:21:57Z</time>
      </trkpt>
      <trkpt lat="40.832419" lon="-3.965785">
        <ele>2200.068</ele>
        <time>2021-07-29T10:22:00Z</time>
      </trkpt>
      <trkpt lat="40.832406" lon="-3.965813">
        <ele>2199.671</ele>
        <time>2021-07-29T10:22:03Z</time>
      </trkpt>
      <trkpt lat="40.832394" lon="-3.965846">
        <ele>2199.280</ele>
        <time>2021-07-29T10:22:06Z</time>
      </trkpt>
      <trkpt lat="40.832387" lon="-3.965873">
        <ele>2199.164</ele>
        <time>2021-07-29T10:22:08Z</time>
      </trkpt>
      <trkpt lat="40.832374" lon="-3.965902">
        <ele>2198.706</ele>
        <time>2021-07-29T10:22:10Z</time>
      </trkpt>
      <trkpt lat="40.832362" lon="-3.965927">
        <ele>2198.416</ele>
        <time>2021-07-29T10:22:12Z</time>
      </trkpt>
      <trkpt lat="40.832352" lon="-3.965953">
        <ele>2198.108</ele>
        <time>2021-07-29T10:22:14Z</time>
      </trkpt>
      <trkpt lat="40.832339" lon="-3.965975">
        <ele>2197.733</ele>
        <time>2021-07-29T10:22:16Z</time>
      </trkpt>
      <trkpt lat="40.832333" lon="-3.966007">
        <ele>2197.665</ele>
        <time>2021-07-29T10:22:19Z</time>
      </trkpt>
      <trkpt lat="40.832320" lon="-3.966037">
        <ele>2197.382</ele>
        <time>2021-07-29T10:22:22Z</time>
      </trkpt>
      <trkpt lat="40.832307" lon="-3.966055">
        <ele>2196.889</ele>
        <time>2021-07-29T10:22:24Z</time>
      </trkpt>
      <trkpt lat="40.832294" lon="-3.966082">
        <ele>2196.540</ele>
        <time>2021-07-29T10:22:27Z</time>
      </trkpt>
      <trkpt lat="40.832282" lon="-3.966098">
        <ele>2196.140</ele>
        <time>2021-07-29T10:22:29Z</time>
      </trkpt>
      <trkpt lat="40.832269" lon="-3.966117">
        <ele>2195.713</ele>
        <time>2021-07-29T10:22:31Z</time>
      </trkpt>
      <trkpt lat="40.832250" lon="-3.966142">
        <ele>2194.982</ele>
        <time>2021-07-29T10:22:34Z</time>
      </trkpt>
      <trkpt lat="40.832234" lon="-3.966172">
        <ele>2194.239</ele>
        <time>2021-07-29T10:22:37Z</time>
      </trkpt>
      <trkpt lat="40.832227" lon="-3.966196">
        <ele>2193.901</ele>
        <time>2021-07-29T10:22:39Z</time>
      </trkpt>
      <trkpt lat="40.832218" lon="-3.966218">
        <ele>2193.521</ele>
        <time>2021-07-29T10:22:41Z</time>
      </trkpt>
      <trkpt lat="40.832198" lon="-3.966240">
        <ele>2192.708</ele>
        <time>2021-07-29T10:22:44Z</time>
      </trkpt>
      <trkpt lat="40.832179" lon="-3.966255">
        <ele>2192.050</ele>
        <time>2021-07-29T10:22:46Z</time>
      </trkpt>
      <trkpt lat="40.832163" lon="-3.966285">
        <ele>2191.422</ele>
        <time>2021-07-29T10:22:49Z</time>
      </trkpt>
      <trkpt lat="40.832147" lon="-3.966313">
        <ele>2190.859</ele>
        <time>2021-07-29T10:22:52Z</time>
      </trkpt>
      <trkpt lat="40.832128" lon="-3.966323">
        <ele>2190.166</ele>
        <time>2021-07-29T10:22:55Z</time>
      </trkpt>
      <trkpt lat="40.832102" lon="-3.966322">
        <ele>2189.217</ele>
        <time>2021-07-29T10:22:57Z</time>
      </trkpt>
      <trkpt lat="40.832080" lon="-3.966308">
        <ele>2188.587</ele>
        <time>2021-07-29T10:22:59Z</time>
      </trkpt>
      <trkpt lat="40.832070" lon="-3.966287">
        <ele>2188.270</ele>
        <time>2021-07-29T10:23:01Z</time>
      </trkpt>
      <trkpt lat="40.832061" lon="-3.966257">
        <ele>2188.089</ele>
        <time>2021-07-29T10:23:04Z</time>
      </trkpt>
      <trkpt lat="40.832061" lon="-3.966228">
        <ele>2188.036</ele>
        <time>2021-07-29T10:23:06Z</time>
      </trkpt>
      <trkpt lat="40.832058" lon="-3.966202">
        <ele>2188.017</ele>
        <time>2021-07-29T10:23:08Z</time>
      </trkpt>
      <trkpt lat="40.832061" lon="-3.966170">
        <ele>2188.118</ele>
        <time>2021-07-29T10:23:10Z</time>
      </trkpt>
      <trkpt lat="40.832061" lon="-3.966135">
        <ele>2188.208</ele>
        <time>2021-07-29T10:23:12Z</time>
      </trkpt>
      <trkpt lat="40.832058" lon="-3.966110">
        <ele>2188.110</ele>
        <time>2021-07-29T10:23:14Z</time>
      </trkpt>
      <trkpt lat="40.832058" lon="-3.966075">
        <ele>2187.962</ele>
        <time>2021-07-29T10:23:16Z</time>
      </trkpt>
      <trkpt lat="40.832051" lon="-3.966045">
        <ele>2187.599</ele>
        <time>2021-07-29T10:23:19Z</time>
      </trkpt>
      <trkpt lat="40.832048" lon="-3.966012">
        <ele>2187.126</ele>
        <time>2021-07-29T10:23:21Z</time>
      </trkpt>
      <trkpt lat="40.832048" lon="-3.965978">
        <ele>2186.987</ele>
        <time>2021-07-29T10:23:23Z</time>
      </trkpt>
      <trkpt lat="40.832038" lon="-3.965943">
        <ele>2186.467</ele>
        <time>2021-07-29T10:23:25Z</time>
      </trkpt>
      <trkpt lat="40.832029" lon="-3.965918">
        <ele>2185.950</ele>
        <time>2021-07-29T10:23:27Z</time>
      </trkpt>
      <trkpt lat="40.832019" lon="-3.965892">
        <ele>2185.329</ele>
        <time>2021-07-29T10:23:29Z</time>
      </trkpt>
      <trkpt lat="40.832019" lon="-3.965860">
        <ele>2185.114</ele>
        <time>2021-07-29T10:23:31Z</time>
      </trkpt>
      <trkpt lat="40.832016" lon="-3.965836">
        <ele>2184.854</ele>
        <time>2021-07-29T10:23:33Z</time>
      </trkpt>
      <trkpt lat="40.832010" lon="-3.965800">
        <ele>2184.409</ele>
        <time>2021-07-29T10:23:36Z</time>
      </trkpt>
      <trkpt lat="40.832000" lon="-3.965772">
        <ele>2183.808</ele>
        <time>2021-07-29T10:23:38Z</time>
      </trkpt>
      <trkpt lat="40.831997" lon="-3.965737">
        <ele>2183.568</ele>
        <time>2021-07-29T10:23:41Z</time>
      </trkpt>
      <trkpt lat="40.831994" lon="-3.965713">
        <ele>2183.220</ele>
        <time>2021-07-29T10:23:43Z</time>
      </trkpt>
      <trkpt lat="40.831984" lon="-3.965685">
        <ele>2182.677</ele>
        <time>2021-07-29T10:23:46Z</time>
      </trkpt>
      <trkpt lat="40.831981" lon="-3.965658">
        <ele>2182.334</ele>
        <time>2021-07-29T10:23:48Z</time>
      </trkpt>
      <trkpt lat="40.831978" lon="-3.965623">
        <ele>2181.925</ele>
        <time>2021-07-29T10:23:50Z</time>
      </trkpt>
      <trkpt lat="40.831971" lon="-3.965600">
        <ele>2181.515</ele>
        <time>2021-07-29T10:23:52Z</time>
      </trkpt>
      <trkpt lat="40.831968" lon="-3.965572">
        <ele>2181.138</ele>
        <time>2021-07-29T10:23:54Z</time>
      </trkpt>
      <trkpt lat="40.831958" lon="-3.965545">
        <ele>2180.657</ele>
        <time>2021-07-29T10:23:56Z</time>
      </trkpt>
      <trkpt lat="40.831952" lon="-3.965518">
        <ele>2180.312</ele>
        <time>2021-07-29T10:23:58Z</time>
      </trkpt>
      <trkpt lat="40.831942" lon="-3.965488">
        <ele>2179.932</ele>
        <time>2021-07-29T10:24:00Z</time>
      </trkpt>
      <trkpt lat="40.831939" lon="-3.965457">
        <ele>2179.805</ele>
        <time>2021-07-29T10:24:02Z</time>
      </trkpt>
      <trkpt lat="40.831939" lon="-3.965430">
        <ele>2179.708</ele>
        <time>2021-07-29T10:24:04Z</time>
      </trkpt>
      <trkpt lat="40.831936" lon="-3.965398">
        <ele>2179.628</ele>
        <time>2021-07-29T10:24:06Z</time>
      </trkpt>
      <trkpt lat="40.831933" lon="-3.965368">
        <ele>2179.410</ele>
        <time>2021-07-29T10:24:08Z</time>
      </trkpt>
      <trkpt lat="40.831930" lon="-3.965342">
        <ele>2179.387</ele>
        <time>2021-07-29T10:24:10Z</time>
      </trkpt>
      <trkpt lat="40.831930" lon="-3.965308">
        <ele>2179.314</ele>
        <time>2021-07-29T10:24:13Z</time>
      </trkpt>
      <trkpt lat="40.831923" lon="-3.965285">
        <ele>2178.945</ele>
        <time>2021-07-29T10:24:15Z</time>
      </trkpt>
      <trkpt lat="40.831923" lon="-3.965258">
        <ele>2178.785</ele>
        <time>2021-07-29T10:24:17Z</time>
      </trkpt>
      <trkpt lat="40.831923" lon="-3.965228">
        <ele>2178.428</ele>
        <time>2021-07-29T10:24:19Z</time>
      </trkpt>
      <trkpt lat="40.831923" lon="-3.965197">
        <ele>2178.197</ele>
        <time>2021-07-29T10:24:21Z</time>
      </trkpt>
      <trkpt lat="40.831923" lon="-3.965162">
        <ele>2177.769</ele>
        <time>2021-07-29T10:24:24Z</time>
      </trkpt>
      <trkpt lat="40.831930" lon="-3.965128">
        <ele>2177.704</ele>
        <time>2021-07-29T10:24:26Z</time>
      </trkpt>
      <trkpt lat="40.831930" lon="-3.965102">
        <ele>2177.424</ele>
        <time>2021-07-29T10:24:28Z</time>
      </trkpt>
      <trkpt lat="40.831930" lon="-3.965067">
        <ele>2177.008</ele>
        <time>2021-07-29T10:24:30Z</time>
      </trkpt>
      <trkpt lat="40.831930" lon="-3.965032">
        <ele>2176.753</ele>
        <time>2021-07-29T10:24:32Z</time>
      </trkpt>
      <trkpt lat="40.831933" lon="-3.965003">
        <ele>2176.525</ele>
        <time>2021-07-29T10:24:34Z</time>
      </trkpt>
      <trkpt lat="40.831936" lon="-3.964975">
        <ele>2176.492</ele>
        <time>2021-07-29T10:24:36Z</time>
      </trkpt>
      <trkpt lat="40.831939" lon="-3.964947">
        <ele>2176.439</ele>
        <time>2021-07-29T10:24:38Z</time>
      </trkpt>
      <trkpt lat="40.831939" lon="-3.964912">
        <ele>2176.170</ele>
        <time>2021-07-29T10:24:40Z</time>
      </trkpt>
      <trkpt lat="40.831939" lon="-3.964880">
        <ele>2175.920</ele>
        <time>2021-07-29T10:24:43Z</time>
      </trkpt>
      <trkpt lat="40.831949" lon="-3.964855">
        <ele>2176.253</ele>
        <time>2021-07-29T10:24:45Z</time>
      </trkpt>
      <trkpt lat="40.831955" lon="-3.964826">
        <ele>2176.252</ele>
        <time>2021-07-29T10:24:47Z</time>
      </trkpt>
      <trkpt lat="40.831958" lon="-3.964796">
        <ele>2176.147</ele>
        <time>2021-07-29T10:24:49Z</time>
      </trkpt>
      <trkpt lat="40.831968" lon="-3.964768">
        <ele>2176.429</ele>
        <time>2021-07-29T10:24:51Z</time>
      </trkpt>
      <trkpt lat="40.831968" lon="-3.964743">
        <ele>2176.221</ele>
        <time>2021-07-29T10:24:53Z</time>
      </trkpt>
      <trkpt lat="40.831971" lon="-3.964717">
        <ele>2176.108</ele>
        <time>2021-07-29T10:24:55Z</time>
      </trkpt>
      <trkpt lat="40.831974" lon="-3.964687">
        <ele>2175.951</ele>
        <time>2021-07-29T10:24:57Z</time>
      </trkpt>
      <trkpt lat="40.831978" lon="-3.964653">
        <ele>2175.793</ele>
        <time>2021-07-29T10:24:59Z</time>
      </trkpt>
      <trkpt lat="40.831978" lon="-3.964620">
        <ele>2175.310</ele>
        <time>2021-07-29T10:25:01Z</time>
      </trkpt>
      <trkpt lat="40.831981" lon="-3.964588">
        <ele>2175.187</ele>
        <time>2021-07-29T10:25:03Z</time>
      </trkpt>
      <trkpt lat="40.831981" lon="-3.964550">
        <ele>2174.678</ele>
        <time>2021-07-29T10:25:06Z</time>
      </trkpt>
      <trkpt lat="40.831990" lon="-3.964522">
        <ele>2174.788</ele>
        <time>2021-07-29T10:25:08Z</time>
      </trkpt>
      <trkpt lat="40.831994" lon="-3.964488">
        <ele>2174.541</ele>
        <time>2021-07-29T10:25:11Z</time>
      </trkpt>
      <trkpt lat="40.831994" lon="-3.964463">
        <ele>2174.210</ele>
        <time>2021-07-29T10:25:13Z</time>
      </trkpt>
      <trkpt lat="40.832003" lon="-3.964433">
        <ele>2174.259</ele>
        <time>2021-07-29T10:25:16Z</time>
      </trkpt>
      <trkpt lat="40.832003" lon="-3.964397">
        <ele>2173.803</ele>
        <time>2021-07-29T10:25:19Z</time>
      </trkpt>
      <trkpt lat="40.832003" lon="-3.964367">
        <ele>2173.523</ele>
        <time>2021-07-29T10:25:21Z</time>
      </trkpt>
      <trkpt lat="40.831997" lon="-3.964343">
        <ele>2173.008</ele>
        <time>2021-07-29T10:25:23Z</time>
      </trkpt>
      <trkpt lat="40.832000" lon="-3.964305">
        <ele>2172.762</ele>
        <time>2021-07-29T10:25:26Z</time>
      </trkpt>
      <trkpt lat="40.832003" lon="-3.964278">
        <ele>2172.534</ele>
        <time>2021-07-29T10:25:28Z</time>
      </trkpt>
      <trkpt lat="40.832003" lon="-3.964252">
        <ele>2172.251</ele>
        <time>2021-07-29T10:25:30Z</time>
      </trkpt>
      <trkpt lat="40.832010" lon="-3.964227">
        <ele>2172.258</ele>
        <time>2021-07-29T10:25:32Z</time>
      </trkpt>
      <trkpt lat="40.832003" lon="-3.964192">
        <ele>2171.679</ele>
        <time>2021-07-29T10:25:35Z</time>
      </trkpt>
      <trkpt lat="40.832003" lon="-3.964158">
        <ele>2171.229</ele>
        <time>2021-07-29T10:25:37Z</time>
      </trkpt>
      <trkpt lat="40.832003" lon="-3.964130">
        <ele>2170.972</ele>
        <time>2021-07-29T10:25:39Z</time>
      </trkpt>
      <trkpt lat="40.832000" lon="-3.964102">
        <ele>2170.551</ele>
        <time>2021-07-29T10:25:41Z</time>
      </trkpt>
      <trkpt lat="40.832010" lon="-3.964072">
        <ele>2170.649</ele>
        <time>2021-07-29T10:25:43Z</time>
      </trkpt>
      <trkpt lat="40.832016" lon="-3.964047">
        <ele>2170.502</ele>
        <time>2021-07-29T10:25:45Z</time>
      </trkpt>
      <trkpt lat="40.832019" lon="-3.964017">
        <ele>2170.322</ele>
        <time>2021-07-29T10:25:47Z</time>
      </trkpt>
      <trkpt lat="40.832029" lon="-3.963988">
        <ele>2170.408</ele>
        <time>2021-07-29T10:25:49Z</time>
      </trkpt>
      <trkpt lat="40.832035" lon="-3.963962">
        <ele>2170.471</ele>
        <time>2021-07-29T10:25:51Z</time>
      </trkpt>
      <trkpt lat="40.832035" lon="-3.963932">
        <ele>2170.153</ele>
        <time>2021-07-29T10:25:53Z</time>
      </trkpt>
      <trkpt lat="40.832042" lon="-3.963897">
        <ele>2170.080</ele>
        <time>2021-07-29T10:25:56Z</time>
      </trkpt>
      <trkpt lat="40.832054" lon="-3.963868">
        <ele>2170.037</ele>
        <time>2021-07-29T10:25:58Z</time>
      </trkpt>
      <trkpt lat="40.832061" lon="-3.963840">
        <ele>2169.998</ele>
        <time>2021-07-29T10:26:00Z</time>
      </trkpt>
      <trkpt lat="40.832064" lon="-3.963813">
        <ele>2169.628</ele>
        <time>2021-07-29T10:26:02Z</time>
      </trkpt>
      <trkpt lat="40.832070" lon="-3.963785">
        <ele>2169.551</ele>
        <time>2021-07-29T10:26:04Z</time>
      </trkpt>
      <trkpt lat="40.832074" lon="-3.963758">
        <ele>2169.250</ele>
        <time>2021-07-29T10:26:06Z</time>
      </trkpt>
      <trkpt lat="40.832074" lon="-3.963730">
        <ele>2168.897</ele>
        <time>2021-07-29T10:26:08Z</time>
      </trkpt>
      <trkpt lat="40.832070" lon="-3.963702">
        <ele>2168.323</ele>
        <time>2021-07-29T10:26:10Z</time>
      </trkpt>
      <trkpt lat="40.832054" lon="-3.963677">
        <ele>2167.325</ele>
        <time>2021-07-29T10:26:12Z</time>
      </trkpt>
      <trkpt lat="40.832032" lon="-3.963663">
        <ele>2166.208</ele>
        <time>2021-07-29T10:26:14Z</time>
      </trkpt>
      <trkpt lat="40.832010" lon="-3.963673">
        <ele>2165.526</ele>
        <time>2021-07-29T10:26:16Z</time>
      </trkpt>
      <trkpt lat="40.831984" lon="-3.963702">
        <ele>2164.938</ele>
        <time>2021-07-29T10:26:18Z</time>
      </trkpt>
      <trkpt lat="40.831971" lon="-3.963726">
        <ele>2164.765</ele>
        <time>2021-07-29T10:26:20Z</time>
      </trkpt>
      <trkpt lat="40.831955" lon="-3.963750">
        <ele>2164.432</ele>
        <time>2021-07-29T10:26:22Z</time>
      </trkpt>
      <trkpt lat="40.831942" lon="-3.963775">
        <ele>2164.333</ele>
        <time>2021-07-29T10:26:24Z</time>
      </trkpt>
      <trkpt lat="40.831923" lon="-3.963798">
        <ele>2163.953</ele>
        <time>2021-07-29T10:26:26Z</time>
      </trkpt>
      <trkpt lat="40.831904" lon="-3.963827">
        <ele>2163.766</ele>
        <time>2021-07-29T10:26:29Z</time>
      </trkpt>
      <trkpt lat="40.831891" lon="-3.963847">
        <ele>2163.555</ele>
        <time>2021-07-29T10:26:31Z</time>
      </trkpt>
      <trkpt lat="40.831875" lon="-3.963865">
        <ele>2163.274</ele>
        <time>2021-07-29T10:26:33Z</time>
      </trkpt>
      <trkpt lat="40.831853" lon="-3.963877">
        <ele>2162.656</ele>
        <time>2021-07-29T10:26:35Z</time>
      </trkpt>
      <trkpt lat="40.831834" lon="-3.963890">
        <ele>2162.021</ele>
        <time>2021-07-29T10:26:38Z</time>
      </trkpt>
      <trkpt lat="40.831821" lon="-3.963908">
        <ele>2161.708</ele>
        <time>2021-07-29T10:26:40Z</time>
      </trkpt>
      <trkpt lat="40.831811" lon="-3.963932">
        <ele>2161.684</ele>
        <time>2021-07-29T10:26:42Z</time>
      </trkpt>
      <trkpt lat="40.831792" lon="-3.963953">
        <ele>2161.196</ele>
        <time>2021-07-29T10:26:45Z</time>
      </trkpt>
      <trkpt lat="40.831770" lon="-3.963965">
        <ele>2160.453</ele>
        <time>2021-07-29T10:26:48Z</time>
      </trkpt>
      <trkpt lat="40.831757" lon="-3.963982">
        <ele>2160.070</ele>
        <time>2021-07-29T10:26:50Z</time>
      </trkpt>
      <trkpt lat="40.831750" lon="-3.964010">
        <ele>2160.051</ele>
        <time>2021-07-29T10:26:58Z</time>
      </trkpt>
      <trkpt lat="40.831734" lon="-3.964025">
        <ele>2159.541</ele>
        <time>2021-07-29T10:27:00Z</time>
      </trkpt>
      <trkpt lat="40.831718" lon="-3.964037">
        <ele>2159.054</ele>
        <time>2021-07-29T10:27:02Z</time>
      </trkpt>
      <trkpt lat="40.831702" lon="-3.964060">
        <ele>2158.673</ele>
        <time>2021-07-29T10:27:05Z</time>
      </trkpt>
      <trkpt lat="40.831680" lon="-3.964064">
        <ele>2157.843</ele>
        <time>2021-07-29T10:27:08Z</time>
      </trkpt>
      <trkpt lat="40.831661" lon="-3.964052">
        <ele>2157.064</ele>
        <time>2021-07-29T10:27:12Z</time>
      </trkpt>
      <trkpt lat="40.831651" lon="-3.964030">
        <ele>2156.510</ele>
        <time>2021-07-29T10:27:15Z</time>
      </trkpt>
      <trkpt lat="40.831638" lon="-3.964002">
        <ele>2155.808</ele>
        <time>2021-07-29T10:27:19Z</time>
      </trkpt>
      <trkpt lat="40.831626" lon="-3.963977">
        <ele>2155.291</ele>
        <time>2021-07-29T10:27:22Z</time>
      </trkpt>
      <trkpt lat="40.831616" lon="-3.963953">
        <ele>2154.683</ele>
        <time>2021-07-29T10:27:25Z</time>
      </trkpt>
      <trkpt lat="40.831603" lon="-3.963927">
        <ele>2154.050</ele>
        <time>2021-07-29T10:27:28Z</time>
      </trkpt>
      <trkpt lat="40.831594" lon="-3.963905">
        <ele>2153.537</ele>
        <time>2021-07-29T10:27:32Z</time>
      </trkpt>
      <trkpt lat="40.831587" lon="-3.963872">
        <ele>2152.978</ele>
        <time>2021-07-29T10:27:35Z</time>
      </trkpt>
      <trkpt lat="40.831603" lon="-3.963845">
        <ele>2153.228</ele>
        <time>2021-07-29T10:27:37Z</time>
      </trkpt>
      <trkpt lat="40.831613" lon="-3.963812">
        <ele>2153.211</ele>
        <time>2021-07-29T10:27:39Z</time>
      </trkpt>
      <trkpt lat="40.831616" lon="-3.963785">
        <ele>2153.160</ele>
        <time>2021-07-29T10:27:41Z</time>
      </trkpt>
      <trkpt lat="40.831619" lon="-3.963753">
        <ele>2152.874</ele>
        <time>2021-07-29T10:27:43Z</time>
      </trkpt>
      <trkpt lat="40.831622" lon="-3.963722">
        <ele>2152.656</ele>
        <time>2021-07-29T10:27:45Z</time>
      </trkpt>
      <trkpt lat="40.831626" lon="-3.963693">
        <ele>2152.421</ele>
        <time>2021-07-29T10:27:47Z</time>
      </trkpt>
      <trkpt lat="40.831626" lon="-3.963668">
        <ele>2152.208</ele>
        <time>2021-07-29T10:27:49Z</time>
      </trkpt>
      <trkpt lat="40.831626" lon="-3.963637">
        <ele>2151.844</ele>
        <time>2021-07-29T10:27:51Z</time>
      </trkpt>
      <trkpt lat="40.831632" lon="-3.963606">
        <ele>2151.746</ele>
        <time>2021-07-29T10:27:53Z</time>
      </trkpt>
      <trkpt lat="40.831638" lon="-3.963578">
        <ele>2151.773</ele>
        <time>2021-07-29T10:27:55Z</time>
      </trkpt>
      <trkpt lat="40.831645" lon="-3.963550">
        <ele>2151.890</ele>
        <time>2021-07-29T10:27:57Z</time>
      </trkpt>
      <trkpt lat="40.831654" lon="-3.963525">
        <ele>2151.931</ele>
        <time>2021-07-29T10:27:59Z</time>
      </trkpt>
      <trkpt lat="40.831658" lon="-3.963500">
        <ele>2151.951</ele>
        <time>2021-07-29T10:28:01Z</time>
      </trkpt>
      <trkpt lat="40.831664" lon="-3.963470">
        <ele>2151.994</ele>
        <time>2021-07-29T10:28:03Z</time>
      </trkpt>
      <trkpt lat="40.831661" lon="-3.963442">
        <ele>2151.673</ele>
        <time>2021-07-29T10:28:05Z</time>
      </trkpt>
      <trkpt lat="40.831664" lon="-3.963413">
        <ele>2151.527</ele>
        <time>2021-07-29T10:28:07Z</time>
      </trkpt>
      <trkpt lat="40.831674" lon="-3.963390">
        <ele>2151.668</ele>
        <time>2021-07-29T10:28:09Z</time>
      </trkpt>
      <trkpt lat="40.831677" lon="-3.963362">
        <ele>2151.514</ele>
        <time>2021-07-29T10:28:11Z</time>
      </trkpt>
      <trkpt lat="40.831680" lon="-3.963337">
        <ele>2151.408</ele>
        <time>2021-07-29T10:28:13Z</time>
      </trkpt>
      <trkpt lat="40.831683" lon="-3.963307">
        <ele>2151.389</ele>
        <time>2021-07-29T10:28:15Z</time>
      </trkpt>
      <trkpt lat="40.831693" lon="-3.963273">
        <ele>2151.331</ele>
        <time>2021-07-29T10:28:17Z</time>
      </trkpt>
      <trkpt lat="40.831693" lon="-3.963245">
        <ele>2151.148</ele>
        <time>2021-07-29T10:28:19Z</time>
      </trkpt>
      <trkpt lat="40.831702" lon="-3.963214">
        <ele>2151.115</ele>
        <time>2021-07-29T10:28:21Z</time>
      </trkpt>
      <trkpt lat="40.831706" lon="-3.963182">
        <ele>2151.016</ele>
        <time>2021-07-29T10:28:23Z</time>
      </trkpt>
      <trkpt lat="40.831702" lon="-3.963152">
        <ele>2150.666</ele>
        <time>2021-07-29T10:28:25Z</time>
      </trkpt>
      <trkpt lat="40.831699" lon="-3.963123">
        <ele>2150.339</ele>
        <time>2021-07-29T10:28:27Z</time>
      </trkpt>
      <trkpt lat="40.831702" lon="-3.963095">
        <ele>2150.218</ele>
        <time>2021-07-29T10:28:29Z</time>
      </trkpt>
      <trkpt lat="40.831702" lon="-3.963065">
        <ele>2150.096</ele>
        <time>2021-07-29T10:28:31Z</time>
      </trkpt>
      <trkpt lat="40.831702" lon="-3.963035">
        <ele>2149.531</ele>
        <time>2021-07-29T10:28:33Z</time>
      </trkpt>
      <trkpt lat="40.831702" lon="-3.963005">
        <ele>2149.024</ele>
        <time>2021-07-29T10:28:35Z</time>
      </trkpt>
      <trkpt lat="40.831702" lon="-3.962975">
        <ele>2148.508</ele>
        <time>2021-07-29T10:28:37Z</time>
      </trkpt>
      <trkpt lat="40.831706" lon="-3.962947">
        <ele>2148.146</ele>
        <time>2021-07-29T10:28:39Z</time>
      </trkpt>
      <trkpt lat="40.831715" lon="-3.962915">
        <ele>2147.978</ele>
        <time>2021-07-29T10:28:41Z</time>
      </trkpt>
      <trkpt lat="40.831715" lon="-3.962888">
        <ele>2147.425</ele>
        <time>2021-07-29T10:28:43Z</time>
      </trkpt>
      <trkpt lat="40.831725" lon="-3.962860">
        <ele>2147.292</ele>
        <time>2021-07-29T10:28:45Z</time>
      </trkpt>
      <trkpt lat="40.831734" lon="-3.962837">
        <ele>2147.183</ele>
        <time>2021-07-29T10:28:48Z</time>
      </trkpt>
      <trkpt lat="40.831738" lon="-3.962800">
        <ele>2146.793</ele>
        <time>2021-07-29T10:29:09Z</time>
      </trkpt>
      <trkpt lat="40.831744" lon="-3.962762">
        <ele>2146.376</ele>
        <time>2021-07-29T10:29:11Z</time>
      </trkpt>
      <trkpt lat="40.831750" lon="-3.962720">
        <ele>2145.935</ele>
        <time>2021-07-29T10:29:13Z</time>
      </trkpt>
      <trkpt lat="40.831757" lon="-3.962682">
        <ele>2145.571</ele>
        <time>2021-07-29T10:29:15Z</time>
      </trkpt>
      <trkpt lat="40.831763" lon="-3.962643">
        <ele>2145.241</ele>
        <time>2021-07-29T10:29:17Z</time>
      </trkpt>
      <trkpt lat="40.831770" lon="-3.962617">
        <ele>2145.015</ele>
        <time>2021-07-29T10:29:19Z</time>
      </trkpt>
      <trkpt lat="40.831773" lon="-3.962585">
        <ele>2144.708</ele>
        <time>2021-07-29T10:29:21Z</time>
      </trkpt>
      <trkpt lat="40.831776" lon="-3.962557">
        <ele>2144.454</ele>
        <time>2021-07-29T10:29:23Z</time>
      </trkpt>
      <trkpt lat="40.831782" lon="-3.962522">
        <ele>2144.116</ele>
        <time>2021-07-29T10:29:26Z</time>
      </trkpt>
      <trkpt lat="40.831792" lon="-3.962500">
        <ele>2144.183</ele>
        <time>2021-07-29T10:29:28Z</time>
      </trkpt>
      <trkpt lat="40.831795" lon="-3.962473">
        <ele>2143.730</ele>
        <time>2021-07-29T10:29:30Z</time>
      </trkpt>
      <trkpt lat="40.831795" lon="-3.962443">
        <ele>2143.111</ele>
        <time>2021-07-29T10:29:32Z</time>
      </trkpt>
      <trkpt lat="40.831795" lon="-3.962412">
        <ele>2142.671</ele>
        <time>2021-07-29T10:29:34Z</time>
      </trkpt>
      <trkpt lat="40.831795" lon="-3.962373">
        <ele>2141.984</ele>
        <time>2021-07-29T10:29:37Z</time>
      </trkpt>
      <trkpt lat="40.831798" lon="-3.962348">
        <ele>2141.513</ele>
        <time>2021-07-29T10:29:39Z</time>
      </trkpt>
      <trkpt lat="40.831798" lon="-3.962317">
        <ele>2141.072</ele>
        <time>2021-07-29T10:29:42Z</time>
      </trkpt>
      <trkpt lat="40.831802" lon="-3.962290">
        <ele>2140.613</ele>
        <time>2021-07-29T10:29:44Z</time>
      </trkpt>
      <trkpt lat="40.831802" lon="-3.962253">
        <ele>2139.914</ele>
        <time>2021-07-29T10:29:47Z</time>
      </trkpt>
      <trkpt lat="40.831802" lon="-3.962227">
        <ele>2139.508</ele>
        <time>2021-07-29T10:29:49Z</time>
      </trkpt>
      <trkpt lat="40.831805" lon="-3.962198">
        <ele>2139.024</ele>
        <time>2021-07-29T10:29:51Z</time>
      </trkpt>
      <trkpt lat="40.831818" lon="-3.962170">
        <ele>2139.076</ele>
        <time>2021-07-29T10:29:53Z</time>
      </trkpt>
      <trkpt lat="40.831824" lon="-3.962144">
        <ele>2138.793</ele>
        <time>2021-07-29T10:29:55Z</time>
      </trkpt>
      <trkpt lat="40.831840" lon="-3.962115">
        <ele>2138.790</ele>
        <time>2021-07-29T10:29:57Z</time>
      </trkpt>
      <trkpt lat="40.831850" lon="-3.962085">
        <ele>2138.531</ele>
        <time>2021-07-29T10:29:59Z</time>
      </trkpt>
      <trkpt lat="40.831853" lon="-3.962055">
        <ele>2138.051</ele>
        <time>2021-07-29T10:30:01Z</time>
      </trkpt>
      <trkpt lat="40.831859" lon="-3.962023">
        <ele>2137.674</ele>
        <time>2021-07-29T10:30:03Z</time>
      </trkpt>
      <trkpt lat="40.831869" lon="-3.961993">
        <ele>2137.493</ele>
        <time>2021-07-29T10:30:05Z</time>
      </trkpt>
      <trkpt lat="40.831878" lon="-3.961967">
        <ele>2137.319</ele>
        <time>2021-07-29T10:30:07Z</time>
      </trkpt>
      <trkpt lat="40.831894" lon="-3.961940">
        <ele>2137.309</ele>
        <time>2021-07-29T10:30:09Z</time>
      </trkpt>
      <trkpt lat="40.831910" lon="-3.961910">
        <ele>2137.219</ele>
        <time>2021-07-29T10:30:11Z</time>
      </trkpt>
      <trkpt lat="40.831923" lon="-3.961883">
        <ele>2137.008</ele>
        <time>2021-07-29T10:30:13Z</time>
      </trkpt>
      <trkpt lat="40.831939" lon="-3.961865">
        <ele>2137.128</ele>
        <time>2021-07-29T10:30:15Z</time>
      </trkpt>
      <trkpt lat="40.831955" lon="-3.961850">
        <ele>2137.290</ele>
        <time>2021-07-29T10:30:17Z</time>
      </trkpt>
      <trkpt lat="40.831971" lon="-3.961830">
        <ele>2137.247</ele>
        <time>2021-07-29T10:30:19Z</time>
      </trkpt>
      <trkpt lat="40.831981" lon="-3.961805">
        <ele>2136.884</ele>
        <time>2021-07-29T10:30:21Z</time>
      </trkpt>
      <trkpt lat="40.831984" lon="-3.961777">
        <ele>2136.365</ele>
        <time>2021-07-29T10:30:23Z</time>
      </trkpt>
      <trkpt lat="40.831974" lon="-3.961752">
        <ele>2135.575</ele>
        <time>2021-07-29T10:30:26Z</time>
      </trkpt>
      <trkpt lat="40.831958" lon="-3.961738">
        <ele>2134.818</ele>
        <time>2021-07-29T10:30:28Z</time>
      </trkpt>
      <trkpt lat="40.831942" lon="-3.961710">
        <ele>2133.947</ele>
        <time>2021-07-29T10:30:31Z</time>
      </trkpt>
      <trkpt lat="40.831939" lon="-3.961682">
        <ele>2133.294</ele>
        <time>2021-07-29T10:30:34Z</time>
      </trkpt>
      <trkpt lat="40.831936" lon="-3.961653">
        <ele>2132.557</ele>
        <time>2021-07-29T10:30:37Z</time>
      </trkpt>
      <trkpt lat="40.831933" lon="-3.961623">
        <ele>2131.922</ele>
        <time>2021-07-29T10:30:39Z</time>
      </trkpt>
      <trkpt lat="40.831930" lon="-3.961597">
        <ele>2131.408</ele>
        <time>2021-07-29T10:30:41Z</time>
      </trkpt>
      <trkpt lat="40.831936" lon="-3.961565">
        <ele>2131.036</ele>
        <time>2021-07-29T10:30:44Z</time>
      </trkpt>
      <trkpt lat="40.831939" lon="-3.961540">
        <ele>2130.648</ele>
        <time>2021-07-29T10:30:46Z</time>
      </trkpt>
      <trkpt lat="40.831930" lon="-3.961508">
        <ele>2129.835</ele>
        <time>2021-07-29T10:30:49Z</time>
      </trkpt>
      <trkpt lat="40.831910" lon="-3.961492">
        <ele>2129.162</ele>
        <time>2021-07-29T10:30:52Z</time>
      </trkpt>
      <trkpt lat="40.831901" lon="-3.961467">
        <ele>2128.493</ele>
        <time>2021-07-29T10:30:56Z</time>
      </trkpt>
      <trkpt lat="40.831901" lon="-3.961435">
        <ele>2127.963</ele>
        <time>2021-07-29T10:30:59Z</time>
      </trkpt>
      <trkpt lat="40.831882" lon="-3.961420">
        <ele>2127.226</ele>
        <time>2021-07-29T10:31:02Z</time>
      </trkpt>
      <trkpt lat="40.831875" lon="-3.961395">
        <ele>2126.695</ele>
        <time>2021-07-29T10:31:05Z</time>
      </trkpt>
      <trkpt lat="40.831869" lon="-3.961372">
        <ele>2126.066</ele>
        <time>2021-07-29T10:31:07Z</time>
      </trkpt>
      <trkpt lat="40.831856" lon="-3.961353">
        <ele>2125.329</ele>
        <time>2021-07-29T10:31:09Z</time>
      </trkpt>
      <trkpt lat="40.831840" lon="-3.961342">
        <ele>2124.721</ele>
        <time>2021-07-29T10:31:11Z</time>
      </trkpt>
      <trkpt lat="40.831824" lon="-3.961313">
        <ele>2123.808</ele>
        <time>2021-07-29T10:31:15Z</time>
      </trkpt>
      <trkpt lat="40.831811" lon="-3.961293">
        <ele>2123.073</ele>
        <time>2021-07-29T10:31:17Z</time>
      </trkpt>
      <trkpt lat="40.831798" lon="-3.961276">
        <ele>2122.415</ele>
        <time>2021-07-29T10:31:19Z</time>
      </trkpt>
      <trkpt lat="40.831792" lon="-3.961254">
        <ele>2121.832</ele>
        <time>2021-07-29T10:31:22Z</time>
      </trkpt>
      <trkpt lat="40.831795" lon="-3.961227">
        <ele>2121.389</ele>
        <time>2021-07-29T10:31:24Z</time>
      </trkpt>
      <trkpt lat="40.831798" lon="-3.961203">
        <ele>2120.810</ele>
        <time>2021-07-29T10:31:26Z</time>
      </trkpt>
      <trkpt lat="40.831792" lon="-3.961177">
        <ele>2120.120</ele>
        <time>2021-07-29T10:31:28Z</time>
      </trkpt>
      <trkpt lat="40.831779" lon="-3.961157">
        <ele>2119.493</ele>
        <time>2021-07-29T10:31:30Z</time>
      </trkpt>
      <trkpt lat="40.831776" lon="-3.961130">
        <ele>2118.852</ele>
        <time>2021-07-29T10:31:32Z</time>
      </trkpt>
      <trkpt lat="40.831776" lon="-3.961094">
        <ele>2118.091</ele>
        <time>2021-07-29T10:31:35Z</time>
      </trkpt>
      <trkpt lat="40.831773" lon="-3.961063">
        <ele>2117.381</ele>
        <time>2021-07-29T10:31:38Z</time>
      </trkpt>
      <trkpt lat="40.831763" lon="-3.961032">
        <ele>2116.519</ele>
        <time>2021-07-29T10:31:41Z</time>
      </trkpt>
      <trkpt lat="40.831763" lon="-3.961003">
        <ele>2115.908</ele>
        <time>2021-07-29T10:31:43Z</time>
      </trkpt>
      <trkpt lat="40.831757" lon="-3.960978">
        <ele>2115.246</ele>
        <time>2021-07-29T10:31:45Z</time>
      </trkpt>
      <trkpt lat="40.831744" lon="-3.960953">
        <ele>2114.568</ele>
        <time>2021-07-29T10:31:48Z</time>
      </trkpt>
      <trkpt lat="40.831744" lon="-3.960926">
        <ele>2114.065</ele>
        <time>2021-07-29T10:31:51Z</time>
      </trkpt>
      <trkpt lat="40.831738" lon="-3.960904">
        <ele>2113.482</ele>
        <time>2021-07-29T10:31:53Z</time>
      </trkpt>
      <trkpt lat="40.831731" lon="-3.960878">
        <ele>2112.853</ele>
        <time>2021-07-29T10:31:56Z</time>
      </trkpt>
      <trkpt lat="40.831725" lon="-3.960850">
        <ele>2112.293</ele>
        <time>2021-07-29T10:31:59Z</time>
      </trkpt>
      <trkpt lat="40.831722" lon="-3.960823">
        <ele>2111.596</ele>
        <time>2021-07-29T10:32:02Z</time>
      </trkpt>
      <trkpt lat="40.831712" lon="-3.960792">
        <ele>2110.425</ele>
        <time>2021-07-29T10:32:05Z</time>
      </trkpt>
      <trkpt lat="40.831718" lon="-3.960757">
        <ele>2109.526</ele>
        <time>2021-07-29T10:32:09Z</time>
      </trkpt>
      <trkpt lat="40.831718" lon="-3.960727">
        <ele>2108.647</ele>
        <time>2021-07-29T10:32:12Z</time>
      </trkpt>
      <trkpt lat="40.831706" lon="-3.960707">
        <ele>2107.911</ele>
        <time>2021-07-29T10:32:14Z</time>
      </trkpt>
      <trkpt lat="40.831706" lon="-3.960675">
        <ele>2106.908</ele>
        <time>2021-07-29T10:32:17Z</time>
      </trkpt>
      <trkpt lat="40.831699" lon="-3.960645">
        <ele>2106.089</ele>
        <time>2021-07-29T10:32:20Z</time>
      </trkpt>
      <trkpt lat="40.831712" lon="-3.960618">
        <ele>2105.391</ele>
        <time>2021-07-29T10:32:23Z</time>
      </trkpt>
      <trkpt lat="40.831712" lon="-3.960593">
        <ele>2104.638</ele>
        <time>2021-07-29T10:32:25Z</time>
      </trkpt>
      <trkpt lat="40.831702" lon="-3.960566">
        <ele>2103.755</ele>
        <time>2021-07-29T10:32:28Z</time>
      </trkpt>
      <trkpt lat="40.831702" lon="-3.960540">
        <ele>2103.096</ele>
        <time>2021-07-29T10:32:32Z</time>
      </trkpt>
      <trkpt lat="40.831712" lon="-3.960515">
        <ele>2102.536</ele>
        <time>2021-07-29T10:32:34Z</time>
      </trkpt>
      <trkpt lat="40.831702" lon="-3.960490">
        <ele>2101.849</ele>
        <time>2021-07-29T10:32:37Z</time>
      </trkpt>
      <trkpt lat="40.831693" lon="-3.960468">
        <ele>2101.298</ele>
        <time>2021-07-29T10:32:39Z</time>
      </trkpt>
      <trkpt lat="40.831683" lon="-3.960443">
        <ele>2100.679</ele>
        <time>2021-07-29T10:32:42Z</time>
      </trkpt>
      <trkpt lat="40.831677" lon="-3.960412">
        <ele>2099.905</ele>
        <time>2021-07-29T10:32:45Z</time>
      </trkpt>
      <trkpt lat="40.831680" lon="-3.960380">
        <ele>2099.225</ele>
        <time>2021-07-29T10:32:48Z</time>
      </trkpt>
      <trkpt lat="40.831677" lon="-3.960350">
        <ele>2098.508</ele>
        <time>2021-07-29T10:32:51Z</time>
      </trkpt>
      <trkpt lat="40.831677" lon="-3.960313">
        <ele>2097.714</ele>
        <time>2021-07-29T10:32:55Z</time>
      </trkpt>
      <trkpt lat="40.831674" lon="-3.960288">
        <ele>2097.246</ele>
        <time>2021-07-29T10:32:57Z</time>
      </trkpt>
      <trkpt lat="40.831674" lon="-3.960262">
        <ele>2096.663</ele>
        <time>2021-07-29T10:32:59Z</time>
      </trkpt>
      <trkpt lat="40.831664" lon="-3.960226">
        <ele>2095.870</ele>
        <time>2021-07-29T10:33:03Z</time>
      </trkpt>
      <trkpt lat="40.831664" lon="-3.960195">
        <ele>2095.291</ele>
        <time>2021-07-29T10:33:06Z</time>
      </trkpt>
      <trkpt lat="40.831670" lon="-3.960168">
        <ele>2094.671</ele>
        <time>2021-07-29T10:33:08Z</time>
      </trkpt>
      <trkpt lat="40.831680" lon="-3.960143">
        <ele>2093.934</ele>
        <time>2021-07-29T10:33:11Z</time>
      </trkpt>
      <trkpt lat="40.831696" lon="-3.960117">
        <ele>2093.273</ele>
        <time>2021-07-29T10:33:14Z</time>
      </trkpt>
      <trkpt lat="40.831715" lon="-3.960090">
        <ele>2092.413</ele>
        <time>2021-07-29T10:33:17Z</time>
      </trkpt>
      <trkpt lat="40.831718" lon="-3.960064">
        <ele>2091.743</ele>
        <time>2021-07-29T10:33:19Z</time>
      </trkpt>
      <trkpt lat="40.831715" lon="-3.960040">
        <ele>2091.207</ele>
        <time>2021-07-29T10:33:21Z</time>
      </trkpt>
      <trkpt lat="40.831715" lon="-3.960015">
        <ele>2090.608</ele>
        <time>2021-07-29T10:33:23Z</time>
      </trkpt>
      <trkpt lat="40.831725" lon="-3.959982">
        <ele>2089.888</ele>
        <time>2021-07-29T10:33:26Z</time>
      </trkpt>
      <trkpt lat="40.831718" lon="-3.959958">
        <ele>2089.330</ele>
        <time>2021-07-29T10:33:28Z</time>
      </trkpt>
      <trkpt lat="40.831702" lon="-3.959930">
        <ele>2088.997</ele>
        <time>2021-07-29T10:33:31Z</time>
      </trkpt>
      <trkpt lat="40.831686" lon="-3.959913">
        <ele>2088.874</ele>
        <time>2021-07-29T10:33:34Z</time>
      </trkpt>
      <trkpt lat="40.831686" lon="-3.959880">
        <ele>2088.165</ele>
        <time>2021-07-29T10:33:38Z</time>
      </trkpt>
      <trkpt lat="40.831683" lon="-3.959855">
        <ele>2087.695</ele>
        <time>2021-07-29T10:33:40Z</time>
      </trkpt>
      <trkpt lat="40.831693" lon="-3.959833">
        <ele>2087.038</ele>
        <time>2021-07-29T10:33:42Z</time>
      </trkpt>
      <trkpt lat="40.831702" lon="-3.959812">
        <ele>2086.357</ele>
        <time>2021-07-29T10:33:45Z</time>
      </trkpt>
      <trkpt lat="40.831712" lon="-3.959785">
        <ele>2085.698</ele>
        <time>2021-07-29T10:33:48Z</time>
      </trkpt>
      <trkpt lat="40.831715" lon="-3.959758">
        <ele>2084.915</ele>
        <time>2021-07-29T10:33:50Z</time>
      </trkpt>
      <trkpt lat="40.831712" lon="-3.959733">
        <ele>2084.426</ele>
        <time>2021-07-29T10:33:52Z</time>
      </trkpt>
      <trkpt lat="40.831706" lon="-3.959702">
        <ele>2083.908</ele>
        <time>2021-07-29T10:33:54Z</time>
      </trkpt>
      <trkpt lat="40.831706" lon="-3.959674">
        <ele>2083.236</ele>
        <time>2021-07-29T10:33:56Z</time>
      </trkpt>
      <trkpt lat="40.831712" lon="-3.959643">
        <ele>2082.518</ele>
        <time>2021-07-29T10:33:58Z</time>
      </trkpt>
      <trkpt lat="40.831706" lon="-3.959620">
        <ele>2082.155</ele>
        <time>2021-07-29T10:34:00Z</time>
      </trkpt>
      <trkpt lat="40.831699" lon="-3.959593">
        <ele>2081.662</ele>
        <time>2021-07-29T10:34:02Z</time>
      </trkpt>
      <trkpt lat="40.831696" lon="-3.959558">
        <ele>2080.913</ele>
        <time>2021-07-29T10:34:05Z</time>
      </trkpt>
      <trkpt lat="40.831686" lon="-3.959530">
        <ele>2080.583</ele>
        <time>2021-07-29T10:34:07Z</time>
      </trkpt>
      <trkpt lat="40.831680" lon="-3.959504">
        <ele>2080.036</ele>
        <time>2021-07-29T10:34:09Z</time>
      </trkpt>
      <trkpt lat="40.831677" lon="-3.959475">
        <ele>2079.525</ele>
        <time>2021-07-29T10:34:16Z</time>
      </trkpt>
      <trkpt lat="40.831661" lon="-3.959463">
        <ele>2079.439</ele>
        <time>2021-07-29T10:34:18Z</time>
      </trkpt>
      <trkpt lat="40.831642" lon="-3.959447">
        <ele>2078.901</ele>
        <time>2021-07-29T10:34:20Z</time>
      </trkpt>
      <trkpt lat="40.831616" lon="-3.959437">
        <ele>2078.621</ele>
        <time>2021-07-29T10:34:22Z</time>
      </trkpt>
      <trkpt lat="40.831594" lon="-3.959438">
        <ele>2078.408</ele>
        <time>2021-07-29T10:34:24Z</time>
      </trkpt>
      <trkpt lat="40.831574" lon="-3.959443">
        <ele>2078.380</ele>
        <time>2021-07-29T10:34:26Z</time>
      </trkpt>
      <trkpt lat="40.831555" lon="-3.959450">
        <ele>2078.342</ele>
        <time>2021-07-29T10:34:28Z</time>
      </trkpt>
      <trkpt lat="40.831536" lon="-3.959467">
        <ele>2078.519</ele>
        <time>2021-07-29T10:34:30Z</time>
      </trkpt>
      <trkpt lat="40.831514" lon="-3.959487">
        <ele>2078.726</ele>
        <time>2021-07-29T10:34:33Z</time>
      </trkpt>
      <trkpt lat="40.831488" lon="-3.959498">
        <ele>2078.657</ele>
        <time>2021-07-29T10:34:35Z</time>
      </trkpt>
      <trkpt lat="40.831462" lon="-3.959518">
        <ele>2078.767</ele>
        <time>2021-07-29T10:34:37Z</time>
      </trkpt>
      <trkpt lat="40.831443" lon="-3.959533">
        <ele>2078.860</ele>
        <time>2021-07-29T10:34:39Z</time>
      </trkpt>
      <trkpt lat="40.831421" lon="-3.959538">
        <ele>2078.729</ele>
        <time>2021-07-29T10:34:42Z</time>
      </trkpt>
      <trkpt lat="40.831402" lon="-3.959542">
        <ele>2078.532</ele>
        <time>2021-07-29T10:34:44Z</time>
      </trkpt>
      <trkpt lat="40.831376" lon="-3.959553">
        <ele>2078.292</ele>
        <time>2021-07-29T10:34:47Z</time>
      </trkpt>
      <trkpt lat="40.831357" lon="-3.959553">
        <ele>2077.711</ele>
        <time>2021-07-29T10:34:49Z</time>
      </trkpt>
      <trkpt lat="40.831338" lon="-3.959540">
        <ele>2077.008</ele>
        <time>2021-07-29T10:34:51Z</time>
      </trkpt>
      <trkpt lat="40.831325" lon="-3.959512">
        <ele>2076.280</ele>
        <time>2021-07-29T10:34:54Z</time>
      </trkpt>
      <trkpt lat="40.831328" lon="-3.959483">
        <ele>2075.892</ele>
        <time>2021-07-29T10:34:56Z</time>
      </trkpt>
      <trkpt lat="40.831315" lon="-3.959452">
        <ele>2075.089</ele>
        <time>2021-07-29T10:34:59Z</time>
      </trkpt>
      <trkpt lat="40.831309" lon="-3.959427">
        <ele>2074.486</ele>
        <time>2021-07-29T10:35:01Z</time>
      </trkpt>
      <trkpt lat="40.831306" lon="-3.959403">
        <ele>2073.947</ele>
        <time>2021-07-29T10:35:03Z</time>
      </trkpt>
      <trkpt lat="40.831302" lon="-3.959368">
        <ele>2073.287</ele>
        <time>2021-07-29T10:35:06Z</time>
      </trkpt>
      <trkpt lat="40.831296" lon="-3.959337">
        <ele>2072.540</ele>
        <time>2021-07-29T10:35:08Z</time>
      </trkpt>
      <trkpt lat="40.831290" lon="-3.959312">
        <ele>2071.929</ele>
        <time>2021-07-29T10:35:10Z</time>
      </trkpt>
      <trkpt lat="40.831290" lon="-3.959277">
        <ele>2071.319</ele>
        <time>2021-07-29T10:35:13Z</time>
      </trkpt>
      <trkpt lat="40.831296" lon="-3.959245">
        <ele>2071.009</ele>
        <time>2021-07-29T10:35:15Z</time>
      </trkpt>
      <trkpt lat="40.831283" lon="-3.959222">
        <ele>2070.119</ele>
        <time>2021-07-29T10:35:17Z</time>
      </trkpt>
      <trkpt lat="40.831264" lon="-3.959203">
        <ele>2069.108</ele>
        <time>2021-07-29T10:35:19Z</time>
      </trkpt>
      <trkpt lat="40.831242" lon="-3.959195">
        <ele>2068.258</ele>
        <time>2021-07-29T10:35:21Z</time>
      </trkpt>
      <trkpt lat="40.831219" lon="-3.959198">
        <ele>2067.580</ele>
        <time>2021-07-29T10:35:23Z</time>
      </trkpt>
      <trkpt lat="40.831194" lon="-3.959215">
        <ele>2066.937</ele>
        <time>2021-07-29T10:35:26Z</time>
      </trkpt>
      <trkpt lat="40.831178" lon="-3.959235">
        <ele>2066.834</ele>
        <time>2021-07-29T10:35:28Z</time>
      </trkpt>
      <trkpt lat="40.831162" lon="-3.959260">
        <ele>2066.795</ele>
        <time>2021-07-29T10:35:30Z</time>
      </trkpt>
      <trkpt lat="40.831146" lon="-3.959278">
        <ele>2066.625</ele>
        <time>2021-07-29T10:35:32Z</time>
      </trkpt>
      <trkpt lat="40.831120" lon="-3.959297">
        <ele>2066.198</ele>
        <time>2021-07-29T10:35:34Z</time>
      </trkpt>
      <trkpt lat="40.831094" lon="-3.959313">
        <ele>2065.637</ele>
        <time>2021-07-29T10:35:36Z</time>
      </trkpt>
      <trkpt lat="40.831069" lon="-3.959322">
        <ele>2065.132</ele>
        <time>2021-07-29T10:35:38Z</time>
      </trkpt>
      <trkpt lat="40.831050" lon="-3.959340">
        <ele>2064.892</ele>
        <time>2021-07-29T10:35:40Z</time>
      </trkpt>
      <trkpt lat="40.831030" lon="-3.959362">
        <ele>2064.711</ele>
        <time>2021-07-29T10:35:42Z</time>
      </trkpt>
      <trkpt lat="40.831008" lon="-3.959383">
        <ele>2064.408</ele>
        <time>2021-07-29T10:35:44Z</time>
      </trkpt>
      <trkpt lat="40.830986" lon="-3.959397">
        <ele>2064.080</ele>
        <time>2021-07-29T10:35:46Z</time>
      </trkpt>
      <trkpt lat="40.830966" lon="-3.959398">
        <ele>2063.472</ele>
        <time>2021-07-29T10:35:48Z</time>
      </trkpt>
      <trkpt lat="40.830950" lon="-3.959386">
        <ele>2062.629</ele>
        <time>2021-07-29T10:35:50Z</time>
      </trkpt>
      <trkpt lat="40.830928" lon="-3.959370">
        <ele>2061.656</ele>
        <time>2021-07-29T10:35:52Z</time>
      </trkpt>
      <trkpt lat="40.830941" lon="-3.959350">
        <ele>2061.757</ele>
        <time>2021-07-29T10:35:55Z</time>
      </trkpt>
      <trkpt lat="40.830931" lon="-3.959327">
        <ele>2060.987</ele>
        <time>2021-07-29T10:35:57Z</time>
      </trkpt>
      <trkpt lat="40.830931" lon="-3.959293">
        <ele>2060.210</ele>
        <time>2021-07-29T10:35:59Z</time>
      </trkpt>
      <trkpt lat="40.830941" lon="-3.959268">
        <ele>2060.189</ele>
        <time>2021-07-29T10:36:01Z</time>
      </trkpt>
      <trkpt lat="40.830941" lon="-3.959243">
        <ele>2059.615</ele>
        <time>2021-07-29T10:36:03Z</time>
      </trkpt>
      <trkpt lat="40.830947" lon="-3.959216">
        <ele>2059.265</ele>
        <time>2021-07-29T10:36:05Z</time>
      </trkpt>
      <trkpt lat="40.830947" lon="-3.959190">
        <ele>2058.711</ele>
        <time>2021-07-29T10:36:08Z</time>
      </trkpt>
      <trkpt lat="40.830947" lon="-3.959165">
        <ele>2058.208</ele>
        <time>2021-07-29T10:36:10Z</time>
      </trkpt>
      <trkpt lat="40.830944" lon="-3.959132">
        <ele>2057.618</ele>
        <time>2021-07-29T10:36:13Z</time>
      </trkpt>
      <trkpt lat="40.830950" lon="-3.959102">
        <ele>2057.280</ele>
        <time>2021-07-29T10:36:16Z</time>
      </trkpt>
      <trkpt lat="40.830960" lon="-3.959077">
        <ele>2057.097</ele>
        <time>2021-07-29T10:36:18Z</time>
      </trkpt>
      <trkpt lat="40.830957" lon="-3.959047">
        <ele>2056.464</ele>
        <time>2021-07-29T10:36:20Z</time>
      </trkpt>
      <trkpt lat="40.830950" lon="-3.959018">
        <ele>2055.735</ele>
        <time>2021-07-29T10:36:22Z</time>
      </trkpt>
      <trkpt lat="40.830957" lon="-3.958988">
        <ele>2055.365</ele>
        <time>2021-07-29T10:36:24Z</time>
      </trkpt>
      <trkpt lat="40.830950" lon="-3.958957">
        <ele>2054.678</ele>
        <time>2021-07-29T10:36:26Z</time>
      </trkpt>
      <trkpt lat="40.830947" lon="-3.958928">
        <ele>2054.047</ele>
        <time>2021-07-29T10:36:28Z</time>
      </trkpt>
      <trkpt lat="40.830950" lon="-3.958900">
        <ele>2053.672</ele>
        <time>2021-07-29T10:36:30Z</time>
      </trkpt>
      <trkpt lat="40.830950" lon="-3.958870">
        <ele>2053.113</ele>
        <time>2021-07-29T10:36:32Z</time>
      </trkpt>
      <trkpt lat="40.830947" lon="-3.958838">
        <ele>2052.514</ele>
        <time>2021-07-29T10:36:34Z</time>
      </trkpt>
      <trkpt lat="40.830941" lon="-3.958810">
        <ele>2051.908</ele>
        <time>2021-07-29T10:36:36Z</time>
      </trkpt>
      <trkpt lat="40.830925" lon="-3.958788">
        <ele>2051.144</ele>
        <time>2021-07-29T10:36:38Z</time>
      </trkpt>
      <trkpt lat="40.830899" lon="-3.958778">
        <ele>2050.236</ele>
        <time>2021-07-29T10:36:41Z</time>
      </trkpt>
      <trkpt lat="40.830877" lon="-3.958782">
        <ele>2049.793</ele>
        <time>2021-07-29T10:36:43Z</time>
      </trkpt>
      <trkpt lat="40.830861" lon="-3.958795">
        <ele>2049.420</ele>
        <time>2021-07-29T10:36:45Z</time>
      </trkpt>
      <trkpt lat="40.830832" lon="-3.958798">
        <ele>2048.771</ele>
        <time>2021-07-29T10:36:47Z</time>
      </trkpt>
      <trkpt lat="40.830810" lon="-3.958797">
        <ele>2048.241</ele>
        <time>2021-07-29T10:36:49Z</time>
      </trkpt>
      <trkpt lat="40.830787" lon="-3.958802">
        <ele>2047.984</ele>
        <time>2021-07-29T10:36:52Z</time>
      </trkpt>
      <trkpt lat="40.830765" lon="-3.958812">
        <ele>2047.663</ele>
        <time>2021-07-29T10:36:54Z</time>
      </trkpt>
      <trkpt lat="40.830739" lon="-3.958815">
        <ele>2047.164</ele>
        <time>2021-07-29T10:36:56Z</time>
      </trkpt>
      <trkpt lat="40.830720" lon="-3.958816">
        <ele>2046.806</ele>
        <time>2021-07-29T10:36:58Z</time>
      </trkpt>
      <trkpt lat="40.830698" lon="-3.958818">
        <ele>2046.416</ele>
        <time>2021-07-29T10:37:00Z</time>
      </trkpt>
      <trkpt lat="40.830678" lon="-3.958815">
        <ele>2046.008</ele>
        <time>2021-07-29T10:37:02Z</time>
      </trkpt>
      <trkpt lat="40.830653" lon="-3.958822">
        <ele>2045.693</ele>
        <time>2021-07-29T10:37:04Z</time>
      </trkpt>
      <trkpt lat="40.830630" lon="-3.958836">
        <ele>2045.445</ele>
        <time>2021-07-29T10:37:06Z</time>
      </trkpt>
      <trkpt lat="40.830605" lon="-3.958845">
        <ele>2045.112</ele>
        <time>2021-07-29T10:37:09Z</time>
      </trkpt>
      <trkpt lat="40.830579" lon="-3.958848">
        <ele>2044.779</ele>
        <time>2021-07-29T10:37:11Z</time>
      </trkpt>
      <trkpt lat="40.830554" lon="-3.958858">
        <ele>2044.450</ele>
        <time>2021-07-29T10:37:13Z</time>
      </trkpt>
      <trkpt lat="40.830528" lon="-3.958856">
        <ele>2043.840</ele>
        <time>2021-07-29T10:37:16Z</time>
      </trkpt>
      <trkpt lat="40.830509" lon="-3.958856">
        <ele>2043.413</ele>
        <time>2021-07-29T10:37:18Z</time>
      </trkpt>
      <trkpt lat="40.830490" lon="-3.958860">
        <ele>2043.162</ele>
        <time>2021-07-29T10:37:20Z</time>
      </trkpt>
      <trkpt lat="40.830470" lon="-3.958870">
        <ele>2042.863</ele>
        <time>2021-07-29T10:37:22Z</time>
      </trkpt>
      <trkpt lat="40.830448" lon="-3.958880">
        <ele>2042.544</ele>
        <time>2021-07-29T10:37:24Z</time>
      </trkpt>
      <trkpt lat="40.830422" lon="-3.958878">
        <ele>2041.918</ele>
        <time>2021-07-29T10:37:27Z</time>
      </trkpt>
      <trkpt lat="40.830400" lon="-3.958883">
        <ele>2041.508</ele>
        <time>2021-07-29T10:37:30Z</time>
      </trkpt>
      <trkpt lat="40.830371" lon="-3.958900">
        <ele>2041.183</ele>
        <time>2021-07-29T10:37:33Z</time>
      </trkpt>
      <trkpt lat="40.830349" lon="-3.958908">
        <ele>2040.835</ele>
        <time>2021-07-29T10:37:35Z</time>
      </trkpt>
      <trkpt lat="40.830330" lon="-3.958907">
        <ele>2040.322</ele>
        <time>2021-07-29T10:37:37Z</time>
      </trkpt>
      <trkpt lat="40.830310" lon="-3.958903">
        <ele>2039.929</ele>
        <time>2021-07-29T10:37:40Z</time>
      </trkpt>
      <trkpt lat="40.830291" lon="-3.958913">
        <ele>2039.550</ele>
        <time>2021-07-29T10:37:42Z</time>
      </trkpt>
      <trkpt lat="40.830269" lon="-3.958915">
        <ele>2039.060</ele>
        <time>2021-07-29T10:37:44Z</time>
      </trkpt>
      <trkpt lat="40.830250" lon="-3.958907">
        <ele>2038.493</ele>
        <time>2021-07-29T10:37:48Z</time>
      </trkpt>
      <trkpt lat="40.830234" lon="-3.958887">
        <ele>2037.722</ele>
        <time>2021-07-29T10:37:51Z</time>
      </trkpt>
      <trkpt lat="40.830237" lon="-3.958858">
        <ele>2037.344</ele>
        <time>2021-07-29T10:37:54Z</time>
      </trkpt>
      <trkpt lat="40.830237" lon="-3.958830">
        <ele>2036.805</ele>
        <time>2021-07-29T10:37:57Z</time>
      </trkpt>
      <trkpt lat="40.830243" lon="-3.958805">
        <ele>2036.515</ele>
        <time>2021-07-29T10:37:59Z</time>
      </trkpt>
      <trkpt lat="40.830253" lon="-3.958772">
        <ele>2036.208</ele>
        <time>2021-07-29T10:38:02Z</time>
      </trkpt>
      <trkpt lat="40.830256" lon="-3.958735">
        <ele>2035.661</ele>
        <time>2021-07-29T10:38:05Z</time>
      </trkpt>
      <trkpt lat="40.830253" lon="-3.958710">
        <ele>2035.143</ele>
        <time>2021-07-29T10:38:07Z</time>
      </trkpt>
      <trkpt lat="40.830250" lon="-3.958686">
        <ele>2034.690</ele>
        <time>2021-07-29T10:38:09Z</time>
      </trkpt>
      <trkpt lat="40.830243" lon="-3.958657">
        <ele>2033.967</ele>
        <time>2021-07-29T10:38:11Z</time>
      </trkpt>
      <trkpt lat="40.830234" lon="-3.958628">
        <ele>2033.228</ele>
        <time>2021-07-29T10:38:13Z</time>
      </trkpt>
      <trkpt lat="40.830230" lon="-3.958603">
        <ele>2032.798</ele>
        <time>2021-07-29T10:38:15Z</time>
      </trkpt>
      <trkpt lat="40.830230" lon="-3.958577">
        <ele>2032.281</ele>
        <time>2021-07-29T10:38:17Z</time>
      </trkpt>
      <trkpt lat="40.830234" lon="-3.958540">
        <ele>2031.670</ele>
        <time>2021-07-29T10:38:20Z</time>
      </trkpt>
      <trkpt lat="40.830230" lon="-3.958510">
        <ele>2031.093</ele>
        <time>2021-07-29T10:38:23Z</time>
      </trkpt>
      <trkpt lat="40.830227" lon="-3.958485">
        <ele>2030.565</ele>
        <time>2021-07-29T10:38:25Z</time>
      </trkpt>
      <trkpt lat="40.830224" lon="-3.958462">
        <ele>2030.021</ele>
        <time>2021-07-29T10:38:27Z</time>
      </trkpt>
      <trkpt lat="40.830214" lon="-3.958440">
        <ele>2029.308</ele>
        <time>2021-07-29T10:38:29Z</time>
      </trkpt>
      <trkpt lat="40.830205" lon="-3.958418">
        <ele>2028.726</ele>
        <time>2021-07-29T10:38:31Z</time>
      </trkpt>
      <trkpt lat="40.830211" lon="-3.958390">
        <ele>2028.378</ele>
        <time>2021-07-29T10:38:34Z</time>
      </trkpt>
      <trkpt lat="40.830221" lon="-3.958362">
        <ele>2028.185</ele>
        <time>2021-07-29T10:38:36Z</time>
      </trkpt>
      <trkpt lat="40.830211" lon="-3.958328">
        <ele>2027.262</ele>
        <time>2021-07-29T10:38:38Z</time>
      </trkpt>
      <trkpt lat="40.830202" lon="-3.958304">
        <ele>2026.653</ele>
        <time>2021-07-29T10:38:41Z</time>
      </trkpt>
      <trkpt lat="40.830205" lon="-3.958278">
        <ele>2026.263</ele>
        <time>2021-07-29T10:38:43Z</time>
      </trkpt>
      <trkpt lat="40.830186" lon="-3.958253">
        <ele>2025.286</ele>
        <time>2021-07-29T10:38:45Z</time>
      </trkpt>
      <trkpt lat="40.830157" lon="-3.958245">
        <ele>2024.435</ele>
        <time>2021-07-29T10:38:47Z</time>
      </trkpt>
      <trkpt lat="40.830131" lon="-3.958262">
        <ele>2024.095</ele>
        <time>2021-07-29T10:38:51Z</time>
      </trkpt>
      <trkpt lat="40.830112" lon="-3.958274">
        <ele>2023.849</ele>
        <time>2021-07-29T10:38:53Z</time>
      </trkpt>
      <trkpt lat="40.830090" lon="-3.958263">
        <ele>2023.023</ele>
        <time>2021-07-29T10:38:55Z</time>
      </trkpt>
      <trkpt lat="40.830067" lon="-3.958270">
        <ele>2022.508</ele>
        <time>2021-07-29T10:38:57Z</time>
      </trkpt>
      <trkpt lat="40.830045" lon="-3.958282">
        <ele>2022.286</ele>
        <time>2021-07-29T10:38:59Z</time>
      </trkpt>
      <trkpt lat="40.830026" lon="-3.958292">
        <ele>2021.978</ele>
        <time>2021-07-29T10:39:01Z</time>
      </trkpt>
      <trkpt lat="40.830003" lon="-3.958294">
        <ele>2021.465</ele>
        <time>2021-07-29T10:39:03Z</time>
      </trkpt>
      <trkpt lat="40.829978" lon="-3.958295">
        <ele>2020.712</ele>
        <time>2021-07-29T10:39:06Z</time>
      </trkpt>
      <trkpt lat="40.829952" lon="-3.958305">
        <ele>2020.123</ele>
        <time>2021-07-29T10:39:09Z</time>
      </trkpt>
      <trkpt lat="40.829926" lon="-3.958314">
        <ele>2019.513</ele>
        <time>2021-07-29T10:39:11Z</time>
      </trkpt>
      <trkpt lat="40.829907" lon="-3.958318">
        <ele>2019.026</ele>
        <time>2021-07-29T10:39:13Z</time>
      </trkpt>
      <trkpt lat="40.829888" lon="-3.958326">
        <ele>2018.675</ele>
        <time>2021-07-29T10:39:15Z</time>
      </trkpt>
      <trkpt lat="40.829869" lon="-3.958343">
        <ele>2018.454</ele>
        <time>2021-07-29T10:39:17Z</time>
      </trkpt>
      <trkpt lat="40.829843" lon="-3.958347">
        <ele>2017.856</ele>
        <time>2021-07-29T10:39:19Z</time>
      </trkpt>
      <trkpt lat="40.829824" lon="-3.958345">
        <ele>2017.211</ele>
        <time>2021-07-29T10:39:21Z</time>
      </trkpt>
      <trkpt lat="40.829805" lon="-3.958338">
        <ele>2016.508</ele>
        <time>2021-07-29T10:39:23Z</time>
      </trkpt>
      <trkpt lat="40.829786" lon="-3.958343">
        <ele>2016.032</ele>
        <time>2021-07-29T10:39:25Z</time>
      </trkpt>
      <trkpt lat="40.829760" lon="-3.958345">
        <ele>2015.334</ele>
        <time>2021-07-29T10:39:27Z</time>
      </trkpt>
      <trkpt lat="40.829731" lon="-3.958365">
        <ele>2014.971</ele>
        <time>2021-07-29T10:39:30Z</time>
      </trkpt>
      <trkpt lat="40.829712" lon="-3.958383">
        <ele>2014.888</ele>
        <time>2021-07-29T10:39:33Z</time>
      </trkpt>
      <trkpt lat="40.829693" lon="-3.958398">
        <ele>2014.559</ele>
        <time>2021-07-29T10:39:36Z</time>
      </trkpt>
      <trkpt lat="40.829670" lon="-3.958398">
        <ele>2013.829</ele>
        <time>2021-07-29T10:39:38Z</time>
      </trkpt>
      <trkpt lat="40.829651" lon="-3.958410">
        <ele>2013.552</ele>
        <time>2021-07-29T10:39:41Z</time>
      </trkpt>
      <trkpt lat="40.829632" lon="-3.958415">
        <ele>2013.081</ele>
        <time>2021-07-29T10:39:43Z</time>
      </trkpt>
      <trkpt lat="40.829616" lon="-3.958430">
        <ele>2012.877</ele>
        <time>2021-07-29T10:39:45Z</time>
      </trkpt>
      <trkpt lat="40.829594" lon="-3.958425">
        <ele>2012.061</ele>
        <time>2021-07-29T10:40:03Z</time>
      </trkpt>
      <trkpt lat="40.829574" lon="-3.958430">
        <ele>2011.427</ele>
        <time>2021-07-29T10:40:07Z</time>
      </trkpt>
      <trkpt lat="40.829552" lon="-3.958432">
        <ele>2010.808</ele>
        <time>2021-07-29T10:40:10Z</time>
      </trkpt>
      <trkpt lat="40.829530" lon="-3.958433">
        <ele>2010.134</ele>
        <time>2021-07-29T10:40:13Z</time>
      </trkpt>
      <trkpt lat="40.829510" lon="-3.958420">
        <ele>2009.346</ele>
        <time>2021-07-29T10:40:16Z</time>
      </trkpt>
      <trkpt lat="40.829488" lon="-3.958407">
        <ele>2008.453</ele>
        <time>2021-07-29T10:40:19Z</time>
      </trkpt>
      <trkpt lat="40.829459" lon="-3.958393">
        <ele>2007.330</ele>
        <time>2021-07-29T10:40:22Z</time>
      </trkpt>
      <trkpt lat="40.829450" lon="-3.958368">
        <ele>2006.781</ele>
        <time>2021-07-29T10:40:26Z</time>
      </trkpt>
      <trkpt lat="40.829437" lon="-3.958345">
        <ele>2006.091</ele>
        <time>2021-07-29T10:40:29Z</time>
      </trkpt>
      <trkpt lat="40.829418" lon="-3.958314">
        <ele>2005.124</ele>
        <time>2021-07-29T10:40:32Z</time>
      </trkpt>
      <trkpt lat="40.829418" lon="-3.958287">
        <ele>2004.883</ele>
        <time>2021-07-29T10:40:34Z</time>
      </trkpt>
      <trkpt lat="40.829408" lon="-3.958257">
        <ele>2004.368</ele>
        <time>2021-07-29T10:40:37Z</time>
      </trkpt>
      <trkpt lat="40.829389" lon="-3.958238">
        <ele>2003.642</ele>
        <time>2021-07-29T10:40:39Z</time>
      </trkpt>
      <trkpt lat="40.829363" lon="-3.958215">
        <ele>2002.726</ele>
        <time>2021-07-29T10:40:41Z</time>
      </trkpt>
      <trkpt lat="40.829350" lon="-3.958197">
        <ele>2002.108</ele>
        <time>2021-07-29T10:40:43Z</time>
      </trkpt>
      <trkpt lat="40.829338" lon="-3.958180">
        <ele>2001.733</ele>
        <time>2021-07-29T10:40:45Z</time>
      </trkpt>
      <trkpt lat="40.829322" lon="-3.958158">
        <ele>2001.035</ele>
        <time>2021-07-29T10:40:47Z</time>
      </trkpt>
      <trkpt lat="40.829309" lon="-3.958136">
        <ele>2000.582</ele>
        <time>2021-07-29T10:40:49Z</time>
      </trkpt>
      <trkpt lat="40.829293" lon="-3.958116">
        <ele>1999.879</ele>
        <time>2021-07-29T10:40:51Z</time>
      </trkpt>
      <trkpt lat="40.829274" lon="-3.958097">
        <ele>1999.210</ele>
        <time>2021-07-29T10:40:53Z</time>
      </trkpt>
      <trkpt lat="40.829258" lon="-3.958085">
        <ele>1998.610</ele>
        <time>2021-07-29T10:40:55Z</time>
      </trkpt>
      <trkpt lat="40.829254" lon="-3.958062">
        <ele>1998.393</ele>
        <time>2021-07-29T10:40:57Z</time>
      </trkpt>
      <trkpt lat="40.829238" lon="-3.958050">
        <ele>1997.742</ele>
        <time>2021-07-29T10:40:59Z</time>
      </trkpt>
      <trkpt lat="40.829222" lon="-3.958037">
        <ele>1997.264</ele>
        <time>2021-07-29T10:41:02Z</time>
      </trkpt>
      <trkpt lat="40.829213" lon="-3.958008">
        <ele>1996.806</ele>
        <time>2021-07-29T10:41:05Z</time>
      </trkpt>
      <trkpt lat="40.829210" lon="-3.957980">
        <ele>1996.516</ele>
        <time>2021-07-29T10:41:08Z</time>
      </trkpt>
      <trkpt lat="40.829194" lon="-3.957957">
        <ele>1995.908</ele>
        <time>2021-07-29T10:41:10Z</time>
      </trkpt>
      <trkpt lat="40.829181" lon="-3.957940">
        <ele>1995.583</ele>
        <time>2021-07-29T10:41:12Z</time>
      </trkpt>
      <trkpt lat="40.829155" lon="-3.957928">
        <ele>1994.985</ele>
        <time>2021-07-29T10:41:15Z</time>
      </trkpt>
      <trkpt lat="40.829136" lon="-3.957905">
        <ele>1994.482</ele>
        <time>2021-07-29T10:41:18Z</time>
      </trkpt>
      <trkpt lat="40.829123" lon="-3.957878">
        <ele>1993.969</ele>
        <time>2021-07-29T10:41:20Z</time>
      </trkpt>
      <trkpt lat="40.829117" lon="-3.957850">
        <ele>1993.650</ele>
        <time>2021-07-29T10:41:23Z</time>
      </trkpt>
      <trkpt lat="40.829101" lon="-3.957822">
        <ele>1993.160</ele>
        <time>2021-07-29T10:41:26Z</time>
      </trkpt>
      <trkpt lat="40.829091" lon="-3.957798">
        <ele>1992.873</ele>
        <time>2021-07-29T10:41:28Z</time>
      </trkpt>
      <trkpt lat="40.829075" lon="-3.957776">
        <ele>1992.332</ele>
        <time>2021-07-29T10:41:30Z</time>
      </trkpt>
      <trkpt lat="40.829062" lon="-3.957750">
        <ele>1991.877</ele>
        <time>2021-07-29T10:41:32Z</time>
      </trkpt>
      <trkpt lat="40.829040" lon="-3.957728">
        <ele>1991.261</ele>
        <time>2021-07-29T10:41:34Z</time>
      </trkpt>
      <trkpt lat="40.829024" lon="-3.957700">
        <ele>1990.627</ele>
        <time>2021-07-29T10:41:36Z</time>
      </trkpt>
      <trkpt lat="40.829021" lon="-3.957673">
        <ele>1990.208</ele>
        <time>2021-07-29T10:41:38Z</time>
      </trkpt>
      <trkpt lat="40.829011" lon="-3.957642">
        <ele>1989.764</ele>
        <time>2021-07-29T10:41:40Z</time>
      </trkpt>
      <trkpt lat="40.829011" lon="-3.957607">
        <ele>1989.456</ele>
        <time>2021-07-29T10:41:42Z</time>
      </trkpt>
      <trkpt lat="40.829011" lon="-3.957567">
        <ele>1988.913</ele>
        <time>2021-07-29T10:41:44Z</time>
      </trkpt>
      <trkpt lat="40.829011" lon="-3.957528">
        <ele>1988.540</ele>
        <time>2021-07-29T10:41:46Z</time>
      </trkpt>
      <trkpt lat="40.829002" lon="-3.957492">
        <ele>1988.051</ele>
        <time>2021-07-29T10:41:48Z</time>
      </trkpt>
      <trkpt lat="40.829005" lon="-3.957458">
        <ele>1987.611</ele>
        <time>2021-07-29T10:41:50Z</time>
      </trkpt>
      <trkpt lat="40.829018" lon="-3.957438">
        <ele>1987.784</ele>
        <time>2021-07-29T10:41:51Z</time>
      </trkpt>
      <trkpt lat="40.829034" lon="-3.957406">
        <ele>1987.623</ele>
        <time>2021-07-29T10:41:53Z</time>
      </trkpt>
      <trkpt lat="40.829040" lon="-3.957372">
        <ele>1987.395</ele>
        <time>2021-07-29T10:41:55Z</time>
      </trkpt>
      <trkpt lat="40.829050" lon="-3.957342">
        <ele>1987.249</ele>
        <time>2021-07-29T10:41:57Z</time>
      </trkpt>
      <trkpt lat="40.829059" lon="-3.957312">
        <ele>1987.023</ele>
        <time>2021-07-29T10:41:59Z</time>
      </trkpt>
      <trkpt lat="40.829072" lon="-3.957282">
        <ele>1986.908</ele>
        <time>2021-07-29T10:42:01Z</time>
      </trkpt>
      <trkpt lat="40.829082" lon="-3.957257">
        <ele>1986.976</ele>
        <time>2021-07-29T10:42:03Z</time>
      </trkpt>
      <trkpt lat="40.829098" lon="-3.957234">
        <ele>1986.998</ele>
        <time>2021-07-29T10:42:05Z</time>
      </trkpt>
      <trkpt lat="40.829101" lon="-3.957203">
        <ele>1986.645</ele>
        <time>2021-07-29T10:42:07Z</time>
      </trkpt>
      <trkpt lat="40.829114" lon="-3.957172">
        <ele>1986.452</ele>
        <time>2021-07-29T10:42:09Z</time>
      </trkpt>
      <trkpt lat="40.829117" lon="-3.957140">
        <ele>1986.013</ele>
        <time>2021-07-29T10:42:11Z</time>
      </trkpt>
      <trkpt lat="40.829123" lon="-3.957103">
        <ele>1985.673</ele>
        <time>2021-07-29T10:42:13Z</time>
      </trkpt>
      <trkpt lat="40.829130" lon="-3.957072">
        <ele>1985.286</ele>
        <time>2021-07-29T10:42:15Z</time>
      </trkpt>
      <trkpt lat="40.829130" lon="-3.957037">
        <ele>1984.815</ele>
        <time>2021-07-29T10:42:17Z</time>
      </trkpt>
      <trkpt lat="40.829130" lon="-3.957012">
        <ele>1984.452</ele>
        <time>2021-07-29T10:42:19Z</time>
      </trkpt>
      <trkpt lat="40.829142" lon="-3.956987">
        <ele>1984.253</ele>
        <time>2021-07-29T10:42:24Z</time>
      </trkpt>
      <trkpt lat="40.829152" lon="-3.956955">
        <ele>1983.908</ele>
        <time>2021-07-29T10:42:26Z</time>
      </trkpt>
      <trkpt lat="40.829158" lon="-3.956923">
        <ele>1983.608</ele>
        <time>2021-07-29T10:42:28Z</time>
      </trkpt>
      <trkpt lat="40.829171" lon="-3.956887">
        <ele>1983.262</ele>
        <time>2021-07-29T10:42:30Z</time>
      </trkpt>
      <trkpt lat="40.829171" lon="-3.956860">
        <ele>1982.844</ele>
        <time>2021-07-29T10:42:32Z</time>
      </trkpt>
      <trkpt lat="40.829171" lon="-3.956827">
        <ele>1982.481</ele>
        <time>2021-07-29T10:42:34Z</time>
      </trkpt>
      <trkpt lat="40.829171" lon="-3.956793">
        <ele>1981.928</ele>
        <time>2021-07-29T10:42:36Z</time>
      </trkpt>
      <trkpt lat="40.829162" lon="-3.956765">
        <ele>1981.439</ele>
        <time>2021-07-29T10:42:39Z</time>
      </trkpt>
      <trkpt lat="40.829155" lon="-3.956740">
        <ele>1980.949</ele>
        <time>2021-07-29T10:42:41Z</time>
      </trkpt>
      <trkpt lat="40.829139" lon="-3.956716">
        <ele>1980.422</ele>
        <time>2021-07-29T10:42:42Z</time>
      </trkpt>
      <trkpt lat="40.829142" lon="-3.956682">
        <ele>1979.921</ele>
        <time>2021-07-29T10:42:44Z</time>
      </trkpt>
      <trkpt lat="40.829139" lon="-3.956650">
        <ele>1979.567</ele>
        <time>2021-07-29T10:42:46Z</time>
      </trkpt>
      <trkpt lat="40.829130" lon="-3.956622">
        <ele>1979.181</ele>
        <time>2021-07-29T10:42:48Z</time>
      </trkpt>
      <trkpt lat="40.829117" lon="-3.956593">
        <ele>1978.719</ele>
        <time>2021-07-29T10:42:50Z</time>
      </trkpt>
      <trkpt lat="40.829114" lon="-3.956564">
        <ele>1978.408</ele>
        <time>2021-07-29T10:42:52Z</time>
      </trkpt>
      <trkpt lat="40.829101" lon="-3.956542">
        <ele>1978.033</ele>
        <time>2021-07-29T10:42:55Z</time>
      </trkpt>
      <trkpt lat="40.829091" lon="-3.956520">
        <ele>1977.735</ele>
        <time>2021-07-29T10:42:58Z</time>
      </trkpt>
      <trkpt lat="40.829075" lon="-3.956500">
        <ele>1977.452</ele>
        <time>2021-07-29T10:43:00Z</time>
      </trkpt>
      <trkpt lat="40.829062" lon="-3.956470">
        <ele>1977.029</ele>
        <time>2021-07-29T10:43:02Z</time>
      </trkpt>
      <trkpt lat="40.829056" lon="-3.956442">
        <ele>1976.740</ele>
        <time>2021-07-29T10:43:04Z</time>
      </trkpt>
      <trkpt lat="40.829050" lon="-3.956418">
        <ele>1976.450</ele>
        <time>2021-07-29T10:43:06Z</time>
      </trkpt>
      <trkpt lat="40.829050" lon="-3.956390">
        <ele>1976.213</ele>
        <time>2021-07-29T10:43:08Z</time>
      </trkpt>
      <trkpt lat="40.829040" lon="-3.956356">
        <ele>1975.762</ele>
        <time>2021-07-29T10:43:10Z</time>
      </trkpt>
      <trkpt lat="40.829043" lon="-3.956320">
        <ele>1975.497</ele>
        <time>2021-07-29T10:43:12Z</time>
      </trkpt>
      <trkpt lat="40.829050" lon="-3.956283">
        <ele>1975.023</ele>
        <time>2021-07-29T10:43:15Z</time>
      </trkpt>
      <trkpt lat="40.829050" lon="-3.956253">
        <ele>1974.725</ele>
        <time>2021-07-29T10:43:17Z</time>
      </trkpt>
      <trkpt lat="40.829050" lon="-3.956223">
        <ele>1974.408</ele>
        <time>2021-07-29T10:43:19Z</time>
      </trkpt>
      <trkpt lat="40.829053" lon="-3.956187">
        <ele>1974.036</ele>
        <time>2021-07-29T10:43:21Z</time>
      </trkpt>
      <trkpt lat="40.829062" lon="-3.956162">
        <ele>1973.828</ele>
        <time>2021-07-29T10:43:23Z</time>
      </trkpt>
      <trkpt lat="40.829062" lon="-3.956132">
        <ele>1973.565</ele>
        <time>2021-07-29T10:43:25Z</time>
      </trkpt>
      <trkpt lat="40.829075" lon="-3.956112">
        <ele>1973.372</ele>
        <time>2021-07-29T10:43:27Z</time>
      </trkpt>
      <trkpt lat="40.829082" lon="-3.956083">
        <ele>1973.013</ele>
        <time>2021-07-29T10:43:29Z</time>
      </trkpt>
      <trkpt lat="40.829085" lon="-3.956058">
        <ele>1972.623</ele>
        <time>2021-07-29T10:43:31Z</time>
      </trkpt>
      <trkpt lat="40.829094" lon="-3.956033">
        <ele>1972.446</ele>
        <time>2021-07-29T10:43:33Z</time>
      </trkpt>
      <trkpt lat="40.829101" lon="-3.956006">
        <ele>1972.085</ele>
        <time>2021-07-29T10:43:35Z</time>
      </trkpt>
      <trkpt lat="40.829114" lon="-3.955987">
        <ele>1971.856</ele>
        <time>2021-07-29T10:43:37Z</time>
      </trkpt>
      <trkpt lat="40.829123" lon="-3.955955">
        <ele>1971.459</ele>
        <time>2021-07-29T10:43:39Z</time>
      </trkpt>
      <trkpt lat="40.829123" lon="-3.955918">
        <ele>1970.914</ele>
        <time>2021-07-29T10:43:42Z</time>
      </trkpt>
      <trkpt lat="40.829123" lon="-3.955892">
        <ele>1970.508</ele>
        <time>2021-07-29T10:43:44Z</time>
      </trkpt>
      <trkpt lat="40.829133" lon="-3.955864">
        <ele>1970.222</ele>
        <time>2021-07-29T10:43:46Z</time>
      </trkpt>
      <trkpt lat="40.829133" lon="-3.955832">
        <ele>1969.784</ele>
        <time>2021-07-29T10:43:48Z</time>
      </trkpt>
      <trkpt lat="40.829136" lon="-3.955803">
        <ele>1969.161</ele>
        <time>2021-07-29T10:43:50Z</time>
      </trkpt>
      <trkpt lat="40.829149" lon="-3.955775">
        <ele>1968.618</ele>
        <time>2021-07-29T10:43:52Z</time>
      </trkpt>
      <trkpt lat="40.829158" lon="-3.955752">
        <ele>1968.229</ele>
        <time>2021-07-29T10:43:54Z</time>
      </trkpt>
      <trkpt lat="40.829171" lon="-3.955728">
        <ele>1967.769</ele>
        <time>2021-07-29T10:43:56Z</time>
      </trkpt>
      <trkpt lat="40.829181" lon="-3.955700">
        <ele>1967.222</ele>
        <time>2021-07-29T10:43:58Z</time>
      </trkpt>
      <trkpt lat="40.829184" lon="-3.955673">
        <ele>1966.661</ele>
        <time>2021-07-29T10:44:00Z</time>
      </trkpt>
      <trkpt lat="40.829194" lon="-3.955647">
        <ele>1966.153</ele>
        <time>2021-07-29T10:44:02Z</time>
      </trkpt>
      <trkpt lat="40.829190" lon="-3.955618">
        <ele>1965.404</ele>
        <time>2021-07-29T10:44:04Z</time>
      </trkpt>
      <trkpt lat="40.829197" lon="-3.955583">
        <ele>1964.714</ele>
        <time>2021-07-29T10:44:07Z</time>
      </trkpt>
      <trkpt lat="40.829194" lon="-3.955557">
        <ele>1964.108</ele>
        <time>2021-07-29T10:44:09Z</time>
      </trkpt>
      <trkpt lat="40.829194" lon="-3.955523">
        <ele>1963.452</ele>
        <time>2021-07-29T10:44:12Z</time>
      </trkpt>
      <trkpt lat="40.829194" lon="-3.955490">
        <ele>1962.724</ele>
        <time>2021-07-29T10:44:15Z</time>
      </trkpt>
      <trkpt lat="40.829181" lon="-3.955458">
        <ele>1961.931</ele>
        <time>2021-07-29T10:44:18Z</time>
      </trkpt>
      <trkpt lat="40.829158" lon="-3.955452">
        <ele>1961.728</ele>
        <time>2021-07-29T10:44:22Z</time>
      </trkpt>
      <trkpt lat="40.829142" lon="-3.955470">
        <ele>1962.169</ele>
        <time>2021-07-29T10:44:27Z</time>
      </trkpt>
      <trkpt lat="40.829139" lon="-3.955443">
        <ele>1961.549</ele>
        <time>2021-07-29T10:44:35Z</time>
      </trkpt>
      <trkpt lat="40.829114" lon="-3.955433">
        <ele>1961.242</ele>
        <time>2021-07-29T10:47:07Z</time>
      </trkpt>
      <trkpt lat="40.829104" lon="-3.955397">
        <ele>1960.371</ele>
        <time>2021-07-29T10:47:09Z</time>
      </trkpt>
      <trkpt lat="40.829091" lon="-3.955360">
        <ele>1959.594</ele>
        <time>2021-07-29T10:47:11Z</time>
      </trkpt>
      <trkpt lat="40.829075" lon="-3.955336">
        <ele>1958.957</ele>
        <time>2021-07-29T10:47:13Z</time>
      </trkpt>
      <trkpt lat="40.829075" lon="-3.955312">
        <ele>1958.422</ele>
        <time>2021-07-29T10:47:16Z</time>
      </trkpt>
      <trkpt lat="40.829062" lon="-3.955284">
        <ele>1957.808</ele>
        <time>2021-07-29T10:47:19Z</time>
      </trkpt>
      <trkpt lat="40.829050" lon="-3.955262">
        <ele>1957.226</ele>
        <time>2021-07-29T10:47:22Z</time>
      </trkpt>
      <trkpt lat="40.829030" lon="-3.955235">
        <ele>1956.638</ele>
        <time>2021-07-29T10:47:25Z</time>
      </trkpt>
      <trkpt lat="40.829014" lon="-3.955217">
        <ele>1956.145</ele>
        <time>2021-07-29T10:47:27Z</time>
      </trkpt>
      <trkpt lat="40.828998" lon="-3.955188">
        <ele>1955.572</ele>
        <time>2021-07-29T10:47:30Z</time>
      </trkpt>
      <trkpt lat="40.828982" lon="-3.955166">
        <ele>1954.923</ele>
        <time>2021-07-29T10:47:32Z</time>
      </trkpt>
      <trkpt lat="40.828970" lon="-3.955138">
        <ele>1954.313</ele>
        <time>2021-07-29T10:47:34Z</time>
      </trkpt>
      <trkpt lat="40.828960" lon="-3.955110">
        <ele>1953.616</ele>
        <time>2021-07-29T10:47:36Z</time>
      </trkpt>
      <trkpt lat="40.828944" lon="-3.955088">
        <ele>1953.195</ele>
        <time>2021-07-29T10:47:38Z</time>
      </trkpt>
      <trkpt lat="40.828925" lon="-3.955070">
        <ele>1952.622</ele>
        <time>2021-07-29T10:47:40Z</time>
      </trkpt>
      <trkpt lat="40.828906" lon="-3.955048">
        <ele>1952.162</ele>
        <time>2021-07-29T10:47:42Z</time>
      </trkpt>
      <trkpt lat="40.828883" lon="-3.955023">
        <ele>1951.408</ele>
        <time>2021-07-29T10:47:44Z</time>
      </trkpt>
      <trkpt lat="40.828864" lon="-3.954998">
        <ele>1950.708</ele>
        <time>2021-07-29T10:47:46Z</time>
      </trkpt>
      <trkpt lat="40.828842" lon="-3.954990">
        <ele>1950.389</ele>
        <time>2021-07-29T10:47:48Z</time>
      </trkpt>
      <trkpt lat="40.828816" lon="-3.954976">
        <ele>1949.781</ele>
        <time>2021-07-29T10:47:50Z</time>
      </trkpt>
      <trkpt lat="40.828784" lon="-3.954975">
        <ele>1949.498</ele>
        <time>2021-07-29T10:47:52Z</time>
      </trkpt>
      <trkpt lat="40.828762" lon="-3.954955">
        <ele>1948.745</ele>
        <time>2021-07-29T10:47:54Z</time>
      </trkpt>
      <trkpt lat="40.828742" lon="-3.954944">
        <ele>1948.366</ele>
        <time>2021-07-29T10:47:56Z</time>
      </trkpt>
      <trkpt lat="40.828720" lon="-3.954937">
        <ele>1948.096</ele>
        <time>2021-07-29T10:47:58Z</time>
      </trkpt>
      <trkpt lat="40.828694" lon="-3.954942">
        <ele>1947.859</ele>
        <time>2021-07-29T10:48:00Z</time>
      </trkpt>
      <trkpt lat="40.828662" lon="-3.954940">
        <ele>1947.468</ele>
        <time>2021-07-29T10:48:02Z</time>
      </trkpt>
      <trkpt lat="40.828637" lon="-3.954938">
        <ele>1947.141</ele>
        <time>2021-07-29T10:48:04Z</time>
      </trkpt>
      <trkpt lat="40.828614" lon="-3.954945">
        <ele>1947.081</ele>
        <time>2021-07-29T10:48:06Z</time>
      </trkpt>
      <trkpt lat="40.828589" lon="-3.954960">
        <ele>1947.009</ele>
        <time>2021-07-29T10:48:08Z</time>
      </trkpt>
      <trkpt lat="40.828573" lon="-3.954982">
        <ele>1947.108</ele>
        <time>2021-07-29T10:48:10Z</time>
      </trkpt>
      <trkpt lat="40.828547" lon="-3.955006">
        <ele>1947.241</ele>
        <time>2021-07-29T10:48:11Z</time>
      </trkpt>
      <trkpt lat="40.828515" lon="-3.955022">
        <ele>1947.083</ele>
        <time>2021-07-29T10:48:13Z</time>
      </trkpt>
      <trkpt lat="40.828502" lon="-3.955038">
        <ele>1947.160</ele>
        <time>2021-07-29T10:48:14Z</time>
      </trkpt>
      <trkpt lat="40.828483" lon="-3.955042">
        <ele>1946.917</ele>
        <time>2021-07-29T10:48:17Z</time>
      </trkpt>
      <trkpt lat="40.828458" lon="-3.955067">
        <ele>1947.098</ele>
        <time>2021-07-29T10:48:20Z</time>
      </trkpt>
      <trkpt lat="40.828435" lon="-3.955095">
        <ele>1947.288</ele>
        <time>2021-07-29T10:48:22Z</time>
      </trkpt>
      <trkpt lat="40.828410" lon="-3.955108">
        <ele>1947.091</ele>
        <time>2021-07-29T10:48:24Z</time>
      </trkpt>
      <trkpt lat="40.828387" lon="-3.955132">
        <ele>1947.170</ele>
        <time>2021-07-29T10:48:27Z</time>
      </trkpt>
      <trkpt lat="40.828362" lon="-3.955145">
        <ele>1947.022</ele>
        <time>2021-07-29T10:48:29Z</time>
      </trkpt>
      <trkpt lat="40.828330" lon="-3.955145">
        <ele>1946.562</ele>
        <time>2021-07-29T10:48:33Z</time>
      </trkpt>
      <trkpt lat="40.828304" lon="-3.955160">
        <ele>1946.108</ele>
        <time>2021-07-29T10:48:35Z</time>
      </trkpt>
      <trkpt lat="40.828278" lon="-3.955173">
        <ele>1945.708</ele>
        <time>2021-07-29T10:48:37Z</time>
      </trkpt>
      <trkpt lat="40.828259" lon="-3.955195">
        <ele>1945.569</ele>
        <time>2021-07-29T10:48:39Z</time>
      </trkpt>
      <trkpt lat="40.828230" lon="-3.955202">
        <ele>1944.941</ele>
        <time>2021-07-29T10:48:42Z</time>
      </trkpt>
      <trkpt lat="40.828208" lon="-3.955202">
        <ele>1944.398</ele>
        <time>2021-07-29T10:48:44Z</time>
      </trkpt>
      <trkpt lat="40.828189" lon="-3.955203">
        <ele>1943.865</ele>
        <time>2021-07-29T10:48:46Z</time>
      </trkpt>
      <trkpt lat="40.828163" lon="-3.955218">
        <ele>1943.366</ele>
        <time>2021-07-29T10:48:49Z</time>
      </trkpt>
      <trkpt lat="40.828147" lon="-3.955238">
        <ele>1943.196</ele>
        <time>2021-07-29T10:48:51Z</time>
      </trkpt>
      <trkpt lat="40.828131" lon="-3.955255">
        <ele>1942.979</ele>
        <time>2021-07-29T10:48:53Z</time>
      </trkpt>
      <trkpt lat="40.828112" lon="-3.955255">
        <ele>1942.368</ele>
        <time>2021-07-29T10:48:55Z</time>
      </trkpt>
      <trkpt lat="40.828083" lon="-3.955268">
        <ele>1941.765</ele>
        <time>2021-07-29T10:48:58Z</time>
      </trkpt>
      <trkpt lat="40.828061" lon="-3.955287">
        <ele>1941.368</ele>
        <time>2021-07-29T10:49:00Z</time>
      </trkpt>
      <trkpt lat="40.828038" lon="-3.955306">
        <ele>1940.914</ele>
        <time>2021-07-29T10:49:02Z</time>
      </trkpt>
      <trkpt lat="40.828010" lon="-3.955336">
        <ele>1940.508</ele>
        <time>2021-07-29T10:49:04Z</time>
      </trkpt>
      <trkpt lat="40.827997" lon="-3.955365">
        <ele>1940.673</ele>
        <time>2021-07-29T10:49:06Z</time>
      </trkpt>
      <trkpt lat="40.827981" lon="-3.955385">
        <ele>1940.455</ele>
        <time>2021-07-29T10:49:08Z</time>
      </trkpt>
      <trkpt lat="40.827962" lon="-3.955407">
        <ele>1940.292</ele>
        <time>2021-07-29T10:49:10Z</time>
      </trkpt>
      <trkpt lat="40.827942" lon="-3.955417">
        <ele>1939.779</ele>
        <time>2021-07-29T10:49:12Z</time>
      </trkpt>
      <trkpt lat="40.827930" lon="-3.955435">
        <ele>1939.680</ele>
        <time>2021-07-29T10:49:14Z</time>
      </trkpt>
      <trkpt lat="40.827926" lon="-3.955460">
        <ele>1939.920</ele>
        <time>2021-07-29T10:49:27Z</time>
      </trkpt>
      <trkpt lat="40.827914" lon="-3.955477">
        <ele>1939.843</ele>
        <time>2021-07-29T10:49:29Z</time>
      </trkpt>
      <trkpt lat="40.827901" lon="-3.955500">
        <ele>1939.762</ele>
        <time>2021-07-29T10:49:32Z</time>
      </trkpt>
      <trkpt lat="40.827891" lon="-3.955543">
        <ele>1940.127</ele>
        <time>2021-07-29T10:50:05Z</time>
      </trkpt>
      <trkpt lat="40.827878" lon="-3.955567">
        <ele>1940.068</ele>
        <time>2021-07-29T10:50:06Z</time>
      </trkpt>
      <trkpt lat="40.827862" lon="-3.955592">
        <ele>1939.814</ele>
        <time>2021-07-29T10:50:07Z</time>
      </trkpt>
      <trkpt lat="40.827846" lon="-3.955622">
        <ele>1939.708</ele>
        <time>2021-07-29T10:50:09Z</time>
      </trkpt>
      <trkpt lat="40.827834" lon="-3.955645">
        <ele>1939.619</ele>
        <time>2021-07-29T10:50:10Z</time>
      </trkpt>
      <trkpt lat="40.827824" lon="-3.955682">
        <ele>1939.731</ele>
        <time>2021-07-29T10:50:12Z</time>
      </trkpt>
      <trkpt lat="40.827818" lon="-3.955706">
        <ele>1939.828</ele>
        <time>2021-07-29T10:50:14Z</time>
      </trkpt>
      <trkpt lat="40.827811" lon="-3.955730">
        <ele>1939.865</ele>
        <time>2021-07-29T10:50:16Z</time>
      </trkpt>
      <trkpt lat="40.827798" lon="-3.955757">
        <ele>1939.866</ele>
        <time>2021-07-29T10:50:18Z</time>
      </trkpt>
      <trkpt lat="40.827773" lon="-3.955785">
        <ele>1939.476</ele>
        <time>2021-07-29T10:50:20Z</time>
      </trkpt>
      <trkpt lat="40.827760" lon="-3.955810">
        <ele>1939.319</ele>
        <time>2021-07-29T10:50:22Z</time>
      </trkpt>
      <trkpt lat="40.827744" lon="-3.955835">
        <ele>1939.268</ele>
        <time>2021-07-29T10:50:24Z</time>
      </trkpt>
      <trkpt lat="40.827728" lon="-3.955867">
        <ele>1939.031</ele>
        <time>2021-07-29T10:50:26Z</time>
      </trkpt>
      <trkpt lat="40.827725" lon="-3.955895">
        <ele>1939.161</ele>
        <time>2021-07-29T10:50:27Z</time>
      </trkpt>
      <trkpt lat="40.827709" lon="-3.955932">
        <ele>1939.007</ele>
        <time>2021-07-29T10:50:29Z</time>
      </trkpt>
      <trkpt lat="40.827693" lon="-3.955953">
        <ele>1938.708</ele>
        <time>2021-07-29T10:50:33Z</time>
      </trkpt>
      <trkpt lat="40.827667" lon="-3.955987">
        <ele>1938.360</ele>
        <time>2021-07-29T10:50:35Z</time>
      </trkpt>
      <trkpt lat="40.827645" lon="-3.956008">
        <ele>1937.982</ele>
        <time>2021-07-29T10:50:37Z</time>
      </trkpt>
      <trkpt lat="40.827635" lon="-3.956038">
        <ele>1937.969</ele>
        <time>2021-07-29T10:50:39Z</time>
      </trkpt>
      <trkpt lat="40.827622" lon="-3.956070">
        <ele>1937.856</ele>
        <time>2021-07-29T10:50:42Z</time>
      </trkpt>
      <trkpt lat="40.827610" lon="-3.956087">
        <ele>1937.637</ele>
        <time>2021-07-29T10:50:43Z</time>
      </trkpt>
      <trkpt lat="40.827594" lon="-3.956115">
        <ele>1937.497</ele>
        <time>2021-07-29T10:50:46Z</time>
      </trkpt>
      <trkpt lat="40.827610" lon="-3.956130">
        <ele>1937.950</ele>
        <time>2021-07-29T10:50:52Z</time>
      </trkpt>
      <trkpt lat="40.827584" lon="-3.956172">
        <ele>1937.659</ele>
        <time>2021-07-29T10:50:56Z</time>
      </trkpt>
      <trkpt lat="40.827574" lon="-3.956195">
        <ele>1937.518</ele>
        <time>2021-07-29T10:50:57Z</time>
      </trkpt>
      <trkpt lat="40.827555" lon="-3.956210">
        <ele>1937.298</ele>
        <time>2021-07-29T10:50:59Z</time>
      </trkpt>
      <trkpt lat="40.827536" lon="-3.956230">
        <ele>1936.817</ele>
        <time>2021-07-29T10:51:01Z</time>
      </trkpt>
      <trkpt lat="40.827514" lon="-3.956250">
        <ele>1936.408</ele>
        <time>2021-07-29T10:51:03Z</time>
      </trkpt>
      <trkpt lat="40.827501" lon="-3.956273">
        <ele>1936.238</ele>
        <time>2021-07-29T10:51:05Z</time>
      </trkpt>
      <trkpt lat="40.827485" lon="-3.956307">
        <ele>1936.070</ele>
        <time>2021-07-29T10:51:07Z</time>
      </trkpt>
      <trkpt lat="40.827462" lon="-3.956340">
        <ele>1935.537</ele>
        <time>2021-07-29T10:51:09Z</time>
      </trkpt>
      <trkpt lat="40.827443" lon="-3.956353">
        <ele>1935.174</ele>
        <time>2021-07-29T10:51:12Z</time>
      </trkpt>
      <trkpt lat="40.827421" lon="-3.956363">
        <ele>1934.595</ele>
        <time>2021-07-29T10:51:14Z</time>
      </trkpt>
      <trkpt lat="40.827402" lon="-3.956376">
        <ele>1934.135</ele>
        <time>2021-07-29T10:51:16Z</time>
      </trkpt>
      <trkpt lat="40.827376" lon="-3.956398">
        <ele>1933.528</ele>
        <time>2021-07-29T10:51:18Z</time>
      </trkpt>
      <trkpt lat="40.827370" lon="-3.956430">
        <ele>1933.647</ele>
        <time>2021-07-29T10:51:20Z</time>
      </trkpt>
      <trkpt lat="40.827357" lon="-3.956463">
        <ele>1933.551</ele>
        <time>2021-07-29T10:51:21Z</time>
      </trkpt>
      <trkpt lat="40.827344" lon="-3.956490">
        <ele>1933.401</ele>
        <time>2021-07-29T10:51:23Z</time>
      </trkpt>
      <trkpt lat="40.827312" lon="-3.956512">
        <ele>1932.611</ele>
        <time>2021-07-29T10:51:25Z</time>
      </trkpt>
      <trkpt lat="40.827293" lon="-3.956530">
        <ele>1932.208</ele>
        <time>2021-07-29T10:51:26Z</time>
      </trkpt>
      <trkpt lat="40.827274" lon="-3.956547">
        <ele>1931.762</ele>
        <time>2021-07-29T10:51:27Z</time>
      </trkpt>
      <trkpt lat="40.827258" lon="-3.956565">
        <ele>1931.414</ele>
        <time>2021-07-29T10:51:31Z</time>
      </trkpt>
      <trkpt lat="40.827245" lon="-3.956585">
        <ele>1931.141</ele>
        <time>2021-07-29T10:51:34Z</time>
      </trkpt>
      <trkpt lat="40.827232" lon="-3.956608">
        <ele>1930.948</ele>
        <time>2021-07-29T10:51:36Z</time>
      </trkpt>
      <trkpt lat="40.827216" lon="-3.956637">
        <ele>1930.699</ele>
        <time>2021-07-29T10:51:38Z</time>
      </trkpt>
      <trkpt lat="40.827184" lon="-3.956668">
        <ele>1929.929</ele>
        <time>2021-07-29T10:51:40Z</time>
      </trkpt>
      <trkpt lat="40.827165" lon="-3.956685">
        <ele>1929.522</ele>
        <time>2021-07-29T10:51:41Z</time>
      </trkpt>
      <trkpt lat="40.827149" lon="-3.956697">
        <ele>1929.241</ele>
        <time>2021-07-29T10:51:42Z</time>
      </trkpt>
      <trkpt lat="40.827130" lon="-3.956725">
        <ele>1929.052</ele>
        <time>2021-07-29T10:51:45Z</time>
      </trkpt>
      <trkpt lat="40.827117" lon="-3.956742">
        <ele>1928.853</ele>
        <time>2021-07-29T10:51:46Z</time>
      </trkpt>
      <trkpt lat="40.827104" lon="-3.956762">
        <ele>1928.608</ele>
        <time>2021-07-29T10:51:51Z</time>
      </trkpt>
      <trkpt lat="40.827085" lon="-3.956772">
        <ele>1928.208</ele>
        <time>2021-07-29T10:51:52Z</time>
      </trkpt>
      <trkpt lat="40.827066" lon="-3.956783">
        <ele>1927.882</ele>
        <time>2021-07-29T10:51:53Z</time>
      </trkpt>
      <trkpt lat="40.827037" lon="-3.956810">
        <ele>1927.214</ele>
        <time>2021-07-29T10:51:55Z</time>
      </trkpt>
      <trkpt lat="40.827011" lon="-3.956833">
        <ele>1926.791</ele>
        <time>2021-07-29T10:51:58Z</time>
      </trkpt>
      <trkpt lat="40.826995" lon="-3.956860">
        <ele>1926.588</ele>
        <time>2021-07-29T10:51:59Z</time>
      </trkpt>
      <trkpt lat="40.826979" lon="-3.956885">
        <ele>1926.449</ele>
        <time>2021-07-29T10:52:00Z</time>
      </trkpt>
      <trkpt lat="40.826960" lon="-3.956922">
        <ele>1926.259</ele>
        <time>2021-07-29T10:52:01Z</time>
      </trkpt>
      <trkpt lat="40.826947" lon="-3.956955">
        <ele>1926.262</ele>
        <time>2021-07-29T10:52:02Z</time>
      </trkpt>
      <trkpt lat="40.826928" lon="-3.956980">
        <ele>1925.981</ele>
        <time>2021-07-29T10:52:03Z</time>
      </trkpt>
      <trkpt lat="40.826899" lon="-3.957008">
        <ele>1925.537</ele>
        <time>2021-07-29T10:52:04Z</time>
      </trkpt>
      <trkpt lat="40.826874" lon="-3.957033">
        <ele>1925.149</ele>
        <time>2021-07-29T10:52:05Z</time>
      </trkpt>
      <trkpt lat="40.826854" lon="-3.957062">
        <ele>1924.913</ele>
        <time>2021-07-29T10:52:07Z</time>
      </trkpt>
      <trkpt lat="40.826832" lon="-3.957066">
        <ele>1924.408</ele>
        <time>2021-07-29T10:52:09Z</time>
      </trkpt>
      <trkpt lat="40.826813" lon="-3.957095">
        <ele>1924.240</ele>
        <time>2021-07-29T10:52:11Z</time>
      </trkpt>
      <trkpt lat="40.826810" lon="-3.957130">
        <ele>1924.462</ele>
        <time>2021-07-29T10:52:13Z</time>
      </trkpt>
      <trkpt lat="40.826794" lon="-3.957168">
        <ele>1924.459</ele>
        <time>2021-07-29T10:52:15Z</time>
      </trkpt>
      <trkpt lat="40.826781" lon="-3.957192">
        <ele>1924.396</ele>
        <time>2021-07-29T10:52:16Z</time>
      </trkpt>
      <trkpt lat="40.826758" lon="-3.957238">
        <ele>1924.117</ele>
        <time>2021-07-29T10:52:18Z</time>
      </trkpt>
      <trkpt lat="40.826749" lon="-3.957258">
        <ele>1924.197</ele>
        <time>2021-07-29T10:52:19Z</time>
      </trkpt>
      <trkpt lat="40.826726" lon="-3.957275">
        <ele>1923.820</ele>
        <time>2021-07-29T10:52:21Z</time>
      </trkpt>
      <trkpt lat="40.826707" lon="-3.957305">
        <ele>1923.769</ele>
        <time>2021-07-29T10:52:23Z</time>
      </trkpt>
      <trkpt lat="40.826691" lon="-3.957320">
        <ele>1923.649</ele>
        <time>2021-07-29T10:52:24Z</time>
      </trkpt>
      <trkpt lat="40.826694" lon="-3.957352">
        <ele>1923.902</ele>
        <time>2021-07-29T10:52:26Z</time>
      </trkpt>
      <trkpt lat="40.826694" lon="-3.957377">
        <ele>1924.222</ele>
        <time>2021-07-29T10:52:28Z</time>
      </trkpt>
      <trkpt lat="40.826675" lon="-3.957400">
        <ele>1924.108</ele>
        <time>2021-07-29T10:52:32Z</time>
      </trkpt>
      <trkpt lat="40.826669" lon="-3.957442">
        <ele>1924.441</ele>
        <time>2021-07-29T10:52:34Z</time>
      </trkpt>
      <trkpt lat="40.826656" lon="-3.957460">
        <ele>1924.173</ele>
        <time>2021-07-29T10:52:35Z</time>
      </trkpt>
      <trkpt lat="40.826634" lon="-3.957453">
        <ele>1923.120</ele>
        <time>2021-07-29T10:52:38Z</time>
      </trkpt>
      <trkpt lat="40.826618" lon="-3.957485">
        <ele>1922.747</ele>
        <time>2021-07-29T10:52:40Z</time>
      </trkpt>
      <trkpt lat="40.826602" lon="-3.957523">
        <ele>1922.468</ele>
        <time>2021-07-29T10:52:42Z</time>
      </trkpt>
      <trkpt lat="40.826589" lon="-3.957552">
        <ele>1922.038</ele>
        <time>2021-07-29T10:52:44Z</time>
      </trkpt>
      <trkpt lat="40.826570" lon="-3.957587">
        <ele>1921.531</ele>
        <time>2021-07-29T10:52:47Z</time>
      </trkpt>
      <trkpt lat="40.826550" lon="-3.957612">
        <ele>1920.840</ele>
        <time>2021-07-29T10:52:49Z</time>
      </trkpt>
      <trkpt lat="40.826538" lon="-3.957638">
        <ele>1920.424</ele>
        <time>2021-07-29T10:52:51Z</time>
      </trkpt>
      <trkpt lat="40.826531" lon="-3.957663">
        <ele>1920.304</ele>
        <time>2021-07-29T10:52:53Z</time>
      </trkpt>
      <trkpt lat="40.826518" lon="-3.957687">
        <ele>1919.914</ele>
        <time>2021-07-29T10:52:55Z</time>
      </trkpt>
      <trkpt lat="40.826499" lon="-3.957723">
        <ele>1919.408</ele>
        <time>2021-07-29T10:52:58Z</time>
      </trkpt>
      <trkpt lat="40.826496" lon="-3.957747">
        <ele>1919.489</ele>
        <time>2021-07-29T10:53:00Z</time>
      </trkpt>
      <trkpt lat="40.826483" lon="-3.957765">
        <ele>1919.091</ele>
        <time>2021-07-29T10:53:02Z</time>
      </trkpt>
      <trkpt lat="40.826474" lon="-3.957788">
        <ele>1918.858</ele>
        <time>2021-07-29T10:53:04Z</time>
      </trkpt>
      <trkpt lat="40.826461" lon="-3.957820">
        <ele>1918.475</ele>
        <time>2021-07-29T10:53:06Z</time>
      </trkpt>
      <trkpt lat="40.826448" lon="-3.957843">
        <ele>1918.056</ele>
        <time>2021-07-29T10:53:08Z</time>
      </trkpt>
      <trkpt lat="40.826432" lon="-3.957873">
        <ele>1917.536</ele>
        <time>2021-07-29T10:53:10Z</time>
      </trkpt>
      <trkpt lat="40.826429" lon="-3.957907">
        <ele>1917.789</ele>
        <time>2021-07-29T10:53:12Z</time>
      </trkpt>
      <trkpt lat="40.826410" lon="-3.957935">
        <ele>1917.078</ele>
        <time>2021-07-29T10:53:15Z</time>
      </trkpt>
      <trkpt lat="40.826394" lon="-3.957967">
        <ele>1916.633</ele>
        <time>2021-07-29T10:53:17Z</time>
      </trkpt>
      <trkpt lat="40.826371" lon="-3.957988">
        <ele>1915.823</ele>
        <time>2021-07-29T10:53:18Z</time>
      </trkpt>
      <trkpt lat="40.826355" lon="-3.958010">
        <ele>1915.315</ele>
        <time>2021-07-29T10:53:20Z</time>
      </trkpt>
      <trkpt lat="40.826342" lon="-3.958040">
        <ele>1915.008</ele>
        <time>2021-07-29T10:53:22Z</time>
      </trkpt>
      <trkpt lat="40.826339" lon="-3.958070">
        <ele>1915.270</ele>
        <time>2021-07-29T10:53:24Z</time>
      </trkpt>
      <trkpt lat="40.826330" lon="-3.958095">
        <ele>1915.062</ele>
        <time>2021-07-29T10:53:26Z</time>
      </trkpt>
      <trkpt lat="40.826314" lon="-3.958122">
        <ele>1914.639</ele>
        <time>2021-07-29T10:53:29Z</time>
      </trkpt>
      <trkpt lat="40.826291" lon="-3.958138">
        <ele>1913.876</ele>
        <time>2021-07-29T10:53:31Z</time>
      </trkpt>
      <trkpt lat="40.826269" lon="-3.958152">
        <ele>1913.047</ele>
        <time>2021-07-29T10:53:35Z</time>
      </trkpt>
      <trkpt lat="40.826250" lon="-3.958150">
        <ele>1912.247</ele>
        <time>2021-07-29T10:53:37Z</time>
      </trkpt>
      <trkpt lat="40.826230" lon="-3.958155">
        <ele>1911.420</ele>
        <time>2021-07-29T10:53:40Z</time>
      </trkpt>
      <trkpt lat="40.826221" lon="-3.958125">
        <ele>1910.839</ele>
        <time>2021-07-29T10:53:46Z</time>
      </trkpt>
      <trkpt lat="40.826221" lon="-3.958090">
        <ele>1910.635</ele>
        <time>2021-07-29T10:53:51Z</time>
      </trkpt>
      <trkpt lat="40.826234" lon="-3.958072">
        <ele>1911.086</ele>
        <time>2021-07-29T10:53:53Z</time>
      </trkpt>
      <trkpt lat="40.826237" lon="-3.958033">
        <ele>1910.814</ele>
        <time>2021-07-29T10:53:56Z</time>
      </trkpt>
      <trkpt lat="40.826240" lon="-3.958005">
        <ele>1910.708</ele>
        <time>2021-07-29T10:53:58Z</time>
      </trkpt>
      <trkpt lat="40.826250" lon="-3.957976">
        <ele>1910.960</ele>
        <time>2021-07-29T10:54:00Z</time>
      </trkpt>
      <trkpt lat="40.826250" lon="-3.957940">
        <ele>1910.742</ele>
        <time>2021-07-29T10:54:02Z</time>
      </trkpt>
      <trkpt lat="40.826250" lon="-3.957912">
        <ele>1910.599</ele>
        <time>2021-07-29T10:54:04Z</time>
      </trkpt>
      <trkpt lat="40.826250" lon="-3.957880">
        <ele>1910.246</ele>
        <time>2021-07-29T10:54:06Z</time>
      </trkpt>
      <trkpt lat="40.826250" lon="-3.957850">
        <ele>1910.097</ele>
        <time>2021-07-29T10:54:08Z</time>
      </trkpt>
      <trkpt lat="40.826250" lon="-3.957817">
        <ele>1909.837</ele>
        <time>2021-07-29T10:54:10Z</time>
      </trkpt>
      <trkpt lat="40.826243" lon="-3.957776">
        <ele>1909.240</ele>
        <time>2021-07-29T10:54:13Z</time>
      </trkpt>
      <trkpt lat="40.826240" lon="-3.957745">
        <ele>1908.919</ele>
        <time>2021-07-29T10:54:15Z</time>
      </trkpt>
      <trkpt lat="40.826230" lon="-3.957713">
        <ele>1908.475</ele>
        <time>2021-07-29T10:54:17Z</time>
      </trkpt>
      <trkpt lat="40.826224" lon="-3.957678">
        <ele>1908.028</ele>
        <time>2021-07-29T10:54:19Z</time>
      </trkpt>
      <trkpt lat="40.826221" lon="-3.957648">
        <ele>1907.720</ele>
        <time>2021-07-29T10:54:21Z</time>
      </trkpt>
      <trkpt lat="40.826211" lon="-3.957617">
        <ele>1907.208</ele>
        <time>2021-07-29T10:54:23Z</time>
      </trkpt>
      <trkpt lat="40.826195" lon="-3.957587">
        <ele>1906.494</ele>
        <time>2021-07-29T10:54:25Z</time>
      </trkpt>
      <trkpt lat="40.826195" lon="-3.957557">
        <ele>1906.376</ele>
        <time>2021-07-29T10:54:27Z</time>
      </trkpt>
      <trkpt lat="40.826195" lon="-3.957520">
        <ele>1906.173</ele>
        <time>2021-07-29T10:54:29Z</time>
      </trkpt>
      <trkpt lat="40.826182" lon="-3.957490">
        <ele>1905.570</ele>
        <time>2021-07-29T10:54:31Z</time>
      </trkpt>
      <trkpt lat="40.826179" lon="-3.957463">
        <ele>1905.191</ele>
        <time>2021-07-29T10:54:33Z</time>
      </trkpt>
      <trkpt lat="40.826182" lon="-3.957432">
        <ele>1905.051</ele>
        <time>2021-07-29T10:54:35Z</time>
      </trkpt>
      <trkpt lat="40.826186" lon="-3.957395">
        <ele>1904.854</ele>
        <time>2021-07-29T10:54:37Z</time>
      </trkpt>
      <trkpt lat="40.826186" lon="-3.957365">
        <ele>1904.693</ele>
        <time>2021-07-29T10:54:39Z</time>
      </trkpt>
      <trkpt lat="40.826205" lon="-3.957347">
        <ele>1905.162</ele>
        <time>2021-07-29T10:54:41Z</time>
      </trkpt>
      <trkpt lat="40.826186" lon="-3.957335">
        <ele>1904.383</ele>
        <time>2021-07-29T10:54:45Z</time>
      </trkpt>
      <trkpt lat="40.826192" lon="-3.957310">
        <ele>1904.311</ele>
        <time>2021-07-29T10:54:49Z</time>
      </trkpt>
      <trkpt lat="40.826202" lon="-3.957282">
        <ele>1904.408</ele>
        <time>2021-07-29T10:54:52Z</time>
      </trkpt>
      <trkpt lat="40.826211" lon="-3.957255">
        <ele>1904.573</ele>
        <time>2021-07-29T10:54:54Z</time>
      </trkpt>
      <trkpt lat="40.826214" lon="-3.957227">
        <ele>1904.415</ele>
        <time>2021-07-29T10:54:56Z</time>
      </trkpt>
      <trkpt lat="40.826221" lon="-3.957192">
        <ele>1904.472</ele>
        <time>2021-07-29T10:54:58Z</time>
      </trkpt>
      <trkpt lat="40.826221" lon="-3.957150">
        <ele>1904.239</ele>
        <time>2021-07-29T10:55:00Z</time>
      </trkpt>
      <trkpt lat="40.826218" lon="-3.957113">
        <ele>1904.050</ele>
        <time>2021-07-29T10:55:02Z</time>
      </trkpt>
      <trkpt lat="40.826214" lon="-3.957076">
        <ele>1903.720</ele>
        <time>2021-07-29T10:55:04Z</time>
      </trkpt>
      <trkpt lat="40.826211" lon="-3.957047">
        <ele>1903.413</ele>
        <time>2021-07-29T10:55:05Z</time>
      </trkpt>
      <trkpt lat="40.826192" lon="-3.957015">
        <ele>1902.642</ele>
        <time>2021-07-29T10:55:07Z</time>
      </trkpt>
      <trkpt lat="40.826182" lon="-3.956993">
        <ele>1902.171</ele>
        <time>2021-07-29T10:55:08Z</time>
      </trkpt>
      <trkpt lat="40.826170" lon="-3.956965">
        <ele>1901.441</ele>
        <time>2021-07-29T10:55:10Z</time>
      </trkpt>
      <trkpt lat="40.826144" lon="-3.956957">
        <ele>1900.415</ele>
        <time>2021-07-29T10:55:12Z</time>
      </trkpt>
      <trkpt lat="40.826122" lon="-3.956955">
        <ele>1899.508</ele>
        <time>2021-07-29T10:55:14Z</time>
      </trkpt>
      <trkpt lat="40.826099" lon="-3.956958">
        <ele>1898.784</ele>
        <time>2021-07-29T10:55:16Z</time>
      </trkpt>
      <trkpt lat="40.826077" lon="-3.956963">
        <ele>1898.046</ele>
        <time>2021-07-29T10:55:18Z</time>
      </trkpt>
      <trkpt lat="40.826058" lon="-3.956980">
        <ele>1897.553</ele>
        <time>2021-07-29T10:55:38Z</time>
      </trkpt>
      <trkpt lat="40.826035" lon="-3.957005">
        <ele>1896.910</ele>
        <time>2021-07-29T10:55:40Z</time>
      </trkpt>
      <trkpt lat="40.826013" lon="-3.957042">
        <ele>1896.451</ele>
        <time>2021-07-29T10:55:42Z</time>
      </trkpt>
      <trkpt lat="40.825997" lon="-3.957055">
        <ele>1895.981</ele>
        <time>2021-07-29T10:55:43Z</time>
      </trkpt>
      <trkpt lat="40.825978" lon="-3.957072">
        <ele>1895.484</ele>
        <time>2021-07-29T10:55:45Z</time>
      </trkpt>
      <trkpt lat="40.825965" lon="-3.957093">
        <ele>1895.193</ele>
        <time>2021-07-29T10:55:46Z</time>
      </trkpt>
      <trkpt lat="40.825962" lon="-3.957128">
        <ele>1895.172</ele>
        <time>2021-07-29T10:55:48Z</time>
      </trkpt>
      <trkpt lat="40.825946" lon="-3.957153">
        <ele>1894.713</ele>
        <time>2021-07-29T10:55:51Z</time>
      </trkpt>
      <trkpt lat="40.825933" lon="-3.957187">
        <ele>1894.414</ele>
        <time>2021-07-29T10:55:53Z</time>
      </trkpt>
      <trkpt lat="40.825923" lon="-3.957208">
        <ele>1894.208</ele>
        <time>2021-07-29T10:55:56Z</time>
      </trkpt>
      <trkpt lat="40.825923" lon="-3.957237">
        <ele>1894.374</ele>
        <time>2021-07-29T10:55:58Z</time>
      </trkpt>
      <trkpt lat="40.825904" lon="-3.957262">
        <ele>1893.736</ele>
        <time>2021-07-29T10:56:00Z</time>
      </trkpt>
      <trkpt lat="40.825888" lon="-3.957283">
        <ele>1893.223</ele>
        <time>2021-07-29T10:56:04Z</time>
      </trkpt>
      <trkpt lat="40.825859" lon="-3.957297">
        <ele>1892.260</ele>
        <time>2021-07-29T10:56:07Z</time>
      </trkpt>
      <trkpt lat="40.825846" lon="-3.957335">
        <ele>1891.951</ele>
        <time>2021-07-29T10:56:09Z</time>
      </trkpt>
      <trkpt lat="40.825827" lon="-3.957373">
        <ele>1891.321</ele>
        <time>2021-07-29T10:56:11Z</time>
      </trkpt>
      <trkpt lat="40.825821" lon="-3.957410">
        <ele>1891.234</ele>
        <time>2021-07-29T10:56:13Z</time>
      </trkpt>
      <trkpt lat="40.825805" lon="-3.957455">
        <ele>1890.783</ele>
        <time>2021-07-29T10:56:15Z</time>
      </trkpt>
      <trkpt lat="40.825792" lon="-3.957472">
        <ele>1890.398</ele>
        <time>2021-07-29T10:56:16Z</time>
      </trkpt>
      <trkpt lat="40.825776" lon="-3.957502">
        <ele>1889.715</ele>
        <time>2021-07-29T10:56:18Z</time>
      </trkpt>
      <trkpt lat="40.825760" lon="-3.957542">
        <ele>1889.226</ele>
        <time>2021-07-29T10:56:20Z</time>
      </trkpt>
      <trkpt lat="40.825760" lon="-3.957568">
        <ele>1889.308</ele>
        <time>2021-07-29T10:56:22Z</time>
      </trkpt>
      <trkpt lat="40.825747" lon="-3.957604">
        <ele>1889.036</ele>
        <time>2021-07-29T10:56:30Z</time>
      </trkpt>
      <trkpt lat="40.825728" lon="-3.957636">
        <ele>1888.348</ele>
        <time>2021-07-29T10:56:32Z</time>
      </trkpt>
      <trkpt lat="40.825722" lon="-3.957662">
        <ele>1888.235</ele>
        <time>2021-07-29T10:56:33Z</time>
      </trkpt>
      <trkpt lat="40.825718" lon="-3.957690">
        <ele>1888.132</ele>
        <time>2021-07-29T10:56:35Z</time>
      </trkpt>
      <trkpt lat="40.825706" lon="-3.957723">
        <ele>1887.843</ele>
        <time>2021-07-29T10:56:38Z</time>
      </trkpt>
      <trkpt lat="40.825696" lon="-3.957752">
        <ele>1887.583</ele>
        <time>2021-07-29T10:56:41Z</time>
      </trkpt>
      <trkpt lat="40.825683" lon="-3.957782">
        <ele>1887.166</ele>
        <time>2021-07-29T10:56:43Z</time>
      </trkpt>
      <trkpt lat="40.825667" lon="-3.957806">
        <ele>1886.525</ele>
        <time>2021-07-29T10:56:44Z</time>
      </trkpt>
      <trkpt lat="40.825654" lon="-3.957842">
        <ele>1886.077</ele>
        <time>2021-07-29T10:56:46Z</time>
      </trkpt>
      <trkpt lat="40.825642" lon="-3.957873">
        <ele>1885.561</ele>
        <time>2021-07-29T10:56:48Z</time>
      </trkpt>
      <trkpt lat="40.825642" lon="-3.957913">
        <ele>1885.627</ele>
        <time>2021-07-29T10:56:50Z</time>
      </trkpt>
      <trkpt lat="40.825629" lon="-3.957930">
        <ele>1885.108</ele>
        <time>2021-07-29T10:56:52Z</time>
      </trkpt>
      <trkpt lat="40.825610" lon="-3.957945">
        <ele>1884.364</ele>
        <time>2021-07-29T10:56:54Z</time>
      </trkpt>
      <trkpt lat="40.825597" lon="-3.957974">
        <ele>1883.746</ele>
        <time>2021-07-29T10:56:56Z</time>
      </trkpt>
      <trkpt lat="40.825587" lon="-3.958000">
        <ele>1883.363</ele>
        <time>2021-07-29T10:56:58Z</time>
      </trkpt>
      <trkpt lat="40.825581" lon="-3.958030">
        <ele>1883.160</ele>
        <time>2021-07-29T10:57:00Z</time>
      </trkpt>
      <trkpt lat="40.825562" lon="-3.958063">
        <ele>1882.331</ele>
        <time>2021-07-29T10:57:02Z</time>
      </trkpt>
      <trkpt lat="40.825549" lon="-3.958087">
        <ele>1881.921</ele>
        <time>2021-07-29T10:57:04Z</time>
      </trkpt>
      <trkpt lat="40.825530" lon="-3.958106">
        <ele>1881.264</ele>
        <time>2021-07-29T10:57:06Z</time>
      </trkpt>
      <trkpt lat="40.825510" lon="-3.958132">
        <ele>1880.693</ele>
        <time>2021-07-29T10:57:08Z</time>
      </trkpt>
      <trkpt lat="40.825504" lon="-3.958162">
        <ele>1880.521</ele>
        <time>2021-07-29T10:57:10Z</time>
      </trkpt>
      <trkpt lat="40.825498" lon="-3.958193">
        <ele>1880.341</ele>
        <time>2021-07-29T10:57:12Z</time>
      </trkpt>
      <trkpt lat="40.825488" lon="-3.958227">
        <ele>1880.005</ele>
        <time>2021-07-29T10:57:15Z</time>
      </trkpt>
      <trkpt lat="40.825482" lon="-3.958252">
        <ele>1879.908</ele>
        <time>2021-07-29T10:57:17Z</time>
      </trkpt>
      <trkpt lat="40.825478" lon="-3.958288">
        <ele>1879.829</ele>
        <time>2021-07-29T10:57:19Z</time>
      </trkpt>
      <trkpt lat="40.825469" lon="-3.958314">
        <ele>1879.571</ele>
        <time>2021-07-29T10:57:21Z</time>
      </trkpt>
      <trkpt lat="40.825475" lon="-3.958336">
        <ele>1879.818</ele>
        <time>2021-07-29T10:57:22Z</time>
      </trkpt>
      <trkpt lat="40.825478" lon="-3.958378">
        <ele>1880.195</ele>
        <time>2021-07-29T10:57:24Z</time>
      </trkpt>
      <trkpt lat="40.825478" lon="-3.958408">
        <ele>1880.296</ele>
        <time>2021-07-29T10:57:26Z</time>
      </trkpt>
      <trkpt lat="40.825482" lon="-3.958433">
        <ele>1880.476</ele>
        <time>2021-07-29T10:57:27Z</time>
      </trkpt>
      <trkpt lat="40.825485" lon="-3.958482">
        <ele>1880.739</ele>
        <time>2021-07-29T10:57:29Z</time>
      </trkpt>
      <trkpt lat="40.825494" lon="-3.958518">
        <ele>1881.298</ele>
        <time>2021-07-29T10:57:30Z</time>
      </trkpt>
      <trkpt lat="40.825501" lon="-3.958552">
        <ele>1881.673</ele>
        <time>2021-07-29T10:57:31Z</time>
      </trkpt>
      <trkpt lat="40.825504" lon="-3.958578">
        <ele>1881.885</ele>
        <time>2021-07-29T10:57:32Z</time>
      </trkpt>
      <trkpt lat="40.825498" lon="-3.958612">
        <ele>1881.713</ele>
        <time>2021-07-29T10:57:34Z</time>
      </trkpt>
      <trkpt lat="40.825485" lon="-3.958650">
        <ele>1881.208</ele>
        <time>2021-07-29T10:57:36Z</time>
      </trkpt>
      <trkpt lat="40.825485" lon="-3.958665">
        <ele>1881.294</ele>
        <time>2021-07-29T10:57:37Z</time>
      </trkpt>
      <trkpt lat="40.825430" lon="-3.958737">
        <ele>1879.046</ele>
        <time>2021-07-29T10:57:44Z</time>
      </trkpt>
      <trkpt lat="40.825411" lon="-3.958783">
        <ele>1878.393</ele>
        <time>2021-07-29T10:57:46Z</time>
      </trkpt>
      <trkpt lat="40.825402" lon="-3.958818">
        <ele>1877.960</ele>
        <time>2021-07-29T10:57:53Z</time>
      </trkpt>
      <trkpt lat="40.825389" lon="-3.958840">
        <ele>1877.431</ele>
        <time>2021-07-29T10:57:54Z</time>
      </trkpt>
      <trkpt lat="40.825382" lon="-3.958863">
        <ele>1877.111</ele>
        <time>2021-07-29T10:57:55Z</time>
      </trkpt>
      <trkpt lat="40.825382" lon="-3.958905">
        <ele>1877.274</ele>
        <time>2021-07-29T10:57:57Z</time>
      </trkpt>
      <trkpt lat="40.825379" lon="-3.958943">
        <ele>1877.253</ele>
        <time>2021-07-29T10:57:59Z</time>
      </trkpt>
      <trkpt lat="40.825370" lon="-3.958977">
        <ele>1877.096</ele>
        <time>2021-07-29T10:58:01Z</time>
      </trkpt>
      <trkpt lat="40.825360" lon="-3.959005">
        <ele>1876.731</ele>
        <time>2021-07-29T10:58:03Z</time>
      </trkpt>
      <trkpt lat="40.825350" lon="-3.959035">
        <ele>1876.424</ele>
        <time>2021-07-29T10:58:06Z</time>
      </trkpt>
      <trkpt lat="40.825344" lon="-3.959063">
        <ele>1876.208</ele>
        <time>2021-07-29T10:58:08Z</time>
      </trkpt>
      <trkpt lat="40.825331" lon="-3.959090">
        <ele>1875.836</ele>
        <time>2021-07-29T10:58:10Z</time>
      </trkpt>
      <trkpt lat="40.825322" lon="-3.959123">
        <ele>1875.688</ele>
        <time>2021-07-29T10:58:12Z</time>
      </trkpt>
      <trkpt lat="40.825306" lon="-3.959147">
        <ele>1875.025</ele>
        <time>2021-07-29T10:58:14Z</time>
      </trkpt>
      <trkpt lat="40.825296" lon="-3.959186">
        <ele>1874.822</ele>
        <time>2021-07-29T10:58:17Z</time>
      </trkpt>
      <trkpt lat="40.825283" lon="-3.959208">
        <ele>1874.313</ele>
        <time>2021-07-29T10:58:18Z</time>
      </trkpt>
      <trkpt lat="40.825270" lon="-3.959228">
        <ele>1874.023</ele>
        <time>2021-07-29T10:58:19Z</time>
      </trkpt>
      <trkpt lat="40.825261" lon="-3.959267">
        <ele>1873.916</ele>
        <time>2021-07-29T10:58:22Z</time>
      </trkpt>
      <trkpt lat="40.825245" lon="-3.959298">
        <ele>1873.585</ele>
        <time>2021-07-29T10:58:24Z</time>
      </trkpt>
      <trkpt lat="40.825232" lon="-3.959322">
        <ele>1873.146</ele>
        <time>2021-07-29T10:58:25Z</time>
      </trkpt>
      <trkpt lat="40.825219" lon="-3.959344">
        <ele>1872.888</ele>
        <time>2021-07-29T10:58:26Z</time>
      </trkpt>
      <trkpt lat="40.825210" lon="-3.959370">
        <ele>1872.616</ele>
        <time>2021-07-29T10:58:27Z</time>
      </trkpt>
      <trkpt lat="40.825200" lon="-3.959402">
        <ele>1872.408</ele>
        <time>2021-07-29T10:58:28Z</time>
      </trkpt>
      <trkpt lat="40.825200" lon="-3.959437">
        <ele>1872.541</ele>
        <time>2021-07-29T10:58:31Z</time>
      </trkpt>
      <trkpt lat="40.825206" lon="-3.959465">
        <ele>1872.633</ele>
        <time>2021-07-29T10:58:33Z</time>
      </trkpt>
      <trkpt lat="40.825190" lon="-3.959495">
        <ele>1872.050</ele>
        <time>2021-07-29T10:58:35Z</time>
      </trkpt>
      <trkpt lat="40.825184" lon="-3.959520">
        <ele>1871.797</ele>
        <time>2021-07-29T10:58:37Z</time>
      </trkpt>
      <trkpt lat="40.825181" lon="-3.959552">
        <ele>1871.568</ele>
        <time>2021-07-29T10:58:39Z</time>
      </trkpt>
      <trkpt lat="40.825178" lon="-3.959590">
        <ele>1871.218</ele>
        <time>2021-07-29T10:58:41Z</time>
      </trkpt>
      <trkpt lat="40.825165" lon="-3.959617">
        <ele>1870.781</ele>
        <time>2021-07-29T10:58:43Z</time>
      </trkpt>
      <trkpt lat="40.825168" lon="-3.959645">
        <ele>1870.730</ele>
        <time>2021-07-29T10:58:45Z</time>
      </trkpt>
      <trkpt lat="40.825162" lon="-3.959674">
        <ele>1870.428</ele>
        <time>2021-07-29T10:58:47Z</time>
      </trkpt>
      <trkpt lat="40.825146" lon="-3.959702">
        <ele>1869.889</ele>
        <time>2021-07-29T10:58:49Z</time>
      </trkpt>
      <trkpt lat="40.825142" lon="-3.959727">
        <ele>1869.617</ele>
        <time>2021-07-29T10:58:51Z</time>
      </trkpt>
      <trkpt lat="40.825139" lon="-3.959755">
        <ele>1869.308</ele>
        <time>2021-07-29T10:58:53Z</time>
      </trkpt>
      <trkpt lat="40.825133" lon="-3.959792">
        <ele>1868.969</ele>
        <time>2021-07-29T10:58:55Z</time>
      </trkpt>
      <trkpt lat="40.825139" lon="-3.959815">
        <ele>1869.061</ele>
        <time>2021-07-29T10:58:57Z</time>
      </trkpt>
      <trkpt lat="40.825126" lon="-3.959860">
        <ele>1868.428</ele>
        <time>2021-07-29T10:58:59Z</time>
      </trkpt>
      <trkpt lat="40.825120" lon="-3.959895">
        <ele>1868.065</ele>
        <time>2021-07-29T10:59:01Z</time>
      </trkpt>
      <trkpt lat="40.825107" lon="-3.959928">
        <ele>1867.416</ele>
        <time>2021-07-29T10:59:03Z</time>
      </trkpt>
      <trkpt lat="40.825107" lon="-3.959960">
        <ele>1867.336</ele>
        <time>2021-07-29T10:59:05Z</time>
      </trkpt>
      <trkpt lat="40.825107" lon="-3.959990">
        <ele>1867.189</ele>
        <time>2021-07-29T10:59:07Z</time>
      </trkpt>
      <trkpt lat="40.825104" lon="-3.960028">
        <ele>1866.848</ele>
        <time>2021-07-29T10:59:09Z</time>
      </trkpt>
      <trkpt lat="40.825107" lon="-3.960064">
        <ele>1866.644</ele>
        <time>2021-07-29T10:59:11Z</time>
      </trkpt>
      <trkpt lat="40.825107" lon="-3.960092">
        <ele>1866.405</ele>
        <time>2021-07-29T10:59:13Z</time>
      </trkpt>
      <trkpt lat="40.825107" lon="-3.960120">
        <ele>1866.215</ele>
        <time>2021-07-29T10:59:15Z</time>
      </trkpt>
      <trkpt lat="40.825104" lon="-3.960158">
        <ele>1865.908</ele>
        <time>2021-07-29T10:59:17Z</time>
      </trkpt>
      <trkpt lat="40.825101" lon="-3.960195">
        <ele>1865.531</ele>
        <time>2021-07-29T10:59:19Z</time>
      </trkpt>
      <trkpt lat="40.825091" lon="-3.960226">
        <ele>1865.023</ele>
        <time>2021-07-29T10:59:21Z</time>
      </trkpt>
      <trkpt lat="40.825091" lon="-3.960258">
        <ele>1864.850</ele>
        <time>2021-07-29T10:59:23Z</time>
      </trkpt>
      <trkpt lat="40.825088" lon="-3.960288">
        <ele>1864.567</ele>
        <time>2021-07-29T10:59:25Z</time>
      </trkpt>
      <trkpt lat="40.825078" lon="-3.960317">
        <ele>1864.148</ele>
        <time>2021-07-29T10:59:27Z</time>
      </trkpt>
      <trkpt lat="40.825072" lon="-3.960343">
        <ele>1863.828</ele>
        <time>2021-07-29T10:59:29Z</time>
      </trkpt>
      <trkpt lat="40.825066" lon="-3.960378">
        <ele>1863.581</ele>
        <time>2021-07-29T10:59:31Z</time>
      </trkpt>
      <trkpt lat="40.825062" lon="-3.960417">
        <ele>1863.240</ele>
        <time>2021-07-29T10:59:33Z</time>
      </trkpt>
      <trkpt lat="40.825059" lon="-3.960452">
        <ele>1862.936</ele>
        <time>2021-07-29T10:59:35Z</time>
      </trkpt>
      <trkpt lat="40.825053" lon="-3.960487">
        <ele>1862.617</ele>
        <time>2021-07-29T10:59:37Z</time>
      </trkpt>
      <trkpt lat="40.825050" lon="-3.960520">
        <ele>1862.418</ele>
        <time>2021-07-29T10:59:39Z</time>
      </trkpt>
      <trkpt lat="40.825046" lon="-3.960555">
        <ele>1862.208</ele>
        <time>2021-07-29T10:59:41Z</time>
      </trkpt>
      <trkpt lat="40.825043" lon="-3.960588">
        <ele>1861.990</ele>
        <time>2021-07-29T10:59:43Z</time>
      </trkpt>
      <trkpt lat="40.825040" lon="-3.960620">
        <ele>1861.782</ele>
        <time>2021-07-29T10:59:45Z</time>
      </trkpt>
      <trkpt lat="40.825030" lon="-3.960653">
        <ele>1861.319</ele>
        <time>2021-07-29T10:59:47Z</time>
      </trkpt>
      <trkpt lat="40.825027" lon="-3.960688">
        <ele>1861.166</ele>
        <time>2021-07-29T10:59:49Z</time>
      </trkpt>
      <trkpt lat="40.825030" lon="-3.960722">
        <ele>1861.077</ele>
        <time>2021-07-29T10:59:51Z</time>
      </trkpt>
      <trkpt lat="40.825030" lon="-3.960748">
        <ele>1860.947</ele>
        <time>2021-07-29T10:59:53Z</time>
      </trkpt>
      <trkpt lat="40.825027" lon="-3.960780">
        <ele>1860.790</ele>
        <time>2021-07-29T10:59:55Z</time>
      </trkpt>
      <trkpt lat="40.825021" lon="-3.960818">
        <ele>1860.449</ele>
        <time>2021-07-29T10:59:57Z</time>
      </trkpt>
      <trkpt lat="40.825008" lon="-3.960855">
        <ele>1859.986</ele>
        <time>2021-07-29T10:59:59Z</time>
      </trkpt>
      <trkpt lat="40.825005" lon="-3.960888">
        <ele>1859.560</ele>
        <time>2021-07-29T11:00:01Z</time>
      </trkpt>
      <trkpt lat="40.825005" lon="-3.960915">
        <ele>1859.226</ele>
        <time>2021-07-29T11:00:03Z</time>
      </trkpt>
      <trkpt lat="40.824992" lon="-3.960943">
        <ele>1858.608</ele>
        <time>2021-07-29T11:00:05Z</time>
      </trkpt>
      <trkpt lat="40.824979" lon="-3.960970">
        <ele>1857.925</ele>
        <time>2021-07-29T11:00:07Z</time>
      </trkpt>
      <trkpt lat="40.824970" lon="-3.960992">
        <ele>1857.457</ele>
        <time>2021-07-29T11:00:09Z</time>
      </trkpt>
      <trkpt lat="40.824963" lon="-3.961020">
        <ele>1857.034</ele>
        <time>2021-07-29T11:00:11Z</time>
      </trkpt>
      <trkpt lat="40.824947" lon="-3.961052">
        <ele>1856.251</ele>
        <time>2021-07-29T11:00:13Z</time>
      </trkpt>
      <trkpt lat="40.824934" lon="-3.961075">
        <ele>1855.722</ele>
        <time>2021-07-29T11:00:15Z</time>
      </trkpt>
      <trkpt lat="40.824922" lon="-3.961094">
        <ele>1855.282</ele>
        <time>2021-07-29T11:00:17Z</time>
      </trkpt>
      <trkpt lat="40.824899" lon="-3.961115">
        <ele>1854.495</ele>
        <time>2021-07-29T11:00:19Z</time>
      </trkpt>
      <trkpt lat="40.824874" lon="-3.961143">
        <ele>1853.684</ele>
        <time>2021-07-29T11:00:21Z</time>
      </trkpt>
      <trkpt lat="40.824854" lon="-3.961163">
        <ele>1853.086</ele>
        <time>2021-07-29T11:00:23Z</time>
      </trkpt>
      <trkpt lat="40.824835" lon="-3.961180">
        <ele>1852.560</ele>
        <time>2021-07-29T11:00:25Z</time>
      </trkpt>
      <trkpt lat="40.824813" lon="-3.961195">
        <ele>1851.926</ele>
        <time>2021-07-29T11:00:27Z</time>
      </trkpt>
      <trkpt lat="40.824790" lon="-3.961205">
        <ele>1851.308</ele>
        <time>2021-07-29T11:00:29Z</time>
      </trkpt>
      <trkpt lat="40.824768" lon="-3.961213">
        <ele>1850.765</ele>
        <time>2021-07-29T11:00:31Z</time>
      </trkpt>
      <trkpt lat="40.824742" lon="-3.961222">
        <ele>1850.157</ele>
        <time>2021-07-29T11:00:34Z</time>
      </trkpt>
      <trkpt lat="40.824714" lon="-3.961230">
        <ele>1849.454</ele>
        <time>2021-07-29T11:00:36Z</time>
      </trkpt>
      <trkpt lat="40.824691" lon="-3.961237">
        <ele>1848.921</ele>
        <time>2021-07-29T11:00:38Z</time>
      </trkpt>
      <trkpt lat="40.824669" lon="-3.961255">
        <ele>1848.342</ele>
        <time>2021-07-29T11:00:40Z</time>
      </trkpt>
      <trkpt lat="40.824653" lon="-3.961268">
        <ele>1847.942</ele>
        <time>2021-07-29T11:00:41Z</time>
      </trkpt>
      <trkpt lat="40.824634" lon="-3.961295">
        <ele>1847.455</ele>
        <time>2021-07-29T11:00:43Z</time>
      </trkpt>
      <trkpt lat="40.824624" lon="-3.961326">
        <ele>1847.144</ele>
        <time>2021-07-29T11:00:45Z</time>
      </trkpt>
      <trkpt lat="40.824614" lon="-3.961360">
        <ele>1846.893</ele>
        <time>2021-07-29T11:00:47Z</time>
      </trkpt>
      <trkpt lat="40.824608" lon="-3.961387">
        <ele>1846.565</ele>
        <time>2021-07-29T11:00:49Z</time>
      </trkpt>
      <trkpt lat="40.824602" lon="-3.961420">
        <ele>1846.521</ele>
        <time>2021-07-29T11:00:51Z</time>
      </trkpt>
      <trkpt lat="40.824592" lon="-3.961444">
        <ele>1846.308</ele>
        <time>2021-07-29T11:00:53Z</time>
      </trkpt>
      <trkpt lat="40.824582" lon="-3.961474">
        <ele>1846.156</ele>
        <time>2021-07-29T11:00:55Z</time>
      </trkpt>
      <trkpt lat="40.824566" lon="-3.961510">
        <ele>1845.918</ele>
        <time>2021-07-29T11:00:57Z</time>
      </trkpt>
      <trkpt lat="40.824550" lon="-3.961545">
        <ele>1845.695</ele>
        <time>2021-07-29T11:00:59Z</time>
      </trkpt>
      <trkpt lat="40.824534" lon="-3.961572">
        <ele>1845.462</ele>
        <time>2021-07-29T11:01:02Z</time>
      </trkpt>
      <trkpt lat="40.824522" lon="-3.961605">
        <ele>1845.293</ele>
        <time>2021-07-29T11:01:05Z</time>
      </trkpt>
      <trkpt lat="40.824509" lon="-3.961636">
        <ele>1845.133</ele>
        <time>2021-07-29T11:01:08Z</time>
      </trkpt>
      <trkpt lat="40.824502" lon="-3.961668">
        <ele>1845.196</ele>
        <time>2021-07-29T11:01:10Z</time>
      </trkpt>
      <trkpt lat="40.824493" lon="-3.961702">
        <ele>1845.465</ele>
        <time>2021-07-29T11:01:12Z</time>
      </trkpt>
      <trkpt lat="40.824483" lon="-3.961723">
        <ele>1845.563</ele>
        <time>2021-07-29T11:01:14Z</time>
      </trkpt>
      <trkpt lat="40.824458" lon="-3.961753">
        <ele>1845.544</ele>
        <time>2021-07-29T11:01:16Z</time>
      </trkpt>
      <trkpt lat="40.824445" lon="-3.961778">
        <ele>1845.618</ele>
        <time>2021-07-29T11:01:18Z</time>
      </trkpt>
      <trkpt lat="40.824426" lon="-3.961798">
        <ele>1845.508</ele>
        <time>2021-07-29T11:01:20Z</time>
      </trkpt>
      <trkpt lat="40.824413" lon="-3.961815">
        <ele>1845.553</ele>
        <time>2021-07-29T11:01:22Z</time>
      </trkpt>
      <trkpt lat="40.824397" lon="-3.961832">
        <ele>1845.455</ele>
        <time>2021-07-29T11:01:24Z</time>
      </trkpt>
      <trkpt lat="40.824374" lon="-3.961848">
        <ele>1845.132</ele>
        <time>2021-07-29T11:01:26Z</time>
      </trkpt>
      <trkpt lat="40.824352" lon="-3.961855">
        <ele>1844.729</ele>
        <time>2021-07-29T11:01:28Z</time>
      </trkpt>
      <trkpt lat="40.824333" lon="-3.961858">
        <ele>1844.370</ele>
        <time>2021-07-29T11:01:30Z</time>
      </trkpt>
      <trkpt lat="40.824307" lon="-3.961858">
        <ele>1843.810</ele>
        <time>2021-07-29T11:01:32Z</time>
      </trkpt>
      <trkpt lat="40.824278" lon="-3.961862">
        <ele>1843.253</ele>
        <time>2021-07-29T11:01:34Z</time>
      </trkpt>
      <trkpt lat="40.824256" lon="-3.961862">
        <ele>1842.742</ele>
        <time>2021-07-29T11:01:37Z</time>
      </trkpt>
      <trkpt lat="40.824230" lon="-3.961852">
        <ele>1842.071</ele>
        <time>2021-07-29T11:01:39Z</time>
      </trkpt>
      <trkpt lat="40.824211" lon="-3.961838">
        <ele>1841.641</ele>
        <time>2021-07-29T11:01:41Z</time>
      </trkpt>
      <trkpt lat="40.824189" lon="-3.961825">
        <ele>1841.015</ele>
        <time>2021-07-29T11:01:44Z</time>
      </trkpt>
      <trkpt lat="40.824173" lon="-3.961800">
        <ele>1840.608</ele>
        <time>2021-07-29T11:01:46Z</time>
      </trkpt>
      <trkpt lat="40.824160" lon="-3.961780">
        <ele>1840.354</ele>
        <time>2021-07-29T11:01:48Z</time>
      </trkpt>
      <trkpt lat="40.824154" lon="-3.961755">
        <ele>1840.236</ele>
        <time>2021-07-29T11:01:51Z</time>
      </trkpt>
      <trkpt lat="40.824138" lon="-3.961730">
        <ele>1839.973</ele>
        <time>2021-07-29T11:01:53Z</time>
      </trkpt>
      <trkpt lat="40.824115" lon="-3.961705">
        <ele>1839.660</ele>
        <time>2021-07-29T11:01:55Z</time>
      </trkpt>
      <trkpt lat="40.824096" lon="-3.961673">
        <ele>1839.391</ele>
        <time>2021-07-29T11:01:58Z</time>
      </trkpt>
      <trkpt lat="40.824080" lon="-3.961642">
        <ele>1838.961</ele>
        <time>2021-07-29T11:02:00Z</time>
      </trkpt>
      <trkpt lat="40.824061" lon="-3.961630">
        <ele>1838.634</ele>
        <time>2021-07-29T11:02:01Z</time>
      </trkpt>
      <trkpt lat="40.824038" lon="-3.961623">
        <ele>1838.313</ele>
        <time>2021-07-29T11:02:04Z</time>
      </trkpt>
      <trkpt lat="40.824010" lon="-3.961618">
        <ele>1837.947</ele>
        <time>2021-07-29T11:02:06Z</time>
      </trkpt>
      <trkpt lat="40.823990" lon="-3.961605">
        <ele>1837.629</ele>
        <time>2021-07-29T11:02:08Z</time>
      </trkpt>
      <trkpt lat="40.823971" lon="-3.961607">
        <ele>1837.421</ele>
        <time>2021-07-29T11:02:10Z</time>
      </trkpt>
      <trkpt lat="40.823952" lon="-3.961618">
        <ele>1837.208</ele>
        <time>2021-07-29T11:02:12Z</time>
      </trkpt>
      <trkpt lat="40.823926" lon="-3.961620">
        <ele>1836.991</ele>
        <time>2021-07-29T11:02:14Z</time>
      </trkpt>
      <trkpt lat="40.823907" lon="-3.961615">
        <ele>1836.743</ele>
        <time>2021-07-29T11:02:16Z</time>
      </trkpt>
      <trkpt lat="40.823869" lon="-3.961628">
        <ele>1836.220</ele>
        <time>2021-07-29T11:02:18Z</time>
      </trkpt>
      <trkpt lat="40.823846" lon="-3.961638">
        <ele>1836.017</ele>
        <time>2021-07-29T11:02:19Z</time>
      </trkpt>
      <trkpt lat="40.823821" lon="-3.961646">
        <ele>1835.668</ele>
        <time>2021-07-29T11:02:21Z</time>
      </trkpt>
      <trkpt lat="40.823798" lon="-3.961658">
        <ele>1835.368</ele>
        <time>2021-07-29T11:02:23Z</time>
      </trkpt>
      <trkpt lat="40.823782" lon="-3.961675">
        <ele>1835.131</ele>
        <time>2021-07-29T11:02:25Z</time>
      </trkpt>
      <trkpt lat="40.823766" lon="-3.961687">
        <ele>1834.830</ele>
        <time>2021-07-29T11:02:27Z</time>
      </trkpt>
      <trkpt lat="40.823747" lon="-3.961698">
        <ele>1834.495</ele>
        <time>2021-07-29T11:02:28Z</time>
      </trkpt>
      <trkpt lat="40.823718" lon="-3.961720">
        <ele>1833.949</ele>
        <time>2021-07-29T11:02:30Z</time>
      </trkpt>
      <trkpt lat="40.823690" lon="-3.961763">
        <ele>1833.423</ele>
        <time>2021-07-29T11:02:34Z</time>
      </trkpt>
      <trkpt lat="40.823680" lon="-3.961790">
        <ele>1833.208</ele>
        <time>2021-07-29T11:02:35Z</time>
      </trkpt>
      <trkpt lat="40.823674" lon="-3.961820">
        <ele>1833.156</ele>
        <time>2021-07-29T11:02:37Z</time>
      </trkpt>
      <trkpt lat="40.823658" lon="-3.961842">
        <ele>1832.828</ele>
        <time>2021-07-29T11:02:39Z</time>
      </trkpt>
      <trkpt lat="40.823648" lon="-3.961865">
        <ele>1832.725</ele>
        <time>2021-07-29T11:02:41Z</time>
      </trkpt>
      <trkpt lat="40.823635" lon="-3.961892">
        <ele>1832.472</ele>
        <time>2021-07-29T11:02:43Z</time>
      </trkpt>
      <trkpt lat="40.823619" lon="-3.961918">
        <ele>1832.153</ele>
        <time>2021-07-29T11:02:45Z</time>
      </trkpt>
      <trkpt lat="40.823613" lon="-3.961942">
        <ele>1832.053</ele>
        <time>2021-07-29T11:02:47Z</time>
      </trkpt>
      <trkpt lat="40.823594" lon="-3.961952">
        <ele>1831.486</ele>
        <time>2021-07-29T11:02:50Z</time>
      </trkpt>
      <trkpt lat="40.823562" lon="-3.961937">
        <ele>1830.445</ele>
        <time>2021-07-29T11:02:52Z</time>
      </trkpt>
      <trkpt lat="40.823542" lon="-3.961913">
        <ele>1829.814</ele>
        <time>2021-07-29T11:02:55Z</time>
      </trkpt>
      <trkpt lat="40.823536" lon="-3.961878">
        <ele>1829.654</ele>
        <time>2021-07-29T11:02:58Z</time>
      </trkpt>
      <trkpt lat="40.823530" lon="-3.961850">
        <ele>1829.409</ele>
        <time>2021-07-29T11:03:00Z</time>
      </trkpt>
      <trkpt lat="40.823510" lon="-3.961797">
        <ele>1828.708</ele>
        <time>2021-07-29T11:03:05Z</time>
      </trkpt>
      <trkpt lat="40.823491" lon="-3.961807">
        <ele>1828.138</ele>
        <time>2021-07-29T11:03:08Z</time>
      </trkpt>
      <trkpt lat="40.823494" lon="-3.961778">
        <ele>1828.230</ele>
        <time>2021-07-29T11:03:11Z</time>
      </trkpt>
      <trkpt lat="40.823485" lon="-3.961808">
        <ele>1827.957</ele>
        <time>2021-07-29T11:03:18Z</time>
      </trkpt>
      <trkpt lat="40.823482" lon="-3.961778">
        <ele>1827.814</ele>
        <time>2021-07-29T11:03:27Z</time>
      </trkpt>
      <trkpt lat="40.823462" lon="-3.961742">
        <ele>1827.265</ele>
        <time>2021-07-29T11:03:30Z</time>
      </trkpt>
      <trkpt lat="40.823450" lon="-3.961708">
        <ele>1826.815</ele>
        <time>2021-07-29T11:03:32Z</time>
      </trkpt>
      <trkpt lat="40.823430" lon="-3.961680">
        <ele>1826.138</ele>
        <time>2021-07-29T11:03:34Z</time>
      </trkpt>
      <trkpt lat="40.823421" lon="-3.961658">
        <ele>1825.897</ele>
        <time>2021-07-29T11:03:36Z</time>
      </trkpt>
      <trkpt lat="40.823430" lon="-3.961630">
        <ele>1826.099</ele>
        <time>2021-07-29T11:03:38Z</time>
      </trkpt>
      <trkpt lat="40.823437" lon="-3.961604">
        <ele>1826.107</ele>
        <time>2021-07-29T11:03:40Z</time>
      </trkpt>
      <trkpt lat="40.823450" lon="-3.961572">
        <ele>1826.427</ele>
        <time>2021-07-29T11:03:42Z</time>
      </trkpt>
      <trkpt lat="40.823459" lon="-3.961540">
        <ele>1826.608</ele>
        <time>2021-07-29T11:03:44Z</time>
      </trkpt>
      <trkpt lat="40.823469" lon="-3.961508">
        <ele>1826.866</ele>
        <time>2021-07-29T11:03:46Z</time>
      </trkpt>
      <trkpt lat="40.823475" lon="-3.961477">
        <ele>1826.928</ele>
        <time>2021-07-29T11:03:48Z</time>
      </trkpt>
      <trkpt lat="40.823475" lon="-3.961447">
        <ele>1826.835</ele>
        <time>2021-07-29T11:03:50Z</time>
      </trkpt>
      <trkpt lat="40.823456" lon="-3.961480">
        <ele>1826.312</ele>
        <time>2021-07-29T11:03:55Z</time>
      </trkpt>
      <trkpt lat="40.823405" lon="-3.961540">
        <ele>1824.923</ele>
        <time>2021-07-29T11:29:58Z</time>
      </trkpt>
      <trkpt lat="40.823475" lon="-3.961582">
        <ele>1827.363</ele>
        <time>2021-07-29T11:30:00Z</time>
      </trkpt>
      <trkpt lat="40.823450" lon="-3.961592">
        <ele>1826.546</ele>
        <time>2021-07-29T11:30:01Z</time>
      </trkpt>
      <trkpt lat="40.823443" lon="-3.961680">
        <ele>1826.685</ele>
        <time>2021-07-29T11:30:02Z</time>
      </trkpt>
      <trkpt lat="40.823424" lon="-3.961698">
        <ele>1825.914</ele>
        <time>2021-07-29T11:30:06Z</time>
      </trkpt>
      <trkpt lat="40.823414" lon="-3.961730">
        <ele>1825.654</ele>
        <time>2021-07-29T11:30:09Z</time>
      </trkpt>
      <trkpt lat="40.823402" lon="-3.961748">
        <ele>1825.209</ele>
        <time>2021-07-29T11:30:11Z</time>
      </trkpt>
      <trkpt lat="40.823398" lon="-3.961777">
        <ele>1825.108</ele>
        <time>2021-07-29T11:30:16Z</time>
      </trkpt>
      <trkpt lat="40.823418" lon="-3.961763">
        <ele>1825.748</ele>
        <time>2021-07-29T11:30:35Z</time>
      </trkpt>
      <trkpt lat="40.823418" lon="-3.961788">
        <ele>1825.740</ele>
        <time>2021-07-29T11:30:41Z</time>
      </trkpt>
      <trkpt lat="40.823411" lon="-3.961812">
        <ele>1825.517</ele>
        <time>2021-07-29T11:30:43Z</time>
      </trkpt>
      <trkpt lat="40.823392" lon="-3.961837">
        <ele>1824.964</ele>
        <time>2021-07-29T11:30:46Z</time>
      </trkpt>
      <trkpt lat="40.823373" lon="-3.961858">
        <ele>1824.355</ele>
        <time>2021-07-29T11:30:49Z</time>
      </trkpt>
      <trkpt lat="40.823357" lon="-3.961872">
        <ele>1823.835</ele>
        <time>2021-07-29T11:30:52Z</time>
      </trkpt>
      <trkpt lat="40.823338" lon="-3.961873">
        <ele>1823.288</ele>
        <time>2021-07-29T11:30:54Z</time>
      </trkpt>
      <trkpt lat="40.823318" lon="-3.961868">
        <ele>1823.417</ele>
        <time>2021-07-29T11:30:56Z</time>
      </trkpt>
      <trkpt lat="40.823293" lon="-3.961872">
        <ele>1824.127</ele>
        <time>2021-07-29T11:30:58Z</time>
      </trkpt>
      <trkpt lat="40.823274" lon="-3.961880">
        <ele>1824.768</ele>
        <time>2021-07-29T11:31:00Z</time>
      </trkpt>
      <trkpt lat="40.823251" lon="-3.961892">
        <ele>1825.314</ele>
        <time>2021-07-29T11:31:02Z</time>
      </trkpt>
      <trkpt lat="40.823226" lon="-3.961905">
        <ele>1826.008</ele>
        <time>2021-07-29T11:31:04Z</time>
      </trkpt>
      <trkpt lat="40.823213" lon="-3.961925">
        <ele>1826.439</ele>
        <time>2021-07-29T11:31:06Z</time>
      </trkpt>
      <trkpt lat="40.823200" lon="-3.961943">
        <ele>1826.821</ele>
        <time>2021-07-29T11:31:08Z</time>
      </trkpt>
      <trkpt lat="40.823178" lon="-3.961954">
        <ele>1827.548</ele>
        <time>2021-07-29T11:31:11Z</time>
      </trkpt>
      <trkpt lat="40.823158" lon="-3.961950">
        <ele>1828.195</ele>
        <time>2021-07-29T11:31:13Z</time>
      </trkpt>
      <trkpt lat="40.823142" lon="-3.961935">
        <ele>1828.546</ele>
        <time>2021-07-29T11:31:15Z</time>
      </trkpt>
      <trkpt lat="40.823126" lon="-3.961923">
        <ele>1828.986</ele>
        <time>2021-07-29T11:31:17Z</time>
      </trkpt>
      <trkpt lat="40.823101" lon="-3.961905">
        <ele>1829.649</ele>
        <time>2021-07-29T11:31:20Z</time>
      </trkpt>
      <trkpt lat="40.823082" lon="-3.961893">
        <ele>1830.198</ele>
        <time>2021-07-29T11:31:22Z</time>
      </trkpt>
      <trkpt lat="40.823072" lon="-3.961872">
        <ele>1830.357</ele>
        <time>2021-07-29T11:31:24Z</time>
      </trkpt>
      <trkpt lat="40.823062" lon="-3.961842">
        <ele>1830.500</ele>
        <time>2021-07-29T11:31:26Z</time>
      </trkpt>
      <trkpt lat="40.823056" lon="-3.961810">
        <ele>1830.520</ele>
        <time>2021-07-29T11:31:28Z</time>
      </trkpt>
      <trkpt lat="40.823043" lon="-3.961787">
        <ele>1830.708</ele>
        <time>2021-07-29T11:31:30Z</time>
      </trkpt>
      <trkpt lat="40.823034" lon="-3.961760">
        <ele>1830.742</ele>
        <time>2021-07-29T11:31:32Z</time>
      </trkpt>
      <trkpt lat="40.823024" lon="-3.961738">
        <ele>1830.814</ele>
        <time>2021-07-29T11:31:34Z</time>
      </trkpt>
      <trkpt lat="40.823008" lon="-3.961715">
        <ele>1831.091</ele>
        <time>2021-07-29T11:31:36Z</time>
      </trkpt>
      <trkpt lat="40.822998" lon="-3.961693">
        <ele>1831.158</ele>
        <time>2021-07-29T11:31:38Z</time>
      </trkpt>
      <trkpt lat="40.822986" lon="-3.961668">
        <ele>1831.349</ele>
        <time>2021-07-29T11:31:40Z</time>
      </trkpt>
      <trkpt lat="40.822976" lon="-3.961643">
        <ele>1831.389</ele>
        <time>2021-07-29T11:31:42Z</time>
      </trkpt>
      <trkpt lat="40.822960" lon="-3.961622">
        <ele>1831.582</ele>
        <time>2021-07-29T11:31:44Z</time>
      </trkpt>
      <trkpt lat="40.822947" lon="-3.961598">
        <ele>1831.691</ele>
        <time>2021-07-29T11:31:46Z</time>
      </trkpt>
      <trkpt lat="40.822934" lon="-3.961577">
        <ele>1831.719</ele>
        <time>2021-07-29T11:31:48Z</time>
      </trkpt>
      <trkpt lat="40.822922" lon="-3.961553">
        <ele>1831.809</ele>
        <time>2021-07-29T11:31:50Z</time>
      </trkpt>
      <trkpt lat="40.822909" lon="-3.961528">
        <ele>1831.919</ele>
        <time>2021-07-29T11:31:52Z</time>
      </trkpt>
      <trkpt lat="40.822899" lon="-3.961507">
        <ele>1831.908</ele>
        <time>2021-07-29T11:31:54Z</time>
      </trkpt>
      <trkpt lat="40.822883" lon="-3.961477">
        <ele>1832.088</ele>
        <time>2021-07-29T11:31:56Z</time>
      </trkpt>
      <trkpt lat="40.822877" lon="-3.961448">
        <ele>1831.950</ele>
        <time>2021-07-29T11:31:58Z</time>
      </trkpt>
      <trkpt lat="40.822867" lon="-3.961418">
        <ele>1831.997</ele>
        <time>2021-07-29T11:32:00Z</time>
      </trkpt>
      <trkpt lat="40.822858" lon="-3.961390">
        <ele>1831.934</ele>
        <time>2021-07-29T11:32:02Z</time>
      </trkpt>
      <trkpt lat="40.822845" lon="-3.961367">
        <ele>1831.915</ele>
        <time>2021-07-29T11:32:04Z</time>
      </trkpt>
      <trkpt lat="40.822838" lon="-3.961338">
        <ele>1831.755</ele>
        <time>2021-07-29T11:32:06Z</time>
      </trkpt>
      <trkpt lat="40.822829" lon="-3.961310">
        <ele>1831.648</ele>
        <time>2021-07-29T11:32:08Z</time>
      </trkpt>
      <trkpt lat="40.822816" lon="-3.961283">
        <ele>1831.667</ele>
        <time>2021-07-29T11:32:10Z</time>
      </trkpt>
      <trkpt lat="40.822803" lon="-3.961255">
        <ele>1831.639</ele>
        <time>2021-07-29T11:32:12Z</time>
      </trkpt>
      <trkpt lat="40.822787" lon="-3.961225">
        <ele>1831.701</ele>
        <time>2021-07-29T11:32:14Z</time>
      </trkpt>
      <trkpt lat="40.822778" lon="-3.961197">
        <ele>1831.621</ele>
        <time>2021-07-29T11:32:16Z</time>
      </trkpt>
      <trkpt lat="40.822762" lon="-3.961175">
        <ele>1832.008</ele>
        <time>2021-07-29T11:32:18Z</time>
      </trkpt>
      <trkpt lat="40.822746" lon="-3.961153">
        <ele>1832.350</ele>
        <time>2021-07-29T11:32:20Z</time>
      </trkpt>
      <trkpt lat="40.822736" lon="-3.961125">
        <ele>1832.492</ele>
        <time>2021-07-29T11:32:22Z</time>
      </trkpt>
      <trkpt lat="40.822723" lon="-3.961102">
        <ele>1832.719</ele>
        <time>2021-07-29T11:32:24Z</time>
      </trkpt>
      <trkpt lat="40.822710" lon="-3.961075">
        <ele>1833.086</ele>
        <time>2021-07-29T11:32:26Z</time>
      </trkpt>
      <trkpt lat="40.822701" lon="-3.961053">
        <ele>1833.287</ele>
        <time>2021-07-29T11:32:28Z</time>
      </trkpt>
      <trkpt lat="40.822688" lon="-3.961025">
        <ele>1833.437</ele>
        <time>2021-07-29T11:32:30Z</time>
      </trkpt>
      <trkpt lat="40.822682" lon="-3.960998">
        <ele>1833.420</ele>
        <time>2021-07-29T11:32:32Z</time>
      </trkpt>
      <trkpt lat="40.822675" lon="-3.960965">
        <ele>1833.459</ele>
        <time>2021-07-29T11:32:34Z</time>
      </trkpt>
      <trkpt lat="40.822659" lon="-3.960938">
        <ele>1833.796</ele>
        <time>2021-07-29T11:32:36Z</time>
      </trkpt>
      <trkpt lat="40.822646" lon="-3.960908">
        <ele>1833.831</ele>
        <time>2021-07-29T11:32:38Z</time>
      </trkpt>
      <trkpt lat="40.822637" lon="-3.960877">
        <ele>1833.924</ele>
        <time>2021-07-29T11:32:40Z</time>
      </trkpt>
      <trkpt lat="40.822621" lon="-3.960850">
        <ele>1834.108</ele>
        <time>2021-07-29T11:32:42Z</time>
      </trkpt>
      <trkpt lat="40.822608" lon="-3.960820">
        <ele>1834.146</ele>
        <time>2021-07-29T11:32:44Z</time>
      </trkpt>
      <trkpt lat="40.822605" lon="-3.960784">
        <ele>1833.678</ele>
        <time>2021-07-29T11:32:46Z</time>
      </trkpt>
      <trkpt lat="40.822589" lon="-3.960754">
        <ele>1833.685</ele>
        <time>2021-07-29T11:32:48Z</time>
      </trkpt>
      <trkpt lat="40.822582" lon="-3.960724">
        <ele>1833.412</ele>
        <time>2021-07-29T11:32:50Z</time>
      </trkpt>
      <trkpt lat="40.822566" lon="-3.960695">
        <ele>1833.363</ele>
        <time>2021-07-29T11:32:52Z</time>
      </trkpt>
      <trkpt lat="40.822550" lon="-3.960667">
        <ele>1833.353</ele>
        <time>2021-07-29T11:32:54Z</time>
      </trkpt>
      <trkpt lat="40.822541" lon="-3.960635">
        <ele>1833.166</ele>
        <time>2021-07-29T11:32:56Z</time>
      </trkpt>
      <trkpt lat="40.822528" lon="-3.960605">
        <ele>1833.065</ele>
        <time>2021-07-29T11:32:58Z</time>
      </trkpt>
      <trkpt lat="40.822512" lon="-3.960582">
        <ele>1833.177</ele>
        <time>2021-07-29T11:33:00Z</time>
      </trkpt>
      <trkpt lat="40.822499" lon="-3.960555">
        <ele>1833.061</ele>
        <time>2021-07-29T11:33:02Z</time>
      </trkpt>
      <trkpt lat="40.822483" lon="-3.960528">
        <ele>1833.227</ele>
        <time>2021-07-29T11:33:04Z</time>
      </trkpt>
      <trkpt lat="40.822467" lon="-3.960505">
        <ele>1833.508</ele>
        <time>2021-07-29T11:33:06Z</time>
      </trkpt>
      <trkpt lat="40.822448" lon="-3.960482">
        <ele>1833.814</ele>
        <time>2021-07-29T11:33:08Z</time>
      </trkpt>
      <trkpt lat="40.822432" lon="-3.960455">
        <ele>1834.076</ele>
        <time>2021-07-29T11:33:10Z</time>
      </trkpt>
      <trkpt lat="40.822413" lon="-3.960428">
        <ele>1834.393</ele>
        <time>2021-07-29T11:33:13Z</time>
      </trkpt>
      <trkpt lat="40.822397" lon="-3.960404">
        <ele>1834.570</ele>
        <time>2021-07-29T11:33:15Z</time>
      </trkpt>
      <trkpt lat="40.822384" lon="-3.960384">
        <ele>1834.631</ele>
        <time>2021-07-29T11:33:17Z</time>
      </trkpt>
      <trkpt lat="40.822365" lon="-3.960358">
        <ele>1834.951</ele>
        <time>2021-07-29T11:33:19Z</time>
      </trkpt>
      <trkpt lat="40.822346" lon="-3.960335">
        <ele>1835.284</ele>
        <time>2021-07-29T11:33:21Z</time>
      </trkpt>
      <trkpt lat="40.822326" lon="-3.960312">
        <ele>1835.543</ele>
        <time>2021-07-29T11:33:23Z</time>
      </trkpt>
      <trkpt lat="40.822307" lon="-3.960292">
        <ele>1835.772</ele>
        <time>2021-07-29T11:33:25Z</time>
      </trkpt>
      <trkpt lat="40.822288" lon="-3.960268">
        <ele>1835.913</ele>
        <time>2021-07-29T11:33:27Z</time>
      </trkpt>
      <trkpt lat="40.822266" lon="-3.960248">
        <ele>1836.114</ele>
        <time>2021-07-29T11:33:29Z</time>
      </trkpt>
      <trkpt lat="40.822246" lon="-3.960233">
        <ele>1836.408</ele>
        <time>2021-07-29T11:33:31Z</time>
      </trkpt>
      <trkpt lat="40.822227" lon="-3.960215">
        <ele>1836.554</ele>
        <time>2021-07-29T11:33:33Z</time>
      </trkpt>
      <trkpt lat="40.822208" lon="-3.960197">
        <ele>1836.786</ele>
        <time>2021-07-29T11:33:35Z</time>
      </trkpt>
      <trkpt lat="40.822186" lon="-3.960182">
        <ele>1836.953</ele>
        <time>2021-07-29T11:33:37Z</time>
      </trkpt>
      <trkpt lat="40.822166" lon="-3.960162">
        <ele>1837.040</ele>
        <time>2021-07-29T11:33:39Z</time>
      </trkpt>
      <trkpt lat="40.822150" lon="-3.960142">
        <ele>1837.061</ele>
        <time>2021-07-29T11:33:41Z</time>
      </trkpt>
      <trkpt lat="40.822134" lon="-3.960115">
        <ele>1836.851</ele>
        <time>2021-07-29T11:33:43Z</time>
      </trkpt>
      <trkpt lat="40.822118" lon="-3.960096">
        <ele>1836.824</ele>
        <time>2021-07-29T11:33:45Z</time>
      </trkpt>
      <trkpt lat="40.822099" lon="-3.960077">
        <ele>1836.923</ele>
        <time>2021-07-29T11:33:47Z</time>
      </trkpt>
      <trkpt lat="40.822083" lon="-3.960064">
        <ele>1837.096</ele>
        <time>2021-07-29T11:33:49Z</time>
      </trkpt>
      <trkpt lat="40.822064" lon="-3.960052">
        <ele>1837.231</ele>
        <time>2021-07-29T11:33:51Z</time>
      </trkpt>
      <trkpt lat="40.822042" lon="-3.960032">
        <ele>1837.324</ele>
        <time>2021-07-29T11:33:53Z</time>
      </trkpt>
      <trkpt lat="40.822022" lon="-3.960018">
        <ele>1837.508</ele>
        <time>2021-07-29T11:33:55Z</time>
      </trkpt>
      <trkpt lat="40.822003" lon="-3.960012">
        <ele>1837.896</ele>
        <time>2021-07-29T11:33:57Z</time>
      </trkpt>
      <trkpt lat="40.821984" lon="-3.959993">
        <ele>1837.848</ele>
        <time>2021-07-29T11:33:59Z</time>
      </trkpt>
      <trkpt lat="40.821968" lon="-3.959977">
        <ele>1837.875</ele>
        <time>2021-07-29T11:34:01Z</time>
      </trkpt>
      <trkpt lat="40.821952" lon="-3.959957">
        <ele>1837.782</ele>
        <time>2021-07-29T11:34:03Z</time>
      </trkpt>
      <trkpt lat="40.821930" lon="-3.959925">
        <ele>1837.483</ele>
        <time>2021-07-29T11:34:05Z</time>
      </trkpt>
      <trkpt lat="40.821914" lon="-3.959906">
        <ele>1837.363</ele>
        <time>2021-07-29T11:34:07Z</time>
      </trkpt>
      <trkpt lat="40.821888" lon="-3.959895">
        <ele>1837.646</ele>
        <time>2021-07-29T11:34:09Z</time>
      </trkpt>
      <trkpt lat="40.821866" lon="-3.959882">
        <ele>1837.875</ele>
        <time>2021-07-29T11:34:11Z</time>
      </trkpt>
      <trkpt lat="40.821846" lon="-3.959854">
        <ele>1837.455</ele>
        <time>2021-07-29T11:34:13Z</time>
      </trkpt>
      <trkpt lat="40.821834" lon="-3.959830">
        <ele>1837.007</ele>
        <time>2021-07-29T11:34:15Z</time>
      </trkpt>
      <trkpt lat="40.821814" lon="-3.959812">
        <ele>1836.917</ele>
        <time>2021-07-29T11:34:17Z</time>
      </trkpt>
      <trkpt lat="40.821789" lon="-3.959797">
        <ele>1837.008</ele>
        <time>2021-07-29T11:34:19Z</time>
      </trkpt>
      <trkpt lat="40.821766" lon="-3.959778">
        <ele>1836.962</ele>
        <time>2021-07-29T11:34:21Z</time>
      </trkpt>
      <trkpt lat="40.821747" lon="-3.959767">
        <ele>1836.944</ele>
        <time>2021-07-29T11:34:23Z</time>
      </trkpt>
      <trkpt lat="40.821728" lon="-3.959762">
        <ele>1837.191</ele>
        <time>2021-07-29T11:34:25Z</time>
      </trkpt>
      <trkpt lat="40.821706" lon="-3.959750">
        <ele>1837.248</ele>
        <time>2021-07-29T11:34:27Z</time>
      </trkpt>
      <trkpt lat="40.821677" lon="-3.959736">
        <ele>1837.329</ele>
        <time>2021-07-29T11:34:29Z</time>
      </trkpt>
      <trkpt lat="40.821651" lon="-3.959720">
        <ele>1837.159</ele>
        <time>2021-07-29T11:34:31Z</time>
      </trkpt>
      <trkpt lat="40.821629" lon="-3.959705">
        <ele>1837.032</ele>
        <time>2021-07-29T11:34:33Z</time>
      </trkpt>
      <trkpt lat="40.821606" lon="-3.959698">
        <ele>1837.131</ele>
        <time>2021-07-29T11:34:35Z</time>
      </trkpt>
      <trkpt lat="40.821587" lon="-3.959692">
        <ele>1837.119</ele>
        <time>2021-07-29T11:34:37Z</time>
      </trkpt>
      <trkpt lat="40.821558" lon="-3.959685">
        <ele>1837.309</ele>
        <time>2021-07-29T11:34:39Z</time>
      </trkpt>
      <trkpt lat="40.821533" lon="-3.959678">
        <ele>1837.419</ele>
        <time>2021-07-29T11:34:41Z</time>
      </trkpt>
      <trkpt lat="40.821514" lon="-3.959668">
        <ele>1837.408</ele>
        <time>2021-07-29T11:34:43Z</time>
      </trkpt>
      <trkpt lat="40.821491" lon="-3.959663">
        <ele>1837.548</ele>
        <time>2021-07-29T11:34:45Z</time>
      </trkpt>
      <trkpt lat="40.821472" lon="-3.959653">
        <ele>1837.570</ele>
        <time>2021-07-29T11:34:47Z</time>
      </trkpt>
      <trkpt lat="40.821453" lon="-3.959648">
        <ele>1837.677</ele>
        <time>2021-07-29T11:34:49Z</time>
      </trkpt>
      <trkpt lat="40.821434" lon="-3.959642">
        <ele>1837.764</ele>
        <time>2021-07-29T11:34:51Z</time>
      </trkpt>
      <trkpt lat="40.821408" lon="-3.959645">
        <ele>1838.115</ele>
        <time>2021-07-29T11:34:53Z</time>
      </trkpt>
      <trkpt lat="40.821386" lon="-3.959648">
        <ele>1838.445</ele>
        <time>2021-07-29T11:34:55Z</time>
      </trkpt>
      <trkpt lat="40.821366" lon="-3.959650">
        <ele>1838.678</ele>
        <time>2021-07-29T11:34:56Z</time>
      </trkpt>
      <trkpt lat="40.821334" lon="-3.959648">
        <ele>1838.887</ele>
        <time>2021-07-29T11:34:58Z</time>
      </trkpt>
      <trkpt lat="40.821312" lon="-3.959647">
        <ele>1838.997</ele>
        <time>2021-07-29T11:35:00Z</time>
      </trkpt>
      <trkpt lat="40.821286" lon="-3.959643">
        <ele>1839.023</ele>
        <time>2021-07-29T11:35:03Z</time>
      </trkpt>
      <trkpt lat="40.821258" lon="-3.959648">
        <ele>1839.325</ele>
        <time>2021-07-29T11:35:05Z</time>
      </trkpt>
      <trkpt lat="40.821232" lon="-3.959660">
        <ele>1839.808</ele>
        <time>2021-07-29T11:35:07Z</time>
      </trkpt>
      <trkpt lat="40.821206" lon="-3.959674">
        <ele>1840.566</ele>
        <time>2021-07-29T11:35:09Z</time>
      </trkpt>
      <trkpt lat="40.821171" lon="-3.959678">
        <ele>1840.948</ele>
        <time>2021-07-29T11:35:11Z</time>
      </trkpt>
      <trkpt lat="40.821146" lon="-3.959677">
        <ele>1841.185</ele>
        <time>2021-07-29T11:35:13Z</time>
      </trkpt>
      <trkpt lat="40.821126" lon="-3.959678">
        <ele>1841.332</ele>
        <time>2021-07-29T11:35:15Z</time>
      </trkpt>
      <trkpt lat="40.821098" lon="-3.959694">
        <ele>1841.843</ele>
        <time>2021-07-29T11:35:17Z</time>
      </trkpt>
      <trkpt lat="40.821082" lon="-3.959705">
        <ele>1842.143</ele>
        <time>2021-07-29T11:35:18Z</time>
      </trkpt>
      <trkpt lat="40.821059" lon="-3.959720">
        <ele>1842.486</ele>
        <time>2021-07-29T11:35:20Z</time>
      </trkpt>
      <trkpt lat="40.821037" lon="-3.959724">
        <ele>1842.255</ele>
        <time>2021-07-29T11:35:22Z</time>
      </trkpt>
      <trkpt lat="40.821018" lon="-3.959727">
        <ele>1842.158</ele>
        <time>2021-07-29T11:35:24Z</time>
      </trkpt>
      <trkpt lat="40.820998" lon="-3.959743">
        <ele>1842.352</ele>
        <time>2021-07-29T11:35:26Z</time>
      </trkpt>
      <trkpt lat="40.820979" lon="-3.959755">
        <ele>1842.417</ele>
        <time>2021-07-29T11:35:27Z</time>
      </trkpt>
      <trkpt lat="40.820954" lon="-3.959777">
        <ele>1842.708</ele>
        <time>2021-07-29T11:35:29Z</time>
      </trkpt>
      <trkpt lat="40.820938" lon="-3.959802">
        <ele>1843.132</ele>
        <time>2021-07-29T11:35:30Z</time>
      </trkpt>
      <trkpt lat="40.820896" lon="-3.959845">
        <ele>1843.554</ele>
        <time>2021-07-29T11:35:34Z</time>
      </trkpt>
      <trkpt lat="40.820880" lon="-3.959858">
        <ele>1843.621</ele>
        <time>2021-07-29T11:35:35Z</time>
      </trkpt>
      <trkpt lat="40.820861" lon="-3.959873">
        <ele>1843.738</ele>
        <time>2021-07-29T11:35:36Z</time>
      </trkpt>
      <trkpt lat="40.820838" lon="-3.959890">
        <ele>1843.719</ele>
        <time>2021-07-29T11:35:37Z</time>
      </trkpt>
      <trkpt lat="40.820816" lon="-3.959896">
        <ele>1843.539</ele>
        <time>2021-07-29T11:35:38Z</time>
      </trkpt>
      <trkpt lat="40.820803" lon="-3.959918">
        <ele>1843.882</ele>
        <time>2021-07-29T11:35:41Z</time>
      </trkpt>
      <trkpt lat="40.820774" lon="-3.959935">
        <ele>1843.771</ele>
        <time>2021-07-29T11:35:43Z</time>
      </trkpt>
      <trkpt lat="40.820752" lon="-3.959950">
        <ele>1843.745</ele>
        <time>2021-07-29T11:35:45Z</time>
      </trkpt>
      <trkpt lat="40.820733" lon="-3.959963">
        <ele>1843.847</ele>
        <time>2021-07-29T11:35:47Z</time>
      </trkpt>
      <trkpt lat="40.820714" lon="-3.959990">
        <ele>1844.111</ele>
        <time>2021-07-29T11:35:49Z</time>
      </trkpt>
      <trkpt lat="40.820685" lon="-3.960013">
        <ele>1844.108</ele>
        <time>2021-07-29T11:35:51Z</time>
      </trkpt>
      <trkpt lat="40.820662" lon="-3.960034">
        <ele>1844.181</ele>
        <time>2021-07-29T11:35:53Z</time>
      </trkpt>
      <trkpt lat="40.820640" lon="-3.960054">
        <ele>1844.253</ele>
        <time>2021-07-29T11:35:55Z</time>
      </trkpt>
      <trkpt lat="40.820621" lon="-3.960072">
        <ele>1844.290</ele>
        <time>2021-07-29T11:35:57Z</time>
      </trkpt>
      <trkpt lat="40.820605" lon="-3.960092">
        <ele>1844.487</ele>
        <time>2021-07-29T11:35:59Z</time>
      </trkpt>
      <trkpt lat="40.820586" lon="-3.960115">
        <ele>1844.558</ele>
        <time>2021-07-29T11:36:01Z</time>
      </trkpt>
      <trkpt lat="40.820570" lon="-3.960138">
        <ele>1844.728</ele>
        <time>2021-07-29T11:36:03Z</time>
      </trkpt>
      <trkpt lat="40.820544" lon="-3.960157">
        <ele>1844.671</ele>
        <time>2021-07-29T11:36:05Z</time>
      </trkpt>
      <trkpt lat="40.820522" lon="-3.960180">
        <ele>1844.430</ele>
        <time>2021-07-29T11:36:07Z</time>
      </trkpt>
      <trkpt lat="40.820499" lon="-3.960202">
        <ele>1844.313</ele>
        <time>2021-07-29T11:36:09Z</time>
      </trkpt>
      <trkpt lat="40.820477" lon="-3.960225">
        <ele>1844.143</ele>
        <time>2021-07-29T11:36:11Z</time>
      </trkpt>
      <trkpt lat="40.820454" lon="-3.960245">
        <ele>1843.907</ele>
        <time>2021-07-29T11:36:13Z</time>
      </trkpt>
      <trkpt lat="40.820435" lon="-3.960255">
        <ele>1843.608</ele>
        <time>2021-07-29T11:36:15Z</time>
      </trkpt>
      <trkpt lat="40.820419" lon="-3.960268">
        <ele>1843.478</ele>
        <time>2021-07-29T11:36:17Z</time>
      </trkpt>
      <trkpt lat="40.820403" lon="-3.960287">
        <ele>1843.390</ele>
        <time>2021-07-29T11:36:19Z</time>
      </trkpt>
      <trkpt lat="40.820384" lon="-3.960308">
        <ele>1843.357</ele>
        <time>2021-07-29T11:36:22Z</time>
      </trkpt>
      <trkpt lat="40.820365" lon="-3.960325">
        <ele>1843.284</ele>
        <time>2021-07-29T11:36:24Z</time>
      </trkpt>
      <trkpt lat="40.820339" lon="-3.960350">
        <ele>1843.085</ele>
        <time>2021-07-29T11:36:26Z</time>
      </trkpt>
      <trkpt lat="40.820320" lon="-3.960367">
        <ele>1842.945</ele>
        <time>2021-07-29T11:36:28Z</time>
      </trkpt>
      <trkpt lat="40.820298" lon="-3.960380">
        <ele>1842.778</ele>
        <time>2021-07-29T11:36:30Z</time>
      </trkpt>
      <trkpt lat="40.820282" lon="-3.960397">
        <ele>1842.737</ele>
        <time>2021-07-29T11:36:33Z</time>
      </trkpt>
      <trkpt lat="40.820253" lon="-3.960414">
        <ele>1842.527</ele>
        <time>2021-07-29T11:36:36Z</time>
      </trkpt>
      <trkpt lat="40.820234" lon="-3.960436">
        <ele>1842.668</ele>
        <time>2021-07-29T11:36:38Z</time>
      </trkpt>
      <trkpt lat="40.820218" lon="-3.960462">
        <ele>1842.914</ele>
        <time>2021-07-29T11:36:40Z</time>
      </trkpt>
      <trkpt lat="40.820186" lon="-3.960487">
        <ele>1842.908</ele>
        <time>2021-07-29T11:36:42Z</time>
      </trkpt>
      <trkpt lat="40.820154" lon="-3.960507">
        <ele>1842.789</ele>
        <time>2021-07-29T11:36:44Z</time>
      </trkpt>
      <trkpt lat="40.820134" lon="-3.960522">
        <ele>1842.711</ele>
        <time>2021-07-29T11:36:45Z</time>
      </trkpt>
      <trkpt lat="40.820115" lon="-3.960532">
        <ele>1842.658</ele>
        <time>2021-07-29T11:36:47Z</time>
      </trkpt>
      <trkpt lat="40.820083" lon="-3.960545">
        <ele>1842.315</ele>
        <time>2021-07-29T11:36:50Z</time>
      </trkpt>
      <trkpt lat="40.820061" lon="-3.960554">
        <ele>1842.196</ele>
        <time>2021-07-29T11:36:52Z</time>
      </trkpt>
      <trkpt lat="40.820038" lon="-3.960568">
        <ele>1842.066</ele>
        <time>2021-07-29T11:36:54Z</time>
      </trkpt>
      <trkpt lat="40.820022" lon="-3.960585">
        <ele>1842.229</ele>
        <time>2021-07-29T11:36:56Z</time>
      </trkpt>
      <trkpt lat="40.820000" lon="-3.960605">
        <ele>1842.478</ele>
        <time>2021-07-29T11:36:58Z</time>
      </trkpt>
      <trkpt lat="40.819978" lon="-3.960613">
        <ele>1842.374</ele>
        <time>2021-07-29T11:37:00Z</time>
      </trkpt>
      <trkpt lat="40.819949" lon="-3.960623">
        <ele>1842.256</ele>
        <time>2021-07-29T11:37:02Z</time>
      </trkpt>
      <trkpt lat="40.819923" lon="-3.960630">
        <ele>1842.021</ele>
        <time>2021-07-29T11:37:04Z</time>
      </trkpt>
      <trkpt lat="40.819904" lon="-3.960635">
        <ele>1841.908</ele>
        <time>2021-07-29T11:37:06Z</time>
      </trkpt>
      <trkpt lat="40.819882" lon="-3.960640">
        <ele>1841.744</ele>
        <time>2021-07-29T11:37:08Z</time>
      </trkpt>
      <trkpt lat="40.819856" lon="-3.960653">
        <ele>1841.756</ele>
        <time>2021-07-29T11:37:10Z</time>
      </trkpt>
      <trkpt lat="40.819830" lon="-3.960662">
        <ele>1841.653</ele>
        <time>2021-07-29T11:37:11Z</time>
      </trkpt>
      <trkpt lat="40.819811" lon="-3.960663">
        <ele>1841.460</ele>
        <time>2021-07-29T11:37:13Z</time>
      </trkpt>
      <trkpt lat="40.819786" lon="-3.960675">
        <ele>1841.441</ele>
        <time>2021-07-29T11:37:15Z</time>
      </trkpt>
      <trkpt lat="40.819760" lon="-3.960703">
        <ele>1841.831</ele>
        <time>2021-07-29T11:37:17Z</time>
      </trkpt>
      <trkpt lat="40.819738" lon="-3.960710">
        <ele>1841.774</ele>
        <time>2021-07-29T11:37:19Z</time>
      </trkpt>
      <trkpt lat="40.819718" lon="-3.960707">
        <ele>1841.433</ele>
        <time>2021-07-29T11:37:21Z</time>
      </trkpt>
      <trkpt lat="40.819686" lon="-3.960717">
        <ele>1841.757</ele>
        <time>2021-07-29T11:37:23Z</time>
      </trkpt>
      <trkpt lat="40.819648" lon="-3.960718">
        <ele>1841.700</ele>
        <time>2021-07-29T11:37:25Z</time>
      </trkpt>
      <trkpt lat="40.819619" lon="-3.960715">
        <ele>1841.620</ele>
        <time>2021-07-29T11:37:27Z</time>
      </trkpt>
      <trkpt lat="40.819600" lon="-3.960712">
        <ele>1841.508</ele>
        <time>2021-07-29T11:37:29Z</time>
      </trkpt>
      <trkpt lat="40.819571" lon="-3.960702">
        <ele>1841.212</ele>
        <time>2021-07-29T11:37:31Z</time>
      </trkpt>
      <trkpt lat="40.819546" lon="-3.960693">
        <ele>1841.074</ele>
        <time>2021-07-29T11:37:33Z</time>
      </trkpt>
      <trkpt lat="40.819523" lon="-3.960705">
        <ele>1841.331</ele>
        <time>2021-07-29T11:37:36Z</time>
      </trkpt>
      <trkpt lat="40.819504" lon="-3.960708">
        <ele>1841.448</ele>
        <time>2021-07-29T11:37:38Z</time>
      </trkpt>
      <trkpt lat="40.819472" lon="-3.960715">
        <ele>1841.619</ele>
        <time>2021-07-29T11:37:40Z</time>
      </trkpt>
      <trkpt lat="40.819453" lon="-3.960708">
        <ele>1841.499</ele>
        <time>2021-07-29T11:37:42Z</time>
      </trkpt>
      <trkpt lat="40.819427" lon="-3.960703">
        <ele>1841.462</ele>
        <time>2021-07-29T11:37:44Z</time>
      </trkpt>
      <trkpt lat="40.819392" lon="-3.960715">
        <ele>1842.081</ele>
        <time>2021-07-29T11:37:46Z</time>
      </trkpt>
      <trkpt lat="40.819366" lon="-3.960688">
        <ele>1841.435</ele>
        <time>2021-07-29T11:37:48Z</time>
      </trkpt>
      <trkpt lat="40.819347" lon="-3.960672">
        <ele>1841.186</ele>
        <time>2021-07-29T11:37:50Z</time>
      </trkpt>
      <trkpt lat="40.819325" lon="-3.960658">
        <ele>1840.814</ele>
        <time>2021-07-29T11:37:52Z</time>
      </trkpt>
      <trkpt lat="40.819299" lon="-3.960642">
        <ele>1840.508</ele>
        <time>2021-07-29T11:37:54Z</time>
      </trkpt>
      <trkpt lat="40.819283" lon="-3.960630">
        <ele>1840.320</ele>
        <time>2021-07-29T11:37:55Z</time>
      </trkpt>
      <trkpt lat="40.819254" lon="-3.960623">
        <ele>1840.332</ele>
        <time>2021-07-29T11:37:57Z</time>
      </trkpt>
      <trkpt lat="40.819232" lon="-3.960622">
        <ele>1840.449</ele>
        <time>2021-07-29T11:37:59Z</time>
      </trkpt>
      <trkpt lat="40.819203" lon="-3.960612">
        <ele>1840.456</ele>
        <time>2021-07-29T11:38:01Z</time>
      </trkpt>
      <trkpt lat="40.819181" lon="-3.960600">
        <ele>1840.297</ele>
        <time>2021-07-29T11:38:03Z</time>
      </trkpt>
      <trkpt lat="40.819155" lon="-3.960585">
        <ele>1840.067</ele>
        <time>2021-07-29T11:38:05Z</time>
      </trkpt>
      <trkpt lat="40.819136" lon="-3.960573">
        <ele>1839.830</ele>
        <time>2021-07-29T11:38:07Z</time>
      </trkpt>
      <trkpt lat="40.819120" lon="-3.960557">
        <ele>1839.589</ele>
        <time>2021-07-29T11:38:09Z</time>
      </trkpt>
      <trkpt lat="40.819091" lon="-3.960548">
        <ele>1839.777</ele>
        <time>2021-07-29T11:38:11Z</time>
      </trkpt>
      <trkpt lat="40.819069" lon="-3.960533">
        <ele>1839.661</ele>
        <time>2021-07-29T11:38:13Z</time>
      </trkpt>
      <trkpt lat="40.819053" lon="-3.960518">
        <ele>1839.627</ele>
        <time>2021-07-29T11:38:14Z</time>
      </trkpt>
      <trkpt lat="40.819030" lon="-3.960503">
        <ele>1839.508</ele>
        <time>2021-07-29T11:38:16Z</time>
      </trkpt>
      <trkpt lat="40.819011" lon="-3.960490">
        <ele>1839.574</ele>
        <time>2021-07-29T11:38:18Z</time>
      </trkpt>
      <trkpt lat="40.818989" lon="-3.960477">
        <ele>1839.536</ele>
        <time>2021-07-29T11:38:20Z</time>
      </trkpt>
      <trkpt lat="40.818970" lon="-3.960463">
        <ele>1839.573</ele>
        <time>2021-07-29T11:38:22Z</time>
      </trkpt>
      <trkpt lat="40.818947" lon="-3.960448">
        <ele>1839.490</ele>
        <time>2021-07-29T11:38:24Z</time>
      </trkpt>
      <trkpt lat="40.818928" lon="-3.960428">
        <ele>1839.381</ele>
        <time>2021-07-29T11:38:26Z</time>
      </trkpt>
      <trkpt lat="40.818909" lon="-3.960417">
        <ele>1839.331</ele>
        <time>2021-07-29T11:38:28Z</time>
      </trkpt>
      <trkpt lat="40.818883" lon="-3.960407">
        <ele>1839.364</ele>
        <time>2021-07-29T11:38:30Z</time>
      </trkpt>
      <trkpt lat="40.818858" lon="-3.960397">
        <ele>1839.363</ele>
        <time>2021-07-29T11:38:32Z</time>
      </trkpt>
      <trkpt lat="40.818832" lon="-3.960378">
        <ele>1839.096</ele>
        <time>2021-07-29T11:38:34Z</time>
      </trkpt>
      <trkpt lat="40.818813" lon="-3.960363">
        <ele>1838.831</ele>
        <time>2021-07-29T11:38:36Z</time>
      </trkpt>
      <trkpt lat="40.818787" lon="-3.960350">
        <ele>1838.724</ele>
        <time>2021-07-29T11:38:38Z</time>
      </trkpt>
      <trkpt lat="40.818765" lon="-3.960333">
        <ele>1838.408</ele>
        <time>2021-07-29T11:38:40Z</time>
      </trkpt>
      <trkpt lat="40.818742" lon="-3.960327">
        <ele>1838.476</ele>
        <time>2021-07-29T11:38:42Z</time>
      </trkpt>
      <trkpt lat="40.818714" lon="-3.960322">
        <ele>1838.488</ele>
        <time>2021-07-29T11:38:44Z</time>
      </trkpt>
      <trkpt lat="40.818691" lon="-3.960315">
        <ele>1838.435</ele>
        <time>2021-07-29T11:38:46Z</time>
      </trkpt>
      <trkpt lat="40.818666" lon="-3.960300">
        <ele>1838.262</ele>
        <time>2021-07-29T11:38:48Z</time>
      </trkpt>
      <trkpt lat="40.818630" lon="-3.960288">
        <ele>1838.163</ele>
        <time>2021-07-29T11:38:50Z</time>
      </trkpt>
      <trkpt lat="40.818611" lon="-3.960287">
        <ele>1838.283</ele>
        <time>2021-07-29T11:38:52Z</time>
      </trkpt>
      <trkpt lat="40.818589" lon="-3.960282">
        <ele>1838.036</ele>
        <time>2021-07-29T11:38:54Z</time>
      </trkpt>
      <trkpt lat="40.818560" lon="-3.960266">
        <ele>1837.755</ele>
        <time>2021-07-29T11:38:56Z</time>
      </trkpt>
      <trkpt lat="40.818531" lon="-3.960262">
        <ele>1837.541</ele>
        <time>2021-07-29T11:38:58Z</time>
      </trkpt>
      <trkpt lat="40.818512" lon="-3.960258">
        <ele>1837.481</ele>
        <time>2021-07-29T11:38:59Z</time>
      </trkpt>
      <trkpt lat="40.818486" lon="-3.960260">
        <ele>1837.309</ele>
        <time>2021-07-29T11:39:01Z</time>
      </trkpt>
      <trkpt lat="40.818467" lon="-3.960258">
        <ele>1837.208</ele>
        <time>2021-07-29T11:39:02Z</time>
      </trkpt>
      <trkpt lat="40.818438" lon="-3.960250">
        <ele>1837.031</ele>
        <time>2021-07-29T11:39:04Z</time>
      </trkpt>
      <trkpt lat="40.818413" lon="-3.960250">
        <ele>1837.023</ele>
        <time>2021-07-29T11:39:06Z</time>
      </trkpt>
      <trkpt lat="40.818387" lon="-3.960255">
        <ele>1836.920</ele>
        <time>2021-07-29T11:39:08Z</time>
      </trkpt>
      <trkpt lat="40.818368" lon="-3.960273">
        <ele>1837.137</ele>
        <time>2021-07-29T11:39:10Z</time>
      </trkpt>
      <trkpt lat="40.818339" lon="-3.960282">
        <ele>1837.128</ele>
        <time>2021-07-29T11:39:12Z</time>
      </trkpt>
      <trkpt lat="40.818317" lon="-3.960285">
        <ele>1837.018</ele>
        <time>2021-07-29T11:39:14Z</time>
      </trkpt>
      <trkpt lat="40.818298" lon="-3.960295">
        <ele>1837.021</ele>
        <time>2021-07-29T11:39:16Z</time>
      </trkpt>
      <trkpt lat="40.818282" lon="-3.960307">
        <ele>1837.160</ele>
        <time>2021-07-29T11:39:17Z</time>
      </trkpt>
      <trkpt lat="40.818259" lon="-3.960320">
        <ele>1837.179</ele>
        <time>2021-07-29T11:39:19Z</time>
      </trkpt>
      <trkpt lat="40.818237" lon="-3.960328">
        <ele>1837.105</ele>
        <time>2021-07-29T11:39:21Z</time>
      </trkpt>
      <trkpt lat="40.818214" lon="-3.960338">
        <ele>1837.025</ele>
        <time>2021-07-29T11:39:23Z</time>
      </trkpt>
      <trkpt lat="40.818192" lon="-3.960353">
        <ele>1837.108</ele>
        <time>2021-07-29T11:39:25Z</time>
      </trkpt>
      <trkpt lat="40.818166" lon="-3.960377">
        <ele>1837.274</ele>
        <time>2021-07-29T11:39:27Z</time>
      </trkpt>
      <trkpt lat="40.818147" lon="-3.960390">
        <ele>1837.126</ele>
        <time>2021-07-29T11:39:28Z</time>
      </trkpt>
      <trkpt lat="40.818128" lon="-3.960407">
        <ele>1837.273</ele>
        <time>2021-07-29T11:39:29Z</time>
      </trkpt>
      <trkpt lat="40.818109" lon="-3.960422">
        <ele>1837.160</ele>
        <time>2021-07-29T11:39:30Z</time>
      </trkpt>
      <trkpt lat="40.818083" lon="-3.960433">
        <ele>1837.091</ele>
        <time>2021-07-29T11:39:31Z</time>
      </trkpt>
      <trkpt lat="40.818058" lon="-3.960465">
        <ele>1837.161</ele>
        <time>2021-07-29T11:39:33Z</time>
      </trkpt>
      <trkpt lat="40.818048" lon="-3.960488">
        <ele>1837.284</ele>
        <time>2021-07-29T11:39:35Z</time>
      </trkpt>
      <trkpt lat="40.818029" lon="-3.960502">
        <ele>1837.233</ele>
        <time>2021-07-29T11:39:40Z</time>
      </trkpt>
      <trkpt lat="40.817997" lon="-3.960513">
        <ele>1837.152</ele>
        <time>2021-07-29T11:39:43Z</time>
      </trkpt>
      <trkpt lat="40.817974" lon="-3.960532">
        <ele>1837.153</ele>
        <time>2021-07-29T11:39:45Z</time>
      </trkpt>
      <trkpt lat="40.817955" lon="-3.960538">
        <ele>1837.008</ele>
        <time>2021-07-29T11:39:46Z</time>
      </trkpt>
      <trkpt lat="40.817939" lon="-3.960562">
        <ele>1837.308</ele>
        <time>2021-07-29T11:39:48Z</time>
      </trkpt>
      <trkpt lat="40.817910" lon="-3.960566">
        <ele>1837.282</ele>
        <time>2021-07-29T11:39:50Z</time>
      </trkpt>
      <trkpt lat="40.817891" lon="-3.960588">
        <ele>1837.454</ele>
        <time>2021-07-29T11:39:52Z</time>
      </trkpt>
      <trkpt lat="40.817859" lon="-3.960605">
        <ele>1837.541</ele>
        <time>2021-07-29T11:39:54Z</time>
      </trkpt>
      <trkpt lat="40.817834" lon="-3.960612">
        <ele>1837.598</ele>
        <time>2021-07-29T11:39:56Z</time>
      </trkpt>
      <trkpt lat="40.817811" lon="-3.960613">
        <ele>1837.379</ele>
        <time>2021-07-29T11:39:58Z</time>
      </trkpt>
      <trkpt lat="40.817786" lon="-3.960622">
        <ele>1837.339</ele>
        <time>2021-07-29T11:40:01Z</time>
      </trkpt>
      <trkpt lat="40.817763" lon="-3.960627">
        <ele>1837.392</ele>
        <time>2021-07-29T11:40:03Z</time>
      </trkpt>
      <trkpt lat="40.817744" lon="-3.960625">
        <ele>1837.471</ele>
        <time>2021-07-29T11:40:05Z</time>
      </trkpt>
      <trkpt lat="40.817725" lon="-3.960618">
        <ele>1837.378</ele>
        <time>2021-07-29T11:40:07Z</time>
      </trkpt>
      <trkpt lat="40.817699" lon="-3.960603">
        <ele>1837.133</ele>
        <time>2021-07-29T11:40:09Z</time>
      </trkpt>
      <trkpt lat="40.817677" lon="-3.960592">
        <ele>1837.026</ele>
        <time>2021-07-29T11:40:11Z</time>
      </trkpt>
      <trkpt lat="40.817651" lon="-3.960576">
        <ele>1836.808</ele>
        <time>2021-07-29T11:40:13Z</time>
      </trkpt>
      <trkpt lat="40.817626" lon="-3.960558">
        <ele>1836.684</ele>
        <time>2021-07-29T11:40:15Z</time>
      </trkpt>
      <trkpt lat="40.817606" lon="-3.960543">
        <ele>1836.456</ele>
        <time>2021-07-29T11:40:17Z</time>
      </trkpt>
      <trkpt lat="40.817584" lon="-3.960545">
        <ele>1836.523</ele>
        <time>2021-07-29T11:40:19Z</time>
      </trkpt>
      <trkpt lat="40.817565" lon="-3.960538">
        <ele>1836.510</ele>
        <time>2021-07-29T11:40:21Z</time>
      </trkpt>
      <trkpt lat="40.817542" lon="-3.960528">
        <ele>1836.461</ele>
        <time>2021-07-29T11:40:23Z</time>
      </trkpt>
      <trkpt lat="40.817517" lon="-3.960510">
        <ele>1836.181</ele>
        <time>2021-07-29T11:40:26Z</time>
      </trkpt>
      <trkpt lat="40.817498" lon="-3.960498">
        <ele>1836.034</ele>
        <time>2021-07-29T11:40:28Z</time>
      </trkpt>
      <trkpt lat="40.817478" lon="-3.960472">
        <ele>1835.543</ele>
        <time>2021-07-29T11:40:30Z</time>
      </trkpt>
      <trkpt lat="40.817459" lon="-3.960455">
        <ele>1835.263</ele>
        <time>2021-07-29T11:40:32Z</time>
      </trkpt>
      <trkpt lat="40.817437" lon="-3.960435">
        <ele>1834.944</ele>
        <time>2021-07-29T11:40:34Z</time>
      </trkpt>
      <trkpt lat="40.817418" lon="-3.960424">
        <ele>1834.818</ele>
        <time>2021-07-29T11:40:35Z</time>
      </trkpt>
      <trkpt lat="40.817395" lon="-3.960412">
        <ele>1834.608</ele>
        <time>2021-07-29T11:40:37Z</time>
      </trkpt>
      <trkpt lat="40.817376" lon="-3.960398">
        <ele>1834.413</ele>
        <time>2021-07-29T11:40:39Z</time>
      </trkpt>
      <trkpt lat="40.817354" lon="-3.960385">
        <ele>1834.365</ele>
        <time>2021-07-29T11:40:41Z</time>
      </trkpt>
      <trkpt lat="40.817334" lon="-3.960374">
        <ele>1834.142</ele>
        <time>2021-07-29T11:40:43Z</time>
      </trkpt>
      <trkpt lat="40.817315" lon="-3.960355">
        <ele>1833.969</ele>
        <time>2021-07-29T11:40:45Z</time>
      </trkpt>
      <trkpt lat="40.817299" lon="-3.960335">
        <ele>1833.640</ele>
        <time>2021-07-29T11:40:47Z</time>
      </trkpt>
      <trkpt lat="40.817267" lon="-3.960322">
        <ele>1833.550</ele>
        <time>2021-07-29T11:40:49Z</time>
      </trkpt>
      <trkpt lat="40.817248" lon="-3.960315">
        <ele>1833.533</ele>
        <time>2021-07-29T11:40:51Z</time>
      </trkpt>
      <trkpt lat="40.817229" lon="-3.960310">
        <ele>1833.442</ele>
        <time>2021-07-29T11:40:53Z</time>
      </trkpt>
      <trkpt lat="40.817206" lon="-3.960292">
        <ele>1833.121</ele>
        <time>2021-07-29T11:40:55Z</time>
      </trkpt>
      <trkpt lat="40.817184" lon="-3.960282">
        <ele>1832.941</ele>
        <time>2021-07-29T11:40:57Z</time>
      </trkpt>
      <trkpt lat="40.817165" lon="-3.960277">
        <ele>1832.805</ele>
        <time>2021-07-29T11:40:58Z</time>
      </trkpt>
      <trkpt lat="40.817142" lon="-3.960266">
        <ele>1832.608</ele>
        <time>2021-07-29T11:41:00Z</time>
      </trkpt>
      <trkpt lat="40.817120" lon="-3.960246">
        <ele>1832.259</ele>
        <time>2021-07-29T11:41:02Z</time>
      </trkpt>
      <trkpt lat="40.817098" lon="-3.960230">
        <ele>1831.991</ele>
        <time>2021-07-29T11:41:04Z</time>
      </trkpt>
      <trkpt lat="40.817069" lon="-3.960213">
        <ele>1831.638</ele>
        <time>2021-07-29T11:41:06Z</time>
      </trkpt>
      <trkpt lat="40.817043" lon="-3.960193">
        <ele>1831.335</ele>
        <time>2021-07-29T11:41:08Z</time>
      </trkpt>
      <trkpt lat="40.817024" lon="-3.960180">
        <ele>1831.196</ele>
        <time>2021-07-29T11:41:11Z</time>
      </trkpt>
      <trkpt lat="40.817011" lon="-3.960160">
        <ele>1830.986</ele>
        <time>2021-07-29T11:41:13Z</time>
      </trkpt>
      <trkpt lat="40.817005" lon="-3.960130">
        <ele>1830.519</ele>
        <time>2021-07-29T11:41:15Z</time>
      </trkpt>
      <trkpt lat="40.816982" lon="-3.960142">
        <ele>1830.668</ele>
        <time>2021-07-29T11:41:17Z</time>
      </trkpt>
      <trkpt lat="40.816963" lon="-3.960143">
        <ele>1830.678</ele>
        <time>2021-07-29T11:41:19Z</time>
      </trkpt>
      <trkpt lat="40.816947" lon="-3.960123">
        <ele>1830.333</ele>
        <time>2021-07-29T11:41:20Z</time>
      </trkpt>
      <trkpt lat="40.816928" lon="-3.960103">
        <ele>1830.026</ele>
        <time>2021-07-29T11:41:22Z</time>
      </trkpt>
      <trkpt lat="40.816918" lon="-3.960074">
        <ele>1829.708</ele>
        <time>2021-07-29T11:41:24Z</time>
      </trkpt>
      <trkpt lat="40.816896" lon="-3.960055">
        <ele>1829.484</ele>
        <time>2021-07-29T11:41:26Z</time>
      </trkpt>
      <trkpt lat="40.816880" lon="-3.960038">
        <ele>1829.146</ele>
        <time>2021-07-29T11:41:27Z</time>
      </trkpt>
      <trkpt lat="40.816851" lon="-3.960018">
        <ele>1828.833</ele>
        <time>2021-07-29T11:41:29Z</time>
      </trkpt>
      <trkpt lat="40.816829" lon="-3.960003">
        <ele>1828.620</ele>
        <time>2021-07-29T11:41:31Z</time>
      </trkpt>
      <trkpt lat="40.816806" lon="-3.959990">
        <ele>1828.431</ele>
        <time>2021-07-29T11:41:33Z</time>
      </trkpt>
      <trkpt lat="40.816781" lon="-3.959973">
        <ele>1828.341</ele>
        <time>2021-07-29T11:41:35Z</time>
      </trkpt>
      <trkpt lat="40.816758" lon="-3.959960">
        <ele>1828.144</ele>
        <time>2021-07-29T11:41:37Z</time>
      </trkpt>
      <trkpt lat="40.816733" lon="-3.959955">
        <ele>1828.033</ele>
        <time>2021-07-29T11:41:39Z</time>
      </trkpt>
      <trkpt lat="40.816710" lon="-3.959948">
        <ele>1827.918</ele>
        <time>2021-07-29T11:41:41Z</time>
      </trkpt>
      <trkpt lat="40.816688" lon="-3.959938">
        <ele>1827.898</ele>
        <time>2021-07-29T11:41:43Z</time>
      </trkpt>
      <trkpt lat="40.816662" lon="-3.959923">
        <ele>1827.717</ele>
        <time>2021-07-29T11:41:45Z</time>
      </trkpt>
      <trkpt lat="40.816634" lon="-3.959903">
        <ele>1827.308</ele>
        <time>2021-07-29T11:41:48Z</time>
      </trkpt>
      <trkpt lat="40.816611" lon="-3.959880">
        <ele>1827.048</ele>
        <time>2021-07-29T11:41:50Z</time>
      </trkpt>
      <trkpt lat="40.816592" lon="-3.959854">
        <ele>1826.840</ele>
        <time>2021-07-29T11:41:52Z</time>
      </trkpt>
      <trkpt lat="40.816570" lon="-3.959830">
        <ele>1826.647</ele>
        <time>2021-07-29T11:41:54Z</time>
      </trkpt>
      <trkpt lat="40.816550" lon="-3.959822">
        <ele>1826.514</ele>
        <time>2021-07-29T11:41:56Z</time>
      </trkpt>
      <trkpt lat="40.816528" lon="-3.959807">
        <ele>1826.375</ele>
        <time>2021-07-29T11:41:58Z</time>
      </trkpt>
      <trkpt lat="40.816502" lon="-3.959787">
        <ele>1826.235</ele>
        <time>2021-07-29T11:42:00Z</time>
      </trkpt>
      <trkpt lat="40.816480" lon="-3.959777">
        <ele>1826.168</ele>
        <time>2021-07-29T11:42:02Z</time>
      </trkpt>
      <trkpt lat="40.816448" lon="-3.959770">
        <ele>1826.067</ele>
        <time>2021-07-29T11:42:04Z</time>
      </trkpt>
      <trkpt lat="40.816422" lon="-3.959767">
        <ele>1825.922</ele>
        <time>2021-07-29T11:42:06Z</time>
      </trkpt>
      <trkpt lat="40.816400" lon="-3.959760">
        <ele>1825.862</ele>
        <time>2021-07-29T11:42:08Z</time>
      </trkpt>
      <trkpt lat="40.816371" lon="-3.959748">
        <ele>1825.708</ele>
        <time>2021-07-29T11:42:10Z</time>
      </trkpt>
      <trkpt lat="40.816346" lon="-3.959735">
        <ele>1825.608</ele>
        <time>2021-07-29T11:42:12Z</time>
      </trkpt>
      <trkpt lat="40.816310" lon="-3.959736">
        <ele>1825.359</ele>
        <time>2021-07-29T11:42:14Z</time>
      </trkpt>
      <trkpt lat="40.816291" lon="-3.959743">
        <ele>1825.141</ele>
        <time>2021-07-29T11:42:16Z</time>
      </trkpt>
      <trkpt lat="40.816266" lon="-3.959743">
        <ele>1824.928</ele>
        <time>2021-07-29T11:42:18Z</time>
      </trkpt>
      <trkpt lat="40.816240" lon="-3.959730">
        <ele>1824.955</ele>
        <time>2021-07-29T11:42:20Z</time>
      </trkpt>
      <trkpt lat="40.816211" lon="-3.959720">
        <ele>1824.746</ele>
        <time>2021-07-29T11:42:22Z</time>
      </trkpt>
      <trkpt lat="40.816189" lon="-3.959695">
        <ele>1824.866</ele>
        <time>2021-07-29T11:42:24Z</time>
      </trkpt>
      <trkpt lat="40.816163" lon="-3.959685">
        <ele>1824.749</ele>
        <time>2021-07-29T11:42:26Z</time>
      </trkpt>
      <trkpt lat="40.816134" lon="-3.959682">
        <ele>1824.688</ele>
        <time>2021-07-29T11:42:28Z</time>
      </trkpt>
      <trkpt lat="40.816112" lon="-3.959677">
        <ele>1824.589</ele>
        <time>2021-07-29T11:42:30Z</time>
      </trkpt>
      <trkpt lat="40.816090" lon="-3.959668">
        <ele>1824.406</ele>
        <time>2021-07-29T11:42:33Z</time>
      </trkpt>
      <trkpt lat="40.816067" lon="-3.959668">
        <ele>1824.226</ele>
        <time>2021-07-29T11:42:35Z</time>
      </trkpt>
      <trkpt lat="40.816045" lon="-3.959663">
        <ele>1824.008</ele>
        <time>2021-07-29T11:42:37Z</time>
      </trkpt>
      <trkpt lat="40.816022" lon="-3.959657">
        <ele>1823.925</ele>
        <time>2021-07-29T11:42:39Z</time>
      </trkpt>
      <trkpt lat="40.815997" lon="-3.959653">
        <ele>1823.737</ele>
        <time>2021-07-29T11:42:41Z</time>
      </trkpt>
      <trkpt lat="40.815974" lon="-3.959647">
        <ele>1823.674</ele>
        <time>2021-07-29T11:42:43Z</time>
      </trkpt>
      <trkpt lat="40.815949" lon="-3.959633">
        <ele>1823.621</ele>
        <time>2021-07-29T11:42:45Z</time>
      </trkpt>
      <trkpt lat="40.815926" lon="-3.959622">
        <ele>1823.682</ele>
        <time>2021-07-29T11:42:47Z</time>
      </trkpt>
      <trkpt lat="40.815898" lon="-3.959607">
        <ele>1823.662</ele>
        <time>2021-07-29T11:42:49Z</time>
      </trkpt>
      <trkpt lat="40.815872" lon="-3.959593">
        <ele>1823.625</ele>
        <time>2021-07-29T11:42:51Z</time>
      </trkpt>
      <trkpt lat="40.815846" lon="-3.959582">
        <ele>1823.674</ele>
        <time>2021-07-29T11:42:53Z</time>
      </trkpt>
      <trkpt lat="40.815818" lon="-3.959570">
        <ele>1823.637</ele>
        <time>2021-07-29T11:42:55Z</time>
      </trkpt>
      <trkpt lat="40.815789" lon="-3.959553">
        <ele>1823.749</ele>
        <time>2021-07-29T11:42:57Z</time>
      </trkpt>
      <trkpt lat="40.815760" lon="-3.959536">
        <ele>1823.813</ele>
        <time>2021-07-29T11:42:59Z</time>
      </trkpt>
      <trkpt lat="40.815734" lon="-3.959525">
        <ele>1823.808</ele>
        <time>2021-07-29T11:43:01Z</time>
      </trkpt>
      <trkpt lat="40.815715" lon="-3.959515">
        <ele>1823.920</ele>
        <time>2021-07-29T11:43:03Z</time>
      </trkpt>
      <trkpt lat="40.815690" lon="-3.959507">
        <ele>1823.822</ele>
        <time>2021-07-29T11:43:05Z</time>
      </trkpt>
      <trkpt lat="40.815670" lon="-3.959493">
        <ele>1824.069</ele>
        <time>2021-07-29T11:43:07Z</time>
      </trkpt>
      <trkpt lat="40.815648" lon="-3.959482">
        <ele>1824.076</ele>
        <time>2021-07-29T11:43:09Z</time>
      </trkpt>
      <trkpt lat="40.815629" lon="-3.959470">
        <ele>1824.117</ele>
        <time>2021-07-29T11:43:11Z</time>
      </trkpt>
      <trkpt lat="40.815606" lon="-3.959457">
        <ele>1824.137</ele>
        <time>2021-07-29T11:43:13Z</time>
      </trkpt>
      <trkpt lat="40.815574" lon="-3.959447">
        <ele>1824.130</ele>
        <time>2021-07-29T11:43:15Z</time>
      </trkpt>
      <trkpt lat="40.815549" lon="-3.959437">
        <ele>1824.089</ele>
        <time>2021-07-29T11:43:17Z</time>
      </trkpt>
      <trkpt lat="40.815526" lon="-3.959428">
        <ele>1823.836</ele>
        <time>2021-07-29T11:43:19Z</time>
      </trkpt>
      <trkpt lat="40.815501" lon="-3.959420">
        <ele>1823.617</ele>
        <time>2021-07-29T11:43:21Z</time>
      </trkpt>
      <trkpt lat="40.815478" lon="-3.959407">
        <ele>1823.418</ele>
        <time>2021-07-29T11:43:23Z</time>
      </trkpt>
      <trkpt lat="40.815450" lon="-3.959390">
        <ele>1823.208</ele>
        <time>2021-07-29T11:43:25Z</time>
      </trkpt>
      <trkpt lat="40.815430" lon="-3.959382">
        <ele>1822.930</ele>
        <time>2021-07-29T11:43:27Z</time>
      </trkpt>
      <trkpt lat="40.815408" lon="-3.959372">
        <ele>1822.692</ele>
        <time>2021-07-29T11:43:29Z</time>
      </trkpt>
      <trkpt lat="40.815382" lon="-3.959360">
        <ele>1822.339</ele>
        <time>2021-07-29T11:43:31Z</time>
      </trkpt>
      <trkpt lat="40.815357" lon="-3.959352">
        <ele>1821.956</ele>
        <time>2021-07-29T11:43:33Z</time>
      </trkpt>
      <trkpt lat="40.815338" lon="-3.959340">
        <ele>1821.687</ele>
        <time>2021-07-29T11:43:35Z</time>
      </trkpt>
      <trkpt lat="40.815315" lon="-3.959330">
        <ele>1821.257</ele>
        <time>2021-07-29T11:43:37Z</time>
      </trkpt>
      <trkpt lat="40.815293" lon="-3.959318">
        <ele>1820.830</ele>
        <time>2021-07-29T11:43:39Z</time>
      </trkpt>
      <trkpt lat="40.815270" lon="-3.959303">
        <ele>1820.459</ele>
        <time>2021-07-29T11:43:41Z</time>
      </trkpt>
      <trkpt lat="40.815251" lon="-3.959293">
        <ele>1820.167</ele>
        <time>2021-07-29T11:43:43Z</time>
      </trkpt>
      <trkpt lat="40.815235" lon="-3.959280">
        <ele>1819.881</ele>
        <time>2021-07-29T11:43:45Z</time>
      </trkpt>
      <trkpt lat="40.815213" lon="-3.959263">
        <ele>1819.619</ele>
        <time>2021-07-29T11:43:47Z</time>
      </trkpt>
      <trkpt lat="40.815194" lon="-3.959242">
        <ele>1819.408</ele>
        <time>2021-07-29T11:43:49Z</time>
      </trkpt>
      <trkpt lat="40.815174" lon="-3.959225">
        <ele>1819.183</ele>
        <time>2021-07-29T11:43:51Z</time>
      </trkpt>
      <trkpt lat="40.815158" lon="-3.959203">
        <ele>1819.055</ele>
        <time>2021-07-29T11:43:53Z</time>
      </trkpt>
      <trkpt lat="40.815152" lon="-3.959168">
        <ele>1819.232</ele>
        <time>2021-07-29T11:43:55Z</time>
      </trkpt>
      <trkpt lat="40.815149" lon="-3.959137">
        <ele>1819.469</ele>
        <time>2021-07-29T11:43:57Z</time>
      </trkpt>
      <trkpt lat="40.815133" lon="-3.959102">
        <ele>1819.440</ele>
        <time>2021-07-29T11:43:59Z</time>
      </trkpt>
      <trkpt lat="40.815120" lon="-3.959065">
        <ele>1819.550</ele>
        <time>2021-07-29T11:44:01Z</time>
      </trkpt>
      <trkpt lat="40.815117" lon="-3.959030">
        <ele>1819.773</ele>
        <time>2021-07-29T11:44:03Z</time>
      </trkpt>
      <trkpt lat="40.815114" lon="-3.959000">
        <ele>1819.882</ele>
        <time>2021-07-29T11:44:05Z</time>
      </trkpt>
      <trkpt lat="40.815110" lon="-3.958965">
        <ele>1820.036</ele>
        <time>2021-07-29T11:44:07Z</time>
      </trkpt>
      <trkpt lat="40.815110" lon="-3.958937">
        <ele>1820.217</ele>
        <time>2021-07-29T11:44:09Z</time>
      </trkpt>
      <trkpt lat="40.815094" lon="-3.958900">
        <ele>1820.318</ele>
        <time>2021-07-29T11:44:12Z</time>
      </trkpt>
      <trkpt lat="40.815082" lon="-3.958866">
        <ele>1820.308</ele>
        <time>2021-07-29T11:44:15Z</time>
      </trkpt>
      <trkpt lat="40.815104" lon="-3.958870">
        <ele>1820.670</ele>
        <time>2021-07-29T11:44:18Z</time>
      </trkpt>
      <trkpt lat="40.815098" lon="-3.958836">
        <ele>1820.772</ele>
        <time>2021-07-29T11:44:20Z</time>
      </trkpt>
      <trkpt lat="40.815094" lon="-3.958808">
        <ele>1820.729</ele>
        <time>2021-07-29T11:44:23Z</time>
      </trkpt>
      <trkpt lat="40.815091" lon="-3.958782">
        <ele>1820.896</ele>
        <time>2021-07-29T11:44:34Z</time>
      </trkpt>
      <trkpt lat="40.815059" lon="-3.958777">
        <ele>1820.357</ele>
        <time>2021-07-29T11:45:07Z</time>
      </trkpt>
      <trkpt lat="40.815043" lon="-3.958765">
        <ele>1820.127</ele>
        <time>2021-07-29T11:45:08Z</time>
      </trkpt>
      <trkpt lat="40.815018" lon="-3.958742">
        <ele>1819.820</ele>
        <time>2021-07-29T11:45:10Z</time>
      </trkpt>
      <trkpt lat="40.814995" lon="-3.958718">
        <ele>1819.569</ele>
        <time>2021-07-29T11:45:12Z</time>
      </trkpt>
      <trkpt lat="40.814979" lon="-3.958702">
        <ele>1819.061</ele>
        <time>2021-07-29T11:45:13Z</time>
      </trkpt>
      <trkpt lat="40.814950" lon="-3.958686">
        <ele>1818.121</ele>
        <time>2021-07-29T11:45:15Z</time>
      </trkpt>
      <trkpt lat="40.814931" lon="-3.958682">
        <ele>1817.513</ele>
        <time>2021-07-29T11:45:16Z</time>
      </trkpt>
      <trkpt lat="40.814906" lon="-3.958683">
        <ele>1816.708</ele>
        <time>2021-07-29T11:45:19Z</time>
      </trkpt>
      <trkpt lat="40.814890" lon="-3.958657">
        <ele>1816.343</ele>
        <time>2021-07-29T11:45:25Z</time>
      </trkpt>
      <trkpt lat="40.814870" lon="-3.958652">
        <ele>1815.655</ele>
        <time>2021-07-29T11:45:28Z</time>
      </trkpt>
      <trkpt lat="40.814858" lon="-3.958683">
        <ele>1815.132</ele>
        <time>2021-07-29T11:45:31Z</time>
      </trkpt>
      <trkpt lat="40.814838" lon="-3.958712">
        <ele>1814.449</ele>
        <time>2021-07-29T11:45:35Z</time>
      </trkpt>
      <trkpt lat="40.814826" lon="-3.958743">
        <ele>1813.920</ele>
        <time>2021-07-29T11:45:37Z</time>
      </trkpt>
      <trkpt lat="40.814819" lon="-3.958772">
        <ele>1813.620</ele>
        <time>2021-07-29T11:45:40Z</time>
      </trkpt>
      <trkpt lat="40.814803" lon="-3.958798">
        <ele>1812.983</ele>
        <time>2021-07-29T11:45:43Z</time>
      </trkpt>
      <trkpt lat="40.814797" lon="-3.958828">
        <ele>1812.632</ele>
        <time>2021-07-29T11:45:46Z</time>
      </trkpt>
      <trkpt lat="40.814790" lon="-3.958856">
        <ele>1812.382</ele>
        <time>2021-07-29T11:45:49Z</time>
      </trkpt>
      <trkpt lat="40.814784" lon="-3.958882">
        <ele>1812.043</ele>
        <time>2021-07-29T11:45:51Z</time>
      </trkpt>
      <trkpt lat="40.814774" lon="-3.958907">
        <ele>1811.717</ele>
        <time>2021-07-29T11:45:53Z</time>
      </trkpt>
      <trkpt lat="40.814778" lon="-3.958938">
        <ele>1811.708</ele>
        <time>2021-07-29T11:45:56Z</time>
      </trkpt>
      <trkpt lat="40.814765" lon="-3.958977">
        <ele>1811.355</ele>
        <time>2021-07-29T11:45:59Z</time>
      </trkpt>
      <trkpt lat="40.814752" lon="-3.959015">
        <ele>1810.997</ele>
        <time>2021-07-29T11:46:01Z</time>
      </trkpt>
      <trkpt lat="40.814739" lon="-3.959032">
        <ele>1810.554</ele>
        <time>2021-07-29T11:46:03Z</time>
      </trkpt>
      <trkpt lat="40.814723" lon="-3.959065">
        <ele>1810.021</ele>
        <time>2021-07-29T11:46:06Z</time>
      </trkpt>
      <trkpt lat="40.814714" lon="-3.959100">
        <ele>1809.782</ele>
        <time>2021-07-29T11:46:09Z</time>
      </trkpt>
      <trkpt lat="40.814701" lon="-3.959117">
        <ele>1809.292</ele>
        <time>2021-07-29T11:46:10Z</time>
      </trkpt>
      <trkpt lat="40.814672" lon="-3.959105">
        <ele>1808.035</ele>
        <time>2021-07-29T11:46:13Z</time>
      </trkpt>
      <trkpt lat="40.814656" lon="-3.959092">
        <ele>1807.424</ele>
        <time>2021-07-29T11:46:15Z</time>
      </trkpt>
      <trkpt lat="40.814659" lon="-3.959067">
        <ele>1807.547</ele>
        <time>2021-07-29T11:46:19Z</time>
      </trkpt>
      <trkpt lat="40.814646" lon="-3.959048">
        <ele>1807.029</ele>
        <time>2021-07-29T11:46:22Z</time>
      </trkpt>
      <trkpt lat="40.814627" lon="-3.959045">
        <ele>1806.221</ele>
        <time>2021-07-29T11:46:25Z</time>
      </trkpt>
      <trkpt lat="40.814602" lon="-3.959062">
        <ele>1805.208</ele>
        <time>2021-07-29T11:46:27Z</time>
      </trkpt>
      <trkpt lat="40.814579" lon="-3.959085">
        <ele>1804.371</ele>
        <time>2021-07-29T11:46:29Z</time>
      </trkpt>
      <trkpt lat="40.814566" lon="-3.959107">
        <ele>1803.823</ele>
        <time>2021-07-29T11:46:32Z</time>
      </trkpt>
      <trkpt lat="40.814560" lon="-3.959142">
        <ele>1803.670</ele>
        <time>2021-07-29T11:46:38Z</time>
      </trkpt>
      <trkpt lat="40.814547" lon="-3.959158">
        <ele>1803.147</ele>
        <time>2021-07-29T11:46:39Z</time>
      </trkpt>
      <trkpt lat="40.814525" lon="-3.959175">
        <ele>1802.228</ele>
        <time>2021-07-29T11:46:42Z</time>
      </trkpt>
      <trkpt lat="40.814509" lon="-3.959192">
        <ele>1801.668</ele>
        <time>2021-07-29T11:46:44Z</time>
      </trkpt>
      <trkpt lat="40.814480" lon="-3.959183">
        <ele>1800.471</ele>
        <time>2021-07-29T11:46:49Z</time>
      </trkpt>
      <trkpt lat="40.814461" lon="-3.959237">
        <ele>1799.720</ele>
        <time>2021-07-29T11:46:53Z</time>
      </trkpt>
      <trkpt lat="40.814438" lon="-3.959267">
        <ele>1798.799</ele>
        <time>2021-07-29T11:46:55Z</time>
      </trkpt>
      <trkpt lat="40.814416" lon="-3.959257">
        <ele>1797.807</ele>
        <time>2021-07-29T11:46:59Z</time>
      </trkpt>
      <trkpt lat="40.814394" lon="-3.959242">
        <ele>1796.927</ele>
        <time>2021-07-29T11:47:06Z</time>
      </trkpt>
      <trkpt lat="40.814374" lon="-3.959243">
        <ele>1796.008</ele>
        <time>2021-07-29T11:47:09Z</time>
      </trkpt>
      <trkpt lat="40.814355" lon="-3.959252">
        <ele>1795.246</ele>
        <time>2021-07-29T11:47:11Z</time>
      </trkpt>
      <trkpt lat="40.814339" lon="-3.959273">
        <ele>1794.618</ele>
        <time>2021-07-29T11:47:14Z</time>
      </trkpt>
      <trkpt lat="40.814320" lon="-3.959295">
        <ele>1793.855</ele>
        <time>2021-07-29T11:47:17Z</time>
      </trkpt>
      <trkpt lat="40.814304" lon="-3.959322">
        <ele>1793.212</ele>
        <time>2021-07-29T11:47:20Z</time>
      </trkpt>
      <trkpt lat="40.814282" lon="-3.959334">
        <ele>1792.373</ele>
        <time>2021-07-29T11:47:26Z</time>
      </trkpt>
      <trkpt lat="40.814266" lon="-3.959355">
        <ele>1791.763</ele>
        <time>2021-07-29T11:47:28Z</time>
      </trkpt>
      <trkpt lat="40.814250" lon="-3.959386">
        <ele>1791.246</ele>
        <time>2021-07-29T11:47:30Z</time>
      </trkpt>
      <trkpt lat="40.814243" lon="-3.959427">
        <ele>1791.095</ele>
        <time>2021-07-29T11:47:32Z</time>
      </trkpt>
      <trkpt lat="40.814230" lon="-3.959458">
        <ele>1790.557</ele>
        <time>2021-07-29T11:47:34Z</time>
      </trkpt>
      <trkpt lat="40.814224" lon="-3.959487">
        <ele>1790.200</ele>
        <time>2021-07-29T11:47:36Z</time>
      </trkpt>
      <trkpt lat="40.814208" lon="-3.959502">
        <ele>1789.620</ele>
        <time>2021-07-29T11:47:39Z</time>
      </trkpt>
      <trkpt lat="40.814195" lon="-3.959480">
        <ele>1789.108</ele>
        <time>2021-07-29T11:47:43Z</time>
      </trkpt>
      <trkpt lat="40.814179" lon="-3.959468">
        <ele>1788.512</ele>
        <time>2021-07-29T11:47:47Z</time>
      </trkpt>
      <trkpt lat="40.814150" lon="-3.959478">
        <ele>1787.474</ele>
        <time>2021-07-29T11:47:49Z</time>
      </trkpt>
      <trkpt lat="40.814131" lon="-3.959478">
        <ele>1786.751</ele>
        <time>2021-07-29T11:47:55Z</time>
      </trkpt>
      <trkpt lat="40.814115" lon="-3.959498">
        <ele>1786.298</ele>
        <time>2021-07-29T11:48:01Z</time>
      </trkpt>
      <trkpt lat="40.814090" lon="-3.959493">
        <ele>1785.349</ele>
        <time>2021-07-29T11:48:06Z</time>
      </trkpt>
      <trkpt lat="40.814083" lon="-3.959467">
        <ele>1785.069</ele>
        <time>2021-07-29T11:48:11Z</time>
      </trkpt>
      <trkpt lat="40.814064" lon="-3.959453">
        <ele>1784.372</ele>
        <time>2021-07-29T11:48:14Z</time>
      </trkpt>
      <trkpt lat="40.814048" lon="-3.959473">
        <ele>1783.881</ele>
        <time>2021-07-29T11:48:16Z</time>
      </trkpt>
      <trkpt lat="40.814032" lon="-3.959460">
        <ele>1783.281</ele>
        <time>2021-07-29T11:48:21Z</time>
      </trkpt>
      <trkpt lat="40.814026" lon="-3.959437">
        <ele>1782.961</ele>
        <time>2021-07-29T11:48:23Z</time>
      </trkpt>
      <trkpt lat="40.814003" lon="-3.959418">
        <ele>1782.017</ele>
        <time>2021-07-29T11:48:26Z</time>
      </trkpt>
      <trkpt lat="40.813981" lon="-3.959417">
        <ele>1781.208</ele>
        <time>2021-07-29T11:48:28Z</time>
      </trkpt>
      <trkpt lat="40.813958" lon="-3.959430">
        <ele>1780.445</ele>
        <time>2021-07-29T11:48:31Z</time>
      </trkpt>
      <trkpt lat="40.813939" lon="-3.959443">
        <ele>1779.847</ele>
        <time>2021-07-29T11:48:38Z</time>
      </trkpt>
      <trkpt lat="40.813920" lon="-3.959440">
        <ele>1779.164</ele>
        <time>2021-07-29T11:48:41Z</time>
      </trkpt>
      <trkpt lat="40.813898" lon="-3.959462">
        <ele>1778.421</ele>
        <time>2021-07-29T11:48:43Z</time>
      </trkpt>
      <trkpt lat="40.813885" lon="-3.959445">
        <ele>1778.072</ele>
        <time>2021-07-29T11:48:47Z</time>
      </trkpt>
      <trkpt lat="40.813862" lon="-3.959437">
        <ele>1777.982</ele>
        <time>2021-07-29T11:48:50Z</time>
      </trkpt>
      <trkpt lat="40.813843" lon="-3.959427">
        <ele>1777.895</ele>
        <time>2021-07-29T11:48:52Z</time>
      </trkpt>
      <trkpt lat="40.813824" lon="-3.959418">
        <ele>1777.624</ele>
        <time>2021-07-29T11:48:54Z</time>
      </trkpt>
      <trkpt lat="40.813802" lon="-3.959405">
        <ele>1777.591</ele>
        <time>2021-07-29T11:48:57Z</time>
      </trkpt>
      <trkpt lat="40.813789" lon="-3.959385">
        <ele>1777.381</ele>
        <time>2021-07-29T11:48:59Z</time>
      </trkpt>
      <trkpt lat="40.813773" lon="-3.959360">
        <ele>1777.219</ele>
        <time>2021-07-29T11:49:03Z</time>
      </trkpt>
      <trkpt lat="40.813754" lon="-3.959334">
        <ele>1776.908</ele>
        <time>2021-07-29T11:49:07Z</time>
      </trkpt>
      <trkpt lat="40.813747" lon="-3.959307">
        <ele>1776.736</ele>
        <time>2021-07-29T11:49:09Z</time>
      </trkpt>
      <trkpt lat="40.813747" lon="-3.959272">
        <ele>1776.658</ele>
        <time>2021-07-29T11:49:12Z</time>
      </trkpt>
      <trkpt lat="40.813763" lon="-3.959235">
        <ele>1776.515</ele>
        <time>2021-07-29T11:49:14Z</time>
      </trkpt>
      <trkpt lat="40.813773" lon="-3.959203">
        <ele>1776.442</ele>
        <time>2021-07-29T11:49:16Z</time>
      </trkpt>
      <trkpt lat="40.813754" lon="-3.959180">
        <ele>1776.133</ele>
        <time>2021-07-29T11:49:19Z</time>
      </trkpt>
      <trkpt lat="40.813731" lon="-3.959162">
        <ele>1775.883</ele>
        <time>2021-07-29T11:49:21Z</time>
      </trkpt>
      <trkpt lat="40.813718" lon="-3.959122">
        <ele>1775.676</ele>
        <time>2021-07-29T11:49:23Z</time>
      </trkpt>
      <trkpt lat="40.813702" lon="-3.959078">
        <ele>1775.345</ele>
        <time>2021-07-29T11:49:25Z</time>
      </trkpt>
      <trkpt lat="40.813706" lon="-3.959050">
        <ele>1775.329</ele>
        <time>2021-07-29T11:49:27Z</time>
      </trkpt>
      <trkpt lat="40.813718" lon="-3.959028">
        <ele>1775.300</ele>
        <time>2021-07-29T11:49:29Z</time>
      </trkpt>
      <trkpt lat="40.813722" lon="-3.959000">
        <ele>1775.220</ele>
        <time>2021-07-29T11:49:32Z</time>
      </trkpt>
      <trkpt lat="40.813709" lon="-3.958967">
        <ele>1775.008</ele>
        <time>2021-07-29T11:49:34Z</time>
      </trkpt>
      <trkpt lat="40.813706" lon="-3.958940">
        <ele>1774.999</ele>
        <time>2021-07-29T11:49:36Z</time>
      </trkpt>
      <trkpt lat="40.813702" lon="-3.958907">
        <ele>1774.711</ele>
        <time>2021-07-29T11:49:37Z</time>
      </trkpt>
      <trkpt lat="40.813702" lon="-3.958882">
        <ele>1774.628</ele>
        <time>2021-07-29T11:49:38Z</time>
      </trkpt>
      <trkpt lat="40.813690" lon="-3.958853">
        <ele>1774.345</ele>
        <time>2021-07-29T11:49:39Z</time>
      </trkpt>
      <trkpt lat="40.813690" lon="-3.958828">
        <ele>1774.146</ele>
        <time>2021-07-29T11:49:41Z</time>
      </trkpt>
      <trkpt lat="40.813683" lon="-3.958794">
        <ele>1773.876</ele>
        <time>2021-07-29T11:49:44Z</time>
      </trkpt>
      <trkpt lat="40.813674" lon="-3.958767">
        <ele>1773.679</ele>
        <time>2021-07-29T11:49:46Z</time>
      </trkpt>
      <trkpt lat="40.813664" lon="-3.958730">
        <ele>1773.238</ele>
        <time>2021-07-29T11:49:49Z</time>
      </trkpt>
      <trkpt lat="40.813661" lon="-3.958703">
        <ele>1773.037</ele>
        <time>2021-07-29T11:49:51Z</time>
      </trkpt>
      <trkpt lat="40.813651" lon="-3.958674">
        <ele>1772.749</ele>
        <time>2021-07-29T11:49:54Z</time>
      </trkpt>
      <trkpt lat="40.813635" lon="-3.958650">
        <ele>1772.513</ele>
        <time>2021-07-29T11:49:57Z</time>
      </trkpt>
      <trkpt lat="40.813622" lon="-3.958624">
        <ele>1772.208</ele>
        <time>2021-07-29T11:50:00Z</time>
      </trkpt>
      <trkpt lat="40.813610" lon="-3.958593">
        <ele>1771.920</ele>
        <time>2021-07-29T11:50:03Z</time>
      </trkpt>
      <trkpt lat="40.813603" lon="-3.958568">
        <ele>1772.252</ele>
        <time>2021-07-29T11:50:05Z</time>
      </trkpt>
      <trkpt lat="40.813587" lon="-3.958550">
        <ele>1773.189</ele>
        <time>2021-07-29T11:50:07Z</time>
      </trkpt>
      <trkpt lat="40.813581" lon="-3.958516">
        <ele>1773.276</ele>
        <time>2021-07-29T11:50:10Z</time>
      </trkpt>
      <trkpt lat="40.813565" lon="-3.958492">
        <ele>1774.157</ele>
        <time>2021-07-29T11:50:12Z</time>
      </trkpt>
      <trkpt lat="40.813555" lon="-3.958468">
        <ele>1774.557</ele>
        <time>2021-07-29T11:50:14Z</time>
      </trkpt>
      <trkpt lat="40.813552" lon="-3.958440">
        <ele>1774.520</ele>
        <time>2021-07-29T11:50:16Z</time>
      </trkpt>
      <trkpt lat="40.813546" lon="-3.958407">
        <ele>1774.699</ele>
        <time>2021-07-29T11:50:18Z</time>
      </trkpt>
      <trkpt lat="40.813533" lon="-3.958378">
        <ele>1775.133</ele>
        <time>2021-07-29T11:50:20Z</time>
      </trkpt>
      <trkpt lat="40.813523" lon="-3.958347">
        <ele>1775.523</ele>
        <time>2021-07-29T11:50:22Z</time>
      </trkpt>
      <trkpt lat="40.813510" lon="-3.958326">
        <ele>1776.115</ele>
        <time>2021-07-29T11:50:24Z</time>
      </trkpt>
      <trkpt lat="40.813491" lon="-3.958305">
        <ele>1776.908</ele>
        <time>2021-07-29T11:50:26Z</time>
      </trkpt>
      <trkpt lat="40.813466" lon="-3.958294">
        <ele>1778.370</ele>
        <time>2021-07-29T11:50:28Z</time>
      </trkpt>
      <trkpt lat="40.813469" lon="-3.958267">
        <ele>1777.722</ele>
        <time>2021-07-29T11:50:30Z</time>
      </trkpt>
      <trkpt lat="40.813466" lon="-3.958240">
        <ele>1777.519</ele>
        <time>2021-07-29T11:50:32Z</time>
      </trkpt>
      <trkpt lat="40.813466" lon="-3.958210">
        <ele>1777.166</ele>
        <time>2021-07-29T11:50:34Z</time>
      </trkpt>
      <trkpt lat="40.813450" lon="-3.958178">
        <ele>1777.637</ele>
        <time>2021-07-29T11:50:36Z</time>
      </trkpt>
      <trkpt lat="40.813450" lon="-3.958138">
        <ele>1777.077</ele>
        <time>2021-07-29T11:50:38Z</time>
      </trkpt>
      <trkpt lat="40.813450" lon="-3.958108">
        <ele>1776.640</ele>
        <time>2021-07-29T11:50:40Z</time>
      </trkpt>
      <trkpt lat="40.813440" lon="-3.958078">
        <ele>1776.899</ele>
        <time>2021-07-29T11:50:43Z</time>
      </trkpt>
      <trkpt lat="40.813421" lon="-3.958057">
        <ele>1777.761</ele>
        <time>2021-07-29T11:50:45Z</time>
      </trkpt>
      <trkpt lat="40.813402" lon="-3.958037">
        <ele>1778.521</ele>
        <time>2021-07-29T11:50:47Z</time>
      </trkpt>
      <trkpt lat="40.813402" lon="-3.958012">
        <ele>1778.213</ele>
        <time>2021-07-29T11:50:50Z</time>
      </trkpt>
      <trkpt lat="40.813405" lon="-3.957975">
        <ele>1777.508</ele>
        <time>2021-07-29T11:50:53Z</time>
      </trkpt>
      <trkpt lat="40.813395" lon="-3.957940">
        <ele>1777.733</ele>
        <time>2021-07-29T11:50:55Z</time>
      </trkpt>
      <trkpt lat="40.813392" lon="-3.957910">
        <ele>1777.555</ele>
        <time>2021-07-29T11:50:57Z</time>
      </trkpt>
      <trkpt lat="40.813389" lon="-3.957885">
        <ele>1777.462</ele>
        <time>2021-07-29T11:50:59Z</time>
      </trkpt>
      <trkpt lat="40.813370" lon="-3.957863">
        <ele>1778.449</ele>
        <time>2021-07-29T11:51:01Z</time>
      </trkpt>
      <trkpt lat="40.813366" lon="-3.957838">
        <ele>1778.490</ele>
        <time>2021-07-29T11:51:03Z</time>
      </trkpt>
      <trkpt lat="40.813354" lon="-3.957822">
        <ele>1779.070</ele>
        <time>2021-07-29T11:51:04Z</time>
      </trkpt>
      <trkpt lat="40.813354" lon="-3.957790">
        <ele>1778.723</ele>
        <time>2021-07-29T11:51:06Z</time>
      </trkpt>
      <trkpt lat="40.813344" lon="-3.957752">
        <ele>1778.722</ele>
        <time>2021-07-29T11:51:08Z</time>
      </trkpt>
      <trkpt lat="40.813331" lon="-3.957725">
        <ele>1779.071</ele>
        <time>2021-07-29T11:51:10Z</time>
      </trkpt>
      <trkpt lat="40.813328" lon="-3.957693">
        <ele>1778.541</ele>
        <time>2021-07-29T11:51:12Z</time>
      </trkpt>
      <trkpt lat="40.813315" lon="-3.957667">
        <ele>1778.715</ele>
        <time>2021-07-29T11:51:15Z</time>
      </trkpt>
      <trkpt lat="40.813296" lon="-3.957647">
        <ele>1779.508</ele>
        <time>2021-07-29T11:51:18Z</time>
      </trkpt>
      <trkpt lat="40.813277" lon="-3.957622">
        <ele>1780.254</ele>
        <time>2021-07-29T11:51:21Z</time>
      </trkpt>
      <trkpt lat="40.813277" lon="-3.957595">
        <ele>1779.766</ele>
        <time>2021-07-29T11:51:23Z</time>
      </trkpt>
      <trkpt lat="40.813274" lon="-3.957570">
        <ele>1779.473</ele>
        <time>2021-07-29T11:51:25Z</time>
      </trkpt>
      <trkpt lat="40.813270" lon="-3.957537">
        <ele>1779.070</ele>
        <time>2021-07-29T11:51:27Z</time>
      </trkpt>
      <trkpt lat="40.813274" lon="-3.957510">
        <ele>1778.391</ele>
        <time>2021-07-29T11:51:28Z</time>
      </trkpt>
      <trkpt lat="40.813267" lon="-3.957482">
        <ele>1778.341</ele>
        <time>2021-07-29T11:51:29Z</time>
      </trkpt>
      <trkpt lat="40.813258" lon="-3.957460">
        <ele>1778.724</ele>
        <time>2021-07-29T11:51:30Z</time>
      </trkpt>
      <trkpt lat="40.813245" lon="-3.957430">
        <ele>1779.283</ele>
        <time>2021-07-29T11:51:32Z</time>
      </trkpt>
      <trkpt lat="40.813242" lon="-3.957400">
        <ele>1779.028</ele>
        <time>2021-07-29T11:51:35Z</time>
      </trkpt>
      <trkpt lat="40.813242" lon="-3.957375">
        <ele>1778.789</ele>
        <time>2021-07-29T11:51:37Z</time>
      </trkpt>
      <trkpt lat="40.813245" lon="-3.957337">
        <ele>1778.117</ele>
        <time>2021-07-29T11:51:40Z</time>
      </trkpt>
      <trkpt lat="40.813254" lon="-3.957313">
        <ele>1777.108</ele>
        <time>2021-07-29T11:51:42Z</time>
      </trkpt>
      <trkpt lat="40.813267" lon="-3.957285">
        <ele>1775.889</ele>
        <time>2021-07-29T11:51:44Z</time>
      </trkpt>
      <trkpt lat="40.813251" lon="-3.957262">
        <ele>1776.711</ele>
        <time>2021-07-29T11:51:47Z</time>
      </trkpt>
      <trkpt lat="40.813222" lon="-3.957250">
        <ele>1778.788</ele>
        <time>2021-07-29T11:51:49Z</time>
      </trkpt>
      <trkpt lat="40.813203" lon="-3.957225">
        <ele>1779.975</ele>
        <time>2021-07-29T11:51:52Z</time>
      </trkpt>
      <trkpt lat="40.813190" lon="-3.957193">
        <ele>1780.866</ele>
        <time>2021-07-29T11:51:54Z</time>
      </trkpt>
      <trkpt lat="40.813187" lon="-3.957168">
        <ele>1781.126</ele>
        <time>2021-07-29T11:51:57Z</time>
      </trkpt>
      <trkpt lat="40.813187" lon="-3.957140">
        <ele>1781.139</ele>
        <time>2021-07-29T11:51:59Z</time>
      </trkpt>
      <trkpt lat="40.813203" lon="-3.957118">
        <ele>1779.888</ele>
        <time>2021-07-29T11:52:01Z</time>
      </trkpt>
      <trkpt lat="40.813216" lon="-3.957093">
        <ele>1778.878</ele>
        <time>2021-07-29T11:52:03Z</time>
      </trkpt>
      <trkpt lat="40.813210" lon="-3.957068">
        <ele>1779.333</ele>
        <time>2021-07-29T11:52:06Z</time>
      </trkpt>
      <trkpt lat="40.813210" lon="-3.957033">
        <ele>1779.226</ele>
        <time>2021-07-29T11:52:09Z</time>
      </trkpt>
      <trkpt lat="40.813203" lon="-3.957010">
        <ele>1779.808</ele>
        <time>2021-07-29T11:52:12Z</time>
      </trkpt>
      <trkpt lat="40.813187" lon="-3.956980">
        <ele>1781.114</ele>
        <time>2021-07-29T11:52:16Z</time>
      </trkpt>
      <trkpt lat="40.813158" lon="-3.956957">
        <ele>1783.526</ele>
        <time>2021-07-29T11:52:18Z</time>
      </trkpt>
      <trkpt lat="40.813149" lon="-3.956933">
        <ele>1784.463</ele>
        <time>2021-07-29T11:52:19Z</time>
      </trkpt>
      <trkpt lat="40.813178" lon="-3.956897">
        <ele>1782.330</ele>
        <time>2021-07-29T11:52:22Z</time>
      </trkpt>
      <trkpt lat="40.813174" lon="-3.956872">
        <ele>1782.821</ele>
        <time>2021-07-29T11:52:24Z</time>
      </trkpt>
      <trkpt lat="40.813158" lon="-3.956858">
        <ele>1784.311</ele>
        <time>2021-07-29T11:52:26Z</time>
      </trkpt>
      <trkpt lat="40.813158" lon="-3.956833">
        <ele>1784.564</ele>
        <time>2021-07-29T11:52:29Z</time>
      </trkpt>
      <trkpt lat="40.813152" lon="-3.956807">
        <ele>1785.263</ele>
        <time>2021-07-29T11:52:32Z</time>
      </trkpt>
      <trkpt lat="40.813158" lon="-3.956780">
        <ele>1784.938</ele>
        <time>2021-07-29T11:52:35Z</time>
      </trkpt>
      <trkpt lat="40.813158" lon="-3.956745">
        <ele>1785.270</ele>
        <time>2021-07-29T11:52:38Z</time>
      </trkpt>
      <trkpt lat="40.813165" lon="-3.956720">
        <ele>1784.917</ele>
        <time>2021-07-29T11:52:41Z</time>
      </trkpt>
      <trkpt lat="40.813149" lon="-3.956698">
        <ele>1786.308</ele>
        <time>2021-07-29T11:52:44Z</time>
      </trkpt>
      <trkpt lat="40.813133" lon="-3.956668">
        <ele>1787.950</ele>
        <time>2021-07-29T11:52:48Z</time>
      </trkpt>
      <trkpt lat="40.813114" lon="-3.956655">
        <ele>1789.482</ele>
        <time>2021-07-29T11:52:52Z</time>
      </trkpt>
      <trkpt lat="40.813110" lon="-3.956620">
        <ele>1790.099</ele>
        <time>2021-07-29T11:52:55Z</time>
      </trkpt>
      <trkpt lat="40.813117" lon="-3.956590">
        <ele>1789.666</ele>
        <time>2021-07-29T11:52:57Z</time>
      </trkpt>
      <trkpt lat="40.813123" lon="-3.956548">
        <ele>1789.467</ele>
        <time>2021-07-29T11:52:59Z</time>
      </trkpt>
      <trkpt lat="40.813110" lon="-3.956530">
        <ele>1790.547</ele>
        <time>2021-07-29T11:53:00Z</time>
      </trkpt>
      <trkpt lat="40.813104" lon="-3.956493">
        <ele>1791.170</ele>
        <time>2021-07-29T11:53:02Z</time>
      </trkpt>
      <trkpt lat="40.813114" lon="-3.956470">
        <ele>1790.589</ele>
        <time>2021-07-29T11:53:05Z</time>
      </trkpt>
      <trkpt lat="40.813114" lon="-3.956430">
        <ele>1790.857</ele>
        <time>2021-07-29T11:53:08Z</time>
      </trkpt>
      <trkpt lat="40.813104" lon="-3.956398">
        <ele>1791.600</ele>
        <time>2021-07-29T11:53:10Z</time>
      </trkpt>
      <trkpt lat="40.813098" lon="-3.956363">
        <ele>1792.320</ele>
        <time>2021-07-29T11:53:12Z</time>
      </trkpt>
      <trkpt lat="40.813107" lon="-3.956342">
        <ele>1791.808</ele>
        <time>2021-07-29T11:53:15Z</time>
      </trkpt>
      <trkpt lat="40.813123" lon="-3.956318">
        <ele>1791.032</ele>
        <time>2021-07-29T11:53:18Z</time>
      </trkpt>
      <trkpt lat="40.813130" lon="-3.956293">
        <ele>1790.784</ele>
        <time>2021-07-29T11:53:21Z</time>
      </trkpt>
      <trkpt lat="40.813110" lon="-3.956277">
        <ele>1792.211</ele>
        <time>2021-07-29T11:53:23Z</time>
      </trkpt>
      <trkpt lat="40.813094" lon="-3.956255">
        <ele>1793.418</ele>
        <time>2021-07-29T11:53:25Z</time>
      </trkpt>
      <trkpt lat="40.813094" lon="-3.956228">
        <ele>1793.629</ele>
        <time>2021-07-29T11:53:27Z</time>
      </trkpt>
      <trkpt lat="40.813094" lon="-3.956188">
        <ele>1793.929</ele>
        <time>2021-07-29T11:53:29Z</time>
      </trkpt>
      <trkpt lat="40.813094" lon="-3.956157">
        <ele>1794.282</ele>
        <time>2021-07-29T11:53:31Z</time>
      </trkpt>
      <trkpt lat="40.813104" lon="-3.956130">
        <ele>1793.791</ele>
        <time>2021-07-29T11:53:33Z</time>
      </trkpt>
      <trkpt lat="40.813098" lon="-3.956098">
        <ele>1794.313</ele>
        <time>2021-07-29T11:53:35Z</time>
      </trkpt>
      <trkpt lat="40.813107" lon="-3.956068">
        <ele>1793.943</ele>
        <time>2021-07-29T11:53:37Z</time>
      </trkpt>
      <trkpt lat="40.813104" lon="-3.956035">
        <ele>1794.207</ele>
        <time>2021-07-29T11:53:39Z</time>
      </trkpt>
      <trkpt lat="40.813107" lon="-3.956012">
        <ele>1794.208</ele>
        <time>2021-07-29T11:53:41Z</time>
      </trkpt>
      <trkpt lat="40.813110" lon="-3.955978">
        <ele>1794.198</ele>
        <time>2021-07-29T11:53:43Z</time>
      </trkpt>
      <trkpt lat="40.813126" lon="-3.955933">
        <ele>1793.430</ele>
        <time>2021-07-29T11:53:45Z</time>
      </trkpt>
      <trkpt lat="40.813133" lon="-3.955905">
        <ele>1793.177</ele>
        <time>2021-07-29T11:53:47Z</time>
      </trkpt>
      <trkpt lat="40.813136" lon="-3.955870">
        <ele>1793.284</ele>
        <time>2021-07-29T11:53:50Z</time>
      </trkpt>
      <trkpt lat="40.813149" lon="-3.955844">
        <ele>1792.625</ele>
        <time>2021-07-29T11:53:52Z</time>
      </trkpt>
      <trkpt lat="40.813158" lon="-3.955812">
        <ele>1792.455</ele>
        <time>2021-07-29T11:53:55Z</time>
      </trkpt>
      <trkpt lat="40.813158" lon="-3.955777">
        <ele>1792.988</ele>
        <time>2021-07-29T11:53:58Z</time>
      </trkpt>
      <trkpt lat="40.813158" lon="-3.955740">
        <ele>1793.487</ele>
        <time>2021-07-29T11:54:00Z</time>
      </trkpt>
      <trkpt lat="40.813168" lon="-3.955713">
        <ele>1793.292</ele>
        <time>2021-07-29T11:54:02Z</time>
      </trkpt>
      <trkpt lat="40.813178" lon="-3.955686">
        <ele>1793.073</ele>
        <time>2021-07-29T11:54:04Z</time>
      </trkpt>
      <trkpt lat="40.813190" lon="-3.955660">
        <ele>1792.720</ele>
        <time>2021-07-29T11:54:06Z</time>
      </trkpt>
      <trkpt lat="40.813187" lon="-3.955634">
        <ele>1793.308</ele>
        <time>2021-07-29T11:54:08Z</time>
      </trkpt>
      <trkpt lat="40.813187" lon="-3.955608">
        <ele>1793.676</ele>
        <time>2021-07-29T11:54:10Z</time>
      </trkpt>
      <trkpt lat="40.813190" lon="-3.955580">
        <ele>1793.948</ele>
        <time>2021-07-29T11:54:14Z</time>
      </trkpt>
      <trkpt lat="40.813203" lon="-3.955557">
        <ele>1793.535</ele>
        <time>2021-07-29T11:54:16Z</time>
      </trkpt>
      <trkpt lat="40.813213" lon="-3.955532">
        <ele>1793.422</ele>
        <time>2021-07-29T11:54:18Z</time>
      </trkpt>
      <trkpt lat="40.813226" lon="-3.955504">
        <ele>1793.063</ele>
        <time>2021-07-29T11:54:20Z</time>
      </trkpt>
      <trkpt lat="40.813216" lon="-3.955472">
        <ele>1793.923</ele>
        <time>2021-07-29T11:54:22Z</time>
      </trkpt>
      <trkpt lat="40.813226" lon="-3.955443">
        <ele>1793.886</ele>
        <time>2021-07-29T11:54:24Z</time>
      </trkpt>
      <trkpt lat="40.813242" lon="-3.955420">
        <ele>1793.255</ele>
        <time>2021-07-29T11:54:26Z</time>
      </trkpt>
      <trkpt lat="40.813213" lon="-3.955385">
        <ele>1795.233</ele>
        <time>2021-07-29T11:54:28Z</time>
      </trkpt>
      <trkpt lat="40.813203" lon="-3.955355">
        <ele>1796.123</ele>
        <time>2021-07-29T11:54:31Z</time>
      </trkpt>
      <trkpt lat="40.813206" lon="-3.955330">
        <ele>1796.215</ele>
        <time>2021-07-29T11:54:34Z</time>
      </trkpt>
      <trkpt lat="40.813226" lon="-3.955313">
        <ele>1795.408</ele>
        <time>2021-07-29T11:54:36Z</time>
      </trkpt>
      <trkpt lat="40.813235" lon="-3.955285">
        <ele>1795.290</ele>
        <time>2021-07-29T11:54:39Z</time>
      </trkpt>
      <trkpt lat="40.813242" lon="-3.955255">
        <ele>1795.312</ele>
        <time>2021-07-29T11:54:41Z</time>
      </trkpt>
      <trkpt lat="40.813242" lon="-3.955228">
        <ele>1795.819</ele>
        <time>2021-07-29T11:54:43Z</time>
      </trkpt>
      <trkpt lat="40.813258" lon="-3.955200">
        <ele>1795.466</ele>
        <time>2021-07-29T11:54:46Z</time>
      </trkpt>
      <trkpt lat="40.813267" lon="-3.955175">
        <ele>1795.387</ele>
        <time>2021-07-29T11:54:48Z</time>
      </trkpt>
      <trkpt lat="40.813258" lon="-3.955138">
        <ele>1796.457</ele>
        <time>2021-07-29T11:54:51Z</time>
      </trkpt>
      <trkpt lat="40.813277" lon="-3.955115">
        <ele>1795.980</ele>
        <time>2021-07-29T11:54:54Z</time>
      </trkpt>
      <trkpt lat="40.813286" lon="-3.955093">
        <ele>1795.839</ele>
        <time>2021-07-29T11:54:56Z</time>
      </trkpt>
      <trkpt lat="40.813293" lon="-3.955062">
        <ele>1795.966</ele>
        <time>2021-07-29T11:54:59Z</time>
      </trkpt>
      <trkpt lat="40.813296" lon="-3.955027">
        <ele>1796.429</ele>
        <time>2021-07-29T11:55:01Z</time>
      </trkpt>
      <trkpt lat="40.813312" lon="-3.955005">
        <ele>1796.021</ele>
        <time>2021-07-29T11:55:03Z</time>
      </trkpt>
      <trkpt lat="40.813328" lon="-3.954988">
        <ele>1795.508</ele>
        <time>2021-07-29T11:55:04Z</time>
      </trkpt>
      <trkpt lat="40.813344" lon="-3.954965">
        <ele>1795.163</ele>
        <time>2021-07-29T11:55:05Z</time>
      </trkpt>
      <trkpt lat="40.813347" lon="-3.954928">
        <ele>1795.765</ele>
        <time>2021-07-29T11:55:07Z</time>
      </trkpt>
      <trkpt lat="40.813350" lon="-3.954895">
        <ele>1796.192</ele>
        <time>2021-07-29T11:55:09Z</time>
      </trkpt>
      <trkpt lat="40.813357" lon="-3.954863">
        <ele>1796.469</ele>
        <time>2021-07-29T11:55:11Z</time>
      </trkpt>
      <trkpt lat="40.813376" lon="-3.954835">
        <ele>1796.150</ele>
        <time>2021-07-29T11:55:14Z</time>
      </trkpt>
      <trkpt lat="40.813389" lon="-3.954797">
        <ele>1796.290</ele>
        <time>2021-07-29T11:55:16Z</time>
      </trkpt>
      <trkpt lat="40.813405" lon="-3.954784">
        <ele>1795.733</ele>
        <time>2021-07-29T11:55:17Z</time>
      </trkpt>
      <trkpt lat="40.813395" lon="-3.954757">
        <ele>1796.772</ele>
        <time>2021-07-29T11:55:20Z</time>
      </trkpt>
      <trkpt lat="40.813392" lon="-3.954722">
        <ele>1797.561</ele>
        <time>2021-07-29T11:55:23Z</time>
      </trkpt>
      <trkpt lat="40.813376" lon="-3.954690">
        <ele>1799.021</ele>
        <time>2021-07-29T11:55:26Z</time>
      </trkpt>
      <trkpt lat="40.813382" lon="-3.954662">
        <ele>1799.413</ele>
        <time>2021-07-29T11:55:29Z</time>
      </trkpt>
      <trkpt lat="40.813411" lon="-3.954638">
        <ele>1798.808</ele>
        <time>2021-07-29T11:55:32Z</time>
      </trkpt>
      <trkpt lat="40.813430" lon="-3.954623">
        <ele>1798.333</ele>
        <time>2021-07-29T11:55:34Z</time>
      </trkpt>
      <trkpt lat="40.813430" lon="-3.954585">
        <ele>1799.365</ele>
        <time>2021-07-29T11:55:37Z</time>
      </trkpt>
      <trkpt lat="40.813453" lon="-3.954580">
        <ele>1798.472</ele>
        <time>2021-07-29T11:55:38Z</time>
      </trkpt>
      <trkpt lat="40.813482" lon="-3.954567">
        <ele>1797.539</ele>
        <time>2021-07-29T11:55:40Z</time>
      </trkpt>
      <trkpt lat="40.813491" lon="-3.954542">
        <ele>1797.750</ele>
        <time>2021-07-29T11:55:42Z</time>
      </trkpt>
      <trkpt lat="40.813494" lon="-3.954505">
        <ele>1798.590</ele>
        <time>2021-07-29T11:55:44Z</time>
      </trkpt>
      <trkpt lat="40.813491" lon="-3.954475">
        <ele>1799.413</ele>
        <time>2021-07-29T11:55:46Z</time>
      </trkpt>
      <trkpt lat="40.813494" lon="-3.954435">
        <ele>1800.392</ele>
        <time>2021-07-29T11:55:48Z</time>
      </trkpt>
      <trkpt lat="40.813504" lon="-3.954400">
        <ele>1800.678</ele>
        <time>2021-07-29T11:55:50Z</time>
      </trkpt>
      <trkpt lat="40.813494" lon="-3.954377">
        <ele>1801.633</ele>
        <time>2021-07-29T11:55:54Z</time>
      </trkpt>
      <trkpt lat="40.813514" lon="-3.954343">
        <ele>1801.526</ele>
        <time>2021-07-29T11:55:57Z</time>
      </trkpt>
      <trkpt lat="40.813530" lon="-3.954313">
        <ele>1801.508</ele>
        <time>2021-07-29T11:55:59Z</time>
      </trkpt>
      <trkpt lat="40.813542" lon="-3.954283">
        <ele>1801.634</ele>
        <time>2021-07-29T11:56:02Z</time>
      </trkpt>
      <trkpt lat="40.813555" lon="-3.954256">
        <ele>1801.656</ele>
        <time>2021-07-29T11:56:04Z</time>
      </trkpt>
      <trkpt lat="40.813571" lon="-3.954227">
        <ele>1801.573</ele>
        <time>2021-07-29T11:56:07Z</time>
      </trkpt>
      <trkpt lat="40.813581" lon="-3.954200">
        <ele>1801.770</ele>
        <time>2021-07-29T11:56:09Z</time>
      </trkpt>
      <trkpt lat="40.813574" lon="-3.954173">
        <ele>1802.621</ele>
        <time>2021-07-29T11:56:12Z</time>
      </trkpt>
      <trkpt lat="40.813581" lon="-3.954150">
        <ele>1802.821</ele>
        <time>2021-07-29T11:56:15Z</time>
      </trkpt>
      <trkpt lat="40.813571" lon="-3.954126">
        <ele>1803.994</ele>
        <time>2021-07-29T11:56:17Z</time>
      </trkpt>
      <trkpt lat="40.813565" lon="-3.954102">
        <ele>1804.773</ele>
        <time>2021-07-29T11:56:18Z</time>
      </trkpt>
      <trkpt lat="40.813549" lon="-3.954084">
        <ele>1805.986</ele>
        <time>2021-07-29T11:56:19Z</time>
      </trkpt>
      <trkpt lat="40.813555" lon="-3.954048">
        <ele>1806.560</ele>
        <time>2021-07-29T11:56:22Z</time>
      </trkpt>
      <trkpt lat="40.813565" lon="-3.954022">
        <ele>1806.726</ele>
        <time>2021-07-29T11:56:24Z</time>
      </trkpt>
      <trkpt lat="40.813587" lon="-3.954002">
        <ele>1806.208</ele>
        <time>2021-07-29T11:56:26Z</time>
      </trkpt>
      <trkpt lat="40.813590" lon="-3.953960">
        <ele>1807.195</ele>
        <time>2021-07-29T11:56:28Z</time>
      </trkpt>
      <trkpt lat="40.813603" lon="-3.953925">
        <ele>1807.467</ele>
        <time>2021-07-29T11:56:31Z</time>
      </trkpt>
      <trkpt lat="40.813626" lon="-3.953903">
        <ele>1807.064</ele>
        <time>2021-07-29T11:56:33Z</time>
      </trkpt>
      <trkpt lat="40.813632" lon="-3.953878">
        <ele>1807.251</ele>
        <time>2021-07-29T11:56:35Z</time>
      </trkpt>
      <trkpt lat="40.813613" lon="-3.953848">
        <ele>1808.532</ele>
        <time>2021-07-29T11:56:37Z</time>
      </trkpt>
      <trkpt lat="40.813610" lon="-3.953822">
        <ele>1809.082</ele>
        <time>2021-07-29T11:56:39Z</time>
      </trkpt>
      <trkpt lat="40.813594" lon="-3.953805">
        <ele>1809.945</ele>
        <time>2021-07-29T11:56:40Z</time>
      </trkpt>
      <trkpt lat="40.813603" lon="-3.953778">
        <ele>1809.934</ele>
        <time>2021-07-29T11:56:44Z</time>
      </trkpt>
      <trkpt lat="40.813610" lon="-3.953750">
        <ele>1810.074</ele>
        <time>2021-07-29T11:56:46Z</time>
      </trkpt>
      <trkpt lat="40.813613" lon="-3.953717">
        <ele>1810.456</ele>
        <time>2021-07-29T11:56:49Z</time>
      </trkpt>
      <trkpt lat="40.813610" lon="-3.953693">
        <ele>1810.921</ele>
        <time>2021-07-29T11:56:52Z</time>
      </trkpt>
      <trkpt lat="40.813603" lon="-3.953663">
        <ele>1811.608</ele>
        <time>2021-07-29T11:56:56Z</time>
      </trkpt>
      <trkpt lat="40.813584" lon="-3.953650">
        <ele>1812.534</ele>
        <time>2021-07-29T11:56:58Z</time>
      </trkpt>
      <trkpt lat="40.813581" lon="-3.953615">
        <ele>1813.186</ele>
        <time>2021-07-29T11:57:01Z</time>
      </trkpt>
      <trkpt lat="40.813574" lon="-3.953588">
        <ele>1813.613</ele>
        <time>2021-07-29T11:57:05Z</time>
      </trkpt>
      <trkpt lat="40.813581" lon="-3.953555">
        <ele>1813.670</ele>
        <time>2021-07-29T11:57:08Z</time>
      </trkpt>
      <trkpt lat="40.813587" lon="-3.953532">
        <ele>1813.561</ele>
        <time>2021-07-29T11:57:10Z</time>
      </trkpt>
      <trkpt lat="40.813590" lon="-3.953507">
        <ele>1813.641</ele>
        <time>2021-07-29T11:57:12Z</time>
      </trkpt>
      <trkpt lat="40.813594" lon="-3.953483">
        <ele>1813.644</ele>
        <time>2021-07-29T11:57:14Z</time>
      </trkpt>
      <trkpt lat="40.813610" lon="-3.953450">
        <ele>1813.243</ele>
        <time>2021-07-29T11:57:17Z</time>
      </trkpt>
      <trkpt lat="40.813626" lon="-3.953423">
        <ele>1812.756</ele>
        <time>2021-07-29T11:57:19Z</time>
      </trkpt>
      <trkpt lat="40.813632" lon="-3.953390">
        <ele>1812.759</ele>
        <time>2021-07-29T11:57:21Z</time>
      </trkpt>
      <trkpt lat="40.813635" lon="-3.953347">
        <ele>1812.914</ele>
        <time>2021-07-29T11:57:23Z</time>
      </trkpt>
      <trkpt lat="40.813632" lon="-3.953302">
        <ele>1813.408</ele>
        <time>2021-07-29T11:57:25Z</time>
      </trkpt>
      <trkpt lat="40.813635" lon="-3.953268">
        <ele>1813.792</ele>
        <time>2021-07-29T11:57:27Z</time>
      </trkpt>
      <trkpt lat="40.813635" lon="-3.953236">
        <ele>1814.084</ele>
        <time>2021-07-29T11:57:29Z</time>
      </trkpt>
      <trkpt lat="40.813642" lon="-3.953202">
        <ele>1814.121</ele>
        <time>2021-07-29T11:57:31Z</time>
      </trkpt>
      <trkpt lat="40.813626" lon="-3.953178">
        <ele>1815.028</ele>
        <time>2021-07-29T11:57:33Z</time>
      </trkpt>
      <trkpt lat="40.813613" lon="-3.953147">
        <ele>1815.979</ele>
        <time>2021-07-29T11:57:35Z</time>
      </trkpt>
      <trkpt lat="40.813613" lon="-3.953113">
        <ele>1816.359</ele>
        <time>2021-07-29T11:57:37Z</time>
      </trkpt>
      <trkpt lat="40.813626" lon="-3.953080">
        <ele>1816.172</ele>
        <time>2021-07-29T11:57:39Z</time>
      </trkpt>
      <trkpt lat="40.813626" lon="-3.953052">
        <ele>1816.471</ele>
        <time>2021-07-29T11:57:42Z</time>
      </trkpt>
      <trkpt lat="40.813629" lon="-3.953024">
        <ele>1816.462</ele>
        <time>2021-07-29T11:57:44Z</time>
      </trkpt>
      <trkpt lat="40.813626" lon="-3.952993">
        <ele>1816.883</ele>
        <time>2021-07-29T11:57:46Z</time>
      </trkpt>
      <trkpt lat="40.813613" lon="-3.952962">
        <ele>1817.611</ele>
        <time>2021-07-29T11:57:48Z</time>
      </trkpt>
      <trkpt lat="40.813610" lon="-3.952932">
        <ele>1817.908</ele>
        <time>2021-07-29T11:57:50Z</time>
      </trkpt>
      <trkpt lat="40.813590" lon="-3.952905">
        <ele>1819.033</ele>
        <time>2021-07-29T11:57:52Z</time>
      </trkpt>
      <trkpt lat="40.813584" lon="-3.952880">
        <ele>1819.485</ele>
        <time>2021-07-29T11:57:54Z</time>
      </trkpt>
      <trkpt lat="40.813574" lon="-3.952852">
        <ele>1820.092</ele>
        <time>2021-07-29T11:57:56Z</time>
      </trkpt>
      <trkpt lat="40.813568" lon="-3.952825">
        <ele>1820.419</ele>
        <time>2021-07-29T11:57:58Z</time>
      </trkpt>
      <trkpt lat="40.813565" lon="-3.952792">
        <ele>1820.760</ele>
        <time>2021-07-29T11:58:00Z</time>
      </trkpt>
      <trkpt lat="40.813565" lon="-3.952767">
        <ele>1820.990</ele>
        <time>2021-07-29T11:58:02Z</time>
      </trkpt>
      <trkpt lat="40.813581" lon="-3.952748">
        <ele>1820.363</ele>
        <time>2021-07-29T11:58:04Z</time>
      </trkpt>
      <trkpt lat="40.813603" lon="-3.952723">
        <ele>1819.552</ele>
        <time>2021-07-29T11:58:07Z</time>
      </trkpt>
      <trkpt lat="40.813600" lon="-3.952688">
        <ele>1819.872</ele>
        <time>2021-07-29T11:58:09Z</time>
      </trkpt>
      <trkpt lat="40.813584" lon="-3.952675">
        <ele>1820.413</ele>
        <time>2021-07-29T11:58:10Z</time>
      </trkpt>
      <trkpt lat="40.813574" lon="-3.952654">
        <ele>1820.914</ele>
        <time>2021-07-29T11:58:12Z</time>
      </trkpt>
      <trkpt lat="40.813571" lon="-3.952628">
        <ele>1821.008</ele>
        <time>2021-07-29T11:58:16Z</time>
      </trkpt>
      <trkpt lat="40.813584" lon="-3.952612">
        <ele>1820.654</ele>
        <time>2021-07-29T11:58:18Z</time>
      </trkpt>
      <trkpt lat="40.813565" lon="-3.952595">
        <ele>1821.436</ele>
        <time>2021-07-29T11:58:20Z</time>
      </trkpt>
      <trkpt lat="40.813555" lon="-3.952567">
        <ele>1821.843</ele>
        <time>2021-07-29T11:58:23Z</time>
      </trkpt>
      <trkpt lat="40.813549" lon="-3.952543">
        <ele>1822.110</ele>
        <time>2021-07-29T11:58:26Z</time>
      </trkpt>
      <trkpt lat="40.813533" lon="-3.952508">
        <ele>1822.821</ele>
        <time>2021-07-29T11:58:29Z</time>
      </trkpt>
      <trkpt lat="40.813530" lon="-3.952482">
        <ele>1822.981</ele>
        <time>2021-07-29T11:58:32Z</time>
      </trkpt>
      <trkpt lat="40.813520" lon="-3.952457">
        <ele>1823.234</ele>
        <time>2021-07-29T11:58:35Z</time>
      </trkpt>
      <trkpt lat="40.813507" lon="-3.952427">
        <ele>1823.793</ele>
        <time>2021-07-29T11:58:37Z</time>
      </trkpt>
      <trkpt lat="40.813488" lon="-3.952415">
        <ele>1824.377</ele>
        <time>2021-07-29T11:58:40Z</time>
      </trkpt>
      <trkpt lat="40.813475" lon="-3.952387">
        <ele>1824.761</ele>
        <time>2021-07-29T11:58:43Z</time>
      </trkpt>
      <trkpt lat="40.813469" lon="-3.952363">
        <ele>1824.927</ele>
        <time>2021-07-29T11:58:45Z</time>
      </trkpt>
      <trkpt lat="40.813466" lon="-3.952334">
        <ele>1824.908</ele>
        <time>2021-07-29T11:58:47Z</time>
      </trkpt>
      <trkpt lat="40.813456" lon="-3.952297">
        <ele>1825.294</ele>
        <time>2021-07-29T11:58:50Z</time>
      </trkpt>
      <trkpt lat="40.813443" lon="-3.952272">
        <ele>1825.616</ele>
        <time>2021-07-29T11:58:52Z</time>
      </trkpt>
      <trkpt lat="40.813424" lon="-3.952247">
        <ele>1826.143</ele>
        <time>2021-07-29T11:58:54Z</time>
      </trkpt>
      <trkpt lat="40.813408" lon="-3.952217">
        <ele>1826.680</ele>
        <time>2021-07-29T11:58:56Z</time>
      </trkpt>
      <trkpt lat="40.813392" lon="-3.952182">
        <ele>1826.961</ele>
        <time>2021-07-29T11:58:59Z</time>
      </trkpt>
      <trkpt lat="40.813386" lon="-3.952158">
        <ele>1826.971</ele>
        <time>2021-07-29T11:59:01Z</time>
      </trkpt>
      <trkpt lat="40.813373" lon="-3.952134">
        <ele>1827.234</ele>
        <time>2021-07-29T11:59:03Z</time>
      </trkpt>
      <trkpt lat="40.813370" lon="-3.952108">
        <ele>1827.173</ele>
        <time>2021-07-29T11:59:05Z</time>
      </trkpt>
      <trkpt lat="40.813370" lon="-3.952077">
        <ele>1826.933</ele>
        <time>2021-07-29T11:59:07Z</time>
      </trkpt>
      <trkpt lat="40.813357" lon="-3.952047">
        <ele>1827.123</ele>
        <time>2021-07-29T11:59:09Z</time>
      </trkpt>
      <trkpt lat="40.813354" lon="-3.952016">
        <ele>1827.015</ele>
        <time>2021-07-29T11:59:11Z</time>
      </trkpt>
      <trkpt lat="40.813347" lon="-3.951990">
        <ele>1827.008</ele>
        <time>2021-07-29T11:59:13Z</time>
      </trkpt>
      <trkpt lat="40.813347" lon="-3.951960">
        <ele>1826.880</ele>
        <time>2021-07-29T11:59:15Z</time>
      </trkpt>
      <trkpt lat="40.813341" lon="-3.951930">
        <ele>1826.682</ele>
        <time>2021-07-29T11:59:18Z</time>
      </trkpt>
      <trkpt lat="40.813322" lon="-3.951917">
        <ele>1826.699</ele>
        <time>2021-07-29T11:59:46Z</time>
      </trkpt>
      <trkpt lat="40.813306" lon="-3.951903">
        <ele>1826.426</ele>
        <time>2021-07-29T11:59:47Z</time>
      </trkpt>
      <trkpt lat="40.813277" lon="-3.951883">
        <ele>1826.177</ele>
        <time>2021-07-29T11:59:49Z</time>
      </trkpt>
      <trkpt lat="40.813248" lon="-3.951862">
        <ele>1825.827</ele>
        <time>2021-07-29T11:59:51Z</time>
      </trkpt>
      <trkpt lat="40.813229" lon="-3.951845">
        <ele>1825.450</ele>
        <time>2021-07-29T11:59:52Z</time>
      </trkpt>
      <trkpt lat="40.813197" lon="-3.951836">
        <ele>1825.279</ele>
        <time>2021-07-29T11:59:54Z</time>
      </trkpt>
      <trkpt lat="40.813174" lon="-3.951835">
        <ele>1825.145</ele>
        <time>2021-07-29T11:59:56Z</time>
      </trkpt>
      <trkpt lat="40.813155" lon="-3.951848">
        <ele>1825.447</ele>
        <time>2021-07-29T11:59:58Z</time>
      </trkpt>
      <trkpt lat="40.813133" lon="-3.951863">
        <ele>1825.711</ele>
        <time>2021-07-29T12:00:01Z</time>
      </trkpt>
      <trkpt lat="40.813107" lon="-3.951862">
        <ele>1825.708</ele>
        <time>2021-07-29T12:00:03Z</time>
      </trkpt>
      <trkpt lat="40.813088" lon="-3.951872">
        <ele>1825.961</ele>
        <time>2021-07-29T12:00:05Z</time>
      </trkpt>
      <trkpt lat="40.813069" lon="-3.951878">
        <ele>1826.113</ele>
        <time>2021-07-29T12:00:07Z</time>
      </trkpt>
      <trkpt lat="40.813037" lon="-3.951875">
        <ele>1825.880</ele>
        <time>2021-07-29T12:00:09Z</time>
      </trkpt>
      <trkpt lat="40.813014" lon="-3.951872">
        <ele>1825.537</ele>
        <time>2021-07-29T12:00:11Z</time>
      </trkpt>
      <trkpt lat="40.812995" lon="-3.951873">
        <ele>1825.498</ele>
        <time>2021-07-29T12:00:14Z</time>
      </trkpt>
      <trkpt lat="40.812976" lon="-3.951877">
        <ele>1825.378</ele>
        <time>2021-07-29T12:00:18Z</time>
      </trkpt>
      <trkpt lat="40.812957" lon="-3.951878">
        <ele>1825.251</ele>
        <time>2021-07-29T12:00:19Z</time>
      </trkpt>
      <trkpt lat="40.812928" lon="-3.951878">
        <ele>1824.920</ele>
        <time>2021-07-29T12:00:21Z</time>
      </trkpt>
      <trkpt lat="40.812909" lon="-3.951872">
        <ele>1824.652</ele>
        <time>2021-07-29T12:00:22Z</time>
      </trkpt>
      <trkpt lat="40.812890" lon="-3.951862">
        <ele>1824.153</ele>
        <time>2021-07-29T12:00:23Z</time>
      </trkpt>
      <trkpt lat="40.812861" lon="-3.951867">
        <ele>1824.008</ele>
        <time>2021-07-29T12:00:25Z</time>
      </trkpt>
      <trkpt lat="40.812845" lon="-3.951883">
        <ele>1824.408</ele>
        <time>2021-07-29T12:00:27Z</time>
      </trkpt>
      <trkpt lat="40.812826" lon="-3.951898">
        <ele>1824.752</ele>
        <time>2021-07-29T12:00:30Z</time>
      </trkpt>
      <trkpt lat="40.812810" lon="-3.951915">
        <ele>1825.294</ele>
        <time>2021-07-29T12:00:32Z</time>
      </trkpt>
      <trkpt lat="40.812790" lon="-3.951920">
        <ele>1825.241</ele>
        <time>2021-07-29T12:00:34Z</time>
      </trkpt>
      <trkpt lat="40.812765" lon="-3.951923">
        <ele>1825.128</ele>
        <time>2021-07-29T12:00:36Z</time>
      </trkpt>
      <trkpt lat="40.812736" lon="-3.951918">
        <ele>1824.669</ele>
        <time>2021-07-29T12:00:38Z</time>
      </trkpt>
      <trkpt lat="40.812714" lon="-3.951920">
        <ele>1824.469</ele>
        <time>2021-07-29T12:00:40Z</time>
      </trkpt>
      <trkpt lat="40.812694" lon="-3.951932">
        <ele>1824.672</ele>
        <time>2021-07-29T12:00:42Z</time>
      </trkpt>
      <trkpt lat="40.812659" lon="-3.951930">
        <ele>1824.271</ele>
        <time>2021-07-29T12:00:44Z</time>
      </trkpt>
      <trkpt lat="40.812634" lon="-3.951937">
        <ele>1824.299</ele>
        <time>2021-07-29T12:00:46Z</time>
      </trkpt>
      <trkpt lat="40.812611" lon="-3.951943">
        <ele>1824.107</ele>
        <time>2021-07-29T12:00:48Z</time>
      </trkpt>
      <trkpt lat="40.812589" lon="-3.951947">
        <ele>1824.127</ele>
        <time>2021-07-29T12:00:50Z</time>
      </trkpt>
      <trkpt lat="40.812566" lon="-3.951947">
        <ele>1823.808</ele>
        <time>2021-07-29T12:00:52Z</time>
      </trkpt>
      <trkpt lat="40.812541" lon="-3.951952">
        <ele>1823.766</ele>
        <time>2021-07-29T12:00:54Z</time>
      </trkpt>
      <trkpt lat="40.812522" lon="-3.951952">
        <ele>1823.518</ele>
        <time>2021-07-29T12:00:55Z</time>
      </trkpt>
      <trkpt lat="40.812502" lon="-3.951937">
        <ele>1822.735</ele>
        <time>2021-07-29T12:00:58Z</time>
      </trkpt>
      <trkpt lat="40.812490" lon="-3.951920">
        <ele>1821.922</ele>
        <time>2021-07-29T12:01:02Z</time>
      </trkpt>
      <trkpt lat="40.812461" lon="-3.951915">
        <ele>1821.333</ele>
        <time>2021-07-29T12:01:04Z</time>
      </trkpt>
      <trkpt lat="40.812442" lon="-3.951915">
        <ele>1821.093</ele>
        <time>2021-07-29T12:01:05Z</time>
      </trkpt>
      <trkpt lat="40.812419" lon="-3.951915">
        <ele>1820.716</ele>
        <time>2021-07-29T12:01:07Z</time>
      </trkpt>
      <trkpt lat="40.812397" lon="-3.951915">
        <ele>1820.415</ele>
        <time>2021-07-29T12:01:09Z</time>
      </trkpt>
      <trkpt lat="40.812371" lon="-3.951925">
        <ele>1820.412</ele>
        <time>2021-07-29T12:01:11Z</time>
      </trkpt>
      <trkpt lat="40.812349" lon="-3.951927">
        <ele>1820.232</ele>
        <time>2021-07-29T12:01:13Z</time>
      </trkpt>
      <trkpt lat="40.812330" lon="-3.951933">
        <ele>1820.105</ele>
        <time>2021-07-29T12:01:15Z</time>
      </trkpt>
      <trkpt lat="40.812301" lon="-3.951933">
        <ele>1819.708</ele>
        <time>2021-07-29T12:01:17Z</time>
      </trkpt>
      <trkpt lat="40.812275" lon="-3.951938">
        <ele>1819.528</ele>
        <time>2021-07-29T12:01:19Z</time>
      </trkpt>
      <trkpt lat="40.812253" lon="-3.951937">
        <ele>1819.210</ele>
        <time>2021-07-29T12:01:21Z</time>
      </trkpt>
      <trkpt lat="40.812230" lon="-3.951930">
        <ele>1818.687</ele>
        <time>2021-07-29T12:01:23Z</time>
      </trkpt>
      <trkpt lat="40.812205" lon="-3.951938">
        <ele>1818.624</ele>
        <time>2021-07-29T12:01:26Z</time>
      </trkpt>
      <trkpt lat="40.812182" lon="-3.951947">
        <ele>1818.715</ele>
        <time>2021-07-29T12:01:29Z</time>
      </trkpt>
      <trkpt lat="40.812157" lon="-3.951950">
        <ele>1818.575</ele>
        <time>2021-07-29T12:01:31Z</time>
      </trkpt>
      <trkpt lat="40.812134" lon="-3.951955">
        <ele>1818.538</ele>
        <time>2021-07-29T12:01:32Z</time>
      </trkpt>
      <trkpt lat="40.812118" lon="-3.951975">
        <ele>1819.287</ele>
        <time>2021-07-29T12:01:34Z</time>
      </trkpt>
      <trkpt lat="40.812096" lon="-3.951990">
        <ele>1819.767</ele>
        <time>2021-07-29T12:01:36Z</time>
      </trkpt>
      <trkpt lat="40.812074" lon="-3.951984">
        <ele>1819.281</ele>
        <time>2021-07-29T12:01:38Z</time>
      </trkpt>
      <trkpt lat="40.812054" lon="-3.951978">
        <ele>1818.719</ele>
        <time>2021-07-29T12:01:40Z</time>
      </trkpt>
      <trkpt lat="40.812032" lon="-3.951975">
        <ele>1818.308</ele>
        <time>2021-07-29T12:01:42Z</time>
      </trkpt>
      <trkpt lat="40.812006" lon="-3.951982">
        <ele>1818.443</ele>
        <time>2021-07-29T12:01:44Z</time>
      </trkpt>
      <trkpt lat="40.811984" lon="-3.951984">
        <ele>1818.395</ele>
        <time>2021-07-29T12:01:46Z</time>
      </trkpt>
      <trkpt lat="40.811965" lon="-3.951992">
        <ele>1818.452</ele>
        <time>2021-07-29T12:01:48Z</time>
      </trkpt>
      <trkpt lat="40.811939" lon="-3.951997">
        <ele>1818.439</ele>
        <time>2021-07-29T12:01:50Z</time>
      </trkpt>
      <trkpt lat="40.811917" lon="-3.951998">
        <ele>1818.360</ele>
        <time>2021-07-29T12:01:52Z</time>
      </trkpt>
      <trkpt lat="40.811898" lon="-3.952004">
        <ele>1818.430</ele>
        <time>2021-07-29T12:01:54Z</time>
      </trkpt>
      <trkpt lat="40.811878" lon="-3.952006">
        <ele>1818.313</ele>
        <time>2021-07-29T12:01:56Z</time>
      </trkpt>
      <trkpt lat="40.811859" lon="-3.952008">
        <ele>1818.272</ele>
        <time>2021-07-29T12:01:58Z</time>
      </trkpt>
      <trkpt lat="40.811837" lon="-3.952010">
        <ele>1818.193</ele>
        <time>2021-07-29T12:02:00Z</time>
      </trkpt>
      <trkpt lat="40.811818" lon="-3.952018">
        <ele>1818.365</ele>
        <time>2021-07-29T12:02:02Z</time>
      </trkpt>
      <trkpt lat="40.811792" lon="-3.952016">
        <ele>1818.021</ele>
        <time>2021-07-29T12:02:04Z</time>
      </trkpt>
      <trkpt lat="40.811766" lon="-3.952008">
        <ele>1817.408</ele>
        <time>2021-07-29T12:02:06Z</time>
      </trkpt>
      <trkpt lat="40.811741" lon="-3.952008">
        <ele>1817.286</ele>
        <time>2021-07-29T12:02:08Z</time>
      </trkpt>
      <trkpt lat="40.811715" lon="-3.952020">
        <ele>1817.448</ele>
        <time>2021-07-29T12:02:11Z</time>
      </trkpt>
      <trkpt lat="40.811693" lon="-3.952020">
        <ele>1817.225</ele>
        <time>2021-07-29T12:02:13Z</time>
      </trkpt>
      <trkpt lat="40.811667" lon="-3.952020">
        <ele>1817.042</ele>
        <time>2021-07-29T12:02:15Z</time>
      </trkpt>
      <trkpt lat="40.811642" lon="-3.952012">
        <ele>1816.773</ele>
        <time>2021-07-29T12:02:17Z</time>
      </trkpt>
      <trkpt lat="40.811616" lon="-3.952015">
        <ele>1816.733</ele>
        <time>2021-07-29T12:02:19Z</time>
      </trkpt>
      <trkpt lat="40.811587" lon="-3.952008">
        <ele>1816.566</ele>
        <time>2021-07-29T12:02:21Z</time>
      </trkpt>
      <trkpt lat="40.811562" lon="-3.951997">
        <ele>1816.035</ele>
        <time>2021-07-29T12:02:23Z</time>
      </trkpt>
      <trkpt lat="40.811542" lon="-3.952005">
        <ele>1816.393</ele>
        <time>2021-07-29T12:02:26Z</time>
      </trkpt>
      <trkpt lat="40.811520" lon="-3.952005">
        <ele>1816.365</ele>
        <time>2021-07-29T12:02:28Z</time>
      </trkpt>
      <trkpt lat="40.811498" lon="-3.952012">
        <ele>1816.521</ele>
        <time>2021-07-29T12:02:30Z</time>
      </trkpt>
      <trkpt lat="40.811478" lon="-3.952005">
        <ele>1816.208</ele>
        <time>2021-07-29T12:02:32Z</time>
      </trkpt>
      <trkpt lat="40.811459" lon="-3.952002">
        <ele>1816.146</ele>
        <time>2021-07-29T12:02:33Z</time>
      </trkpt>
      <trkpt lat="40.811427" lon="-3.951992">
        <ele>1815.798</ele>
        <time>2021-07-29T12:02:35Z</time>
      </trkpt>
      <trkpt lat="40.811414" lon="-3.951975">
        <ele>1815.135</ele>
        <time>2021-07-29T12:02:37Z</time>
      </trkpt>
      <trkpt lat="40.811389" lon="-3.951972">
        <ele>1815.032</ele>
        <time>2021-07-29T12:02:39Z</time>
      </trkpt>
      <trkpt lat="40.811370" lon="-3.951965">
        <ele>1814.913</ele>
        <time>2021-07-29T12:02:41Z</time>
      </trkpt>
      <trkpt lat="40.811360" lon="-3.951942">
        <ele>1814.143</ele>
        <time>2021-07-29T12:02:45Z</time>
      </trkpt>
      <trkpt lat="40.811338" lon="-3.951932">
        <ele>1813.976</ele>
        <time>2021-07-29T12:02:47Z</time>
      </trkpt>
      <trkpt lat="40.811325" lon="-3.951957">
        <ele>1814.935</ele>
        <time>2021-07-29T12:02:49Z</time>
      </trkpt>
      <trkpt lat="40.811302" lon="-3.951954">
        <ele>1815.087</ele>
        <time>2021-07-29T12:02:51Z</time>
      </trkpt>
      <trkpt lat="40.811286" lon="-3.951940">
        <ele>1814.642</ele>
        <time>2021-07-29T12:02:53Z</time>
      </trkpt>
      <trkpt lat="40.811264" lon="-3.951935">
        <ele>1814.526</ele>
        <time>2021-07-29T12:02:54Z</time>
      </trkpt>
      <trkpt lat="40.811248" lon="-3.951922">
        <ele>1814.208</ele>
        <time>2021-07-29T12:02:55Z</time>
      </trkpt>
      <trkpt lat="40.811232" lon="-3.951907">
        <ele>1813.795</ele>
        <time>2021-07-29T12:02:56Z</time>
      </trkpt>
      <trkpt lat="40.811222" lon="-3.951885">
        <ele>1813.097</ele>
        <time>2021-07-29T12:02:58Z</time>
      </trkpt>
      <trkpt lat="40.811200" lon="-3.951870">
        <ele>1812.624</ele>
        <time>2021-07-29T12:03:00Z</time>
      </trkpt>
      <trkpt lat="40.811171" lon="-3.951860">
        <ele>1812.571</ele>
        <time>2021-07-29T12:03:02Z</time>
      </trkpt>
      <trkpt lat="40.811149" lon="-3.951846">
        <ele>1812.182</ele>
        <time>2021-07-29T12:03:04Z</time>
      </trkpt>
      <trkpt lat="40.811130" lon="-3.951833">
        <ele>1811.872</ele>
        <time>2021-07-29T12:03:06Z</time>
      </trkpt>
      <trkpt lat="40.811110" lon="-3.951810">
        <ele>1811.215</ele>
        <time>2021-07-29T12:03:08Z</time>
      </trkpt>
      <trkpt lat="40.811085" lon="-3.951790">
        <ele>1810.834</ele>
        <time>2021-07-29T12:03:10Z</time>
      </trkpt>
      <trkpt lat="40.811059" lon="-3.951775">
        <ele>1810.695</ele>
        <time>2021-07-29T12:03:12Z</time>
      </trkpt>
      <trkpt lat="40.811034" lon="-3.951786">
        <ele>1811.349</ele>
        <time>2021-07-29T12:03:14Z</time>
      </trkpt>
      <trkpt lat="40.811008" lon="-3.951768">
        <ele>1811.023</ele>
        <time>2021-07-29T12:03:17Z</time>
      </trkpt>
      <trkpt lat="40.810989" lon="-3.951753">
        <ele>1810.708</ele>
        <time>2021-07-29T12:03:19Z</time>
      </trkpt>
      <trkpt lat="40.810954" lon="-3.951728">
        <ele>1810.336</ele>
        <time>2021-07-29T12:03:22Z</time>
      </trkpt>
      <trkpt lat="40.810922" lon="-3.951700">
        <ele>1809.878</ele>
        <time>2021-07-29T12:03:26Z</time>
      </trkpt>
      <trkpt lat="40.810890" lon="-3.951700">
        <ele>1810.325</ele>
        <time>2021-07-29T12:03:28Z</time>
      </trkpt>
      <trkpt lat="40.810870" lon="-3.951685">
        <ele>1810.192</ele>
        <time>2021-07-29T12:03:30Z</time>
      </trkpt>
      <trkpt lat="40.810845" lon="-3.951682">
        <ele>1810.323</ele>
        <time>2021-07-29T12:03:33Z</time>
      </trkpt>
      <trkpt lat="40.810826" lon="-3.951673">
        <ele>1810.343</ele>
        <time>2021-07-29T12:03:35Z</time>
      </trkpt>
      <trkpt lat="40.810806" lon="-3.951678">
        <ele>1810.746</ele>
        <time>2021-07-29T12:03:37Z</time>
      </trkpt>
      <trkpt lat="40.810774" lon="-3.951683">
        <ele>1811.225</ele>
        <time>2021-07-29T12:03:39Z</time>
      </trkpt>
      <trkpt lat="40.810752" lon="-3.951683">
        <ele>1811.451</ele>
        <time>2021-07-29T12:03:41Z</time>
      </trkpt>
      <trkpt lat="40.810730" lon="-3.951685">
        <ele>1811.701</ele>
        <time>2021-07-29T12:03:43Z</time>
      </trkpt>
      <trkpt lat="40.810707" lon="-3.951693">
        <ele>1812.311</ele>
        <time>2021-07-29T12:03:45Z</time>
      </trkpt>
      <trkpt lat="40.810682" lon="-3.951703">
        <ele>1812.908</ele>
        <time>2021-07-29T12:03:48Z</time>
      </trkpt>
      <trkpt lat="40.810656" lon="-3.951693">
        <ele>1812.882</ele>
        <time>2021-07-29T12:03:50Z</time>
      </trkpt>
      <trkpt lat="40.810621" lon="-3.951698">
        <ele>1813.424</ele>
        <time>2021-07-29T12:03:53Z</time>
      </trkpt>
      <trkpt lat="40.810595" lon="-3.951717">
        <ele>1814.431</ele>
        <time>2021-07-29T12:03:55Z</time>
      </trkpt>
      <trkpt lat="40.810576" lon="-3.951703">
        <ele>1814.198</ele>
        <time>2021-07-29T12:03:57Z</time>
      </trkpt>
      <trkpt lat="40.810544" lon="-3.951688">
        <ele>1813.999</ele>
        <time>2021-07-29T12:04:00Z</time>
      </trkpt>
      <trkpt lat="40.810522" lon="-3.951708">
        <ele>1814.859</ele>
        <time>2021-07-29T12:04:03Z</time>
      </trkpt>
      <trkpt lat="40.810512" lon="-3.951733">
        <ele>1815.972</ele>
        <time>2021-07-29T12:04:05Z</time>
      </trkpt>
      <trkpt lat="40.810493" lon="-3.951745">
        <ele>1816.521</ele>
        <time>2021-07-29T12:04:07Z</time>
      </trkpt>
      <trkpt lat="40.810477" lon="-3.951728">
        <ele>1816.189</ele>
        <time>2021-07-29T12:04:09Z</time>
      </trkpt>
      <trkpt lat="40.810451" lon="-3.951735">
        <ele>1816.606</ele>
        <time>2021-07-29T12:04:11Z</time>
      </trkpt>
      <trkpt lat="40.810429" lon="-3.951710">
        <ele>1815.926</ele>
        <time>2021-07-29T12:04:13Z</time>
      </trkpt>
      <trkpt lat="40.810406" lon="-3.951705">
        <ele>1816.008</ele>
        <time>2021-07-29T12:04:16Z</time>
      </trkpt>
      <trkpt lat="40.810378" lon="-3.951700">
        <ele>1816.175</ele>
        <time>2021-07-29T12:04:19Z</time>
      </trkpt>
      <trkpt lat="40.810358" lon="-3.951690">
        <ele>1816.077</ele>
        <time>2021-07-29T12:04:21Z</time>
      </trkpt>
      <trkpt lat="40.810336" lon="-3.951683">
        <ele>1816.074</ele>
        <time>2021-07-29T12:04:23Z</time>
      </trkpt>
      <trkpt lat="40.810317" lon="-3.951678">
        <ele>1816.041</ele>
        <time>2021-07-29T12:04:26Z</time>
      </trkpt>
      <trkpt lat="40.810291" lon="-3.951685">
        <ele>1816.512</ele>
        <time>2021-07-29T12:04:29Z</time>
      </trkpt>
      <trkpt lat="40.810278" lon="-3.951707">
        <ele>1817.522</ele>
        <time>2021-07-29T12:04:32Z</time>
      </trkpt>
      <trkpt lat="40.810256" lon="-3.951693">
        <ele>1817.235</ele>
        <time>2021-07-29T12:04:34Z</time>
      </trkpt>
      <trkpt lat="40.810234" lon="-3.951683">
        <ele>1817.134</ele>
        <time>2021-07-29T12:04:36Z</time>
      </trkpt>
      <trkpt lat="40.810214" lon="-3.951662">
        <ele>1816.566</ele>
        <time>2021-07-29T12:04:38Z</time>
      </trkpt>
      <trkpt lat="40.810195" lon="-3.951647">
        <ele>1816.129</ele>
        <time>2021-07-29T12:04:40Z</time>
      </trkpt>
      <trkpt lat="40.810179" lon="-3.951630">
        <ele>1815.721</ele>
        <time>2021-07-29T12:04:42Z</time>
      </trkpt>
      <trkpt lat="40.810160" lon="-3.951624">
        <ele>1815.608</ele>
        <time>2021-07-29T12:04:43Z</time>
      </trkpt>
      <trkpt lat="40.810134" lon="-3.951620">
        <ele>1815.853</ele>
        <time>2021-07-29T12:04:45Z</time>
      </trkpt>
      <trkpt lat="40.810112" lon="-3.951610">
        <ele>1815.725</ele>
        <time>2021-07-29T12:04:47Z</time>
      </trkpt>
      <trkpt lat="40.810093" lon="-3.951605">
        <ele>1815.752</ele>
        <time>2021-07-29T12:04:50Z</time>
      </trkpt>
      <trkpt lat="40.810070" lon="-3.951585">
        <ele>1815.219</ele>
        <time>2021-07-29T12:04:52Z</time>
      </trkpt>
      <trkpt lat="40.810048" lon="-3.951580">
        <ele>1815.330</ele>
        <time>2021-07-29T12:04:54Z</time>
      </trkpt>
      <trkpt lat="40.810029" lon="-3.951572">
        <ele>1815.250</ele>
        <time>2021-07-29T12:04:56Z</time>
      </trkpt>
      <trkpt lat="40.810010" lon="-3.951543">
        <ele>1814.453</ele>
        <time>2021-07-29T12:04:58Z</time>
      </trkpt>
      <trkpt lat="40.809990" lon="-3.951522">
        <ele>1813.942</ele>
        <time>2021-07-29T12:05:00Z</time>
      </trkpt>
      <trkpt lat="40.809965" lon="-3.951502">
        <ele>1813.694</ele>
        <time>2021-07-29T12:05:02Z</time>
      </trkpt>
      <trkpt lat="40.809939" lon="-3.951508">
        <ele>1814.257</ele>
        <time>2021-07-29T12:05:03Z</time>
      </trkpt>
      <trkpt lat="40.809920" lon="-3.951512">
        <ele>1814.622</ele>
        <time>2021-07-29T12:05:04Z</time>
      </trkpt>
      <trkpt lat="40.809894" lon="-3.951507">
        <ele>1814.808</ele>
        <time>2021-07-29T12:05:06Z</time>
      </trkpt>
      <trkpt lat="40.809875" lon="-3.951502">
        <ele>1814.986</ele>
        <time>2021-07-29T12:05:08Z</time>
      </trkpt>
      <trkpt lat="40.809856" lon="-3.951493">
        <ele>1814.888</ele>
        <time>2021-07-29T12:05:10Z</time>
      </trkpt>
      <trkpt lat="40.809837" lon="-3.951498">
        <ele>1815.355</ele>
        <time>2021-07-29T12:05:15Z</time>
      </trkpt>
      <trkpt lat="40.809818" lon="-3.951500">
        <ele>1815.652</ele>
        <time>2021-07-29T12:05:17Z</time>
      </trkpt>
      <trkpt lat="40.809795" lon="-3.951503">
        <ele>1816.143</ele>
        <time>2021-07-29T12:05:20Z</time>
      </trkpt>
      <trkpt lat="40.809773" lon="-3.951515">
        <ele>1816.873</ele>
        <time>2021-07-29T12:05:22Z</time>
      </trkpt>
      <trkpt lat="40.809754" lon="-3.951533">
        <ele>1817.746</ele>
        <time>2021-07-29T12:05:24Z</time>
      </trkpt>
      <trkpt lat="40.809731" lon="-3.951540">
        <ele>1818.345</ele>
        <time>2021-07-29T12:05:26Z</time>
      </trkpt>
      <trkpt lat="40.809712" lon="-3.951542">
        <ele>1818.534</ele>
        <time>2021-07-29T12:05:28Z</time>
      </trkpt>
      <trkpt lat="40.809693" lon="-3.951543">
        <ele>1818.555</ele>
        <time>2021-07-29T12:05:30Z</time>
      </trkpt>
      <trkpt lat="40.809674" lon="-3.951553">
        <ele>1818.810</ele>
        <time>2021-07-29T12:05:32Z</time>
      </trkpt>
      <trkpt lat="40.809654" lon="-3.951558">
        <ele>1819.008</ele>
        <time>2021-07-29T12:05:34Z</time>
      </trkpt>
      <trkpt lat="40.809622" lon="-3.951560">
        <ele>1819.080</ele>
        <time>2021-07-29T12:05:36Z</time>
      </trkpt>
      <trkpt lat="40.809597" lon="-3.951553">
        <ele>1818.752</ele>
        <time>2021-07-29T12:05:38Z</time>
      </trkpt>
      <trkpt lat="40.809578" lon="-3.951557">
        <ele>1818.869</ele>
        <time>2021-07-29T12:05:40Z</time>
      </trkpt>
      <trkpt lat="40.809555" lon="-3.951552">
        <ele>1818.696</ele>
        <time>2021-07-29T12:05:42Z</time>
      </trkpt>
      <trkpt lat="40.809536" lon="-3.951537">
        <ele>1818.077</ele>
        <time>2021-07-29T12:05:44Z</time>
      </trkpt>
      <trkpt lat="40.809517" lon="-3.951537">
        <ele>1818.027</ele>
        <time>2021-07-29T12:05:46Z</time>
      </trkpt>
      <trkpt lat="40.809494" lon="-3.951538">
        <ele>1818.050</ele>
        <time>2021-07-29T12:05:49Z</time>
      </trkpt>
      <trkpt lat="40.809472" lon="-3.951535">
        <ele>1817.859</ele>
        <time>2021-07-29T12:05:51Z</time>
      </trkpt>
      <trkpt lat="40.809450" lon="-3.951530">
        <ele>1817.648</ele>
        <time>2021-07-29T12:05:53Z</time>
      </trkpt>
      <trkpt lat="40.809421" lon="-3.951532">
        <ele>1817.561</ele>
        <time>2021-07-29T12:05:55Z</time>
      </trkpt>
      <trkpt lat="40.809402" lon="-3.951562">
        <ele>1818.517</ele>
        <time>2021-07-29T12:05:58Z</time>
      </trkpt>
      <trkpt lat="40.809382" lon="-3.951587">
        <ele>1819.208</ele>
        <time>2021-07-29T12:06:00Z</time>
      </trkpt>
      <trkpt lat="40.809373" lon="-3.951612">
        <ele>1820.121</ele>
        <time>2021-07-29T12:06:01Z</time>
      </trkpt>
      <trkpt lat="40.809341" lon="-3.951604">
        <ele>1819.583</ele>
        <time>2021-07-29T12:06:03Z</time>
      </trkpt>
      <trkpt lat="40.809318" lon="-3.951615">
        <ele>1819.770</ele>
        <time>2021-07-29T12:06:05Z</time>
      </trkpt>
      <trkpt lat="40.809299" lon="-3.951630">
        <ele>1820.017</ele>
        <time>2021-07-29T12:06:07Z</time>
      </trkpt>
      <trkpt lat="40.809277" lon="-3.951627">
        <ele>1819.778</ele>
        <time>2021-07-29T12:06:10Z</time>
      </trkpt>
      <trkpt lat="40.809274" lon="-3.951655">
        <ele>1820.738</ele>
        <time>2021-07-29T12:06:12Z</time>
      </trkpt>
      <trkpt lat="40.809254" lon="-3.951658">
        <ele>1820.661</ele>
        <time>2021-07-29T12:06:18Z</time>
      </trkpt>
      <trkpt lat="40.809235" lon="-3.951660">
        <ele>1820.530</ele>
        <time>2021-07-29T12:06:20Z</time>
      </trkpt>
      <trkpt lat="40.809216" lon="-3.951675">
        <ele>1820.992</ele>
        <time>2021-07-29T12:06:22Z</time>
      </trkpt>
      <trkpt lat="40.809203" lon="-3.951698">
        <ele>1821.773</ele>
        <time>2021-07-29T12:06:24Z</time>
      </trkpt>
      <trkpt lat="40.809184" lon="-3.951720">
        <ele>1822.520</ele>
        <time>2021-07-29T12:06:26Z</time>
      </trkpt>
      <trkpt lat="40.809158" lon="-3.951737">
        <ele>1823.008</ele>
        <time>2021-07-29T12:06:29Z</time>
      </trkpt>
      <trkpt lat="40.809133" lon="-3.951750">
        <ele>1823.636</ele>
        <time>2021-07-29T12:06:31Z</time>
      </trkpt>
      <trkpt lat="40.809104" lon="-3.951762">
        <ele>1824.068</ele>
        <time>2021-07-29T12:06:34Z</time>
      </trkpt>
      <trkpt lat="40.809085" lon="-3.951782">
        <ele>1824.975</ele>
        <time>2021-07-29T12:06:36Z</time>
      </trkpt>
      <trkpt lat="40.809072" lon="-3.951800">
        <ele>1825.692</ele>
        <time>2021-07-29T12:06:37Z</time>
      </trkpt>
      <trkpt lat="40.809053" lon="-3.951813">
        <ele>1826.193</ele>
        <time>2021-07-29T12:06:40Z</time>
      </trkpt>
      <trkpt lat="40.809040" lon="-3.951832">
        <ele>1826.943</ele>
        <time>2021-07-29T12:06:43Z</time>
      </trkpt>
      <trkpt lat="40.809027" lon="-3.951850">
        <ele>1827.666</ele>
        <time>2021-07-29T12:06:47Z</time>
      </trkpt>
      <trkpt lat="40.809014" lon="-3.951872">
        <ele>1828.535</ele>
        <time>2021-07-29T12:06:49Z</time>
      </trkpt>
      <trkpt lat="40.808992" lon="-3.951887">
        <ele>1829.017</ele>
        <time>2021-07-29T12:06:52Z</time>
      </trkpt>
      <trkpt lat="40.808976" lon="-3.951898">
        <ele>1829.487</ele>
        <time>2021-07-29T12:06:55Z</time>
      </trkpt>
      <trkpt lat="40.808954" lon="-3.951900">
        <ele>1829.415</ele>
        <time>2021-07-29T12:06:57Z</time>
      </trkpt>
      <trkpt lat="40.808934" lon="-3.951907">
        <ele>1829.708</ele>
        <time>2021-07-29T12:06:59Z</time>
      </trkpt>
      <trkpt lat="40.808915" lon="-3.951910">
        <ele>1829.748</ele>
        <time>2021-07-29T12:07:02Z</time>
      </trkpt>
      <trkpt lat="40.808909" lon="-3.951940">
        <ele>1830.940</ele>
        <time>2021-07-29T12:07:04Z</time>
      </trkpt>
      <trkpt lat="40.808899" lon="-3.951964">
        <ele>1831.887</ele>
        <time>2021-07-29T12:07:06Z</time>
      </trkpt>
      <trkpt lat="40.808877" lon="-3.951975">
        <ele>1832.384</ele>
        <time>2021-07-29T12:07:09Z</time>
      </trkpt>
      <trkpt lat="40.808848" lon="-3.951987">
        <ele>1833.035</ele>
        <time>2021-07-29T12:07:13Z</time>
      </trkpt>
      <trkpt lat="40.808854" lon="-3.951964">
        <ele>1832.045</ele>
        <time>2021-07-29T12:07:15Z</time>
      </trkpt>
      <trkpt lat="40.808835" lon="-3.951954">
        <ele>1831.888</ele>
        <time>2021-07-29T12:07:17Z</time>
      </trkpt>
      <trkpt lat="40.808810" lon="-3.951948">
        <ele>1831.737</ele>
        <time>2021-07-29T12:07:20Z</time>
      </trkpt>
      <trkpt lat="40.808794" lon="-3.951967">
        <ele>1832.596</ele>
        <time>2021-07-29T12:07:23Z</time>
      </trkpt>
      <trkpt lat="40.808778" lon="-3.951985">
        <ele>1833.331</ele>
        <time>2021-07-29T12:07:25Z</time>
      </trkpt>
      <trkpt lat="40.808762" lon="-3.951998">
        <ele>1833.924</ele>
        <time>2021-07-29T12:07:26Z</time>
      </trkpt>
      <trkpt lat="40.808730" lon="-3.952013">
        <ele>1834.708</ele>
        <time>2021-07-29T12:07:29Z</time>
      </trkpt>
      <trkpt lat="40.808707" lon="-3.952020">
        <ele>1835.146</ele>
        <time>2021-07-29T12:07:32Z</time>
      </trkpt>
      <trkpt lat="40.808675" lon="-3.952018">
        <ele>1835.278</ele>
        <time>2021-07-29T12:07:37Z</time>
      </trkpt>
      <trkpt lat="40.808646" lon="-3.952006">
        <ele>1835.025</ele>
        <time>2021-07-29T12:07:39Z</time>
      </trkpt>
      <trkpt lat="40.808630" lon="-3.951982">
        <ele>1834.242</ele>
        <time>2021-07-29T12:07:41Z</time>
      </trkpt>
      <trkpt lat="40.808614" lon="-3.952002">
        <ele>1835.123</ele>
        <time>2021-07-29T12:07:45Z</time>
      </trkpt>
      <trkpt lat="40.808589" lon="-3.952015">
        <ele>1835.543</ele>
        <time>2021-07-29T12:07:48Z</time>
      </trkpt>
      <trkpt lat="40.808550" lon="-3.952010">
        <ele>1835.286</ele>
        <time>2021-07-29T12:07:50Z</time>
      </trkpt>
      <trkpt lat="40.808541" lon="-3.951985">
        <ele>1834.365</ele>
        <time>2021-07-29T12:07:51Z</time>
      </trkpt>
      <trkpt lat="40.808506" lon="-3.951965">
        <ele>1833.713</ele>
        <time>2021-07-29T12:07:53Z</time>
      </trkpt>
      <trkpt lat="40.808483" lon="-3.951960">
        <ele>1833.543</ele>
        <time>2021-07-29T12:07:55Z</time>
      </trkpt>
      <trkpt lat="40.808477" lon="-3.951995">
        <ele>1834.607</ele>
        <time>2021-07-29T12:07:58Z</time>
      </trkpt>
      <trkpt lat="40.808445" lon="-3.952012">
        <ele>1835.008</ele>
        <time>2021-07-29T12:08:00Z</time>
      </trkpt>
      <trkpt lat="40.808432" lon="-3.952028">
        <ele>1835.418</ele>
        <time>2021-07-29T12:08:01Z</time>
      </trkpt>
      <trkpt lat="40.808403" lon="-3.952028">
        <ele>1835.380</ele>
        <time>2021-07-29T12:08:04Z</time>
      </trkpt>
      <trkpt lat="40.808378" lon="-3.952010">
        <ele>1834.867</ele>
        <time>2021-07-29T12:08:06Z</time>
      </trkpt>
      <trkpt lat="40.808352" lon="-3.952004">
        <ele>1834.594</ele>
        <time>2021-07-29T12:08:07Z</time>
      </trkpt>
      <trkpt lat="40.808333" lon="-3.951978">
        <ele>1833.835</ele>
        <time>2021-07-29T12:08:09Z</time>
      </trkpt>
      <trkpt lat="40.808310" lon="-3.951982">
        <ele>1833.635</ele>
        <time>2021-07-29T12:08:14Z</time>
      </trkpt>
      <trkpt lat="40.808285" lon="-3.951974">
        <ele>1833.048</ele>
        <time>2021-07-29T12:08:16Z</time>
      </trkpt>
      <trkpt lat="40.808259" lon="-3.951974">
        <ele>1832.797</ele>
        <time>2021-07-29T12:08:18Z</time>
      </trkpt>
      <trkpt lat="40.808230" lon="-3.951984">
        <ele>1832.554</ele>
        <time>2021-07-29T12:08:20Z</time>
      </trkpt>
      <trkpt lat="40.808208" lon="-3.951997">
        <ele>1832.556</ele>
        <time>2021-07-29T12:08:22Z</time>
      </trkpt>
      <trkpt lat="40.808192" lon="-3.952013">
        <ele>1832.711</ele>
        <time>2021-07-29T12:08:24Z</time>
      </trkpt>
      <trkpt lat="40.808173" lon="-3.952033">
        <ele>1832.908</ele>
        <time>2021-07-29T12:08:26Z</time>
      </trkpt>
      <trkpt lat="40.808160" lon="-3.952012">
        <ele>1832.212</ele>
        <time>2021-07-29T12:08:31Z</time>
      </trkpt>
      <trkpt lat="40.808166" lon="-3.951987">
        <ele>1831.734</ele>
        <time>2021-07-29T12:08:34Z</time>
      </trkpt>
      <trkpt lat="40.808144" lon="-3.951965">
        <ele>1830.861</ele>
        <time>2021-07-29T12:08:37Z</time>
      </trkpt>
      <trkpt lat="40.808128" lon="-3.951948">
        <ele>1830.188</ele>
        <time>2021-07-29T12:08:39Z</time>
      </trkpt>
      <trkpt lat="40.808106" lon="-3.951942">
        <ele>1829.779</ele>
        <time>2021-07-29T12:08:41Z</time>
      </trkpt>
      <trkpt lat="40.808083" lon="-3.951937">
        <ele>1829.269</ele>
        <time>2021-07-29T12:08:43Z</time>
      </trkpt>
      <trkpt lat="40.808051" lon="-3.951947">
        <ele>1829.032</ele>
        <time>2021-07-29T12:08:45Z</time>
      </trkpt>
      <trkpt lat="40.808029" lon="-3.951942">
        <ele>1828.431</ele>
        <time>2021-07-29T12:08:48Z</time>
      </trkpt>
      <trkpt lat="40.808010" lon="-3.951958">
        <ele>1828.336</ele>
        <time>2021-07-29T12:08:50Z</time>
      </trkpt>
      <trkpt lat="40.808006" lon="-3.951984">
        <ele>1828.917</ele>
        <time>2021-07-29T12:08:52Z</time>
      </trkpt>
      <trkpt lat="40.807987" lon="-3.952005">
        <ele>1829.018</ele>
        <time>2021-07-29T12:08:54Z</time>
      </trkpt>
      <trkpt lat="40.807965" lon="-3.952027">
        <ele>1829.008</ele>
        <time>2021-07-29T12:08:56Z</time>
      </trkpt>
      <trkpt lat="40.807939" lon="-3.952038">
        <ele>1828.760</ele>
        <time>2021-07-29T12:08:58Z</time>
      </trkpt>
      <trkpt lat="40.807914" lon="-3.952037">
        <ele>1828.112</ele>
        <time>2021-07-29T12:09:00Z</time>
      </trkpt>
      <trkpt lat="40.807891" lon="-3.952033">
        <ele>1827.589</ele>
        <time>2021-07-29T12:09:06Z</time>
      </trkpt>
      <trkpt lat="40.807862" lon="-3.952038">
        <ele>1826.976</ele>
        <time>2021-07-29T12:09:08Z</time>
      </trkpt>
      <trkpt lat="40.807827" lon="-3.952053">
        <ele>1826.567</ele>
        <time>2021-07-29T12:09:10Z</time>
      </trkpt>
      <trkpt lat="40.807805" lon="-3.952058">
        <ele>1826.137</ele>
        <time>2021-07-29T12:09:11Z</time>
      </trkpt>
      <trkpt lat="40.807773" lon="-3.952072">
        <ele>1825.610</ele>
        <time>2021-07-29T12:09:13Z</time>
      </trkpt>
      <trkpt lat="40.807750" lon="-3.952078">
        <ele>1825.239</ele>
        <time>2021-07-29T12:09:16Z</time>
      </trkpt>
      <trkpt lat="40.807722" lon="-3.952080">
        <ele>1824.577</ele>
        <time>2021-07-29T12:09:19Z</time>
      </trkpt>
      <trkpt lat="40.807702" lon="-3.952078">
        <ele>1824.061</ele>
        <time>2021-07-29T12:09:20Z</time>
      </trkpt>
      <trkpt lat="40.807667" lon="-3.952087">
        <ele>1823.327</ele>
        <time>2021-07-29T12:09:22Z</time>
      </trkpt>
      <trkpt lat="40.807642" lon="-3.952098">
        <ele>1822.908</ele>
        <time>2021-07-29T12:09:24Z</time>
      </trkpt>
      <trkpt lat="40.807616" lon="-3.952124">
        <ele>1822.894</ele>
        <time>2021-07-29T12:09:26Z</time>
      </trkpt>
      <trkpt lat="40.807597" lon="-3.952153">
        <ele>1822.936</ele>
        <time>2021-07-29T12:09:28Z</time>
      </trkpt>
      <trkpt lat="40.807587" lon="-3.952180">
        <ele>1823.363</ele>
        <time>2021-07-29T12:09:30Z</time>
      </trkpt>
      <trkpt lat="40.807578" lon="-3.952205">
        <ele>1823.610</ele>
        <time>2021-07-29T12:09:33Z</time>
      </trkpt>
      <trkpt lat="40.807568" lon="-3.952230">
        <ele>1823.981</ele>
        <time>2021-07-29T12:09:35Z</time>
      </trkpt>
      <trkpt lat="40.807546" lon="-3.952237">
        <ele>1823.681</ele>
        <time>2021-07-29T12:09:37Z</time>
      </trkpt>
      <trkpt lat="40.807523" lon="-3.952232">
        <ele>1822.954</ele>
        <time>2021-07-29T12:09:40Z</time>
      </trkpt>
      <trkpt lat="40.807507" lon="-3.952247">
        <ele>1822.953</ele>
        <time>2021-07-29T12:09:42Z</time>
      </trkpt>
      <trkpt lat="40.807478" lon="-3.952263">
        <ele>1822.791</ele>
        <time>2021-07-29T12:09:46Z</time>
      </trkpt>
      <trkpt lat="40.807453" lon="-3.952283">
        <ele>1822.781</ele>
        <time>2021-07-29T12:09:48Z</time>
      </trkpt>
      <trkpt lat="40.807427" lon="-3.952300">
        <ele>1822.619</ele>
        <time>2021-07-29T12:09:50Z</time>
      </trkpt>
      <trkpt lat="40.807405" lon="-3.952298">
        <ele>1822.008</ele>
        <time>2021-07-29T12:09:52Z</time>
      </trkpt>
      <trkpt lat="40.807376" lon="-3.952315">
        <ele>1821.846</ele>
        <time>2021-07-29T12:09:54Z</time>
      </trkpt>
      <trkpt lat="40.807350" lon="-3.952344">
        <ele>1822.058</ele>
        <time>2021-07-29T12:09:56Z</time>
      </trkpt>
      <trkpt lat="40.807331" lon="-3.952352">
        <ele>1821.825</ele>
        <time>2021-07-29T12:09:58Z</time>
      </trkpt>
      <trkpt lat="40.807309" lon="-3.952352">
        <ele>1821.352</ele>
        <time>2021-07-29T12:10:00Z</time>
      </trkpt>
      <trkpt lat="40.807290" lon="-3.952358">
        <ele>1821.093</ele>
        <time>2021-07-29T12:10:02Z</time>
      </trkpt>
      <trkpt lat="40.807270" lon="-3.952365">
        <ele>1820.763</ele>
        <time>2021-07-29T12:10:04Z</time>
      </trkpt>
      <trkpt lat="40.807248" lon="-3.952370">
        <ele>1820.396</ele>
        <time>2021-07-29T12:10:06Z</time>
      </trkpt>
      <trkpt lat="40.807229" lon="-3.952373">
        <ele>1820.055</ele>
        <time>2021-07-29T12:10:08Z</time>
      </trkpt>
      <trkpt lat="40.807200" lon="-3.952375">
        <ele>1819.533</ele>
        <time>2021-07-29T12:10:10Z</time>
      </trkpt>
      <trkpt lat="40.807178" lon="-3.952388">
        <ele>1819.523</ele>
        <time>2021-07-29T12:10:12Z</time>
      </trkpt>
      <trkpt lat="40.807037" lon="-3.952452">
        <ele>1819.115</ele>
        <time>2021-07-29T12:10:25Z</time>
      </trkpt>
      <trkpt lat="40.807021" lon="-3.952470">
        <ele>1819.308</ele>
        <time>2021-07-29T12:10:26Z</time>
      </trkpt>
      <trkpt lat="40.807008" lon="-3.952492">
        <ele>1819.770</ele>
        <time>2021-07-29T12:10:28Z</time>
      </trkpt>
      <trkpt lat="40.806998" lon="-3.952518">
        <ele>1820.322</ele>
        <time>2021-07-29T12:10:31Z</time>
      </trkpt>
      <trkpt lat="40.806982" lon="-3.952538">
        <ele>1820.659</ele>
        <time>2021-07-29T12:10:33Z</time>
      </trkpt>
      <trkpt lat="40.806973" lon="-3.952575">
        <ele>1821.666</ele>
        <time>2021-07-29T12:10:36Z</time>
      </trkpt>
      <trkpt lat="40.806957" lon="-3.952592">
        <ele>1821.837</ele>
        <time>2021-07-29T12:10:38Z</time>
      </trkpt>
      <trkpt lat="40.806941" lon="-3.952608">
        <ele>1822.157</ele>
        <time>2021-07-29T12:10:40Z</time>
      </trkpt>
      <trkpt lat="40.806909" lon="-3.952598">
        <ele>1821.810</ele>
        <time>2021-07-29T12:10:43Z</time>
      </trkpt>
      <trkpt lat="40.806883" lon="-3.952608">
        <ele>1822.159</ele>
        <time>2021-07-29T12:10:46Z</time>
      </trkpt>
      <trkpt lat="40.806861" lon="-3.952608">
        <ele>1822.173</ele>
        <time>2021-07-29T12:10:51Z</time>
      </trkpt>
      <trkpt lat="40.806838" lon="-3.952617">
        <ele>1822.485</ele>
        <time>2021-07-29T12:10:54Z</time>
      </trkpt>
      <trkpt lat="40.806813" lon="-3.952628">
        <ele>1822.713</ele>
        <time>2021-07-29T12:10:56Z</time>
      </trkpt>
      <trkpt lat="40.806797" lon="-3.952643">
        <ele>1823.108</ele>
        <time>2021-07-29T12:10:58Z</time>
      </trkpt>
      <trkpt lat="40.806784" lon="-3.952662">
        <ele>1823.794</ele>
        <time>2021-07-29T12:11:00Z</time>
      </trkpt>
      <trkpt lat="40.806758" lon="-3.952652">
        <ele>1823.426</ele>
        <time>2021-07-29T12:11:04Z</time>
      </trkpt>
      <trkpt lat="40.806736" lon="-3.952647">
        <ele>1823.243</ele>
        <time>2021-07-29T12:11:07Z</time>
      </trkpt>
      <trkpt lat="40.806710" lon="-3.952652">
        <ele>1823.420</ele>
        <time>2021-07-29T12:11:09Z</time>
      </trkpt>
      <trkpt lat="40.806688" lon="-3.952652">
        <ele>1823.451</ele>
        <time>2021-07-29T12:11:11Z</time>
      </trkpt>
      <trkpt lat="40.806669" lon="-3.952633">
        <ele>1822.891</ele>
        <time>2021-07-29T12:11:14Z</time>
      </trkpt>
      <trkpt lat="40.806653" lon="-3.952613">
        <ele>1822.354</ele>
        <time>2021-07-29T12:11:16Z</time>
      </trkpt>
      <trkpt lat="40.806634" lon="-3.952607">
        <ele>1822.133</ele>
        <time>2021-07-29T12:11:18Z</time>
      </trkpt>
      <trkpt lat="40.806614" lon="-3.952608">
        <ele>1822.224</ele>
        <time>2021-07-29T12:11:20Z</time>
      </trkpt>
      <trkpt lat="40.806592" lon="-3.952613">
        <ele>1822.404</ele>
        <time>2021-07-29T12:11:24Z</time>
      </trkpt>
      <trkpt lat="40.806573" lon="-3.952618">
        <ele>1822.514</ele>
        <time>2021-07-29T12:11:28Z</time>
      </trkpt>
      <trkpt lat="40.806557" lon="-3.952607">
        <ele>1822.208</ele>
        <time>2021-07-29T12:11:29Z</time>
      </trkpt>
      <trkpt lat="40.806541" lon="-3.952593">
        <ele>1821.839</ele>
        <time>2021-07-29T12:11:30Z</time>
      </trkpt>
      <trkpt lat="40.806518" lon="-3.952583">
        <ele>1821.511</ele>
        <time>2021-07-29T12:11:32Z</time>
      </trkpt>
      <trkpt lat="40.806499" lon="-3.952570">
        <ele>1821.238</ele>
        <time>2021-07-29T12:11:34Z</time>
      </trkpt>
      <trkpt lat="40.806483" lon="-3.952558">
        <ele>1820.895</ele>
        <time>2021-07-29T12:11:36Z</time>
      </trkpt>
      <trkpt lat="40.806470" lon="-3.952542">
        <ele>1820.366</ele>
        <time>2021-07-29T12:11:38Z</time>
      </trkpt>
      <trkpt lat="40.806454" lon="-3.952526">
        <ele>1819.886</ele>
        <time>2021-07-29T12:11:40Z</time>
      </trkpt>
      <trkpt lat="40.806435" lon="-3.952525">
        <ele>1819.819</ele>
        <time>2021-07-29T12:11:41Z</time>
      </trkpt>
      <trkpt lat="40.806406" lon="-3.952526">
        <ele>1819.838</ele>
        <time>2021-07-29T12:11:44Z</time>
      </trkpt>
      <trkpt lat="40.806384" lon="-3.952502">
        <ele>1819.153</ele>
        <time>2021-07-29T12:11:48Z</time>
      </trkpt>
      <trkpt lat="40.806374" lon="-3.952467">
        <ele>1817.904</ele>
        <time>2021-07-29T12:11:50Z</time>
      </trkpt>
      <trkpt lat="40.806371" lon="-3.952440">
        <ele>1817.014</ele>
        <time>2021-07-29T12:11:52Z</time>
      </trkpt>
      <trkpt lat="40.806355" lon="-3.952427">
        <ele>1816.708</ele>
        <time>2021-07-29T12:11:56Z</time>
      </trkpt>
      <trkpt lat="40.806336" lon="-3.952405">
        <ele>1816.162</ele>
        <time>2021-07-29T12:11:58Z</time>
      </trkpt>
      <trkpt lat="40.806317" lon="-3.952400">
        <ele>1816.154</ele>
        <time>2021-07-29T12:12:01Z</time>
      </trkpt>
      <trkpt lat="40.806294" lon="-3.952403">
        <ele>1816.441</ele>
        <time>2021-07-29T12:12:03Z</time>
      </trkpt>
      <trkpt lat="40.806272" lon="-3.952410">
        <ele>1816.928</ele>
        <time>2021-07-29T12:12:05Z</time>
      </trkpt>
      <trkpt lat="40.806253" lon="-3.952423">
        <ele>1817.419</ele>
        <time>2021-07-29T12:12:07Z</time>
      </trkpt>
      <trkpt lat="40.806234" lon="-3.952422">
        <ele>1817.589</ele>
        <time>2021-07-29T12:12:11Z</time>
      </trkpt>
      <trkpt lat="40.806214" lon="-3.952413">
        <ele>1817.582</ele>
        <time>2021-07-29T12:12:16Z</time>
      </trkpt>
      <trkpt lat="40.806198" lon="-3.952397">
        <ele>1817.331</ele>
        <time>2021-07-29T12:12:18Z</time>
      </trkpt>
      <trkpt lat="40.806182" lon="-3.952377">
        <ele>1817.073</ele>
        <time>2021-07-29T12:12:20Z</time>
      </trkpt>
      <trkpt lat="40.806163" lon="-3.952366">
        <ele>1817.085</ele>
        <time>2021-07-29T12:12:22Z</time>
      </trkpt>
      <trkpt lat="40.806144" lon="-3.952342">
        <ele>1816.713</ele>
        <time>2021-07-29T12:12:26Z</time>
      </trkpt>
      <trkpt lat="40.806141" lon="-3.952308">
        <ele>1816.108</ele>
        <time>2021-07-29T12:12:30Z</time>
      </trkpt>
      <trkpt lat="40.806154" lon="-3.952282">
        <ele>1815.384</ele>
        <time>2021-07-29T12:12:32Z</time>
      </trkpt>
      <trkpt lat="40.806160" lon="-3.952250">
        <ele>1814.546</ele>
        <time>2021-07-29T12:12:35Z</time>
      </trkpt>
      <trkpt lat="40.806157" lon="-3.952217">
        <ele>1813.933</ele>
        <time>2021-07-29T12:12:38Z</time>
      </trkpt>
      <trkpt lat="40.806160" lon="-3.952190">
        <ele>1813.430</ele>
        <time>2021-07-29T12:12:41Z</time>
      </trkpt>
      <trkpt lat="40.806141" lon="-3.952165">
        <ele>1813.411</ele>
        <time>2021-07-29T12:12:45Z</time>
      </trkpt>
      <trkpt lat="40.806115" lon="-3.952148">
        <ele>1813.811</ele>
        <time>2021-07-29T12:12:56Z</time>
      </trkpt>
      <trkpt lat="40.806134" lon="-3.952153">
        <ele>1813.424</ele>
        <time>2021-07-29T12:12:59Z</time>
      </trkpt>
      <trkpt lat="40.806122" lon="-3.952132">
        <ele>1813.433</ele>
        <time>2021-07-29T12:13:03Z</time>
      </trkpt>
      <trkpt lat="40.806122" lon="-3.952105">
        <ele>1813.012</ele>
        <time>2021-07-29T12:13:05Z</time>
      </trkpt>
      <trkpt lat="40.806128" lon="-3.952078">
        <ele>1812.432</ele>
        <time>2021-07-29T12:13:07Z</time>
      </trkpt>
      <trkpt lat="40.806106" lon="-3.952048">
        <ele>1812.605</ele>
        <time>2021-07-29T12:13:10Z</time>
      </trkpt>
      <trkpt lat="40.806096" lon="-3.952023">
        <ele>1812.508</ele>
        <time>2021-07-29T12:13:13Z</time>
      </trkpt>
      <trkpt lat="40.806096" lon="-3.951995">
        <ele>1812.188</ele>
        <time>2021-07-29T12:13:16Z</time>
      </trkpt>
      <trkpt lat="40.806077" lon="-3.951985">
        <ele>1812.450</ele>
        <time>2021-07-29T12:13:19Z</time>
      </trkpt>
      <trkpt lat="40.806067" lon="-3.951955">
        <ele>1812.347</ele>
        <time>2021-07-29T12:13:22Z</time>
      </trkpt>
      <trkpt lat="40.806045" lon="-3.951945">
        <ele>1812.794</ele>
        <time>2021-07-29T12:13:24Z</time>
      </trkpt>
      <trkpt lat="40.806026" lon="-3.951943">
        <ele>1813.125</ele>
        <time>2021-07-29T12:13:26Z</time>
      </trkpt>
      <trkpt lat="40.806006" lon="-3.951938">
        <ele>1813.595</ele>
        <time>2021-07-29T12:13:27Z</time>
      </trkpt>
      <trkpt lat="40.805987" lon="-3.951928">
        <ele>1813.888</ele>
        <time>2021-07-29T12:13:30Z</time>
      </trkpt>
      <trkpt lat="40.805962" lon="-3.951913">
        <ele>1814.217</ele>
        <time>2021-07-29T12:13:33Z</time>
      </trkpt>
      <trkpt lat="40.805939" lon="-3.951908">
        <ele>1814.726</ele>
        <time>2021-07-29T12:13:35Z</time>
      </trkpt>
      <trkpt lat="40.805920" lon="-3.951927">
        <ele>1815.547</ele>
        <time>2021-07-29T12:13:38Z</time>
      </trkpt>
      <trkpt lat="40.805898" lon="-3.951935">
        <ele>1816.211</ele>
        <time>2021-07-29T12:13:40Z</time>
      </trkpt>
      <trkpt lat="40.805866" lon="-3.951928">
        <ele>1816.808</ele>
        <time>2021-07-29T12:13:42Z</time>
      </trkpt>
      <trkpt lat="40.805850" lon="-3.951912">
        <ele>1816.959</ele>
        <time>2021-07-29T12:13:43Z</time>
      </trkpt>
      <trkpt lat="40.805824" lon="-3.951913">
        <ele>1817.411</ele>
        <time>2021-07-29T12:13:45Z</time>
      </trkpt>
      <trkpt lat="40.805802" lon="-3.951905">
        <ele>1817.418</ele>
        <time>2021-07-29T12:13:48Z</time>
      </trkpt>
      <trkpt lat="40.805782" lon="-3.951887">
        <ele>1817.185</ele>
        <time>2021-07-29T12:13:50Z</time>
      </trkpt>
      <trkpt lat="40.805760" lon="-3.951883">
        <ele>1817.126</ele>
        <time>2021-07-29T12:13:53Z</time>
      </trkpt>
      <trkpt lat="40.805744" lon="-3.951913">
        <ele>1817.986</ele>
        <time>2021-07-29T12:13:55Z</time>
      </trkpt>
      <trkpt lat="40.805725" lon="-3.951925">
        <ele>1818.329</ele>
        <time>2021-07-29T12:13:57Z</time>
      </trkpt>
      <trkpt lat="40.805699" lon="-3.951922">
        <ele>1818.478</ele>
        <time>2021-07-29T12:13:58Z</time>
      </trkpt>
      <trkpt lat="40.805680" lon="-3.951923">
        <ele>1818.655</ele>
        <time>2021-07-29T12:13:59Z</time>
      </trkpt>
      <trkpt lat="40.805651" lon="-3.951915">
        <ele>1818.607</ele>
        <time>2021-07-29T12:14:01Z</time>
      </trkpt>
      <trkpt lat="40.805638" lon="-3.951893">
        <ele>1818.217</ele>
        <time>2021-07-29T12:14:03Z</time>
      </trkpt>
      <trkpt lat="40.805622" lon="-3.951882">
        <ele>1818.008</ele>
        <time>2021-07-29T12:14:05Z</time>
      </trkpt>
      <trkpt lat="40.805603" lon="-3.951880">
        <ele>1818.192</ele>
        <time>2021-07-29T12:14:08Z</time>
      </trkpt>
      <trkpt lat="40.805584" lon="-3.951892">
        <ele>1818.534</ele>
        <time>2021-07-29T12:14:12Z</time>
      </trkpt>
      <trkpt lat="40.805562" lon="-3.951888">
        <ele>1818.551</ele>
        <time>2021-07-29T12:14:15Z</time>
      </trkpt>
      <trkpt lat="40.805539" lon="-3.951883">
        <ele>1818.518</ele>
        <time>2021-07-29T12:14:17Z</time>
      </trkpt>
      <trkpt lat="40.805510" lon="-3.951890">
        <ele>1818.779</ele>
        <time>2021-07-29T12:14:21Z</time>
      </trkpt>
      <trkpt lat="40.805491" lon="-3.951893">
        <ele>1818.889</ele>
        <time>2021-07-29T12:14:23Z</time>
      </trkpt>
      <trkpt lat="40.805472" lon="-3.951905">
        <ele>1819.232</ele>
        <time>2021-07-29T12:14:25Z</time>
      </trkpt>
      <trkpt lat="40.805453" lon="-3.951917">
        <ele>1819.681</ele>
        <time>2021-07-29T12:14:27Z</time>
      </trkpt>
      <trkpt lat="40.805434" lon="-3.951932">
        <ele>1820.167</ele>
        <time>2021-07-29T12:14:29Z</time>
      </trkpt>
      <trkpt lat="40.805408" lon="-3.951945">
        <ele>1820.581</ele>
        <time>2021-07-29T12:14:32Z</time>
      </trkpt>
      <trkpt lat="40.805370" lon="-3.951937">
        <ele>1820.419</ele>
        <time>2021-07-29T12:14:34Z</time>
      </trkpt>
      <trkpt lat="40.805347" lon="-3.951940">
        <ele>1820.608</ele>
        <time>2021-07-29T12:14:36Z</time>
      </trkpt>
      <trkpt lat="40.805322" lon="-3.951942">
        <ele>1820.843</ele>
        <time>2021-07-29T12:14:39Z</time>
      </trkpt>
      <trkpt lat="40.805293" lon="-3.951928">
        <ele>1820.445</ele>
        <time>2021-07-29T12:14:41Z</time>
      </trkpt>
      <trkpt lat="40.805270" lon="-3.951903">
        <ele>1819.782</ele>
        <time>2021-07-29T12:14:44Z</time>
      </trkpt>
      <trkpt lat="40.805254" lon="-3.951890">
        <ele>1819.349</ele>
        <time>2021-07-29T12:14:45Z</time>
      </trkpt>
      <trkpt lat="40.805238" lon="-3.951867">
        <ele>1818.650</ele>
        <time>2021-07-29T12:14:47Z</time>
      </trkpt>
      <trkpt lat="40.805226" lon="-3.951892">
        <ele>1819.430</ele>
        <time>2021-07-29T12:14:49Z</time>
      </trkpt>
      <trkpt lat="40.805219" lon="-3.951920">
        <ele>1820.493</ele>
        <time>2021-07-29T12:14:59Z</time>
      </trkpt>
      <trkpt lat="40.805248" lon="-3.951923">
        <ele>1820.432</ele>
        <time>2021-07-29T12:15:54Z</time>
      </trkpt>
      <trkpt lat="40.805229" lon="-3.951912">
        <ele>1820.179</ele>
        <time>2021-07-29T12:16:01Z</time>
      </trkpt>
      <trkpt lat="40.805210" lon="-3.951907">
        <ele>1820.005</ele>
        <time>2021-07-29T12:16:04Z</time>
      </trkpt>
      <trkpt lat="40.805190" lon="-3.951907">
        <ele>1820.025</ele>
        <time>2021-07-29T12:16:06Z</time>
      </trkpt>
      <trkpt lat="40.805165" lon="-3.951905">
        <ele>1820.008</ele>
        <time>2021-07-29T12:16:08Z</time>
      </trkpt>
      <trkpt lat="40.805146" lon="-3.951905">
        <ele>1820.194</ele>
        <time>2021-07-29T12:16:10Z</time>
      </trkpt>
      <trkpt lat="40.805114" lon="-3.951895">
        <ele>1819.826</ele>
        <time>2021-07-29T12:16:15Z</time>
      </trkpt>
      <trkpt lat="40.805091" lon="-3.951897">
        <ele>1819.953</ele>
        <time>2021-07-29T12:16:17Z</time>
      </trkpt>
      <trkpt lat="40.805062" lon="-3.951892">
        <ele>1819.850</ele>
        <time>2021-07-29T12:16:19Z</time>
      </trkpt>
      <trkpt lat="40.805043" lon="-3.951902">
        <ele>1820.221</ele>
        <time>2021-07-29T12:16:22Z</time>
      </trkpt>
      <trkpt lat="40.805024" lon="-3.951888">
        <ele>1819.711</ele>
        <time>2021-07-29T12:16:24Z</time>
      </trkpt>
      <trkpt lat="40.805002" lon="-3.951868">
        <ele>1819.064</ele>
        <time>2021-07-29T12:16:27Z</time>
      </trkpt>
      <trkpt lat="40.804973" lon="-3.951858">
        <ele>1818.813</ele>
        <time>2021-07-29T12:16:29Z</time>
      </trkpt>
      <trkpt lat="40.804963" lon="-3.951880">
        <ele>1819.753</ele>
        <time>2021-07-29T12:16:32Z</time>
      </trkpt>
      <trkpt lat="40.804934" lon="-3.951862">
        <ele>1819.404</ele>
        <time>2021-07-29T12:16:36Z</time>
      </trkpt>
      <trkpt lat="40.804928" lon="-3.951838">
        <ele>1818.714</ele>
        <time>2021-07-29T12:16:42Z</time>
      </trkpt>
      <trkpt lat="40.804912" lon="-3.951808">
        <ele>1818.008</ele>
        <time>2021-07-29T12:16:46Z</time>
      </trkpt>
      <trkpt lat="40.804896" lon="-3.951795">
        <ele>1817.922</ele>
        <time>2021-07-29T12:16:48Z</time>
      </trkpt>
      <trkpt lat="40.804877" lon="-3.951793">
        <ele>1818.274</ele>
        <time>2021-07-29T12:16:52Z</time>
      </trkpt>
      <trkpt lat="40.804858" lon="-3.951790">
        <ele>1818.451</ele>
        <time>2021-07-29T12:16:55Z</time>
      </trkpt>
      <trkpt lat="40.804842" lon="-3.951767">
        <ele>1818.278</ele>
        <time>2021-07-29T12:17:03Z</time>
      </trkpt>
      <trkpt lat="40.804822" lon="-3.951757">
        <ele>1818.549</ele>
        <time>2021-07-29T12:17:07Z</time>
      </trkpt>
      <trkpt lat="40.804806" lon="-3.951768">
        <ele>1819.089</ele>
        <time>2021-07-29T12:17:19Z</time>
      </trkpt>
      <trkpt lat="40.804829" lon="-3.951758">
        <ele>1818.362</ele>
        <time>2021-07-29T12:18:55Z</time>
      </trkpt>
      <trkpt lat="40.804842" lon="-3.951737">
        <ele>1817.611</ele>
        <time>2021-07-29T12:18:58Z</time>
      </trkpt>
      <trkpt lat="40.804851" lon="-3.951715">
        <ele>1816.917</ele>
        <time>2021-07-29T12:19:03Z</time>
      </trkpt>
      <trkpt lat="40.804845" lon="-3.951692">
        <ele>1816.687</ele>
        <time>2021-07-29T12:19:09Z</time>
      </trkpt>
      <trkpt lat="40.804842" lon="-3.951666">
        <ele>1816.115</ele>
        <time>2021-07-29T12:19:13Z</time>
      </trkpt>
      <trkpt lat="40.804829" lon="-3.951648">
        <ele>1816.408</ele>
        <time>2021-07-29T12:19:16Z</time>
      </trkpt>
      <trkpt lat="40.804842" lon="-3.951620">
        <ele>1815.758</ele>
        <time>2021-07-29T12:19:21Z</time>
      </trkpt>
      <trkpt lat="40.804848" lon="-3.951590">
        <ele>1815.210</ele>
        <time>2021-07-29T12:19:24Z</time>
      </trkpt>
      <trkpt lat="40.804842" lon="-3.951567">
        <ele>1815.287</ele>
        <time>2021-07-29T12:19:29Z</time>
      </trkpt>
      <trkpt lat="40.804826" lon="-3.951550">
        <ele>1815.624</ele>
        <time>2021-07-29T12:19:34Z</time>
      </trkpt>
      <trkpt lat="40.804810" lon="-3.951528">
        <ele>1816.095</ele>
        <time>2021-07-29T12:19:39Z</time>
      </trkpt>
      <trkpt lat="40.804787" lon="-3.951530">
        <ele>1816.835</ele>
        <time>2021-07-29T12:19:41Z</time>
      </trkpt>
      <trkpt lat="40.804771" lon="-3.951518">
        <ele>1817.318</ele>
        <time>2021-07-29T12:19:44Z</time>
      </trkpt>
      <trkpt lat="40.804749" lon="-3.951505">
        <ele>1817.967</ele>
        <time>2021-07-29T12:19:46Z</time>
      </trkpt>
      <trkpt lat="40.804723" lon="-3.951502">
        <ele>1818.811</ele>
        <time>2021-07-29T12:19:49Z</time>
      </trkpt>
      <trkpt lat="40.804698" lon="-3.951500">
        <ele>1819.521</ele>
        <time>2021-07-29T12:19:52Z</time>
      </trkpt>
      <trkpt lat="40.804669" lon="-3.951478">
        <ele>1820.003</ele>
        <time>2021-07-29T12:19:54Z</time>
      </trkpt>
      <trkpt lat="40.804650" lon="-3.951462">
        <ele>1820.408</ele>
        <time>2021-07-29T12:19:55Z</time>
      </trkpt>
      <trkpt lat="40.804627" lon="-3.951443">
        <ele>1820.748</ele>
        <time>2021-07-29T12:19:56Z</time>
      </trkpt>
      <trkpt lat="40.804611" lon="-3.951424">
        <ele>1820.950</ele>
        <time>2021-07-29T12:19:58Z</time>
      </trkpt>
      <trkpt lat="40.804586" lon="-3.951422">
        <ele>1821.447</ele>
        <time>2021-07-29T12:20:01Z</time>
      </trkpt>
      <trkpt lat="40.804566" lon="-3.951424">
        <ele>1821.914</ele>
        <time>2021-07-29T12:20:05Z</time>
      </trkpt>
      <trkpt lat="40.804550" lon="-3.951408">
        <ele>1822.055</ele>
        <time>2021-07-29T12:20:16Z</time>
      </trkpt>
      <trkpt lat="40.804534" lon="-3.951380">
        <ele>1821.815</ele>
        <time>2021-07-29T12:20:19Z</time>
      </trkpt>
      <trkpt lat="40.804515" lon="-3.951370">
        <ele>1822.088</ele>
        <time>2021-07-29T12:20:22Z</time>
      </trkpt>
      <trkpt lat="40.804496" lon="-3.951368">
        <ele>1822.317</ele>
        <time>2021-07-29T12:20:26Z</time>
      </trkpt>
      <trkpt lat="40.804480" lon="-3.951350">
        <ele>1822.251</ele>
        <time>2021-07-29T12:20:33Z</time>
      </trkpt>
      <trkpt lat="40.804458" lon="-3.951335">
        <ele>1822.301</ele>
        <time>2021-07-29T12:20:37Z</time>
      </trkpt>
      <trkpt lat="40.804448" lon="-3.951306">
        <ele>1821.811</ele>
        <time>2021-07-29T12:20:40Z</time>
      </trkpt>
      <trkpt lat="40.804429" lon="-3.951292">
        <ele>1821.908</ele>
        <time>2021-07-29T12:20:42Z</time>
      </trkpt>
      <trkpt lat="40.804416" lon="-3.951272">
        <ele>1821.872</ele>
        <time>2021-07-29T12:20:44Z</time>
      </trkpt>
      <trkpt lat="40.804400" lon="-3.951252">
        <ele>1821.744</ele>
        <time>2021-07-29T12:20:48Z</time>
      </trkpt>
      <trkpt lat="40.804400" lon="-3.951220">
        <ele>1820.931</ele>
        <time>2021-07-29T12:20:52Z</time>
      </trkpt>
      <trkpt lat="40.804413" lon="-3.951198">
        <ele>1820.028</ele>
        <time>2021-07-29T12:20:56Z</time>
      </trkpt>
      <trkpt lat="40.804410" lon="-3.951172">
        <ele>1819.589</ele>
        <time>2021-07-29T12:21:00Z</time>
      </trkpt>
      <trkpt lat="40.804419" lon="-3.951140">
        <ele>1818.449</ele>
        <time>2021-07-29T12:21:03Z</time>
      </trkpt>
      <trkpt lat="40.804432" lon="-3.951123">
        <ele>1817.712</ele>
        <time>2021-07-29T12:21:07Z</time>
      </trkpt>
      <trkpt lat="40.804448" lon="-3.951140">
        <ele>1817.691</ele>
        <time>2021-07-29T12:21:12Z</time>
      </trkpt>
      <trkpt lat="40.804470" lon="-3.951153">
        <ele>1817.492</ele>
        <time>2021-07-29T12:21:14Z</time>
      </trkpt>
      <trkpt lat="40.804490" lon="-3.951158">
        <ele>1817.173</ele>
        <time>2021-07-29T12:21:16Z</time>
      </trkpt>
      <trkpt lat="40.804509" lon="-3.951158">
        <ele>1816.620</ele>
        <time>2021-07-29T12:21:18Z</time>
      </trkpt>
      <trkpt lat="40.804528" lon="-3.951135">
        <ele>1815.508</ele>
        <time>2021-07-29T12:21:20Z</time>
      </trkpt>
      <trkpt lat="40.804538" lon="-3.951110">
        <ele>1814.776</ele>
        <time>2021-07-29T12:21:22Z</time>
      </trkpt>
      <trkpt lat="40.804547" lon="-3.951086">
        <ele>1814.768</ele>
        <time>2021-07-29T12:21:24Z</time>
      </trkpt>
      <trkpt lat="40.804550" lon="-3.951055">
        <ele>1814.965</ele>
        <time>2021-07-29T12:21:26Z</time>
      </trkpt>
      <trkpt lat="40.804557" lon="-3.951023">
        <ele>1815.042</ele>
        <time>2021-07-29T12:21:28Z</time>
      </trkpt>
      <trkpt lat="40.804563" lon="-3.950987">
        <ele>1815.293</ele>
        <time>2021-07-29T12:21:30Z</time>
      </trkpt>
      <trkpt lat="40.804570" lon="-3.950948">
        <ele>1815.413</ele>
        <time>2021-07-29T12:21:32Z</time>
      </trkpt>
      <trkpt lat="40.804576" lon="-3.950912">
        <ele>1815.516</ele>
        <time>2021-07-29T12:21:34Z</time>
      </trkpt>
      <trkpt lat="40.804579" lon="-3.950887">
        <ele>1815.725</ele>
        <time>2021-07-29T12:21:36Z</time>
      </trkpt>
      <trkpt lat="40.804595" lon="-3.950858">
        <ele>1815.441</ele>
        <time>2021-07-29T12:21:39Z</time>
      </trkpt>
      <trkpt lat="40.804605" lon="-3.950817">
        <ele>1815.681</ele>
        <time>2021-07-29T12:21:41Z</time>
      </trkpt>
      <trkpt lat="40.804598" lon="-3.950783">
        <ele>1816.609</ele>
        <time>2021-07-29T12:21:43Z</time>
      </trkpt>
      <trkpt lat="40.804592" lon="-3.950743">
        <ele>1817.608</ele>
        <time>2021-07-29T12:21:45Z</time>
      </trkpt>
      <trkpt lat="40.804589" lon="-3.950708">
        <ele>1818.521</ele>
        <time>2021-07-29T12:21:51Z</time>
      </trkpt>
      <trkpt lat="40.804589" lon="-3.950682">
        <ele>1819.143</ele>
        <time>2021-07-29T12:21:53Z</time>
      </trkpt>
      <trkpt lat="40.804595" lon="-3.950658">
        <ele>1819.490</ele>
        <time>2021-07-29T12:21:55Z</time>
      </trkpt>
      <trkpt lat="40.804592" lon="-3.950630">
        <ele>1820.197</ele>
        <time>2021-07-29T12:21:57Z</time>
      </trkpt>
      <trkpt lat="40.804589" lon="-3.950600">
        <ele>1820.838</ele>
        <time>2021-07-29T12:21:59Z</time>
      </trkpt>
      <trkpt lat="40.804589" lon="-3.950567">
        <ele>1821.558</ele>
        <time>2021-07-29T12:22:01Z</time>
      </trkpt>
      <trkpt lat="40.804592" lon="-3.950533">
        <ele>1821.831</ele>
        <time>2021-07-29T12:22:03Z</time>
      </trkpt>
      <trkpt lat="40.804592" lon="-3.950502">
        <ele>1822.030</ele>
        <time>2021-07-29T12:22:06Z</time>
      </trkpt>
      <trkpt lat="40.804586" lon="-3.950475">
        <ele>1822.348</ele>
        <time>2021-07-29T12:22:08Z</time>
      </trkpt>
      <trkpt lat="40.804589" lon="-3.950447">
        <ele>1822.461</ele>
        <time>2021-07-29T12:22:11Z</time>
      </trkpt>
      <trkpt lat="40.804576" lon="-3.950423">
        <ele>1822.917</ele>
        <time>2021-07-29T12:22:16Z</time>
      </trkpt>
      <trkpt lat="40.804557" lon="-3.950408">
        <ele>1823.608</ele>
        <time>2021-07-29T12:22:18Z</time>
      </trkpt>
      <trkpt lat="40.804576" lon="-3.950372">
        <ele>1823.241</ele>
        <time>2021-07-29T12:22:22Z</time>
      </trkpt>
      <trkpt lat="40.804579" lon="-3.950345">
        <ele>1823.393</ele>
        <time>2021-07-29T12:22:23Z</time>
      </trkpt>
      <trkpt lat="40.804586" lon="-3.950318">
        <ele>1823.230</ele>
        <time>2021-07-29T12:22:24Z</time>
      </trkpt>
      <trkpt lat="40.804592" lon="-3.950280">
        <ele>1823.387</ele>
        <time>2021-07-29T12:22:26Z</time>
      </trkpt>
      <trkpt lat="40.804598" lon="-3.950255">
        <ele>1822.818</ele>
        <time>2021-07-29T12:22:28Z</time>
      </trkpt>
      <trkpt lat="40.804592" lon="-3.950230">
        <ele>1822.548</ele>
        <time>2021-07-29T12:22:31Z</time>
      </trkpt>
      <trkpt lat="40.804595" lon="-3.950204">
        <ele>1822.061</ele>
        <time>2021-07-29T12:22:33Z</time>
      </trkpt>
      <trkpt lat="40.804573" lon="-3.950192">
        <ele>1822.430</ele>
        <time>2021-07-29T12:22:36Z</time>
      </trkpt>
      <trkpt lat="40.804554" lon="-3.950190">
        <ele>1822.897</ele>
        <time>2021-07-29T12:22:38Z</time>
      </trkpt>
      <trkpt lat="40.804534" lon="-3.950175">
        <ele>1823.023</ele>
        <time>2021-07-29T12:22:40Z</time>
      </trkpt>
      <trkpt lat="40.804512" lon="-3.950168">
        <ele>1823.425</ele>
        <time>2021-07-29T12:22:43Z</time>
      </trkpt>
      <trkpt lat="40.804486" lon="-3.950165">
        <ele>1824.008</ele>
        <time>2021-07-29T12:22:46Z</time>
      </trkpt>
      <trkpt lat="40.804464" lon="-3.950157">
        <ele>1824.426</ele>
        <time>2021-07-29T12:22:49Z</time>
      </trkpt>
      <trkpt lat="40.804445" lon="-3.950142">
        <ele>1824.538</ele>
        <time>2021-07-29T12:22:51Z</time>
      </trkpt>
      <trkpt lat="40.804429" lon="-3.950118">
        <ele>1824.655</ele>
        <time>2021-07-29T12:22:53Z</time>
      </trkpt>
      <trkpt lat="40.804410" lon="-3.950090">
        <ele>1824.762</ele>
        <time>2021-07-29T12:22:55Z</time>
      </trkpt>
      <trkpt lat="40.804381" lon="-3.950092">
        <ele>1825.623</ele>
        <time>2021-07-29T12:22:57Z</time>
      </trkpt>
      <trkpt lat="40.804371" lon="-3.950070">
        <ele>1825.523</ele>
        <time>2021-07-29T12:22:59Z</time>
      </trkpt>
      <trkpt lat="40.804355" lon="-3.950046">
        <ele>1825.646</ele>
        <time>2021-07-29T12:23:01Z</time>
      </trkpt>
      <trkpt lat="40.804339" lon="-3.950033">
        <ele>1825.935</ele>
        <time>2021-07-29T12:23:04Z</time>
      </trkpt>
      <trkpt lat="40.804326" lon="-3.949995">
        <ele>1825.818</ele>
        <time>2021-07-29T12:23:07Z</time>
      </trkpt>
      <trkpt lat="40.804317" lon="-3.949972">
        <ele>1825.898</ele>
        <time>2021-07-29T12:23:08Z</time>
      </trkpt>
      <trkpt lat="40.804294" lon="-3.949937">
        <ele>1826.217</ele>
        <time>2021-07-29T12:23:11Z</time>
      </trkpt>
      <trkpt lat="40.804282" lon="-3.949913">
        <ele>1826.308</ele>
        <time>2021-07-29T12:23:13Z</time>
      </trkpt>
      <trkpt lat="40.804266" lon="-3.949900">
        <ele>1826.618</ele>
        <time>2021-07-29T12:23:15Z</time>
      </trkpt>
      <trkpt lat="40.804237" lon="-3.949880">
        <ele>1827.250</ele>
        <time>2021-07-29T12:23:17Z</time>
      </trkpt>
      <trkpt lat="40.804218" lon="-3.949874">
        <ele>1827.717</ele>
        <time>2021-07-29T12:23:20Z</time>
      </trkpt>
      <trkpt lat="40.804195" lon="-3.949840">
        <ele>1827.964</ele>
        <time>2021-07-29T12:23:23Z</time>
      </trkpt>
      <trkpt lat="40.804198" lon="-3.949810">
        <ele>1827.465</ele>
        <time>2021-07-29T12:23:27Z</time>
      </trkpt>
      <trkpt lat="40.804227" lon="-3.949810">
        <ele>1826.685</ele>
        <time>2021-07-29T12:23:29Z</time>
      </trkpt>
      <trkpt lat="40.804230" lon="-3.949780">
        <ele>1826.158</ele>
        <time>2021-07-29T12:23:33Z</time>
      </trkpt>
      <trkpt lat="40.804250" lon="-3.949755">
        <ele>1825.317</ele>
        <time>2021-07-29T12:23:38Z</time>
      </trkpt>
      <trkpt lat="40.804246" lon="-3.949730">
        <ele>1825.137</ele>
        <time>2021-07-29T12:23:40Z</time>
      </trkpt>
      <trkpt lat="40.804259" lon="-3.949708">
        <ele>1825.049</ele>
        <time>2021-07-29T12:23:43Z</time>
      </trkpt>
      <trkpt lat="40.804282" lon="-3.949693">
        <ele>1824.813</ele>
        <time>2021-07-29T12:23:46Z</time>
      </trkpt>
      <trkpt lat="40.804291" lon="-3.949668">
        <ele>1825.108</ele>
        <time>2021-07-29T12:23:51Z</time>
      </trkpt>
      <trkpt lat="40.804294" lon="-3.949642">
        <ele>1825.670</ele>
        <time>2021-07-29T12:23:58Z</time>
      </trkpt>
      <trkpt lat="40.804272" lon="-3.949618">
        <ele>1826.642</ele>
        <time>2021-07-29T12:24:01Z</time>
      </trkpt>
      <trkpt lat="40.804259" lon="-3.949602">
        <ele>1827.349</ele>
        <time>2021-07-29T12:24:20Z</time>
      </trkpt>
      <trkpt lat="40.804256" lon="-3.949575">
        <ele>1827.986</ele>
        <time>2021-07-29T12:24:22Z</time>
      </trkpt>
      <trkpt lat="40.804250" lon="-3.949552">
        <ele>1828.587</ele>
        <time>2021-07-29T12:24:24Z</time>
      </trkpt>
      <trkpt lat="40.804240" lon="-3.949527">
        <ele>1829.217</ele>
        <time>2021-07-29T12:24:26Z</time>
      </trkpt>
      <trkpt lat="40.804227" lon="-3.949498">
        <ele>1830.020</ele>
        <time>2021-07-29T12:24:28Z</time>
      </trkpt>
      <trkpt lat="40.804218" lon="-3.949473">
        <ele>1830.759</ele>
        <time>2021-07-29T12:24:31Z</time>
      </trkpt>
      <trkpt lat="40.804208" lon="-3.949445">
        <ele>1831.448</ele>
        <time>2021-07-29T12:24:35Z</time>
      </trkpt>
      <trkpt lat="40.804189" lon="-3.949437">
        <ele>1831.861</ele>
        <time>2021-07-29T12:24:39Z</time>
      </trkpt>
      <trkpt lat="40.804170" lon="-3.949425">
        <ele>1832.417</ele>
        <time>2021-07-29T12:24:44Z</time>
      </trkpt>
      <trkpt lat="40.804170" lon="-3.949397">
        <ele>1833.008</ele>
        <time>2021-07-29T12:24:50Z</time>
      </trkpt>
      <trkpt lat="40.804170" lon="-3.949372">
        <ele>1833.521</ele>
        <time>2021-07-29T12:24:54Z</time>
      </trkpt>
      <trkpt lat="40.804160" lon="-3.949345">
        <ele>1834.333</ele>
        <time>2021-07-29T12:24:58Z</time>
      </trkpt>
      <trkpt lat="40.804150" lon="-3.949324">
        <ele>1835.070</ele>
        <time>2021-07-29T12:25:01Z</time>
      </trkpt>
      <trkpt lat="40.804128" lon="-3.949310">
        <ele>1835.787</ele>
        <time>2021-07-29T12:25:04Z</time>
      </trkpt>
      <trkpt lat="40.804109" lon="-3.949307">
        <ele>1836.298</ele>
        <time>2021-07-29T12:25:09Z</time>
      </trkpt>
      <trkpt lat="40.804096" lon="-3.949287">
        <ele>1837.038</ele>
        <time>2021-07-29T12:25:12Z</time>
      </trkpt>
      <trkpt lat="40.804093" lon="-3.949258">
        <ele>1837.781</ele>
        <time>2021-07-29T12:25:16Z</time>
      </trkpt>
      <trkpt lat="40.804083" lon="-3.949228">
        <ele>1838.780</ele>
        <time>2021-07-29T12:25:19Z</time>
      </trkpt>
      <trkpt lat="40.804067" lon="-3.949202">
        <ele>1839.798</ele>
        <time>2021-07-29T12:25:23Z</time>
      </trkpt>
      <trkpt lat="40.804054" lon="-3.949177">
        <ele>1840.615</ele>
        <time>2021-07-29T12:25:26Z</time>
      </trkpt>
      <trkpt lat="40.804029" lon="-3.949188">
        <ele>1840.926</ele>
        <time>2021-07-29T12:25:30Z</time>
      </trkpt>
      <trkpt lat="40.804010" lon="-3.949197">
        <ele>1841.208</ele>
        <time>2021-07-29T12:25:34Z</time>
      </trkpt>
      <trkpt lat="40.803984" lon="-3.949203">
        <ele>1841.616</ele>
        <time>2021-07-29T12:25:38Z</time>
      </trkpt>
      <trkpt lat="40.803968" lon="-3.949220">
        <ele>1841.688</ele>
        <time>2021-07-29T12:25:41Z</time>
      </trkpt>
      <trkpt lat="40.803949" lon="-3.949222">
        <ele>1842.065</ele>
        <time>2021-07-29T12:25:45Z</time>
      </trkpt>
      <trkpt lat="40.803930" lon="-3.949220">
        <ele>1842.592</ele>
        <time>2021-07-29T12:25:48Z</time>
      </trkpt>
      <trkpt lat="40.803914" lon="-3.949208">
        <ele>1843.223</ele>
        <time>2021-07-29T12:25:54Z</time>
      </trkpt>
      <trkpt lat="40.803894" lon="-3.949192">
        <ele>1844.123</ele>
        <time>2021-07-29T12:26:12Z</time>
      </trkpt>
      <trkpt lat="40.803875" lon="-3.949174">
        <ele>1845.016</ele>
        <time>2021-07-29T12:26:14Z</time>
      </trkpt>
      <trkpt lat="40.803853" lon="-3.949157">
        <ele>1845.925</ele>
        <time>2021-07-29T12:26:16Z</time>
      </trkpt>
      <trkpt lat="40.803834" lon="-3.949144">
        <ele>1846.534</ele>
        <time>2021-07-29T12:26:18Z</time>
      </trkpt>
      <trkpt lat="40.803811" lon="-3.949132">
        <ele>1847.255</ele>
        <time>2021-07-29T12:26:20Z</time>
      </trkpt>
      <trkpt lat="40.803789" lon="-3.949138">
        <ele>1847.410</ele>
        <time>2021-07-29T12:26:24Z</time>
      </trkpt>
      <trkpt lat="40.803770" lon="-3.949135">
        <ele>1847.808</ele>
        <time>2021-07-29T12:26:27Z</time>
      </trkpt>
      <trkpt lat="40.803750" lon="-3.949133">
        <ele>1848.260</ele>
        <time>2021-07-29T12:26:30Z</time>
      </trkpt>
      <trkpt lat="40.803731" lon="-3.949145">
        <ele>1848.372</ele>
        <time>2021-07-29T12:26:33Z</time>
      </trkpt>
      <trkpt lat="40.803712" lon="-3.949154">
        <ele>1848.549</ele>
        <time>2021-07-29T12:26:35Z</time>
      </trkpt>
      <trkpt lat="40.803693" lon="-3.949154">
        <ele>1848.876</ele>
        <time>2021-07-29T12:26:38Z</time>
      </trkpt>
      <trkpt lat="40.803670" lon="-3.949147">
        <ele>1849.467</ele>
        <time>2021-07-29T12:26:41Z</time>
      </trkpt>
      <trkpt lat="40.803654" lon="-3.949132">
        <ele>1850.067</ele>
        <time>2021-07-29T12:26:45Z</time>
      </trkpt>
      <trkpt lat="40.803658" lon="-3.949107">
        <ele>1850.430</ele>
        <time>2021-07-29T12:26:49Z</time>
      </trkpt>
      <trkpt lat="40.803661" lon="-3.949078">
        <ele>1851.019</ele>
        <time>2021-07-29T12:26:52Z</time>
      </trkpt>
      <trkpt lat="40.803651" lon="-3.949053">
        <ele>1851.758</ele>
        <time>2021-07-29T12:26:55Z</time>
      </trkpt>
      <trkpt lat="40.803638" lon="-3.949026">
        <ele>1852.652</ele>
        <time>2021-07-29T12:26:59Z</time>
      </trkpt>
      <trkpt lat="40.803622" lon="-3.949015">
        <ele>1853.117</ele>
        <time>2021-07-29T12:27:02Z</time>
      </trkpt>
      <trkpt lat="40.803600" lon="-3.949000">
        <ele>1853.808</ele>
        <time>2021-07-29T12:27:06Z</time>
      </trkpt>
      <trkpt lat="40.803590" lon="-3.948978">
        <ele>1854.482</ele>
        <time>2021-07-29T12:27:10Z</time>
      </trkpt>
      <trkpt lat="40.803578" lon="-3.948955">
        <ele>1855.024</ele>
        <time>2021-07-29T12:27:14Z</time>
      </trkpt>
      <trkpt lat="40.803558" lon="-3.948940">
        <ele>1855.751</ele>
        <time>2021-07-29T12:27:18Z</time>
      </trkpt>
      <trkpt lat="40.803533" lon="-3.948925">
        <ele>1856.328</ele>
        <time>2021-07-29T12:27:21Z</time>
      </trkpt>
      <trkpt lat="40.803514" lon="-3.948917">
        <ele>1856.869</ele>
        <time>2021-07-29T12:27:23Z</time>
      </trkpt>
      <trkpt lat="40.803494" lon="-3.948920">
        <ele>1857.099</ele>
        <time>2021-07-29T12:27:25Z</time>
      </trkpt>
      <trkpt lat="40.803472" lon="-3.948913">
        <ele>1857.582</ele>
        <time>2021-07-29T12:27:28Z</time>
      </trkpt>
      <trkpt lat="40.803453" lon="-3.948910">
        <ele>1857.811</ele>
        <time>2021-07-29T12:27:30Z</time>
      </trkpt>
      <trkpt lat="40.803424" lon="-3.948900">
        <ele>1858.518</ele>
        <time>2021-07-29T12:27:33Z</time>
      </trkpt>
      <trkpt lat="40.803402" lon="-3.948895">
        <ele>1858.998</ele>
        <time>2021-07-29T12:27:36Z</time>
      </trkpt>
      <trkpt lat="40.803379" lon="-3.948897">
        <ele>1859.217</ele>
        <time>2021-07-29T12:27:40Z</time>
      </trkpt>
      <trkpt lat="40.803357" lon="-3.948905">
        <ele>1859.308</ele>
        <time>2021-07-29T12:27:43Z</time>
      </trkpt>
      <trkpt lat="40.803338" lon="-3.948912">
        <ele>1859.478</ele>
        <time>2021-07-29T12:27:46Z</time>
      </trkpt>
      <trkpt lat="40.803315" lon="-3.948930">
        <ele>1859.330</ele>
        <time>2021-07-29T12:27:48Z</time>
      </trkpt>
      <trkpt lat="40.803293" lon="-3.948940">
        <ele>1859.217</ele>
        <time>2021-07-29T12:27:51Z</time>
      </trkpt>
      <trkpt lat="40.803267" lon="-3.948932">
        <ele>1859.634</ele>
        <time>2021-07-29T12:27:54Z</time>
      </trkpt>
      <trkpt lat="40.803254" lon="-3.948902">
        <ele>1860.335</ele>
        <time>2021-07-29T12:27:56Z</time>
      </trkpt>
      <trkpt lat="40.803229" lon="-3.948890">
        <ele>1860.745</ele>
        <time>2021-07-29T12:27:59Z</time>
      </trkpt>
      <trkpt lat="40.803206" lon="-3.948885">
        <ele>1861.018</ele>
        <time>2021-07-29T12:28:01Z</time>
      </trkpt>
      <trkpt lat="40.803187" lon="-3.948912">
        <ele>1860.667</ele>
        <time>2021-07-29T12:28:04Z</time>
      </trkpt>
      <trkpt lat="40.803168" lon="-3.948907">
        <ele>1860.877</ele>
        <time>2021-07-29T12:28:06Z</time>
      </trkpt>
      <trkpt lat="40.803146" lon="-3.948907">
        <ele>1861.061</ele>
        <time>2021-07-29T12:28:09Z</time>
      </trkpt>
      <trkpt lat="40.803126" lon="-3.948903">
        <ele>1861.227</ele>
        <time>2021-07-29T12:28:11Z</time>
      </trkpt>
      <trkpt lat="40.803101" lon="-3.948892">
        <ele>1861.608</ele>
        <time>2021-07-29T12:28:14Z</time>
      </trkpt>
      <trkpt lat="40.803082" lon="-3.948900">
        <ele>1861.644</ele>
        <time>2021-07-29T12:28:17Z</time>
      </trkpt>
      <trkpt lat="40.803059" lon="-3.948897">
        <ele>1861.876</ele>
        <time>2021-07-29T12:28:20Z</time>
      </trkpt>
      <trkpt lat="40.803037" lon="-3.948893">
        <ele>1862.383</ele>
        <time>2021-07-29T12:28:23Z</time>
      </trkpt>
      <trkpt lat="40.803014" lon="-3.948888">
        <ele>1862.820</ele>
        <time>2021-07-29T12:28:27Z</time>
      </trkpt>
      <trkpt lat="40.802995" lon="-3.948882">
        <ele>1863.221</ele>
        <time>2021-07-29T12:28:31Z</time>
      </trkpt>
      <trkpt lat="40.802970" lon="-3.948872">
        <ele>1863.921</ele>
        <time>2021-07-29T12:28:34Z</time>
      </trkpt>
      <trkpt lat="40.802950" lon="-3.948877">
        <ele>1864.214</ele>
        <time>2021-07-29T12:28:36Z</time>
      </trkpt>
      <trkpt lat="40.802931" lon="-3.948878">
        <ele>1864.513</ele>
        <time>2021-07-29T12:28:39Z</time>
      </trkpt>
      <trkpt lat="40.802909" lon="-3.948860">
        <ele>1865.378</ele>
        <time>2021-07-29T12:28:42Z</time>
      </trkpt>
      <trkpt lat="40.802886" lon="-3.948844">
        <ele>1866.133</ele>
        <time>2021-07-29T12:28:46Z</time>
      </trkpt>
      <trkpt lat="40.802867" lon="-3.948842">
        <ele>1866.526</ele>
        <time>2021-07-29T12:28:49Z</time>
      </trkpt>
      <trkpt lat="40.802848" lon="-3.948837">
        <ele>1867.008</ele>
        <time>2021-07-29T12:28:51Z</time>
      </trkpt>
      <trkpt lat="40.802829" lon="-3.948834">
        <ele>1867.454</ele>
        <time>2021-07-29T12:28:54Z</time>
      </trkpt>
      <trkpt lat="40.802806" lon="-3.948815">
        <ele>1868.346</ele>
        <time>2021-07-29T12:28:58Z</time>
      </trkpt>
      <trkpt lat="40.802787" lon="-3.948804">
        <ele>1869.093</ele>
        <time>2021-07-29T12:29:01Z</time>
      </trkpt>
      <trkpt lat="40.802765" lon="-3.948802">
        <ele>1869.530</ele>
        <time>2021-07-29T12:29:04Z</time>
      </trkpt>
      <trkpt lat="40.802742" lon="-3.948805">
        <ele>1870.111</ele>
        <time>2021-07-29T12:29:07Z</time>
      </trkpt>
      <trkpt lat="40.802723" lon="-3.948805">
        <ele>1870.661</ele>
        <time>2021-07-29T12:29:10Z</time>
      </trkpt>
      <trkpt lat="40.802698" lon="-3.948802">
        <ele>1871.314</ele>
        <time>2021-07-29T12:29:14Z</time>
      </trkpt>
      <trkpt lat="40.802678" lon="-3.948798">
        <ele>1871.973</ele>
        <time>2021-07-29T12:29:17Z</time>
      </trkpt>
      <trkpt lat="40.802659" lon="-3.948788">
        <ele>1872.748</ele>
        <time>2021-07-29T12:29:19Z</time>
      </trkpt>
      <trkpt lat="40.802640" lon="-3.948800">
        <ele>1872.961</ele>
        <time>2021-07-29T12:29:27Z</time>
      </trkpt>
      <trkpt lat="40.802624" lon="-3.948818">
        <ele>1872.917</ele>
        <time>2021-07-29T12:29:31Z</time>
      </trkpt>
      <trkpt lat="40.802611" lon="-3.948838">
        <ele>1872.908</ele>
        <time>2021-07-29T12:29:33Z</time>
      </trkpt>
      <trkpt lat="40.802592" lon="-3.948858">
        <ele>1873.081</ele>
        <time>2021-07-29T12:29:36Z</time>
      </trkpt>
      <trkpt lat="40.802570" lon="-3.948862">
        <ele>1873.593</ele>
        <time>2021-07-29T12:29:39Z</time>
      </trkpt>
      <trkpt lat="40.802550" lon="-3.948858">
        <ele>1874.240</ele>
        <time>2021-07-29T12:29:41Z</time>
      </trkpt>
      <trkpt lat="40.802531" lon="-3.948862">
        <ele>1874.657</ele>
        <time>2021-07-29T12:29:43Z</time>
      </trkpt>
      <trkpt lat="40.802512" lon="-3.948868">
        <ele>1875.048</ele>
        <time>2021-07-29T12:29:45Z</time>
      </trkpt>
      <trkpt lat="40.802493" lon="-3.948880">
        <ele>1875.378</ele>
        <time>2021-07-29T12:29:48Z</time>
      </trkpt>
      <trkpt lat="40.802474" lon="-3.948890">
        <ele>1875.511</ele>
        <time>2021-07-29T12:29:52Z</time>
      </trkpt>
      <trkpt lat="40.802454" lon="-3.948878">
        <ele>1876.070</ele>
        <time>2021-07-29T12:29:55Z</time>
      </trkpt>
      <trkpt lat="40.802432" lon="-3.948880">
        <ele>1876.414</ele>
        <time>2021-07-29T12:29:59Z</time>
      </trkpt>
      <trkpt lat="40.802394" lon="-3.948882">
        <ele>1877.054</ele>
        <time>2021-07-29T12:30:06Z</time>
      </trkpt>
      <trkpt lat="40.802374" lon="-3.948873">
        <ele>1877.609</ele>
        <time>2021-07-29T12:30:09Z</time>
      </trkpt>
      <trkpt lat="40.802355" lon="-3.948872">
        <ele>1877.908</ele>
        <time>2021-07-29T12:30:14Z</time>
      </trkpt>
      <trkpt lat="40.802333" lon="-3.948877">
        <ele>1878.238</ele>
        <time>2021-07-29T12:30:20Z</time>
      </trkpt>
      <trkpt lat="40.802320" lon="-3.948898">
        <ele>1878.230</ele>
        <time>2021-07-29T12:30:23Z</time>
      </trkpt>
      <trkpt lat="40.802304" lon="-3.948887">
        <ele>1878.697</ele>
        <time>2021-07-29T12:30:26Z</time>
      </trkpt>
      <trkpt lat="40.802285" lon="-3.948877">
        <ele>1879.114</ele>
        <time>2021-07-29T12:30:29Z</time>
      </trkpt>
      <trkpt lat="40.802266" lon="-3.948887">
        <ele>1879.355</ele>
        <time>2021-07-29T12:30:33Z</time>
      </trkpt>
      <trkpt lat="40.802243" lon="-3.948887">
        <ele>1879.725</ele>
        <time>2021-07-29T12:30:37Z</time>
      </trkpt>
      <trkpt lat="40.802224" lon="-3.948892">
        <ele>1880.058</ele>
        <time>2021-07-29T12:30:40Z</time>
      </trkpt>
      <trkpt lat="40.802205" lon="-3.948900">
        <ele>1880.587</ele>
        <time>2021-07-29T12:30:43Z</time>
      </trkpt>
      <trkpt lat="40.802186" lon="-3.948893">
        <ele>1881.098</ele>
        <time>2021-07-29T12:30:48Z</time>
      </trkpt>
      <trkpt lat="40.802170" lon="-3.948873">
        <ele>1881.815</ele>
        <time>2021-07-29T12:30:52Z</time>
      </trkpt>
      <trkpt lat="40.802150" lon="-3.948858">
        <ele>1882.726</ele>
        <time>2021-07-29T12:30:56Z</time>
      </trkpt>
      <trkpt lat="40.802131" lon="-3.948850">
        <ele>1883.408</ele>
        <time>2021-07-29T12:30:58Z</time>
      </trkpt>
      <trkpt lat="40.802115" lon="-3.948862">
        <ele>1883.676</ele>
        <time>2021-07-29T12:31:03Z</time>
      </trkpt>
      <trkpt lat="40.802102" lon="-3.948840">
        <ele>1884.468</ele>
        <time>2021-07-29T12:31:07Z</time>
      </trkpt>
      <trkpt lat="40.802086" lon="-3.948827">
        <ele>1885.045</ele>
        <time>2021-07-29T12:31:11Z</time>
      </trkpt>
      <trkpt lat="40.802067" lon="-3.948815">
        <ele>1885.882</ele>
        <time>2021-07-29T12:31:16Z</time>
      </trkpt>
      <trkpt lat="40.802045" lon="-3.948810">
        <ele>1886.463</ele>
        <time>2021-07-29T12:31:21Z</time>
      </trkpt>
      <trkpt lat="40.802026" lon="-3.948814">
        <ele>1886.943</ele>
        <time>2021-07-29T12:31:24Z</time>
      </trkpt>
      <trkpt lat="40.802003" lon="-3.948814">
        <ele>1887.536</ele>
        <time>2021-07-29T12:31:28Z</time>
      </trkpt>
      <trkpt lat="40.801984" lon="-3.948810">
        <ele>1888.195</ele>
        <time>2021-07-29T12:31:33Z</time>
      </trkpt>
      <trkpt lat="40.801965" lon="-3.948807">
        <ele>1888.639</ele>
        <time>2021-07-29T12:31:36Z</time>
      </trkpt>
      <trkpt lat="40.801949" lon="-3.948820">
        <ele>1888.901</ele>
        <time>2021-07-29T12:31:38Z</time>
      </trkpt>
      <trkpt lat="40.801930" lon="-3.948817">
        <ele>1889.321</ele>
        <time>2021-07-29T12:31:41Z</time>
      </trkpt>
      <trkpt lat="40.801910" lon="-3.948812">
        <ele>1889.908</ele>
        <time>2021-07-29T12:31:44Z</time>
      </trkpt>
      <trkpt lat="40.801891" lon="-3.948807">
        <ele>1890.370</ele>
        <time>2021-07-29T12:31:49Z</time>
      </trkpt>
      <trkpt lat="40.801869" lon="-3.948797">
        <ele>1891.082</ele>
        <time>2021-07-29T12:31:55Z</time>
      </trkpt>
      <trkpt lat="40.801850" lon="-3.948792">
        <ele>1891.459</ele>
        <time>2021-07-29T12:31:58Z</time>
      </trkpt>
      <trkpt lat="40.801830" lon="-3.948790">
        <ele>1891.986</ele>
        <time>2021-07-29T12:32:01Z</time>
      </trkpt>
      <trkpt lat="40.801814" lon="-3.948802">
        <ele>1892.117</ele>
        <time>2021-07-29T12:32:04Z</time>
      </trkpt>
      <trkpt lat="40.801795" lon="-3.948792">
        <ele>1892.637</ele>
        <time>2021-07-29T12:32:07Z</time>
      </trkpt>
      <trkpt lat="40.801773" lon="-3.948778">
        <ele>1893.350</ele>
        <time>2021-07-29T12:32:10Z</time>
      </trkpt>
      <trkpt lat="40.801757" lon="-3.948762">
        <ele>1893.929</ele>
        <time>2021-07-29T12:32:13Z</time>
      </trkpt>
      <trkpt lat="40.801738" lon="-3.948750">
        <ele>1894.597</ele>
        <time>2021-07-29T12:32:16Z</time>
      </trkpt>
      <trkpt lat="40.801718" lon="-3.948737">
        <ele>1895.123</ele>
        <time>2021-07-29T12:32:19Z</time>
      </trkpt>
      <trkpt lat="40.801699" lon="-3.948732">
        <ele>1895.625</ele>
        <time>2021-07-29T12:32:23Z</time>
      </trkpt>
      <trkpt lat="40.801693" lon="-3.948708">
        <ele>1896.008</ele>
        <time>2021-07-29T12:32:27Z</time>
      </trkpt>
      <trkpt lat="40.801674" lon="-3.948686">
        <ele>1896.836</ele>
        <time>2021-07-29T12:32:30Z</time>
      </trkpt>
      <trkpt lat="40.801667" lon="-3.948660">
        <ele>1897.388</ele>
        <time>2021-07-29T12:32:35Z</time>
      </trkpt>
      <trkpt lat="40.801654" lon="-3.948636">
        <ele>1897.965</ele>
        <time>2021-07-29T12:32:39Z</time>
      </trkpt>
      <trkpt lat="40.801632" lon="-3.948635">
        <ele>1898.412</ele>
        <time>2021-07-29T12:32:41Z</time>
      </trkpt>
      <trkpt lat="40.801610" lon="-3.948633">
        <ele>1899.063</ele>
        <time>2021-07-29T12:32:44Z</time>
      </trkpt>
      <trkpt lat="40.801587" lon="-3.948626">
        <ele>1899.693</ele>
        <time>2021-07-29T12:32:47Z</time>
      </trkpt>
      <trkpt lat="40.801565" lon="-3.948620">
        <ele>1900.146</ele>
        <time>2021-07-29T12:32:50Z</time>
      </trkpt>
      <trkpt lat="40.801539" lon="-3.948636">
        <ele>1900.575</ele>
        <time>2021-07-29T12:32:53Z</time>
      </trkpt>
      <trkpt lat="40.801520" lon="-3.948638">
        <ele>1900.994</ele>
        <time>2021-07-29T12:32:57Z</time>
      </trkpt>
      <trkpt lat="40.801514" lon="-3.948614">
        <ele>1901.357</ele>
        <time>2021-07-29T12:33:02Z</time>
      </trkpt>
      <trkpt lat="40.801494" lon="-3.948607">
        <ele>1901.822</ele>
        <time>2021-07-29T12:33:06Z</time>
      </trkpt>
      <trkpt lat="40.801478" lon="-3.948592">
        <ele>1902.608</ele>
        <time>2021-07-29T12:33:09Z</time>
      </trkpt>
      <trkpt lat="40.801459" lon="-3.948570">
        <ele>1903.586</ele>
        <time>2021-07-29T12:33:13Z</time>
      </trkpt>
      <trkpt lat="40.801437" lon="-3.948560">
        <ele>1904.218</ele>
        <time>2021-07-29T12:33:18Z</time>
      </trkpt>
      <trkpt lat="40.801418" lon="-3.948555">
        <ele>1904.865</ele>
        <time>2021-07-29T12:33:23Z</time>
      </trkpt>
      <trkpt lat="40.801398" lon="-3.948548">
        <ele>1905.432</ele>
        <time>2021-07-29T12:33:27Z</time>
      </trkpt>
      <trkpt lat="40.801382" lon="-3.948537">
        <ele>1906.083</ele>
        <time>2021-07-29T12:33:30Z</time>
      </trkpt>
      <trkpt lat="40.801366" lon="-3.948525">
        <ele>1906.863</ele>
        <time>2021-07-29T12:33:34Z</time>
      </trkpt>
      <trkpt lat="40.801347" lon="-3.948523">
        <ele>1907.396</ele>
        <time>2021-07-29T12:33:38Z</time>
      </trkpt>
      <trkpt lat="40.801322" lon="-3.948518">
        <ele>1908.065</ele>
        <time>2021-07-29T12:33:41Z</time>
      </trkpt>
      <trkpt lat="40.801302" lon="-3.948510">
        <ele>1908.746</ele>
        <time>2021-07-29T12:33:44Z</time>
      </trkpt>
      <trkpt lat="40.801283" lon="-3.948515">
        <ele>1909.188</ele>
        <time>2021-07-29T12:33:48Z</time>
      </trkpt>
      <trkpt lat="40.801261" lon="-3.948512">
        <ele>1909.716</ele>
        <time>2021-07-29T12:33:53Z</time>
      </trkpt>
      <trkpt lat="40.801242" lon="-3.948503">
        <ele>1910.308</ele>
        <time>2021-07-29T12:33:56Z</time>
      </trkpt>
      <trkpt lat="40.801222" lon="-3.948500">
        <ele>1910.911</ele>
        <time>2021-07-29T12:33:59Z</time>
      </trkpt>
      <trkpt lat="40.801203" lon="-3.948506">
        <ele>1911.283</ele>
        <time>2021-07-29T12:34:03Z</time>
      </trkpt>
      <trkpt lat="40.801194" lon="-3.948485">
        <ele>1911.840</ele>
        <time>2021-07-29T12:34:08Z</time>
      </trkpt>
      <trkpt lat="40.801178" lon="-3.948462">
        <ele>1912.667</ele>
        <time>2021-07-29T12:34:14Z</time>
      </trkpt>
      <trkpt lat="40.801168" lon="-3.948438">
        <ele>1913.218</ele>
        <time>2021-07-29T12:34:19Z</time>
      </trkpt>
      <trkpt lat="40.801158" lon="-3.948415">
        <ele>1913.898</ele>
        <time>2021-07-29T12:34:21Z</time>
      </trkpt>
      <trkpt lat="40.801139" lon="-3.948415">
        <ele>1914.261</ele>
        <time>2021-07-29T12:34:24Z</time>
      </trkpt>
      <trkpt lat="40.801120" lon="-3.948408">
        <ele>1914.730</ele>
        <time>2021-07-29T12:34:30Z</time>
      </trkpt>
      <trkpt lat="40.801101" lon="-3.948397">
        <ele>1915.494</ele>
        <time>2021-07-29T12:34:34Z</time>
      </trkpt>
      <trkpt lat="40.801088" lon="-3.948377">
        <ele>1916.057</ele>
        <time>2021-07-29T12:34:37Z</time>
      </trkpt>
      <trkpt lat="40.801062" lon="-3.948362">
        <ele>1916.922</ele>
        <time>2021-07-29T12:34:44Z</time>
      </trkpt>
      <trkpt lat="40.801050" lon="-3.948345">
        <ele>1917.408</ele>
        <time>2021-07-29T12:34:46Z</time>
      </trkpt>
      <trkpt lat="40.801037" lon="-3.948326">
        <ele>1918.066</ele>
        <time>2021-07-29T12:34:55Z</time>
      </trkpt>
      <trkpt lat="40.801021" lon="-3.948305">
        <ele>1919.068</ele>
        <time>2021-07-29T12:35:23Z</time>
      </trkpt>
      <trkpt lat="40.801005" lon="-3.948286">
        <ele>1919.815</ele>
        <time>2021-07-29T12:35:25Z</time>
      </trkpt>
      <trkpt lat="40.800992" lon="-3.948268">
        <ele>1920.562</ele>
        <time>2021-07-29T12:35:27Z</time>
      </trkpt>
      <trkpt lat="40.800976" lon="-3.948250">
        <ele>1921.433</ele>
        <time>2021-07-29T12:35:29Z</time>
      </trkpt>
      <trkpt lat="40.800960" lon="-3.948230">
        <ele>1922.243</ele>
        <time>2021-07-29T12:35:31Z</time>
      </trkpt>
      <trkpt lat="40.800950" lon="-3.948208">
        <ele>1923.036</ele>
        <time>2021-07-29T12:35:37Z</time>
      </trkpt>
      <trkpt lat="40.800938" lon="-3.948192">
        <ele>1923.655</ele>
        <time>2021-07-29T12:35:41Z</time>
      </trkpt>
      <trkpt lat="40.800925" lon="-3.948175">
        <ele>1924.378</ele>
        <time>2021-07-29T12:35:45Z</time>
      </trkpt>
      <trkpt lat="40.800912" lon="-3.948150">
        <ele>1925.233</ele>
        <time>2021-07-29T12:35:50Z</time>
      </trkpt>
      <trkpt lat="40.800893" lon="-3.948138">
        <ele>1925.926</ele>
        <time>2021-07-29T12:35:53Z</time>
      </trkpt>
      <trkpt lat="40.800874" lon="-3.948127">
        <ele>1926.508</ele>
        <time>2021-07-29T12:35:57Z</time>
      </trkpt>
      <trkpt lat="40.800858" lon="-3.948114">
        <ele>1927.294</ele>
        <time>2021-07-29T12:36:01Z</time>
      </trkpt>
      <trkpt lat="40.800842" lon="-3.948102">
        <ele>1927.876</ele>
        <time>2021-07-29T12:36:05Z</time>
      </trkpt>
      <trkpt lat="40.800826" lon="-3.948088">
        <ele>1928.533</ele>
        <time>2021-07-29T12:36:09Z</time>
      </trkpt>
      <trkpt lat="40.800806" lon="-3.948078">
        <ele>1929.240</ele>
        <time>2021-07-29T12:36:15Z</time>
      </trkpt>
      <trkpt lat="40.800790" lon="-3.948062">
        <ele>1930.091</ele>
        <time>2021-07-29T12:36:20Z</time>
      </trkpt>
      <trkpt lat="40.800771" lon="-3.948055">
        <ele>1930.641</ele>
        <time>2021-07-29T12:36:26Z</time>
      </trkpt>
      <trkpt lat="40.800746" lon="-3.948060">
        <ele>1931.154</ele>
        <time>2021-07-29T12:36:32Z</time>
      </trkpt>
      <trkpt lat="40.800726" lon="-3.948055">
        <ele>1931.733</ele>
        <time>2021-07-29T12:36:36Z</time>
      </trkpt>
      <trkpt lat="40.800707" lon="-3.948055">
        <ele>1932.233</ele>
        <time>2021-07-29T12:36:39Z</time>
      </trkpt>
      <trkpt lat="40.800685" lon="-3.948045">
        <ele>1932.923</ele>
        <time>2021-07-29T12:36:58Z</time>
      </trkpt>
      <trkpt lat="40.800666" lon="-3.948040">
        <ele>1933.515</ele>
        <time>2021-07-29T12:37:05Z</time>
      </trkpt>
      <trkpt lat="40.800685" lon="-3.948063">
        <ele>1932.608</ele>
        <time>2021-07-29T12:40:23Z</time>
      </trkpt>
      <trkpt lat="40.800666" lon="-3.948060">
        <ele>1933.270</ele>
        <time>2021-07-29T12:40:31Z</time>
      </trkpt>
      <trkpt lat="40.800643" lon="-3.948052">
        <ele>1933.982</ele>
        <time>2021-07-29T12:41:10Z</time>
      </trkpt>
      <trkpt lat="40.800624" lon="-3.948033">
        <ele>1934.649</ele>
        <time>2021-07-29T12:41:12Z</time>
      </trkpt>
      <trkpt lat="40.800608" lon="-3.948010">
        <ele>1935.326</ele>
        <time>2021-07-29T12:41:14Z</time>
      </trkpt>
      <trkpt lat="40.800595" lon="-3.947987">
        <ele>1935.977</ele>
        <time>2021-07-29T12:41:16Z</time>
      </trkpt>
      <trkpt lat="40.800579" lon="-3.947970">
        <ele>1936.417</ele>
        <time>2021-07-29T12:41:19Z</time>
      </trkpt>
      <trkpt lat="40.800563" lon="-3.947992">
        <ele>1936.560</ele>
        <time>2021-07-29T12:41:28Z</time>
      </trkpt>
      <trkpt lat="40.800554" lon="-3.948017">
        <ele>1936.599</ele>
        <time>2021-07-29T12:41:34Z</time>
      </trkpt>
      <trkpt lat="40.800541" lon="-3.948035">
        <ele>1936.851</ele>
        <time>2021-07-29T12:41:40Z</time>
      </trkpt>
      <trkpt lat="40.800496" lon="-3.947992">
        <ele>1939.201</ele>
        <time>2021-07-29T12:42:33Z</time>
      </trkpt>
      <trkpt lat="40.800477" lon="-3.947976">
        <ele>1940.111</ele>
        <time>2021-07-29T12:42:35Z</time>
      </trkpt>
      <trkpt lat="40.800454" lon="-3.947950">
        <ele>1941.208</ele>
        <time>2021-07-29T12:42:38Z</time>
      </trkpt>
      <trkpt lat="40.800442" lon="-3.947920">
        <ele>1942.082</ele>
        <time>2021-07-29T12:42:40Z</time>
      </trkpt>
      <trkpt lat="40.800426" lon="-3.947897">
        <ele>1942.884</ele>
        <time>2021-07-29T12:42:42Z</time>
      </trkpt>
      <trkpt lat="40.800422" lon="-3.947872">
        <ele>1943.121</ele>
        <time>2021-07-29T12:42:46Z</time>
      </trkpt>
      <trkpt lat="40.800406" lon="-3.947860">
        <ele>1943.828</ele>
        <time>2021-07-29T12:42:52Z</time>
      </trkpt>
      <trkpt lat="40.800387" lon="-3.947842">
        <ele>1944.799</ele>
        <time>2021-07-29T12:42:57Z</time>
      </trkpt>
      <trkpt lat="40.800378" lon="-3.947818">
        <ele>1945.119</ele>
        <time>2021-07-29T12:43:03Z</time>
      </trkpt>
      <trkpt lat="40.800368" lon="-3.947796">
        <ele>1945.652</ele>
        <time>2021-07-29T12:43:07Z</time>
      </trkpt>
      <trkpt lat="40.800349" lon="-3.947785">
        <ele>1946.461</ele>
        <time>2021-07-29T12:43:13Z</time>
      </trkpt>
      <trkpt lat="40.800336" lon="-3.947767">
        <ele>1947.129</ele>
        <time>2021-07-29T12:43:17Z</time>
      </trkpt>
      <trkpt lat="40.800320" lon="-3.947750">
        <ele>1947.900</ele>
        <time>2021-07-29T12:43:24Z</time>
      </trkpt>
      <trkpt lat="40.800301" lon="-3.947754">
        <ele>1948.520</ele>
        <time>2021-07-29T12:43:28Z</time>
      </trkpt>
      <trkpt lat="40.800288" lon="-3.947728">
        <ele>1949.408</ele>
        <time>2021-07-29T12:43:36Z</time>
      </trkpt>
      <trkpt lat="40.800282" lon="-3.947700">
        <ele>1950.039</ele>
        <time>2021-07-29T12:43:41Z</time>
      </trkpt>
      <trkpt lat="40.800278" lon="-3.947675">
        <ele>1950.571</ele>
        <time>2021-07-29T12:43:44Z</time>
      </trkpt>
      <trkpt lat="40.800262" lon="-3.947657">
        <ele>1951.568</ele>
        <time>2021-07-29T12:43:49Z</time>
      </trkpt>
      <trkpt lat="40.800243" lon="-3.947635">
        <ele>1952.655</ele>
        <time>2021-07-29T12:43:55Z</time>
      </trkpt>
      <trkpt lat="40.800240" lon="-3.947610">
        <ele>1953.186</ele>
        <time>2021-07-29T12:43:58Z</time>
      </trkpt>
      <trkpt lat="40.800227" lon="-3.947590">
        <ele>1954.026</ele>
        <time>2021-07-29T12:44:02Z</time>
      </trkpt>
      <trkpt lat="40.800221" lon="-3.947567">
        <ele>1954.589</ele>
        <time>2021-07-29T12:44:11Z</time>
      </trkpt>
      <trkpt lat="40.800202" lon="-3.947552">
        <ele>1955.648</ele>
        <time>2021-07-29T12:44:16Z</time>
      </trkpt>
      <trkpt lat="40.800182" lon="-3.947550">
        <ele>1956.533</ele>
        <time>2021-07-29T12:44:22Z</time>
      </trkpt>
      <trkpt lat="40.800160" lon="-3.947555">
        <ele>1957.423</ele>
        <time>2021-07-29T12:44:26Z</time>
      </trkpt>
      <trkpt lat="40.800141" lon="-3.947547">
        <ele>1958.315</ele>
        <time>2021-07-29T12:44:32Z</time>
      </trkpt>
      <trkpt lat="40.800138" lon="-3.947522">
        <ele>1958.808</ele>
        <time>2021-07-29T12:44:40Z</time>
      </trkpt>
      <trkpt lat="40.800128" lon="-3.947490">
        <ele>1959.670</ele>
        <time>2021-07-29T12:44:59Z</time>
      </trkpt>
      <trkpt lat="40.800109" lon="-3.947448">
        <ele>1961.172</ele>
        <time>2021-07-29T12:45:01Z</time>
      </trkpt>
      <trkpt lat="40.800102" lon="-3.947424">
        <ele>1961.869</ele>
        <time>2021-07-29T12:45:02Z</time>
      </trkpt>
      <trkpt lat="40.800090" lon="-3.947402">
        <ele>1962.626</ele>
        <time>2021-07-29T12:45:04Z</time>
      </trkpt>
      <trkpt lat="40.800070" lon="-3.947384">
        <ele>1963.747</ele>
        <time>2021-07-29T12:45:06Z</time>
      </trkpt>
      <trkpt lat="40.800051" lon="-3.947367">
        <ele>1964.687</ele>
        <time>2021-07-29T12:45:13Z</time>
      </trkpt>
      <trkpt lat="40.800042" lon="-3.947345">
        <ele>1965.210</ele>
        <time>2021-07-29T12:45:21Z</time>
      </trkpt>
      <trkpt lat="40.800045" lon="-3.947320">
        <ele>1965.449</ele>
        <time>2021-07-29T12:45:25Z</time>
      </trkpt>
      <trkpt lat="40.800045" lon="-3.947293">
        <ele>1965.863</ele>
        <time>2021-07-29T12:45:29Z</time>
      </trkpt>
      <trkpt lat="40.800058" lon="-3.947262">
        <ele>1965.844</ele>
        <time>2021-07-29T12:45:33Z</time>
      </trkpt>
      <trkpt lat="40.800061" lon="-3.947238">
        <ele>1966.018</ele>
        <time>2021-07-29T12:45:37Z</time>
      </trkpt>
      <trkpt lat="40.800058" lon="-3.947208">
        <ele>1966.608</ele>
        <time>2021-07-29T12:45:42Z</time>
      </trkpt>
      <trkpt lat="40.800045" lon="-3.947192">
        <ele>1967.343</ele>
        <time>2021-07-29T12:45:47Z</time>
      </trkpt>
      <trkpt lat="40.800048" lon="-3.947167">
        <ele>1967.835</ele>
        <time>2021-07-29T12:45:52Z</time>
      </trkpt>
      <trkpt lat="40.800032" lon="-3.947153">
        <ele>1968.542</ele>
        <time>2021-07-29T12:45:58Z</time>
      </trkpt>
      <trkpt lat="40.800019" lon="-3.947133">
        <ele>1969.289</ele>
        <time>2021-07-29T12:46:09Z</time>
      </trkpt>
      <trkpt lat="40.800006" lon="-3.947115">
        <ele>1969.860</ele>
        <time>2021-07-29T12:46:14Z</time>
      </trkpt>
      <trkpt lat="40.799990" lon="-3.947100">
        <ele>1970.660</ele>
        <time>2021-07-29T12:46:16Z</time>
      </trkpt>
      <trkpt lat="40.799971" lon="-3.947092">
        <ele>1971.513</ele>
        <time>2021-07-29T12:46:20Z</time>
      </trkpt>
      <trkpt lat="40.799962" lon="-3.947067">
        <ele>1972.412</ele>
        <time>2021-07-29T12:46:24Z</time>
      </trkpt>
      <trkpt lat="40.799952" lon="-3.947044">
        <ele>1973.297</ele>
        <time>2021-07-29T12:46:29Z</time>
      </trkpt>
      <trkpt lat="40.799930" lon="-3.947057">
        <ele>1973.823</ele>
        <time>2021-07-29T12:46:33Z</time>
      </trkpt>
      <trkpt lat="40.799910" lon="-3.947042">
        <ele>1974.925</ele>
        <time>2021-07-29T12:46:38Z</time>
      </trkpt>
      <trkpt lat="40.799898" lon="-3.947023">
        <ele>1975.708</ele>
        <time>2021-07-29T12:46:41Z</time>
      </trkpt>
      <trkpt lat="40.799882" lon="-3.947007">
        <ele>1976.676</ele>
        <time>2021-07-29T12:46:44Z</time>
      </trkpt>
      <trkpt lat="40.799869" lon="-3.946988">
        <ele>1977.528</ele>
        <time>2021-07-29T12:46:47Z</time>
      </trkpt>
      <trkpt lat="40.799853" lon="-3.946967">
        <ele>1978.595</ele>
        <time>2021-07-29T12:46:51Z</time>
      </trkpt>
      <trkpt lat="40.799837" lon="-3.946943">
        <ele>1979.592</ele>
        <time>2021-07-29T12:46:55Z</time>
      </trkpt>
      <trkpt lat="40.799821" lon="-3.946926">
        <ele>1980.533</ele>
        <time>2021-07-29T12:47:00Z</time>
      </trkpt>
      <trkpt lat="40.799808" lon="-3.946900">
        <ele>1981.643</ele>
        <time>2021-07-29T12:47:06Z</time>
      </trkpt>
      <trkpt lat="40.799792" lon="-3.946886">
        <ele>1982.516</ele>
        <time>2021-07-29T12:47:09Z</time>
      </trkpt>
      <trkpt lat="40.799786" lon="-3.946860">
        <ele>1983.385</ele>
        <time>2021-07-29T12:47:16Z</time>
      </trkpt>
      <trkpt lat="40.799782" lon="-3.946835">
        <ele>1983.934</ele>
        <time>2021-07-29T12:47:20Z</time>
      </trkpt>
      <trkpt lat="40.799763" lon="-3.946825">
        <ele>1984.855</ele>
        <time>2021-07-29T12:47:23Z</time>
      </trkpt>
      <trkpt lat="40.799744" lon="-3.946825">
        <ele>1985.410</ele>
        <time>2021-07-29T12:47:27Z</time>
      </trkpt>
      <trkpt lat="40.799728" lon="-3.946813">
        <ele>1986.208</ele>
        <time>2021-07-29T12:47:36Z</time>
      </trkpt>
      <trkpt lat="40.799712" lon="-3.946800">
        <ele>1987.160</ele>
        <time>2021-07-29T12:47:41Z</time>
      </trkpt>
      <trkpt lat="40.799728" lon="-3.946785">
        <ele>1986.722</ele>
        <time>2021-07-29T12:47:47Z</time>
      </trkpt>
      <trkpt lat="40.799725" lon="-3.946758">
        <ele>1987.349</ele>
        <time>2021-07-29T12:47:52Z</time>
      </trkpt>
      <trkpt lat="40.799718" lon="-3.946734">
        <ele>1988.086</ele>
        <time>2021-07-29T12:47:56Z</time>
      </trkpt>
      <trkpt lat="40.799725" lon="-3.946708">
        <ele>1988.217</ele>
        <time>2021-07-29T12:48:04Z</time>
      </trkpt>
      <trkpt lat="40.799722" lon="-3.946680">
        <ele>1988.857</ele>
        <time>2021-07-29T12:48:08Z</time>
      </trkpt>
      <trkpt lat="40.799712" lon="-3.946658">
        <ele>1989.770</ele>
        <time>2021-07-29T12:48:13Z</time>
      </trkpt>
      <trkpt lat="40.799722" lon="-3.946630">
        <ele>1990.189</ele>
        <time>2021-07-29T12:48:20Z</time>
      </trkpt>
      <trkpt lat="40.799712" lon="-3.946608">
        <ele>1991.166</ele>
        <time>2021-07-29T12:48:24Z</time>
      </trkpt>
      <trkpt lat="40.799693" lon="-3.946583">
        <ele>1992.629</ele>
        <time>2021-07-29T12:48:29Z</time>
      </trkpt>
      <trkpt lat="40.799690" lon="-3.946556">
        <ele>1993.521</ele>
        <time>2021-07-29T12:48:37Z</time>
      </trkpt>
      <trkpt lat="40.799674" lon="-3.946545">
        <ele>1994.508</ele>
        <time>2021-07-29T12:48:45Z</time>
      </trkpt>
      <trkpt lat="40.799661" lon="-3.946522">
        <ele>1995.753</ele>
        <time>2021-07-29T12:48:49Z</time>
      </trkpt>
      <trkpt lat="40.799648" lon="-3.946493">
        <ele>1997.025</ele>
        <time>2021-07-29T12:48:56Z</time>
      </trkpt>
      <trkpt lat="40.799645" lon="-3.946468">
        <ele>1997.922</ele>
        <time>2021-07-29T12:49:03Z</time>
      </trkpt>
      <trkpt lat="40.799638" lon="-3.946445">
        <ele>1998.839</ele>
        <time>2021-07-29T12:49:10Z</time>
      </trkpt>
      <trkpt lat="40.799622" lon="-3.946432">
        <ele>1999.880</ele>
        <time>2021-07-29T12:49:13Z</time>
      </trkpt>
      <trkpt lat="40.799603" lon="-3.946428">
        <ele>2000.760</ele>
        <time>2021-07-29T12:49:20Z</time>
      </trkpt>
      <trkpt lat="40.799587" lon="-3.946412">
        <ele>2001.713</ele>
        <time>2021-07-29T12:49:26Z</time>
      </trkpt>
      <trkpt lat="40.799581" lon="-3.946370">
        <ele>2003.152</ele>
        <time>2021-07-29T12:49:56Z</time>
      </trkpt>
      <trkpt lat="40.799568" lon="-3.946344">
        <ele>2004.289</ele>
        <time>2021-07-29T12:49:58Z</time>
      </trkpt>
      <trkpt lat="40.799555" lon="-3.946317">
        <ele>2005.306</ele>
        <time>2021-07-29T12:50:00Z</time>
      </trkpt>
      <trkpt lat="40.799546" lon="-3.946292">
        <ele>2006.226</ele>
        <time>2021-07-29T12:50:02Z</time>
      </trkpt>
      <trkpt lat="40.799539" lon="-3.946265">
        <ele>2007.108</ele>
        <time>2021-07-29T12:50:04Z</time>
      </trkpt>
      <trkpt lat="40.799539" lon="-3.946240">
        <ele>2007.785</ele>
        <time>2021-07-29T12:50:11Z</time>
      </trkpt>
      <trkpt lat="40.799526" lon="-3.946223">
        <ele>2008.517</ele>
        <time>2021-07-29T12:50:15Z</time>
      </trkpt>
      <trkpt lat="40.799514" lon="-3.946202">
        <ele>2009.364</ele>
        <time>2021-07-29T12:50:18Z</time>
      </trkpt>
      <trkpt lat="40.799514" lon="-3.946176">
        <ele>2009.831</ele>
        <time>2021-07-29T12:50:21Z</time>
      </trkpt>
      <trkpt lat="40.799523" lon="-3.946150">
        <ele>2010.242</ele>
        <time>2021-07-29T12:50:25Z</time>
      </trkpt>
      <trkpt lat="40.799526" lon="-3.946120">
        <ele>2010.762</ele>
        <time>2021-07-29T12:50:29Z</time>
      </trkpt>
      <trkpt lat="40.799514" lon="-3.946097">
        <ele>2011.665</ele>
        <time>2021-07-29T12:50:32Z</time>
      </trkpt>
      <trkpt lat="40.799494" lon="-3.946077">
        <ele>2012.594</ele>
        <time>2021-07-29T12:50:37Z</time>
      </trkpt>
      <trkpt lat="40.799507" lon="-3.946060">
        <ele>2012.655</ele>
        <time>2021-07-29T12:50:41Z</time>
      </trkpt>
      <trkpt lat="40.799507" lon="-3.946032">
        <ele>2013.207</ele>
        <time>2021-07-29T12:50:45Z</time>
      </trkpt>
      <trkpt lat="40.799504" lon="-3.946007">
        <ele>2013.817</ele>
        <time>2021-07-29T12:50:52Z</time>
      </trkpt>
      <trkpt lat="40.799504" lon="-3.945980">
        <ele>2014.408</ele>
        <time>2021-07-29T12:50:59Z</time>
      </trkpt>
      <trkpt lat="40.799494" lon="-3.945952">
        <ele>2015.192</ele>
        <time>2021-07-29T12:51:08Z</time>
      </trkpt>
      <trkpt lat="40.799491" lon="-3.945922">
        <ele>2015.884</ele>
        <time>2021-07-29T12:51:13Z</time>
      </trkpt>
      <trkpt lat="40.799494" lon="-3.945893">
        <ele>2016.471</ele>
        <time>2021-07-29T12:51:19Z</time>
      </trkpt>
      <trkpt lat="40.799491" lon="-3.945868">
        <ele>2016.978</ele>
        <time>2021-07-29T12:51:27Z</time>
      </trkpt>
      <trkpt lat="40.799494" lon="-3.945838">
        <ele>2017.529</ele>
        <time>2021-07-29T12:51:31Z</time>
      </trkpt>
      <trkpt lat="40.799491" lon="-3.945814">
        <ele>2018.349</ele>
        <time>2021-07-29T12:51:34Z</time>
      </trkpt>
      <trkpt lat="40.799488" lon="-3.945788">
        <ele>2019.152</ele>
        <time>2021-07-29T12:51:38Z</time>
      </trkpt>
      <trkpt lat="40.799491" lon="-3.945763">
        <ele>2019.841</ele>
        <time>2021-07-29T12:51:47Z</time>
      </trkpt>
      <trkpt lat="40.799494" lon="-3.945737">
        <ele>2020.613</ele>
        <time>2021-07-29T12:51:53Z</time>
      </trkpt>
      <trkpt lat="40.799488" lon="-3.945712">
        <ele>2021.443</ele>
        <time>2021-07-29T12:51:57Z</time>
      </trkpt>
      <trkpt lat="40.799491" lon="-3.945686">
        <ele>2022.207</ele>
        <time>2021-07-29T12:52:03Z</time>
      </trkpt>
      <trkpt lat="40.799488" lon="-3.945655">
        <ele>2023.108</ele>
        <time>2021-07-29T12:52:17Z</time>
      </trkpt>
      <trkpt lat="40.799488" lon="-3.945630">
        <ele>2023.988</ele>
        <time>2021-07-29T12:52:21Z</time>
      </trkpt>
      <trkpt lat="40.799491" lon="-3.945603">
        <ele>2024.760</ele>
        <time>2021-07-29T12:52:26Z</time>
      </trkpt>
      <trkpt lat="40.799488" lon="-3.945575">
        <ele>2025.657</ele>
        <time>2021-07-29T12:52:32Z</time>
      </trkpt>
      <trkpt lat="40.799494" lon="-3.945550">
        <ele>2026.424</ele>
        <time>2021-07-29T12:52:39Z</time>
      </trkpt>
      <trkpt lat="40.799507" lon="-3.945532">
        <ele>2027.095</ele>
        <time>2021-07-29T12:52:42Z</time>
      </trkpt>
      <trkpt lat="40.799504" lon="-3.945506">
        <ele>2027.985</ele>
        <time>2021-07-29T12:52:48Z</time>
      </trkpt>
      <trkpt lat="40.799488" lon="-3.945488">
        <ele>2028.448</ele>
        <time>2021-07-29T12:52:52Z</time>
      </trkpt>
      <trkpt lat="40.799485" lon="-3.945464">
        <ele>2029.287</ele>
        <time>2021-07-29T12:52:57Z</time>
      </trkpt>
      <trkpt lat="40.799491" lon="-3.945438">
        <ele>2030.111</ele>
        <time>2021-07-29T12:53:03Z</time>
      </trkpt>
      <trkpt lat="40.799491" lon="-3.945412">
        <ele>2031.021</ele>
        <time>2021-07-29T12:53:10Z</time>
      </trkpt>
      <trkpt lat="40.799488" lon="-3.945387">
        <ele>2031.803</ele>
        <time>2021-07-29T12:53:14Z</time>
      </trkpt>
      <trkpt lat="40.799504" lon="-3.945367">
        <ele>2032.608</ele>
        <time>2021-07-29T12:53:20Z</time>
      </trkpt>
      <trkpt lat="40.799501" lon="-3.945342">
        <ele>2033.488</ele>
        <time>2021-07-29T12:53:25Z</time>
      </trkpt>
      <trkpt lat="40.799494" lon="-3.945318">
        <ele>2034.250</ele>
        <time>2021-07-29T12:53:30Z</time>
      </trkpt>
      <trkpt lat="40.799488" lon="-3.945294">
        <ele>2034.987</ele>
        <time>2021-07-29T12:53:34Z</time>
      </trkpt>
      <trkpt lat="40.799485" lon="-3.945267">
        <ele>2035.814</ele>
        <time>2021-07-29T12:53:41Z</time>
      </trkpt>
      <trkpt lat="40.799488" lon="-3.945240">
        <ele>2036.865</ele>
        <time>2021-07-29T12:53:47Z</time>
      </trkpt>
      <trkpt lat="40.799475" lon="-3.945217">
        <ele>2037.475</ele>
        <time>2021-07-29T12:53:51Z</time>
      </trkpt>
      <trkpt lat="40.799504" lon="-3.945205">
        <ele>2038.238</ele>
        <time>2021-07-29T12:54:00Z</time>
      </trkpt>
      <trkpt lat="40.799491" lon="-3.945185">
        <ele>2038.717</ele>
        <time>2021-07-29T12:54:04Z</time>
      </trkpt>
      <trkpt lat="40.799491" lon="-3.945160">
        <ele>2039.574</ele>
        <time>2021-07-29T12:54:08Z</time>
      </trkpt>
      <trkpt lat="40.799485" lon="-3.945136">
        <ele>2040.356</ele>
        <time>2021-07-29T12:54:12Z</time>
      </trkpt>
      <trkpt lat="40.799485" lon="-3.945112">
        <ele>2041.121</ele>
        <time>2021-07-29T12:54:19Z</time>
      </trkpt>
      <trkpt lat="40.799488" lon="-3.945087">
        <ele>2042.008</ele>
        <time>2021-07-29T12:54:27Z</time>
      </trkpt>
      <trkpt lat="40.799491" lon="-3.945063">
        <ele>2042.824</ele>
        <time>2021-07-29T12:54:32Z</time>
      </trkpt>
      <trkpt lat="40.799488" lon="-3.945033">
        <ele>2043.856</ele>
        <time>2021-07-29T12:54:37Z</time>
      </trkpt>
      <trkpt lat="40.799475" lon="-3.945002">
        <ele>2044.683</ele>
        <time>2021-07-29T12:54:42Z</time>
      </trkpt>
      <trkpt lat="40.799469" lon="-3.944978">
        <ele>2045.540</ele>
        <time>2021-07-29T12:54:46Z</time>
      </trkpt>
      <trkpt lat="40.799462" lon="-3.944954">
        <ele>2046.331</ele>
        <time>2021-07-29T12:54:50Z</time>
      </trkpt>
      <trkpt lat="40.799453" lon="-3.944928">
        <ele>2047.361</ele>
        <time>2021-07-29T12:54:56Z</time>
      </trkpt>
      <trkpt lat="40.799443" lon="-3.944903">
        <ele>2048.274</ele>
        <time>2021-07-29T12:55:01Z</time>
      </trkpt>
      <trkpt lat="40.799427" lon="-3.944890">
        <ele>2049.143</ele>
        <time>2021-07-29T12:55:06Z</time>
      </trkpt>
      <trkpt lat="40.799440" lon="-3.944872">
        <ele>2049.688</ele>
        <time>2021-07-29T12:55:16Z</time>
      </trkpt>
      <trkpt lat="40.799450" lon="-3.944848">
        <ele>2050.724</ele>
        <time>2021-07-29T12:55:21Z</time>
      </trkpt>
      <trkpt lat="40.799466" lon="-3.944825">
        <ele>2051.926</ele>
        <time>2021-07-29T12:55:47Z</time>
      </trkpt>
      <trkpt lat="40.799485" lon="-3.944802">
        <ele>2053.208</ele>
        <time>2021-07-29T12:55:51Z</time>
      </trkpt>
      <trkpt lat="40.799494" lon="-3.944775">
        <ele>2054.555</ele>
        <time>2021-07-29T12:55:54Z</time>
      </trkpt>
      <trkpt lat="40.799488" lon="-3.944750">
        <ele>2055.557</ele>
        <time>2021-07-29T12:55:59Z</time>
      </trkpt>
      <trkpt lat="40.799501" lon="-3.944732">
        <ele>2056.454</ele>
        <time>2021-07-29T12:56:05Z</time>
      </trkpt>
      <trkpt lat="40.799488" lon="-3.944712">
        <ele>2057.171</ele>
        <time>2021-07-29T12:56:10Z</time>
      </trkpt>
      <trkpt lat="40.799472" lon="-3.944692">
        <ele>2057.742</ele>
        <time>2021-07-29T12:56:16Z</time>
      </trkpt>
      <trkpt lat="40.799472" lon="-3.944663">
        <ele>2058.972</ele>
        <time>2021-07-29T12:56:22Z</time>
      </trkpt>
      <trkpt lat="40.799462" lon="-3.944636">
        <ele>2060.055</ele>
        <time>2021-07-29T12:56:28Z</time>
      </trkpt>
      <trkpt lat="40.799456" lon="-3.944607">
        <ele>2061.114</ele>
        <time>2021-07-29T12:56:37Z</time>
      </trkpt>
      <trkpt lat="40.799446" lon="-3.944574">
        <ele>2062.446</ele>
        <time>2021-07-29T12:56:45Z</time>
      </trkpt>
      <trkpt lat="40.799434" lon="-3.944550">
        <ele>2063.688</ele>
        <time>2021-07-29T12:56:52Z</time>
      </trkpt>
      <trkpt lat="40.799430" lon="-3.944525">
        <ele>2064.716</ele>
        <time>2021-07-29T12:56:56Z</time>
      </trkpt>
      <trkpt lat="40.799421" lon="-3.944466">
        <ele>2067.308</ele>
        <time>2021-07-29T12:57:39Z</time>
      </trkpt>
      <trkpt lat="40.799414" lon="-3.944436">
        <ele>2068.751</ele>
        <time>2021-07-29T12:57:42Z</time>
      </trkpt>
      <trkpt lat="40.799411" lon="-3.944405">
        <ele>2070.223</ele>
        <time>2021-07-29T12:57:45Z</time>
      </trkpt>
      <trkpt lat="40.799408" lon="-3.944377">
        <ele>2071.560</ele>
        <time>2021-07-29T12:57:48Z</time>
      </trkpt>
      <trkpt lat="40.799395" lon="-3.944357">
        <ele>2072.547</ele>
        <time>2021-07-29T12:57:53Z</time>
      </trkpt>
      <trkpt lat="40.799382" lon="-3.944335">
        <ele>2073.548</ele>
        <time>2021-07-29T12:57:58Z</time>
      </trkpt>
      <trkpt lat="40.799370" lon="-3.944315">
        <ele>2074.598</ele>
        <time>2021-07-29T12:58:04Z</time>
      </trkpt>
      <trkpt lat="40.799357" lon="-3.944293">
        <ele>2075.531</ele>
        <time>2021-07-29T12:58:14Z</time>
      </trkpt>
      <trkpt lat="40.799347" lon="-3.944270">
        <ele>2076.670</ele>
        <time>2021-07-29T12:58:20Z</time>
      </trkpt>
      <trkpt lat="40.799328" lon="-3.944257">
        <ele>2077.237</ele>
        <time>2021-07-29T12:58:25Z</time>
      </trkpt>
      <trkpt lat="40.799309" lon="-3.944244">
        <ele>2077.849</ele>
        <time>2021-07-29T12:58:28Z</time>
      </trkpt>
      <trkpt lat="40.799290" lon="-3.944230">
        <ele>2078.413</ele>
        <time>2021-07-29T12:58:35Z</time>
      </trkpt>
      <trkpt lat="40.799270" lon="-3.944225">
        <ele>2078.708</ele>
        <time>2021-07-29T12:58:39Z</time>
      </trkpt>
      <trkpt lat="40.799251" lon="-3.944207">
        <ele>2079.450</ele>
        <time>2021-07-29T12:58:42Z</time>
      </trkpt>
      <trkpt lat="40.799254" lon="-3.944183">
        <ele>2080.412</ele>
        <time>2021-07-29T12:58:51Z</time>
      </trkpt>
      <trkpt lat="40.799270" lon="-3.944170">
        <ele>2080.969</ele>
        <time>2021-07-29T12:58:57Z</time>
      </trkpt>
      <trkpt lat="40.799258" lon="-3.944152">
        <ele>2081.636</ele>
        <time>2021-07-29T12:59:01Z</time>
      </trkpt>
      <trkpt lat="40.799254" lon="-3.944125">
        <ele>2082.757</ele>
        <time>2021-07-29T12:59:08Z</time>
      </trkpt>
      <trkpt lat="40.799242" lon="-3.944105">
        <ele>2083.597</ele>
        <time>2021-07-29T12:59:15Z</time>
      </trkpt>
      <trkpt lat="40.799242" lon="-3.944080">
        <ele>2084.520</ele>
        <time>2021-07-29T12:59:23Z</time>
      </trkpt>
      <trkpt lat="40.799229" lon="-3.944063">
        <ele>2085.249</ele>
        <time>2021-07-29T12:59:28Z</time>
      </trkpt>
      <trkpt lat="40.799216" lon="-3.944042">
        <ele>2086.051</ele>
        <time>2021-07-29T12:59:36Z</time>
      </trkpt>
      <trkpt lat="40.799197" lon="-3.944033">
        <ele>2086.301</ele>
        <time>2021-07-29T12:59:42Z</time>
      </trkpt>
      <trkpt lat="40.799184" lon="-3.944013">
        <ele>2087.111</ele>
        <time>2021-07-29T12:59:46Z</time>
      </trkpt>
      <trkpt lat="40.799174" lon="-3.943990">
        <ele>2088.008</ele>
        <time>2021-07-29T12:59:53Z</time>
      </trkpt>
      <trkpt lat="40.799149" lon="-3.943987">
        <ele>2088.492</ele>
        <time>2021-07-29T13:00:19Z</time>
      </trkpt>
      <trkpt lat="40.799130" lon="-3.943980">
        <ele>2089.114</ele>
        <time>2021-07-29T13:00:21Z</time>
      </trkpt>
      <trkpt lat="40.799107" lon="-3.943963">
        <ele>2090.181</ele>
        <time>2021-07-29T13:00:24Z</time>
      </trkpt>
      <trkpt lat="40.799091" lon="-3.943952">
        <ele>2090.978</ele>
        <time>2021-07-29T13:00:26Z</time>
      </trkpt>
      <trkpt lat="40.799085" lon="-3.943922">
        <ele>2092.289</ele>
        <time>2021-07-29T13:00:31Z</time>
      </trkpt>
      <trkpt lat="40.799078" lon="-3.943898">
        <ele>2093.279</ele>
        <time>2021-07-29T13:00:37Z</time>
      </trkpt>
      <trkpt lat="40.799091" lon="-3.943882">
        <ele>2093.622</ele>
        <time>2021-07-29T13:00:40Z</time>
      </trkpt>
      <trkpt lat="40.799078" lon="-3.943850">
        <ele>2095.261</ele>
        <time>2021-07-29T13:01:05Z</time>
      </trkpt>
      <trkpt lat="40.799062" lon="-3.943827">
        <ele>2096.454</ele>
        <time>2021-07-29T13:01:09Z</time>
      </trkpt>
      <trkpt lat="40.799043" lon="-3.943805">
        <ele>2097.756</ele>
        <time>2021-07-29T13:01:12Z</time>
      </trkpt>
      <trkpt lat="40.799027" lon="-3.943792">
        <ele>2098.511</ele>
        <time>2021-07-29T13:01:15Z</time>
      </trkpt>
      <trkpt lat="40.799014" lon="-3.943772">
        <ele>2099.608</ele>
        <time>2021-07-29T13:01:18Z</time>
      </trkpt>
      <trkpt lat="40.799018" lon="-3.943746">
        <ele>2100.682</ele>
        <time>2021-07-29T13:01:31Z</time>
      </trkpt>
      <trkpt lat="40.799011" lon="-3.943720">
        <ele>2101.884</ele>
        <time>2021-07-29T13:01:35Z</time>
      </trkpt>
      <trkpt lat="40.799011" lon="-3.943695">
        <ele>2102.911</ele>
        <time>2021-07-29T13:01:43Z</time>
      </trkpt>
      <trkpt lat="40.798998" lon="-3.943673">
        <ele>2104.148</ele>
        <time>2021-07-29T13:01:48Z</time>
      </trkpt>
      <trkpt lat="40.798979" lon="-3.943648">
        <ele>2105.539</ele>
        <time>2021-07-29T13:01:59Z</time>
      </trkpt>
      <trkpt lat="40.798957" lon="-3.943627">
        <ele>2106.929</ele>
        <time>2021-07-29T13:02:04Z</time>
      </trkpt>
      <trkpt lat="40.798938" lon="-3.943620">
        <ele>2107.652</ele>
        <time>2021-07-29T13:02:13Z</time>
      </trkpt>
      <trkpt lat="40.798925" lon="-3.943603">
        <ele>2108.591</ele>
        <time>2021-07-29T13:02:22Z</time>
      </trkpt>
      <trkpt lat="40.798880" lon="-3.943322">
        <ele>2120.667</ele>
        <time>2021-07-29T13:04:23Z</time>
      </trkpt>
      <trkpt lat="40.798864" lon="-3.943303">
        <ele>2121.781</ele>
        <time>2021-07-29T13:04:25Z</time>
      </trkpt>
      <trkpt lat="40.798848" lon="-3.943283">
        <ele>2122.919</ele>
        <time>2021-07-29T13:04:27Z</time>
      </trkpt>
      <trkpt lat="40.798835" lon="-3.943265">
        <ele>2123.908</ele>
        <time>2021-07-29T13:04:29Z</time>
      </trkpt>
      <trkpt lat="40.798826" lon="-3.943243">
        <ele>2124.943</ele>
        <time>2021-07-29T13:04:31Z</time>
      </trkpt>
      <trkpt lat="40.798813" lon="-3.943224">
        <ele>2126.045</ele>
        <time>2021-07-29T13:04:37Z</time>
      </trkpt>
      <trkpt lat="40.798800" lon="-3.943200">
        <ele>2127.242</ele>
        <time>2021-07-29T13:04:43Z</time>
      </trkpt>
      <trkpt lat="40.798659" lon="-3.942840">
        <ele>2144.019</ele>
        <time>2021-07-29T13:07:08Z</time>
      </trkpt>
      <trkpt lat="40.798656" lon="-3.942805">
        <ele>2145.330</ele>
        <time>2021-07-29T13:07:11Z</time>
      </trkpt>
      <trkpt lat="40.798653" lon="-3.942782">
        <ele>2146.260</ele>
        <time>2021-07-29T13:07:13Z</time>
      </trkpt>
      <trkpt lat="40.798650" lon="-3.942752">
        <ele>2147.263</ele>
        <time>2021-07-29T13:07:15Z</time>
      </trkpt>
      <trkpt lat="40.798640" lon="-3.942730">
        <ele>2148.082</ele>
        <time>2021-07-29T13:07:17Z</time>
      </trkpt>
      <trkpt lat="40.798646" lon="-3.942706">
        <ele>2148.641</ele>
        <time>2021-07-29T13:07:23Z</time>
      </trkpt>
      <trkpt lat="40.798637" lon="-3.942680">
        <ele>2149.581</ele>
        <time>2021-07-29T13:07:29Z</time>
      </trkpt>
      <trkpt lat="40.798621" lon="-3.942658">
        <ele>2150.309</ele>
        <time>2021-07-29T13:07:36Z</time>
      </trkpt>
      <trkpt lat="40.798592" lon="-3.942507">
        <ele>2155.208</ele>
        <time>2021-07-29T13:08:36Z</time>
      </trkpt>
      <trkpt lat="40.798582" lon="-3.942485">
        <ele>2156.151</ele>
        <time>2021-07-29T13:08:38Z</time>
      </trkpt>
      <trkpt lat="40.798566" lon="-3.942468">
        <ele>2157.063</ele>
        <time>2021-07-29T13:08:40Z</time>
      </trkpt>
      <trkpt lat="40.798554" lon="-3.942450">
        <ele>2157.920</ele>
        <time>2021-07-29T13:08:42Z</time>
      </trkpt>
      <trkpt lat="40.798538" lon="-3.942433">
        <ele>2158.827</ele>
        <time>2021-07-29T13:08:44Z</time>
      </trkpt>
      <trkpt lat="40.798486" lon="-3.942122">
        <ele>2169.938</ele>
        <time>2021-07-29T13:10:37Z</time>
      </trkpt>
      <trkpt lat="40.798474" lon="-3.942103">
        <ele>2170.898</ele>
        <time>2021-07-29T13:10:39Z</time>
      </trkpt>
      <trkpt lat="40.798461" lon="-3.942068">
        <ele>2172.251</ele>
        <time>2021-07-29T13:10:43Z</time>
      </trkpt>
      <trkpt lat="40.798374" lon="-3.941903">
        <ele>2179.570</ele>
        <time>2021-07-29T13:12:20Z</time>
      </trkpt>
      <trkpt lat="40.798355" lon="-3.941892">
        <ele>2180.247</ele>
        <time>2021-07-29T13:12:23Z</time>
      </trkpt>
      <trkpt lat="40.798339" lon="-3.941868">
        <ele>2181.429</ele>
        <time>2021-07-29T13:12:27Z</time>
      </trkpt>
      <trkpt lat="40.798323" lon="-3.941847">
        <ele>2182.521</ele>
        <time>2021-07-29T13:12:30Z</time>
      </trkpt>
      <trkpt lat="40.798314" lon="-3.941823">
        <ele>2183.508</ele>
        <time>2021-07-29T13:12:36Z</time>
      </trkpt>
      <trkpt lat="40.798317" lon="-3.941797">
        <ele>2184.371</ele>
        <time>2021-07-29T13:12:42Z</time>
      </trkpt>
      <trkpt lat="40.798304" lon="-3.941768">
        <ele>2185.683</ele>
        <time>2021-07-29T13:12:46Z</time>
      </trkpt>
      <trkpt lat="40.798298" lon="-3.941743">
        <ele>2186.660</ele>
        <time>2021-07-29T13:12:53Z</time>
      </trkpt>
      <trkpt lat="40.798288" lon="-3.941718">
        <ele>2187.827</ele>
        <time>2021-07-29T13:12:59Z</time>
      </trkpt>
      <trkpt lat="40.798278" lon="-3.941695">
        <ele>2188.938</ele>
        <time>2021-07-29T13:13:04Z</time>
      </trkpt>
      <trkpt lat="40.798272" lon="-3.941667">
        <ele>2190.018</ele>
        <time>2021-07-29T13:13:12Z</time>
      </trkpt>
      <trkpt lat="40.798221" lon="-3.941555">
        <ele>2195.231</ele>
        <time>2021-07-29T13:14:08Z</time>
      </trkpt>
      <trkpt lat="40.798202" lon="-3.941557">
        <ele>2195.620</ele>
        <time>2021-07-29T13:14:10Z</time>
      </trkpt>
      <trkpt lat="40.798179" lon="-3.941558">
        <ele>2196.347</ele>
        <time>2021-07-29T13:14:12Z</time>
      </trkpt>
      <trkpt lat="40.798157" lon="-3.941565">
        <ele>2196.729</ele>
        <time>2021-07-29T13:14:15Z</time>
      </trkpt>
      <trkpt lat="40.798134" lon="-3.941565">
        <ele>2197.321</ele>
        <time>2021-07-29T13:14:17Z</time>
      </trkpt>
      <trkpt lat="40.798115" lon="-3.941553">
        <ele>2198.208</ele>
        <time>2021-07-29T13:14:22Z</time>
      </trkpt>
      <trkpt lat="40.798096" lon="-3.941552">
        <ele>2198.871</ele>
        <time>2021-07-29T13:14:27Z</time>
      </trkpt>
      <trkpt lat="40.798077" lon="-3.941560">
        <ele>2199.153</ele>
        <time>2021-07-29T13:14:35Z</time>
      </trkpt>
      <trkpt lat="40.798061" lon="-3.941543">
        <ele>2200.050</ele>
        <time>2021-07-29T13:14:40Z</time>
      </trkpt>
      <trkpt lat="40.798042" lon="-3.941535">
        <ele>2200.717</ele>
        <time>2021-07-29T13:14:49Z</time>
      </trkpt>
      <trkpt lat="40.798022" lon="-3.941533">
        <ele>2201.378</ele>
        <time>2021-07-29T13:14:53Z</time>
      </trkpt>
      <trkpt lat="40.797894" lon="-3.941530">
        <ele>2205.198</ele>
        <time>2021-07-29T13:15:56Z</time>
      </trkpt>
      <trkpt lat="40.797843" lon="-3.941486">
        <ele>2207.781</ele>
        <time>2021-07-29T13:16:34Z</time>
      </trkpt>
      <trkpt lat="40.797818" lon="-3.941488">
        <ele>2208.340</ele>
        <time>2021-07-29T13:16:36Z</time>
      </trkpt>
      <trkpt lat="40.797795" lon="-3.941490">
        <ele>2209.056</ele>
        <time>2021-07-29T13:16:38Z</time>
      </trkpt>
      <trkpt lat="40.797776" lon="-3.941488">
        <ele>2209.659</ele>
        <time>2021-07-29T13:16:40Z</time>
      </trkpt>
      <trkpt lat="40.797747" lon="-3.941480">
        <ele>2210.914</ele>
        <time>2021-07-29T13:16:42Z</time>
      </trkpt>
      <trkpt lat="40.797728" lon="-3.941476">
        <ele>2211.708</ele>
        <time>2021-07-29T13:16:46Z</time>
      </trkpt>
      <trkpt lat="40.797712" lon="-3.941464">
        <ele>2212.682</ele>
        <time>2021-07-29T13:16:52Z</time>
      </trkpt>
      <trkpt lat="40.797693" lon="-3.941458">
        <ele>2213.534</ele>
        <time>2021-07-29T13:16:56Z</time>
      </trkpt>
      <trkpt lat="40.797677" lon="-3.941438">
        <ele>2214.791</ele>
        <time>2021-07-29T13:17:00Z</time>
      </trkpt>
      <trkpt lat="40.797654" lon="-3.941432">
        <ele>2215.748</ele>
        <time>2021-07-29T13:17:04Z</time>
      </trkpt>
      <trkpt lat="40.797635" lon="-3.941430">
        <ele>2216.539</ele>
        <time>2021-07-29T13:17:11Z</time>
      </trkpt>
      <trkpt lat="40.797603" lon="-3.941440">
        <ele>2217.519</ele>
        <time>2021-07-29T13:17:39Z</time>
      </trkpt>
      <trkpt lat="40.797584" lon="-3.941450">
        <ele>2218.062</ele>
        <time>2021-07-29T13:17:42Z</time>
      </trkpt>
      <trkpt lat="40.797546" lon="-3.941467">
        <ele>2219.021</ele>
        <time>2021-07-29T13:18:03Z</time>
      </trkpt>
      <trkpt lat="40.797520" lon="-3.941460">
        <ele>2220.232</ele>
        <time>2021-07-29T13:18:05Z</time>
      </trkpt>
      <trkpt lat="40.797498" lon="-3.941454">
        <ele>2221.292</ele>
        <time>2021-07-29T13:18:07Z</time>
      </trkpt>
      <trkpt lat="40.797475" lon="-3.941445">
        <ele>2222.611</ele>
        <time>2021-07-29T13:18:09Z</time>
      </trkpt>
      <trkpt lat="40.797443" lon="-3.941435">
        <ele>2224.408</ele>
        <time>2021-07-29T13:18:11Z</time>
      </trkpt>
      <trkpt lat="40.797424" lon="-3.941432">
        <ele>2225.470</ele>
        <time>2021-07-29T13:18:14Z</time>
      </trkpt>
      <trkpt lat="40.797408" lon="-3.941414">
        <ele>2226.652</ele>
        <time>2021-07-29T13:18:22Z</time>
      </trkpt>
      <trkpt lat="40.797389" lon="-3.941403">
        <ele>2227.819</ele>
        <time>2021-07-29T13:18:29Z</time>
      </trkpt>
      <trkpt lat="40.797370" lon="-3.941402">
        <ele>2228.726</ele>
        <time>2021-07-29T13:18:36Z</time>
      </trkpt>
      <trkpt lat="40.797350" lon="-3.941405">
        <ele>2229.647</ele>
        <time>2021-07-29T13:18:41Z</time>
      </trkpt>
      <trkpt lat="40.797331" lon="-3.941414">
        <ele>2230.227</ele>
        <time>2021-07-29T13:18:48Z</time>
      </trkpt>
      <trkpt lat="40.797315" lon="-3.941397">
        <ele>2231.450</ele>
        <time>2021-07-29T13:18:55Z</time>
      </trkpt>
      <trkpt lat="40.797296" lon="-3.941390">
        <ele>2232.569</ele>
        <time>2021-07-29T13:19:01Z</time>
      </trkpt>
      <trkpt lat="40.797280" lon="-3.941377">
        <ele>2233.789</ele>
        <time>2021-07-29T13:19:08Z</time>
      </trkpt>
      <trkpt lat="40.797258" lon="-3.941360">
        <ele>2235.206</ele>
        <time>2021-07-29T13:19:34Z</time>
      </trkpt>
      <trkpt lat="40.797242" lon="-3.941347">
        <ele>2236.426</ele>
        <time>2021-07-29T13:19:36Z</time>
      </trkpt>
      <trkpt lat="40.797219" lon="-3.941335">
        <ele>2237.908</ele>
        <time>2021-07-29T13:19:38Z</time>
      </trkpt>
      <trkpt lat="40.797203" lon="-3.941323">
        <ele>2239.025</ele>
        <time>2021-07-29T13:19:40Z</time>
      </trkpt>
      <trkpt lat="40.797187" lon="-3.941305">
        <ele>2240.337</ele>
        <time>2021-07-29T13:19:43Z</time>
      </trkpt>
      <trkpt lat="40.797171" lon="-3.941283">
        <ele>2241.784</ele>
        <time>2021-07-29T13:19:47Z</time>
      </trkpt>
      <trkpt lat="40.797152" lon="-3.941275">
        <ele>2242.851</ele>
        <time>2021-07-29T13:19:54Z</time>
      </trkpt>
      <trkpt lat="40.797133" lon="-3.941268">
        <ele>2243.952</ele>
        <time>2021-07-29T13:20:01Z</time>
      </trkpt>
      <trkpt lat="40.797110" lon="-3.941270">
        <ele>2244.842</ele>
        <time>2021-07-29T13:20:07Z</time>
      </trkpt>
      <trkpt lat="40.797088" lon="-3.941268">
        <ele>2245.885</ele>
        <time>2021-07-29T13:20:11Z</time>
      </trkpt>
      <trkpt lat="40.797069" lon="-3.941258">
        <ele>2246.994</ele>
        <time>2021-07-29T13:20:15Z</time>
      </trkpt>
      <trkpt lat="40.797050" lon="-3.941250">
        <ele>2247.919</ele>
        <time>2021-07-29T13:20:20Z</time>
      </trkpt>
      <trkpt lat="40.797043" lon="-3.941223">
        <ele>2248.909</ele>
        <time>2021-07-29T13:20:26Z</time>
      </trkpt>
      <trkpt lat="40.797030" lon="-3.941205">
        <ele>2249.819</ele>
        <time>2021-07-29T13:20:32Z</time>
      </trkpt>
      <trkpt lat="40.797008" lon="-3.941210">
        <ele>2250.608</ele>
        <time>2021-07-29T13:20:37Z</time>
      </trkpt>
      <trkpt lat="40.796989" lon="-3.941215">
        <ele>2251.338</ele>
        <time>2021-07-29T13:20:41Z</time>
      </trkpt>
      <trkpt lat="40.796970" lon="-3.941220">
        <ele>2252.020</ele>
        <time>2021-07-29T13:20:45Z</time>
      </trkpt>
      <trkpt lat="40.796950" lon="-3.941232">
        <ele>2252.657</ele>
        <time>2021-07-29T13:20:58Z</time>
      </trkpt>
      <trkpt lat="40.796931" lon="-3.941240">
        <ele>2253.334</ele>
        <time>2021-07-29T13:21:02Z</time>
      </trkpt>
      <trkpt lat="40.796912" lon="-3.941235">
        <ele>2254.445</ele>
        <time>2021-07-29T13:21:05Z</time>
      </trkpt>
      <trkpt lat="40.796893" lon="-3.941247">
        <ele>2255.115</ele>
        <time>2021-07-29T13:21:08Z</time>
      </trkpt>
      <trkpt lat="40.796874" lon="-3.941252">
        <ele>2255.988</ele>
        <time>2021-07-29T13:21:14Z</time>
      </trkpt>
      <trkpt lat="40.796854" lon="-3.941252">
        <ele>2256.977</ele>
        <time>2021-07-29T13:21:19Z</time>
      </trkpt>
      <trkpt lat="40.796829" lon="-3.941240">
        <ele>2258.312</ele>
        <time>2021-07-29T13:21:27Z</time>
      </trkpt>
      <trkpt lat="40.796810" lon="-3.941235">
        <ele>2259.432</ele>
        <time>2021-07-29T13:21:31Z</time>
      </trkpt>
      <trkpt lat="40.796790" lon="-3.941238">
        <ele>2260.305</ele>
        <time>2021-07-29T13:21:34Z</time>
      </trkpt>
      <trkpt lat="40.796774" lon="-3.941252">
        <ele>2260.708</ele>
        <time>2021-07-29T13:21:38Z</time>
      </trkpt>
      <trkpt lat="40.796755" lon="-3.941263">
        <ele>2261.458</ele>
        <time>2021-07-29T13:21:43Z</time>
      </trkpt>
      <trkpt lat="40.796739" lon="-3.941275">
        <ele>2261.870</ele>
        <time>2021-07-29T13:21:48Z</time>
      </trkpt>
      <trkpt lat="40.796720" lon="-3.941285">
        <ele>2262.547</ele>
        <time>2021-07-29T13:21:52Z</time>
      </trkpt>
      <trkpt lat="40.796701" lon="-3.941278">
        <ele>2263.684</ele>
        <time>2021-07-29T13:22:01Z</time>
      </trkpt>
      <trkpt lat="40.796682" lon="-3.941288">
        <ele>2264.255</ele>
        <time>2021-07-29T13:22:06Z</time>
      </trkpt>
      <trkpt lat="40.796666" lon="-3.941303">
        <ele>2264.535</ele>
        <time>2021-07-29T13:22:10Z</time>
      </trkpt>
      <trkpt lat="40.796653" lon="-3.941320">
        <ele>2264.858</ele>
        <time>2021-07-29T13:22:14Z</time>
      </trkpt>
      <trkpt lat="40.796634" lon="-3.941338">
        <ele>2265.517</ele>
        <time>2021-07-29T13:22:19Z</time>
      </trkpt>
      <trkpt lat="40.796621" lon="-3.941365">
        <ele>2265.629</ele>
        <time>2021-07-29T13:22:26Z</time>
      </trkpt>
      <trkpt lat="40.796605" lon="-3.941385">
        <ele>2266.100</ele>
        <time>2021-07-29T13:22:35Z</time>
      </trkpt>
      <trkpt lat="40.796595" lon="-3.941407">
        <ele>2266.420</ele>
        <time>2021-07-29T13:22:41Z</time>
      </trkpt>
      <trkpt lat="40.796576" lon="-3.941408">
        <ele>2267.608</ele>
        <time>2021-07-29T13:22:44Z</time>
      </trkpt>
      <trkpt lat="40.796531" lon="-3.941435">
        <ele>2270.149</ele>
        <time>2021-07-29T13:23:28Z</time>
      </trkpt>
      <trkpt lat="40.796506" lon="-3.941444">
        <ele>2271.691</ele>
        <time>2021-07-29T13:23:30Z</time>
      </trkpt>
      <trkpt lat="40.796477" lon="-3.941450">
        <ele>2273.398</ele>
        <time>2021-07-29T13:23:32Z</time>
      </trkpt>
      <trkpt lat="40.796451" lon="-3.941455">
        <ele>2274.975</ele>
        <time>2021-07-29T13:23:34Z</time>
      </trkpt>
      <trkpt lat="40.796426" lon="-3.941464">
        <ele>2276.346</ele>
        <time>2021-07-29T13:23:36Z</time>
      </trkpt>
      <trkpt lat="40.796410" lon="-3.941475">
        <ele>2277.176</ele>
        <time>2021-07-29T13:23:40Z</time>
      </trkpt>
      <trkpt lat="40.796390" lon="-3.941467">
        <ele>2278.549</ele>
        <time>2021-07-29T13:23:51Z</time>
      </trkpt>
      <trkpt lat="40.796378" lon="-3.941450">
        <ele>2279.318</ele>
        <time>2021-07-29T13:23:55Z</time>
      </trkpt>
      <trkpt lat="40.796355" lon="-3.941467">
        <ele>2279.853</ele>
        <time>2021-07-29T13:24:00Z</time>
      </trkpt>
      <trkpt lat="40.796336" lon="-3.941476">
        <ele>2280.304</ele>
        <time>2021-07-29T13:24:02Z</time>
      </trkpt>
      <trkpt lat="40.796323" lon="-3.941497">
        <ele>2280.414</ele>
        <time>2021-07-29T13:24:06Z</time>
      </trkpt>
      <trkpt lat="40.796304" lon="-3.941508">
        <ele>2280.908</ele>
        <time>2021-07-29T13:24:09Z</time>
      </trkpt>
      <trkpt lat="40.796285" lon="-3.941523">
        <ele>2281.332</ele>
        <time>2021-07-29T13:24:13Z</time>
      </trkpt>
      <trkpt lat="40.796266" lon="-3.941535">
        <ele>2281.834</ele>
        <time>2021-07-29T13:24:19Z</time>
      </trkpt>
      <trkpt lat="40.796250" lon="-3.941548">
        <ele>2282.131</ele>
        <time>2021-07-29T13:24:29Z</time>
      </trkpt>
      <trkpt lat="40.796234" lon="-3.941567">
        <ele>2282.488</ele>
        <time>2021-07-29T13:24:32Z</time>
      </trkpt>
      <trkpt lat="40.796227" lon="-3.941590">
        <ele>2282.219</ele>
        <time>2021-07-29T13:24:35Z</time>
      </trkpt>
      <trkpt lat="40.796211" lon="-3.941610">
        <ele>2282.459</ele>
        <time>2021-07-29T13:24:39Z</time>
      </trkpt>
      <trkpt lat="40.796192" lon="-3.941618">
        <ele>2283.042</ele>
        <time>2021-07-29T13:24:44Z</time>
      </trkpt>
      <trkpt lat="40.796176" lon="-3.941635">
        <ele>2283.291</ele>
        <time>2021-07-29T13:24:48Z</time>
      </trkpt>
      <trkpt lat="40.796157" lon="-3.941652">
        <ele>2283.667</ele>
        <time>2021-07-29T13:24:54Z</time>
      </trkpt>
      <trkpt lat="40.796134" lon="-3.941672">
        <ele>2284.181</ele>
        <time>2021-07-29T13:24:58Z</time>
      </trkpt>
      <trkpt lat="40.796118" lon="-3.941688">
        <ele>2284.419</ele>
        <time>2021-07-29T13:25:01Z</time>
      </trkpt>
      <trkpt lat="40.796099" lon="-3.941698">
        <ele>2284.608</ele>
        <time>2021-07-29T13:25:03Z</time>
      </trkpt>
      <trkpt lat="40.796080" lon="-3.941705">
        <ele>2284.713</ele>
        <time>2021-07-29T13:25:06Z</time>
      </trkpt>
      <trkpt lat="40.796064" lon="-3.941717">
        <ele>2284.635</ele>
        <time>2021-07-29T13:25:09Z</time>
      </trkpt>
      <trkpt lat="40.796045" lon="-3.941732">
        <ele>2284.612</ele>
        <time>2021-07-29T13:25:12Z</time>
      </trkpt>
      <trkpt lat="40.796019" lon="-3.941747">
        <ele>2284.639</ele>
        <time>2021-07-29T13:25:15Z</time>
      </trkpt>
      <trkpt lat="40.796000" lon="-3.941753">
        <ele>2284.870</ele>
        <time>2021-07-29T13:25:18Z</time>
      </trkpt>
      <trkpt lat="40.795981" lon="-3.941765">
        <ele>2284.830</ele>
        <time>2021-07-29T13:25:20Z</time>
      </trkpt>
      <trkpt lat="40.795965" lon="-3.941784">
        <ele>2284.713</ele>
        <time>2021-07-29T13:25:23Z</time>
      </trkpt>
      <trkpt lat="40.795917" lon="-3.941807">
        <ele>2284.992</ele>
        <time>2021-07-29T13:25:28Z</time>
      </trkpt>
      <trkpt lat="40.795894" lon="-3.941807">
        <ele>2285.232</ele>
        <time>2021-07-29T13:25:29Z</time>
      </trkpt>
      <trkpt lat="40.795872" lon="-3.941823">
        <ele>2285.392</ele>
        <time>2021-07-29T13:25:31Z</time>
      </trkpt>
      <trkpt lat="40.795856" lon="-3.941840">
        <ele>2285.211</ele>
        <time>2021-07-29T13:25:32Z</time>
      </trkpt>
      <trkpt lat="40.795846" lon="-3.941862">
        <ele>2285.008</ele>
        <time>2021-07-29T13:25:34Z</time>
      </trkpt>
      <trkpt lat="40.795837" lon="-3.941883">
        <ele>2284.880</ele>
        <time>2021-07-29T13:25:43Z</time>
      </trkpt>
      <trkpt lat="40.795827" lon="-3.941913">
        <ele>2284.462</ele>
        <time>2021-07-29T13:25:46Z</time>
      </trkpt>
      <trkpt lat="40.795811" lon="-3.941933">
        <ele>2284.279</ele>
        <time>2021-07-29T13:25:48Z</time>
      </trkpt>
      <trkpt lat="40.795808" lon="-3.941962">
        <ele>2283.896</ele>
        <time>2021-07-29T13:25:50Z</time>
      </trkpt>
      <trkpt lat="40.795792" lon="-3.941980">
        <ele>2283.597</ele>
        <time>2021-07-29T13:25:52Z</time>
      </trkpt>
      <trkpt lat="40.795776" lon="-3.942006">
        <ele>2283.227</ele>
        <time>2021-07-29T13:25:56Z</time>
      </trkpt>
      <trkpt lat="40.795776" lon="-3.942035">
        <ele>2282.860</ele>
        <time>2021-07-29T13:25:58Z</time>
      </trkpt>
      <trkpt lat="40.795760" lon="-3.942063">
        <ele>2282.489</ele>
        <time>2021-07-29T13:26:01Z</time>
      </trkpt>
      <trkpt lat="40.795741" lon="-3.942083">
        <ele>2282.283</ele>
        <time>2021-07-29T13:26:04Z</time>
      </trkpt>
      <trkpt lat="40.795728" lon="-3.942113">
        <ele>2281.825</ele>
        <time>2021-07-29T13:26:07Z</time>
      </trkpt>
      <trkpt lat="40.795712" lon="-3.942132">
        <ele>2281.617</ele>
        <time>2021-07-29T13:26:09Z</time>
      </trkpt>
      <trkpt lat="40.795699" lon="-3.942154">
        <ele>2281.308</ele>
        <time>2021-07-29T13:26:11Z</time>
      </trkpt>
      <trkpt lat="40.795680" lon="-3.942176">
        <ele>2281.165</ele>
        <time>2021-07-29T13:26:13Z</time>
      </trkpt>
      <trkpt lat="40.795674" lon="-3.942200">
        <ele>2280.847</ele>
        <time>2021-07-29T13:26:15Z</time>
      </trkpt>
      <trkpt lat="40.795661" lon="-3.942222">
        <ele>2280.644</ele>
        <time>2021-07-29T13:26:17Z</time>
      </trkpt>
      <trkpt lat="40.795648" lon="-3.942253">
        <ele>2280.371</ele>
        <time>2021-07-29T13:26:20Z</time>
      </trkpt>
      <trkpt lat="40.795638" lon="-3.942275">
        <ele>2280.092</ele>
        <time>2021-07-29T13:26:22Z</time>
      </trkpt>
      <trkpt lat="40.795622" lon="-3.942292">
        <ele>2279.942</ele>
        <time>2021-07-29T13:26:24Z</time>
      </trkpt>
      <trkpt lat="40.795632" lon="-3.942330">
        <ele>2279.395</ele>
        <time>2021-07-29T13:29:06Z</time>
      </trkpt>
      <trkpt lat="40.795635" lon="-3.942367">
        <ele>2278.984</ele>
        <time>2021-07-29T13:29:08Z</time>
      </trkpt>
      <trkpt lat="40.795638" lon="-3.942402">
        <ele>2278.422</ele>
        <time>2021-07-29T13:29:10Z</time>
      </trkpt>
      <trkpt lat="40.795648" lon="-3.942437">
        <ele>2277.862</ele>
        <time>2021-07-29T13:29:12Z</time>
      </trkpt>
      <trkpt lat="40.795654" lon="-3.942474">
        <ele>2277.308</ele>
        <time>2021-07-29T13:29:14Z</time>
      </trkpt>
      <trkpt lat="40.795654" lon="-3.942500">
        <ele>2276.908</ele>
        <time>2021-07-29T13:29:16Z</time>
      </trkpt>
      <trkpt lat="40.795648" lon="-3.942533">
        <ele>2276.649</ele>
        <time>2021-07-29T13:29:19Z</time>
      </trkpt>
      <trkpt lat="40.795648" lon="-3.942562">
        <ele>2276.231</ele>
        <time>2021-07-29T13:29:21Z</time>
      </trkpt>
      <trkpt lat="40.795648" lon="-3.942587">
        <ele>2275.948</ele>
        <time>2021-07-29T13:29:23Z</time>
      </trkpt>
      <trkpt lat="40.795651" lon="-3.942612">
        <ele>2275.555</ele>
        <time>2021-07-29T13:29:25Z</time>
      </trkpt>
      <trkpt lat="40.795667" lon="-3.942638">
        <ele>2274.986</ele>
        <time>2021-07-29T13:29:28Z</time>
      </trkpt>
      <trkpt lat="40.795686" lon="-3.942658">
        <ele>2274.436</ele>
        <time>2021-07-29T13:29:31Z</time>
      </trkpt>
      <trkpt lat="40.795696" lon="-3.942682">
        <ele>2273.979</ele>
        <time>2021-07-29T13:29:45Z</time>
      </trkpt>
      <trkpt lat="40.795514" lon="-3.942850">
        <ele>2273.668</ele>
        <time>2021-07-29T13:40:44Z</time>
      </trkpt>
      <trkpt lat="40.795462" lon="-3.943236">
        <ele>2268.799</ele>
        <time>2021-07-29T13:42:44Z</time>
      </trkpt>
      <trkpt lat="40.795520" lon="-3.944017">
        <ele>2256.407</ele>
        <time>2021-07-29T13:43:44Z</time>
      </trkpt>
      <trkpt lat="40.795558" lon="-3.944670">
        <ele>2244.727</ele>
        <time>2021-07-29T13:44:44Z</time>
      </trkpt>
      <trkpt lat="40.795578" lon="-3.945545">
        <ele>2235.808</ele>
        <time>2021-07-29T13:45:44Z</time>
      </trkpt>
      <trkpt lat="40.795514" lon="-3.946408">
        <ele>2229.236</ele>
        <time>2021-07-29T13:46:44Z</time>
      </trkpt>
      <trkpt lat="40.795315" lon="-3.947030">
        <ele>2221.658</ele>
        <time>2021-07-29T13:47:44Z</time>
      </trkpt>
      <trkpt lat="40.795098" lon="-3.947655">
        <ele>2211.475</ele>
        <time>2021-07-29T13:48:44Z</time>
      </trkpt>
      <trkpt lat="40.794893" lon="-3.948358">
        <ele>2201.382</ele>
        <time>2021-07-29T13:49:44Z</time>
      </trkpt>
      <trkpt lat="40.794816" lon="-3.948952">
        <ele>2193.673</ele>
        <time>2021-07-29T13:50:44Z</time>
      </trkpt>
      <trkpt lat="40.794656" lon="-3.949603">
        <ele>2184.363</ele>
        <time>2021-07-29T13:51:44Z</time>
      </trkpt>
      <trkpt lat="40.794547" lon="-3.950253">
        <ele>2176.026</ele>
        <time>2021-07-29T13:52:44Z</time>
      </trkpt>
      <trkpt lat="40.794598" lon="-3.950900">
        <ele>2166.295</ele>
        <time>2021-07-29T13:53:44Z</time>
      </trkpt>
      <trkpt lat="40.794509" lon="-3.951142">
        <ele>2162.913</ele>
        <time>2021-07-29T13:54:44Z</time>
      </trkpt>
      <trkpt lat="40.794544" lon="-3.951942">
        <ele>2152.043</ele>
        <time>2021-07-29T13:55:44Z</time>
      </trkpt>
      <trkpt lat="40.794598" lon="-3.953025">
        <ele>2152.007</ele>
        <time>2021-07-29T13:56:44Z</time>
      </trkpt>
      <trkpt lat="40.794682" lon="-3.953792">
        <ele>2158.708</ele>
        <time>2021-07-29T13:57:44Z</time>
      </trkpt>
      <trkpt lat="40.794678" lon="-3.954508">
        <ele>2166.068</ele>
        <time>2021-07-29T13:58:44Z</time>
      </trkpt>
      <trkpt lat="40.794698" lon="-3.955124">
        <ele>2172.530</ele>
        <time>2021-07-29T13:59:44Z</time>
      </trkpt>
      <trkpt lat="40.794723" lon="-3.955690">
        <ele>2179.957</ele>
        <time>2021-07-29T14:00:44Z</time>
      </trkpt>
      <trkpt lat="40.794736" lon="-3.956220">
        <ele>2186.564</ele>
        <time>2021-07-29T14:01:44Z</time>
      </trkpt>
      <trkpt lat="40.794762" lon="-3.956752">
        <ele>2195.515</ele>
        <time>2021-07-29T14:02:44Z</time>
      </trkpt>
      <trkpt lat="40.794720" lon="-3.957218">
        <ele>2203.995</ele>
        <time>2021-07-29T14:03:44Z</time>
      </trkpt>
      <trkpt lat="40.794646" lon="-3.957766">
        <ele>2213.778</ele>
        <time>2021-07-29T14:04:44Z</time>
      </trkpt>
      <trkpt lat="40.794442" lon="-3.958237">
        <ele>2223.237</ele>
        <time>2021-07-29T14:05:44Z</time>
      </trkpt>
      <trkpt lat="40.794122" lon="-3.958730">
        <ele>2231.428</ele>
        <time>2021-07-29T14:06:44Z</time>
      </trkpt>
      <trkpt lat="40.793872" lon="-3.959262">
        <ele>2240.089</ele>
        <time>2021-07-29T14:07:44Z</time>
      </trkpt>
      <trkpt lat="40.793856" lon="-3.959334">
        <ele>2241.417</ele>
        <time>2021-07-29T14:07:53Z</time>
      </trkpt>
      <trkpt lat="40.793853" lon="-3.959360">
        <ele>2242.008</ele>
        <time>2021-07-29T14:07:56Z</time>
      </trkpt>
      <trkpt lat="40.793850" lon="-3.959385">
        <ele>2242.549</ele>
        <time>2021-07-29T14:08:00Z</time>
      </trkpt>
      <trkpt lat="40.793850" lon="-3.959413">
        <ele>2243.271</ele>
        <time>2021-07-29T14:08:03Z</time>
      </trkpt>
      <trkpt lat="40.793846" lon="-3.959440">
        <ele>2243.878</ele>
        <time>2021-07-29T14:08:06Z</time>
      </trkpt>
      <trkpt lat="40.793830" lon="-3.959458">
        <ele>2243.835</ele>
        <time>2021-07-29T14:08:08Z</time>
      </trkpt>
      <trkpt lat="40.793821" lon="-3.959483">
        <ele>2244.286</ele>
        <time>2021-07-29T14:08:11Z</time>
      </trkpt>
      <trkpt lat="40.793802" lon="-3.959507">
        <ele>2244.226</ele>
        <time>2021-07-29T14:08:14Z</time>
      </trkpt>
      <trkpt lat="40.793802" lon="-3.959536">
        <ele>2244.919</ele>
        <time>2021-07-29T14:08:17Z</time>
      </trkpt>
      <trkpt lat="40.793792" lon="-3.959565">
        <ele>2245.398</ele>
        <time>2021-07-29T14:08:20Z</time>
      </trkpt>
      <trkpt lat="40.793776" lon="-3.959590">
        <ele>2245.579</ele>
        <time>2021-07-29T14:08:23Z</time>
      </trkpt>
      <trkpt lat="40.793757" lon="-3.959613">
        <ele>2245.605</ele>
        <time>2021-07-29T14:08:26Z</time>
      </trkpt>
      <trkpt lat="40.793747" lon="-3.959640">
        <ele>2246.025</ele>
        <time>2021-07-29T14:08:29Z</time>
      </trkpt>
      <trkpt lat="40.793731" lon="-3.959665">
        <ele>2246.208</ele>
        <time>2021-07-29T14:08:32Z</time>
      </trkpt>
      <trkpt lat="40.793715" lon="-3.959692">
        <ele>2246.574</ele>
        <time>2021-07-29T14:08:35Z</time>
      </trkpt>
      <trkpt lat="40.793693" lon="-3.959712">
        <ele>2246.536</ele>
        <time>2021-07-29T14:08:38Z</time>
      </trkpt>
      <trkpt lat="40.793677" lon="-3.959740">
        <ele>2246.873</ele>
        <time>2021-07-29T14:08:41Z</time>
      </trkpt>
      <trkpt lat="40.793677" lon="-3.959765">
        <ele>2247.370</ele>
        <time>2021-07-29T14:08:43Z</time>
      </trkpt>
      <trkpt lat="40.793674" lon="-3.959788">
        <ele>2247.881</ele>
        <time>2021-07-29T14:08:46Z</time>
      </trkpt>
      <trkpt lat="40.793661" lon="-3.959808">
        <ele>2247.951</ele>
        <time>2021-07-29T14:08:48Z</time>
      </trkpt>
      <trkpt lat="40.793661" lon="-3.959842">
        <ele>2248.744</ele>
        <time>2021-07-29T14:08:51Z</time>
      </trkpt>
      <trkpt lat="40.793651" lon="-3.959868">
        <ele>2249.053</ele>
        <time>2021-07-29T14:08:54Z</time>
      </trkpt>
      <trkpt lat="40.793645" lon="-3.959895">
        <ele>2249.544</ele>
        <time>2021-07-29T14:08:57Z</time>
      </trkpt>
      <trkpt lat="40.793635" lon="-3.959916">
        <ele>2249.705</ele>
        <time>2021-07-29T14:08:59Z</time>
      </trkpt>
      <trkpt lat="40.793626" lon="-3.959940">
        <ele>2250.015</ele>
        <time>2021-07-29T14:09:02Z</time>
      </trkpt>
      <trkpt lat="40.793613" lon="-3.959962">
        <ele>2250.208</ele>
        <time>2021-07-29T14:09:04Z</time>
      </trkpt>
      <trkpt lat="40.793606" lon="-3.959987">
        <ele>2250.671</ele>
        <time>2021-07-29T14:09:07Z</time>
      </trkpt>
      <trkpt lat="40.793603" lon="-3.960015">
        <ele>2251.273</ele>
        <time>2021-07-29T14:09:10Z</time>
      </trkpt>
      <trkpt lat="40.793603" lon="-3.960047">
        <ele>2251.840</ele>
        <time>2021-07-29T14:09:13Z</time>
      </trkpt>
      <trkpt lat="40.793594" lon="-3.960075">
        <ele>2252.317</ele>
        <time>2021-07-29T14:09:16Z</time>
      </trkpt>
      <trkpt lat="40.793594" lon="-3.960108">
        <ele>2253.068</ele>
        <time>2021-07-29T14:09:19Z</time>
      </trkpt>
      <trkpt lat="40.793584" lon="-3.960137">
        <ele>2253.498</ele>
        <time>2021-07-29T14:09:22Z</time>
      </trkpt>
      <trkpt lat="40.793571" lon="-3.960155">
        <ele>2253.631</ele>
        <time>2021-07-29T14:09:24Z</time>
      </trkpt>
      <trkpt lat="40.793562" lon="-3.960178">
        <ele>2253.960</ele>
        <time>2021-07-29T14:09:26Z</time>
      </trkpt>
      <trkpt lat="40.793546" lon="-3.960192">
        <ele>2253.973</ele>
        <time>2021-07-29T14:09:28Z</time>
      </trkpt>
      <trkpt lat="40.793530" lon="-3.960212">
        <ele>2254.185</ele>
        <time>2021-07-29T14:09:30Z</time>
      </trkpt>
      <trkpt lat="40.793517" lon="-3.960232">
        <ele>2254.313</ele>
        <time>2021-07-29T14:09:32Z</time>
      </trkpt>
      <trkpt lat="40.793510" lon="-3.960255">
        <ele>2254.708</ele>
        <time>2021-07-29T14:09:34Z</time>
      </trkpt>
      <trkpt lat="40.793498" lon="-3.960285">
        <ele>2255.134</ele>
        <time>2021-07-29T14:09:37Z</time>
      </trkpt>
      <trkpt lat="40.793485" lon="-3.960312">
        <ele>2255.396</ele>
        <time>2021-07-29T14:09:40Z</time>
      </trkpt>
      <trkpt lat="40.793453" lon="-3.960365">
        <ele>2255.733</ele>
        <time>2021-07-29T14:10:16Z</time>
      </trkpt>
      <trkpt lat="40.793443" lon="-3.960395">
        <ele>2256.190</ele>
        <time>2021-07-29T14:10:18Z</time>
      </trkpt>
      <trkpt lat="40.793430" lon="-3.960412">
        <ele>2256.221</ele>
        <time>2021-07-29T14:10:19Z</time>
      </trkpt>
      <trkpt lat="40.793418" lon="-3.960442">
        <ele>2256.571</ele>
        <time>2021-07-29T14:10:21Z</time>
      </trkpt>
      <trkpt lat="40.793398" lon="-3.960473">
        <ele>2256.774</ele>
        <time>2021-07-29T14:10:23Z</time>
      </trkpt>
      <trkpt lat="40.793389" lon="-3.960505">
        <ele>2257.153</ele>
        <time>2021-07-29T14:10:25Z</time>
      </trkpt>
      <trkpt lat="40.793386" lon="-3.960532">
        <ele>2257.553</ele>
        <time>2021-07-29T14:10:28Z</time>
      </trkpt>
      <trkpt lat="40.793373" lon="-3.960564">
        <ele>2257.904</ele>
        <time>2021-07-29T14:10:31Z</time>
      </trkpt>
      <trkpt lat="40.793357" lon="-3.960590">
        <ele>2258.014</ele>
        <time>2021-07-29T14:10:34Z</time>
      </trkpt>
      <trkpt lat="40.793338" lon="-3.960616">
        <ele>2258.208</ele>
        <time>2021-07-29T14:10:37Z</time>
      </trkpt>
      <trkpt lat="40.793328" lon="-3.960650">
        <ele>2258.612</ele>
        <time>2021-07-29T14:10:40Z</time>
      </trkpt>
      <trkpt lat="40.793315" lon="-3.960677">
        <ele>2258.944</ele>
        <time>2021-07-29T14:10:43Z</time>
      </trkpt>
      <trkpt lat="40.793296" lon="-3.960693">
        <ele>2258.971</ele>
        <time>2021-07-29T14:10:45Z</time>
      </trkpt>
      <trkpt lat="40.793277" lon="-3.960713">
        <ele>2258.968</ele>
        <time>2021-07-29T14:10:47Z</time>
      </trkpt>
      <trkpt lat="40.793270" lon="-3.960745">
        <ele>2259.499</ele>
        <time>2021-07-29T14:10:50Z</time>
      </trkpt>
      <trkpt lat="40.793254" lon="-3.960770">
        <ele>2259.759</ele>
        <time>2021-07-29T14:10:53Z</time>
      </trkpt>
      <trkpt lat="40.793248" lon="-3.960793">
        <ele>2260.082</ele>
        <time>2021-07-29T14:10:55Z</time>
      </trkpt>
      <trkpt lat="40.793245" lon="-3.960825">
        <ele>2260.661</ele>
        <time>2021-07-29T14:10:58Z</time>
      </trkpt>
      <trkpt lat="40.793238" lon="-3.960848">
        <ele>2260.998</ele>
        <time>2021-07-29T14:11:00Z</time>
      </trkpt>
      <trkpt lat="40.793206" lon="-3.960916">
        <ele>2261.715</ele>
        <time>2021-07-29T14:11:06Z</time>
      </trkpt>
      <trkpt lat="40.793190" lon="-3.960942">
        <ele>2261.926</ele>
        <time>2021-07-29T14:11:08Z</time>
      </trkpt>
      <trkpt lat="40.793187" lon="-3.960966">
        <ele>2262.308</ele>
        <time>2021-07-29T14:11:12Z</time>
      </trkpt>
      <trkpt lat="40.793181" lon="-3.960993">
        <ele>2262.736</ele>
        <time>2021-07-29T14:11:15Z</time>
      </trkpt>
      <trkpt lat="40.793174" lon="-3.961017">
        <ele>2263.048</ele>
        <time>2021-07-29T14:11:17Z</time>
      </trkpt>
      <trkpt lat="40.793174" lon="-3.961043">
        <ele>2263.565</ele>
        <time>2021-07-29T14:11:19Z</time>
      </trkpt>
      <trkpt lat="40.793165" lon="-3.961073">
        <ele>2263.922</ele>
        <time>2021-07-29T14:11:22Z</time>
      </trkpt>
      <trkpt lat="40.793149" lon="-3.961100">
        <ele>2264.183</ele>
        <time>2021-07-29T14:11:25Z</time>
      </trkpt>
      <trkpt lat="40.793136" lon="-3.961122">
        <ele>2264.373</ele>
        <time>2021-07-29T14:11:27Z</time>
      </trkpt>
      <trkpt lat="40.793126" lon="-3.961152">
        <ele>2264.736</ele>
        <time>2021-07-29T14:11:30Z</time>
      </trkpt>
      <trkpt lat="40.793114" lon="-3.961175">
        <ele>2264.925</ele>
        <time>2021-07-29T14:11:34Z</time>
      </trkpt>
      <trkpt lat="40.793101" lon="-3.961197">
        <ele>2265.196</ele>
        <time>2021-07-29T14:11:44Z</time>
      </trkpt>
      <trkpt lat="40.793088" lon="-3.961225">
        <ele>2265.431</ele>
        <time>2021-07-29T14:11:47Z</time>
      </trkpt>
      <trkpt lat="40.793078" lon="-3.961247">
        <ele>2265.724</ele>
        <time>2021-07-29T14:11:49Z</time>
      </trkpt>
      <trkpt lat="40.793069" lon="-3.961282">
        <ele>2266.208</ele>
        <time>2021-07-29T14:11:52Z</time>
      </trkpt>
      <trkpt lat="40.793053" lon="-3.961302">
        <ele>2266.456</ele>
        <time>2021-07-29T14:11:54Z</time>
      </trkpt>
      <trkpt lat="40.793046" lon="-3.961316">
        <ele>2266.668</ele>
        <time>2021-07-29T14:11:56Z</time>
      </trkpt>
      <trkpt lat="40.793027" lon="-3.961365">
        <ele>2267.375</ele>
        <time>2021-07-29T14:12:01Z</time>
      </trkpt>
      <trkpt lat="40.793008" lon="-3.961388">
        <ele>2267.522</ele>
        <time>2021-07-29T14:12:03Z</time>
      </trkpt>
      <trkpt lat="40.792995" lon="-3.961407">
        <ele>2267.793</ele>
        <time>2021-07-29T14:12:05Z</time>
      </trkpt>
      <trkpt lat="40.792989" lon="-3.961442">
        <ele>2268.213</ele>
        <time>2021-07-29T14:12:08Z</time>
      </trkpt>
      <trkpt lat="40.792986" lon="-3.961475">
        <ele>2268.896</ele>
        <time>2021-07-29T14:12:11Z</time>
      </trkpt>
      <trkpt lat="40.792973" lon="-3.961493">
        <ele>2269.045</ele>
        <time>2021-07-29T14:12:13Z</time>
      </trkpt>
      <trkpt lat="40.792954" lon="-3.961513">
        <ele>2269.115</ele>
        <time>2021-07-29T14:12:15Z</time>
      </trkpt>
      <trkpt lat="40.792941" lon="-3.961532">
        <ele>2269.365</ele>
        <time>2021-07-29T14:12:17Z</time>
      </trkpt>
      <trkpt lat="40.792928" lon="-3.961548">
        <ele>2269.511</ele>
        <time>2021-07-29T14:12:19Z</time>
      </trkpt>
      <trkpt lat="40.792915" lon="-3.961570">
        <ele>2269.708</ele>
        <time>2021-07-29T14:12:21Z</time>
      </trkpt>
      <trkpt lat="40.792909" lon="-3.961597">
        <ele>2270.298</ele>
        <time>2021-07-29T14:12:23Z</time>
      </trkpt>
      <trkpt lat="40.792896" lon="-3.961623">
        <ele>2270.540</ele>
        <time>2021-07-29T14:12:26Z</time>
      </trkpt>
      <trkpt lat="40.792877" lon="-3.961650">
        <ele>2270.857</ele>
        <time>2021-07-29T14:12:28Z</time>
      </trkpt>
      <trkpt lat="40.792858" lon="-3.961678">
        <ele>2271.014</ele>
        <time>2021-07-29T14:12:31Z</time>
      </trkpt>
      <trkpt lat="40.792848" lon="-3.961712">
        <ele>2271.485</ele>
        <time>2021-07-29T14:12:34Z</time>
      </trkpt>
      <trkpt lat="40.792835" lon="-3.961728">
        <ele>2271.525</ele>
        <time>2021-07-29T14:12:36Z</time>
      </trkpt>
      <trkpt lat="40.792819" lon="-3.961750">
        <ele>2271.648</ele>
        <time>2021-07-29T14:12:38Z</time>
      </trkpt>
      <trkpt lat="40.792803" lon="-3.961768">
        <ele>2271.777</ele>
        <time>2021-07-29T14:12:40Z</time>
      </trkpt>
      <trkpt lat="40.792790" lon="-3.961787">
        <ele>2271.976</ele>
        <time>2021-07-29T14:12:42Z</time>
      </trkpt>
      <trkpt lat="40.792774" lon="-3.961808">
        <ele>2272.090</ele>
        <time>2021-07-29T14:12:44Z</time>
      </trkpt>
      <trkpt lat="40.792758" lon="-3.961827">
        <ele>2272.119</ele>
        <time>2021-07-29T14:12:46Z</time>
      </trkpt>
      <trkpt lat="40.792742" lon="-3.961843">
        <ele>2272.208</ele>
        <time>2021-07-29T14:12:48Z</time>
      </trkpt>
      <trkpt lat="40.792723" lon="-3.961860">
        <ele>2272.294</ele>
        <time>2021-07-29T14:12:51Z</time>
      </trkpt>
      <trkpt lat="40.792710" lon="-3.961880">
        <ele>2272.376</ele>
        <time>2021-07-29T14:12:53Z</time>
      </trkpt>
      <trkpt lat="40.792698" lon="-3.961907">
        <ele>2272.653</ele>
        <time>2021-07-29T14:12:56Z</time>
      </trkpt>
      <trkpt lat="40.792688" lon="-3.961928">
        <ele>2272.870</ele>
        <time>2021-07-29T14:12:58Z</time>
      </trkpt>
      <trkpt lat="40.792682" lon="-3.961954">
        <ele>2273.151</ele>
        <time>2021-07-29T14:13:00Z</time>
      </trkpt>
      <trkpt lat="40.792662" lon="-3.961975">
        <ele>2273.241</ele>
        <time>2021-07-29T14:13:03Z</time>
      </trkpt>
      <trkpt lat="40.792653" lon="-3.962005">
        <ele>2273.524</ele>
        <time>2021-07-29T14:13:06Z</time>
      </trkpt>
      <trkpt lat="40.792640" lon="-3.962023">
        <ele>2273.673</ele>
        <time>2021-07-29T14:13:08Z</time>
      </trkpt>
      <trkpt lat="40.792624" lon="-3.962040">
        <ele>2273.766</ele>
        <time>2021-07-29T14:13:10Z</time>
      </trkpt>
      <trkpt lat="40.792605" lon="-3.962055">
        <ele>2273.729</ele>
        <time>2021-07-29T14:13:12Z</time>
      </trkpt>
      <trkpt lat="40.792589" lon="-3.962073">
        <ele>2273.821</ele>
        <time>2021-07-29T14:13:14Z</time>
      </trkpt>
      <trkpt lat="40.792570" lon="-3.962087">
        <ele>2273.808</ele>
        <time>2021-07-29T14:13:16Z</time>
      </trkpt>
      <trkpt lat="40.792554" lon="-3.962098">
        <ele>2273.893</ele>
        <time>2021-07-29T14:13:17Z</time>
      </trkpt>
      <trkpt lat="40.792534" lon="-3.962118">
        <ele>2273.935</ele>
        <time>2021-07-29T14:13:19Z</time>
      </trkpt>
      <trkpt lat="40.792515" lon="-3.962135">
        <ele>2273.972</ele>
        <time>2021-07-29T14:13:21Z</time>
      </trkpt>
      <trkpt lat="40.792496" lon="-3.962148">
        <ele>2273.999</ele>
        <time>2021-07-29T14:13:23Z</time>
      </trkpt>
      <trkpt lat="40.792477" lon="-3.962165">
        <ele>2274.070</ele>
        <time>2021-07-29T14:13:25Z</time>
      </trkpt>
      <trkpt lat="40.792454" lon="-3.962182">
        <ele>2274.150</ele>
        <time>2021-07-29T14:13:27Z</time>
      </trkpt>
      <trkpt lat="40.792435" lon="-3.962193">
        <ele>2274.123</ele>
        <time>2021-07-29T14:13:29Z</time>
      </trkpt>
      <trkpt lat="40.792419" lon="-3.962212">
        <ele>2274.382</ele>
        <time>2021-07-29T14:13:31Z</time>
      </trkpt>
      <trkpt lat="40.792400" lon="-3.962230">
        <ele>2274.493</ele>
        <time>2021-07-29T14:13:33Z</time>
      </trkpt>
      <trkpt lat="40.792384" lon="-3.962245">
        <ele>2274.465</ele>
        <time>2021-07-29T14:13:35Z</time>
      </trkpt>
      <trkpt lat="40.792365" lon="-3.962258">
        <ele>2274.421</ele>
        <time>2021-07-29T14:13:37Z</time>
      </trkpt>
      <trkpt lat="40.792342" lon="-3.962272">
        <ele>2274.308</ele>
        <time>2021-07-29T14:13:39Z</time>
      </trkpt>
      <trkpt lat="40.792326" lon="-3.962287">
        <ele>2274.316</ele>
        <time>2021-07-29T14:13:41Z</time>
      </trkpt>
      <trkpt lat="40.792314" lon="-3.962308">
        <ele>2274.428</ele>
        <time>2021-07-29T14:13:43Z</time>
      </trkpt>
      <trkpt lat="40.792294" lon="-3.962325">
        <ele>2274.475</ele>
        <time>2021-07-29T14:13:45Z</time>
      </trkpt>
      <trkpt lat="40.792278" lon="-3.962342">
        <ele>2274.452</ele>
        <time>2021-07-29T14:13:47Z</time>
      </trkpt>
      <trkpt lat="40.792259" lon="-3.962358">
        <ele>2274.323</ele>
        <time>2021-07-29T14:13:49Z</time>
      </trkpt>
      <trkpt lat="40.792243" lon="-3.962375">
        <ele>2274.333</ele>
        <time>2021-07-29T14:13:51Z</time>
      </trkpt>
      <trkpt lat="40.792224" lon="-3.962392">
        <ele>2274.246</ele>
        <time>2021-07-29T14:13:53Z</time>
      </trkpt>
      <trkpt lat="40.792211" lon="-3.962413">
        <ele>2274.255</ele>
        <time>2021-07-29T14:13:55Z</time>
      </trkpt>
      <trkpt lat="40.792195" lon="-3.962437">
        <ele>2274.232</ele>
        <time>2021-07-29T14:13:57Z</time>
      </trkpt>
      <trkpt lat="40.792179" lon="-3.962457">
        <ele>2274.192</ele>
        <time>2021-07-29T14:13:59Z</time>
      </trkpt>
      <trkpt lat="40.792163" lon="-3.962477">
        <ele>2274.011</ele>
        <time>2021-07-29T14:14:01Z</time>
      </trkpt>
      <trkpt lat="40.792154" lon="-3.962500">
        <ele>2274.008</ele>
        <time>2021-07-29T14:14:03Z</time>
      </trkpt>
      <trkpt lat="40.792138" lon="-3.962524">
        <ele>2273.760</ele>
        <time>2021-07-29T14:14:06Z</time>
      </trkpt>
      <trkpt lat="40.792122" lon="-3.962540">
        <ele>2273.462</ele>
        <time>2021-07-29T14:14:08Z</time>
      </trkpt>
      <trkpt lat="40.792106" lon="-3.962555">
        <ele>2273.199</ele>
        <time>2021-07-29T14:14:10Z</time>
      </trkpt>
      <trkpt lat="40.792086" lon="-3.962565">
        <ele>2272.886</ele>
        <time>2021-07-29T14:14:12Z</time>
      </trkpt>
      <trkpt lat="40.792067" lon="-3.962573">
        <ele>2272.597</ele>
        <time>2021-07-29T14:14:14Z</time>
      </trkpt>
      <trkpt lat="40.792042" lon="-3.962593">
        <ele>2272.297</ele>
        <time>2021-07-29T14:14:17Z</time>
      </trkpt>
      <trkpt lat="40.792016" lon="-3.962608">
        <ele>2271.880</ele>
        <time>2021-07-29T14:14:19Z</time>
      </trkpt>
      <trkpt lat="40.791994" lon="-3.962623">
        <ele>2271.629</ele>
        <time>2021-07-29T14:14:21Z</time>
      </trkpt>
      <trkpt lat="40.791974" lon="-3.962643">
        <ele>2271.313</ele>
        <time>2021-07-29T14:14:23Z</time>
      </trkpt>
      <trkpt lat="40.791949" lon="-3.962658">
        <ele>2271.043</ele>
        <time>2021-07-29T14:14:25Z</time>
      </trkpt>
      <trkpt lat="40.791930" lon="-3.962673">
        <ele>2270.907</ele>
        <time>2021-07-29T14:14:27Z</time>
      </trkpt>
      <trkpt lat="40.791914" lon="-3.962686">
        <ele>2270.908</ele>
        <time>2021-07-29T14:14:29Z</time>
      </trkpt>
      <trkpt lat="40.791898" lon="-3.962708">
        <ele>2270.828</ele>
        <time>2021-07-29T14:14:32Z</time>
      </trkpt>
      <trkpt lat="40.791882" lon="-3.962720">
        <ele>2270.810</ele>
        <time>2021-07-29T14:14:34Z</time>
      </trkpt>
      <trkpt lat="40.791856" lon="-3.962737">
        <ele>2270.757</ele>
        <time>2021-07-29T14:14:37Z</time>
      </trkpt>
      <trkpt lat="40.791843" lon="-3.962755">
        <ele>2270.634</ele>
        <time>2021-07-29T14:14:39Z</time>
      </trkpt>
      <trkpt lat="40.791824" lon="-3.962770">
        <ele>2270.635</ele>
        <time>2021-07-29T14:14:41Z</time>
      </trkpt>
      <trkpt lat="40.791805" lon="-3.962787">
        <ele>2270.515</ele>
        <time>2021-07-29T14:14:43Z</time>
      </trkpt>
      <trkpt lat="40.791789" lon="-3.962800">
        <ele>2270.468</ele>
        <time>2021-07-29T14:14:45Z</time>
      </trkpt>
      <trkpt lat="40.791770" lon="-3.962817">
        <ele>2270.367</ele>
        <time>2021-07-29T14:14:47Z</time>
      </trkpt>
      <trkpt lat="40.791757" lon="-3.962835">
        <ele>2270.313</ele>
        <time>2021-07-29T14:14:49Z</time>
      </trkpt>
      <trkpt lat="40.791741" lon="-3.962852">
        <ele>2270.243</ele>
        <time>2021-07-29T14:14:51Z</time>
      </trkpt>
      <trkpt lat="40.791725" lon="-3.962865">
        <ele>2270.107</ele>
        <time>2021-07-29T14:14:53Z</time>
      </trkpt>
      <trkpt lat="40.791706" lon="-3.962884">
        <ele>2270.108</ele>
        <time>2021-07-29T14:14:55Z</time>
      </trkpt>
      <trkpt lat="40.791690" lon="-3.962900">
        <ele>2270.038</ele>
        <time>2021-07-29T14:14:57Z</time>
      </trkpt>
      <trkpt lat="40.791670" lon="-3.962927">
        <ele>2270.020</ele>
        <time>2021-07-29T14:15:00Z</time>
      </trkpt>
      <trkpt lat="40.791658" lon="-3.962948">
        <ele>2270.017</ele>
        <time>2021-07-29T14:15:02Z</time>
      </trkpt>
      <trkpt lat="40.791642" lon="-3.962967">
        <ele>2270.024</ele>
        <time>2021-07-29T14:15:04Z</time>
      </trkpt>
      <trkpt lat="40.791622" lon="-3.962985">
        <ele>2270.045</ele>
        <time>2021-07-29T14:15:07Z</time>
      </trkpt>
      <trkpt lat="40.791603" lon="-3.963010">
        <ele>2270.015</ele>
        <time>2021-07-29T14:15:11Z</time>
      </trkpt>
      <trkpt lat="40.791590" lon="-3.963028">
        <ele>2270.088</ele>
        <time>2021-07-29T14:15:13Z</time>
      </trkpt>
      <trkpt lat="40.791568" lon="-3.963045">
        <ele>2270.027</ele>
        <time>2021-07-29T14:15:16Z</time>
      </trkpt>
      <trkpt lat="40.791552" lon="-3.963075">
        <ele>2270.022</ele>
        <time>2021-07-29T14:15:19Z</time>
      </trkpt>
      <trkpt lat="40.791536" lon="-3.963105">
        <ele>2270.062</ele>
        <time>2021-07-29T14:15:22Z</time>
      </trkpt>
      <trkpt lat="40.791520" lon="-3.963133">
        <ele>2270.008</ele>
        <time>2021-07-29T14:15:25Z</time>
      </trkpt>
      <trkpt lat="40.791507" lon="-3.963163">
        <ele>2270.008</ele>
        <time>2021-07-29T14:15:28Z</time>
      </trkpt>
      <trkpt lat="40.791517" lon="-3.963192">
        <ele>2270.069</ele>
        <time>2021-07-29T14:26:49Z</time>
      </trkpt>
      <trkpt lat="40.791517" lon="-3.963232">
        <ele>2270.011</ele>
        <time>2021-07-29T14:26:51Z</time>
      </trkpt>
      <trkpt lat="40.791523" lon="-3.963270">
        <ele>2270.078</ele>
        <time>2021-07-29T14:26:53Z</time>
      </trkpt>
      <trkpt lat="40.791530" lon="-3.963307">
        <ele>2270.085</ele>
        <time>2021-07-29T14:26:55Z</time>
      </trkpt>
      <trkpt lat="40.791542" lon="-3.963345">
        <ele>2269.986</ele>
        <time>2021-07-29T14:26:57Z</time>
      </trkpt>
      <trkpt lat="40.791549" lon="-3.963372">
        <ele>2269.676</ele>
        <time>2021-07-29T14:27:00Z</time>
      </trkpt>
      <trkpt lat="40.791558" lon="-3.963403">
        <ele>2269.289</ele>
        <time>2021-07-29T14:27:03Z</time>
      </trkpt>
      <trkpt lat="40.791568" lon="-3.963435">
        <ele>2268.978</ele>
        <time>2021-07-29T14:27:06Z</time>
      </trkpt>
      <trkpt lat="40.791581" lon="-3.963455">
        <ele>2268.784</ele>
        <time>2021-07-29T14:27:08Z</time>
      </trkpt>
      <trkpt lat="40.791590" lon="-3.963482">
        <ele>2268.407</ele>
        <time>2021-07-29T14:27:11Z</time>
      </trkpt>
      <trkpt lat="40.791597" lon="-3.963505">
        <ele>2268.117</ele>
        <time>2021-07-29T14:27:14Z</time>
      </trkpt>
      <trkpt lat="40.791600" lon="-3.963532">
        <ele>2267.908</ele>
        <time>2021-07-29T14:27:17Z</time>
      </trkpt>
      <trkpt lat="40.791603" lon="-3.963562">
        <ele>2267.585</ele>
        <time>2021-07-29T14:27:24Z</time>
      </trkpt>
      <trkpt lat="40.791606" lon="-3.963588">
        <ele>2267.217</ele>
        <time>2021-07-29T14:27:29Z</time>
      </trkpt>
      <trkpt lat="40.791600" lon="-3.963615">
        <ele>2266.974</ele>
        <time>2021-07-29T14:27:34Z</time>
      </trkpt>
      <trkpt lat="40.791606" lon="-3.963653">
        <ele>2266.281</ele>
        <time>2021-07-29T14:28:10Z</time>
      </trkpt>
      <trkpt lat="40.791626" lon="-3.963680">
        <ele>2265.822</ele>
        <time>2021-07-29T14:28:12Z</time>
      </trkpt>
      <trkpt lat="40.791645" lon="-3.963698">
        <ele>2265.492</ele>
        <time>2021-07-29T14:28:14Z</time>
      </trkpt>
      <trkpt lat="40.791664" lon="-3.963728">
        <ele>2264.925</ele>
        <time>2021-07-29T14:28:20Z</time>
      </trkpt>
      <trkpt lat="40.791661" lon="-3.963766">
        <ele>2264.234</ele>
        <time>2021-07-29T14:28:54Z</time>
      </trkpt>
      <trkpt lat="40.791661" lon="-3.963802">
        <ele>2263.659</ele>
        <time>2021-07-29T14:28:56Z</time>
      </trkpt>
      <trkpt lat="40.791658" lon="-3.963832">
        <ele>2263.003</ele>
        <time>2021-07-29T14:28:58Z</time>
      </trkpt>
      <trkpt lat="40.791651" lon="-3.963868">
        <ele>2262.423</ele>
        <time>2021-07-29T14:29:00Z</time>
      </trkpt>
      <trkpt lat="40.791645" lon="-3.963900">
        <ele>2261.808</ele>
        <time>2021-07-29T14:29:02Z</time>
      </trkpt>
      <trkpt lat="40.791635" lon="-3.963930">
        <ele>2261.322</ele>
        <time>2021-07-29T14:29:05Z</time>
      </trkpt>
      <trkpt lat="40.791629" lon="-3.963958">
        <ele>2260.834</ele>
        <time>2021-07-29T14:29:08Z</time>
      </trkpt>
      <trkpt lat="40.791629" lon="-3.963980">
        <ele>2260.461</ele>
        <time>2021-07-29T14:29:10Z</time>
      </trkpt>
      <trkpt lat="40.791626" lon="-3.964040">
        <ele>2259.438</ele>
        <time>2021-07-29T14:29:16Z</time>
      </trkpt>
      <trkpt lat="40.791616" lon="-3.964068">
        <ele>2258.929</ele>
        <time>2021-07-29T14:29:18Z</time>
      </trkpt>
      <trkpt lat="40.791610" lon="-3.964103">
        <ele>2258.379</ele>
        <time>2021-07-29T14:29:21Z</time>
      </trkpt>
      <trkpt lat="40.791606" lon="-3.964130">
        <ele>2257.852</ele>
        <time>2021-07-29T14:29:23Z</time>
      </trkpt>
      <trkpt lat="40.791606" lon="-3.964165">
        <ele>2257.251</ele>
        <time>2021-07-29T14:29:26Z</time>
      </trkpt>
      <trkpt lat="40.791606" lon="-3.964195">
        <ele>2256.661</ele>
        <time>2021-07-29T14:29:29Z</time>
      </trkpt>
      <trkpt lat="40.791610" lon="-3.964230">
        <ele>2255.821</ele>
        <time>2021-07-29T14:29:33Z</time>
      </trkpt>
      <trkpt lat="40.791619" lon="-3.964255">
        <ele>2255.313</ele>
        <time>2021-07-29T14:29:35Z</time>
      </trkpt>
      <trkpt lat="40.791619" lon="-3.964280">
        <ele>2254.708</ele>
        <time>2021-07-29T14:29:37Z</time>
      </trkpt>
      <trkpt lat="40.791622" lon="-3.964310">
        <ele>2254.133</ele>
        <time>2021-07-29T14:29:40Z</time>
      </trkpt>
      <trkpt lat="40.791622" lon="-3.964335">
        <ele>2253.545</ele>
        <time>2021-07-29T14:29:42Z</time>
      </trkpt>
      <trkpt lat="40.791610" lon="-3.964368">
        <ele>2252.982</ele>
        <time>2021-07-29T14:29:45Z</time>
      </trkpt>
      <trkpt lat="40.791597" lon="-3.964395">
        <ele>2252.339</ele>
        <time>2021-07-29T14:29:47Z</time>
      </trkpt>
      <trkpt lat="40.791584" lon="-3.964417">
        <ele>2251.910</ele>
        <time>2021-07-29T14:29:49Z</time>
      </trkpt>
      <trkpt lat="40.791578" lon="-3.964448">
        <ele>2251.280</ele>
        <time>2021-07-29T14:29:51Z</time>
      </trkpt>
      <trkpt lat="40.791571" lon="-3.964476">
        <ele>2250.783</ele>
        <time>2021-07-29T14:29:53Z</time>
      </trkpt>
      <trkpt lat="40.791568" lon="-3.964505">
        <ele>2250.072</ele>
        <time>2021-07-29T14:29:55Z</time>
      </trkpt>
      <trkpt lat="40.791568" lon="-3.964532">
        <ele>2249.579</ele>
        <time>2021-07-29T14:29:57Z</time>
      </trkpt>
      <trkpt lat="40.791565" lon="-3.964555">
        <ele>2249.005</ele>
        <time>2021-07-29T14:29:59Z</time>
      </trkpt>
      <trkpt lat="40.791558" lon="-3.964580">
        <ele>2248.525</ele>
        <time>2021-07-29T14:30:02Z</time>
      </trkpt>
      <trkpt lat="40.791552" lon="-3.964608">
        <ele>2247.908</ele>
        <time>2021-07-29T14:30:05Z</time>
      </trkpt>
      <trkpt lat="40.791549" lon="-3.964632">
        <ele>2247.434</ele>
        <time>2021-07-29T14:30:07Z</time>
      </trkpt>
      <trkpt lat="40.791539" lon="-3.964667">
        <ele>2246.756</ele>
        <time>2021-07-29T14:30:10Z</time>
      </trkpt>
      <trkpt lat="40.791526" lon="-3.964697">
        <ele>2246.123</ele>
        <time>2021-07-29T14:30:13Z</time>
      </trkpt>
      <trkpt lat="40.791520" lon="-3.964722">
        <ele>2245.560</ele>
        <time>2021-07-29T14:30:15Z</time>
      </trkpt>
      <trkpt lat="40.791510" lon="-3.964745">
        <ele>2245.141</ele>
        <time>2021-07-29T14:30:17Z</time>
      </trkpt>
      <trkpt lat="40.791498" lon="-3.964778">
        <ele>2244.451</ele>
        <time>2021-07-29T14:30:20Z</time>
      </trkpt>
      <trkpt lat="40.791491" lon="-3.964803">
        <ele>2243.974</ele>
        <time>2021-07-29T14:30:22Z</time>
      </trkpt>
      <trkpt lat="40.791488" lon="-3.964830">
        <ele>2243.323</ele>
        <time>2021-07-29T14:30:25Z</time>
      </trkpt>
      <trkpt lat="40.791485" lon="-3.964860">
        <ele>2242.738</ele>
        <time>2021-07-29T14:30:28Z</time>
      </trkpt>
      <trkpt lat="40.791488" lon="-3.964895">
        <ele>2241.970</ele>
        <time>2021-07-29T14:30:31Z</time>
      </trkpt>
      <trkpt lat="40.791472" lon="-3.964922">
        <ele>2241.417</ele>
        <time>2021-07-29T14:30:34Z</time>
      </trkpt>
      <trkpt lat="40.791469" lon="-3.964947">
        <ele>2240.908</ele>
        <time>2021-07-29T14:30:36Z</time>
      </trkpt>
      <trkpt lat="40.791462" lon="-3.964970">
        <ele>2240.430</ele>
        <time>2021-07-29T14:30:38Z</time>
      </trkpt>
      <trkpt lat="40.791450" lon="-3.964997">
        <ele>2239.892</ele>
        <time>2021-07-29T14:30:41Z</time>
      </trkpt>
      <trkpt lat="40.791440" lon="-3.965030">
        <ele>2239.019</ele>
        <time>2021-07-29T14:30:44Z</time>
      </trkpt>
      <trkpt lat="40.791437" lon="-3.965055">
        <ele>2238.246</ele>
        <time>2021-07-29T14:30:46Z</time>
      </trkpt>
      <trkpt lat="40.791424" lon="-3.965073">
        <ele>2237.887</ele>
        <time>2021-07-29T14:30:48Z</time>
      </trkpt>
      <trkpt lat="40.791418" lon="-3.965097">
        <ele>2237.197</ele>
        <time>2021-07-29T14:30:50Z</time>
      </trkpt>
      <trkpt lat="40.791408" lon="-3.965118">
        <ele>2236.590</ele>
        <time>2021-07-29T14:30:52Z</time>
      </trkpt>
      <trkpt lat="40.791408" lon="-3.965148">
        <ele>2235.799</ele>
        <time>2021-07-29T14:30:55Z</time>
      </trkpt>
      <trkpt lat="40.791408" lon="-3.965173">
        <ele>2234.939</ele>
        <time>2021-07-29T14:30:57Z</time>
      </trkpt>
      <trkpt lat="40.791405" lon="-3.965198">
        <ele>2234.201</ele>
        <time>2021-07-29T14:30:59Z</time>
      </trkpt>
      <trkpt lat="40.791392" lon="-3.965230">
        <ele>2233.421</ele>
        <time>2021-07-29T14:31:02Z</time>
      </trkpt>
      <trkpt lat="40.791389" lon="-3.965263">
        <ele>2232.408</ele>
        <time>2021-07-29T14:31:05Z</time>
      </trkpt>
      <trkpt lat="40.791386" lon="-3.965298">
        <ele>2231.650</ele>
        <time>2021-07-29T14:31:08Z</time>
      </trkpt>
      <trkpt lat="40.791379" lon="-3.965332">
        <ele>2230.842</ele>
        <time>2021-07-29T14:31:11Z</time>
      </trkpt>
      <trkpt lat="40.791366" lon="-3.965352">
        <ele>2230.449</ele>
        <time>2021-07-29T14:31:13Z</time>
      </trkpt>
      <trkpt lat="40.791360" lon="-3.965377">
        <ele>2229.936</ele>
        <time>2021-07-29T14:31:15Z</time>
      </trkpt>
      <trkpt lat="40.791354" lon="-3.965405">
        <ele>2229.327</ele>
        <time>2021-07-29T14:31:17Z</time>
      </trkpt>
      <trkpt lat="40.791366" lon="-3.965428">
        <ele>2228.887</ele>
        <time>2021-07-29T14:31:20Z</time>
      </trkpt>
      <trkpt lat="40.791379" lon="-3.965445">
        <ele>2228.480</ele>
        <time>2021-07-29T14:31:22Z</time>
      </trkpt>
      <trkpt lat="40.791389" lon="-3.965470">
        <ele>2227.859</ele>
        <time>2021-07-29T14:31:24Z</time>
      </trkpt>
      <trkpt lat="40.791398" lon="-3.965500">
        <ele>2227.225</ele>
        <time>2021-07-29T14:31:27Z</time>
      </trkpt>
      <trkpt lat="40.791389" lon="-3.965522">
        <ele>2226.726</ele>
        <time>2021-07-29T14:31:29Z</time>
      </trkpt>
      <trkpt lat="40.791373" lon="-3.965536">
        <ele>2226.408</ele>
        <time>2021-07-29T14:31:31Z</time>
      </trkpt>
      <trkpt lat="40.791363" lon="-3.965557">
        <ele>2226.008</ele>
        <time>2021-07-29T14:31:33Z</time>
      </trkpt>
      <trkpt lat="40.791354" lon="-3.965580">
        <ele>2225.579</ele>
        <time>2021-07-29T14:31:35Z</time>
      </trkpt>
      <trkpt lat="40.791347" lon="-3.965605">
        <ele>2224.941</ele>
        <time>2021-07-29T14:31:37Z</time>
      </trkpt>
      <trkpt lat="40.791341" lon="-3.965642">
        <ele>2224.168</ele>
        <time>2021-07-29T14:31:40Z</time>
      </trkpt>
      <trkpt lat="40.791344" lon="-3.965675">
        <ele>2223.495</ele>
        <time>2021-07-29T14:31:43Z</time>
      </trkpt>
      <trkpt lat="40.791350" lon="-3.965700">
        <ele>2222.946</ele>
        <time>2021-07-29T14:31:46Z</time>
      </trkpt>
      <trkpt lat="40.791344" lon="-3.965735">
        <ele>2222.176</ele>
        <time>2021-07-29T14:31:50Z</time>
      </trkpt>
      <trkpt lat="40.791331" lon="-3.965755">
        <ele>2221.789</ele>
        <time>2021-07-29T14:31:52Z</time>
      </trkpt>
      <trkpt lat="40.791318" lon="-3.965788">
        <ele>2221.098</ele>
        <time>2021-07-29T14:31:55Z</time>
      </trkpt>
      <trkpt lat="40.791312" lon="-3.965815">
        <ele>2220.414</ele>
        <time>2021-07-29T14:31:57Z</time>
      </trkpt>
      <trkpt lat="40.791328" lon="-3.965833">
        <ele>2220.054</ele>
        <time>2021-07-29T14:31:59Z</time>
      </trkpt>
      <trkpt lat="40.791331" lon="-3.965863">
        <ele>2219.209</ele>
        <time>2021-07-29T14:32:03Z</time>
      </trkpt>
      <trkpt lat="40.791312" lon="-3.965880">
        <ele>2218.808</ele>
        <time>2021-07-29T14:32:05Z</time>
      </trkpt>
      <trkpt lat="40.791309" lon="-3.965905">
        <ele>2218.178</ele>
        <time>2021-07-29T14:32:07Z</time>
      </trkpt>
      <trkpt lat="40.791325" lon="-3.965935">
        <ele>2217.460</ele>
        <time>2021-07-29T14:32:10Z</time>
      </trkpt>
      <trkpt lat="40.791341" lon="-3.965955">
        <ele>2216.937</ele>
        <time>2021-07-29T14:32:12Z</time>
      </trkpt>
      <trkpt lat="40.791366" lon="-3.965972">
        <ele>2216.564</ele>
        <time>2021-07-29T14:32:14Z</time>
      </trkpt>
      <trkpt lat="40.791386" lon="-3.965988">
        <ele>2216.135</ele>
        <time>2021-07-29T14:32:16Z</time>
      </trkpt>
      <trkpt lat="40.791402" lon="-3.966012">
        <ele>2215.525</ele>
        <time>2021-07-29T14:32:19Z</time>
      </trkpt>
      <trkpt lat="40.791418" lon="-3.966044">
        <ele>2214.698</ele>
        <time>2021-07-29T14:32:22Z</time>
      </trkpt>
      <trkpt lat="40.791424" lon="-3.966072">
        <ele>2213.977</ele>
        <time>2021-07-29T14:32:25Z</time>
      </trkpt>
      <trkpt lat="40.791421" lon="-3.966108">
        <ele>2213.016</ele>
        <time>2021-07-29T14:32:28Z</time>
      </trkpt>
      <trkpt lat="40.791421" lon="-3.966133">
        <ele>2212.476</ele>
        <time>2021-07-29T14:32:30Z</time>
      </trkpt>
      <trkpt lat="40.791418" lon="-3.966157">
        <ele>2211.913</ele>
        <time>2021-07-29T14:32:32Z</time>
      </trkpt>
      <trkpt lat="40.791408" lon="-3.966178">
        <ele>2211.508</ele>
        <time>2021-07-29T14:32:34Z</time>
      </trkpt>
      <trkpt lat="40.791392" lon="-3.966205">
        <ele>2211.038</ele>
        <time>2021-07-29T14:32:38Z</time>
      </trkpt>
      <trkpt lat="40.791386" lon="-3.966228">
        <ele>2210.560</ele>
        <time>2021-07-29T14:32:40Z</time>
      </trkpt>
      <trkpt lat="40.791382" lon="-3.966257">
        <ele>2209.837</ele>
        <time>2021-07-29T14:32:42Z</time>
      </trkpt>
      <trkpt lat="40.791389" lon="-3.966283">
        <ele>2209.394</ele>
        <time>2021-07-29T14:32:44Z</time>
      </trkpt>
      <trkpt lat="40.791386" lon="-3.966310">
        <ele>2208.785</ele>
        <time>2021-07-29T14:32:48Z</time>
      </trkpt>
      <trkpt lat="40.791379" lon="-3.966335">
        <ele>2208.195</ele>
        <time>2021-07-29T14:32:51Z</time>
      </trkpt>
      <trkpt lat="40.791373" lon="-3.966364">
        <ele>2207.528</ele>
        <time>2021-07-29T14:32:55Z</time>
      </trkpt>
      <trkpt lat="40.791382" lon="-3.966385">
        <ele>2207.147</ele>
        <time>2021-07-29T14:33:00Z</time>
      </trkpt>
      <trkpt lat="40.791382" lon="-3.966415">
        <ele>2206.658</ele>
        <time>2021-07-29T14:33:03Z</time>
      </trkpt>
      <trkpt lat="40.791379" lon="-3.966448">
        <ele>2206.152</ele>
        <time>2021-07-29T14:33:06Z</time>
      </trkpt>
      <trkpt lat="40.791373" lon="-3.966477">
        <ele>2205.717</ele>
        <time>2021-07-29T14:33:09Z</time>
      </trkpt>
      <trkpt lat="40.791366" lon="-3.966505">
        <ele>2205.208</ele>
        <time>2021-07-29T14:33:12Z</time>
      </trkpt>
      <trkpt lat="40.791354" lon="-3.966528">
        <ele>2204.942</ele>
        <time>2021-07-29T14:33:14Z</time>
      </trkpt>
      <trkpt lat="40.791344" lon="-3.966550">
        <ele>2204.584</ele>
        <time>2021-07-29T14:33:16Z</time>
      </trkpt>
      <trkpt lat="40.791338" lon="-3.966573">
        <ele>2204.211</ele>
        <time>2021-07-29T14:33:18Z</time>
      </trkpt>
      <trkpt lat="40.791328" lon="-3.966597">
        <ele>2203.878</ele>
        <time>2021-07-29T14:33:20Z</time>
      </trkpt>
      <trkpt lat="40.791325" lon="-3.966623">
        <ele>2203.469</ele>
        <time>2021-07-29T14:33:22Z</time>
      </trkpt>
      <trkpt lat="40.791338" lon="-3.966650">
        <ele>2203.199</ele>
        <time>2021-07-29T14:33:24Z</time>
      </trkpt>
      <trkpt lat="40.791344" lon="-3.966678">
        <ele>2202.642</ele>
        <time>2021-07-29T14:33:26Z</time>
      </trkpt>
      <trkpt lat="40.791344" lon="-3.966710">
        <ele>2202.141</ele>
        <time>2021-07-29T14:33:29Z</time>
      </trkpt>
      <trkpt lat="40.791341" lon="-3.966734">
        <ele>2201.788</ele>
        <time>2021-07-29T14:33:31Z</time>
      </trkpt>
      <trkpt lat="40.791338" lon="-3.966762">
        <ele>2201.224</ele>
        <time>2021-07-29T14:33:33Z</time>
      </trkpt>
      <trkpt lat="40.791328" lon="-3.966792">
        <ele>2200.626</ele>
        <time>2021-07-29T14:33:36Z</time>
      </trkpt>
      <trkpt lat="40.791322" lon="-3.966822">
        <ele>2200.108</ele>
        <time>2021-07-29T14:33:38Z</time>
      </trkpt>
      <trkpt lat="40.791322" lon="-3.966853">
        <ele>2199.655</ele>
        <time>2021-07-29T14:33:40Z</time>
      </trkpt>
      <trkpt lat="40.791331" lon="-3.966882">
        <ele>2199.177</ele>
        <time>2021-07-29T14:33:42Z</time>
      </trkpt>
      <trkpt lat="40.791341" lon="-3.966918">
        <ele>2198.584</ele>
        <time>2021-07-29T14:33:44Z</time>
      </trkpt>
      <trkpt lat="40.791341" lon="-3.966953">
        <ele>2197.941</ele>
        <time>2021-07-29T14:33:46Z</time>
      </trkpt>
      <trkpt lat="40.791328" lon="-3.966973">
        <ele>2197.642</ele>
        <time>2021-07-29T14:33:48Z</time>
      </trkpt>
      <trkpt lat="40.791318" lon="-3.967002">
        <ele>2197.232</ele>
        <time>2021-07-29T14:33:50Z</time>
      </trkpt>
      <trkpt lat="40.791325" lon="-3.967030">
        <ele>2196.835</ele>
        <time>2021-07-29T14:33:52Z</time>
      </trkpt>
      <trkpt lat="40.791322" lon="-3.967060">
        <ele>2196.364</ele>
        <time>2021-07-29T14:33:54Z</time>
      </trkpt>
      <trkpt lat="40.791312" lon="-3.967088">
        <ele>2195.924</ele>
        <time>2021-07-29T14:33:56Z</time>
      </trkpt>
      <trkpt lat="40.791306" lon="-3.967113">
        <ele>2195.604</ele>
        <time>2021-07-29T14:33:58Z</time>
      </trkpt>
      <trkpt lat="40.791302" lon="-3.967137">
        <ele>2195.214</ele>
        <time>2021-07-29T14:34:00Z</time>
      </trkpt>
      <trkpt lat="40.791302" lon="-3.967165">
        <ele>2194.808</ele>
        <time>2021-07-29T14:34:02Z</time>
      </trkpt>
      <trkpt lat="40.791290" lon="-3.967193">
        <ele>2194.429</ele>
        <time>2021-07-29T14:34:04Z</time>
      </trkpt>
      <trkpt lat="40.791290" lon="-3.967220">
        <ele>2194.051</ele>
        <time>2021-07-29T14:34:06Z</time>
      </trkpt>
      <trkpt lat="40.791290" lon="-3.967256">
        <ele>2193.678</ele>
        <time>2021-07-29T14:34:09Z</time>
      </trkpt>
      <trkpt lat="40.791286" lon="-3.967286">
        <ele>2193.245</ele>
        <time>2021-07-29T14:34:11Z</time>
      </trkpt>
      <trkpt lat="40.791286" lon="-3.967315">
        <ele>2192.836</ele>
        <time>2021-07-29T14:34:13Z</time>
      </trkpt>
      <trkpt lat="40.791283" lon="-3.967342">
        <ele>2192.456</ele>
        <time>2021-07-29T14:34:15Z</time>
      </trkpt>
      <trkpt lat="40.791280" lon="-3.967367">
        <ele>2192.139</ele>
        <time>2021-07-29T14:34:17Z</time>
      </trkpt>
      <trkpt lat="40.791274" lon="-3.967390">
        <ele>2191.858</ele>
        <time>2021-07-29T14:34:19Z</time>
      </trkpt>
      <trkpt lat="40.791267" lon="-3.967424">
        <ele>2191.432</ele>
        <time>2021-07-29T14:34:21Z</time>
      </trkpt>
      <trkpt lat="40.791267" lon="-3.967452">
        <ele>2191.192</ele>
        <time>2021-07-29T14:34:23Z</time>
      </trkpt>
      <trkpt lat="40.791261" lon="-3.967477">
        <ele>2190.811</ele>
        <time>2021-07-29T14:34:25Z</time>
      </trkpt>
      <trkpt lat="40.791254" lon="-3.967507">
        <ele>2190.408</ele>
        <time>2021-07-29T14:34:27Z</time>
      </trkpt>
      <trkpt lat="40.791254" lon="-3.967533">
        <ele>2189.930</ele>
        <time>2021-07-29T14:34:29Z</time>
      </trkpt>
      <trkpt lat="40.791248" lon="-3.967558">
        <ele>2189.612</ele>
        <time>2021-07-29T14:34:31Z</time>
      </trkpt>
      <trkpt lat="40.791238" lon="-3.967588">
        <ele>2189.139</ele>
        <time>2021-07-29T14:34:33Z</time>
      </trkpt>
      <trkpt lat="40.791229" lon="-3.967610">
        <ele>2188.866</ele>
        <time>2021-07-29T14:34:35Z</time>
      </trkpt>
      <trkpt lat="40.791222" lon="-3.967633">
        <ele>2188.527</ele>
        <time>2021-07-29T14:34:39Z</time>
      </trkpt>
      <trkpt lat="40.791210" lon="-3.967652">
        <ele>2188.377</ele>
        <time>2021-07-29T14:34:43Z</time>
      </trkpt>
      <trkpt lat="40.791194" lon="-3.967677">
        <ele>2188.080</ele>
        <time>2021-07-29T14:34:46Z</time>
      </trkpt>
      <trkpt lat="40.791181" lon="-3.967703">
        <ele>2187.679</ele>
        <time>2021-07-29T14:34:49Z</time>
      </trkpt>
      <trkpt lat="40.791168" lon="-3.967722">
        <ele>2187.492</ele>
        <time>2021-07-29T14:34:51Z</time>
      </trkpt>
      <trkpt lat="40.791155" lon="-3.967754">
        <ele>2187.073</ele>
        <time>2021-07-29T14:34:54Z</time>
      </trkpt>
      <trkpt lat="40.791142" lon="-3.967777">
        <ele>2186.820</ele>
        <time>2021-07-29T14:34:56Z</time>
      </trkpt>
      <trkpt lat="40.791130" lon="-3.967798">
        <ele>2186.508</ele>
        <time>2021-07-29T14:34:58Z</time>
      </trkpt>
      <trkpt lat="40.791126" lon="-3.967827">
        <ele>2186.076</ele>
        <time>2021-07-29T14:35:00Z</time>
      </trkpt>
      <trkpt lat="40.791114" lon="-3.967853">
        <ele>2185.648</ele>
        <time>2021-07-29T14:35:02Z</time>
      </trkpt>
      <trkpt lat="40.791107" lon="-3.967880">
        <ele>2185.165</ele>
        <time>2021-07-29T14:35:04Z</time>
      </trkpt>
      <trkpt lat="40.791104" lon="-3.967907">
        <ele>2184.622</ele>
        <time>2021-07-29T14:35:06Z</time>
      </trkpt>
      <trkpt lat="40.791091" lon="-3.967930">
        <ele>2184.183</ele>
        <time>2021-07-29T14:35:08Z</time>
      </trkpt>
      <trkpt lat="40.791085" lon="-3.967963">
        <ele>2183.463</ele>
        <time>2021-07-29T14:35:11Z</time>
      </trkpt>
      <trkpt lat="40.791082" lon="-3.967990">
        <ele>2182.926</ele>
        <time>2021-07-29T14:35:13Z</time>
      </trkpt>
      <trkpt lat="40.791072" lon="-3.968020">
        <ele>2182.355</ele>
        <time>2021-07-29T14:35:15Z</time>
      </trkpt>
      <trkpt lat="40.791066" lon="-3.968047">
        <ele>2181.847</ele>
        <time>2021-07-29T14:35:17Z</time>
      </trkpt>
      <trkpt lat="40.791056" lon="-3.968083">
        <ele>2181.229</ele>
        <time>2021-07-29T14:35:20Z</time>
      </trkpt>
      <trkpt lat="40.791050" lon="-3.968107">
        <ele>2180.821</ele>
        <time>2021-07-29T14:35:22Z</time>
      </trkpt>
      <trkpt lat="40.791043" lon="-3.968130">
        <ele>2180.408</ele>
        <time>2021-07-29T14:35:24Z</time>
      </trkpt>
      <trkpt lat="40.791027" lon="-3.968155">
        <ele>2180.061</ele>
        <time>2021-07-29T14:35:26Z</time>
      </trkpt>
      <trkpt lat="40.791014" lon="-3.968177">
        <ele>2179.633</ele>
        <time>2021-07-29T14:35:28Z</time>
      </trkpt>
      <trkpt lat="40.791002" lon="-3.968195">
        <ele>2179.270</ele>
        <time>2021-07-29T14:35:30Z</time>
      </trkpt>
      <trkpt lat="40.790986" lon="-3.968225">
        <ele>2178.737</ele>
        <time>2021-07-29T14:35:33Z</time>
      </trkpt>
      <trkpt lat="40.790986" lon="-3.968253">
        <ele>2178.398</ele>
        <time>2021-07-29T14:35:35Z</time>
      </trkpt>
      <trkpt lat="40.790989" lon="-3.968278">
        <ele>2177.948</ele>
        <time>2021-07-29T14:35:37Z</time>
      </trkpt>
      <trkpt lat="40.791002" lon="-3.968306">
        <ele>2177.651</ele>
        <time>2021-07-29T14:35:40Z</time>
      </trkpt>
      <trkpt lat="40.790992" lon="-3.968342">
        <ele>2177.060</ele>
        <time>2021-07-29T14:35:43Z</time>
      </trkpt>
      <trkpt lat="40.790986" lon="-3.968380">
        <ele>2176.317</ele>
        <time>2021-07-29T14:35:46Z</time>
      </trkpt>
      <trkpt lat="40.790982" lon="-3.968405">
        <ele>2175.987</ele>
        <time>2021-07-29T14:35:48Z</time>
      </trkpt>
      <trkpt lat="40.790970" lon="-3.968423">
        <ele>2175.515</ele>
        <time>2021-07-29T14:35:50Z</time>
      </trkpt>
      <trkpt lat="40.790954" lon="-3.968442">
        <ele>2175.108</ele>
        <time>2021-07-29T14:35:52Z</time>
      </trkpt>
      <trkpt lat="40.790941" lon="-3.968465">
        <ele>2174.768</ele>
        <time>2021-07-29T14:35:54Z</time>
      </trkpt>
      <trkpt lat="40.790934" lon="-3.968490">
        <ele>2174.350</ele>
        <time>2021-07-29T14:35:56Z</time>
      </trkpt>
      <trkpt lat="40.790925" lon="-3.968515">
        <ele>2173.817</ele>
        <time>2021-07-29T14:35:58Z</time>
      </trkpt>
      <trkpt lat="40.790912" lon="-3.968537">
        <ele>2173.474</ele>
        <time>2021-07-29T14:36:00Z</time>
      </trkpt>
      <trkpt lat="40.790896" lon="-3.968550">
        <ele>2173.215</ele>
        <time>2021-07-29T14:36:02Z</time>
      </trkpt>
      <trkpt lat="40.790877" lon="-3.968567">
        <ele>2172.875</ele>
        <time>2021-07-29T14:36:04Z</time>
      </trkpt>
      <trkpt lat="40.790877" lon="-3.968593">
        <ele>2172.418</ele>
        <time>2021-07-29T14:36:06Z</time>
      </trkpt>
      <trkpt lat="40.790870" lon="-3.968617">
        <ele>2172.027</ele>
        <time>2021-07-29T14:36:08Z</time>
      </trkpt>
      <trkpt lat="40.790861" lon="-3.968648">
        <ele>2171.673</ele>
        <time>2021-07-29T14:36:11Z</time>
      </trkpt>
      <trkpt lat="40.790851" lon="-3.968676">
        <ele>2171.185</ele>
        <time>2021-07-29T14:36:13Z</time>
      </trkpt>
      <trkpt lat="40.790851" lon="-3.968703">
        <ele>2170.713</ele>
        <time>2021-07-29T14:36:15Z</time>
      </trkpt>
      <trkpt lat="40.790842" lon="-3.968730">
        <ele>2170.308</ele>
        <time>2021-07-29T14:36:17Z</time>
      </trkpt>
      <trkpt lat="40.790835" lon="-3.968753">
        <ele>2170.014</ele>
        <time>2021-07-29T14:36:19Z</time>
      </trkpt>
      <trkpt lat="40.790816" lon="-3.968775">
        <ele>2169.666</ele>
        <time>2021-07-29T14:36:24Z</time>
      </trkpt>
      <trkpt lat="40.790810" lon="-3.968798">
        <ele>2169.283</ele>
        <time>2021-07-29T14:36:26Z</time>
      </trkpt>
      <trkpt lat="40.790797" lon="-3.968818">
        <ele>2168.930</ele>
        <time>2021-07-29T14:36:28Z</time>
      </trkpt>
      <trkpt lat="40.790787" lon="-3.968842">
        <ele>2168.551</ele>
        <time>2021-07-29T14:36:30Z</time>
      </trkpt>
      <trkpt lat="40.790774" lon="-3.968865">
        <ele>2168.121</ele>
        <time>2021-07-29T14:36:32Z</time>
      </trkpt>
      <trkpt lat="40.790765" lon="-3.968895">
        <ele>2167.724</ele>
        <time>2021-07-29T14:36:35Z</time>
      </trkpt>
      <trkpt lat="40.790755" lon="-3.968923">
        <ele>2167.423</ele>
        <time>2021-07-29T14:36:37Z</time>
      </trkpt>
      <trkpt lat="40.790752" lon="-3.968952">
        <ele>2167.154</ele>
        <time>2021-07-29T14:36:39Z</time>
      </trkpt>
      <trkpt lat="40.790746" lon="-3.968977">
        <ele>2166.856</ele>
        <time>2021-07-29T14:36:41Z</time>
      </trkpt>
      <trkpt lat="40.790736" lon="-3.968998">
        <ele>2166.611</ele>
        <time>2021-07-29T14:36:43Z</time>
      </trkpt>
      <trkpt lat="40.790726" lon="-3.969025">
        <ele>2166.308</ele>
        <time>2021-07-29T14:36:45Z</time>
      </trkpt>
      <trkpt lat="40.790717" lon="-3.969048">
        <ele>2166.122</ele>
        <time>2021-07-29T14:36:47Z</time>
      </trkpt>
      <trkpt lat="40.790704" lon="-3.969068">
        <ele>2165.944</ele>
        <time>2021-07-29T14:36:50Z</time>
      </trkpt>
      <trkpt lat="40.790678" lon="-3.969070">
        <ele>2165.891</ele>
        <time>2021-07-29T14:36:52Z</time>
      </trkpt>
      <trkpt lat="40.790656" lon="-3.969072">
        <ele>2165.858</ele>
        <time>2021-07-29T14:36:54Z</time>
      </trkpt>
      <trkpt lat="40.790637" lon="-3.969077">
        <ele>2165.789</ele>
        <time>2021-07-29T14:36:58Z</time>
      </trkpt>
      <trkpt lat="40.790630" lon="-3.969102">
        <ele>2165.549</ele>
        <time>2021-07-29T14:37:13Z</time>
      </trkpt>
      <trkpt lat="40.790611" lon="-3.969117">
        <ele>2165.472</ele>
        <time>2021-07-29T14:37:16Z</time>
      </trkpt>
      <trkpt lat="40.790592" lon="-3.969125">
        <ele>2165.361</ele>
        <time>2021-07-29T14:37:18Z</time>
      </trkpt>
      <trkpt lat="40.790570" lon="-3.969123">
        <ele>2165.345</ele>
        <time>2021-07-29T14:37:21Z</time>
      </trkpt>
      <trkpt lat="40.790550" lon="-3.969107">
        <ele>2165.447</ele>
        <time>2021-07-29T14:37:23Z</time>
      </trkpt>
      <trkpt lat="40.790528" lon="-3.969097">
        <ele>2165.311</ele>
        <time>2021-07-29T14:37:25Z</time>
      </trkpt>
      <trkpt lat="40.790509" lon="-3.969095">
        <ele>2165.208</ele>
        <time>2021-07-29T14:37:27Z</time>
      </trkpt>
      <trkpt lat="40.790490" lon="-3.969100">
        <ele>2165.041</ele>
        <time>2021-07-29T14:37:29Z</time>
      </trkpt>
      <trkpt lat="40.790470" lon="-3.969102">
        <ele>2164.843</ele>
        <time>2021-07-29T14:37:31Z</time>
      </trkpt>
      <trkpt lat="40.790451" lon="-3.969093">
        <ele>2164.810</ele>
        <time>2021-07-29T14:37:36Z</time>
      </trkpt>
      <trkpt lat="40.790432" lon="-3.969088">
        <ele>2164.727</ele>
        <time>2021-07-29T14:37:38Z</time>
      </trkpt>
      <trkpt lat="40.790410" lon="-3.969088">
        <ele>2164.578</ele>
        <time>2021-07-29T14:37:40Z</time>
      </trkpt>
      <trkpt lat="40.790390" lon="-3.969088">
        <ele>2164.468</ele>
        <time>2021-07-29T14:37:42Z</time>
      </trkpt>
      <trkpt lat="40.790365" lon="-3.969087">
        <ele>2164.271</ele>
        <time>2021-07-29T14:37:44Z</time>
      </trkpt>
      <trkpt lat="40.790346" lon="-3.969090">
        <ele>2164.020</ele>
        <time>2021-07-29T14:37:46Z</time>
      </trkpt>
      <trkpt lat="40.790320" lon="-3.969098">
        <ele>2163.895</ele>
        <time>2021-07-29T14:37:48Z</time>
      </trkpt>
      <trkpt lat="40.790307" lon="-3.969117">
        <ele>2163.649</ele>
        <time>2021-07-29T14:37:50Z</time>
      </trkpt>
      <trkpt lat="40.790291" lon="-3.969143">
        <ele>2163.323</ele>
        <time>2021-07-29T14:37:52Z</time>
      </trkpt>
      <trkpt lat="40.790285" lon="-3.969168">
        <ele>2163.008</ele>
        <time>2021-07-29T14:37:54Z</time>
      </trkpt>
      <trkpt lat="40.790272" lon="-3.969187">
        <ele>2162.846</ele>
        <time>2021-07-29T14:37:56Z</time>
      </trkpt>
      <trkpt lat="40.790259" lon="-3.969213">
        <ele>2162.518</ele>
        <time>2021-07-29T14:37:58Z</time>
      </trkpt>
      <trkpt lat="40.790253" lon="-3.969240">
        <ele>2162.385</ele>
        <time>2021-07-29T14:38:00Z</time>
      </trkpt>
      <trkpt lat="40.790240" lon="-3.969267">
        <ele>2162.092</ele>
        <time>2021-07-29T14:38:02Z</time>
      </trkpt>
      <trkpt lat="40.790230" lon="-3.969290">
        <ele>2161.773</ele>
        <time>2021-07-29T14:38:04Z</time>
      </trkpt>
      <trkpt lat="40.790218" lon="-3.969312">
        <ele>2161.533</ele>
        <time>2021-07-29T14:38:06Z</time>
      </trkpt>
      <trkpt lat="40.790202" lon="-3.969342">
        <ele>2161.316</ele>
        <time>2021-07-29T14:38:08Z</time>
      </trkpt>
      <trkpt lat="40.790192" lon="-3.969368">
        <ele>2161.195</ele>
        <time>2021-07-29T14:38:10Z</time>
      </trkpt>
      <trkpt lat="40.790179" lon="-3.969388">
        <ele>2160.956</ele>
        <time>2021-07-29T14:38:12Z</time>
      </trkpt>
      <trkpt lat="40.790173" lon="-3.969417">
        <ele>2160.759</ele>
        <time>2021-07-29T14:38:14Z</time>
      </trkpt>
      <trkpt lat="40.790157" lon="-3.969445">
        <ele>2160.614</ele>
        <time>2021-07-29T14:38:16Z</time>
      </trkpt>
      <trkpt lat="40.790147" lon="-3.969465">
        <ele>2160.408</ele>
        <time>2021-07-29T14:38:18Z</time>
      </trkpt>
      <trkpt lat="40.790131" lon="-3.969495">
        <ele>2160.252</ele>
        <time>2021-07-29T14:38:20Z</time>
      </trkpt>
      <trkpt lat="40.790118" lon="-3.969525">
        <ele>2160.054</ele>
        <time>2021-07-29T14:38:22Z</time>
      </trkpt>
      <trkpt lat="40.790109" lon="-3.969550">
        <ele>2159.951</ele>
        <time>2021-07-29T14:38:24Z</time>
      </trkpt>
      <trkpt lat="40.790099" lon="-3.969576">
        <ele>2159.748</ele>
        <time>2021-07-29T14:38:26Z</time>
      </trkpt>
      <trkpt lat="40.790086" lon="-3.969597">
        <ele>2159.639</ele>
        <time>2021-07-29T14:38:28Z</time>
      </trkpt>
      <trkpt lat="40.790070" lon="-3.969627">
        <ele>2159.489</ele>
        <time>2021-07-29T14:38:30Z</time>
      </trkpt>
      <trkpt lat="40.790051" lon="-3.969647">
        <ele>2159.342</ele>
        <time>2021-07-29T14:38:32Z</time>
      </trkpt>
      <trkpt lat="40.790038" lon="-3.969668">
        <ele>2159.211</ele>
        <time>2021-07-29T14:38:34Z</time>
      </trkpt>
      <trkpt lat="40.790022" lon="-3.969694">
        <ele>2159.158</ele>
        <time>2021-07-29T14:38:36Z</time>
      </trkpt>
      <trkpt lat="40.790013" lon="-3.969715">
        <ele>2159.052</ele>
        <time>2021-07-29T14:38:38Z</time>
      </trkpt>
      <trkpt lat="40.790000" lon="-3.969736">
        <ele>2159.017</ele>
        <time>2021-07-29T14:38:40Z</time>
      </trkpt>
      <trkpt lat="40.789990" lon="-3.969757">
        <ele>2159.008</ele>
        <time>2021-07-29T14:38:42Z</time>
      </trkpt>
      <trkpt lat="40.789978" lon="-3.969788">
        <ele>2159.052</ele>
        <time>2021-07-29T14:38:44Z</time>
      </trkpt>
      <trkpt lat="40.789962" lon="-3.969818">
        <ele>2159.024</ele>
        <time>2021-07-29T14:38:47Z</time>
      </trkpt>
      <trkpt lat="40.789942" lon="-3.969840">
        <ele>2159.091</ele>
        <time>2021-07-29T14:38:49Z</time>
      </trkpt>
      <trkpt lat="40.789930" lon="-3.969860">
        <ele>2159.088</ele>
        <time>2021-07-29T14:38:51Z</time>
      </trkpt>
      <trkpt lat="40.789917" lon="-3.969890">
        <ele>2159.049</ele>
        <time>2021-07-29T14:38:53Z</time>
      </trkpt>
      <trkpt lat="40.789904" lon="-3.969918">
        <ele>2159.029</ele>
        <time>2021-07-29T14:38:55Z</time>
      </trkpt>
      <trkpt lat="40.789891" lon="-3.969942">
        <ele>2159.022</ele>
        <time>2021-07-29T14:38:57Z</time>
      </trkpt>
      <trkpt lat="40.789878" lon="-3.969968">
        <ele>2159.061</ele>
        <time>2021-07-29T14:38:59Z</time>
      </trkpt>
      <trkpt lat="40.789862" lon="-3.969985">
        <ele>2159.057</ele>
        <time>2021-07-29T14:39:01Z</time>
      </trkpt>
      <trkpt lat="40.789850" lon="-3.970003">
        <ele>2159.000</ele>
        <time>2021-07-29T14:39:03Z</time>
      </trkpt>
      <trkpt lat="40.789837" lon="-3.970023">
        <ele>2159.120</ele>
        <time>2021-07-29T14:39:05Z</time>
      </trkpt>
      <trkpt lat="40.789821" lon="-3.970042">
        <ele>2159.208</ele>
        <time>2021-07-29T14:39:07Z</time>
      </trkpt>
      <trkpt lat="40.789811" lon="-3.970068">
        <ele>2159.372</ele>
        <time>2021-07-29T14:39:09Z</time>
      </trkpt>
      <trkpt lat="40.789802" lon="-3.970093">
        <ele>2159.434</ele>
        <time>2021-07-29T14:39:11Z</time>
      </trkpt>
      <trkpt lat="40.789792" lon="-3.970115">
        <ele>2159.591</ele>
        <time>2021-07-29T14:39:13Z</time>
      </trkpt>
      <trkpt lat="40.789779" lon="-3.970143">
        <ele>2159.618</ele>
        <time>2021-07-29T14:39:15Z</time>
      </trkpt>
      <trkpt lat="40.789776" lon="-3.970172">
        <ele>2159.739</ele>
        <time>2021-07-29T14:39:17Z</time>
      </trkpt>
      <trkpt lat="40.789770" lon="-3.970203">
        <ele>2159.919</ele>
        <time>2021-07-29T14:39:19Z</time>
      </trkpt>
      <trkpt lat="40.789763" lon="-3.970234">
        <ele>2160.052</ele>
        <time>2021-07-29T14:39:22Z</time>
      </trkpt>
      <trkpt lat="40.789760" lon="-3.970264">
        <ele>2160.121</ele>
        <time>2021-07-29T14:39:24Z</time>
      </trkpt>
      <trkpt lat="40.789757" lon="-3.970288">
        <ele>2160.278</ele>
        <time>2021-07-29T14:39:26Z</time>
      </trkpt>
      <trkpt lat="40.789744" lon="-3.970310">
        <ele>2160.433</ele>
        <time>2021-07-29T14:39:28Z</time>
      </trkpt>
      <trkpt lat="40.789731" lon="-3.970330">
        <ele>2160.626</ele>
        <time>2021-07-29T14:39:30Z</time>
      </trkpt>
      <trkpt lat="40.789715" lon="-3.970355">
        <ele>2160.808</ele>
        <time>2021-07-29T14:39:32Z</time>
      </trkpt>
      <trkpt lat="40.789702" lon="-3.970388">
        <ele>2161.034</ele>
        <time>2021-07-29T14:39:34Z</time>
      </trkpt>
      <trkpt lat="40.789690" lon="-3.970423">
        <ele>2161.376</ele>
        <time>2021-07-29T14:39:37Z</time>
      </trkpt>
      <trkpt lat="40.789690" lon="-3.970458">
        <ele>2161.653</ele>
        <time>2021-07-29T14:39:39Z</time>
      </trkpt>
      <trkpt lat="40.789683" lon="-3.970485">
        <ele>2161.810</ele>
        <time>2021-07-29T14:39:41Z</time>
      </trkpt>
      <trkpt lat="40.789670" lon="-3.970518">
        <ele>2162.121</ele>
        <time>2021-07-29T14:39:44Z</time>
      </trkpt>
      <trkpt lat="40.789654" lon="-3.970537">
        <ele>2162.181</ele>
        <time>2021-07-29T14:39:46Z</time>
      </trkpt>
      <trkpt lat="40.789638" lon="-3.970553">
        <ele>2162.194</ele>
        <time>2021-07-29T14:39:48Z</time>
      </trkpt>
      <trkpt lat="40.789622" lon="-3.970574">
        <ele>2162.163</ele>
        <time>2021-07-29T14:39:50Z</time>
      </trkpt>
      <trkpt lat="40.789600" lon="-3.970598">
        <ele>2162.188</ele>
        <time>2021-07-29T14:39:52Z</time>
      </trkpt>
      <trkpt lat="40.789581" lon="-3.970614">
        <ele>2162.024</ele>
        <time>2021-07-29T14:39:54Z</time>
      </trkpt>
      <trkpt lat="40.789562" lon="-3.970622">
        <ele>2161.926</ele>
        <time>2021-07-29T14:39:56Z</time>
      </trkpt>
      <trkpt lat="40.789542" lon="-3.970642">
        <ele>2161.908</ele>
        <time>2021-07-29T14:39:59Z</time>
      </trkpt>
      <trkpt lat="40.789523" lon="-3.970662">
        <ele>2161.955</ele>
        <time>2021-07-29T14:40:01Z</time>
      </trkpt>
      <trkpt lat="40.789504" lon="-3.970675">
        <ele>2161.877</ele>
        <time>2021-07-29T14:40:03Z</time>
      </trkpt>
      <trkpt lat="40.789478" lon="-3.970682">
        <ele>2161.744</ele>
        <time>2021-07-29T14:40:05Z</time>
      </trkpt>
      <trkpt lat="40.789453" lon="-3.970688">
        <ele>2161.541</ele>
        <time>2021-07-29T14:40:07Z</time>
      </trkpt>
      <trkpt lat="40.789424" lon="-3.970683">
        <ele>2161.222</ele>
        <time>2021-07-29T14:40:09Z</time>
      </trkpt>
      <trkpt lat="40.789405" lon="-3.970700">
        <ele>2161.132</ele>
        <time>2021-07-29T14:40:11Z</time>
      </trkpt>
      <trkpt lat="40.789386" lon="-3.970718">
        <ele>2161.165</ele>
        <time>2021-07-29T14:40:13Z</time>
      </trkpt>
      <trkpt lat="40.789373" lon="-3.970740">
        <ele>2161.224</ele>
        <time>2021-07-29T14:40:15Z</time>
      </trkpt>
      <trkpt lat="40.789344" lon="-3.970752">
        <ele>2161.019</ele>
        <time>2021-07-29T14:40:18Z</time>
      </trkpt>
      <trkpt lat="40.789325" lon="-3.970763">
        <ele>2160.909</ele>
        <time>2021-07-29T14:40:20Z</time>
      </trkpt>
      <trkpt lat="40.789306" lon="-3.970775">
        <ele>2160.919</ele>
        <time>2021-07-29T14:40:23Z</time>
      </trkpt>
      <trkpt lat="40.789286" lon="-3.970783">
        <ele>2160.708</ele>
        <time>2021-07-29T14:40:25Z</time>
      </trkpt>
      <trkpt lat="40.789267" lon="-3.970793">
        <ele>2160.628</ele>
        <time>2021-07-29T14:40:27Z</time>
      </trkpt>
      <trkpt lat="40.789245" lon="-3.970810">
        <ele>2160.630</ele>
        <time>2021-07-29T14:40:29Z</time>
      </trkpt>
      <trkpt lat="40.789226" lon="-3.970835">
        <ele>2160.737</ele>
        <time>2021-07-29T14:40:32Z</time>
      </trkpt>
      <trkpt lat="40.789203" lon="-3.970842">
        <ele>2160.564</ele>
        <time>2021-07-29T14:40:35Z</time>
      </trkpt>
      <trkpt lat="40.789187" lon="-3.970855">
        <ele>2160.545</ele>
        <time>2021-07-29T14:40:37Z</time>
      </trkpt>
      <trkpt lat="40.789168" lon="-3.970868">
        <ele>2160.475</ele>
        <time>2021-07-29T14:40:39Z</time>
      </trkpt>
      <trkpt lat="40.789149" lon="-3.970878">
        <ele>2160.338</ele>
        <time>2021-07-29T14:40:41Z</time>
      </trkpt>
      <trkpt lat="40.789123" lon="-3.970898">
        <ele>2160.287</ele>
        <time>2021-07-29T14:40:44Z</time>
      </trkpt>
      <trkpt lat="40.789101" lon="-3.970915">
        <ele>2160.256</ele>
        <time>2021-07-29T14:40:46Z</time>
      </trkpt>
      <trkpt lat="40.789082" lon="-3.970920">
        <ele>2160.059</ele>
        <time>2021-07-29T14:40:48Z</time>
      </trkpt>
      <trkpt lat="40.789062" lon="-3.970930">
        <ele>2159.914</ele>
        <time>2021-07-29T14:40:50Z</time>
      </trkpt>
      <trkpt lat="40.789040" lon="-3.970940">
        <ele>2159.808</ele>
        <time>2021-07-29T14:40:52Z</time>
      </trkpt>
      <trkpt lat="40.789018" lon="-3.970952">
        <ele>2159.742</ele>
        <time>2021-07-29T14:40:54Z</time>
      </trkpt>
      <trkpt lat="40.788995" lon="-3.970965">
        <ele>2159.634</ele>
        <time>2021-07-29T14:40:56Z</time>
      </trkpt>
      <trkpt lat="40.788976" lon="-3.970985">
        <ele>2159.631</ele>
        <time>2021-07-29T14:40:59Z</time>
      </trkpt>
      <trkpt lat="40.788950" lon="-3.970995">
        <ele>2159.468</ele>
        <time>2021-07-29T14:41:01Z</time>
      </trkpt>
      <trkpt lat="40.788934" lon="-3.971007">
        <ele>2159.449</ele>
        <time>2021-07-29T14:41:03Z</time>
      </trkpt>
      <trkpt lat="40.788909" lon="-3.971027">
        <ele>2159.379</ele>
        <time>2021-07-29T14:41:05Z</time>
      </trkpt>
      <trkpt lat="40.788886" lon="-3.971050">
        <ele>2159.382</ele>
        <time>2021-07-29T14:41:08Z</time>
      </trkpt>
      <trkpt lat="40.788864" lon="-3.971060">
        <ele>2159.271</ele>
        <time>2021-07-29T14:41:10Z</time>
      </trkpt>
      <trkpt lat="40.788845" lon="-3.971068">
        <ele>2159.178</ele>
        <time>2021-07-29T14:41:12Z</time>
      </trkpt>
      <trkpt lat="40.788819" lon="-3.971080">
        <ele>2158.933</ele>
        <time>2021-07-29T14:41:14Z</time>
      </trkpt>
      <trkpt lat="40.788803" lon="-3.971097">
        <ele>2158.926</ele>
        <time>2021-07-29T14:41:16Z</time>
      </trkpt>
      <trkpt lat="40.788784" lon="-3.971110">
        <ele>2158.908</ele>
        <time>2021-07-29T14:41:18Z</time>
      </trkpt>
      <trkpt lat="40.788762" lon="-3.971116">
        <ele>2158.774</ele>
        <time>2021-07-29T14:41:20Z</time>
      </trkpt>
      <trkpt lat="40.788742" lon="-3.971126">
        <ele>2158.646</ele>
        <time>2021-07-29T14:41:22Z</time>
      </trkpt>
      <trkpt lat="40.788723" lon="-3.971130">
        <ele>2158.473</ele>
        <time>2021-07-29T14:41:24Z</time>
      </trkpt>
      <trkpt lat="40.788701" lon="-3.971146">
        <ele>2158.430</ele>
        <time>2021-07-29T14:41:26Z</time>
      </trkpt>
      <trkpt lat="40.788672" lon="-3.971163">
        <ele>2158.391</ele>
        <time>2021-07-29T14:41:28Z</time>
      </trkpt>
      <trkpt lat="40.788646" lon="-3.971185">
        <ele>2158.281</ele>
        <time>2021-07-29T14:41:31Z</time>
      </trkpt>
      <trkpt lat="40.788627" lon="-3.971202">
        <ele>2158.224</ele>
        <time>2021-07-29T14:41:33Z</time>
      </trkpt>
      <trkpt lat="40.788608" lon="-3.971222">
        <ele>2158.183</ele>
        <time>2021-07-29T14:41:35Z</time>
      </trkpt>
      <trkpt lat="40.788592" lon="-3.971242">
        <ele>2158.197</ele>
        <time>2021-07-29T14:41:37Z</time>
      </trkpt>
      <trkpt lat="40.788579" lon="-3.971260">
        <ele>2158.123</ele>
        <time>2021-07-29T14:41:39Z</time>
      </trkpt>
      <trkpt lat="40.788563" lon="-3.971277">
        <ele>2158.025</ele>
        <time>2021-07-29T14:41:41Z</time>
      </trkpt>
      <trkpt lat="40.788547" lon="-3.971292">
        <ele>2157.908</ele>
        <time>2021-07-29T14:41:43Z</time>
      </trkpt>
      <trkpt lat="40.788528" lon="-3.971310">
        <ele>2157.996</ele>
        <time>2021-07-29T14:41:45Z</time>
      </trkpt>
      <trkpt lat="40.788502" lon="-3.971326">
        <ele>2157.788</ele>
        <time>2021-07-29T14:41:47Z</time>
      </trkpt>
      <trkpt lat="40.788486" lon="-3.971348">
        <ele>2157.765</ele>
        <time>2021-07-29T14:41:49Z</time>
      </trkpt>
      <trkpt lat="40.788474" lon="-3.971367">
        <ele>2157.822</ele>
        <time>2021-07-29T14:41:51Z</time>
      </trkpt>
      <trkpt lat="40.788448" lon="-3.971388">
        <ele>2157.613</ele>
        <time>2021-07-29T14:41:54Z</time>
      </trkpt>
      <trkpt lat="40.788432" lon="-3.971403">
        <ele>2157.723</ele>
        <time>2021-07-29T14:41:56Z</time>
      </trkpt>
      <trkpt lat="40.788413" lon="-3.971412">
        <ele>2157.696</ele>
        <time>2021-07-29T14:41:58Z</time>
      </trkpt>
      <trkpt lat="40.788387" lon="-3.971430">
        <ele>2157.555</ele>
        <time>2021-07-29T14:42:00Z</time>
      </trkpt>
      <trkpt lat="40.788371" lon="-3.971447">
        <ele>2157.611</ele>
        <time>2021-07-29T14:42:02Z</time>
      </trkpt>
      <trkpt lat="40.788352" lon="-3.971460">
        <ele>2157.521</ele>
        <time>2021-07-29T14:42:04Z</time>
      </trkpt>
      <trkpt lat="40.788330" lon="-3.971470">
        <ele>2157.403</ele>
        <time>2021-07-29T14:42:06Z</time>
      </trkpt>
      <trkpt lat="40.788314" lon="-3.971485">
        <ele>2157.308</ele>
        <time>2021-07-29T14:42:08Z</time>
      </trkpt>
      <trkpt lat="40.788291" lon="-3.971505">
        <ele>2157.218</ele>
        <time>2021-07-29T14:42:11Z</time>
      </trkpt>
      <trkpt lat="40.788269" lon="-3.971500">
        <ele>2156.770</ele>
        <time>2021-07-29T14:42:13Z</time>
      </trkpt>
      <trkpt lat="40.788250" lon="-3.971495">
        <ele>2156.297</ele>
        <time>2021-07-29T14:42:15Z</time>
      </trkpt>
      <trkpt lat="40.788224" lon="-3.971503">
        <ele>2155.914</ele>
        <time>2021-07-29T14:42:17Z</time>
      </trkpt>
      <trkpt lat="40.788205" lon="-3.971517">
        <ele>2155.795</ele>
        <time>2021-07-29T14:42:19Z</time>
      </trkpt>
      <trkpt lat="40.788192" lon="-3.971545">
        <ele>2156.085</ele>
        <time>2021-07-29T14:42:21Z</time>
      </trkpt>
      <trkpt lat="40.788170" lon="-3.971558">
        <ele>2155.948</ele>
        <time>2021-07-29T14:42:23Z</time>
      </trkpt>
      <trkpt lat="40.788147" lon="-3.971565">
        <ele>2155.677</ele>
        <time>2021-07-29T14:42:25Z</time>
      </trkpt>
      <trkpt lat="40.788131" lon="-3.971578">
        <ele>2155.568</ele>
        <time>2021-07-29T14:42:27Z</time>
      </trkpt>
      <trkpt lat="40.788109" lon="-3.971598">
        <ele>2155.542</ele>
        <time>2021-07-29T14:42:29Z</time>
      </trkpt>
      <trkpt lat="40.788086" lon="-3.971610">
        <ele>2155.326</ele>
        <time>2021-07-29T14:42:32Z</time>
      </trkpt>
      <trkpt lat="40.788067" lon="-3.971620">
        <ele>2155.208</ele>
        <time>2021-07-29T14:42:34Z</time>
      </trkpt>
      <trkpt lat="40.788051" lon="-3.971635">
        <ele>2155.233</ele>
        <time>2021-07-29T14:42:36Z</time>
      </trkpt>
      <trkpt lat="40.788035" lon="-3.971648">
        <ele>2155.165</ele>
        <time>2021-07-29T14:42:38Z</time>
      </trkpt>
      <trkpt lat="40.788016" lon="-3.971658">
        <ele>2154.892</ele>
        <time>2021-07-29T14:42:41Z</time>
      </trkpt>
      <trkpt lat="40.787997" lon="-3.971664">
        <ele>2154.579</ele>
        <time>2021-07-29T14:42:44Z</time>
      </trkpt>
      <trkpt lat="40.787978" lon="-3.971672">
        <ele>2154.190</ele>
        <time>2021-07-29T14:42:46Z</time>
      </trkpt>
      <trkpt lat="40.787952" lon="-3.971692">
        <ele>2153.850</ele>
        <time>2021-07-29T14:42:49Z</time>
      </trkpt>
      <trkpt lat="40.787933" lon="-3.971705">
        <ele>2153.683</ele>
        <time>2021-07-29T14:42:51Z</time>
      </trkpt>
      <trkpt lat="40.787917" lon="-3.971723">
        <ele>2153.562</ele>
        <time>2021-07-29T14:42:53Z</time>
      </trkpt>
      <trkpt lat="40.787891" lon="-3.971745">
        <ele>2153.398</ele>
        <time>2021-07-29T14:42:56Z</time>
      </trkpt>
      <trkpt lat="40.787878" lon="-3.971777">
        <ele>2153.515</ele>
        <time>2021-07-29T14:42:59Z</time>
      </trkpt>
      <trkpt lat="40.787853" lon="-3.971798">
        <ele>2153.326</ele>
        <time>2021-07-29T14:43:02Z</time>
      </trkpt>
      <trkpt lat="40.787830" lon="-3.971810">
        <ele>2152.908</ele>
        <time>2021-07-29T14:43:04Z</time>
      </trkpt>
      <trkpt lat="40.787814" lon="-3.971832">
        <ele>2152.926</ele>
        <time>2021-07-29T14:43:06Z</time>
      </trkpt>
      <trkpt lat="40.787798" lon="-3.971863">
        <ele>2153.078</ele>
        <time>2021-07-29T14:43:09Z</time>
      </trkpt>
      <trkpt lat="40.787789" lon="-3.971890">
        <ele>2153.375</ele>
        <time>2021-07-29T14:43:11Z</time>
      </trkpt>
      <trkpt lat="40.787773" lon="-3.971912">
        <ele>2153.322</ele>
        <time>2021-07-29T14:43:13Z</time>
      </trkpt>
      <trkpt lat="40.787763" lon="-3.971940">
        <ele>2153.533</ele>
        <time>2021-07-29T14:43:15Z</time>
      </trkpt>
      <trkpt lat="40.787750" lon="-3.971960">
        <ele>2153.643</ele>
        <time>2021-07-29T14:43:17Z</time>
      </trkpt>
      <trkpt lat="40.787738" lon="-3.971977">
        <ele>2153.716</ele>
        <time>2021-07-29T14:43:19Z</time>
      </trkpt>
      <trkpt lat="40.787718" lon="-3.971987">
        <ele>2153.325</ele>
        <time>2021-07-29T14:43:21Z</time>
      </trkpt>
      <trkpt lat="40.787699" lon="-3.972000">
        <ele>2153.125</ele>
        <time>2021-07-29T14:43:23Z</time>
      </trkpt>
      <trkpt lat="40.787677" lon="-3.972012">
        <ele>2152.726</ele>
        <time>2021-07-29T14:43:25Z</time>
      </trkpt>
      <trkpt lat="40.787654" lon="-3.972032">
        <ele>2152.508</ele>
        <time>2021-07-29T14:43:27Z</time>
      </trkpt>
      <trkpt lat="40.787638" lon="-3.972045">
        <ele>2152.308</ele>
        <time>2021-07-29T14:43:29Z</time>
      </trkpt>
      <trkpt lat="40.787616" lon="-3.972067">
        <ele>2152.249</ele>
        <time>2021-07-29T14:43:31Z</time>
      </trkpt>
      <trkpt lat="40.787600" lon="-3.972087">
        <ele>2152.191</ele>
        <time>2021-07-29T14:43:33Z</time>
      </trkpt>
      <trkpt lat="40.787578" lon="-3.972105">
        <ele>2151.958</ele>
        <time>2021-07-29T14:43:35Z</time>
      </trkpt>
      <trkpt lat="40.787555" lon="-3.972132">
        <ele>2151.895</ele>
        <time>2021-07-29T14:43:37Z</time>
      </trkpt>
      <trkpt lat="40.787536" lon="-3.972150">
        <ele>2151.686</ele>
        <time>2021-07-29T14:43:39Z</time>
      </trkpt>
      <trkpt lat="40.787520" lon="-3.972172">
        <ele>2151.636</ele>
        <time>2021-07-29T14:43:41Z</time>
      </trkpt>
      <trkpt lat="40.787501" lon="-3.972186">
        <ele>2151.229</ele>
        <time>2021-07-29T14:43:43Z</time>
      </trkpt>
      <trkpt lat="40.787478" lon="-3.972202">
        <ele>2151.048</ele>
        <time>2021-07-29T14:43:46Z</time>
      </trkpt>
      <trkpt lat="40.787456" lon="-3.972220">
        <ele>2150.891</ele>
        <time>2021-07-29T14:43:49Z</time>
      </trkpt>
      <trkpt lat="40.787440" lon="-3.972232">
        <ele>2150.781</ele>
        <time>2021-07-29T14:43:51Z</time>
      </trkpt>
      <trkpt lat="40.787418" lon="-3.972255">
        <ele>2150.719</ele>
        <time>2021-07-29T14:43:54Z</time>
      </trkpt>
      <trkpt lat="40.787395" lon="-3.972268">
        <ele>2150.408</ele>
        <time>2021-07-29T14:43:56Z</time>
      </trkpt>
      <trkpt lat="40.787376" lon="-3.972280">
        <ele>2150.116</ele>
        <time>2021-07-29T14:43:59Z</time>
      </trkpt>
      <trkpt lat="40.787357" lon="-3.972290">
        <ele>2149.998</ele>
        <time>2021-07-29T14:44:01Z</time>
      </trkpt>
      <trkpt lat="40.787334" lon="-3.972307">
        <ele>2149.655</ele>
        <time>2021-07-29T14:44:03Z</time>
      </trkpt>
      <trkpt lat="40.787315" lon="-3.972325">
        <ele>2149.442</ele>
        <time>2021-07-29T14:44:06Z</time>
      </trkpt>
      <trkpt lat="40.787299" lon="-3.972342">
        <ele>2149.353</ele>
        <time>2021-07-29T14:44:08Z</time>
      </trkpt>
      <trkpt lat="40.787280" lon="-3.972354">
        <ele>2149.033</ele>
        <time>2021-07-29T14:44:10Z</time>
      </trkpt>
      <trkpt lat="40.787254" lon="-3.972370">
        <ele>2148.646</ele>
        <time>2021-07-29T14:44:13Z</time>
      </trkpt>
      <trkpt lat="40.787232" lon="-3.972386">
        <ele>2148.265</ele>
        <time>2021-07-29T14:44:15Z</time>
      </trkpt>
      <trkpt lat="40.787210" lon="-3.972412">
        <ele>2148.349</ele>
        <time>2021-07-29T14:44:17Z</time>
      </trkpt>
      <trkpt lat="40.787190" lon="-3.972428">
        <ele>2148.302</ele>
        <time>2021-07-29T14:44:19Z</time>
      </trkpt>
      <trkpt lat="40.787158" lon="-3.972443">
        <ele>2148.122</ele>
        <time>2021-07-29T14:44:22Z</time>
      </trkpt>
      <trkpt lat="40.787123" lon="-3.972455">
        <ele>2147.808</ele>
        <time>2021-07-29T14:44:24Z</time>
      </trkpt>
      <trkpt lat="40.787098" lon="-3.972455">
        <ele>2147.571</ele>
        <time>2021-07-29T14:44:26Z</time>
      </trkpt>
      <trkpt lat="40.787075" lon="-3.972465">
        <ele>2147.323</ele>
        <time>2021-07-29T14:44:28Z</time>
      </trkpt>
      <trkpt lat="40.787059" lon="-3.972478">
        <ele>2147.370</ele>
        <time>2021-07-29T14:44:30Z</time>
      </trkpt>
      <trkpt lat="40.787040" lon="-3.972500">
        <ele>2147.437</ele>
        <time>2021-07-29T14:44:32Z</time>
      </trkpt>
      <trkpt lat="40.787014" lon="-3.972515">
        <ele>2147.338</ele>
        <time>2021-07-29T14:44:34Z</time>
      </trkpt>
      <trkpt lat="40.786995" lon="-3.972532">
        <ele>2147.478</ele>
        <time>2021-07-29T14:44:36Z</time>
      </trkpt>
      <trkpt lat="40.786976" lon="-3.972543">
        <ele>2147.421</ele>
        <time>2021-07-29T14:44:38Z</time>
      </trkpt>
      <trkpt lat="40.786957" lon="-3.972558">
        <ele>2147.480</ele>
        <time>2021-07-29T14:44:40Z</time>
      </trkpt>
      <trkpt lat="40.786938" lon="-3.972568">
        <ele>2147.444</ele>
        <time>2021-07-29T14:44:42Z</time>
      </trkpt>
      <trkpt lat="40.786918" lon="-3.972577">
        <ele>2147.405</ele>
        <time>2021-07-29T14:44:44Z</time>
      </trkpt>
      <trkpt lat="40.786899" lon="-3.972587">
        <ele>2147.315</ele>
        <time>2021-07-29T14:44:46Z</time>
      </trkpt>
      <trkpt lat="40.786880" lon="-3.972598">
        <ele>2147.308</ele>
        <time>2021-07-29T14:44:48Z</time>
      </trkpt>
      <trkpt lat="40.786858" lon="-3.972618">
        <ele>2147.531</ele>
        <time>2021-07-29T14:44:50Z</time>
      </trkpt>
      <trkpt lat="40.786838" lon="-3.972638">
        <ele>2147.683</ele>
        <time>2021-07-29T14:44:52Z</time>
      </trkpt>
      <trkpt lat="40.786822" lon="-3.972653">
        <ele>2147.770</ele>
        <time>2021-07-29T14:44:54Z</time>
      </trkpt>
      <trkpt lat="40.786810" lon="-3.972670">
        <ele>2147.937</ele>
        <time>2021-07-29T14:44:56Z</time>
      </trkpt>
      <trkpt lat="40.786784" lon="-3.972682">
        <ele>2147.868</ele>
        <time>2021-07-29T14:44:58Z</time>
      </trkpt>
      <trkpt lat="40.786765" lon="-3.972698">
        <ele>2147.958</ele>
        <time>2021-07-29T14:45:00Z</time>
      </trkpt>
      <trkpt lat="40.786746" lon="-3.972715">
        <ele>2147.911</ele>
        <time>2021-07-29T14:45:02Z</time>
      </trkpt>
      <trkpt lat="40.786726" lon="-3.972730">
        <ele>2148.040</ele>
        <time>2021-07-29T14:45:04Z</time>
      </trkpt>
      <trkpt lat="40.786701" lon="-3.972752">
        <ele>2148.085</ele>
        <time>2021-07-29T14:45:06Z</time>
      </trkpt>
      <trkpt lat="40.786685" lon="-3.972768">
        <ele>2148.189</ele>
        <time>2021-07-29T14:45:09Z</time>
      </trkpt>
      <trkpt lat="40.786675" lon="-3.972790">
        <ele>2148.517</ele>
        <time>2021-07-29T14:45:13Z</time>
      </trkpt>
      <trkpt lat="40.786659" lon="-3.972812">
        <ele>2148.808</ele>
        <time>2021-07-29T14:45:15Z</time>
      </trkpt>
      <trkpt lat="40.786643" lon="-3.972830">
        <ele>2149.075</ele>
        <time>2021-07-29T14:45:17Z</time>
      </trkpt>
      <trkpt lat="40.786624" lon="-3.972860">
        <ele>2149.547</ele>
        <time>2021-07-29T14:45:19Z</time>
      </trkpt>
      <trkpt lat="40.786614" lon="-3.972892">
        <ele>2150.144</ele>
        <time>2021-07-29T14:45:22Z</time>
      </trkpt>
      <trkpt lat="40.786598" lon="-3.972908">
        <ele>2150.291</ele>
        <time>2021-07-29T14:45:24Z</time>
      </trkpt>
      <trkpt lat="40.786576" lon="-3.972922">
        <ele>2150.042</ele>
        <time>2021-07-29T14:45:26Z</time>
      </trkpt>
      <trkpt lat="40.786557" lon="-3.972917">
        <ele>2149.432</ele>
        <time>2021-07-29T14:45:28Z</time>
      </trkpt>
      <trkpt lat="40.786541" lon="-3.972933">
        <ele>2149.495</ele>
        <time>2021-07-29T14:45:30Z</time>
      </trkpt>
      <trkpt lat="40.786518" lon="-3.972950">
        <ele>2149.334</ele>
        <time>2021-07-29T14:45:32Z</time>
      </trkpt>
      <trkpt lat="40.786506" lon="-3.972968">
        <ele>2149.418</ele>
        <time>2021-07-29T14:45:34Z</time>
      </trkpt>
      <trkpt lat="40.786493" lon="-3.972992">
        <ele>2149.698</ele>
        <time>2021-07-29T14:45:37Z</time>
      </trkpt>
      <trkpt lat="40.786464" lon="-3.973002">
        <ele>2149.017</ele>
        <time>2021-07-29T14:45:40Z</time>
      </trkpt>
      <trkpt lat="40.786445" lon="-3.973005">
        <ele>2148.608</ele>
        <time>2021-07-29T14:45:42Z</time>
      </trkpt>
      <trkpt lat="40.786422" lon="-3.973003">
        <ele>2147.918</ele>
        <time>2021-07-29T14:45:45Z</time>
      </trkpt>
      <trkpt lat="40.786406" lon="-3.973022">
        <ele>2147.970</ele>
        <time>2021-07-29T14:45:48Z</time>
      </trkpt>
      <trkpt lat="40.786378" lon="-3.973044">
        <ele>2147.687</ele>
        <time>2021-07-29T14:45:51Z</time>
      </trkpt>
      <trkpt lat="40.786349" lon="-3.973065">
        <ele>2147.314</ele>
        <time>2021-07-29T14:45:53Z</time>
      </trkpt>
      <trkpt lat="40.786336" lon="-3.973092">
        <ele>2147.625</ele>
        <time>2021-07-29T14:45:55Z</time>
      </trkpt>
      <trkpt lat="40.786317" lon="-3.973107">
        <ele>2147.585</ele>
        <time>2021-07-29T14:45:57Z</time>
      </trkpt>
      <trkpt lat="40.786301" lon="-3.973122">
        <ele>2147.558</ele>
        <time>2021-07-29T14:45:59Z</time>
      </trkpt>
      <trkpt lat="40.786285" lon="-3.973133">
        <ele>2147.367</ele>
        <time>2021-07-29T14:46:01Z</time>
      </trkpt>
      <trkpt lat="40.786262" lon="-3.973145">
        <ele>2147.015</ele>
        <time>2021-07-29T14:46:04Z</time>
      </trkpt>
      <trkpt lat="40.786250" lon="-3.973163">
        <ele>2147.165</ele>
        <time>2021-07-29T14:46:06Z</time>
      </trkpt>
      <trkpt lat="40.786230" lon="-3.973198">
        <ele>2147.411</ele>
        <time>2021-07-29T14:46:10Z</time>
      </trkpt>
      <trkpt lat="40.786218" lon="-3.973225">
        <ele>2147.608</ele>
        <time>2021-07-29T14:46:13Z</time>
      </trkpt>
      <trkpt lat="40.786202" lon="-3.973238">
        <ele>2147.528</ele>
        <time>2021-07-29T14:46:15Z</time>
      </trkpt>
      <trkpt lat="40.786189" lon="-3.973263">
        <ele>2147.620</ele>
        <time>2021-07-29T14:46:18Z</time>
      </trkpt>
      <trkpt lat="40.786179" lon="-3.973293">
        <ele>2147.977</ele>
        <time>2021-07-29T14:46:21Z</time>
      </trkpt>
      <trkpt lat="40.786163" lon="-3.973318">
        <ele>2148.064</ele>
        <time>2021-07-29T14:46:24Z</time>
      </trkpt>
      <trkpt lat="40.786147" lon="-3.973330">
        <ele>2147.835</ele>
        <time>2021-07-29T14:46:26Z</time>
      </trkpt>
      <trkpt lat="40.786134" lon="-3.973350">
        <ele>2147.945</ele>
        <time>2021-07-29T14:46:29Z</time>
      </trkpt>
      <trkpt lat="40.786125" lon="-3.973374">
        <ele>2148.148</ele>
        <time>2021-07-29T14:46:31Z</time>
      </trkpt>
      <trkpt lat="40.786109" lon="-3.973400">
        <ele>2148.137</ele>
        <time>2021-07-29T14:46:33Z</time>
      </trkpt>
      <trkpt lat="40.786099" lon="-3.973424">
        <ele>2148.231</ele>
        <time>2021-07-29T14:46:38Z</time>
      </trkpt>
      <trkpt lat="40.786083" lon="-3.973443">
        <ele>2148.061</ele>
        <time>2021-07-29T14:46:41Z</time>
      </trkpt>
      <trkpt lat="40.786070" lon="-3.973467">
        <ele>2147.907</ele>
        <time>2021-07-29T14:46:44Z</time>
      </trkpt>
      <trkpt lat="40.786058" lon="-3.973492">
        <ele>2147.908</ele>
        <time>2021-07-29T14:46:47Z</time>
      </trkpt>
      <trkpt lat="40.786038" lon="-3.973512">
        <ele>2147.620</ele>
        <time>2021-07-29T14:46:50Z</time>
      </trkpt>
      <trkpt lat="40.786019" lon="-3.973533">
        <ele>2147.312</ele>
        <time>2021-07-29T14:46:53Z</time>
      </trkpt>
      <trkpt lat="40.786003" lon="-3.973550">
        <ele>2147.029</ele>
        <time>2021-07-29T14:46:56Z</time>
      </trkpt>
      <trkpt lat="40.785987" lon="-3.973570">
        <ele>2146.876</ele>
        <time>2021-07-29T14:46:59Z</time>
      </trkpt>
      <trkpt lat="40.785968" lon="-3.973605">
        <ele>2146.737</ele>
        <time>2021-07-29T14:47:02Z</time>
      </trkpt>
      <trkpt lat="40.785952" lon="-3.973632">
        <ele>2146.897</ele>
        <time>2021-07-29T14:47:06Z</time>
      </trkpt>
      <trkpt lat="40.785926" lon="-3.973652">
        <ele>2146.390</ele>
        <time>2021-07-29T14:47:10Z</time>
      </trkpt>
      <trkpt lat="40.785910" lon="-3.973663">
        <ele>2146.099</ele>
        <time>2021-07-29T14:47:12Z</time>
      </trkpt>
      <trkpt lat="40.785891" lon="-3.973687">
        <ele>2145.938</ele>
        <time>2021-07-29T14:47:16Z</time>
      </trkpt>
      <trkpt lat="40.785872" lon="-3.973698">
        <ele>2145.570</ele>
        <time>2021-07-29T14:47:18Z</time>
      </trkpt>
      <trkpt lat="40.785853" lon="-3.973717">
        <ele>2145.317</ele>
        <time>2021-07-29T14:47:21Z</time>
      </trkpt>
      <trkpt lat="40.785830" lon="-3.973727">
        <ele>2144.808</ele>
        <time>2021-07-29T14:47:25Z</time>
      </trkpt>
      <trkpt lat="40.785808" lon="-3.973745">
        <ele>2144.630</ele>
        <time>2021-07-29T14:47:28Z</time>
      </trkpt>
      <trkpt lat="40.785792" lon="-3.973762">
        <ele>2144.542</ele>
        <time>2021-07-29T14:47:31Z</time>
      </trkpt>
      <trkpt lat="40.785766" lon="-3.973768">
        <ele>2143.929</ele>
        <time>2021-07-29T14:47:34Z</time>
      </trkpt>
      <trkpt lat="40.785744" lon="-3.973775">
        <ele>2143.416</ele>
        <time>2021-07-29T14:47:37Z</time>
      </trkpt>
      <trkpt lat="40.785725" lon="-3.973778">
        <ele>2142.957</ele>
        <time>2021-07-29T14:47:39Z</time>
      </trkpt>
      <trkpt lat="40.785706" lon="-3.973778">
        <ele>2142.387</ele>
        <time>2021-07-29T14:47:41Z</time>
      </trkpt>
      <trkpt lat="40.785686" lon="-3.973776">
        <ele>2141.650</ele>
        <time>2021-07-29T14:47:43Z</time>
      </trkpt>
      <trkpt lat="40.785667" lon="-3.973776">
        <ele>2141.099</ele>
        <time>2021-07-29T14:47:45Z</time>
      </trkpt>
      <trkpt lat="40.785642" lon="-3.973782">
        <ele>2140.424</ele>
        <time>2021-07-29T14:47:48Z</time>
      </trkpt>
      <trkpt lat="40.785613" lon="-3.973786">
        <ele>2139.604</ele>
        <time>2021-07-29T14:47:51Z</time>
      </trkpt>
      <trkpt lat="40.785590" lon="-3.973788">
        <ele>2138.914</ele>
        <time>2021-07-29T14:47:53Z</time>
      </trkpt>
      <trkpt lat="40.785565" lon="-3.973788">
        <ele>2138.108</ele>
        <time>2021-07-29T14:47:55Z</time>
      </trkpt>
      <trkpt lat="40.785542" lon="-3.973792">
        <ele>2137.429</ele>
        <time>2021-07-29T14:47:57Z</time>
      </trkpt>
      <trkpt lat="40.785523" lon="-3.973815">
        <ele>2137.371</ele>
        <time>2021-07-29T14:48:00Z</time>
      </trkpt>
      <trkpt lat="40.785507" lon="-3.973827">
        <ele>2137.048</ele>
        <time>2021-07-29T14:48:03Z</time>
      </trkpt>
      <trkpt lat="40.785491" lon="-3.973838">
        <ele>2136.675</ele>
        <time>2021-07-29T14:48:05Z</time>
      </trkpt>
      <trkpt lat="40.785453" lon="-3.973857">
        <ele>2135.756</ele>
        <time>2021-07-29T14:48:41Z</time>
      </trkpt>
      <trkpt lat="40.785440" lon="-3.973877">
        <ele>2135.646</ele>
        <time>2021-07-29T14:48:43Z</time>
      </trkpt>
      <trkpt lat="40.785430" lon="-3.973900">
        <ele>2135.759</ele>
        <time>2021-07-29T14:48:45Z</time>
      </trkpt>
      <trkpt lat="40.785411" lon="-3.973930">
        <ele>2135.668</ele>
        <time>2021-07-29T14:48:47Z</time>
      </trkpt>
      <trkpt lat="40.785395" lon="-3.973958">
        <ele>2135.668</ele>
        <time>2021-07-29T14:48:49Z</time>
      </trkpt>
      <trkpt lat="40.785386" lon="-3.973983">
        <ele>2135.942</ele>
        <time>2021-07-29T14:48:51Z</time>
      </trkpt>
      <trkpt lat="40.785373" lon="-3.974003">
        <ele>2135.926</ele>
        <time>2021-07-29T14:48:53Z</time>
      </trkpt>
      <trkpt lat="40.785366" lon="-3.974035">
        <ele>2136.408</ele>
        <time>2021-07-29T14:48:56Z</time>
      </trkpt>
      <trkpt lat="40.785360" lon="-3.974060">
        <ele>2136.783</ele>
        <time>2021-07-29T14:48:58Z</time>
      </trkpt>
      <trkpt lat="40.785360" lon="-3.974094">
        <ele>2137.535</ele>
        <time>2021-07-29T14:49:01Z</time>
      </trkpt>
      <trkpt lat="40.785347" lon="-3.974117">
        <ele>2137.652</ele>
        <time>2021-07-29T14:49:04Z</time>
      </trkpt>
      <trkpt lat="40.785341" lon="-3.974150">
        <ele>2138.219</ele>
        <time>2021-07-29T14:49:09Z</time>
      </trkpt>
      <trkpt lat="40.785328" lon="-3.974175">
        <ele>2138.540</ele>
        <time>2021-07-29T14:49:11Z</time>
      </trkpt>
      <trkpt lat="40.785315" lon="-3.974193">
        <ele>2138.680</ele>
        <time>2021-07-29T14:49:13Z</time>
      </trkpt>
      <trkpt lat="40.785302" lon="-3.974227">
        <ele>2139.143</ele>
        <time>2021-07-29T14:49:15Z</time>
      </trkpt>
      <trkpt lat="40.785290" lon="-3.974252">
        <ele>2139.432</ele>
        <time>2021-07-29T14:49:18Z</time>
      </trkpt>
      <trkpt lat="40.785270" lon="-3.974263">
        <ele>2139.426</ele>
        <time>2021-07-29T14:49:20Z</time>
      </trkpt>
      <trkpt lat="40.785248" lon="-3.974268">
        <ele>2139.447</ele>
        <time>2021-07-29T14:49:23Z</time>
      </trkpt>
      <trkpt lat="40.785232" lon="-3.974285">
        <ele>2139.711</ele>
        <time>2021-07-29T14:49:26Z</time>
      </trkpt>
      <trkpt lat="40.785210" lon="-3.974296">
        <ele>2139.908</ele>
        <time>2021-07-29T14:49:29Z</time>
      </trkpt>
      <trkpt lat="40.785194" lon="-3.974312">
        <ele>2140.269</ele>
        <time>2021-07-29T14:49:31Z</time>
      </trkpt>
      <trkpt lat="40.785187" lon="-3.974335">
        <ele>2140.871</ele>
        <time>2021-07-29T14:49:35Z</time>
      </trkpt>
      <trkpt lat="40.785190" lon="-3.974360">
        <ele>2141.578</ele>
        <time>2021-07-29T14:49:39Z</time>
      </trkpt>
      <trkpt lat="40.785190" lon="-3.974385">
        <ele>2142.195</ele>
        <time>2021-07-29T14:49:45Z</time>
      </trkpt>
      <trkpt lat="40.785165" lon="-3.974390">
        <ele>2142.136</ele>
        <time>2021-07-29T14:49:49Z</time>
      </trkpt>
      <trkpt lat="40.785146" lon="-3.974383">
        <ele>2141.936</ele>
        <time>2021-07-29T14:49:51Z</time>
      </trkpt>
      <trkpt lat="40.785126" lon="-3.974368">
        <ele>2141.489</ele>
        <time>2021-07-29T14:49:59Z</time>
      </trkpt>
      <trkpt lat="40.785107" lon="-3.974358">
        <ele>2141.088</ele>
        <time>2021-07-29T14:50:02Z</time>
      </trkpt>
      <trkpt lat="40.785088" lon="-3.974347">
        <ele>2140.651</ele>
        <time>2021-07-29T14:54:09Z</time>
      </trkpt>
      <trkpt lat="40.785062" lon="-3.974345">
        <ele>2140.401</ele>
        <time>2021-07-29T14:54:11Z</time>
      </trkpt>
      <trkpt lat="40.785034" lon="-3.974347">
        <ele>2140.411</ele>
        <time>2021-07-29T14:54:13Z</time>
      </trkpt>
      <trkpt lat="40.785008" lon="-3.974347">
        <ele>2140.208</ele>
        <time>2021-07-29T14:54:15Z</time>
      </trkpt>
      <trkpt lat="40.784976" lon="-3.974343">
        <ele>2140.142</ele>
        <time>2021-07-29T14:54:17Z</time>
      </trkpt>
      <trkpt lat="40.784954" lon="-3.974343">
        <ele>2140.194</ele>
        <time>2021-07-29T14:54:22Z</time>
      </trkpt>
      <trkpt lat="40.784934" lon="-3.974350">
        <ele>2140.341</ele>
        <time>2021-07-29T14:54:27Z</time>
      </trkpt>
      <trkpt lat="40.784918" lon="-3.974327">
        <ele>2139.598</ele>
        <time>2021-07-29T14:54:30Z</time>
      </trkpt>
      <trkpt lat="40.784906" lon="-3.974305">
        <ele>2138.869</ele>
        <time>2021-07-29T14:54:33Z</time>
      </trkpt>
      <trkpt lat="40.784886" lon="-3.974288">
        <ele>2138.259</ele>
        <time>2021-07-29T14:54:36Z</time>
      </trkpt>
      <trkpt lat="40.784880" lon="-3.974263">
        <ele>2137.452</ele>
        <time>2021-07-29T14:54:40Z</time>
      </trkpt>
      <trkpt lat="40.784854" lon="-3.974255">
        <ele>2137.031</ele>
        <time>2021-07-29T14:54:44Z</time>
      </trkpt>
      <trkpt lat="40.784835" lon="-3.974247">
        <ele>2136.624</ele>
        <time>2021-07-29T14:54:47Z</time>
      </trkpt>
      <trkpt lat="40.784816" lon="-3.974235">
        <ele>2136.104</ele>
        <time>2021-07-29T14:54:50Z</time>
      </trkpt>
      <trkpt lat="40.784800" lon="-3.974222">
        <ele>2135.614</ele>
        <time>2021-07-29T14:54:53Z</time>
      </trkpt>
      <trkpt lat="40.784784" lon="-3.974207">
        <ele>2134.908</ele>
        <time>2021-07-29T14:54:56Z</time>
      </trkpt>
      <trkpt lat="40.784768" lon="-3.974193">
        <ele>2134.329</ele>
        <time>2021-07-29T14:55:00Z</time>
      </trkpt>
      <trkpt lat="40.784752" lon="-3.974177">
        <ele>2133.671</ele>
        <time>2021-07-29T14:55:03Z</time>
      </trkpt>
      <trkpt lat="40.784726" lon="-3.974185">
        <ele>2133.868</ele>
        <time>2021-07-29T14:55:07Z</time>
      </trkpt>
      <trkpt lat="40.784707" lon="-3.974190">
        <ele>2133.935</ele>
        <time>2021-07-29T14:55:09Z</time>
      </trkpt>
      <trkpt lat="40.784688" lon="-3.974188">
        <ele>2133.856</ele>
        <time>2021-07-29T14:55:11Z</time>
      </trkpt>
      <trkpt lat="40.784659" lon="-3.974170">
        <ele>2133.146</ele>
        <time>2021-07-29T14:55:14Z</time>
      </trkpt>
      <trkpt lat="40.784640" lon="-3.974148">
        <ele>2132.289</ele>
        <time>2021-07-29T14:55:17Z</time>
      </trkpt>
      <trkpt lat="40.784621" lon="-3.974138">
        <ele>2131.838</ele>
        <time>2021-07-29T14:55:19Z</time>
      </trkpt>
      <trkpt lat="40.784598" lon="-3.974128">
        <ele>2131.568</ele>
        <time>2021-07-29T14:55:21Z</time>
      </trkpt>
      <trkpt lat="40.784579" lon="-3.974120">
        <ele>2131.242</ele>
        <time>2021-07-29T14:55:23Z</time>
      </trkpt>
      <trkpt lat="40.784554" lon="-3.974104">
        <ele>2130.626</ele>
        <time>2021-07-29T14:55:26Z</time>
      </trkpt>
      <trkpt lat="40.784534" lon="-3.974092">
        <ele>2130.108</ele>
        <time>2021-07-29T14:55:28Z</time>
      </trkpt>
      <trkpt lat="40.784512" lon="-3.974085">
        <ele>2129.983</ele>
        <time>2021-07-29T14:55:30Z</time>
      </trkpt>
      <trkpt lat="40.784486" lon="-3.974072">
        <ele>2129.515</ele>
        <time>2021-07-29T14:55:33Z</time>
      </trkpt>
      <trkpt lat="40.784458" lon="-3.974068">
        <ele>2129.412</ele>
        <time>2021-07-29T14:55:36Z</time>
      </trkpt>
      <trkpt lat="40.784432" lon="-3.974060">
        <ele>2129.339</ele>
        <time>2021-07-29T14:55:39Z</time>
      </trkpt>
      <trkpt lat="40.784403" lon="-3.974058">
        <ele>2129.430</ele>
        <time>2021-07-29T14:55:42Z</time>
      </trkpt>
      <trkpt lat="40.784381" lon="-3.974055">
        <ele>2129.590</ele>
        <time>2021-07-29T14:55:44Z</time>
      </trkpt>
      <trkpt lat="40.784362" lon="-3.974055">
        <ele>2129.723</ele>
        <time>2021-07-29T14:55:46Z</time>
      </trkpt>
      <trkpt lat="40.784342" lon="-3.974048">
        <ele>2129.632</ele>
        <time>2021-07-29T14:55:48Z</time>
      </trkpt>
      <trkpt lat="40.784323" lon="-3.974052">
        <ele>2129.974</ele>
        <time>2021-07-29T14:55:50Z</time>
      </trkpt>
      <trkpt lat="40.784304" lon="-3.974043">
        <ele>2129.856</ele>
        <time>2021-07-29T14:55:52Z</time>
      </trkpt>
      <trkpt lat="40.784272" lon="-3.974035">
        <ele>2129.821</ele>
        <time>2021-07-29T14:55:55Z</time>
      </trkpt>
      <trkpt lat="40.784253" lon="-3.974043">
        <ele>2130.208</ele>
        <time>2021-07-29T14:55:57Z</time>
      </trkpt>
      <trkpt lat="40.784234" lon="-3.974048">
        <ele>2130.694</ele>
        <time>2021-07-29T14:55:59Z</time>
      </trkpt>
      <trkpt lat="40.784211" lon="-3.974052">
        <ele>2130.946</ele>
        <time>2021-07-29T14:56:02Z</time>
      </trkpt>
      <trkpt lat="40.784192" lon="-3.974050">
        <ele>2131.093</ele>
        <time>2021-07-29T14:56:05Z</time>
      </trkpt>
      <trkpt lat="40.784170" lon="-3.974067">
        <ele>2131.710</ele>
        <time>2021-07-29T14:56:08Z</time>
      </trkpt>
      <trkpt lat="40.784144" lon="-3.974074">
        <ele>2132.131</ele>
        <time>2021-07-29T14:56:11Z</time>
      </trkpt>
      <trkpt lat="40.784118" lon="-3.974075">
        <ele>2132.371</ele>
        <time>2021-07-29T14:56:15Z</time>
      </trkpt>
      <trkpt lat="40.784093" lon="-3.974090">
        <ele>2133.114</ele>
        <time>2021-07-29T14:56:18Z</time>
      </trkpt>
      <trkpt lat="40.784074" lon="-3.974105">
        <ele>2133.873</ele>
        <time>2021-07-29T14:56:21Z</time>
      </trkpt>
      <trkpt lat="40.784051" lon="-3.974117">
        <ele>2134.536</ele>
        <time>2021-07-29T14:56:24Z</time>
      </trkpt>
      <trkpt lat="40.784035" lon="-3.974130">
        <ele>2135.317</ele>
        <time>2021-07-29T14:56:26Z</time>
      </trkpt>
      <trkpt lat="40.784016" lon="-3.974140">
        <ele>2135.918</ele>
        <time>2021-07-29T14:56:29Z</time>
      </trkpt>
      <trkpt lat="40.783994" lon="-3.974130">
        <ele>2135.708</ele>
        <time>2021-07-29T14:56:32Z</time>
      </trkpt>
      <trkpt lat="40.783974" lon="-3.974112">
        <ele>2135.050</ele>
        <time>2021-07-29T14:56:34Z</time>
      </trkpt>
      <trkpt lat="40.783958" lon="-3.974098">
        <ele>2134.582</ele>
        <time>2021-07-29T14:56:36Z</time>
      </trkpt>
      <trkpt lat="40.783936" lon="-3.974108">
        <ele>2135.289</ele>
        <time>2021-07-29T14:56:41Z</time>
      </trkpt>
      <trkpt lat="40.783917" lon="-3.974118">
        <ele>2135.936</ele>
        <time>2021-07-29T14:56:44Z</time>
      </trkpt>
      <trkpt lat="40.783898" lon="-3.974132">
        <ele>2136.927</ele>
        <time>2021-07-29T14:56:47Z</time>
      </trkpt>
      <trkpt lat="40.783878" lon="-3.974136">
        <ele>2137.277</ele>
        <time>2021-07-29T14:56:50Z</time>
      </trkpt>
      <trkpt lat="40.783856" lon="-3.974132">
        <ele>2136.870</ele>
        <time>2021-07-29T14:56:53Z</time>
      </trkpt>
      <trkpt lat="40.783837" lon="-3.974125">
        <ele>2136.279</ele>
        <time>2021-07-29T14:56:56Z</time>
      </trkpt>
      <trkpt lat="40.783818" lon="-3.974125">
        <ele>2136.116</ele>
        <time>2021-07-29T14:56:58Z</time>
      </trkpt>
      <trkpt lat="40.783798" lon="-3.974125">
        <ele>2135.976</ele>
        <time>2021-07-29T14:57:00Z</time>
      </trkpt>
      <trkpt lat="40.783786" lon="-3.974105">
        <ele>2134.713</ele>
        <time>2021-07-29T14:57:03Z</time>
      </trkpt>
      <trkpt lat="40.783766" lon="-3.974095">
        <ele>2134.008</ele>
        <time>2021-07-29T14:57:06Z</time>
      </trkpt>
      <trkpt lat="40.783747" lon="-3.974095">
        <ele>2133.888</ele>
        <time>2021-07-29T14:57:10Z</time>
      </trkpt>
      <trkpt lat="40.783728" lon="-3.974088">
        <ele>2133.320</ele>
        <time>2021-07-29T14:57:17Z</time>
      </trkpt>
      <trkpt lat="40.783715" lon="-3.974068">
        <ele>2132.197</ele>
        <time>2021-07-29T14:57:19Z</time>
      </trkpt>
      <trkpt lat="40.783696" lon="-3.974043">
        <ele>2130.524</ele>
        <time>2021-07-29T14:57:22Z</time>
      </trkpt>
      <trkpt lat="40.783683" lon="-3.974023">
        <ele>2129.295</ele>
        <time>2021-07-29T14:57:25Z</time>
      </trkpt>
      <trkpt lat="40.783664" lon="-3.974018">
        <ele>2128.835</ele>
        <time>2021-07-29T14:57:30Z</time>
      </trkpt>
      <trkpt lat="40.783642" lon="-3.974012">
        <ele>2128.348</ele>
        <time>2021-07-29T14:57:34Z</time>
      </trkpt>
      <trkpt lat="40.783622" lon="-3.974017">
        <ele>2128.557</ele>
        <time>2021-07-29T14:57:37Z</time>
      </trkpt>
      <trkpt lat="40.783603" lon="-3.974015">
        <ele>2128.348</ele>
        <time>2021-07-29T14:57:47Z</time>
      </trkpt>
      <trkpt lat="40.783587" lon="-3.974027">
        <ele>2129.161</ele>
        <time>2021-07-29T14:57:50Z</time>
      </trkpt>
      <trkpt lat="40.783568" lon="-3.974040">
        <ele>2129.917</ele>
        <time>2021-07-29T14:57:53Z</time>
      </trkpt>
      <trkpt lat="40.783546" lon="-3.974055">
        <ele>2130.908</ele>
        <time>2021-07-29T14:57:56Z</time>
      </trkpt>
      <trkpt lat="40.783526" lon="-3.974048">
        <ele>2130.631</ele>
        <time>2021-07-29T14:57:58Z</time>
      </trkpt>
      <trkpt lat="40.783504" lon="-3.974048">
        <ele>2130.723</ele>
        <time>2021-07-29T14:58:02Z</time>
      </trkpt>
      <trkpt lat="40.783485" lon="-3.974053">
        <ele>2131.060</ele>
        <time>2021-07-29T14:58:05Z</time>
      </trkpt>
      <trkpt lat="40.783466" lon="-3.974048">
        <ele>2130.867</ele>
        <time>2021-07-29T14:58:09Z</time>
      </trkpt>
      <trkpt lat="40.783446" lon="-3.974032">
        <ele>2130.128</ele>
        <time>2021-07-29T14:58:14Z</time>
      </trkpt>
      <trkpt lat="40.783427" lon="-3.974027">
        <ele>2130.078</ele>
        <time>2021-07-29T14:58:18Z</time>
      </trkpt>
      <trkpt lat="40.783408" lon="-3.974027">
        <ele>2130.161</ele>
        <time>2021-07-29T14:58:21Z</time>
      </trkpt>
      <trkpt lat="40.783389" lon="-3.974020">
        <ele>2129.820</ele>
        <time>2021-07-29T14:58:26Z</time>
      </trkpt>
      <trkpt lat="40.783366" lon="-3.974017">
        <ele>2129.863</ele>
        <time>2021-07-29T14:58:29Z</time>
      </trkpt>
      <trkpt lat="40.783344" lon="-3.973997">
        <ele>2129.044</ele>
        <time>2021-07-29T14:58:32Z</time>
      </trkpt>
      <trkpt lat="40.783328" lon="-3.973985">
        <ele>2128.618</ele>
        <time>2021-07-29T14:58:35Z</time>
      </trkpt>
      <trkpt lat="40.783309" lon="-3.973980">
        <ele>2128.808</ele>
        <time>2021-07-29T14:58:39Z</time>
      </trkpt>
      <trkpt lat="40.783286" lon="-3.973972">
        <ele>2128.923</ele>
        <time>2021-07-29T14:58:43Z</time>
      </trkpt>
      <trkpt lat="40.783267" lon="-3.973960">
        <ele>2128.745</ele>
        <time>2021-07-29T14:58:46Z</time>
      </trkpt>
      <trkpt lat="40.783251" lon="-3.973945">
        <ele>2128.372</ele>
        <time>2021-07-29T14:58:49Z</time>
      </trkpt>
      <trkpt lat="40.783229" lon="-3.973950">
        <ele>2129.089</ele>
        <time>2021-07-29T14:58:54Z</time>
      </trkpt>
      <trkpt lat="40.783210" lon="-3.973963">
        <ele>2130.030</ele>
        <time>2021-07-29T14:58:58Z</time>
      </trkpt>
      <trkpt lat="40.783190" lon="-3.973965">
        <ele>2130.570</ele>
        <time>2021-07-29T14:59:01Z</time>
      </trkpt>
      <trkpt lat="40.783171" lon="-3.973952">
        <ele>2130.343</ele>
        <time>2021-07-29T14:59:04Z</time>
      </trkpt>
      <trkpt lat="40.783152" lon="-3.973955">
        <ele>2130.992</ele>
        <time>2021-07-29T14:59:09Z</time>
      </trkpt>
      <trkpt lat="40.783126" lon="-3.973943">
        <ele>2130.933</ele>
        <time>2021-07-29T14:59:12Z</time>
      </trkpt>
      <trkpt lat="40.783107" lon="-3.973942">
        <ele>2131.223</ele>
        <time>2021-07-29T14:59:15Z</time>
      </trkpt>
      <trkpt lat="40.783085" lon="-3.973926">
        <ele>2131.015</ele>
        <time>2021-07-29T14:59:18Z</time>
      </trkpt>
      <trkpt lat="40.783066" lon="-3.973928">
        <ele>2131.508</ele>
        <time>2021-07-29T14:59:21Z</time>
      </trkpt>
      <trkpt lat="40.783046" lon="-3.973913">
        <ele>2131.160</ele>
        <time>2021-07-29T14:59:23Z</time>
      </trkpt>
      <trkpt lat="40.783030" lon="-3.973902">
        <ele>2130.852</ele>
        <time>2021-07-29T14:59:26Z</time>
      </trkpt>
      <trkpt lat="40.783011" lon="-3.973907">
        <ele>2131.259</ele>
        <time>2021-07-29T14:59:29Z</time>
      </trkpt>
      <trkpt lat="40.782992" lon="-3.973894">
        <ele>2130.926</ele>
        <time>2021-07-29T14:59:32Z</time>
      </trkpt>
      <trkpt lat="40.782973" lon="-3.973897">
        <ele>2131.287</ele>
        <time>2021-07-29T14:59:35Z</time>
      </trkpt>
      <trkpt lat="40.782954" lon="-3.973905">
        <ele>2131.867</ele>
        <time>2021-07-29T14:59:38Z</time>
      </trkpt>
      <trkpt lat="40.782928" lon="-3.973895">
        <ele>2131.660</ele>
        <time>2021-07-29T14:59:42Z</time>
      </trkpt>
      <trkpt lat="40.782906" lon="-3.973888">
        <ele>2131.699</ele>
        <time>2021-07-29T14:59:45Z</time>
      </trkpt>
      <trkpt lat="40.782886" lon="-3.973883">
        <ele>2131.674</ele>
        <time>2021-07-29T14:59:53Z</time>
      </trkpt>
      <trkpt lat="40.782867" lon="-3.973900">
        <ele>2132.556</ele>
        <time>2021-07-29T14:59:57Z</time>
      </trkpt>
      <trkpt lat="40.782851" lon="-3.973912">
        <ele>2133.121</ele>
        <time>2021-07-29T15:00:01Z</time>
      </trkpt>
      <trkpt lat="40.782838" lon="-3.973928">
        <ele>2133.808</ele>
        <time>2021-07-29T15:00:06Z</time>
      </trkpt>
      <trkpt lat="40.782819" lon="-3.973925">
        <ele>2133.974</ele>
        <time>2021-07-29T15:00:08Z</time>
      </trkpt>
      <trkpt lat="40.782794" lon="-3.973922">
        <ele>2134.016</ele>
        <time>2021-07-29T15:00:12Z</time>
      </trkpt>
      <trkpt lat="40.782774" lon="-3.973930">
        <ele>2134.683</ele>
        <time>2021-07-29T15:00:15Z</time>
      </trkpt>
      <trkpt lat="40.782758" lon="-3.973943">
        <ele>2135.460</ele>
        <time>2021-07-29T15:00:18Z</time>
      </trkpt>
      <trkpt lat="40.782742" lon="-3.973956">
        <ele>2136.241</ele>
        <time>2021-07-29T15:00:20Z</time>
      </trkpt>
      <trkpt lat="40.782723" lon="-3.973958">
        <ele>2136.711</ele>
        <time>2021-07-29T15:00:24Z</time>
      </trkpt>
      <trkpt lat="40.782704" lon="-3.973973">
        <ele>2137.634</ele>
        <time>2021-07-29T15:00:50Z</time>
      </trkpt>
      <trkpt lat="40.782682" lon="-3.973988">
        <ele>2138.583</ele>
        <time>2021-07-29T15:00:52Z</time>
      </trkpt>
      <trkpt lat="40.782659" lon="-3.974007">
        <ele>2139.591</ele>
        <time>2021-07-29T15:00:54Z</time>
      </trkpt>
      <trkpt lat="40.782634" lon="-3.974025">
        <ele>2140.581</ele>
        <time>2021-07-29T15:00:56Z</time>
      </trkpt>
      <trkpt lat="40.782614" lon="-3.974040">
        <ele>2141.319</ele>
        <time>2021-07-29T15:00:58Z</time>
      </trkpt>
      <trkpt lat="40.782602" lon="-3.974057">
        <ele>2141.908</ele>
        <time>2021-07-29T15:01:01Z</time>
      </trkpt>
      <trkpt lat="40.782576" lon="-3.974065">
        <ele>2142.666</ele>
        <time>2021-07-29T15:01:05Z</time>
      </trkpt>
      <trkpt lat="40.782554" lon="-3.974080">
        <ele>2143.358</ele>
        <time>2021-07-29T15:01:09Z</time>
      </trkpt>
      <trkpt lat="40.782534" lon="-3.974088">
        <ele>2143.815</ele>
        <time>2021-07-29T15:01:12Z</time>
      </trkpt>
      <trkpt lat="40.782509" lon="-3.974090">
        <ele>2144.262</ele>
        <time>2021-07-29T15:01:16Z</time>
      </trkpt>
      <trkpt lat="40.782493" lon="-3.974065">
        <ele>2143.863</ele>
        <time>2021-07-29T15:01:19Z</time>
      </trkpt>
      <trkpt lat="40.782477" lon="-3.974053">
        <ele>2143.773</ele>
        <time>2021-07-29T15:01:21Z</time>
      </trkpt>
      <trkpt lat="40.782467" lon="-3.974030">
        <ele>2143.276</ele>
        <time>2021-07-29T15:01:24Z</time>
      </trkpt>
      <trkpt lat="40.782467" lon="-3.974002">
        <ele>2142.675</ele>
        <time>2021-07-29T15:01:27Z</time>
      </trkpt>
      <trkpt lat="40.782464" lon="-3.973975">
        <ele>2142.012</ele>
        <time>2021-07-29T15:01:32Z</time>
      </trkpt>
      <trkpt lat="40.782451" lon="-3.973956">
        <ele>2141.732</ele>
        <time>2021-07-29T15:01:35Z</time>
      </trkpt>
      <trkpt lat="40.782432" lon="-3.973956">
        <ele>2141.805</ele>
        <time>2021-07-29T15:01:40Z</time>
      </trkpt>
      <trkpt lat="40.782413" lon="-3.973965">
        <ele>2142.008</ele>
        <time>2021-07-29T15:01:45Z</time>
      </trkpt>
      <trkpt lat="40.782387" lon="-3.973966">
        <ele>2142.268</ele>
        <time>2021-07-29T15:01:48Z</time>
      </trkpt>
      <trkpt lat="40.782365" lon="-3.973958">
        <ele>2142.120</ele>
        <time>2021-07-29T15:01:51Z</time>
      </trkpt>
      <trkpt lat="40.782346" lon="-3.973955">
        <ele>2142.167</ele>
        <time>2021-07-29T15:01:53Z</time>
      </trkpt>
      <trkpt lat="40.782330" lon="-3.973942">
        <ele>2141.984</ele>
        <time>2021-07-29T15:01:56Z</time>
      </trkpt>
      <trkpt lat="40.782307" lon="-3.973942">
        <ele>2142.055</ele>
        <time>2021-07-29T15:01:59Z</time>
      </trkpt>
      <trkpt lat="40.782291" lon="-3.973926">
        <ele>2141.715</ele>
        <time>2021-07-29T15:02:01Z</time>
      </trkpt>
      <trkpt lat="40.782272" lon="-3.973930">
        <ele>2141.888</ele>
        <time>2021-07-29T15:02:04Z</time>
      </trkpt>
      <trkpt lat="40.782253" lon="-3.973933">
        <ele>2142.097</ele>
        <time>2021-07-29T15:02:06Z</time>
      </trkpt>
      <trkpt lat="40.782234" lon="-3.973930">
        <ele>2142.037</ele>
        <time>2021-07-29T15:02:10Z</time>
      </trkpt>
      <trkpt lat="40.782214" lon="-3.973920">
        <ele>2141.949</ele>
        <time>2021-07-29T15:02:14Z</time>
      </trkpt>
      <trkpt lat="40.782186" lon="-3.973904">
        <ele>2141.813</ele>
        <time>2021-07-29T15:02:34Z</time>
      </trkpt>
      <trkpt lat="40.782163" lon="-3.973897">
        <ele>2141.908</ele>
        <time>2021-07-29T15:02:36Z</time>
      </trkpt>
      <trkpt lat="40.782138" lon="-3.973902">
        <ele>2142.370</ele>
        <time>2021-07-29T15:02:40Z</time>
      </trkpt>
      <trkpt lat="40.782118" lon="-3.973907">
        <ele>2142.712</ele>
        <time>2021-07-29T15:02:44Z</time>
      </trkpt>
      <trkpt lat="40.782096" lon="-3.973913">
        <ele>2143.249</ele>
        <time>2021-07-29T15:02:49Z</time>
      </trkpt>
      <trkpt lat="40.782077" lon="-3.973907">
        <ele>2143.266</ele>
        <time>2021-07-29T15:02:54Z</time>
      </trkpt>
      <trkpt lat="40.782058" lon="-3.973905">
        <ele>2143.487</ele>
        <time>2021-07-29T15:02:58Z</time>
      </trkpt>
      <trkpt lat="40.782038" lon="-3.973898">
        <ele>2143.337</ele>
        <time>2021-07-29T15:03:02Z</time>
      </trkpt>
      <trkpt lat="40.782016" lon="-3.973895">
        <ele>2143.550</ele>
        <time>2021-07-29T15:03:05Z</time>
      </trkpt>
      <trkpt lat="40.781997" lon="-3.973888">
        <ele>2143.499</ele>
        <time>2021-07-29T15:03:08Z</time>
      </trkpt>
      <trkpt lat="40.781978" lon="-3.973890">
        <ele>2143.773</ele>
        <time>2021-07-29T15:03:11Z</time>
      </trkpt>
      <trkpt lat="40.781958" lon="-3.973892">
        <ele>2144.085</ele>
        <time>2021-07-29T15:03:15Z</time>
      </trkpt>
      <trkpt lat="40.781936" lon="-3.973887">
        <ele>2144.013</ele>
        <time>2021-07-29T15:03:18Z</time>
      </trkpt>
      <trkpt lat="40.781917" lon="-3.973885">
        <ele>2144.108</ele>
        <time>2021-07-29T15:03:21Z</time>
      </trkpt>
      <trkpt lat="40.781894" lon="-3.973902">
        <ele>2145.144</ele>
        <time>2021-07-29T15:03:25Z</time>
      </trkpt>
      <trkpt lat="40.781875" lon="-3.973904">
        <ele>2145.486</ele>
        <time>2021-07-29T15:03:28Z</time>
      </trkpt>
      <trkpt lat="40.781856" lon="-3.973908">
        <ele>2145.753</ele>
        <time>2021-07-29T15:03:30Z</time>
      </trkpt>
      <trkpt lat="40.781837" lon="-3.973915">
        <ele>2146.290</ele>
        <time>2021-07-29T15:03:34Z</time>
      </trkpt>
      <trkpt lat="40.781818" lon="-3.973925">
        <ele>2146.721</ele>
        <time>2021-07-29T15:03:37Z</time>
      </trkpt>
      <trkpt lat="40.781798" lon="-3.973928">
        <ele>2147.081</ele>
        <time>2021-07-29T15:03:40Z</time>
      </trkpt>
      <trkpt lat="40.781776" lon="-3.973910">
        <ele>2146.644</ele>
        <time>2021-07-29T15:03:44Z</time>
      </trkpt>
      <trkpt lat="40.781754" lon="-3.973900">
        <ele>2146.593</ele>
        <time>2021-07-29T15:03:47Z</time>
      </trkpt>
      <trkpt lat="40.781738" lon="-3.973878">
        <ele>2145.856</ele>
        <time>2021-07-29T15:03:49Z</time>
      </trkpt>
      <trkpt lat="40.781715" lon="-3.973872">
        <ele>2145.859</ele>
        <time>2021-07-29T15:03:53Z</time>
      </trkpt>
      <trkpt lat="40.781696" lon="-3.973870">
        <ele>2146.014</ele>
        <time>2021-07-29T15:03:56Z</time>
      </trkpt>
      <trkpt lat="40.781677" lon="-3.973875">
        <ele>2146.408</ele>
        <time>2021-07-29T15:03:59Z</time>
      </trkpt>
      <trkpt lat="40.781654" lon="-3.973880">
        <ele>2146.882</ele>
        <time>2021-07-29T15:04:02Z</time>
      </trkpt>
      <trkpt lat="40.781635" lon="-3.973885">
        <ele>2147.144</ele>
        <time>2021-07-29T15:04:06Z</time>
      </trkpt>
      <trkpt lat="40.781619" lon="-3.973870">
        <ele>2146.791</ele>
        <time>2021-07-29T15:04:09Z</time>
      </trkpt>
      <trkpt lat="40.781600" lon="-3.973863">
        <ele>2146.618</ele>
        <time>2021-07-29T15:04:11Z</time>
      </trkpt>
      <trkpt lat="40.781578" lon="-3.973868">
        <ele>2146.969</ele>
        <time>2021-07-29T15:04:16Z</time>
      </trkpt>
      <trkpt lat="40.781558" lon="-3.973860">
        <ele>2146.889</ele>
        <time>2021-07-29T15:04:19Z</time>
      </trkpt>
      <trkpt lat="40.781542" lon="-3.973848">
        <ele>2146.592</ele>
        <time>2021-07-29T15:04:21Z</time>
      </trkpt>
      <trkpt lat="40.781520" lon="-3.973830">
        <ele>2146.071</ele>
        <time>2021-07-29T15:04:25Z</time>
      </trkpt>
      <trkpt lat="40.781501" lon="-3.973830">
        <ele>2146.286</ele>
        <time>2021-07-29T15:04:28Z</time>
      </trkpt>
      <trkpt lat="40.781478" lon="-3.973815">
        <ele>2145.960</ele>
        <time>2021-07-29T15:04:31Z</time>
      </trkpt>
      <trkpt lat="40.781462" lon="-3.973793">
        <ele>2145.326</ele>
        <time>2021-07-29T15:04:37Z</time>
      </trkpt>
      <trkpt lat="40.781450" lon="-3.973775">
        <ele>2144.808</ele>
        <time>2021-07-29T15:04:40Z</time>
      </trkpt>
      <trkpt lat="40.781430" lon="-3.973783">
        <ele>2145.235</ele>
        <time>2021-07-29T15:04:44Z</time>
      </trkpt>
      <trkpt lat="40.781411" lon="-3.973788">
        <ele>2145.527</ele>
        <time>2021-07-29T15:04:48Z</time>
      </trkpt>
      <trkpt lat="40.781389" lon="-3.973774">
        <ele>2145.364</ele>
        <time>2021-07-29T15:04:52Z</time>
      </trkpt>
      <trkpt lat="40.781376" lon="-3.973750">
        <ele>2144.661</ele>
        <time>2021-07-29T15:04:56Z</time>
      </trkpt>
      <trkpt lat="40.781360" lon="-3.973738">
        <ele>2144.392</ele>
        <time>2021-07-29T15:05:00Z</time>
      </trkpt>
      <trkpt lat="40.781338" lon="-3.973722">
        <ele>2144.042</ele>
        <time>2021-07-29T15:05:03Z</time>
      </trkpt>
      <trkpt lat="40.781322" lon="-3.973692">
        <ele>2143.215</ele>
        <time>2021-07-29T15:05:07Z</time>
      </trkpt>
      <trkpt lat="40.781302" lon="-3.973687">
        <ele>2143.234</ele>
        <time>2021-07-29T15:05:11Z</time>
      </trkpt>
      <trkpt lat="40.781293" lon="-3.973662">
        <ele>2142.675</ele>
        <time>2021-07-29T15:05:15Z</time>
      </trkpt>
      <trkpt lat="40.781280" lon="-3.973642">
        <ele>2142.128</ele>
        <time>2021-07-29T15:05:18Z</time>
      </trkpt>
      <trkpt lat="40.781264" lon="-3.973617">
        <ele>2141.520</ele>
        <time>2021-07-29T15:05:22Z</time>
      </trkpt>
      <trkpt lat="40.781245" lon="-3.973608">
        <ele>2141.508</ele>
        <time>2021-07-29T15:05:24Z</time>
      </trkpt>
      <trkpt lat="40.781222" lon="-3.973600">
        <ele>2141.594</ele>
        <time>2021-07-29T15:05:27Z</time>
      </trkpt>
      <trkpt lat="40.781200" lon="-3.973598">
        <ele>2141.746</ele>
        <time>2021-07-29T15:05:30Z</time>
      </trkpt>
      <trkpt lat="40.781178" lon="-3.973606">
        <ele>2142.193</ele>
        <time>2021-07-29T15:05:33Z</time>
      </trkpt>
      <trkpt lat="40.781158" lon="-3.973606">
        <ele>2142.440</ele>
        <time>2021-07-29T15:05:36Z</time>
      </trkpt>
      <trkpt lat="40.781146" lon="-3.973586">
        <ele>2142.081</ele>
        <time>2021-07-29T15:05:42Z</time>
      </trkpt>
      <trkpt lat="40.781123" lon="-3.973565">
        <ele>2141.731</ele>
        <time>2021-07-29T15:05:45Z</time>
      </trkpt>
      <trkpt lat="40.781104" lon="-3.973550">
        <ele>2141.534</ele>
        <time>2021-07-29T15:05:48Z</time>
      </trkpt>
      <trkpt lat="40.781091" lon="-3.973532">
        <ele>2141.243</ele>
        <time>2021-07-29T15:05:50Z</time>
      </trkpt>
      <trkpt lat="40.781078" lon="-3.973512">
        <ele>2140.846</ele>
        <time>2021-07-29T15:05:52Z</time>
      </trkpt>
      <trkpt lat="40.781059" lon="-3.973503">
        <ele>2140.888</ele>
        <time>2021-07-29T15:05:54Z</time>
      </trkpt>
      <trkpt lat="40.781040" lon="-3.973503">
        <ele>2141.016</ele>
        <time>2021-07-29T15:05:56Z</time>
      </trkpt>
      <trkpt lat="40.781021" lon="-3.973515">
        <ele>2141.508</ele>
        <time>2021-07-29T15:05:59Z</time>
      </trkpt>
      <trkpt lat="40.781005" lon="-3.973528">
        <ele>2141.911</ele>
        <time>2021-07-29T15:06:01Z</time>
      </trkpt>
      <trkpt lat="40.780982" lon="-3.973547">
        <ele>2142.573</ele>
        <time>2021-07-29T15:06:05Z</time>
      </trkpt>
      <trkpt lat="40.780963" lon="-3.973523">
        <ele>2142.230</ele>
        <time>2021-07-29T15:06:08Z</time>
      </trkpt>
      <trkpt lat="40.780947" lon="-3.973510">
        <ele>2142.157</ele>
        <time>2021-07-29T15:06:10Z</time>
      </trkpt>
      <trkpt lat="40.780928" lon="-3.973492">
        <ele>2141.978</ele>
        <time>2021-07-29T15:06:13Z</time>
      </trkpt>
      <trkpt lat="40.780906" lon="-3.973478">
        <ele>2141.838</ele>
        <time>2021-07-29T15:06:16Z</time>
      </trkpt>
      <trkpt lat="40.780883" lon="-3.973473">
        <ele>2142.081</ele>
        <time>2021-07-29T15:06:19Z</time>
      </trkpt>
      <trkpt lat="40.780858" lon="-3.973470">
        <ele>2142.210</ele>
        <time>2021-07-29T15:06:22Z</time>
      </trkpt>
      <trkpt lat="40.780838" lon="-3.973472">
        <ele>2142.477</ele>
        <time>2021-07-29T15:06:25Z</time>
      </trkpt>
      <trkpt lat="40.780819" lon="-3.973470">
        <ele>2142.561</ele>
        <time>2021-07-29T15:06:28Z</time>
      </trkpt>
      <trkpt lat="40.780806" lon="-3.973448">
        <ele>2142.227</ele>
        <time>2021-07-29T15:06:30Z</time>
      </trkpt>
      <trkpt lat="40.780787" lon="-3.973438">
        <ele>2142.108</ele>
        <time>2021-07-29T15:06:32Z</time>
      </trkpt>
      <trkpt lat="40.780765" lon="-3.973425">
        <ele>2141.924</ele>
        <time>2021-07-29T15:06:36Z</time>
      </trkpt>
      <trkpt lat="40.780746" lon="-3.973424">
        <ele>2141.976</ele>
        <time>2021-07-29T15:06:39Z</time>
      </trkpt>
      <trkpt lat="40.780726" lon="-3.973407">
        <ele>2141.783</ele>
        <time>2021-07-29T15:06:42Z</time>
      </trkpt>
      <trkpt lat="40.780704" lon="-3.973394">
        <ele>2141.660</ele>
        <time>2021-07-29T15:06:44Z</time>
      </trkpt>
      <trkpt lat="40.780685" lon="-3.973387">
        <ele>2141.531</ele>
        <time>2021-07-29T15:06:47Z</time>
      </trkpt>
      <trkpt lat="40.780662" lon="-3.973382">
        <ele>2141.521</ele>
        <time>2021-07-29T15:06:54Z</time>
      </trkpt>
      <trkpt lat="40.780643" lon="-3.973380">
        <ele>2141.514</ele>
        <time>2021-07-29T15:06:58Z</time>
      </trkpt>
      <trkpt lat="40.780624" lon="-3.973388">
        <ele>2141.773</ele>
        <time>2021-07-29T15:07:01Z</time>
      </trkpt>
      <trkpt lat="40.780605" lon="-3.973377">
        <ele>2141.681</ele>
        <time>2021-07-29T15:07:08Z</time>
      </trkpt>
      <trkpt lat="40.780586" lon="-3.973387">
        <ele>2141.961</ele>
        <time>2021-07-29T15:07:12Z</time>
      </trkpt>
      <trkpt lat="40.780566" lon="-3.973407">
        <ele>2142.317</ele>
        <time>2021-07-29T15:07:15Z</time>
      </trkpt>
      <trkpt lat="40.780547" lon="-3.973415">
        <ele>2142.508</ele>
        <time>2021-07-29T15:07:18Z</time>
      </trkpt>
      <trkpt lat="40.780528" lon="-3.973408">
        <ele>2142.345</ele>
        <time>2021-07-29T15:07:20Z</time>
      </trkpt>
      <trkpt lat="40.780509" lon="-3.973410">
        <ele>2142.347</ele>
        <time>2021-07-29T15:07:23Z</time>
      </trkpt>
      <trkpt lat="40.780486" lon="-3.973407">
        <ele>2142.354</ele>
        <time>2021-07-29T15:07:26Z</time>
      </trkpt>
      <trkpt lat="40.780467" lon="-3.973408">
        <ele>2142.351</ele>
        <time>2021-07-29T15:07:29Z</time>
      </trkpt>
      <trkpt lat="40.780445" lon="-3.973400">
        <ele>2142.162</ele>
        <time>2021-07-29T15:07:32Z</time>
      </trkpt>
      <trkpt lat="40.780426" lon="-3.973387">
        <ele>2141.952</ele>
        <time>2021-07-29T15:07:34Z</time>
      </trkpt>
      <trkpt lat="40.780410" lon="-3.973372">
        <ele>2141.645</ele>
        <time>2021-07-29T15:07:36Z</time>
      </trkpt>
      <trkpt lat="40.780390" lon="-3.973360">
        <ele>2141.494</ele>
        <time>2021-07-29T15:07:38Z</time>
      </trkpt>
      <trkpt lat="40.780365" lon="-3.973367">
        <ele>2141.596</ele>
        <time>2021-07-29T15:07:41Z</time>
      </trkpt>
      <trkpt lat="40.780342" lon="-3.973374">
        <ele>2141.631</ele>
        <time>2021-07-29T15:07:43Z</time>
      </trkpt>
      <trkpt lat="40.780310" lon="-3.973370">
        <ele>2141.524</ele>
        <time>2021-07-29T15:07:46Z</time>
      </trkpt>
      <trkpt lat="40.780291" lon="-3.973370">
        <ele>2141.508</ele>
        <time>2021-07-29T15:07:48Z</time>
      </trkpt>
      <trkpt lat="40.780269" lon="-3.973355">
        <ele>2141.356</ele>
        <time>2021-07-29T15:07:50Z</time>
      </trkpt>
      <trkpt lat="40.780246" lon="-3.973350">
        <ele>2141.188</ele>
        <time>2021-07-29T15:07:52Z</time>
      </trkpt>
      <trkpt lat="40.780224" lon="-3.973350">
        <ele>2141.085</ele>
        <time>2021-07-29T15:07:55Z</time>
      </trkpt>
      <trkpt lat="40.780205" lon="-3.973342">
        <ele>2140.832</ele>
        <time>2021-07-29T15:07:58Z</time>
      </trkpt>
      <trkpt lat="40.780189" lon="-3.973320">
        <ele>2140.443</ele>
        <time>2021-07-29T15:08:01Z</time>
      </trkpt>
      <trkpt lat="40.780173" lon="-3.973290">
        <ele>2139.853</ele>
        <time>2021-07-29T15:08:04Z</time>
      </trkpt>
      <trkpt lat="40.780160" lon="-3.973265">
        <ele>2139.396</ele>
        <time>2021-07-29T15:08:07Z</time>
      </trkpt>
      <trkpt lat="40.780138" lon="-3.973250">
        <ele>2139.075</ele>
        <time>2021-07-29T15:08:10Z</time>
      </trkpt>
      <trkpt lat="40.780118" lon="-3.973245">
        <ele>2138.843</ele>
        <time>2021-07-29T15:08:12Z</time>
      </trkpt>
      <trkpt lat="40.780099" lon="-3.973242">
        <ele>2138.764</ele>
        <time>2021-07-29T15:08:14Z</time>
      </trkpt>
      <trkpt lat="40.780080" lon="-3.973242">
        <ele>2138.610</ele>
        <time>2021-07-29T15:08:17Z</time>
      </trkpt>
      <trkpt lat="40.780064" lon="-3.973230">
        <ele>2138.408</ele>
        <time>2021-07-29T15:08:27Z</time>
      </trkpt>
      <trkpt lat="40.780045" lon="-3.973212">
        <ele>2138.021</ele>
        <time>2021-07-29T15:08:32Z</time>
      </trkpt>
      <trkpt lat="40.780026" lon="-3.973194">
        <ele>2137.683</ele>
        <time>2021-07-29T15:08:35Z</time>
      </trkpt>
      <trkpt lat="40.780006" lon="-3.973177">
        <ele>2137.270</ele>
        <time>2021-07-29T15:08:37Z</time>
      </trkpt>
      <trkpt lat="40.779984" lon="-3.973160">
        <ele>2136.837</ele>
        <time>2021-07-29T15:08:39Z</time>
      </trkpt>
      <trkpt lat="40.779965" lon="-3.973155">
        <ele>2136.528</ele>
        <time>2021-07-29T15:08:41Z</time>
      </trkpt>
      <trkpt lat="40.779942" lon="-3.973142">
        <ele>2136.198</ele>
        <time>2021-07-29T15:08:43Z</time>
      </trkpt>
      <trkpt lat="40.779923" lon="-3.973133">
        <ele>2135.831</ele>
        <time>2021-07-29T15:08:45Z</time>
      </trkpt>
      <trkpt lat="40.779901" lon="-3.973132">
        <ele>2135.730</ele>
        <time>2021-07-29T15:08:47Z</time>
      </trkpt>
      <trkpt lat="40.779875" lon="-3.973133">
        <ele>2135.585</ele>
        <time>2021-07-29T15:08:49Z</time>
      </trkpt>
      <trkpt lat="40.779850" lon="-3.973142">
        <ele>2135.589</ele>
        <time>2021-07-29T15:08:52Z</time>
      </trkpt>
      <trkpt lat="40.779824" lon="-3.973143">
        <ele>2135.317</ele>
        <time>2021-07-29T15:08:54Z</time>
      </trkpt>
      <trkpt lat="40.779802" lon="-3.973145">
        <ele>2135.208</ele>
        <time>2021-07-29T15:08:56Z</time>
      </trkpt>
      <trkpt lat="40.779782" lon="-3.973145">
        <ele>2135.015</ele>
        <time>2021-07-29T15:08:58Z</time>
      </trkpt>
      <trkpt lat="40.779760" lon="-3.973148">
        <ele>2134.977</ele>
        <time>2021-07-29T15:09:00Z</time>
      </trkpt>
      <trkpt lat="40.779734" lon="-3.973150">
        <ele>2134.894</ele>
        <time>2021-07-29T15:09:02Z</time>
      </trkpt>
      <trkpt lat="40.779712" lon="-3.973138">
        <ele>2134.461</ele>
        <time>2021-07-29T15:09:04Z</time>
      </trkpt>
      <trkpt lat="40.779690" lon="-3.973148">
        <ele>2134.462</ele>
        <time>2021-07-29T15:09:06Z</time>
      </trkpt>
      <trkpt lat="40.779667" lon="-3.973152">
        <ele>2134.292</ele>
        <time>2021-07-29T15:09:08Z</time>
      </trkpt>
      <trkpt lat="40.779648" lon="-3.973153">
        <ele>2134.085</ele>
        <time>2021-07-29T15:09:10Z</time>
      </trkpt>
      <trkpt lat="40.779626" lon="-3.973158">
        <ele>2133.974</ele>
        <time>2021-07-29T15:09:12Z</time>
      </trkpt>
      <trkpt lat="40.779603" lon="-3.973163">
        <ele>2133.862</ele>
        <time>2021-07-29T15:09:15Z</time>
      </trkpt>
      <trkpt lat="40.779584" lon="-3.973172">
        <ele>2133.883</ele>
        <time>2021-07-29T15:09:17Z</time>
      </trkpt>
      <trkpt lat="40.779565" lon="-3.973190">
        <ele>2134.011</ele>
        <time>2021-07-29T15:09:20Z</time>
      </trkpt>
      <trkpt lat="40.779549" lon="-3.973202">
        <ele>2134.108</ele>
        <time>2021-07-29T15:09:22Z</time>
      </trkpt>
      <trkpt lat="40.779530" lon="-3.973216">
        <ele>2134.283</ele>
        <time>2021-07-29T15:09:24Z</time>
      </trkpt>
      <trkpt lat="40.779514" lon="-3.973228">
        <ele>2134.335</ele>
        <time>2021-07-29T15:09:26Z</time>
      </trkpt>
      <trkpt lat="40.779498" lon="-3.973242">
        <ele>2134.562</ele>
        <time>2021-07-29T15:09:28Z</time>
      </trkpt>
      <trkpt lat="40.779478" lon="-3.973255">
        <ele>2134.699</ele>
        <time>2021-07-29T15:09:30Z</time>
      </trkpt>
      <trkpt lat="40.779456" lon="-3.973265">
        <ele>2134.650</ele>
        <time>2021-07-29T15:09:33Z</time>
      </trkpt>
      <trkpt lat="40.779437" lon="-3.973272">
        <ele>2134.610</ele>
        <time>2021-07-29T15:09:35Z</time>
      </trkpt>
      <trkpt lat="40.779414" lon="-3.973282">
        <ele>2134.613</ele>
        <time>2021-07-29T15:09:37Z</time>
      </trkpt>
      <trkpt lat="40.779398" lon="-3.973300">
        <ele>2134.882</ele>
        <time>2021-07-29T15:09:39Z</time>
      </trkpt>
      <trkpt lat="40.779379" lon="-3.973313">
        <ele>2134.944</ele>
        <time>2021-07-29T15:09:41Z</time>
      </trkpt>
      <trkpt lat="40.779354" lon="-3.973330">
        <ele>2135.005</ele>
        <time>2021-07-29T15:09:44Z</time>
      </trkpt>
      <trkpt lat="40.779334" lon="-3.973342">
        <ele>2134.915</ele>
        <time>2021-07-29T15:09:46Z</time>
      </trkpt>
      <trkpt lat="40.779309" lon="-3.973343">
        <ele>2134.708</ele>
        <time>2021-07-29T15:09:48Z</time>
      </trkpt>
      <trkpt lat="40.779283" lon="-3.973352">
        <ele>2134.581</ele>
        <time>2021-07-29T15:09:50Z</time>
      </trkpt>
      <trkpt lat="40.779264" lon="-3.973358">
        <ele>2134.453</ele>
        <time>2021-07-29T15:09:52Z</time>
      </trkpt>
      <trkpt lat="40.779238" lon="-3.973365">
        <ele>2134.230</ele>
        <time>2021-07-29T15:09:54Z</time>
      </trkpt>
      <trkpt lat="40.779216" lon="-3.973368">
        <ele>2134.057</ele>
        <time>2021-07-29T15:09:56Z</time>
      </trkpt>
      <trkpt lat="40.779197" lon="-3.973372">
        <ele>2133.958</ele>
        <time>2021-07-29T15:09:58Z</time>
      </trkpt>
      <trkpt lat="40.779174" lon="-3.973380">
        <ele>2133.828</ele>
        <time>2021-07-29T15:10:00Z</time>
      </trkpt>
      <trkpt lat="40.779149" lon="-3.973395">
        <ele>2133.721</ele>
        <time>2021-07-29T15:10:03Z</time>
      </trkpt>
      <trkpt lat="40.779136" lon="-3.973414">
        <ele>2133.870</ele>
        <time>2021-07-29T15:10:05Z</time>
      </trkpt>
      <trkpt lat="40.779114" lon="-3.973425">
        <ele>2133.818</ele>
        <time>2021-07-29T15:10:08Z</time>
      </trkpt>
      <trkpt lat="40.779091" lon="-3.973433">
        <ele>2133.698</ele>
        <time>2021-07-29T15:10:10Z</time>
      </trkpt>
      <trkpt lat="40.779072" lon="-3.973435">
        <ele>2133.417</ele>
        <time>2021-07-29T15:10:12Z</time>
      </trkpt>
      <trkpt lat="40.779053" lon="-3.973443">
        <ele>2133.308</ele>
        <time>2021-07-29T15:10:14Z</time>
      </trkpt>
      <trkpt lat="40.779030" lon="-3.973455">
        <ele>2133.178</ele>
        <time>2021-07-29T15:10:16Z</time>
      </trkpt>
      <trkpt lat="40.779011" lon="-3.973475">
        <ele>2133.180</ele>
        <time>2021-07-29T15:10:18Z</time>
      </trkpt>
      <trkpt lat="40.778992" lon="-3.973497">
        <ele>2133.097</ele>
        <time>2021-07-29T15:10:20Z</time>
      </trkpt>
      <trkpt lat="40.778973" lon="-3.973510">
        <ele>2132.884</ele>
        <time>2021-07-29T15:10:22Z</time>
      </trkpt>
      <trkpt lat="40.778957" lon="-3.973528">
        <ele>2132.745</ele>
        <time>2021-07-29T15:10:25Z</time>
      </trkpt>
      <trkpt lat="40.778938" lon="-3.973554">
        <ele>2132.645</ele>
        <time>2021-07-29T15:10:27Z</time>
      </trkpt>
      <trkpt lat="40.778912" lon="-3.973572">
        <ele>2132.278</ele>
        <time>2021-07-29T15:10:30Z</time>
      </trkpt>
      <trkpt lat="40.778896" lon="-3.973585">
        <ele>2132.047</ele>
        <time>2021-07-29T15:10:32Z</time>
      </trkpt>
      <trkpt lat="40.778874" lon="-3.973598">
        <ele>2131.874</ele>
        <time>2021-07-29T15:10:34Z</time>
      </trkpt>
      <trkpt lat="40.778854" lon="-3.973617">
        <ele>2131.656</ele>
        <time>2021-07-29T15:10:36Z</time>
      </trkpt>
      <trkpt lat="40.778838" lon="-3.973635">
        <ele>2131.421</ele>
        <time>2021-07-29T15:10:38Z</time>
      </trkpt>
      <trkpt lat="40.778822" lon="-3.973650">
        <ele>2131.208</ele>
        <time>2021-07-29T15:10:40Z</time>
      </trkpt>
      <trkpt lat="40.778803" lon="-3.973668">
        <ele>2131.094</ele>
        <time>2021-07-29T15:10:42Z</time>
      </trkpt>
      <trkpt lat="40.778787" lon="-3.973685">
        <ele>2130.826</ele>
        <time>2021-07-29T15:10:44Z</time>
      </trkpt>
      <trkpt lat="40.778762" lon="-3.973708">
        <ele>2130.543</ele>
        <time>2021-07-29T15:10:47Z</time>
      </trkpt>
      <trkpt lat="40.778742" lon="-3.973715">
        <ele>2130.290</ele>
        <time>2021-07-29T15:10:49Z</time>
      </trkpt>
      <trkpt lat="40.778723" lon="-3.973725">
        <ele>2130.081</ele>
        <time>2021-07-29T15:10:51Z</time>
      </trkpt>
      <trkpt lat="40.778701" lon="-3.973740">
        <ele>2129.731</ele>
        <time>2021-07-29T15:10:53Z</time>
      </trkpt>
      <trkpt lat="40.778682" lon="-3.973750">
        <ele>2129.464</ele>
        <time>2021-07-29T15:10:55Z</time>
      </trkpt>
      <trkpt lat="40.778662" lon="-3.973767">
        <ele>2129.133</ele>
        <time>2021-07-29T15:10:57Z</time>
      </trkpt>
      <trkpt lat="40.778640" lon="-3.973775">
        <ele>2128.868</ele>
        <time>2021-07-29T15:10:59Z</time>
      </trkpt>
      <trkpt lat="40.778621" lon="-3.973780">
        <ele>2128.542</ele>
        <time>2021-07-29T15:11:01Z</time>
      </trkpt>
      <trkpt lat="40.778602" lon="-3.973778">
        <ele>2128.326</ele>
        <time>2021-07-29T15:11:03Z</time>
      </trkpt>
      <trkpt lat="40.778582" lon="-3.973762">
        <ele>2128.008</ele>
        <time>2021-07-29T15:11:05Z</time>
      </trkpt>
      <trkpt lat="40.778560" lon="-3.973750">
        <ele>2127.773</ele>
        <time>2021-07-29T15:11:07Z</time>
      </trkpt>
      <trkpt lat="40.778541" lon="-3.973744">
        <ele>2127.455</ele>
        <time>2021-07-29T15:11:09Z</time>
      </trkpt>
      <trkpt lat="40.778518" lon="-3.973730">
        <ele>2127.052</ele>
        <time>2021-07-29T15:11:11Z</time>
      </trkpt>
      <trkpt lat="40.778496" lon="-3.973720">
        <ele>2126.719</ele>
        <time>2021-07-29T15:11:14Z</time>
      </trkpt>
      <trkpt lat="40.778477" lon="-3.973708">
        <ele>2126.420</ele>
        <time>2021-07-29T15:11:17Z</time>
      </trkpt>
      <trkpt lat="40.778461" lon="-3.973690">
        <ele>2126.270</ele>
        <time>2021-07-29T15:11:19Z</time>
      </trkpt>
      <trkpt lat="40.778445" lon="-3.973677">
        <ele>2125.993</ele>
        <time>2021-07-29T15:11:21Z</time>
      </trkpt>
      <trkpt lat="40.778422" lon="-3.973655">
        <ele>2125.512</ele>
        <time>2021-07-29T15:11:23Z</time>
      </trkpt>
      <trkpt lat="40.778400" lon="-3.973635">
        <ele>2125.266</ele>
        <time>2021-07-29T15:11:26Z</time>
      </trkpt>
      <trkpt lat="40.778378" lon="-3.973630">
        <ele>2124.829</ele>
        <time>2021-07-29T15:11:28Z</time>
      </trkpt>
      <trkpt lat="40.778358" lon="-3.973625">
        <ele>2124.421</ele>
        <time>2021-07-29T15:11:31Z</time>
      </trkpt>
      <trkpt lat="40.778339" lon="-3.973615">
        <ele>2124.108</ele>
        <time>2021-07-29T15:11:33Z</time>
      </trkpt>
      <trkpt lat="40.778317" lon="-3.973608">
        <ele>2123.883</ele>
        <time>2021-07-29T15:11:35Z</time>
      </trkpt>
      <trkpt lat="40.778304" lon="-3.973583">
        <ele>2123.675</ele>
        <time>2021-07-29T15:11:37Z</time>
      </trkpt>
      <trkpt lat="40.778282" lon="-3.973556">
        <ele>2123.232</ele>
        <time>2021-07-29T15:11:40Z</time>
      </trkpt>
      <trkpt lat="40.778259" lon="-3.973552">
        <ele>2123.039</ele>
        <time>2021-07-29T15:11:43Z</time>
      </trkpt>
      <trkpt lat="40.778240" lon="-3.973544">
        <ele>2122.820</ele>
        <time>2021-07-29T15:11:45Z</time>
      </trkpt>
      <trkpt lat="40.778214" lon="-3.973538">
        <ele>2122.410</ele>
        <time>2021-07-29T15:11:48Z</time>
      </trkpt>
      <trkpt lat="40.778195" lon="-3.973533">
        <ele>2122.263</ele>
        <time>2021-07-29T15:11:50Z</time>
      </trkpt>
      <trkpt lat="40.778179" lon="-3.973510">
        <ele>2122.072</ele>
        <time>2021-07-29T15:11:53Z</time>
      </trkpt>
      <trkpt lat="40.778160" lon="-3.973498">
        <ele>2121.761</ele>
        <time>2021-07-29T15:12:00Z</time>
      </trkpt>
      <trkpt lat="40.778147" lon="-3.973482">
        <ele>2121.521</ele>
        <time>2021-07-29T15:12:02Z</time>
      </trkpt>
      <trkpt lat="40.778134" lon="-3.973460">
        <ele>2121.313</ele>
        <time>2021-07-29T15:12:04Z</time>
      </trkpt>
      <trkpt lat="40.778118" lon="-3.973442">
        <ele>2121.108</ele>
        <time>2021-07-29T15:12:06Z</time>
      </trkpt>
      <trkpt lat="40.778102" lon="-3.973426">
        <ele>2120.813</ele>
        <time>2021-07-29T15:12:08Z</time>
      </trkpt>
      <trkpt lat="40.778086" lon="-3.973402">
        <ele>2120.655</ele>
        <time>2021-07-29T15:12:10Z</time>
      </trkpt>
      <trkpt lat="40.778067" lon="-3.973380">
        <ele>2120.312</ele>
        <time>2021-07-29T15:12:13Z</time>
      </trkpt>
      <trkpt lat="40.778054" lon="-3.973355">
        <ele>2120.139</ele>
        <time>2021-07-29T15:12:15Z</time>
      </trkpt>
      <trkpt lat="40.778035" lon="-3.973332">
        <ele>2119.750</ele>
        <time>2021-07-29T15:12:18Z</time>
      </trkpt>
      <trkpt lat="40.778019" lon="-3.973317">
        <ele>2119.510</ele>
        <time>2021-07-29T15:12:20Z</time>
      </trkpt>
      <trkpt lat="40.778000" lon="-3.973305">
        <ele>2119.213</ele>
        <time>2021-07-29T15:12:22Z</time>
      </trkpt>
      <trkpt lat="40.777978" lon="-3.973297">
        <ele>2118.862</ele>
        <time>2021-07-29T15:12:24Z</time>
      </trkpt>
      <trkpt lat="40.777958" lon="-3.973283">
        <ele>2118.513</ele>
        <time>2021-07-29T15:12:26Z</time>
      </trkpt>
      <trkpt lat="40.777939" lon="-3.973268">
        <ele>2118.243</ele>
        <time>2021-07-29T15:12:28Z</time>
      </trkpt>
      <trkpt lat="40.777914" lon="-3.973260">
        <ele>2117.807</ele>
        <time>2021-07-29T15:12:31Z</time>
      </trkpt>
      <trkpt lat="40.777894" lon="-3.973240">
        <ele>2117.508</ele>
        <time>2021-07-29T15:12:33Z</time>
      </trkpt>
      <trkpt lat="40.777869" lon="-3.973238">
        <ele>2117.118</ele>
        <time>2021-07-29T15:12:35Z</time>
      </trkpt>
      <trkpt lat="40.777846" lon="-3.973235">
        <ele>2116.740</ele>
        <time>2021-07-29T15:12:37Z</time>
      </trkpt>
      <trkpt lat="40.777827" lon="-3.973226">
        <ele>2116.467</ele>
        <time>2021-07-29T15:12:39Z</time>
      </trkpt>
      <trkpt lat="40.777805" lon="-3.973212">
        <ele>2116.024</ele>
        <time>2021-07-29T15:12:41Z</time>
      </trkpt>
      <trkpt lat="40.777779" lon="-3.973190">
        <ele>2115.525</ele>
        <time>2021-07-29T15:12:44Z</time>
      </trkpt>
      <trkpt lat="40.777757" lon="-3.973175">
        <ele>2115.125</ele>
        <time>2021-07-29T15:12:46Z</time>
      </trkpt>
      <trkpt lat="40.777738" lon="-3.973172">
        <ele>2114.878</ele>
        <time>2021-07-29T15:12:48Z</time>
      </trkpt>
      <trkpt lat="40.777715" lon="-3.973165">
        <ele>2114.537</ele>
        <time>2021-07-29T15:12:50Z</time>
      </trkpt>
      <trkpt lat="40.777690" lon="-3.973160">
        <ele>2114.154</ele>
        <time>2021-07-29T15:12:52Z</time>
      </trkpt>
      <trkpt lat="40.777667" lon="-3.973152">
        <ele>2113.856</ele>
        <time>2021-07-29T15:12:54Z</time>
      </trkpt>
      <trkpt lat="40.777645" lon="-3.973140">
        <ele>2113.411</ele>
        <time>2021-07-29T15:12:56Z</time>
      </trkpt>
      <trkpt lat="40.777622" lon="-3.973125">
        <ele>2113.008</ele>
        <time>2021-07-29T15:12:58Z</time>
      </trkpt>
      <trkpt lat="40.777600" lon="-3.973108">
        <ele>2112.642</ele>
        <time>2021-07-29T15:13:00Z</time>
      </trkpt>
      <trkpt lat="40.777581" lon="-3.973095">
        <ele>2112.364</ele>
        <time>2021-07-29T15:13:03Z</time>
      </trkpt>
      <trkpt lat="40.777578" lon="-3.973060">
        <ele>2112.151</ele>
        <time>2021-07-29T15:13:06Z</time>
      </trkpt>
      <trkpt lat="40.777565" lon="-3.973027">
        <ele>2111.828</ele>
        <time>2021-07-29T15:13:08Z</time>
      </trkpt>
      <trkpt lat="40.777552" lon="-3.973008">
        <ele>2111.639</ele>
        <time>2021-07-29T15:13:10Z</time>
      </trkpt>
      <trkpt lat="40.777539" lon="-3.972982">
        <ele>2111.399</ele>
        <time>2021-07-29T15:13:12Z</time>
      </trkpt>
      <trkpt lat="40.777520" lon="-3.972960">
        <ele>2110.992</ele>
        <time>2021-07-29T15:13:14Z</time>
      </trkpt>
      <trkpt lat="40.777498" lon="-3.972948">
        <ele>2110.691</ele>
        <time>2021-07-29T15:13:17Z</time>
      </trkpt>
      <trkpt lat="40.777472" lon="-3.972947">
        <ele>2110.336</ele>
        <time>2021-07-29T15:13:19Z</time>
      </trkpt>
      <trkpt lat="40.777453" lon="-3.972947">
        <ele>2110.017</ele>
        <time>2021-07-29T15:13:21Z</time>
      </trkpt>
      <trkpt lat="40.777430" lon="-3.972937">
        <ele>2109.718</ele>
        <time>2021-07-29T15:13:23Z</time>
      </trkpt>
      <trkpt lat="40.777402" lon="-3.972923">
        <ele>2109.408</ele>
        <time>2021-07-29T15:13:26Z</time>
      </trkpt>
      <trkpt lat="40.777382" lon="-3.972918">
        <ele>2109.270</ele>
        <time>2021-07-29T15:13:28Z</time>
      </trkpt>
      <trkpt lat="40.777360" lon="-3.972908">
        <ele>2109.082</ele>
        <time>2021-07-29T15:13:30Z</time>
      </trkpt>
      <trkpt lat="40.777338" lon="-3.972892">
        <ele>2108.969</ele>
        <time>2021-07-29T15:13:32Z</time>
      </trkpt>
      <trkpt lat="40.777318" lon="-3.972886">
        <ele>2108.736</ele>
        <time>2021-07-29T15:13:34Z</time>
      </trkpt>
      <trkpt lat="40.777293" lon="-3.972886">
        <ele>2108.537</ele>
        <time>2021-07-29T15:13:36Z</time>
      </trkpt>
      <trkpt lat="40.777274" lon="-3.972883">
        <ele>2108.317</ele>
        <time>2021-07-29T15:13:38Z</time>
      </trkpt>
      <trkpt lat="40.777248" lon="-3.972883">
        <ele>2108.110</ele>
        <time>2021-07-29T15:13:41Z</time>
      </trkpt>
      <trkpt lat="40.777229" lon="-3.972880">
        <ele>2108.089</ele>
        <time>2021-07-29T15:13:43Z</time>
      </trkpt>
      <trkpt lat="40.777206" lon="-3.972872">
        <ele>2107.736</ele>
        <time>2021-07-29T15:13:45Z</time>
      </trkpt>
      <trkpt lat="40.777184" lon="-3.972856">
        <ele>2107.617</ele>
        <time>2021-07-29T15:13:47Z</time>
      </trkpt>
      <trkpt lat="40.777158" lon="-3.972848">
        <ele>2107.318</ele>
        <time>2021-07-29T15:13:50Z</time>
      </trkpt>
      <trkpt lat="40.777139" lon="-3.972837">
        <ele>2107.208</ele>
        <time>2021-07-29T15:13:52Z</time>
      </trkpt>
      <trkpt lat="40.777120" lon="-3.972832">
        <ele>2106.940</ele>
        <time>2021-07-29T15:13:54Z</time>
      </trkpt>
      <trkpt lat="40.777101" lon="-3.972823">
        <ele>2106.892</ele>
        <time>2021-07-29T15:13:56Z</time>
      </trkpt>
      <trkpt lat="40.777082" lon="-3.972820">
        <ele>2106.549</ele>
        <time>2021-07-29T15:13:58Z</time>
      </trkpt>
      <trkpt lat="40.777062" lon="-3.972813">
        <ele>2106.396</ele>
        <time>2021-07-29T15:14:00Z</time>
      </trkpt>
      <trkpt lat="40.777043" lon="-3.972800">
        <ele>2106.257</ele>
        <time>2021-07-29T15:14:02Z</time>
      </trkpt>
      <trkpt lat="40.777024" lon="-3.972797">
        <ele>2105.987</ele>
        <time>2021-07-29T15:14:04Z</time>
      </trkpt>
      <trkpt lat="40.777005" lon="-3.972788">
        <ele>2105.820</ele>
        <time>2021-07-29T15:14:06Z</time>
      </trkpt>
      <trkpt lat="40.776982" lon="-3.972775">
        <ele>2105.649</ele>
        <time>2021-07-29T15:14:08Z</time>
      </trkpt>
      <trkpt lat="40.776966" lon="-3.972762">
        <ele>2105.554</ele>
        <time>2021-07-29T15:14:10Z</time>
      </trkpt>
      <trkpt lat="40.776944" lon="-3.972745">
        <ele>2105.556</ele>
        <time>2021-07-29T15:14:12Z</time>
      </trkpt>
      <trkpt lat="40.776922" lon="-3.972736">
        <ele>2105.311</ele>
        <time>2021-07-29T15:14:14Z</time>
      </trkpt>
      <trkpt lat="40.776896" lon="-3.972743">
        <ele>2105.008</ele>
        <time>2021-07-29T15:14:16Z</time>
      </trkpt>
      <trkpt lat="40.776877" lon="-3.972750">
        <ele>2104.672</ele>
        <time>2021-07-29T15:14:18Z</time>
      </trkpt>
      <trkpt lat="40.776848" lon="-3.972755">
        <ele>2104.364</ele>
        <time>2021-07-29T15:14:21Z</time>
      </trkpt>
      <trkpt lat="40.776826" lon="-3.972757">
        <ele>2104.031</ele>
        <time>2021-07-29T15:14:23Z</time>
      </trkpt>
      <trkpt lat="40.776803" lon="-3.972762">
        <ele>2103.768</ele>
        <time>2021-07-29T15:14:25Z</time>
      </trkpt>
      <trkpt lat="40.776784" lon="-3.972752">
        <ele>2103.679</ele>
        <time>2021-07-29T15:14:27Z</time>
      </trkpt>
      <trkpt lat="40.776765" lon="-3.972735">
        <ele>2103.619</ele>
        <time>2021-07-29T15:14:29Z</time>
      </trkpt>
      <trkpt lat="40.776742" lon="-3.972722">
        <ele>2103.522</ele>
        <time>2021-07-29T15:14:31Z</time>
      </trkpt>
      <trkpt lat="40.776717" lon="-3.972712">
        <ele>2103.361</ele>
        <time>2021-07-29T15:14:33Z</time>
      </trkpt>
      <trkpt lat="40.776694" lon="-3.972702">
        <ele>2103.138</ele>
        <time>2021-07-29T15:14:35Z</time>
      </trkpt>
      <trkpt lat="40.776672" lon="-3.972690">
        <ele>2103.070</ele>
        <time>2021-07-29T15:14:37Z</time>
      </trkpt>
      <trkpt lat="40.776650" lon="-3.972678">
        <ele>2103.017</ele>
        <time>2021-07-29T15:14:39Z</time>
      </trkpt>
      <trkpt lat="40.776630" lon="-3.972667">
        <ele>2102.908</ele>
        <time>2021-07-29T15:14:41Z</time>
      </trkpt>
      <trkpt lat="40.776608" lon="-3.972652">
        <ele>2102.990</ele>
        <time>2021-07-29T15:14:43Z</time>
      </trkpt>
      <trkpt lat="40.776589" lon="-3.972643">
        <ele>2102.912</ele>
        <time>2021-07-29T15:14:45Z</time>
      </trkpt>
      <trkpt lat="40.776566" lon="-3.972638">
        <ele>2102.879</ele>
        <time>2021-07-29T15:14:47Z</time>
      </trkpt>
      <trkpt lat="40.776547" lon="-3.972633">
        <ele>2102.796</ele>
        <time>2021-07-29T15:14:49Z</time>
      </trkpt>
      <trkpt lat="40.776525" lon="-3.972628">
        <ele>2102.687</ele>
        <time>2021-07-29T15:14:51Z</time>
      </trkpt>
      <trkpt lat="40.776499" lon="-3.972627">
        <ele>2102.437</ele>
        <time>2021-07-29T15:14:53Z</time>
      </trkpt>
      <trkpt lat="40.776470" lon="-3.972622">
        <ele>2102.380</ele>
        <time>2021-07-29T15:14:56Z</time>
      </trkpt>
      <trkpt lat="40.776451" lon="-3.972620">
        <ele>2102.269</ele>
        <time>2021-07-29T15:14:58Z</time>
      </trkpt>
      <trkpt lat="40.776429" lon="-3.972617">
        <ele>2102.081</ele>
        <time>2021-07-29T15:15:00Z</time>
      </trkpt>
      <trkpt lat="40.776400" lon="-3.972608">
        <ele>2101.961</ele>
        <time>2021-07-29T15:15:02Z</time>
      </trkpt>
      <trkpt lat="40.776378" lon="-3.972605">
        <ele>2101.717</ele>
        <time>2021-07-29T15:15:04Z</time>
      </trkpt>
      <trkpt lat="40.776355" lon="-3.972600">
        <ele>2101.508</ele>
        <time>2021-07-29T15:15:06Z</time>
      </trkpt>
      <trkpt lat="40.776333" lon="-3.972597">
        <ele>2101.355</ele>
        <time>2021-07-29T15:15:08Z</time>
      </trkpt>
      <trkpt lat="40.776310" lon="-3.972588">
        <ele>2101.177</ele>
        <time>2021-07-29T15:15:10Z</time>
      </trkpt>
      <trkpt lat="40.776285" lon="-3.972578">
        <ele>2100.964</ele>
        <time>2021-07-29T15:15:12Z</time>
      </trkpt>
      <trkpt lat="40.776259" lon="-3.972562">
        <ele>2100.831</ele>
        <time>2021-07-29T15:15:14Z</time>
      </trkpt>
      <trkpt lat="40.776237" lon="-3.972558">
        <ele>2100.682</ele>
        <time>2021-07-29T15:15:16Z</time>
      </trkpt>
      <trkpt lat="40.776214" lon="-3.972562">
        <ele>2100.342</ele>
        <time>2021-07-29T15:15:18Z</time>
      </trkpt>
      <trkpt lat="40.776195" lon="-3.972567">
        <ele>2100.055</ele>
        <time>2021-07-29T15:15:20Z</time>
      </trkpt>
      <trkpt lat="40.776173" lon="-3.972562">
        <ele>2099.884</ele>
        <time>2021-07-29T15:15:22Z</time>
      </trkpt>
      <trkpt lat="40.776154" lon="-3.972555">
        <ele>2099.733</ele>
        <time>2021-07-29T15:15:24Z</time>
      </trkpt>
      <trkpt lat="40.776128" lon="-3.972548">
        <ele>2099.523</ele>
        <time>2021-07-29T15:15:26Z</time>
      </trkpt>
      <trkpt lat="40.776112" lon="-3.972535">
        <ele>2099.515</ele>
        <time>2021-07-29T15:15:28Z</time>
      </trkpt>
      <trkpt lat="40.776090" lon="-3.972526">
        <ele>2099.408</ele>
        <time>2021-07-29T15:15:30Z</time>
      </trkpt>
      <trkpt lat="40.776061" lon="-3.972526">
        <ele>2099.140</ele>
        <time>2021-07-29T15:15:32Z</time>
      </trkpt>
      <trkpt lat="40.776042" lon="-3.972530">
        <ele>2098.892</ele>
        <time>2021-07-29T15:15:34Z</time>
      </trkpt>
      <trkpt lat="40.776016" lon="-3.972535">
        <ele>2098.449</ele>
        <time>2021-07-29T15:15:36Z</time>
      </trkpt>
      <trkpt lat="40.775994" lon="-3.972520">
        <ele>2098.446</ele>
        <time>2021-07-29T15:15:38Z</time>
      </trkpt>
      <trkpt lat="40.775974" lon="-3.972513">
        <ele>2098.377</ele>
        <time>2021-07-29T15:15:40Z</time>
      </trkpt>
      <trkpt lat="40.775955" lon="-3.972512">
        <ele>2098.167</ele>
        <time>2021-07-29T15:15:42Z</time>
      </trkpt>
      <trkpt lat="40.775930" lon="-3.972510">
        <ele>2097.920</ele>
        <time>2021-07-29T15:15:44Z</time>
      </trkpt>
      <trkpt lat="40.775907" lon="-3.972512">
        <ele>2097.689</ele>
        <time>2021-07-29T15:15:46Z</time>
      </trkpt>
      <trkpt lat="40.775888" lon="-3.972508">
        <ele>2097.521</ele>
        <time>2021-07-29T15:15:48Z</time>
      </trkpt>
      <trkpt lat="40.775859" lon="-3.972508">
        <ele>2097.141</ele>
        <time>2021-07-29T15:15:50Z</time>
      </trkpt>
      <trkpt lat="40.775840" lon="-3.972505">
        <ele>2097.005</ele>
        <time>2021-07-29T15:15:52Z</time>
      </trkpt>
      <trkpt lat="40.775821" lon="-3.972498">
        <ele>2096.808</ele>
        <time>2021-07-29T15:15:54Z</time>
      </trkpt>
      <trkpt lat="40.775798" lon="-3.972500">
        <ele>2096.219</ele>
        <time>2021-07-29T15:15:56Z</time>
      </trkpt>
      <trkpt lat="40.775779" lon="-3.972506">
        <ele>2095.721</ele>
        <time>2021-07-29T15:15:58Z</time>
      </trkpt>
      <trkpt lat="40.775757" lon="-3.972508">
        <ele>2095.228</ele>
        <time>2021-07-29T15:16:00Z</time>
      </trkpt>
      <trkpt lat="40.775738" lon="-3.972510">
        <ele>2094.865</ele>
        <time>2021-07-29T15:16:02Z</time>
      </trkpt>
      <trkpt lat="40.775715" lon="-3.972520">
        <ele>2094.126</ele>
        <time>2021-07-29T15:16:04Z</time>
      </trkpt>
      <trkpt lat="40.775696" lon="-3.972526">
        <ele>2093.796</ele>
        <time>2021-07-29T15:16:06Z</time>
      </trkpt>
      <trkpt lat="40.775674" lon="-3.972525">
        <ele>2093.279</ele>
        <time>2021-07-29T15:16:08Z</time>
      </trkpt>
      <trkpt lat="40.775654" lon="-3.972525">
        <ele>2092.848</ele>
        <time>2021-07-29T15:16:10Z</time>
      </trkpt>
      <trkpt lat="40.775635" lon="-3.972523">
        <ele>2092.488</ele>
        <time>2021-07-29T15:16:12Z</time>
      </trkpt>
      <trkpt lat="40.775613" lon="-3.972522">
        <ele>2092.024</ele>
        <time>2021-07-29T15:16:14Z</time>
      </trkpt>
      <trkpt lat="40.775584" lon="-3.972525">
        <ele>2091.326</ele>
        <time>2021-07-29T15:16:17Z</time>
      </trkpt>
      <trkpt lat="40.775562" lon="-3.972522">
        <ele>2090.908</ele>
        <time>2021-07-29T15:16:19Z</time>
      </trkpt>
      <trkpt lat="40.775542" lon="-3.972525">
        <ele>2090.565</ele>
        <time>2021-07-29T15:16:21Z</time>
      </trkpt>
      <trkpt lat="40.775523" lon="-3.972526">
        <ele>2090.147</ele>
        <time>2021-07-29T15:16:23Z</time>
      </trkpt>
      <trkpt lat="40.775501" lon="-3.972532">
        <ele>2089.744</ele>
        <time>2021-07-29T15:16:25Z</time>
      </trkpt>
      <trkpt lat="40.775482" lon="-3.972532">
        <ele>2089.431</ele>
        <time>2021-07-29T15:16:27Z</time>
      </trkpt>
      <trkpt lat="40.775462" lon="-3.972545">
        <ele>2088.942</ele>
        <time>2021-07-29T15:16:29Z</time>
      </trkpt>
      <trkpt lat="40.775440" lon="-3.972543">
        <ele>2088.572</ele>
        <time>2021-07-29T15:16:31Z</time>
      </trkpt>
      <trkpt lat="40.775421" lon="-3.972538">
        <ele>2088.225</ele>
        <time>2021-07-29T15:16:33Z</time>
      </trkpt>
      <trkpt lat="40.775402" lon="-3.972543">
        <ele>2087.984</ele>
        <time>2021-07-29T15:16:35Z</time>
      </trkpt>
      <trkpt lat="40.775379" lon="-3.972553">
        <ele>2087.495</ele>
        <time>2021-07-29T15:16:37Z</time>
      </trkpt>
      <trkpt lat="40.775357" lon="-3.972558">
        <ele>2086.949</ele>
        <time>2021-07-29T15:16:39Z</time>
      </trkpt>
      <trkpt lat="40.775328" lon="-3.972565">
        <ele>2086.423</ele>
        <time>2021-07-29T15:16:41Z</time>
      </trkpt>
      <trkpt lat="40.775299" lon="-3.972556">
        <ele>2086.008</ele>
        <time>2021-07-29T15:16:44Z</time>
      </trkpt>
      <trkpt lat="40.775280" lon="-3.972553">
        <ele>2085.736</ele>
        <time>2021-07-29T15:16:46Z</time>
      </trkpt>
      <trkpt lat="40.775258" lon="-3.972552">
        <ele>2085.488</ele>
        <time>2021-07-29T15:16:48Z</time>
      </trkpt>
      <trkpt lat="40.775238" lon="-3.972560">
        <ele>2085.215</ele>
        <time>2021-07-29T15:16:50Z</time>
      </trkpt>
      <trkpt lat="40.775216" lon="-3.972570">
        <ele>2084.942</ele>
        <time>2021-07-29T15:16:52Z</time>
      </trkpt>
      <trkpt lat="40.775194" lon="-3.972573">
        <ele>2084.663</ele>
        <time>2021-07-29T15:16:55Z</time>
      </trkpt>
      <trkpt lat="40.775174" lon="-3.972568">
        <ele>2084.563</ele>
        <time>2021-07-29T15:16:57Z</time>
      </trkpt>
      <trkpt lat="40.775155" lon="-3.972567">
        <ele>2084.346</ele>
        <time>2021-07-29T15:16:59Z</time>
      </trkpt>
      <trkpt lat="40.775136" lon="-3.972560">
        <ele>2084.115</ele>
        <time>2021-07-29T15:17:01Z</time>
      </trkpt>
      <trkpt lat="40.775117" lon="-3.972550">
        <ele>2084.087</ele>
        <time>2021-07-29T15:17:03Z</time>
      </trkpt>
      <trkpt lat="40.775098" lon="-3.972546">
        <ele>2083.842</ele>
        <time>2021-07-29T15:17:05Z</time>
      </trkpt>
      <trkpt lat="40.775078" lon="-3.972550">
        <ele>2083.626</ele>
        <time>2021-07-29T15:17:07Z</time>
      </trkpt>
      <trkpt lat="40.775056" lon="-3.972542">
        <ele>2083.408</ele>
        <time>2021-07-29T15:17:09Z</time>
      </trkpt>
      <trkpt lat="40.775037" lon="-3.972536">
        <ele>2083.365</ele>
        <time>2021-07-29T15:17:11Z</time>
      </trkpt>
      <trkpt lat="40.775018" lon="-3.972526">
        <ele>2083.167</ele>
        <time>2021-07-29T15:17:13Z</time>
      </trkpt>
      <trkpt lat="40.774995" lon="-3.972523">
        <ele>2082.984</ele>
        <time>2021-07-29T15:17:16Z</time>
      </trkpt>
      <trkpt lat="40.774976" lon="-3.972516">
        <ele>2082.771</ele>
        <time>2021-07-29T15:17:18Z</time>
      </trkpt>
      <trkpt lat="40.774957" lon="-3.972506">
        <ele>2082.532</ele>
        <time>2021-07-29T15:17:20Z</time>
      </trkpt>
      <trkpt lat="40.774934" lon="-3.972502">
        <ele>2082.362</ele>
        <time>2021-07-29T15:17:22Z</time>
      </trkpt>
      <trkpt lat="40.774915" lon="-3.972498">
        <ele>2082.195</ele>
        <time>2021-07-29T15:17:24Z</time>
      </trkpt>
      <trkpt lat="40.774896" lon="-3.972495">
        <ele>2081.964</ele>
        <time>2021-07-29T15:17:26Z</time>
      </trkpt>
      <trkpt lat="40.774867" lon="-3.972483">
        <ele>2081.677</ele>
        <time>2021-07-29T15:17:29Z</time>
      </trkpt>
      <trkpt lat="40.774848" lon="-3.972470">
        <ele>2081.561</ele>
        <time>2021-07-29T15:17:31Z</time>
      </trkpt>
      <trkpt lat="40.774829" lon="-3.972465">
        <ele>2081.327</ele>
        <time>2021-07-29T15:17:33Z</time>
      </trkpt>
      <trkpt lat="40.774806" lon="-3.972462">
        <ele>2081.008</ele>
        <time>2021-07-29T15:17:36Z</time>
      </trkpt>
      <trkpt lat="40.774787" lon="-3.972460">
        <ele>2080.854</ele>
        <time>2021-07-29T15:17:38Z</time>
      </trkpt>
      <trkpt lat="40.774765" lon="-3.972465">
        <ele>2080.616</ele>
        <time>2021-07-29T15:17:41Z</time>
      </trkpt>
      <trkpt lat="40.774742" lon="-3.972467">
        <ele>2080.313</ele>
        <time>2021-07-29T15:17:44Z</time>
      </trkpt>
      <trkpt lat="40.774720" lon="-3.972470">
        <ele>2080.140</ele>
        <time>2021-07-29T15:17:46Z</time>
      </trkpt>
      <trkpt lat="40.774698" lon="-3.972458">
        <ele>2079.931</ele>
        <time>2021-07-29T15:17:49Z</time>
      </trkpt>
      <trkpt lat="40.774672" lon="-3.972453">
        <ele>2079.611</ele>
        <time>2021-07-29T15:17:51Z</time>
      </trkpt>
      <trkpt lat="40.774653" lon="-3.972447">
        <ele>2079.464</ele>
        <time>2021-07-29T15:17:53Z</time>
      </trkpt>
      <trkpt lat="40.774624" lon="-3.972432">
        <ele>2079.183</ele>
        <time>2021-07-29T15:17:56Z</time>
      </trkpt>
      <trkpt lat="40.774605" lon="-3.972425">
        <ele>2078.913</ele>
        <time>2021-07-29T15:17:58Z</time>
      </trkpt>
      <trkpt lat="40.774586" lon="-3.972422">
        <ele>2078.743</ele>
        <time>2021-07-29T15:18:00Z</time>
      </trkpt>
      <trkpt lat="40.774570" lon="-3.972407">
        <ele>2078.507</ele>
        <time>2021-07-29T15:18:02Z</time>
      </trkpt>
      <trkpt lat="40.774547" lon="-3.972385">
        <ele>2078.308</ele>
        <time>2021-07-29T15:18:05Z</time>
      </trkpt>
      <trkpt lat="40.774531" lon="-3.972365">
        <ele>2078.188</ele>
        <time>2021-07-29T15:18:07Z</time>
      </trkpt>
      <trkpt lat="40.774518" lon="-3.972345">
        <ele>2077.990</ele>
        <time>2021-07-29T15:18:09Z</time>
      </trkpt>
      <trkpt lat="40.774502" lon="-3.972327">
        <ele>2077.837</ele>
        <time>2021-07-29T15:18:11Z</time>
      </trkpt>
      <trkpt lat="40.774486" lon="-3.972310">
        <ele>2077.684</ele>
        <time>2021-07-29T15:18:13Z</time>
      </trkpt>
      <trkpt lat="40.774464" lon="-3.972293">
        <ele>2077.335</ele>
        <time>2021-07-29T15:18:15Z</time>
      </trkpt>
      <trkpt lat="40.774448" lon="-3.972282">
        <ele>2077.015</ele>
        <time>2021-07-29T15:18:17Z</time>
      </trkpt>
      <trkpt lat="40.774429" lon="-3.972268">
        <ele>2076.788</ele>
        <time>2021-07-29T15:18:19Z</time>
      </trkpt>
      <trkpt lat="40.774406" lon="-3.972263">
        <ele>2076.357</ele>
        <time>2021-07-29T15:18:21Z</time>
      </trkpt>
      <trkpt lat="40.774384" lon="-3.972258">
        <ele>2075.996</ele>
        <time>2021-07-29T15:18:23Z</time>
      </trkpt>
      <trkpt lat="40.774362" lon="-3.972255">
        <ele>2075.631</ele>
        <time>2021-07-29T15:18:25Z</time>
      </trkpt>
      <trkpt lat="40.774339" lon="-3.972267">
        <ele>2075.224</ele>
        <time>2021-07-29T15:18:27Z</time>
      </trkpt>
      <trkpt lat="40.774314" lon="-3.972270">
        <ele>2074.708</ele>
        <time>2021-07-29T15:18:29Z</time>
      </trkpt>
      <trkpt lat="40.774291" lon="-3.972263">
        <ele>2074.356</ele>
        <time>2021-07-29T15:18:31Z</time>
      </trkpt>
      <trkpt lat="40.774269" lon="-3.972252">
        <ele>2073.958</ele>
        <time>2021-07-29T15:18:33Z</time>
      </trkpt>
      <trkpt lat="40.774253" lon="-3.972240">
        <ele>2073.695</ele>
        <time>2021-07-29T15:18:35Z</time>
      </trkpt>
      <trkpt lat="40.774230" lon="-3.972230">
        <ele>2073.272</ele>
        <time>2021-07-29T15:18:38Z</time>
      </trkpt>
      <trkpt lat="40.774208" lon="-3.972198">
        <ele>2072.733</ele>
        <time>2021-07-29T15:18:41Z</time>
      </trkpt>
      <trkpt lat="40.774189" lon="-3.972180">
        <ele>2072.473</ele>
        <time>2021-07-29T15:18:43Z</time>
      </trkpt>
      <trkpt lat="40.774170" lon="-3.972165">
        <ele>2072.186</ele>
        <time>2021-07-29T15:18:45Z</time>
      </trkpt>
      <trkpt lat="40.774154" lon="-3.972152">
        <ele>2072.035</ele>
        <time>2021-07-29T15:18:47Z</time>
      </trkpt>
      <trkpt lat="40.774134" lon="-3.972135">
        <ele>2071.988</ele>
        <time>2021-07-29T15:18:49Z</time>
      </trkpt>
      <trkpt lat="40.774115" lon="-3.972118">
        <ele>2071.824</ele>
        <time>2021-07-29T15:18:51Z</time>
      </trkpt>
      <trkpt lat="40.774093" lon="-3.972112">
        <ele>2071.726</ele>
        <time>2021-07-29T15:18:53Z</time>
      </trkpt>
      <trkpt lat="40.774074" lon="-3.972105">
        <ele>2071.708</ele>
        <time>2021-07-29T15:18:56Z</time>
      </trkpt>
      <trkpt lat="40.774054" lon="-3.972123">
        <ele>2071.615</ele>
        <time>2021-07-29T15:19:51Z</time>
      </trkpt>
      <trkpt lat="40.774035" lon="-3.972105">
        <ele>2071.517</ele>
        <time>2021-07-29T15:19:57Z</time>
      </trkpt>
      <trkpt lat="40.774022" lon="-3.972078">
        <ele>2071.544</ele>
        <time>2021-07-29T15:19:59Z</time>
      </trkpt>
      <trkpt lat="40.773997" lon="-3.972065">
        <ele>2071.491</ele>
        <time>2021-07-29T15:20:01Z</time>
      </trkpt>
      <trkpt lat="40.773974" lon="-3.972058">
        <ele>2071.322</ele>
        <time>2021-07-29T15:20:04Z</time>
      </trkpt>
      <trkpt lat="40.773952" lon="-3.972037">
        <ele>2071.212</ele>
        <time>2021-07-29T15:20:07Z</time>
      </trkpt>
      <trkpt lat="40.773933" lon="-3.972018">
        <ele>2071.225</ele>
        <time>2021-07-29T15:20:09Z</time>
      </trkpt>
      <trkpt lat="40.773914" lon="-3.972010">
        <ele>2071.174</ele>
        <time>2021-07-29T15:20:11Z</time>
      </trkpt>
      <trkpt lat="40.773891" lon="-3.971987">
        <ele>2071.043</ele>
        <time>2021-07-29T15:20:14Z</time>
      </trkpt>
      <trkpt lat="40.773872" lon="-3.971965">
        <ele>2071.164</ele>
        <time>2021-07-29T15:20:17Z</time>
      </trkpt>
      <trkpt lat="40.773853" lon="-3.971950">
        <ele>2071.110</ele>
        <time>2021-07-29T15:20:19Z</time>
      </trkpt>
      <trkpt lat="40.773834" lon="-3.971940">
        <ele>2071.208</ele>
        <time>2021-07-29T15:20:21Z</time>
      </trkpt>
      <trkpt lat="40.773814" lon="-3.971932">
        <ele>2071.271</ele>
        <time>2021-07-29T15:20:23Z</time>
      </trkpt>
      <trkpt lat="40.773795" lon="-3.971918">
        <ele>2071.293</ele>
        <time>2021-07-29T15:20:26Z</time>
      </trkpt>
      <trkpt lat="40.773773" lon="-3.971898">
        <ele>2071.260</ele>
        <time>2021-07-29T15:20:29Z</time>
      </trkpt>
      <trkpt lat="40.773757" lon="-3.971878">
        <ele>2071.297</ele>
        <time>2021-07-29T15:20:31Z</time>
      </trkpt>
      <trkpt lat="40.773738" lon="-3.971870">
        <ele>2071.398</ele>
        <time>2021-07-29T15:20:33Z</time>
      </trkpt>
      <trkpt lat="40.773712" lon="-3.971863">
        <ele>2071.368</ele>
        <time>2021-07-29T15:20:35Z</time>
      </trkpt>
      <trkpt lat="40.773690" lon="-3.971860">
        <ele>2071.461</ele>
        <time>2021-07-29T15:20:38Z</time>
      </trkpt>
      <trkpt lat="40.773670" lon="-3.971856">
        <ele>2071.540</ele>
        <time>2021-07-29T15:20:40Z</time>
      </trkpt>
      <trkpt lat="40.773648" lon="-3.971856">
        <ele>2071.518</ele>
        <time>2021-07-29T15:20:42Z</time>
      </trkpt>
      <trkpt lat="40.773626" lon="-3.971856">
        <ele>2071.698</ele>
        <time>2021-07-29T15:20:45Z</time>
      </trkpt>
      <trkpt lat="40.773606" lon="-3.971852">
        <ele>2071.717</ele>
        <time>2021-07-29T15:20:47Z</time>
      </trkpt>
      <trkpt lat="40.773587" lon="-3.971842">
        <ele>2071.808</ele>
        <time>2021-07-29T15:20:49Z</time>
      </trkpt>
      <trkpt lat="40.773565" lon="-3.971832">
        <ele>2071.928</ele>
        <time>2021-07-29T15:20:51Z</time>
      </trkpt>
      <trkpt lat="40.773539" lon="-3.971830">
        <ele>2072.190</ele>
        <time>2021-07-29T15:20:53Z</time>
      </trkpt>
      <trkpt lat="40.773517" lon="-3.971823">
        <ele>2072.297</ele>
        <time>2021-07-29T15:20:56Z</time>
      </trkpt>
      <trkpt lat="40.773501" lon="-3.971812">
        <ele>2072.334</ele>
        <time>2021-07-29T15:20:58Z</time>
      </trkpt>
      <trkpt lat="40.773478" lon="-3.971783">
        <ele>2072.415</ele>
        <time>2021-07-29T15:21:01Z</time>
      </trkpt>
      <trkpt lat="40.773459" lon="-3.971765">
        <ele>2072.465</ele>
        <time>2021-07-29T15:21:03Z</time>
      </trkpt>
      <trkpt lat="40.773434" lon="-3.971738">
        <ele>2072.558</ele>
        <time>2021-07-29T15:21:06Z</time>
      </trkpt>
      <trkpt lat="40.773414" lon="-3.971723">
        <ele>2072.637</ele>
        <time>2021-07-29T15:21:08Z</time>
      </trkpt>
      <trkpt lat="40.773392" lon="-3.971718">
        <ele>2072.882</ele>
        <time>2021-07-29T15:21:10Z</time>
      </trkpt>
      <trkpt lat="40.773366" lon="-3.971707">
        <ele>2072.943</ele>
        <time>2021-07-29T15:21:13Z</time>
      </trkpt>
      <trkpt lat="40.773347" lon="-3.971693">
        <ele>2073.017</ele>
        <time>2021-07-29T15:21:15Z</time>
      </trkpt>
      <trkpt lat="40.773322" lon="-3.971682">
        <ele>2073.308</ele>
        <time>2021-07-29T15:21:18Z</time>
      </trkpt>
      <trkpt lat="40.773299" lon="-3.971672">
        <ele>2073.625</ele>
        <time>2021-07-29T15:21:21Z</time>
      </trkpt>
      <trkpt lat="40.773280" lon="-3.971654">
        <ele>2073.917</ele>
        <time>2021-07-29T15:21:23Z</time>
      </trkpt>
      <trkpt lat="40.773258" lon="-3.971644">
        <ele>2074.384</ele>
        <time>2021-07-29T15:21:25Z</time>
      </trkpt>
      <trkpt lat="40.773235" lon="-3.971634">
        <ele>2074.731</ele>
        <time>2021-07-29T15:21:27Z</time>
      </trkpt>
      <trkpt lat="40.773210" lon="-3.971627">
        <ele>2075.142</ele>
        <time>2021-07-29T15:21:30Z</time>
      </trkpt>
      <trkpt lat="40.773187" lon="-3.971618">
        <ele>2075.552</ele>
        <time>2021-07-29T15:21:32Z</time>
      </trkpt>
      <trkpt lat="40.773162" lon="-3.971618">
        <ele>2075.995</ele>
        <time>2021-07-29T15:21:34Z</time>
      </trkpt>
      <trkpt lat="40.773142" lon="-3.971614">
        <ele>2076.314</ele>
        <time>2021-07-29T15:21:36Z</time>
      </trkpt>
      <trkpt lat="40.773120" lon="-3.971608">
        <ele>2076.655</ele>
        <time>2021-07-29T15:21:39Z</time>
      </trkpt>
      <trkpt lat="40.773094" lon="-3.971598">
        <ele>2077.107</ele>
        <time>2021-07-29T15:21:42Z</time>
      </trkpt>
      <trkpt lat="40.773075" lon="-3.971595">
        <ele>2077.417</ele>
        <time>2021-07-29T15:21:44Z</time>
      </trkpt>
      <trkpt lat="40.773056" lon="-3.971598">
        <ele>2077.708</ele>
        <time>2021-07-29T15:21:46Z</time>
      </trkpt>
      <trkpt lat="40.773037" lon="-3.971603">
        <ele>2078.012</ele>
        <time>2021-07-29T15:21:48Z</time>
      </trkpt>
      <trkpt lat="40.773011" lon="-3.971605">
        <ele>2078.434</ele>
        <time>2021-07-29T15:21:51Z</time>
      </trkpt>
      <trkpt lat="40.772989" lon="-3.971608">
        <ele>2078.731</ele>
        <time>2021-07-29T15:21:54Z</time>
      </trkpt>
      <trkpt lat="40.772970" lon="-3.971607">
        <ele>2079.028</ele>
        <time>2021-07-29T15:21:56Z</time>
      </trkpt>
      <trkpt lat="40.772941" lon="-3.971602">
        <ele>2079.449</ele>
        <time>2021-07-29T15:21:59Z</time>
      </trkpt>
      <trkpt lat="40.772922" lon="-3.971580">
        <ele>2079.619</ele>
        <time>2021-07-29T15:22:02Z</time>
      </trkpt>
      <trkpt lat="40.772899" lon="-3.971565">
        <ele>2079.952</ele>
        <time>2021-07-29T15:22:05Z</time>
      </trkpt>
      <trkpt lat="40.772877" lon="-3.971542">
        <ele>2080.121</ele>
        <time>2021-07-29T15:22:08Z</time>
      </trkpt>
      <trkpt lat="40.772858" lon="-3.971547">
        <ele>2080.461</ele>
        <time>2021-07-29T15:22:10Z</time>
      </trkpt>
      <trkpt lat="40.772838" lon="-3.971545">
        <ele>2080.721</ele>
        <time>2021-07-29T15:22:13Z</time>
      </trkpt>
      <trkpt lat="40.772819" lon="-3.971552">
        <ele>2081.013</ele>
        <time>2021-07-29T15:22:15Z</time>
      </trkpt>
      <trkpt lat="40.772800" lon="-3.971547">
        <ele>2081.208</ele>
        <time>2021-07-29T15:22:18Z</time>
      </trkpt>
      <trkpt lat="40.772778" lon="-3.971552">
        <ele>2081.613</ele>
        <time>2021-07-29T15:22:21Z</time>
      </trkpt>
      <trkpt lat="40.772755" lon="-3.971537">
        <ele>2082.135</ele>
        <time>2021-07-29T15:22:24Z</time>
      </trkpt>
      <trkpt lat="40.772736" lon="-3.971535">
        <ele>2082.522</ele>
        <time>2021-07-29T15:22:26Z</time>
      </trkpt>
      <trkpt lat="40.772710" lon="-3.971522">
        <ele>2083.179</ele>
        <time>2021-07-29T15:22:30Z</time>
      </trkpt>
      <trkpt lat="40.772691" lon="-3.971530">
        <ele>2083.580</ele>
        <time>2021-07-29T15:22:33Z</time>
      </trkpt>
      <trkpt lat="40.772666" lon="-3.971528">
        <ele>2084.140</ele>
        <time>2021-07-29T15:22:36Z</time>
      </trkpt>
      <trkpt lat="40.772646" lon="-3.971530">
        <ele>2084.683</ele>
        <time>2021-07-29T15:22:39Z</time>
      </trkpt>
      <trkpt lat="40.772624" lon="-3.971535">
        <ele>2085.182</ele>
        <time>2021-07-29T15:22:42Z</time>
      </trkpt>
      <trkpt lat="40.772602" lon="-3.971515">
        <ele>2085.567</ele>
        <time>2021-07-29T15:22:45Z</time>
      </trkpt>
      <trkpt lat="40.772586" lon="-3.971503">
        <ele>2085.881</ele>
        <time>2021-07-29T15:22:47Z</time>
      </trkpt>
      <trkpt lat="40.772560" lon="-3.971503">
        <ele>2086.419</ele>
        <time>2021-07-29T15:22:50Z</time>
      </trkpt>
      <trkpt lat="40.772538" lon="-3.971490">
        <ele>2086.908</ele>
        <time>2021-07-29T15:22:54Z</time>
      </trkpt>
      <trkpt lat="40.772518" lon="-3.971476">
        <ele>2087.213</ele>
        <time>2021-07-29T15:22:57Z</time>
      </trkpt>
      <trkpt lat="40.772496" lon="-3.971482">
        <ele>2087.855</ele>
        <time>2021-07-29T15:23:00Z</time>
      </trkpt>
      <trkpt lat="40.772477" lon="-3.971490">
        <ele>2088.322</ele>
        <time>2021-07-29T15:23:04Z</time>
      </trkpt>
      <trkpt lat="40.772454" lon="-3.971495">
        <ele>2088.939</ele>
        <time>2021-07-29T15:23:07Z</time>
      </trkpt>
      <trkpt lat="40.772438" lon="-3.971480">
        <ele>2089.150</ele>
        <time>2021-07-29T15:23:10Z</time>
      </trkpt>
      <trkpt lat="40.772419" lon="-3.971482">
        <ele>2089.660</ele>
        <time>2021-07-29T15:23:13Z</time>
      </trkpt>
      <trkpt lat="40.772400" lon="-3.971485">
        <ele>2090.163</ele>
        <time>2021-07-29T15:23:16Z</time>
      </trkpt>
      <trkpt lat="40.772378" lon="-3.971493">
        <ele>2090.762</ele>
        <time>2021-07-29T15:23:20Z</time>
      </trkpt>
      <trkpt lat="40.772358" lon="-3.971490">
        <ele>2091.195</ele>
        <time>2021-07-29T15:23:23Z</time>
      </trkpt>
      <trkpt lat="40.772336" lon="-3.971478">
        <ele>2091.649</ele>
        <time>2021-07-29T15:23:27Z</time>
      </trkpt>
      <trkpt lat="40.772317" lon="-3.971473">
        <ele>2092.023</ele>
        <time>2021-07-29T15:23:31Z</time>
      </trkpt>
      <trkpt lat="40.772298" lon="-3.971468">
        <ele>2092.508</ele>
        <time>2021-07-29T15:23:35Z</time>
      </trkpt>
      <trkpt lat="40.772269" lon="-3.971455">
        <ele>2093.186</ele>
        <time>2021-07-29T15:23:38Z</time>
      </trkpt>
      <trkpt lat="40.772250" lon="-3.971460">
        <ele>2093.678</ele>
        <time>2021-07-29T15:23:41Z</time>
      </trkpt>
      <trkpt lat="40.772227" lon="-3.971444">
        <ele>2094.195</ele>
        <time>2021-07-29T15:23:44Z</time>
      </trkpt>
      <trkpt lat="40.772202" lon="-3.971440">
        <ele>2094.712</ele>
        <time>2021-07-29T15:23:49Z</time>
      </trkpt>
      <trkpt lat="40.772189" lon="-3.971417">
        <ele>2094.963</ele>
        <time>2021-07-29T15:23:50Z</time>
      </trkpt>
      <trkpt lat="40.772176" lon="-3.971400">
        <ele>2095.273</ele>
        <time>2021-07-29T15:23:52Z</time>
      </trkpt>
      <trkpt lat="40.772157" lon="-3.971397">
        <ele>2095.796</ele>
        <time>2021-07-29T15:23:56Z</time>
      </trkpt>
      <trkpt lat="40.772138" lon="-3.971410">
        <ele>2096.215</ele>
        <time>2021-07-29T15:23:59Z</time>
      </trkpt>
      <trkpt lat="40.772115" lon="-3.971410">
        <ele>2096.819</ele>
        <time>2021-07-29T15:24:02Z</time>
      </trkpt>
      <trkpt lat="40.772096" lon="-3.971427">
        <ele>2097.309</ele>
        <time>2021-07-29T15:24:05Z</time>
      </trkpt>
      <trkpt lat="40.772077" lon="-3.971423">
        <ele>2097.819</ele>
        <time>2021-07-29T15:24:08Z</time>
      </trkpt>
      <trkpt lat="40.772058" lon="-3.971423">
        <ele>2098.308</ele>
        <time>2021-07-29T15:24:11Z</time>
      </trkpt>
      <trkpt lat="40.772038" lon="-3.971434">
        <ele>2098.828</ele>
        <time>2021-07-29T15:24:14Z</time>
      </trkpt>
      <trkpt lat="40.772019" lon="-3.971437">
        <ele>2099.380</ele>
        <time>2021-07-29T15:24:16Z</time>
      </trkpt>
      <trkpt lat="40.772000" lon="-3.971445">
        <ele>2099.877</ele>
        <time>2021-07-29T15:24:19Z</time>
      </trkpt>
      <trkpt lat="40.771987" lon="-3.971422">
        <ele>2100.044</ele>
        <time>2021-07-29T15:24:22Z</time>
      </trkpt>
      <trkpt lat="40.771971" lon="-3.971408">
        <ele>2100.485</ele>
        <time>2021-07-29T15:24:24Z</time>
      </trkpt>
      <trkpt lat="40.771952" lon="-3.971390">
        <ele>2100.855</ele>
        <time>2021-07-29T15:24:26Z</time>
      </trkpt>
      <trkpt lat="40.771936" lon="-3.971367">
        <ele>2101.288</ele>
        <time>2021-07-29T15:24:29Z</time>
      </trkpt>
      <trkpt lat="40.771923" lon="-3.971350">
        <ele>2101.617</ele>
        <time>2021-07-29T15:24:32Z</time>
      </trkpt>
      <trkpt lat="40.771907" lon="-3.971325">
        <ele>2102.019</ele>
        <time>2021-07-29T15:24:35Z</time>
      </trkpt>
      <trkpt lat="40.771885" lon="-3.971320">
        <ele>2102.709</ele>
        <time>2021-07-29T15:24:38Z</time>
      </trkpt>
      <trkpt lat="40.771872" lon="-3.971294">
        <ele>2103.019</ele>
        <time>2021-07-29T15:24:41Z</time>
      </trkpt>
      <trkpt lat="40.771859" lon="-3.971262">
        <ele>2103.308</ele>
        <time>2021-07-29T15:24:43Z</time>
      </trkpt>
      <trkpt lat="40.771846" lon="-3.971232">
        <ele>2103.658</ele>
        <time>2021-07-29T15:24:45Z</time>
      </trkpt>
      <trkpt lat="40.771827" lon="-3.971237">
        <ele>2104.340</ele>
        <time>2021-07-29T15:24:48Z</time>
      </trkpt>
      <trkpt lat="40.771805" lon="-3.971243">
        <ele>2105.077</ele>
        <time>2021-07-29T15:24:51Z</time>
      </trkpt>
      <trkpt lat="40.771782" lon="-3.971253">
        <ele>2105.854</ele>
        <time>2021-07-29T15:24:55Z</time>
      </trkpt>
      <trkpt lat="40.771763" lon="-3.971265">
        <ele>2106.435</ele>
        <time>2021-07-29T15:24:59Z</time>
      </trkpt>
      <trkpt lat="40.771747" lon="-3.971280">
        <ele>2107.045</ele>
        <time>2021-07-29T15:25:02Z</time>
      </trkpt>
      <trkpt lat="40.771728" lon="-3.971282">
        <ele>2107.668</ele>
        <time>2021-07-29T15:25:05Z</time>
      </trkpt>
      <trkpt lat="40.771709" lon="-3.971295">
        <ele>2108.377</ele>
        <time>2021-07-29T15:25:09Z</time>
      </trkpt>
      <trkpt lat="40.771693" lon="-3.971318">
        <ele>2108.988</ele>
        <time>2021-07-29T15:25:14Z</time>
      </trkpt>
      <trkpt lat="40.771674" lon="-3.971323">
        <ele>2109.524</ele>
        <time>2021-07-29T15:25:19Z</time>
      </trkpt>
      <trkpt lat="40.771651" lon="-3.971332">
        <ele>2110.426</ele>
        <time>2021-07-29T15:25:24Z</time>
      </trkpt>
      <trkpt lat="40.771632" lon="-3.971353">
        <ele>2111.108</ele>
        <time>2021-07-29T15:25:28Z</time>
      </trkpt>
      <trkpt lat="40.771619" lon="-3.971372">
        <ele>2111.785</ele>
        <time>2021-07-29T15:25:31Z</time>
      </trkpt>
      <trkpt lat="40.771600" lon="-3.971387">
        <ele>2112.477</ele>
        <time>2021-07-29T15:25:34Z</time>
      </trkpt>
      <trkpt lat="40.771584" lon="-3.971408">
        <ele>2113.144</ele>
        <time>2021-07-29T15:25:38Z</time>
      </trkpt>
      <trkpt lat="40.771571" lon="-3.971428">
        <ele>2113.741</ele>
        <time>2021-07-29T15:25:41Z</time>
      </trkpt>
      <trkpt lat="40.771571" lon="-3.971462">
        <ele>2114.042</ele>
        <time>2021-07-29T15:25:44Z</time>
      </trkpt>
      <trkpt lat="40.771568" lon="-3.971485">
        <ele>2114.292</ele>
        <time>2021-07-29T15:25:48Z</time>
      </trkpt>
      <trkpt lat="40.771549" lon="-3.971506">
        <ele>2115.195</ele>
        <time>2021-07-29T15:25:52Z</time>
      </trkpt>
      <trkpt lat="40.771530" lon="-3.971506">
        <ele>2115.864</ele>
        <time>2021-07-29T15:25:56Z</time>
      </trkpt>
      <trkpt lat="40.771510" lon="-3.971518">
        <ele>2116.636</ele>
        <time>2021-07-29T15:25:59Z</time>
      </trkpt>
      <trkpt lat="40.771507" lon="-3.971543">
        <ele>2116.917</ele>
        <time>2021-07-29T15:26:04Z</time>
      </trkpt>
      <trkpt lat="40.771501" lon="-3.971572">
        <ele>2117.318</ele>
        <time>2021-07-29T15:26:07Z</time>
      </trkpt>
      <trkpt lat="40.771488" lon="-3.971602">
        <ele>2118.008</ele>
        <time>2021-07-29T15:26:10Z</time>
      </trkpt>
      <trkpt lat="40.771475" lon="-3.971624">
        <ele>2118.660</ele>
        <time>2021-07-29T15:26:13Z</time>
      </trkpt>
      <trkpt lat="40.771462" lon="-3.971647">
        <ele>2119.282</ele>
        <time>2021-07-29T15:26:18Z</time>
      </trkpt>
      <trkpt lat="40.771450" lon="-3.971675">
        <ele>2119.849</ele>
        <time>2021-07-29T15:26:21Z</time>
      </trkpt>
      <trkpt lat="40.771440" lon="-3.971702">
        <ele>2120.356</ele>
        <time>2021-07-29T15:26:24Z</time>
      </trkpt>
      <trkpt lat="40.771424" lon="-3.971720">
        <ele>2121.017</ele>
        <time>2021-07-29T15:26:28Z</time>
      </trkpt>
      <trkpt lat="40.771411" lon="-3.971745">
        <ele>2121.597</ele>
        <time>2021-07-29T15:26:33Z</time>
      </trkpt>
      <trkpt lat="40.771402" lon="-3.971768">
        <ele>2121.920</ele>
        <time>2021-07-29T15:26:36Z</time>
      </trkpt>
      <trkpt lat="40.771392" lon="-3.971790">
        <ele>2122.339</ele>
        <time>2021-07-29T15:26:40Z</time>
      </trkpt>
      <trkpt lat="40.771382" lon="-3.971815">
        <ele>2122.858</ele>
        <time>2021-07-29T15:26:44Z</time>
      </trkpt>
      <trkpt lat="40.771370" lon="-3.971835">
        <ele>2123.352</ele>
        <time>2021-07-29T15:26:46Z</time>
      </trkpt>
      <trkpt lat="40.771366" lon="-3.971868">
        <ele>2123.517</ele>
        <time>2021-07-29T15:26:50Z</time>
      </trkpt>
      <trkpt lat="40.771360" lon="-3.971892">
        <ele>2123.808</ele>
        <time>2021-07-29T15:26:53Z</time>
      </trkpt>
      <trkpt lat="40.771344" lon="-3.971903">
        <ele>2124.472</ele>
        <time>2021-07-29T15:26:56Z</time>
      </trkpt>
      <trkpt lat="40.771325" lon="-3.971923">
        <ele>2125.264</ele>
        <time>2021-07-29T15:27:00Z</time>
      </trkpt>
      <trkpt lat="40.771315" lon="-3.971950">
        <ele>2125.771</ele>
        <time>2021-07-29T15:27:04Z</time>
      </trkpt>
      <trkpt lat="40.771306" lon="-3.971977">
        <ele>2126.258</ele>
        <time>2021-07-29T15:27:07Z</time>
      </trkpt>
      <trkpt lat="40.771290" lon="-3.972005">
        <ele>2127.029</ele>
        <time>2021-07-29T15:27:10Z</time>
      </trkpt>
      <trkpt lat="40.771277" lon="-3.972032">
        <ele>2127.729</ele>
        <time>2021-07-29T15:27:14Z</time>
      </trkpt>
      <trkpt lat="40.771261" lon="-3.972057">
        <ele>2128.472</ele>
        <time>2021-07-29T15:27:18Z</time>
      </trkpt>
      <trkpt lat="40.771248" lon="-3.972077">
        <ele>2129.091</ele>
        <time>2021-07-29T15:27:21Z</time>
      </trkpt>
      <trkpt lat="40.771232" lon="-3.972092">
        <ele>2129.737</ele>
        <time>2021-07-29T15:27:25Z</time>
      </trkpt>
      <trkpt lat="40.771216" lon="-3.972078">
        <ele>2130.249</ele>
        <time>2021-07-29T15:27:35Z</time>
      </trkpt>
      <trkpt lat="40.771197" lon="-3.972075">
        <ele>2130.813</ele>
        <time>2021-07-29T15:27:38Z</time>
      </trkpt>
      <trkpt lat="40.771174" lon="-3.972075">
        <ele>2131.708</ele>
        <time>2021-07-29T15:27:42Z</time>
      </trkpt>
      <trkpt lat="40.771155" lon="-3.972093">
        <ele>2132.570</ele>
        <time>2021-07-29T15:27:47Z</time>
      </trkpt>
      <trkpt lat="40.771136" lon="-3.972088">
        <ele>2133.132</ele>
        <time>2021-07-29T15:27:51Z</time>
      </trkpt>
      <trkpt lat="40.771117" lon="-3.972090">
        <ele>2133.889</ele>
        <time>2021-07-29T15:27:54Z</time>
      </trkpt>
      <trkpt lat="40.771104" lon="-3.972110">
        <ele>2134.456</ele>
        <time>2021-07-29T15:27:57Z</time>
      </trkpt>
      <trkpt lat="40.771085" lon="-3.972112">
        <ele>2135.187</ele>
        <time>2021-07-29T15:28:02Z</time>
      </trkpt>
      <trkpt lat="40.771066" lon="-3.972108">
        <ele>2135.757</ele>
        <time>2021-07-29T15:28:06Z</time>
      </trkpt>
      <trkpt lat="40.771053" lon="-3.972130">
        <ele>2136.330</ele>
        <time>2021-07-29T15:28:08Z</time>
      </trkpt>
      <trkpt lat="40.771034" lon="-3.972138">
        <ele>2137.019</ele>
        <time>2021-07-29T15:28:12Z</time>
      </trkpt>
      <trkpt lat="40.771014" lon="-3.972147">
        <ele>2137.795</ele>
        <time>2021-07-29T15:28:16Z</time>
      </trkpt>
      <trkpt lat="40.771005" lon="-3.972168">
        <ele>2138.149</ele>
        <time>2021-07-29T15:28:20Z</time>
      </trkpt>
      <trkpt lat="40.770986" lon="-3.972175">
        <ele>2138.823</ele>
        <time>2021-07-29T15:28:23Z</time>
      </trkpt>
      <trkpt lat="40.770966" lon="-3.972178">
        <ele>2139.508</ele>
        <time>2021-07-29T15:28:26Z</time>
      </trkpt>
      <trkpt lat="40.770947" lon="-3.972176">
        <ele>2140.176</ele>
        <time>2021-07-29T15:28:30Z</time>
      </trkpt>
      <trkpt lat="40.770928" lon="-3.972176">
        <ele>2140.788</ele>
        <time>2021-07-29T15:28:33Z</time>
      </trkpt>
      <trkpt lat="40.770909" lon="-3.972183">
        <ele>2141.475</ele>
        <time>2021-07-29T15:28:37Z</time>
      </trkpt>
      <trkpt lat="40.770890" lon="-3.972186">
        <ele>2142.012</ele>
        <time>2021-07-29T15:28:47Z</time>
      </trkpt>
      <trkpt lat="40.770870" lon="-3.972190">
        <ele>2142.793</ele>
        <time>2021-07-29T15:28:51Z</time>
      </trkpt>
      <trkpt lat="40.770851" lon="-3.972193">
        <ele>2143.343</ele>
        <time>2021-07-29T15:28:54Z</time>
      </trkpt>
      <trkpt lat="40.770829" lon="-3.972190">
        <ele>2144.146</ele>
        <time>2021-07-29T15:28:57Z</time>
      </trkpt>
      <trkpt lat="40.770810" lon="-3.972195">
        <ele>2144.825</ele>
        <time>2021-07-29T15:29:00Z</time>
      </trkpt>
      <trkpt lat="40.770790" lon="-3.972193">
        <ele>2145.676</ele>
        <time>2021-07-29T15:29:03Z</time>
      </trkpt>
      <trkpt lat="40.770771" lon="-3.972198">
        <ele>2146.390</ele>
        <time>2021-07-29T15:29:07Z</time>
      </trkpt>
      <trkpt lat="40.770749" lon="-3.972196">
        <ele>2147.219</ele>
        <time>2021-07-29T15:29:10Z</time>
      </trkpt>
      <trkpt lat="40.770726" lon="-3.972200">
        <ele>2148.108</ele>
        <time>2021-07-29T15:29:14Z</time>
      </trkpt>
      <trkpt lat="40.770707" lon="-3.972186">
        <ele>2148.774</ele>
        <time>2021-07-29T15:29:16Z</time>
      </trkpt>
      <trkpt lat="40.770685" lon="-3.972180">
        <ele>2149.576</ele>
        <time>2021-07-29T15:29:19Z</time>
      </trkpt>
      <trkpt lat="40.770666" lon="-3.972183">
        <ele>2150.293</ele>
        <time>2021-07-29T15:29:24Z</time>
      </trkpt>
      <trkpt lat="40.770646" lon="-3.972195">
        <ele>2151.110</ele>
        <time>2021-07-29T15:29:28Z</time>
      </trkpt>
      <trkpt lat="40.770630" lon="-3.972208">
        <ele>2151.951</ele>
        <time>2021-07-29T15:29:31Z</time>
      </trkpt>
      <trkpt lat="40.770611" lon="-3.972222">
        <ele>2152.881</ele>
        <time>2021-07-29T15:29:35Z</time>
      </trkpt>
      <trkpt lat="40.770592" lon="-3.972222">
        <ele>2153.614</ele>
        <time>2021-07-29T15:29:38Z</time>
      </trkpt>
      <trkpt lat="40.770573" lon="-3.972213">
        <ele>2154.233</ele>
        <time>2021-07-29T15:29:41Z</time>
      </trkpt>
      <trkpt lat="40.770557" lon="-3.972196">
        <ele>2154.681</ele>
        <time>2021-07-29T15:29:43Z</time>
      </trkpt>
      <trkpt lat="40.770541" lon="-3.972182">
        <ele>2154.661</ele>
        <time>2021-07-29T15:29:45Z</time>
      </trkpt>
      <trkpt lat="40.770531" lon="-3.972153">
        <ele>2154.417</ele>
        <time>2021-07-29T15:29:47Z</time>
      </trkpt>
      <trkpt lat="40.770512" lon="-3.972147">
        <ele>2154.608</ele>
        <time>2021-07-29T15:29:50Z</time>
      </trkpt>
      <trkpt lat="40.770493" lon="-3.972147">
        <ele>2154.965</ele>
        <time>2021-07-29T15:29:52Z</time>
      </trkpt>
      <trkpt lat="40.770474" lon="-3.972138">
        <ele>2155.117</ele>
        <time>2021-07-29T15:29:56Z</time>
      </trkpt>
      <trkpt lat="40.770470" lon="-3.972110">
        <ele>2154.964</ele>
        <time>2021-07-29T15:29:58Z</time>
      </trkpt>
      <trkpt lat="40.770458" lon="-3.972083">
        <ele>2154.941</ele>
        <time>2021-07-29T15:30:01Z</time>
      </trkpt>
      <trkpt lat="40.770442" lon="-3.972057">
        <ele>2155.172</ele>
        <time>2021-07-29T15:30:04Z</time>
      </trkpt>
      <trkpt lat="40.770422" lon="-3.972043">
        <ele>2155.472</ele>
        <time>2021-07-29T15:30:07Z</time>
      </trkpt>
      <trkpt lat="40.770406" lon="-3.972028">
        <ele>2155.725</ele>
        <time>2021-07-29T15:30:09Z</time>
      </trkpt>
      <trkpt lat="40.770387" lon="-3.972022">
        <ele>2156.144</ele>
        <time>2021-07-29T15:30:12Z</time>
      </trkpt>
      <trkpt lat="40.770371" lon="-3.972004">
        <ele>2156.585</ele>
        <time>2021-07-29T15:30:15Z</time>
      </trkpt>
      <trkpt lat="40.770362" lon="-3.971978">
        <ele>2156.689</ele>
        <time>2021-07-29T15:30:17Z</time>
      </trkpt>
      <trkpt lat="40.770355" lon="-3.971953">
        <ele>2156.817</ele>
        <time>2021-07-29T15:30:20Z</time>
      </trkpt>
      <trkpt lat="40.770336" lon="-3.971928">
        <ele>2157.308</ele>
        <time>2021-07-29T15:30:23Z</time>
      </trkpt>
      <trkpt lat="40.770320" lon="-3.971905">
        <ele>2157.645</ele>
        <time>2021-07-29T15:30:25Z</time>
      </trkpt>
      <trkpt lat="40.770298" lon="-3.971892">
        <ele>2158.277</ele>
        <time>2021-07-29T15:30:28Z</time>
      </trkpt>
      <trkpt lat="40.770278" lon="-3.971860">
        <ele>2158.774</ele>
        <time>2021-07-29T15:30:31Z</time>
      </trkpt>
      <trkpt lat="40.770269" lon="-3.971828">
        <ele>2158.741</ele>
        <time>2021-07-29T15:30:36Z</time>
      </trkpt>
      <trkpt lat="40.770262" lon="-3.971798">
        <ele>2158.752</ele>
        <time>2021-07-29T15:30:38Z</time>
      </trkpt>
      <trkpt lat="40.770259" lon="-3.971768">
        <ele>2158.762</ele>
        <time>2021-07-29T15:30:40Z</time>
      </trkpt>
      <trkpt lat="40.770256" lon="-3.971732">
        <ele>2158.765</ele>
        <time>2021-07-29T15:30:42Z</time>
      </trkpt>
      <trkpt lat="40.770240" lon="-3.971710">
        <ele>2159.164</ele>
        <time>2021-07-29T15:30:44Z</time>
      </trkpt>
      <trkpt lat="40.770224" lon="-3.971683">
        <ele>2159.544</ele>
        <time>2021-07-29T15:30:46Z</time>
      </trkpt>
      <trkpt lat="40.770218" lon="-3.971657">
        <ele>2159.705</ele>
        <time>2021-07-29T15:30:49Z</time>
      </trkpt>
      <trkpt lat="40.770202" lon="-3.971630">
        <ele>2160.015</ele>
        <time>2021-07-29T15:30:51Z</time>
      </trkpt>
      <trkpt lat="40.770189" lon="-3.971608">
        <ele>2160.308</ele>
        <time>2021-07-29T15:30:54Z</time>
      </trkpt>
      <trkpt lat="40.770176" lon="-3.971587">
        <ele>2160.721</ele>
        <time>2021-07-29T15:30:56Z</time>
      </trkpt>
      <trkpt lat="40.770173" lon="-3.971555">
        <ele>2160.773</ele>
        <time>2021-07-29T15:30:59Z</time>
      </trkpt>
      <trkpt lat="40.770170" lon="-3.971520">
        <ele>2160.750</ele>
        <time>2021-07-29T15:31:02Z</time>
      </trkpt>
      <trkpt lat="40.770157" lon="-3.971498">
        <ele>2161.147</ele>
        <time>2021-07-29T15:31:04Z</time>
      </trkpt>
      <trkpt lat="40.770141" lon="-3.971483">
        <ele>2161.688</ele>
        <time>2021-07-29T15:31:06Z</time>
      </trkpt>
      <trkpt lat="40.770131" lon="-3.971460">
        <ele>2161.928</ele>
        <time>2021-07-29T15:31:09Z</time>
      </trkpt>
      <trkpt lat="40.770122" lon="-3.971430">
        <ele>2162.231</ele>
        <time>2021-07-29T15:31:12Z</time>
      </trkpt>
      <trkpt lat="40.770115" lon="-3.971395">
        <ele>2162.560</ele>
        <time>2021-07-29T15:31:15Z</time>
      </trkpt>
      <trkpt lat="40.770112" lon="-3.971368">
        <ele>2162.482</ele>
        <time>2021-07-29T15:31:17Z</time>
      </trkpt>
      <trkpt lat="40.770096" lon="-3.971342">
        <ele>2162.943</ele>
        <time>2021-07-29T15:31:20Z</time>
      </trkpt>
      <trkpt lat="40.770083" lon="-3.971320">
        <ele>2163.217</ele>
        <time>2021-07-29T15:31:23Z</time>
      </trkpt>
      <trkpt lat="40.770077" lon="-3.971297">
        <ele>2163.308</ele>
        <time>2021-07-29T15:31:25Z</time>
      </trkpt>
      <trkpt lat="40.770061" lon="-3.971267">
        <ele>2163.725</ele>
        <time>2021-07-29T15:31:28Z</time>
      </trkpt>
      <trkpt lat="40.770042" lon="-3.971235">
        <ele>2164.277</ele>
        <time>2021-07-29T15:31:31Z</time>
      </trkpt>
      <trkpt lat="40.770026" lon="-3.971222">
        <ele>2164.824</ele>
        <time>2021-07-29T15:31:33Z</time>
      </trkpt>
      <trkpt lat="40.770010" lon="-3.971205">
        <ele>2165.371</ele>
        <time>2021-07-29T15:31:36Z</time>
      </trkpt>
      <trkpt lat="40.769994" lon="-3.971172">
        <ele>2165.612</ele>
        <time>2021-07-29T15:31:40Z</time>
      </trkpt>
      <trkpt lat="40.769978" lon="-3.971142">
        <ele>2165.762</ele>
        <time>2021-07-29T15:31:42Z</time>
      </trkpt>
      <trkpt lat="40.769965" lon="-3.971110">
        <ele>2165.845</ele>
        <time>2021-07-29T15:31:45Z</time>
      </trkpt>
      <trkpt lat="40.769955" lon="-3.971088">
        <ele>2165.824</ele>
        <time>2021-07-29T15:31:48Z</time>
      </trkpt>
      <trkpt lat="40.769942" lon="-3.971068">
        <ele>2166.071</ele>
        <time>2021-07-29T15:31:50Z</time>
      </trkpt>
      <trkpt lat="40.769926" lon="-3.971048">
        <ele>2166.341</ele>
        <time>2021-07-29T15:31:52Z</time>
      </trkpt>
      <trkpt lat="40.769917" lon="-3.971025">
        <ele>2166.515</ele>
        <time>2021-07-29T15:31:54Z</time>
      </trkpt>
      <trkpt lat="40.769901" lon="-3.971000">
        <ele>2166.808</ele>
        <time>2021-07-29T15:31:56Z</time>
      </trkpt>
      <trkpt lat="40.769885" lon="-3.970985">
        <ele>2167.134</ele>
        <time>2021-07-29T15:31:58Z</time>
      </trkpt>
      <trkpt lat="40.769862" lon="-3.970962">
        <ele>2167.726</ele>
        <time>2021-07-29T15:32:01Z</time>
      </trkpt>
      <trkpt lat="40.769843" lon="-3.970935">
        <ele>2168.213</ele>
        <time>2021-07-29T15:32:04Z</time>
      </trkpt>
      <trkpt lat="40.769834" lon="-3.970914">
        <ele>2168.450</ele>
        <time>2021-07-29T15:32:06Z</time>
      </trkpt>
      <trkpt lat="40.769821" lon="-3.970893">
        <ele>2168.881</ele>
        <time>2021-07-29T15:32:08Z</time>
      </trkpt>
      <trkpt lat="40.769811" lon="-3.970863">
        <ele>2169.121</ele>
        <time>2021-07-29T15:32:11Z</time>
      </trkpt>
      <trkpt lat="40.769798" lon="-3.970843">
        <ele>2169.534</ele>
        <time>2021-07-29T15:32:13Z</time>
      </trkpt>
      <trkpt lat="40.769779" lon="-3.970828">
        <ele>2170.173</ele>
        <time>2021-07-29T15:32:15Z</time>
      </trkpt>
      <trkpt lat="40.769766" lon="-3.970808">
        <ele>2170.452</ele>
        <time>2021-07-29T15:32:17Z</time>
      </trkpt>
      <trkpt lat="40.769754" lon="-3.970792">
        <ele>2170.753</ele>
        <time>2021-07-29T15:32:19Z</time>
      </trkpt>
      <trkpt lat="40.769738" lon="-3.970773">
        <ele>2171.108</ele>
        <time>2021-07-29T15:32:22Z</time>
      </trkpt>
      <trkpt lat="40.769715" lon="-3.970758">
        <ele>2171.608</ele>
        <time>2021-07-29T15:32:25Z</time>
      </trkpt>
      <trkpt lat="40.769696" lon="-3.970745">
        <ele>2172.032</ele>
        <time>2021-07-29T15:32:28Z</time>
      </trkpt>
      <trkpt lat="40.769683" lon="-3.970723">
        <ele>2172.234</ele>
        <time>2021-07-29T15:32:30Z</time>
      </trkpt>
      <trkpt lat="40.769664" lon="-3.970705">
        <ele>2172.591</ele>
        <time>2021-07-29T15:32:33Z</time>
      </trkpt>
      <trkpt lat="40.769648" lon="-3.970683">
        <ele>2172.828</ele>
        <time>2021-07-29T15:32:36Z</time>
      </trkpt>
      <trkpt lat="40.769638" lon="-3.970657">
        <ele>2172.989</ele>
        <time>2021-07-29T15:32:39Z</time>
      </trkpt>
      <trkpt lat="40.769626" lon="-3.970637">
        <ele>2173.099</ele>
        <time>2021-07-29T15:32:41Z</time>
      </trkpt>
      <trkpt lat="40.769616" lon="-3.970612">
        <ele>2173.192</ele>
        <time>2021-07-29T15:32:44Z</time>
      </trkpt>
      <trkpt lat="40.769603" lon="-3.970594">
        <ele>2173.381</ele>
        <time>2021-07-29T15:32:46Z</time>
      </trkpt>
      <trkpt lat="40.769587" lon="-3.970575">
        <ele>2173.551</ele>
        <time>2021-07-29T15:32:49Z</time>
      </trkpt>
      <trkpt lat="40.769568" lon="-3.970564">
        <ele>2173.901</ele>
        <time>2021-07-29T15:32:52Z</time>
      </trkpt>
      <trkpt lat="40.769549" lon="-3.970548">
        <ele>2174.311</ele>
        <time>2021-07-29T15:32:55Z</time>
      </trkpt>
      <trkpt lat="40.769526" lon="-3.970548">
        <ele>2174.908</ele>
        <time>2021-07-29T15:32:58Z</time>
      </trkpt>
      <trkpt lat="40.769504" lon="-3.970567">
        <ele>2175.632</ele>
        <time>2021-07-29T15:33:04Z</time>
      </trkpt>
      <trkpt lat="40.769485" lon="-3.970577">
        <ele>2176.114</ele>
        <time>2021-07-29T15:33:08Z</time>
      </trkpt>
      <trkpt lat="40.769462" lon="-3.970584">
        <ele>2176.811</ele>
        <time>2021-07-29T15:33:13Z</time>
      </trkpt>
      <trkpt lat="40.769440" lon="-3.970587">
        <ele>2177.328</ele>
        <time>2021-07-29T15:33:17Z</time>
      </trkpt>
      <trkpt lat="40.769424" lon="-3.970575">
        <ele>2177.469</ele>
        <time>2021-07-29T15:33:20Z</time>
      </trkpt>
      <trkpt lat="40.769405" lon="-3.970560">
        <ele>2177.649</ele>
        <time>2021-07-29T15:33:23Z</time>
      </trkpt>
      <trkpt lat="40.769382" lon="-3.970547">
        <ele>2177.912</ele>
        <time>2021-07-29T15:33:26Z</time>
      </trkpt>
      <trkpt lat="40.769363" lon="-3.970538">
        <ele>2178.171</ele>
        <time>2021-07-29T15:33:29Z</time>
      </trkpt>
      <trkpt lat="40.769347" lon="-3.970527">
        <ele>2178.478</ele>
        <time>2021-07-29T15:33:32Z</time>
      </trkpt>
      <trkpt lat="40.769328" lon="-3.970523">
        <ele>2178.733</ele>
        <time>2021-07-29T15:33:35Z</time>
      </trkpt>
      <trkpt lat="40.769309" lon="-3.970513">
        <ele>2179.026</ele>
        <time>2021-07-29T15:33:38Z</time>
      </trkpt>
      <trkpt lat="40.769299" lon="-3.970492">
        <ele>2179.208</ele>
        <time>2021-07-29T15:33:40Z</time>
      </trkpt>
      <trkpt lat="40.769283" lon="-3.970468">
        <ele>2179.634</ele>
        <time>2021-07-29T15:33:43Z</time>
      </trkpt>
      <trkpt lat="40.769267" lon="-3.970453">
        <ele>2180.036</ele>
        <time>2021-07-29T15:33:46Z</time>
      </trkpt>
      <trkpt lat="40.769245" lon="-3.970435">
        <ele>2180.623</ele>
        <time>2021-07-29T15:33:49Z</time>
      </trkpt>
      <trkpt lat="40.769222" lon="-3.970430">
        <ele>2181.180</ele>
        <time>2021-07-29T15:33:52Z</time>
      </trkpt>
      <trkpt lat="40.769200" lon="-3.970423">
        <ele>2181.771</ele>
        <time>2021-07-29T15:33:55Z</time>
      </trkpt>
      <trkpt lat="40.769181" lon="-3.970408">
        <ele>2182.251</ele>
        <time>2021-07-29T15:33:57Z</time>
      </trkpt>
      <trkpt lat="40.769171" lon="-3.970380">
        <ele>2182.814</ele>
        <time>2021-07-29T15:33:59Z</time>
      </trkpt>
      <trkpt lat="40.769162" lon="-3.970357">
        <ele>2183.233</ele>
        <time>2021-07-29T15:34:01Z</time>
      </trkpt>
      <trkpt lat="40.769149" lon="-3.970328">
        <ele>2183.797</ele>
        <time>2021-07-29T15:34:04Z</time>
      </trkpt>
      <trkpt lat="40.769146" lon="-3.970300">
        <ele>2184.223</ele>
        <time>2021-07-29T15:34:07Z</time>
      </trkpt>
      <trkpt lat="40.769136" lon="-3.970270">
        <ele>2184.625</ele>
        <time>2021-07-29T15:34:10Z</time>
      </trkpt>
      <trkpt lat="40.769120" lon="-3.970247">
        <ele>2184.708</ele>
        <time>2021-07-29T15:34:12Z</time>
      </trkpt>
      <trkpt lat="40.769104" lon="-3.970230">
        <ele>2185.096</ele>
        <time>2021-07-29T15:34:14Z</time>
      </trkpt>
      <trkpt lat="40.769085" lon="-3.970228">
        <ele>2185.448</ele>
        <time>2021-07-29T15:34:17Z</time>
      </trkpt>
      <trkpt lat="40.769066" lon="-3.970235">
        <ele>2185.995</ele>
        <time>2021-07-29T15:34:20Z</time>
      </trkpt>
      <trkpt lat="40.769050" lon="-3.970224">
        <ele>2186.292</ele>
        <time>2021-07-29T15:34:22Z</time>
      </trkpt>
      <trkpt lat="40.769027" lon="-3.970224">
        <ele>2186.743</ele>
        <time>2021-07-29T15:34:25Z</time>
      </trkpt>
      <trkpt lat="40.769005" lon="-3.970218">
        <ele>2187.293</ele>
        <time>2021-07-29T15:34:28Z</time>
      </trkpt>
      <trkpt lat="40.768992" lon="-3.970200">
        <ele>2187.576</ele>
        <time>2021-07-29T15:34:31Z</time>
      </trkpt>
      <trkpt lat="40.768970" lon="-3.970182">
        <ele>2187.935</ele>
        <time>2021-07-29T15:34:34Z</time>
      </trkpt>
      <trkpt lat="40.768950" lon="-3.970177">
        <ele>2188.454</ele>
        <time>2021-07-29T15:34:36Z</time>
      </trkpt>
      <trkpt lat="40.768928" lon="-3.970172">
        <ele>2189.056</ele>
        <time>2021-07-29T15:34:39Z</time>
      </trkpt>
      <trkpt lat="40.768909" lon="-3.970165">
        <ele>2189.511</ele>
        <time>2021-07-29T15:34:43Z</time>
      </trkpt>
      <trkpt lat="40.768906" lon="-3.970138">
        <ele>2189.508</ele>
        <time>2021-07-29T15:34:45Z</time>
      </trkpt>
      <trkpt lat="40.768890" lon="-3.970118">
        <ele>2190.032</ele>
        <time>2021-07-29T15:34:47Z</time>
      </trkpt>
      <trkpt lat="40.768874" lon="-3.970100">
        <ele>2189.994</ele>
        <time>2021-07-29T15:34:49Z</time>
      </trkpt>
      <trkpt lat="40.768848" lon="-3.970100">
        <ele>2189.771</ele>
        <time>2021-07-29T15:34:52Z</time>
      </trkpt>
      <trkpt lat="40.768829" lon="-3.970098">
        <ele>2189.658</ele>
        <time>2021-07-29T15:34:55Z</time>
      </trkpt>
      <trkpt lat="40.768806" lon="-3.970098">
        <ele>2189.569</ele>
        <time>2021-07-29T15:34:59Z</time>
      </trkpt>
      <trkpt lat="40.768787" lon="-3.970093">
        <ele>2189.439</ele>
        <time>2021-07-29T15:35:01Z</time>
      </trkpt>
      <trkpt lat="40.768768" lon="-3.970092">
        <ele>2189.382</ele>
        <time>2021-07-29T15:35:05Z</time>
      </trkpt>
      <trkpt lat="40.768749" lon="-3.970082">
        <ele>2189.361</ele>
        <time>2021-07-29T15:35:07Z</time>
      </trkpt>
      <trkpt lat="40.768730" lon="-3.970075">
        <ele>2189.316</ele>
        <time>2021-07-29T15:35:10Z</time>
      </trkpt>
      <trkpt lat="40.768714" lon="-3.970062">
        <ele>2189.576</ele>
        <time>2021-07-29T15:35:12Z</time>
      </trkpt>
      <trkpt lat="40.768691" lon="-3.970048">
        <ele>2189.713</ele>
        <time>2021-07-29T15:35:15Z</time>
      </trkpt>
      <trkpt lat="40.768669" lon="-3.970040">
        <ele>2189.908</ele>
        <time>2021-07-29T15:35:19Z</time>
      </trkpt>
      <trkpt lat="40.768653" lon="-3.970025">
        <ele>2190.228</ele>
        <time>2021-07-29T15:35:21Z</time>
      </trkpt>
      <trkpt lat="40.768634" lon="-3.970013">
        <ele>2190.690</ele>
        <time>2021-07-29T15:35:24Z</time>
      </trkpt>
      <trkpt lat="40.768624" lon="-3.969982">
        <ele>2191.147</ele>
        <time>2021-07-29T15:35:27Z</time>
      </trkpt>
      <trkpt lat="40.768614" lon="-3.969955">
        <ele>2191.584</ele>
        <time>2021-07-29T15:35:30Z</time>
      </trkpt>
      <trkpt lat="40.768608" lon="-3.969918">
        <ele>2191.995</ele>
        <time>2021-07-29T15:35:33Z</time>
      </trkpt>
      <trkpt lat="40.768586" lon="-3.969918">
        <ele>2191.835</ele>
        <time>2021-07-29T15:35:36Z</time>
      </trkpt>
      <trkpt lat="40.768566" lon="-3.969928">
        <ele>2191.618</ele>
        <time>2021-07-29T15:35:39Z</time>
      </trkpt>
      <trkpt lat="40.768547" lon="-3.969904">
        <ele>2192.047</ele>
        <time>2021-07-29T15:35:42Z</time>
      </trkpt>
      <trkpt lat="40.768534" lon="-3.969887">
        <ele>2192.321</ele>
        <time>2021-07-29T15:35:44Z</time>
      </trkpt>
      <trkpt lat="40.768522" lon="-3.969862">
        <ele>2192.841</ele>
        <time>2021-07-29T15:35:47Z</time>
      </trkpt>
      <trkpt lat="40.768509" lon="-3.969842">
        <ele>2193.305</ele>
        <time>2021-07-29T15:35:49Z</time>
      </trkpt>
      <trkpt lat="40.768496" lon="-3.969817">
        <ele>2193.908</ele>
        <time>2021-07-29T15:35:51Z</time>
      </trkpt>
      <trkpt lat="40.768483" lon="-3.969785">
        <ele>2194.879</ele>
        <time>2021-07-29T15:35:54Z</time>
      </trkpt>
      <trkpt lat="40.768467" lon="-3.969760">
        <ele>2195.621</ele>
        <time>2021-07-29T15:35:56Z</time>
      </trkpt>
      <trkpt lat="40.768448" lon="-3.969748">
        <ele>2196.218</ele>
        <time>2021-07-29T15:35:59Z</time>
      </trkpt>
      <trkpt lat="40.768432" lon="-3.969732">
        <ele>2196.915</ele>
        <time>2021-07-29T15:36:01Z</time>
      </trkpt>
      <trkpt lat="40.768416" lon="-3.969720">
        <ele>2197.536</ele>
        <time>2021-07-29T15:36:03Z</time>
      </trkpt>
      <trkpt lat="40.768397" lon="-3.969705">
        <ele>2197.956</ele>
        <time>2021-07-29T15:36:06Z</time>
      </trkpt>
      <trkpt lat="40.768381" lon="-3.969682">
        <ele>2198.339</ele>
        <time>2021-07-29T15:36:09Z</time>
      </trkpt>
      <trkpt lat="40.768368" lon="-3.969658">
        <ele>2198.638</ele>
        <time>2021-07-29T15:36:11Z</time>
      </trkpt>
      <trkpt lat="40.768362" lon="-3.969635">
        <ele>2198.894</ele>
        <time>2021-07-29T15:36:13Z</time>
      </trkpt>
      <trkpt lat="40.768346" lon="-3.969613">
        <ele>2199.157</ele>
        <time>2021-07-29T15:36:16Z</time>
      </trkpt>
      <trkpt lat="40.768330" lon="-3.969590">
        <ele>2199.422</ele>
        <time>2021-07-29T15:36:19Z</time>
      </trkpt>
      <trkpt lat="40.768317" lon="-3.969565">
        <ele>2199.408</ele>
        <time>2021-07-29T15:36:22Z</time>
      </trkpt>
      <trkpt lat="40.768307" lon="-3.969540">
        <ele>2199.586</ele>
        <time>2021-07-29T15:36:25Z</time>
      </trkpt>
      <trkpt lat="40.768291" lon="-3.969515">
        <ele>2199.588</ele>
        <time>2021-07-29T15:36:29Z</time>
      </trkpt>
      <trkpt lat="40.768275" lon="-3.969497">
        <ele>2199.685</ele>
        <time>2021-07-29T15:36:32Z</time>
      </trkpt>
      <trkpt lat="40.768272" lon="-3.969465">
        <ele>2199.892</ele>
        <time>2021-07-29T15:36:35Z</time>
      </trkpt>
      <trkpt lat="40.768266" lon="-3.969433">
        <ele>2200.083</ele>
        <time>2021-07-29T15:36:37Z</time>
      </trkpt>
      <trkpt lat="40.768256" lon="-3.969410">
        <ele>2200.113</ele>
        <time>2021-07-29T15:36:39Z</time>
      </trkpt>
      <trkpt lat="40.768253" lon="-3.969382">
        <ele>2200.256</ele>
        <time>2021-07-29T15:36:41Z</time>
      </trkpt>
      <trkpt lat="40.768243" lon="-3.969362">
        <ele>2200.365</ele>
        <time>2021-07-29T15:36:43Z</time>
      </trkpt>
      <trkpt lat="40.768224" lon="-3.969338">
        <ele>2200.584</ele>
        <time>2021-07-29T15:36:45Z</time>
      </trkpt>
      <trkpt lat="40.768211" lon="-3.969318">
        <ele>2200.607</ele>
        <time>2021-07-29T15:36:47Z</time>
      </trkpt>
      <trkpt lat="40.768195" lon="-3.969303">
        <ele>2200.817</ele>
        <time>2021-07-29T15:36:49Z</time>
      </trkpt>
      <trkpt lat="40.768176" lon="-3.969287">
        <ele>2201.008</ele>
        <time>2021-07-29T15:36:51Z</time>
      </trkpt>
      <trkpt lat="40.768166" lon="-3.969257">
        <ele>2201.275</ele>
        <time>2021-07-29T15:36:54Z</time>
      </trkpt>
      <trkpt lat="40.768154" lon="-3.969237">
        <ele>2201.447</ele>
        <time>2021-07-29T15:36:56Z</time>
      </trkpt>
      <trkpt lat="40.768134" lon="-3.969208">
        <ele>2201.824</ele>
        <time>2021-07-29T15:36:59Z</time>
      </trkpt>
      <trkpt lat="40.768115" lon="-3.969195">
        <ele>2202.181</ele>
        <time>2021-07-29T15:37:02Z</time>
      </trkpt>
      <trkpt lat="40.768106" lon="-3.969172">
        <ele>2202.472</ele>
        <time>2021-07-29T15:37:06Z</time>
      </trkpt>
      <trkpt lat="40.768096" lon="-3.969138">
        <ele>2202.832</ele>
        <time>2021-07-29T15:37:09Z</time>
      </trkpt>
      <trkpt lat="40.768083" lon="-3.969117">
        <ele>2203.235</ele>
        <time>2021-07-29T15:37:12Z</time>
      </trkpt>
      <trkpt lat="40.768058" lon="-3.969122">
        <ele>2203.414</ele>
        <time>2021-07-29T15:37:16Z</time>
      </trkpt>
      <trkpt lat="40.768035" lon="-3.969103">
        <ele>2203.912</ele>
        <time>2021-07-29T15:37:20Z</time>
      </trkpt>
      <trkpt lat="40.768016" lon="-3.969095">
        <ele>2204.232</ele>
        <time>2021-07-29T15:37:22Z</time>
      </trkpt>
      <trkpt lat="40.767990" lon="-3.969087">
        <ele>2204.605</ele>
        <time>2021-07-29T15:37:26Z</time>
      </trkpt>
      <trkpt lat="40.767974" lon="-3.969085">
        <ele>2204.808</ele>
        <time>2021-07-29T15:37:28Z</time>
      </trkpt>
      <trkpt lat="40.767936" lon="-3.969092">
        <ele>2205.268</ele>
        <time>2021-07-29T15:37:33Z</time>
      </trkpt>
      <trkpt lat="40.767914" lon="-3.969077">
        <ele>2205.760</ele>
        <time>2021-07-29T15:37:35Z</time>
      </trkpt>
      <trkpt lat="40.767888" lon="-3.969078">
        <ele>2206.017</ele>
        <time>2021-07-29T15:37:38Z</time>
      </trkpt>
      <trkpt lat="40.767866" lon="-3.969087">
        <ele>2206.184</ele>
        <time>2021-07-29T15:37:41Z</time>
      </trkpt>
      <trkpt lat="40.767846" lon="-3.969087">
        <ele>2206.375</ele>
        <time>2021-07-29T15:37:43Z</time>
      </trkpt>
      <trkpt lat="40.767827" lon="-3.969087">
        <ele>2206.645</ele>
        <time>2021-07-29T15:37:46Z</time>
      </trkpt>
      <trkpt lat="40.767802" lon="-3.969077">
        <ele>2207.048</ele>
        <time>2021-07-29T15:37:48Z</time>
      </trkpt>
      <trkpt lat="40.767779" lon="-3.969062">
        <ele>2207.587</ele>
        <time>2021-07-29T15:37:51Z</time>
      </trkpt>
      <trkpt lat="40.767757" lon="-3.969036">
        <ele>2207.932</ele>
        <time>2021-07-29T15:37:54Z</time>
      </trkpt>
      <trkpt lat="40.767738" lon="-3.969028">
        <ele>2208.192</ele>
        <time>2021-07-29T15:37:56Z</time>
      </trkpt>
      <trkpt lat="40.767709" lon="-3.969006">
        <ele>2208.511</ele>
        <time>2021-07-29T15:38:01Z</time>
      </trkpt>
      <trkpt lat="40.767686" lon="-3.968987">
        <ele>2208.908</ele>
        <time>2021-07-29T15:38:03Z</time>
      </trkpt>
      <trkpt lat="40.767661" lon="-3.968984">
        <ele>2209.020</ele>
        <time>2021-07-29T15:38:05Z</time>
      </trkpt>
      <trkpt lat="40.767635" lon="-3.968975">
        <ele>2209.312</ele>
        <time>2021-07-29T15:38:09Z</time>
      </trkpt>
      <trkpt lat="40.767616" lon="-3.968957">
        <ele>2209.889</ele>
        <time>2021-07-29T15:38:12Z</time>
      </trkpt>
      <trkpt lat="40.767594" lon="-3.968955">
        <ele>2209.916</ele>
        <time>2021-07-29T15:38:15Z</time>
      </trkpt>
      <trkpt lat="40.767581" lon="-3.968938">
        <ele>2210.347</ele>
        <time>2021-07-29T15:38:17Z</time>
      </trkpt>
      <trkpt lat="40.767562" lon="-3.968927">
        <ele>2210.717</ele>
        <time>2021-07-29T15:38:20Z</time>
      </trkpt>
      <trkpt lat="40.767552" lon="-3.968903">
        <ele>2211.350</ele>
        <time>2021-07-29T15:38:22Z</time>
      </trkpt>
      <trkpt lat="40.767530" lon="-3.968902">
        <ele>2211.579</ele>
        <time>2021-07-29T15:38:25Z</time>
      </trkpt>
      <trkpt lat="40.767507" lon="-3.968890">
        <ele>2211.963</ele>
        <time>2021-07-29T15:38:28Z</time>
      </trkpt>
      <trkpt lat="40.767488" lon="-3.968877">
        <ele>2212.344</ele>
        <time>2021-07-29T15:38:31Z</time>
      </trkpt>
      <trkpt lat="40.767475" lon="-3.968848">
        <ele>2213.018</ele>
        <time>2021-07-29T15:38:36Z</time>
      </trkpt>
      <trkpt lat="40.767456" lon="-3.968835">
        <ele>2213.408</ele>
        <time>2021-07-29T15:38:39Z</time>
      </trkpt>
      <trkpt lat="40.767437" lon="-3.968818">
        <ele>2213.883</ele>
        <time>2021-07-29T15:38:42Z</time>
      </trkpt>
      <trkpt lat="40.767414" lon="-3.968810">
        <ele>2214.145</ele>
        <time>2021-07-29T15:38:46Z</time>
      </trkpt>
      <trkpt lat="40.767402" lon="-3.968785">
        <ele>2214.782</ele>
        <time>2021-07-29T15:38:51Z</time>
      </trkpt>
      <trkpt lat="40.767379" lon="-3.968767">
        <ele>2215.369</ele>
        <time>2021-07-29T15:38:55Z</time>
      </trkpt>
      <trkpt lat="40.767360" lon="-3.968773">
        <ele>2215.220</ele>
        <time>2021-07-29T15:38:57Z</time>
      </trkpt>
      <trkpt lat="40.767341" lon="-3.968773">
        <ele>2215.330</ele>
        <time>2021-07-29T15:38:59Z</time>
      </trkpt>
      <trkpt lat="40.767318" lon="-3.968777">
        <ele>2215.343</ele>
        <time>2021-07-29T15:39:01Z</time>
      </trkpt>
      <trkpt lat="40.767293" lon="-3.968768">
        <ele>2215.752</ele>
        <time>2021-07-29T15:39:04Z</time>
      </trkpt>
      <trkpt lat="40.767274" lon="-3.968760">
        <ele>2216.045</ele>
        <time>2021-07-29T15:39:06Z</time>
      </trkpt>
      <trkpt lat="40.767251" lon="-3.968743">
        <ele>2216.547</ele>
        <time>2021-07-29T15:39:09Z</time>
      </trkpt>
      <trkpt lat="40.767232" lon="-3.968727">
        <ele>2217.011</ele>
        <time>2021-07-29T15:39:13Z</time>
      </trkpt>
      <trkpt lat="40.767216" lon="-3.968708">
        <ele>2217.508</ele>
        <time>2021-07-29T15:39:16Z</time>
      </trkpt>
      <trkpt lat="40.767197" lon="-3.968696">
        <ele>2217.791</ele>
        <time>2021-07-29T15:39:19Z</time>
      </trkpt>
      <trkpt lat="40.767181" lon="-3.968685">
        <ele>2217.813</ele>
        <time>2021-07-29T15:39:24Z</time>
      </trkpt>
      <trkpt lat="40.767155" lon="-3.968683">
        <ele>2217.680</ele>
        <time>2021-07-29T15:39:28Z</time>
      </trkpt>
      <trkpt lat="40.767136" lon="-3.968692">
        <ele>2217.287</ele>
        <time>2021-07-29T15:39:31Z</time>
      </trkpt>
      <trkpt lat="40.767117" lon="-3.968686">
        <ele>2217.338</ele>
        <time>2021-07-29T15:39:35Z</time>
      </trkpt>
      <trkpt lat="40.767139" lon="-3.968658">
        <ele>2218.298</ele>
        <time>2021-07-29T15:39:40Z</time>
      </trkpt>
      <trkpt lat="40.767133" lon="-3.968630">
        <ele>2218.931</ele>
        <time>2021-07-29T15:39:43Z</time>
      </trkpt>
      <trkpt lat="40.767110" lon="-3.968627">
        <ele>2218.870</ele>
        <time>2021-07-29T15:39:46Z</time>
      </trkpt>
      <trkpt lat="40.767094" lon="-3.968607">
        <ele>2219.146</ele>
        <time>2021-07-29T15:39:54Z</time>
      </trkpt>
      <trkpt lat="40.767101" lon="-3.968634">
        <ele>2218.588</ele>
        <time>2021-07-29T15:49:05Z</time>
      </trkpt>
      <trkpt lat="40.767120" lon="-3.968607">
        <ele>2219.316</ele>
        <time>2021-07-29T16:08:49Z</time>
      </trkpt>
      <trkpt lat="40.767126" lon="-3.968565">
        <ele>2219.408</ele>
        <time>2021-07-29T16:08:56Z</time>
      </trkpt>
      <trkpt lat="40.767110" lon="-3.968582">
        <ele>2219.371</ele>
        <time>2021-07-29T16:09:14Z</time>
      </trkpt>
      <trkpt lat="40.767126" lon="-3.968608">
        <ele>2219.393</ele>
        <time>2021-07-29T16:09:27Z</time>
      </trkpt>
      <trkpt lat="40.767146" lon="-3.968623">
        <ele>2219.180</ele>
        <time>2021-07-29T16:09:32Z</time>
      </trkpt>
      <trkpt lat="40.767162" lon="-3.968640">
        <ele>2218.867</ele>
        <time>2021-07-29T16:09:37Z</time>
      </trkpt>
      <trkpt lat="40.767174" lon="-3.968662">
        <ele>2218.338</ele>
        <time>2021-07-29T16:09:42Z</time>
      </trkpt>
      <trkpt lat="40.767190" lon="-3.968686">
        <ele>2217.848</ele>
        <time>2021-07-29T16:09:47Z</time>
      </trkpt>
      <trkpt lat="40.767213" lon="-3.968692">
        <ele>2217.991</ele>
        <time>2021-07-29T16:09:51Z</time>
      </trkpt>
      <trkpt lat="40.767232" lon="-3.968703">
        <ele>2217.620</ele>
        <time>2021-07-29T16:09:55Z</time>
      </trkpt>
      <trkpt lat="40.767251" lon="-3.968712">
        <ele>2217.349</ele>
        <time>2021-07-29T16:09:57Z</time>
      </trkpt>
      <trkpt lat="40.767274" lon="-3.968727">
        <ele>2216.802</ele>
        <time>2021-07-29T16:10:00Z</time>
      </trkpt>
      <trkpt lat="40.767290" lon="-3.968742">
        <ele>2216.322</ele>
        <time>2021-07-29T16:10:02Z</time>
      </trkpt>
      <trkpt lat="40.767309" lon="-3.968760">
        <ele>2215.808</ele>
        <time>2021-07-29T16:10:04Z</time>
      </trkpt>
      <trkpt lat="40.767334" lon="-3.968768">
        <ele>2215.591</ele>
        <time>2021-07-29T16:10:07Z</time>
      </trkpt>
      <trkpt lat="40.767357" lon="-3.968768">
        <ele>2215.323</ele>
        <time>2021-07-29T16:10:10Z</time>
      </trkpt>
      <trkpt lat="40.767379" lon="-3.968763">
        <ele>2215.410</ele>
        <time>2021-07-29T16:10:13Z</time>
      </trkpt>
      <trkpt lat="40.767398" lon="-3.968757">
        <ele>2215.437</ele>
        <time>2021-07-29T16:10:16Z</time>
      </trkpt>
      <trkpt lat="40.767402" lon="-3.968783">
        <ele>2214.898</ele>
        <time>2021-07-29T16:10:20Z</time>
      </trkpt>
      <trkpt lat="40.767414" lon="-3.968805">
        <ele>2214.258</ele>
        <time>2021-07-29T16:10:23Z</time>
      </trkpt>
      <trkpt lat="40.767424" lon="-3.968832">
        <ele>2213.611</ele>
        <time>2021-07-29T16:10:28Z</time>
      </trkpt>
      <trkpt lat="40.767437" lon="-3.968848">
        <ele>2213.140</ele>
        <time>2021-07-29T16:10:31Z</time>
      </trkpt>
      <trkpt lat="40.767453" lon="-3.968870">
        <ele>2212.626</ele>
        <time>2021-07-29T16:10:33Z</time>
      </trkpt>
      <trkpt lat="40.767469" lon="-3.968888">
        <ele>2212.147</ele>
        <time>2021-07-29T16:10:35Z</time>
      </trkpt>
      <trkpt lat="40.767494" lon="-3.968910">
        <ele>2211.511</ele>
        <time>2021-07-29T16:10:38Z</time>
      </trkpt>
      <trkpt lat="40.767517" lon="-3.968913">
        <ele>2211.308</ele>
        <time>2021-07-29T16:10:40Z</time>
      </trkpt>
      <trkpt lat="40.767536" lon="-3.968915">
        <ele>2211.139</ele>
        <time>2021-07-29T16:10:43Z</time>
      </trkpt>
      <trkpt lat="40.767555" lon="-3.968902">
        <ele>2211.361</ele>
        <time>2021-07-29T16:10:46Z</time>
      </trkpt>
      <trkpt lat="40.767581" lon="-3.968903">
        <ele>2211.148</ele>
        <time>2021-07-29T16:10:49Z</time>
      </trkpt>
      <trkpt lat="40.767600" lon="-3.968900">
        <ele>2211.085</ele>
        <time>2021-07-29T16:10:51Z</time>
      </trkpt>
      <trkpt lat="40.767616" lon="-3.968888">
        <ele>2211.296</ele>
        <time>2021-07-29T16:10:53Z</time>
      </trkpt>
      <trkpt lat="40.767638" lon="-3.968877">
        <ele>2211.256</ele>
        <time>2021-07-29T16:10:56Z</time>
      </trkpt>
      <trkpt lat="40.767661" lon="-3.968866">
        <ele>2211.179</ele>
        <time>2021-07-29T16:10:59Z</time>
      </trkpt>
      <trkpt lat="40.767677" lon="-3.968855">
        <ele>2211.118</ele>
        <time>2021-07-29T16:11:01Z</time>
      </trkpt>
      <trkpt lat="40.767699" lon="-3.968848">
        <ele>2211.091</ele>
        <time>2021-07-29T16:11:04Z</time>
      </trkpt>
      <trkpt lat="40.767718" lon="-3.968850">
        <ele>2210.881</ele>
        <time>2021-07-29T16:11:06Z</time>
      </trkpt>
      <trkpt lat="40.767738" lon="-3.968860">
        <ele>2210.619</ele>
        <time>2021-07-29T16:11:08Z</time>
      </trkpt>
      <trkpt lat="40.767757" lon="-3.968877">
        <ele>2210.208</ele>
        <time>2021-07-29T16:11:10Z</time>
      </trkpt>
      <trkpt lat="40.767776" lon="-3.968893">
        <ele>2210.046</ele>
        <time>2021-07-29T16:11:12Z</time>
      </trkpt>
      <trkpt lat="40.767795" lon="-3.968907">
        <ele>2209.538</ele>
        <time>2021-07-29T16:11:14Z</time>
      </trkpt>
      <trkpt lat="40.767811" lon="-3.968923">
        <ele>2209.075</ele>
        <time>2021-07-29T16:11:16Z</time>
      </trkpt>
      <trkpt lat="40.767830" lon="-3.968937">
        <ele>2208.672</ele>
        <time>2021-07-29T16:11:18Z</time>
      </trkpt>
      <trkpt lat="40.767846" lon="-3.968950">
        <ele>2208.223</ele>
        <time>2021-07-29T16:11:20Z</time>
      </trkpt>
      <trkpt lat="40.767859" lon="-3.968968">
        <ele>2207.853</ele>
        <time>2021-07-29T16:11:22Z</time>
      </trkpt>
      <trkpt lat="40.767875" lon="-3.968984">
        <ele>2207.316</ele>
        <time>2021-07-29T16:11:24Z</time>
      </trkpt>
      <trkpt lat="40.767891" lon="-3.969000">
        <ele>2206.925</ele>
        <time>2021-07-29T16:11:26Z</time>
      </trkpt>
      <trkpt lat="40.767907" lon="-3.969025">
        <ele>2206.469</ele>
        <time>2021-07-29T16:11:28Z</time>
      </trkpt>
      <trkpt lat="40.767926" lon="-3.969040">
        <ele>2206.004</ele>
        <time>2021-07-29T16:11:30Z</time>
      </trkpt>
      <trkpt lat="40.767946" lon="-3.969055">
        <ele>2205.524</ele>
        <time>2021-07-29T16:11:32Z</time>
      </trkpt>
      <trkpt lat="40.767965" lon="-3.969083">
        <ele>2205.008</ele>
        <time>2021-07-29T16:11:35Z</time>
      </trkpt>
      <trkpt lat="40.767984" lon="-3.969098">
        <ele>2204.623</ele>
        <time>2021-07-29T16:11:37Z</time>
      </trkpt>
      <trkpt lat="40.768000" lon="-3.969110">
        <ele>2204.335</ele>
        <time>2021-07-29T16:11:39Z</time>
      </trkpt>
      <trkpt lat="40.768026" lon="-3.969108">
        <ele>2204.082</ele>
        <time>2021-07-29T16:11:42Z</time>
      </trkpt>
      <trkpt lat="40.768045" lon="-3.969100">
        <ele>2203.849</ele>
        <time>2021-07-29T16:11:45Z</time>
      </trkpt>
      <trkpt lat="40.768067" lon="-3.969100">
        <ele>2203.680</ele>
        <time>2021-07-29T16:11:48Z</time>
      </trkpt>
      <trkpt lat="40.768086" lon="-3.969108">
        <ele>2203.250</ele>
        <time>2021-07-29T16:11:50Z</time>
      </trkpt>
      <trkpt lat="40.768099" lon="-3.969127">
        <ele>2202.953</ele>
        <time>2021-07-29T16:11:54Z</time>
      </trkpt>
      <trkpt lat="40.768112" lon="-3.969150">
        <ele>2202.592</ele>
        <time>2021-07-29T16:11:58Z</time>
      </trkpt>
      <trkpt lat="40.768128" lon="-3.969170">
        <ele>2202.256</ele>
        <time>2021-07-29T16:12:00Z</time>
      </trkpt>
      <trkpt lat="40.768144" lon="-3.969188">
        <ele>2201.959</ele>
        <time>2021-07-29T16:12:02Z</time>
      </trkpt>
      <trkpt lat="40.768163" lon="-3.969218">
        <ele>2201.514</ele>
        <time>2021-07-29T16:12:05Z</time>
      </trkpt>
      <trkpt lat="40.768170" lon="-3.969243">
        <ele>2201.308</ele>
        <time>2021-07-29T16:12:07Z</time>
      </trkpt>
      <trkpt lat="40.768173" lon="-3.969273">
        <ele>2201.172</ele>
        <time>2021-07-29T16:12:10Z</time>
      </trkpt>
      <trkpt lat="40.768176" lon="-3.969297">
        <ele>2200.944</ele>
        <time>2021-07-29T16:12:12Z</time>
      </trkpt>
      <trkpt lat="40.768186" lon="-3.969327">
        <ele>2200.711</ele>
        <time>2021-07-29T16:12:15Z</time>
      </trkpt>
      <trkpt lat="40.768198" lon="-3.969355">
        <ele>2200.518</ele>
        <time>2021-07-29T16:12:18Z</time>
      </trkpt>
      <trkpt lat="40.768214" lon="-3.969370">
        <ele>2200.399</ele>
        <time>2021-07-29T16:12:20Z</time>
      </trkpt>
      <trkpt lat="40.768234" lon="-3.969398">
        <ele>2200.249</ele>
        <time>2021-07-29T16:12:23Z</time>
      </trkpt>
      <trkpt lat="40.768243" lon="-3.969425">
        <ele>2200.182</ele>
        <time>2021-07-29T16:12:25Z</time>
      </trkpt>
      <trkpt lat="40.768243" lon="-3.969452">
        <ele>2199.911</ele>
        <time>2021-07-29T16:12:27Z</time>
      </trkpt>
      <trkpt lat="40.768243" lon="-3.969478">
        <ele>2199.669</ele>
        <time>2021-07-29T16:12:29Z</time>
      </trkpt>
      <trkpt lat="40.768262" lon="-3.969493">
        <ele>2199.604</ele>
        <time>2021-07-29T16:12:31Z</time>
      </trkpt>
      <trkpt lat="40.768282" lon="-3.969504">
        <ele>2199.524</ele>
        <time>2021-07-29T16:12:34Z</time>
      </trkpt>
      <trkpt lat="40.768304" lon="-3.969512">
        <ele>2199.608</ele>
        <time>2021-07-29T16:12:37Z</time>
      </trkpt>
      <trkpt lat="40.768326" lon="-3.969508">
        <ele>2199.793</ele>
        <time>2021-07-29T16:12:40Z</time>
      </trkpt>
      <trkpt lat="40.768346" lon="-3.969527">
        <ele>2199.475</ele>
        <time>2021-07-29T16:12:43Z</time>
      </trkpt>
      <trkpt lat="40.768362" lon="-3.969555">
        <ele>2199.062</ele>
        <time>2021-07-29T16:12:46Z</time>
      </trkpt>
      <trkpt lat="40.768365" lon="-3.969582">
        <ele>2198.999</ele>
        <time>2021-07-29T16:12:49Z</time>
      </trkpt>
      <trkpt lat="40.768368" lon="-3.969615">
        <ele>2198.790</ele>
        <time>2021-07-29T16:12:52Z</time>
      </trkpt>
      <trkpt lat="40.768374" lon="-3.969647">
        <ele>2198.550</ele>
        <time>2021-07-29T16:12:55Z</time>
      </trkpt>
      <trkpt lat="40.768384" lon="-3.969670">
        <ele>2198.253</ele>
        <time>2021-07-29T16:12:57Z</time>
      </trkpt>
      <trkpt lat="40.768397" lon="-3.969688">
        <ele>2197.972</ele>
        <time>2021-07-29T16:12:59Z</time>
      </trkpt>
      <trkpt lat="40.768413" lon="-3.969713">
        <ele>2197.663</ele>
        <time>2021-07-29T16:13:01Z</time>
      </trkpt>
      <trkpt lat="40.768426" lon="-3.969738">
        <ele>2196.944</ele>
        <time>2021-07-29T16:13:03Z</time>
      </trkpt>
      <trkpt lat="40.768442" lon="-3.969770">
        <ele>2195.718</ele>
        <time>2021-07-29T16:13:06Z</time>
      </trkpt>
      <trkpt lat="40.768454" lon="-3.969792">
        <ele>2194.908</ele>
        <time>2021-07-29T16:13:08Z</time>
      </trkpt>
      <trkpt lat="40.768467" lon="-3.969815">
        <ele>2194.273</ele>
        <time>2021-07-29T16:13:10Z</time>
      </trkpt>
      <trkpt lat="40.768477" lon="-3.969837">
        <ele>2193.655</ele>
        <time>2021-07-29T16:13:12Z</time>
      </trkpt>
      <trkpt lat="40.768496" lon="-3.969857">
        <ele>2193.062</ele>
        <time>2021-07-29T16:13:15Z</time>
      </trkpt>
      <trkpt lat="40.768512" lon="-3.969868">
        <ele>2192.729</ele>
        <time>2021-07-29T16:13:17Z</time>
      </trkpt>
      <trkpt lat="40.768534" lon="-3.969872">
        <ele>2192.640</ele>
        <time>2021-07-29T16:13:20Z</time>
      </trkpt>
      <trkpt lat="40.768560" lon="-3.969877">
        <ele>2192.460</ele>
        <time>2021-07-29T16:13:23Z</time>
      </trkpt>
      <trkpt lat="40.768586" lon="-3.969882">
        <ele>2192.383</ele>
        <time>2021-07-29T16:13:26Z</time>
      </trkpt>
      <trkpt lat="40.768608" lon="-3.969888">
        <ele>2192.222</ele>
        <time>2021-07-29T16:13:28Z</time>
      </trkpt>
      <trkpt lat="40.768627" lon="-3.969898">
        <ele>2191.973</ele>
        <time>2021-07-29T16:13:30Z</time>
      </trkpt>
      <trkpt lat="40.768646" lon="-3.969916">
        <ele>2191.685</ele>
        <time>2021-07-29T16:13:32Z</time>
      </trkpt>
      <trkpt lat="40.768666" lon="-3.969935">
        <ele>2191.313</ele>
        <time>2021-07-29T16:13:34Z</time>
      </trkpt>
      <trkpt lat="40.768688" lon="-3.969965">
        <ele>2190.908</ele>
        <time>2021-07-29T16:13:37Z</time>
      </trkpt>
      <trkpt lat="40.768694" lon="-3.969993">
        <ele>2190.784</ele>
        <time>2021-07-29T16:13:39Z</time>
      </trkpt>
      <trkpt lat="40.768704" lon="-3.970025">
        <ele>2190.226</ele>
        <time>2021-07-29T16:13:42Z</time>
      </trkpt>
      <trkpt lat="40.768714" lon="-3.970052">
        <ele>2189.723</ele>
        <time>2021-07-29T16:13:44Z</time>
      </trkpt>
      <trkpt lat="40.768730" lon="-3.970073">
        <ele>2189.450</ele>
        <time>2021-07-29T16:13:46Z</time>
      </trkpt>
      <trkpt lat="40.768749" lon="-3.970078">
        <ele>2189.491</ele>
        <time>2021-07-29T16:13:48Z</time>
      </trkpt>
      <trkpt lat="40.768768" lon="-3.970085">
        <ele>2189.451</ele>
        <time>2021-07-29T16:13:50Z</time>
      </trkpt>
      <trkpt lat="40.768784" lon="-3.970098">
        <ele>2189.374</ele>
        <time>2021-07-29T16:13:52Z</time>
      </trkpt>
      <trkpt lat="40.768806" lon="-3.970107">
        <ele>2189.423</ele>
        <time>2021-07-29T16:13:55Z</time>
      </trkpt>
      <trkpt lat="40.768829" lon="-3.970115">
        <ele>2189.581</ele>
        <time>2021-07-29T16:13:59Z</time>
      </trkpt>
      <trkpt lat="40.768858" lon="-3.970123">
        <ele>2189.761</ele>
        <time>2021-07-29T16:14:02Z</time>
      </trkpt>
      <trkpt lat="40.768886" lon="-3.970135">
        <ele>2190.017</ele>
        <time>2021-07-29T16:14:05Z</time>
      </trkpt>
      <trkpt lat="40.768909" lon="-3.970145">
        <ele>2189.508</ele>
        <time>2021-07-29T16:14:08Z</time>
      </trkpt>
      <trkpt lat="40.768925" lon="-3.970167">
        <ele>2189.125</ele>
        <time>2021-07-29T16:14:11Z</time>
      </trkpt>
      <trkpt lat="40.768941" lon="-3.970188">
        <ele>2188.767</ele>
        <time>2021-07-29T16:14:14Z</time>
      </trkpt>
      <trkpt lat="40.768950" lon="-3.970210">
        <ele>2188.564</ele>
        <time>2021-07-29T16:14:17Z</time>
      </trkpt>
      <trkpt lat="40.768966" lon="-3.970222">
        <ele>2188.241</ele>
        <time>2021-07-29T16:14:19Z</time>
      </trkpt>
      <trkpt lat="40.768986" lon="-3.970232">
        <ele>2187.722</ele>
        <time>2021-07-29T16:14:22Z</time>
      </trkpt>
      <trkpt lat="40.769008" lon="-3.970235">
        <ele>2187.262</ele>
        <time>2021-07-29T16:14:26Z</time>
      </trkpt>
      <trkpt lat="40.769027" lon="-3.970244">
        <ele>2186.865</ele>
        <time>2021-07-29T16:14:28Z</time>
      </trkpt>
      <trkpt lat="40.769046" lon="-3.970252">
        <ele>2186.424</ele>
        <time>2021-07-29T16:14:31Z</time>
      </trkpt>
      <trkpt lat="40.769062" lon="-3.970265">
        <ele>2186.218</ele>
        <time>2021-07-29T16:14:36Z</time>
      </trkpt>
      <trkpt lat="40.769082" lon="-3.970282">
        <ele>2185.798</ele>
        <time>2021-07-29T16:14:39Z</time>
      </trkpt>
      <trkpt lat="40.769101" lon="-3.970307">
        <ele>2184.917</ele>
        <time>2021-07-29T16:14:42Z</time>
      </trkpt>
      <trkpt lat="40.769110" lon="-3.970330">
        <ele>2184.408</ele>
        <time>2021-07-29T16:14:46Z</time>
      </trkpt>
      <trkpt lat="40.769123" lon="-3.970350">
        <ele>2183.828</ele>
        <time>2021-07-29T16:14:50Z</time>
      </trkpt>
      <trkpt lat="40.769136" lon="-3.970368">
        <ele>2183.460</ele>
        <time>2021-07-29T16:14:52Z</time>
      </trkpt>
      <trkpt lat="40.769149" lon="-3.970387">
        <ele>2183.077</ele>
        <time>2021-07-29T16:14:55Z</time>
      </trkpt>
      <trkpt lat="40.769171" lon="-3.970400">
        <ele>2182.694</ele>
        <time>2021-07-29T16:14:58Z</time>
      </trkpt>
      <trkpt lat="40.769187" lon="-3.970420">
        <ele>2182.015</ele>
        <time>2021-07-29T16:15:01Z</time>
      </trkpt>
      <trkpt lat="40.769210" lon="-3.970428">
        <ele>2181.475</ele>
        <time>2021-07-29T16:15:04Z</time>
      </trkpt>
      <trkpt lat="40.769229" lon="-3.970440">
        <ele>2180.948</ele>
        <time>2021-07-29T16:15:07Z</time>
      </trkpt>
      <trkpt lat="40.769242" lon="-3.970457">
        <ele>2180.597</ele>
        <time>2021-07-29T16:15:10Z</time>
      </trkpt>
      <trkpt lat="40.769261" lon="-3.970468">
        <ele>2180.194</ele>
        <time>2021-07-29T16:15:13Z</time>
      </trkpt>
      <trkpt lat="40.769283" lon="-3.970483">
        <ele>2179.657</ele>
        <time>2021-07-29T16:15:17Z</time>
      </trkpt>
      <trkpt lat="40.769299" lon="-3.970495">
        <ele>2179.222</ele>
        <time>2021-07-29T16:15:20Z</time>
      </trkpt>
      <trkpt lat="40.769322" lon="-3.970507">
        <ele>2178.808</ele>
        <time>2021-07-29T16:15:25Z</time>
      </trkpt>
      <trkpt lat="40.769341" lon="-3.970518">
        <ele>2178.576</ele>
        <time>2021-07-29T16:15:29Z</time>
      </trkpt>
      <trkpt lat="40.769360" lon="-3.970523">
        <ele>2178.278</ele>
        <time>2021-07-29T16:15:32Z</time>
      </trkpt>
      <trkpt lat="40.769379" lon="-3.970535">
        <ele>2177.995</ele>
        <time>2021-07-29T16:15:35Z</time>
      </trkpt>
      <trkpt lat="40.769389" lon="-3.970560">
        <ele>2177.852</ele>
        <time>2021-07-29T16:15:38Z</time>
      </trkpt>
      <trkpt lat="40.769398" lon="-3.970584">
        <ele>2177.873</ele>
        <time>2021-07-29T16:15:40Z</time>
      </trkpt>
      <trkpt lat="40.769418" lon="-3.970602">
        <ele>2177.623</ele>
        <time>2021-07-29T16:15:43Z</time>
      </trkpt>
      <trkpt lat="40.769440" lon="-3.970615">
        <ele>2177.546</ele>
        <time>2021-07-29T16:15:46Z</time>
      </trkpt>
      <trkpt lat="40.769456" lon="-3.970626">
        <ele>2177.235</ele>
        <time>2021-07-29T16:15:49Z</time>
      </trkpt>
      <trkpt lat="40.769475" lon="-3.970628">
        <ele>2176.887</ele>
        <time>2021-07-29T16:15:52Z</time>
      </trkpt>
      <trkpt lat="40.769494" lon="-3.970620">
        <ele>2176.242</ele>
        <time>2021-07-29T16:15:55Z</time>
      </trkpt>
      <trkpt lat="40.769514" lon="-3.970597">
        <ele>2175.526</ele>
        <time>2021-07-29T16:16:00Z</time>
      </trkpt>
      <trkpt lat="40.769526" lon="-3.970574">
        <ele>2175.108</ele>
        <time>2021-07-29T16:16:03Z</time>
      </trkpt>
      <trkpt lat="40.769546" lon="-3.970575">
        <ele>2174.655</ele>
        <time>2021-07-29T16:16:08Z</time>
      </trkpt>
      <trkpt lat="40.769562" lon="-3.970598">
        <ele>2174.357</ele>
        <time>2021-07-29T16:16:11Z</time>
      </trkpt>
      <trkpt lat="40.769565" lon="-3.970625">
        <ele>2174.514</ele>
        <time>2021-07-29T16:16:13Z</time>
      </trkpt>
      <trkpt lat="40.769584" lon="-3.970643">
        <ele>2174.191</ele>
        <time>2021-07-29T16:16:16Z</time>
      </trkpt>
      <trkpt lat="40.769606" lon="-3.970653">
        <ele>2173.682</ele>
        <time>2021-07-29T16:16:19Z</time>
      </trkpt>
      <trkpt lat="40.769626" lon="-3.970660">
        <ele>2173.242</ele>
        <time>2021-07-29T16:16:22Z</time>
      </trkpt>
      <trkpt lat="40.769642" lon="-3.970672">
        <ele>2172.965</ele>
        <time>2021-07-29T16:16:24Z</time>
      </trkpt>
      <trkpt lat="40.769661" lon="-3.970680">
        <ele>2172.454</ele>
        <time>2021-07-29T16:16:27Z</time>
      </trkpt>
      <trkpt lat="40.769683" lon="-3.970687">
        <ele>2171.996</ele>
        <time>2021-07-29T16:16:30Z</time>
      </trkpt>
      <trkpt lat="40.769702" lon="-3.970700">
        <ele>2171.631</ele>
        <time>2021-07-29T16:16:32Z</time>
      </trkpt>
      <trkpt lat="40.769722" lon="-3.970702">
        <ele>2171.124</ele>
        <time>2021-07-29T16:16:34Z</time>
      </trkpt>
      <trkpt lat="40.769741" lon="-3.970717">
        <ele>2170.608</ele>
        <time>2021-07-29T16:16:37Z</time>
      </trkpt>
      <trkpt lat="40.769747" lon="-3.970756">
        <ele>2170.626</ele>
        <time>2021-07-29T16:16:40Z</time>
      </trkpt>
      <trkpt lat="40.769760" lon="-3.970792">
        <ele>2170.548</ele>
        <time>2021-07-29T16:16:42Z</time>
      </trkpt>
      <trkpt lat="40.769773" lon="-3.970818">
        <ele>2170.235</ele>
        <time>2021-07-29T16:16:44Z</time>
      </trkpt>
      <trkpt lat="40.769795" lon="-3.970842">
        <ele>2169.612</ele>
        <time>2021-07-29T16:16:47Z</time>
      </trkpt>
      <trkpt lat="40.769811" lon="-3.970870">
        <ele>2169.123</ele>
        <time>2021-07-29T16:16:50Z</time>
      </trkpt>
      <trkpt lat="40.769821" lon="-3.970897">
        <ele>2168.853</ele>
        <time>2021-07-29T16:16:52Z</time>
      </trkpt>
      <trkpt lat="40.769837" lon="-3.970925">
        <ele>2168.466</ele>
        <time>2021-07-29T16:16:55Z</time>
      </trkpt>
      <trkpt lat="40.769853" lon="-3.970937">
        <ele>2167.945</ele>
        <time>2021-07-29T16:16:57Z</time>
      </trkpt>
      <trkpt lat="40.769872" lon="-3.970960">
        <ele>2167.452</ele>
        <time>2021-07-29T16:17:00Z</time>
      </trkpt>
      <trkpt lat="40.769885" lon="-3.970978">
        <ele>2167.153</ele>
        <time>2021-07-29T16:17:02Z</time>
      </trkpt>
      <trkpt lat="40.769901" lon="-3.970990">
        <ele>2166.708</ele>
        <time>2021-07-29T16:17:04Z</time>
      </trkpt>
      <trkpt lat="40.769914" lon="-3.971013">
        <ele>2166.508</ele>
        <time>2021-07-29T16:17:06Z</time>
      </trkpt>
      <trkpt lat="40.769923" lon="-3.971038">
        <ele>2166.492</ele>
        <time>2021-07-29T16:17:08Z</time>
      </trkpt>
      <trkpt lat="40.769942" lon="-3.971063">
        <ele>2166.014</ele>
        <time>2021-07-29T16:17:10Z</time>
      </trkpt>
      <trkpt lat="40.769958" lon="-3.971088">
        <ele>2165.821</ele>
        <time>2021-07-29T16:17:13Z</time>
      </trkpt>
      <trkpt lat="40.769962" lon="-3.971118">
        <ele>2165.938</ele>
        <time>2021-07-29T16:17:15Z</time>
      </trkpt>
      <trkpt lat="40.769971" lon="-3.971148">
        <ele>2165.829</ele>
        <time>2021-07-29T16:17:17Z</time>
      </trkpt>
      <trkpt lat="40.769978" lon="-3.971172">
        <ele>2165.959</ele>
        <time>2021-07-29T16:17:19Z</time>
      </trkpt>
      <trkpt lat="40.769990" lon="-3.971203">
        <ele>2165.882</ele>
        <time>2021-07-29T16:17:22Z</time>
      </trkpt>
      <trkpt lat="40.770000" lon="-3.971233">
        <ele>2165.991</ele>
        <time>2021-07-29T16:17:25Z</time>
      </trkpt>
      <trkpt lat="40.770013" lon="-3.971253">
        <ele>2165.545</ele>
        <time>2021-07-29T16:17:27Z</time>
      </trkpt>
      <trkpt lat="40.770022" lon="-3.971275">
        <ele>2165.347</ele>
        <time>2021-07-29T16:17:29Z</time>
      </trkpt>
      <trkpt lat="40.770038" lon="-3.971304">
        <ele>2164.911</ele>
        <time>2021-07-29T16:17:31Z</time>
      </trkpt>
      <trkpt lat="40.770035" lon="-3.971330">
        <ele>2165.208</ele>
        <time>2021-07-29T16:17:33Z</time>
      </trkpt>
      <trkpt lat="40.770045" lon="-3.971362">
        <ele>2165.011</ele>
        <time>2021-07-29T16:17:36Z</time>
      </trkpt>
      <trkpt lat="40.770054" lon="-3.971387">
        <ele>2164.893</ele>
        <time>2021-07-29T16:17:38Z</time>
      </trkpt>
      <trkpt lat="40.770074" lon="-3.971420">
        <ele>2164.070</ele>
        <time>2021-07-29T16:17:41Z</time>
      </trkpt>
      <trkpt lat="40.770083" lon="-3.971445">
        <ele>2163.777</ele>
        <time>2021-07-29T16:17:43Z</time>
      </trkpt>
      <trkpt lat="40.770096" lon="-3.971472">
        <ele>2163.298</ele>
        <time>2021-07-29T16:17:45Z</time>
      </trkpt>
      <trkpt lat="40.770112" lon="-3.971490">
        <ele>2162.688</ele>
        <time>2021-07-29T16:17:47Z</time>
      </trkpt>
      <trkpt lat="40.770125" lon="-3.971515">
        <ele>2162.281</ele>
        <time>2021-07-29T16:17:49Z</time>
      </trkpt>
      <trkpt lat="40.770138" lon="-3.971543">
        <ele>2161.880</ele>
        <time>2021-07-29T16:17:51Z</time>
      </trkpt>
      <trkpt lat="40.770144" lon="-3.971570">
        <ele>2161.787</ele>
        <time>2021-07-29T16:17:53Z</time>
      </trkpt>
      <trkpt lat="40.770144" lon="-3.971595">
        <ele>2161.742</ele>
        <time>2021-07-29T16:17:55Z</time>
      </trkpt>
      <trkpt lat="40.770150" lon="-3.971618">
        <ele>2161.626</ele>
        <time>2021-07-29T16:17:57Z</time>
      </trkpt>
      <trkpt lat="40.770170" lon="-3.971638">
        <ele>2161.008</ele>
        <time>2021-07-29T16:18:00Z</time>
      </trkpt>
      <trkpt lat="40.770192" lon="-3.971668">
        <ele>2160.555</ele>
        <time>2021-07-29T16:18:03Z</time>
      </trkpt>
      <trkpt lat="40.770198" lon="-3.971702">
        <ele>2160.267</ele>
        <time>2021-07-29T16:18:05Z</time>
      </trkpt>
      <trkpt lat="40.770211" lon="-3.971720">
        <ele>2159.894</ele>
        <time>2021-07-29T16:18:07Z</time>
      </trkpt>
      <trkpt lat="40.770224" lon="-3.971743">
        <ele>2159.521</ele>
        <time>2021-07-29T16:18:10Z</time>
      </trkpt>
      <trkpt lat="40.770237" lon="-3.971773">
        <ele>2159.282</ele>
        <time>2021-07-29T16:18:12Z</time>
      </trkpt>
      <trkpt lat="40.770240" lon="-3.971802">
        <ele>2159.142</ele>
        <time>2021-07-29T16:18:15Z</time>
      </trkpt>
      <trkpt lat="40.770240" lon="-3.971832">
        <ele>2159.125</ele>
        <time>2021-07-29T16:18:17Z</time>
      </trkpt>
      <trkpt lat="40.770250" lon="-3.971856">
        <ele>2159.034</ele>
        <time>2021-07-29T16:18:19Z</time>
      </trkpt>
      <trkpt lat="40.770259" lon="-3.971880">
        <ele>2158.942</ele>
        <time>2021-07-29T16:18:21Z</time>
      </trkpt>
      <trkpt lat="40.770272" lon="-3.971897">
        <ele>2158.922</ele>
        <time>2021-07-29T16:18:23Z</time>
      </trkpt>
      <trkpt lat="40.770288" lon="-3.971915">
        <ele>2158.614</ele>
        <time>2021-07-29T16:18:25Z</time>
      </trkpt>
      <trkpt lat="40.770301" lon="-3.971935">
        <ele>2158.308</ele>
        <time>2021-07-29T16:18:27Z</time>
      </trkpt>
      <trkpt lat="40.770314" lon="-3.971967">
        <ele>2157.961</ele>
        <time>2021-07-29T16:18:29Z</time>
      </trkpt>
      <trkpt lat="40.770323" lon="-3.971995">
        <ele>2157.773</ele>
        <time>2021-07-29T16:18:31Z</time>
      </trkpt>
      <trkpt lat="40.770330" lon="-3.972023">
        <ele>2157.560</ele>
        <time>2021-07-29T16:18:34Z</time>
      </trkpt>
      <trkpt lat="40.770349" lon="-3.972040">
        <ele>2157.097</ele>
        <time>2021-07-29T16:18:36Z</time>
      </trkpt>
      <trkpt lat="40.770371" lon="-3.972057">
        <ele>2156.698</ele>
        <time>2021-07-29T16:18:40Z</time>
      </trkpt>
      <trkpt lat="40.770390" lon="-3.972067">
        <ele>2156.258</ele>
        <time>2021-07-29T16:18:42Z</time>
      </trkpt>
      <trkpt lat="40.770406" lon="-3.972080">
        <ele>2155.921</ele>
        <time>2021-07-29T16:18:44Z</time>
      </trkpt>
      <trkpt lat="40.770429" lon="-3.972105">
        <ele>2155.680</ele>
        <time>2021-07-29T16:18:47Z</time>
      </trkpt>
      <trkpt lat="40.770442" lon="-3.972130">
        <ele>2155.651</ele>
        <time>2021-07-29T16:18:50Z</time>
      </trkpt>
      <trkpt lat="40.770454" lon="-3.972153">
        <ele>2155.601</ele>
        <time>2021-07-29T16:18:52Z</time>
      </trkpt>
      <trkpt lat="40.770474" lon="-3.972162">
        <ele>2155.311</ele>
        <time>2021-07-29T16:18:54Z</time>
      </trkpt>
      <trkpt lat="40.770496" lon="-3.972175">
        <ele>2155.108</ele>
        <time>2021-07-29T16:18:58Z</time>
      </trkpt>
      <trkpt lat="40.770518" lon="-3.972183">
        <ele>2154.962</ele>
        <time>2021-07-29T16:19:01Z</time>
      </trkpt>
      <trkpt lat="40.770541" lon="-3.972193">
        <ele>2154.864</ele>
        <time>2021-07-29T16:19:03Z</time>
      </trkpt>
      <trkpt lat="40.770566" lon="-3.972198">
        <ele>2154.261</ele>
        <time>2021-07-29T16:19:06Z</time>
      </trkpt>
      <trkpt lat="40.770586" lon="-3.972205">
        <ele>2153.638</ele>
        <time>2021-07-29T16:19:08Z</time>
      </trkpt>
      <trkpt lat="40.770611" lon="-3.972217">
        <ele>2152.789</ele>
        <time>2021-07-29T16:19:12Z</time>
      </trkpt>
      <trkpt lat="40.770630" lon="-3.972218">
        <ele>2152.079</ele>
        <time>2021-07-29T16:19:15Z</time>
      </trkpt>
      <trkpt lat="40.770646" lon="-3.972200">
        <ele>2151.292</ele>
        <time>2021-07-29T16:19:17Z</time>
      </trkpt>
      <trkpt lat="40.770669" lon="-3.972185">
        <ele>2150.161</ele>
        <time>2021-07-29T16:19:19Z</time>
      </trkpt>
      <trkpt lat="40.770688" lon="-3.972168">
        <ele>2149.341</ele>
        <time>2021-07-29T16:19:21Z</time>
      </trkpt>
      <trkpt lat="40.770710" lon="-3.972158">
        <ele>2148.381</ele>
        <time>2021-07-29T16:19:24Z</time>
      </trkpt>
      <trkpt lat="40.770736" lon="-3.972150">
        <ele>2147.309</ele>
        <time>2021-07-29T16:19:27Z</time>
      </trkpt>
      <trkpt lat="40.770758" lon="-3.972140">
        <ele>2146.408</ele>
        <time>2021-07-29T16:19:30Z</time>
      </trkpt>
      <trkpt lat="40.770778" lon="-3.972127">
        <ele>2145.661</ele>
        <time>2021-07-29T16:19:33Z</time>
      </trkpt>
      <trkpt lat="40.770800" lon="-3.972123">
        <ele>2144.843</ele>
        <time>2021-07-29T16:19:36Z</time>
      </trkpt>
      <trkpt lat="40.770819" lon="-3.972130">
        <ele>2144.240</ele>
        <time>2021-07-29T16:19:39Z</time>
      </trkpt>
      <trkpt lat="40.770845" lon="-3.972125">
        <ele>2143.387</ele>
        <time>2021-07-29T16:19:42Z</time>
      </trkpt>
      <trkpt lat="40.770867" lon="-3.972123">
        <ele>2142.528</ele>
        <time>2021-07-29T16:19:45Z</time>
      </trkpt>
      <trkpt lat="40.770890" lon="-3.972118">
        <ele>2141.758</ele>
        <time>2021-07-29T16:19:48Z</time>
      </trkpt>
      <trkpt lat="40.770909" lon="-3.972117">
        <ele>2141.181</ele>
        <time>2021-07-29T16:19:51Z</time>
      </trkpt>
      <trkpt lat="40.770931" lon="-3.972097">
        <ele>2140.210</ele>
        <time>2021-07-29T16:19:54Z</time>
      </trkpt>
      <trkpt lat="40.770954" lon="-3.972083">
        <ele>2139.439</ele>
        <time>2021-07-29T16:19:57Z</time>
      </trkpt>
      <trkpt lat="40.770973" lon="-3.972093">
        <ele>2138.801</ele>
        <time>2021-07-29T16:20:00Z</time>
      </trkpt>
      <trkpt lat="40.770992" lon="-3.972095">
        <ele>2138.121</ele>
        <time>2021-07-29T16:20:03Z</time>
      </trkpt>
      <trkpt lat="40.771011" lon="-3.972085">
        <ele>2137.408</ele>
        <time>2021-07-29T16:20:05Z</time>
      </trkpt>
      <trkpt lat="40.771027" lon="-3.972072">
        <ele>2136.870</ele>
        <time>2021-07-29T16:20:08Z</time>
      </trkpt>
      <trkpt lat="40.771050" lon="-3.972062">
        <ele>2136.032</ele>
        <time>2021-07-29T16:20:12Z</time>
      </trkpt>
      <trkpt lat="40.771069" lon="-3.972065">
        <ele>2135.359</ele>
        <time>2021-07-29T16:20:15Z</time>
      </trkpt>
      <trkpt lat="40.771088" lon="-3.972063">
        <ele>2134.716</ele>
        <time>2021-07-29T16:20:18Z</time>
      </trkpt>
      <trkpt lat="40.771107" lon="-3.972083">
        <ele>2134.127</ele>
        <time>2021-07-29T16:20:21Z</time>
      </trkpt>
      <trkpt lat="40.771130" lon="-3.972102">
        <ele>2133.577</ele>
        <time>2021-07-29T16:20:24Z</time>
      </trkpt>
      <trkpt lat="40.771149" lon="-3.972108">
        <ele>2132.820</ele>
        <time>2021-07-29T16:20:26Z</time>
      </trkpt>
      <trkpt lat="40.771171" lon="-3.972097">
        <ele>2131.939</ele>
        <time>2021-07-29T16:20:29Z</time>
      </trkpt>
      <trkpt lat="40.771197" lon="-3.972088">
        <ele>2130.967</ele>
        <time>2021-07-29T16:20:32Z</time>
      </trkpt>
      <trkpt lat="40.771216" lon="-3.972090">
        <ele>2130.381</ele>
        <time>2021-07-29T16:20:35Z</time>
      </trkpt>
      <trkpt lat="40.771242" lon="-3.972105">
        <ele>2129.419</ele>
        <time>2021-07-29T16:20:38Z</time>
      </trkpt>
      <trkpt lat="40.771264" lon="-3.972102">
        <ele>2128.608</ele>
        <time>2021-07-29T16:20:42Z</time>
      </trkpt>
      <trkpt lat="40.771283" lon="-3.972088">
        <ele>2127.853</ele>
        <time>2021-07-29T16:20:45Z</time>
      </trkpt>
      <trkpt lat="40.771306" lon="-3.972078">
        <ele>2126.925</ele>
        <time>2021-07-29T16:20:48Z</time>
      </trkpt>
      <trkpt lat="40.771322" lon="-3.972055">
        <ele>2126.222</ele>
        <time>2021-07-29T16:20:52Z</time>
      </trkpt>
      <trkpt lat="40.771344" lon="-3.972047">
        <ele>2125.439</ele>
        <time>2021-07-29T16:20:57Z</time>
      </trkpt>
      <trkpt lat="40.771363" lon="-3.972043">
        <ele>2124.650</ele>
        <time>2021-07-29T16:21:00Z</time>
      </trkpt>
      <trkpt lat="40.771382" lon="-3.972062">
        <ele>2124.180</ele>
        <time>2021-07-29T16:21:04Z</time>
      </trkpt>
      <trkpt lat="40.771392" lon="-3.972095">
        <ele>2124.013</ele>
        <time>2021-07-29T16:21:07Z</time>
      </trkpt>
      <trkpt lat="40.771411" lon="-3.972102">
        <ele>2123.482</ele>
        <time>2021-07-29T16:21:10Z</time>
      </trkpt>
      <trkpt lat="40.771430" lon="-3.972105">
        <ele>2122.835</ele>
        <time>2021-07-29T16:21:13Z</time>
      </trkpt>
      <trkpt lat="40.771450" lon="-3.972113">
        <ele>2122.286</ele>
        <time>2021-07-29T16:21:16Z</time>
      </trkpt>
      <trkpt lat="40.771472" lon="-3.972103">
        <ele>2121.414</ele>
        <time>2021-07-29T16:21:19Z</time>
      </trkpt>
      <trkpt lat="40.771482" lon="-3.972082">
        <ele>2121.008</ele>
        <time>2021-07-29T16:21:22Z</time>
      </trkpt>
      <trkpt lat="40.771501" lon="-3.972080">
        <ele>2120.390</ele>
        <time>2021-07-29T16:21:25Z</time>
      </trkpt>
      <trkpt lat="40.771520" lon="-3.972097">
        <ele>2119.892</ele>
        <time>2021-07-29T16:21:28Z</time>
      </trkpt>
      <trkpt lat="40.771542" lon="-3.972092">
        <ele>2119.199</ele>
        <time>2021-07-29T16:21:31Z</time>
      </trkpt>
      <trkpt lat="40.771565" lon="-3.972073">
        <ele>2118.226</ele>
        <time>2021-07-29T16:21:34Z</time>
      </trkpt>
      <trkpt lat="40.771581" lon="-3.972062">
        <ele>2117.687</ele>
        <time>2021-07-29T16:21:37Z</time>
      </trkpt>
      <trkpt lat="40.771594" lon="-3.972042">
        <ele>2117.187</ele>
        <time>2021-07-29T16:21:40Z</time>
      </trkpt>
      <trkpt lat="40.771613" lon="-3.972037">
        <ele>2116.440</ele>
        <time>2021-07-29T16:21:46Z</time>
      </trkpt>
      <trkpt lat="40.771632" lon="-3.972037">
        <ele>2115.889</ele>
        <time>2021-07-29T16:21:49Z</time>
      </trkpt>
      <trkpt lat="40.771658" lon="-3.972033">
        <ele>2114.946</ele>
        <time>2021-07-29T16:21:52Z</time>
      </trkpt>
      <trkpt lat="40.771683" lon="-3.972018">
        <ele>2113.988</ele>
        <time>2021-07-29T16:21:56Z</time>
      </trkpt>
      <trkpt lat="40.771699" lon="-3.972030">
        <ele>2113.316</ele>
        <time>2021-07-29T16:21:59Z</time>
      </trkpt>
      <trkpt lat="40.771706" lon="-3.972065">
        <ele>2113.208</ele>
        <time>2021-07-29T16:22:02Z</time>
      </trkpt>
      <trkpt lat="40.771722" lon="-3.972083">
        <ele>2112.781</ele>
        <time>2021-07-29T16:22:05Z</time>
      </trkpt>
      <trkpt lat="40.771741" lon="-3.972088">
        <ele>2112.033</ele>
        <time>2021-07-29T16:22:09Z</time>
      </trkpt>
      <trkpt lat="40.771760" lon="-3.972095">
        <ele>2111.250</ele>
        <time>2021-07-29T16:22:13Z</time>
      </trkpt>
      <trkpt lat="40.771779" lon="-3.972098">
        <ele>2110.497</ele>
        <time>2021-07-29T16:22:22Z</time>
      </trkpt>
      <trkpt lat="40.771824" lon="-3.972042">
        <ele>2108.388</ele>
        <time>2021-07-29T16:22:57Z</time>
      </trkpt>
      <trkpt lat="40.771846" lon="-3.972033">
        <ele>2107.368</ele>
        <time>2021-07-29T16:22:59Z</time>
      </trkpt>
      <trkpt lat="40.771878" lon="-3.972023">
        <ele>2106.081</ele>
        <time>2021-07-29T16:23:01Z</time>
      </trkpt>
      <trkpt lat="40.771904" lon="-3.972026">
        <ele>2104.980</ele>
        <time>2021-07-29T16:23:03Z</time>
      </trkpt>
      <trkpt lat="40.771942" lon="-3.972010">
        <ele>2103.388</ele>
        <time>2021-07-29T16:23:05Z</time>
      </trkpt>
      <trkpt lat="40.771965" lon="-3.971997">
        <ele>2102.724</ele>
        <time>2021-07-29T16:23:06Z</time>
      </trkpt>
      <trkpt lat="40.771981" lon="-3.971985">
        <ele>2102.426</ele>
        <time>2021-07-29T16:23:09Z</time>
      </trkpt>
      <trkpt lat="40.772000" lon="-3.971965">
        <ele>2101.908</ele>
        <time>2021-07-29T16:23:13Z</time>
      </trkpt>
      <trkpt lat="40.772019" lon="-3.971952">
        <ele>2101.415</ele>
        <time>2021-07-29T16:23:15Z</time>
      </trkpt>
      <trkpt lat="40.772045" lon="-3.971927">
        <ele>2100.767</ele>
        <time>2021-07-29T16:23:18Z</time>
      </trkpt>
      <trkpt lat="40.772058" lon="-3.971900">
        <ele>2100.384</ele>
        <time>2021-07-29T16:23:20Z</time>
      </trkpt>
      <trkpt lat="40.772064" lon="-3.971875">
        <ele>2100.191</ele>
        <time>2021-07-29T16:23:22Z</time>
      </trkpt>
      <trkpt lat="40.772067" lon="-3.971842">
        <ele>2099.842</ele>
        <time>2021-07-29T16:23:25Z</time>
      </trkpt>
      <trkpt lat="40.772086" lon="-3.971822">
        <ele>2099.362</ele>
        <time>2021-07-29T16:23:28Z</time>
      </trkpt>
      <trkpt lat="40.772109" lon="-3.971818">
        <ele>2098.775</ele>
        <time>2021-07-29T16:23:31Z</time>
      </trkpt>
      <trkpt lat="40.772125" lon="-3.971803">
        <ele>2098.324</ele>
        <time>2021-07-29T16:23:33Z</time>
      </trkpt>
      <trkpt lat="40.772134" lon="-3.971770">
        <ele>2097.833</ele>
        <time>2021-07-29T16:23:36Z</time>
      </trkpt>
      <trkpt lat="40.772128" lon="-3.971742">
        <ele>2097.823</ele>
        <time>2021-07-29T16:23:38Z</time>
      </trkpt>
      <trkpt lat="40.772147" lon="-3.971718">
        <ele>2097.215</ele>
        <time>2021-07-29T16:23:41Z</time>
      </trkpt>
      <trkpt lat="40.772166" lon="-3.971717">
        <ele>2096.708</ele>
        <time>2021-07-29T16:23:43Z</time>
      </trkpt>
      <trkpt lat="40.772189" lon="-3.971707">
        <ele>2096.160</ele>
        <time>2021-07-29T16:23:45Z</time>
      </trkpt>
      <trkpt lat="40.772214" lon="-3.971692">
        <ele>2095.482</ele>
        <time>2021-07-29T16:23:47Z</time>
      </trkpt>
      <trkpt lat="40.772227" lon="-3.971670">
        <ele>2094.949</ele>
        <time>2021-07-29T16:23:49Z</time>
      </trkpt>
      <trkpt lat="40.772246" lon="-3.971668">
        <ele>2094.526</ele>
        <time>2021-07-29T16:23:52Z</time>
      </trkpt>
      <trkpt lat="40.772269" lon="-3.971673">
        <ele>2094.027</ele>
        <time>2021-07-29T16:23:54Z</time>
      </trkpt>
      <trkpt lat="40.772294" lon="-3.971670">
        <ele>2093.537</ele>
        <time>2021-07-29T16:23:56Z</time>
      </trkpt>
      <trkpt lat="40.772314" lon="-3.971652">
        <ele>2092.980</ele>
        <time>2021-07-29T16:23:59Z</time>
      </trkpt>
      <trkpt lat="40.772336" lon="-3.971644">
        <ele>2092.429</ele>
        <time>2021-07-29T16:24:03Z</time>
      </trkpt>
      <trkpt lat="40.772362" lon="-3.971640">
        <ele>2091.867</ele>
        <time>2021-07-29T16:24:05Z</time>
      </trkpt>
      <trkpt lat="40.772381" lon="-3.971630">
        <ele>2091.481</ele>
        <time>2021-07-29T16:24:07Z</time>
      </trkpt>
      <trkpt lat="40.772400" lon="-3.971624">
        <ele>2090.919</ele>
        <time>2021-07-29T16:24:09Z</time>
      </trkpt>
      <trkpt lat="40.772419" lon="-3.971615">
        <ele>2090.408</ele>
        <time>2021-07-29T16:24:11Z</time>
      </trkpt>
      <trkpt lat="40.772422" lon="-3.971588">
        <ele>2090.283</ele>
        <time>2021-07-29T16:24:14Z</time>
      </trkpt>
      <trkpt lat="40.772426" lon="-3.971557">
        <ele>2089.915</ele>
        <time>2021-07-29T16:24:17Z</time>
      </trkpt>
      <trkpt lat="40.772435" lon="-3.971535">
        <ele>2089.612</ele>
        <time>2021-07-29T16:24:19Z</time>
      </trkpt>
      <trkpt lat="40.772442" lon="-3.971505">
        <ele>2089.259</ele>
        <time>2021-07-29T16:24:22Z</time>
      </trkpt>
      <trkpt lat="40.772442" lon="-3.971480">
        <ele>2089.030</ele>
        <time>2021-07-29T16:24:24Z</time>
      </trkpt>
      <trkpt lat="40.772458" lon="-3.971466">
        <ele>2088.660</ele>
        <time>2021-07-29T16:24:27Z</time>
      </trkpt>
      <trkpt lat="40.772477" lon="-3.971473">
        <ele>2088.263</ele>
        <time>2021-07-29T16:24:30Z</time>
      </trkpt>
      <trkpt lat="40.772496" lon="-3.971466">
        <ele>2087.762</ele>
        <time>2021-07-29T16:24:32Z</time>
      </trkpt>
      <trkpt lat="40.772515" lon="-3.971463">
        <ele>2087.234</ele>
        <time>2021-07-29T16:24:34Z</time>
      </trkpt>
      <trkpt lat="40.772534" lon="-3.971468">
        <ele>2086.855</ele>
        <time>2021-07-29T16:24:36Z</time>
      </trkpt>
      <trkpt lat="40.772547" lon="-3.971493">
        <ele>2086.710</ele>
        <time>2021-07-29T16:24:39Z</time>
      </trkpt>
      <trkpt lat="40.772566" lon="-3.971500">
        <ele>2086.308</ele>
        <time>2021-07-29T16:24:41Z</time>
      </trkpt>
      <trkpt lat="40.772595" lon="-3.971506">
        <ele>2085.650</ele>
        <time>2021-07-29T16:24:44Z</time>
      </trkpt>
      <trkpt lat="40.772614" lon="-3.971508">
        <ele>2085.282</ele>
        <time>2021-07-29T16:24:47Z</time>
      </trkpt>
      <trkpt lat="40.772634" lon="-3.971520">
        <ele>2084.889</ele>
        <time>2021-07-29T16:24:49Z</time>
      </trkpt>
      <trkpt lat="40.772653" lon="-3.971520">
        <ele>2084.456</ele>
        <time>2021-07-29T16:24:51Z</time>
      </trkpt>
      <trkpt lat="40.772678" lon="-3.971522">
        <ele>2083.877</ele>
        <time>2021-07-29T16:24:54Z</time>
      </trkpt>
      <trkpt lat="40.772701" lon="-3.971518">
        <ele>2083.317</ele>
        <time>2021-07-29T16:24:57Z</time>
      </trkpt>
      <trkpt lat="40.772720" lon="-3.971515">
        <ele>2082.870</ele>
        <time>2021-07-29T16:24:59Z</time>
      </trkpt>
      <trkpt lat="40.772742" lon="-3.971520">
        <ele>2082.339</ele>
        <time>2021-07-29T16:25:01Z</time>
      </trkpt>
      <trkpt lat="40.772765" lon="-3.971520">
        <ele>2081.814</ele>
        <time>2021-07-29T16:25:04Z</time>
      </trkpt>
      <trkpt lat="40.772784" lon="-3.971525">
        <ele>2081.454</ele>
        <time>2021-07-29T16:25:06Z</time>
      </trkpt>
      <trkpt lat="40.772803" lon="-3.971532">
        <ele>2081.209</ele>
        <time>2021-07-29T16:25:08Z</time>
      </trkpt>
      <trkpt lat="40.772822" lon="-3.971528">
        <ele>2080.908</ele>
        <time>2021-07-29T16:25:11Z</time>
      </trkpt>
      <trkpt lat="40.772842" lon="-3.971527">
        <ele>2080.688</ele>
        <time>2021-07-29T16:25:14Z</time>
      </trkpt>
      <trkpt lat="40.772861" lon="-3.971523">
        <ele>2080.350</ele>
        <time>2021-07-29T16:25:27Z</time>
      </trkpt>
      <trkpt lat="40.772877" lon="-3.971540">
        <ele>2080.187</ele>
        <time>2021-07-29T16:25:30Z</time>
      </trkpt>
      <trkpt lat="40.772893" lon="-3.971555">
        <ele>2079.944</ele>
        <time>2021-07-29T16:25:32Z</time>
      </trkpt>
      <trkpt lat="40.772915" lon="-3.971570">
        <ele>2079.795</ele>
        <time>2021-07-29T16:25:35Z</time>
      </trkpt>
      <trkpt lat="40.772938" lon="-3.971567">
        <ele>2079.375</ele>
        <time>2021-07-29T16:25:38Z</time>
      </trkpt>
      <trkpt lat="40.772957" lon="-3.971568">
        <ele>2079.128</ele>
        <time>2021-07-29T16:25:40Z</time>
      </trkpt>
      <trkpt lat="40.772979" lon="-3.971565">
        <ele>2078.797</ele>
        <time>2021-07-29T16:25:42Z</time>
      </trkpt>
      <trkpt lat="40.773002" lon="-3.971565">
        <ele>2078.455</ele>
        <time>2021-07-29T16:25:44Z</time>
      </trkpt>
      <trkpt lat="40.773024" lon="-3.971562">
        <ele>2078.107</ele>
        <time>2021-07-29T16:25:46Z</time>
      </trkpt>
      <trkpt lat="40.773043" lon="-3.971553">
        <ele>2077.817</ele>
        <time>2021-07-29T16:25:47Z</time>
      </trkpt>
      <trkpt lat="40.773072" lon="-3.971557">
        <ele>2077.308</ele>
        <time>2021-07-29T16:25:49Z</time>
      </trkpt>
      <trkpt lat="40.773101" lon="-3.971567">
        <ele>2076.882</ele>
        <time>2021-07-29T16:25:52Z</time>
      </trkpt>
      <trkpt lat="40.773123" lon="-3.971575">
        <ele>2076.584</ele>
        <time>2021-07-29T16:25:54Z</time>
      </trkpt>
      <trkpt lat="40.773149" lon="-3.971572">
        <ele>2076.061</ele>
        <time>2021-07-29T16:25:56Z</time>
      </trkpt>
      <trkpt lat="40.773168" lon="-3.971572">
        <ele>2075.618</ele>
        <time>2021-07-29T16:25:58Z</time>
      </trkpt>
      <trkpt lat="40.773187" lon="-3.971577">
        <ele>2075.399</ele>
        <time>2021-07-29T16:26:00Z</time>
      </trkpt>
      <trkpt lat="40.773210" lon="-3.971590">
        <ele>2074.959</ele>
        <time>2021-07-29T16:26:02Z</time>
      </trkpt>
      <trkpt lat="40.773229" lon="-3.971595">
        <ele>2074.632</ele>
        <time>2021-07-29T16:26:04Z</time>
      </trkpt>
      <trkpt lat="40.773251" lon="-3.971603">
        <ele>2074.341</ele>
        <time>2021-07-29T16:26:06Z</time>
      </trkpt>
      <trkpt lat="40.773270" lon="-3.971617">
        <ele>2074.038</ele>
        <time>2021-07-29T16:26:08Z</time>
      </trkpt>
      <trkpt lat="40.773290" lon="-3.971632">
        <ele>2073.770</ele>
        <time>2021-07-29T16:26:11Z</time>
      </trkpt>
      <trkpt lat="40.773309" lon="-3.971650">
        <ele>2073.417</ele>
        <time>2021-07-29T16:26:13Z</time>
      </trkpt>
      <trkpt lat="40.773322" lon="-3.971667">
        <ele>2073.208</ele>
        <time>2021-07-29T16:26:15Z</time>
      </trkpt>
      <trkpt lat="40.773341" lon="-3.971678">
        <ele>2073.010</ele>
        <time>2021-07-29T16:26:17Z</time>
      </trkpt>
      <trkpt lat="40.773373" lon="-3.971692">
        <ele>2072.812</ele>
        <time>2021-07-29T16:26:20Z</time>
      </trkpt>
      <trkpt lat="40.773392" lon="-3.971698">
        <ele>2072.749</ele>
        <time>2021-07-29T16:26:22Z</time>
      </trkpt>
      <trkpt lat="40.773408" lon="-3.971728">
        <ele>2072.786</ele>
        <time>2021-07-29T16:26:24Z</time>
      </trkpt>
      <trkpt lat="40.773427" lon="-3.971743">
        <ele>2072.617</ele>
        <time>2021-07-29T16:26:26Z</time>
      </trkpt>
      <trkpt lat="40.773453" lon="-3.971763">
        <ele>2072.537</ele>
        <time>2021-07-29T16:26:29Z</time>
      </trkpt>
      <trkpt lat="40.773472" lon="-3.971785">
        <ele>2072.430</ele>
        <time>2021-07-29T16:26:31Z</time>
      </trkpt>
      <trkpt lat="40.773488" lon="-3.971805">
        <ele>2072.449</ele>
        <time>2021-07-29T16:26:33Z</time>
      </trkpt>
      <trkpt lat="40.773507" lon="-3.971820">
        <ele>2072.315</ele>
        <time>2021-07-29T16:26:35Z</time>
      </trkpt>
      <trkpt lat="40.773530" lon="-3.971822">
        <ele>2072.165</ele>
        <time>2021-07-29T16:26:37Z</time>
      </trkpt>
      <trkpt lat="40.773552" lon="-3.971823">
        <ele>2072.011</ele>
        <time>2021-07-29T16:26:39Z</time>
      </trkpt>
      <trkpt lat="40.773574" lon="-3.971835">
        <ele>2071.908</ele>
        <time>2021-07-29T16:26:41Z</time>
      </trkpt>
      <trkpt lat="40.773600" lon="-3.971842">
        <ele>2071.748</ele>
        <time>2021-07-29T16:26:43Z</time>
      </trkpt>
      <trkpt lat="40.773619" lon="-3.971842">
        <ele>2071.690</ele>
        <time>2021-07-29T16:26:45Z</time>
      </trkpt>
      <trkpt lat="40.773645" lon="-3.971836">
        <ele>2071.557</ele>
        <time>2021-07-29T16:26:47Z</time>
      </trkpt>
      <trkpt lat="40.773670" lon="-3.971835">
        <ele>2071.454</ele>
        <time>2021-07-29T16:26:49Z</time>
      </trkpt>
      <trkpt lat="40.773693" lon="-3.971845">
        <ele>2071.335</ele>
        <time>2021-07-29T16:26:51Z</time>
      </trkpt>
      <trkpt lat="40.773715" lon="-3.971845">
        <ele>2071.385</ele>
        <time>2021-07-29T16:26:53Z</time>
      </trkpt>
      <trkpt lat="40.773734" lon="-3.971856">
        <ele>2071.228</ele>
        <time>2021-07-29T16:26:55Z</time>
      </trkpt>
      <trkpt lat="40.773754" lon="-3.971877">
        <ele>2071.277</ele>
        <time>2021-07-29T16:26:57Z</time>
      </trkpt>
      <trkpt lat="40.773773" lon="-3.971893">
        <ele>2071.288</ele>
        <time>2021-07-29T16:26:59Z</time>
      </trkpt>
      <trkpt lat="40.773792" lon="-3.971908">
        <ele>2071.224</ele>
        <time>2021-07-29T16:27:01Z</time>
      </trkpt>
      <trkpt lat="40.773814" lon="-3.971923">
        <ele>2071.226</ele>
        <time>2021-07-29T16:27:03Z</time>
      </trkpt>
      <trkpt lat="40.773837" lon="-3.971945">
        <ele>2071.208</ele>
        <time>2021-07-29T16:27:05Z</time>
      </trkpt>
      <trkpt lat="40.773862" lon="-3.971962">
        <ele>2071.165</ele>
        <time>2021-07-29T16:27:07Z</time>
      </trkpt>
      <trkpt lat="40.773885" lon="-3.971975">
        <ele>2071.027</ele>
        <time>2021-07-29T16:27:09Z</time>
      </trkpt>
      <trkpt lat="40.773907" lon="-3.971987">
        <ele>2071.164</ele>
        <time>2021-07-29T16:27:11Z</time>
      </trkpt>
      <trkpt lat="40.773926" lon="-3.972005">
        <ele>2071.121</ele>
        <time>2021-07-29T16:27:13Z</time>
      </trkpt>
      <trkpt lat="40.773946" lon="-3.972022">
        <ele>2071.282</ele>
        <time>2021-07-29T16:27:15Z</time>
      </trkpt>
      <trkpt lat="40.773962" lon="-3.972033">
        <ele>2071.322</ele>
        <time>2021-07-29T16:27:17Z</time>
      </trkpt>
      <trkpt lat="40.773990" lon="-3.972025">
        <ele>2071.445</ele>
        <time>2021-07-29T16:27:20Z</time>
      </trkpt>
      <trkpt lat="40.774013" lon="-3.972014">
        <ele>2071.424</ele>
        <time>2021-07-29T16:27:22Z</time>
      </trkpt>
      <trkpt lat="40.774035" lon="-3.972000">
        <ele>2071.511</ele>
        <time>2021-07-29T16:27:24Z</time>
      </trkpt>
      <trkpt lat="40.774061" lon="-3.971994">
        <ele>2071.621</ele>
        <time>2021-07-29T16:27:26Z</time>
      </trkpt>
      <trkpt lat="40.774083" lon="-3.971994">
        <ele>2071.703</ele>
        <time>2021-07-29T16:27:30Z</time>
      </trkpt>
      <trkpt lat="40.774106" lon="-3.972002">
        <ele>2071.808</ele>
        <time>2021-07-29T16:27:33Z</time>
      </trkpt>
      <trkpt lat="40.774125" lon="-3.972004">
        <ele>2071.848</ele>
        <time>2021-07-29T16:27:35Z</time>
      </trkpt>
      <trkpt lat="40.774144" lon="-3.971972">
        <ele>2071.920</ele>
        <time>2021-07-29T16:27:38Z</time>
      </trkpt>
      <trkpt lat="40.774150" lon="-3.971935">
        <ele>2071.997</ele>
        <time>2021-07-29T16:27:41Z</time>
      </trkpt>
      <trkpt lat="40.774154" lon="-3.971908">
        <ele>2071.994</ele>
        <time>2021-07-29T16:27:43Z</time>
      </trkpt>
      <trkpt lat="40.774166" lon="-3.971890">
        <ele>2072.085</ele>
        <time>2021-07-29T16:27:46Z</time>
      </trkpt>
      <trkpt lat="40.774186" lon="-3.971867">
        <ele>2072.325</ele>
        <time>2021-07-29T16:27:49Z</time>
      </trkpt>
      <trkpt lat="40.774202" lon="-3.971850">
        <ele>2072.678</ele>
        <time>2021-07-29T16:27:51Z</time>
      </trkpt>
      <trkpt lat="40.774208" lon="-3.971818">
        <ele>2072.667</ele>
        <time>2021-07-29T16:27:54Z</time>
      </trkpt>
      <trkpt lat="40.774211" lon="-3.971783">
        <ele>2072.661</ele>
        <time>2021-07-29T16:27:57Z</time>
      </trkpt>
      <trkpt lat="40.774221" lon="-3.971748">
        <ele>2072.721</ele>
        <time>2021-07-29T16:28:00Z</time>
      </trkpt>
      <trkpt lat="40.774227" lon="-3.971718">
        <ele>2072.713</ele>
        <time>2021-07-29T16:28:02Z</time>
      </trkpt>
      <trkpt lat="40.774246" lon="-3.971692">
        <ele>2072.908</ele>
        <time>2021-07-29T16:28:04Z</time>
      </trkpt>
      <trkpt lat="40.774259" lon="-3.971670">
        <ele>2073.083</ele>
        <time>2021-07-29T16:28:07Z</time>
      </trkpt>
      <trkpt lat="40.774269" lon="-3.971645">
        <ele>2072.835</ele>
        <time>2021-07-29T16:28:09Z</time>
      </trkpt>
      <trkpt lat="40.774275" lon="-3.971615">
        <ele>2072.422</ele>
        <time>2021-07-29T16:28:12Z</time>
      </trkpt>
      <trkpt lat="40.774288" lon="-3.971588">
        <ele>2072.159</ele>
        <time>2021-07-29T16:28:14Z</time>
      </trkpt>
      <trkpt lat="40.774288" lon="-3.971555">
        <ele>2071.580</ele>
        <time>2021-07-29T16:28:17Z</time>
      </trkpt>
      <trkpt lat="40.774285" lon="-3.971530">
        <ele>2071.150</ele>
        <time>2021-07-29T16:28:19Z</time>
      </trkpt>
      <trkpt lat="40.774282" lon="-3.971495">
        <ele>2070.513</ele>
        <time>2021-07-29T16:28:22Z</time>
      </trkpt>
      <trkpt lat="40.774282" lon="-3.971465">
        <ele>2070.072</ele>
        <time>2021-07-29T16:28:24Z</time>
      </trkpt>
      <trkpt lat="40.774282" lon="-3.971434">
        <ele>2069.563</ele>
        <time>2021-07-29T16:28:26Z</time>
      </trkpt>
      <trkpt lat="40.774275" lon="-3.971407">
        <ele>2069.144</ele>
        <time>2021-07-29T16:28:28Z</time>
      </trkpt>
      <trkpt lat="40.774288" lon="-3.971377">
        <ele>2068.718</ele>
        <time>2021-07-29T16:28:30Z</time>
      </trkpt>
      <trkpt lat="40.774301" lon="-3.971347">
        <ele>2068.308</ele>
        <time>2021-07-29T16:28:33Z</time>
      </trkpt>
      <trkpt lat="40.774314" lon="-3.971317">
        <ele>2067.913</ele>
        <time>2021-07-29T16:28:36Z</time>
      </trkpt>
      <trkpt lat="40.774314" lon="-3.971280">
        <ele>2067.355</ele>
        <time>2021-07-29T16:28:39Z</time>
      </trkpt>
      <trkpt lat="40.774314" lon="-3.971253">
        <ele>2066.862</ele>
        <time>2021-07-29T16:28:41Z</time>
      </trkpt>
      <trkpt lat="40.774314" lon="-3.971222">
        <ele>2066.399</ele>
        <time>2021-07-29T16:28:45Z</time>
      </trkpt>
      <trkpt lat="40.774320" lon="-3.971198">
        <ele>2066.030</ele>
        <time>2021-07-29T16:28:47Z</time>
      </trkpt>
      <trkpt lat="40.774320" lon="-3.971165">
        <ele>2065.460</ele>
        <time>2021-07-29T16:28:50Z</time>
      </trkpt>
      <trkpt lat="40.774330" lon="-3.971138">
        <ele>2065.093</ele>
        <time>2021-07-29T16:28:53Z</time>
      </trkpt>
      <trkpt lat="40.774339" lon="-3.971113">
        <ele>2064.772</ele>
        <time>2021-07-29T16:28:56Z</time>
      </trkpt>
      <trkpt lat="40.774339" lon="-3.971084">
        <ele>2064.389</ele>
        <time>2021-07-29T16:28:59Z</time>
      </trkpt>
      <trkpt lat="40.774349" lon="-3.971062">
        <ele>2064.006</ele>
        <time>2021-07-29T16:29:01Z</time>
      </trkpt>
      <trkpt lat="40.774352" lon="-3.971032">
        <ele>2063.626</ele>
        <time>2021-07-29T16:29:04Z</time>
      </trkpt>
      <trkpt lat="40.774349" lon="-3.971003">
        <ele>2063.208</ele>
        <time>2021-07-29T16:29:06Z</time>
      </trkpt>
      <trkpt lat="40.774358" lon="-3.970968">
        <ele>2062.895</ele>
        <time>2021-07-29T16:29:10Z</time>
      </trkpt>
      <trkpt lat="40.774365" lon="-3.970937">
        <ele>2062.467</ele>
        <time>2021-07-29T16:29:13Z</time>
      </trkpt>
      <trkpt lat="40.774387" lon="-3.970908">
        <ele>2062.034</ele>
        <time>2021-07-29T16:29:15Z</time>
      </trkpt>
      <trkpt lat="40.774406" lon="-3.970890">
        <ele>2061.841</ele>
        <time>2021-07-29T16:29:17Z</time>
      </trkpt>
      <trkpt lat="40.774419" lon="-3.970872">
        <ele>2061.512</ele>
        <time>2021-07-29T16:29:19Z</time>
      </trkpt>
      <trkpt lat="40.774432" lon="-3.970850">
        <ele>2061.252</ele>
        <time>2021-07-29T16:29:21Z</time>
      </trkpt>
      <trkpt lat="40.774422" lon="-3.970827">
        <ele>2060.985</ele>
        <time>2021-07-29T16:29:24Z</time>
      </trkpt>
      <trkpt lat="40.774429" lon="-3.970798">
        <ele>2060.434</ele>
        <time>2021-07-29T16:29:27Z</time>
      </trkpt>
      <trkpt lat="40.774458" lon="-3.970772">
        <ele>2060.067</ele>
        <time>2021-07-29T16:29:29Z</time>
      </trkpt>
      <trkpt lat="40.774461" lon="-3.970742">
        <ele>2059.581</ele>
        <time>2021-07-29T16:29:31Z</time>
      </trkpt>
      <trkpt lat="40.774461" lon="-3.970710">
        <ele>2059.019</ele>
        <time>2021-07-29T16:29:33Z</time>
      </trkpt>
      <trkpt lat="40.774458" lon="-3.970675">
        <ele>2058.308</ele>
        <time>2021-07-29T16:29:36Z</time>
      </trkpt>
      <trkpt lat="40.774451" lon="-3.970650">
        <ele>2057.833</ele>
        <time>2021-07-29T16:29:39Z</time>
      </trkpt>
      <trkpt lat="40.774448" lon="-3.970623">
        <ele>2057.385</ele>
        <time>2021-07-29T16:29:41Z</time>
      </trkpt>
      <trkpt lat="40.774458" lon="-3.970587">
        <ele>2056.752</ele>
        <time>2021-07-29T16:29:44Z</time>
      </trkpt>
      <trkpt lat="40.774461" lon="-3.970557">
        <ele>2056.239</ele>
        <time>2021-07-29T16:29:46Z</time>
      </trkpt>
      <trkpt lat="40.774461" lon="-3.970532">
        <ele>2055.810</ele>
        <time>2021-07-29T16:29:48Z</time>
      </trkpt>
      <trkpt lat="40.774458" lon="-3.970495">
        <ele>2055.170</ele>
        <time>2021-07-29T16:29:51Z</time>
      </trkpt>
      <trkpt lat="40.774458" lon="-3.970465">
        <ele>2054.533</ele>
        <time>2021-07-29T16:29:53Z</time>
      </trkpt>
      <trkpt lat="40.774458" lon="-3.970433">
        <ele>2053.952</ele>
        <time>2021-07-29T16:29:55Z</time>
      </trkpt>
      <trkpt lat="40.774458" lon="-3.970405">
        <ele>2053.492</ele>
        <time>2021-07-29T16:29:57Z</time>
      </trkpt>
      <trkpt lat="40.774464" lon="-3.970378">
        <ele>2053.073</ele>
        <time>2021-07-29T16:29:59Z</time>
      </trkpt>
      <trkpt lat="40.774474" lon="-3.970348">
        <ele>2052.620</ele>
        <time>2021-07-29T16:30:01Z</time>
      </trkpt>
      <trkpt lat="40.774486" lon="-3.970313">
        <ele>2052.108</ele>
        <time>2021-07-29T16:30:04Z</time>
      </trkpt>
      <trkpt lat="40.774493" lon="-3.970275">
        <ele>2051.536</ele>
        <time>2021-07-29T16:30:08Z</time>
      </trkpt>
      <trkpt lat="40.774502" lon="-3.970254">
        <ele>2051.138</ele>
        <time>2021-07-29T16:30:11Z</time>
      </trkpt>
      <trkpt lat="40.774512" lon="-3.970228">
        <ele>2050.785</ele>
        <time>2021-07-29T16:30:14Z</time>
      </trkpt>
      <trkpt lat="40.774525" lon="-3.970208">
        <ele>2050.492</ele>
        <time>2021-07-29T16:30:16Z</time>
      </trkpt>
      <trkpt lat="40.774541" lon="-3.970183">
        <ele>2050.023</ele>
        <time>2021-07-29T16:30:19Z</time>
      </trkpt>
      <trkpt lat="40.774544" lon="-3.970150">
        <ele>2049.373</ele>
        <time>2021-07-29T16:30:22Z</time>
      </trkpt>
      <trkpt lat="40.774563" lon="-3.970133">
        <ele>2049.296</ele>
        <time>2021-07-29T16:30:24Z</time>
      </trkpt>
      <trkpt lat="40.774566" lon="-3.970108">
        <ele>2048.635</ele>
        <time>2021-07-29T16:30:28Z</time>
      </trkpt>
      <trkpt lat="40.774557" lon="-3.970085">
        <ele>2048.169</ele>
        <time>2021-07-29T16:30:33Z</time>
      </trkpt>
      <trkpt lat="40.774557" lon="-3.970060">
        <ele>2047.504</ele>
        <time>2021-07-29T16:30:37Z</time>
      </trkpt>
      <trkpt lat="40.774566" lon="-3.970034">
        <ele>2047.024</ele>
        <time>2021-07-29T16:30:42Z</time>
      </trkpt>
      <trkpt lat="40.774582" lon="-3.970018">
        <ele>2046.908</ele>
        <time>2021-07-29T16:30:45Z</time>
      </trkpt>
      <trkpt lat="40.774602" lon="-3.969998">
        <ele>2046.793</ele>
        <time>2021-07-29T16:30:49Z</time>
      </trkpt>
      <trkpt lat="40.774621" lon="-3.969983">
        <ele>2046.565</ele>
        <time>2021-07-29T16:30:51Z</time>
      </trkpt>
      <trkpt lat="40.774637" lon="-3.969963">
        <ele>2046.152</ele>
        <time>2021-07-29T16:30:53Z</time>
      </trkpt>
      <trkpt lat="40.774650" lon="-3.969942">
        <ele>2045.759</ele>
        <time>2021-07-29T16:30:58Z</time>
      </trkpt>
      <trkpt lat="40.774662" lon="-3.969923">
        <ele>2045.380</ele>
        <time>2021-07-29T16:31:01Z</time>
      </trkpt>
      <trkpt lat="40.774685" lon="-3.969915">
        <ele>2045.390</ele>
        <time>2021-07-29T16:31:04Z</time>
      </trkpt>
      <trkpt lat="40.774707" lon="-3.969900">
        <ele>2045.023</ele>
        <time>2021-07-29T16:31:07Z</time>
      </trkpt>
      <trkpt lat="40.774726" lon="-3.969874">
        <ele>2044.442</ele>
        <time>2021-07-29T16:31:10Z</time>
      </trkpt>
      <trkpt lat="40.774726" lon="-3.969847">
        <ele>2043.754</ele>
        <time>2021-07-29T16:31:12Z</time>
      </trkpt>
      <trkpt lat="40.774730" lon="-3.969815">
        <ele>2042.856</ele>
        <time>2021-07-29T16:31:14Z</time>
      </trkpt>
      <trkpt lat="40.774736" lon="-3.969790">
        <ele>2042.211</ele>
        <time>2021-07-29T16:31:16Z</time>
      </trkpt>
      <trkpt lat="40.774742" lon="-3.969760">
        <ele>2041.508</ele>
        <time>2021-07-29T16:31:19Z</time>
      </trkpt>
      <trkpt lat="40.774749" lon="-3.969735">
        <ele>2040.952</ele>
        <time>2021-07-29T16:31:21Z</time>
      </trkpt>
      <trkpt lat="40.774758" lon="-3.969708">
        <ele>2040.524</ele>
        <time>2021-07-29T16:31:24Z</time>
      </trkpt>
      <trkpt lat="40.774778" lon="-3.969680">
        <ele>2040.271</ele>
        <time>2021-07-29T16:31:27Z</time>
      </trkpt>
      <trkpt lat="40.774790" lon="-3.969663">
        <ele>2040.138</ele>
        <time>2021-07-29T16:31:29Z</time>
      </trkpt>
      <trkpt lat="40.774797" lon="-3.969635">
        <ele>2039.699</ele>
        <time>2021-07-29T16:31:31Z</time>
      </trkpt>
      <trkpt lat="40.774797" lon="-3.969600">
        <ele>2038.719</ele>
        <time>2021-07-29T16:31:35Z</time>
      </trkpt>
      <trkpt lat="40.774790" lon="-3.969576">
        <ele>2038.012</ele>
        <time>2021-07-29T16:31:37Z</time>
      </trkpt>
      <trkpt lat="40.774778" lon="-3.969554">
        <ele>2037.331</ele>
        <time>2021-07-29T16:31:41Z</time>
      </trkpt>
      <trkpt lat="40.774781" lon="-3.969525">
        <ele>2036.758</ele>
        <time>2021-07-29T16:31:43Z</time>
      </trkpt>
      <trkpt lat="40.774800" lon="-3.969493">
        <ele>2036.352</ele>
        <time>2021-07-29T16:31:46Z</time>
      </trkpt>
      <trkpt lat="40.774810" lon="-3.969470">
        <ele>2035.917</ele>
        <time>2021-07-29T16:31:48Z</time>
      </trkpt>
      <trkpt lat="40.774819" lon="-3.969445">
        <ele>2035.408</ele>
        <time>2021-07-29T16:31:51Z</time>
      </trkpt>
      <trkpt lat="40.774842" lon="-3.969442">
        <ele>2035.762</ele>
        <time>2021-07-29T16:31:54Z</time>
      </trkpt>
      <trkpt lat="40.774877" lon="-3.969418">
        <ele>2035.614</ele>
        <time>2021-07-29T16:31:56Z</time>
      </trkpt>
      <trkpt lat="40.774886" lon="-3.969382">
        <ele>2034.951</ele>
        <time>2021-07-29T16:32:00Z</time>
      </trkpt>
      <trkpt lat="40.774899" lon="-3.969355">
        <ele>2034.558</ele>
        <time>2021-07-29T16:32:02Z</time>
      </trkpt>
      <trkpt lat="40.774902" lon="-3.969332">
        <ele>2034.059</ele>
        <time>2021-07-29T16:32:04Z</time>
      </trkpt>
      <trkpt lat="40.774915" lon="-3.969310">
        <ele>2033.799</ele>
        <time>2021-07-29T16:32:07Z</time>
      </trkpt>
      <trkpt lat="40.774918" lon="-3.969282">
        <ele>2033.112</ele>
        <time>2021-07-29T16:32:09Z</time>
      </trkpt>
      <trkpt lat="40.774938" lon="-3.969252">
        <ele>2032.811</ele>
        <time>2021-07-29T16:32:12Z</time>
      </trkpt>
      <trkpt lat="40.774947" lon="-3.969220">
        <ele>2032.236</ele>
        <time>2021-07-29T16:32:15Z</time>
      </trkpt>
      <trkpt lat="40.774960" lon="-3.969188">
        <ele>2031.817</ele>
        <time>2021-07-29T16:32:19Z</time>
      </trkpt>
      <trkpt lat="40.774960" lon="-3.969155">
        <ele>2031.018</ele>
        <time>2021-07-29T16:32:22Z</time>
      </trkpt>
      <trkpt lat="40.774976" lon="-3.969133">
        <ele>2030.708</ele>
        <time>2021-07-29T16:32:26Z</time>
      </trkpt>
      <trkpt lat="40.774998" lon="-3.969123">
        <ele>2030.990</ele>
        <time>2021-07-29T16:32:29Z</time>
      </trkpt>
      <trkpt lat="40.775014" lon="-3.969108">
        <ele>2030.932</ele>
        <time>2021-07-29T16:32:32Z</time>
      </trkpt>
      <trkpt lat="40.775034" lon="-3.969083">
        <ele>2030.879</ele>
        <time>2021-07-29T16:32:34Z</time>
      </trkpt>
      <trkpt lat="40.775056" lon="-3.969058">
        <ele>2030.836</ele>
        <time>2021-07-29T16:32:37Z</time>
      </trkpt>
      <trkpt lat="40.775066" lon="-3.969032">
        <ele>2030.457</ele>
        <time>2021-07-29T16:32:40Z</time>
      </trkpt>
      <trkpt lat="40.775059" lon="-3.969006">
        <ele>2029.637</ele>
        <time>2021-07-29T16:32:43Z</time>
      </trkpt>
      <trkpt lat="40.775062" lon="-3.968982">
        <ele>2029.120</ele>
        <time>2021-07-29T16:32:45Z</time>
      </trkpt>
      <trkpt lat="40.775059" lon="-3.968952">
        <ele>2028.259</ele>
        <time>2021-07-29T16:32:48Z</time>
      </trkpt>
      <trkpt lat="40.775050" lon="-3.968930">
        <ele>2027.413</ele>
        <time>2021-07-29T16:32:50Z</time>
      </trkpt>
      <trkpt lat="40.775043" lon="-3.968903">
        <ele>2026.643</ele>
        <time>2021-07-29T16:32:52Z</time>
      </trkpt>
      <trkpt lat="40.775040" lon="-3.968875">
        <ele>2025.807</ele>
        <time>2021-07-29T16:32:54Z</time>
      </trkpt>
      <trkpt lat="40.775040" lon="-3.968850">
        <ele>2025.208</ele>
        <time>2021-07-29T16:32:56Z</time>
      </trkpt>
      <trkpt lat="40.775043" lon="-3.968825">
        <ele>2024.748</ele>
        <time>2021-07-29T16:32:58Z</time>
      </trkpt>
      <trkpt lat="40.775043" lon="-3.968797">
        <ele>2024.040</ele>
        <time>2021-07-29T16:33:00Z</time>
      </trkpt>
      <trkpt lat="40.775040" lon="-3.968763">
        <ele>2023.147</ele>
        <time>2021-07-29T16:33:03Z</time>
      </trkpt>
      <trkpt lat="40.775050" lon="-3.968732">
        <ele>2022.794</ele>
        <time>2021-07-29T16:33:06Z</time>
      </trkpt>
      <trkpt lat="40.775059" lon="-3.968705">
        <ele>2022.385</ele>
        <time>2021-07-29T16:33:09Z</time>
      </trkpt>
      <trkpt lat="40.775075" lon="-3.968683">
        <ele>2022.465</ele>
        <time>2021-07-29T16:33:12Z</time>
      </trkpt>
      <trkpt lat="40.775094" lon="-3.968655">
        <ele>2022.438</ele>
        <time>2021-07-29T16:33:14Z</time>
      </trkpt>
      <trkpt lat="40.775107" lon="-3.968628">
        <ele>2022.287</ele>
        <time>2021-07-29T16:33:16Z</time>
      </trkpt>
      <trkpt lat="40.775107" lon="-3.968598">
        <ele>2021.718</ele>
        <time>2021-07-29T16:33:19Z</time>
      </trkpt>
      <trkpt lat="40.775104" lon="-3.968572">
        <ele>2021.298</ele>
        <time>2021-07-29T16:33:21Z</time>
      </trkpt>
      <trkpt lat="40.775094" lon="-3.968550">
        <ele>2020.517</ele>
        <time>2021-07-29T16:33:23Z</time>
      </trkpt>
      <trkpt lat="40.775088" lon="-3.968527">
        <ele>2020.008</ele>
        <time>2021-07-29T16:33:25Z</time>
      </trkpt>
      <trkpt lat="40.775094" lon="-3.968497">
        <ele>2019.788</ele>
        <time>2021-07-29T16:33:27Z</time>
      </trkpt>
      <trkpt lat="40.775098" lon="-3.968460">
        <ele>2019.310</ele>
        <time>2021-07-29T16:33:29Z</time>
      </trkpt>
      <trkpt lat="40.775117" lon="-3.968432">
        <ele>2019.537</ele>
        <time>2021-07-29T16:33:32Z</time>
      </trkpt>
      <trkpt lat="40.775117" lon="-3.968400">
        <ele>2019.074</ele>
        <time>2021-07-29T16:33:35Z</time>
      </trkpt>
      <trkpt lat="40.775098" lon="-3.968378">
        <ele>2018.165</ele>
        <time>2021-07-29T16:33:38Z</time>
      </trkpt>
      <trkpt lat="40.775104" lon="-3.968343">
        <ele>2017.875</ele>
        <time>2021-07-29T16:33:41Z</time>
      </trkpt>
      <trkpt lat="40.775117" lon="-3.968320">
        <ele>2017.728</ele>
        <time>2021-07-29T16:33:43Z</time>
      </trkpt>
      <trkpt lat="40.775114" lon="-3.968295">
        <ele>2017.397</ele>
        <time>2021-07-29T16:33:46Z</time>
      </trkpt>
      <trkpt lat="40.775114" lon="-3.968268">
        <ele>2016.848</ele>
        <time>2021-07-29T16:33:48Z</time>
      </trkpt>
      <trkpt lat="40.775133" lon="-3.968242">
        <ele>2016.961</ele>
        <time>2021-07-29T16:33:50Z</time>
      </trkpt>
      <trkpt lat="40.775136" lon="-3.968212">
        <ele>2016.517</ele>
        <time>2021-07-29T16:33:53Z</time>
      </trkpt>
      <trkpt lat="40.775139" lon="-3.968187">
        <ele>2016.108</ele>
        <time>2021-07-29T16:33:56Z</time>
      </trkpt>
      <trkpt lat="40.775146" lon="-3.968157">
        <ele>2015.871</ele>
        <time>2021-07-29T16:33:59Z</time>
      </trkpt>
      <trkpt lat="40.775146" lon="-3.968127">
        <ele>2015.393</ele>
        <time>2021-07-29T16:34:02Z</time>
      </trkpt>
      <trkpt lat="40.775142" lon="-3.968098">
        <ele>2014.840</ele>
        <time>2021-07-29T16:34:05Z</time>
      </trkpt>
      <trkpt lat="40.775142" lon="-3.968070">
        <ele>2014.327</ele>
        <time>2021-07-29T16:34:09Z</time>
      </trkpt>
      <trkpt lat="40.775139" lon="-3.968045">
        <ele>2013.868</ele>
        <time>2021-07-29T16:34:12Z</time>
      </trkpt>
      <trkpt lat="40.775146" lon="-3.968022">
        <ele>2013.538</ele>
        <time>2021-07-29T16:34:14Z</time>
      </trkpt>
      <trkpt lat="40.775155" lon="-3.967988">
        <ele>2013.161</ele>
        <time>2021-07-29T16:34:18Z</time>
      </trkpt>
      <trkpt lat="40.775165" lon="-3.967955">
        <ele>2012.880</ele>
        <time>2021-07-29T16:34:21Z</time>
      </trkpt>
      <trkpt lat="40.775181" lon="-3.967935">
        <ele>2012.722</ele>
        <time>2021-07-29T16:34:23Z</time>
      </trkpt>
      <trkpt lat="40.775194" lon="-3.967917">
        <ele>2012.762</ele>
        <time>2021-07-29T16:34:25Z</time>
      </trkpt>
      <trkpt lat="40.775197" lon="-3.967893">
        <ele>2012.308</ele>
        <time>2021-07-29T16:34:27Z</time>
      </trkpt>
      <trkpt lat="40.775203" lon="-3.967867">
        <ele>2012.008</ele>
        <time>2021-07-29T16:34:30Z</time>
      </trkpt>
      <trkpt lat="40.775203" lon="-3.967833">
        <ele>2011.419</ele>
        <time>2021-07-29T16:34:33Z</time>
      </trkpt>
      <trkpt lat="40.775203" lon="-3.967800">
        <ele>2010.871</ele>
        <time>2021-07-29T16:34:36Z</time>
      </trkpt>
      <trkpt lat="40.775213" lon="-3.967770">
        <ele>2010.598</ele>
        <time>2021-07-29T16:34:39Z</time>
      </trkpt>
      <trkpt lat="40.775213" lon="-3.967743">
        <ele>2010.025</ele>
        <time>2021-07-29T16:34:41Z</time>
      </trkpt>
      <trkpt lat="40.775213" lon="-3.967718">
        <ele>2009.546</ele>
        <time>2021-07-29T16:34:44Z</time>
      </trkpt>
      <trkpt lat="40.775219" lon="-3.967685">
        <ele>2009.156</ele>
        <time>2021-07-29T16:34:47Z</time>
      </trkpt>
      <trkpt lat="40.775226" lon="-3.967660">
        <ele>2008.849</ele>
        <time>2021-07-29T16:34:49Z</time>
      </trkpt>
      <trkpt lat="40.775232" lon="-3.967635">
        <ele>2008.428</ele>
        <time>2021-07-29T16:34:51Z</time>
      </trkpt>
      <trkpt lat="40.775242" lon="-3.967606">
        <ele>2008.182</ele>
        <time>2021-07-29T16:34:54Z</time>
      </trkpt>
      <trkpt lat="40.775245" lon="-3.967582">
        <ele>2007.843</ele>
        <time>2021-07-29T16:34:56Z</time>
      </trkpt>
      <trkpt lat="40.775261" lon="-3.967560">
        <ele>2007.717</ele>
        <time>2021-07-29T16:34:59Z</time>
      </trkpt>
      <trkpt lat="40.775277" lon="-3.967543">
        <ele>2007.808</ele>
        <time>2021-07-29T16:35:03Z</time>
      </trkpt>
      <trkpt lat="40.775286" lon="-3.967522">
        <ele>2007.625</ele>
        <time>2021-07-29T16:35:07Z</time>
      </trkpt>
      <trkpt lat="40.775286" lon="-3.967490">
        <ele>2007.097</ele>
        <time>2021-07-29T16:35:10Z</time>
      </trkpt>
      <trkpt lat="40.775302" lon="-3.967473">
        <ele>2006.994</ele>
        <time>2021-07-29T16:35:12Z</time>
      </trkpt>
      <trkpt lat="40.775318" lon="-3.967456">
        <ele>2006.971</ele>
        <time>2021-07-29T16:35:14Z</time>
      </trkpt>
      <trkpt lat="40.775338" lon="-3.967430">
        <ele>2006.842</ele>
        <time>2021-07-29T16:35:17Z</time>
      </trkpt>
      <trkpt lat="40.775347" lon="-3.967397">
        <ele>2006.372</ele>
        <time>2021-07-29T16:35:20Z</time>
      </trkpt>
      <trkpt lat="40.775347" lon="-3.967365">
        <ele>2005.695</ele>
        <time>2021-07-29T16:35:24Z</time>
      </trkpt>
      <trkpt lat="40.775347" lon="-3.967330">
        <ele>2004.864</ele>
        <time>2021-07-29T16:35:28Z</time>
      </trkpt>
      <trkpt lat="40.775360" lon="-3.967298">
        <ele>2004.441</ele>
        <time>2021-07-29T16:35:31Z</time>
      </trkpt>
      <trkpt lat="40.775373" lon="-3.967262">
        <ele>2003.981</ele>
        <time>2021-07-29T16:35:34Z</time>
      </trkpt>
      <trkpt lat="40.775382" lon="-3.967235">
        <ele>2003.509</ele>
        <time>2021-07-29T16:35:36Z</time>
      </trkpt>
      <trkpt lat="40.775392" lon="-3.967208">
        <ele>2003.208</ele>
        <time>2021-07-29T16:35:38Z</time>
      </trkpt>
      <trkpt lat="40.775392" lon="-3.967180">
        <ele>2002.621</ele>
        <time>2021-07-29T16:35:40Z</time>
      </trkpt>
      <trkpt lat="40.775392" lon="-3.967145">
        <ele>2001.933</ele>
        <time>2021-07-29T16:35:43Z</time>
      </trkpt>
      <trkpt lat="40.775386" lon="-3.967112">
        <ele>2001.150</ele>
        <time>2021-07-29T16:35:46Z</time>
      </trkpt>
      <trkpt lat="40.775379" lon="-3.967084">
        <ele>2000.417</ele>
        <time>2021-07-29T16:35:49Z</time>
      </trkpt>
      <trkpt lat="40.775373" lon="-3.967058">
        <ele>1999.748</ele>
        <time>2021-07-29T16:35:51Z</time>
      </trkpt>
      <trkpt lat="40.775360" lon="-3.967032">
        <ele>1998.918</ele>
        <time>2021-07-29T16:35:54Z</time>
      </trkpt>
      <trkpt lat="40.775363" lon="-3.967002">
        <ele>1998.351</ele>
        <time>2021-07-29T16:35:57Z</time>
      </trkpt>
      <trkpt lat="40.775363" lon="-3.966968">
        <ele>1997.660</ele>
        <time>2021-07-29T16:36:01Z</time>
      </trkpt>
      <trkpt lat="40.775360" lon="-3.966940">
        <ele>1997.078</ele>
        <time>2021-07-29T16:36:04Z</time>
      </trkpt>
      <trkpt lat="40.775357" lon="-3.966908">
        <ele>1996.333</ele>
        <time>2021-07-29T16:36:07Z</time>
      </trkpt>
      <trkpt lat="40.775354" lon="-3.966884">
        <ele>1995.826</ele>
        <time>2021-07-29T16:36:09Z</time>
      </trkpt>
      <trkpt lat="40.775344" lon="-3.966858">
        <ele>1995.008</ele>
        <time>2021-07-29T16:36:12Z</time>
      </trkpt>
      <trkpt lat="40.775338" lon="-3.966830">
        <ele>1994.424</ele>
        <time>2021-07-29T16:36:16Z</time>
      </trkpt>
      <trkpt lat="40.775354" lon="-3.966815">
        <ele>1994.576</ele>
        <time>2021-07-29T16:36:19Z</time>
      </trkpt>
      <trkpt lat="40.775354" lon="-3.966780">
        <ele>1993.863</ele>
        <time>2021-07-29T16:36:23Z</time>
      </trkpt>
      <trkpt lat="40.775354" lon="-3.966752">
        <ele>1993.390</ele>
        <time>2021-07-29T16:36:25Z</time>
      </trkpt>
      <trkpt lat="40.775347" lon="-3.966722">
        <ele>1992.561</ele>
        <time>2021-07-29T16:36:28Z</time>
      </trkpt>
      <trkpt lat="40.775334" lon="-3.966692">
        <ele>1991.741</ele>
        <time>2021-07-29T16:36:31Z</time>
      </trkpt>
      <trkpt lat="40.775338" lon="-3.966663">
        <ele>1991.284</ele>
        <time>2021-07-29T16:36:34Z</time>
      </trkpt>
      <trkpt lat="40.775338" lon="-3.966635">
        <ele>1990.833</ele>
        <time>2021-07-29T16:36:37Z</time>
      </trkpt>
      <trkpt lat="40.775341" lon="-3.966602">
        <ele>1990.444</ele>
        <time>2021-07-29T16:36:40Z</time>
      </trkpt>
      <trkpt lat="40.775325" lon="-3.966586">
        <ele>1989.805</ele>
        <time>2021-07-29T16:36:42Z</time>
      </trkpt>
      <trkpt lat="40.775312" lon="-3.966555">
        <ele>1989.115</ele>
        <time>2021-07-29T16:36:46Z</time>
      </trkpt>
      <trkpt lat="40.775312" lon="-3.966525">
        <ele>1988.608</ele>
        <time>2021-07-29T16:36:49Z</time>
      </trkpt>
      <trkpt lat="40.775302" lon="-3.966497">
        <ele>1988.011</ele>
        <time>2021-07-29T16:36:52Z</time>
      </trkpt>
      <trkpt lat="40.775302" lon="-3.966468">
        <ele>1987.683</ele>
        <time>2021-07-29T16:36:54Z</time>
      </trkpt>
      <trkpt lat="40.775299" lon="-3.966443">
        <ele>1987.250</ele>
        <time>2021-07-29T16:36:56Z</time>
      </trkpt>
      <trkpt lat="40.775286" lon="-3.966418">
        <ele>1986.647</ele>
        <time>2021-07-29T16:36:59Z</time>
      </trkpt>
      <trkpt lat="40.775277" lon="-3.966397">
        <ele>1986.128</ele>
        <time>2021-07-29T16:37:02Z</time>
      </trkpt>
      <trkpt lat="40.775280" lon="-3.966372">
        <ele>1985.718</ele>
        <time>2021-07-29T16:37:05Z</time>
      </trkpt>
      <trkpt lat="40.775302" lon="-3.966360">
        <ele>1985.951</ele>
        <time>2021-07-29T16:37:07Z</time>
      </trkpt>
      <trkpt lat="40.775328" lon="-3.966365">
        <ele>1986.570</ele>
        <time>2021-07-29T16:37:11Z</time>
      </trkpt>
      <trkpt lat="40.775341" lon="-3.966342">
        <ele>1986.331</ele>
        <time>2021-07-29T16:37:14Z</time>
      </trkpt>
      <trkpt lat="40.775338" lon="-3.966315">
        <ele>1985.761</ele>
        <time>2021-07-29T16:37:17Z</time>
      </trkpt>
      <trkpt lat="40.775334" lon="-3.966290">
        <ele>1985.207</ele>
        <time>2021-07-29T16:37:19Z</time>
      </trkpt>
      <trkpt lat="40.775325" lon="-3.966262">
        <ele>1984.508</ele>
        <time>2021-07-29T16:37:22Z</time>
      </trkpt>
      <trkpt lat="40.775312" lon="-3.966238">
        <ele>1983.860</ele>
        <time>2021-07-29T16:37:25Z</time>
      </trkpt>
      <trkpt lat="40.775299" lon="-3.966220">
        <ele>1983.372</ele>
        <time>2021-07-29T16:37:27Z</time>
      </trkpt>
      <trkpt lat="40.775312" lon="-3.966202">
        <ele>1983.289</ele>
        <time>2021-07-29T16:37:30Z</time>
      </trkpt>
      <trkpt lat="40.775322" lon="-3.966180">
        <ele>1982.956</ele>
        <time>2021-07-29T16:37:33Z</time>
      </trkpt>
      <trkpt lat="40.775334" lon="-3.966148">
        <ele>1982.537</ele>
        <time>2021-07-29T16:37:36Z</time>
      </trkpt>
      <trkpt lat="40.775334" lon="-3.966118">
        <ele>1981.917</ele>
        <time>2021-07-29T16:37:39Z</time>
      </trkpt>
      <trkpt lat="40.775328" lon="-3.966095">
        <ele>1981.490</ele>
        <time>2021-07-29T16:37:43Z</time>
      </trkpt>
      <trkpt lat="40.775325" lon="-3.966068">
        <ele>1980.729</ele>
        <time>2021-07-29T16:37:47Z</time>
      </trkpt>
      <trkpt lat="40.775328" lon="-3.966045">
        <ele>1980.374</ele>
        <time>2021-07-29T16:37:52Z</time>
      </trkpt>
      <trkpt lat="40.775328" lon="-3.966020">
        <ele>1979.856</ele>
        <time>2021-07-29T16:37:55Z</time>
      </trkpt>
      <trkpt lat="40.775344" lon="-3.965997">
        <ele>1979.521</ele>
        <time>2021-07-29T16:37:57Z</time>
      </trkpt>
      <trkpt lat="40.775347" lon="-3.965972">
        <ele>1979.008</ele>
        <time>2021-07-29T16:38:00Z</time>
      </trkpt>
      <trkpt lat="40.775357" lon="-3.965948">
        <ele>1978.694</ele>
        <time>2021-07-29T16:38:05Z</time>
      </trkpt>
      <trkpt lat="40.775341" lon="-3.965925">
        <ele>1977.996</ele>
        <time>2021-07-29T16:38:09Z</time>
      </trkpt>
      <trkpt lat="40.775334" lon="-3.965898">
        <ele>1977.223</ele>
        <time>2021-07-29T16:38:12Z</time>
      </trkpt>
      <trkpt lat="40.775334" lon="-3.965870">
        <ele>1976.660</ele>
        <time>2021-07-29T16:38:15Z</time>
      </trkpt>
      <trkpt lat="40.775322" lon="-3.965852">
        <ele>1976.091</ele>
        <time>2021-07-29T16:38:17Z</time>
      </trkpt>
      <trkpt lat="40.775296" lon="-3.965838">
        <ele>1975.471</ele>
        <time>2021-07-29T16:38:20Z</time>
      </trkpt>
      <trkpt lat="40.775280" lon="-3.965815">
        <ele>1974.674</ele>
        <time>2021-07-29T16:38:25Z</time>
      </trkpt>
      <trkpt lat="40.775280" lon="-3.965783">
        <ele>1973.943</ele>
        <time>2021-07-29T16:38:28Z</time>
      </trkpt>
      <trkpt lat="40.775280" lon="-3.965757">
        <ele>1973.478</ele>
        <time>2021-07-29T16:38:31Z</time>
      </trkpt>
      <trkpt lat="40.775283" lon="-3.965725">
        <ele>1972.733</ele>
        <time>2021-07-29T16:38:34Z</time>
      </trkpt>
      <trkpt lat="40.775280" lon="-3.965695">
        <ele>1972.026</ele>
        <time>2021-07-29T16:38:37Z</time>
      </trkpt>
      <trkpt lat="40.775267" lon="-3.965667">
        <ele>1971.608</ele>
        <time>2021-07-29T16:38:41Z</time>
      </trkpt>
      <trkpt lat="40.775258" lon="-3.965645">
        <ele>1971.434</ele>
        <time>2021-07-29T16:38:45Z</time>
      </trkpt>
      <trkpt lat="40.775254" lon="-3.965597">
        <ele>1970.596</ele>
        <time>2021-07-29T16:40:11Z</time>
      </trkpt>
      <trkpt lat="40.775254" lon="-3.965558">
        <ele>1969.733</ele>
        <time>2021-07-29T16:40:13Z</time>
      </trkpt>
      <trkpt lat="40.775248" lon="-3.965533">
        <ele>1969.460</ele>
        <time>2021-07-29T16:40:14Z</time>
      </trkpt>
      <trkpt lat="40.775242" lon="-3.965490">
        <ele>1969.021</ele>
        <time>2021-07-29T16:40:16Z</time>
      </trkpt>
      <trkpt lat="40.775242" lon="-3.965465">
        <ele>1968.681</ele>
        <time>2021-07-29T16:40:17Z</time>
      </trkpt>
      <trkpt lat="40.775238" lon="-3.965425">
        <ele>1968.294</ele>
        <time>2021-07-29T16:40:19Z</time>
      </trkpt>
      <trkpt lat="40.775245" lon="-3.965388">
        <ele>1967.563</ele>
        <time>2021-07-29T16:40:21Z</time>
      </trkpt>
      <trkpt lat="40.775261" lon="-3.965373">
        <ele>1966.835</ele>
        <time>2021-07-29T16:40:23Z</time>
      </trkpt>
      <trkpt lat="40.775283" lon="-3.965355">
        <ele>1966.286</ele>
        <time>2021-07-29T16:40:26Z</time>
      </trkpt>
      <trkpt lat="40.775293" lon="-3.965330">
        <ele>1965.914</ele>
        <time>2021-07-29T16:40:29Z</time>
      </trkpt>
      <trkpt lat="40.775296" lon="-3.965305">
        <ele>1965.508</ele>
        <time>2021-07-29T16:40:31Z</time>
      </trkpt>
      <trkpt lat="40.775315" lon="-3.965277">
        <ele>1965.360</ele>
        <time>2021-07-29T16:40:34Z</time>
      </trkpt>
      <trkpt lat="40.775334" lon="-3.965257">
        <ele>1965.152</ele>
        <time>2021-07-29T16:40:38Z</time>
      </trkpt>
      <trkpt lat="40.775354" lon="-3.965252">
        <ele>1965.269</ele>
        <time>2021-07-29T16:40:40Z</time>
      </trkpt>
      <trkpt lat="40.775373" lon="-3.965235">
        <ele>1965.016</ele>
        <time>2021-07-29T16:40:42Z</time>
      </trkpt>
      <trkpt lat="40.775386" lon="-3.965215">
        <ele>1964.747</ele>
        <time>2021-07-29T16:40:45Z</time>
      </trkpt>
      <trkpt lat="40.775405" lon="-3.965217">
        <ele>1964.947</ele>
        <time>2021-07-29T16:40:48Z</time>
      </trkpt>
      <trkpt lat="40.775427" lon="-3.965205">
        <ele>1964.790</ele>
        <time>2021-07-29T16:40:51Z</time>
      </trkpt>
      <trkpt lat="40.775453" lon="-3.965190">
        <ele>1964.579</ele>
        <time>2021-07-29T16:40:54Z</time>
      </trkpt>
      <trkpt lat="40.775462" lon="-3.965163">
        <ele>1964.031</ele>
        <time>2021-07-29T16:40:57Z</time>
      </trkpt>
      <trkpt lat="40.775485" lon="-3.965133">
        <ele>1963.461</ele>
        <time>2021-07-29T16:41:00Z</time>
      </trkpt>
      <trkpt lat="40.775504" lon="-3.965125">
        <ele>1963.207</ele>
        <time>2021-07-29T16:41:02Z</time>
      </trkpt>
      <trkpt lat="40.775523" lon="-3.965115">
        <ele>1962.908</ele>
        <time>2021-07-29T16:41:05Z</time>
      </trkpt>
      <trkpt lat="40.775539" lon="-3.965098">
        <ele>1962.560</ele>
        <time>2021-07-29T16:41:08Z</time>
      </trkpt>
      <trkpt lat="40.775555" lon="-3.965083">
        <ele>1962.122</ele>
        <time>2021-07-29T16:41:10Z</time>
      </trkpt>
      <trkpt lat="40.775562" lon="-3.965058">
        <ele>1961.649</ele>
        <time>2021-07-29T16:41:12Z</time>
      </trkpt>
      <trkpt lat="40.775574" lon="-3.965035">
        <ele>1961.436</ele>
        <time>2021-07-29T16:41:14Z</time>
      </trkpt>
      <trkpt lat="40.775584" lon="-3.965008">
        <ele>1961.017</ele>
        <time>2021-07-29T16:41:16Z</time>
      </trkpt>
      <trkpt lat="40.775597" lon="-3.964984">
        <ele>1961.037</ele>
        <time>2021-07-29T16:41:18Z</time>
      </trkpt>
      <trkpt lat="40.775600" lon="-3.964958">
        <ele>1960.760</ele>
        <time>2021-07-29T16:41:20Z</time>
      </trkpt>
      <trkpt lat="40.775603" lon="-3.964925">
        <ele>1960.379</ele>
        <time>2021-07-29T16:41:22Z</time>
      </trkpt>
      <trkpt lat="40.775600" lon="-3.964897">
        <ele>1959.997</ele>
        <time>2021-07-29T16:41:24Z</time>
      </trkpt>
      <trkpt lat="40.775603" lon="-3.964863">
        <ele>1959.523</ele>
        <time>2021-07-29T16:41:26Z</time>
      </trkpt>
      <trkpt lat="40.775610" lon="-3.964838">
        <ele>1959.325</ele>
        <time>2021-07-29T16:41:28Z</time>
      </trkpt>
      <trkpt lat="40.775610" lon="-3.964813">
        <ele>1959.008</ele>
        <time>2021-07-29T16:41:30Z</time>
      </trkpt>
      <trkpt lat="40.775597" lon="-3.964786">
        <ele>1958.276</ele>
        <time>2021-07-29T16:41:32Z</time>
      </trkpt>
      <trkpt lat="40.775581" lon="-3.964767">
        <ele>1957.558</ele>
        <time>2021-07-29T16:41:34Z</time>
      </trkpt>
      <trkpt lat="40.775571" lon="-3.964743">
        <ele>1956.845</ele>
        <time>2021-07-29T16:41:37Z</time>
      </trkpt>
      <trkpt lat="40.775578" lon="-3.964717">
        <ele>1956.792</ele>
        <time>2021-07-29T16:41:39Z</time>
      </trkpt>
      <trkpt lat="40.775581" lon="-3.964680">
        <ele>1956.423</ele>
        <time>2021-07-29T16:41:42Z</time>
      </trkpt>
      <trkpt lat="40.775578" lon="-3.964656">
        <ele>1956.063</ele>
        <time>2021-07-29T16:41:44Z</time>
      </trkpt>
      <trkpt lat="40.775581" lon="-3.964630">
        <ele>1955.876</ele>
        <time>2021-07-29T16:41:46Z</time>
      </trkpt>
      <trkpt lat="40.775574" lon="-3.964600">
        <ele>1955.235</ele>
        <time>2021-07-29T16:41:48Z</time>
      </trkpt>
      <trkpt lat="40.775565" lon="-3.964570">
        <ele>1954.625</ele>
        <time>2021-07-29T16:41:51Z</time>
      </trkpt>
      <trkpt lat="40.775571" lon="-3.964543">
        <ele>1954.526</ele>
        <time>2021-07-29T16:41:53Z</time>
      </trkpt>
      <trkpt lat="40.775574" lon="-3.964505">
        <ele>1954.208</ele>
        <time>2021-07-29T16:41:56Z</time>
      </trkpt>
      <trkpt lat="40.775584" lon="-3.964478">
        <ele>1954.208</ele>
        <time>2021-07-29T16:41:58Z</time>
      </trkpt>
      <trkpt lat="40.775578" lon="-3.964450">
        <ele>1953.729</ele>
        <time>2021-07-29T16:42:08Z</time>
      </trkpt>
      <trkpt lat="40.775581" lon="-3.964412">
        <ele>1953.121</ele>
        <time>2021-07-29T16:42:11Z</time>
      </trkpt>
      <trkpt lat="40.775584" lon="-3.964378">
        <ele>1952.638</ele>
        <time>2021-07-29T16:42:14Z</time>
      </trkpt>
      <trkpt lat="40.775590" lon="-3.964352">
        <ele>1952.395</ele>
        <time>2021-07-29T16:42:17Z</time>
      </trkpt>
      <trkpt lat="40.775600" lon="-3.964317">
        <ele>1951.986</ele>
        <time>2021-07-29T16:42:20Z</time>
      </trkpt>
      <trkpt lat="40.775610" lon="-3.964294">
        <ele>1951.836</ele>
        <time>2021-07-29T16:42:22Z</time>
      </trkpt>
      <trkpt lat="40.775603" lon="-3.964265">
        <ele>1951.019</ele>
        <time>2021-07-29T16:42:25Z</time>
      </trkpt>
      <trkpt lat="40.775590" lon="-3.964242">
        <ele>1950.368</ele>
        <time>2021-07-29T16:42:29Z</time>
      </trkpt>
      <trkpt lat="40.775590" lon="-3.964217">
        <ele>1949.814</ele>
        <time>2021-07-29T16:42:32Z</time>
      </trkpt>
      <trkpt lat="40.775597" lon="-3.964188">
        <ele>1949.454</ele>
        <time>2021-07-29T16:42:35Z</time>
      </trkpt>
      <trkpt lat="40.775584" lon="-3.964157">
        <ele>1948.509</ele>
        <time>2021-07-29T16:42:39Z</time>
      </trkpt>
      <trkpt lat="40.775584" lon="-3.964126">
        <ele>1947.708</ele>
        <time>2021-07-29T16:42:43Z</time>
      </trkpt>
      <trkpt lat="40.775578" lon="-3.964102">
        <ele>1946.978</ele>
        <time>2021-07-29T16:42:46Z</time>
      </trkpt>
      <trkpt lat="40.775581" lon="-3.964070">
        <ele>1946.270</ele>
        <time>2021-07-29T16:42:49Z</time>
      </trkpt>
      <trkpt lat="40.775590" lon="-3.964040">
        <ele>1945.787</ele>
        <time>2021-07-29T16:42:52Z</time>
      </trkpt>
      <trkpt lat="40.775600" lon="-3.964010">
        <ele>1945.244</ele>
        <time>2021-07-29T16:42:55Z</time>
      </trkpt>
      <trkpt lat="40.775616" lon="-3.963992">
        <ele>1945.185</ele>
        <time>2021-07-29T16:42:58Z</time>
      </trkpt>
      <trkpt lat="40.775632" lon="-3.963968">
        <ele>1944.975</ele>
        <time>2021-07-29T16:43:01Z</time>
      </trkpt>
      <trkpt lat="40.775638" lon="-3.963942">
        <ele>1944.428</ele>
        <time>2021-07-29T16:43:04Z</time>
      </trkpt>
      <trkpt lat="40.775638" lon="-3.963907">
        <ele>1943.597</ele>
        <time>2021-07-29T16:43:09Z</time>
      </trkpt>
      <trkpt lat="40.775651" lon="-3.963882">
        <ele>1943.211</ele>
        <time>2021-07-29T16:43:31Z</time>
      </trkpt>
      <trkpt lat="40.775661" lon="-3.963857">
        <ele>1942.821</ele>
        <time>2021-07-29T16:43:33Z</time>
      </trkpt>
      <trkpt lat="40.775677" lon="-3.963832">
        <ele>1942.403</ele>
        <time>2021-07-29T16:43:35Z</time>
      </trkpt>
      <trkpt lat="40.775690" lon="-3.963812">
        <ele>1942.208</ele>
        <time>2021-07-29T16:43:37Z</time>
      </trkpt>
      <trkpt lat="40.775699" lon="-3.963790">
        <ele>1941.848</ele>
        <time>2021-07-29T16:43:39Z</time>
      </trkpt>
      <trkpt lat="40.775712" lon="-3.963763">
        <ele>1941.310</ele>
        <time>2021-07-29T16:43:42Z</time>
      </trkpt>
      <trkpt lat="40.775725" lon="-3.963740">
        <ele>1940.927</ele>
        <time>2021-07-29T16:43:45Z</time>
      </trkpt>
      <trkpt lat="40.775738" lon="-3.963715">
        <ele>1940.484</ele>
        <time>2021-07-29T16:43:48Z</time>
      </trkpt>
      <trkpt lat="40.775750" lon="-3.963688">
        <ele>1939.885</ele>
        <time>2021-07-29T16:43:51Z</time>
      </trkpt>
      <trkpt lat="40.775770" lon="-3.963662">
        <ele>1939.445</ele>
        <time>2021-07-29T16:43:54Z</time>
      </trkpt>
      <trkpt lat="40.775782" lon="-3.963640">
        <ele>1939.088</ele>
        <time>2021-07-29T16:43:57Z</time>
      </trkpt>
      <trkpt lat="40.775798" lon="-3.963623">
        <ele>1938.737</ele>
        <time>2021-07-29T16:43:59Z</time>
      </trkpt>
      <trkpt lat="40.775818" lon="-3.963620">
        <ele>1939.072</ele>
        <time>2021-07-29T16:44:01Z</time>
      </trkpt>
      <trkpt lat="40.775834" lon="-3.963600">
        <ele>1938.713</ele>
        <time>2021-07-29T16:44:03Z</time>
      </trkpt>
      <trkpt lat="40.775843" lon="-3.963570">
        <ele>1937.914</ele>
        <time>2021-07-29T16:44:06Z</time>
      </trkpt>
      <trkpt lat="40.775859" lon="-3.963552">
        <ele>1937.508</ele>
        <time>2021-07-29T16:44:10Z</time>
      </trkpt>
      <trkpt lat="40.775853" lon="-3.963518">
        <ele>1936.544</ele>
        <time>2021-07-29T16:44:14Z</time>
      </trkpt>
      <trkpt lat="40.775837" lon="-3.963498">
        <ele>1935.826</ele>
        <time>2021-07-29T16:44:17Z</time>
      </trkpt>
      <trkpt lat="40.775840" lon="-3.963470">
        <ele>1935.093</ele>
        <time>2021-07-29T16:44:20Z</time>
      </trkpt>
      <trkpt lat="40.775850" lon="-3.963443">
        <ele>1934.380</ele>
        <time>2021-07-29T16:44:30Z</time>
      </trkpt>
      <trkpt lat="40.775856" lon="-3.963420">
        <ele>1933.781</ele>
        <time>2021-07-29T16:44:33Z</time>
      </trkpt>
      <trkpt lat="40.775872" lon="-3.963403">
        <ele>1933.311</ele>
        <time>2021-07-29T16:44:37Z</time>
      </trkpt>
      <trkpt lat="40.775888" lon="-3.963380">
        <ele>1932.724</ele>
        <time>2021-07-29T16:44:40Z</time>
      </trkpt>
      <trkpt lat="40.775894" lon="-3.963357">
        <ele>1932.123</ele>
        <time>2021-07-29T16:44:44Z</time>
      </trkpt>
      <trkpt lat="40.775891" lon="-3.963323">
        <ele>1931.133</ele>
        <time>2021-07-29T16:44:48Z</time>
      </trkpt>
      <trkpt lat="40.775901" lon="-3.963302">
        <ele>1930.623</ele>
        <time>2021-07-29T16:44:51Z</time>
      </trkpt>
      <trkpt lat="40.775930" lon="-3.963293">
        <ele>1930.615</ele>
        <time>2021-07-29T16:44:54Z</time>
      </trkpt>
      <trkpt lat="40.775952" lon="-3.963297">
        <ele>1930.908</ele>
        <time>2021-07-29T16:44:57Z</time>
      </trkpt>
      <trkpt lat="40.775968" lon="-3.963283">
        <ele>1930.660</ele>
        <time>2021-07-29T16:45:00Z</time>
      </trkpt>
      <trkpt lat="40.775987" lon="-3.963273">
        <ele>1930.532</ele>
        <time>2021-07-29T16:45:02Z</time>
      </trkpt>
      <trkpt lat="40.776010" lon="-3.963265">
        <ele>1930.559</ele>
        <time>2021-07-29T16:45:10Z</time>
      </trkpt>
      <trkpt lat="40.776029" lon="-3.963243">
        <ele>1930.096</ele>
        <time>2021-07-29T16:45:14Z</time>
      </trkpt>
      <trkpt lat="40.776032" lon="-3.963218">
        <ele>1929.467</ele>
        <time>2021-07-29T16:45:17Z</time>
      </trkpt>
      <trkpt lat="40.776032" lon="-3.963194">
        <ele>1928.837</ele>
        <time>2021-07-29T16:45:21Z</time>
      </trkpt>
      <trkpt lat="40.776051" lon="-3.963184">
        <ele>1928.710</ele>
        <time>2021-07-29T16:45:24Z</time>
      </trkpt>
      <trkpt lat="40.776058" lon="-3.963158">
        <ele>1928.119</ele>
        <time>2021-07-29T16:45:28Z</time>
      </trkpt>
      <trkpt lat="40.776070" lon="-3.963142">
        <ele>1927.841</ele>
        <time>2021-07-29T16:45:31Z</time>
      </trkpt>
      <trkpt lat="40.776070" lon="-3.963112">
        <ele>1927.081</ele>
        <time>2021-07-29T16:45:35Z</time>
      </trkpt>
      <trkpt lat="40.776086" lon="-3.963100">
        <ele>1926.909</ele>
        <time>2021-07-29T16:45:37Z</time>
      </trkpt>
      <trkpt lat="40.776093" lon="-3.963073">
        <ele>1926.208</ele>
        <time>2021-07-29T16:45:40Z</time>
      </trkpt>
      <trkpt lat="40.776093" lon="-3.963040">
        <ele>1925.451</ele>
        <time>2021-07-29T16:45:43Z</time>
      </trkpt>
      <trkpt lat="40.776099" lon="-3.963015">
        <ele>1924.833</ele>
        <time>2021-07-29T16:45:45Z</time>
      </trkpt>
      <trkpt lat="40.776109" lon="-3.962985">
        <ele>1924.260</ele>
        <time>2021-07-29T16:45:48Z</time>
      </trkpt>
      <trkpt lat="40.776118" lon="-3.962963">
        <ele>1923.697</ele>
        <time>2021-07-29T16:45:51Z</time>
      </trkpt>
      <trkpt lat="40.776138" lon="-3.962985">
        <ele>1924.118</ele>
        <time>2021-07-29T16:45:54Z</time>
      </trkpt>
      <trkpt lat="40.776157" lon="-3.962982">
        <ele>1923.928</ele>
        <time>2021-07-29T16:45:56Z</time>
      </trkpt>
      <trkpt lat="40.776176" lon="-3.962965">
        <ele>1923.491</ele>
        <time>2021-07-29T16:45:59Z</time>
      </trkpt>
      <trkpt lat="40.776189" lon="-3.962948">
        <ele>1922.990</ele>
        <time>2021-07-29T16:46:01Z</time>
      </trkpt>
      <trkpt lat="40.776211" lon="-3.962928">
        <ele>1922.333</ele>
        <time>2021-07-29T16:46:05Z</time>
      </trkpt>
      <trkpt lat="40.776230" lon="-3.962917">
        <ele>1921.923</ele>
        <time>2021-07-29T16:46:07Z</time>
      </trkpt>
      <trkpt lat="40.776240" lon="-3.962895">
        <ele>1921.215</ele>
        <time>2021-07-29T16:46:10Z</time>
      </trkpt>
      <trkpt lat="40.776269" lon="-3.962880">
        <ele>1920.608</ele>
        <time>2021-07-29T16:46:13Z</time>
      </trkpt>
      <trkpt lat="40.776294" lon="-3.962868">
        <ele>1920.290</ele>
        <time>2021-07-29T16:46:16Z</time>
      </trkpt>
      <trkpt lat="40.776314" lon="-3.962858">
        <ele>1919.842</ele>
        <time>2021-07-29T16:46:18Z</time>
      </trkpt>
      <trkpt lat="40.776333" lon="-3.962850">
        <ele>1919.449</ele>
        <time>2021-07-29T16:46:20Z</time>
      </trkpt>
      <trkpt lat="40.776352" lon="-3.962837">
        <ele>1918.976</ele>
        <time>2021-07-29T16:46:23Z</time>
      </trkpt>
      <trkpt lat="40.776368" lon="-3.962822">
        <ele>1918.497</ele>
        <time>2021-07-29T16:46:25Z</time>
      </trkpt>
      <trkpt lat="40.776378" lon="-3.962800">
        <ele>1917.787</ele>
        <time>2021-07-29T16:46:28Z</time>
      </trkpt>
      <trkpt lat="40.776397" lon="-3.962788">
        <ele>1917.280</ele>
        <time>2021-07-29T16:46:31Z</time>
      </trkpt>
      <trkpt lat="40.776419" lon="-3.962773">
        <ele>1916.439</ele>
        <time>2021-07-29T16:46:34Z</time>
      </trkpt>
      <trkpt lat="40.776438" lon="-3.962778">
        <ele>1916.353</ele>
        <time>2021-07-29T16:46:41Z</time>
      </trkpt>
      <trkpt lat="40.776467" lon="-3.962762">
        <ele>1915.404</ele>
        <time>2021-07-29T16:46:47Z</time>
      </trkpt>
      <trkpt lat="40.776486" lon="-3.962747">
        <ele>1914.614</ele>
        <time>2021-07-29T16:46:50Z</time>
      </trkpt>
      <trkpt lat="40.776496" lon="-3.962726">
        <ele>1913.808</ele>
        <time>2021-07-29T16:46:54Z</time>
      </trkpt>
      <trkpt lat="40.776515" lon="-3.962712">
        <ele>1913.142</ele>
        <time>2021-07-29T16:46:57Z</time>
      </trkpt>
      <trkpt lat="40.776531" lon="-3.962700">
        <ele>1912.434</ele>
        <time>2021-07-29T16:47:00Z</time>
      </trkpt>
      <trkpt lat="40.776547" lon="-3.962685">
        <ele>1911.731</ele>
        <time>2021-07-29T16:47:03Z</time>
      </trkpt>
      <trkpt lat="40.776570" lon="-3.962683">
        <ele>1911.228</ele>
        <time>2021-07-29T16:47:08Z</time>
      </trkpt>
      <trkpt lat="40.776592" lon="-3.962693">
        <ele>1911.279</ele>
        <time>2021-07-29T16:47:11Z</time>
      </trkpt>
      <trkpt lat="40.776611" lon="-3.962692">
        <ele>1910.899</ele>
        <time>2021-07-29T16:47:13Z</time>
      </trkpt>
      <trkpt lat="40.776634" lon="-3.962690">
        <ele>1910.422</ele>
        <time>2021-07-29T16:47:16Z</time>
      </trkpt>
      <trkpt lat="40.776653" lon="-3.962692">
        <ele>1910.111</ele>
        <time>2021-07-29T16:47:19Z</time>
      </trkpt>
      <trkpt lat="40.776675" lon="-3.962693">
        <ele>1909.937</ele>
        <time>2021-07-29T16:47:22Z</time>
      </trkpt>
      <trkpt lat="40.776694" lon="-3.962698">
        <ele>1909.949</ele>
        <time>2021-07-29T16:47:24Z</time>
      </trkpt>
      <trkpt lat="40.776717" lon="-3.962705">
        <ele>1909.913</ele>
        <time>2021-07-29T16:47:26Z</time>
      </trkpt>
      <trkpt lat="40.776736" lon="-3.962723">
        <ele>1910.308</ele>
        <time>2021-07-29T16:47:28Z</time>
      </trkpt>
      <trkpt lat="40.776762" lon="-3.962740">
        <ele>1910.580</ele>
        <time>2021-07-29T16:47:31Z</time>
      </trkpt>
      <trkpt lat="40.776778" lon="-3.962753">
        <ele>1910.762</ele>
        <time>2021-07-29T16:47:33Z</time>
      </trkpt>
      <trkpt lat="40.776803" lon="-3.962755">
        <ele>1910.549</ele>
        <time>2021-07-29T16:47:35Z</time>
      </trkpt>
      <trkpt lat="40.776826" lon="-3.962758">
        <ele>1910.216</ele>
        <time>2021-07-29T16:47:37Z</time>
      </trkpt>
      <trkpt lat="40.776848" lon="-3.962763">
        <ele>1910.147</ele>
        <time>2021-07-29T16:47:39Z</time>
      </trkpt>
      <trkpt lat="40.776870" lon="-3.962767">
        <ele>1909.957</ele>
        <time>2021-07-29T16:47:41Z</time>
      </trkpt>
      <trkpt lat="40.776890" lon="-3.962773">
        <ele>1909.750</ele>
        <time>2021-07-29T16:47:43Z</time>
      </trkpt>
      <trkpt lat="40.776912" lon="-3.962788">
        <ele>1909.979</ele>
        <time>2021-07-29T16:47:46Z</time>
      </trkpt>
      <trkpt lat="40.776934" lon="-3.962810">
        <ele>1910.576</ele>
        <time>2021-07-29T16:47:49Z</time>
      </trkpt>
      <trkpt lat="40.776960" lon="-3.962823">
        <ele>1911.090</ele>
        <time>2021-07-29T16:47:51Z</time>
      </trkpt>
      <trkpt lat="40.776986" lon="-3.962838">
        <ele>1911.719</ele>
        <time>2021-07-29T16:47:54Z</time>
      </trkpt>
      <trkpt lat="40.777005" lon="-3.962842">
        <ele>1911.908</ele>
        <time>2021-07-29T16:47:56Z</time>
      </trkpt>
      <trkpt lat="40.777027" lon="-3.962845">
        <ele>1912.124</ele>
        <time>2021-07-29T16:47:58Z</time>
      </trkpt>
      <trkpt lat="40.777050" lon="-3.962838">
        <ele>1911.856</ele>
        <time>2021-07-29T16:48:00Z</time>
      </trkpt>
      <trkpt lat="40.777069" lon="-3.962837">
        <ele>1911.813</ele>
        <time>2021-07-29T16:48:02Z</time>
      </trkpt>
      <trkpt lat="40.777091" lon="-3.962840">
        <ele>1912.060</ele>
        <time>2021-07-29T16:48:04Z</time>
      </trkpt>
      <trkpt lat="40.777110" lon="-3.962852">
        <ele>1912.531</ele>
        <time>2021-07-29T16:48:06Z</time>
      </trkpt>
      <trkpt lat="40.777130" lon="-3.962864">
        <ele>1913.051</ele>
        <time>2021-07-29T16:48:08Z</time>
      </trkpt>
      <trkpt lat="40.777149" lon="-3.962860">
        <ele>1912.914</ele>
        <time>2021-07-29T16:48:10Z</time>
      </trkpt>
      <trkpt lat="40.777174" lon="-3.962857">
        <ele>1912.833</ele>
        <time>2021-07-29T16:48:12Z</time>
      </trkpt>
      <trkpt lat="40.777194" lon="-3.962864">
        <ele>1913.177</ele>
        <time>2021-07-29T16:48:14Z</time>
      </trkpt>
      <trkpt lat="40.777210" lon="-3.962882">
        <ele>1913.761</ele>
        <time>2021-07-29T16:48:16Z</time>
      </trkpt>
      <trkpt lat="40.777232" lon="-3.962887">
        <ele>1913.927</ele>
        <time>2021-07-29T16:48:18Z</time>
      </trkpt>
      <trkpt lat="40.777251" lon="-3.962890">
        <ele>1914.008</ele>
        <time>2021-07-29T16:48:20Z</time>
      </trkpt>
      <trkpt lat="40.777270" lon="-3.962898">
        <ele>1914.224</ele>
        <time>2021-07-29T16:48:22Z</time>
      </trkpt>
      <trkpt lat="40.777299" lon="-3.962902">
        <ele>1914.246</ele>
        <time>2021-07-29T16:48:24Z</time>
      </trkpt>
      <trkpt lat="40.777318" lon="-3.962898">
        <ele>1914.033</ele>
        <time>2021-07-29T16:48:26Z</time>
      </trkpt>
      <trkpt lat="40.777338" lon="-3.962895">
        <ele>1913.960</ele>
        <time>2021-07-29T16:48:28Z</time>
      </trkpt>
      <trkpt lat="40.777360" lon="-3.962888">
        <ele>1913.661</ele>
        <time>2021-07-29T16:48:30Z</time>
      </trkpt>
      <trkpt lat="40.777379" lon="-3.962884">
        <ele>1913.481</ele>
        <time>2021-07-29T16:48:32Z</time>
      </trkpt>
      <trkpt lat="40.777398" lon="-3.962885">
        <ele>1913.474</ele>
        <time>2021-07-29T16:48:35Z</time>
      </trkpt>
      <trkpt lat="40.777418" lon="-3.962892">
        <ele>1913.553</ele>
        <time>2021-07-29T16:48:37Z</time>
      </trkpt>
      <trkpt lat="40.777437" lon="-3.962893">
        <ele>1913.586</ele>
        <time>2021-07-29T16:48:43Z</time>
      </trkpt>
      <trkpt lat="40.777382" lon="-3.962718">
        <ele>1910.660</ele>
        <time>2021-07-29T18:38:32Z</time>
      </trkpt>
      <trkpt lat="40.777370" lon="-3.962748">
        <ele>1910.326</ele>
        <time>2021-07-29T18:38:36Z</time>
      </trkpt>
      <trkpt lat="40.777386" lon="-3.962777">
        <ele>1910.008</ele>
        <time>2021-07-29T18:38:45Z</time>
      </trkpt>
      <trkpt lat="40.777379" lon="-3.962750">
        <ele>1910.385</ele>
        <time>2021-07-29T18:38:50Z</time>
      </trkpt>
      <trkpt lat="40.777360" lon="-3.962745">
        <ele>1910.327</ele>
        <time>2021-07-29T18:38:54Z</time>
      </trkpt>
      <trkpt lat="40.777338" lon="-3.962753">
        <ele>1910.294</ele>
        <time>2021-07-29T18:39:00Z</time>
      </trkpt>
      <trkpt lat="40.777322" lon="-3.962742">
        <ele>1910.231</ele>
        <time>2021-07-29T18:39:06Z</time>
      </trkpt>
      <trkpt lat="40.777302" lon="-3.962740">
        <ele>1910.212</ele>
        <time>2021-07-29T18:39:11Z</time>
      </trkpt>
      <trkpt lat="40.777283" lon="-3.962728">
        <ele>1910.252</ele>
        <time>2021-07-29T18:39:15Z</time>
      </trkpt>
      <trkpt lat="40.777267" lon="-3.962713">
        <ele>1910.275</ele>
        <time>2021-07-29T18:39:19Z</time>
      </trkpt>
      <trkpt lat="40.777248" lon="-3.962708">
        <ele>1910.124</ele>
        <time>2021-07-29T18:39:23Z</time>
      </trkpt>
      <trkpt lat="40.777226" lon="-3.962696">
        <ele>1910.064</ele>
        <time>2021-07-29T18:39:27Z</time>
      </trkpt>
      <trkpt lat="40.777213" lon="-3.962676">
        <ele>1909.906</ele>
        <time>2021-07-29T18:39:29Z</time>
      </trkpt>
      <trkpt lat="40.777194" lon="-3.962665">
        <ele>1909.716</ele>
        <time>2021-07-29T18:39:31Z</time>
      </trkpt>
      <trkpt lat="40.777168" lon="-3.962648">
        <ele>1909.408</ele>
        <time>2021-07-29T18:39:34Z</time>
      </trkpt>
      <trkpt lat="40.777142" lon="-3.962633">
        <ele>1909.143</ele>
        <time>2021-07-29T18:39:37Z</time>
      </trkpt>
      <trkpt lat="40.777120" lon="-3.962612">
        <ele>1908.865</ele>
        <time>2021-07-29T18:39:40Z</time>
      </trkpt>
      <trkpt lat="40.777101" lon="-3.962602">
        <ele>1908.542</ele>
        <time>2021-07-29T18:39:42Z</time>
      </trkpt>
      <trkpt lat="40.777075" lon="-3.962595">
        <ele>1908.139</ele>
        <time>2021-07-29T18:39:44Z</time>
      </trkpt>
      <trkpt lat="40.777062" lon="-3.962575">
        <ele>1907.730</ele>
        <time>2021-07-29T18:39:47Z</time>
      </trkpt>
      <trkpt lat="40.777046" lon="-3.962557">
        <ele>1907.320</ele>
        <time>2021-07-29T18:39:49Z</time>
      </trkpt>
      <trkpt lat="40.777027" lon="-3.962540">
        <ele>1906.973</ele>
        <time>2021-07-29T18:39:52Z</time>
      </trkpt>
      <trkpt lat="40.777011" lon="-3.962528">
        <ele>1906.562</ele>
        <time>2021-07-29T18:39:54Z</time>
      </trkpt>
      <trkpt lat="40.776995" lon="-3.962517">
        <ele>1906.132</ele>
        <time>2021-07-29T18:39:56Z</time>
      </trkpt>
      <trkpt lat="40.776986" lon="-3.962495">
        <ele>1905.892</ele>
        <time>2021-07-29T18:39:59Z</time>
      </trkpt>
      <trkpt lat="40.776966" lon="-3.962485">
        <ele>1905.511</ele>
        <time>2021-07-29T18:40:01Z</time>
      </trkpt>
      <trkpt lat="40.776947" lon="-3.962485">
        <ele>1905.108</ele>
        <time>2021-07-29T18:40:03Z</time>
      </trkpt>
      <trkpt lat="40.776925" lon="-3.962490">
        <ele>1904.960</ele>
        <time>2021-07-29T18:40:07Z</time>
      </trkpt>
      <trkpt lat="40.776902" lon="-3.962497">
        <ele>1904.752</ele>
        <time>2021-07-29T18:40:10Z</time>
      </trkpt>
      <trkpt lat="40.776883" lon="-3.962494">
        <ele>1904.659</ele>
        <time>2021-07-29T18:40:12Z</time>
      </trkpt>
      <trkpt lat="40.776864" lon="-3.962492">
        <ele>1904.426</ele>
        <time>2021-07-29T18:40:14Z</time>
      </trkpt>
      <trkpt lat="40.776848" lon="-3.962480">
        <ele>1904.337</ele>
        <time>2021-07-29T18:40:16Z</time>
      </trkpt>
      <trkpt lat="40.776832" lon="-3.962468">
        <ele>1904.117</ele>
        <time>2021-07-29T18:40:18Z</time>
      </trkpt>
      <trkpt lat="40.776816" lon="-3.962450">
        <ele>1903.990</ele>
        <time>2021-07-29T18:40:21Z</time>
      </trkpt>
      <trkpt lat="40.776794" lon="-3.962437">
        <ele>1903.749</ele>
        <time>2021-07-29T18:40:23Z</time>
      </trkpt>
      <trkpt lat="40.776771" lon="-3.962430">
        <ele>1903.447</ele>
        <time>2021-07-29T18:40:25Z</time>
      </trkpt>
      <trkpt lat="40.776755" lon="-3.962415">
        <ele>1903.129</ele>
        <time>2021-07-29T18:40:27Z</time>
      </trkpt>
      <trkpt lat="40.776736" lon="-3.962395">
        <ele>1902.721</ele>
        <time>2021-07-29T18:40:29Z</time>
      </trkpt>
      <trkpt lat="40.776730" lon="-3.962365">
        <ele>1902.408</ele>
        <time>2021-07-29T18:40:32Z</time>
      </trkpt>
      <trkpt lat="40.776717" lon="-3.962335">
        <ele>1902.091</ele>
        <time>2021-07-29T18:40:35Z</time>
      </trkpt>
      <trkpt lat="40.776707" lon="-3.962308">
        <ele>1901.643</ele>
        <time>2021-07-29T18:40:38Z</time>
      </trkpt>
      <trkpt lat="40.776691" lon="-3.962285">
        <ele>1901.130</ele>
        <time>2021-07-29T18:40:41Z</time>
      </trkpt>
      <trkpt lat="40.776678" lon="-3.962267">
        <ele>1900.767</ele>
        <time>2021-07-29T18:40:43Z</time>
      </trkpt>
      <trkpt lat="40.776662" lon="-3.962237">
        <ele>1900.198</ele>
        <time>2021-07-29T18:40:46Z</time>
      </trkpt>
      <trkpt lat="40.776646" lon="-3.962212">
        <ele>1899.958</ele>
        <time>2021-07-29T18:40:49Z</time>
      </trkpt>
      <trkpt lat="40.776634" lon="-3.962185">
        <ele>1899.791</ele>
        <time>2021-07-29T18:40:52Z</time>
      </trkpt>
      <trkpt lat="40.776637" lon="-3.962158">
        <ele>1899.690</ele>
        <time>2021-07-29T18:40:55Z</time>
      </trkpt>
      <trkpt lat="40.776634" lon="-3.962125">
        <ele>1899.455</ele>
        <time>2021-07-29T18:40:58Z</time>
      </trkpt>
      <trkpt lat="40.776634" lon="-3.962098">
        <ele>1899.207</ele>
        <time>2021-07-29T18:41:01Z</time>
      </trkpt>
      <trkpt lat="40.776618" lon="-3.962072">
        <ele>1898.917</ele>
        <time>2021-07-29T18:41:04Z</time>
      </trkpt>
      <trkpt lat="40.776614" lon="-3.962040">
        <ele>1898.708</ele>
        <time>2021-07-29T18:41:07Z</time>
      </trkpt>
      <trkpt lat="40.776598" lon="-3.962012">
        <ele>1898.272</ele>
        <time>2021-07-29T18:41:09Z</time>
      </trkpt>
      <trkpt lat="40.776586" lon="-3.961990">
        <ele>1897.944</ele>
        <time>2021-07-29T18:41:11Z</time>
      </trkpt>
      <trkpt lat="40.776570" lon="-3.961968">
        <ele>1897.531</ele>
        <time>2021-07-29T18:41:13Z</time>
      </trkpt>
      <trkpt lat="40.776554" lon="-3.961948">
        <ele>1897.088</ele>
        <time>2021-07-29T18:41:16Z</time>
      </trkpt>
      <trkpt lat="40.776531" lon="-3.961928">
        <ele>1896.589</ele>
        <time>2021-07-29T18:41:18Z</time>
      </trkpt>
      <trkpt lat="40.776515" lon="-3.961902">
        <ele>1896.029</ele>
        <time>2021-07-29T18:41:20Z</time>
      </trkpt>
      <trkpt lat="40.776509" lon="-3.961872">
        <ele>1895.782</ele>
        <time>2021-07-29T18:41:23Z</time>
      </trkpt>
      <trkpt lat="40.776496" lon="-3.961843">
        <ele>1895.291</ele>
        <time>2021-07-29T18:41:27Z</time>
      </trkpt>
      <trkpt lat="40.776490" lon="-3.961820">
        <ele>1894.825</ele>
        <time>2021-07-29T18:41:29Z</time>
      </trkpt>
      <trkpt lat="40.776483" lon="-3.961785">
        <ele>1894.426</ele>
        <time>2021-07-29T18:41:32Z</time>
      </trkpt>
      <trkpt lat="40.776483" lon="-3.961760">
        <ele>1894.208</ele>
        <time>2021-07-29T18:41:34Z</time>
      </trkpt>
      <trkpt lat="40.776483" lon="-3.961727">
        <ele>1893.908</ele>
        <time>2021-07-29T18:41:37Z</time>
      </trkpt>
      <trkpt lat="40.776490" lon="-3.961698">
        <ele>1893.919</ele>
        <time>2021-07-29T18:41:40Z</time>
      </trkpt>
      <trkpt lat="40.776486" lon="-3.961675">
        <ele>1893.681</ele>
        <time>2021-07-29T18:41:43Z</time>
      </trkpt>
      <trkpt lat="40.776477" lon="-3.961653">
        <ele>1893.278</ele>
        <time>2021-07-29T18:41:45Z</time>
      </trkpt>
      <trkpt lat="40.776470" lon="-3.961626">
        <ele>1893.065</ele>
        <time>2021-07-29T18:41:47Z</time>
      </trkpt>
      <trkpt lat="40.776467" lon="-3.961595">
        <ele>1893.066</ele>
        <time>2021-07-29T18:41:50Z</time>
      </trkpt>
      <trkpt lat="40.776458" lon="-3.961567">
        <ele>1892.886</ele>
        <time>2021-07-29T18:41:52Z</time>
      </trkpt>
      <trkpt lat="40.776458" lon="-3.961542">
        <ele>1892.819</ele>
        <time>2021-07-29T18:41:54Z</time>
      </trkpt>
      <trkpt lat="40.776454" lon="-3.961517">
        <ele>1892.868</ele>
        <time>2021-07-29T18:41:56Z</time>
      </trkpt>
      <trkpt lat="40.776454" lon="-3.961490">
        <ele>1892.816</ele>
        <time>2021-07-29T18:41:58Z</time>
      </trkpt>
      <trkpt lat="40.776454" lon="-3.961457">
        <ele>1892.976</ele>
        <time>2021-07-29T18:42:01Z</time>
      </trkpt>
      <trkpt lat="40.776445" lon="-3.961425">
        <ele>1892.713</ele>
        <time>2021-07-29T18:42:04Z</time>
      </trkpt>
      <trkpt lat="40.776432" lon="-3.961400">
        <ele>1892.408</ele>
        <time>2021-07-29T18:42:07Z</time>
      </trkpt>
      <trkpt lat="40.776419" lon="-3.961377">
        <ele>1892.088</ele>
        <time>2021-07-29T18:42:10Z</time>
      </trkpt>
      <trkpt lat="40.776400" lon="-3.961360">
        <ele>1891.540</ele>
        <time>2021-07-29T18:42:12Z</time>
      </trkpt>
      <trkpt lat="40.776384" lon="-3.961333">
        <ele>1891.297</ele>
        <time>2021-07-29T18:42:15Z</time>
      </trkpt>
      <trkpt lat="40.776374" lon="-3.961306">
        <ele>1891.264</ele>
        <time>2021-07-29T18:42:17Z</time>
      </trkpt>
      <trkpt lat="40.776365" lon="-3.961280">
        <ele>1891.245</ele>
        <time>2021-07-29T18:42:19Z</time>
      </trkpt>
      <trkpt lat="40.776355" lon="-3.961258">
        <ele>1891.195</ele>
        <time>2021-07-29T18:42:21Z</time>
      </trkpt>
      <trkpt lat="40.776349" lon="-3.961232">
        <ele>1891.128</ele>
        <time>2021-07-29T18:42:23Z</time>
      </trkpt>
      <trkpt lat="40.776339" lon="-3.961205">
        <ele>1891.047</ele>
        <time>2021-07-29T18:42:25Z</time>
      </trkpt>
      <trkpt lat="40.776333" lon="-3.961178">
        <ele>1890.969</ele>
        <time>2021-07-29T18:42:27Z</time>
      </trkpt>
      <trkpt lat="40.776330" lon="-3.961150">
        <ele>1890.904</ele>
        <time>2021-07-29T18:42:29Z</time>
      </trkpt>
      <trkpt lat="40.776320" lon="-3.961115">
        <ele>1890.824</ele>
        <time>2021-07-29T18:42:32Z</time>
      </trkpt>
      <trkpt lat="40.776314" lon="-3.961078">
        <ele>1890.708</ele>
        <time>2021-07-29T18:42:35Z</time>
      </trkpt>
      <trkpt lat="40.776307" lon="-3.961055">
        <ele>1890.553</ele>
        <time>2021-07-29T18:42:37Z</time>
      </trkpt>
      <trkpt lat="40.776301" lon="-3.961032">
        <ele>1890.435</ele>
        <time>2021-07-29T18:42:39Z</time>
      </trkpt>
      <trkpt lat="40.776285" lon="-3.961002">
        <ele>1890.192</ele>
        <time>2021-07-29T18:42:42Z</time>
      </trkpt>
      <trkpt lat="40.776272" lon="-3.960985">
        <ele>1889.849</ele>
        <time>2021-07-29T18:42:44Z</time>
      </trkpt>
      <trkpt lat="40.776269" lon="-3.960952">
        <ele>1889.720</ele>
        <time>2021-07-29T18:42:47Z</time>
      </trkpt>
      <trkpt lat="40.776266" lon="-3.960928">
        <ele>1889.670</ele>
        <time>2021-07-29T18:42:49Z</time>
      </trkpt>
      <trkpt lat="40.776256" lon="-3.960895">
        <ele>1889.383</ele>
        <time>2021-07-29T18:42:52Z</time>
      </trkpt>
      <trkpt lat="40.776246" lon="-3.960867">
        <ele>1889.052</ele>
        <time>2021-07-29T18:42:55Z</time>
      </trkpt>
      <trkpt lat="40.776230" lon="-3.960843">
        <ele>1888.456</ele>
        <time>2021-07-29T18:42:58Z</time>
      </trkpt>
      <trkpt lat="40.776227" lon="-3.960812">
        <ele>1888.259</ele>
        <time>2021-07-29T18:43:01Z</time>
      </trkpt>
      <trkpt lat="40.776214" lon="-3.960786">
        <ele>1887.614</ele>
        <time>2021-07-29T18:43:03Z</time>
      </trkpt>
      <trkpt lat="40.776202" lon="-3.960762">
        <ele>1887.008</ele>
        <time>2021-07-29T18:43:05Z</time>
      </trkpt>
      <trkpt lat="40.776195" lon="-3.960738">
        <ele>1886.652</ele>
        <time>2021-07-29T18:43:07Z</time>
      </trkpt>
      <trkpt lat="40.776189" lon="-3.960707">
        <ele>1886.164</ele>
        <time>2021-07-29T18:43:10Z</time>
      </trkpt>
      <trkpt lat="40.776189" lon="-3.960675">
        <ele>1885.951</ele>
        <time>2021-07-29T18:43:13Z</time>
      </trkpt>
      <trkpt lat="40.776195" lon="-3.960647">
        <ele>1885.828</ele>
        <time>2021-07-29T18:43:16Z</time>
      </trkpt>
      <trkpt lat="40.776202" lon="-3.960618">
        <ele>1885.819</ele>
        <time>2021-07-29T18:43:19Z</time>
      </trkpt>
      <trkpt lat="40.776218" lon="-3.960600">
        <ele>1886.249</ele>
        <time>2021-07-29T18:43:21Z</time>
      </trkpt>
      <trkpt lat="40.776230" lon="-3.960573">
        <ele>1886.482</ele>
        <time>2021-07-29T18:43:24Z</time>
      </trkpt>
      <trkpt lat="40.776246" lon="-3.960545">
        <ele>1886.821</ele>
        <time>2021-07-29T18:43:27Z</time>
      </trkpt>
      <trkpt lat="40.776259" lon="-3.960520">
        <ele>1887.139</ele>
        <time>2021-07-29T18:43:30Z</time>
      </trkpt>
      <trkpt lat="40.776272" lon="-3.960503">
        <ele>1887.401</ele>
        <time>2021-07-29T18:43:32Z</time>
      </trkpt>
      <trkpt lat="40.776285" lon="-3.960485">
        <ele>1887.821</ele>
        <time>2021-07-29T18:43:34Z</time>
      </trkpt>
      <trkpt lat="40.776291" lon="-3.960457">
        <ele>1887.908</ele>
        <time>2021-07-29T18:43:38Z</time>
      </trkpt>
      <trkpt lat="40.776301" lon="-3.960435">
        <ele>1888.110</ele>
        <time>2021-07-29T18:43:40Z</time>
      </trkpt>
      <trkpt lat="40.776314" lon="-3.960415">
        <ele>1888.542</ele>
        <time>2021-07-29T18:43:42Z</time>
      </trkpt>
      <trkpt lat="40.776320" lon="-3.960390">
        <ele>1888.679</ele>
        <time>2021-07-29T18:43:44Z</time>
      </trkpt>
      <trkpt lat="40.776330" lon="-3.960360">
        <ele>1888.996</ele>
        <time>2021-07-29T18:43:47Z</time>
      </trkpt>
      <trkpt lat="40.776333" lon="-3.960327">
        <ele>1888.877</ele>
        <time>2021-07-29T18:43:50Z</time>
      </trkpt>
      <trkpt lat="40.776336" lon="-3.960297">
        <ele>1888.827</ele>
        <time>2021-07-29T18:43:53Z</time>
      </trkpt>
      <trkpt lat="40.776339" lon="-3.960263">
        <ele>1888.680</ele>
        <time>2021-07-29T18:43:56Z</time>
      </trkpt>
      <trkpt lat="40.776339" lon="-3.960238">
        <ele>1888.359</ele>
        <time>2021-07-29T18:43:58Z</time>
      </trkpt>
      <trkpt lat="40.776352" lon="-3.960210">
        <ele>1888.497</ele>
        <time>2021-07-29T18:44:01Z</time>
      </trkpt>
      <trkpt lat="40.776358" lon="-3.960178">
        <ele>1888.223</ele>
        <time>2021-07-29T18:44:04Z</time>
      </trkpt>
      <trkpt lat="40.776368" lon="-3.960147">
        <ele>1888.225</ele>
        <time>2021-07-29T18:44:07Z</time>
      </trkpt>
      <trkpt lat="40.776374" lon="-3.960115">
        <ele>1888.008</ele>
        <time>2021-07-29T18:44:10Z</time>
      </trkpt>
      <trkpt lat="40.776374" lon="-3.960086">
        <ele>1887.656</ele>
        <time>2021-07-29T18:44:12Z</time>
      </trkpt>
      <trkpt lat="40.776378" lon="-3.960062">
        <ele>1887.488</ele>
        <time>2021-07-29T18:44:15Z</time>
      </trkpt>
      <trkpt lat="40.776387" lon="-3.960037">
        <ele>1887.565</ele>
        <time>2021-07-29T18:44:18Z</time>
      </trkpt>
      <trkpt lat="40.776390" lon="-3.960007">
        <ele>1887.112</ele>
        <time>2021-07-29T18:44:21Z</time>
      </trkpt>
      <trkpt lat="40.776390" lon="-3.959982">
        <ele>1886.873</ele>
        <time>2021-07-29T18:44:24Z</time>
      </trkpt>
      <trkpt lat="40.776387" lon="-3.959948">
        <ele>1886.253</ele>
        <time>2021-07-29T18:44:27Z</time>
      </trkpt>
      <trkpt lat="40.776387" lon="-3.959920">
        <ele>1885.836</ele>
        <time>2021-07-29T18:44:30Z</time>
      </trkpt>
      <trkpt lat="40.776390" lon="-3.959885">
        <ele>1885.445</ele>
        <time>2021-07-29T18:44:33Z</time>
      </trkpt>
      <trkpt lat="40.776387" lon="-3.959860">
        <ele>1884.998</ele>
        <time>2021-07-29T18:44:35Z</time>
      </trkpt>
      <trkpt lat="40.776390" lon="-3.959832">
        <ele>1884.615</ele>
        <time>2021-07-29T18:44:37Z</time>
      </trkpt>
      <trkpt lat="40.776394" lon="-3.959803">
        <ele>1884.326</ele>
        <time>2021-07-29T18:44:39Z</time>
      </trkpt>
      <trkpt lat="40.776397" lon="-3.959777">
        <ele>1884.008</ele>
        <time>2021-07-29T18:44:41Z</time>
      </trkpt>
      <trkpt lat="40.776413" lon="-3.959752">
        <ele>1884.176</ele>
        <time>2021-07-29T18:44:43Z</time>
      </trkpt>
      <trkpt lat="40.776419" lon="-3.959727">
        <ele>1883.938</ele>
        <time>2021-07-29T18:44:45Z</time>
      </trkpt>
      <trkpt lat="40.776429" lon="-3.959695">
        <ele>1883.845</ele>
        <time>2021-07-29T18:44:48Z</time>
      </trkpt>
      <trkpt lat="40.776438" lon="-3.959670">
        <ele>1883.772</ele>
        <time>2021-07-29T18:44:50Z</time>
      </trkpt>
      <trkpt lat="40.776445" lon="-3.959643">
        <ele>1883.583</ele>
        <time>2021-07-29T18:44:53Z</time>
      </trkpt>
      <trkpt lat="40.776451" lon="-3.959617">
        <ele>1883.393</ele>
        <time>2021-07-29T18:44:55Z</time>
      </trkpt>
      <trkpt lat="40.776458" lon="-3.959590">
        <ele>1883.116</ele>
        <time>2021-07-29T18:44:57Z</time>
      </trkpt>
      <trkpt lat="40.776474" lon="-3.959565">
        <ele>1883.285</ele>
        <time>2021-07-29T18:44:59Z</time>
      </trkpt>
      <trkpt lat="40.776474" lon="-3.959533">
        <ele>1882.796</ele>
        <time>2021-07-29T18:45:02Z</time>
      </trkpt>
      <trkpt lat="40.776483" lon="-3.959512">
        <ele>1882.731</ele>
        <time>2021-07-29T18:45:04Z</time>
      </trkpt>
      <trkpt lat="40.776483" lon="-3.959483">
        <ele>1882.324</ele>
        <time>2021-07-29T18:45:07Z</time>
      </trkpt>
      <trkpt lat="40.776474" lon="-3.959460">
        <ele>1881.708</ele>
        <time>2021-07-29T18:45:09Z</time>
      </trkpt>
      <trkpt lat="40.776470" lon="-3.959433">
        <ele>1881.156</ele>
        <time>2021-07-29T18:45:12Z</time>
      </trkpt>
      <trkpt lat="40.776467" lon="-3.959408">
        <ele>1880.718</ele>
        <time>2021-07-29T18:45:15Z</time>
      </trkpt>
      <trkpt lat="40.776467" lon="-3.959383">
        <ele>1880.215</ele>
        <time>2021-07-29T18:45:18Z</time>
      </trkpt>
      <trkpt lat="40.776474" lon="-3.959357">
        <ele>1880.022</ele>
        <time>2021-07-29T18:45:21Z</time>
      </trkpt>
      <trkpt lat="40.776470" lon="-3.959325">
        <ele>1879.443</ele>
        <time>2021-07-29T18:45:25Z</time>
      </trkpt>
      <trkpt lat="40.776470" lon="-3.959300">
        <ele>1879.093</ele>
        <time>2021-07-29T18:45:28Z</time>
      </trkpt>
      <trkpt lat="40.776467" lon="-3.959272">
        <ele>1878.416</ele>
        <time>2021-07-29T18:45:31Z</time>
      </trkpt>
      <trkpt lat="40.776458" lon="-3.959248">
        <ele>1877.815</ele>
        <time>2021-07-29T18:45:33Z</time>
      </trkpt>
      <trkpt lat="40.776454" lon="-3.959220">
        <ele>1877.354</ele>
        <time>2021-07-29T18:45:36Z</time>
      </trkpt>
      <trkpt lat="40.776454" lon="-3.959188">
        <ele>1876.856</ele>
        <time>2021-07-29T18:45:39Z</time>
      </trkpt>
      <trkpt lat="40.776464" lon="-3.959155">
        <ele>1876.411</ele>
        <time>2021-07-29T18:45:42Z</time>
      </trkpt>
      <trkpt lat="40.776454" lon="-3.959127">
        <ele>1875.808</ele>
        <time>2021-07-29T18:45:45Z</time>
      </trkpt>
      <trkpt lat="40.776448" lon="-3.959093">
        <ele>1875.122</ele>
        <time>2021-07-29T18:45:48Z</time>
      </trkpt>
      <trkpt lat="40.776464" lon="-3.959068">
        <ele>1875.014</ele>
        <time>2021-07-29T18:45:51Z</time>
      </trkpt>
      <trkpt lat="40.776477" lon="-3.959036">
        <ele>1874.781</ele>
        <time>2021-07-29T18:45:54Z</time>
      </trkpt>
      <trkpt lat="40.776493" lon="-3.959022">
        <ele>1874.838</ele>
        <time>2021-07-29T18:45:56Z</time>
      </trkpt>
      <trkpt lat="40.776515" lon="-3.959007">
        <ele>1874.999</ele>
        <time>2021-07-29T18:45:58Z</time>
      </trkpt>
      <trkpt lat="40.776531" lon="-3.958987">
        <ele>1874.819</ele>
        <time>2021-07-29T18:46:00Z</time>
      </trkpt>
      <trkpt lat="40.776544" lon="-3.958960">
        <ele>1874.572</ele>
        <time>2021-07-29T18:46:02Z</time>
      </trkpt>
      <trkpt lat="40.776557" lon="-3.958937">
        <ele>1874.321</ele>
        <time>2021-07-29T18:46:04Z</time>
      </trkpt>
      <trkpt lat="40.776573" lon="-3.958915">
        <ele>1874.256</ele>
        <time>2021-07-29T18:46:06Z</time>
      </trkpt>
      <trkpt lat="40.776598" lon="-3.958900">
        <ele>1874.259</ele>
        <time>2021-07-29T18:46:08Z</time>
      </trkpt>
      <trkpt lat="40.776598" lon="-3.958870">
        <ele>1873.614</ele>
        <time>2021-07-29T18:46:11Z</time>
      </trkpt>
      <trkpt lat="40.776608" lon="-3.958832">
        <ele>1873.008</ele>
        <time>2021-07-29T18:46:14Z</time>
      </trkpt>
      <trkpt lat="40.776611" lon="-3.958807">
        <ele>1872.532</ele>
        <time>2021-07-29T18:46:16Z</time>
      </trkpt>
      <trkpt lat="40.776614" lon="-3.958775">
        <ele>1871.954</ele>
        <time>2021-07-29T18:46:19Z</time>
      </trkpt>
      <trkpt lat="40.776605" lon="-3.958748">
        <ele>1871.271</ele>
        <time>2021-07-29T18:46:21Z</time>
      </trkpt>
      <trkpt lat="40.776592" lon="-3.958730">
        <ele>1870.628</ele>
        <time>2021-07-29T18:46:22Z</time>
      </trkpt>
      <trkpt lat="40.776573" lon="-3.958707">
        <ele>1869.969</ele>
        <time>2021-07-29T18:46:24Z</time>
      </trkpt>
      <trkpt lat="40.776563" lon="-3.958685">
        <ele>1869.449</ele>
        <time>2021-07-29T18:46:27Z</time>
      </trkpt>
      <trkpt lat="40.776547" lon="-3.958667">
        <ele>1868.832</ele>
        <time>2021-07-29T18:46:30Z</time>
      </trkpt>
      <trkpt lat="40.776534" lon="-3.958637">
        <ele>1868.151</ele>
        <time>2021-07-29T18:46:33Z</time>
      </trkpt>
      <trkpt lat="40.776515" lon="-3.958617">
        <ele>1867.554</ele>
        <time>2021-07-29T18:46:35Z</time>
      </trkpt>
      <trkpt lat="40.776512" lon="-3.958590">
        <ele>1866.956</ele>
        <time>2021-07-29T18:46:38Z</time>
      </trkpt>
      <trkpt lat="40.776515" lon="-3.958555">
        <ele>1866.211</ele>
        <time>2021-07-29T18:46:41Z</time>
      </trkpt>
      <trkpt lat="40.776515" lon="-3.958527">
        <ele>1865.508</ele>
        <time>2021-07-29T18:46:43Z</time>
      </trkpt>
      <trkpt lat="40.776512" lon="-3.958502">
        <ele>1865.062</ele>
        <time>2021-07-29T18:46:45Z</time>
      </trkpt>
      <trkpt lat="40.776515" lon="-3.958465">
        <ele>1864.214</ele>
        <time>2021-07-29T18:46:48Z</time>
      </trkpt>
      <trkpt lat="40.776518" lon="-3.958440">
        <ele>1863.711</ele>
        <time>2021-07-29T18:46:50Z</time>
      </trkpt>
      <trkpt lat="40.776518" lon="-3.958403">
        <ele>1862.988</ele>
        <time>2021-07-29T18:46:53Z</time>
      </trkpt>
      <trkpt lat="40.776518" lon="-3.958377">
        <ele>1862.329</ele>
        <time>2021-07-29T18:46:55Z</time>
      </trkpt>
      <trkpt lat="40.776512" lon="-3.958345">
        <ele>1861.669</ele>
        <time>2021-07-29T18:46:58Z</time>
      </trkpt>
      <trkpt lat="40.776496" lon="-3.958324">
        <ele>1861.012</ele>
        <time>2021-07-29T18:47:00Z</time>
      </trkpt>
      <trkpt lat="40.776490" lon="-3.958298">
        <ele>1860.511</ele>
        <time>2021-07-29T18:47:02Z</time>
      </trkpt>
      <trkpt lat="40.776486" lon="-3.958274">
        <ele>1860.169</ele>
        <time>2021-07-29T18:47:04Z</time>
      </trkpt>
      <trkpt lat="40.776486" lon="-3.958248">
        <ele>1859.604</ele>
        <time>2021-07-29T18:47:06Z</time>
      </trkpt>
      <trkpt lat="40.776496" lon="-3.958222">
        <ele>1859.324</ele>
        <time>2021-07-29T18:47:09Z</time>
      </trkpt>
      <trkpt lat="40.776496" lon="-3.958197">
        <ele>1858.908</ele>
        <time>2021-07-29T18:47:11Z</time>
      </trkpt>
      <trkpt lat="40.776496" lon="-3.958163">
        <ele>1858.373</ele>
        <time>2021-07-29T18:47:13Z</time>
      </trkpt>
      <trkpt lat="40.776499" lon="-3.958133">
        <ele>1857.945</ele>
        <time>2021-07-29T18:47:15Z</time>
      </trkpt>
      <trkpt lat="40.776506" lon="-3.958094">
        <ele>1857.382</ele>
        <time>2021-07-29T18:47:18Z</time>
      </trkpt>
      <trkpt lat="40.776515" lon="-3.958067">
        <ele>1857.019</ele>
        <time>2021-07-29T18:47:20Z</time>
      </trkpt>
      <trkpt lat="40.776515" lon="-3.958035">
        <ele>1856.540</ele>
        <time>2021-07-29T18:47:23Z</time>
      </trkpt>
      <trkpt lat="40.776512" lon="-3.958005">
        <ele>1855.950</ele>
        <time>2021-07-29T18:47:26Z</time>
      </trkpt>
      <trkpt lat="40.776506" lon="-3.957975">
        <ele>1855.453</ele>
        <time>2021-07-29T18:47:29Z</time>
      </trkpt>
      <trkpt lat="40.776499" lon="-3.957944">
        <ele>1854.782</ele>
        <time>2021-07-29T18:47:33Z</time>
      </trkpt>
      <trkpt lat="40.776490" lon="-3.957920">
        <ele>1854.231</ele>
        <time>2021-07-29T18:47:37Z</time>
      </trkpt>
      <trkpt lat="40.776490" lon="-3.957893">
        <ele>1853.761</ele>
        <time>2021-07-29T18:47:40Z</time>
      </trkpt>
      <trkpt lat="40.776493" lon="-3.957868">
        <ele>1853.407</ele>
        <time>2021-07-29T18:47:42Z</time>
      </trkpt>
      <trkpt lat="40.776490" lon="-3.957842">
        <ele>1852.908</ele>
        <time>2021-07-29T18:47:44Z</time>
      </trkpt>
      <trkpt lat="40.776486" lon="-3.957808">
        <ele>1852.390</ele>
        <time>2021-07-29T18:47:47Z</time>
      </trkpt>
      <trkpt lat="40.776490" lon="-3.957773">
        <ele>1851.732</ele>
        <time>2021-07-29T18:47:50Z</time>
      </trkpt>
      <trkpt lat="40.776486" lon="-3.957748">
        <ele>1851.249</ele>
        <time>2021-07-29T18:47:53Z</time>
      </trkpt>
      <trkpt lat="40.776474" lon="-3.957728">
        <ele>1850.686</ele>
        <time>2021-07-29T18:47:55Z</time>
      </trkpt>
      <trkpt lat="40.776467" lon="-3.957702">
        <ele>1849.987</ele>
        <time>2021-07-29T18:47:58Z</time>
      </trkpt>
      <trkpt lat="40.776464" lon="-3.957673">
        <ele>1849.337</ele>
        <time>2021-07-29T18:48:00Z</time>
      </trkpt>
      <trkpt lat="40.776454" lon="-3.957648">
        <ele>1848.660</ele>
        <time>2021-07-29T18:48:02Z</time>
      </trkpt>
      <trkpt lat="40.776448" lon="-3.957617">
        <ele>1847.829</ele>
        <time>2021-07-29T18:48:05Z</time>
      </trkpt>
      <trkpt lat="40.776448" lon="-3.957584">
        <ele>1847.294</ele>
        <time>2021-07-29T18:48:08Z</time>
      </trkpt>
      <trkpt lat="40.776458" lon="-3.957553">
        <ele>1846.857</ele>
        <time>2021-07-29T18:48:11Z</time>
      </trkpt>
      <trkpt lat="40.776470" lon="-3.957527">
        <ele>1846.622</ele>
        <time>2021-07-29T18:48:14Z</time>
      </trkpt>
      <trkpt lat="40.776483" lon="-3.957497">
        <ele>1846.308</ele>
        <time>2021-07-29T18:48:17Z</time>
      </trkpt>
      <trkpt lat="40.776490" lon="-3.957473">
        <ele>1846.246</ele>
        <time>2021-07-29T18:48:19Z</time>
      </trkpt>
      <trkpt lat="40.776496" lon="-3.957445">
        <ele>1846.058</ele>
        <time>2021-07-29T18:48:23Z</time>
      </trkpt>
      <trkpt lat="40.776493" lon="-3.957415">
        <ele>1845.515</ele>
        <time>2021-07-29T18:48:26Z</time>
      </trkpt>
      <trkpt lat="40.776490" lon="-3.957385">
        <ele>1845.092</ele>
        <time>2021-07-29T18:48:29Z</time>
      </trkpt>
      <trkpt lat="40.776486" lon="-3.957352">
        <ele>1844.523</ele>
        <time>2021-07-29T18:48:32Z</time>
      </trkpt>
      <trkpt lat="40.776470" lon="-3.957325">
        <ele>1843.783</ele>
        <time>2021-07-29T18:48:35Z</time>
      </trkpt>
      <trkpt lat="40.776451" lon="-3.957302">
        <ele>1842.996</ele>
        <time>2021-07-29T18:48:38Z</time>
      </trkpt>
      <trkpt lat="40.776432" lon="-3.957286">
        <ele>1842.145</ele>
        <time>2021-07-29T18:48:41Z</time>
      </trkpt>
      <trkpt lat="40.776432" lon="-3.957260">
        <ele>1841.835</ele>
        <time>2021-07-29T18:48:44Z</time>
      </trkpt>
      <trkpt lat="40.776435" lon="-3.957232">
        <ele>1841.586</ele>
        <time>2021-07-29T18:48:46Z</time>
      </trkpt>
      <trkpt lat="40.776438" lon="-3.957207">
        <ele>1841.314</ele>
        <time>2021-07-29T18:48:48Z</time>
      </trkpt>
      <trkpt lat="40.776445" lon="-3.957178">
        <ele>1841.308</ele>
        <time>2021-07-29T18:48:50Z</time>
      </trkpt>
      <trkpt lat="40.776454" lon="-3.957145">
        <ele>1841.390</ele>
        <time>2021-07-29T18:48:52Z</time>
      </trkpt>
      <trkpt lat="40.776454" lon="-3.957117">
        <ele>1841.042</ele>
        <time>2021-07-29T18:48:54Z</time>
      </trkpt>
      <trkpt lat="40.776451" lon="-3.957088">
        <ele>1840.749</ele>
        <time>2021-07-29T18:48:56Z</time>
      </trkpt>
      <trkpt lat="40.776448" lon="-3.957056">
        <ele>1840.466</ele>
        <time>2021-07-29T18:48:58Z</time>
      </trkpt>
      <trkpt lat="40.776445" lon="-3.957022">
        <ele>1840.017</ele>
        <time>2021-07-29T18:49:01Z</time>
      </trkpt>
      <trkpt lat="40.776435" lon="-3.956997">
        <ele>1839.647</ele>
        <time>2021-07-29T18:49:03Z</time>
      </trkpt>
      <trkpt lat="40.776432" lon="-3.956963">
        <ele>1839.230</ele>
        <time>2021-07-29T18:49:06Z</time>
      </trkpt>
      <trkpt lat="40.776429" lon="-3.956935">
        <ele>1838.979</ele>
        <time>2021-07-29T18:49:08Z</time>
      </trkpt>
      <trkpt lat="40.776416" lon="-3.956912">
        <ele>1838.483</ele>
        <time>2021-07-29T18:49:10Z</time>
      </trkpt>
      <trkpt lat="40.776400" lon="-3.956894">
        <ele>1837.925</ele>
        <time>2021-07-29T18:49:12Z</time>
      </trkpt>
      <trkpt lat="40.776397" lon="-3.956867">
        <ele>1837.617</ele>
        <time>2021-07-29T18:49:15Z</time>
      </trkpt>
      <trkpt lat="40.776387" lon="-3.956840">
        <ele>1837.208</ele>
        <time>2021-07-29T18:49:18Z</time>
      </trkpt>
      <trkpt lat="40.776374" lon="-3.956812">
        <ele>1836.725</ele>
        <time>2021-07-29T18:49:21Z</time>
      </trkpt>
      <trkpt lat="40.776374" lon="-3.956780">
        <ele>1836.437</ele>
        <time>2021-07-29T18:49:24Z</time>
      </trkpt>
      <trkpt lat="40.776374" lon="-3.956746">
        <ele>1836.294</ele>
        <time>2021-07-29T18:49:27Z</time>
      </trkpt>
      <trkpt lat="40.776387" lon="-3.956728">
        <ele>1836.441</ele>
        <time>2021-07-29T18:49:29Z</time>
      </trkpt>
      <trkpt lat="40.776390" lon="-3.956718">
        <ele>1836.432</ele>
        <time>2021-07-29T18:49:30Z</time>
      </trkpt>
      <trkpt lat="40.776432" lon="-3.956643">
        <ele>1836.852</ele>
        <time>2021-07-29T18:49:36Z</time>
      </trkpt>
      <trkpt lat="40.776416" lon="-3.956627">
        <ele>1836.375</ele>
        <time>2021-07-29T18:49:38Z</time>
      </trkpt>
      <trkpt lat="40.776413" lon="-3.956602">
        <ele>1836.124</ele>
        <time>2021-07-29T18:49:40Z</time>
      </trkpt>
      <trkpt lat="40.776406" lon="-3.956578">
        <ele>1835.727</ele>
        <time>2021-07-29T18:49:42Z</time>
      </trkpt>
      <trkpt lat="40.776406" lon="-3.956554">
        <ele>1835.668</ele>
        <time>2021-07-29T18:49:44Z</time>
      </trkpt>
      <trkpt lat="40.776400" lon="-3.956528">
        <ele>1835.214</ele>
        <time>2021-07-29T18:49:46Z</time>
      </trkpt>
      <trkpt lat="40.776378" lon="-3.956500">
        <ele>1834.508</ele>
        <time>2021-07-29T18:49:48Z</time>
      </trkpt>
      <trkpt lat="40.776358" lon="-3.956485">
        <ele>1833.789</ele>
        <time>2021-07-29T18:49:50Z</time>
      </trkpt>
      <trkpt lat="40.776346" lon="-3.956468">
        <ele>1833.231</ele>
        <time>2021-07-29T18:49:52Z</time>
      </trkpt>
      <trkpt lat="40.776333" lon="-3.956445">
        <ele>1832.628</ele>
        <time>2021-07-29T18:49:54Z</time>
      </trkpt>
      <trkpt lat="40.776326" lon="-3.956422">
        <ele>1832.265</ele>
        <time>2021-07-29T18:49:56Z</time>
      </trkpt>
      <trkpt lat="40.776310" lon="-3.956392">
        <ele>1831.546</ele>
        <time>2021-07-29T18:49:58Z</time>
      </trkpt>
      <trkpt lat="40.776291" lon="-3.956373">
        <ele>1830.786</ele>
        <time>2021-07-29T18:50:00Z</time>
      </trkpt>
      <trkpt lat="40.776275" lon="-3.956344">
        <ele>1830.169</ele>
        <time>2021-07-29T18:50:03Z</time>
      </trkpt>
      <trkpt lat="40.776266" lon="-3.956315">
        <ele>1829.688</ele>
        <time>2021-07-29T18:50:05Z</time>
      </trkpt>
      <trkpt lat="40.776240" lon="-3.956293">
        <ele>1828.763</ele>
        <time>2021-07-29T18:50:08Z</time>
      </trkpt>
      <trkpt lat="40.776218" lon="-3.956283">
        <ele>1827.944</ele>
        <time>2021-07-29T18:50:10Z</time>
      </trkpt>
      <trkpt lat="40.776198" lon="-3.956267">
        <ele>1827.218</ele>
        <time>2021-07-29T18:50:13Z</time>
      </trkpt>
      <trkpt lat="40.776186" lon="-3.956238">
        <ele>1826.708</ele>
        <time>2021-07-29T18:50:16Z</time>
      </trkpt>
      <trkpt lat="40.776173" lon="-3.956217">
        <ele>1826.213</ele>
        <time>2021-07-29T18:50:18Z</time>
      </trkpt>
      <trkpt lat="40.776160" lon="-3.956195">
        <ele>1825.815</ele>
        <time>2021-07-29T18:50:20Z</time>
      </trkpt>
      <trkpt lat="40.776150" lon="-3.956174">
        <ele>1825.452</ele>
        <time>2021-07-29T18:50:22Z</time>
      </trkpt>
      <trkpt lat="40.776134" lon="-3.956158">
        <ele>1824.829</ele>
        <time>2021-07-29T18:50:24Z</time>
      </trkpt>
      <trkpt lat="40.776118" lon="-3.956135">
        <ele>1824.390</ele>
        <time>2021-07-29T18:50:27Z</time>
      </trkpt>
      <trkpt lat="40.776112" lon="-3.956108">
        <ele>1824.070</ele>
        <time>2021-07-29T18:50:29Z</time>
      </trkpt>
      <trkpt lat="40.776099" lon="-3.956092">
        <ele>1823.963</ele>
        <time>2021-07-29T18:50:31Z</time>
      </trkpt>
      <trkpt lat="40.776080" lon="-3.956080">
        <ele>1823.792</ele>
        <time>2021-07-29T18:50:33Z</time>
      </trkpt>
      <trkpt lat="40.776067" lon="-3.956063">
        <ele>1823.527</ele>
        <time>2021-07-29T18:50:35Z</time>
      </trkpt>
      <trkpt lat="40.776051" lon="-3.956043">
        <ele>1823.368</ele>
        <time>2021-07-29T18:50:37Z</time>
      </trkpt>
      <trkpt lat="40.776032" lon="-3.956023">
        <ele>1823.114</ele>
        <time>2021-07-29T18:50:39Z</time>
      </trkpt>
      <trkpt lat="40.776019" lon="-3.956006">
        <ele>1822.908</ele>
        <time>2021-07-29T18:50:41Z</time>
      </trkpt>
      <trkpt lat="40.776013" lon="-3.955980">
        <ele>1822.959</ele>
        <time>2021-07-29T18:50:43Z</time>
      </trkpt>
      <trkpt lat="40.776000" lon="-3.955947">
        <ele>1822.841</ele>
        <time>2021-07-29T18:50:46Z</time>
      </trkpt>
      <trkpt lat="40.775987" lon="-3.955927">
        <ele>1822.698</ele>
        <time>2021-07-29T18:50:48Z</time>
      </trkpt>
      <trkpt lat="40.775968" lon="-3.955908">
        <ele>1822.365</ele>
        <time>2021-07-29T18:50:50Z</time>
      </trkpt>
      <trkpt lat="40.775955" lon="-3.955887">
        <ele>1822.196</ele>
        <time>2021-07-29T18:50:52Z</time>
      </trkpt>
      <trkpt lat="40.775939" lon="-3.955862">
        <ele>1821.916</ele>
        <time>2021-07-29T18:50:54Z</time>
      </trkpt>
      <trkpt lat="40.775930" lon="-3.955837">
        <ele>1821.779</ele>
        <time>2021-07-29T18:50:56Z</time>
      </trkpt>
      <trkpt lat="40.775917" lon="-3.955812">
        <ele>1821.638</ele>
        <time>2021-07-29T18:50:58Z</time>
      </trkpt>
      <trkpt lat="40.775901" lon="-3.955795">
        <ele>1821.541</ele>
        <time>2021-07-29T18:51:00Z</time>
      </trkpt>
      <trkpt lat="40.775882" lon="-3.955770">
        <ele>1821.381</ele>
        <time>2021-07-29T18:51:03Z</time>
      </trkpt>
      <trkpt lat="40.775862" lon="-3.955748">
        <ele>1821.109</ele>
        <time>2021-07-29T18:51:10Z</time>
      </trkpt>
      <trkpt lat="40.775843" lon="-3.955722">
        <ele>1821.008</ele>
        <time>2021-07-29T18:51:13Z</time>
      </trkpt>
      <trkpt lat="40.775830" lon="-3.955692">
        <ele>1821.021</ele>
        <time>2021-07-29T18:51:15Z</time>
      </trkpt>
      <trkpt lat="40.775814" lon="-3.955680">
        <ele>1821.043</ele>
        <time>2021-07-29T18:51:17Z</time>
      </trkpt>
      <trkpt lat="40.775792" lon="-3.955672">
        <ele>1821.080</ele>
        <time>2021-07-29T18:51:19Z</time>
      </trkpt>
      <trkpt lat="40.775763" lon="-3.955662">
        <ele>1820.987</ele>
        <time>2021-07-29T18:51:21Z</time>
      </trkpt>
      <trkpt lat="40.775738" lon="-3.955660">
        <ele>1820.898</ele>
        <time>2021-07-29T18:51:23Z</time>
      </trkpt>
      <trkpt lat="40.775718" lon="-3.955668">
        <ele>1820.718</ele>
        <time>2021-07-29T18:51:26Z</time>
      </trkpt>
      <trkpt lat="40.775699" lon="-3.955675">
        <ele>1820.621</ele>
        <time>2021-07-29T18:51:29Z</time>
      </trkpt>
      <trkpt lat="40.775680" lon="-3.955673">
        <ele>1820.510</ele>
        <time>2021-07-29T18:51:31Z</time>
      </trkpt>
      <trkpt lat="40.775661" lon="-3.955668">
        <ele>1820.514</ele>
        <time>2021-07-29T18:51:33Z</time>
      </trkpt>
      <trkpt lat="40.775635" lon="-3.955655">
        <ele>1820.454</ele>
        <time>2021-07-29T18:51:36Z</time>
      </trkpt>
      <trkpt lat="40.775613" lon="-3.955640">
        <ele>1820.309</ele>
        <time>2021-07-29T18:51:39Z</time>
      </trkpt>
      <trkpt lat="40.775597" lon="-3.955628">
        <ele>1820.208</ele>
        <time>2021-07-29T18:51:41Z</time>
      </trkpt>
      <trkpt lat="40.775581" lon="-3.955608">
        <ele>1820.118</ele>
        <time>2021-07-29T18:51:44Z</time>
      </trkpt>
      <trkpt lat="40.775562" lon="-3.955597">
        <ele>1820.030</ele>
        <time>2021-07-29T18:51:47Z</time>
      </trkpt>
      <trkpt lat="40.775542" lon="-3.955597">
        <ele>1819.697</ele>
        <time>2021-07-29T18:51:51Z</time>
      </trkpt>
      <trkpt lat="40.775523" lon="-3.955608">
        <ele>1819.184</ele>
        <time>2021-07-29T18:51:54Z</time>
      </trkpt>
      <trkpt lat="40.775504" lon="-3.955617">
        <ele>1818.635</ele>
        <time>2021-07-29T18:51:57Z</time>
      </trkpt>
      <trkpt lat="40.775485" lon="-3.955618">
        <ele>1818.165</ele>
        <time>2021-07-29T18:51:59Z</time>
      </trkpt>
      <trkpt lat="40.775462" lon="-3.955607">
        <ele>1817.588</ele>
        <time>2021-07-29T18:52:01Z</time>
      </trkpt>
      <trkpt lat="40.775446" lon="-3.955592">
        <ele>1817.087</ele>
        <time>2021-07-29T18:52:03Z</time>
      </trkpt>
      <trkpt lat="40.775424" lon="-3.955583">
        <ele>1816.427</ele>
        <time>2021-07-29T18:52:05Z</time>
      </trkpt>
      <trkpt lat="40.775402" lon="-3.955572">
        <ele>1815.768</ele>
        <time>2021-07-29T18:52:07Z</time>
      </trkpt>
      <trkpt lat="40.775386" lon="-3.955555">
        <ele>1815.114</ele>
        <time>2021-07-29T18:52:11Z</time>
      </trkpt>
      <trkpt lat="40.775363" lon="-3.955548">
        <ele>1814.508</ele>
        <time>2021-07-29T18:52:14Z</time>
      </trkpt>
      <trkpt lat="40.775344" lon="-3.955540">
        <ele>1814.079</ele>
        <time>2021-07-29T18:52:18Z</time>
      </trkpt>
      <trkpt lat="40.775325" lon="-3.955520">
        <ele>1813.771</ele>
        <time>2021-07-29T18:52:21Z</time>
      </trkpt>
      <trkpt lat="40.775315" lon="-3.955498">
        <ele>1813.638</ele>
        <time>2021-07-29T18:52:23Z</time>
      </trkpt>
      <trkpt lat="40.775299" lon="-3.955472">
        <ele>1813.465</ele>
        <time>2021-07-29T18:52:26Z</time>
      </trkpt>
      <trkpt lat="40.775280" lon="-3.955467">
        <ele>1813.026</ele>
        <time>2021-07-29T18:52:28Z</time>
      </trkpt>
      <trkpt lat="40.775258" lon="-3.955464">
        <ele>1812.866</ele>
        <time>2021-07-29T18:52:31Z</time>
      </trkpt>
      <trkpt lat="40.775238" lon="-3.955458">
        <ele>1812.689</ele>
        <time>2021-07-29T18:52:33Z</time>
      </trkpt>
      <trkpt lat="40.775222" lon="-3.955443">
        <ele>1812.628</ele>
        <time>2021-07-29T18:52:36Z</time>
      </trkpt>
      <trkpt lat="40.775216" lon="-3.955418">
        <ele>1812.793</ele>
        <time>2021-07-29T18:52:42Z</time>
      </trkpt>
      <trkpt lat="40.775213" lon="-3.955395">
        <ele>1812.965</ele>
        <time>2021-07-29T18:52:44Z</time>
      </trkpt>
      <trkpt lat="40.775197" lon="-3.955382">
        <ele>1812.721</ele>
        <time>2021-07-29T18:52:46Z</time>
      </trkpt>
      <trkpt lat="40.775178" lon="-3.955378">
        <ele>1812.508</ele>
        <time>2021-07-29T18:52:49Z</time>
      </trkpt>
      <trkpt lat="40.775155" lon="-3.955362">
        <ele>1812.326</ele>
        <time>2021-07-29T18:52:52Z</time>
      </trkpt>
      <trkpt lat="40.775136" lon="-3.955352">
        <ele>1812.168</ele>
        <time>2021-07-29T18:52:54Z</time>
      </trkpt>
      <trkpt lat="40.775117" lon="-3.955355">
        <ele>1811.885</ele>
        <time>2021-07-29T18:52:56Z</time>
      </trkpt>
      <trkpt lat="40.775098" lon="-3.955368">
        <ele>1811.432</ele>
        <time>2021-07-29T18:52:58Z</time>
      </trkpt>
      <trkpt lat="40.775078" lon="-3.955375">
        <ele>1811.143</ele>
        <time>2021-07-29T18:53:00Z</time>
      </trkpt>
      <trkpt lat="40.775062" lon="-3.955387">
        <ele>1810.923</ele>
        <time>2021-07-29T18:53:02Z</time>
      </trkpt>
      <trkpt lat="40.775037" lon="-3.955395">
        <ele>1810.576</ele>
        <time>2021-07-29T18:53:05Z</time>
      </trkpt>
      <trkpt lat="40.775021" lon="-3.955412">
        <ele>1810.375</ele>
        <time>2021-07-29T18:53:08Z</time>
      </trkpt>
      <trkpt lat="40.774998" lon="-3.955418">
        <ele>1810.062</ele>
        <time>2021-07-29T18:53:15Z</time>
      </trkpt>
      <trkpt lat="40.774976" lon="-3.955415">
        <ele>1810.083</ele>
        <time>2021-07-29T18:53:17Z</time>
      </trkpt>
      <trkpt lat="40.774957" lon="-3.955402">
        <ele>1810.011</ele>
        <time>2021-07-29T18:53:27Z</time>
      </trkpt>
      <trkpt lat="40.774938" lon="-3.955400">
        <ele>1810.008</ele>
        <time>2021-07-29T18:53:29Z</time>
      </trkpt>
      <trkpt lat="40.774915" lon="-3.955392">
        <ele>1810.013</ele>
        <time>2021-07-29T18:53:32Z</time>
      </trkpt>
      <trkpt lat="40.774886" lon="-3.955380">
        <ele>1810.085</ele>
        <time>2021-07-29T18:53:34Z</time>
      </trkpt>
      <trkpt lat="40.774867" lon="-3.955378">
        <ele>1810.022</ele>
        <time>2021-07-29T18:53:36Z</time>
      </trkpt>
      <trkpt lat="40.774845" lon="-3.955382">
        <ele>1810.089</ele>
        <time>2021-07-29T18:53:38Z</time>
      </trkpt>
      <trkpt lat="40.774819" lon="-3.955375">
        <ele>1810.030</ele>
        <time>2021-07-29T18:53:41Z</time>
      </trkpt>
      <trkpt lat="40.774800" lon="-3.955370">
        <ele>1810.080</ele>
        <time>2021-07-29T18:53:43Z</time>
      </trkpt>
      <trkpt lat="40.774781" lon="-3.955363">
        <ele>1810.043</ele>
        <time>2021-07-29T18:53:45Z</time>
      </trkpt>
      <trkpt lat="40.774762" lon="-3.955352">
        <ele>1810.092</ele>
        <time>2021-07-29T18:53:48Z</time>
      </trkpt>
      <trkpt lat="40.774742" lon="-3.955352">
        <ele>1810.035</ele>
        <time>2021-07-29T18:53:50Z</time>
      </trkpt>
      <trkpt lat="40.774723" lon="-3.955343">
        <ele>1810.086</ele>
        <time>2021-07-29T18:53:52Z</time>
      </trkpt>
      <trkpt lat="40.774701" lon="-3.955346">
        <ele>1809.614</ele>
        <time>2021-07-29T18:53:54Z</time>
      </trkpt>
      <trkpt lat="40.774682" lon="-3.955353">
        <ele>1809.208</ele>
        <time>2021-07-29T18:53:57Z</time>
      </trkpt>
      <trkpt lat="40.774662" lon="-3.955348">
        <ele>1808.810</ele>
        <time>2021-07-29T18:53:59Z</time>
      </trkpt>
      <trkpt lat="40.774643" lon="-3.955346">
        <ele>1808.462</ele>
        <time>2021-07-29T18:54:01Z</time>
      </trkpt>
      <trkpt lat="40.774618" lon="-3.955340">
        <ele>1807.979</ele>
        <time>2021-07-29T18:54:04Z</time>
      </trkpt>
      <trkpt lat="40.774592" lon="-3.955333">
        <ele>1807.416</ele>
        <time>2021-07-29T18:54:07Z</time>
      </trkpt>
      <trkpt lat="40.774566" lon="-3.955322">
        <ele>1806.867</ele>
        <time>2021-07-29T18:54:09Z</time>
      </trkpt>
      <trkpt lat="40.774544" lon="-3.955310">
        <ele>1806.337</ele>
        <time>2021-07-29T18:54:11Z</time>
      </trkpt>
      <trkpt lat="40.774525" lon="-3.955298">
        <ele>1805.840</ele>
        <time>2021-07-29T18:54:13Z</time>
      </trkpt>
      <trkpt lat="40.774502" lon="-3.955298">
        <ele>1805.439</ele>
        <time>2021-07-29T18:54:15Z</time>
      </trkpt>
      <trkpt lat="40.774483" lon="-3.955292">
        <ele>1804.976</ele>
        <time>2021-07-29T18:54:17Z</time>
      </trkpt>
      <trkpt lat="40.774464" lon="-3.955284">
        <ele>1804.590</ele>
        <time>2021-07-29T18:54:19Z</time>
      </trkpt>
      <trkpt lat="40.774438" lon="-3.955268">
        <ele>1804.119</ele>
        <time>2021-07-29T18:54:22Z</time>
      </trkpt>
      <trkpt lat="40.774410" lon="-3.955253">
        <ele>1804.008</ele>
        <time>2021-07-29T18:54:24Z</time>
      </trkpt>
      <trkpt lat="40.774387" lon="-3.955243">
        <ele>1803.874</ele>
        <time>2021-07-29T18:54:26Z</time>
      </trkpt>
      <trkpt lat="40.774362" lon="-3.955237">
        <ele>1803.566</ele>
        <time>2021-07-29T18:54:28Z</time>
      </trkpt>
      <trkpt lat="40.774342" lon="-3.955240">
        <ele>1803.243</ele>
        <time>2021-07-29T18:54:30Z</time>
      </trkpt>
      <trkpt lat="40.774323" lon="-3.955240">
        <ele>1802.930</ele>
        <time>2021-07-29T18:54:32Z</time>
      </trkpt>
      <trkpt lat="40.774304" lon="-3.955243">
        <ele>1802.621</ele>
        <time>2021-07-29T18:54:35Z</time>
      </trkpt>
      <trkpt lat="40.774285" lon="-3.955232">
        <ele>1802.531</ele>
        <time>2021-07-29T18:54:38Z</time>
      </trkpt>
      <trkpt lat="40.774266" lon="-3.955233">
        <ele>1802.264</ele>
        <time>2021-07-29T18:54:40Z</time>
      </trkpt>
      <trkpt lat="40.774243" lon="-3.955240">
        <ele>1801.823</ele>
        <time>2021-07-29T18:54:42Z</time>
      </trkpt>
      <trkpt lat="40.774221" lon="-3.955238">
        <ele>1801.515</ele>
        <time>2021-07-29T18:54:45Z</time>
      </trkpt>
      <trkpt lat="40.774192" lon="-3.955235">
        <ele>1801.165</ele>
        <time>2021-07-29T18:54:48Z</time>
      </trkpt>
      <trkpt lat="40.774170" lon="-3.955232">
        <ele>1800.911</ele>
        <time>2021-07-29T18:54:50Z</time>
      </trkpt>
      <trkpt lat="40.774147" lon="-3.955222">
        <ele>1800.708</ele>
        <time>2021-07-29T18:54:53Z</time>
      </trkpt>
      <trkpt lat="40.774125" lon="-3.955217">
        <ele>1800.588</ele>
        <time>2021-07-29T18:54:55Z</time>
      </trkpt>
      <trkpt lat="40.774106" lon="-3.955223">
        <ele>1800.210</ele>
        <time>2021-07-29T18:54:57Z</time>
      </trkpt>
      <trkpt lat="40.774077" lon="-3.955208">
        <ele>1800.037</ele>
        <time>2021-07-29T18:55:00Z</time>
      </trkpt>
      <trkpt lat="40.774054" lon="-3.955197">
        <ele>1799.994</ele>
        <time>2021-07-29T18:55:03Z</time>
      </trkpt>
      <trkpt lat="40.774032" lon="-3.955195">
        <ele>1799.685</ele>
        <time>2021-07-29T18:55:06Z</time>
      </trkpt>
      <trkpt lat="40.774010" lon="-3.955192">
        <ele>1799.375</ele>
        <time>2021-07-29T18:55:09Z</time>
      </trkpt>
      <trkpt lat="40.773990" lon="-3.955183">
        <ele>1799.138</ele>
        <time>2021-07-29T18:55:11Z</time>
      </trkpt>
      <trkpt lat="40.773971" lon="-3.955180">
        <ele>1798.967</ele>
        <time>2021-07-29T18:55:13Z</time>
      </trkpt>
      <trkpt lat="40.773946" lon="-3.955176">
        <ele>1798.656</ele>
        <time>2021-07-29T18:55:15Z</time>
      </trkpt>
      <trkpt lat="40.773926" lon="-3.955175">
        <ele>1798.359</ele>
        <time>2021-07-29T18:55:17Z</time>
      </trkpt>
      <trkpt lat="40.773907" lon="-3.955173">
        <ele>1798.014</ele>
        <time>2021-07-29T18:55:19Z</time>
      </trkpt>
      <trkpt lat="40.773888" lon="-3.955168">
        <ele>1797.808</ele>
        <time>2021-07-29T18:55:21Z</time>
      </trkpt>
      <trkpt lat="40.773866" lon="-3.955180">
        <ele>1797.622</ele>
        <time>2021-07-29T18:55:23Z</time>
      </trkpt>
      <trkpt lat="40.773837" lon="-3.955182">
        <ele>1797.494</ele>
        <time>2021-07-29T18:55:25Z</time>
      </trkpt>
      <trkpt lat="40.773814" lon="-3.955180">
        <ele>1797.381</ele>
        <time>2021-07-29T18:55:27Z</time>
      </trkpt>
      <trkpt lat="40.773792" lon="-3.955185">
        <ele>1797.118</ele>
        <time>2021-07-29T18:55:29Z</time>
      </trkpt>
      <trkpt lat="40.773773" lon="-3.955182">
        <ele>1797.039</ele>
        <time>2021-07-29T18:55:31Z</time>
      </trkpt>
      <trkpt lat="40.773750" lon="-3.955183">
        <ele>1796.969</ele>
        <time>2021-07-29T18:55:33Z</time>
      </trkpt>
      <trkpt lat="40.773728" lon="-3.955180">
        <ele>1796.762</ele>
        <time>2021-07-29T18:55:35Z</time>
      </trkpt>
      <trkpt lat="40.773706" lon="-3.955185">
        <ele>1796.651</ele>
        <time>2021-07-29T18:55:37Z</time>
      </trkpt>
      <trkpt lat="40.773677" lon="-3.955187">
        <ele>1796.437</ele>
        <time>2021-07-29T18:55:39Z</time>
      </trkpt>
      <trkpt lat="40.773654" lon="-3.955193">
        <ele>1796.249</ele>
        <time>2021-07-29T18:55:41Z</time>
      </trkpt>
      <trkpt lat="40.773629" lon="-3.955212">
        <ele>1795.813</ele>
        <time>2021-07-29T18:55:44Z</time>
      </trkpt>
      <trkpt lat="40.773610" lon="-3.955223">
        <ele>1795.608</ele>
        <time>2021-07-29T18:55:46Z</time>
      </trkpt>
      <trkpt lat="40.773590" lon="-3.955230">
        <ele>1795.260</ele>
        <time>2021-07-29T18:55:48Z</time>
      </trkpt>
      <trkpt lat="40.773568" lon="-3.955230">
        <ele>1794.962</ele>
        <time>2021-07-29T18:55:50Z</time>
      </trkpt>
      <trkpt lat="40.773549" lon="-3.955228">
        <ele>1794.769</ele>
        <time>2021-07-29T18:55:52Z</time>
      </trkpt>
      <trkpt lat="40.773526" lon="-3.955220">
        <ele>1794.596</ele>
        <time>2021-07-29T18:55:55Z</time>
      </trkpt>
      <trkpt lat="40.773507" lon="-3.955207">
        <ele>1794.487</ele>
        <time>2021-07-29T18:55:58Z</time>
      </trkpt>
      <trkpt lat="40.773488" lon="-3.955198">
        <ele>1794.247</ele>
        <time>2021-07-29T18:56:00Z</time>
      </trkpt>
      <trkpt lat="40.773466" lon="-3.955192">
        <ele>1794.020</ele>
        <time>2021-07-29T18:56:03Z</time>
      </trkpt>
      <trkpt lat="40.773453" lon="-3.955175">
        <ele>1794.099</ele>
        <time>2021-07-29T18:56:08Z</time>
      </trkpt>
      <trkpt lat="40.773434" lon="-3.955175">
        <ele>1793.856</ele>
        <time>2021-07-29T18:56:12Z</time>
      </trkpt>
      <trkpt lat="40.773402" lon="-3.955185">
        <ele>1793.259</ele>
        <time>2021-07-29T18:56:15Z</time>
      </trkpt>
      <trkpt lat="40.773376" lon="-3.955192">
        <ele>1792.814</ele>
        <time>2021-07-29T18:56:17Z</time>
      </trkpt>
      <trkpt lat="40.773354" lon="-3.955192">
        <ele>1792.508</ele>
        <time>2021-07-29T18:56:19Z</time>
      </trkpt>
      <trkpt lat="40.773328" lon="-3.955182">
        <ele>1792.392</ele>
        <time>2021-07-29T18:56:21Z</time>
      </trkpt>
      <trkpt lat="40.773302" lon="-3.955166">
        <ele>1792.444</ele>
        <time>2021-07-29T18:56:24Z</time>
      </trkpt>
      <trkpt lat="40.773274" lon="-3.955176">
        <ele>1792.181</ele>
        <time>2021-07-29T18:56:27Z</time>
      </trkpt>
      <trkpt lat="40.773251" lon="-3.955187">
        <ele>1791.868</ele>
        <time>2021-07-29T18:56:29Z</time>
      </trkpt>
      <trkpt lat="40.773229" lon="-3.955193">
        <ele>1791.689</ele>
        <time>2021-07-29T18:56:31Z</time>
      </trkpt>
      <trkpt lat="40.773200" lon="-3.955200">
        <ele>1791.439</ele>
        <time>2021-07-29T18:56:33Z</time>
      </trkpt>
      <trkpt lat="40.773178" lon="-3.955203">
        <ele>1791.232</ele>
        <time>2021-07-29T18:56:35Z</time>
      </trkpt>
      <trkpt lat="40.773155" lon="-3.955202">
        <ele>1791.121</ele>
        <time>2021-07-29T18:56:37Z</time>
      </trkpt>
      <trkpt lat="40.773133" lon="-3.955207">
        <ele>1790.919</ele>
        <time>2021-07-29T18:56:39Z</time>
      </trkpt>
      <trkpt lat="40.773110" lon="-3.955208">
        <ele>1790.809</ele>
        <time>2021-07-29T18:56:41Z</time>
      </trkpt>
      <trkpt lat="40.773082" lon="-3.955208">
        <ele>1790.619</ele>
        <time>2021-07-29T18:56:43Z</time>
      </trkpt>
      <trkpt lat="40.773059" lon="-3.955208">
        <ele>1790.508</ele>
        <time>2021-07-29T18:56:45Z</time>
      </trkpt>
      <trkpt lat="40.773037" lon="-3.955205">
        <ele>1790.438</ele>
        <time>2021-07-29T18:56:47Z</time>
      </trkpt>
      <trkpt lat="40.773014" lon="-3.955207">
        <ele>1790.160</ele>
        <time>2021-07-29T18:56:49Z</time>
      </trkpt>
      <trkpt lat="40.772989" lon="-3.955207">
        <ele>1789.967</ele>
        <time>2021-07-29T18:56:51Z</time>
      </trkpt>
      <trkpt lat="40.772963" lon="-3.955203">
        <ele>1789.714</ele>
        <time>2021-07-29T18:56:53Z</time>
      </trkpt>
      <trkpt lat="40.772941" lon="-3.955213">
        <ele>1789.475</ele>
        <time>2021-07-29T18:56:55Z</time>
      </trkpt>
      <trkpt lat="40.772925" lon="-3.955230">
        <ele>1789.165</ele>
        <time>2021-07-29T18:56:57Z</time>
      </trkpt>
      <trkpt lat="40.772902" lon="-3.955233">
        <ele>1788.888</ele>
        <time>2021-07-29T18:57:02Z</time>
      </trkpt>
      <trkpt lat="40.772883" lon="-3.955232">
        <ele>1788.787</ele>
        <time>2021-07-29T18:57:04Z</time>
      </trkpt>
      <trkpt lat="40.772864" lon="-3.955237">
        <ele>1788.463</ele>
        <time>2021-07-29T18:57:06Z</time>
      </trkpt>
      <trkpt lat="40.772838" lon="-3.955232">
        <ele>1788.244</ele>
        <time>2021-07-29T18:57:09Z</time>
      </trkpt>
      <trkpt lat="40.772819" lon="-3.955248">
        <ele>1787.818</ele>
        <time>2021-07-29T18:57:12Z</time>
      </trkpt>
      <trkpt lat="40.772810" lon="-3.955272">
        <ele>1787.408</ele>
        <time>2021-07-29T18:57:16Z</time>
      </trkpt>
      <trkpt lat="40.772794" lon="-3.955290">
        <ele>1787.183</ele>
        <time>2021-07-29T18:57:20Z</time>
      </trkpt>
      <trkpt lat="40.772771" lon="-3.955295">
        <ele>1786.895</ele>
        <time>2021-07-29T18:57:23Z</time>
      </trkpt>
      <trkpt lat="40.772758" lon="-3.955315">
        <ele>1786.682</ele>
        <time>2021-07-29T18:57:26Z</time>
      </trkpt>
      <trkpt lat="40.772746" lon="-3.955342">
        <ele>1786.369</ele>
        <time>2021-07-29T18:57:29Z</time>
      </trkpt>
      <trkpt lat="40.772726" lon="-3.955358">
        <ele>1786.040</ele>
        <time>2021-07-29T18:57:32Z</time>
      </trkpt>
      <trkpt lat="40.772704" lon="-3.955370">
        <ele>1785.760</ele>
        <time>2021-07-29T18:57:35Z</time>
      </trkpt>
      <trkpt lat="40.772685" lon="-3.955380">
        <ele>1785.453</ele>
        <time>2021-07-29T18:57:38Z</time>
      </trkpt>
      <trkpt lat="40.772662" lon="-3.955397">
        <ele>1785.192</ele>
        <time>2021-07-29T18:57:41Z</time>
      </trkpt>
      <trkpt lat="40.772640" lon="-3.955402">
        <ele>1784.865</ele>
        <time>2021-07-29T18:57:43Z</time>
      </trkpt>
      <trkpt lat="40.772614" lon="-3.955395">
        <ele>1784.568</ele>
        <time>2021-07-29T18:57:46Z</time>
      </trkpt>
      <trkpt lat="40.772595" lon="-3.955397">
        <ele>1784.214</ele>
        <time>2021-07-29T18:57:48Z</time>
      </trkpt>
      <trkpt lat="40.772566" lon="-3.955405">
        <ele>1783.808</ele>
        <time>2021-07-29T18:57:50Z</time>
      </trkpt>
      <trkpt lat="40.772547" lon="-3.955408">
        <ele>1783.663</ele>
        <time>2021-07-29T18:57:52Z</time>
      </trkpt>
      <trkpt lat="40.772522" lon="-3.955405">
        <ele>1783.355</ele>
        <time>2021-07-29T18:57:54Z</time>
      </trkpt>
      <trkpt lat="40.772499" lon="-3.955402">
        <ele>1783.032</ele>
        <time>2021-07-29T18:57:56Z</time>
      </trkpt>
      <trkpt lat="40.772480" lon="-3.955397">
        <ele>1782.769</ele>
        <time>2021-07-29T18:57:59Z</time>
      </trkpt>
      <trkpt lat="40.772461" lon="-3.955380">
        <ele>1782.440</ele>
        <time>2021-07-29T18:58:02Z</time>
      </trkpt>
      <trkpt lat="40.772448" lon="-3.955363">
        <ele>1782.330</ele>
        <time>2021-07-29T18:58:05Z</time>
      </trkpt>
      <trkpt lat="40.772426" lon="-3.955353">
        <ele>1781.973</ele>
        <time>2021-07-29T18:58:08Z</time>
      </trkpt>
      <trkpt lat="40.772406" lon="-3.955333">
        <ele>1781.632</ele>
        <time>2021-07-29T18:58:11Z</time>
      </trkpt>
      <trkpt lat="40.772394" lon="-3.955316">
        <ele>1781.571</ele>
        <time>2021-07-29T18:58:13Z</time>
      </trkpt>
      <trkpt lat="40.772365" lon="-3.955303">
        <ele>1781.141</ele>
        <time>2021-07-29T18:58:16Z</time>
      </trkpt>
      <trkpt lat="40.772346" lon="-3.955278">
        <ele>1780.815</ele>
        <time>2021-07-29T18:58:19Z</time>
      </trkpt>
      <trkpt lat="40.772326" lon="-3.955285">
        <ele>1780.508</ele>
        <time>2021-07-29T18:58:21Z</time>
      </trkpt>
      <trkpt lat="40.772307" lon="-3.955292">
        <ele>1780.214</ele>
        <time>2021-07-29T18:58:23Z</time>
      </trkpt>
      <trkpt lat="40.772285" lon="-3.955303">
        <ele>1779.966</ele>
        <time>2021-07-29T18:58:27Z</time>
      </trkpt>
      <trkpt lat="40.772266" lon="-3.955322">
        <ele>1779.673</ele>
        <time>2021-07-29T18:58:29Z</time>
      </trkpt>
      <trkpt lat="40.772246" lon="-3.955333">
        <ele>1779.310</ele>
        <time>2021-07-29T18:58:31Z</time>
      </trkpt>
      <trkpt lat="40.772218" lon="-3.955335">
        <ele>1779.011</ele>
        <time>2021-07-29T18:58:34Z</time>
      </trkpt>
      <trkpt lat="40.772195" lon="-3.955342">
        <ele>1778.961</ele>
        <time>2021-07-29T18:58:37Z</time>
      </trkpt>
      <trkpt lat="40.772176" lon="-3.955346">
        <ele>1778.994</ele>
        <time>2021-07-29T18:58:39Z</time>
      </trkpt>
      <trkpt lat="40.772147" lon="-3.955346">
        <ele>1778.893</ele>
        <time>2021-07-29T18:58:42Z</time>
      </trkpt>
      <trkpt lat="40.772125" lon="-3.955362">
        <ele>1778.728</ele>
        <time>2021-07-29T18:58:45Z</time>
      </trkpt>
      <trkpt lat="40.772102" lon="-3.955353">
        <ele>1778.689</ele>
        <time>2021-07-29T18:58:48Z</time>
      </trkpt>
      <trkpt lat="40.772083" lon="-3.955352">
        <ele>1778.617</ele>
        <time>2021-07-29T18:58:50Z</time>
      </trkpt>
      <trkpt lat="40.772064" lon="-3.955355">
        <ele>1778.508</ele>
        <time>2021-07-29T18:58:52Z</time>
      </trkpt>
      <trkpt lat="40.772045" lon="-3.955360">
        <ele>1778.449</ele>
        <time>2021-07-29T18:58:54Z</time>
      </trkpt>
      <trkpt lat="40.772026" lon="-3.955362">
        <ele>1778.431</ele>
        <time>2021-07-29T18:58:56Z</time>
      </trkpt>
      <trkpt lat="40.772006" lon="-3.955358">
        <ele>1778.338</ele>
        <time>2021-07-29T18:58:58Z</time>
      </trkpt>
      <trkpt lat="40.771981" lon="-3.955365">
        <ele>1778.275</ele>
        <time>2021-07-29T18:59:01Z</time>
      </trkpt>
      <trkpt lat="40.771962" lon="-3.955368">
        <ele>1778.146</ele>
        <time>2021-07-29T18:59:03Z</time>
      </trkpt>
      <trkpt lat="40.771939" lon="-3.955362">
        <ele>1778.126</ele>
        <time>2021-07-29T18:59:06Z</time>
      </trkpt>
      <trkpt lat="40.771920" lon="-3.955353">
        <ele>1778.139</ele>
        <time>2021-07-29T18:59:08Z</time>
      </trkpt>
      <trkpt lat="40.771898" lon="-3.955363">
        <ele>1777.978</ele>
        <time>2021-07-29T18:59:12Z</time>
      </trkpt>
      <trkpt lat="40.771869" lon="-3.955370">
        <ele>1777.672</ele>
        <time>2021-07-29T18:59:15Z</time>
      </trkpt>
      <trkpt lat="40.771846" lon="-3.955380">
        <ele>1777.413</ele>
        <time>2021-07-29T18:59:18Z</time>
      </trkpt>
      <trkpt lat="40.771824" lon="-3.955390">
        <ele>1777.214</ele>
        <time>2021-07-29T18:59:21Z</time>
      </trkpt>
      <trkpt lat="40.771805" lon="-3.955387">
        <ele>1777.108</ele>
        <time>2021-07-29T18:59:23Z</time>
      </trkpt>
      <trkpt lat="40.771782" lon="-3.955385">
        <ele>1777.044</ele>
        <time>2021-07-29T18:59:25Z</time>
      </trkpt>
      <trkpt lat="40.771766" lon="-3.955397">
        <ele>1776.886</ele>
        <time>2021-07-29T18:59:27Z</time>
      </trkpt>
      <trkpt lat="40.771750" lon="-3.955412">
        <ele>1776.533</ele>
        <time>2021-07-29T18:59:29Z</time>
      </trkpt>
      <trkpt lat="40.771728" lon="-3.955413">
        <ele>1776.430</ele>
        <time>2021-07-29T18:59:32Z</time>
      </trkpt>
      <trkpt lat="40.771702" lon="-3.955413">
        <ele>1776.231</ele>
        <time>2021-07-29T18:59:35Z</time>
      </trkpt>
      <trkpt lat="40.771680" lon="-3.955422">
        <ele>1776.051</ele>
        <time>2021-07-29T18:59:38Z</time>
      </trkpt>
      <trkpt lat="40.771658" lon="-3.955420">
        <ele>1775.994</ele>
        <time>2021-07-29T18:59:40Z</time>
      </trkpt>
      <trkpt lat="40.771629" lon="-3.955425">
        <ele>1775.523</ele>
        <time>2021-07-29T18:59:43Z</time>
      </trkpt>
      <trkpt lat="40.771606" lon="-3.955435">
        <ele>1775.287</ele>
        <time>2021-07-29T18:59:45Z</time>
      </trkpt>
      <trkpt lat="40.771584" lon="-3.955430">
        <ele>1775.042</ele>
        <time>2021-07-29T18:59:47Z</time>
      </trkpt>
      <trkpt lat="40.771562" lon="-3.955422">
        <ele>1775.026</ele>
        <time>2021-07-29T18:59:51Z</time>
      </trkpt>
      <trkpt lat="40.771542" lon="-3.955417">
        <ele>1774.908</ele>
        <time>2021-07-29T18:59:53Z</time>
      </trkpt>
      <trkpt lat="40.771520" lon="-3.955415">
        <ele>1774.785</ele>
        <time>2021-07-29T18:59:55Z</time>
      </trkpt>
      <trkpt lat="40.771504" lon="-3.955403">
        <ele>1774.857</ele>
        <time>2021-07-29T18:59:58Z</time>
      </trkpt>
      <trkpt lat="40.771475" lon="-3.955400">
        <ele>1774.654</ele>
        <time>2021-07-29T19:00:00Z</time>
      </trkpt>
      <trkpt lat="40.771450" lon="-3.955400">
        <ele>1774.321</ele>
        <time>2021-07-29T19:00:04Z</time>
      </trkpt>
      <trkpt lat="40.771430" lon="-3.955400">
        <ele>1774.212</ele>
        <time>2021-07-29T19:00:06Z</time>
      </trkpt>
      <trkpt lat="40.771408" lon="-3.955397">
        <ele>1774.072</ele>
        <time>2021-07-29T19:00:08Z</time>
      </trkpt>
      <trkpt lat="40.771389" lon="-3.955398">
        <ele>1773.835</ele>
        <time>2021-07-29T19:00:10Z</time>
      </trkpt>
      <trkpt lat="40.771370" lon="-3.955403">
        <ele>1773.664</ele>
        <time>2021-07-29T19:00:12Z</time>
      </trkpt>
      <trkpt lat="40.771350" lon="-3.955412">
        <ele>1773.337</ele>
        <time>2021-07-29T19:00:14Z</time>
      </trkpt>
      <trkpt lat="40.771331" lon="-3.955422">
        <ele>1773.049</ele>
        <time>2021-07-29T19:00:16Z</time>
      </trkpt>
      <trkpt lat="40.771312" lon="-3.955432">
        <ele>1772.713</ele>
        <time>2021-07-29T19:00:20Z</time>
      </trkpt>
      <trkpt lat="40.771290" lon="-3.955440">
        <ele>1772.408</ele>
        <time>2021-07-29T19:00:22Z</time>
      </trkpt>
      <trkpt lat="40.771264" lon="-3.955440">
        <ele>1772.390</ele>
        <time>2021-07-29T19:00:25Z</time>
      </trkpt>
      <trkpt lat="40.771242" lon="-3.955453">
        <ele>1771.982</ele>
        <time>2021-07-29T19:00:28Z</time>
      </trkpt>
      <trkpt lat="40.771222" lon="-3.955453">
        <ele>1771.849</ele>
        <time>2021-07-29T19:00:30Z</time>
      </trkpt>
      <trkpt lat="40.771206" lon="-3.955472">
        <ele>1771.536</ele>
        <time>2021-07-29T19:00:32Z</time>
      </trkpt>
      <trkpt lat="40.771184" lon="-3.955482">
        <ele>1771.277</ele>
        <time>2021-07-29T19:00:35Z</time>
      </trkpt>
      <trkpt lat="40.771162" lon="-3.955477">
        <ele>1771.187</ele>
        <time>2021-07-29T19:00:37Z</time>
      </trkpt>
      <trkpt lat="40.771142" lon="-3.955478">
        <ele>1771.090</ele>
        <time>2021-07-29T19:00:39Z</time>
      </trkpt>
      <trkpt lat="40.771123" lon="-3.955478">
        <ele>1770.969</ele>
        <time>2021-07-29T19:00:41Z</time>
      </trkpt>
      <trkpt lat="40.771094" lon="-3.955470">
        <ele>1770.897</ele>
        <time>2021-07-29T19:00:44Z</time>
      </trkpt>
      <trkpt lat="40.771072" lon="-3.955460">
        <ele>1770.823</ele>
        <time>2021-07-29T19:00:46Z</time>
      </trkpt>
      <trkpt lat="40.771046" lon="-3.955447">
        <ele>1770.825</ele>
        <time>2021-07-29T19:00:49Z</time>
      </trkpt>
      <trkpt lat="40.771027" lon="-3.955443">
        <ele>1770.708</ele>
        <time>2021-07-29T19:00:51Z</time>
      </trkpt>
      <trkpt lat="40.771005" lon="-3.955437">
        <ele>1770.676</ele>
        <time>2021-07-29T19:00:53Z</time>
      </trkpt>
      <trkpt lat="40.770986" lon="-3.955417">
        <ele>1770.628</ele>
        <time>2021-07-29T19:00:55Z</time>
      </trkpt>
      <trkpt lat="40.770966" lon="-3.955403">
        <ele>1770.615</ele>
        <time>2021-07-29T19:00:57Z</time>
      </trkpt>
      <trkpt lat="40.770947" lon="-3.955390">
        <ele>1770.532</ele>
        <time>2021-07-29T19:00:59Z</time>
      </trkpt>
      <trkpt lat="40.770925" lon="-3.955375">
        <ele>1770.493</ele>
        <time>2021-07-29T19:01:01Z</time>
      </trkpt>
      <trkpt lat="40.770909" lon="-3.955363">
        <ele>1770.383</ele>
        <time>2021-07-29T19:01:03Z</time>
      </trkpt>
      <trkpt lat="40.770890" lon="-3.955348">
        <ele>1770.346</ele>
        <time>2021-07-29T19:01:05Z</time>
      </trkpt>
      <trkpt lat="40.770870" lon="-3.955342">
        <ele>1770.185</ele>
        <time>2021-07-29T19:01:07Z</time>
      </trkpt>
      <trkpt lat="40.770848" lon="-3.955336">
        <ele>1769.979</ele>
        <time>2021-07-29T19:01:09Z</time>
      </trkpt>
      <trkpt lat="40.770829" lon="-3.955345">
        <ele>1769.705</ele>
        <time>2021-07-29T19:01:11Z</time>
      </trkpt>
      <trkpt lat="40.770810" lon="-3.955353">
        <ele>1769.525</ele>
        <time>2021-07-29T19:01:13Z</time>
      </trkpt>
      <trkpt lat="40.770787" lon="-3.955345">
        <ele>1769.408</ele>
        <time>2021-07-29T19:01:16Z</time>
      </trkpt>
      <trkpt lat="40.770771" lon="-3.955332">
        <ele>1769.334</ele>
        <time>2021-07-29T19:01:18Z</time>
      </trkpt>
      <trkpt lat="40.770752" lon="-3.955312">
        <ele>1769.386</ele>
        <time>2021-07-29T19:01:20Z</time>
      </trkpt>
      <trkpt lat="40.770736" lon="-3.955298">
        <ele>1769.283</ele>
        <time>2021-07-29T19:01:22Z</time>
      </trkpt>
      <trkpt lat="40.770714" lon="-3.955297">
        <ele>1769.020</ele>
        <time>2021-07-29T19:01:24Z</time>
      </trkpt>
      <trkpt lat="40.770691" lon="-3.955284">
        <ele>1768.931</ele>
        <time>2021-07-29T19:01:27Z</time>
      </trkpt>
      <trkpt lat="40.770672" lon="-3.955275">
        <ele>1768.931</ele>
        <time>2021-07-29T19:01:29Z</time>
      </trkpt>
      <trkpt lat="40.770650" lon="-3.955258">
        <ele>1769.114</ele>
        <time>2021-07-29T19:01:32Z</time>
      </trkpt>
      <trkpt lat="40.770627" lon="-3.955243">
        <ele>1769.213</ele>
        <time>2021-07-29T19:01:35Z</time>
      </trkpt>
      <trkpt lat="40.770602" lon="-3.955242">
        <ele>1769.082</ele>
        <time>2021-07-29T19:01:38Z</time>
      </trkpt>
      <trkpt lat="40.770576" lon="-3.955237">
        <ele>1768.943</ele>
        <time>2021-07-29T19:01:41Z</time>
      </trkpt>
      <trkpt lat="40.770554" lon="-3.955232">
        <ele>1768.817</ele>
        <time>2021-07-29T19:01:43Z</time>
      </trkpt>
      <trkpt lat="40.770531" lon="-3.955223">
        <ele>1768.608</ele>
        <time>2021-07-29T19:01:45Z</time>
      </trkpt>
      <trkpt lat="40.770512" lon="-3.955220">
        <ele>1768.435</ele>
        <time>2021-07-29T19:01:46Z</time>
      </trkpt>
      <trkpt lat="40.770490" lon="-3.955217">
        <ele>1768.287</ele>
        <time>2021-07-29T19:01:48Z</time>
      </trkpt>
      <trkpt lat="40.770470" lon="-3.955205">
        <ele>1768.184</ele>
        <time>2021-07-29T19:01:50Z</time>
      </trkpt>
      <trkpt lat="40.770454" lon="-3.955192">
        <ele>1768.151</ele>
        <time>2021-07-29T19:01:52Z</time>
      </trkpt>
      <trkpt lat="40.770432" lon="-3.955178">
        <ele>1768.032</ele>
        <time>2021-07-29T19:01:54Z</time>
      </trkpt>
      <trkpt lat="40.770416" lon="-3.955164">
        <ele>1768.012</ele>
        <time>2021-07-29T19:01:56Z</time>
      </trkpt>
      <trkpt lat="40.770394" lon="-3.955154">
        <ele>1767.985</ele>
        <time>2021-07-29T19:01:58Z</time>
      </trkpt>
      <trkpt lat="40.770371" lon="-3.955140">
        <ele>1767.834</ele>
        <time>2021-07-29T19:02:00Z</time>
      </trkpt>
      <trkpt lat="40.770352" lon="-3.955128">
        <ele>1767.849</ele>
        <time>2021-07-29T19:02:03Z</time>
      </trkpt>
      <trkpt lat="40.770330" lon="-3.955118">
        <ele>1767.602</ele>
        <time>2021-07-29T19:02:05Z</time>
      </trkpt>
      <trkpt lat="40.770307" lon="-3.955110">
        <ele>1767.422</ele>
        <time>2021-07-29T19:02:07Z</time>
      </trkpt>
      <trkpt lat="40.770288" lon="-3.955097">
        <ele>1767.408</ele>
        <time>2021-07-29T19:02:09Z</time>
      </trkpt>
      <trkpt lat="40.770272" lon="-3.955082">
        <ele>1767.441</ele>
        <time>2021-07-29T19:02:11Z</time>
      </trkpt>
      <trkpt lat="40.770253" lon="-3.955072">
        <ele>1767.373</ele>
        <time>2021-07-29T19:02:13Z</time>
      </trkpt>
      <trkpt lat="40.770234" lon="-3.955060">
        <ele>1767.250</ele>
        <time>2021-07-29T19:02:15Z</time>
      </trkpt>
      <trkpt lat="40.770221" lon="-3.955043">
        <ele>1767.217</ele>
        <time>2021-07-29T19:02:17Z</time>
      </trkpt>
      <trkpt lat="40.770202" lon="-3.955037">
        <ele>1767.098</ele>
        <time>2021-07-29T19:02:19Z</time>
      </trkpt>
      <trkpt lat="40.770176" lon="-3.955033">
        <ele>1766.658</ele>
        <time>2021-07-29T19:02:21Z</time>
      </trkpt>
      <trkpt lat="40.770157" lon="-3.955030">
        <ele>1766.361</ele>
        <time>2021-07-29T19:02:23Z</time>
      </trkpt>
      <trkpt lat="40.770138" lon="-3.955020">
        <ele>1766.210</ele>
        <time>2021-07-29T19:02:25Z</time>
      </trkpt>
      <trkpt lat="40.770118" lon="-3.955012">
        <ele>1765.995</ele>
        <time>2021-07-29T19:02:27Z</time>
      </trkpt>
      <trkpt lat="40.770096" lon="-3.954996">
        <ele>1765.849</ele>
        <time>2021-07-29T19:02:29Z</time>
      </trkpt>
      <trkpt lat="40.770083" lon="-3.954975">
        <ele>1765.823</ele>
        <time>2021-07-29T19:02:31Z</time>
      </trkpt>
      <trkpt lat="40.770061" lon="-3.954955">
        <ele>1765.608</ele>
        <time>2021-07-29T19:02:34Z</time>
      </trkpt>
      <trkpt lat="40.770054" lon="-3.954930">
        <ele>1765.856</ele>
        <time>2021-07-29T19:02:36Z</time>
      </trkpt>
      <trkpt lat="40.770035" lon="-3.954908">
        <ele>1765.758</ele>
        <time>2021-07-29T19:02:38Z</time>
      </trkpt>
      <trkpt lat="40.770013" lon="-3.954888">
        <ele>1765.545</ele>
        <time>2021-07-29T19:02:40Z</time>
      </trkpt>
      <trkpt lat="40.769994" lon="-3.954877">
        <ele>1765.252</ele>
        <time>2021-07-29T19:02:43Z</time>
      </trkpt>
      <trkpt lat="40.769974" lon="-3.954858">
        <ele>1765.033</ele>
        <time>2021-07-29T19:02:46Z</time>
      </trkpt>
      <trkpt lat="40.769955" lon="-3.954848">
        <ele>1764.763</ele>
        <time>2021-07-29T19:02:48Z</time>
      </trkpt>
      <trkpt lat="40.769936" lon="-3.954847">
        <ele>1764.416</ele>
        <time>2021-07-29T19:02:50Z</time>
      </trkpt>
      <trkpt lat="40.769917" lon="-3.954847">
        <ele>1764.025</ele>
        <time>2021-07-29T19:02:52Z</time>
      </trkpt>
      <trkpt lat="40.769894" lon="-3.954838">
        <ele>1763.656</ele>
        <time>2021-07-29T19:02:54Z</time>
      </trkpt>
      <trkpt lat="40.769875" lon="-3.954832">
        <ele>1763.359</ele>
        <time>2021-07-29T19:02:56Z</time>
      </trkpt>
      <trkpt lat="40.769846" lon="-3.954814">
        <ele>1762.914</ele>
        <time>2021-07-29T19:02:59Z</time>
      </trkpt>
      <trkpt lat="40.769824" lon="-3.954795">
        <ele>1762.608</ele>
        <time>2021-07-29T19:03:01Z</time>
      </trkpt>
      <trkpt lat="40.769802" lon="-3.954772">
        <ele>1762.372</ele>
        <time>2021-07-29T19:03:03Z</time>
      </trkpt>
      <trkpt lat="40.769786" lon="-3.954757">
        <ele>1762.154</ele>
        <time>2021-07-29T19:03:05Z</time>
      </trkpt>
      <trkpt lat="40.769760" lon="-3.954742">
        <ele>1761.781</ele>
        <time>2021-07-29T19:03:08Z</time>
      </trkpt>
      <trkpt lat="40.769741" lon="-3.954755">
        <ele>1761.288</ele>
        <time>2021-07-29T19:03:11Z</time>
      </trkpt>
      <trkpt lat="40.769722" lon="-3.954765">
        <ele>1760.789</ele>
        <time>2021-07-29T19:03:13Z</time>
      </trkpt>
      <trkpt lat="40.769702" lon="-3.954775">
        <ele>1760.019</ele>
        <time>2021-07-29T19:03:16Z</time>
      </trkpt>
      <trkpt lat="40.769680" lon="-3.954770">
        <ele>1759.412</ele>
        <time>2021-07-29T19:03:18Z</time>
      </trkpt>
      <trkpt lat="40.769658" lon="-3.954777">
        <ele>1758.821</ele>
        <time>2021-07-29T19:03:21Z</time>
      </trkpt>
      <trkpt lat="40.769635" lon="-3.954765">
        <ele>1758.255</ele>
        <time>2021-07-29T19:03:24Z</time>
      </trkpt>
      <trkpt lat="40.769619" lon="-3.954752">
        <ele>1757.807</ele>
        <time>2021-07-29T19:03:27Z</time>
      </trkpt>
      <trkpt lat="40.769600" lon="-3.954750">
        <ele>1757.317</ele>
        <time>2021-07-29T19:03:30Z</time>
      </trkpt>
      <trkpt lat="40.769581" lon="-3.954747">
        <ele>1756.808</ele>
        <time>2021-07-29T19:03:32Z</time>
      </trkpt>
      <trkpt lat="40.769562" lon="-3.954730">
        <ele>1756.372</ele>
        <time>2021-07-29T19:03:35Z</time>
      </trkpt>
      <trkpt lat="40.769546" lon="-3.954718">
        <ele>1756.034</ele>
        <time>2021-07-29T19:03:37Z</time>
      </trkpt>
      <trkpt lat="40.769526" lon="-3.954722">
        <ele>1755.361</ele>
        <time>2021-07-29T19:03:40Z</time>
      </trkpt>
      <trkpt lat="40.769507" lon="-3.954705">
        <ele>1754.968</ele>
        <time>2021-07-29T19:03:43Z</time>
      </trkpt>
      <trkpt lat="40.769501" lon="-3.954682">
        <ele>1754.939</ele>
        <time>2021-07-29T19:03:45Z</time>
      </trkpt>
      <trkpt lat="40.769485" lon="-3.954662">
        <ele>1754.629</ele>
        <time>2021-07-29T19:03:48Z</time>
      </trkpt>
      <trkpt lat="40.769485" lon="-3.954626">
        <ele>1754.922</ele>
        <time>2021-07-29T19:03:52Z</time>
      </trkpt>
      <trkpt lat="40.769475" lon="-3.954595">
        <ele>1754.851</ele>
        <time>2021-07-29T19:03:55Z</time>
      </trkpt>
      <trkpt lat="40.769450" lon="-3.954587">
        <ele>1754.183</ele>
        <time>2021-07-29T19:03:58Z</time>
      </trkpt>
      <trkpt lat="40.769437" lon="-3.954570">
        <ele>1753.925</ele>
        <time>2021-07-29T19:04:01Z</time>
      </trkpt>
      <trkpt lat="40.769424" lon="-3.954553">
        <ele>1753.717</ele>
        <time>2021-07-29T19:04:03Z</time>
      </trkpt>
      <trkpt lat="40.769408" lon="-3.954537">
        <ele>1753.408</ele>
        <time>2021-07-29T19:04:05Z</time>
      </trkpt>
      <trkpt lat="40.769414" lon="-3.954512">
        <ele>1753.785</ele>
        <time>2021-07-29T19:04:07Z</time>
      </trkpt>
      <trkpt lat="40.769414" lon="-3.954483">
        <ele>1753.917</ele>
        <time>2021-07-29T19:04:10Z</time>
      </trkpt>
      <trkpt lat="40.769402" lon="-3.954454">
        <ele>1753.744</ele>
        <time>2021-07-29T19:04:13Z</time>
      </trkpt>
      <trkpt lat="40.769398" lon="-3.954425">
        <ele>1753.781</ele>
        <time>2021-07-29T19:04:16Z</time>
      </trkpt>
      <trkpt lat="40.769386" lon="-3.954405">
        <ele>1753.462</ele>
        <time>2021-07-29T19:04:19Z</time>
      </trkpt>
      <trkpt lat="40.769376" lon="-3.954382">
        <ele>1753.152</ele>
        <time>2021-07-29T19:04:23Z</time>
      </trkpt>
      <trkpt lat="40.769366" lon="-3.954355">
        <ele>1752.945</ele>
        <time>2021-07-29T19:04:27Z</time>
      </trkpt>
      <trkpt lat="40.769357" lon="-3.954330">
        <ele>1752.694</ele>
        <time>2021-07-29T19:04:30Z</time>
      </trkpt>
      <trkpt lat="40.769341" lon="-3.954310">
        <ele>1752.164</ele>
        <time>2021-07-29T19:04:33Z</time>
      </trkpt>
      <trkpt lat="40.769325" lon="-3.954285">
        <ele>1751.606</ele>
        <time>2021-07-29T19:04:36Z</time>
      </trkpt>
      <trkpt lat="40.769309" lon="-3.954266">
        <ele>1751.116</ele>
        <time>2021-07-29T19:04:40Z</time>
      </trkpt>
      <trkpt lat="40.769286" lon="-3.954270">
        <ele>1750.308</ele>
        <time>2021-07-29T19:04:43Z</time>
      </trkpt>
      <trkpt lat="40.769270" lon="-3.954256">
        <ele>1749.823</ele>
        <time>2021-07-29T19:04:47Z</time>
      </trkpt>
      <trkpt lat="40.769258" lon="-3.954235">
        <ele>1749.485</ele>
        <time>2021-07-29T19:04:50Z</time>
      </trkpt>
      <trkpt lat="40.769245" lon="-3.954208">
        <ele>1748.922</ele>
        <time>2021-07-29T19:04:53Z</time>
      </trkpt>
      <trkpt lat="40.769229" lon="-3.954195">
        <ele>1748.349</ele>
        <time>2021-07-29T19:04:57Z</time>
      </trkpt>
      <trkpt lat="40.769229" lon="-3.954168">
        <ele>1748.250</ele>
        <time>2021-07-29T19:05:01Z</time>
      </trkpt>
      <trkpt lat="40.769216" lon="-3.954148">
        <ele>1747.750</ele>
        <time>2021-07-29T19:05:04Z</time>
      </trkpt>
      <trkpt lat="40.769216" lon="-3.954122">
        <ele>1747.613</ele>
        <time>2021-07-29T19:05:08Z</time>
      </trkpt>
      <trkpt lat="40.769210" lon="-3.954090">
        <ele>1747.362</ele>
        <time>2021-07-29T19:05:11Z</time>
      </trkpt>
      <trkpt lat="40.769206" lon="-3.954058">
        <ele>1747.078</ele>
        <time>2021-07-29T19:05:14Z</time>
      </trkpt>
      <trkpt lat="40.769203" lon="-3.954027">
        <ele>1746.833</ele>
        <time>2021-07-29T19:05:17Z</time>
      </trkpt>
      <trkpt lat="40.769203" lon="-3.954002">
        <ele>1746.726</ele>
        <time>2021-07-29T19:05:19Z</time>
      </trkpt>
      <trkpt lat="40.769200" lon="-3.953970">
        <ele>1746.508</ele>
        <time>2021-07-29T19:05:21Z</time>
      </trkpt>
      <trkpt lat="40.769203" lon="-3.953942">
        <ele>1746.594</ele>
        <time>2021-07-29T19:05:23Z</time>
      </trkpt>
      <trkpt lat="40.769206" lon="-3.953910">
        <ele>1746.546</ele>
        <time>2021-07-29T19:05:25Z</time>
      </trkpt>
      <trkpt lat="40.769203" lon="-3.953880">
        <ele>1746.273</ele>
        <time>2021-07-29T19:05:27Z</time>
      </trkpt>
      <trkpt lat="40.769203" lon="-3.953840">
        <ele>1746.080</ele>
        <time>2021-07-29T19:05:29Z</time>
      </trkpt>
      <trkpt lat="40.769203" lon="-3.953810">
        <ele>1745.721</ele>
        <time>2021-07-29T19:05:31Z</time>
      </trkpt>
      <trkpt lat="40.769200" lon="-3.953782">
        <ele>1745.451</ele>
        <time>2021-07-29T19:05:33Z</time>
      </trkpt>
      <trkpt lat="40.769200" lon="-3.953755">
        <ele>1745.234</ele>
        <time>2021-07-29T19:05:35Z</time>
      </trkpt>
      <trkpt lat="40.769222" lon="-3.953725">
        <ele>1745.853</ele>
        <time>2021-07-29T19:05:38Z</time>
      </trkpt>
      <trkpt lat="40.769229" lon="-3.953700">
        <ele>1745.911</ele>
        <time>2021-07-29T19:05:40Z</time>
      </trkpt>
      <trkpt lat="40.769219" lon="-3.953678">
        <ele>1745.421</ele>
        <time>2021-07-29T19:05:42Z</time>
      </trkpt>
      <trkpt lat="40.769206" lon="-3.953658">
        <ele>1744.803</ele>
        <time>2021-07-29T19:05:44Z</time>
      </trkpt>
      <trkpt lat="40.769197" lon="-3.953630">
        <ele>1744.208</ele>
        <time>2021-07-29T19:05:47Z</time>
      </trkpt>
      <trkpt lat="40.769200" lon="-3.953602">
        <ele>1744.228</ele>
        <time>2021-07-29T19:05:50Z</time>
      </trkpt>
      <trkpt lat="40.769203" lon="-3.953575">
        <ele>1744.590</ele>
        <time>2021-07-29T19:05:53Z</time>
      </trkpt>
      <trkpt lat="40.769200" lon="-3.953546">
        <ele>1744.567</ele>
        <time>2021-07-29T19:05:55Z</time>
      </trkpt>
      <trkpt lat="40.769190" lon="-3.953515">
        <ele>1744.214</ele>
        <time>2021-07-29T19:05:58Z</time>
      </trkpt>
      <trkpt lat="40.769184" lon="-3.953482">
        <ele>1744.135</ele>
        <time>2021-07-29T19:06:01Z</time>
      </trkpt>
      <trkpt lat="40.769178" lon="-3.953457">
        <ele>1744.065</ele>
        <time>2021-07-29T19:06:03Z</time>
      </trkpt>
      <trkpt lat="40.769165" lon="-3.953435">
        <ele>1743.638</ele>
        <time>2021-07-29T19:06:05Z</time>
      </trkpt>
      <trkpt lat="40.769152" lon="-3.953400">
        <ele>1743.247</ele>
        <time>2021-07-29T19:06:08Z</time>
      </trkpt>
      <trkpt lat="40.769146" lon="-3.953372">
        <ele>1743.191</ele>
        <time>2021-07-29T19:06:10Z</time>
      </trkpt>
      <trkpt lat="40.769139" lon="-3.953347">
        <ele>1742.981</ele>
        <time>2021-07-29T19:06:12Z</time>
      </trkpt>
      <trkpt lat="40.769126" lon="-3.953313">
        <ele>1742.519</ele>
        <time>2021-07-29T19:06:15Z</time>
      </trkpt>
      <trkpt lat="40.769126" lon="-3.953283">
        <ele>1742.608</ele>
        <time>2021-07-29T19:06:17Z</time>
      </trkpt>
      <trkpt lat="40.769110" lon="-3.953253">
        <ele>1742.136</ele>
        <time>2021-07-29T19:06:20Z</time>
      </trkpt>
      <trkpt lat="40.769101" lon="-3.953232">
        <ele>1741.858</ele>
        <time>2021-07-29T19:06:22Z</time>
      </trkpt>
      <trkpt lat="40.769091" lon="-3.953206">
        <ele>1741.435</ele>
        <time>2021-07-29T19:06:24Z</time>
      </trkpt>
      <trkpt lat="40.769078" lon="-3.953177">
        <ele>1740.982</ele>
        <time>2021-07-29T19:06:27Z</time>
      </trkpt>
      <trkpt lat="40.769069" lon="-3.953155">
        <ele>1740.553</ele>
        <time>2021-07-29T19:06:29Z</time>
      </trkpt>
      <trkpt lat="40.769066" lon="-3.953127">
        <ele>1740.493</ele>
        <time>2021-07-29T19:06:31Z</time>
      </trkpt>
      <trkpt lat="40.769059" lon="-3.953097">
        <ele>1740.116</ele>
        <time>2021-07-29T19:06:33Z</time>
      </trkpt>
      <trkpt lat="40.769046" lon="-3.953065">
        <ele>1739.515</ele>
        <time>2021-07-29T19:06:35Z</time>
      </trkpt>
      <trkpt lat="40.769043" lon="-3.953037">
        <ele>1739.522</ele>
        <time>2021-07-29T19:06:37Z</time>
      </trkpt>
      <trkpt lat="40.769037" lon="-3.953008">
        <ele>1739.362</ele>
        <time>2021-07-29T19:06:39Z</time>
      </trkpt>
      <trkpt lat="40.769040" lon="-3.952972">
        <ele>1739.808</ele>
        <time>2021-07-29T19:06:42Z</time>
      </trkpt>
      <trkpt lat="40.769030" lon="-3.952942">
        <ele>1739.408</ele>
        <time>2021-07-29T19:06:44Z</time>
      </trkpt>
      <trkpt lat="40.769027" lon="-3.952905">
        <ele>1739.599</ele>
        <time>2021-07-29T19:06:47Z</time>
      </trkpt>
      <trkpt lat="40.769024" lon="-3.952872">
        <ele>1739.631</ele>
        <time>2021-07-29T19:06:50Z</time>
      </trkpt>
      <trkpt lat="40.769021" lon="-3.952845">
        <ele>1739.728</ele>
        <time>2021-07-29T19:06:52Z</time>
      </trkpt>
      <trkpt lat="40.769021" lon="-3.952813">
        <ele>1739.955</ele>
        <time>2021-07-29T19:06:56Z</time>
      </trkpt>
      <trkpt lat="40.769024" lon="-3.952788">
        <ele>1740.266</ele>
        <time>2021-07-29T19:06:58Z</time>
      </trkpt>
      <trkpt lat="40.769018" lon="-3.952765">
        <ele>1740.136</ele>
        <time>2021-07-29T19:07:00Z</time>
      </trkpt>
      <trkpt lat="40.769002" lon="-3.952733">
        <ele>1739.459</ele>
        <time>2021-07-29T19:07:02Z</time>
      </trkpt>
      <trkpt lat="40.769002" lon="-3.952705">
        <ele>1739.638</ele>
        <time>2021-07-29T19:07:04Z</time>
      </trkpt>
      <trkpt lat="40.768992" lon="-3.952674">
        <ele>1739.333</ele>
        <time>2021-07-29T19:07:07Z</time>
      </trkpt>
      <trkpt lat="40.768982" lon="-3.952647">
        <ele>1739.023</ele>
        <time>2021-07-29T19:07:09Z</time>
      </trkpt>
      <trkpt lat="40.768986" lon="-3.952618">
        <ele>1739.415</ele>
        <time>2021-07-29T19:07:13Z</time>
      </trkpt>
      <trkpt lat="40.768973" lon="-3.952588">
        <ele>1738.908</ele>
        <time>2021-07-29T19:07:17Z</time>
      </trkpt>
      <trkpt lat="40.768957" lon="-3.952562">
        <ele>1738.270</ele>
        <time>2021-07-29T19:07:21Z</time>
      </trkpt>
      <trkpt lat="40.768950" lon="-3.952535">
        <ele>1738.012</ele>
        <time>2021-07-29T19:07:23Z</time>
      </trkpt>
      <trkpt lat="40.768944" lon="-3.952512">
        <ele>1737.949</ele>
        <time>2021-07-29T19:07:26Z</time>
      </trkpt>
      <trkpt lat="40.768947" lon="-3.952487">
        <ele>1738.296</ele>
        <time>2021-07-29T19:07:28Z</time>
      </trkpt>
      <trkpt lat="40.768950" lon="-3.952457">
        <ele>1738.677</ele>
        <time>2021-07-29T19:07:31Z</time>
      </trkpt>
      <trkpt lat="40.768947" lon="-3.952422">
        <ele>1738.647</ele>
        <time>2021-07-29T19:07:34Z</time>
      </trkpt>
      <trkpt lat="40.768941" lon="-3.952392">
        <ele>1738.580</ele>
        <time>2021-07-29T19:07:36Z</time>
      </trkpt>
      <trkpt lat="40.768928" lon="-3.952366">
        <ele>1738.059</ele>
        <time>2021-07-29T19:07:40Z</time>
      </trkpt>
      <trkpt lat="40.768918" lon="-3.952342">
        <ele>1737.713</ele>
        <time>2021-07-29T19:07:42Z</time>
      </trkpt>
      <trkpt lat="40.768918" lon="-3.952308">
        <ele>1737.943</ele>
        <time>2021-07-29T19:07:44Z</time>
      </trkpt>
      <trkpt lat="40.768906" lon="-3.952280">
        <ele>1737.507</ele>
        <time>2021-07-29T19:07:46Z</time>
      </trkpt>
      <trkpt lat="40.768890" lon="-3.952255">
        <ele>1736.808</ele>
        <time>2021-07-29T19:07:48Z</time>
      </trkpt>
      <trkpt lat="40.768874" lon="-3.952227">
        <ele>1736.338</ele>
        <time>2021-07-29T19:07:50Z</time>
      </trkpt>
      <trkpt lat="40.768858" lon="-3.952196">
        <ele>1735.850</ele>
        <time>2021-07-29T19:07:52Z</time>
      </trkpt>
      <trkpt lat="40.768845" lon="-3.952165">
        <ele>1735.487</ele>
        <time>2021-07-29T19:07:54Z</time>
      </trkpt>
      <trkpt lat="40.768848" lon="-3.952134">
        <ele>1735.664</ele>
        <time>2021-07-29T19:07:57Z</time>
      </trkpt>
      <trkpt lat="40.768842" lon="-3.952100">
        <ele>1735.555</ele>
        <time>2021-07-29T19:08:01Z</time>
      </trkpt>
      <trkpt lat="40.768832" lon="-3.952070">
        <ele>1735.155</ele>
        <time>2021-07-29T19:08:04Z</time>
      </trkpt>
      <trkpt lat="40.768842" lon="-3.952037">
        <ele>1735.728</ele>
        <time>2021-07-29T19:08:06Z</time>
      </trkpt>
      <trkpt lat="40.768832" lon="-3.952016">
        <ele>1735.377</ele>
        <time>2021-07-29T19:08:08Z</time>
      </trkpt>
      <trkpt lat="40.768826" lon="-3.951990">
        <ele>1735.083</ele>
        <time>2021-07-29T19:08:10Z</time>
      </trkpt>
      <trkpt lat="40.768806" lon="-3.951965">
        <ele>1733.925</ele>
        <time>2021-07-29T19:08:13Z</time>
      </trkpt>
      <trkpt lat="40.768790" lon="-3.951954">
        <ele>1732.917</ele>
        <time>2021-07-29T19:08:18Z</time>
      </trkpt>
      <trkpt lat="40.768768" lon="-3.951932">
        <ele>1731.708</ele>
        <time>2021-07-29T19:08:20Z</time>
      </trkpt>
      <trkpt lat="40.768749" lon="-3.951903">
        <ele>1730.735</ele>
        <time>2021-07-29T19:08:23Z</time>
      </trkpt>
      <trkpt lat="40.768739" lon="-3.951880">
        <ele>1730.247</ele>
        <time>2021-07-29T19:08:25Z</time>
      </trkpt>
      <trkpt lat="40.768730" lon="-3.951858">
        <ele>1729.854</ele>
        <time>2021-07-29T19:08:27Z</time>
      </trkpt>
      <trkpt lat="40.768723" lon="-3.951833">
        <ele>1729.581</ele>
        <time>2021-07-29T19:08:30Z</time>
      </trkpt>
      <trkpt lat="40.768707" lon="-3.951815">
        <ele>1728.632</ele>
        <time>2021-07-29T19:08:32Z</time>
      </trkpt>
      <trkpt lat="40.768688" lon="-3.951795">
        <ele>1727.612</ele>
        <time>2021-07-29T19:08:35Z</time>
      </trkpt>
      <trkpt lat="40.768675" lon="-3.951767">
        <ele>1727.025</ele>
        <time>2021-07-29T19:08:38Z</time>
      </trkpt>
      <trkpt lat="40.768669" lon="-3.951743">
        <ele>1726.884</ele>
        <time>2021-07-29T19:08:40Z</time>
      </trkpt>
      <trkpt lat="40.768662" lon="-3.951720">
        <ele>1726.625</ele>
        <time>2021-07-29T19:08:45Z</time>
      </trkpt>
      <trkpt lat="40.768640" lon="-3.951717">
        <ele>1725.326</ele>
        <time>2021-07-29T19:08:48Z</time>
      </trkpt>
      <trkpt lat="40.768624" lon="-3.951700">
        <ele>1724.508</ele>
        <time>2021-07-29T19:08:51Z</time>
      </trkpt>
      <trkpt lat="40.768614" lon="-3.951665">
        <ele>1724.208</ele>
        <time>2021-07-29T19:08:54Z</time>
      </trkpt>
      <trkpt lat="40.768608" lon="-3.951638">
        <ele>1724.179</ele>
        <time>2021-07-29T19:08:56Z</time>
      </trkpt>
      <trkpt lat="40.768608" lon="-3.951598">
        <ele>1724.231</ele>
        <time>2021-07-29T19:08:58Z</time>
      </trkpt>
      <trkpt lat="40.768611" lon="-3.951572">
        <ele>1724.368</ele>
        <time>2021-07-29T19:09:00Z</time>
      </trkpt>
      <trkpt lat="40.768595" lon="-3.951538">
        <ele>1724.165</ele>
        <time>2021-07-29T19:09:02Z</time>
      </trkpt>
      <trkpt lat="40.768582" lon="-3.951513">
        <ele>1723.916</ele>
        <time>2021-07-29T19:09:06Z</time>
      </trkpt>
      <trkpt lat="40.768566" lon="-3.951485">
        <ele>1723.656</ele>
        <time>2021-07-29T19:09:09Z</time>
      </trkpt>
      <trkpt lat="40.768563" lon="-3.951458">
        <ele>1723.549</ele>
        <time>2021-07-29T19:09:11Z</time>
      </trkpt>
      <trkpt lat="40.768570" lon="-3.951428">
        <ele>1723.898</ele>
        <time>2021-07-29T19:09:14Z</time>
      </trkpt>
      <trkpt lat="40.768563" lon="-3.951390">
        <ele>1723.629</ele>
        <time>2021-07-29T19:09:17Z</time>
      </trkpt>
      <trkpt lat="40.768560" lon="-3.951357">
        <ele>1723.300</ele>
        <time>2021-07-29T19:09:20Z</time>
      </trkpt>
      <trkpt lat="40.768570" lon="-3.951320">
        <ele>1723.320</ele>
        <time>2021-07-29T19:09:23Z</time>
      </trkpt>
      <trkpt lat="40.768573" lon="-3.951282">
        <ele>1723.108</ele>
        <time>2021-07-29T19:09:26Z</time>
      </trkpt>
      <trkpt lat="40.768573" lon="-3.951254">
        <ele>1722.919</ele>
        <time>2021-07-29T19:09:28Z</time>
      </trkpt>
      <trkpt lat="40.768573" lon="-3.951215">
        <ele>1722.711</ele>
        <time>2021-07-29T19:09:31Z</time>
      </trkpt>
      <trkpt lat="40.768563" lon="-3.951182">
        <ele>1722.128</ele>
        <time>2021-07-29T19:09:33Z</time>
      </trkpt>
      <trkpt lat="40.768550" lon="-3.951162">
        <ele>1721.665</ele>
        <time>2021-07-29T19:09:38Z</time>
      </trkpt>
      <trkpt lat="40.768550" lon="-3.951133">
        <ele>1721.426</ele>
        <time>2021-07-29T19:09:40Z</time>
      </trkpt>
      <trkpt lat="40.768547" lon="-3.951108">
        <ele>1721.146</ele>
        <time>2021-07-29T19:09:42Z</time>
      </trkpt>
      <trkpt lat="40.768547" lon="-3.951063">
        <ele>1720.869</ele>
        <time>2021-07-29T19:09:44Z</time>
      </trkpt>
      <trkpt lat="40.768566" lon="-3.951033">
        <ele>1721.158</ele>
        <time>2021-07-29T19:09:45Z</time>
      </trkpt>
      <trkpt lat="40.768582" lon="-3.951012">
        <ele>1721.418</ele>
        <time>2021-07-29T19:09:46Z</time>
      </trkpt>
      <trkpt lat="40.768592" lon="-3.950990">
        <ele>1721.698</ele>
        <time>2021-07-29T19:09:49Z</time>
      </trkpt>
      <trkpt lat="40.768576" lon="-3.950970">
        <ele>1721.017</ele>
        <time>2021-07-29T19:09:51Z</time>
      </trkpt>
      <trkpt lat="40.768554" lon="-3.950958">
        <ele>1720.308</ele>
        <time>2021-07-29T19:09:52Z</time>
      </trkpt>
      <trkpt lat="40.768541" lon="-3.950937">
        <ele>1719.748</ele>
        <time>2021-07-29T19:09:53Z</time>
      </trkpt>
      <trkpt lat="40.768522" lon="-3.950918">
        <ele>1719.060</ele>
        <time>2021-07-29T19:09:54Z</time>
      </trkpt>
      <trkpt lat="40.768509" lon="-3.950887">
        <ele>1718.417</ele>
        <time>2021-07-29T19:09:55Z</time>
      </trkpt>
      <trkpt lat="40.768496" lon="-3.950855">
        <ele>1717.884</ele>
        <time>2021-07-29T19:09:57Z</time>
      </trkpt>
      <trkpt lat="40.768509" lon="-3.950833">
        <ele>1718.165</ele>
        <time>2021-07-29T19:10:00Z</time>
      </trkpt>
      <trkpt lat="40.768493" lon="-3.950818">
        <ele>1717.525</ele>
        <time>2021-07-29T19:10:02Z</time>
      </trkpt>
      <trkpt lat="40.768486" lon="-3.950788">
        <ele>1717.198</ele>
        <time>2021-07-29T19:10:08Z</time>
      </trkpt>
      <trkpt lat="40.768470" lon="-3.950772">
        <ele>1716.597</ele>
        <time>2021-07-29T19:10:09Z</time>
      </trkpt>
      <trkpt lat="40.768454" lon="-3.950752">
        <ele>1715.999</ele>
        <time>2021-07-29T19:10:12Z</time>
      </trkpt>
      <trkpt lat="40.768442" lon="-3.950733">
        <ele>1715.407</ele>
        <time>2021-07-29T19:10:15Z</time>
      </trkpt>
      <trkpt lat="40.768426" lon="-3.950720">
        <ele>1714.927</ele>
        <time>2021-07-29T19:10:16Z</time>
      </trkpt>
      <trkpt lat="40.768397" lon="-3.950717">
        <ele>1714.008</ele>
        <time>2021-07-29T19:10:18Z</time>
      </trkpt>
      <trkpt lat="40.768371" lon="-3.950718">
        <ele>1713.346</ele>
        <time>2021-07-29T19:10:21Z</time>
      </trkpt>
      <trkpt lat="40.768349" lon="-3.950712">
        <ele>1712.648</ele>
        <time>2021-07-29T19:10:26Z</time>
      </trkpt>
      <trkpt lat="40.768317" lon="-3.950708">
        <ele>1712.935</ele>
        <time>2021-07-29T19:10:29Z</time>
      </trkpt>
      <trkpt lat="40.768298" lon="-3.950698">
        <ele>1713.722</ele>
        <time>2021-07-29T19:10:31Z</time>
      </trkpt>
      <trkpt lat="40.768282" lon="-3.950678">
        <ele>1714.323</ele>
        <time>2021-07-29T19:10:34Z</time>
      </trkpt>
      <trkpt lat="40.768307" lon="-3.950697">
        <ele>1713.353</ele>
        <time>2021-07-29T19:10:42Z</time>
      </trkpt>
      <trkpt lat="40.768326" lon="-3.950715">
        <ele>1712.586</ele>
        <time>2021-07-29T19:10:44Z</time>
      </trkpt>
      <trkpt lat="40.768352" lon="-3.950727">
        <ele>1712.845</ele>
        <time>2021-07-29T19:10:46Z</time>
      </trkpt>
      <trkpt lat="40.768374" lon="-3.950752">
        <ele>1713.653</ele>
        <time>2021-07-29T19:10:48Z</time>
      </trkpt>
      <trkpt lat="40.768403" lon="-3.950762">
        <ele>1714.504</ele>
        <time>2021-07-29T19:10:50Z</time>
      </trkpt>
      <trkpt lat="40.768432" lon="-3.950762">
        <ele>1715.314</ele>
        <time>2021-07-29T19:10:52Z</time>
      </trkpt>
      <trkpt lat="40.768461" lon="-3.950740">
        <ele>1716.008</ele>
        <time>2021-07-29T19:10:54Z</time>
      </trkpt>
      <trkpt lat="40.768486" lon="-3.950720">
        <ele>1716.662</ele>
        <time>2021-07-29T19:10:56Z</time>
      </trkpt>
      <trkpt lat="40.768502" lon="-3.950702">
        <ele>1716.974</ele>
        <time>2021-07-29T19:10:58Z</time>
      </trkpt>
      <trkpt lat="40.768512" lon="-3.950672">
        <ele>1717.051</ele>
        <time>2021-07-29T19:11:01Z</time>
      </trkpt>
      <trkpt lat="40.768506" lon="-3.950640">
        <ele>1716.648</ele>
        <time>2021-07-29T19:11:03Z</time>
      </trkpt>
      <trkpt lat="40.768506" lon="-3.950606">
        <ele>1716.399</ele>
        <time>2021-07-29T19:11:05Z</time>
      </trkpt>
      <trkpt lat="40.768515" lon="-3.950582">
        <ele>1716.469</ele>
        <time>2021-07-29T19:11:07Z</time>
      </trkpt>
      <trkpt lat="40.768525" lon="-3.950552">
        <ele>1716.562</ele>
        <time>2021-07-29T19:11:09Z</time>
      </trkpt>
      <trkpt lat="40.768528" lon="-3.950513">
        <ele>1716.411</ele>
        <time>2021-07-29T19:11:11Z</time>
      </trkpt>
      <trkpt lat="40.768525" lon="-3.950472">
        <ele>1716.134</ele>
        <time>2021-07-29T19:11:13Z</time>
      </trkpt>
      <trkpt lat="40.768531" lon="-3.950442">
        <ele>1716.255</ele>
        <time>2021-07-29T19:11:15Z</time>
      </trkpt>
      <trkpt lat="40.768541" lon="-3.950406">
        <ele>1716.310</ele>
        <time>2021-07-29T19:11:17Z</time>
      </trkpt>
      <trkpt lat="40.768547" lon="-3.950370">
        <ele>1716.308</ele>
        <time>2021-07-29T19:11:19Z</time>
      </trkpt>
      <trkpt lat="40.768560" lon="-3.950352">
        <ele>1716.720</ele>
        <time>2021-07-29T19:11:20Z</time>
      </trkpt>
      <trkpt lat="40.768563" lon="-3.950325">
        <ele>1716.632</ele>
        <time>2021-07-29T19:11:22Z</time>
      </trkpt>
      <trkpt lat="40.768573" lon="-3.950298">
        <ele>1716.869</ele>
        <time>2021-07-29T19:11:24Z</time>
      </trkpt>
      <trkpt lat="40.768573" lon="-3.950270">
        <ele>1716.766</ele>
        <time>2021-07-29T19:11:26Z</time>
      </trkpt>
      <trkpt lat="40.768566" lon="-3.950234">
        <ele>1716.417</ele>
        <time>2021-07-29T19:11:28Z</time>
      </trkpt>
      <trkpt lat="40.768550" lon="-3.950212">
        <ele>1715.837</ele>
        <time>2021-07-29T19:11:29Z</time>
      </trkpt>
      <trkpt lat="40.768544" lon="-3.950180">
        <ele>1715.580</ele>
        <time>2021-07-29T19:11:33Z</time>
      </trkpt>
      <trkpt lat="40.768541" lon="-3.950148">
        <ele>1715.389</ele>
        <time>2021-07-29T19:11:35Z</time>
      </trkpt>
      <trkpt lat="40.768531" lon="-3.950125">
        <ele>1714.961</ele>
        <time>2021-07-29T19:11:37Z</time>
      </trkpt>
      <trkpt lat="40.768544" lon="-3.950092">
        <ele>1715.221</ele>
        <time>2021-07-29T19:11:39Z</time>
      </trkpt>
      <trkpt lat="40.768544" lon="-3.950058">
        <ele>1715.013</ele>
        <time>2021-07-29T19:11:41Z</time>
      </trkpt>
      <trkpt lat="40.768544" lon="-3.950033">
        <ele>1714.908</ele>
        <time>2021-07-29T19:11:43Z</time>
      </trkpt>
      <trkpt lat="40.768544" lon="-3.949998">
        <ele>1714.833</ele>
        <time>2021-07-29T19:11:45Z</time>
      </trkpt>
      <trkpt lat="40.768544" lon="-3.949965">
        <ele>1714.795</ele>
        <time>2021-07-29T19:11:47Z</time>
      </trkpt>
      <trkpt lat="40.768544" lon="-3.949935">
        <ele>1714.532</ele>
        <time>2021-07-29T19:11:49Z</time>
      </trkpt>
      <trkpt lat="40.768550" lon="-3.949908">
        <ele>1714.629</ele>
        <time>2021-07-29T19:11:51Z</time>
      </trkpt>
      <trkpt lat="40.768550" lon="-3.949878">
        <ele>1714.570</ele>
        <time>2021-07-29T19:11:53Z</time>
      </trkpt>
      <trkpt lat="40.768560" lon="-3.949847">
        <ele>1714.790</ele>
        <time>2021-07-29T19:11:54Z</time>
      </trkpt>
      <trkpt lat="40.768563" lon="-3.949823">
        <ele>1714.743</ele>
        <time>2021-07-29T19:11:55Z</time>
      </trkpt>
      <trkpt lat="40.768566" lon="-3.949795">
        <ele>1714.772</ele>
        <time>2021-07-29T19:11:57Z</time>
      </trkpt>
      <trkpt lat="40.768570" lon="-3.949768">
        <ele>1714.731</ele>
        <time>2021-07-29T19:11:59Z</time>
      </trkpt>
      <trkpt lat="40.768570" lon="-3.949732">
        <ele>1714.661</ele>
        <time>2021-07-29T19:12:01Z</time>
      </trkpt>
      <trkpt lat="40.768566" lon="-3.949702">
        <ele>1714.207</ele>
        <time>2021-07-29T19:12:03Z</time>
      </trkpt>
      <trkpt lat="40.768573" lon="-3.949672">
        <ele>1714.308</ele>
        <time>2021-07-29T19:12:05Z</time>
      </trkpt>
      <trkpt lat="40.768582" lon="-3.949637">
        <ele>1714.370</ele>
        <time>2021-07-29T19:12:08Z</time>
      </trkpt>
      <trkpt lat="40.768576" lon="-3.949603">
        <ele>1713.952</ele>
        <time>2021-07-29T19:12:10Z</time>
      </trkpt>
      <trkpt lat="40.768573" lon="-3.949570">
        <ele>1713.529</ele>
        <time>2021-07-29T19:12:12Z</time>
      </trkpt>
      <trkpt lat="40.768576" lon="-3.949544">
        <ele>1713.536</ele>
        <time>2021-07-29T19:12:14Z</time>
      </trkpt>
      <trkpt lat="40.768576" lon="-3.949517">
        <ele>1713.357</ele>
        <time>2021-07-29T19:12:16Z</time>
      </trkpt>
      <trkpt lat="40.768576" lon="-3.949487">
        <ele>1713.097</ele>
        <time>2021-07-29T19:12:18Z</time>
      </trkpt>
      <trkpt lat="40.768576" lon="-3.949460">
        <ele>1712.860</ele>
        <time>2021-07-29T19:12:20Z</time>
      </trkpt>
      <trkpt lat="40.768582" lon="-3.949432">
        <ele>1712.989</ele>
        <time>2021-07-29T19:12:22Z</time>
      </trkpt>
      <trkpt lat="40.768573" lon="-3.949403">
        <ele>1712.543</ele>
        <time>2021-07-29T19:12:24Z</time>
      </trkpt>
      <trkpt lat="40.768563" lon="-3.949380">
        <ele>1712.064</ele>
        <time>2021-07-29T19:12:30Z</time>
      </trkpt>
      <trkpt lat="40.768544" lon="-3.949362">
        <ele>1711.310</ele>
        <time>2021-07-29T19:12:35Z</time>
      </trkpt>
      <trkpt lat="40.768544" lon="-3.949336">
        <ele>1711.208</ele>
        <time>2021-07-29T19:12:38Z</time>
      </trkpt>
      <trkpt lat="40.768544" lon="-3.949308">
        <ele>1711.151</ele>
        <time>2021-07-29T19:12:42Z</time>
      </trkpt>
      <trkpt lat="40.768544" lon="-3.949283">
        <ele>1711.043</ele>
        <time>2021-07-29T19:12:45Z</time>
      </trkpt>
      <trkpt lat="40.768531" lon="-3.949260">
        <ele>1710.570</ele>
        <time>2021-07-29T19:12:50Z</time>
      </trkpt>
      <trkpt lat="40.768525" lon="-3.949233">
        <ele>1710.127</ele>
        <time>2021-07-29T19:12:55Z</time>
      </trkpt>
      <trkpt lat="40.768512" lon="-3.949213">
        <ele>1709.648</ele>
        <time>2021-07-29T19:12:59Z</time>
      </trkpt>
      <trkpt lat="40.768506" lon="-3.949188">
        <ele>1709.328</ele>
        <time>2021-07-29T19:13:02Z</time>
      </trkpt>
      <trkpt lat="40.768502" lon="-3.949162">
        <ele>1709.031</ele>
        <time>2021-07-29T19:13:05Z</time>
      </trkpt>
      <trkpt lat="40.768496" lon="-3.949135">
        <ele>1708.790</ele>
        <time>2021-07-29T19:13:09Z</time>
      </trkpt>
      <trkpt lat="40.768490" lon="-3.949102">
        <ele>1708.351</ele>
        <time>2021-07-29T19:13:12Z</time>
      </trkpt>
      <trkpt lat="40.768490" lon="-3.949070">
        <ele>1708.101</ele>
        <time>2021-07-29T19:13:15Z</time>
      </trkpt>
      <trkpt lat="40.768486" lon="-3.949043">
        <ele>1707.811</ele>
        <time>2021-07-29T19:13:17Z</time>
      </trkpt>
      <trkpt lat="40.768490" lon="-3.949012">
        <ele>1707.808</ele>
        <time>2021-07-29T19:13:20Z</time>
      </trkpt>
      <trkpt lat="40.768486" lon="-3.948983">
        <ele>1707.572</ele>
        <time>2021-07-29T19:13:22Z</time>
      </trkpt>
      <trkpt lat="40.768483" lon="-3.948958">
        <ele>1707.374</ele>
        <time>2021-07-29T19:13:25Z</time>
      </trkpt>
      <trkpt lat="40.768490" lon="-3.948935">
        <ele>1707.421</ele>
        <time>2021-07-29T19:13:28Z</time>
      </trkpt>
      <trkpt lat="40.768486" lon="-3.948902">
        <ele>1707.178</ele>
        <time>2021-07-29T19:13:31Z</time>
      </trkpt>
      <trkpt lat="40.768470" lon="-3.948878">
        <ele>1706.449</ele>
        <time>2021-07-29T19:13:33Z</time>
      </trkpt>
      <trkpt lat="40.768451" lon="-3.948855">
        <ele>1705.549</ele>
        <time>2021-07-29T19:13:35Z</time>
      </trkpt>
      <trkpt lat="40.768448" lon="-3.948817">
        <ele>1705.312</ele>
        <time>2021-07-29T19:13:37Z</time>
      </trkpt>
      <trkpt lat="40.768442" lon="-3.948794">
        <ele>1705.051</ele>
        <time>2021-07-29T19:13:38Z</time>
      </trkpt>
      <trkpt lat="40.768435" lon="-3.948770">
        <ele>1704.634</ele>
        <time>2021-07-29T19:13:40Z</time>
      </trkpt>
      <trkpt lat="40.768429" lon="-3.948745">
        <ele>1704.355</ele>
        <time>2021-07-29T19:13:43Z</time>
      </trkpt>
      <trkpt lat="40.768413" lon="-3.948722">
        <ele>1703.610</ele>
        <time>2021-07-29T19:13:45Z</time>
      </trkpt>
      <trkpt lat="40.768406" lon="-3.948690">
        <ele>1703.208</ele>
        <time>2021-07-29T19:13:48Z</time>
      </trkpt>
      <trkpt lat="40.768390" lon="-3.948670">
        <ele>1702.590</ele>
        <time>2021-07-29T19:13:50Z</time>
      </trkpt>
      <trkpt lat="40.768381" lon="-3.948638">
        <ele>1702.022</ele>
        <time>2021-07-29T19:13:53Z</time>
      </trkpt>
      <trkpt lat="40.768371" lon="-3.948617">
        <ele>1701.569</ele>
        <time>2021-07-29T19:13:55Z</time>
      </trkpt>
      <trkpt lat="40.768365" lon="-3.948592">
        <ele>1701.136</ele>
        <time>2021-07-29T19:13:57Z</time>
      </trkpt>
      <trkpt lat="40.768362" lon="-3.948565">
        <ele>1700.857</ele>
        <time>2021-07-29T19:13:59Z</time>
      </trkpt>
      <trkpt lat="40.768355" lon="-3.948535">
        <ele>1700.357</ele>
        <time>2021-07-29T19:14:02Z</time>
      </trkpt>
      <trkpt lat="40.768349" lon="-3.948512">
        <ele>1699.960</ele>
        <time>2021-07-29T19:14:05Z</time>
      </trkpt>
      <trkpt lat="40.768349" lon="-3.948487">
        <ele>1699.719</ele>
        <time>2021-07-29T19:14:08Z</time>
      </trkpt>
      <trkpt lat="40.768355" lon="-3.948452">
        <ele>1699.751</ele>
        <time>2021-07-29T19:14:11Z</time>
      </trkpt>
      <trkpt lat="40.768346" lon="-3.948420">
        <ele>1699.101</ele>
        <time>2021-07-29T19:14:14Z</time>
      </trkpt>
      <trkpt lat="40.768333" lon="-3.948403">
        <ele>1698.511</ele>
        <time>2021-07-29T19:14:15Z</time>
      </trkpt>
      <trkpt lat="40.768323" lon="-3.948375">
        <ele>1698.608</ele>
        <time>2021-07-29T19:14:17Z</time>
      </trkpt>
      <trkpt lat="40.768323" lon="-3.948345">
        <ele>1698.412</ele>
        <time>2021-07-29T19:14:20Z</time>
      </trkpt>
      <trkpt lat="40.768346" lon="-3.948318">
        <ele>1698.354</ele>
        <time>2021-07-29T19:14:24Z</time>
      </trkpt>
      <trkpt lat="40.768346" lon="-3.948283">
        <ele>1698.061</ele>
        <time>2021-07-29T19:14:26Z</time>
      </trkpt>
      <trkpt lat="40.768355" lon="-3.948255">
        <ele>1698.058</ele>
        <time>2021-07-29T19:14:29Z</time>
      </trkpt>
      <trkpt lat="40.768362" lon="-3.948225">
        <ele>1698.019</ele>
        <time>2021-07-29T19:14:32Z</time>
      </trkpt>
      <trkpt lat="40.768371" lon="-3.948202">
        <ele>1698.199</ele>
        <time>2021-07-29T19:14:35Z</time>
      </trkpt>
      <trkpt lat="40.768371" lon="-3.948168">
        <ele>1697.782</ele>
        <time>2021-07-29T19:14:38Z</time>
      </trkpt>
      <trkpt lat="40.768381" lon="-3.948144">
        <ele>1697.821</ele>
        <time>2021-07-29T19:14:40Z</time>
      </trkpt>
      <trkpt lat="40.768384" lon="-3.948120">
        <ele>1697.783</ele>
        <time>2021-07-29T19:14:42Z</time>
      </trkpt>
      <trkpt lat="40.768394" lon="-3.948097">
        <ele>1697.825</ele>
        <time>2021-07-29T19:14:44Z</time>
      </trkpt>
      <trkpt lat="40.768397" lon="-3.948067">
        <ele>1697.617</ele>
        <time>2021-07-29T19:14:46Z</time>
      </trkpt>
      <trkpt lat="40.768390" lon="-3.948042">
        <ele>1697.108</ele>
        <time>2021-07-29T19:14:48Z</time>
      </trkpt>
      <trkpt lat="40.768387" lon="-3.948015">
        <ele>1696.745</ele>
        <time>2021-07-29T19:14:50Z</time>
      </trkpt>
      <trkpt lat="40.768394" lon="-3.947990">
        <ele>1696.767</ele>
        <time>2021-07-29T19:14:52Z</time>
      </trkpt>
      <trkpt lat="40.768403" lon="-3.947963">
        <ele>1696.824</ele>
        <time>2021-07-29T19:14:54Z</time>
      </trkpt>
      <trkpt lat="40.768406" lon="-3.947930">
        <ele>1696.651</ele>
        <time>2021-07-29T19:14:56Z</time>
      </trkpt>
      <trkpt lat="40.768403" lon="-3.947900">
        <ele>1696.282</ele>
        <time>2021-07-29T19:14:58Z</time>
      </trkpt>
      <trkpt lat="40.768403" lon="-3.947870">
        <ele>1695.942</ele>
        <time>2021-07-29T19:15:00Z</time>
      </trkpt>
      <trkpt lat="40.768422" lon="-3.947843">
        <ele>1696.515</ele>
        <time>2021-07-29T19:15:03Z</time>
      </trkpt>
      <trkpt lat="40.768429" lon="-3.947820">
        <ele>1696.544</ele>
        <time>2021-07-29T19:15:06Z</time>
      </trkpt>
      <trkpt lat="40.768429" lon="-3.947790">
        <ele>1696.272</ele>
        <time>2021-07-29T19:15:09Z</time>
      </trkpt>
      <trkpt lat="40.768435" lon="-3.947762">
        <ele>1696.313</ele>
        <time>2021-07-29T19:15:11Z</time>
      </trkpt>
      <trkpt lat="40.768422" lon="-3.947740">
        <ele>1695.514</ele>
        <time>2021-07-29T19:15:15Z</time>
      </trkpt>
      <trkpt lat="40.768413" lon="-3.947715">
        <ele>1694.908</ele>
        <time>2021-07-29T19:15:18Z</time>
      </trkpt>
      <trkpt lat="40.768387" lon="-3.947707">
        <ele>1693.814</ele>
        <time>2021-07-29T19:15:23Z</time>
      </trkpt>
      <trkpt lat="40.768390" lon="-3.947670">
        <ele>1693.646</ele>
        <time>2021-07-29T19:15:28Z</time>
      </trkpt>
      <trkpt lat="40.768403" lon="-3.947640">
        <ele>1693.953</ele>
        <time>2021-07-29T19:15:30Z</time>
      </trkpt>
      <trkpt lat="40.768397" lon="-3.947612">
        <ele>1693.420</ele>
        <time>2021-07-29T19:15:35Z</time>
      </trkpt>
      <trkpt lat="40.768397" lon="-3.947586">
        <ele>1693.271</ele>
        <time>2021-07-29T19:15:39Z</time>
      </trkpt>
      <trkpt lat="40.768413" lon="-3.947557">
        <ele>1693.631</ele>
        <time>2021-07-29T19:15:44Z</time>
      </trkpt>
      <trkpt lat="40.768426" lon="-3.947532">
        <ele>1693.914</ele>
        <time>2021-07-29T19:15:46Z</time>
      </trkpt>
      <trkpt lat="40.768429" lon="-3.947500">
        <ele>1693.873</ele>
        <time>2021-07-29T19:15:49Z</time>
      </trkpt>
      <trkpt lat="40.768435" lon="-3.947462">
        <ele>1693.696</ele>
        <time>2021-07-29T19:15:52Z</time>
      </trkpt>
      <trkpt lat="40.768445" lon="-3.947432">
        <ele>1693.731</ele>
        <time>2021-07-29T19:15:54Z</time>
      </trkpt>
      <trkpt lat="40.768451" lon="-3.947397">
        <ele>1693.524</ele>
        <time>2021-07-29T19:15:56Z</time>
      </trkpt>
      <trkpt lat="40.768461" lon="-3.947368">
        <ele>1693.508</ele>
        <time>2021-07-29T19:15:58Z</time>
      </trkpt>
      <trkpt lat="40.768464" lon="-3.947343">
        <ele>1693.346</ele>
        <time>2021-07-29T19:16:00Z</time>
      </trkpt>
      <trkpt lat="40.768464" lon="-3.947315">
        <ele>1692.968</ele>
        <time>2021-07-29T19:16:04Z</time>
      </trkpt>
      <trkpt lat="40.768461" lon="-3.947288">
        <ele>1692.565</ele>
        <time>2021-07-29T19:16:07Z</time>
      </trkpt>
      <trkpt lat="40.768464" lon="-3.947263">
        <ele>1692.392</ele>
        <time>2021-07-29T19:16:09Z</time>
      </trkpt>
      <trkpt lat="40.768474" lon="-3.947242">
        <ele>1692.313</ele>
        <time>2021-07-29T19:16:11Z</time>
      </trkpt>
      <trkpt lat="40.768490" lon="-3.947218">
        <ele>1692.463</ele>
        <time>2021-07-29T19:16:13Z</time>
      </trkpt>
      <trkpt lat="40.768502" lon="-3.947182">
        <ele>1692.646</ele>
        <time>2021-07-29T19:16:17Z</time>
      </trkpt>
      <trkpt lat="40.768496" lon="-3.947143">
        <ele>1692.385</ele>
        <time>2021-07-29T19:16:19Z</time>
      </trkpt>
      <trkpt lat="40.768496" lon="-3.947108">
        <ele>1692.346</ele>
        <time>2021-07-29T19:16:21Z</time>
      </trkpt>
      <trkpt lat="40.768509" lon="-3.947088">
        <ele>1692.588</ele>
        <time>2021-07-29T19:16:23Z</time>
      </trkpt>
      <trkpt lat="40.768525" lon="-3.947074">
        <ele>1692.816</ele>
        <time>2021-07-29T19:16:26Z</time>
      </trkpt>
      <trkpt lat="40.768544" lon="-3.947062">
        <ele>1693.108</ele>
        <time>2021-07-29T19:16:28Z</time>
      </trkpt>
      <trkpt lat="40.768560" lon="-3.947042">
        <ele>1693.481</ele>
        <time>2021-07-29T19:16:30Z</time>
      </trkpt>
      <trkpt lat="40.768570" lon="-3.947015">
        <ele>1693.553</ele>
        <time>2021-07-29T19:16:32Z</time>
      </trkpt>
      <trkpt lat="40.768570" lon="-3.946987">
        <ele>1693.460</ele>
        <time>2021-07-29T19:16:35Z</time>
      </trkpt>
      <trkpt lat="40.768582" lon="-3.946960">
        <ele>1693.577</ele>
        <time>2021-07-29T19:16:39Z</time>
      </trkpt>
      <trkpt lat="40.768589" lon="-3.946935">
        <ele>1693.598</ele>
        <time>2021-07-29T19:16:41Z</time>
      </trkpt>
      <trkpt lat="40.768592" lon="-3.946908">
        <ele>1693.328</ele>
        <time>2021-07-29T19:16:43Z</time>
      </trkpt>
      <trkpt lat="40.768605" lon="-3.946883">
        <ele>1693.291</ele>
        <time>2021-07-29T19:16:45Z</time>
      </trkpt>
      <trkpt lat="40.768624" lon="-3.946852">
        <ele>1693.510</ele>
        <time>2021-07-29T19:16:48Z</time>
      </trkpt>
      <trkpt lat="40.768634" lon="-3.946820">
        <ele>1693.699</ele>
        <time>2021-07-29T19:16:51Z</time>
      </trkpt>
      <trkpt lat="40.768646" lon="-3.946797">
        <ele>1693.807</ele>
        <time>2021-07-29T19:16:53Z</time>
      </trkpt>
      <trkpt lat="40.768662" lon="-3.946777">
        <ele>1694.227</ele>
        <time>2021-07-29T19:16:56Z</time>
      </trkpt>
      <trkpt lat="40.768672" lon="-3.946755">
        <ele>1694.408</ele>
        <time>2021-07-29T19:16:58Z</time>
      </trkpt>
      <trkpt lat="40.768682" lon="-3.946730">
        <ele>1694.586</ele>
        <time>2021-07-29T19:17:00Z</time>
      </trkpt>
      <trkpt lat="40.768685" lon="-3.946697">
        <ele>1694.368</ele>
        <time>2021-07-29T19:17:02Z</time>
      </trkpt>
      <trkpt lat="40.768685" lon="-3.946668">
        <ele>1693.985</ele>
        <time>2021-07-29T19:17:04Z</time>
      </trkpt>
      <trkpt lat="40.768688" lon="-3.946642">
        <ele>1693.552</ele>
        <time>2021-07-29T19:17:06Z</time>
      </trkpt>
      <trkpt lat="40.768704" lon="-3.946618">
        <ele>1693.663</ele>
        <time>2021-07-29T19:17:08Z</time>
      </trkpt>
      <trkpt lat="40.768723" lon="-3.946600">
        <ele>1693.943</ele>
        <time>2021-07-29T19:17:10Z</time>
      </trkpt>
      <trkpt lat="40.768742" lon="-3.946582">
        <ele>1694.386</ele>
        <time>2021-07-29T19:17:12Z</time>
      </trkpt>
      <trkpt lat="40.768758" lon="-3.946568">
        <ele>1694.775</ele>
        <time>2021-07-29T19:17:14Z</time>
      </trkpt>
      <trkpt lat="40.768771" lon="-3.946543">
        <ele>1694.726</ele>
        <time>2021-07-29T19:17:16Z</time>
      </trkpt>
      <trkpt lat="40.768774" lon="-3.946518">
        <ele>1694.347</ele>
        <time>2021-07-29T19:17:19Z</time>
      </trkpt>
      <trkpt lat="40.768787" lon="-3.946502">
        <ele>1694.611</ele>
        <time>2021-07-29T19:17:20Z</time>
      </trkpt>
      <trkpt lat="40.768803" lon="-3.946488">
        <ele>1695.008</ele>
        <time>2021-07-29T19:17:22Z</time>
      </trkpt>
      <trkpt lat="40.768794" lon="-3.946452">
        <ele>1693.869</ele>
        <time>2021-07-29T19:17:25Z</time>
      </trkpt>
      <trkpt lat="40.768794" lon="-3.946412">
        <ele>1693.041</ele>
        <time>2021-07-29T19:17:27Z</time>
      </trkpt>
      <trkpt lat="40.768800" lon="-3.946365">
        <ele>1692.568</ele>
        <time>2021-07-29T19:17:29Z</time>
      </trkpt>
      <trkpt lat="40.768810" lon="-3.946330">
        <ele>1692.665</ele>
        <time>2021-07-29T19:17:31Z</time>
      </trkpt>
      <trkpt lat="40.768819" lon="-3.946307">
        <ele>1692.766</ele>
        <time>2021-07-29T19:17:36Z</time>
      </trkpt>
      <trkpt lat="40.768813" lon="-3.946282">
        <ele>1692.196</ele>
        <time>2021-07-29T19:17:42Z</time>
      </trkpt>
      <trkpt lat="40.768826" lon="-3.946252">
        <ele>1692.469</ele>
        <time>2021-07-29T19:17:44Z</time>
      </trkpt>
      <trkpt lat="40.768838" lon="-3.946225">
        <ele>1692.678</ele>
        <time>2021-07-29T19:17:46Z</time>
      </trkpt>
      <trkpt lat="40.768845" lon="-3.946202">
        <ele>1692.732</ele>
        <time>2021-07-29T19:17:49Z</time>
      </trkpt>
      <trkpt lat="40.768845" lon="-3.946170">
        <ele>1692.392</ele>
        <time>2021-07-29T19:17:52Z</time>
      </trkpt>
      <trkpt lat="40.768838" lon="-3.946140">
        <ele>1691.611</ele>
        <time>2021-07-29T19:17:54Z</time>
      </trkpt>
      <trkpt lat="40.768829" lon="-3.946110">
        <ele>1690.808</ele>
        <time>2021-07-29T19:17:56Z</time>
      </trkpt>
      <trkpt lat="40.768832" lon="-3.946075">
        <ele>1690.510</ele>
        <time>2021-07-29T19:17:58Z</time>
      </trkpt>
      <trkpt lat="40.768838" lon="-3.946048">
        <ele>1690.512</ele>
        <time>2021-07-29T19:18:00Z</time>
      </trkpt>
      <trkpt lat="40.768848" lon="-3.946024">
        <ele>1690.719</ele>
        <time>2021-07-29T19:18:03Z</time>
      </trkpt>
      <trkpt lat="40.768848" lon="-3.945998">
        <ele>1690.386</ele>
        <time>2021-07-29T19:18:05Z</time>
      </trkpt>
      <trkpt lat="40.768858" lon="-3.945973">
        <ele>1690.557</ele>
        <time>2021-07-29T19:18:09Z</time>
      </trkpt>
      <trkpt lat="40.768867" lon="-3.945948">
        <ele>1690.677</ele>
        <time>2021-07-29T19:18:11Z</time>
      </trkpt>
      <trkpt lat="40.768883" lon="-3.945918">
        <ele>1690.950</ele>
        <time>2021-07-29T19:18:14Z</time>
      </trkpt>
      <trkpt lat="40.768902" lon="-3.945887">
        <ele>1691.319</ele>
        <time>2021-07-29T19:18:17Z</time>
      </trkpt>
      <trkpt lat="40.768918" lon="-3.945865">
        <ele>1691.589</ele>
        <time>2021-07-29T19:18:19Z</time>
      </trkpt>
      <trkpt lat="40.768928" lon="-3.945840">
        <ele>1691.506</ele>
        <time>2021-07-29T19:18:21Z</time>
      </trkpt>
      <trkpt lat="40.768931" lon="-3.945812">
        <ele>1691.026</ele>
        <time>2021-07-29T19:18:23Z</time>
      </trkpt>
      <trkpt lat="40.768941" lon="-3.945788">
        <ele>1690.808</ele>
        <time>2021-07-29T19:18:25Z</time>
      </trkpt>
      <trkpt lat="40.768950" lon="-3.945762">
        <ele>1690.665</ele>
        <time>2021-07-29T19:18:27Z</time>
      </trkpt>
      <trkpt lat="40.768973" lon="-3.945760">
        <ele>1691.437</ele>
        <time>2021-07-29T19:18:29Z</time>
      </trkpt>
      <trkpt lat="40.768992" lon="-3.945745">
        <ele>1691.864</ele>
        <time>2021-07-29T19:18:34Z</time>
      </trkpt>
      <trkpt lat="40.769008" lon="-3.945722">
        <ele>1692.041</ele>
        <time>2021-07-29T19:18:37Z</time>
      </trkpt>
      <trkpt lat="40.769018" lon="-3.945698">
        <ele>1691.982</ele>
        <time>2021-07-29T19:18:39Z</time>
      </trkpt>
      <trkpt lat="40.769037" lon="-3.945668">
        <ele>1692.132</ele>
        <time>2021-07-29T19:18:42Z</time>
      </trkpt>
      <trkpt lat="40.769046" lon="-3.945645">
        <ele>1692.175</ele>
        <time>2021-07-29T19:18:44Z</time>
      </trkpt>
      <trkpt lat="40.769056" lon="-3.945615">
        <ele>1691.934</ele>
        <time>2021-07-29T19:18:48Z</time>
      </trkpt>
      <trkpt lat="40.769066" lon="-3.945588">
        <ele>1691.963</ele>
        <time>2021-07-29T19:18:50Z</time>
      </trkpt>
      <trkpt lat="40.769078" lon="-3.945552">
        <ele>1691.844</ele>
        <time>2021-07-29T19:18:52Z</time>
      </trkpt>
      <trkpt lat="40.769085" lon="-3.945523">
        <ele>1691.418</ele>
        <time>2021-07-29T19:18:54Z</time>
      </trkpt>
      <trkpt lat="40.769104" lon="-3.945503">
        <ele>1691.808</ele>
        <time>2021-07-29T19:18:56Z</time>
      </trkpt>
      <trkpt lat="40.769117" lon="-3.945480">
        <ele>1691.843</ele>
        <time>2021-07-29T19:18:58Z</time>
      </trkpt>
      <trkpt lat="40.769126" lon="-3.945455">
        <ele>1691.655</ele>
        <time>2021-07-29T19:19:01Z</time>
      </trkpt>
      <trkpt lat="40.769130" lon="-3.945430">
        <ele>1691.262</ele>
        <time>2021-07-29T19:19:03Z</time>
      </trkpt>
      <trkpt lat="40.769136" lon="-3.945397">
        <ele>1690.679</ele>
        <time>2021-07-29T19:19:05Z</time>
      </trkpt>
      <trkpt lat="40.769162" lon="-3.945380">
        <ele>1691.410</ele>
        <time>2021-07-29T19:19:06Z</time>
      </trkpt>
      <trkpt lat="40.769178" lon="-3.945362">
        <ele>1691.590</ele>
        <time>2021-07-29T19:19:09Z</time>
      </trkpt>
      <trkpt lat="40.769184" lon="-3.945335">
        <ele>1691.143</ele>
        <time>2021-07-29T19:19:12Z</time>
      </trkpt>
      <trkpt lat="40.769187" lon="-3.945307">
        <ele>1690.552</ele>
        <time>2021-07-29T19:19:14Z</time>
      </trkpt>
      <trkpt lat="40.769200" lon="-3.945288">
        <ele>1690.521</ele>
        <time>2021-07-29T19:19:17Z</time>
      </trkpt>
      <trkpt lat="40.769190" lon="-3.945260">
        <ele>1689.441</ele>
        <time>2021-07-29T19:19:20Z</time>
      </trkpt>
      <trkpt lat="40.769190" lon="-3.945235">
        <ele>1688.805</ele>
        <time>2021-07-29T19:19:28Z</time>
      </trkpt>
      <trkpt lat="40.769190" lon="-3.945202">
        <ele>1688.008</ele>
        <time>2021-07-29T19:19:32Z</time>
      </trkpt>
      <trkpt lat="40.769197" lon="-3.945177">
        <ele>1687.699</ele>
        <time>2021-07-29T19:19:34Z</time>
      </trkpt>
      <trkpt lat="40.769200" lon="-3.945146">
        <ele>1686.991</ele>
        <time>2021-07-29T19:19:37Z</time>
      </trkpt>
      <trkpt lat="40.769206" lon="-3.945112">
        <ele>1686.378</ele>
        <time>2021-07-29T19:19:40Z</time>
      </trkpt>
      <trkpt lat="40.769203" lon="-3.945087">
        <ele>1685.655</ele>
        <time>2021-07-29T19:19:42Z</time>
      </trkpt>
      <trkpt lat="40.769203" lon="-3.945057">
        <ele>1684.816</ele>
        <time>2021-07-29T19:19:45Z</time>
      </trkpt>
      <trkpt lat="40.769190" lon="-3.945032">
        <ele>1683.766</ele>
        <time>2021-07-29T19:19:49Z</time>
      </trkpt>
      <trkpt lat="40.769181" lon="-3.945003">
        <ele>1682.669</ele>
        <time>2021-07-29T19:19:54Z</time>
      </trkpt>
      <trkpt lat="40.769178" lon="-3.944974">
        <ele>1682.098</ele>
        <time>2021-07-29T19:19:57Z</time>
      </trkpt>
      <trkpt lat="40.769178" lon="-3.944938">
        <ele>1681.328</ele>
        <time>2021-07-29T19:20:00Z</time>
      </trkpt>
      <trkpt lat="40.769190" lon="-3.944913">
        <ele>1681.389</ele>
        <time>2021-07-29T19:20:03Z</time>
      </trkpt>
      <trkpt lat="40.769178" lon="-3.944887">
        <ele>1680.417</ele>
        <time>2021-07-29T19:20:06Z</time>
      </trkpt>
      <trkpt lat="40.769171" lon="-3.944862">
        <ele>1679.708</ele>
        <time>2021-07-29T19:20:13Z</time>
      </trkpt>
      <trkpt lat="40.769181" lon="-3.944840">
        <ele>1679.759</ele>
        <time>2021-07-29T19:20:15Z</time>
      </trkpt>
      <trkpt lat="40.769197" lon="-3.944822">
        <ele>1679.911</ele>
        <time>2021-07-29T19:20:17Z</time>
      </trkpt>
      <trkpt lat="40.769216" lon="-3.944802">
        <ele>1680.378</ele>
        <time>2021-07-29T19:20:19Z</time>
      </trkpt>
      <trkpt lat="40.769226" lon="-3.944773">
        <ele>1680.195</ele>
        <time>2021-07-29T19:20:21Z</time>
      </trkpt>
      <trkpt lat="40.769235" lon="-3.944752">
        <ele>1680.046</ele>
        <time>2021-07-29T19:20:23Z</time>
      </trkpt>
      <trkpt lat="40.769242" lon="-3.944728">
        <ele>1679.836</ele>
        <time>2021-07-29T19:20:25Z</time>
      </trkpt>
      <trkpt lat="40.769258" lon="-3.944700">
        <ele>1679.839</ele>
        <time>2021-07-29T19:20:27Z</time>
      </trkpt>
      <trkpt lat="40.769267" lon="-3.944678">
        <ele>1679.788</ele>
        <time>2021-07-29T19:20:29Z</time>
      </trkpt>
      <trkpt lat="40.769283" lon="-3.944652">
        <ele>1679.788</ele>
        <time>2021-07-29T19:20:32Z</time>
      </trkpt>
      <trkpt lat="40.769302" lon="-3.944628">
        <ele>1679.824</ele>
        <time>2021-07-29T19:20:34Z</time>
      </trkpt>
      <trkpt lat="40.769315" lon="-3.944602">
        <ele>1679.726</ele>
        <time>2021-07-29T19:20:36Z</time>
      </trkpt>
      <trkpt lat="40.769338" lon="-3.944582">
        <ele>1680.008</ele>
        <time>2021-07-29T19:20:39Z</time>
      </trkpt>
      <trkpt lat="40.769347" lon="-3.944557">
        <ele>1679.735</ele>
        <time>2021-07-29T19:20:41Z</time>
      </trkpt>
      <trkpt lat="40.769363" lon="-3.944542">
        <ele>1679.987</ele>
        <time>2021-07-29T19:20:44Z</time>
      </trkpt>
      <trkpt lat="40.769382" lon="-3.944527">
        <ele>1680.174</ele>
        <time>2021-07-29T19:20:47Z</time>
      </trkpt>
      <trkpt lat="40.769398" lon="-3.944505">
        <ele>1680.111</ele>
        <time>2021-07-29T19:20:50Z</time>
      </trkpt>
      <trkpt lat="40.769414" lon="-3.944488">
        <ele>1680.232</ele>
        <time>2021-07-29T19:20:59Z</time>
      </trkpt>
      <trkpt lat="40.769434" lon="-3.944475">
        <ele>1680.542</ele>
        <time>2021-07-29T19:21:03Z</time>
      </trkpt>
      <trkpt lat="40.769443" lon="-3.944452">
        <ele>1680.155</ele>
        <time>2021-07-29T19:21:06Z</time>
      </trkpt>
      <trkpt lat="40.769456" lon="-3.944432">
        <ele>1680.234</ele>
        <time>2021-07-29T19:21:08Z</time>
      </trkpt>
      <trkpt lat="40.769469" lon="-3.944407">
        <ele>1680.179</ele>
        <time>2021-07-29T19:21:11Z</time>
      </trkpt>
      <trkpt lat="40.769482" lon="-3.944390">
        <ele>1680.305</ele>
        <time>2021-07-29T19:21:14Z</time>
      </trkpt>
      <trkpt lat="40.769494" lon="-3.944360">
        <ele>1680.025</ele>
        <time>2021-07-29T19:21:17Z</time>
      </trkpt>
      <trkpt lat="40.769494" lon="-3.944330">
        <ele>1679.308</ele>
        <time>2021-07-29T19:21:22Z</time>
      </trkpt>
      <trkpt lat="40.769498" lon="-3.944303">
        <ele>1678.914</ele>
        <time>2021-07-29T19:21:26Z</time>
      </trkpt>
      <trkpt lat="40.769504" lon="-3.944278">
        <ele>1678.536</ele>
        <time>2021-07-29T19:21:30Z</time>
      </trkpt>
      <trkpt lat="40.769507" lon="-3.944250">
        <ele>1678.053</ele>
        <time>2021-07-29T19:21:33Z</time>
      </trkpt>
      <trkpt lat="40.769517" lon="-3.944222">
        <ele>1677.780</ele>
        <time>2021-07-29T19:21:36Z</time>
      </trkpt>
      <trkpt lat="40.769533" lon="-3.944193">
        <ele>1677.581</ele>
        <time>2021-07-29T19:21:39Z</time>
      </trkpt>
      <trkpt lat="40.769533" lon="-3.944167">
        <ele>1676.951</ele>
        <time>2021-07-29T19:21:43Z</time>
      </trkpt>
      <trkpt lat="40.769546" lon="-3.944150">
        <ele>1676.844</ele>
        <time>2021-07-29T19:21:45Z</time>
      </trkpt>
      <trkpt lat="40.769562" lon="-3.944130">
        <ele>1676.773</ele>
        <time>2021-07-29T19:21:48Z</time>
      </trkpt>
      <trkpt lat="40.769558" lon="-3.944106">
        <ele>1675.896</ele>
        <time>2021-07-29T19:21:52Z</time>
      </trkpt>
      <trkpt lat="40.769558" lon="-3.944082">
        <ele>1675.131</ele>
        <time>2021-07-29T19:21:56Z</time>
      </trkpt>
      <trkpt lat="40.769562" lon="-3.944055">
        <ele>1674.424</ele>
        <time>2021-07-29T19:21:58Z</time>
      </trkpt>
      <trkpt lat="40.769574" lon="-3.944027">
        <ele>1673.908</ele>
        <time>2021-07-29T19:22:00Z</time>
      </trkpt>
      <trkpt lat="40.769587" lon="-3.943997">
        <ele>1673.446</ele>
        <time>2021-07-29T19:22:03Z</time>
      </trkpt>
      <trkpt lat="40.769587" lon="-3.943963">
        <ele>1672.438</ele>
        <time>2021-07-29T19:22:05Z</time>
      </trkpt>
      <trkpt lat="40.769597" lon="-3.943935">
        <ele>1671.945</ele>
        <time>2021-07-29T19:22:08Z</time>
      </trkpt>
      <trkpt lat="40.769606" lon="-3.943914">
        <ele>1671.642</ele>
        <time>2021-07-29T19:22:10Z</time>
      </trkpt>
      <trkpt lat="40.769626" lon="-3.943892">
        <ele>1671.643</ele>
        <time>2021-07-29T19:22:12Z</time>
      </trkpt>
      <trkpt lat="40.769642" lon="-3.943880">
        <ele>1671.973</ele>
        <time>2021-07-29T19:22:14Z</time>
      </trkpt>
      <trkpt lat="40.769645" lon="-3.943847">
        <ele>1671.176</ele>
        <time>2021-07-29T19:22:17Z</time>
      </trkpt>
      <trkpt lat="40.769654" lon="-3.943818">
        <ele>1670.675</ele>
        <time>2021-07-29T19:22:19Z</time>
      </trkpt>
      <trkpt lat="40.769661" lon="-3.943793">
        <ele>1670.224</ele>
        <time>2021-07-29T19:22:21Z</time>
      </trkpt>
      <trkpt lat="40.769674" lon="-3.943760">
        <ele>1669.904</ele>
        <time>2021-07-29T19:22:24Z</time>
      </trkpt>
      <trkpt lat="40.769677" lon="-3.943735">
        <ele>1669.314</ele>
        <time>2021-07-29T19:22:27Z</time>
      </trkpt>
      <trkpt lat="40.769686" lon="-3.943704">
        <ele>1668.908</ele>
        <time>2021-07-29T19:22:30Z</time>
      </trkpt>
      <trkpt lat="40.769693" lon="-3.943675">
        <ele>1668.499</ele>
        <time>2021-07-29T19:22:32Z</time>
      </trkpt>
      <trkpt lat="40.769702" lon="-3.943653">
        <ele>1668.271</ele>
        <time>2021-07-29T19:22:34Z</time>
      </trkpt>
      <trkpt lat="40.769712" lon="-3.943630">
        <ele>1668.098</ele>
        <time>2021-07-29T19:22:37Z</time>
      </trkpt>
      <trkpt lat="40.769734" lon="-3.943610">
        <ele>1668.455</ele>
        <time>2021-07-29T19:22:41Z</time>
      </trkpt>
      <trkpt lat="40.769731" lon="-3.943578">
        <ele>1667.596</ele>
        <time>2021-07-29T19:22:44Z</time>
      </trkpt>
      <trkpt lat="40.769741" lon="-3.943554">
        <ele>1667.216</ele>
        <time>2021-07-29T19:22:46Z</time>
      </trkpt>
      <trkpt lat="40.769760" lon="-3.943550">
        <ele>1667.869</ele>
        <time>2021-07-29T19:22:49Z</time>
      </trkpt>
      <trkpt lat="40.769773" lon="-3.943528">
        <ele>1667.768</ele>
        <time>2021-07-29T19:22:52Z</time>
      </trkpt>
      <trkpt lat="40.769779" lon="-3.943500">
        <ele>1667.221</ele>
        <time>2021-07-29T19:22:55Z</time>
      </trkpt>
      <trkpt lat="40.769776" lon="-3.943475">
        <ele>1666.541</ele>
        <time>2021-07-29T19:22:57Z</time>
      </trkpt>
      <trkpt lat="40.769763" lon="-3.943455">
        <ele>1665.505</ele>
        <time>2021-07-29T19:22:59Z</time>
      </trkpt>
      <trkpt lat="40.769757" lon="-3.943428">
        <ele>1664.608</ele>
        <time>2021-07-29T19:23:02Z</time>
      </trkpt>
      <trkpt lat="40.769760" lon="-3.943405">
        <ele>1664.259</ele>
        <time>2021-07-29T19:23:05Z</time>
      </trkpt>
      <trkpt lat="40.769776" lon="-3.943388">
        <ele>1664.341</ele>
        <time>2021-07-29T19:23:08Z</time>
      </trkpt>
      <trkpt lat="40.769786" lon="-3.943365">
        <ele>1664.148</ele>
        <time>2021-07-29T19:23:12Z</time>
      </trkpt>
      <trkpt lat="40.769798" lon="-3.943342">
        <ele>1663.985</ele>
        <time>2021-07-29T19:23:14Z</time>
      </trkpt>
      <trkpt lat="40.769814" lon="-3.943323">
        <ele>1664.066</ele>
        <time>2021-07-29T19:23:16Z</time>
      </trkpt>
      <trkpt lat="40.769824" lon="-3.943295">
        <ele>1663.746</ele>
        <time>2021-07-29T19:23:19Z</time>
      </trkpt>
      <trkpt lat="40.769843" lon="-3.943280">
        <ele>1664.099</ele>
        <time>2021-07-29T19:23:22Z</time>
      </trkpt>
      <trkpt lat="40.769862" lon="-3.943267">
        <ele>1664.478</ele>
        <time>2021-07-29T19:23:25Z</time>
      </trkpt>
      <trkpt lat="40.769878" lon="-3.943253">
        <ele>1664.634</ele>
        <time>2021-07-29T19:23:27Z</time>
      </trkpt>
      <trkpt lat="40.769891" lon="-3.943220">
        <ele>1664.255</ele>
        <time>2021-07-29T19:23:30Z</time>
      </trkpt>
      <trkpt lat="40.769891" lon="-3.943185">
        <ele>1663.310</ele>
        <time>2021-07-29T19:23:33Z</time>
      </trkpt>
      <trkpt lat="40.769901" lon="-3.943162">
        <ele>1663.108</ele>
        <time>2021-07-29T19:23:35Z</time>
      </trkpt>
      <trkpt lat="40.769917" lon="-3.943135">
        <ele>1663.040</ele>
        <time>2021-07-29T19:23:37Z</time>
      </trkpt>
      <trkpt lat="40.769933" lon="-3.943115">
        <ele>1663.152</ele>
        <time>2021-07-29T19:23:39Z</time>
      </trkpt>
      <trkpt lat="40.769952" lon="-3.943100">
        <ele>1663.489</ele>
        <time>2021-07-29T19:23:42Z</time>
      </trkpt>
      <trkpt lat="40.769958" lon="-3.943075">
        <ele>1663.086</ele>
        <time>2021-07-29T19:23:47Z</time>
      </trkpt>
      <trkpt lat="40.769955" lon="-3.943046">
        <ele>1662.187</ele>
        <time>2021-07-29T19:23:50Z</time>
      </trkpt>
      <trkpt lat="40.769971" lon="-3.943033">
        <ele>1662.427</ele>
        <time>2021-07-29T19:23:52Z</time>
      </trkpt>
      <trkpt lat="40.769984" lon="-3.943015">
        <ele>1662.440</ele>
        <time>2021-07-29T19:23:54Z</time>
      </trkpt>
      <trkpt lat="40.770003" lon="-3.942998">
        <ele>1662.649</ele>
        <time>2021-07-29T19:23:56Z</time>
      </trkpt>
      <trkpt lat="40.770016" lon="-3.942970">
        <ele>1662.212</ele>
        <time>2021-07-29T19:23:59Z</time>
      </trkpt>
      <trkpt lat="40.770019" lon="-3.942945">
        <ele>1661.632</ele>
        <time>2021-07-29T19:24:01Z</time>
      </trkpt>
      <trkpt lat="40.770022" lon="-3.942922">
        <ele>1661.105</ele>
        <time>2021-07-29T19:24:03Z</time>
      </trkpt>
      <trkpt lat="40.770035" lon="-3.942893">
        <ele>1660.608</ele>
        <time>2021-07-29T19:24:06Z</time>
      </trkpt>
      <trkpt lat="40.770051" lon="-3.942882">
        <ele>1660.688</ele>
        <time>2021-07-29T19:24:10Z</time>
      </trkpt>
      <trkpt lat="40.770074" lon="-3.942882">
        <ele>1661.090</ele>
        <time>2021-07-29T19:24:14Z</time>
      </trkpt>
      <trkpt lat="40.770077" lon="-3.942854">
        <ele>1660.347</ele>
        <time>2021-07-29T19:24:20Z</time>
      </trkpt>
      <trkpt lat="40.770077" lon="-3.942828">
        <ele>1659.564</ele>
        <time>2021-07-29T19:24:27Z</time>
      </trkpt>
      <trkpt lat="40.770080" lon="-3.942803">
        <ele>1658.915</ele>
        <time>2021-07-29T19:24:31Z</time>
      </trkpt>
      <trkpt lat="40.770090" lon="-3.942772">
        <ele>1658.155</ele>
        <time>2021-07-29T19:24:34Z</time>
      </trkpt>
      <trkpt lat="40.770109" lon="-3.942745">
        <ele>1657.628</ele>
        <time>2021-07-29T19:24:37Z</time>
      </trkpt>
      <trkpt lat="40.770131" lon="-3.942740">
        <ele>1657.737</ele>
        <time>2021-07-29T19:24:40Z</time>
      </trkpt>
      <trkpt lat="40.770150" lon="-3.942713">
        <ele>1657.285</ele>
        <time>2021-07-29T19:24:43Z</time>
      </trkpt>
      <trkpt lat="40.770170" lon="-3.942696">
        <ele>1656.889</ele>
        <time>2021-07-29T19:24:45Z</time>
      </trkpt>
      <trkpt lat="40.770192" lon="-3.942682">
        <ele>1656.617</ele>
        <time>2021-07-29T19:24:47Z</time>
      </trkpt>
      <trkpt lat="40.770211" lon="-3.942658">
        <ele>1656.008</ele>
        <time>2021-07-29T19:24:50Z</time>
      </trkpt>
      <trkpt lat="40.770230" lon="-3.942650">
        <ele>1655.965</ele>
        <time>2021-07-29T19:24:52Z</time>
      </trkpt>
      <trkpt lat="40.770253" lon="-3.942642">
        <ele>1655.977</ele>
        <time>2021-07-29T19:24:54Z</time>
      </trkpt>
      <trkpt lat="40.770275" lon="-3.942630">
        <ele>1655.744</ele>
        <time>2021-07-29T19:24:56Z</time>
      </trkpt>
      <trkpt lat="40.770301" lon="-3.942623">
        <ele>1655.551</ele>
        <time>2021-07-29T19:24:59Z</time>
      </trkpt>
      <trkpt lat="40.770320" lon="-3.942613">
        <ele>1655.382</ele>
        <time>2021-07-29T19:25:03Z</time>
      </trkpt>
      <trkpt lat="40.770339" lon="-3.942607">
        <ele>1655.182</ele>
        <time>2021-07-29T19:25:06Z</time>
      </trkpt>
      <trkpt lat="40.770362" lon="-3.942593">
        <ele>1654.785</ele>
        <time>2021-07-29T19:25:10Z</time>
      </trkpt>
      <trkpt lat="40.770387" lon="-3.942583">
        <ele>1654.314</ele>
        <time>2021-07-29T19:25:12Z</time>
      </trkpt>
      <trkpt lat="40.770406" lon="-3.942572">
        <ele>1654.053</ele>
        <time>2021-07-29T19:25:15Z</time>
      </trkpt>
      <trkpt lat="40.770429" lon="-3.942567">
        <ele>1653.804</ele>
        <time>2021-07-29T19:25:18Z</time>
      </trkpt>
      <trkpt lat="40.770448" lon="-3.942558">
        <ele>1653.514</ele>
        <time>2021-07-29T19:25:20Z</time>
      </trkpt>
      <trkpt lat="40.770458" lon="-3.942535">
        <ele>1652.508</ele>
        <time>2021-07-29T19:25:23Z</time>
      </trkpt>
      <trkpt lat="40.770480" lon="-3.942526">
        <ele>1652.182</ele>
        <time>2021-07-29T19:25:26Z</time>
      </trkpt>
      <trkpt lat="40.770499" lon="-3.942507">
        <ele>1651.364</ele>
        <time>2021-07-29T19:25:30Z</time>
      </trkpt>
      <trkpt lat="40.770518" lon="-3.942504">
        <ele>1651.211</ele>
        <time>2021-07-29T19:25:32Z</time>
      </trkpt>
      <trkpt lat="40.770541" lon="-3.942498">
        <ele>1650.928</ele>
        <time>2021-07-29T19:25:34Z</time>
      </trkpt>
      <trkpt lat="40.770566" lon="-3.942488">
        <ele>1650.779</ele>
        <time>2021-07-29T19:25:36Z</time>
      </trkpt>
      <trkpt lat="40.770586" lon="-3.942477">
        <ele>1650.619</ele>
        <time>2021-07-29T19:25:38Z</time>
      </trkpt>
      <trkpt lat="40.770614" lon="-3.942477">
        <ele>1651.122</ele>
        <time>2021-07-29T19:25:41Z</time>
      </trkpt>
      <trkpt lat="40.770634" lon="-3.942470">
        <ele>1651.141</ele>
        <time>2021-07-29T19:25:43Z</time>
      </trkpt>
      <trkpt lat="40.770656" lon="-3.942472">
        <ele>1651.695</ele>
        <time>2021-07-29T19:25:45Z</time>
      </trkpt>
      <trkpt lat="40.770685" lon="-3.942474">
        <ele>1652.249</ele>
        <time>2021-07-29T19:25:47Z</time>
      </trkpt>
      <trkpt lat="40.770714" lon="-3.942468">
        <ele>1652.423</ele>
        <time>2021-07-29T19:25:49Z</time>
      </trkpt>
      <trkpt lat="40.770733" lon="-3.942460">
        <ele>1652.308</ele>
        <time>2021-07-29T19:25:51Z</time>
      </trkpt>
      <trkpt lat="40.770755" lon="-3.942448">
        <ele>1652.156</ele>
        <time>2021-07-29T19:25:54Z</time>
      </trkpt>
      <trkpt lat="40.770774" lon="-3.942437">
        <ele>1651.918</ele>
        <time>2021-07-29T19:25:56Z</time>
      </trkpt>
      <trkpt lat="40.770797" lon="-3.942428">
        <ele>1651.875</ele>
        <time>2021-07-29T19:25:58Z</time>
      </trkpt>
      <trkpt lat="40.770819" lon="-3.942410">
        <ele>1651.392</ele>
        <time>2021-07-29T19:26:00Z</time>
      </trkpt>
      <trkpt lat="40.770838" lon="-3.942400">
        <ele>1651.133</ele>
        <time>2021-07-29T19:26:02Z</time>
      </trkpt>
      <trkpt lat="40.770870" lon="-3.942385">
        <ele>1651.383</ele>
        <time>2021-07-29T19:26:05Z</time>
      </trkpt>
      <trkpt lat="40.770886" lon="-3.942362">
        <ele>1650.646</ele>
        <time>2021-07-29T19:26:08Z</time>
      </trkpt>
      <trkpt lat="40.770906" lon="-3.942340">
        <ele>1650.085</ele>
        <time>2021-07-29T19:26:15Z</time>
      </trkpt>
      <trkpt lat="40.770912" lon="-3.942306">
        <ele>1648.529</ele>
        <time>2021-07-29T19:26:18Z</time>
      </trkpt>
      <trkpt lat="40.770931" lon="-3.942287">
        <ele>1648.100</ele>
        <time>2021-07-29T19:26:20Z</time>
      </trkpt>
      <trkpt lat="40.770947" lon="-3.942267">
        <ele>1647.520</ele>
        <time>2021-07-29T19:26:22Z</time>
      </trkpt>
      <trkpt lat="40.770966" lon="-3.942255">
        <ele>1647.508</ele>
        <time>2021-07-29T19:26:25Z</time>
      </trkpt>
      <trkpt lat="40.770992" lon="-3.942247">
        <ele>1647.849</ele>
        <time>2021-07-29T19:26:28Z</time>
      </trkpt>
      <trkpt lat="40.771008" lon="-3.942232">
        <ele>1647.511</ele>
        <time>2021-07-29T19:26:30Z</time>
      </trkpt>
      <trkpt lat="40.771027" lon="-3.942203">
        <ele>1646.888</ele>
        <time>2021-07-29T19:26:33Z</time>
      </trkpt>
      <trkpt lat="40.771046" lon="-3.942185">
        <ele>1646.545</ele>
        <time>2021-07-29T19:26:35Z</time>
      </trkpt>
      <trkpt lat="40.771066" lon="-3.942180">
        <ele>1646.946</ele>
        <time>2021-07-29T19:26:37Z</time>
      </trkpt>
      <trkpt lat="40.771082" lon="-3.942167">
        <ele>1646.886</ele>
        <time>2021-07-29T19:26:44Z</time>
      </trkpt>
      <trkpt lat="40.771107" lon="-3.942145">
        <ele>1646.539</ele>
        <time>2021-07-29T19:27:49Z</time>
      </trkpt>
      <trkpt lat="40.771126" lon="-3.942128">
        <ele>1646.478</ele>
        <time>2021-07-29T19:27:51Z</time>
      </trkpt>
      <trkpt lat="40.771149" lon="-3.942110">
        <ele>1646.319</ele>
        <time>2021-07-29T19:27:53Z</time>
      </trkpt>
      <trkpt lat="40.771165" lon="-3.942098">
        <ele>1646.209</ele>
        <time>2021-07-29T19:27:55Z</time>
      </trkpt>
      <trkpt lat="40.771187" lon="-3.942085">
        <ele>1646.319</ele>
        <time>2021-07-29T19:27:58Z</time>
      </trkpt>
      <trkpt lat="40.771206" lon="-3.942065">
        <ele>1645.908</ele>
        <time>2021-07-29T19:28:01Z</time>
      </trkpt>
      <trkpt lat="40.771226" lon="-3.942060">
        <ele>1646.268</ele>
        <time>2021-07-29T19:28:03Z</time>
      </trkpt>
      <trkpt lat="40.771251" lon="-3.942048">
        <ele>1646.250</ele>
        <time>2021-07-29T19:28:07Z</time>
      </trkpt>
      <trkpt lat="40.771270" lon="-3.942038">
        <ele>1646.227</ele>
        <time>2021-07-29T19:28:10Z</time>
      </trkpt>
      <trkpt lat="40.771286" lon="-3.942020">
        <ele>1645.734</ele>
        <time>2021-07-29T19:28:13Z</time>
      </trkpt>
      <trkpt lat="40.771277" lon="-3.941992">
        <ele>1644.085</ele>
        <time>2021-07-29T19:28:17Z</time>
      </trkpt>
      <trkpt lat="40.771277" lon="-3.941963">
        <ele>1642.595</ele>
        <time>2021-07-29T19:28:20Z</time>
      </trkpt>
      <trkpt lat="40.771296" lon="-3.941970">
        <ele>1643.388</ele>
        <time>2021-07-29T19:28:46Z</time>
      </trkpt>
      <trkpt lat="40.771328" lon="-3.941958">
        <ele>1643.487</ele>
        <time>2021-07-29T19:28:48Z</time>
      </trkpt>
      <trkpt lat="40.771350" lon="-3.941956">
        <ele>1643.857</ele>
        <time>2021-07-29T19:28:50Z</time>
      </trkpt>
      <trkpt lat="40.771373" lon="-3.941950">
        <ele>1644.000</ele>
        <time>2021-07-29T19:28:52Z</time>
      </trkpt>
      <trkpt lat="40.771389" lon="-3.941940">
        <ele>1643.820</ele>
        <time>2021-07-29T19:28:59Z</time>
      </trkpt>
      <trkpt lat="40.771667" lon="-3.941618">
        <ele>1631.708</ele>
        <time>2021-07-29T19:30:02Z</time>
      </trkpt>
      <trkpt lat="40.771939" lon="-3.941397">
        <ele>1622.312</ele>
        <time>2021-07-29T19:31:02Z</time>
      </trkpt>
      <trkpt lat="40.772259" lon="-3.941040">
        <ele>1609.964</ele>
        <time>2021-07-29T19:32:02Z</time>
      </trkpt>
      <trkpt lat="40.772870" lon="-3.940730">
        <ele>1601.561</ele>
        <time>2021-07-29T19:33:02Z</time>
      </trkpt>
      <trkpt lat="40.773158" lon="-3.940347">
        <ele>1603.168</ele>
        <time>2021-07-29T19:34:02Z</time>
      </trkpt>
      <trkpt lat="40.773168" lon="-3.940213">
        <ele>1603.429</ele>
        <time>2021-07-29T19:35:14Z</time>
      </trkpt>
      <trkpt lat="40.773114" lon="-3.940202">
        <ele>1600.719</ele>
        <time>2021-07-29T19:35:15Z</time>
      </trkpt>
      <trkpt lat="40.773261" lon="-3.939875">
        <ele>1606.992</ele>
        <time>2021-07-29T19:35:16Z</time>
      </trkpt>
      <trkpt lat="40.773242" lon="-3.939822">
        <ele>1605.891</ele>
        <time>2021-07-29T19:35:17Z</time>
      </trkpt>
      <trkpt lat="40.773197" lon="-3.939802">
        <ele>1603.451</ele>
        <time>2021-07-29T19:35:18Z</time>
      </trkpt>
      <trkpt lat="40.773178" lon="-3.939780">
        <ele>1602.401</ele>
        <time>2021-07-29T19:35:20Z</time>
      </trkpt>
      <trkpt lat="40.773162" lon="-3.939820">
        <ele>1601.711</ele>
        <time>2021-07-29T19:35:22Z</time>
      </trkpt>
      <trkpt lat="40.773155" lon="-3.939847">
        <ele>1601.508</ele>
        <time>2021-07-29T19:35:24Z</time>
      </trkpt>
      <trkpt lat="40.773168" lon="-3.939822">
        <ele>1602.012</ele>
        <time>2021-07-29T19:35:42Z</time>
      </trkpt>
      <trkpt lat="40.773158" lon="-3.939797">
        <ele>1601.424</ele>
        <time>2021-07-29T19:35:44Z</time>
      </trkpt>
      <trkpt lat="40.773149" lon="-3.939765">
        <ele>1600.981</ele>
        <time>2021-07-29T19:35:48Z</time>
      </trkpt>
      <trkpt lat="40.773136" lon="-3.939745">
        <ele>1600.178</ele>
        <time>2021-07-29T19:35:50Z</time>
      </trkpt>
      <trkpt lat="40.773136" lon="-3.939716">
        <ele>1600.089</ele>
        <time>2021-07-29T19:35:53Z</time>
      </trkpt>
      <trkpt lat="40.773139" lon="-3.939688">
        <ele>1600.079</ele>
        <time>2021-07-29T19:35:57Z</time>
      </trkpt>
      <trkpt lat="40.773123" lon="-3.939677">
        <ele>1599.222</ele>
        <time>2021-07-29T19:36:00Z</time>
      </trkpt>
      <trkpt lat="40.773123" lon="-3.939650">
        <ele>1599.121</ele>
        <time>2021-07-29T19:36:04Z</time>
      </trkpt>
      <trkpt lat="40.773139" lon="-3.939617">
        <ele>1599.717</ele>
        <time>2021-07-29T19:36:07Z</time>
      </trkpt>
      <trkpt lat="40.773142" lon="-3.939582">
        <ele>1599.787</ele>
        <time>2021-07-29T19:36:09Z</time>
      </trkpt>
      <trkpt lat="40.773139" lon="-3.939540">
        <ele>1599.415</ele>
        <time>2021-07-29T19:36:11Z</time>
      </trkpt>
      <trkpt lat="40.773139" lon="-3.939512">
        <ele>1599.208</ele>
        <time>2021-07-29T19:36:14Z</time>
      </trkpt>
      <trkpt lat="40.773136" lon="-3.939468">
        <ele>1598.948</ele>
        <time>2021-07-29T19:36:16Z</time>
      </trkpt>
      <trkpt lat="40.773136" lon="-3.939433">
        <ele>1598.790</ele>
        <time>2021-07-29T19:36:18Z</time>
      </trkpt>
      <trkpt lat="40.773130" lon="-3.939393">
        <ele>1598.347</ele>
        <time>2021-07-29T19:36:21Z</time>
      </trkpt>
      <trkpt lat="40.773130" lon="-3.939364">
        <ele>1598.344</ele>
        <time>2021-07-29T19:36:23Z</time>
      </trkpt>
      <trkpt lat="40.773142" lon="-3.939327">
        <ele>1598.815</ele>
        <time>2021-07-29T19:36:25Z</time>
      </trkpt>
      <trkpt lat="40.773155" lon="-3.939293">
        <ele>1599.375</ele>
        <time>2021-07-29T19:36:27Z</time>
      </trkpt>
      <trkpt lat="40.773139" lon="-3.939268">
        <ele>1598.598</ele>
        <time>2021-07-29T19:36:30Z</time>
      </trkpt>
      <trkpt lat="40.773123" lon="-3.939257">
        <ele>1597.667</ele>
        <time>2021-07-29T19:36:31Z</time>
      </trkpt>
      <trkpt lat="40.773114" lon="-3.939235">
        <ele>1597.154</ele>
        <time>2021-07-29T19:36:33Z</time>
      </trkpt>
      <trkpt lat="40.773098" lon="-3.939218">
        <ele>1596.356</ele>
        <time>2021-07-29T19:36:35Z</time>
      </trkpt>
      <trkpt lat="40.773091" lon="-3.939192">
        <ele>1595.911</ele>
        <time>2021-07-29T19:36:37Z</time>
      </trkpt>
      <trkpt lat="40.773101" lon="-3.939160">
        <ele>1596.308</ele>
        <time>2021-07-29T19:36:40Z</time>
      </trkpt>
      <trkpt lat="40.773114" lon="-3.939137">
        <ele>1597.022</ele>
        <time>2021-07-29T19:36:44Z</time>
      </trkpt>
      <trkpt lat="40.773130" lon="-3.939113">
        <ele>1597.834</ele>
        <time>2021-07-29T19:36:47Z</time>
      </trkpt>
      <trkpt lat="40.773149" lon="-3.939080">
        <ele>1598.871</ele>
        <time>2021-07-29T19:36:49Z</time>
      </trkpt>
      <trkpt lat="40.773155" lon="-3.939050">
        <ele>1599.248</ele>
        <time>2021-07-29T19:36:53Z</time>
      </trkpt>
      <trkpt lat="40.773152" lon="-3.939020">
        <ele>1599.039</ele>
        <time>2021-07-29T19:36:55Z</time>
      </trkpt>
      <trkpt lat="40.773139" lon="-3.938990">
        <ele>1598.419</ele>
        <time>2021-07-29T19:36:58Z</time>
      </trkpt>
      <trkpt lat="40.773139" lon="-3.938965">
        <ele>1598.432</ele>
        <time>2021-07-29T19:37:00Z</time>
      </trkpt>
      <trkpt lat="40.773130" lon="-3.938942">
        <ele>1598.031</ele>
        <time>2021-07-29T19:37:02Z</time>
      </trkpt>
      <trkpt lat="40.773120" lon="-3.938910">
        <ele>1597.545</ele>
        <time>2021-07-29T19:37:04Z</time>
      </trkpt>
      <trkpt lat="40.773123" lon="-3.938877">
        <ele>1597.647</ele>
        <time>2021-07-29T19:37:06Z</time>
      </trkpt>
      <trkpt lat="40.773114" lon="-3.938848">
        <ele>1597.011</ele>
        <time>2021-07-29T19:37:08Z</time>
      </trkpt>
      <trkpt lat="40.773101" lon="-3.938820">
        <ele>1596.208</ele>
        <time>2021-07-29T19:37:11Z</time>
      </trkpt>
      <trkpt lat="40.773101" lon="-3.938790">
        <ele>1596.251</ele>
        <time>2021-07-29T19:37:13Z</time>
      </trkpt>
      <trkpt lat="40.773101" lon="-3.938755">
        <ele>1596.153</ele>
        <time>2021-07-29T19:37:16Z</time>
      </trkpt>
      <trkpt lat="40.773091" lon="-3.938730">
        <ele>1595.450</ele>
        <time>2021-07-29T19:37:18Z</time>
      </trkpt>
      <trkpt lat="40.773075" lon="-3.938705">
        <ele>1594.437</ele>
        <time>2021-07-29T19:37:20Z</time>
      </trkpt>
      <trkpt lat="40.773075" lon="-3.938678">
        <ele>1594.328</ele>
        <time>2021-07-29T19:37:21Z</time>
      </trkpt>
      <trkpt lat="40.773075" lon="-3.938652">
        <ele>1594.338</ele>
        <time>2021-07-29T19:37:22Z</time>
      </trkpt>
      <trkpt lat="40.773082" lon="-3.938627">
        <ele>1594.661</ele>
        <time>2021-07-29T19:37:24Z</time>
      </trkpt>
      <trkpt lat="40.773088" lon="-3.938598">
        <ele>1594.840</ele>
        <time>2021-07-29T19:37:26Z</time>
      </trkpt>
      <trkpt lat="40.773082" lon="-3.938572">
        <ele>1594.489</ele>
        <time>2021-07-29T19:37:29Z</time>
      </trkpt>
      <trkpt lat="40.773075" lon="-3.938542">
        <ele>1593.906</ele>
        <time>2021-07-29T19:37:32Z</time>
      </trkpt>
      <trkpt lat="40.773062" lon="-3.938513">
        <ele>1593.026</ele>
        <time>2021-07-29T19:37:36Z</time>
      </trkpt>
      <trkpt lat="40.773053" lon="-3.938498">
        <ele>1592.508</ele>
        <time>2021-07-29T19:37:38Z</time>
      </trkpt>
      <trkpt lat="40.772982" lon="-3.938427">
        <ele>1588.945</ele>
        <time>2021-07-29T19:37:48Z</time>
      </trkpt>
      <trkpt lat="40.772989" lon="-3.938393">
        <ele>1589.227</ele>
        <time>2021-07-29T19:37:49Z</time>
      </trkpt>
      <trkpt lat="40.772976" lon="-3.938362">
        <ele>1588.654</ele>
        <time>2021-07-29T19:37:52Z</time>
      </trkpt>
      <trkpt lat="40.772989" lon="-3.938342">
        <ele>1589.131</ele>
        <time>2021-07-29T19:37:56Z</time>
      </trkpt>
      <trkpt lat="40.772982" lon="-3.938310">
        <ele>1588.852</ele>
        <time>2021-07-29T19:37:58Z</time>
      </trkpt>
      <trkpt lat="40.772970" lon="-3.938285">
        <ele>1588.352</ele>
        <time>2021-07-29T19:38:02Z</time>
      </trkpt>
      <trkpt lat="40.772941" lon="-3.938282">
        <ele>1587.175</ele>
        <time>2021-07-29T19:38:05Z</time>
      </trkpt>
      <trkpt lat="40.772934" lon="-3.938248">
        <ele>1586.734</ele>
        <time>2021-07-29T19:38:09Z</time>
      </trkpt>
      <trkpt lat="40.772922" lon="-3.938218">
        <ele>1586.228</ele>
        <time>2021-07-29T19:38:12Z</time>
      </trkpt>
      <trkpt lat="40.772899" lon="-3.938210">
        <ele>1585.289</ele>
        <time>2021-07-29T19:38:15Z</time>
      </trkpt>
      <trkpt lat="40.772896" lon="-3.938175">
        <ele>1585.117</ele>
        <time>2021-07-29T19:38:18Z</time>
      </trkpt>
      <trkpt lat="40.772896" lon="-3.938146">
        <ele>1585.108</ele>
        <time>2021-07-29T19:38:21Z</time>
      </trkpt>
      <trkpt lat="40.772893" lon="-3.938108">
        <ele>1585.069</ele>
        <time>2021-07-29T19:38:24Z</time>
      </trkpt>
      <trkpt lat="40.772902" lon="-3.938085">
        <ele>1585.461</ele>
        <time>2021-07-29T19:38:26Z</time>
      </trkpt>
      <trkpt lat="40.772902" lon="-3.938058">
        <ele>1585.418</ele>
        <time>2021-07-29T19:38:28Z</time>
      </trkpt>
      <trkpt lat="40.772893" lon="-3.938023">
        <ele>1584.715</ele>
        <time>2021-07-29T19:38:31Z</time>
      </trkpt>
      <trkpt lat="40.772890" lon="-3.937983">
        <ele>1584.386</ele>
        <time>2021-07-29T19:38:33Z</time>
      </trkpt>
      <trkpt lat="40.772890" lon="-3.937938">
        <ele>1583.996</ele>
        <time>2021-07-29T19:38:35Z</time>
      </trkpt>
      <trkpt lat="40.772896" lon="-3.937915">
        <ele>1584.099</ele>
        <time>2021-07-29T19:38:36Z</time>
      </trkpt>
      <trkpt lat="40.772899" lon="-3.937887">
        <ele>1583.918</ele>
        <time>2021-07-29T19:38:37Z</time>
      </trkpt>
      <trkpt lat="40.772909" lon="-3.937862">
        <ele>1584.212</ele>
        <time>2021-07-29T19:38:38Z</time>
      </trkpt>
      <trkpt lat="40.772925" lon="-3.937837">
        <ele>1584.832</ele>
        <time>2021-07-29T19:38:41Z</time>
      </trkpt>
      <trkpt lat="40.772931" lon="-3.937803">
        <ele>1584.905</ele>
        <time>2021-07-29T19:38:43Z</time>
      </trkpt>
      <trkpt lat="40.772931" lon="-3.937768">
        <ele>1584.708</ele>
        <time>2021-07-29T19:38:45Z</time>
      </trkpt>
      <trkpt lat="40.772925" lon="-3.937735">
        <ele>1584.238</ele>
        <time>2021-07-29T19:38:47Z</time>
      </trkpt>
      <trkpt lat="40.772918" lon="-3.937703">
        <ele>1583.760</ele>
        <time>2021-07-29T19:38:49Z</time>
      </trkpt>
      <trkpt lat="40.772902" lon="-3.937675">
        <ele>1582.747</ele>
        <time>2021-07-29T19:38:53Z</time>
      </trkpt>
      <trkpt lat="40.772880" lon="-3.937660">
        <ele>1581.574</ele>
        <time>2021-07-29T19:38:55Z</time>
      </trkpt>
      <trkpt lat="40.772890" lon="-3.937633">
        <ele>1581.815</ele>
        <time>2021-07-29T19:38:57Z</time>
      </trkpt>
      <trkpt lat="40.772899" lon="-3.937612">
        <ele>1582.235</ele>
        <time>2021-07-29T19:39:00Z</time>
      </trkpt>
      <trkpt lat="40.772909" lon="-3.937572">
        <ele>1582.548</ele>
        <time>2021-07-29T19:39:02Z</time>
      </trkpt>
      <trkpt lat="40.772909" lon="-3.937538">
        <ele>1582.337</ele>
        <time>2021-07-29T19:39:04Z</time>
      </trkpt>
      <trkpt lat="40.772880" lon="-3.937515">
        <ele>1580.643</ele>
        <time>2021-07-29T19:39:06Z</time>
      </trkpt>
      <trkpt lat="40.772870" lon="-3.937493">
        <ele>1579.964</ele>
        <time>2021-07-29T19:39:07Z</time>
      </trkpt>
      <trkpt lat="40.772851" lon="-3.937473">
        <ele>1578.710</ele>
        <time>2021-07-29T19:39:09Z</time>
      </trkpt>
      <trkpt lat="40.772851" lon="-3.937446">
        <ele>1578.508</ele>
        <time>2021-07-29T19:39:12Z</time>
      </trkpt>
      <trkpt lat="40.772858" lon="-3.937416">
        <ele>1578.721</ele>
        <time>2021-07-29T19:39:15Z</time>
      </trkpt>
      <trkpt lat="40.772880" lon="-3.937392">
        <ele>1579.883</ele>
        <time>2021-07-29T19:39:17Z</time>
      </trkpt>
      <trkpt lat="40.772896" lon="-3.937367">
        <ele>1580.630</ele>
        <time>2021-07-29T19:39:18Z</time>
      </trkpt>
      <trkpt lat="40.772902" lon="-3.937332">
        <ele>1580.797</ele>
        <time>2021-07-29T19:39:21Z</time>
      </trkpt>
      <trkpt lat="40.772890" lon="-3.937307">
        <ele>1579.828</ele>
        <time>2021-07-29T19:39:22Z</time>
      </trkpt>
      <trkpt lat="40.772877" lon="-3.937268">
        <ele>1578.728</ele>
        <time>2021-07-29T19:39:23Z</time>
      </trkpt>
      <trkpt lat="40.772864" lon="-3.937247">
        <ele>1577.851</ele>
        <time>2021-07-29T19:39:26Z</time>
      </trkpt>
      <trkpt lat="40.772864" lon="-3.937215">
        <ele>1577.580</ele>
        <time>2021-07-29T19:39:29Z</time>
      </trkpt>
      <trkpt lat="40.772861" lon="-3.937182">
        <ele>1577.041</ele>
        <time>2021-07-29T19:39:32Z</time>
      </trkpt>
      <trkpt lat="40.772858" lon="-3.937155">
        <ele>1576.581</ele>
        <time>2021-07-29T19:39:34Z</time>
      </trkpt>
      <trkpt lat="40.772858" lon="-3.937130">
        <ele>1576.209</ele>
        <time>2021-07-29T19:39:35Z</time>
      </trkpt>
      <trkpt lat="40.772858" lon="-3.937103">
        <ele>1576.008</ele>
        <time>2021-07-29T19:39:40Z</time>
      </trkpt>
      <trkpt lat="40.772858" lon="-3.937068">
        <ele>1575.681</ele>
        <time>2021-07-29T19:39:43Z</time>
      </trkpt>
      <trkpt lat="40.772874" lon="-3.937037">
        <ele>1576.243</ele>
        <time>2021-07-29T19:39:46Z</time>
      </trkpt>
      <trkpt lat="40.772890" lon="-3.937025">
        <ele>1577.020</ele>
        <time>2021-07-29T19:39:48Z</time>
      </trkpt>
      <trkpt lat="40.772877" lon="-3.936993">
        <ele>1575.997</ele>
        <time>2021-07-29T19:39:51Z</time>
      </trkpt>
      <trkpt lat="40.772877" lon="-3.936967">
        <ele>1575.688</ele>
        <time>2021-07-29T19:39:54Z</time>
      </trkpt>
      <trkpt lat="40.772864" lon="-3.936945">
        <ele>1574.728</ele>
        <time>2021-07-29T19:39:56Z</time>
      </trkpt>
      <trkpt lat="40.772861" lon="-3.936915">
        <ele>1574.151</ele>
        <time>2021-07-29T19:39:58Z</time>
      </trkpt>
      <trkpt lat="40.772861" lon="-3.936885">
        <ele>1573.840</ele>
        <time>2021-07-29T19:40:00Z</time>
      </trkpt>
      <trkpt lat="40.772864" lon="-3.936860">
        <ele>1573.719</ele>
        <time>2021-07-29T19:40:02Z</time>
      </trkpt>
      <trkpt lat="40.772877" lon="-3.936825">
        <ele>1573.909</ele>
        <time>2021-07-29T19:40:05Z</time>
      </trkpt>
      <trkpt lat="40.772880" lon="-3.936795">
        <ele>1573.719</ele>
        <time>2021-07-29T19:40:08Z</time>
      </trkpt>
      <trkpt lat="40.772890" lon="-3.936768">
        <ele>1573.908</ele>
        <time>2021-07-29T19:40:11Z</time>
      </trkpt>
      <trkpt lat="40.772902" lon="-3.936743">
        <ele>1574.248</ele>
        <time>2021-07-29T19:40:13Z</time>
      </trkpt>
      <trkpt lat="40.772915" lon="-3.936720">
        <ele>1574.690</ele>
        <time>2021-07-29T19:40:15Z</time>
      </trkpt>
      <trkpt lat="40.772931" lon="-3.936705">
        <ele>1575.247</ele>
        <time>2021-07-29T19:40:17Z</time>
      </trkpt>
      <trkpt lat="40.772925" lon="-3.936682">
        <ele>1574.644</ele>
        <time>2021-07-29T19:40:20Z</time>
      </trkpt>
      <trkpt lat="40.772925" lon="-3.936648">
        <ele>1574.235</ele>
        <time>2021-07-29T19:40:24Z</time>
      </trkpt>
      <trkpt lat="40.772925" lon="-3.936623">
        <ele>1573.845</ele>
        <time>2021-07-29T19:40:26Z</time>
      </trkpt>
      <trkpt lat="40.772922" lon="-3.936597">
        <ele>1573.328</ele>
        <time>2021-07-29T19:40:28Z</time>
      </trkpt>
      <trkpt lat="40.772934" lon="-3.936577">
        <ele>1573.647</ele>
        <time>2021-07-29T19:40:30Z</time>
      </trkpt>
      <trkpt lat="40.772934" lon="-3.936550">
        <ele>1573.232</ele>
        <time>2021-07-29T19:40:32Z</time>
      </trkpt>
      <trkpt lat="40.772931" lon="-3.936524">
        <ele>1572.792</ele>
        <time>2021-07-29T19:40:34Z</time>
      </trkpt>
      <trkpt lat="40.772918" lon="-3.936502">
        <ele>1571.711</ele>
        <time>2021-07-29T19:40:36Z</time>
      </trkpt>
      <trkpt lat="40.772915" lon="-3.936473">
        <ele>1571.108</ele>
        <time>2021-07-29T19:40:39Z</time>
      </trkpt>
      <trkpt lat="40.772918" lon="-3.936443">
        <ele>1570.930</ele>
        <time>2021-07-29T19:40:42Z</time>
      </trkpt>
      <trkpt lat="40.772918" lon="-3.936418">
        <ele>1570.552</ele>
        <time>2021-07-29T19:40:45Z</time>
      </trkpt>
      <trkpt lat="40.772922" lon="-3.936392">
        <ele>1570.489</ele>
        <time>2021-07-29T19:40:48Z</time>
      </trkpt>
      <trkpt lat="40.772915" lon="-3.936360">
        <ele>1569.546</ele>
        <time>2021-07-29T19:40:50Z</time>
      </trkpt>
      <trkpt lat="40.772931" lon="-3.936340">
        <ele>1570.257</ele>
        <time>2021-07-29T19:40:54Z</time>
      </trkpt>
      <trkpt lat="40.772950" lon="-3.936320">
        <ele>1571.197</ele>
        <time>2021-07-29T19:40:56Z</time>
      </trkpt>
      <trkpt lat="40.772963" lon="-3.936300">
        <ele>1571.640</ele>
        <time>2021-07-29T19:41:00Z</time>
      </trkpt>
      <trkpt lat="40.772970" lon="-3.936268">
        <ele>1571.619</ele>
        <time>2021-07-29T19:41:03Z</time>
      </trkpt>
      <trkpt lat="40.772979" lon="-3.936245">
        <ele>1571.974</ele>
        <time>2021-07-29T19:41:05Z</time>
      </trkpt>
      <trkpt lat="40.772982" lon="-3.936205">
        <ele>1571.656</ele>
        <time>2021-07-29T19:41:08Z</time>
      </trkpt>
      <trkpt lat="40.772979" lon="-3.936177">
        <ele>1571.121</ele>
        <time>2021-07-29T19:41:10Z</time>
      </trkpt>
      <trkpt lat="40.772979" lon="-3.936140">
        <ele>1570.708</ele>
        <time>2021-07-29T19:41:12Z</time>
      </trkpt>
      <trkpt lat="40.772979" lon="-3.936112">
        <ele>1570.324</ele>
        <time>2021-07-29T19:41:14Z</time>
      </trkpt>
      <trkpt lat="40.772992" lon="-3.936092">
        <ele>1570.826</ele>
        <time>2021-07-29T19:41:17Z</time>
      </trkpt>
      <trkpt lat="40.773011" lon="-3.936060">
        <ele>1571.673</ele>
        <time>2021-07-29T19:41:19Z</time>
      </trkpt>
      <trkpt lat="40.773011" lon="-3.936026">
        <ele>1571.140</ele>
        <time>2021-07-29T19:41:23Z</time>
      </trkpt>
      <trkpt lat="40.773014" lon="-3.936000">
        <ele>1571.081</ele>
        <time>2021-07-29T19:41:27Z</time>
      </trkpt>
      <trkpt lat="40.773018" lon="-3.935974">
        <ele>1570.961</ele>
        <time>2021-07-29T19:41:32Z</time>
      </trkpt>
      <trkpt lat="40.773024" lon="-3.935948">
        <ele>1571.064</ele>
        <time>2021-07-29T19:41:36Z</time>
      </trkpt>
      <trkpt lat="40.773021" lon="-3.935920">
        <ele>1570.423</ele>
        <time>2021-07-29T19:41:39Z</time>
      </trkpt>
      <trkpt lat="40.773018" lon="-3.935895">
        <ele>1569.859</ele>
        <time>2021-07-29T19:41:41Z</time>
      </trkpt>
      <trkpt lat="40.773014" lon="-3.935863">
        <ele>1569.103</ele>
        <time>2021-07-29T19:41:43Z</time>
      </trkpt>
      <trkpt lat="40.773018" lon="-3.935838">
        <ele>1569.123</ele>
        <time>2021-07-29T19:41:45Z</time>
      </trkpt>
      <trkpt lat="40.773021" lon="-3.935807">
        <ele>1569.008</ele>
        <time>2021-07-29T19:41:47Z</time>
      </trkpt>
      <trkpt lat="40.773021" lon="-3.935777">
        <ele>1568.792</ele>
        <time>2021-07-29T19:41:49Z</time>
      </trkpt>
      <trkpt lat="40.773021" lon="-3.935752">
        <ele>1568.524</ele>
        <time>2021-07-29T19:41:51Z</time>
      </trkpt>
      <trkpt lat="40.773030" lon="-3.935708">
        <ele>1568.781</ele>
        <time>2021-07-29T19:41:53Z</time>
      </trkpt>
      <trkpt lat="40.773030" lon="-3.935680">
        <ele>1568.578</ele>
        <time>2021-07-29T19:41:55Z</time>
      </trkpt>
      <trkpt lat="40.773034" lon="-3.935652">
        <ele>1568.519</ele>
        <time>2021-07-29T19:41:58Z</time>
      </trkpt>
      <trkpt lat="40.773014" lon="-3.935640">
        <ele>1566.969</ele>
        <time>2021-07-29T19:42:01Z</time>
      </trkpt>
      <trkpt lat="40.773011" lon="-3.935613">
        <ele>1566.552</ele>
        <time>2021-07-29T19:42:04Z</time>
      </trkpt>
      <trkpt lat="40.773021" lon="-3.935583">
        <ele>1566.971</ele>
        <time>2021-07-29T19:42:09Z</time>
      </trkpt>
      <trkpt lat="40.773018" lon="-3.935550">
        <ele>1566.421</ele>
        <time>2021-07-29T19:42:11Z</time>
      </trkpt>
      <trkpt lat="40.773021" lon="-3.935516">
        <ele>1566.141</ele>
        <time>2021-07-29T19:42:18Z</time>
      </trkpt>
      <trkpt lat="40.773024" lon="-3.935488">
        <ele>1566.005</ele>
        <time>2021-07-29T19:42:20Z</time>
      </trkpt>
      <trkpt lat="40.773018" lon="-3.935457">
        <ele>1565.208</ele>
        <time>2021-07-29T19:42:22Z</time>
      </trkpt>
      <trkpt lat="40.773011" lon="-3.935430">
        <ele>1564.469</ele>
        <time>2021-07-29T19:42:24Z</time>
      </trkpt>
      <trkpt lat="40.773011" lon="-3.935402">
        <ele>1564.131</ele>
        <time>2021-07-29T19:42:27Z</time>
      </trkpt>
      <trkpt lat="40.773018" lon="-3.935373">
        <ele>1564.248</ele>
        <time>2021-07-29T19:42:31Z</time>
      </trkpt>
      <trkpt lat="40.773030" lon="-3.935353">
        <ele>1564.685</ele>
        <time>2021-07-29T19:42:33Z</time>
      </trkpt>
      <trkpt lat="40.773040" lon="-3.935328">
        <ele>1564.826</ele>
        <time>2021-07-29T19:42:35Z</time>
      </trkpt>
      <trkpt lat="40.773050" lon="-3.935286">
        <ele>1564.836</ele>
        <time>2021-07-29T19:42:37Z</time>
      </trkpt>
      <trkpt lat="40.773059" lon="-3.935262">
        <ele>1564.989</ele>
        <time>2021-07-29T19:42:39Z</time>
      </trkpt>
      <trkpt lat="40.773072" lon="-3.935237">
        <ele>1565.268</ele>
        <time>2021-07-29T19:42:41Z</time>
      </trkpt>
      <trkpt lat="40.773082" lon="-3.935215">
        <ele>1565.359</ele>
        <time>2021-07-29T19:42:43Z</time>
      </trkpt>
      <trkpt lat="40.773088" lon="-3.935192">
        <ele>1565.203</ele>
        <time>2021-07-29T19:42:45Z</time>
      </trkpt>
      <trkpt lat="40.773078" lon="-3.935166">
        <ele>1564.423</ele>
        <time>2021-07-29T19:42:47Z</time>
      </trkpt>
      <trkpt lat="40.773101" lon="-3.935125">
        <ele>1564.808</ele>
        <time>2021-07-29T19:42:50Z</time>
      </trkpt>
      <trkpt lat="40.773114" lon="-3.935092">
        <ele>1564.932</ele>
        <time>2021-07-29T19:42:51Z</time>
      </trkpt>
      <trkpt lat="40.773123" lon="-3.935070">
        <ele>1565.064</ele>
        <time>2021-07-29T19:42:52Z</time>
      </trkpt>
      <trkpt lat="40.773130" lon="-3.935032">
        <ele>1564.741</ele>
        <time>2021-07-29T19:42:53Z</time>
      </trkpt>
      <trkpt lat="40.773136" lon="-3.935005">
        <ele>1564.658</ele>
        <time>2021-07-29T19:42:56Z</time>
      </trkpt>
      <trkpt lat="40.773155" lon="-3.934978">
        <ele>1565.189</ele>
        <time>2021-07-29T19:42:59Z</time>
      </trkpt>
      <trkpt lat="40.773171" lon="-3.934965">
        <ele>1565.679</ele>
        <time>2021-07-29T19:43:00Z</time>
      </trkpt>
      <trkpt lat="40.773190" lon="-3.934950">
        <ele>1566.312</ele>
        <time>2021-07-29T19:43:02Z</time>
      </trkpt>
      <trkpt lat="40.773216" lon="-3.934935">
        <ele>1567.251</ele>
        <time>2021-07-29T19:43:05Z</time>
      </trkpt>
      <trkpt lat="40.773229" lon="-3.934918">
        <ele>1567.644</ele>
        <time>2021-07-29T19:43:06Z</time>
      </trkpt>
      <trkpt lat="40.773222" lon="-3.934893">
        <ele>1567.005</ele>
        <time>2021-07-29T19:43:08Z</time>
      </trkpt>
      <trkpt lat="40.773194" lon="-3.934858">
        <ele>1565.415</ele>
        <time>2021-07-29T19:43:11Z</time>
      </trkpt>
      <trkpt lat="40.773181" lon="-3.934828">
        <ele>1564.608</ele>
        <time>2021-07-29T19:43:12Z</time>
      </trkpt>
      <trkpt lat="40.773178" lon="-3.934800">
        <ele>1564.121</ele>
        <time>2021-07-29T19:43:13Z</time>
      </trkpt>
      <trkpt lat="40.773171" lon="-3.934758">
        <ele>1563.433</ele>
        <time>2021-07-29T19:43:15Z</time>
      </trkpt>
      <trkpt lat="40.773142" lon="-3.934748">
        <ele>1562.090</ele>
        <time>2021-07-29T19:43:17Z</time>
      </trkpt>
      <trkpt lat="40.773155" lon="-3.934728">
        <ele>1562.417</ele>
        <time>2021-07-29T19:43:19Z</time>
      </trkpt>
      <trkpt lat="40.773155" lon="-3.934693">
        <ele>1561.828</ele>
        <time>2021-07-29T19:43:21Z</time>
      </trkpt>
      <trkpt lat="40.773155" lon="-3.934667">
        <ele>1561.498</ele>
        <time>2021-07-29T19:43:23Z</time>
      </trkpt>
      <trkpt lat="40.773158" lon="-3.934636">
        <ele>1561.141</ele>
        <time>2021-07-29T19:43:25Z</time>
      </trkpt>
      <trkpt lat="40.773168" lon="-3.934608">
        <ele>1561.110</ele>
        <time>2021-07-29T19:43:28Z</time>
      </trkpt>
      <trkpt lat="40.773152" lon="-3.934582">
        <ele>1560.044</ele>
        <time>2021-07-29T19:43:30Z</time>
      </trkpt>
      <trkpt lat="40.773139" lon="-3.934552">
        <ele>1558.905</ele>
        <time>2021-07-29T19:43:33Z</time>
      </trkpt>
      <trkpt lat="40.773139" lon="-3.934522">
        <ele>1558.415</ele>
        <time>2021-07-29T19:43:35Z</time>
      </trkpt>
      <trkpt lat="40.773149" lon="-3.934472">
        <ele>1558.108</ele>
        <time>2021-07-29T19:43:37Z</time>
      </trkpt>
      <trkpt lat="40.773149" lon="-3.934444">
        <ele>1557.751</ele>
        <time>2021-07-29T19:43:38Z</time>
      </trkpt>
      <trkpt lat="40.773155" lon="-3.934420">
        <ele>1557.893</ele>
        <time>2021-07-29T19:43:41Z</time>
      </trkpt>
      <trkpt lat="40.773194" lon="-3.934412">
        <ele>1559.750</ele>
        <time>2021-07-29T19:43:43Z</time>
      </trkpt>
      <trkpt lat="40.773197" lon="-3.934380">
        <ele>1559.637</ele>
        <time>2021-07-29T19:43:45Z</time>
      </trkpt>
      <trkpt lat="40.773187" lon="-3.934358">
        <ele>1558.868</ele>
        <time>2021-07-29T19:43:46Z</time>
      </trkpt>
      <trkpt lat="40.773181" lon="-3.934335">
        <ele>1558.338</ele>
        <time>2021-07-29T19:43:50Z</time>
      </trkpt>
      <trkpt lat="40.773194" lon="-3.934313">
        <ele>1558.841</ele>
        <time>2021-07-29T19:43:52Z</time>
      </trkpt>
      <trkpt lat="40.773200" lon="-3.934278">
        <ele>1558.890</ele>
        <time>2021-07-29T19:43:55Z</time>
      </trkpt>
      <trkpt lat="40.773194" lon="-3.934253">
        <ele>1558.392</ele>
        <time>2021-07-29T19:43:57Z</time>
      </trkpt>
      <trkpt lat="40.773187" lon="-3.934227">
        <ele>1557.673</ele>
        <time>2021-07-29T19:43:59Z</time>
      </trkpt>
      <trkpt lat="40.773178" lon="-3.934200">
        <ele>1556.920</ele>
        <time>2021-07-29T19:44:01Z</time>
      </trkpt>
      <trkpt lat="40.773174" lon="-3.934168">
        <ele>1556.408</ele>
        <time>2021-07-29T19:44:03Z</time>
      </trkpt>
      <trkpt lat="40.773194" lon="-3.934168">
        <ele>1557.516</ele>
        <time>2021-07-29T19:44:09Z</time>
      </trkpt>
      <trkpt lat="40.773190" lon="-3.934137">
        <ele>1557.018</ele>
        <time>2021-07-29T19:44:12Z</time>
      </trkpt>
      <trkpt lat="40.773194" lon="-3.934103">
        <ele>1557.065</ele>
        <time>2021-07-29T19:44:14Z</time>
      </trkpt>
      <trkpt lat="40.773206" lon="-3.934074">
        <ele>1557.512</ele>
        <time>2021-07-29T19:44:17Z</time>
      </trkpt>
      <trkpt lat="40.773222" lon="-3.934058">
        <ele>1558.293</ele>
        <time>2021-07-29T19:44:21Z</time>
      </trkpt>
      <trkpt lat="40.773238" lon="-3.934045">
        <ele>1559.043</ele>
        <time>2021-07-29T19:44:25Z</time>
      </trkpt>
      <trkpt lat="40.773235" lon="-3.934017">
        <ele>1558.666</ele>
        <time>2021-07-29T19:44:27Z</time>
      </trkpt>
      <trkpt lat="40.773235" lon="-3.933985">
        <ele>1558.415</ele>
        <time>2021-07-29T19:44:30Z</time>
      </trkpt>
      <trkpt lat="40.773235" lon="-3.933958">
        <ele>1558.239</ele>
        <time>2021-07-29T19:44:33Z</time>
      </trkpt>
      <trkpt lat="40.773232" lon="-3.933928">
        <ele>1557.801</ele>
        <time>2021-07-29T19:44:35Z</time>
      </trkpt>
      <trkpt lat="40.773216" lon="-3.933910">
        <ele>1556.821</ele>
        <time>2021-07-29T19:44:38Z</time>
      </trkpt>
      <trkpt lat="40.773222" lon="-3.933882">
        <ele>1556.908</ele>
        <time>2021-07-29T19:44:41Z</time>
      </trkpt>
      <trkpt lat="40.773235" lon="-3.933858">
        <ele>1557.460</ele>
        <time>2021-07-29T19:44:43Z</time>
      </trkpt>
      <trkpt lat="40.773254" lon="-3.933840">
        <ele>1558.262</ele>
        <time>2021-07-29T19:44:45Z</time>
      </trkpt>
      <trkpt lat="40.773261" lon="-3.933810">
        <ele>1558.339</ele>
        <time>2021-07-29T19:44:48Z</time>
      </trkpt>
      <trkpt lat="40.773274" lon="-3.933783">
        <ele>1558.716</ele>
        <time>2021-07-29T19:44:50Z</time>
      </trkpt>
      <trkpt lat="40.773280" lon="-3.933744">
        <ele>1558.747</ele>
        <time>2021-07-29T19:44:52Z</time>
      </trkpt>
      <trkpt lat="40.773293" lon="-3.933724">
        <ele>1559.137</ele>
        <time>2021-07-29T19:44:54Z</time>
      </trkpt>
      <trkpt lat="40.773299" lon="-3.933695">
        <ele>1559.150</ele>
        <time>2021-07-29T19:44:57Z</time>
      </trkpt>
      <trkpt lat="40.773302" lon="-3.933672">
        <ele>1559.199</ele>
        <time>2021-07-29T19:44:59Z</time>
      </trkpt>
      <trkpt lat="40.773309" lon="-3.933637">
        <ele>1559.032</ele>
        <time>2021-07-29T19:45:01Z</time>
      </trkpt>
      <trkpt lat="40.773302" lon="-3.933607">
        <ele>1558.492</ele>
        <time>2021-07-29T19:45:03Z</time>
      </trkpt>
      <trkpt lat="40.773293" lon="-3.933580">
        <ele>1557.811</ele>
        <time>2021-07-29T19:45:05Z</time>
      </trkpt>
      <trkpt lat="40.773299" lon="-3.933542">
        <ele>1558.008</ele>
        <time>2021-07-29T19:45:08Z</time>
      </trkpt>
      <trkpt lat="40.773290" lon="-3.933507">
        <ele>1557.320</ele>
        <time>2021-07-29T19:45:10Z</time>
      </trkpt>
      <trkpt lat="40.773286" lon="-3.933483">
        <ele>1557.082</ele>
        <time>2021-07-29T19:45:12Z</time>
      </trkpt>
      <trkpt lat="40.773270" lon="-3.933465">
        <ele>1556.079</ele>
        <time>2021-07-29T19:45:16Z</time>
      </trkpt>
      <trkpt lat="40.773258" lon="-3.933443">
        <ele>1555.386</ele>
        <time>2021-07-29T19:45:18Z</time>
      </trkpt>
      <trkpt lat="40.773267" lon="-3.933415">
        <ele>1555.647</ele>
        <time>2021-07-29T19:45:20Z</time>
      </trkpt>
      <trkpt lat="40.773261" lon="-3.933390">
        <ele>1555.157</ele>
        <time>2021-07-29T19:45:22Z</time>
      </trkpt>
      <trkpt lat="40.773261" lon="-3.933358">
        <ele>1555.050</ele>
        <time>2021-07-29T19:45:24Z</time>
      </trkpt>
      <trkpt lat="40.773277" lon="-3.933328">
        <ele>1555.769</ele>
        <time>2021-07-29T19:45:26Z</time>
      </trkpt>
      <trkpt lat="40.773286" lon="-3.933302">
        <ele>1556.037</ele>
        <time>2021-07-29T19:45:28Z</time>
      </trkpt>
      <trkpt lat="40.773277" lon="-3.933280">
        <ele>1555.249</ele>
        <time>2021-07-29T19:45:30Z</time>
      </trkpt>
      <trkpt lat="40.773277" lon="-3.933247">
        <ele>1554.913</ele>
        <time>2021-07-29T19:45:33Z</time>
      </trkpt>
      <trkpt lat="40.773286" lon="-3.933216">
        <ele>1555.108</ele>
        <time>2021-07-29T19:45:36Z</time>
      </trkpt>
      <trkpt lat="40.773274" lon="-3.933188">
        <ele>1554.160</ele>
        <time>2021-07-29T19:45:38Z</time>
      </trkpt>
      <trkpt lat="40.773258" lon="-3.933160">
        <ele>1553.032</ele>
        <time>2021-07-29T19:45:41Z</time>
      </trkpt>
      <trkpt lat="40.773270" lon="-3.933130">
        <ele>1553.359</ele>
        <time>2021-07-29T19:45:45Z</time>
      </trkpt>
      <trkpt lat="40.773286" lon="-3.933115">
        <ele>1554.076</ele>
        <time>2021-07-29T19:45:47Z</time>
      </trkpt>
      <trkpt lat="40.773299" lon="-3.933088">
        <ele>1554.527</ele>
        <time>2021-07-29T19:45:49Z</time>
      </trkpt>
      <trkpt lat="40.773286" lon="-3.933052">
        <ele>1553.427</ele>
        <time>2021-07-29T19:45:52Z</time>
      </trkpt>
      <trkpt lat="40.773286" lon="-3.933022">
        <ele>1553.190</ele>
        <time>2021-07-29T19:45:54Z</time>
      </trkpt>
      <trkpt lat="40.773290" lon="-3.932990">
        <ele>1553.069</ele>
        <time>2021-07-29T19:45:56Z</time>
      </trkpt>
      <trkpt lat="40.773293" lon="-3.932957">
        <ele>1552.954</ele>
        <time>2021-07-29T19:45:58Z</time>
      </trkpt>
      <trkpt lat="40.773302" lon="-3.932935">
        <ele>1553.156</ele>
        <time>2021-07-29T19:46:02Z</time>
      </trkpt>
      <trkpt lat="40.773309" lon="-3.932907">
        <ele>1553.211</ele>
        <time>2021-07-29T19:46:04Z</time>
      </trkpt>
      <trkpt lat="40.773312" lon="-3.932865">
        <ele>1552.908</ele>
        <time>2021-07-29T19:46:06Z</time>
      </trkpt>
      <trkpt lat="40.773312" lon="-3.932818">
        <ele>1552.422</ele>
        <time>2021-07-29T19:46:08Z</time>
      </trkpt>
      <trkpt lat="40.773322" lon="-3.932783">
        <ele>1552.564</ele>
        <time>2021-07-29T19:46:10Z</time>
      </trkpt>
      <trkpt lat="40.773334" lon="-3.932755">
        <ele>1552.821</ele>
        <time>2021-07-29T19:46:12Z</time>
      </trkpt>
      <trkpt lat="40.773334" lon="-3.932725">
        <ele>1552.598</ele>
        <time>2021-07-29T19:46:15Z</time>
      </trkpt>
      <trkpt lat="40.773328" lon="-3.932688">
        <ele>1551.869</ele>
        <time>2021-07-29T19:46:18Z</time>
      </trkpt>
      <trkpt lat="40.773328" lon="-3.932664">
        <ele>1551.519</ele>
        <time>2021-07-29T19:46:20Z</time>
      </trkpt>
      <trkpt lat="40.773328" lon="-3.932635">
        <ele>1551.222</ele>
        <time>2021-07-29T19:46:24Z</time>
      </trkpt>
      <trkpt lat="40.773315" lon="-3.932602">
        <ele>1550.271</ele>
        <time>2021-07-29T19:46:26Z</time>
      </trkpt>
      <trkpt lat="40.773296" lon="-3.932583">
        <ele>1549.121</ele>
        <time>2021-07-29T19:46:27Z</time>
      </trkpt>
      <trkpt lat="40.773270" lon="-3.932567">
        <ele>1547.841</ele>
        <time>2021-07-29T19:46:29Z</time>
      </trkpt>
      <trkpt lat="40.773267" lon="-3.932537">
        <ele>1547.305</ele>
        <time>2021-07-29T19:46:31Z</time>
      </trkpt>
      <trkpt lat="40.773254" lon="-3.932518">
        <ele>1546.508</ele>
        <time>2021-07-29T19:46:35Z</time>
      </trkpt>
      <trkpt lat="40.773274" lon="-3.932492">
        <ele>1547.129</ele>
        <time>2021-07-29T19:46:37Z</time>
      </trkpt>
      <trkpt lat="40.773286" lon="-3.932467">
        <ele>1547.491</ele>
        <time>2021-07-29T19:46:39Z</time>
      </trkpt>
      <trkpt lat="40.773293" lon="-3.932440">
        <ele>1547.568</ele>
        <time>2021-07-29T19:46:41Z</time>
      </trkpt>
      <trkpt lat="40.773293" lon="-3.932405">
        <ele>1547.155</ele>
        <time>2021-07-29T19:46:43Z</time>
      </trkpt>
      <trkpt lat="40.773293" lon="-3.932370">
        <ele>1546.736</ele>
        <time>2021-07-29T19:46:46Z</time>
      </trkpt>
      <trkpt lat="40.773296" lon="-3.932346">
        <ele>1546.646</ele>
        <time>2021-07-29T19:46:47Z</time>
      </trkpt>
      <trkpt lat="40.773302" lon="-3.932324">
        <ele>1546.629</ele>
        <time>2021-07-29T19:46:49Z</time>
      </trkpt>
      <trkpt lat="40.773322" lon="-3.932305">
        <ele>1547.468</ele>
        <time>2021-07-29T19:46:52Z</time>
      </trkpt>
      <trkpt lat="40.773328" lon="-3.932273">
        <ele>1547.321</ele>
        <time>2021-07-29T19:46:55Z</time>
      </trkpt>
      <trkpt lat="40.773338" lon="-3.932243">
        <ele>1547.441</ele>
        <time>2021-07-29T19:46:58Z</time>
      </trkpt>
      <trkpt lat="40.773357" lon="-3.932208">
        <ele>1547.805</ele>
        <time>2021-07-29T19:46:59Z</time>
      </trkpt>
      <trkpt lat="40.773357" lon="-3.932175">
        <ele>1547.108</ele>
        <time>2021-07-29T19:47:00Z</time>
      </trkpt>
      <trkpt lat="40.773341" lon="-3.932156">
        <ele>1546.199</ele>
        <time>2021-07-29T19:47:01Z</time>
      </trkpt>
      <trkpt lat="40.773328" lon="-3.932126">
        <ele>1545.031</ele>
        <time>2021-07-29T19:47:03Z</time>
      </trkpt>
      <trkpt lat="40.773328" lon="-3.932098">
        <ele>1544.528</ele>
        <time>2021-07-29T19:47:05Z</time>
      </trkpt>
      <trkpt lat="40.773341" lon="-3.932063">
        <ele>1544.415</ele>
        <time>2021-07-29T19:47:13Z</time>
      </trkpt>
      <trkpt lat="40.773338" lon="-3.932038">
        <ele>1543.936</ele>
        <time>2021-07-29T19:47:14Z</time>
      </trkpt>
      <trkpt lat="40.773328" lon="-3.932013">
        <ele>1543.066</ele>
        <time>2021-07-29T19:47:16Z</time>
      </trkpt>
      <trkpt lat="40.773331" lon="-3.931980">
        <ele>1542.549</ele>
        <time>2021-07-29T19:47:21Z</time>
      </trkpt>
      <trkpt lat="40.773318" lon="-3.931957">
        <ele>1541.658</ele>
        <time>2021-07-29T19:47:30Z</time>
      </trkpt>
      <trkpt lat="40.773312" lon="-3.931925">
        <ele>1540.863</ele>
        <time>2021-07-29T19:47:32Z</time>
      </trkpt>
      <trkpt lat="40.773302" lon="-3.931890">
        <ele>1539.844</ele>
        <time>2021-07-29T19:47:36Z</time>
      </trkpt>
      <trkpt lat="40.773299" lon="-3.931865">
        <ele>1539.218</ele>
        <time>2021-07-29T19:47:38Z</time>
      </trkpt>
      <trkpt lat="40.773299" lon="-3.931835">
        <ele>1538.708</ele>
        <time>2021-07-29T19:47:41Z</time>
      </trkpt>
      <trkpt lat="40.773312" lon="-3.931800">
        <ele>1538.633</ele>
        <time>2021-07-29T19:47:44Z</time>
      </trkpt>
      <trkpt lat="40.773315" lon="-3.931772">
        <ele>1538.225</ele>
        <time>2021-07-29T19:47:46Z</time>
      </trkpt>
      <trkpt lat="40.773328" lon="-3.931747">
        <ele>1538.262</ele>
        <time>2021-07-29T19:47:48Z</time>
      </trkpt>
      <trkpt lat="40.773338" lon="-3.931722">
        <ele>1538.249</ele>
        <time>2021-07-29T19:47:50Z</time>
      </trkpt>
      <trkpt lat="40.773347" lon="-3.931698">
        <ele>1538.160</ele>
        <time>2021-07-29T19:47:52Z</time>
      </trkpt>
      <trkpt lat="40.773354" lon="-3.931672">
        <ele>1537.820</ele>
        <time>2021-07-29T19:47:54Z</time>
      </trkpt>
      <trkpt lat="40.773366" lon="-3.931650">
        <ele>1537.843</ele>
        <time>2021-07-29T19:47:56Z</time>
      </trkpt>
      <trkpt lat="40.773386" lon="-3.931635">
        <ele>1538.212</ele>
        <time>2021-07-29T19:47:58Z</time>
      </trkpt>
      <trkpt lat="40.773408" lon="-3.931625">
        <ele>1538.812</ele>
        <time>2021-07-29T19:47:59Z</time>
      </trkpt>
      <trkpt lat="40.773427" lon="-3.931615">
        <ele>1539.332</ele>
        <time>2021-07-29T19:48:00Z</time>
      </trkpt>
      <trkpt lat="40.773446" lon="-3.931598">
        <ele>1539.605</ele>
        <time>2021-07-29T19:48:02Z</time>
      </trkpt>
      <trkpt lat="40.773453" lon="-3.931575">
        <ele>1539.308</ele>
        <time>2021-07-29T19:48:06Z</time>
      </trkpt>
      <trkpt lat="40.773469" lon="-3.931542">
        <ele>1539.268</ele>
        <time>2021-07-29T19:48:09Z</time>
      </trkpt>
      <trkpt lat="40.773478" lon="-3.931518">
        <ele>1539.040</ele>
        <time>2021-07-29T19:48:13Z</time>
      </trkpt>
      <trkpt lat="40.773491" lon="-3.931502">
        <ele>1539.117</ele>
        <time>2021-07-29T19:48:16Z</time>
      </trkpt>
      <trkpt lat="40.773510" lon="-3.931470">
        <ele>1539.134</ele>
        <time>2021-07-29T19:48:21Z</time>
      </trkpt>
      <trkpt lat="40.773526" lon="-3.931448">
        <ele>1539.255</ele>
        <time>2021-07-29T19:48:27Z</time>
      </trkpt>
      <trkpt lat="40.773539" lon="-3.931422">
        <ele>1539.185</ele>
        <time>2021-07-29T19:48:30Z</time>
      </trkpt>
      <trkpt lat="40.773555" lon="-3.931410">
        <ele>1539.428</ele>
        <time>2021-07-29T19:48:33Z</time>
      </trkpt>
      <trkpt lat="40.773568" lon="-3.931383">
        <ele>1539.327</ele>
        <time>2021-07-29T19:48:36Z</time>
      </trkpt>
      <trkpt lat="40.773584" lon="-3.931360">
        <ele>1539.365</ele>
        <time>2021-07-29T19:48:39Z</time>
      </trkpt>
      <trkpt lat="40.773600" lon="-3.931333">
        <ele>1539.268</ele>
        <time>2021-07-29T19:48:42Z</time>
      </trkpt>
      <trkpt lat="40.773629" lon="-3.931317">
        <ele>1539.714</ele>
        <time>2021-07-29T19:48:44Z</time>
      </trkpt>
      <trkpt lat="40.773629" lon="-3.931290">
        <ele>1539.008</ele>
        <time>2021-07-29T19:48:48Z</time>
      </trkpt>
      <trkpt lat="40.773626" lon="-3.931255">
        <ele>1538.133</ele>
        <time>2021-07-29T19:48:50Z</time>
      </trkpt>
      <trkpt lat="40.773629" lon="-3.931228">
        <ele>1537.535</ele>
        <time>2021-07-29T19:48:52Z</time>
      </trkpt>
      <trkpt lat="40.773645" lon="-3.931210">
        <ele>1537.532</ele>
        <time>2021-07-29T19:48:54Z</time>
      </trkpt>
      <trkpt lat="40.773664" lon="-3.931182">
        <ele>1537.339</ele>
        <time>2021-07-29T19:48:56Z</time>
      </trkpt>
      <trkpt lat="40.773683" lon="-3.931153">
        <ele>1537.110</ele>
        <time>2021-07-29T19:48:58Z</time>
      </trkpt>
      <trkpt lat="40.773699" lon="-3.931135">
        <ele>1537.170</ele>
        <time>2021-07-29T19:49:01Z</time>
      </trkpt>
      <trkpt lat="40.773718" lon="-3.931116">
        <ele>1537.273</ele>
        <time>2021-07-29T19:49:04Z</time>
      </trkpt>
      <trkpt lat="40.773731" lon="-3.931096">
        <ele>1537.142</ele>
        <time>2021-07-29T19:49:06Z</time>
      </trkpt>
      <trkpt lat="40.773747" lon="-3.931073">
        <ele>1537.095</ele>
        <time>2021-07-29T19:49:09Z</time>
      </trkpt>
      <trkpt lat="40.773770" lon="-3.931047">
        <ele>1537.049</ele>
        <time>2021-07-29T19:49:12Z</time>
      </trkpt>
      <trkpt lat="40.773786" lon="-3.931020">
        <ele>1536.723</ele>
        <time>2021-07-29T19:49:14Z</time>
      </trkpt>
      <trkpt lat="40.773795" lon="-3.930985">
        <ele>1536.108</ele>
        <time>2021-07-29T19:49:17Z</time>
      </trkpt>
      <trkpt lat="40.773824" lon="-3.930946">
        <ele>1536.086</ele>
        <time>2021-07-29T19:49:18Z</time>
      </trkpt>
      <trkpt lat="40.773846" lon="-3.930915">
        <ele>1535.838</ele>
        <time>2021-07-29T19:49:20Z</time>
      </trkpt>
      <trkpt lat="40.773866" lon="-3.930890">
        <ele>1535.825</ele>
        <time>2021-07-29T19:49:22Z</time>
      </trkpt>
      <trkpt lat="40.773888" lon="-3.930894">
        <ele>1536.572</ele>
        <time>2021-07-29T19:49:25Z</time>
      </trkpt>
      <trkpt lat="40.773910" lon="-3.930885">
        <ele>1537.233</ele>
        <time>2021-07-29T19:49:27Z</time>
      </trkpt>
      <trkpt lat="40.773923" lon="-3.930867">
        <ele>1537.263</ele>
        <time>2021-07-29T19:49:29Z</time>
      </trkpt>
      <trkpt lat="40.773946" lon="-3.930837">
        <ele>1537.496</ele>
        <time>2021-07-29T19:49:31Z</time>
      </trkpt>
      <trkpt lat="40.773955" lon="-3.930812">
        <ele>1537.135</ele>
        <time>2021-07-29T19:49:33Z</time>
      </trkpt>
      <trkpt lat="40.773946" lon="-3.930785">
        <ele>1536.145</ele>
        <time>2021-07-29T19:49:35Z</time>
      </trkpt>
      <trkpt lat="40.773952" lon="-3.930736">
        <ele>1535.147</ele>
        <time>2021-07-29T19:49:37Z</time>
      </trkpt>
      <trkpt lat="40.773968" lon="-3.930717">
        <ele>1535.111</ele>
        <time>2021-07-29T19:49:40Z</time>
      </trkpt>
      <trkpt lat="40.773965" lon="-3.930682">
        <ele>1534.108</ele>
        <time>2021-07-29T19:49:43Z</time>
      </trkpt>
      <trkpt lat="40.773971" lon="-3.930653">
        <ele>1533.681</ele>
        <time>2021-07-29T19:49:45Z</time>
      </trkpt>
      <trkpt lat="40.773978" lon="-3.930628">
        <ele>1533.193</ele>
        <time>2021-07-29T19:49:47Z</time>
      </trkpt>
      <trkpt lat="40.773987" lon="-3.930602">
        <ele>1532.740</ele>
        <time>2021-07-29T19:49:50Z</time>
      </trkpt>
      <trkpt lat="40.774022" lon="-3.930587">
        <ele>1533.387</ele>
        <time>2021-07-29T19:49:53Z</time>
      </trkpt>
      <trkpt lat="40.774026" lon="-3.930544">
        <ele>1532.268</ele>
        <time>2021-07-29T19:49:55Z</time>
      </trkpt>
      <trkpt lat="40.774029" lon="-3.930515">
        <ele>1531.538</ele>
        <time>2021-07-29T19:49:57Z</time>
      </trkpt>
      <trkpt lat="40.774029" lon="-3.930490">
        <ele>1530.911</ele>
        <time>2021-07-29T19:50:08Z</time>
      </trkpt>
      <trkpt lat="40.774032" lon="-3.930455">
        <ele>1530.140</ele>
        <time>2021-07-29T19:50:11Z</time>
      </trkpt>
      <trkpt lat="40.774042" lon="-3.930432">
        <ele>1529.777</ele>
        <time>2021-07-29T19:50:13Z</time>
      </trkpt>
      <trkpt lat="40.774051" lon="-3.930410">
        <ele>1529.461</ele>
        <time>2021-07-29T19:50:17Z</time>
      </trkpt>
      <trkpt lat="40.774051" lon="-3.930382">
        <ele>1528.727</ele>
        <time>2021-07-29T19:50:20Z</time>
      </trkpt>
      <trkpt lat="40.774054" lon="-3.930347">
        <ele>1527.908</ele>
        <time>2021-07-29T19:50:25Z</time>
      </trkpt>
      <trkpt lat="40.774070" lon="-3.930325">
        <ele>1527.824</ele>
        <time>2021-07-29T19:50:28Z</time>
      </trkpt>
      <trkpt lat="40.774064" lon="-3.930302">
        <ele>1527.066</ele>
        <time>2021-07-29T19:50:31Z</time>
      </trkpt>
      <trkpt lat="40.774064" lon="-3.930270">
        <ele>1526.283</ele>
        <time>2021-07-29T19:50:35Z</time>
      </trkpt>
      <trkpt lat="40.774074" lon="-3.930248">
        <ele>1525.870</ele>
        <time>2021-07-29T19:50:38Z</time>
      </trkpt>
      <trkpt lat="40.774086" lon="-3.930227">
        <ele>1525.611</ele>
        <time>2021-07-29T19:50:40Z</time>
      </trkpt>
      <trkpt lat="40.774090" lon="-3.930197">
        <ele>1524.911</ele>
        <time>2021-07-29T19:50:42Z</time>
      </trkpt>
      <trkpt lat="40.774109" lon="-3.930173">
        <ele>1524.974</ele>
        <time>2021-07-29T19:50:45Z</time>
      </trkpt>
      <trkpt lat="40.774125" lon="-3.930155">
        <ele>1525.053</ele>
        <time>2021-07-29T19:50:47Z</time>
      </trkpt>
      <trkpt lat="40.774147" lon="-3.930137">
        <ele>1525.316</ele>
        <time>2021-07-29T19:50:49Z</time>
      </trkpt>
      <trkpt lat="40.774163" lon="-3.930112">
        <ele>1525.376</ele>
        <time>2021-07-29T19:50:51Z</time>
      </trkpt>
      <trkpt lat="40.774173" lon="-3.930088">
        <ele>1525.113</ele>
        <time>2021-07-29T19:50:53Z</time>
      </trkpt>
      <trkpt lat="40.774189" lon="-3.930066">
        <ele>1525.108</ele>
        <time>2021-07-29T19:50:55Z</time>
      </trkpt>
      <trkpt lat="40.774202" lon="-3.930042">
        <ele>1525.018</ele>
        <time>2021-07-29T19:50:58Z</time>
      </trkpt>
      <trkpt lat="40.774208" lon="-3.930018">
        <ele>1524.680</ele>
        <time>2021-07-29T19:51:00Z</time>
      </trkpt>
      <trkpt lat="40.774221" lon="-3.929990">
        <ele>1524.317</ele>
        <time>2021-07-29T19:51:02Z</time>
      </trkpt>
      <trkpt lat="40.774240" lon="-3.929960">
        <ele>1524.014</ele>
        <time>2021-07-29T19:51:04Z</time>
      </trkpt>
      <trkpt lat="40.774259" lon="-3.929938">
        <ele>1523.975</ele>
        <time>2021-07-29T19:51:06Z</time>
      </trkpt>
      <trkpt lat="40.774275" lon="-3.929903">
        <ele>1523.535</ele>
        <time>2021-07-29T19:51:09Z</time>
      </trkpt>
      <trkpt lat="40.774294" lon="-3.929895">
        <ele>1523.848</ele>
        <time>2021-07-29T19:51:10Z</time>
      </trkpt>
      <trkpt lat="40.774310" lon="-3.929884">
        <ele>1524.077</ele>
        <time>2021-07-29T19:51:11Z</time>
      </trkpt>
      <trkpt lat="40.774330" lon="-3.929854">
        <ele>1523.881</ele>
        <time>2021-07-29T19:51:13Z</time>
      </trkpt>
      <trkpt lat="40.774349" lon="-3.929832">
        <ele>1523.861</ele>
        <time>2021-07-29T19:51:15Z</time>
      </trkpt>
      <trkpt lat="40.774368" lon="-3.929828">
        <ele>1524.317</ele>
        <time>2021-07-29T19:51:17Z</time>
      </trkpt>
      <trkpt lat="40.774374" lon="-3.929797">
        <ele>1523.708</ele>
        <time>2021-07-29T19:51:20Z</time>
      </trkpt>
      <trkpt lat="40.774381" lon="-3.929770">
        <ele>1523.265</ele>
        <time>2021-07-29T19:51:21Z</time>
      </trkpt>
      <trkpt lat="40.774406" lon="-3.929762">
        <ele>1523.837</ele>
        <time>2021-07-29T19:51:25Z</time>
      </trkpt>
      <trkpt lat="40.774422" lon="-3.929743">
        <ele>1523.854</ele>
        <time>2021-07-29T19:51:27Z</time>
      </trkpt>
      <trkpt lat="40.774413" lon="-3.929713">
        <ele>1522.791</ele>
        <time>2021-07-29T19:51:30Z</time>
      </trkpt>
      <trkpt lat="40.774422" lon="-3.929692">
        <ele>1522.522</ele>
        <time>2021-07-29T19:51:32Z</time>
      </trkpt>
      <trkpt lat="40.774419" lon="-3.929664">
        <ele>1521.782</ele>
        <time>2021-07-29T19:51:35Z</time>
      </trkpt>
      <trkpt lat="40.774406" lon="-3.929638">
        <ele>1520.565</ele>
        <time>2021-07-29T19:51:41Z</time>
      </trkpt>
      <trkpt lat="40.774394" lon="-3.929610">
        <ele>1519.334</ele>
        <time>2021-07-29T19:51:46Z</time>
      </trkpt>
      <trkpt lat="40.774394" lon="-3.929577">
        <ele>1518.422</ele>
        <time>2021-07-29T19:51:49Z</time>
      </trkpt>
      <trkpt lat="40.774400" lon="-3.929548">
        <ele>1517.962</ele>
        <time>2021-07-29T19:51:53Z</time>
      </trkpt>
      <trkpt lat="40.774406" lon="-3.929524">
        <ele>1517.508</ele>
        <time>2021-07-29T19:51:56Z</time>
      </trkpt>
      <trkpt lat="40.774410" lon="-3.929498">
        <ele>1516.908</ele>
        <time>2021-07-29T19:51:58Z</time>
      </trkpt>
      <trkpt lat="40.774413" lon="-3.929470">
        <ele>1516.349</ele>
        <time>2021-07-29T19:52:00Z</time>
      </trkpt>
      <trkpt lat="40.774426" lon="-3.929445">
        <ele>1516.281</ele>
        <time>2021-07-29T19:52:05Z</time>
      </trkpt>
      <trkpt lat="40.774438" lon="-3.929422">
        <ele>1516.028</ele>
        <time>2021-07-29T19:52:08Z</time>
      </trkpt>
      <trkpt lat="40.774445" lon="-3.929393">
        <ele>1515.315</ele>
        <time>2021-07-29T19:52:11Z</time>
      </trkpt>
      <trkpt lat="40.774458" lon="-3.929360">
        <ele>1514.786</ele>
        <time>2021-07-29T19:52:15Z</time>
      </trkpt>
      <trkpt lat="40.774470" lon="-3.929330">
        <ele>1514.176</ele>
        <time>2021-07-29T19:52:18Z</time>
      </trkpt>
      <trkpt lat="40.774490" lon="-3.929312">
        <ele>1514.199</ele>
        <time>2021-07-29T19:52:20Z</time>
      </trkpt>
      <trkpt lat="40.774490" lon="-3.929285">
        <ele>1513.298</ele>
        <time>2021-07-29T19:52:22Z</time>
      </trkpt>
      <trkpt lat="40.774499" lon="-3.929262">
        <ele>1512.886</ele>
        <time>2021-07-29T19:52:24Z</time>
      </trkpt>
      <trkpt lat="40.774506" lon="-3.929238">
        <ele>1512.260</ele>
        <time>2021-07-29T19:52:26Z</time>
      </trkpt>
      <trkpt lat="40.774522" lon="-3.929222">
        <ele>1512.226</ele>
        <time>2021-07-29T19:52:28Z</time>
      </trkpt>
      <trkpt lat="40.774531" lon="-3.929198">
        <ele>1511.808</ele>
        <time>2021-07-29T19:52:30Z</time>
      </trkpt>
      <trkpt lat="40.774541" lon="-3.929167">
        <ele>1511.165</ele>
        <time>2021-07-29T19:52:32Z</time>
      </trkpt>
      <trkpt lat="40.774550" lon="-3.929145">
        <ele>1510.837</ele>
        <time>2021-07-29T19:52:34Z</time>
      </trkpt>
      <trkpt lat="40.774563" lon="-3.929127">
        <ele>1510.754</ele>
        <time>2021-07-29T19:52:36Z</time>
      </trkpt>
      <trkpt lat="40.774582" lon="-3.929095">
        <ele>1510.431</ele>
        <time>2021-07-29T19:52:38Z</time>
      </trkpt>
      <trkpt lat="40.774637" lon="-3.929016">
        <ele>1509.932</ele>
        <time>2021-07-29T19:52:46Z</time>
      </trkpt>
      <trkpt lat="40.774646" lon="-3.928995">
        <ele>1509.642</ele>
        <time>2021-07-29T19:52:47Z</time>
      </trkpt>
      <trkpt lat="40.774659" lon="-3.928970">
        <ele>1509.375</ele>
        <time>2021-07-29T19:52:48Z</time>
      </trkpt>
      <trkpt lat="40.774653" lon="-3.928942">
        <ele>1508.354</ele>
        <time>2021-07-29T19:52:49Z</time>
      </trkpt>
      <trkpt lat="40.774653" lon="-3.928905">
        <ele>1507.294</ele>
        <time>2021-07-29T19:52:51Z</time>
      </trkpt>
      <trkpt lat="40.774678" lon="-3.928897">
        <ele>1507.857</ele>
        <time>2021-07-29T19:52:55Z</time>
      </trkpt>
      <trkpt lat="40.774707" lon="-3.928898">
        <ele>1508.822</ele>
        <time>2021-07-29T19:52:57Z</time>
      </trkpt>
      <trkpt lat="40.774720" lon="-3.928875">
        <ele>1508.608</ele>
        <time>2021-07-29T19:52:59Z</time>
      </trkpt>
      <trkpt lat="40.774720" lon="-3.928846">
        <ele>1508.096</ele>
        <time>2021-07-29T19:53:01Z</time>
      </trkpt>
      <trkpt lat="40.774710" lon="-3.928822">
        <ele>1507.268</ele>
        <time>2021-07-29T19:53:03Z</time>
      </trkpt>
      <trkpt lat="40.774717" lon="-3.928792">
        <ele>1506.825</ele>
        <time>2021-07-29T19:53:05Z</time>
      </trkpt>
      <trkpt lat="40.774726" lon="-3.928770">
        <ele>1506.642</ele>
        <time>2021-07-29T19:53:07Z</time>
      </trkpt>
      <trkpt lat="40.774762" lon="-3.928768">
        <ele>1508.193</ele>
        <time>2021-07-29T19:53:09Z</time>
      </trkpt>
      <trkpt lat="40.774784" lon="-3.928765">
        <ele>1508.933</ele>
        <time>2021-07-29T19:53:11Z</time>
      </trkpt>
      <trkpt lat="40.774790" lon="-3.928742">
        <ele>1508.696</ele>
        <time>2021-07-29T19:53:14Z</time>
      </trkpt>
      <trkpt lat="40.774803" lon="-3.928718">
        <ele>1508.635</ele>
        <time>2021-07-29T19:53:16Z</time>
      </trkpt>
      <trkpt lat="40.774822" lon="-3.928712">
        <ele>1509.235</ele>
        <time>2021-07-29T19:53:18Z</time>
      </trkpt>
      <trkpt lat="40.774838" lon="-3.928697">
        <ele>1509.486</ele>
        <time>2021-07-29T19:53:21Z</time>
      </trkpt>
      <trkpt lat="40.774845" lon="-3.928660">
        <ele>1508.714</ele>
        <time>2021-07-29T19:53:25Z</time>
      </trkpt>
      <trkpt lat="40.774845" lon="-3.928622">
        <ele>1507.708</ele>
        <time>2021-07-29T19:53:27Z</time>
      </trkpt>
      <trkpt lat="40.774838" lon="-3.928587">
        <ele>1506.690</ele>
        <time>2021-07-29T19:53:29Z</time>
      </trkpt>
      <trkpt lat="40.774838" lon="-3.928548">
        <ele>1505.692</ele>
        <time>2021-07-29T19:53:34Z</time>
      </trkpt>
      <trkpt lat="40.774845" lon="-3.928512">
        <ele>1504.919</ele>
        <time>2021-07-29T19:53:36Z</time>
      </trkpt>
      <trkpt lat="40.774867" lon="-3.928483">
        <ele>1505.056</ele>
        <time>2021-07-29T19:53:38Z</time>
      </trkpt>
      <trkpt lat="40.774877" lon="-3.928457">
        <ele>1504.777</ele>
        <time>2021-07-29T19:53:40Z</time>
      </trkpt>
      <trkpt lat="40.774880" lon="-3.928427">
        <ele>1504.047</ele>
        <time>2021-07-29T19:53:43Z</time>
      </trkpt>
      <trkpt lat="40.774883" lon="-3.928402">
        <ele>1503.530</ele>
        <time>2021-07-29T19:53:46Z</time>
      </trkpt>
      <trkpt lat="40.774896" lon="-3.928382">
        <ele>1503.539</ele>
        <time>2021-07-29T19:53:49Z</time>
      </trkpt>
      <trkpt lat="40.774890" lon="-3.928355">
        <ele>1502.674</ele>
        <time>2021-07-29T19:53:51Z</time>
      </trkpt>
      <trkpt lat="40.774886" lon="-3.928323">
        <ele>1501.756</ele>
        <time>2021-07-29T19:53:53Z</time>
      </trkpt>
      <trkpt lat="40.774906" lon="-3.928322">
        <ele>1502.421</ele>
        <time>2021-07-29T19:54:00Z</time>
      </trkpt>
      <trkpt lat="40.774906" lon="-3.928295">
        <ele>1501.808</ele>
        <time>2021-07-29T19:54:02Z</time>
      </trkpt>
      <trkpt lat="40.774899" lon="-3.928258">
        <ele>1500.734</ele>
        <time>2021-07-29T19:54:04Z</time>
      </trkpt>
      <trkpt lat="40.774899" lon="-3.928223">
        <ele>1500.016</ele>
        <time>2021-07-29T19:54:06Z</time>
      </trkpt>
      <trkpt lat="40.774922" lon="-3.928195">
        <ele>1500.213</ele>
        <time>2021-07-29T19:54:09Z</time>
      </trkpt>
      <trkpt lat="40.774938" lon="-3.928173">
        <ele>1500.350</ele>
        <time>2021-07-29T19:54:11Z</time>
      </trkpt>
      <trkpt lat="40.774960" lon="-3.928153">
        <ele>1500.731</ele>
        <time>2021-07-29T19:54:13Z</time>
      </trkpt>
      <trkpt lat="40.774966" lon="-3.928130">
        <ele>1500.421</ele>
        <time>2021-07-29T19:54:15Z</time>
      </trkpt>
      <trkpt lat="40.774986" lon="-3.928140">
        <ele>1501.374</ele>
        <time>2021-07-29T19:54:18Z</time>
      </trkpt>
      <trkpt lat="40.775008" lon="-3.928125">
        <ele>1501.913</ele>
        <time>2021-07-29T19:54:20Z</time>
      </trkpt>
      <trkpt lat="40.775024" lon="-3.928108">
        <ele>1502.281</ele>
        <time>2021-07-29T19:54:22Z</time>
      </trkpt>
      <trkpt lat="40.775040" lon="-3.928085">
        <ele>1502.461</ele>
        <time>2021-07-29T19:54:25Z</time>
      </trkpt>
      <trkpt lat="40.775040" lon="-3.928057">
        <ele>1501.817</ele>
        <time>2021-07-29T19:54:28Z</time>
      </trkpt>
      <trkpt lat="40.775050" lon="-3.928033">
        <ele>1501.908</ele>
        <time>2021-07-29T19:54:30Z</time>
      </trkpt>
      <trkpt lat="40.775069" lon="-3.928012">
        <ele>1502.525</ele>
        <time>2021-07-29T19:54:32Z</time>
      </trkpt>
      <trkpt lat="40.775085" lon="-3.927982">
        <ele>1502.827</ele>
        <time>2021-07-29T19:54:35Z</time>
      </trkpt>
      <trkpt lat="40.775098" lon="-3.927943">
        <ele>1502.934</ele>
        <time>2021-07-29T19:54:38Z</time>
      </trkpt>
      <trkpt lat="40.775114" lon="-3.927900">
        <ele>1503.051</ele>
        <time>2021-07-29T19:54:40Z</time>
      </trkpt>
      <trkpt lat="40.775123" lon="-3.927873">
        <ele>1503.142</ele>
        <time>2021-07-29T19:54:41Z</time>
      </trkpt>
      <trkpt lat="40.775139" lon="-3.927838">
        <ele>1503.392</ele>
        <time>2021-07-29T19:54:42Z</time>
      </trkpt>
      <trkpt lat="40.775146" lon="-3.927807">
        <ele>1503.255</ele>
        <time>2021-07-29T19:54:43Z</time>
      </trkpt>
      <trkpt lat="40.775146" lon="-3.927780">
        <ele>1502.854</ele>
        <time>2021-07-29T19:54:44Z</time>
      </trkpt>
      <trkpt lat="40.775142" lon="-3.927748">
        <ele>1502.297</ele>
        <time>2021-07-29T19:54:45Z</time>
      </trkpt>
      <trkpt lat="40.775136" lon="-3.927724">
        <ele>1501.723</ele>
        <time>2021-07-29T19:54:46Z</time>
      </trkpt>
      <trkpt lat="40.775136" lon="-3.927687">
        <ele>1501.225</ele>
        <time>2021-07-29T19:54:49Z</time>
      </trkpt>
      <trkpt lat="40.775149" lon="-3.927652">
        <ele>1501.308</ele>
        <time>2021-07-29T19:54:52Z</time>
      </trkpt>
      <trkpt lat="40.775162" lon="-3.927628">
        <ele>1501.576</ele>
        <time>2021-07-29T19:54:54Z</time>
      </trkpt>
      <trkpt lat="40.775181" lon="-3.927598">
        <ele>1501.858</ele>
        <time>2021-07-29T19:54:56Z</time>
      </trkpt>
      <trkpt lat="40.775197" lon="-3.927585">
        <ele>1502.235</ele>
        <time>2021-07-29T19:54:57Z</time>
      </trkpt>
      <trkpt lat="40.775216" lon="-3.927542">
        <ele>1502.352</ele>
        <time>2021-07-29T19:54:59Z</time>
      </trkpt>
      <trkpt lat="40.775222" lon="-3.927505">
        <ele>1502.143</ele>
        <time>2021-07-29T19:55:01Z</time>
      </trkpt>
      <trkpt lat="40.775226" lon="-3.927468">
        <ele>1501.743</ele>
        <time>2021-07-29T19:55:03Z</time>
      </trkpt>
      <trkpt lat="40.775232" lon="-3.927445">
        <ele>1501.626</ele>
        <time>2021-07-29T19:55:04Z</time>
      </trkpt>
      <trkpt lat="40.775232" lon="-3.927417">
        <ele>1501.225</ele>
        <time>2021-07-29T19:55:06Z</time>
      </trkpt>
      <trkpt lat="40.775238" lon="-3.927382">
        <ele>1500.982</ele>
        <time>2021-07-29T19:55:10Z</time>
      </trkpt>
      <trkpt lat="40.775254" lon="-3.927355">
        <ele>1501.143</ele>
        <time>2021-07-29T19:55:13Z</time>
      </trkpt>
      <trkpt lat="40.775242" lon="-3.927333">
        <ele>1500.417</ele>
        <time>2021-07-29T19:55:18Z</time>
      </trkpt>
      <trkpt lat="40.775235" lon="-3.927302">
        <ele>1499.708</ele>
        <time>2021-07-29T19:55:20Z</time>
      </trkpt>
      <trkpt lat="40.775222" lon="-3.927275">
        <ele>1498.975</ele>
        <time>2021-07-29T19:55:22Z</time>
      </trkpt>
      <trkpt lat="40.775226" lon="-3.927242">
        <ele>1498.687</ele>
        <time>2021-07-29T19:55:25Z</time>
      </trkpt>
      <trkpt lat="40.775219" lon="-3.927207">
        <ele>1498.074</ele>
        <time>2021-07-29T19:55:27Z</time>
      </trkpt>
      <trkpt lat="40.775216" lon="-3.927165">
        <ele>1497.591</ele>
        <time>2021-07-29T19:55:29Z</time>
      </trkpt>
      <trkpt lat="40.775222" lon="-3.927127">
        <ele>1497.422</ele>
        <time>2021-07-29T19:55:32Z</time>
      </trkpt>
      <trkpt lat="40.775216" lon="-3.927093">
        <ele>1497.072</ele>
        <time>2021-07-29T19:55:34Z</time>
      </trkpt>
      <trkpt lat="40.775213" lon="-3.927068">
        <ele>1496.775</ele>
        <time>2021-07-29T19:55:36Z</time>
      </trkpt>
      <trkpt lat="40.775200" lon="-3.927048">
        <ele>1496.014</ele>
        <time>2021-07-29T19:55:37Z</time>
      </trkpt>
      <trkpt lat="40.775187" lon="-3.927022">
        <ele>1495.412</ele>
        <time>2021-07-29T19:55:38Z</time>
      </trkpt>
      <trkpt lat="40.775181" lon="-3.926982">
        <ele>1494.832</ele>
        <time>2021-07-29T19:55:40Z</time>
      </trkpt>
      <trkpt lat="40.775197" lon="-3.926950">
        <ele>1495.105</ele>
        <time>2021-07-29T19:55:43Z</time>
      </trkpt>
      <trkpt lat="40.775197" lon="-3.926915">
        <ele>1494.708</ele>
        <time>2021-07-29T19:55:45Z</time>
      </trkpt>
      <trkpt lat="40.775187" lon="-3.926882">
        <ele>1494.068</ele>
        <time>2021-07-29T19:55:47Z</time>
      </trkpt>
      <trkpt lat="40.775187" lon="-3.926845">
        <ele>1493.580</ele>
        <time>2021-07-29T19:55:49Z</time>
      </trkpt>
      <trkpt lat="40.775184" lon="-3.926813">
        <ele>1493.027</ele>
        <time>2021-07-29T19:55:51Z</time>
      </trkpt>
      <trkpt lat="40.775174" lon="-3.926788">
        <ele>1492.464</ele>
        <time>2021-07-29T19:55:54Z</time>
      </trkpt>
      <trkpt lat="40.775174" lon="-3.926757">
        <ele>1492.015</ele>
        <time>2021-07-29T19:55:56Z</time>
      </trkpt>
      <trkpt lat="40.775178" lon="-3.926733">
        <ele>1491.995</ele>
        <time>2021-07-29T19:55:58Z</time>
      </trkpt>
      <trkpt lat="40.775174" lon="-3.926704">
        <ele>1491.398</ele>
        <time>2021-07-29T19:56:00Z</time>
      </trkpt>
      <trkpt lat="40.775162" lon="-3.926675">
        <ele>1490.537</ele>
        <time>2021-07-29T19:56:02Z</time>
      </trkpt>
      <trkpt lat="40.775142" lon="-3.926648">
        <ele>1489.412</ele>
        <time>2021-07-29T19:56:04Z</time>
      </trkpt>
      <trkpt lat="40.775123" lon="-3.926635">
        <ele>1488.532</ele>
        <time>2021-07-29T19:56:06Z</time>
      </trkpt>
      <trkpt lat="40.775139" lon="-3.926623">
        <ele>1489.005</ele>
        <time>2021-07-29T19:56:16Z</time>
      </trkpt>
      <trkpt lat="40.775155" lon="-3.926607">
        <ele>1489.408</ele>
        <time>2021-07-29T19:56:18Z</time>
      </trkpt>
      <trkpt lat="40.775158" lon="-3.926577">
        <ele>1489.128</ele>
        <time>2021-07-29T19:56:22Z</time>
      </trkpt>
      <trkpt lat="40.775155" lon="-3.926545">
        <ele>1488.680</ele>
        <time>2021-07-29T19:56:25Z</time>
      </trkpt>
      <trkpt lat="40.775155" lon="-3.926518">
        <ele>1488.347</ele>
        <time>2021-07-29T19:56:28Z</time>
      </trkpt>
      <trkpt lat="40.775155" lon="-3.926490">
        <ele>1487.934</ele>
        <time>2021-07-29T19:56:31Z</time>
      </trkpt>
      <trkpt lat="40.775158" lon="-3.926455">
        <ele>1487.635</ele>
        <time>2021-07-29T19:56:34Z</time>
      </trkpt>
      <trkpt lat="40.775158" lon="-3.926423">
        <ele>1487.275</ele>
        <time>2021-07-29T19:56:37Z</time>
      </trkpt>
      <trkpt lat="40.775158" lon="-3.926388">
        <ele>1486.888</ele>
        <time>2021-07-29T19:56:40Z</time>
      </trkpt>
      <trkpt lat="40.775149" lon="-3.926367">
        <ele>1486.067</ele>
        <time>2021-07-29T19:56:42Z</time>
      </trkpt>
      <trkpt lat="40.775162" lon="-3.926348">
        <ele>1486.262</ele>
        <time>2021-07-29T19:56:44Z</time>
      </trkpt>
      <trkpt lat="40.775181" lon="-3.926330">
        <ele>1486.883</ele>
        <time>2021-07-29T19:56:47Z</time>
      </trkpt>
      <trkpt lat="40.775203" lon="-3.926315">
        <ele>1487.611</ele>
        <time>2021-07-29T19:56:49Z</time>
      </trkpt>
      <trkpt lat="40.775222" lon="-3.926302">
        <ele>1488.308</ele>
        <time>2021-07-29T19:56:51Z</time>
      </trkpt>
      <trkpt lat="40.775203" lon="-3.926248">
        <ele>1486.663</ele>
        <time>2021-07-29T19:56:53Z</time>
      </trkpt>
      <trkpt lat="40.775194" lon="-3.926215">
        <ele>1485.615</ele>
        <time>2021-07-29T19:56:55Z</time>
      </trkpt>
      <trkpt lat="40.775197" lon="-3.926186">
        <ele>1485.392</ele>
        <time>2021-07-29T19:56:58Z</time>
      </trkpt>
      <trkpt lat="40.775178" lon="-3.926173">
        <ele>1484.069</ele>
        <time>2021-07-29T19:57:00Z</time>
      </trkpt>
      <trkpt lat="40.775149" lon="-3.926180">
        <ele>1482.480</ele>
        <time>2021-07-29T19:57:02Z</time>
      </trkpt>
      <trkpt lat="40.775123" lon="-3.926192">
        <ele>1481.250</ele>
        <time>2021-07-29T19:57:04Z</time>
      </trkpt>
      <trkpt lat="40.775104" lon="-3.926203">
        <ele>1480.463</ele>
        <time>2021-07-29T19:57:06Z</time>
      </trkpt>
      <trkpt lat="40.775082" lon="-3.926222">
        <ele>1479.622</ele>
        <time>2021-07-29T19:57:09Z</time>
      </trkpt>
      <trkpt lat="40.775066" lon="-3.926250">
        <ele>1479.475</ele>
        <time>2021-07-29T19:57:11Z</time>
      </trkpt>
      <trkpt lat="40.775056" lon="-3.926272">
        <ele>1479.528</ele>
        <time>2021-07-29T19:57:13Z</time>
      </trkpt>
      <trkpt lat="40.775046" lon="-3.926298">
        <ele>1479.620</ele>
        <time>2021-07-29T19:57:24Z</time>
      </trkpt>
      <trkpt lat="40.775027" lon="-3.926325">
        <ele>1479.408</ele>
        <time>2021-07-29T19:57:26Z</time>
      </trkpt>
      <trkpt lat="40.775014" lon="-3.926347">
        <ele>1479.454</ele>
        <time>2021-07-29T19:57:28Z</time>
      </trkpt>
      <trkpt lat="40.774998" lon="-3.926360">
        <ele>1479.096</ele>
        <time>2021-07-29T19:57:30Z</time>
      </trkpt>
      <trkpt lat="40.774979" lon="-3.926383">
        <ele>1478.333</ele>
        <time>2021-07-29T19:57:33Z</time>
      </trkpt>
      <trkpt lat="40.774966" lon="-3.926413">
        <ele>1477.930</ele>
        <time>2021-07-29T19:57:36Z</time>
      </trkpt>
      <trkpt lat="40.774947" lon="-3.926423">
        <ele>1476.741</ele>
        <time>2021-07-29T19:57:38Z</time>
      </trkpt>
      <trkpt lat="40.774934" lon="-3.926452">
        <ele>1476.171</ele>
        <time>2021-07-29T19:57:42Z</time>
      </trkpt>
      <trkpt lat="40.774944" lon="-3.926427">
        <ele>1476.534</ele>
        <time>2021-07-29T19:57:49Z</time>
      </trkpt>
      <trkpt lat="40.774950" lon="-3.926392">
        <ele>1476.443</ele>
        <time>2021-07-29T19:57:52Z</time>
      </trkpt>
      <trkpt lat="40.774960" lon="-3.926368">
        <ele>1476.688</ele>
        <time>2021-07-29T19:57:54Z</time>
      </trkpt>
      <trkpt lat="40.774950" lon="-3.926347">
        <ele>1475.324</ele>
        <time>2021-07-29T19:57:58Z</time>
      </trkpt>
      <trkpt lat="40.774979" lon="-3.926334">
        <ele>1477.026</ele>
        <time>2021-07-29T19:58:00Z</time>
      </trkpt>
      <trkpt lat="40.774986" lon="-3.926307">
        <ele>1476.708</ele>
        <time>2021-07-29T19:58:01Z</time>
      </trkpt>
      <trkpt lat="40.774989" lon="-3.926270">
        <ele>1475.875</ele>
        <time>2021-07-29T19:58:03Z</time>
      </trkpt>
      <trkpt lat="40.774976" lon="-3.926250">
        <ele>1474.457</ele>
        <time>2021-07-29T19:58:07Z</time>
      </trkpt>
      <trkpt lat="40.774957" lon="-3.926240">
        <ele>1472.974</ele>
        <time>2021-07-29T19:58:11Z</time>
      </trkpt>
      <trkpt lat="40.774938" lon="-3.926232">
        <ele>1471.471</ele>
        <time>2021-07-29T19:58:17Z</time>
      </trkpt>
      <trkpt lat="40.774922" lon="-3.926260">
        <ele>1471.112</ele>
        <time>2021-07-29T19:58:19Z</time>
      </trkpt>
      <trkpt lat="40.774902" lon="-3.926277">
        <ele>1470.122</ele>
        <time>2021-07-29T19:58:21Z</time>
      </trkpt>
      <trkpt lat="40.774883" lon="-3.926295">
        <ele>1469.365</ele>
        <time>2021-07-29T19:58:24Z</time>
      </trkpt>
      <trkpt lat="40.774864" lon="-3.926310">
        <ele>1468.494</ele>
        <time>2021-07-29T19:58:26Z</time>
      </trkpt>
      <trkpt lat="40.774851" lon="-3.926332">
        <ele>1468.057</ele>
        <time>2021-07-29T19:58:28Z</time>
      </trkpt>
      <trkpt lat="40.774842" lon="-3.926354">
        <ele>1467.800</ele>
        <time>2021-07-29T19:58:36Z</time>
      </trkpt>
      <trkpt lat="40.774829" lon="-3.926378">
        <ele>1467.420</ele>
        <time>2021-07-29T19:58:39Z</time>
      </trkpt>
      <trkpt lat="40.774816" lon="-3.926400">
        <ele>1466.908</ele>
        <time>2021-07-29T19:58:42Z</time>
      </trkpt>
      <trkpt lat="40.774803" lon="-3.926382">
        <ele>1465.792</ele>
        <time>2021-07-29T19:58:48Z</time>
      </trkpt>
      <trkpt lat="40.774810" lon="-3.926358">
        <ele>1465.744</ele>
        <time>2021-07-29T19:58:50Z</time>
      </trkpt>
      <trkpt lat="40.774816" lon="-3.926325">
        <ele>1465.461</ele>
        <time>2021-07-29T19:58:52Z</time>
      </trkpt>
      <trkpt lat="40.774819" lon="-3.926295">
        <ele>1464.928</ele>
        <time>2021-07-29T19:58:54Z</time>
      </trkpt>
      <trkpt lat="40.774829" lon="-3.926268">
        <ele>1465.069</ele>
        <time>2021-07-29T19:58:56Z</time>
      </trkpt>
      <trkpt lat="40.774835" lon="-3.926240">
        <ele>1464.899</ele>
        <time>2021-07-29T19:58:58Z</time>
      </trkpt>
      <trkpt lat="40.774829" lon="-3.926215">
        <ele>1463.832</ele>
        <time>2021-07-29T19:59:00Z</time>
      </trkpt>
      <trkpt lat="40.774848" lon="-3.926208">
        <ele>1464.961</ele>
        <time>2021-07-29T19:59:02Z</time>
      </trkpt>
      <trkpt lat="40.774858" lon="-3.926182">
        <ele>1465.099</ele>
        <time>2021-07-29T19:59:04Z</time>
      </trkpt>
      <trkpt lat="40.774858" lon="-3.926154">
        <ele>1464.307</ele>
        <time>2021-07-29T19:59:06Z</time>
      </trkpt>
      <trkpt lat="40.774858" lon="-3.926122">
        <ele>1463.627</ele>
        <time>2021-07-29T19:59:08Z</time>
      </trkpt>
      <trkpt lat="40.774877" lon="-3.926105">
        <ele>1464.308</ele>
        <time>2021-07-29T19:59:13Z</time>
      </trkpt>
      <trkpt lat="40.774858" lon="-3.926102">
        <ele>1463.076</ele>
        <time>2021-07-29T20:00:01Z</time>
      </trkpt>
      <trkpt lat="40.774838" lon="-3.926095">
        <ele>1461.688</ele>
        <time>2021-07-29T20:00:05Z</time>
      </trkpt>
      <trkpt lat="40.774835" lon="-3.926125">
        <ele>1462.255</ele>
        <time>2021-07-29T20:03:18Z</time>
      </trkpt>
      <trkpt lat="40.774861" lon="-3.926092">
        <ele>1462.972</ele>
        <time>2021-07-29T20:03:20Z</time>
      </trkpt>
      <trkpt lat="40.774877" lon="-3.926075">
        <ele>1463.433</ele>
        <time>2021-07-29T20:03:21Z</time>
      </trkpt>
      <trkpt lat="40.774896" lon="-3.926060">
        <ele>1464.123</ele>
        <time>2021-07-29T20:03:22Z</time>
      </trkpt>
      <trkpt lat="40.774909" lon="-3.926038">
        <ele>1464.176</ele>
        <time>2021-07-29T20:03:23Z</time>
      </trkpt>
      <trkpt lat="40.774922" lon="-3.926018">
        <ele>1464.395</ele>
        <time>2021-07-29T20:03:24Z</time>
      </trkpt>
      <trkpt lat="40.774934" lon="-3.926000">
        <ele>1464.324</ele>
        <time>2021-07-29T20:03:25Z</time>
      </trkpt>
      <trkpt lat="40.774947" lon="-3.925968">
        <ele>1464.004</ele>
        <time>2021-07-29T20:03:28Z</time>
      </trkpt>
      <trkpt lat="40.774947" lon="-3.925940">
        <ele>1463.114</ele>
        <time>2021-07-29T20:03:31Z</time>
      </trkpt>
      <trkpt lat="40.774957" lon="-3.925905">
        <ele>1462.408</ele>
        <time>2021-07-29T20:03:35Z</time>
      </trkpt>
      <trkpt lat="40.774957" lon="-3.925863">
        <ele>1461.029</ele>
        <time>2021-07-29T20:03:37Z</time>
      </trkpt>
      <trkpt lat="40.774957" lon="-3.925828">
        <ele>1459.931</ele>
        <time>2021-07-29T20:03:40Z</time>
      </trkpt>
      <trkpt lat="40.774963" lon="-3.925798">
        <ele>1459.598</ele>
        <time>2021-07-29T20:03:43Z</time>
      </trkpt>
      <trkpt lat="40.774976" lon="-3.925755">
        <ele>1459.285</ele>
        <time>2021-07-29T20:03:45Z</time>
      </trkpt>
      <trkpt lat="40.774970" lon="-3.925712">
        <ele>1458.096</ele>
        <time>2021-07-29T20:03:47Z</time>
      </trkpt>
      <trkpt lat="40.774979" lon="-3.925686">
        <ele>1457.846</ele>
        <time>2021-07-29T20:03:48Z</time>
      </trkpt>
      <trkpt lat="40.774995" lon="-3.925664">
        <ele>1458.179</ele>
        <time>2021-07-29T20:03:49Z</time>
      </trkpt>
      <trkpt lat="40.775008" lon="-3.925644">
        <ele>1458.588</ele>
        <time>2021-07-29T20:03:50Z</time>
      </trkpt>
      <trkpt lat="40.775024" lon="-3.925602">
        <ele>1458.734</ele>
        <time>2021-07-29T20:03:52Z</time>
      </trkpt>
      <trkpt lat="40.775027" lon="-3.925575">
        <ele>1458.355</ele>
        <time>2021-07-29T20:03:53Z</time>
      </trkpt>
      <trkpt lat="40.775021" lon="-3.925547">
        <ele>1457.310</ele>
        <time>2021-07-29T20:03:54Z</time>
      </trkpt>
      <trkpt lat="40.775002" lon="-3.925522">
        <ele>1455.508</ele>
        <time>2021-07-29T20:03:56Z</time>
      </trkpt>
      <trkpt lat="40.775005" lon="-3.925558">
        <ele>1456.480</ele>
        <time>2021-07-29T20:03:59Z</time>
      </trkpt>
      <trkpt lat="40.774986" lon="-3.925548">
        <ele>1455.272</ele>
        <time>2021-07-29T20:04:02Z</time>
      </trkpt>
      <trkpt lat="40.774963" lon="-3.925518">
        <ele>1453.689</ele>
        <time>2021-07-29T20:04:04Z</time>
      </trkpt>
      <trkpt lat="40.774950" lon="-3.925486">
        <ele>1452.486</ele>
        <time>2021-07-29T20:04:06Z</time>
      </trkpt>
      <trkpt lat="40.774941" lon="-3.925455">
        <ele>1451.477</ele>
        <time>2021-07-29T20:04:09Z</time>
      </trkpt>
      <trkpt lat="40.774934" lon="-3.925428">
        <ele>1450.597</ele>
        <time>2021-07-29T20:04:11Z</time>
      </trkpt>
      <trkpt lat="40.774928" lon="-3.925395">
        <ele>1449.630</ele>
        <time>2021-07-29T20:04:13Z</time>
      </trkpt>
      <trkpt lat="40.774934" lon="-3.925365">
        <ele>1449.359</ele>
        <time>2021-07-29T20:04:15Z</time>
      </trkpt>
      <trkpt lat="40.774925" lon="-3.925342">
        <ele>1448.424</ele>
        <time>2021-07-29T20:04:17Z</time>
      </trkpt>
      <trkpt lat="40.774941" lon="-3.925325">
        <ele>1448.904</ele>
        <time>2021-07-29T20:04:19Z</time>
      </trkpt>
      <trkpt lat="40.774960" lon="-3.925318">
        <ele>1449.714</ele>
        <time>2021-07-29T20:04:21Z</time>
      </trkpt>
      <trkpt lat="40.774976" lon="-3.925307">
        <ele>1450.308</ele>
        <time>2021-07-29T20:04:26Z</time>
      </trkpt>
      <trkpt lat="40.774966" lon="-3.925284">
        <ele>1449.439</ele>
        <time>2021-07-29T20:04:29Z</time>
      </trkpt>
      <trkpt lat="40.774950" lon="-3.925257">
        <ele>1448.031</ele>
        <time>2021-07-29T20:04:32Z</time>
      </trkpt>
      <trkpt lat="40.774928" lon="-3.925238">
        <ele>1446.518</ele>
        <time>2021-07-29T20:04:34Z</time>
      </trkpt>
      <trkpt lat="40.774909" lon="-3.925228">
        <ele>1445.385</ele>
        <time>2021-07-29T20:04:36Z</time>
      </trkpt>
      <trkpt lat="40.774880" lon="-3.925243">
        <ele>1444.256</ele>
        <time>2021-07-29T20:04:38Z</time>
      </trkpt>
      <trkpt lat="40.774851" lon="-3.925238">
        <ele>1442.686</ele>
        <time>2021-07-29T20:04:40Z</time>
      </trkpt>
      <trkpt lat="40.774848" lon="-3.925203">
        <ele>1441.739</ele>
        <time>2021-07-29T20:04:42Z</time>
      </trkpt>
      <trkpt lat="40.774845" lon="-3.925175">
        <ele>1441.078</ele>
        <time>2021-07-29T20:04:43Z</time>
      </trkpt>
      <trkpt lat="40.774819" lon="-3.925178">
        <ele>1439.791</ele>
        <time>2021-07-29T20:04:47Z</time>
      </trkpt>
      <trkpt lat="40.774790" lon="-3.925177">
        <ele>1438.281</ele>
        <time>2021-07-29T20:04:51Z</time>
      </trkpt>
      <trkpt lat="40.774771" lon="-3.925185">
        <ele>1437.519</ele>
        <time>2021-07-29T20:04:54Z</time>
      </trkpt>
      <trkpt lat="40.774771" lon="-3.925158">
        <ele>1436.908</ele>
        <time>2021-07-29T20:04:58Z</time>
      </trkpt>
      <trkpt lat="40.774790" lon="-3.925133">
        <ele>1437.336</ele>
        <time>2021-07-29T20:05:01Z</time>
      </trkpt>
      <trkpt lat="40.774790" lon="-3.925103">
        <ele>1436.678</ele>
        <time>2021-07-29T20:05:05Z</time>
      </trkpt>
      <trkpt lat="40.774806" lon="-3.925083">
        <ele>1437.035</ele>
        <time>2021-07-29T20:05:08Z</time>
      </trkpt>
      <trkpt lat="40.774816" lon="-3.925060">
        <ele>1437.022</ele>
        <time>2021-07-29T20:05:10Z</time>
      </trkpt>
      <trkpt lat="40.774819" lon="-3.925030">
        <ele>1436.573</ele>
        <time>2021-07-29T20:05:13Z</time>
      </trkpt>
      <trkpt lat="40.774816" lon="-3.925003">
        <ele>1435.833</ele>
        <time>2021-07-29T20:05:16Z</time>
      </trkpt>
      <trkpt lat="40.774810" lon="-3.924980">
        <ele>1435.326</ele>
        <time>2021-07-29T20:05:19Z</time>
      </trkpt>
      <trkpt lat="40.774803" lon="-3.924957">
        <ele>1434.855</ele>
        <time>2021-07-29T20:05:21Z</time>
      </trkpt>
      <trkpt lat="40.774790" lon="-3.924938">
        <ele>1434.048</ele>
        <time>2021-07-29T20:05:23Z</time>
      </trkpt>
      <trkpt lat="40.774771" lon="-3.924910">
        <ele>1432.961</ele>
        <time>2021-07-29T20:05:25Z</time>
      </trkpt>
      <trkpt lat="40.774768" lon="-3.924877">
        <ele>1432.517</ele>
        <time>2021-07-29T20:05:26Z</time>
      </trkpt>
      <trkpt lat="40.774752" lon="-3.924845">
        <ele>1431.408</ele>
        <time>2021-07-29T20:05:27Z</time>
      </trkpt>
      <trkpt lat="40.774742" lon="-3.924808">
        <ele>1430.731</ele>
        <time>2021-07-29T20:05:31Z</time>
      </trkpt>
      <trkpt lat="40.774736" lon="-3.924780">
        <ele>1430.233</ele>
        <time>2021-07-29T20:05:34Z</time>
      </trkpt>
      <trkpt lat="40.774726" lon="-3.924755">
        <ele>1429.440</ele>
        <time>2021-07-29T20:05:36Z</time>
      </trkpt>
      <trkpt lat="40.774717" lon="-3.924728">
        <ele>1428.877</ele>
        <time>2021-07-29T20:05:38Z</time>
      </trkpt>
      <trkpt lat="40.774701" lon="-3.924712">
        <ele>1428.288</ele>
        <time>2021-07-29T20:05:41Z</time>
      </trkpt>
      <trkpt lat="40.774669" lon="-3.924693">
        <ele>1426.968</ele>
        <time>2021-07-29T20:05:45Z</time>
      </trkpt>
      <trkpt lat="40.774666" lon="-3.924668">
        <ele>1426.871</ele>
        <time>2021-07-29T20:05:47Z</time>
      </trkpt>
      <trkpt lat="40.774669" lon="-3.924642">
        <ele>1427.070</ele>
        <time>2021-07-29T20:05:49Z</time>
      </trkpt>
      <trkpt lat="40.774678" lon="-3.924607">
        <ele>1427.541</ele>
        <time>2021-07-29T20:05:54Z</time>
      </trkpt>
      <trkpt lat="40.774682" lon="-3.924580">
        <ele>1427.781</ele>
        <time>2021-07-29T20:05:59Z</time>
      </trkpt>
      <trkpt lat="40.774682" lon="-3.924550">
        <ele>1427.809</ele>
        <time>2021-07-29T20:06:02Z</time>
      </trkpt>
      <trkpt lat="40.774682" lon="-3.924523">
        <ele>1427.808</ele>
        <time>2021-07-29T20:06:04Z</time>
      </trkpt>
      <trkpt lat="40.774662" lon="-3.924492">
        <ele>1426.971</ele>
        <time>2021-07-29T20:06:09Z</time>
      </trkpt>
      <trkpt lat="40.774646" lon="-3.924480">
        <ele>1426.123</ele>
        <time>2021-07-29T20:06:11Z</time>
      </trkpt>
      <trkpt lat="40.774640" lon="-3.924453">
        <ele>1425.910</ele>
        <time>2021-07-29T20:06:15Z</time>
      </trkpt>
      <trkpt lat="40.774650" lon="-3.924430">
        <ele>1426.227</ele>
        <time>2021-07-29T20:06:19Z</time>
      </trkpt>
      <trkpt lat="40.774646" lon="-3.924398">
        <ele>1425.538</ele>
        <time>2021-07-29T20:06:25Z</time>
      </trkpt>
      <trkpt lat="40.774643" lon="-3.924363">
        <ele>1424.998</ele>
        <time>2021-07-29T20:06:28Z</time>
      </trkpt>
      <trkpt lat="40.774630" lon="-3.924327">
        <ele>1423.861</ele>
        <time>2021-07-29T20:06:32Z</time>
      </trkpt>
      <trkpt lat="40.774621" lon="-3.924302">
        <ele>1423.160</ele>
        <time>2021-07-29T20:06:34Z</time>
      </trkpt>
      <trkpt lat="40.774618" lon="-3.924267">
        <ele>1422.554</ele>
        <time>2021-07-29T20:06:36Z</time>
      </trkpt>
      <trkpt lat="40.774611" lon="-3.924230">
        <ele>1421.856</ele>
        <time>2021-07-29T20:06:38Z</time>
      </trkpt>
      <trkpt lat="40.774608" lon="-3.924200">
        <ele>1421.311</ele>
        <time>2021-07-29T20:06:41Z</time>
      </trkpt>
      <trkpt lat="40.774589" lon="-3.924165">
        <ele>1420.208</ele>
        <time>2021-07-29T20:06:44Z</time>
      </trkpt>
      <trkpt lat="40.774586" lon="-3.924140">
        <ele>1419.912</ele>
        <time>2021-07-29T20:06:45Z</time>
      </trkpt>
      <trkpt lat="40.774589" lon="-3.924115">
        <ele>1419.754</ele>
        <time>2021-07-29T20:06:46Z</time>
      </trkpt>
      <trkpt lat="40.774586" lon="-3.924080">
        <ele>1419.361</ele>
        <time>2021-07-29T20:06:48Z</time>
      </trkpt>
      <trkpt lat="40.774579" lon="-3.924040">
        <ele>1418.778</ele>
        <time>2021-07-29T20:06:50Z</time>
      </trkpt>
      <trkpt lat="40.774570" lon="-3.924017">
        <ele>1418.219</ele>
        <time>2021-07-29T20:06:51Z</time>
      </trkpt>
      <trkpt lat="40.774563" lon="-3.923992">
        <ele>1417.719</ele>
        <time>2021-07-29T20:06:53Z</time>
      </trkpt>
      <trkpt lat="40.774566" lon="-3.923950">
        <ele>1417.542</ele>
        <time>2021-07-29T20:06:57Z</time>
      </trkpt>
      <trkpt lat="40.774566" lon="-3.923918">
        <ele>1417.261</ele>
        <time>2021-07-29T20:06:59Z</time>
      </trkpt>
      <trkpt lat="40.774557" lon="-3.923882">
        <ele>1416.731</ele>
        <time>2021-07-29T20:07:02Z</time>
      </trkpt>
      <trkpt lat="40.774544" lon="-3.923860">
        <ele>1416.361</ele>
        <time>2021-07-29T20:07:03Z</time>
      </trkpt>
      <trkpt lat="40.774528" lon="-3.923837">
        <ele>1415.807</ele>
        <time>2021-07-29T20:07:04Z</time>
      </trkpt>
      <trkpt lat="40.774509" lon="-3.923795">
        <ele>1415.208</ele>
        <time>2021-07-29T20:07:06Z</time>
      </trkpt>
      <trkpt lat="40.774493" lon="-3.923782">
        <ele>1414.780</ele>
        <time>2021-07-29T20:07:08Z</time>
      </trkpt>
      <trkpt lat="40.774467" lon="-3.923750">
        <ele>1413.852</ele>
        <time>2021-07-29T20:07:10Z</time>
      </trkpt>
      <trkpt lat="40.774448" lon="-3.923716">
        <ele>1413.179</ele>
        <time>2021-07-29T20:07:12Z</time>
      </trkpt>
      <trkpt lat="40.774451" lon="-3.923677">
        <ele>1413.246</ele>
        <time>2021-07-29T20:07:14Z</time>
      </trkpt>
      <trkpt lat="40.774448" lon="-3.923650">
        <ele>1413.167</ele>
        <time>2021-07-29T20:07:15Z</time>
      </trkpt>
      <trkpt lat="40.774438" lon="-3.923628">
        <ele>1412.717</ele>
        <time>2021-07-29T20:07:16Z</time>
      </trkpt>
      <trkpt lat="40.774426" lon="-3.923602">
        <ele>1412.110</ele>
        <time>2021-07-29T20:07:17Z</time>
      </trkpt>
      <trkpt lat="40.774413" lon="-3.923585">
        <ele>1411.359</ele>
        <time>2021-07-29T20:07:18Z</time>
      </trkpt>
      <trkpt lat="40.774442" lon="-3.923570">
        <ele>1412.686</ele>
        <time>2021-07-29T20:07:22Z</time>
      </trkpt>
      <trkpt lat="40.774467" lon="-3.923566">
        <ele>1413.660</ele>
        <time>2021-07-29T20:07:24Z</time>
      </trkpt>
      <trkpt lat="40.774448" lon="-3.923554">
        <ele>1412.726</ele>
        <time>2021-07-29T20:07:28Z</time>
      </trkpt>
      <trkpt lat="40.774419" lon="-3.923552">
        <ele>1411.308</ele>
        <time>2021-07-29T20:07:30Z</time>
      </trkpt>
      <trkpt lat="40.774387" lon="-3.923560">
        <ele>1409.985</ele>
        <time>2021-07-29T20:07:32Z</time>
      </trkpt>
      <trkpt lat="40.774374" lon="-3.923542">
        <ele>1409.197</ele>
        <time>2021-07-29T20:07:36Z</time>
      </trkpt>
      <trkpt lat="40.774352" lon="-3.923530">
        <ele>1407.954</ele>
        <time>2021-07-29T20:07:38Z</time>
      </trkpt>
      <trkpt lat="40.774333" lon="-3.923520">
        <ele>1406.971</ele>
        <time>2021-07-29T20:07:40Z</time>
      </trkpt>
      <trkpt lat="40.774314" lon="-3.923502">
        <ele>1405.772</ele>
        <time>2021-07-29T20:07:43Z</time>
      </trkpt>
      <trkpt lat="40.774301" lon="-3.923468">
        <ele>1404.722</ele>
        <time>2021-07-29T20:07:45Z</time>
      </trkpt>
      <trkpt lat="40.774291" lon="-3.923443">
        <ele>1403.965</ele>
        <time>2021-07-29T20:07:47Z</time>
      </trkpt>
      <trkpt lat="40.774269" lon="-3.923435">
        <ele>1402.764</ele>
        <time>2021-07-29T20:07:51Z</time>
      </trkpt>
      <trkpt lat="40.774240" lon="-3.923420">
        <ele>1401.095</ele>
        <time>2021-07-29T20:07:53Z</time>
      </trkpt>
      <trkpt lat="40.774246" lon="-3.923393">
        <ele>1401.049</ele>
        <time>2021-07-29T20:08:01Z</time>
      </trkpt>
      <trkpt lat="40.774234" lon="-3.923348">
        <ele>1399.823</ele>
        <time>2021-07-29T20:08:08Z</time>
      </trkpt>
      <trkpt lat="40.774221" lon="-3.923322">
        <ele>1398.808</ele>
        <time>2021-07-29T20:08:16Z</time>
      </trkpt>
      <trkpt lat="40.774221" lon="-3.923297">
        <ele>1398.456</ele>
        <time>2021-07-29T20:08:19Z</time>
      </trkpt>
      <trkpt lat="40.774202" lon="-3.923268">
        <ele>1396.858</ele>
        <time>2021-07-29T20:08:21Z</time>
      </trkpt>
      <trkpt lat="40.774186" lon="-3.923257">
        <ele>1395.735</ele>
        <time>2021-07-29T20:08:23Z</time>
      </trkpt>
      <trkpt lat="40.774163" lon="-3.923257">
        <ele>1394.562</ele>
        <time>2021-07-29T20:08:28Z</time>
      </trkpt>
      <trkpt lat="40.774147" lon="-3.923230">
        <ele>1393.243</ele>
        <time>2021-07-29T20:08:42Z</time>
      </trkpt>
      <trkpt lat="40.774128" lon="-3.923226">
        <ele>1392.343</ele>
        <time>2021-07-29T20:08:46Z</time>
      </trkpt>
      <trkpt lat="40.774131" lon="-3.923192">
        <ele>1391.846</ele>
        <time>2021-07-29T20:08:54Z</time>
      </trkpt>
      <trkpt lat="40.774141" lon="-3.923165">
        <ele>1391.815</ele>
        <time>2021-07-29T20:08:56Z</time>
      </trkpt>
      <trkpt lat="40.774150" lon="-3.923138">
        <ele>1391.765</ele>
        <time>2021-07-29T20:08:59Z</time>
      </trkpt>
      <trkpt lat="40.774150" lon="-3.923112">
        <ele>1391.268</ele>
        <time>2021-07-29T20:09:01Z</time>
      </trkpt>
      <trkpt lat="40.774160" lon="-3.923087">
        <ele>1391.314</ele>
        <time>2021-07-29T20:09:03Z</time>
      </trkpt>
      <trkpt lat="40.774170" lon="-3.923055">
        <ele>1391.208</ele>
        <time>2021-07-29T20:09:07Z</time>
      </trkpt>
      <trkpt lat="40.774176" lon="-3.923026">
        <ele>1391.483</ele>
        <time>2021-07-29T20:09:10Z</time>
      </trkpt>
      <trkpt lat="40.774173" lon="-3.923000">
        <ele>1391.045</ele>
        <time>2021-07-29T20:09:13Z</time>
      </trkpt>
      <trkpt lat="40.774154" lon="-3.922984">
        <ele>1389.852</ele>
        <time>2021-07-29T20:09:16Z</time>
      </trkpt>
      <trkpt lat="40.774150" lon="-3.922958">
        <ele>1389.459</ele>
        <time>2021-07-29T20:09:19Z</time>
      </trkpt>
      <trkpt lat="40.774147" lon="-3.922927">
        <ele>1389.080</ele>
        <time>2021-07-29T20:09:22Z</time>
      </trkpt>
      <trkpt lat="40.774147" lon="-3.922893">
        <ele>1388.740</ele>
        <time>2021-07-29T20:09:25Z</time>
      </trkpt>
      <trkpt lat="40.774141" lon="-3.922862">
        <ele>1388.193</ele>
        <time>2021-07-29T20:09:28Z</time>
      </trkpt>
      <trkpt lat="40.774134" lon="-3.922825">
        <ele>1387.492</ele>
        <time>2021-07-29T20:09:32Z</time>
      </trkpt>
      <trkpt lat="40.774141" lon="-3.922798">
        <ele>1387.618</ele>
        <time>2021-07-29T20:09:34Z</time>
      </trkpt>
      <trkpt lat="40.774144" lon="-3.922768">
        <ele>1387.598</ele>
        <time>2021-07-29T20:09:37Z</time>
      </trkpt>
      <trkpt lat="40.774141" lon="-3.922745">
        <ele>1387.017</ele>
        <time>2021-07-29T20:09:39Z</time>
      </trkpt>
      <trkpt lat="40.774125" lon="-3.922717">
        <ele>1385.608</ele>
        <time>2021-07-29T20:09:41Z</time>
      </trkpt>
      <trkpt lat="40.774122" lon="-3.922688">
        <ele>1385.038</ele>
        <time>2021-07-29T20:09:44Z</time>
      </trkpt>
      <trkpt lat="40.774125" lon="-3.922658">
        <ele>1384.750</ele>
        <time>2021-07-29T20:09:48Z</time>
      </trkpt>
      <trkpt lat="40.774115" lon="-3.922623">
        <ele>1383.647</ele>
        <time>2021-07-29T20:09:51Z</time>
      </trkpt>
      <trkpt lat="40.774106" lon="-3.922592">
        <ele>1382.624</ele>
        <time>2021-07-29T20:09:54Z</time>
      </trkpt>
      <trkpt lat="40.774106" lon="-3.922567">
        <ele>1382.315</ele>
        <time>2021-07-29T20:09:56Z</time>
      </trkpt>
      <trkpt lat="40.774102" lon="-3.922543">
        <ele>1381.755</ele>
        <time>2021-07-29T20:09:58Z</time>
      </trkpt>
      <trkpt lat="40.774106" lon="-3.922518">
        <ele>1381.528</ele>
        <time>2021-07-29T20:10:01Z</time>
      </trkpt>
      <trkpt lat="40.774106" lon="-3.922488">
        <ele>1381.227</ele>
        <time>2021-07-29T20:10:03Z</time>
      </trkpt>
      <trkpt lat="40.774106" lon="-3.922464">
        <ele>1380.956</ele>
        <time>2021-07-29T20:10:05Z</time>
      </trkpt>
      <trkpt lat="40.774112" lon="-3.922435">
        <ele>1381.059</ele>
        <time>2021-07-29T20:10:21Z</time>
      </trkpt>
      <trkpt lat="40.774109" lon="-3.922410">
        <ele>1380.514</ele>
        <time>2021-07-29T20:10:23Z</time>
      </trkpt>
      <trkpt lat="40.774109" lon="-3.922375">
        <ele>1380.108</ele>
        <time>2021-07-29T20:10:26Z</time>
      </trkpt>
      <trkpt lat="40.774109" lon="-3.922346">
        <ele>1379.842</ele>
        <time>2021-07-29T20:10:28Z</time>
      </trkpt>
      <trkpt lat="40.774106" lon="-3.922308">
        <ele>1379.294</ele>
        <time>2021-07-29T20:10:31Z</time>
      </trkpt>
      <trkpt lat="40.774102" lon="-3.922280">
        <ele>1378.771</ele>
        <time>2021-07-29T20:10:33Z</time>
      </trkpt>
      <trkpt lat="40.774102" lon="-3.922250">
        <ele>1378.388</ele>
        <time>2021-07-29T20:10:35Z</time>
      </trkpt>
      <trkpt lat="40.774106" lon="-3.922222">
        <ele>1378.359</ele>
        <time>2021-07-29T20:10:37Z</time>
      </trkpt>
      <trkpt lat="40.774093" lon="-3.922190">
        <ele>1377.269</ele>
        <time>2021-07-29T20:10:40Z</time>
      </trkpt>
      <trkpt lat="40.774086" lon="-3.922158">
        <ele>1376.572</ele>
        <time>2021-07-29T20:10:42Z</time>
      </trkpt>
      <trkpt lat="40.774096" lon="-3.922127">
        <ele>1376.841</ele>
        <time>2021-07-29T20:10:45Z</time>
      </trkpt>
      <trkpt lat="40.774093" lon="-3.922102">
        <ele>1376.436</ele>
        <time>2021-07-29T20:10:47Z</time>
      </trkpt>
      <trkpt lat="40.774086" lon="-3.922068">
        <ele>1375.617</ele>
        <time>2021-07-29T20:10:50Z</time>
      </trkpt>
      <trkpt lat="40.774077" lon="-3.922035">
        <ele>1374.718</ele>
        <time>2021-07-29T20:10:53Z</time>
      </trkpt>
      <trkpt lat="40.774083" lon="-3.922008">
        <ele>1374.908</ele>
        <time>2021-07-29T20:10:55Z</time>
      </trkpt>
      <trkpt lat="40.774077" lon="-3.921985">
        <ele>1374.330</ele>
        <time>2021-07-29T20:10:57Z</time>
      </trkpt>
      <trkpt lat="40.774077" lon="-3.921953">
        <ele>1373.932</ele>
        <time>2021-07-29T20:11:00Z</time>
      </trkpt>
      <trkpt lat="40.774074" lon="-3.921928">
        <ele>1373.469</ele>
        <time>2021-07-29T20:11:02Z</time>
      </trkpt>
      <trkpt lat="40.774077" lon="-3.921893">
        <ele>1373.156</ele>
        <time>2021-07-29T20:11:05Z</time>
      </trkpt>
      <trkpt lat="40.774086" lon="-3.921868">
        <ele>1373.417</ele>
        <time>2021-07-29T20:11:08Z</time>
      </trkpt>
      <trkpt lat="40.774083" lon="-3.921838">
        <ele>1372.727</ele>
        <time>2021-07-29T20:11:11Z</time>
      </trkpt>
      <trkpt lat="40.774086" lon="-3.921813">
        <ele>1372.640</ele>
        <time>2021-07-29T20:11:13Z</time>
      </trkpt>
      <trkpt lat="40.774090" lon="-3.921787">
        <ele>1372.599</ele>
        <time>2021-07-29T20:11:15Z</time>
      </trkpt>
      <trkpt lat="40.774090" lon="-3.921762">
        <ele>1372.177</ele>
        <time>2021-07-29T20:11:18Z</time>
      </trkpt>
      <trkpt lat="40.774074" lon="-3.921738">
        <ele>1370.761</ele>
        <time>2021-07-29T20:11:20Z</time>
      </trkpt>
      <trkpt lat="40.774054" lon="-3.921688">
        <ele>1368.627</ele>
        <time>2021-07-29T20:11:26Z</time>
      </trkpt>
      <trkpt lat="40.774064" lon="-3.921665">
        <ele>1369.008</ele>
        <time>2021-07-29T20:11:27Z</time>
      </trkpt>
      <trkpt lat="40.774064" lon="-3.921623">
        <ele>1368.414</ele>
        <time>2021-07-29T20:11:29Z</time>
      </trkpt>
      <trkpt lat="40.774064" lon="-3.921596">
        <ele>1368.066</ele>
        <time>2021-07-29T20:11:31Z</time>
      </trkpt>
      <trkpt lat="40.774074" lon="-3.921570">
        <ele>1368.483</ele>
        <time>2021-07-29T20:11:35Z</time>
      </trkpt>
      <trkpt lat="40.774077" lon="-3.921540">
        <ele>1368.280</ele>
        <time>2021-07-29T20:11:37Z</time>
      </trkpt>
      <trkpt lat="40.774074" lon="-3.921510">
        <ele>1367.681</ele>
        <time>2021-07-29T20:11:40Z</time>
      </trkpt>
      <trkpt lat="40.774067" lon="-3.921482">
        <ele>1366.751</ele>
        <time>2021-07-29T20:11:44Z</time>
      </trkpt>
      <trkpt lat="40.774064" lon="-3.921452">
        <ele>1366.184</ele>
        <time>2021-07-29T20:11:47Z</time>
      </trkpt>
      <trkpt lat="40.774061" lon="-3.921424">
        <ele>1365.593</ele>
        <time>2021-07-29T20:11:49Z</time>
      </trkpt>
      <trkpt lat="40.774054" lon="-3.921398">
        <ele>1364.699</ele>
        <time>2021-07-29T20:11:51Z</time>
      </trkpt>
      <trkpt lat="40.774051" lon="-3.921368">
        <ele>1364.007</ele>
        <time>2021-07-29T20:11:55Z</time>
      </trkpt>
      <trkpt lat="40.774048" lon="-3.921345">
        <ele>1363.427</ele>
        <time>2021-07-29T20:11:57Z</time>
      </trkpt>
      <trkpt lat="40.774051" lon="-3.921315">
        <ele>1363.208</ele>
        <time>2021-07-29T20:12:00Z</time>
      </trkpt>
      <trkpt lat="40.774054" lon="-3.921290">
        <ele>1363.146</ele>
        <time>2021-07-29T20:12:02Z</time>
      </trkpt>
      <trkpt lat="40.774067" lon="-3.921263">
        <ele>1363.768</ele>
        <time>2021-07-29T20:12:04Z</time>
      </trkpt>
      <trkpt lat="40.774083" lon="-3.921227">
        <ele>1364.365</ele>
        <time>2021-07-29T20:12:07Z</time>
      </trkpt>
      <trkpt lat="40.774083" lon="-3.921193">
        <ele>1363.992</ele>
        <time>2021-07-29T20:12:09Z</time>
      </trkpt>
      <trkpt lat="40.774074" lon="-3.921165">
        <ele>1362.883</ele>
        <time>2021-07-29T20:12:11Z</time>
      </trkpt>
      <trkpt lat="40.774064" lon="-3.921137">
        <ele>1361.613</ele>
        <time>2021-07-29T20:12:13Z</time>
      </trkpt>
      <trkpt lat="40.774067" lon="-3.921102">
        <ele>1361.546</ele>
        <time>2021-07-29T20:12:16Z</time>
      </trkpt>
      <trkpt lat="40.774048" lon="-3.921072">
        <ele>1360.445</ele>
        <time>2021-07-29T20:12:18Z</time>
      </trkpt>
      <trkpt lat="40.774032" lon="-3.921048">
        <ele>1359.545</ele>
        <time>2021-07-29T20:12:20Z</time>
      </trkpt>
      <trkpt lat="40.774013" lon="-3.921030">
        <ele>1358.347</ele>
        <time>2021-07-29T20:12:22Z</time>
      </trkpt>
      <trkpt lat="40.774013" lon="-3.921003">
        <ele>1358.611</ele>
        <time>2021-07-29T20:12:24Z</time>
      </trkpt>
      <trkpt lat="40.773994" lon="-3.920993">
        <ele>1357.408</ele>
        <time>2021-07-29T20:12:27Z</time>
      </trkpt>
      <trkpt lat="40.773974" lon="-3.920980">
        <ele>1356.231</ele>
        <time>2021-07-29T20:12:31Z</time>
      </trkpt>
      <trkpt lat="40.773955" lon="-3.920957">
        <ele>1355.253</ele>
        <time>2021-07-29T20:12:34Z</time>
      </trkpt>
      <trkpt lat="40.773942" lon="-3.920936">
        <ele>1354.750</ele>
        <time>2021-07-29T20:12:36Z</time>
      </trkpt>
      <trkpt lat="40.773926" lon="-3.920913">
        <ele>1354.097</ele>
        <time>2021-07-29T20:12:38Z</time>
      </trkpt>
      <trkpt lat="40.773914" lon="-3.920892">
        <ele>1353.638</ele>
        <time>2021-07-29T20:12:40Z</time>
      </trkpt>
      <trkpt lat="40.773898" lon="-3.920862">
        <ele>1353.178</ele>
        <time>2021-07-29T20:12:43Z</time>
      </trkpt>
      <trkpt lat="40.773882" lon="-3.920850">
        <ele>1352.331</ele>
        <time>2021-07-29T20:12:47Z</time>
      </trkpt>
      <trkpt lat="40.773869" lon="-3.920828">
        <ele>1352.070</ele>
        <time>2021-07-29T20:12:49Z</time>
      </trkpt>
      <trkpt lat="40.773862" lon="-3.920798">
        <ele>1352.333</ele>
        <time>2021-07-29T20:12:51Z</time>
      </trkpt>
      <trkpt lat="40.773853" lon="-3.920758">
        <ele>1352.623</ele>
        <time>2021-07-29T20:12:53Z</time>
      </trkpt>
      <trkpt lat="40.773850" lon="-3.920734">
        <ele>1352.915</ele>
        <time>2021-07-29T20:12:55Z</time>
      </trkpt>
      <trkpt lat="40.773846" lon="-3.920710">
        <ele>1353.108</ele>
        <time>2021-07-29T20:12:56Z</time>
      </trkpt>
      <trkpt lat="40.773834" lon="-3.920675">
        <ele>1353.120</ele>
        <time>2021-07-29T20:12:58Z</time>
      </trkpt>
      <trkpt lat="40.773843" lon="-3.920653">
        <ele>1354.132</ele>
        <time>2021-07-29T20:13:00Z</time>
      </trkpt>
      <trkpt lat="40.773827" lon="-3.920637">
        <ele>1353.479</ele>
        <time>2021-07-29T20:13:03Z</time>
      </trkpt>
      <trkpt lat="40.773824" lon="-3.920612">
        <ele>1353.756</ele>
        <time>2021-07-29T20:13:05Z</time>
      </trkpt>
      <trkpt lat="40.773811" lon="-3.920585">
        <ele>1353.477</ele>
        <time>2021-07-29T20:13:07Z</time>
      </trkpt>
      <trkpt lat="40.773795" lon="-3.920566">
        <ele>1352.727</ele>
        <time>2021-07-29T20:13:11Z</time>
      </trkpt>
      <trkpt lat="40.773782" lon="-3.920535">
        <ele>1352.070</ele>
        <time>2021-07-29T20:13:14Z</time>
      </trkpt>
      <trkpt lat="40.773770" lon="-3.920505">
        <ele>1351.229</ele>
        <time>2021-07-29T20:13:17Z</time>
      </trkpt>
      <trkpt lat="40.773763" lon="-3.920473">
        <ele>1350.755</ele>
        <time>2021-07-29T20:13:21Z</time>
      </trkpt>
      <trkpt lat="40.773754" lon="-3.920448">
        <ele>1350.107</ele>
        <time>2021-07-29T20:13:23Z</time>
      </trkpt>
      <trkpt lat="40.773738" lon="-3.920427">
        <ele>1349.017</ele>
        <time>2021-07-29T20:13:27Z</time>
      </trkpt>
      <trkpt lat="40.773718" lon="-3.920404">
        <ele>1347.708</ele>
        <time>2021-07-29T20:13:30Z</time>
      </trkpt>
      <trkpt lat="40.773706" lon="-3.920377">
        <ele>1346.912</ele>
        <time>2021-07-29T20:13:33Z</time>
      </trkpt>
      <trkpt lat="40.773690" lon="-3.920360">
        <ele>1345.924</ele>
        <time>2021-07-29T20:13:36Z</time>
      </trkpt>
      <trkpt lat="40.773677" lon="-3.920335">
        <ele>1345.131</ele>
        <time>2021-07-29T20:13:39Z</time>
      </trkpt>
      <trkpt lat="40.773667" lon="-3.920308">
        <ele>1344.448</ele>
        <time>2021-07-29T20:13:43Z</time>
      </trkpt>
      <trkpt lat="40.773667" lon="-3.920275">
        <ele>1344.479</ele>
        <time>2021-07-29T20:13:46Z</time>
      </trkpt>
      <trkpt lat="40.773664" lon="-3.920250">
        <ele>1344.339</ele>
        <time>2021-07-29T20:13:48Z</time>
      </trkpt>
      <trkpt lat="40.773648" lon="-3.920236">
        <ele>1343.422</ele>
        <time>2021-07-29T20:13:50Z</time>
      </trkpt>
      <trkpt lat="40.773635" lon="-3.920257">
        <ele>1342.541</ele>
        <time>2021-07-29T20:13:52Z</time>
      </trkpt>
      <trkpt lat="40.773629" lon="-3.920283">
        <ele>1342.112</ele>
        <time>2021-07-29T20:13:54Z</time>
      </trkpt>
      <trkpt lat="40.773626" lon="-3.920308">
        <ele>1341.932</ele>
        <time>2021-07-29T20:13:56Z</time>
      </trkpt>
      <trkpt lat="40.773616" lon="-3.920332">
        <ele>1341.305</ele>
        <time>2021-07-29T20:13:58Z</time>
      </trkpt>
      <trkpt lat="40.773600" lon="-3.920350">
        <ele>1340.308</ele>
        <time>2021-07-29T20:14:00Z</time>
      </trkpt>
      <trkpt lat="40.773587" lon="-3.920374">
        <ele>1339.568</ele>
        <time>2021-07-29T20:14:03Z</time>
      </trkpt>
      <trkpt lat="40.773574" lon="-3.920404">
        <ele>1338.610</ele>
        <time>2021-07-29T20:14:06Z</time>
      </trkpt>
      <trkpt lat="40.773565" lon="-3.920428">
        <ele>1338.097</ele>
        <time>2021-07-29T20:14:08Z</time>
      </trkpt>
      <trkpt lat="40.773558" lon="-3.920452">
        <ele>1337.564</ele>
        <time>2021-07-29T20:14:10Z</time>
      </trkpt>
      <trkpt lat="40.773549" lon="-3.920480">
        <ele>1336.995</ele>
        <time>2021-07-29T20:14:13Z</time>
      </trkpt>
      <trkpt lat="40.773536" lon="-3.920497">
        <ele>1336.085</ele>
        <time>2021-07-29T20:14:15Z</time>
      </trkpt>
      <trkpt lat="40.773526" lon="-3.920522">
        <ele>1335.318</ele>
        <time>2021-07-29T20:14:18Z</time>
      </trkpt>
      <trkpt lat="40.773517" lon="-3.920548">
        <ele>1334.697</ele>
        <time>2021-07-29T20:14:20Z</time>
      </trkpt>
      <trkpt lat="40.773507" lon="-3.920572">
        <ele>1333.734</ele>
        <time>2021-07-29T20:14:23Z</time>
      </trkpt>
      <trkpt lat="40.773491" lon="-3.920548">
        <ele>1332.855</ele>
        <time>2021-07-29T20:14:26Z</time>
      </trkpt>
      <trkpt lat="40.773494" lon="-3.920508">
        <ele>1333.110</ele>
        <time>2021-07-29T20:14:30Z</time>
      </trkpt>
      <trkpt lat="40.773494" lon="-3.920480">
        <ele>1333.208</ele>
        <time>2021-07-29T20:14:32Z</time>
      </trkpt>
      <trkpt lat="40.773498" lon="-3.920455">
        <ele>1333.690</ele>
        <time>2021-07-29T20:14:34Z</time>
      </trkpt>
      <trkpt lat="40.773494" lon="-3.920422">
        <ele>1333.442</ele>
        <time>2021-07-29T20:14:36Z</time>
      </trkpt>
      <trkpt lat="40.773485" lon="-3.920392">
        <ele>1332.959</ele>
        <time>2021-07-29T20:14:38Z</time>
      </trkpt>
      <trkpt lat="40.773459" lon="-3.920375">
        <ele>1331.316</ele>
        <time>2021-07-29T20:14:41Z</time>
      </trkpt>
      <trkpt lat="40.773450" lon="-3.920347">
        <ele>1330.937</ele>
        <time>2021-07-29T20:14:46Z</time>
      </trkpt>
      <trkpt lat="40.773430" lon="-3.920310">
        <ele>1329.867</ele>
        <time>2021-07-29T20:14:49Z</time>
      </trkpt>
      <trkpt lat="40.773421" lon="-3.920273">
        <ele>1329.410</ele>
        <time>2021-07-29T20:14:51Z</time>
      </trkpt>
      <trkpt lat="40.773414" lon="-3.920245">
        <ele>1329.169</ele>
        <time>2021-07-29T20:14:54Z</time>
      </trkpt>
      <trkpt lat="40.773402" lon="-3.920226">
        <ele>1328.552</ele>
        <time>2021-07-29T20:14:56Z</time>
      </trkpt>
      <trkpt lat="40.773389" lon="-3.920202">
        <ele>1327.953</ele>
        <time>2021-07-29T20:15:04Z</time>
      </trkpt>
      <trkpt lat="40.773379" lon="-3.920175">
        <ele>1327.508</ele>
        <time>2021-07-29T20:15:06Z</time>
      </trkpt>
      <trkpt lat="40.773389" lon="-3.920148">
        <ele>1328.208</ele>
        <time>2021-07-29T20:15:08Z</time>
      </trkpt>
      <trkpt lat="40.773386" lon="-3.920123">
        <ele>1328.242</ele>
        <time>2021-07-29T20:15:10Z</time>
      </trkpt>
      <trkpt lat="40.773370" lon="-3.920102">
        <ele>1327.434</ele>
        <time>2021-07-29T20:15:14Z</time>
      </trkpt>
      <trkpt lat="40.773350" lon="-3.920127">
        <ele>1326.111</ele>
        <time>2021-07-29T20:15:17Z</time>
      </trkpt>
      <trkpt lat="40.773341" lon="-3.920163">
        <ele>1325.378</ele>
        <time>2021-07-29T20:15:19Z</time>
      </trkpt>
      <trkpt lat="40.773334" lon="-3.920198">
        <ele>1324.689</ele>
        <time>2021-07-29T20:15:20Z</time>
      </trkpt>
      <trkpt lat="40.773328" lon="-3.920223">
        <ele>1324.159</ele>
        <time>2021-07-29T20:15:21Z</time>
      </trkpt>
      <trkpt lat="40.773312" lon="-3.920255">
        <ele>1323.192</ele>
        <time>2021-07-29T20:15:23Z</time>
      </trkpt>
      <trkpt lat="40.773296" lon="-3.920282">
        <ele>1322.221</ele>
        <time>2021-07-29T20:15:25Z</time>
      </trkpt>
      <trkpt lat="40.773293" lon="-3.920312">
        <ele>1321.981</ele>
        <time>2021-07-29T20:15:27Z</time>
      </trkpt>
      <trkpt lat="40.773280" lon="-3.920332">
        <ele>1321.261</ele>
        <time>2021-07-29T20:15:29Z</time>
      </trkpt>
      <trkpt lat="40.773267" lon="-3.920348">
        <ele>1320.517</ele>
        <time>2021-07-29T20:15:31Z</time>
      </trkpt>
      <trkpt lat="40.773248" lon="-3.920337">
        <ele>1319.608</ele>
        <time>2021-07-29T20:15:33Z</time>
      </trkpt>
      <trkpt lat="40.773232" lon="-3.920350">
        <ele>1318.895</ele>
        <time>2021-07-29T20:15:37Z</time>
      </trkpt>
      <trkpt lat="40.773232" lon="-3.920325">
        <ele>1319.027</ele>
        <time>2021-07-29T20:15:40Z</time>
      </trkpt>
      <trkpt lat="40.773222" lon="-3.920302">
        <ele>1318.774</ele>
        <time>2021-07-29T20:15:42Z</time>
      </trkpt>
      <trkpt lat="40.773210" lon="-3.920277">
        <ele>1318.281</ele>
        <time>2021-07-29T20:15:44Z</time>
      </trkpt>
      <trkpt lat="40.773194" lon="-3.920253">
        <ele>1317.522</ele>
        <time>2021-07-29T20:15:46Z</time>
      </trkpt>
      <trkpt lat="40.773178" lon="-3.920226">
        <ele>1316.862</ele>
        <time>2021-07-29T20:15:48Z</time>
      </trkpt>
      <trkpt lat="40.773171" lon="-3.920202">
        <ele>1316.595</ele>
        <time>2021-07-29T20:15:50Z</time>
      </trkpt>
      <trkpt lat="40.773168" lon="-3.920175">
        <ele>1316.314</ele>
        <time>2021-07-29T20:15:52Z</time>
      </trkpt>
      <trkpt lat="40.773174" lon="-3.920140">
        <ele>1316.743</ele>
        <time>2021-07-29T20:15:55Z</time>
      </trkpt>
      <trkpt lat="40.773174" lon="-3.920110">
        <ele>1316.764</ele>
        <time>2021-07-29T20:15:57Z</time>
      </trkpt>
      <trkpt lat="40.773174" lon="-3.920077">
        <ele>1316.710</ele>
        <time>2021-07-29T20:16:00Z</time>
      </trkpt>
      <trkpt lat="40.773174" lon="-3.920045">
        <ele>1316.808</ele>
        <time>2021-07-29T20:16:02Z</time>
      </trkpt>
      <trkpt lat="40.773171" lon="-3.920020">
        <ele>1316.651</ele>
        <time>2021-07-29T20:16:04Z</time>
      </trkpt>
      <trkpt lat="40.773174" lon="-3.919994">
        <ele>1316.833</ele>
        <time>2021-07-29T20:16:08Z</time>
      </trkpt>
      <trkpt lat="40.773174" lon="-3.919967">
        <ele>1316.940</ele>
        <time>2021-07-29T20:16:15Z</time>
      </trkpt>
      <trkpt lat="40.773162" lon="-3.919918">
        <ele>1316.497</ele>
        <time>2021-07-29T20:16:18Z</time>
      </trkpt>
      <trkpt lat="40.773152" lon="-3.919892">
        <ele>1315.898</ele>
        <time>2021-07-29T20:16:21Z</time>
      </trkpt>
      <trkpt lat="40.773139" lon="-3.919865">
        <ele>1315.158</ele>
        <time>2021-07-29T20:16:23Z</time>
      </trkpt>
      <trkpt lat="40.773136" lon="-3.919836">
        <ele>1315.011</ele>
        <time>2021-07-29T20:16:28Z</time>
      </trkpt>
      <trkpt lat="40.773139" lon="-3.919805">
        <ele>1315.280</ele>
        <time>2021-07-29T20:16:30Z</time>
      </trkpt>
      <trkpt lat="40.773130" lon="-3.919782">
        <ele>1314.742</ele>
        <time>2021-07-29T20:16:32Z</time>
      </trkpt>
      <trkpt lat="40.773139" lon="-3.919760">
        <ele>1315.322</ele>
        <time>2021-07-29T20:16:35Z</time>
      </trkpt>
      <trkpt lat="40.773139" lon="-3.919733">
        <ele>1315.414</ele>
        <time>2021-07-29T20:16:39Z</time>
      </trkpt>
      <trkpt lat="40.773130" lon="-3.919712">
        <ele>1314.808</ele>
        <time>2021-07-29T20:16:41Z</time>
      </trkpt>
      <trkpt lat="40.773117" lon="-3.919692">
        <ele>1314.071</ele>
        <time>2021-07-29T20:16:43Z</time>
      </trkpt>
      <trkpt lat="40.773098" lon="-3.919705">
        <ele>1312.813</ele>
        <time>2021-07-29T20:16:45Z</time>
      </trkpt>
      <trkpt lat="40.773088" lon="-3.919728">
        <ele>1312.130</ele>
        <time>2021-07-29T20:16:47Z</time>
      </trkpt>
      <trkpt lat="40.773072" lon="-3.919713">
        <ele>1311.117</ele>
        <time>2021-07-29T20:16:52Z</time>
      </trkpt>
      <trkpt lat="40.773075" lon="-3.919688">
        <ele>1311.398</ele>
        <time>2021-07-29T20:16:55Z</time>
      </trkpt>
      <trkpt lat="40.773075" lon="-3.919664">
        <ele>1311.318</ele>
        <time>2021-07-29T20:16:58Z</time>
      </trkpt>
      <trkpt lat="40.773069" lon="-3.919630">
        <ele>1310.921</ele>
        <time>2021-07-29T20:17:01Z</time>
      </trkpt>
      <trkpt lat="40.773059" lon="-3.919603">
        <ele>1310.290</ele>
        <time>2021-07-29T20:17:06Z</time>
      </trkpt>
      <trkpt lat="40.773043" lon="-3.919633">
        <ele>1309.175</ele>
        <time>2021-07-29T20:17:09Z</time>
      </trkpt>
      <trkpt lat="40.773021" lon="-3.919667">
        <ele>1307.528</ele>
        <time>2021-07-29T20:17:11Z</time>
      </trkpt>
      <trkpt lat="40.773008" lon="-3.919702">
        <ele>1306.620</ele>
        <time>2021-07-29T20:17:13Z</time>
      </trkpt>
      <trkpt lat="40.772995" lon="-3.919718">
        <ele>1305.608</ele>
        <time>2021-07-29T20:17:15Z</time>
      </trkpt>
      <trkpt lat="40.772992" lon="-3.919695">
        <ele>1305.414</ele>
        <time>2021-07-29T20:17:20Z</time>
      </trkpt>
      <trkpt lat="40.772982" lon="-3.919668">
        <ele>1304.716</ele>
        <time>2021-07-29T20:17:34Z</time>
      </trkpt>
      <trkpt lat="40.772989" lon="-3.919633">
        <ele>1305.183</ele>
        <time>2021-07-29T20:17:36Z</time>
      </trkpt>
      <trkpt lat="40.772995" lon="-3.919592">
        <ele>1305.580</ele>
        <time>2021-07-29T20:17:38Z</time>
      </trkpt>
      <trkpt lat="40.772998" lon="-3.919567">
        <ele>1305.781</ele>
        <time>2021-07-29T20:17:39Z</time>
      </trkpt>
      <trkpt lat="40.773002" lon="-3.919543">
        <ele>1306.031</ele>
        <time>2021-07-29T20:17:40Z</time>
      </trkpt>
      <trkpt lat="40.773014" lon="-3.919502">
        <ele>1306.934</ele>
        <time>2021-07-29T20:17:42Z</time>
      </trkpt>
      <trkpt lat="40.773014" lon="-3.919465">
        <ele>1306.963</ele>
        <time>2021-07-29T20:17:44Z</time>
      </trkpt>
      <trkpt lat="40.773014" lon="-3.919422">
        <ele>1306.654</ele>
        <time>2021-07-29T20:17:46Z</time>
      </trkpt>
      <trkpt lat="40.773021" lon="-3.919390">
        <ele>1306.856</ele>
        <time>2021-07-29T20:17:48Z</time>
      </trkpt>
      <trkpt lat="40.773021" lon="-3.919365">
        <ele>1306.511</ele>
        <time>2021-07-29T20:17:50Z</time>
      </trkpt>
      <trkpt lat="40.773030" lon="-3.919332">
        <ele>1306.908</ele>
        <time>2021-07-29T20:17:52Z</time>
      </trkpt>
      <trkpt lat="40.773018" lon="-3.919294">
        <ele>1305.582</ele>
        <time>2021-07-29T20:17:55Z</time>
      </trkpt>
      <trkpt lat="40.773021" lon="-3.919260">
        <ele>1305.474</ele>
        <time>2021-07-29T20:17:57Z</time>
      </trkpt>
      <trkpt lat="40.773018" lon="-3.919232">
        <ele>1304.921</ele>
        <time>2021-07-29T20:17:59Z</time>
      </trkpt>
      <trkpt lat="40.773008" lon="-3.919203">
        <ele>1303.848</ele>
        <time>2021-07-29T20:18:04Z</time>
      </trkpt>
      <trkpt lat="40.772995" lon="-3.919183">
        <ele>1302.629</ele>
        <time>2021-07-29T20:18:07Z</time>
      </trkpt>
      <trkpt lat="40.772995" lon="-3.919156">
        <ele>1302.379</ele>
        <time>2021-07-29T20:18:12Z</time>
      </trkpt>
      <trkpt lat="40.772995" lon="-3.919127">
        <ele>1301.992</ele>
        <time>2021-07-29T20:18:15Z</time>
      </trkpt>
      <trkpt lat="40.772992" lon="-3.919100">
        <ele>1301.261</ele>
        <time>2021-07-29T20:18:18Z</time>
      </trkpt>
      <trkpt lat="40.772989" lon="-3.919073">
        <ele>1300.692</ele>
        <time>2021-07-29T20:18:21Z</time>
      </trkpt>
      <trkpt lat="40.772963" lon="-3.919068">
        <ele>1298.673</ele>
        <time>2021-07-29T20:18:23Z</time>
      </trkpt>
      <trkpt lat="40.772960" lon="-3.919040">
        <ele>1298.020</ele>
        <time>2021-07-29T20:18:29Z</time>
      </trkpt>
      <trkpt lat="40.772938" lon="-3.918994">
        <ele>1295.608</ele>
        <time>2021-07-29T20:18:43Z</time>
      </trkpt>
      <trkpt lat="40.772918" lon="-3.918972">
        <ele>1293.826</ele>
        <time>2021-07-29T20:18:45Z</time>
      </trkpt>
      <trkpt lat="40.772918" lon="-3.918944">
        <ele>1293.438</ele>
        <time>2021-07-29T20:18:47Z</time>
      </trkpt>
      <trkpt lat="40.772912" lon="-3.918912">
        <ele>1292.565</ele>
        <time>2021-07-29T20:18:50Z</time>
      </trkpt>
      <trkpt lat="40.772909" lon="-3.918878">
        <ele>1291.852</ele>
        <time>2021-07-29T20:18:53Z</time>
      </trkpt>
      <trkpt lat="40.772915" lon="-3.918845">
        <ele>1291.743</ele>
        <time>2021-07-29T20:18:56Z</time>
      </trkpt>
      <trkpt lat="40.772915" lon="-3.918816">
        <ele>1291.393</ele>
        <time>2021-07-29T20:18:59Z</time>
      </trkpt>
      <trkpt lat="40.772899" lon="-3.918783">
        <ele>1289.726</ele>
        <time>2021-07-29T20:19:03Z</time>
      </trkpt>
      <trkpt lat="40.772890" lon="-3.918762">
        <ele>1288.795</ele>
        <time>2021-07-29T20:19:05Z</time>
      </trkpt>
      <trkpt lat="40.772864" lon="-3.918750">
        <ele>1286.753</ele>
        <time>2021-07-29T20:19:07Z</time>
      </trkpt>
      <trkpt lat="40.772845" lon="-3.918743">
        <ele>1285.304</ele>
        <time>2021-07-29T20:19:09Z</time>
      </trkpt>
      <trkpt lat="40.772822" lon="-3.918748">
        <ele>1283.714</ele>
        <time>2021-07-29T20:19:11Z</time>
      </trkpt>
      <trkpt lat="40.772803" lon="-3.918757">
        <ele>1282.408</ele>
        <time>2021-07-29T20:19:17Z</time>
      </trkpt>
      <trkpt lat="40.772794" lon="-3.918783">
        <ele>1282.042</ele>
        <time>2021-07-29T20:19:20Z</time>
      </trkpt>
      <trkpt lat="40.772774" lon="-3.918800">
        <ele>1281.114</ele>
        <time>2021-07-29T20:19:24Z</time>
      </trkpt>
      <trkpt lat="40.772758" lon="-3.918816">
        <ele>1281.881</ele>
        <time>2021-07-29T20:19:27Z</time>
      </trkpt>
      <trkpt lat="40.772746" lon="-3.918835">
        <ele>1282.328</ele>
        <time>2021-07-29T20:19:29Z</time>
      </trkpt>
      <trkpt lat="40.772739" lon="-3.918870">
        <ele>1282.939</ele>
        <time>2021-07-29T20:19:32Z</time>
      </trkpt>
      <trkpt lat="40.772733" lon="-3.918902">
        <ele>1283.589</ele>
        <time>2021-07-29T20:19:35Z</time>
      </trkpt>
      <trkpt lat="40.772714" lon="-3.918890">
        <ele>1283.872</ele>
        <time>2021-07-29T20:19:38Z</time>
      </trkpt>
      <trkpt lat="40.772691" lon="-3.918892">
        <ele>1284.521</ele>
        <time>2021-07-29T20:19:41Z</time>
      </trkpt>
      <trkpt lat="40.772678" lon="-3.918912">
        <ele>1285.198</ele>
        <time>2021-07-29T20:19:43Z</time>
      </trkpt>
      <trkpt lat="40.772662" lon="-3.918932">
        <ele>1285.815</ele>
        <time>2021-07-29T20:19:46Z</time>
      </trkpt>
      <trkpt lat="40.772646" lon="-3.918945">
        <ele>1286.326</ele>
        <time>2021-07-29T20:19:48Z</time>
      </trkpt>
      <trkpt lat="40.772627" lon="-3.918965">
        <ele>1287.008</ele>
        <time>2021-07-29T20:19:50Z</time>
      </trkpt>
      <trkpt lat="40.772605" lon="-3.918958">
        <ele>1287.536</ele>
        <time>2021-07-29T20:19:55Z</time>
      </trkpt>
      <trkpt lat="40.772586" lon="-3.918940">
        <ele>1287.958</ele>
        <time>2021-07-29T20:20:03Z</time>
      </trkpt>
      <trkpt lat="40.772573" lon="-3.918923">
        <ele>1288.125</ele>
        <time>2021-07-29T20:20:05Z</time>
      </trkpt>
      <trkpt lat="40.772557" lon="-3.918908">
        <ele>1288.572</ele>
        <time>2021-07-29T20:20:07Z</time>
      </trkpt>
      <trkpt lat="40.772573" lon="-3.918925">
        <ele>1288.123</ele>
        <time>2021-07-29T20:20:49Z</time>
      </trkpt>
      <trkpt lat="40.772592" lon="-3.918950">
        <ele>1287.873</ele>
        <time>2021-07-29T20:20:51Z</time>
      </trkpt>
      <trkpt lat="40.772611" lon="-3.918980">
        <ele>1287.556</ele>
        <time>2021-07-29T20:20:53Z</time>
      </trkpt>
      <trkpt lat="40.772653" lon="-3.919032">
        <ele>1287.085</ele>
        <time>2021-07-29T20:20:57Z</time>
      </trkpt>
      <trkpt lat="40.772678" lon="-3.919058">
        <ele>1286.786</ele>
        <time>2021-07-29T20:21:00Z</time>
      </trkpt>
      <trkpt lat="40.772704" lon="-3.919050">
        <ele>1286.060</ele>
        <time>2021-07-29T20:21:02Z</time>
      </trkpt>
      <trkpt lat="40.772723" lon="-3.919037">
        <ele>1285.426</ele>
        <time>2021-07-29T20:21:04Z</time>
      </trkpt>
      <trkpt lat="40.772704" lon="-3.919032">
        <ele>1285.808</ele>
        <time>2021-07-29T20:21:10Z</time>
      </trkpt>
      <trkpt lat="40.772698" lon="-3.918995">
        <ele>1285.555</ele>
        <time>2021-07-29T20:21:18Z</time>
      </trkpt>
      <trkpt lat="40.772685" lon="-3.918975">
        <ele>1285.657</ele>
        <time>2021-07-29T20:21:20Z</time>
      </trkpt>
      <trkpt lat="40.772653" lon="-3.918957">
        <ele>1286.244</ele>
        <time>2021-07-29T20:21:28Z</time>
      </trkpt>
      <trkpt lat="40.772624" lon="-3.918933">
        <ele>1286.871</ele>
        <time>2021-07-29T20:21:30Z</time>
      </trkpt>
      <trkpt lat="40.772611" lon="-3.918908">
        <ele>1287.012</ele>
        <time>2021-07-29T20:21:32Z</time>
      </trkpt>
      <trkpt lat="40.772602" lon="-3.918880">
        <ele>1287.032</ele>
        <time>2021-07-29T20:21:36Z</time>
      </trkpt>
      <trkpt lat="40.772582" lon="-3.918880">
        <ele>1287.535</ele>
        <time>2021-07-29T20:21:46Z</time>
      </trkpt>
      <trkpt lat="40.772563" lon="-3.918872">
        <ele>1288.064</ele>
        <time>2021-07-29T20:21:51Z</time>
      </trkpt>
      <trkpt lat="40.772573" lon="-3.918850">
        <ele>1287.558</ele>
        <time>2021-07-29T20:21:56Z</time>
      </trkpt>
      <trkpt lat="40.772573" lon="-3.918816">
        <ele>1287.152</ele>
        <time>2021-07-29T20:21:59Z</time>
      </trkpt>
      <trkpt lat="40.772560" lon="-3.918788">
        <ele>1287.217</ele>
        <time>2021-07-29T20:22:00Z</time>
      </trkpt>
      <trkpt lat="40.772547" lon="-3.918755">
        <ele>1287.208</ele>
        <time>2021-07-29T20:22:01Z</time>
      </trkpt>
      <trkpt lat="40.772534" lon="-3.918727">
        <ele>1287.362</ele>
        <time>2021-07-29T20:22:02Z</time>
      </trkpt>
      <trkpt lat="40.772518" lon="-3.918713">
        <ele>1287.684</ele>
        <time>2021-07-29T20:22:05Z</time>
      </trkpt>
      <trkpt lat="40.772502" lon="-3.918702">
        <ele>1287.931</ele>
        <time>2021-07-29T20:22:08Z</time>
      </trkpt>
      <trkpt lat="40.772493" lon="-3.918675">
        <ele>1288.048</ele>
        <time>2021-07-29T20:22:11Z</time>
      </trkpt>
      <trkpt lat="40.772493" lon="-3.918640">
        <ele>1287.679</ele>
        <time>2021-07-29T20:22:15Z</time>
      </trkpt>
      <trkpt lat="40.772480" lon="-3.918615">
        <ele>1287.929</ele>
        <time>2021-07-29T20:22:18Z</time>
      </trkpt>
      <trkpt lat="40.772486" lon="-3.918592">
        <ele>1287.472</ele>
        <time>2021-07-29T20:22:20Z</time>
      </trkpt>
      <trkpt lat="40.772493" lon="-3.918565">
        <ele>1286.851</ele>
        <time>2021-07-29T20:22:22Z</time>
      </trkpt>
      <trkpt lat="40.772515" lon="-3.918528">
        <ele>1285.799</ele>
        <time>2021-07-29T20:22:25Z</time>
      </trkpt>
      <trkpt lat="40.772518" lon="-3.918518">
        <ele>1285.507</ele>
        <time>2021-07-29T20:22:26Z</time>
      </trkpt>
      <trkpt lat="40.772522" lon="-3.918495">
        <ele>1285.127</ele>
        <time>2021-07-29T20:22:30Z</time>
      </trkpt>
      <trkpt lat="40.772534" lon="-3.918472">
        <ele>1284.508</ele>
        <time>2021-07-29T20:22:33Z</time>
      </trkpt>
      <trkpt lat="40.772595" lon="-3.917947">
        <ele>1276.996</ele>
        <time>2021-07-29T20:23:42Z</time>
      </trkpt>
      <trkpt lat="40.772666" lon="-3.917135">
        <ele>1268.458</ele>
        <time>2021-07-29T20:24:42Z</time>
      </trkpt>
      <trkpt lat="40.772678" lon="-3.916318">
        <ele>1262.455</ele>
        <time>2021-07-29T20:25:42Z</time>
      </trkpt>
      <trkpt lat="40.772547" lon="-3.915460">
        <ele>1261.692</ele>
        <time>2021-07-29T20:26:42Z</time>
      </trkpt>
      <trkpt lat="40.772627" lon="-3.914698">
        <ele>1252.393</ele>
        <time>2021-07-29T20:27:42Z</time>
      </trkpt>
      <trkpt lat="40.772525" lon="-3.914028">
        <ele>1247.633</ele>
        <time>2021-07-29T20:28:42Z</time>
      </trkpt>
      <trkpt lat="40.772294" lon="-3.913300">
        <ele>1242.886</ele>
        <time>2021-07-29T20:29:42Z</time>
      </trkpt>
      <trkpt lat="40.771846" lon="-3.912777">
        <ele>1234.875</ele>
        <time>2021-07-29T20:30:42Z</time>
      </trkpt>
      <trkpt lat="40.771475" lon="-3.912268">
        <ele>1230.761</ele>
        <time>2021-07-29T20:31:42Z</time>
      </trkpt>
      <trkpt lat="40.771341" lon="-3.911720">
        <ele>1217.321</ele>
        <time>2021-07-29T20:32:42Z</time>
      </trkpt>
      <trkpt lat="40.771325" lon="-3.911147">
        <ele>1210.913</ele>
        <time>2021-07-29T20:33:42Z</time>
      </trkpt>
      <trkpt lat="40.771277" lon="-3.911022">
        <ele>1210.408</ele>
        <time>2021-07-29T20:33:50Z</time>
      </trkpt>
      <trkpt lat="40.771270" lon="-3.910992">
        <ele>1210.153</ele>
        <time>2021-07-29T20:33:51Z</time>
      </trkpt>
      <trkpt lat="40.771251" lon="-3.910958">
        <ele>1209.875</ele>
        <time>2021-07-29T20:33:53Z</time>
      </trkpt>
      <trkpt lat="40.771235" lon="-3.910926">
        <ele>1209.572</ele>
        <time>2021-07-29T20:33:55Z</time>
      </trkpt>
      <trkpt lat="40.771213" lon="-3.910890">
        <ele>1209.119</ele>
        <time>2021-07-29T20:33:57Z</time>
      </trkpt>
      <trkpt lat="40.771206" lon="-3.910862">
        <ele>1208.770</ele>
        <time>2021-07-29T20:33:59Z</time>
      </trkpt>
      <trkpt lat="40.771184" lon="-3.910833">
        <ele>1208.320</ele>
        <time>2021-07-29T20:34:01Z</time>
      </trkpt>
      <trkpt lat="40.771171" lon="-3.910793">
        <ele>1207.823</ele>
        <time>2021-07-29T20:34:03Z</time>
      </trkpt>
      <trkpt lat="40.771155" lon="-3.910760">
        <ele>1207.372</ele>
        <time>2021-07-29T20:34:05Z</time>
      </trkpt>
      <trkpt lat="40.771149" lon="-3.910732">
        <ele>1206.964</ele>
        <time>2021-07-29T20:34:07Z</time>
      </trkpt>
      <trkpt lat="40.771136" lon="-3.910710">
        <ele>1206.506</ele>
        <time>2021-07-29T20:34:09Z</time>
      </trkpt>
      <trkpt lat="40.771117" lon="-3.910685">
        <ele>1205.916</ele>
        <time>2021-07-29T20:34:11Z</time>
      </trkpt>
      <trkpt lat="40.771091" lon="-3.910655">
        <ele>1205.908</ele>
        <time>2021-07-29T20:34:13Z</time>
      </trkpt>
      <trkpt lat="40.771072" lon="-3.910635">
        <ele>1206.123</ele>
        <time>2021-07-29T20:34:15Z</time>
      </trkpt>
      <trkpt lat="40.771056" lon="-3.910617">
        <ele>1206.265</ele>
        <time>2021-07-29T20:34:17Z</time>
      </trkpt>
      <trkpt lat="40.771050" lon="-3.910592">
        <ele>1205.972</ele>
        <time>2021-07-29T20:34:19Z</time>
      </trkpt>
      <trkpt lat="40.771043" lon="-3.910562">
        <ele>1205.639</ele>
        <time>2021-07-29T20:34:21Z</time>
      </trkpt>
      <trkpt lat="40.771024" lon="-3.910554">
        <ele>1205.950</ele>
        <time>2021-07-29T20:34:24Z</time>
      </trkpt>
      <trkpt lat="40.771011" lon="-3.910537">
        <ele>1205.960</ele>
        <time>2021-07-29T20:34:26Z</time>
      </trkpt>
      <trkpt lat="40.770989" lon="-3.910514">
        <ele>1206.053</ele>
        <time>2021-07-29T20:34:28Z</time>
      </trkpt>
      <trkpt lat="40.770966" lon="-3.910497">
        <ele>1206.392</ele>
        <time>2021-07-29T20:34:30Z</time>
      </trkpt>
      <trkpt lat="40.770970" lon="-3.910472">
        <ele>1205.859</ele>
        <time>2021-07-29T20:34:32Z</time>
      </trkpt>
      <trkpt lat="40.770944" lon="-3.910450">
        <ele>1206.103</ele>
        <time>2021-07-29T20:34:34Z</time>
      </trkpt>
      <trkpt lat="40.770925" lon="-3.910455">
        <ele>1206.623</ele>
        <time>2021-07-29T20:34:36Z</time>
      </trkpt>
      <trkpt lat="40.770906" lon="-3.910443">
        <ele>1206.808</ele>
        <time>2021-07-29T20:34:39Z</time>
      </trkpt>
      <trkpt lat="40.770890" lon="-3.910432">
        <ele>1207.022</ele>
        <time>2021-07-29T20:34:41Z</time>
      </trkpt>
      <trkpt lat="40.770870" lon="-3.910432">
        <ele>1207.414</ele>
        <time>2021-07-29T20:34:43Z</time>
      </trkpt>
      <trkpt lat="40.770848" lon="-3.910412">
        <ele>1207.621</ele>
        <time>2021-07-29T20:34:45Z</time>
      </trkpt>
      <trkpt lat="40.770829" lon="-3.910393">
        <ele>1207.798</ele>
        <time>2021-07-29T20:34:46Z</time>
      </trkpt>
      <trkpt lat="40.770806" lon="-3.910372">
        <ele>1207.939</ele>
        <time>2021-07-29T20:34:48Z</time>
      </trkpt>
      <trkpt lat="40.770784" lon="-3.910350">
        <ele>1207.959</ele>
        <time>2021-07-29T20:34:50Z</time>
      </trkpt>
      <trkpt lat="40.770768" lon="-3.910333">
        <ele>1207.972</ele>
        <time>2021-07-29T20:34:51Z</time>
      </trkpt>
      <trkpt lat="40.770746" lon="-3.910315">
        <ele>1208.031</ele>
        <time>2021-07-29T20:34:53Z</time>
      </trkpt>
      <trkpt lat="40.770720" lon="-3.910295">
        <ele>1208.098</ele>
        <time>2021-07-29T20:34:55Z</time>
      </trkpt>
      <trkpt lat="40.770698" lon="-3.910275">
        <ele>1207.915</ele>
        <time>2021-07-29T20:34:57Z</time>
      </trkpt>
      <trkpt lat="40.770675" lon="-3.910253">
        <ele>1207.926</ele>
        <time>2021-07-29T20:34:59Z</time>
      </trkpt>
      <trkpt lat="40.770659" lon="-3.910242">
        <ele>1208.008</ele>
        <time>2021-07-29T20:35:00Z</time>
      </trkpt>
      <trkpt lat="40.770637" lon="-3.910232">
        <ele>1208.246</ele>
        <time>2021-07-29T20:35:02Z</time>
      </trkpt>
      <trkpt lat="40.770614" lon="-3.910212">
        <ele>1208.258</ele>
        <time>2021-07-29T20:35:04Z</time>
      </trkpt>
      <trkpt lat="40.770595" lon="-3.910192">
        <ele>1208.215</ele>
        <time>2021-07-29T20:35:06Z</time>
      </trkpt>
      <trkpt lat="40.770576" lon="-3.910170">
        <ele>1208.242</ele>
        <time>2021-07-29T20:35:08Z</time>
      </trkpt>
      <trkpt lat="40.770554" lon="-3.910153">
        <ele>1208.213</ele>
        <time>2021-07-29T20:35:10Z</time>
      </trkpt>
      <trkpt lat="40.770528" lon="-3.910125">
        <ele>1208.413</ele>
        <time>2021-07-29T20:35:12Z</time>
      </trkpt>
      <trkpt lat="40.770499" lon="-3.910108">
        <ele>1208.896</ele>
        <time>2021-07-29T20:35:14Z</time>
      </trkpt>
      <trkpt lat="40.770477" lon="-3.910085">
        <ele>1208.825</ele>
        <time>2021-07-29T20:35:16Z</time>
      </trkpt>
      <trkpt lat="40.770461" lon="-3.910073">
        <ele>1208.996</ele>
        <time>2021-07-29T20:35:17Z</time>
      </trkpt>
      <trkpt lat="40.770435" lon="-3.910052">
        <ele>1208.931</ele>
        <time>2021-07-29T20:35:19Z</time>
      </trkpt>
      <trkpt lat="40.770419" lon="-3.910040">
        <ele>1208.924</ele>
        <time>2021-07-29T20:35:21Z</time>
      </trkpt>
      <trkpt lat="40.770400" lon="-3.910020">
        <ele>1208.708</ele>
        <time>2021-07-29T20:35:23Z</time>
      </trkpt>
      <trkpt lat="40.770378" lon="-3.910006">
        <ele>1208.756</ele>
        <time>2021-07-29T20:35:26Z</time>
      </trkpt>
      <trkpt lat="40.770355" lon="-3.910000">
        <ele>1208.948</ele>
        <time>2021-07-29T20:35:29Z</time>
      </trkpt>
      <trkpt lat="40.770339" lon="-3.909983">
        <ele>1208.895</ele>
        <time>2021-07-29T20:35:31Z</time>
      </trkpt>
      <trkpt lat="40.770323" lon="-3.909972">
        <ele>1208.932</ele>
        <time>2021-07-29T20:35:33Z</time>
      </trkpt>
      <trkpt lat="40.770301" lon="-3.909950">
        <ele>1208.863</ele>
        <time>2021-07-29T20:35:36Z</time>
      </trkpt>
      <trkpt lat="40.770282" lon="-3.909928">
        <ele>1208.663</ele>
        <time>2021-07-29T20:35:37Z</time>
      </trkpt>
      <trkpt lat="40.770262" lon="-3.909908">
        <ele>1208.726</ele>
        <time>2021-07-29T20:35:38Z</time>
      </trkpt>
      <trkpt lat="40.770243" lon="-3.909882">
        <ele>1208.635</ele>
        <time>2021-07-29T20:35:40Z</time>
      </trkpt>
      <trkpt lat="40.770221" lon="-3.909860">
        <ele>1208.627</ele>
        <time>2021-07-29T20:35:42Z</time>
      </trkpt>
      <trkpt lat="40.770198" lon="-3.909854">
        <ele>1208.968</ele>
        <time>2021-07-29T20:35:45Z</time>
      </trkpt>
      <trkpt lat="40.770176" lon="-3.909837">
        <ele>1208.914</ele>
        <time>2021-07-29T20:35:47Z</time>
      </trkpt>
      <trkpt lat="40.770157" lon="-3.909828">
        <ele>1209.008</ele>
        <time>2021-07-29T20:35:48Z</time>
      </trkpt>
      <trkpt lat="40.770141" lon="-3.909810">
        <ele>1208.819</ele>
        <time>2021-07-29T20:35:50Z</time>
      </trkpt>
      <trkpt lat="40.770115" lon="-3.909798">
        <ele>1208.941</ele>
        <time>2021-07-29T20:35:52Z</time>
      </trkpt>
      <trkpt lat="40.770093" lon="-3.909795">
        <ele>1209.228</ele>
        <time>2021-07-29T20:35:54Z</time>
      </trkpt>
      <trkpt lat="40.770070" lon="-3.909777">
        <ele>1209.045</ele>
        <time>2021-07-29T20:35:56Z</time>
      </trkpt>
      <trkpt lat="40.770051" lon="-3.909773">
        <ele>1209.126</ele>
        <time>2021-07-29T20:35:58Z</time>
      </trkpt>
      <trkpt lat="40.770022" lon="-3.909752">
        <ele>1208.886</ele>
        <time>2021-07-29T20:36:00Z</time>
      </trkpt>
      <trkpt lat="40.769997" lon="-3.909733">
        <ele>1208.589</ele>
        <time>2021-07-29T20:36:02Z</time>
      </trkpt>
      <trkpt lat="40.769974" lon="-3.909722">
        <ele>1208.768</ele>
        <time>2021-07-29T20:36:04Z</time>
      </trkpt>
      <trkpt lat="40.769942" lon="-3.909708">
        <ele>1209.373</ele>
        <time>2021-07-29T20:36:06Z</time>
      </trkpt>
      <trkpt lat="40.769923" lon="-3.909688">
        <ele>1209.385</ele>
        <time>2021-07-29T20:36:08Z</time>
      </trkpt>
      <trkpt lat="40.769904" lon="-3.909675">
        <ele>1209.513</ele>
        <time>2021-07-29T20:36:09Z</time>
      </trkpt>
      <trkpt lat="40.769882" lon="-3.909662">
        <ele>1209.708</ele>
        <time>2021-07-29T20:36:11Z</time>
      </trkpt>
      <trkpt lat="40.769859" lon="-3.909655">
        <ele>1210.124</ele>
        <time>2021-07-29T20:36:13Z</time>
      </trkpt>
      <trkpt lat="40.769834" lon="-3.909645">
        <ele>1210.446</ele>
        <time>2021-07-29T20:36:15Z</time>
      </trkpt>
      <trkpt lat="40.769814" lon="-3.909642">
        <ele>1210.883</ele>
        <time>2021-07-29T20:36:17Z</time>
      </trkpt>
      <trkpt lat="40.769795" lon="-3.909632">
        <ele>1211.030</ele>
        <time>2021-07-29T20:36:19Z</time>
      </trkpt>
      <trkpt lat="40.769776" lon="-3.909603">
        <ele>1210.581</ele>
        <time>2021-07-29T20:36:20Z</time>
      </trkpt>
      <trkpt lat="40.769760" lon="-3.909578">
        <ele>1210.021</ele>
        <time>2021-07-29T20:36:21Z</time>
      </trkpt>
      <trkpt lat="40.769744" lon="-3.909565">
        <ele>1209.984</ele>
        <time>2021-07-29T20:36:22Z</time>
      </trkpt>
      <trkpt lat="40.769718" lon="-3.909530">
        <ele>1209.223</ele>
        <time>2021-07-29T20:36:24Z</time>
      </trkpt>
      <trkpt lat="40.769699" lon="-3.909507">
        <ele>1208.713</ele>
        <time>2021-07-29T20:36:27Z</time>
      </trkpt>
      <trkpt lat="40.769680" lon="-3.909490">
        <ele>1208.343</ele>
        <time>2021-07-29T20:36:29Z</time>
      </trkpt>
      <trkpt lat="40.769661" lon="-3.909477">
        <ele>1208.207</ele>
        <time>2021-07-29T20:36:32Z</time>
      </trkpt>
      <trkpt lat="40.769648" lon="-3.909458">
        <ele>1207.608</ele>
        <time>2021-07-29T20:36:34Z</time>
      </trkpt>
      <trkpt lat="40.769635" lon="-3.909435">
        <ele>1207.018</ele>
        <time>2021-07-29T20:36:36Z</time>
      </trkpt>
      <trkpt lat="40.769619" lon="-3.909410">
        <ele>1206.740</ele>
        <time>2021-07-29T20:36:38Z</time>
      </trkpt>
      <trkpt lat="40.769597" lon="-3.909390">
        <ele>1206.527</ele>
        <time>2021-07-29T20:36:41Z</time>
      </trkpt>
      <trkpt lat="40.769581" lon="-3.909370">
        <ele>1206.314</ele>
        <time>2021-07-29T20:36:43Z</time>
      </trkpt>
      <trkpt lat="40.769565" lon="-3.909350">
        <ele>1206.095</ele>
        <time>2021-07-29T20:36:45Z</time>
      </trkpt>
      <trkpt lat="40.769546" lon="-3.909340">
        <ele>1206.055</ele>
        <time>2021-07-29T20:36:47Z</time>
      </trkpt>
      <trkpt lat="40.769520" lon="-3.909325">
        <ele>1206.068</ele>
        <time>2021-07-29T20:36:49Z</time>
      </trkpt>
      <trkpt lat="40.769501" lon="-3.909312">
        <ele>1205.927</ele>
        <time>2021-07-29T20:36:51Z</time>
      </trkpt>
      <trkpt lat="40.769469" lon="-3.909300">
        <ele>1206.142</ele>
        <time>2021-07-29T20:36:54Z</time>
      </trkpt>
      <trkpt lat="40.769446" lon="-3.909283">
        <ele>1205.922</ele>
        <time>2021-07-29T20:36:56Z</time>
      </trkpt>
      <trkpt lat="40.769418" lon="-3.909273">
        <ele>1206.214</ele>
        <time>2021-07-29T20:36:58Z</time>
      </trkpt>
      <trkpt lat="40.769389" lon="-3.909258">
        <ele>1206.308</ele>
        <time>2021-07-29T20:37:00Z</time>
      </trkpt>
      <trkpt lat="40.769366" lon="-3.909243">
        <ele>1206.371</ele>
        <time>2021-07-29T20:37:02Z</time>
      </trkpt>
      <trkpt lat="40.769341" lon="-3.909228">
        <ele>1206.323</ele>
        <time>2021-07-29T20:37:04Z</time>
      </trkpt>
      <trkpt lat="40.769318" lon="-3.909217">
        <ele>1206.320</ele>
        <time>2021-07-29T20:37:07Z</time>
      </trkpt>
      <trkpt lat="40.769296" lon="-3.909203">
        <ele>1206.387</ele>
        <time>2021-07-29T20:37:09Z</time>
      </trkpt>
      <trkpt lat="40.769280" lon="-3.909185">
        <ele>1205.948</ele>
        <time>2021-07-29T20:37:11Z</time>
      </trkpt>
      <trkpt lat="40.769267" lon="-3.909165">
        <ele>1205.548</ele>
        <time>2021-07-29T20:37:13Z</time>
      </trkpt>
      <trkpt lat="40.769248" lon="-3.909150">
        <ele>1205.481</ele>
        <time>2021-07-29T20:37:15Z</time>
      </trkpt>
      <trkpt lat="40.769229" lon="-3.909148">
        <ele>1205.690</ele>
        <time>2021-07-29T20:37:17Z</time>
      </trkpt>
      <trkpt lat="40.769203" lon="-3.909142">
        <ele>1205.988</ele>
        <time>2021-07-29T20:37:19Z</time>
      </trkpt>
      <trkpt lat="40.769181" lon="-3.909137">
        <ele>1206.024</ele>
        <time>2021-07-29T20:37:21Z</time>
      </trkpt>
      <trkpt lat="40.769149" lon="-3.909127">
        <ele>1206.226</ele>
        <time>2021-07-29T20:37:23Z</time>
      </trkpt>
      <trkpt lat="40.769126" lon="-3.909112">
        <ele>1206.208</ele>
        <time>2021-07-29T20:37:25Z</time>
      </trkpt>
      <trkpt lat="40.769107" lon="-3.909102">
        <ele>1206.295</ele>
        <time>2021-07-29T20:37:27Z</time>
      </trkpt>
      <trkpt lat="40.769088" lon="-3.909092">
        <ele>1206.237</ele>
        <time>2021-07-29T20:37:29Z</time>
      </trkpt>
      <trkpt lat="40.769069" lon="-3.909073">
        <ele>1205.994</ele>
        <time>2021-07-29T20:37:32Z</time>
      </trkpt>
      <trkpt lat="40.769056" lon="-3.909053">
        <ele>1205.671</ele>
        <time>2021-07-29T20:37:34Z</time>
      </trkpt>
      <trkpt lat="40.769037" lon="-3.909038">
        <ele>1205.492</ele>
        <time>2021-07-29T20:37:37Z</time>
      </trkpt>
      <trkpt lat="40.769021" lon="-3.909022">
        <ele>1205.252</ele>
        <time>2021-07-29T20:37:39Z</time>
      </trkpt>
      <trkpt lat="40.769002" lon="-3.909006">
        <ele>1205.075</ele>
        <time>2021-07-29T20:37:41Z</time>
      </trkpt>
      <trkpt lat="40.768982" lon="-3.908990">
        <ele>1204.854</ele>
        <time>2021-07-29T20:37:43Z</time>
      </trkpt>
      <trkpt lat="40.768966" lon="-3.908978">
        <ele>1204.665</ele>
        <time>2021-07-29T20:37:44Z</time>
      </trkpt>
      <trkpt lat="40.768950" lon="-3.908963">
        <ele>1204.468</ele>
        <time>2021-07-29T20:37:45Z</time>
      </trkpt>
      <trkpt lat="40.768909" lon="-3.908928">
        <ele>1203.914</ele>
        <time>2021-07-29T20:37:47Z</time>
      </trkpt>
      <trkpt lat="40.768890" lon="-3.908917">
        <ele>1203.808</ele>
        <time>2021-07-29T20:37:48Z</time>
      </trkpt>
      <trkpt lat="40.768874" lon="-3.908897">
        <ele>1203.373</ele>
        <time>2021-07-29T20:37:49Z</time>
      </trkpt>
      <trkpt lat="40.768861" lon="-3.908877">
        <ele>1202.835</ele>
        <time>2021-07-29T20:37:50Z</time>
      </trkpt>
      <trkpt lat="40.768832" lon="-3.908858">
        <ele>1202.312</ele>
        <time>2021-07-29T20:37:52Z</time>
      </trkpt>
      <trkpt lat="40.768813" lon="-3.908853">
        <ele>1202.319</ele>
        <time>2021-07-29T20:37:53Z</time>
      </trkpt>
      <trkpt lat="40.768787" lon="-3.908845">
        <ele>1202.270</ele>
        <time>2021-07-29T20:37:55Z</time>
      </trkpt>
      <trkpt lat="40.768765" lon="-3.908832">
        <ele>1201.820</ele>
        <time>2021-07-29T20:37:57Z</time>
      </trkpt>
      <trkpt lat="40.768742" lon="-3.908826">
        <ele>1201.843</ele>
        <time>2021-07-29T20:37:59Z</time>
      </trkpt>
      <trkpt lat="40.768714" lon="-3.908832">
        <ele>1202.232</ele>
        <time>2021-07-29T20:38:01Z</time>
      </trkpt>
      <trkpt lat="40.768688" lon="-3.908830">
        <ele>1202.384</ele>
        <time>2021-07-29T20:38:03Z</time>
      </trkpt>
      <trkpt lat="40.768659" lon="-3.908822">
        <ele>1202.207</ele>
        <time>2021-07-29T20:38:05Z</time>
      </trkpt>
      <trkpt lat="40.768634" lon="-3.908822">
        <ele>1202.417</ele>
        <time>2021-07-29T20:38:07Z</time>
      </trkpt>
      <trkpt lat="40.768605" lon="-3.908815">
        <ele>1202.308</ele>
        <time>2021-07-29T20:38:09Z</time>
      </trkpt>
      <trkpt lat="40.768586" lon="-3.908810">
        <ele>1202.135</ele>
        <time>2021-07-29T20:38:11Z</time>
      </trkpt>
      <trkpt lat="40.768560" lon="-3.908802">
        <ele>1201.877</ele>
        <time>2021-07-29T20:38:13Z</time>
      </trkpt>
      <trkpt lat="40.768522" lon="-3.908798">
        <ele>1201.654</ele>
        <time>2021-07-29T20:38:16Z</time>
      </trkpt>
      <trkpt lat="40.768506" lon="-3.908797">
        <ele>1201.621</ele>
        <time>2021-07-29T20:38:17Z</time>
      </trkpt>
      <trkpt lat="40.768483" lon="-3.908795">
        <ele>1201.532</ele>
        <time>2021-07-29T20:38:19Z</time>
      </trkpt>
      <trkpt lat="40.768464" lon="-3.908805">
        <ele>1201.882</ele>
        <time>2021-07-29T20:38:21Z</time>
      </trkpt>
      <trkpt lat="40.768445" lon="-3.908804">
        <ele>1201.865</ele>
        <time>2021-07-29T20:38:23Z</time>
      </trkpt>
      <trkpt lat="40.768426" lon="-3.908802">
        <ele>1201.724</ele>
        <time>2021-07-29T20:38:24Z</time>
      </trkpt>
      <trkpt lat="40.768397" lon="-3.908808">
        <ele>1201.918</ele>
        <time>2021-07-29T20:38:27Z</time>
      </trkpt>
      <trkpt lat="40.768368" lon="-3.908822">
        <ele>1202.498</ele>
        <time>2021-07-29T20:38:29Z</time>
      </trkpt>
      <trkpt lat="40.768346" lon="-3.908835">
        <ele>1202.917</ele>
        <time>2021-07-29T20:38:30Z</time>
      </trkpt>
      <trkpt lat="40.768323" lon="-3.908842">
        <ele>1203.208</ele>
        <time>2021-07-29T20:38:32Z</time>
      </trkpt>
      <trkpt lat="40.768291" lon="-3.908823">
        <ele>1202.518</ele>
        <time>2021-07-29T20:38:34Z</time>
      </trkpt>
      <trkpt lat="40.768272" lon="-3.908805">
        <ele>1201.830</ele>
        <time>2021-07-29T20:38:35Z</time>
      </trkpt>
      <trkpt lat="40.768250" lon="-3.908805">
        <ele>1201.947</ele>
        <time>2021-07-29T20:38:37Z</time>
      </trkpt>
      <trkpt lat="40.768230" lon="-3.908802">
        <ele>1201.824</ele>
        <time>2021-07-29T20:38:38Z</time>
      </trkpt>
      <trkpt lat="40.768205" lon="-3.908804">
        <ele>1202.035</ele>
        <time>2021-07-29T20:38:41Z</time>
      </trkpt>
      <trkpt lat="40.768186" lon="-3.908812">
        <ele>1202.395</ele>
        <time>2021-07-29T20:38:43Z</time>
      </trkpt>
      <trkpt lat="40.768166" lon="-3.908817">
        <ele>1202.668</ele>
        <time>2021-07-29T20:38:45Z</time>
      </trkpt>
      <trkpt lat="40.768147" lon="-3.908820">
        <ele>1202.897</ele>
        <time>2021-07-29T20:38:47Z</time>
      </trkpt>
      <trkpt lat="40.768131" lon="-3.908832">
        <ele>1203.392</ele>
        <time>2021-07-29T20:38:49Z</time>
      </trkpt>
      <trkpt lat="40.768106" lon="-3.908837">
        <ele>1203.673</ele>
        <time>2021-07-29T20:38:52Z</time>
      </trkpt>
      <trkpt lat="40.768077" lon="-3.908817">
        <ele>1202.820</ele>
        <time>2021-07-29T20:38:54Z</time>
      </trkpt>
      <trkpt lat="40.768054" lon="-3.908815">
        <ele>1202.808</ele>
        <time>2021-07-29T20:38:56Z</time>
      </trkpt>
      <trkpt lat="40.768035" lon="-3.908808">
        <ele>1202.286</ele>
        <time>2021-07-29T20:38:58Z</time>
      </trkpt>
      <trkpt lat="40.768013" lon="-3.908804">
        <ele>1201.778</ele>
        <time>2021-07-29T20:39:00Z</time>
      </trkpt>
      <trkpt lat="40.767994" lon="-3.908804">
        <ele>1201.455</ele>
        <time>2021-07-29T20:39:02Z</time>
      </trkpt>
      <trkpt lat="40.767968" lon="-3.908798">
        <ele>1200.852</ele>
        <time>2021-07-29T20:39:04Z</time>
      </trkpt>
      <trkpt lat="40.767946" lon="-3.908800">
        <ele>1200.623</ele>
        <time>2021-07-29T20:39:06Z</time>
      </trkpt>
      <trkpt lat="40.767920" lon="-3.908804">
        <ele>1200.323</ele>
        <time>2021-07-29T20:39:08Z</time>
      </trkpt>
      <trkpt lat="40.767894" lon="-3.908802">
        <ele>1199.916</ele>
        <time>2021-07-29T20:39:11Z</time>
      </trkpt>
      <trkpt lat="40.767869" lon="-3.908792">
        <ele>1199.215</ele>
        <time>2021-07-29T20:39:13Z</time>
      </trkpt>
      <trkpt lat="40.767837" lon="-3.908784">
        <ele>1198.486</ele>
        <time>2021-07-29T20:39:15Z</time>
      </trkpt>
      <trkpt lat="40.767818" lon="-3.908778">
        <ele>1198.060</ele>
        <time>2021-07-29T20:39:17Z</time>
      </trkpt>
      <trkpt lat="40.767802" lon="-3.908750">
        <ele>1196.826</ele>
        <time>2021-07-29T20:39:20Z</time>
      </trkpt>
      <trkpt lat="40.767773" lon="-3.908758">
        <ele>1196.708</ele>
        <time>2021-07-29T20:39:22Z</time>
      </trkpt>
      <trkpt lat="40.767754" lon="-3.908768">
        <ele>1196.755</ele>
        <time>2021-07-29T20:39:23Z</time>
      </trkpt>
      <trkpt lat="40.767734" lon="-3.908767">
        <ele>1196.457</ele>
        <time>2021-07-29T20:39:24Z</time>
      </trkpt>
      <trkpt lat="40.767709" lon="-3.908777">
        <ele>1196.334</ele>
        <time>2021-07-29T20:39:26Z</time>
      </trkpt>
      <trkpt lat="40.767677" lon="-3.908787">
        <ele>1196.271</ele>
        <time>2021-07-29T20:39:28Z</time>
      </trkpt>
      <trkpt lat="40.767658" lon="-3.908814">
        <ele>1196.742</ele>
        <time>2021-07-29T20:39:30Z</time>
      </trkpt>
      <trkpt lat="40.767638" lon="-3.908838">
        <ele>1197.072</ele>
        <time>2021-07-29T20:39:32Z</time>
      </trkpt>
      <trkpt lat="40.767613" lon="-3.908847">
        <ele>1196.935</ele>
        <time>2021-07-29T20:39:34Z</time>
      </trkpt>
      <trkpt lat="40.767587" lon="-3.908857">
        <ele>1196.774</ele>
        <time>2021-07-29T20:39:36Z</time>
      </trkpt>
      <trkpt lat="40.767562" lon="-3.908873">
        <ele>1196.758</ele>
        <time>2021-07-29T20:39:38Z</time>
      </trkpt>
      <trkpt lat="40.767542" lon="-3.908875">
        <ele>1196.452</ele>
        <time>2021-07-29T20:39:39Z</time>
      </trkpt>
      <trkpt lat="40.767523" lon="-3.908898">
        <ele>1196.817</ele>
        <time>2021-07-29T20:39:41Z</time>
      </trkpt>
      <trkpt lat="40.767510" lon="-3.908925">
        <ele>1197.508</ele>
        <time>2021-07-29T20:39:43Z</time>
      </trkpt>
      <trkpt lat="40.767491" lon="-3.908940">
        <ele>1197.892</ele>
        <time>2021-07-29T20:39:45Z</time>
      </trkpt>
      <trkpt lat="40.767469" lon="-3.908952">
        <ele>1198.384</ele>
        <time>2021-07-29T20:39:47Z</time>
      </trkpt>
      <trkpt lat="40.767443" lon="-3.908965">
        <ele>1198.721</ele>
        <time>2021-07-29T20:39:49Z</time>
      </trkpt>
      <trkpt lat="40.767421" lon="-3.908976">
        <ele>1199.178</ele>
        <time>2021-07-29T20:39:51Z</time>
      </trkpt>
      <trkpt lat="40.767398" lon="-3.908985">
        <ele>1199.539</ele>
        <time>2021-07-29T20:39:53Z</time>
      </trkpt>
      <trkpt lat="40.767376" lon="-3.908992">
        <ele>1199.759</ele>
        <time>2021-07-29T20:39:55Z</time>
      </trkpt>
      <trkpt lat="40.767357" lon="-3.909003">
        <ele>1200.192</ele>
        <time>2021-07-29T20:39:57Z</time>
      </trkpt>
      <trkpt lat="40.767331" lon="-3.908995">
        <ele>1199.891</ele>
        <time>2021-07-29T20:39:59Z</time>
      </trkpt>
      <trkpt lat="40.767312" lon="-3.908988">
        <ele>1199.654</ele>
        <time>2021-07-29T20:40:01Z</time>
      </trkpt>
      <trkpt lat="40.767280" lon="-3.908966">
        <ele>1198.856</ele>
        <time>2021-07-29T20:40:04Z</time>
      </trkpt>
      <trkpt lat="40.767251" lon="-3.908947">
        <ele>1198.111</ele>
        <time>2021-07-29T20:40:06Z</time>
      </trkpt>
      <trkpt lat="40.767222" lon="-3.908922">
        <ele>1197.208</ele>
        <time>2021-07-29T20:40:08Z</time>
      </trkpt>
      <trkpt lat="40.767197" lon="-3.908892">
        <ele>1196.322</ele>
        <time>2021-07-29T20:40:12Z</time>
      </trkpt>
      <trkpt lat="40.767178" lon="-3.908872">
        <ele>1195.834</ele>
        <time>2021-07-29T20:40:14Z</time>
      </trkpt>
      <trkpt lat="40.767158" lon="-3.908858">
        <ele>1195.511</ele>
        <time>2021-07-29T20:40:16Z</time>
      </trkpt>
      <trkpt lat="40.767139" lon="-3.908837">
        <ele>1194.998</ele>
        <time>2021-07-29T20:40:18Z</time>
      </trkpt>
      <trkpt lat="40.767114" lon="-3.908805">
        <ele>1194.199</ele>
        <time>2021-07-29T20:40:20Z</time>
      </trkpt>
      <trkpt lat="40.767098" lon="-3.908792">
        <ele>1193.859</ele>
        <time>2021-07-29T20:40:22Z</time>
      </trkpt>
      <trkpt lat="40.767078" lon="-3.908788">
        <ele>1193.822</ele>
        <time>2021-07-29T20:40:24Z</time>
      </trkpt>
      <trkpt lat="40.767056" lon="-3.908785">
        <ele>1193.881</ele>
        <time>2021-07-29T20:40:26Z</time>
      </trkpt>
      <trkpt lat="40.767034" lon="-3.908780">
        <ele>1193.841</ele>
        <time>2021-07-29T20:40:28Z</time>
      </trkpt>
      <trkpt lat="40.767011" lon="-3.908772">
        <ele>1193.781</ele>
        <time>2021-07-29T20:40:30Z</time>
      </trkpt>
      <trkpt lat="40.766982" lon="-3.908770">
        <ele>1193.909</ele>
        <time>2021-07-29T20:40:32Z</time>
      </trkpt>
      <trkpt lat="40.766957" lon="-3.908764">
        <ele>1193.908</ele>
        <time>2021-07-29T20:40:35Z</time>
      </trkpt>
      <trkpt lat="40.766931" lon="-3.908757">
        <ele>1193.891</ele>
        <time>2021-07-29T20:40:37Z</time>
      </trkpt>
      <trkpt lat="40.766902" lon="-3.908750">
        <ele>1193.733</ele>
        <time>2021-07-29T20:40:39Z</time>
      </trkpt>
      <trkpt lat="40.766867" lon="-3.908733">
        <ele>1193.370</ele>
        <time>2021-07-29T20:40:41Z</time>
      </trkpt>
      <trkpt lat="40.766842" lon="-3.908722">
        <ele>1193.167</ele>
        <time>2021-07-29T20:40:43Z</time>
      </trkpt>
      <trkpt lat="40.766816" lon="-3.908713">
        <ele>1192.968</ele>
        <time>2021-07-29T20:40:45Z</time>
      </trkpt>
      <trkpt lat="40.766794" lon="-3.908700">
        <ele>1192.638</ele>
        <time>2021-07-29T20:40:47Z</time>
      </trkpt>
      <trkpt lat="40.766765" lon="-3.908697">
        <ele>1192.651</ele>
        <time>2021-07-29T20:40:49Z</time>
      </trkpt>
      <trkpt lat="40.766742" lon="-3.908693">
        <ele>1192.620</ele>
        <time>2021-07-29T20:40:51Z</time>
      </trkpt>
      <trkpt lat="40.766720" lon="-3.908693">
        <ele>1192.768</ele>
        <time>2021-07-29T20:40:53Z</time>
      </trkpt>
      <trkpt lat="40.766694" lon="-3.908687">
        <ele>1192.642</ele>
        <time>2021-07-29T20:40:55Z</time>
      </trkpt>
      <trkpt lat="40.766669" lon="-3.908680">
        <ele>1192.526</ele>
        <time>2021-07-29T20:40:57Z</time>
      </trkpt>
      <trkpt lat="40.766646" lon="-3.908673">
        <ele>1192.408</ele>
        <time>2021-07-29T20:40:59Z</time>
      </trkpt>
      <trkpt lat="40.766627" lon="-3.908665">
        <ele>1192.383</ele>
        <time>2021-07-29T20:41:01Z</time>
      </trkpt>
      <trkpt lat="40.766605" lon="-3.908658">
        <ele>1192.375</ele>
        <time>2021-07-29T20:41:03Z</time>
      </trkpt>
      <trkpt lat="40.766579" lon="-3.908653">
        <ele>1192.452</ele>
        <time>2021-07-29T20:41:05Z</time>
      </trkpt>
      <trkpt lat="40.766550" lon="-3.908655">
        <ele>1192.779</ele>
        <time>2021-07-29T20:41:07Z</time>
      </trkpt>
      <trkpt lat="40.766528" lon="-3.908645">
        <ele>1192.680</ele>
        <time>2021-07-29T20:41:09Z</time>
      </trkpt>
      <trkpt lat="40.766509" lon="-3.908640">
        <ele>1192.650</ele>
        <time>2021-07-29T20:41:11Z</time>
      </trkpt>
      <trkpt lat="40.766486" lon="-3.908632">
        <ele>1192.653</ele>
        <time>2021-07-29T20:41:13Z</time>
      </trkpt>
      <trkpt lat="40.766461" lon="-3.908616">
        <ele>1192.482</ele>
        <time>2021-07-29T20:41:15Z</time>
      </trkpt>
      <trkpt lat="40.766442" lon="-3.908618">
        <ele>1192.681</ele>
        <time>2021-07-29T20:41:17Z</time>
      </trkpt>
      <trkpt lat="40.766416" lon="-3.908620">
        <ele>1193.061</ele>
        <time>2021-07-29T20:41:19Z</time>
      </trkpt>
      <trkpt lat="40.766390" lon="-3.908620">
        <ele>1193.217</ele>
        <time>2021-07-29T20:41:21Z</time>
      </trkpt>
      <trkpt lat="40.766365" lon="-3.908613">
        <ele>1193.308</ele>
        <time>2021-07-29T20:41:23Z</time>
      </trkpt>
      <trkpt lat="40.766339" lon="-3.908598">
        <ele>1193.165</ele>
        <time>2021-07-29T20:41:25Z</time>
      </trkpt>
      <trkpt lat="40.766317" lon="-3.908588">
        <ele>1193.057</ele>
        <time>2021-07-29T20:41:27Z</time>
      </trkpt>
      <trkpt lat="40.766291" lon="-3.908578">
        <ele>1193.024</ele>
        <time>2021-07-29T20:41:29Z</time>
      </trkpt>
      <trkpt lat="40.766269" lon="-3.908567">
        <ele>1192.921</ele>
        <time>2021-07-29T20:41:31Z</time>
      </trkpt>
      <trkpt lat="40.766246" lon="-3.908558">
        <ele>1192.842</ele>
        <time>2021-07-29T20:41:33Z</time>
      </trkpt>
      <trkpt lat="40.766227" lon="-3.908553">
        <ele>1192.972</ele>
        <time>2021-07-29T20:41:35Z</time>
      </trkpt>
      <trkpt lat="40.766208" lon="-3.908547">
        <ele>1192.925</ele>
        <time>2021-07-29T20:41:36Z</time>
      </trkpt>
      <trkpt lat="40.766189" lon="-3.908535">
        <ele>1192.754</ele>
        <time>2021-07-29T20:41:37Z</time>
      </trkpt>
      <trkpt lat="40.766166" lon="-3.908520">
        <ele>1192.518</ele>
        <time>2021-07-29T20:41:38Z</time>
      </trkpt>
      <trkpt lat="40.766144" lon="-3.908507">
        <ele>1192.398</ele>
        <time>2021-07-29T20:41:40Z</time>
      </trkpt>
      <trkpt lat="40.766125" lon="-3.908488">
        <ele>1191.917</ele>
        <time>2021-07-29T20:41:43Z</time>
      </trkpt>
      <trkpt lat="40.766102" lon="-3.908466">
        <ele>1191.408</ele>
        <time>2021-07-29T20:41:46Z</time>
      </trkpt>
      <trkpt lat="40.766080" lon="-3.908454">
        <ele>1191.188</ele>
        <time>2021-07-29T20:41:48Z</time>
      </trkpt>
      <trkpt lat="40.766058" lon="-3.908442">
        <ele>1190.910</ele>
        <time>2021-07-29T20:41:50Z</time>
      </trkpt>
      <trkpt lat="40.766038" lon="-3.908428">
        <ele>1190.677</ele>
        <time>2021-07-29T20:41:52Z</time>
      </trkpt>
      <trkpt lat="40.766022" lon="-3.908417">
        <ele>1190.464</ele>
        <time>2021-07-29T20:41:53Z</time>
      </trkpt>
      <trkpt lat="40.765994" lon="-3.908403">
        <ele>1190.185</ele>
        <time>2021-07-29T20:41:55Z</time>
      </trkpt>
      <trkpt lat="40.765971" lon="-3.908388">
        <ele>1189.885</ele>
        <time>2021-07-29T20:41:57Z</time>
      </trkpt>
      <trkpt lat="40.765949" lon="-3.908390">
        <ele>1190.058</ele>
        <time>2021-07-29T20:41:59Z</time>
      </trkpt>
      <trkpt lat="40.765923" lon="-3.908380">
        <ele>1189.937</ele>
        <time>2021-07-29T20:42:01Z</time>
      </trkpt>
      <trkpt lat="40.765891" lon="-3.908367">
        <ele>1189.755</ele>
        <time>2021-07-29T20:42:03Z</time>
      </trkpt>
      <trkpt lat="40.765869" lon="-3.908365">
        <ele>1189.807</ele>
        <time>2021-07-29T20:42:05Z</time>
      </trkpt>
      <trkpt lat="40.765834" lon="-3.908348">
        <ele>1189.517</ele>
        <time>2021-07-29T20:42:07Z</time>
      </trkpt>
      <trkpt lat="40.765808" lon="-3.908347">
        <ele>1189.408</ele>
        <time>2021-07-29T20:42:09Z</time>
      </trkpt>
      <trkpt lat="40.765782" lon="-3.908352">
        <ele>1189.572</ele>
        <time>2021-07-29T20:42:11Z</time>
      </trkpt>
      <trkpt lat="40.765754" lon="-3.908363">
        <ele>1189.834</ele>
        <time>2021-07-29T20:42:13Z</time>
      </trkpt>
      <trkpt lat="40.765731" lon="-3.908368">
        <ele>1189.971</ele>
        <time>2021-07-29T20:42:15Z</time>
      </trkpt>
      <trkpt lat="40.765706" lon="-3.908373">
        <ele>1190.118</ele>
        <time>2021-07-29T20:42:17Z</time>
      </trkpt>
      <trkpt lat="40.765680" lon="-3.908368">
        <ele>1189.889</ele>
        <time>2021-07-29T20:42:19Z</time>
      </trkpt>
      <trkpt lat="40.765661" lon="-3.908363">
        <ele>1189.629</ele>
        <time>2021-07-29T20:42:21Z</time>
      </trkpt>
      <trkpt lat="40.765632" lon="-3.908362">
        <ele>1189.552</ele>
        <time>2021-07-29T20:42:23Z</time>
      </trkpt>
      <trkpt lat="40.765606" lon="-3.908368">
        <ele>1189.781</ele>
        <time>2021-07-29T20:42:25Z</time>
      </trkpt>
      <trkpt lat="40.765584" lon="-3.908373">
        <ele>1189.981</ele>
        <time>2021-07-29T20:42:27Z</time>
      </trkpt>
      <trkpt lat="40.765562" lon="-3.908367">
        <ele>1189.661</ele>
        <time>2021-07-29T20:42:28Z</time>
      </trkpt>
      <trkpt lat="40.765533" lon="-3.908360">
        <ele>1189.217</ele>
        <time>2021-07-29T20:42:30Z</time>
      </trkpt>
      <trkpt lat="40.765514" lon="-3.908353">
        <ele>1188.908</ele>
        <time>2021-07-29T20:42:32Z</time>
      </trkpt>
      <trkpt lat="40.765485" lon="-3.908348">
        <ele>1188.795</ele>
        <time>2021-07-29T20:42:34Z</time>
      </trkpt>
      <trkpt lat="40.765466" lon="-3.908347">
        <ele>1188.667</ele>
        <time>2021-07-29T20:42:36Z</time>
      </trkpt>
      <trkpt lat="40.765437" lon="-3.908347">
        <ele>1188.624</ele>
        <time>2021-07-29T20:42:38Z</time>
      </trkpt>
      <trkpt lat="40.765418" lon="-3.908347">
        <ele>1188.681</ele>
        <time>2021-07-29T20:42:39Z</time>
      </trkpt>
      <trkpt lat="40.765389" lon="-3.908347">
        <ele>1188.632</ele>
        <time>2021-07-29T20:42:41Z</time>
      </trkpt>
      <trkpt lat="40.765370" lon="-3.908352">
        <ele>1188.912</ele>
        <time>2021-07-29T20:42:43Z</time>
      </trkpt>
      <trkpt lat="40.765338" lon="-3.908352">
        <ele>1188.935</ele>
        <time>2021-07-29T20:42:45Z</time>
      </trkpt>
      <trkpt lat="40.765315" lon="-3.908360">
        <ele>1189.254</ele>
        <time>2021-07-29T20:42:47Z</time>
      </trkpt>
      <trkpt lat="40.765296" lon="-3.908352">
        <ele>1188.926</ele>
        <time>2021-07-29T20:42:48Z</time>
      </trkpt>
      <trkpt lat="40.765270" lon="-3.908342">
        <ele>1188.547</ele>
        <time>2021-07-29T20:42:50Z</time>
      </trkpt>
      <trkpt lat="40.765248" lon="-3.908348">
        <ele>1188.911</ele>
        <time>2021-07-29T20:42:52Z</time>
      </trkpt>
      <trkpt lat="40.765226" lon="-3.908362">
        <ele>1189.708</ele>
        <time>2021-07-29T20:42:54Z</time>
      </trkpt>
      <trkpt lat="40.765200" lon="-3.908375">
        <ele>1190.469</ele>
        <time>2021-07-29T20:42:56Z</time>
      </trkpt>
      <trkpt lat="40.765174" lon="-3.908388">
        <ele>1191.131</ele>
        <time>2021-07-29T20:42:58Z</time>
      </trkpt>
      <trkpt lat="40.765152" lon="-3.908398">
        <ele>1191.638</ele>
        <time>2021-07-29T20:43:00Z</time>
      </trkpt>
      <trkpt lat="40.765133" lon="-3.908412">
        <ele>1192.345</ele>
        <time>2021-07-29T20:43:02Z</time>
      </trkpt>
      <trkpt lat="40.765114" lon="-3.908417">
        <ele>1192.696</ele>
        <time>2021-07-29T20:43:04Z</time>
      </trkpt>
      <trkpt lat="40.765094" lon="-3.908425">
        <ele>1193.086</ele>
        <time>2021-07-29T20:43:06Z</time>
      </trkpt>
      <trkpt lat="40.765075" lon="-3.908428">
        <ele>1193.149</ele>
        <time>2021-07-29T20:43:08Z</time>
      </trkpt>
      <trkpt lat="40.765066" lon="-3.908403">
        <ele>1192.268</ele>
        <time>2021-07-29T20:43:21Z</time>
      </trkpt>
      <trkpt lat="40.765046" lon="-3.908395">
        <ele>1192.092</ele>
        <time>2021-07-29T20:43:25Z</time>
      </trkpt>
      <trkpt lat="40.765027" lon="-3.908380">
        <ele>1191.573</ele>
        <time>2021-07-29T20:43:54Z</time>
      </trkpt>
      <trkpt lat="40.765011" lon="-3.908357">
        <ele>1190.820</ele>
        <time>2021-07-29T20:43:56Z</time>
      </trkpt>
      <trkpt lat="40.765005" lon="-3.908328">
        <ele>1189.708</ele>
        <time>2021-07-29T20:43:58Z</time>
      </trkpt>
      <trkpt lat="40.765005" lon="-3.908288">
        <ele>1187.536</ele>
        <time>2021-07-29T20:44:00Z</time>
      </trkpt>
      <trkpt lat="40.764992" lon="-3.908252">
        <ele>1185.668</ele>
        <time>2021-07-29T20:44:02Z</time>
      </trkpt>
      <trkpt lat="40.764986" lon="-3.908222">
        <ele>1184.035</ele>
        <time>2021-07-29T20:44:04Z</time>
      </trkpt>
      <trkpt lat="40.764976" lon="-3.908185">
        <ele>1182.182</ele>
        <time>2021-07-29T20:44:06Z</time>
      </trkpt>
      <trkpt lat="40.764973" lon="-3.908155">
        <ele>1180.553</ele>
        <time>2021-07-29T20:44:08Z</time>
      </trkpt>
      <trkpt lat="40.764966" lon="-3.908132">
        <ele>1179.263</ele>
        <time>2021-07-29T20:44:10Z</time>
      </trkpt>
      <trkpt lat="40.764950" lon="-3.908105">
        <ele>1177.836</ele>
        <time>2021-07-29T20:44:20Z</time>
      </trkpt>
      <trkpt lat="40.764931" lon="-3.908100">
        <ele>1177.615</ele>
        <time>2021-07-29T20:44:25Z</time>
      </trkpt>
      <trkpt lat="40.764912" lon="-3.908080">
        <ele>1176.621</ele>
        <time>2021-07-29T20:44:27Z</time>
      </trkpt>
      <trkpt lat="40.764890" lon="-3.908082">
        <ele>1176.841</ele>
        <time>2021-07-29T20:44:32Z</time>
      </trkpt>
      <trkpt lat="40.764861" lon="-3.908074">
        <ele>1176.505</ele>
        <time>2021-07-29T20:44:38Z</time>
      </trkpt>
      <trkpt lat="40.764842" lon="-3.908058">
        <ele>1175.708</ele>
        <time>2021-07-29T20:44:40Z</time>
      </trkpt>
      <trkpt lat="40.764822" lon="-3.908050">
        <ele>1175.349</ele>
        <time>2021-07-29T20:44:42Z</time>
      </trkpt>
      <trkpt lat="40.764794" lon="-3.908047">
        <ele>1175.331</ele>
        <time>2021-07-29T20:44:46Z</time>
      </trkpt>
      <trkpt lat="40.764768" lon="-3.908023">
        <ele>1174.048</ele>
        <time>2021-07-29T20:44:48Z</time>
      </trkpt>
      <trkpt lat="40.764733" lon="-3.908005">
        <ele>1173.145</ele>
        <time>2021-07-29T20:44:50Z</time>
      </trkpt>
      <trkpt lat="40.764714" lon="-3.907995">
        <ele>1172.696</ele>
        <time>2021-07-29T20:44:51Z</time>
      </trkpt>
      <trkpt lat="40.764698" lon="-3.907983">
        <ele>1172.156</ele>
        <time>2021-07-29T20:44:52Z</time>
      </trkpt>
      <trkpt lat="40.764675" lon="-3.907955">
        <ele>1170.879</ele>
        <time>2021-07-29T20:44:54Z</time>
      </trkpt>
      <trkpt lat="40.764662" lon="-3.907933">
        <ele>1169.888</ele>
        <time>2021-07-29T20:44:55Z</time>
      </trkpt>
      <trkpt lat="40.764643" lon="-3.907916">
        <ele>1169.173</ele>
        <time>2021-07-29T20:44:56Z</time>
      </trkpt>
      <trkpt lat="40.764621" lon="-3.907912">
        <ele>1169.285</ele>
        <time>2021-07-29T20:44:57Z</time>
      </trkpt>
      <trkpt lat="40.764598" lon="-3.907895">
        <ele>1168.713</ele>
        <time>2021-07-29T20:44:58Z</time>
      </trkpt>
      <trkpt lat="40.764579" lon="-3.907894">
        <ele>1168.908</ele>
        <time>2021-07-29T20:45:00Z</time>
      </trkpt>
      <trkpt lat="40.764557" lon="-3.907894">
        <ele>1169.314</ele>
        <time>2021-07-29T20:45:02Z</time>
      </trkpt>
      <trkpt lat="40.764531" lon="-3.907880">
        <ele>1169.086</ele>
        <time>2021-07-29T20:45:05Z</time>
      </trkpt>
      <trkpt lat="40.764512" lon="-3.907870">
        <ele>1168.823</ele>
        <time>2021-07-29T20:45:06Z</time>
      </trkpt>
      <trkpt lat="40.764490" lon="-3.907872">
        <ele>1169.320</ele>
        <time>2021-07-29T20:45:09Z</time>
      </trkpt>
      <trkpt lat="40.764470" lon="-3.907868">
        <ele>1169.531</ele>
        <time>2021-07-29T20:45:12Z</time>
      </trkpt>
      <trkpt lat="40.764442" lon="-3.907853">
        <ele>1169.361</ele>
        <time>2021-07-29T20:45:15Z</time>
      </trkpt>
      <trkpt lat="40.764426" lon="-3.907842">
        <ele>1169.454</ele>
        <time>2021-07-29T20:45:16Z</time>
      </trkpt>
      <trkpt lat="40.764413" lon="-3.907825">
        <ele>1169.043</ele>
        <time>2021-07-29T20:45:17Z</time>
      </trkpt>
      <trkpt lat="40.764384" lon="-3.907820">
        <ele>1169.788</ele>
        <time>2021-07-29T20:45:19Z</time>
      </trkpt>
      <trkpt lat="40.764365" lon="-3.907802">
        <ele>1169.524</ele>
        <time>2021-07-29T20:45:22Z</time>
      </trkpt>
      <trkpt lat="40.764355" lon="-3.907780">
        <ele>1168.726</ele>
        <time>2021-07-29T20:45:24Z</time>
      </trkpt>
      <trkpt lat="40.764333" lon="-3.907758">
        <ele>1168.408</ele>
        <time>2021-07-29T20:45:26Z</time>
      </trkpt>
      <trkpt lat="40.764317" lon="-3.907747">
        <ele>1168.425</ele>
        <time>2021-07-29T20:45:28Z</time>
      </trkpt>
      <trkpt lat="40.764304" lon="-3.907717">
        <ele>1167.587</ele>
        <time>2021-07-29T20:45:31Z</time>
      </trkpt>
      <trkpt lat="40.764298" lon="-3.907680">
        <ele>1166.264</ele>
        <time>2021-07-29T20:45:33Z</time>
      </trkpt>
      <trkpt lat="40.764301" lon="-3.907647">
        <ele>1164.821</ele>
        <time>2021-07-29T20:45:35Z</time>
      </trkpt>
      <trkpt lat="40.764317" lon="-3.907628">
        <ele>1163.482</ele>
        <time>2021-07-29T20:45:37Z</time>
      </trkpt>
      <trkpt lat="40.764317" lon="-3.907658">
        <ele>1164.622</ele>
        <time>2021-07-29T20:45:38Z</time>
      </trkpt>
      <trkpt lat="40.764336" lon="-3.907687">
        <ele>1165.265</ele>
        <time>2021-07-29T20:45:41Z</time>
      </trkpt>
      <trkpt lat="40.764314" lon="-3.907663">
        <ele>1164.964</ele>
        <time>2021-07-29T20:46:14Z</time>
      </trkpt>
      <trkpt lat="40.764304" lon="-3.907642">
        <ele>1164.481</ele>
        <time>2021-07-29T20:46:15Z</time>
      </trkpt>
      <trkpt lat="40.764317" lon="-3.907622">
        <ele>1163.161</ele>
        <time>2021-07-29T20:46:16Z</time>
      </trkpt>
      <trkpt lat="40.764317" lon="-3.907588">
        <ele>1161.717</ele>
        <time>2021-07-29T20:46:19Z</time>
      </trkpt>
      <trkpt lat="40.764310" lon="-3.907558">
        <ele>1160.708</ele>
        <time>2021-07-29T20:46:21Z</time>
      </trkpt>
      <trkpt lat="40.764304" lon="-3.907535">
        <ele>1160.095</ele>
        <time>2021-07-29T20:46:23Z</time>
      </trkpt>
      <trkpt lat="40.764298" lon="-3.907503">
        <ele>1159.097</ele>
        <time>2021-07-29T20:46:33Z</time>
      </trkpt>
      <trkpt lat="40.764266" lon="-3.907485">
        <ele>1160.024</ele>
        <time>2021-07-29T20:46:37Z</time>
      </trkpt>
      <trkpt lat="40.764243" lon="-3.907470">
        <ele>1160.721</ele>
        <time>2021-07-29T20:46:41Z</time>
      </trkpt>
      <trkpt lat="40.764214" lon="-3.907452">
        <ele>1161.582</ele>
        <time>2021-07-29T20:46:43Z</time>
      </trkpt>
      <trkpt lat="40.764195" lon="-3.907448">
        <ele>1162.382</ele>
        <time>2021-07-29T20:46:44Z</time>
      </trkpt>
      <trkpt lat="40.764173" lon="-3.907432">
        <ele>1162.845</ele>
        <time>2021-07-29T20:46:46Z</time>
      </trkpt>
      <trkpt lat="40.764157" lon="-3.907410">
        <ele>1162.934</ele>
        <time>2021-07-29T20:46:48Z</time>
      </trkpt>
      <trkpt lat="40.764157" lon="-3.907384">
        <ele>1162.239</ele>
        <time>2021-07-29T20:46:52Z</time>
      </trkpt>
      <trkpt lat="40.764138" lon="-3.907375">
        <ele>1163.001</ele>
        <time>2021-07-29T20:46:55Z</time>
      </trkpt>
      <trkpt lat="40.764115" lon="-3.907378">
        <ele>1164.321</ele>
        <time>2021-07-29T20:46:57Z</time>
      </trkpt>
      <trkpt lat="40.764093" lon="-3.907360">
        <ele>1165.108</ele>
        <time>2021-07-29T20:47:02Z</time>
      </trkpt>
      <trkpt lat="40.764102" lon="-3.907335">
        <ele>1163.910</ele>
        <time>2021-07-29T20:47:04Z</time>
      </trkpt>
      <trkpt lat="40.764083" lon="-3.907338">
        <ele>1165.142</ele>
        <time>2021-07-29T20:47:07Z</time>
      </trkpt>
      <trkpt lat="40.764080" lon="-3.907367">
        <ele>1166.039</ele>
        <time>2021-07-29T20:47:23Z</time>
      </trkpt>
      <trkpt lat="40.764074" lon="-3.907340">
        <ele>1165.616</ele>
        <time>2021-07-29T20:47:41Z</time>
      </trkpt>
      <trkpt lat="40.764058" lon="-3.907308">
        <ele>1165.837</ele>
        <time>2021-07-29T20:47:43Z</time>
      </trkpt>
      <trkpt lat="40.764054" lon="-3.907268">
        <ele>1165.037</ele>
        <time>2021-07-29T20:47:45Z</time>
      </trkpt>
      <trkpt lat="40.764048" lon="-3.907236">
        <ele>1164.670</ele>
        <time>2021-07-29T20:47:47Z</time>
      </trkpt>
      <trkpt lat="40.764038" lon="-3.907215">
        <ele>1164.749</ele>
        <time>2021-07-29T20:47:50Z</time>
      </trkpt>
      <trkpt lat="40.764054" lon="-3.907192">
        <ele>1163.243</ele>
        <time>2021-07-29T20:47:54Z</time>
      </trkpt>
      <trkpt lat="40.764067" lon="-3.907173">
        <ele>1162.064</ele>
        <time>2021-07-29T20:47:57Z</time>
      </trkpt>
      <trkpt lat="40.764080" lon="-3.907140">
        <ele>1160.410</ele>
        <time>2021-07-29T20:48:02Z</time>
      </trkpt>
      <trkpt lat="40.764083" lon="-3.907113">
        <ele>1159.608</ele>
        <time>2021-07-29T20:48:04Z</time>
      </trkpt>
      <trkpt lat="40.764096" lon="-3.907085">
        <ele>1158.161</ele>
        <time>2021-07-29T20:48:06Z</time>
      </trkpt>
      <trkpt lat="40.764106" lon="-3.907063">
        <ele>1157.093</ele>
        <time>2021-07-29T20:48:08Z</time>
      </trkpt>
      <trkpt lat="40.764106" lon="-3.907027">
        <ele>1156.180</ele>
        <time>2021-07-29T20:48:11Z</time>
      </trkpt>
      <trkpt lat="40.764112" lon="-3.907004">
        <ele>1155.267</ele>
        <time>2021-07-29T20:48:13Z</time>
      </trkpt>
      <trkpt lat="40.764112" lon="-3.906968">
        <ele>1154.328</ele>
        <time>2021-07-29T20:48:16Z</time>
      </trkpt>
      <trkpt lat="40.764093" lon="-3.906943">
        <ele>1155.098</ele>
        <time>2021-07-29T20:48:18Z</time>
      </trkpt>
      <trkpt lat="40.764106" lon="-3.906913">
        <ele>1153.951</ele>
        <time>2021-07-29T20:48:20Z</time>
      </trkpt>
      <trkpt lat="40.764112" lon="-3.906878">
        <ele>1153.390</ele>
        <time>2021-07-29T20:48:22Z</time>
      </trkpt>
      <trkpt lat="40.764112" lon="-3.906850">
        <ele>1153.111</ele>
        <time>2021-07-29T20:48:24Z</time>
      </trkpt>
      <trkpt lat="40.764102" lon="-3.906823">
        <ele>1153.521</ele>
        <time>2021-07-29T20:48:26Z</time>
      </trkpt>
      <trkpt lat="40.764093" lon="-3.906788">
        <ele>1153.903</ele>
        <time>2021-07-29T20:48:28Z</time>
      </trkpt>
      <trkpt lat="40.764106" lon="-3.906750">
        <ele>1152.808</ele>
        <time>2021-07-29T20:48:32Z</time>
      </trkpt>
      <trkpt lat="40.764115" lon="-3.906718">
        <ele>1151.958</ele>
        <time>2021-07-29T20:48:34Z</time>
      </trkpt>
      <trkpt lat="40.764131" lon="-3.906698">
        <ele>1150.720</ele>
        <time>2021-07-29T20:48:36Z</time>
      </trkpt>
      <trkpt lat="40.764125" lon="-3.906675">
        <ele>1150.917</ele>
        <time>2021-07-29T20:48:38Z</time>
      </trkpt>
      <trkpt lat="40.764118" lon="-3.906635">
        <ele>1151.264</ele>
        <time>2021-07-29T20:48:41Z</time>
      </trkpt>
      <trkpt lat="40.764131" lon="-3.906618">
        <ele>1150.295</ele>
        <time>2021-07-29T20:48:43Z</time>
      </trkpt>
      <trkpt lat="40.764138" lon="-3.906592">
        <ele>1149.635</ele>
        <time>2021-07-29T20:48:45Z</time>
      </trkpt>
      <trkpt lat="40.764144" lon="-3.906550">
        <ele>1149.118</ele>
        <time>2021-07-29T20:48:47Z</time>
      </trkpt>
      <trkpt lat="40.764173" lon="-3.906457">
        <ele>1147.227</ele>
        <time>2021-07-29T20:48:54Z</time>
      </trkpt>
      <trkpt lat="40.764160" lon="-3.906412">
        <ele>1147.571</ele>
        <time>2021-07-29T20:48:56Z</time>
      </trkpt>
      <trkpt lat="40.764144" lon="-3.906393">
        <ele>1148.441</ele>
        <time>2021-07-29T20:48:57Z</time>
      </trkpt>
      <trkpt lat="40.764134" lon="-3.906358">
        <ele>1148.815</ele>
        <time>2021-07-29T20:48:58Z</time>
      </trkpt>
      <trkpt lat="40.764112" lon="-3.906332">
        <ele>1149.908</ele>
        <time>2021-07-29T20:49:00Z</time>
      </trkpt>
      <trkpt lat="40.764102" lon="-3.906292">
        <ele>1150.374</ele>
        <time>2021-07-29T20:49:02Z</time>
      </trkpt>
      <trkpt lat="40.764102" lon="-3.906265">
        <ele>1150.146</ele>
        <time>2021-07-29T20:49:04Z</time>
      </trkpt>
      <trkpt lat="40.764086" lon="-3.906237">
        <ele>1150.813</ele>
        <time>2021-07-29T20:49:06Z</time>
      </trkpt>
      <trkpt lat="40.764096" lon="-3.906198">
        <ele>1150.020</ele>
        <time>2021-07-29T20:49:09Z</time>
      </trkpt>
      <trkpt lat="40.764093" lon="-3.906163">
        <ele>1149.961</ele>
        <time>2021-07-29T20:49:11Z</time>
      </trkpt>
      <trkpt lat="40.764074" lon="-3.906132">
        <ele>1150.811</ele>
        <time>2021-07-29T20:49:14Z</time>
      </trkpt>
      <trkpt lat="40.764064" lon="-3.906100">
        <ele>1151.254</ele>
        <time>2021-07-29T20:49:16Z</time>
      </trkpt>
      <trkpt lat="40.764067" lon="-3.906072">
        <ele>1150.863</ele>
        <time>2021-07-29T20:49:18Z</time>
      </trkpt>
      <trkpt lat="40.764061" lon="-3.906042">
        <ele>1150.972</ele>
        <time>2021-07-29T20:49:20Z</time>
      </trkpt>
      <trkpt lat="40.764045" lon="-3.906008">
        <ele>1151.513</ele>
        <time>2021-07-29T20:49:23Z</time>
      </trkpt>
      <trkpt lat="40.764026" lon="-3.905980">
        <ele>1152.414</ele>
        <time>2021-07-29T20:49:25Z</time>
      </trkpt>
      <trkpt lat="40.764000" lon="-3.905964">
        <ele>1153.808</ele>
        <time>2021-07-29T20:49:27Z</time>
      </trkpt>
      <trkpt lat="40.763987" lon="-3.905938">
        <ele>1154.394</ele>
        <time>2021-07-29T20:49:29Z</time>
      </trkpt>
      <trkpt lat="40.763981" lon="-3.905902">
        <ele>1154.446</ele>
        <time>2021-07-29T20:49:31Z</time>
      </trkpt>
      <trkpt lat="40.763974" lon="-3.905875">
        <ele>1154.583</ele>
        <time>2021-07-29T20:49:33Z</time>
      </trkpt>
      <trkpt lat="40.763965" lon="-3.905848">
        <ele>1154.890</ele>
        <time>2021-07-29T20:49:35Z</time>
      </trkpt>
      <trkpt lat="40.763949" lon="-3.905816">
        <ele>1155.371</ele>
        <time>2021-07-29T20:49:37Z</time>
      </trkpt>
      <trkpt lat="40.763933" lon="-3.905796">
        <ele>1155.911</ele>
        <time>2021-07-29T20:49:39Z</time>
      </trkpt>
      <trkpt lat="40.763923" lon="-3.905772">
        <ele>1156.074</ele>
        <time>2021-07-29T20:49:41Z</time>
      </trkpt>
      <trkpt lat="40.763920" lon="-3.905733">
        <ele>1155.573</ele>
        <time>2021-07-29T20:49:43Z</time>
      </trkpt>
      <trkpt lat="40.763917" lon="-3.905700">
        <ele>1155.162</ele>
        <time>2021-07-29T20:49:48Z</time>
      </trkpt>
      <trkpt lat="40.763917" lon="-3.905666">
        <ele>1154.683</ele>
        <time>2021-07-29T20:49:50Z</time>
      </trkpt>
      <trkpt lat="40.763901" lon="-3.905647">
        <ele>1155.011</ele>
        <time>2021-07-29T20:49:52Z</time>
      </trkpt>
      <trkpt lat="40.763878" lon="-3.905624">
        <ele>1155.708</ele>
        <time>2021-07-29T20:49:54Z</time>
      </trkpt>
      <trkpt lat="40.763859" lon="-3.905610">
        <ele>1156.363</ele>
        <time>2021-07-29T20:49:56Z</time>
      </trkpt>
      <trkpt lat="40.763834" lon="-3.905602">
        <ele>1157.265</ele>
        <time>2021-07-29T20:49:59Z</time>
      </trkpt>
      <trkpt lat="40.763808" lon="-3.905582">
        <ele>1158.092</ele>
        <time>2021-07-29T20:50:01Z</time>
      </trkpt>
      <trkpt lat="40.763805" lon="-3.905555">
        <ele>1157.649</ele>
        <time>2021-07-29T20:50:03Z</time>
      </trkpt>
      <trkpt lat="40.763808" lon="-3.905515">
        <ele>1156.740</ele>
        <time>2021-07-29T20:50:05Z</time>
      </trkpt>
      <trkpt lat="40.763802" lon="-3.905482">
        <ele>1156.390</ele>
        <time>2021-07-29T20:50:07Z</time>
      </trkpt>
      <trkpt lat="40.763789" lon="-3.905462">
        <ele>1156.553</ele>
        <time>2021-07-29T20:50:09Z</time>
      </trkpt>
      <trkpt lat="40.763789" lon="-3.905425">
        <ele>1155.852</ele>
        <time>2021-07-29T20:50:12Z</time>
      </trkpt>
      <trkpt lat="40.763782" lon="-3.905400">
        <ele>1155.641</ele>
        <time>2021-07-29T20:50:15Z</time>
      </trkpt>
      <trkpt lat="40.763770" lon="-3.905370">
        <ele>1155.581</ele>
        <time>2021-07-29T20:50:18Z</time>
      </trkpt>
      <trkpt lat="40.763763" lon="-3.905342">
        <ele>1155.209</ele>
        <time>2021-07-29T20:50:21Z</time>
      </trkpt>
      <trkpt lat="40.763747" lon="-3.905322">
        <ele>1155.508</ele>
        <time>2021-07-29T20:50:23Z</time>
      </trkpt>
      <trkpt lat="40.763728" lon="-3.905320">
        <ele>1156.221</ele>
        <time>2021-07-29T20:50:29Z</time>
      </trkpt>
      <trkpt lat="40.763686" lon="-3.905294">
        <ele>1157.473</ele>
        <time>2021-07-29T20:50:31Z</time>
      </trkpt>
      <trkpt lat="40.763690" lon="-3.905267">
        <ele>1156.640</ele>
        <time>2021-07-29T20:50:34Z</time>
      </trkpt>
      <trkpt lat="40.763677" lon="-3.905245">
        <ele>1156.727</ele>
        <time>2021-07-29T20:50:37Z</time>
      </trkpt>
      <trkpt lat="40.763661" lon="-3.905223">
        <ele>1156.818</ele>
        <time>2021-07-29T20:50:39Z</time>
      </trkpt>
      <trkpt lat="40.763645" lon="-3.905203">
        <ele>1157.018</ele>
        <time>2021-07-29T20:50:41Z</time>
      </trkpt>
      <trkpt lat="40.763645" lon="-3.905168">
        <ele>1156.281</ele>
        <time>2021-07-29T20:50:44Z</time>
      </trkpt>
      <trkpt lat="40.763622" lon="-3.905148">
        <ele>1156.740</ele>
        <time>2021-07-29T20:50:47Z</time>
      </trkpt>
      <trkpt lat="40.763606" lon="-3.905116">
        <ele>1156.576</ele>
        <time>2021-07-29T20:50:50Z</time>
      </trkpt>
      <trkpt lat="40.763590" lon="-3.905084">
        <ele>1156.090</ele>
        <time>2021-07-29T20:50:53Z</time>
      </trkpt>
      <trkpt lat="40.763565" lon="-3.905060">
        <ele>1155.719</ele>
        <time>2021-07-29T20:50:57Z</time>
      </trkpt>
      <trkpt lat="40.763549" lon="-3.905033">
        <ele>1155.208</ele>
        <time>2021-07-29T20:51:00Z</time>
      </trkpt>
      <trkpt lat="40.763526" lon="-3.905008">
        <ele>1154.884</ele>
        <time>2021-07-29T20:51:03Z</time>
      </trkpt>
      <trkpt lat="40.763510" lon="-3.904997">
        <ele>1154.676</ele>
        <time>2021-07-29T20:51:05Z</time>
      </trkpt>
      <trkpt lat="40.763491" lon="-3.904980">
        <ele>1154.343</ele>
        <time>2021-07-29T20:51:07Z</time>
      </trkpt>
      <trkpt lat="40.763472" lon="-3.904973">
        <ele>1154.280</ele>
        <time>2021-07-29T20:51:10Z</time>
      </trkpt>
      <trkpt lat="40.763450" lon="-3.904962">
        <ele>1154.081</ele>
        <time>2021-07-29T20:51:12Z</time>
      </trkpt>
      <trkpt lat="40.763424" lon="-3.904940">
        <ele>1153.591</ele>
        <time>2021-07-29T20:51:15Z</time>
      </trkpt>
      <trkpt lat="40.763405" lon="-3.904925">
        <ele>1153.134</ele>
        <time>2021-07-29T20:51:17Z</time>
      </trkpt>
      <trkpt lat="40.763382" lon="-3.904925">
        <ele>1153.383</ele>
        <time>2021-07-29T20:51:20Z</time>
      </trkpt>
      <trkpt lat="40.763360" lon="-3.904902">
        <ele>1152.799</ele>
        <time>2021-07-29T20:51:29Z</time>
      </trkpt>
      <trkpt lat="40.763338" lon="-3.904893">
        <ele>1152.507</ele>
        <time>2021-07-29T20:51:31Z</time>
      </trkpt>
      <trkpt lat="40.763312" lon="-3.904888">
        <ele>1152.327</ele>
        <time>2021-07-29T20:51:32Z</time>
      </trkpt>
      <trkpt lat="40.763290" lon="-3.904885">
        <ele>1152.108</ele>
        <time>2021-07-29T20:51:34Z</time>
      </trkpt>
      <trkpt lat="40.763274" lon="-3.904872">
        <ele>1151.566</ele>
        <time>2021-07-29T20:51:36Z</time>
      </trkpt>
      <trkpt lat="40.763251" lon="-3.904845">
        <ele>1150.518</ele>
        <time>2021-07-29T20:51:39Z</time>
      </trkpt>
      <trkpt lat="40.763232" lon="-3.904833">
        <ele>1150.025</ele>
        <time>2021-07-29T20:51:40Z</time>
      </trkpt>
      <trkpt lat="40.763206" lon="-3.904813">
        <ele>1149.232</ele>
        <time>2021-07-29T20:51:42Z</time>
      </trkpt>
      <trkpt lat="40.763190" lon="-3.904802">
        <ele>1148.733</ele>
        <time>2021-07-29T20:51:45Z</time>
      </trkpt>
      <trkpt lat="40.763181" lon="-3.904778">
        <ele>1147.813</ele>
        <time>2021-07-29T20:51:48Z</time>
      </trkpt>
      <trkpt lat="40.763162" lon="-3.904765">
        <ele>1147.286</ele>
        <time>2021-07-29T20:51:50Z</time>
      </trkpt>
      <trkpt lat="40.763142" lon="-3.904760">
        <ele>1146.965</ele>
        <time>2021-07-29T20:51:52Z</time>
      </trkpt>
      <trkpt lat="40.763123" lon="-3.904770">
        <ele>1147.289</ele>
        <time>2021-07-29T20:51:54Z</time>
      </trkpt>
      <trkpt lat="40.763101" lon="-3.904756">
        <ele>1146.506</ele>
        <time>2021-07-29T20:51:58Z</time>
      </trkpt>
      <trkpt lat="40.763082" lon="-3.904736">
        <ele>1145.726</ele>
        <time>2021-07-29T20:52:00Z</time>
      </trkpt>
      <trkpt lat="40.763062" lon="-3.904735">
        <ele>1145.508</ele>
        <time>2021-07-29T20:52:06Z</time>
      </trkpt>
      <trkpt lat="40.763040" lon="-3.904725">
        <ele>1144.995</ele>
        <time>2021-07-29T20:52:09Z</time>
      </trkpt>
      <trkpt lat="40.763021" lon="-3.904722">
        <ele>1144.647</ele>
        <time>2021-07-29T20:52:13Z</time>
      </trkpt>
      <trkpt lat="40.763002" lon="-3.904724">
        <ele>1144.534</ele>
        <time>2021-07-29T20:52:15Z</time>
      </trkpt>
      <trkpt lat="40.762982" lon="-3.904718">
        <ele>1144.151</ele>
        <time>2021-07-29T20:52:17Z</time>
      </trkpt>
      <trkpt lat="40.762966" lon="-3.904707">
        <ele>1143.592</ele>
        <time>2021-07-29T20:52:20Z</time>
      </trkpt>
      <trkpt lat="40.762947" lon="-3.904703">
        <ele>1143.232</ele>
        <time>2021-07-29T20:52:22Z</time>
      </trkpt>
      <trkpt lat="40.762931" lon="-3.904715">
        <ele>1143.435</ele>
        <time>2021-07-29T20:52:26Z</time>
      </trkpt>
      <trkpt lat="40.762915" lon="-3.904732">
        <ele>1143.824</ele>
        <time>2021-07-29T20:52:28Z</time>
      </trkpt>
      <trkpt lat="40.762893" lon="-3.904746">
        <ele>1144.028</ele>
        <time>2021-07-29T20:52:30Z</time>
      </trkpt>
      <trkpt lat="40.762867" lon="-3.904783">
        <ele>1145.089</ele>
        <time>2021-07-29T20:52:32Z</time>
      </trkpt>
      <trkpt lat="40.762848" lon="-3.904788">
        <ele>1144.917</ele>
        <time>2021-07-29T20:52:33Z</time>
      </trkpt>
      <trkpt lat="40.762816" lon="-3.904788">
        <ele>1144.608</ele>
        <time>2021-07-29T20:52:35Z</time>
      </trkpt>
      <trkpt lat="40.762797" lon="-3.904790">
        <ele>1144.449</ele>
        <time>2021-07-29T20:52:36Z</time>
      </trkpt>
      <trkpt lat="40.762774" lon="-3.904805">
        <ele>1144.651</ele>
        <time>2021-07-29T20:52:38Z</time>
      </trkpt>
      <trkpt lat="40.762749" lon="-3.904840">
        <ele>1145.058</ele>
        <time>2021-07-29T20:52:40Z</time>
      </trkpt>
      <trkpt lat="40.762730" lon="-3.904847">
        <ele>1144.625</ele>
        <time>2021-07-29T20:52:41Z</time>
      </trkpt>
      <trkpt lat="40.762707" lon="-3.904870">
        <ele>1144.846</ele>
        <time>2021-07-29T20:52:43Z</time>
      </trkpt>
      <trkpt lat="40.762688" lon="-3.904892">
        <ele>1145.046</ele>
        <time>2021-07-29T20:52:45Z</time>
      </trkpt>
      <trkpt lat="40.762666" lon="-3.904888">
        <ele>1144.289</ele>
        <time>2021-07-29T20:52:47Z</time>
      </trkpt>
      <trkpt lat="40.762646" lon="-3.904885">
        <ele>1143.698</ele>
        <time>2021-07-29T20:52:48Z</time>
      </trkpt>
      <trkpt lat="40.762630" lon="-3.904907">
        <ele>1143.975</ele>
        <time>2021-07-29T20:52:52Z</time>
      </trkpt>
      <trkpt lat="40.762611" lon="-3.904920">
        <ele>1143.928</ele>
        <time>2021-07-29T20:52:55Z</time>
      </trkpt>
      <trkpt lat="40.762589" lon="-3.904956">
        <ele>1144.620</ele>
        <time>2021-07-29T20:52:57Z</time>
      </trkpt>
      <trkpt lat="40.762573" lon="-3.904992">
        <ele>1145.508</ele>
        <time>2021-07-29T20:53:00Z</time>
      </trkpt>
      <trkpt lat="40.762550" lon="-3.905008">
        <ele>1145.594</ele>
        <time>2021-07-29T20:53:02Z</time>
      </trkpt>
      <trkpt lat="40.762525" lon="-3.904997">
        <ele>1144.586</ele>
        <time>2021-07-29T20:53:04Z</time>
      </trkpt>
      <trkpt lat="40.762509" lon="-3.905017">
        <ele>1144.733</ele>
        <time>2021-07-29T20:53:07Z</time>
      </trkpt>
      <trkpt lat="40.762499" lon="-3.905042">
        <ele>1145.090</ele>
        <time>2021-07-29T20:53:08Z</time>
      </trkpt>
      <trkpt lat="40.762493" lon="-3.905068">
        <ele>1145.551</ele>
        <time>2021-07-29T20:53:09Z</time>
      </trkpt>
      <trkpt lat="40.762486" lon="-3.905092">
        <ele>1145.891</ele>
        <time>2021-07-29T20:53:10Z</time>
      </trkpt>
      <trkpt lat="40.762464" lon="-3.905105">
        <ele>1145.414</ele>
        <time>2021-07-29T20:53:12Z</time>
      </trkpt>
      <trkpt lat="40.762435" lon="-3.905112">
        <ele>1144.583</ele>
        <time>2021-07-29T20:53:14Z</time>
      </trkpt>
      <trkpt lat="40.762416" lon="-3.905116">
        <ele>1144.047</ele>
        <time>2021-07-29T20:53:16Z</time>
      </trkpt>
      <trkpt lat="40.762384" lon="-3.905123">
        <ele>1143.129</ele>
        <time>2021-07-29T20:53:18Z</time>
      </trkpt>
      <trkpt lat="40.762400" lon="-3.905245">
        <ele>1147.221</ele>
        <time>2021-07-29T20:53:25Z</time>
      </trkpt>
      <trkpt lat="40.762378" lon="-3.905248">
        <ele>1146.608</ele>
        <time>2021-07-29T20:53:27Z</time>
      </trkpt>
      <trkpt lat="40.762352" lon="-3.905250">
        <ele>1145.921</ele>
        <time>2021-07-29T20:53:29Z</time>
      </trkpt>
      <trkpt lat="40.762326" lon="-3.905262">
        <ele>1145.573</ele>
        <time>2021-07-29T20:53:31Z</time>
      </trkpt>
      <trkpt lat="40.762310" lon="-3.905277">
        <ele>1145.540</ele>
        <time>2021-07-29T20:53:32Z</time>
      </trkpt>
      <trkpt lat="40.762294" lon="-3.905292">
        <ele>1145.597</ele>
        <time>2021-07-29T20:53:36Z</time>
      </trkpt>
      <trkpt lat="40.762278" lon="-3.905272">
        <ele>1144.468</ele>
        <time>2021-07-29T20:53:43Z</time>
      </trkpt>
      <trkpt lat="40.762259" lon="-3.905297">
        <ele>1144.638</ele>
        <time>2021-07-29T20:53:47Z</time>
      </trkpt>
      <trkpt lat="40.762246" lon="-3.905318">
        <ele>1144.841</ele>
        <time>2021-07-29T20:53:50Z</time>
      </trkpt>
      <trkpt lat="40.762218" lon="-3.905338">
        <ele>1144.670</ele>
        <time>2021-07-29T20:54:00Z</time>
      </trkpt>
      <trkpt lat="40.762195" lon="-3.905353">
        <ele>1144.495</ele>
        <time>2021-07-29T20:54:03Z</time>
      </trkpt>
      <trkpt lat="40.762170" lon="-3.905365">
        <ele>1144.149</ele>
        <time>2021-07-29T20:54:05Z</time>
      </trkpt>
      <trkpt lat="40.762154" lon="-3.905387">
        <ele>1144.323</ele>
        <time>2021-07-29T20:54:07Z</time>
      </trkpt>
      <trkpt lat="40.762131" lon="-3.905403">
        <ele>1144.108</ele>
        <time>2021-07-29T20:54:09Z</time>
      </trkpt>
      <trkpt lat="40.762112" lon="-3.905430">
        <ele>1144.466</ele>
        <time>2021-07-29T20:54:11Z</time>
      </trkpt>
      <trkpt lat="40.762096" lon="-3.905450">
        <ele>1144.658</ele>
        <time>2021-07-29T20:54:13Z</time>
      </trkpt>
      <trkpt lat="40.762074" lon="-3.905468">
        <ele>1144.685</ele>
        <time>2021-07-29T20:54:15Z</time>
      </trkpt>
      <trkpt lat="40.762051" lon="-3.905482">
        <ele>1144.462</ele>
        <time>2021-07-29T20:54:17Z</time>
      </trkpt>
      <trkpt lat="40.762032" lon="-3.905495">
        <ele>1144.363</ele>
        <time>2021-07-29T20:54:19Z</time>
      </trkpt>
      <trkpt lat="40.762010" lon="-3.905510">
        <ele>1144.273</ele>
        <time>2021-07-29T20:54:21Z</time>
      </trkpt>
      <trkpt lat="40.761987" lon="-3.905517">
        <ele>1143.876</ele>
        <time>2021-07-29T20:54:23Z</time>
      </trkpt>
      <trkpt lat="40.761962" lon="-3.905528">
        <ele>1143.645</ele>
        <time>2021-07-29T20:54:25Z</time>
      </trkpt>
      <trkpt lat="40.761939" lon="-3.905528">
        <ele>1143.018</ele>
        <time>2021-07-29T20:54:27Z</time>
      </trkpt>
      <trkpt lat="40.761917" lon="-3.905532">
        <ele>1142.898</ele>
        <time>2021-07-29T20:54:29Z</time>
      </trkpt>
      <trkpt lat="40.761891" lon="-3.905525">
        <ele>1142.317</ele>
        <time>2021-07-29T20:54:31Z</time>
      </trkpt>
      <trkpt lat="40.761869" lon="-3.905512">
        <ele>1141.508</ele>
        <time>2021-07-29T20:54:33Z</time>
      </trkpt>
      <trkpt lat="40.761840" lon="-3.905496">
        <ele>1140.648</ele>
        <time>2021-07-29T20:54:36Z</time>
      </trkpt>
      <trkpt lat="40.761818" lon="-3.905490">
        <ele>1140.270</ele>
        <time>2021-07-29T20:54:38Z</time>
      </trkpt>
      <trkpt lat="40.761798" lon="-3.905482">
        <ele>1139.677</ele>
        <time>2021-07-29T20:54:39Z</time>
      </trkpt>
      <trkpt lat="40.761776" lon="-3.905480">
        <ele>1139.314</ele>
        <time>2021-07-29T20:54:41Z</time>
      </trkpt>
      <trkpt lat="40.761757" lon="-3.905476">
        <ele>1138.955</ele>
        <time>2021-07-29T20:54:43Z</time>
      </trkpt>
      <trkpt lat="40.761731" lon="-3.905455">
        <ele>1137.955</ele>
        <time>2021-07-29T20:54:45Z</time>
      </trkpt>
      <trkpt lat="40.761709" lon="-3.905438">
        <ele>1137.258</ele>
        <time>2021-07-29T20:54:46Z</time>
      </trkpt>
      <trkpt lat="40.761680" lon="-3.905425">
        <ele>1136.447</ele>
        <time>2021-07-29T20:54:48Z</time>
      </trkpt>
      <trkpt lat="40.761658" lon="-3.905425">
        <ele>1136.176</ele>
        <time>2021-07-29T20:54:50Z</time>
      </trkpt>
      <trkpt lat="40.761642" lon="-3.905446">
        <ele>1136.490</ele>
        <time>2021-07-29T20:54:52Z</time>
      </trkpt>
      <trkpt lat="40.761626" lon="-3.905460">
        <ele>1136.519</ele>
        <time>2021-07-29T20:54:54Z</time>
      </trkpt>
      <trkpt lat="40.761600" lon="-3.905465">
        <ele>1136.108</ele>
        <time>2021-07-29T20:54:56Z</time>
      </trkpt>
      <trkpt lat="40.761581" lon="-3.905463">
        <ele>1135.784</ele>
        <time>2021-07-29T20:54:57Z</time>
      </trkpt>
      <trkpt lat="40.761558" lon="-3.905472">
        <ele>1135.566</ele>
        <time>2021-07-29T20:54:59Z</time>
      </trkpt>
      <trkpt lat="40.761533" lon="-3.905482">
        <ele>1135.383</ele>
        <time>2021-07-29T20:55:02Z</time>
      </trkpt>
      <trkpt lat="40.761498" lon="-3.905478">
        <ele>1134.680</ele>
        <time>2021-07-29T20:55:04Z</time>
      </trkpt>
      <trkpt lat="40.761478" lon="-3.905488">
        <ele>1134.531</ele>
        <time>2021-07-29T20:55:06Z</time>
      </trkpt>
      <trkpt lat="40.761446" lon="-3.905492">
        <ele>1134.051</ele>
        <time>2021-07-29T20:55:08Z</time>
      </trkpt>
      <trkpt lat="40.761424" lon="-3.905488">
        <ele>1133.534</ele>
        <time>2021-07-29T20:55:09Z</time>
      </trkpt>
      <trkpt lat="40.761395" lon="-3.905482">
        <ele>1132.773</ele>
        <time>2021-07-29T20:55:11Z</time>
      </trkpt>
      <trkpt lat="40.761376" lon="-3.905502">
        <ele>1133.022</ele>
        <time>2021-07-29T20:55:14Z</time>
      </trkpt>
      <trkpt lat="40.761357" lon="-3.905515">
        <ele>1133.062</ele>
        <time>2021-07-29T20:55:16Z</time>
      </trkpt>
      <trkpt lat="40.761338" lon="-3.905505">
        <ele>1132.308</ele>
        <time>2021-07-29T20:55:17Z</time>
      </trkpt>
      <trkpt lat="40.761318" lon="-3.905498">
        <ele>1131.708</ele>
        <time>2021-07-29T20:55:18Z</time>
      </trkpt>
      <trkpt lat="40.761299" lon="-3.905492">
        <ele>1131.139</ele>
        <time>2021-07-29T20:55:19Z</time>
      </trkpt>
      <trkpt lat="40.761280" lon="-3.905483">
        <ele>1130.481</ele>
        <time>2021-07-29T20:55:20Z</time>
      </trkpt>
      <trkpt lat="40.761261" lon="-3.905485">
        <ele>1130.128</ele>
        <time>2021-07-29T20:55:22Z</time>
      </trkpt>
      <trkpt lat="40.761235" lon="-3.905493">
        <ele>1129.895</ele>
        <time>2021-07-29T20:55:24Z</time>
      </trkpt>
      <trkpt lat="40.761203" lon="-3.905507">
        <ele>1129.516</ele>
        <time>2021-07-29T20:55:26Z</time>
      </trkpt>
      <trkpt lat="40.761184" lon="-3.905512">
        <ele>1129.396</ele>
        <time>2021-07-29T20:55:28Z</time>
      </trkpt>
      <trkpt lat="40.761165" lon="-3.905523">
        <ele>1129.249</ele>
        <time>2021-07-29T20:55:30Z</time>
      </trkpt>
      <trkpt lat="40.761142" lon="-3.905542">
        <ele>1129.338</ele>
        <time>2021-07-29T20:55:32Z</time>
      </trkpt>
      <trkpt lat="40.761114" lon="-3.905553">
        <ele>1129.034</ele>
        <time>2021-07-29T20:55:34Z</time>
      </trkpt>
      <trkpt lat="40.761098" lon="-3.905565">
        <ele>1129.155</ele>
        <time>2021-07-29T20:55:35Z</time>
      </trkpt>
      <trkpt lat="40.761085" lon="-3.905587">
        <ele>1129.510</ele>
        <time>2021-07-29T20:55:38Z</time>
      </trkpt>
      <trkpt lat="40.761062" lon="-3.905598">
        <ele>1129.408</ele>
        <time>2021-07-29T20:55:41Z</time>
      </trkpt>
      <trkpt lat="40.761046" lon="-3.905614">
        <ele>1129.680</ele>
        <time>2021-07-29T20:55:44Z</time>
      </trkpt>
      <trkpt lat="40.761027" lon="-3.905618">
        <ele>1129.472</ele>
        <time>2021-07-29T20:55:52Z</time>
      </trkpt>
      <trkpt lat="40.761002" lon="-3.905635">
        <ele>1129.489</ele>
        <time>2021-07-29T20:55:55Z</time>
      </trkpt>
      <trkpt lat="40.760982" lon="-3.905654">
        <ele>1129.576</ele>
        <time>2021-07-29T20:55:57Z</time>
      </trkpt>
      <trkpt lat="40.760963" lon="-3.905672">
        <ele>1129.777</ele>
        <time>2021-07-29T20:55:59Z</time>
      </trkpt>
      <trkpt lat="40.760944" lon="-3.905695">
        <ele>1129.957</ele>
        <time>2021-07-29T20:56:01Z</time>
      </trkpt>
      <trkpt lat="40.760925" lon="-3.905702">
        <ele>1129.720</ele>
        <time>2021-07-29T20:56:03Z</time>
      </trkpt>
      <trkpt lat="40.760896" lon="-3.905712">
        <ele>1129.339</ele>
        <time>2021-07-29T20:56:05Z</time>
      </trkpt>
      <trkpt lat="40.760870" lon="-3.905728">
        <ele>1129.296</ele>
        <time>2021-07-29T20:56:07Z</time>
      </trkpt>
      <trkpt lat="40.760848" lon="-3.905753">
        <ele>1129.331</ele>
        <time>2021-07-29T20:56:10Z</time>
      </trkpt>
      <trkpt lat="40.760826" lon="-3.905757">
        <ele>1129.024</ele>
        <time>2021-07-29T20:56:12Z</time>
      </trkpt>
      <trkpt lat="40.760797" lon="-3.905760">
        <ele>1128.708</ele>
        <time>2021-07-29T20:56:14Z</time>
      </trkpt>
      <trkpt lat="40.760778" lon="-3.905743">
        <ele>1128.036</ele>
        <time>2021-07-29T20:56:15Z</time>
      </trkpt>
      <trkpt lat="40.760762" lon="-3.905730">
        <ele>1127.468</ele>
        <time>2021-07-29T20:56:16Z</time>
      </trkpt>
      <trkpt lat="40.760736" lon="-3.905732">
        <ele>1127.115</ele>
        <time>2021-07-29T20:56:18Z</time>
      </trkpt>
      <trkpt lat="40.760717" lon="-3.905735">
        <ele>1127.032</ele>
        <time>2021-07-29T20:56:19Z</time>
      </trkpt>
      <trkpt lat="40.760698" lon="-3.905743">
        <ele>1126.943</ele>
        <time>2021-07-29T20:56:21Z</time>
      </trkpt>
      <trkpt lat="40.760669" lon="-3.905740">
        <ele>1126.553</ele>
        <time>2021-07-29T20:56:24Z</time>
      </trkpt>
      <trkpt lat="40.760650" lon="-3.905760">
        <ele>1126.876</ele>
        <time>2021-07-29T20:56:27Z</time>
      </trkpt>
      <trkpt lat="40.760630" lon="-3.905762">
        <ele>1126.615</ele>
        <time>2021-07-29T20:56:29Z</time>
      </trkpt>
      <trkpt lat="40.760611" lon="-3.905760">
        <ele>1126.399</ele>
        <time>2021-07-29T20:56:31Z</time>
      </trkpt>
      <trkpt lat="40.760592" lon="-3.905760">
        <ele>1126.107</ele>
        <time>2021-07-29T20:56:33Z</time>
      </trkpt>
      <trkpt lat="40.760566" lon="-3.905758">
        <ele>1125.727</ele>
        <time>2021-07-29T20:56:35Z</time>
      </trkpt>
      <trkpt lat="40.760541" lon="-3.905760">
        <ele>1125.408</ele>
        <time>2021-07-29T20:56:37Z</time>
      </trkpt>
      <trkpt lat="40.760522" lon="-3.905760">
        <ele>1125.186</ele>
        <time>2021-07-29T20:56:39Z</time>
      </trkpt>
      <trkpt lat="40.760493" lon="-3.905753">
        <ele>1124.428</ele>
        <time>2021-07-29T20:56:41Z</time>
      </trkpt>
      <trkpt lat="40.760467" lon="-3.905743">
        <ele>1123.715</ele>
        <time>2021-07-29T20:56:43Z</time>
      </trkpt>
      <trkpt lat="40.760448" lon="-3.905728">
        <ele>1122.932</ele>
        <time>2021-07-29T20:56:44Z</time>
      </trkpt>
      <trkpt lat="40.760429" lon="-3.905728">
        <ele>1122.743</ele>
        <time>2021-07-29T20:56:47Z</time>
      </trkpt>
      <trkpt lat="40.760406" lon="-3.905723">
        <ele>1122.233</ele>
        <time>2021-07-29T20:56:49Z</time>
      </trkpt>
      <trkpt lat="40.760387" lon="-3.905723">
        <ele>1121.996</ele>
        <time>2021-07-29T20:56:51Z</time>
      </trkpt>
      <trkpt lat="40.760362" lon="-3.905715">
        <ele>1121.385</ele>
        <time>2021-07-29T20:56:53Z</time>
      </trkpt>
      <trkpt lat="40.760333" lon="-3.905705">
        <ele>1120.679</ele>
        <time>2021-07-29T20:56:55Z</time>
      </trkpt>
      <trkpt lat="40.760314" lon="-3.905703">
        <ele>1120.205</ele>
        <time>2021-07-29T20:56:57Z</time>
      </trkpt>
      <trkpt lat="40.760285" lon="-3.905693">
        <ele>1119.625</ele>
        <time>2021-07-29T20:56:59Z</time>
      </trkpt>
      <trkpt lat="40.760266" lon="-3.905682">
        <ele>1119.108</ele>
        <time>2021-07-29T20:57:00Z</time>
      </trkpt>
      <trkpt lat="40.760243" lon="-3.905673">
        <ele>1118.754</ele>
        <time>2021-07-29T20:57:02Z</time>
      </trkpt>
      <trkpt lat="40.760224" lon="-3.905672">
        <ele>1118.516</ele>
        <time>2021-07-29T20:57:04Z</time>
      </trkpt>
      <trkpt lat="40.760195" lon="-3.905657">
        <ele>1117.933</ele>
        <time>2021-07-29T20:57:06Z</time>
      </trkpt>
      <trkpt lat="40.760173" lon="-3.905647">
        <ele>1117.470</ele>
        <time>2021-07-29T20:57:07Z</time>
      </trkpt>
      <trkpt lat="40.760141" lon="-3.905634">
        <ele>1116.971</ele>
        <time>2021-07-29T20:57:09Z</time>
      </trkpt>
      <trkpt lat="40.760112" lon="-3.905620">
        <ele>1116.361</ele>
        <time>2021-07-29T20:57:11Z</time>
      </trkpt>
      <trkpt lat="40.760090" lon="-3.905612">
        <ele>1115.984</ele>
        <time>2021-07-29T20:57:13Z</time>
      </trkpt>
      <trkpt lat="40.760067" lon="-3.905612">
        <ele>1115.813</ele>
        <time>2021-07-29T20:57:15Z</time>
      </trkpt>
      <trkpt lat="40.760032" lon="-3.905597">
        <ele>1115.115</ele>
        <time>2021-07-29T20:57:17Z</time>
      </trkpt>
      <trkpt lat="40.760010" lon="-3.905582">
        <ele>1114.665</ele>
        <time>2021-07-29T20:57:18Z</time>
      </trkpt>
      <trkpt lat="40.759987" lon="-3.905573">
        <ele>1114.211</ele>
        <time>2021-07-29T20:57:20Z</time>
      </trkpt>
      <trkpt lat="40.759968" lon="-3.905580">
        <ele>1114.208</ele>
        <time>2021-07-29T20:57:22Z</time>
      </trkpt>
      <trkpt lat="40.759946" lon="-3.905580">
        <ele>1113.918</ele>
        <time>2021-07-29T20:57:24Z</time>
      </trkpt>
      <trkpt lat="40.759917" lon="-3.905585">
        <ele>1113.760</ele>
        <time>2021-07-29T20:57:26Z</time>
      </trkpt>
      <trkpt lat="40.759885" lon="-3.905588">
        <ele>1113.437</ele>
        <time>2021-07-29T20:57:28Z</time>
      </trkpt>
      <trkpt lat="40.759862" lon="-3.905598">
        <ele>1113.364</ele>
        <time>2021-07-29T20:57:30Z</time>
      </trkpt>
      <trkpt lat="40.759837" lon="-3.905610">
        <ele>1113.395</ele>
        <time>2021-07-29T20:57:32Z</time>
      </trkpt>
      <trkpt lat="40.759811" lon="-3.905622">
        <ele>1113.285</ele>
        <time>2021-07-29T20:57:34Z</time>
      </trkpt>
      <trkpt lat="40.759789" lon="-3.905630">
        <ele>1113.168</ele>
        <time>2021-07-29T20:57:36Z</time>
      </trkpt>
      <trkpt lat="40.759757" lon="-3.905635">
        <ele>1112.897</ele>
        <time>2021-07-29T20:57:38Z</time>
      </trkpt>
      <trkpt lat="40.759731" lon="-3.905637">
        <ele>1112.679</ele>
        <time>2021-07-29T20:57:40Z</time>
      </trkpt>
      <trkpt lat="40.759712" lon="-3.905642">
        <ele>1112.405</ele>
        <time>2021-07-29T20:57:42Z</time>
      </trkpt>
      <trkpt lat="40.759686" lon="-3.905644">
        <ele>1111.925</ele>
        <time>2021-07-29T20:57:44Z</time>
      </trkpt>
      <trkpt lat="40.759658" lon="-3.905657">
        <ele>1111.608</ele>
        <time>2021-07-29T20:57:46Z</time>
      </trkpt>
      <trkpt lat="40.759635" lon="-3.905666">
        <ele>1111.474</ele>
        <time>2021-07-29T20:57:48Z</time>
      </trkpt>
      <trkpt lat="40.759613" lon="-3.905675">
        <ele>1111.136</ele>
        <time>2021-07-29T20:57:50Z</time>
      </trkpt>
      <trkpt lat="40.759597" lon="-3.905678">
        <ele>1110.923</ele>
        <time>2021-07-29T20:57:51Z</time>
      </trkpt>
      <trkpt lat="40.759530" lon="-3.905687">
        <ele>1109.920</ele>
        <time>2021-07-29T20:57:56Z</time>
      </trkpt>
      <trkpt lat="40.759510" lon="-3.905688">
        <ele>1109.521</ele>
        <time>2021-07-29T20:57:58Z</time>
      </trkpt>
      <trkpt lat="40.759491" lon="-3.905702">
        <ele>1109.551</ele>
        <time>2021-07-29T20:58:04Z</time>
      </trkpt>
      <trkpt lat="40.759469" lon="-3.905710">
        <ele>1109.324</ele>
        <time>2021-07-29T20:58:06Z</time>
      </trkpt>
      <trkpt lat="40.759437" lon="-3.905712">
        <ele>1108.863</ele>
        <time>2021-07-29T20:58:08Z</time>
      </trkpt>
      <trkpt lat="40.759411" lon="-3.905722">
        <ele>1108.326</ele>
        <time>2021-07-29T20:58:10Z</time>
      </trkpt>
      <trkpt lat="40.759389" lon="-3.905733">
        <ele>1108.047</ele>
        <time>2021-07-29T20:58:12Z</time>
      </trkpt>
      <trkpt lat="40.759370" lon="-3.905733">
        <ele>1107.511</ele>
        <time>2021-07-29T20:58:13Z</time>
      </trkpt>
      <trkpt lat="40.759350" lon="-3.905755">
        <ele>1107.508</ele>
        <time>2021-07-29T20:58:15Z</time>
      </trkpt>
      <trkpt lat="40.759328" lon="-3.905774">
        <ele>1107.329</ele>
        <time>2021-07-29T20:58:17Z</time>
      </trkpt>
      <trkpt lat="40.759312" lon="-3.905788">
        <ele>1107.281</ele>
        <time>2021-07-29T20:58:19Z</time>
      </trkpt>
      <trkpt lat="40.759293" lon="-3.905806">
        <ele>1107.138</ele>
        <time>2021-07-29T20:58:21Z</time>
      </trkpt>
      <trkpt lat="40.759274" lon="-3.905826">
        <ele>1106.945</ele>
        <time>2021-07-29T20:58:23Z</time>
      </trkpt>
      <trkpt lat="40.759258" lon="-3.905848">
        <ele>1106.966</ele>
        <time>2021-07-29T20:58:25Z</time>
      </trkpt>
      <trkpt lat="40.759238" lon="-3.905873">
        <ele>1106.766</ele>
        <time>2021-07-29T20:58:27Z</time>
      </trkpt>
      <trkpt lat="40.759222" lon="-3.905900">
        <ele>1106.759</ele>
        <time>2021-07-29T20:58:29Z</time>
      </trkpt>
      <trkpt lat="40.759200" lon="-3.905920">
        <ele>1106.478</ele>
        <time>2021-07-29T20:58:31Z</time>
      </trkpt>
      <trkpt lat="40.759187" lon="-3.905938">
        <ele>1106.495</ele>
        <time>2021-07-29T20:58:33Z</time>
      </trkpt>
      <trkpt lat="40.759162" lon="-3.905954">
        <ele>1106.149</ele>
        <time>2021-07-29T20:58:35Z</time>
      </trkpt>
      <trkpt lat="40.759142" lon="-3.905972">
        <ele>1106.123</ele>
        <time>2021-07-29T20:58:37Z</time>
      </trkpt>
      <trkpt lat="40.759123" lon="-3.905998">
        <ele>1106.108</ele>
        <time>2021-07-29T20:58:39Z</time>
      </trkpt>
      <trkpt lat="40.759110" lon="-3.906016">
        <ele>1106.296</ele>
        <time>2021-07-29T20:58:41Z</time>
      </trkpt>
      <trkpt lat="40.759091" lon="-3.906037">
        <ele>1106.258</ele>
        <time>2021-07-29T20:58:43Z</time>
      </trkpt>
      <trkpt lat="40.759072" lon="-3.906048">
        <ele>1106.075</ele>
        <time>2021-07-29T20:58:45Z</time>
      </trkpt>
      <trkpt lat="40.759043" lon="-3.906053">
        <ele>1105.542</ele>
        <time>2021-07-29T20:58:47Z</time>
      </trkpt>
      <trkpt lat="40.759021" lon="-3.906067">
        <ele>1105.273</ele>
        <time>2021-07-29T20:58:49Z</time>
      </trkpt>
      <trkpt lat="40.758998" lon="-3.906082">
        <ele>1105.073</ele>
        <time>2021-07-29T20:58:51Z</time>
      </trkpt>
      <trkpt lat="40.758973" lon="-3.906090">
        <ele>1104.536</ele>
        <time>2021-07-29T20:58:53Z</time>
      </trkpt>
      <trkpt lat="40.758950" lon="-3.906098">
        <ele>1104.215</ele>
        <time>2021-07-29T20:58:55Z</time>
      </trkpt>
      <trkpt lat="40.758925" lon="-3.906103">
        <ele>1103.725</ele>
        <time>2021-07-29T20:58:57Z</time>
      </trkpt>
      <trkpt lat="40.758899" lon="-3.906110">
        <ele>1103.226</ele>
        <time>2021-07-29T20:58:59Z</time>
      </trkpt>
      <trkpt lat="40.758877" lon="-3.906125">
        <ele>1103.108</ele>
        <time>2021-07-29T20:59:01Z</time>
      </trkpt>
      <trkpt lat="40.758851" lon="-3.906134">
        <ele>1103.008</ele>
        <time>2021-07-29T20:59:03Z</time>
      </trkpt>
      <trkpt lat="40.758829" lon="-3.906135">
        <ele>1102.899</ele>
        <time>2021-07-29T20:59:05Z</time>
      </trkpt>
      <trkpt lat="40.758800" lon="-3.906132">
        <ele>1102.651</ele>
        <time>2021-07-29T20:59:07Z</time>
      </trkpt>
      <trkpt lat="40.758774" lon="-3.906137">
        <ele>1102.438</ele>
        <time>2021-07-29T20:59:09Z</time>
      </trkpt>
      <trkpt lat="40.758755" lon="-3.906150">
        <ele>1102.485</ele>
        <time>2021-07-29T20:59:11Z</time>
      </trkpt>
      <trkpt lat="40.758742" lon="-3.906172">
        <ele>1102.526</ele>
        <time>2021-07-29T20:59:13Z</time>
      </trkpt>
      <trkpt lat="40.758720" lon="-3.906172">
        <ele>1102.386</ele>
        <time>2021-07-29T20:59:15Z</time>
      </trkpt>
      <trkpt lat="40.758694" lon="-3.906158">
        <ele>1102.079</ele>
        <time>2021-07-29T20:59:17Z</time>
      </trkpt>
      <trkpt lat="40.758659" lon="-3.906148">
        <ele>1101.618</ele>
        <time>2021-07-29T20:59:20Z</time>
      </trkpt>
      <trkpt lat="40.758634" lon="-3.906140">
        <ele>1101.425</ele>
        <time>2021-07-29T20:59:22Z</time>
      </trkpt>
      <trkpt lat="40.758614" lon="-3.906137">
        <ele>1101.226</ele>
        <time>2021-07-29T20:59:24Z</time>
      </trkpt>
      <trkpt lat="40.758582" lon="-3.906135">
        <ele>1100.508</ele>
        <time>2021-07-29T20:59:26Z</time>
      </trkpt>
      <trkpt lat="40.758557" lon="-3.906135">
        <ele>1099.908</ele>
        <time>2021-07-29T20:59:28Z</time>
      </trkpt>
      <trkpt lat="40.758531" lon="-3.906137">
        <ele>1099.319</ele>
        <time>2021-07-29T20:59:30Z</time>
      </trkpt>
      <trkpt lat="40.758506" lon="-3.906138">
        <ele>1098.761</ele>
        <time>2021-07-29T20:59:32Z</time>
      </trkpt>
      <trkpt lat="40.758480" lon="-3.906143">
        <ele>1098.198</ele>
        <time>2021-07-29T20:59:34Z</time>
      </trkpt>
      <trkpt lat="40.758458" lon="-3.906148">
        <ele>1097.725</ele>
        <time>2021-07-29T20:59:36Z</time>
      </trkpt>
      <trkpt lat="40.758435" lon="-3.906153">
        <ele>1097.246</ele>
        <time>2021-07-29T20:59:38Z</time>
      </trkpt>
      <trkpt lat="40.758416" lon="-3.906168">
        <ele>1097.126</ele>
        <time>2021-07-29T20:59:40Z</time>
      </trkpt>
      <trkpt lat="40.758400" lon="-3.906183">
        <ele>1097.089</ele>
        <time>2021-07-29T20:59:42Z</time>
      </trkpt>
      <trkpt lat="40.758381" lon="-3.906193">
        <ele>1096.828</ele>
        <time>2021-07-29T20:59:44Z</time>
      </trkpt>
      <trkpt lat="40.758358" lon="-3.906200">
        <ele>1096.491</ele>
        <time>2021-07-29T20:59:46Z</time>
      </trkpt>
      <trkpt lat="40.758336" lon="-3.906208">
        <ele>1096.181</ele>
        <time>2021-07-29T20:59:48Z</time>
      </trkpt>
      <trkpt lat="40.758307" lon="-3.906228">
        <ele>1096.019</ele>
        <time>2021-07-29T20:59:50Z</time>
      </trkpt>
      <trkpt lat="40.758294" lon="-3.906265">
        <ele>1096.508</ele>
        <time>2021-07-29T20:59:52Z</time>
      </trkpt>
      <trkpt lat="40.758269" lon="-3.906290">
        <ele>1096.536</ele>
        <time>2021-07-29T20:59:54Z</time>
      </trkpt>
      <trkpt lat="40.758256" lon="-3.906298">
        <ele>1096.418</ele>
        <time>2021-07-29T20:59:55Z</time>
      </trkpt>
      <trkpt lat="40.758176" lon="-3.906362">
        <ele>1095.655</ele>
        <time>2021-07-29T21:00:01Z</time>
      </trkpt>
      <trkpt lat="40.758157" lon="-3.906366">
        <ele>1095.282</ele>
        <time>2021-07-29T21:00:03Z</time>
      </trkpt>
      <trkpt lat="40.758160" lon="-3.906392">
        <ele>1095.783</ele>
        <time>2021-07-29T21:00:04Z</time>
      </trkpt>
      <trkpt lat="40.758163" lon="-3.906417">
        <ele>1096.073</ele>
        <time>2021-07-29T21:00:06Z</time>
      </trkpt>
      <trkpt lat="40.758147" lon="-3.906430">
        <ele>1095.846</ele>
        <time>2021-07-29T21:00:09Z</time>
      </trkpt>
      <trkpt lat="40.758118" lon="-3.906428">
        <ele>1095.155</ele>
        <time>2021-07-29T21:00:11Z</time>
      </trkpt>
      <trkpt lat="40.758086" lon="-3.906410">
        <ele>1094.164</ele>
        <time>2021-07-29T21:00:13Z</time>
      </trkpt>
      <trkpt lat="40.758058" lon="-3.906420">
        <ele>1093.506</ele>
        <time>2021-07-29T21:00:16Z</time>
      </trkpt>
      <trkpt lat="40.758029" lon="-3.906423">
        <ele>1093.416</ele>
        <time>2021-07-29T21:00:18Z</time>
      </trkpt>
      <trkpt lat="40.757990" lon="-3.906422">
        <ele>1093.208</ele>
        <time>2021-07-29T21:00:20Z</time>
      </trkpt>
      <trkpt lat="40.757965" lon="-3.906427">
        <ele>1093.253</ele>
        <time>2021-07-29T21:00:22Z</time>
      </trkpt>
      <trkpt lat="40.757946" lon="-3.906445">
        <ele>1093.435</ele>
        <time>2021-07-29T21:00:24Z</time>
      </trkpt>
      <trkpt lat="40.757923" lon="-3.906452">
        <ele>1093.492</ele>
        <time>2021-07-29T21:00:26Z</time>
      </trkpt>
      <trkpt lat="40.757901" lon="-3.906462">
        <ele>1093.519</ele>
        <time>2021-07-29T21:00:28Z</time>
      </trkpt>
      <trkpt lat="40.757882" lon="-3.906460">
        <ele>1093.430</ele>
        <time>2021-07-29T21:00:30Z</time>
      </trkpt>
      <trkpt lat="40.757862" lon="-3.906442">
        <ele>1093.180</ele>
        <time>2021-07-29T21:00:32Z</time>
      </trkpt>
      <trkpt lat="40.757843" lon="-3.906438">
        <ele>1092.913</ele>
        <time>2021-07-29T21:00:34Z</time>
      </trkpt>
      <trkpt lat="40.757821" lon="-3.906442">
        <ele>1092.992</ele>
        <time>2021-07-29T21:00:36Z</time>
      </trkpt>
      <trkpt lat="40.757782" lon="-3.906435">
        <ele>1092.764</ele>
        <time>2021-07-29T21:00:38Z</time>
      </trkpt>
      <trkpt lat="40.757763" lon="-3.906430">
        <ele>1092.506</ele>
        <time>2021-07-29T21:00:39Z</time>
      </trkpt>
      <trkpt lat="40.757731" lon="-3.906433">
        <ele>1092.416</ele>
        <time>2021-07-29T21:00:42Z</time>
      </trkpt>
      <trkpt lat="40.757706" lon="-3.906432">
        <ele>1092.208</ele>
        <time>2021-07-29T21:00:44Z</time>
      </trkpt>
      <trkpt lat="40.757680" lon="-3.906435">
        <ele>1092.163</ele>
        <time>2021-07-29T21:00:46Z</time>
      </trkpt>
      <trkpt lat="40.757661" lon="-3.906452">
        <ele>1092.365</ele>
        <time>2021-07-29T21:00:48Z</time>
      </trkpt>
      <trkpt lat="40.757626" lon="-3.906455">
        <ele>1092.162</ele>
        <time>2021-07-29T21:00:50Z</time>
      </trkpt>
      <trkpt lat="40.757600" lon="-3.906463">
        <ele>1092.119</ele>
        <time>2021-07-29T21:00:52Z</time>
      </trkpt>
      <trkpt lat="40.757581" lon="-3.906477">
        <ele>1092.320</ele>
        <time>2021-07-29T21:00:54Z</time>
      </trkpt>
      <trkpt lat="40.757565" lon="-3.906493">
        <ele>1092.580</ele>
        <time>2021-07-29T21:00:56Z</time>
      </trkpt>
      <trkpt lat="40.757539" lon="-3.906498">
        <ele>1092.593</ele>
        <time>2021-07-29T21:00:58Z</time>
      </trkpt>
      <trkpt lat="40.757514" lon="-3.906502">
        <ele>1092.592</ele>
        <time>2021-07-29T21:01:00Z</time>
      </trkpt>
      <trkpt lat="40.757488" lon="-3.906508">
        <ele>1092.531</ele>
        <time>2021-07-29T21:01:02Z</time>
      </trkpt>
      <trkpt lat="40.757472" lon="-3.906522">
        <ele>1092.861</ele>
        <time>2021-07-29T21:01:04Z</time>
      </trkpt>
      <trkpt lat="40.757450" lon="-3.906532">
        <ele>1092.907</ele>
        <time>2021-07-29T21:01:06Z</time>
      </trkpt>
      <trkpt lat="40.757424" lon="-3.906540">
        <ele>1093.008</ele>
        <time>2021-07-29T21:01:08Z</time>
      </trkpt>
      <trkpt lat="40.757386" lon="-3.906536">
        <ele>1092.850</ele>
        <time>2021-07-29T21:01:10Z</time>
      </trkpt>
      <trkpt lat="40.757363" lon="-3.906523">
        <ele>1092.462</ele>
        <time>2021-07-29T21:01:12Z</time>
      </trkpt>
      <trkpt lat="40.757347" lon="-3.906538">
        <ele>1092.799</ele>
        <time>2021-07-29T21:01:14Z</time>
      </trkpt>
      <trkpt lat="40.757322" lon="-3.906543">
        <ele>1092.856</ele>
        <time>2021-07-29T21:01:16Z</time>
      </trkpt>
      <trkpt lat="40.757296" lon="-3.906545">
        <ele>1092.757</ele>
        <time>2021-07-29T21:01:18Z</time>
      </trkpt>
      <trkpt lat="40.757267" lon="-3.906552">
        <ele>1092.877</ele>
        <time>2021-07-29T21:01:21Z</time>
      </trkpt>
      <trkpt lat="40.757235" lon="-3.906540">
        <ele>1092.430</ele>
        <time>2021-07-29T21:01:23Z</time>
      </trkpt>
      <trkpt lat="40.757210" lon="-3.906542">
        <ele>1092.319</ele>
        <time>2021-07-29T21:01:26Z</time>
      </trkpt>
      <trkpt lat="40.757190" lon="-3.906540">
        <ele>1092.185</ele>
        <time>2021-07-29T21:01:28Z</time>
      </trkpt>
      <trkpt lat="40.757168" lon="-3.906543">
        <ele>1092.089</ele>
        <time>2021-07-29T21:01:30Z</time>
      </trkpt>
      <trkpt lat="40.757142" lon="-3.906552">
        <ele>1092.017</ele>
        <time>2021-07-29T21:01:32Z</time>
      </trkpt>
      <trkpt lat="40.757114" lon="-3.906552">
        <ele>1091.808</ele>
        <time>2021-07-29T21:01:34Z</time>
      </trkpt>
      <trkpt lat="40.757066" lon="-3.906535">
        <ele>1090.865</ele>
        <time>2021-07-29T21:01:36Z</time>
      </trkpt>
      <trkpt lat="40.757046" lon="-3.906528">
        <ele>1090.417</ele>
        <time>2021-07-29T21:01:37Z</time>
      </trkpt>
      <trkpt lat="40.757024" lon="-3.906522">
        <ele>1090.054</ele>
        <time>2021-07-29T21:01:39Z</time>
      </trkpt>
      <trkpt lat="40.757005" lon="-3.906512">
        <ele>1089.541</ele>
        <time>2021-07-29T21:01:40Z</time>
      </trkpt>
      <trkpt lat="40.756982" lon="-3.906496">
        <ele>1088.822</ele>
        <time>2021-07-29T21:01:41Z</time>
      </trkpt>
      <trkpt lat="40.756950" lon="-3.906493">
        <ele>1088.412</ele>
        <time>2021-07-29T21:01:43Z</time>
      </trkpt>
      <trkpt lat="40.756925" lon="-3.906488">
        <ele>1088.025</ele>
        <time>2021-07-29T21:01:45Z</time>
      </trkpt>
      <trkpt lat="40.756899" lon="-3.906485">
        <ele>1087.784</ele>
        <time>2021-07-29T21:01:47Z</time>
      </trkpt>
      <trkpt lat="40.756890" lon="-3.906463">
        <ele>1087.089</ele>
        <time>2021-07-29T21:01:49Z</time>
      </trkpt>
      <trkpt lat="40.756874" lon="-3.906478">
        <ele>1087.306</ele>
        <time>2021-07-29T21:01:54Z</time>
      </trkpt>
      <trkpt lat="40.756854" lon="-3.906477">
        <ele>1087.126</ele>
        <time>2021-07-29T21:01:55Z</time>
      </trkpt>
      <trkpt lat="40.756829" lon="-3.906480">
        <ele>1087.008</ele>
        <time>2021-07-29T21:01:57Z</time>
      </trkpt>
      <trkpt lat="40.756806" lon="-3.906492">
        <ele>1087.255</ele>
        <time>2021-07-29T21:01:59Z</time>
      </trkpt>
      <trkpt lat="40.756784" lon="-3.906496">
        <ele>1087.167</ele>
        <time>2021-07-29T21:02:01Z</time>
      </trkpt>
      <trkpt lat="40.756755" lon="-3.906503">
        <ele>1087.144</ele>
        <time>2021-07-29T21:02:03Z</time>
      </trkpt>
      <trkpt lat="40.756733" lon="-3.906502">
        <ele>1086.851</ele>
        <time>2021-07-29T21:02:05Z</time>
      </trkpt>
      <trkpt lat="40.756710" lon="-3.906498">
        <ele>1086.532</ele>
        <time>2021-07-29T21:02:06Z</time>
      </trkpt>
      <trkpt lat="40.756672" lon="-3.906484">
        <ele>1085.892</ele>
        <time>2021-07-29T21:02:08Z</time>
      </trkpt>
      <trkpt lat="40.756646" lon="-3.906487">
        <ele>1085.795</ele>
        <time>2021-07-29T21:02:11Z</time>
      </trkpt>
      <trkpt lat="40.756614" lon="-3.906488">
        <ele>1085.664</ele>
        <time>2021-07-29T21:02:15Z</time>
      </trkpt>
      <trkpt lat="40.756586" lon="-3.906480">
        <ele>1085.293</ele>
        <time>2021-07-29T21:02:17Z</time>
      </trkpt>
      <trkpt lat="40.756541" lon="-3.906463">
        <ele>1084.665</ele>
        <time>2021-07-29T21:02:19Z</time>
      </trkpt>
      <trkpt lat="40.756522" lon="-3.906458">
        <ele>1084.321</ele>
        <time>2021-07-29T21:02:20Z</time>
      </trkpt>
      <trkpt lat="40.756486" lon="-3.906467">
        <ele>1084.408</ele>
        <time>2021-07-29T21:02:22Z</time>
      </trkpt>
      <trkpt lat="40.756467" lon="-3.906462">
        <ele>1084.266</ele>
        <time>2021-07-29T21:02:23Z</time>
      </trkpt>
      <trkpt lat="40.756442" lon="-3.906458">
        <ele>1084.058</ele>
        <time>2021-07-29T21:02:25Z</time>
      </trkpt>
      <trkpt lat="40.756416" lon="-3.906463">
        <ele>1084.025</ele>
        <time>2021-07-29T21:02:27Z</time>
      </trkpt>
      <trkpt lat="40.756390" lon="-3.906463">
        <ele>1083.942</ele>
        <time>2021-07-29T21:02:29Z</time>
      </trkpt>
      <trkpt lat="40.756381" lon="-3.906495">
        <ele>1084.693</ele>
        <time>2021-07-29T21:02:32Z</time>
      </trkpt>
      <trkpt lat="40.756381" lon="-3.906528">
        <ele>1085.583</ele>
        <time>2021-07-29T21:02:34Z</time>
      </trkpt>
      <trkpt lat="40.756358" lon="-3.906535">
        <ele>1085.516</ele>
        <time>2021-07-29T21:02:37Z</time>
      </trkpt>
      <trkpt lat="40.756339" lon="-3.906546">
        <ele>1085.735</ele>
        <time>2021-07-29T21:02:39Z</time>
      </trkpt>
      <trkpt lat="40.756301" lon="-3.906542">
        <ele>1085.465</ele>
        <time>2021-07-29T21:02:41Z</time>
      </trkpt>
      <trkpt lat="40.756275" lon="-3.906525">
        <ele>1084.868</ele>
        <time>2021-07-29T21:02:42Z</time>
      </trkpt>
      <trkpt lat="40.756253" lon="-3.906520">
        <ele>1084.614</ele>
        <time>2021-07-29T21:02:44Z</time>
      </trkpt>
      <trkpt lat="40.756234" lon="-3.906518">
        <ele>1084.408</ele>
        <time>2021-07-29T21:02:45Z</time>
      </trkpt>
      <trkpt lat="40.756208" lon="-3.906508">
        <ele>1084.153</ele>
        <time>2021-07-29T21:02:47Z</time>
      </trkpt>
      <trkpt lat="40.756182" lon="-3.906488">
        <ele>1083.595</ele>
        <time>2021-07-29T21:02:49Z</time>
      </trkpt>
      <trkpt lat="40.756157" lon="-3.906482">
        <ele>1083.232</ele>
        <time>2021-07-29T21:02:51Z</time>
      </trkpt>
      <trkpt lat="40.756141" lon="-3.906470">
        <ele>1082.999</ele>
        <time>2021-07-29T21:02:52Z</time>
      </trkpt>
      <trkpt lat="40.756115" lon="-3.906460">
        <ele>1082.660</ele>
        <time>2021-07-29T21:02:54Z</time>
      </trkpt>
      <trkpt lat="40.756096" lon="-3.906458">
        <ele>1082.470</ele>
        <time>2021-07-29T21:02:56Z</time>
      </trkpt>
      <trkpt lat="40.756074" lon="-3.906455">
        <ele>1082.383</ele>
        <time>2021-07-29T21:02:58Z</time>
      </trkpt>
      <trkpt lat="40.756054" lon="-3.906467">
        <ele>1082.422</ele>
        <time>2021-07-29T21:03:00Z</time>
      </trkpt>
      <trkpt lat="40.756042" lon="-3.906484">
        <ele>1082.765</ele>
        <time>2021-07-29T21:03:02Z</time>
      </trkpt>
      <trkpt lat="40.756019" lon="-3.906493">
        <ele>1082.868</ele>
        <time>2021-07-29T21:03:05Z</time>
      </trkpt>
      <trkpt lat="40.755994" lon="-3.906475">
        <ele>1082.314</ele>
        <time>2021-07-29T21:03:07Z</time>
      </trkpt>
      <trkpt lat="40.755974" lon="-3.906467">
        <ele>1082.108</ele>
        <time>2021-07-29T21:03:08Z</time>
      </trkpt>
      <trkpt lat="40.755939" lon="-3.906457">
        <ele>1081.743</ele>
        <time>2021-07-29T21:03:10Z</time>
      </trkpt>
      <trkpt lat="40.755923" lon="-3.906443">
        <ele>1081.455</ele>
        <time>2021-07-29T21:03:11Z</time>
      </trkpt>
      <trkpt lat="40.755904" lon="-3.906430">
        <ele>1081.032</ele>
        <time>2021-07-29T21:03:12Z</time>
      </trkpt>
      <trkpt lat="40.755891" lon="-3.906462">
        <ele>1081.689</ele>
        <time>2021-07-29T21:03:15Z</time>
      </trkpt>
      <trkpt lat="40.755862" lon="-3.906470">
        <ele>1081.690</ele>
        <time>2021-07-29T21:03:17Z</time>
      </trkpt>
      <trkpt lat="40.755840" lon="-3.906460">
        <ele>1081.330</ele>
        <time>2021-07-29T21:03:20Z</time>
      </trkpt>
      <trkpt lat="40.755821" lon="-3.906462">
        <ele>1081.333</ele>
        <time>2021-07-29T21:03:22Z</time>
      </trkpt>
      <trkpt lat="40.755814" lon="-3.906485">
        <ele>1081.722</ele>
        <time>2021-07-29T21:03:24Z</time>
      </trkpt>
      <trkpt lat="40.755795" lon="-3.906488">
        <ele>1081.627</ele>
        <time>2021-07-29T21:03:26Z</time>
      </trkpt>
      <trkpt lat="40.755776" lon="-3.906495">
        <ele>1081.768</ele>
        <time>2021-07-29T21:03:28Z</time>
      </trkpt>
      <trkpt lat="40.755754" lon="-3.906492">
        <ele>1081.514</ele>
        <time>2021-07-29T21:03:30Z</time>
      </trkpt>
      <trkpt lat="40.755734" lon="-3.906484">
        <ele>1081.308</ele>
        <time>2021-07-29T21:03:32Z</time>
      </trkpt>
      <trkpt lat="40.755706" lon="-3.906468">
        <ele>1081.019</ele>
        <time>2021-07-29T21:03:34Z</time>
      </trkpt>
      <trkpt lat="40.755686" lon="-3.906455">
        <ele>1080.831</ele>
        <time>2021-07-29T21:03:35Z</time>
      </trkpt>
      <trkpt lat="40.755667" lon="-3.906438">
        <ele>1080.658</ele>
        <time>2021-07-29T21:03:36Z</time>
      </trkpt>
      <trkpt lat="40.755638" lon="-3.906405">
        <ele>1080.275</ele>
        <time>2021-07-29T21:03:38Z</time>
      </trkpt>
      <trkpt lat="40.755622" lon="-3.906392">
        <ele>1080.086</ele>
        <time>2021-07-29T21:03:40Z</time>
      </trkpt>
      <trkpt lat="40.755600" lon="-3.906382">
        <ele>1080.046</ele>
        <time>2021-07-29T21:03:42Z</time>
      </trkpt>
      <trkpt lat="40.755587" lon="-3.906362">
        <ele>1080.019</ele>
        <time>2021-07-29T21:03:44Z</time>
      </trkpt>
      <trkpt lat="40.755568" lon="-3.906352">
        <ele>1080.048</ele>
        <time>2021-07-29T21:03:45Z</time>
      </trkpt>
      <trkpt lat="40.755526" lon="-3.906334">
        <ele>1079.957</ele>
        <time>2021-07-29T21:03:47Z</time>
      </trkpt>
      <trkpt lat="40.755504" lon="-3.906322">
        <ele>1079.700</ele>
        <time>2021-07-29T21:03:49Z</time>
      </trkpt>
      <trkpt lat="40.755482" lon="-3.906307">
        <ele>1079.620</ele>
        <time>2021-07-29T21:03:51Z</time>
      </trkpt>
      <trkpt lat="40.755462" lon="-3.906292">
        <ele>1079.408</ele>
        <time>2021-07-29T21:03:52Z</time>
      </trkpt>
      <trkpt lat="40.755443" lon="-3.906285">
        <ele>1079.322</ele>
        <time>2021-07-29T21:03:53Z</time>
      </trkpt>
      <trkpt lat="40.755418" lon="-3.906282">
        <ele>1079.114</ele>
        <time>2021-07-29T21:03:56Z</time>
      </trkpt>
      <trkpt lat="40.755395" lon="-3.906280">
        <ele>1079.061</ele>
        <time>2021-07-29T21:03:58Z</time>
      </trkpt>
      <trkpt lat="40.755386" lon="-3.906302">
        <ele>1079.088</ele>
        <time>2021-07-29T21:04:00Z</time>
      </trkpt>
      <trkpt lat="40.755354" lon="-3.906300">
        <ele>1078.839</ele>
        <time>2021-07-29T21:04:03Z</time>
      </trkpt>
      <trkpt lat="40.755328" lon="-3.906295">
        <ele>1078.659</ele>
        <time>2021-07-29T21:04:05Z</time>
      </trkpt>
      <trkpt lat="40.755302" lon="-3.906298">
        <ele>1078.572</ele>
        <time>2021-07-29T21:04:07Z</time>
      </trkpt>
      <trkpt lat="40.755283" lon="-3.906293">
        <ele>1078.361</ele>
        <time>2021-07-29T21:04:08Z</time>
      </trkpt>
      <trkpt lat="40.755264" lon="-3.906288">
        <ele>1078.065</ele>
        <time>2021-07-29T21:04:09Z</time>
      </trkpt>
      <trkpt lat="40.755242" lon="-3.906285">
        <ele>1077.668</ele>
        <time>2021-07-29T21:04:11Z</time>
      </trkpt>
      <trkpt lat="40.755216" lon="-3.906287">
        <ele>1077.214</ele>
        <time>2021-07-29T21:04:14Z</time>
      </trkpt>
      <trkpt lat="40.755184" lon="-3.906292">
        <ele>1076.708</ele>
        <time>2021-07-29T21:04:16Z</time>
      </trkpt>
      <trkpt lat="40.755165" lon="-3.906310">
        <ele>1076.693</ele>
        <time>2021-07-29T21:04:18Z</time>
      </trkpt>
      <trkpt lat="40.755139" lon="-3.906324">
        <ele>1076.365</ele>
        <time>2021-07-29T21:04:21Z</time>
      </trkpt>
      <trkpt lat="40.755117" lon="-3.906330">
        <ele>1076.052</ele>
        <time>2021-07-29T21:04:23Z</time>
      </trkpt>
      <trkpt lat="40.755098" lon="-3.906337">
        <ele>1075.889</ele>
        <time>2021-07-29T21:04:25Z</time>
      </trkpt>
      <trkpt lat="40.755069" lon="-3.906348">
        <ele>1075.590</ele>
        <time>2021-07-29T21:04:28Z</time>
      </trkpt>
      <trkpt lat="40.755046" lon="-3.906342">
        <ele>1075.090</ele>
        <time>2021-07-29T21:04:30Z</time>
      </trkpt>
      <trkpt lat="40.755021" lon="-3.906347">
        <ele>1074.743</ele>
        <time>2021-07-29T21:04:32Z</time>
      </trkpt>
      <trkpt lat="40.754989" lon="-3.906345">
        <ele>1074.362</ele>
        <time>2021-07-29T21:04:34Z</time>
      </trkpt>
      <trkpt lat="40.754966" lon="-3.906355">
        <ele>1074.321</ele>
        <time>2021-07-29T21:04:36Z</time>
      </trkpt>
      <trkpt lat="40.754947" lon="-3.906365">
        <ele>1074.341</ele>
        <time>2021-07-29T21:04:38Z</time>
      </trkpt>
      <trkpt lat="40.754925" lon="-3.906360">
        <ele>1074.105</ele>
        <time>2021-07-29T21:04:40Z</time>
      </trkpt>
      <trkpt lat="40.754906" lon="-3.906357">
        <ele>1073.908</ele>
        <time>2021-07-29T21:04:41Z</time>
      </trkpt>
      <trkpt lat="40.754874" lon="-3.906347">
        <ele>1073.659</ele>
        <time>2021-07-29T21:04:43Z</time>
      </trkpt>
      <trkpt lat="40.754848" lon="-3.906348">
        <ele>1073.461</ele>
        <time>2021-07-29T21:04:45Z</time>
      </trkpt>
      <trkpt lat="40.754829" lon="-3.906357">
        <ele>1073.428</ele>
        <time>2021-07-29T21:04:47Z</time>
      </trkpt>
      <trkpt lat="40.754803" lon="-3.906360">
        <ele>1073.255</ele>
        <time>2021-07-29T21:04:49Z</time>
      </trkpt>
      <trkpt lat="40.754771" lon="-3.906357">
        <ele>1073.046</ele>
        <time>2021-07-29T21:04:51Z</time>
      </trkpt>
      <trkpt lat="40.754752" lon="-3.906354">
        <ele>1072.846</ele>
        <time>2021-07-29T21:04:53Z</time>
      </trkpt>
      <trkpt lat="40.754730" lon="-3.906350">
        <ele>1072.629</ele>
        <time>2021-07-29T21:04:55Z</time>
      </trkpt>
      <trkpt lat="40.754694" lon="-3.906345">
        <ele>1072.478</ele>
        <time>2021-07-29T21:04:57Z</time>
      </trkpt>
      <trkpt lat="40.754662" lon="-3.906350">
        <ele>1072.263</ele>
        <time>2021-07-29T21:05:00Z</time>
      </trkpt>
      <trkpt lat="40.754640" lon="-3.906355">
        <ele>1072.144</ele>
        <time>2021-07-29T21:05:02Z</time>
      </trkpt>
      <trkpt lat="40.754611" lon="-3.906363">
        <ele>1072.018</ele>
        <time>2021-07-29T21:05:04Z</time>
      </trkpt>
      <trkpt lat="40.754589" lon="-3.906365">
        <ele>1071.908</ele>
        <time>2021-07-29T21:05:06Z</time>
      </trkpt>
      <trkpt lat="40.754570" lon="-3.906366">
        <ele>1071.763</ele>
        <time>2021-07-29T21:05:08Z</time>
      </trkpt>
      <trkpt lat="40.754544" lon="-3.906363">
        <ele>1071.615</ele>
        <time>2021-07-29T21:05:10Z</time>
      </trkpt>
      <trkpt lat="40.754515" lon="-3.906355">
        <ele>1071.392</ele>
        <time>2021-07-29T21:05:12Z</time>
      </trkpt>
      <trkpt lat="40.754490" lon="-3.906365">
        <ele>1071.239</ele>
        <time>2021-07-29T21:05:14Z</time>
      </trkpt>
      <trkpt lat="40.754467" lon="-3.906372">
        <ele>1071.110</ele>
        <time>2021-07-29T21:05:16Z</time>
      </trkpt>
      <trkpt lat="40.754426" lon="-3.906370">
        <ele>1070.940</ele>
        <time>2021-07-29T21:05:18Z</time>
      </trkpt>
      <trkpt lat="40.754403" lon="-3.906360">
        <ele>1070.863</ele>
        <time>2021-07-29T21:05:19Z</time>
      </trkpt>
      <trkpt lat="40.754371" lon="-3.906345">
        <ele>1070.612</ele>
        <time>2021-07-29T21:05:21Z</time>
      </trkpt>
      <trkpt lat="40.754371" lon="-3.906372">
        <ele>1070.773</ele>
        <time>2021-07-29T21:05:28Z</time>
      </trkpt>
      <trkpt lat="40.754403" lon="-3.906368">
        <ele>1070.885</ele>
        <time>2021-07-29T21:05:33Z</time>
      </trkpt>
      <trkpt lat="40.754384" lon="-3.906357">
        <ele>1070.713</ele>
        <time>2021-07-29T21:05:38Z</time>
      </trkpt>
      <trkpt lat="40.754365" lon="-3.906352">
        <ele>1070.608</ele>
        <time>2021-07-29T21:05:40Z</time>
      </trkpt>
      <trkpt lat="40.754346" lon="-3.906350">
        <ele>1070.614</ele>
        <time>2021-07-29T21:05:42Z</time>
      </trkpt>
      <trkpt lat="40.754323" lon="-3.906357">
        <ele>1070.596</ele>
        <time>2021-07-29T21:05:44Z</time>
      </trkpt>
      <trkpt lat="40.754298" lon="-3.906362">
        <ele>1070.433</ele>
        <time>2021-07-29T21:05:46Z</time>
      </trkpt>
      <trkpt lat="40.754282" lon="-3.906375">
        <ele>1070.440</ele>
        <time>2021-07-29T21:05:48Z</time>
      </trkpt>
      <trkpt lat="40.754253" lon="-3.906387">
        <ele>1070.381</ele>
        <time>2021-07-29T21:05:50Z</time>
      </trkpt>
      <trkpt lat="40.754227" lon="-3.906380">
        <ele>1070.211</ele>
        <time>2021-07-29T21:05:52Z</time>
      </trkpt>
      <trkpt lat="40.754208" lon="-3.906373">
        <ele>1070.144</ele>
        <time>2021-07-29T21:05:53Z</time>
      </trkpt>
      <trkpt lat="40.754189" lon="-3.906368">
        <ele>1070.133</ele>
        <time>2021-07-29T21:05:54Z</time>
      </trkpt>
      <trkpt lat="40.754163" lon="-3.906373">
        <ele>1070.075</ele>
        <time>2021-07-29T21:05:56Z</time>
      </trkpt>
      <trkpt lat="40.754134" lon="-3.906368">
        <ele>1070.028</ele>
        <time>2021-07-29T21:05:58Z</time>
      </trkpt>
      <trkpt lat="40.754109" lon="-3.906360">
        <ele>1070.020</ele>
        <time>2021-07-29T21:06:00Z</time>
      </trkpt>
      <trkpt lat="40.754086" lon="-3.906355">
        <ele>1070.008</ele>
        <time>2021-07-29T21:06:02Z</time>
      </trkpt>
      <trkpt lat="40.754070" lon="-3.906372">
        <ele>1070.014</ele>
        <time>2021-07-29T21:06:04Z</time>
      </trkpt>
      <trkpt lat="40.754048" lon="-3.906375">
        <ele>1070.066</ele>
        <time>2021-07-29T21:06:06Z</time>
      </trkpt>
      <trkpt lat="40.754029" lon="-3.906375">
        <ele>1070.033</ele>
        <time>2021-07-29T21:06:08Z</time>
      </trkpt>
      <trkpt lat="40.754013" lon="-3.906387">
        <ele>1070.040</ele>
        <time>2021-07-29T21:06:10Z</time>
      </trkpt>
      <trkpt lat="40.753990" lon="-3.906366">
        <ele>1070.091</ele>
        <time>2021-07-29T21:06:12Z</time>
      </trkpt>
      <trkpt lat="40.753965" lon="-3.906335">
        <ele>1070.081</ele>
        <time>2021-07-29T21:06:14Z</time>
      </trkpt>
      <trkpt lat="40.753939" lon="-3.906334">
        <ele>1070.054</ele>
        <time>2021-07-29T21:06:15Z</time>
      </trkpt>
      <trkpt lat="40.753920" lon="-3.906332">
        <ele>1070.013</ele>
        <time>2021-07-29T21:06:16Z</time>
      </trkpt>
      <trkpt lat="40.753898" lon="-3.906347">
        <ele>1070.094</ele>
        <time>2021-07-29T21:06:17Z</time>
      </trkpt>
      <trkpt lat="40.753875" lon="-3.906360">
        <ele>1070.057</ele>
        <time>2021-07-29T21:06:19Z</time>
      </trkpt>
      <trkpt lat="40.753853" lon="-3.906342">
        <ele>1070.022</ele>
        <time>2021-07-29T21:06:22Z</time>
      </trkpt>
      <trkpt lat="40.753834" lon="-3.906335">
        <ele>1070.008</ele>
        <time>2021-07-29T21:06:25Z</time>
      </trkpt>
      <trkpt lat="40.753818" lon="-3.906320">
        <ele>1069.916</ele>
        <time>2021-07-29T21:06:27Z</time>
      </trkpt>
      <trkpt lat="40.753789" lon="-3.906290">
        <ele>1069.958</ele>
        <time>2021-07-29T21:06:29Z</time>
      </trkpt>
      <trkpt lat="40.753754" lon="-3.906260">
        <ele>1069.845</ele>
        <time>2021-07-29T21:06:31Z</time>
      </trkpt>
      <trkpt lat="40.753738" lon="-3.906243">
        <ele>1069.742</ele>
        <time>2021-07-29T21:06:32Z</time>
      </trkpt>
      <trkpt lat="40.753712" lon="-3.906212">
        <ele>1069.693</ele>
        <time>2021-07-29T21:06:33Z</time>
      </trkpt>
      <trkpt lat="40.753690" lon="-3.906173">
        <ele>1069.423</ele>
        <time>2021-07-29T21:06:34Z</time>
      </trkpt>
      <trkpt lat="40.753661" lon="-3.906142">
        <ele>1069.326</ele>
        <time>2021-07-29T21:06:35Z</time>
      </trkpt>
      <trkpt lat="40.753635" lon="-3.906125">
        <ele>1069.115</ele>
        <time>2021-07-29T21:06:36Z</time>
      </trkpt>
      <trkpt lat="40.753616" lon="-3.906110">
        <ele>1069.092</ele>
        <time>2021-07-29T21:06:37Z</time>
      </trkpt>
      <trkpt lat="40.753597" lon="-3.906095">
        <ele>1068.873</ele>
        <time>2021-07-29T21:06:38Z</time>
      </trkpt>
      <trkpt lat="40.753578" lon="-3.906102">
        <ele>1068.820</ele>
        <time>2021-07-29T21:06:40Z</time>
      </trkpt>
      <trkpt lat="40.753552" lon="-3.906105">
        <ele>1068.708</ele>
        <time>2021-07-29T21:06:44Z</time>
      </trkpt>
      <trkpt lat="40.753533" lon="-3.906107">
        <ele>1068.796</ele>
        <time>2021-07-29T21:06:46Z</time>
      </trkpt>
      <trkpt lat="40.753514" lon="-3.906093">
        <ele>1068.518</ele>
        <time>2021-07-29T21:06:48Z</time>
      </trkpt>
      <trkpt lat="40.753498" lon="-3.906082">
        <ele>1068.395</ele>
        <time>2021-07-29T21:06:49Z</time>
      </trkpt>
      <trkpt lat="40.753482" lon="-3.906062">
        <ele>1068.112</ele>
        <time>2021-07-29T21:06:54Z</time>
      </trkpt>
      <trkpt lat="40.753459" lon="-3.906077">
        <ele>1068.163</ele>
        <time>2021-07-29T21:06:57Z</time>
      </trkpt>
      <trkpt lat="40.753424" lon="-3.906070">
        <ele>1067.953</ele>
        <time>2021-07-29T21:06:59Z</time>
      </trkpt>
      <trkpt lat="40.753395" lon="-3.906058">
        <ele>1067.726</ele>
        <time>2021-07-29T21:07:05Z</time>
      </trkpt>
      <trkpt lat="40.753376" lon="-3.906047">
        <ele>1067.545</ele>
        <time>2021-07-29T21:07:08Z</time>
      </trkpt>
      <trkpt lat="40.753360" lon="-3.906033">
        <ele>1067.347</ele>
        <time>2021-07-29T21:07:10Z</time>
      </trkpt>
      <trkpt lat="40.753341" lon="-3.906023">
        <ele>1067.129</ele>
        <time>2021-07-29T21:07:12Z</time>
      </trkpt>
      <trkpt lat="40.753322" lon="-3.906007">
        <ele>1066.921</ele>
        <time>2021-07-29T21:07:14Z</time>
      </trkpt>
      <trkpt lat="40.753302" lon="-3.905998">
        <ele>1066.908</ele>
        <time>2021-07-29T21:07:16Z</time>
      </trkpt>
      <trkpt lat="40.753283" lon="-3.905980">
        <ele>1066.841</ele>
        <time>2021-07-29T21:07:19Z</time>
      </trkpt>
      <trkpt lat="40.753258" lon="-3.905957">
        <ele>1066.663</ele>
        <time>2021-07-29T21:07:22Z</time>
      </trkpt>
      <trkpt lat="40.753238" lon="-3.905935">
        <ele>1066.330</ele>
        <time>2021-07-29T21:07:23Z</time>
      </trkpt>
      <trkpt lat="40.753219" lon="-3.905915">
        <ele>1066.127</ele>
        <time>2021-07-29T21:07:24Z</time>
      </trkpt>
      <trkpt lat="40.753200" lon="-3.905893">
        <ele>1065.978</ele>
        <time>2021-07-29T21:07:26Z</time>
      </trkpt>
      <trkpt lat="40.753178" lon="-3.905867">
        <ele>1065.548</ele>
        <time>2021-07-29T21:07:28Z</time>
      </trkpt>
      <trkpt lat="40.753158" lon="-3.905850">
        <ele>1065.371</ele>
        <time>2021-07-29T21:07:30Z</time>
      </trkpt>
      <trkpt lat="40.753152" lon="-3.905825">
        <ele>1064.980</ele>
        <time>2021-07-29T21:07:32Z</time>
      </trkpt>
      <trkpt lat="40.753133" lon="-3.905806">
        <ele>1064.664</ele>
        <time>2021-07-29T21:07:34Z</time>
      </trkpt>
      <trkpt lat="40.753098" lon="-3.905787">
        <ele>1064.206</ele>
        <time>2021-07-29T21:07:36Z</time>
      </trkpt>
      <trkpt lat="40.753082" lon="-3.905775">
        <ele>1064.016</ele>
        <time>2021-07-29T21:07:37Z</time>
      </trkpt>
      <trkpt lat="40.753062" lon="-3.905758">
        <ele>1063.708</ele>
        <time>2021-07-29T21:07:39Z</time>
      </trkpt>
      <trkpt lat="40.753043" lon="-3.905745">
        <ele>1063.753</ele>
        <time>2021-07-29T21:07:41Z</time>
      </trkpt>
      <trkpt lat="40.753021" lon="-3.905727">
        <ele>1063.855</ele>
        <time>2021-07-29T21:07:43Z</time>
      </trkpt>
      <trkpt lat="40.752998" lon="-3.905702">
        <ele>1063.892</ele>
        <time>2021-07-29T21:07:46Z</time>
      </trkpt>
      <trkpt lat="40.752982" lon="-3.905682">
        <ele>1063.769</ele>
        <time>2021-07-29T21:07:48Z</time>
      </trkpt>
      <trkpt lat="40.752963" lon="-3.905657">
        <ele>1063.790</ele>
        <time>2021-07-29T21:07:50Z</time>
      </trkpt>
      <trkpt lat="40.752947" lon="-3.905632">
        <ele>1063.660</ele>
        <time>2021-07-29T21:07:52Z</time>
      </trkpt>
      <trkpt lat="40.752934" lon="-3.905598">
        <ele>1063.343</ele>
        <time>2021-07-29T21:07:56Z</time>
      </trkpt>
      <trkpt lat="40.752918" lon="-3.905580">
        <ele>1063.452</ele>
        <time>2021-07-29T21:07:58Z</time>
      </trkpt>
      <trkpt lat="40.752899" lon="-3.905567">
        <ele>1063.647</ele>
        <time>2021-07-29T21:08:00Z</time>
      </trkpt>
      <trkpt lat="40.752880" lon="-3.905557">
        <ele>1063.829</ele>
        <time>2021-07-29T21:08:02Z</time>
      </trkpt>
      <trkpt lat="40.752854" lon="-3.905532">
        <ele>1064.121</ele>
        <time>2021-07-29T21:08:04Z</time>
      </trkpt>
      <trkpt lat="40.752838" lon="-3.905505">
        <ele>1064.108</ele>
        <time>2021-07-29T21:08:06Z</time>
      </trkpt>
      <trkpt lat="40.752832" lon="-3.905475">
        <ele>1063.971</ele>
        <time>2021-07-29T21:08:08Z</time>
      </trkpt>
      <trkpt lat="40.752816" lon="-3.905443">
        <ele>1063.813</ele>
        <time>2021-07-29T21:08:09Z</time>
      </trkpt>
      <trkpt lat="40.752800" lon="-3.905418">
        <ele>1063.780</ele>
        <time>2021-07-29T21:08:10Z</time>
      </trkpt>
      <trkpt lat="40.752784" lon="-3.905388">
        <ele>1063.527</ele>
        <time>2021-07-29T21:08:12Z</time>
      </trkpt>
      <trkpt lat="40.752768" lon="-3.905362">
        <ele>1063.418</ele>
        <time>2021-07-29T21:08:15Z</time>
      </trkpt>
      <trkpt lat="40.752758" lon="-3.905335">
        <ele>1063.368</ele>
        <time>2021-07-29T21:08:17Z</time>
      </trkpt>
      <trkpt lat="40.752749" lon="-3.905302">
        <ele>1063.061</ele>
        <time>2021-07-29T21:08:19Z</time>
      </trkpt>
      <trkpt lat="40.752736" lon="-3.905275">
        <ele>1062.940</ele>
        <time>2021-07-29T21:08:21Z</time>
      </trkpt>
      <trkpt lat="40.752717" lon="-3.905255">
        <ele>1063.154</ele>
        <time>2021-07-29T21:08:22Z</time>
      </trkpt>
      <trkpt lat="40.752701" lon="-3.905242">
        <ele>1063.356</ele>
        <time>2021-07-29T21:08:23Z</time>
      </trkpt>
      <trkpt lat="40.752678" lon="-3.905220">
        <ele>1063.611</ele>
        <time>2021-07-29T21:08:25Z</time>
      </trkpt>
      <trkpt lat="40.752666" lon="-3.905197">
        <ele>1063.608</ele>
        <time>2021-07-29T21:08:27Z</time>
      </trkpt>
      <trkpt lat="40.752656" lon="-3.905163">
        <ele>1063.492</ele>
        <time>2021-07-29T21:08:29Z</time>
      </trkpt>
      <trkpt lat="40.752634" lon="-3.905132">
        <ele>1063.524</ele>
        <time>2021-07-29T21:08:31Z</time>
      </trkpt>
      <trkpt lat="40.752621" lon="-3.905113">
        <ele>1063.521</ele>
        <time>2021-07-29T21:08:32Z</time>
      </trkpt>
      <trkpt lat="40.752605" lon="-3.905102">
        <ele>1063.758</ele>
        <time>2021-07-29T21:08:34Z</time>
      </trkpt>
      <trkpt lat="40.752595" lon="-3.905077">
        <ele>1063.689</ele>
        <time>2021-07-29T21:08:36Z</time>
      </trkpt>
      <trkpt lat="40.752582" lon="-3.905053">
        <ele>1063.599</ele>
        <time>2021-07-29T21:08:38Z</time>
      </trkpt>
      <trkpt lat="40.752570" lon="-3.905028">
        <ele>1063.322</ele>
        <time>2021-07-29T21:08:40Z</time>
      </trkpt>
      <trkpt lat="40.752563" lon="-3.905003">
        <ele>1063.151</ele>
        <time>2021-07-29T21:08:42Z</time>
      </trkpt>
      <trkpt lat="40.752560" lon="-3.904978">
        <ele>1062.911</ele>
        <time>2021-07-29T21:08:44Z</time>
      </trkpt>
      <trkpt lat="40.752547" lon="-3.904950">
        <ele>1062.721</ele>
        <time>2021-07-29T21:08:46Z</time>
      </trkpt>
      <trkpt lat="40.752538" lon="-3.904925">
        <ele>1062.503</ele>
        <time>2021-07-29T21:08:48Z</time>
      </trkpt>
      <trkpt lat="40.752525" lon="-3.904898">
        <ele>1062.308</ele>
        <time>2021-07-29T21:08:51Z</time>
      </trkpt>
      <trkpt lat="40.752518" lon="-3.904868">
        <ele>1061.988</ele>
        <time>2021-07-29T21:08:53Z</time>
      </trkpt>
      <trkpt lat="40.752502" lon="-3.904837">
        <ele>1061.670</ele>
        <time>2021-07-29T21:08:55Z</time>
      </trkpt>
      <trkpt lat="40.752486" lon="-3.904815">
        <ele>1061.837</ele>
        <time>2021-07-29T21:08:56Z</time>
      </trkpt>
      <trkpt lat="40.752470" lon="-3.904786">
        <ele>1061.874</ele>
        <time>2021-07-29T21:08:58Z</time>
      </trkpt>
      <trkpt lat="40.752461" lon="-3.904753">
        <ele>1061.745</ele>
        <time>2021-07-29T21:09:00Z</time>
      </trkpt>
      <trkpt lat="40.752464" lon="-3.904718">
        <ele>1061.245</ele>
        <time>2021-07-29T21:09:02Z</time>
      </trkpt>
      <trkpt lat="40.752458" lon="-3.904688">
        <ele>1061.228</ele>
        <time>2021-07-29T21:09:04Z</time>
      </trkpt>
      <trkpt lat="40.752448" lon="-3.904660">
        <ele>1061.517</ele>
        <time>2021-07-29T21:09:06Z</time>
      </trkpt>
      <trkpt lat="40.752442" lon="-3.904635">
        <ele>1061.668</ele>
        <time>2021-07-29T21:09:08Z</time>
      </trkpt>
      <trkpt lat="40.752442" lon="-3.904604">
        <ele>1061.542</ele>
        <time>2021-07-29T21:09:10Z</time>
      </trkpt>
      <trkpt lat="40.752442" lon="-3.904565">
        <ele>1061.326</ele>
        <time>2021-07-29T21:09:12Z</time>
      </trkpt>
      <trkpt lat="40.752429" lon="-3.904532">
        <ele>1061.608</ele>
        <time>2021-07-29T21:09:14Z</time>
      </trkpt>
      <trkpt lat="40.752422" lon="-3.904508">
        <ele>1061.873</ele>
        <time>2021-07-29T21:09:15Z</time>
      </trkpt>
      <trkpt lat="40.752429" lon="-3.904470">
        <ele>1061.435</ele>
        <time>2021-07-29T21:09:17Z</time>
      </trkpt>
      <trkpt lat="40.752429" lon="-3.904433">
        <ele>1061.212</ele>
        <time>2021-07-29T21:09:19Z</time>
      </trkpt>
      <trkpt lat="40.752416" lon="-3.904402">
        <ele>1061.519</ele>
        <time>2021-07-29T21:09:21Z</time>
      </trkpt>
      <trkpt lat="40.752400" lon="-3.904370">
        <ele>1061.930</ele>
        <time>2021-07-29T21:09:23Z</time>
      </trkpt>
      <trkpt lat="40.752390" lon="-3.904338">
        <ele>1062.060</ele>
        <time>2021-07-29T21:09:25Z</time>
      </trkpt>
      <trkpt lat="40.752384" lon="-3.904305">
        <ele>1062.083</ele>
        <time>2021-07-29T21:09:27Z</time>
      </trkpt>
      <trkpt lat="40.752371" lon="-3.904270">
        <ele>1062.362</ele>
        <time>2021-07-29T21:09:29Z</time>
      </trkpt>
      <trkpt lat="40.752371" lon="-3.904237">
        <ele>1062.164</ele>
        <time>2021-07-29T21:09:31Z</time>
      </trkpt>
      <trkpt lat="40.752371" lon="-3.904197">
        <ele>1061.906</ele>
        <time>2021-07-29T21:09:33Z</time>
      </trkpt>
      <trkpt lat="40.752378" lon="-3.904160">
        <ele>1061.516</ele>
        <time>2021-07-29T21:09:35Z</time>
      </trkpt>
      <trkpt lat="40.752381" lon="-3.904120">
        <ele>1061.308</ele>
        <time>2021-07-29T21:09:37Z</time>
      </trkpt>
      <trkpt lat="40.752378" lon="-3.904088">
        <ele>1061.233</ele>
        <time>2021-07-29T21:09:39Z</time>
      </trkpt>
      <trkpt lat="40.752381" lon="-3.904063">
        <ele>1061.165</ele>
        <time>2021-07-29T21:09:41Z</time>
      </trkpt>
      <trkpt lat="40.752387" lon="-3.904028">
        <ele>1060.822</ele>
        <time>2021-07-29T21:09:43Z</time>
      </trkpt>
      <trkpt lat="40.752390" lon="-3.903990">
        <ele>1060.559</ele>
        <time>2021-07-29T21:09:45Z</time>
      </trkpt>
      <trkpt lat="40.752390" lon="-3.903957">
        <ele>1060.420</ele>
        <time>2021-07-29T21:09:47Z</time>
      </trkpt>
      <trkpt lat="40.752390" lon="-3.903925">
        <ele>1060.340</ele>
        <time>2021-07-29T21:09:49Z</time>
      </trkpt>
      <trkpt lat="40.752397" lon="-3.903892">
        <ele>1060.033</ele>
        <time>2021-07-29T21:09:51Z</time>
      </trkpt>
      <trkpt lat="40.752403" lon="-3.903854">
        <ele>1059.532</ele>
        <time>2021-07-29T21:09:53Z</time>
      </trkpt>
      <trkpt lat="40.752416" lon="-3.903818">
        <ele>1058.935</ele>
        <time>2021-07-29T21:09:55Z</time>
      </trkpt>
      <trkpt lat="40.752419" lon="-3.903790">
        <ele>1058.686</ele>
        <time>2021-07-29T21:09:57Z</time>
      </trkpt>
      <trkpt lat="40.752429" lon="-3.903768">
        <ele>1058.214</ele>
        <time>2021-07-29T21:09:59Z</time>
      </trkpt>
      <trkpt lat="40.752438" lon="-3.903736">
        <ele>1057.708</ele>
        <time>2021-07-29T21:10:01Z</time>
      </trkpt>
      <trkpt lat="40.752445" lon="-3.903695">
        <ele>1057.230</ele>
        <time>2021-07-29T21:10:03Z</time>
      </trkpt>
      <trkpt lat="40.752461" lon="-3.903662">
        <ele>1056.512</ele>
        <time>2021-07-29T21:10:05Z</time>
      </trkpt>
      <trkpt lat="40.752470" lon="-3.903632">
        <ele>1056.039</ele>
        <time>2021-07-29T21:10:07Z</time>
      </trkpt>
      <trkpt lat="40.752477" lon="-3.903593">
        <ele>1055.616</ele>
        <time>2021-07-29T21:10:09Z</time>
      </trkpt>
      <trkpt lat="40.752464" lon="-3.903572">
        <ele>1055.957</ele>
        <time>2021-07-29T21:10:10Z</time>
      </trkpt>
      <trkpt lat="40.752458" lon="-3.903534">
        <ele>1055.977</ele>
        <time>2021-07-29T21:10:12Z</time>
      </trkpt>
      <trkpt lat="40.752467" lon="-3.903497">
        <ele>1055.510</ele>
        <time>2021-07-29T21:10:14Z</time>
      </trkpt>
      <trkpt lat="40.752477" lon="-3.903460">
        <ele>1055.139</ele>
        <time>2021-07-29T21:10:16Z</time>
      </trkpt>
      <trkpt lat="40.752477" lon="-3.903432">
        <ele>1055.049</ele>
        <time>2021-07-29T21:10:18Z</time>
      </trkpt>
      <trkpt lat="40.752483" lon="-3.903397">
        <ele>1054.702</ele>
        <time>2021-07-29T21:10:20Z</time>
      </trkpt>
      <trkpt lat="40.752483" lon="-3.903372">
        <ele>1054.622</ele>
        <time>2021-07-29T21:10:21Z</time>
      </trkpt>
      <trkpt lat="40.752483" lon="-3.903333">
        <ele>1054.508</ele>
        <time>2021-07-29T21:10:23Z</time>
      </trkpt>
      <trkpt lat="40.752483" lon="-3.903320">
        <ele>1054.431</ele>
        <time>2021-07-29T21:10:24Z</time>
      </trkpt>
      <trkpt lat="40.752262" lon="-3.902248">
        <ele>1053.643</ele>
        <time>2021-07-29T21:11:28Z</time>
      </trkpt>
      <trkpt lat="40.752099" lon="-3.901588">
        <ele>1050.644</ele>
        <time>2021-07-30T09:15:28Z</time>
      </trkpt>
      <trkpt lat="40.752067" lon="-3.901565">
        <ele>1050.705</ele>
        <time>2021-07-30T09:15:30Z</time>
      </trkpt>
      <trkpt lat="40.752032" lon="-3.901552">
        <ele>1050.815</ele>
        <time>2021-07-30T09:15:32Z</time>
      </trkpt>
      <trkpt lat="40.752006" lon="-3.901550">
        <ele>1050.908</ele>
        <time>2021-07-30T09:15:34Z</time>
      </trkpt>
      <trkpt lat="40.751987" lon="-3.901552">
        <ele>1051.011</ele>
        <time>2021-07-30T09:15:36Z</time>
      </trkpt>
      <trkpt lat="40.751965" lon="-3.901565">
        <ele>1051.273</ele>
        <time>2021-07-30T09:15:44Z</time>
      </trkpt>
      <trkpt lat="40.751952" lon="-3.901545">
        <ele>1051.150</ele>
        <time>2021-07-30T09:15:47Z</time>
      </trkpt>
      <trkpt lat="40.751933" lon="-3.901542">
        <ele>1051.197</ele>
        <time>2021-07-30T09:15:50Z</time>
      </trkpt>
      <trkpt lat="40.751914" lon="-3.901522">
        <ele>1051.068</ele>
        <time>2021-07-30T09:15:54Z</time>
      </trkpt>
      <trkpt lat="40.751901" lon="-3.901503">
        <ele>1050.918</ele>
        <time>2021-07-30T09:15:56Z</time>
      </trkpt>
      <trkpt lat="40.751885" lon="-3.901482">
        <ele>1050.882</ele>
        <time>2021-07-30T09:15:58Z</time>
      </trkpt>
      <trkpt lat="40.751872" lon="-3.901455">
        <ele>1050.749</ele>
        <time>2021-07-30T09:16:00Z</time>
      </trkpt>
      <trkpt lat="40.751843" lon="-3.901438">
        <ele>1050.775</ele>
        <time>2021-07-30T09:16:03Z</time>
      </trkpt>
      <trkpt lat="40.751814" lon="-3.901424">
        <ele>1050.728</ele>
        <time>2021-07-30T09:16:05Z</time>
      </trkpt>
      <trkpt lat="40.751795" lon="-3.901404">
        <ele>1050.620</ele>
        <time>2021-07-30T09:16:08Z</time>
      </trkpt>
      <trkpt lat="40.751773" lon="-3.901388">
        <ele>1050.608</ele>
        <time>2021-07-30T09:16:11Z</time>
      </trkpt>
      <trkpt lat="40.751754" lon="-3.901365">
        <ele>1050.594</ele>
        <time>2021-07-30T09:16:14Z</time>
      </trkpt>
      <trkpt lat="40.751734" lon="-3.901342">
        <ele>1050.576</ele>
        <time>2021-07-30T09:16:17Z</time>
      </trkpt>
      <trkpt lat="40.751709" lon="-3.901317">
        <ele>1050.493</ele>
        <time>2021-07-30T09:16:20Z</time>
      </trkpt>
      <trkpt lat="40.751686" lon="-3.901298">
        <ele>1050.310</ele>
        <time>2021-07-30T09:16:22Z</time>
      </trkpt>
      <trkpt lat="40.751664" lon="-3.901280">
        <ele>1050.241</ele>
        <time>2021-07-30T09:16:24Z</time>
      </trkpt>
      <trkpt lat="40.751645" lon="-3.901272">
        <ele>1050.121</ele>
        <time>2021-07-30T09:16:26Z</time>
      </trkpt>
      <trkpt lat="40.751626" lon="-3.901248">
        <ele>1049.945</ele>
        <time>2021-07-30T09:16:28Z</time>
      </trkpt>
      <trkpt lat="40.751610" lon="-3.901232">
        <ele>1049.812</ele>
        <time>2021-07-30T09:16:30Z</time>
      </trkpt>
      <trkpt lat="40.751594" lon="-3.901215">
        <ele>1049.684</ele>
        <time>2021-07-30T09:16:32Z</time>
      </trkpt>
      <trkpt lat="40.751581" lon="-3.901192">
        <ele>1049.407</ele>
        <time>2021-07-30T09:16:34Z</time>
      </trkpt>
      <trkpt lat="40.751565" lon="-3.901175">
        <ele>1049.217</ele>
        <time>2021-07-30T09:16:36Z</time>
      </trkpt>
      <trkpt lat="40.751549" lon="-3.901157">
        <ele>1049.008</ele>
        <time>2021-07-30T09:16:38Z</time>
      </trkpt>
      <trkpt lat="40.751533" lon="-3.901128">
        <ele>1048.725</ele>
        <time>2021-07-30T09:16:41Z</time>
      </trkpt>
      <trkpt lat="40.751514" lon="-3.901108">
        <ele>1048.447</ele>
        <time>2021-07-30T09:16:43Z</time>
      </trkpt>
      <trkpt lat="40.751494" lon="-3.901082">
        <ele>1048.184</ele>
        <time>2021-07-30T09:16:46Z</time>
      </trkpt>
      <trkpt lat="40.751491" lon="-3.901055">
        <ele>1047.811</ele>
        <time>2021-07-30T09:16:48Z</time>
      </trkpt>
      <trkpt lat="40.751491" lon="-3.901025">
        <ele>1047.642</ele>
        <time>2021-07-30T09:16:51Z</time>
      </trkpt>
      <trkpt lat="40.751472" lon="-3.901000">
        <ele>1047.232</ele>
        <time>2021-07-30T09:16:54Z</time>
      </trkpt>
      <trkpt lat="40.751453" lon="-3.900983">
        <ele>1047.046</ele>
        <time>2021-07-30T09:16:56Z</time>
      </trkpt>
      <trkpt lat="40.751450" lon="-3.900950">
        <ele>1046.663</ele>
        <time>2021-07-30T09:16:58Z</time>
      </trkpt>
      <trkpt lat="40.751456" lon="-3.900922">
        <ele>1046.476</ele>
        <time>2021-07-30T09:17:00Z</time>
      </trkpt>
      <trkpt lat="40.751446" lon="-3.900900">
        <ele>1046.190</ele>
        <time>2021-07-30T09:17:02Z</time>
      </trkpt>
      <trkpt lat="40.751430" lon="-3.900878">
        <ele>1045.819</ele>
        <time>2021-07-30T09:17:04Z</time>
      </trkpt>
      <trkpt lat="40.751424" lon="-3.900853">
        <ele>1045.508</ele>
        <time>2021-07-30T09:17:07Z</time>
      </trkpt>
      <trkpt lat="40.751411" lon="-3.900833">
        <ele>1045.224</ele>
        <time>2021-07-30T09:17:09Z</time>
      </trkpt>
      <trkpt lat="40.751389" lon="-3.900812">
        <ele>1044.896</ele>
        <time>2021-07-30T09:17:12Z</time>
      </trkpt>
      <trkpt lat="40.751366" lon="-3.900802">
        <ele>1045.133</ele>
        <time>2021-07-30T09:17:14Z</time>
      </trkpt>
      <trkpt lat="40.751344" lon="-3.900777">
        <ele>1045.160</ele>
        <time>2021-07-30T09:17:16Z</time>
      </trkpt>
      <trkpt lat="40.751325" lon="-3.900746">
        <ele>1045.171</ele>
        <time>2021-07-30T09:17:18Z</time>
      </trkpt>
      <trkpt lat="40.751293" lon="-3.900725">
        <ele>1045.391</ele>
        <time>2021-07-30T09:17:20Z</time>
      </trkpt>
      <trkpt lat="40.751277" lon="-3.900714">
        <ele>1045.465</ele>
        <time>2021-07-30T09:17:21Z</time>
      </trkpt>
      <trkpt lat="40.751267" lon="-3.900690">
        <ele>1045.272</ele>
        <time>2021-07-30T09:17:24Z</time>
      </trkpt>
      <trkpt lat="40.751254" lon="-3.900663">
        <ele>1045.047</ele>
        <time>2021-07-30T09:17:27Z</time>
      </trkpt>
      <trkpt lat="40.751245" lon="-3.900637">
        <ele>1044.729</ele>
        <time>2021-07-30T09:17:29Z</time>
      </trkpt>
      <trkpt lat="40.751229" lon="-3.900613">
        <ele>1044.621</ele>
        <time>2021-07-30T09:17:37Z</time>
      </trkpt>
      <trkpt lat="40.751232" lon="-3.900587">
        <ele>1044.208</ele>
        <time>2021-07-30T09:17:39Z</time>
      </trkpt>
      <trkpt lat="40.751219" lon="-3.900558">
        <ele>1043.961</ele>
        <time>2021-07-30T09:17:41Z</time>
      </trkpt>
      <trkpt lat="40.751203" lon="-3.900540">
        <ele>1043.863</ele>
        <time>2021-07-30T09:17:43Z</time>
      </trkpt>
      <trkpt lat="40.751190" lon="-3.900520">
        <ele>1043.680</ele>
        <time>2021-07-30T09:17:45Z</time>
      </trkpt>
      <trkpt lat="40.751171" lon="-3.900500">
        <ele>1043.567</ele>
        <time>2021-07-30T09:17:47Z</time>
      </trkpt>
      <trkpt lat="40.751155" lon="-3.900477">
        <ele>1043.288</ele>
        <time>2021-07-30T09:17:49Z</time>
      </trkpt>
      <trkpt lat="40.751139" lon="-3.900445">
        <ele>1042.898</ele>
        <time>2021-07-30T09:17:52Z</time>
      </trkpt>
      <trkpt lat="40.751120" lon="-3.900423">
        <ele>1042.672</ele>
        <time>2021-07-30T09:17:54Z</time>
      </trkpt>
      <trkpt lat="40.751098" lon="-3.900395">
        <ele>1042.599</ele>
        <time>2021-07-30T09:17:57Z</time>
      </trkpt>
      <trkpt lat="40.751085" lon="-3.900374">
        <ele>1042.599</ele>
        <time>2021-07-30T09:17:59Z</time>
      </trkpt>
      <trkpt lat="40.751069" lon="-3.900338">
        <ele>1042.307</ele>
        <time>2021-07-30T09:18:02Z</time>
      </trkpt>
      <trkpt lat="40.751053" lon="-3.900312">
        <ele>1042.427</ele>
        <time>2021-07-30T09:18:04Z</time>
      </trkpt>
      <trkpt lat="40.751037" lon="-3.900293">
        <ele>1042.608</ele>
        <time>2021-07-30T09:18:06Z</time>
      </trkpt>
      <trkpt lat="40.751021" lon="-3.900272">
        <ele>1042.926</ele>
        <time>2021-07-30T09:18:08Z</time>
      </trkpt>
      <trkpt lat="40.751014" lon="-3.900248">
        <ele>1043.028</ele>
        <time>2021-07-30T09:18:10Z</time>
      </trkpt>
      <trkpt lat="40.750998" lon="-3.900220">
        <ele>1043.435</ele>
        <time>2021-07-30T09:18:12Z</time>
      </trkpt>
      <trkpt lat="40.750976" lon="-3.900196">
        <ele>1043.942</ele>
        <time>2021-07-30T09:18:14Z</time>
      </trkpt>
      <trkpt lat="40.750960" lon="-3.900172">
        <ele>1044.343</ele>
        <time>2021-07-30T09:18:16Z</time>
      </trkpt>
      <trkpt lat="40.750950" lon="-3.900147">
        <ele>1044.453</ele>
        <time>2021-07-30T09:18:18Z</time>
      </trkpt>
      <trkpt lat="40.750938" lon="-3.900118">
        <ele>1044.597</ele>
        <time>2021-07-30T09:18:20Z</time>
      </trkpt>
      <trkpt lat="40.750931" lon="-3.900085">
        <ele>1044.534</ele>
        <time>2021-07-30T09:18:22Z</time>
      </trkpt>
      <trkpt lat="40.750922" lon="-3.900057">
        <ele>1044.561</ele>
        <time>2021-07-30T09:18:24Z</time>
      </trkpt>
      <trkpt lat="40.750912" lon="-3.900030">
        <ele>1044.521</ele>
        <time>2021-07-30T09:18:26Z</time>
      </trkpt>
      <trkpt lat="40.750912" lon="-3.899988">
        <ele>1044.213</ele>
        <time>2021-07-30T09:18:29Z</time>
      </trkpt>
      <trkpt lat="40.750896" lon="-3.899960">
        <ele>1044.308</ele>
        <time>2021-07-30T09:18:31Z</time>
      </trkpt>
      <trkpt lat="40.750886" lon="-3.899928">
        <ele>1044.213</ele>
        <time>2021-07-30T09:18:34Z</time>
      </trkpt>
      <trkpt lat="40.750877" lon="-3.899903">
        <ele>1044.255</ele>
        <time>2021-07-30T09:18:36Z</time>
      </trkpt>
      <trkpt lat="40.750870" lon="-3.899880">
        <ele>1044.172</ele>
        <time>2021-07-30T09:18:38Z</time>
      </trkpt>
      <trkpt lat="40.750858" lon="-3.899852">
        <ele>1044.079</ele>
        <time>2021-07-30T09:18:40Z</time>
      </trkpt>
      <trkpt lat="40.750851" lon="-3.899823">
        <ele>1043.870</ele>
        <time>2021-07-30T09:18:42Z</time>
      </trkpt>
      <trkpt lat="40.750835" lon="-3.899793">
        <ele>1043.760</ele>
        <time>2021-07-30T09:18:44Z</time>
      </trkpt>
      <trkpt lat="40.750822" lon="-3.899768">
        <ele>1043.894</ele>
        <time>2021-07-30T09:18:46Z</time>
      </trkpt>
      <trkpt lat="40.750813" lon="-3.899742">
        <ele>1043.791</ele>
        <time>2021-07-30T09:18:48Z</time>
      </trkpt>
      <trkpt lat="40.750806" lon="-3.899715">
        <ele>1043.655</ele>
        <time>2021-07-30T09:18:50Z</time>
      </trkpt>
      <trkpt lat="40.750794" lon="-3.899682">
        <ele>1043.607</ele>
        <time>2021-07-30T09:18:52Z</time>
      </trkpt>
      <trkpt lat="40.750781" lon="-3.899655">
        <ele>1043.617</ele>
        <time>2021-07-30T09:18:54Z</time>
      </trkpt>
      <trkpt lat="40.750768" lon="-3.899632">
        <ele>1043.708</ele>
        <time>2021-07-30T09:18:56Z</time>
      </trkpt>
      <trkpt lat="40.750762" lon="-3.899603">
        <ele>1043.632</ele>
        <time>2021-07-30T09:18:58Z</time>
      </trkpt>
      <trkpt lat="40.750752" lon="-3.899578">
        <ele>1043.674</ele>
        <time>2021-07-30T09:19:00Z</time>
      </trkpt>
      <trkpt lat="40.750739" lon="-3.899557">
        <ele>1043.851</ele>
        <time>2021-07-30T09:19:02Z</time>
      </trkpt>
      <trkpt lat="40.750730" lon="-3.899535">
        <ele>1043.898</ele>
        <time>2021-07-30T09:19:04Z</time>
      </trkpt>
      <trkpt lat="40.750710" lon="-3.899515">
        <ele>1044.219</ele>
        <time>2021-07-30T09:19:06Z</time>
      </trkpt>
      <trkpt lat="40.750701" lon="-3.899483">
        <ele>1044.269</ele>
        <time>2021-07-30T09:19:08Z</time>
      </trkpt>
      <trkpt lat="40.750688" lon="-3.899455">
        <ele>1044.333</ele>
        <time>2021-07-30T09:19:10Z</time>
      </trkpt>
      <trkpt lat="40.750669" lon="-3.899427">
        <ele>1044.650</ele>
        <time>2021-07-30T09:19:12Z</time>
      </trkpt>
      <trkpt lat="40.750637" lon="-3.899412">
        <ele>1045.516</ele>
        <time>2021-07-30T09:19:14Z</time>
      </trkpt>
      <trkpt lat="40.750621" lon="-3.899400">
        <ele>1045.876</ele>
        <time>2021-07-30T09:19:18Z</time>
      </trkpt>
      <trkpt lat="40.750614" lon="-3.899372">
        <ele>1045.813</ele>
        <time>2021-07-30T09:19:28Z</time>
      </trkpt>
      <trkpt lat="40.750595" lon="-3.899342">
        <ele>1046.208</ele>
        <time>2021-07-30T09:19:31Z</time>
      </trkpt>
      <trkpt lat="40.750579" lon="-3.899312">
        <ele>1046.418</ele>
        <time>2021-07-30T09:19:33Z</time>
      </trkpt>
      <trkpt lat="40.750563" lon="-3.899280">
        <ele>1046.670</ele>
        <time>2021-07-30T09:19:36Z</time>
      </trkpt>
      <trkpt lat="40.750554" lon="-3.899258">
        <ele>1046.787</ele>
        <time>2021-07-30T09:19:38Z</time>
      </trkpt>
      <trkpt lat="40.750538" lon="-3.899242">
        <ele>1046.824</ele>
        <time>2021-07-30T09:19:40Z</time>
      </trkpt>
      <trkpt lat="40.750518" lon="-3.899210">
        <ele>1046.955</ele>
        <time>2021-07-30T09:19:43Z</time>
      </trkpt>
      <trkpt lat="40.750502" lon="-3.899190">
        <ele>1047.015</ele>
        <time>2021-07-30T09:19:45Z</time>
      </trkpt>
      <trkpt lat="40.750496" lon="-3.899150">
        <ele>1046.759</ele>
        <time>2021-07-30T09:19:47Z</time>
      </trkpt>
      <trkpt lat="40.750490" lon="-3.899118">
        <ele>1046.536</ele>
        <time>2021-07-30T09:19:49Z</time>
      </trkpt>
      <trkpt lat="40.750477" lon="-3.899100">
        <ele>1046.569</ele>
        <time>2021-07-30T09:19:50Z</time>
      </trkpt>
      <trkpt lat="40.750464" lon="-3.899070">
        <ele>1046.404</ele>
        <time>2021-07-30T09:19:52Z</time>
      </trkpt>
      <trkpt lat="40.750451" lon="-3.899042">
        <ele>1046.324</ele>
        <time>2021-07-30T09:19:54Z</time>
      </trkpt>
      <trkpt lat="40.750435" lon="-3.899018">
        <ele>1046.408</ele>
        <time>2021-07-30T09:19:56Z</time>
      </trkpt>
      <trkpt lat="40.750438" lon="-3.898990">
        <ele>1046.183</ele>
        <time>2021-07-30T09:19:58Z</time>
      </trkpt>
      <trkpt lat="40.750429" lon="-3.898965">
        <ele>1046.065</ele>
        <time>2021-07-30T09:20:00Z</time>
      </trkpt>
      <trkpt lat="40.750416" lon="-3.898934">
        <ele>1045.992</ele>
        <time>2021-07-30T09:20:02Z</time>
      </trkpt>
      <trkpt lat="40.750410" lon="-3.898905">
        <ele>1045.869</ele>
        <time>2021-07-30T09:20:04Z</time>
      </trkpt>
      <trkpt lat="40.750403" lon="-3.898877">
        <ele>1045.760</ele>
        <time>2021-07-30T09:20:06Z</time>
      </trkpt>
      <trkpt lat="40.750394" lon="-3.898850">
        <ele>1045.740</ele>
        <time>2021-07-30T09:20:08Z</time>
      </trkpt>
      <trkpt lat="40.750381" lon="-3.898822">
        <ele>1045.874</ele>
        <time>2021-07-30T09:20:10Z</time>
      </trkpt>
      <trkpt lat="40.750381" lon="-3.898796">
        <ele>1045.741</ele>
        <time>2021-07-30T09:20:12Z</time>
      </trkpt>
      <trkpt lat="40.750371" lon="-3.898767">
        <ele>1045.752</ele>
        <time>2021-07-30T09:20:14Z</time>
      </trkpt>
      <trkpt lat="40.750365" lon="-3.898737">
        <ele>1045.753</ele>
        <time>2021-07-30T09:20:16Z</time>
      </trkpt>
      <trkpt lat="40.750358" lon="-3.898703">
        <ele>1045.708</ele>
        <time>2021-07-30T09:20:18Z</time>
      </trkpt>
      <trkpt lat="40.750358" lon="-3.898670">
        <ele>1045.508</ele>
        <time>2021-07-30T09:20:20Z</time>
      </trkpt>
      <trkpt lat="40.750346" lon="-3.898645">
        <ele>1045.782</ele>
        <time>2021-07-30T09:20:22Z</time>
      </trkpt>
      <trkpt lat="40.750339" lon="-3.898618">
        <ele>1045.734</ele>
        <time>2021-07-30T09:20:24Z</time>
      </trkpt>
      <trkpt lat="40.750323" lon="-3.898587">
        <ele>1045.981</ele>
        <time>2021-07-30T09:20:26Z</time>
      </trkpt>
      <trkpt lat="40.750314" lon="-3.898555">
        <ele>1045.878</ele>
        <time>2021-07-30T09:20:28Z</time>
      </trkpt>
      <trkpt lat="40.750310" lon="-3.898522">
        <ele>1045.789</ele>
        <time>2021-07-30T09:20:30Z</time>
      </trkpt>
      <trkpt lat="40.750291" lon="-3.898493">
        <ele>1045.969</ele>
        <time>2021-07-30T09:20:32Z</time>
      </trkpt>
      <trkpt lat="40.750278" lon="-3.898463">
        <ele>1045.993</ele>
        <time>2021-07-30T09:20:34Z</time>
      </trkpt>
      <trkpt lat="40.750266" lon="-3.898432">
        <ele>1045.970</ele>
        <time>2021-07-30T09:20:36Z</time>
      </trkpt>
      <trkpt lat="40.750259" lon="-3.898402">
        <ele>1045.835</ele>
        <time>2021-07-30T09:20:38Z</time>
      </trkpt>
      <trkpt lat="40.750253" lon="-3.898370">
        <ele>1045.786</ele>
        <time>2021-07-30T09:20:40Z</time>
      </trkpt>
      <trkpt lat="40.750253" lon="-3.898338">
        <ele>1045.514</ele>
        <time>2021-07-30T09:20:42Z</time>
      </trkpt>
      <trkpt lat="40.750253" lon="-3.898303">
        <ele>1045.308</ele>
        <time>2021-07-30T09:20:44Z</time>
      </trkpt>
      <trkpt lat="40.750246" lon="-3.898278">
        <ele>1045.490</ele>
        <time>2021-07-30T09:20:46Z</time>
      </trkpt>
      <trkpt lat="40.750243" lon="-3.898252">
        <ele>1045.362</ele>
        <time>2021-07-30T09:20:48Z</time>
      </trkpt>
      <trkpt lat="40.750243" lon="-3.898218">
        <ele>1045.259</ele>
        <time>2021-07-30T09:20:50Z</time>
      </trkpt>
      <trkpt lat="40.750240" lon="-3.898188">
        <ele>1045.266</ele>
        <time>2021-07-30T09:20:52Z</time>
      </trkpt>
      <trkpt lat="40.750240" lon="-3.898162">
        <ele>1045.157</ele>
        <time>2021-07-30T09:20:54Z</time>
      </trkpt>
      <trkpt lat="40.750240" lon="-3.898133">
        <ele>1045.037</ele>
        <time>2021-07-30T09:20:56Z</time>
      </trkpt>
      <trkpt lat="40.750259" lon="-3.898128">
        <ele>1044.681</ele>
        <time>2021-07-30T09:21:01Z</time>
      </trkpt>
      <trkpt lat="40.750246" lon="-3.898090">
        <ele>1044.748</ele>
        <time>2021-07-30T09:21:20Z</time>
      </trkpt>
      <trkpt lat="40.750240" lon="-3.898052">
        <ele>1044.748</ele>
        <time>2021-07-30T09:21:22Z</time>
      </trkpt>
      <trkpt lat="40.750234" lon="-3.898008">
        <ele>1044.661</ele>
        <time>2021-07-30T09:21:24Z</time>
      </trkpt>
      <trkpt lat="40.750230" lon="-3.897982">
        <ele>1044.517</ele>
        <time>2021-07-30T09:21:25Z</time>
      </trkpt>
      <trkpt lat="40.750224" lon="-3.897945">
        <ele>1044.508</ele>
        <time>2021-07-30T09:21:27Z</time>
      </trkpt>
      <trkpt lat="40.750214" lon="-3.897917">
        <ele>1044.591</ele>
        <time>2021-07-30T09:21:29Z</time>
      </trkpt>
      <trkpt lat="40.750211" lon="-3.897890">
        <ele>1044.563</ele>
        <time>2021-07-30T09:21:31Z</time>
      </trkpt>
      <trkpt lat="40.750202" lon="-3.897852">
        <ele>1044.440</ele>
        <time>2021-07-30T09:21:33Z</time>
      </trkpt>
      <trkpt lat="40.750195" lon="-3.897822">
        <ele>1044.467</ele>
        <time>2021-07-30T09:21:35Z</time>
      </trkpt>
      <trkpt lat="40.750179" lon="-3.897795">
        <ele>1044.568</ele>
        <time>2021-07-30T09:21:37Z</time>
      </trkpt>
      <trkpt lat="40.750163" lon="-3.897766">
        <ele>1044.688</ele>
        <time>2021-07-30T09:21:39Z</time>
      </trkpt>
      <trkpt lat="40.750154" lon="-3.897735">
        <ele>1044.512</ele>
        <time>2021-07-30T09:21:41Z</time>
      </trkpt>
      <trkpt lat="40.750141" lon="-3.897705">
        <ele>1044.689</ele>
        <time>2021-07-30T09:21:43Z</time>
      </trkpt>
      <trkpt lat="40.750125" lon="-3.897680">
        <ele>1044.715</ele>
        <time>2021-07-30T09:21:45Z</time>
      </trkpt>
      <trkpt lat="40.750112" lon="-3.897657">
        <ele>1044.865</ele>
        <time>2021-07-30T09:21:47Z</time>
      </trkpt>
      <trkpt lat="40.750099" lon="-3.897628">
        <ele>1044.811</ele>
        <time>2021-07-30T09:21:49Z</time>
      </trkpt>
      <trkpt lat="40.750080" lon="-3.897595">
        <ele>1045.008</ele>
        <time>2021-07-30T09:21:51Z</time>
      </trkpt>
      <trkpt lat="40.750067" lon="-3.897568">
        <ele>1045.148</ele>
        <time>2021-07-30T09:21:53Z</time>
      </trkpt>
      <trkpt lat="40.750054" lon="-3.897542">
        <ele>1045.260</ele>
        <time>2021-07-30T09:21:55Z</time>
      </trkpt>
      <trkpt lat="40.750035" lon="-3.897527">
        <ele>1045.547</ele>
        <time>2021-07-30T09:21:57Z</time>
      </trkpt>
      <trkpt lat="40.750016" lon="-3.897505">
        <ele>1045.744</ele>
        <time>2021-07-30T09:21:59Z</time>
      </trkpt>
      <trkpt lat="40.750000" lon="-3.897488">
        <ele>1045.935</ele>
        <time>2021-07-30T09:22:00Z</time>
      </trkpt>
      <trkpt lat="40.749981" lon="-3.897468">
        <ele>1046.095</ele>
        <time>2021-07-30T09:22:02Z</time>
      </trkpt>
      <trkpt lat="40.749962" lon="-3.897452">
        <ele>1046.139</ele>
        <time>2021-07-30T09:22:04Z</time>
      </trkpt>
      <trkpt lat="40.749939" lon="-3.897437">
        <ele>1046.266</ele>
        <time>2021-07-30T09:22:06Z</time>
      </trkpt>
      <trkpt lat="40.749920" lon="-3.897416">
        <ele>1046.398</ele>
        <time>2021-07-30T09:22:08Z</time>
      </trkpt>
      <trkpt lat="40.749917" lon="-3.897386">
        <ele>1046.115</ele>
        <time>2021-07-30T09:22:12Z</time>
      </trkpt>
      <trkpt lat="40.749936" lon="-3.897366">
        <ele>1045.726</ele>
        <time>2021-07-30T09:22:15Z</time>
      </trkpt>
      <trkpt lat="40.749936" lon="-3.897335">
        <ele>1045.508</ele>
        <time>2021-07-30T09:22:19Z</time>
      </trkpt>
      <trkpt lat="40.749920" lon="-3.897322">
        <ele>1045.656</ele>
        <time>2021-07-30T09:22:21Z</time>
      </trkpt>
      <trkpt lat="40.749907" lon="-3.897303">
        <ele>1045.618</ele>
        <time>2021-07-30T09:22:23Z</time>
      </trkpt>
      <trkpt lat="40.749901" lon="-3.897280">
        <ele>1045.595</ele>
        <time>2021-07-30T09:22:25Z</time>
      </trkpt>
      <trkpt lat="40.749885" lon="-3.897258">
        <ele>1045.542</ele>
        <time>2021-07-30T09:22:27Z</time>
      </trkpt>
      <trkpt lat="40.749875" lon="-3.897232">
        <ele>1045.453</ele>
        <time>2021-07-30T09:22:29Z</time>
      </trkpt>
      <trkpt lat="40.749866" lon="-3.897208">
        <ele>1045.343</ele>
        <time>2021-07-30T09:22:31Z</time>
      </trkpt>
      <trkpt lat="40.749853" lon="-3.897185">
        <ele>1045.387</ele>
        <time>2021-07-30T09:22:33Z</time>
      </trkpt>
      <trkpt lat="40.749840" lon="-3.897168">
        <ele>1045.354</ele>
        <time>2021-07-30T09:22:34Z</time>
      </trkpt>
      <trkpt lat="40.749821" lon="-3.897148">
        <ele>1045.411</ele>
        <time>2021-07-30T09:22:36Z</time>
      </trkpt>
      <trkpt lat="40.749802" lon="-3.897120">
        <ele>1045.421</ele>
        <time>2021-07-30T09:22:38Z</time>
      </trkpt>
      <trkpt lat="40.749789" lon="-3.897098">
        <ele>1045.403</ele>
        <time>2021-07-30T09:22:40Z</time>
      </trkpt>
      <trkpt lat="40.749786" lon="-3.897073">
        <ele>1045.208</ele>
        <time>2021-07-30T09:22:42Z</time>
      </trkpt>
      <trkpt lat="40.749770" lon="-3.897046">
        <ele>1045.288</ele>
        <time>2021-07-30T09:22:44Z</time>
      </trkpt>
      <trkpt lat="40.749760" lon="-3.897013">
        <ele>1045.190</ele>
        <time>2021-07-30T09:22:46Z</time>
      </trkpt>
      <trkpt lat="40.749754" lon="-3.896988">
        <ele>1045.087</ele>
        <time>2021-07-30T09:22:48Z</time>
      </trkpt>
      <trkpt lat="40.749744" lon="-3.896965">
        <ele>1044.984</ele>
        <time>2021-07-30T09:22:50Z</time>
      </trkpt>
      <trkpt lat="40.749722" lon="-3.896930">
        <ele>1044.995</ele>
        <time>2021-07-30T09:22:52Z</time>
      </trkpt>
      <trkpt lat="40.749702" lon="-3.896913">
        <ele>1045.065</ele>
        <time>2021-07-30T09:22:54Z</time>
      </trkpt>
      <trkpt lat="40.749690" lon="-3.896880">
        <ele>1044.929</ele>
        <time>2021-07-30T09:22:57Z</time>
      </trkpt>
      <trkpt lat="40.749686" lon="-3.896854">
        <ele>1044.886</ele>
        <time>2021-07-30T09:22:59Z</time>
      </trkpt>
      <trkpt lat="40.749677" lon="-3.896822">
        <ele>1044.789</ele>
        <time>2021-07-30T09:23:02Z</time>
      </trkpt>
      <trkpt lat="40.749661" lon="-3.896793">
        <ele>1044.606</ele>
        <time>2021-07-30T09:23:05Z</time>
      </trkpt>
      <trkpt lat="40.749648" lon="-3.896768">
        <ele>1044.526</ele>
        <time>2021-07-30T09:23:07Z</time>
      </trkpt>
      <trkpt lat="40.749645" lon="-3.896745">
        <ele>1044.408</ele>
        <time>2021-07-30T09:23:09Z</time>
      </trkpt>
      <trkpt lat="40.749642" lon="-3.896710">
        <ele>1044.295</ele>
        <time>2021-07-30T09:23:11Z</time>
      </trkpt>
      <trkpt lat="40.749638" lon="-3.896685">
        <ele>1044.167</ele>
        <time>2021-07-30T09:23:13Z</time>
      </trkpt>
      <trkpt lat="40.749626" lon="-3.896658">
        <ele>1043.974</ele>
        <time>2021-07-30T09:23:15Z</time>
      </trkpt>
      <trkpt lat="40.749610" lon="-3.896625">
        <ele>1043.781</ele>
        <time>2021-07-30T09:23:18Z</time>
      </trkpt>
      <trkpt lat="40.749603" lon="-3.896602">
        <ele>1043.592</ele>
        <time>2021-07-30T09:23:20Z</time>
      </trkpt>
      <trkpt lat="40.749590" lon="-3.896563">
        <ele>1043.332</ele>
        <time>2021-07-30T09:23:23Z</time>
      </trkpt>
      <trkpt lat="40.749584" lon="-3.896536">
        <ele>1043.186</ele>
        <time>2021-07-30T09:23:25Z</time>
      </trkpt>
      <trkpt lat="40.749578" lon="-3.896514">
        <ele>1042.953</ele>
        <time>2021-07-30T09:23:27Z</time>
      </trkpt>
      <trkpt lat="40.749562" lon="-3.896488">
        <ele>1042.731</ele>
        <time>2021-07-30T09:23:29Z</time>
      </trkpt>
      <trkpt lat="40.749549" lon="-3.896460">
        <ele>1042.561</ele>
        <time>2021-07-30T09:23:31Z</time>
      </trkpt>
      <trkpt lat="40.749539" lon="-3.896432">
        <ele>1042.307</ele>
        <time>2021-07-30T09:23:33Z</time>
      </trkpt>
      <trkpt lat="40.749530" lon="-3.896405">
        <ele>1042.108</ele>
        <time>2021-07-30T09:23:35Z</time>
      </trkpt>
      <trkpt lat="40.749517" lon="-3.896370">
        <ele>1041.930</ele>
        <time>2021-07-30T09:23:38Z</time>
      </trkpt>
      <trkpt lat="40.749510" lon="-3.896342">
        <ele>1041.722</ele>
        <time>2021-07-30T09:23:40Z</time>
      </trkpt>
      <trkpt lat="40.749504" lon="-3.896313">
        <ele>1041.599</ele>
        <time>2021-07-30T09:23:42Z</time>
      </trkpt>
      <trkpt lat="40.749498" lon="-3.896285">
        <ele>1041.356</ele>
        <time>2021-07-30T09:23:44Z</time>
      </trkpt>
      <trkpt lat="40.749485" lon="-3.896253">
        <ele>1041.047</ele>
        <time>2021-07-30T09:23:46Z</time>
      </trkpt>
      <trkpt lat="40.749469" lon="-3.896222">
        <ele>1040.827</ele>
        <time>2021-07-30T09:23:48Z</time>
      </trkpt>
      <trkpt lat="40.749450" lon="-3.896190">
        <ele>1040.631</ele>
        <time>2021-07-30T09:23:49Z</time>
      </trkpt>
      <trkpt lat="40.749446" lon="-3.896148">
        <ele>1040.358</ele>
        <time>2021-07-30T09:23:50Z</time>
      </trkpt>
      <trkpt lat="40.749443" lon="-3.896124">
        <ele>1040.174</ele>
        <time>2021-07-30T09:23:51Z</time>
      </trkpt>
      <trkpt lat="40.749443" lon="-3.896078">
        <ele>1039.656</ele>
        <time>2021-07-30T09:23:53Z</time>
      </trkpt>
      <trkpt lat="40.749437" lon="-3.896043">
        <ele>1039.321</ele>
        <time>2021-07-30T09:23:55Z</time>
      </trkpt>
      <trkpt lat="40.749430" lon="-3.896020">
        <ele>1039.008</ele>
        <time>2021-07-30T09:23:57Z</time>
      </trkpt>
      <trkpt lat="40.749440" lon="-3.895993">
        <ele>1038.774</ele>
        <time>2021-07-30T09:24:00Z</time>
      </trkpt>
      <trkpt lat="40.749450" lon="-3.895972">
        <ele>1038.566</ele>
        <time>2021-07-30T09:24:02Z</time>
      </trkpt>
      <trkpt lat="40.749459" lon="-3.895937">
        <ele>1038.253</ele>
        <time>2021-07-30T09:24:04Z</time>
      </trkpt>
      <trkpt lat="40.749472" lon="-3.895902">
        <ele>1037.850</ele>
        <time>2021-07-30T09:24:07Z</time>
      </trkpt>
      <trkpt lat="40.749488" lon="-3.895878">
        <ele>1037.681</ele>
        <time>2021-07-30T09:24:09Z</time>
      </trkpt>
      <trkpt lat="40.749498" lon="-3.895857">
        <ele>1037.411</ele>
        <time>2021-07-30T09:24:11Z</time>
      </trkpt>
      <trkpt lat="40.749504" lon="-3.895830">
        <ele>1037.225</ele>
        <time>2021-07-30T09:24:14Z</time>
      </trkpt>
      <trkpt lat="40.749520" lon="-3.895815">
        <ele>1037.122</ele>
        <time>2021-07-30T09:24:16Z</time>
      </trkpt>
      <trkpt lat="40.749530" lon="-3.895782">
        <ele>1036.936</ele>
        <time>2021-07-30T09:24:19Z</time>
      </trkpt>
      <trkpt lat="40.749530" lon="-3.895748">
        <ele>1036.617</ele>
        <time>2021-07-30T09:24:21Z</time>
      </trkpt>
      <trkpt lat="40.749539" lon="-3.895713">
        <ele>1036.318</ele>
        <time>2021-07-30T09:24:23Z</time>
      </trkpt>
      <trkpt lat="40.749539" lon="-3.895688">
        <ele>1036.108</ele>
        <time>2021-07-30T09:24:25Z</time>
      </trkpt>
      <trkpt lat="40.749549" lon="-3.895662">
        <ele>1035.980</ele>
        <time>2021-07-30T09:24:29Z</time>
      </trkpt>
      <trkpt lat="40.749562" lon="-3.895638">
        <ele>1035.792</ele>
        <time>2021-07-30T09:24:31Z</time>
      </trkpt>
      <trkpt lat="40.749578" lon="-3.895625">
        <ele>1035.669</ele>
        <time>2021-07-30T09:24:33Z</time>
      </trkpt>
      <trkpt lat="40.749600" lon="-3.895605">
        <ele>1035.566</ele>
        <time>2021-07-30T09:24:46Z</time>
      </trkpt>
      <trkpt lat="40.749619" lon="-3.895594">
        <ele>1035.497</ele>
        <time>2021-07-30T09:24:49Z</time>
      </trkpt>
      <trkpt lat="40.749642" lon="-3.895587">
        <ele>1035.347</ele>
        <time>2021-07-30T09:25:33Z</time>
      </trkpt>
      <trkpt lat="40.749654" lon="-3.895562">
        <ele>1035.151</ele>
        <time>2021-07-30T09:25:35Z</time>
      </trkpt>
      <trkpt lat="40.749677" lon="-3.895537">
        <ele>1034.818</ele>
        <time>2021-07-30T09:25:37Z</time>
      </trkpt>
      <trkpt lat="40.749696" lon="-3.895520">
        <ele>1034.655</ele>
        <time>2021-07-30T09:25:39Z</time>
      </trkpt>
      <trkpt lat="40.749715" lon="-3.895493">
        <ele>1034.307</ele>
        <time>2021-07-30T09:25:41Z</time>
      </trkpt>
      <trkpt lat="40.749738" lon="-3.895476">
        <ele>1034.017</ele>
        <time>2021-07-30T09:25:43Z</time>
      </trkpt>
      <trkpt lat="40.749760" lon="-3.895460">
        <ele>1033.608</ele>
        <time>2021-07-30T09:25:45Z</time>
      </trkpt>
      <trkpt lat="40.749789" lon="-3.895454">
        <ele>1033.342</ele>
        <time>2021-07-30T09:25:47Z</time>
      </trkpt>
      <trkpt lat="40.749814" lon="-3.895440">
        <ele>1032.924</ele>
        <time>2021-07-30T09:25:49Z</time>
      </trkpt>
      <trkpt lat="40.749834" lon="-3.895432">
        <ele>1032.611</ele>
        <time>2021-07-30T09:25:51Z</time>
      </trkpt>
      <trkpt lat="40.749856" lon="-3.895422">
        <ele>1032.368</ele>
        <time>2021-07-30T09:25:54Z</time>
      </trkpt>
      <trkpt lat="40.749878" lon="-3.895410">
        <ele>1032.019</ele>
        <time>2021-07-30T09:25:56Z</time>
      </trkpt>
      <trkpt lat="40.749898" lon="-3.895397">
        <ele>1031.819</ele>
        <time>2021-07-30T09:25:58Z</time>
      </trkpt>
      <trkpt lat="40.749917" lon="-3.895385">
        <ele>1031.553</ele>
        <time>2021-07-30T09:26:00Z</time>
      </trkpt>
      <trkpt lat="40.749933" lon="-3.895373">
        <ele>1031.350</ele>
        <time>2021-07-30T09:26:02Z</time>
      </trkpt>
      <trkpt lat="40.749958" lon="-3.895353">
        <ele>1030.915</ele>
        <time>2021-07-30T09:26:05Z</time>
      </trkpt>
      <trkpt lat="40.749974" lon="-3.895335">
        <ele>1030.665</ele>
        <time>2021-07-30T09:26:07Z</time>
      </trkpt>
      <trkpt lat="40.749981" lon="-3.895312">
        <ele>1030.411</ele>
        <time>2021-07-30T09:26:09Z</time>
      </trkpt>
      <trkpt lat="40.749997" lon="-3.895280">
        <ele>1030.008</ele>
        <time>2021-07-30T09:26:11Z</time>
      </trkpt>
      <trkpt lat="40.750003" lon="-3.895254">
        <ele>1029.978</ele>
        <time>2021-07-30T09:26:13Z</time>
      </trkpt>
      <trkpt lat="40.750016" lon="-3.895225">
        <ele>1029.840</ele>
        <time>2021-07-30T09:26:15Z</time>
      </trkpt>
      <trkpt lat="40.750026" lon="-3.895198">
        <ele>1029.687</ele>
        <time>2021-07-30T09:26:17Z</time>
      </trkpt>
      <trkpt lat="40.750042" lon="-3.895165">
        <ele>1029.534</ele>
        <time>2021-07-30T09:26:19Z</time>
      </trkpt>
      <trkpt lat="40.750058" lon="-3.895147">
        <ele>1029.455</ele>
        <time>2021-07-30T09:26:20Z</time>
      </trkpt>
      <trkpt lat="40.750061" lon="-3.895117">
        <ele>1029.315</ele>
        <time>2021-07-30T09:26:23Z</time>
      </trkpt>
      <trkpt lat="40.750064" lon="-3.895084">
        <ele>1029.279</ele>
        <time>2021-07-30T09:26:25Z</time>
      </trkpt>
      <trkpt lat="40.750067" lon="-3.895052">
        <ele>1029.136</ele>
        <time>2021-07-30T09:26:27Z</time>
      </trkpt>
      <trkpt lat="40.750074" lon="-3.895008">
        <ele>1029.063</ele>
        <time>2021-07-30T09:26:29Z</time>
      </trkpt>
      <trkpt lat="40.750077" lon="-3.894978">
        <ele>1028.944</ele>
        <time>2021-07-30T09:26:31Z</time>
      </trkpt>
      <trkpt lat="40.750093" lon="-3.894955">
        <ele>1028.918</ele>
        <time>2021-07-30T09:26:33Z</time>
      </trkpt>
      <trkpt lat="40.750099" lon="-3.894932">
        <ele>1028.808</ele>
        <time>2021-07-30T09:26:34Z</time>
      </trkpt>
      <trkpt lat="40.750106" lon="-3.894904">
        <ele>1028.813</ele>
        <time>2021-07-30T09:26:36Z</time>
      </trkpt>
      <trkpt lat="40.750102" lon="-3.894878">
        <ele>1028.775</ele>
        <time>2021-07-30T09:26:37Z</time>
      </trkpt>
      <trkpt lat="40.750096" lon="-3.894850">
        <ele>1028.632</ele>
        <time>2021-07-30T09:26:39Z</time>
      </trkpt>
      <trkpt lat="40.750099" lon="-3.894822">
        <ele>1028.689</ele>
        <time>2021-07-30T09:26:41Z</time>
      </trkpt>
      <trkpt lat="40.750096" lon="-3.894795">
        <ele>1028.510</ele>
        <time>2021-07-30T09:26:43Z</time>
      </trkpt>
      <trkpt lat="40.750086" lon="-3.894755">
        <ele>1028.470</ele>
        <time>2021-07-30T09:26:46Z</time>
      </trkpt>
      <trkpt lat="40.750083" lon="-3.894730">
        <ele>1028.314</ele>
        <time>2021-07-30T09:26:48Z</time>
      </trkpt>
      <trkpt lat="40.750077" lon="-3.894703">
        <ele>1028.261</ele>
        <time>2021-07-30T09:26:50Z</time>
      </trkpt>
      <trkpt lat="40.750067" lon="-3.894672">
        <ele>1028.122</ele>
        <time>2021-07-30T09:26:52Z</time>
      </trkpt>
      <trkpt lat="40.750061" lon="-3.894638">
        <ele>1028.062</ele>
        <time>2021-07-30T09:26:54Z</time>
      </trkpt>
      <trkpt lat="40.750061" lon="-3.894606">
        <ele>1027.908</ele>
        <time>2021-07-30T09:26:56Z</time>
      </trkpt>
      <trkpt lat="40.750061" lon="-3.894568">
        <ele>1027.808</ele>
        <time>2021-07-30T09:26:58Z</time>
      </trkpt>
      <trkpt lat="40.750054" lon="-3.894538">
        <ele>1027.749</ele>
        <time>2021-07-30T09:27:00Z</time>
      </trkpt>
      <trkpt lat="40.750054" lon="-3.894508">
        <ele>1027.671</ele>
        <time>2021-07-30T09:27:02Z</time>
      </trkpt>
      <trkpt lat="40.750054" lon="-3.894475">
        <ele>1027.528</ele>
        <time>2021-07-30T09:27:05Z</time>
      </trkpt>
      <trkpt lat="40.750064" lon="-3.894438">
        <ele>1027.415</ele>
        <time>2021-07-30T09:27:08Z</time>
      </trkpt>
      <trkpt lat="40.750074" lon="-3.894415">
        <ele>1027.456</ele>
        <time>2021-07-30T09:27:10Z</time>
      </trkpt>
      <trkpt lat="40.750080" lon="-3.894388">
        <ele>1027.476</ele>
        <time>2021-07-30T09:27:12Z</time>
      </trkpt>
      <trkpt lat="40.750099" lon="-3.894360">
        <ele>1027.420</ele>
        <time>2021-07-30T09:27:15Z</time>
      </trkpt>
      <trkpt lat="40.750112" lon="-3.894340">
        <ele>1027.487</ele>
        <time>2021-07-30T09:27:17Z</time>
      </trkpt>
      <trkpt lat="40.750125" lon="-3.894322">
        <ele>1027.583</ele>
        <time>2021-07-30T09:27:20Z</time>
      </trkpt>
      <trkpt lat="40.750144" lon="-3.894310">
        <ele>1027.625</ele>
        <time>2021-07-30T09:27:24Z</time>
      </trkpt>
      <trkpt lat="40.750173" lon="-3.894293">
        <ele>1027.717</ele>
        <time>2021-07-30T09:27:28Z</time>
      </trkpt>
      <trkpt lat="40.750192" lon="-3.894277">
        <ele>1027.808</ele>
        <time>2021-07-30T09:27:31Z</time>
      </trkpt>
      <trkpt lat="40.750211" lon="-3.894253">
        <ele>1027.865</ele>
        <time>2021-07-30T09:27:34Z</time>
      </trkpt>
      <trkpt lat="40.750230" lon="-3.894233">
        <ele>1027.997</ele>
        <time>2021-07-30T09:27:36Z</time>
      </trkpt>
      <trkpt lat="40.750253" lon="-3.894226">
        <ele>1028.094</ele>
        <time>2021-07-30T09:27:42Z</time>
      </trkpt>
      <trkpt lat="40.750278" lon="-3.894238">
        <ele>1028.331</ele>
        <time>2021-07-30T09:27:44Z</time>
      </trkpt>
      <trkpt lat="40.750298" lon="-3.894245">
        <ele>1028.562</ele>
        <time>2021-07-30T09:27:46Z</time>
      </trkpt>
      <trkpt lat="40.750317" lon="-3.894252">
        <ele>1028.662</ele>
        <time>2021-07-30T09:27:48Z</time>
      </trkpt>
      <trkpt lat="40.750342" lon="-3.894256">
        <ele>1028.996</ele>
        <time>2021-07-30T09:27:50Z</time>
      </trkpt>
      <trkpt lat="40.750371" lon="-3.894268">
        <ele>1029.193</ele>
        <time>2021-07-30T09:27:52Z</time>
      </trkpt>
      <trkpt lat="40.750384" lon="-3.894290">
        <ele>1029.351</ele>
        <time>2021-07-30T09:27:54Z</time>
      </trkpt>
      <trkpt lat="40.750403" lon="-3.894292">
        <ele>1029.401</ele>
        <time>2021-07-30T09:27:56Z</time>
      </trkpt>
      <trkpt lat="40.750422" lon="-3.894303">
        <ele>1029.511</ele>
        <time>2021-07-30T09:27:58Z</time>
      </trkpt>
      <trkpt lat="40.750445" lon="-3.894318">
        <ele>1029.708</ele>
        <time>2021-07-30T09:28:00Z</time>
      </trkpt>
      <trkpt lat="40.750464" lon="-3.894327">
        <ele>1029.842</ele>
        <time>2021-07-30T09:28:02Z</time>
      </trkpt>
      <trkpt lat="40.750483" lon="-3.894338">
        <ele>1029.974</ele>
        <time>2021-07-30T09:28:06Z</time>
      </trkpt>
      <trkpt lat="40.750509" lon="-3.894345">
        <ele>1030.151</ele>
        <time>2021-07-30T09:28:09Z</time>
      </trkpt>
      <trkpt lat="40.750528" lon="-3.894365">
        <ele>1030.198</ele>
        <time>2021-07-30T09:28:13Z</time>
      </trkpt>
      <trkpt lat="40.750557" lon="-3.894390">
        <ele>1030.219</ele>
        <time>2021-07-30T09:28:15Z</time>
      </trkpt>
      <trkpt lat="40.750579" lon="-3.894395">
        <ele>1030.529</ele>
        <time>2021-07-30T09:28:17Z</time>
      </trkpt>
      <trkpt lat="40.750598" lon="-3.894387">
        <ele>1030.863</ele>
        <time>2021-07-30T09:28:19Z</time>
      </trkpt>
      <trkpt lat="40.750621" lon="-3.894375">
        <ele>1031.260</ele>
        <time>2021-07-30T09:28:21Z</time>
      </trkpt>
      <trkpt lat="40.750650" lon="-3.894342">
        <ele>1031.794</ele>
        <time>2021-07-30T09:28:23Z</time>
      </trkpt>
      <trkpt lat="40.750662" lon="-3.894313">
        <ele>1032.057</ele>
        <time>2021-07-30T09:28:25Z</time>
      </trkpt>
      <trkpt lat="40.750682" lon="-3.894297">
        <ele>1032.422</ele>
        <time>2021-07-30T09:28:28Z</time>
      </trkpt>
      <trkpt lat="40.750691" lon="-3.894273">
        <ele>1032.608</ele>
        <time>2021-07-30T09:28:31Z</time>
      </trkpt>
      <trkpt lat="40.750714" lon="-3.894248">
        <ele>1033.076</ele>
        <time>2021-07-30T09:28:33Z</time>
      </trkpt>
      <trkpt lat="40.750733" lon="-3.894226">
        <ele>1033.358</ele>
        <time>2021-07-30T09:28:34Z</time>
      </trkpt>
      <trkpt lat="40.750742" lon="-3.894198">
        <ele>1033.695</ele>
        <time>2021-07-30T09:28:36Z</time>
      </trkpt>
      <trkpt lat="40.750755" lon="-3.894162">
        <ele>1033.912</ele>
        <time>2021-07-30T09:28:38Z</time>
      </trkpt>
      <trkpt lat="40.750768" lon="-3.894143">
        <ele>1034.173</ele>
        <time>2021-07-30T09:28:40Z</time>
      </trkpt>
      <trkpt lat="40.750774" lon="-3.894115">
        <ele>1034.333</ele>
        <time>2021-07-30T09:28:43Z</time>
      </trkpt>
      <trkpt lat="40.750774" lon="-3.894090">
        <ele>1034.427</ele>
        <time>2021-07-30T09:28:45Z</time>
      </trkpt>
      <trkpt lat="40.750794" lon="-3.894064">
        <ele>1034.884</ele>
        <time>2021-07-30T09:28:47Z</time>
      </trkpt>
      <trkpt lat="40.750806" lon="-3.894042">
        <ele>1035.174</ele>
        <time>2021-07-30T09:28:48Z</time>
      </trkpt>
      <trkpt lat="40.750819" lon="-3.894025">
        <ele>1035.356</ele>
        <time>2021-07-30T09:28:49Z</time>
      </trkpt>
      <trkpt lat="40.751203" lon="-3.893473">
        <ele>1040.021</ele>
        <time>2021-07-30T09:29:56Z</time>
      </trkpt>
      <trkpt lat="40.751725" lon="-3.893033">
        <ele>1042.908</ele>
        <time>2021-07-30T09:30:56Z</time>
      </trkpt>
      <trkpt lat="40.752371" lon="-3.892602">
        <ele>1042.714</ele>
        <time>2021-07-30T09:31:56Z</time>
      </trkpt>
      <trkpt lat="40.752848" lon="-3.892790">
        <ele>1052.486</ele>
        <time>2021-07-30T09:32:56Z</time>
      </trkpt>
      <trkpt lat="40.753648" lon="-3.892345">
        <ele>1047.843</ele>
        <time>2021-07-30T09:33:56Z</time>
      </trkpt>
      <trkpt lat="40.754323" lon="-3.892146">
        <ele>1052.040</ele>
        <time>2021-07-30T09:34:56Z</time>
      </trkpt>
      <trkpt lat="40.754768" lon="-3.891885">
        <ele>1056.051</ele>
        <time>2021-07-30T09:35:56Z</time>
      </trkpt>
      <trkpt lat="40.755299" lon="-3.891430">
        <ele>1062.091</ele>
        <time>2021-07-30T09:36:56Z</time>
      </trkpt>
      <trkpt lat="40.755802" lon="-3.890912">
        <ele>1062.575</ele>
        <time>2021-07-30T09:37:56Z</time>
      </trkpt>
      <trkpt lat="40.756269" lon="-3.890663">
        <ele>1069.282</ele>
        <time>2021-07-30T09:38:56Z</time>
      </trkpt>
      <trkpt lat="40.756771" lon="-3.890337">
        <ele>1073.113</ele>
        <time>2021-07-30T09:39:56Z</time>
      </trkpt>
      <trkpt lat="40.757213" lon="-3.890238">
        <ele>1089.243</ele>
        <time>2021-07-30T09:40:56Z</time>
      </trkpt>
      <trkpt lat="40.757571" lon="-3.890052">
        <ele>1094.207</ele>
        <time>2021-07-30T09:41:56Z</time>
      </trkpt>
      <trkpt lat="40.758016" lon="-3.889624">
        <ele>1099.008</ele>
        <time>2021-07-30T09:42:56Z</time>
      </trkpt>
      <trkpt lat="40.758915" lon="-3.889095">
        <ele>1117.958</ele>
        <time>2021-07-30T09:44:56Z</time>
      </trkpt>
      <trkpt lat="40.759507" lon="-3.888925">
        <ele>1124.960</ele>
        <time>2021-07-30T09:45:56Z</time>
      </trkpt>
      <trkpt lat="40.759731" lon="-3.888853">
        <ele>1128.227</ele>
        <time>2021-07-30T09:46:56Z</time>
      </trkpt>
      <trkpt lat="40.759619" lon="-3.889093">
        <ele>1133.744</ele>
        <time>2021-07-30T09:48:56Z</time>
      </trkpt>
      <trkpt lat="40.760486" lon="-3.888668">
        <ele>1141.225</ele>
        <time>2021-07-30T09:50:56Z</time>
      </trkpt>
      <trkpt lat="40.761027" lon="-3.888293">
        <ele>1144.055</ele>
        <time>2021-07-30T09:51:56Z</time>
      </trkpt>
      <trkpt lat="40.761398" lon="-3.887734">
        <ele>1146.039</ele>
        <time>2021-07-30T09:52:56Z</time>
      </trkpt>
      <trkpt lat="40.761542" lon="-3.887038">
        <ele>1146.066</ele>
        <time>2021-07-30T09:53:56Z</time>
      </trkpt>
      <trkpt lat="40.761744" lon="-3.886654">
        <ele>1152.992</ele>
        <time>2021-07-30T09:54:56Z</time>
      </trkpt>
      <trkpt lat="40.762115" lon="-3.886477">
        <ele>1161.273</ele>
        <time>2021-07-30T09:55:56Z</time>
      </trkpt>
      <trkpt lat="40.762691" lon="-3.886248">
        <ele>1169.220</ele>
        <time>2021-07-30T09:56:56Z</time>
      </trkpt>
      <trkpt lat="40.763222" lon="-3.885826">
        <ele>1168.108</ele>
        <time>2021-07-30T09:57:56Z</time>
      </trkpt>
      <trkpt lat="40.763635" lon="-3.885337">
        <ele>1166.516</ele>
        <time>2021-07-30T09:58:56Z</time>
      </trkpt>
      <trkpt lat="40.763936" lon="-3.884890">
        <ele>1166.538</ele>
        <time>2021-07-30T09:59:56Z</time>
      </trkpt>
      <trkpt lat="40.763946" lon="-3.884917">
        <ele>1166.795</ele>
        <time>2021-07-30T10:00:56Z</time>
      </trkpt>
      <trkpt lat="40.764266" lon="-3.884570">
        <ele>1170.532</ele>
        <time>2021-07-30T10:01:56Z</time>
      </trkpt>
      <trkpt lat="40.764614" lon="-3.883823">
        <ele>1170.063</ele>
        <time>2021-07-30T10:02:56Z</time>
      </trkpt>
      <trkpt lat="40.764522" lon="-3.883832">
        <ele>1170.063</ele>
        <time>2021-07-30T10:21:56Z</time>
      </trkpt>
      <trkpt lat="40.764496" lon="-3.883840">
        <ele>1170.087</ele>
        <time>2021-07-30T10:31:56Z</time>
      </trkpt>
      <trkpt lat="40.764570" lon="-3.883772">
        <ele>1170.094</ele>
        <time>2021-07-30T10:33:56Z</time>
      </trkpt>
      <trkpt lat="40.764570" lon="-3.883810">
        <ele>1170.057</ele>
        <time>2021-07-30T10:35:56Z</time>
      </trkpt>
      <trkpt lat="40.764515" lon="-3.883747">
        <ele>1170.000</ele>
        <time>2021-07-30T10:37:56Z</time>
      </trkpt>
      <trkpt lat="40.764352" lon="-3.883612">
        <ele>1170.020</ele>
        <time>2021-07-30T10:38:56Z</time>
      </trkpt>
      <trkpt lat="40.764106" lon="-3.883392">
        <ele>1172.808</ele>
        <time>2021-07-30T10:39:56Z</time>
      </trkpt>
      <trkpt lat="40.763882" lon="-3.883015">
        <ele>1178.822</ele>
        <time>2021-07-30T10:40:56Z</time>
      </trkpt>
      <trkpt lat="40.763725" lon="-3.882733">
        <ele>1188.954</ele>
        <time>2021-07-30T10:41:56Z</time>
      </trkpt>
      <trkpt lat="40.763875" lon="-3.882270">
        <ele>1192.751</ele>
        <time>2021-07-30T10:42:56Z</time>
      </trkpt>
      <trkpt lat="40.764099" lon="-3.881632">
        <ele>1200.528</ele>
        <time>2021-07-30T10:43:56Z</time>
      </trkpt>
      <trkpt lat="40.764458" lon="-3.880992">
        <ele>1203.669</ele>
        <time>2021-07-30T10:44:56Z</time>
      </trkpt>
      <trkpt lat="40.764656" lon="-3.880378">
        <ele>1211.749</ele>
        <time>2021-07-30T10:45:56Z</time>
      </trkpt>
      <trkpt lat="40.764938" lon="-3.879850">
        <ele>1215.583</ele>
        <time>2021-07-30T10:46:56Z</time>
      </trkpt>
      <trkpt lat="40.765117" lon="-3.879105">
        <ele>1222.840</ele>
        <time>2021-07-30T10:47:56Z</time>
      </trkpt>
      <trkpt lat="40.765299" lon="-3.878523">
        <ele>1227.169</ele>
        <time>2021-07-30T10:48:56Z</time>
      </trkpt>
      <trkpt lat="40.765533" lon="-3.878160">
        <ele>1231.304</ele>
        <time>2021-07-30T10:49:56Z</time>
      </trkpt>
      <trkpt lat="40.765635" lon="-3.877928">
        <ele>1234.924</ele>
        <time>2021-07-30T10:50:56Z</time>
      </trkpt>
      <trkpt lat="40.765894" lon="-3.877500">
        <ele>1240.608</ele>
        <time>2021-07-30T10:51:56Z</time>
      </trkpt>
      <trkpt lat="40.765862" lon="-3.877303">
        <ele>1244.123</ele>
        <time>2021-07-30T10:52:14Z</time>
      </trkpt>
      <trkpt lat="40.765875" lon="-3.877280">
        <ele>1244.745</ele>
        <time>2021-07-30T10:52:17Z</time>
      </trkpt>
      <trkpt lat="40.765888" lon="-3.877263">
        <ele>1245.242</ele>
        <time>2021-07-30T10:52:19Z</time>
      </trkpt>
      <trkpt lat="40.765901" lon="-3.877245">
        <ele>1245.829</ele>
        <time>2021-07-30T10:52:30Z</time>
      </trkpt>
      <trkpt lat="40.765901" lon="-3.877214">
        <ele>1246.320</ele>
        <time>2021-07-30T10:52:33Z</time>
      </trkpt>
      <trkpt lat="40.765894" lon="-3.877185">
        <ele>1246.470</ele>
        <time>2021-07-30T10:52:36Z</time>
      </trkpt>
      <trkpt lat="40.765901" lon="-3.877150">
        <ele>1246.824</ele>
        <time>2021-07-30T10:52:39Z</time>
      </trkpt>
      <trkpt lat="40.765894" lon="-3.877120">
        <ele>1246.981</ele>
        <time>2021-07-30T10:52:42Z</time>
      </trkpt>
      <trkpt lat="40.765914" lon="-3.877117">
        <ele>1247.198</ele>
        <time>2021-07-30T10:52:59Z</time>
      </trkpt>
      <trkpt lat="40.765920" lon="-3.877078">
        <ele>1247.315</ele>
        <time>2021-07-30T10:53:25Z</time>
      </trkpt>
      <trkpt lat="40.765923" lon="-3.877055">
        <ele>1247.526</ele>
        <time>2021-07-30T10:53:26Z</time>
      </trkpt>
      <trkpt lat="40.765933" lon="-3.877025">
        <ele>1247.608</ele>
        <time>2021-07-30T10:53:28Z</time>
      </trkpt>
      <trkpt lat="40.765952" lon="-3.876988">
        <ele>1247.676</ele>
        <time>2021-07-30T10:53:30Z</time>
      </trkpt>
      <trkpt lat="40.765962" lon="-3.876965">
        <ele>1247.668</ele>
        <time>2021-07-30T10:53:31Z</time>
      </trkpt>
      <trkpt lat="40.765965" lon="-3.876930">
        <ele>1247.895</ele>
        <time>2021-07-30T10:53:33Z</time>
      </trkpt>
      <trkpt lat="40.765984" lon="-3.876910">
        <ele>1247.872</ele>
        <time>2021-07-30T10:53:37Z</time>
      </trkpt>
      <trkpt lat="40.765987" lon="-3.876882">
        <ele>1248.173</ele>
        <time>2021-07-30T10:53:39Z</time>
      </trkpt>
      <trkpt lat="40.765990" lon="-3.876857">
        <ele>1248.453</ele>
        <time>2021-07-30T10:53:41Z</time>
      </trkpt>
      <trkpt lat="40.765994" lon="-3.876825">
        <ele>1248.717</ele>
        <time>2021-07-30T10:53:44Z</time>
      </trkpt>
      <trkpt lat="40.766006" lon="-3.876792">
        <ele>1249.034</ele>
        <time>2021-07-30T10:53:47Z</time>
      </trkpt>
      <trkpt lat="40.766019" lon="-3.876773">
        <ele>1249.158</ele>
        <time>2021-07-30T10:53:49Z</time>
      </trkpt>
      <trkpt lat="40.766026" lon="-3.876745">
        <ele>1249.352</ele>
        <time>2021-07-30T10:53:51Z</time>
      </trkpt>
      <trkpt lat="40.766032" lon="-3.876720">
        <ele>1249.517</ele>
        <time>2021-07-30T10:53:54Z</time>
      </trkpt>
      <trkpt lat="40.766048" lon="-3.876700">
        <ele>1249.508</ele>
        <time>2021-07-30T10:53:57Z</time>
      </trkpt>
      <trkpt lat="40.766048" lon="-3.876668">
        <ele>1249.982</ele>
        <time>2021-07-30T10:54:00Z</time>
      </trkpt>
      <trkpt lat="40.766061" lon="-3.876650">
        <ele>1250.044</ele>
        <time>2021-07-30T10:54:02Z</time>
      </trkpt>
      <trkpt lat="40.766067" lon="-3.876622">
        <ele>1250.471</ele>
        <time>2021-07-30T10:54:04Z</time>
      </trkpt>
      <trkpt lat="40.766070" lon="-3.876592">
        <ele>1250.918</ele>
        <time>2021-07-30T10:54:06Z</time>
      </trkpt>
      <trkpt lat="40.766070" lon="-3.876567">
        <ele>1251.479</ele>
        <time>2021-07-30T10:54:08Z</time>
      </trkpt>
      <trkpt lat="40.766074" lon="-3.876535">
        <ele>1251.939</ele>
        <time>2021-07-30T10:54:12Z</time>
      </trkpt>
      <trkpt lat="40.766086" lon="-3.876514">
        <ele>1252.173</ele>
        <time>2021-07-30T10:54:14Z</time>
      </trkpt>
      <trkpt lat="40.766093" lon="-3.876477">
        <ele>1252.790</ele>
        <time>2021-07-30T10:54:17Z</time>
      </trkpt>
      <trkpt lat="40.766106" lon="-3.876443">
        <ele>1253.194</ele>
        <time>2021-07-30T10:54:20Z</time>
      </trkpt>
      <trkpt lat="40.766122" lon="-3.876417">
        <ele>1253.357</ele>
        <time>2021-07-30T10:54:23Z</time>
      </trkpt>
      <trkpt lat="40.766131" lon="-3.876388">
        <ele>1253.722</ele>
        <time>2021-07-30T10:54:26Z</time>
      </trkpt>
      <trkpt lat="40.766138" lon="-3.876365">
        <ele>1253.908</ele>
        <time>2021-07-30T10:54:28Z</time>
      </trkpt>
      <trkpt lat="40.766128" lon="-3.876342">
        <ele>1254.456</ele>
        <time>2021-07-30T10:54:31Z</time>
      </trkpt>
      <trkpt lat="40.766141" lon="-3.876318">
        <ele>1254.538</ele>
        <time>2021-07-30T10:54:34Z</time>
      </trkpt>
      <trkpt lat="40.766150" lon="-3.876292">
        <ele>1254.755</ele>
        <time>2021-07-30T10:54:37Z</time>
      </trkpt>
      <trkpt lat="40.766170" lon="-3.876267">
        <ele>1254.752</ele>
        <time>2021-07-30T10:54:41Z</time>
      </trkpt>
      <trkpt lat="40.766179" lon="-3.876245">
        <ele>1254.843</ele>
        <time>2021-07-30T10:54:43Z</time>
      </trkpt>
      <trkpt lat="40.766192" lon="-3.876223">
        <ele>1254.953</ele>
        <time>2021-07-30T10:54:46Z</time>
      </trkpt>
      <trkpt lat="40.766192" lon="-3.876187">
        <ele>1255.537</ele>
        <time>2021-07-30T10:54:50Z</time>
      </trkpt>
      <trkpt lat="40.766202" lon="-3.876160">
        <ele>1255.744</ele>
        <time>2021-07-30T10:54:53Z</time>
      </trkpt>
      <trkpt lat="40.766205" lon="-3.876134">
        <ele>1256.021</ele>
        <time>2021-07-30T10:54:55Z</time>
      </trkpt>
      <trkpt lat="40.766218" lon="-3.876115">
        <ele>1256.041</ele>
        <time>2021-07-30T10:54:58Z</time>
      </trkpt>
      <trkpt lat="40.766221" lon="-3.876083">
        <ele>1256.405</ele>
        <time>2021-07-30T10:55:01Z</time>
      </trkpt>
      <trkpt lat="40.766221" lon="-3.876050">
        <ele>1256.908</ele>
        <time>2021-07-30T10:55:04Z</time>
      </trkpt>
      <trkpt lat="40.766224" lon="-3.876025">
        <ele>1257.299</ele>
        <time>2021-07-30T10:55:07Z</time>
      </trkpt>
      <trkpt lat="40.766237" lon="-3.876007">
        <ele>1257.241</ele>
        <time>2021-07-30T10:55:09Z</time>
      </trkpt>
      <trkpt lat="40.766240" lon="-3.875980">
        <ele>1257.638</ele>
        <time>2021-07-30T10:55:12Z</time>
      </trkpt>
      <trkpt lat="40.766256" lon="-3.875953">
        <ele>1257.715</ele>
        <time>2021-07-30T10:55:15Z</time>
      </trkpt>
      <trkpt lat="40.766262" lon="-3.875925">
        <ele>1258.036</ele>
        <time>2021-07-30T10:55:18Z</time>
      </trkpt>
      <trkpt lat="40.766272" lon="-3.875893">
        <ele>1258.226</ele>
        <time>2021-07-30T10:55:21Z</time>
      </trkpt>
      <trkpt lat="40.766272" lon="-3.875868">
        <ele>1258.670</ele>
        <time>2021-07-30T10:55:23Z</time>
      </trkpt>
      <trkpt lat="40.766285" lon="-3.875850">
        <ele>1258.657</ele>
        <time>2021-07-30T10:55:25Z</time>
      </trkpt>
      <trkpt lat="40.766285" lon="-3.875820">
        <ele>1259.189</ele>
        <time>2021-07-30T10:55:28Z</time>
      </trkpt>
      <trkpt lat="40.766301" lon="-3.875797">
        <ele>1259.106</ele>
        <time>2021-07-30T10:55:31Z</time>
      </trkpt>
      <trkpt lat="40.766310" lon="-3.875774">
        <ele>1259.326</ele>
        <time>2021-07-30T10:55:34Z</time>
      </trkpt>
      <trkpt lat="40.766326" lon="-3.875755">
        <ele>1259.308</ele>
        <time>2021-07-30T10:55:36Z</time>
      </trkpt>
      <trkpt lat="40.766339" lon="-3.875725">
        <ele>1259.575</ele>
        <time>2021-07-30T10:55:40Z</time>
      </trkpt>
      <trkpt lat="40.766349" lon="-3.875698">
        <ele>1259.727</ele>
        <time>2021-07-30T10:55:44Z</time>
      </trkpt>
      <trkpt lat="40.766362" lon="-3.875677">
        <ele>1259.834</ele>
        <time>2021-07-30T10:55:47Z</time>
      </trkpt>
      <trkpt lat="40.766371" lon="-3.875653">
        <ele>1260.081</ele>
        <time>2021-07-30T10:55:49Z</time>
      </trkpt>
      <trkpt lat="40.766378" lon="-3.875618">
        <ele>1260.362</ele>
        <time>2021-07-30T10:55:53Z</time>
      </trkpt>
      <trkpt lat="40.766381" lon="-3.875560">
        <ele>1261.182</ele>
        <time>2021-07-30T10:55:59Z</time>
      </trkpt>
      <trkpt lat="40.766400" lon="-3.875535">
        <ele>1261.356</ele>
        <time>2021-07-30T10:56:01Z</time>
      </trkpt>
      <trkpt lat="40.766410" lon="-3.875507">
        <ele>1261.733</ele>
        <time>2021-07-30T10:56:04Z</time>
      </trkpt>
      <trkpt lat="40.766416" lon="-3.875478">
        <ele>1262.062</ele>
        <time>2021-07-30T10:56:07Z</time>
      </trkpt>
      <trkpt lat="40.766416" lon="-3.875448">
        <ele>1262.483</ele>
        <time>2021-07-30T10:56:16Z</time>
      </trkpt>
      <trkpt lat="40.766435" lon="-3.875435">
        <ele>1262.511</ele>
        <time>2021-07-30T10:56:20Z</time>
      </trkpt>
      <trkpt lat="40.766458" lon="-3.875440">
        <ele>1262.408</ele>
        <time>2021-07-30T10:56:24Z</time>
      </trkpt>
      <trkpt lat="40.766477" lon="-3.875427">
        <ele>1262.453</ele>
        <time>2021-07-30T10:56:26Z</time>
      </trkpt>
      <trkpt lat="40.766480" lon="-3.875402">
        <ele>1262.755</ele>
        <time>2021-07-30T10:56:30Z</time>
      </trkpt>
      <trkpt lat="40.766477" lon="-3.875430">
        <ele>1262.492</ele>
        <time>2021-07-30T10:56:38Z</time>
      </trkpt>
      <trkpt lat="40.766490" lon="-3.875457">
        <ele>1262.039</ele>
        <time>2021-07-30T10:56:42Z</time>
      </trkpt>
      <trkpt lat="40.766515" lon="-3.875468">
        <ele>1261.860</ele>
        <time>2021-07-30T10:56:45Z</time>
      </trkpt>
      <trkpt lat="40.766538" lon="-3.875475">
        <ele>1261.790</ele>
        <time>2021-07-30T10:56:49Z</time>
      </trkpt>
      <trkpt lat="40.766557" lon="-3.875472">
        <ele>1261.784</ele>
        <time>2021-07-30T10:56:51Z</time>
      </trkpt>
      <trkpt lat="40.766576" lon="-3.875480">
        <ele>1261.591</ele>
        <time>2021-07-30T10:56:53Z</time>
      </trkpt>
      <trkpt lat="40.766598" lon="-3.875473">
        <ele>1261.575</ele>
        <time>2021-07-30T10:56:56Z</time>
      </trkpt>
      <trkpt lat="40.766598" lon="-3.875502">
        <ele>1261.328</ele>
        <time>2021-07-30T10:57:00Z</time>
      </trkpt>
      <trkpt lat="40.766605" lon="-3.875525">
        <ele>1261.220</ele>
        <time>2021-07-30T10:57:03Z</time>
      </trkpt>
      <trkpt lat="40.766624" lon="-3.875532">
        <ele>1261.108</ele>
        <time>2021-07-30T10:57:06Z</time>
      </trkpt>
      <trkpt lat="40.766637" lon="-3.875548">
        <ele>1261.024</ele>
        <time>2021-07-30T10:57:10Z</time>
      </trkpt>
      <trkpt lat="40.766656" lon="-3.875540">
        <ele>1261.116</ele>
        <time>2021-07-30T10:57:14Z</time>
      </trkpt>
      <trkpt lat="40.766666" lon="-3.875518">
        <ele>1261.133</ele>
        <time>2021-07-30T10:57:16Z</time>
      </trkpt>
      <trkpt lat="40.766678" lon="-3.875500">
        <ele>1261.560</ele>
        <time>2021-07-30T10:57:19Z</time>
      </trkpt>
      <trkpt lat="40.766688" lon="-3.875468">
        <ele>1261.831</ele>
        <time>2021-07-30T10:57:23Z</time>
      </trkpt>
      <trkpt lat="40.766694" lon="-3.875444">
        <ele>1262.011</ele>
        <time>2021-07-30T10:57:25Z</time>
      </trkpt>
      <trkpt lat="40.766698" lon="-3.875412">
        <ele>1262.355</ele>
        <time>2021-07-30T10:57:28Z</time>
      </trkpt>
      <trkpt lat="40.766717" lon="-3.875390">
        <ele>1262.822</ele>
        <time>2021-07-30T10:57:32Z</time>
      </trkpt>
      <trkpt lat="40.766733" lon="-3.875368">
        <ele>1263.399</ele>
        <time>2021-07-30T10:57:35Z</time>
      </trkpt>
      <trkpt lat="40.766746" lon="-3.875338">
        <ele>1263.707</ele>
        <time>2021-07-30T10:57:40Z</time>
      </trkpt>
      <trkpt lat="40.766746" lon="-3.875310">
        <ele>1263.827</ele>
        <time>2021-07-30T10:57:43Z</time>
      </trkpt>
      <trkpt lat="40.766755" lon="-3.875288">
        <ele>1264.208</ele>
        <time>2021-07-30T10:57:48Z</time>
      </trkpt>
      <trkpt lat="40.766758" lon="-3.875252">
        <ele>1264.616</ele>
        <time>2021-07-30T10:57:52Z</time>
      </trkpt>
      <trkpt lat="40.766758" lon="-3.875213">
        <ele>1265.298</ele>
        <time>2021-07-30T10:57:56Z</time>
      </trkpt>
      <trkpt lat="40.766774" lon="-3.875188">
        <ele>1265.995</ele>
        <time>2021-07-30T10:58:00Z</time>
      </trkpt>
      <trkpt lat="40.766794" lon="-3.875168">
        <ele>1266.622</ele>
        <time>2021-07-30T10:58:02Z</time>
      </trkpt>
      <trkpt lat="40.766800" lon="-3.875145">
        <ele>1267.023</ele>
        <time>2021-07-30T10:58:09Z</time>
      </trkpt>
      <trkpt lat="40.766822" lon="-3.875133">
        <ele>1267.733</ele>
        <time>2021-07-30T10:58:13Z</time>
      </trkpt>
      <trkpt lat="40.766826" lon="-3.875104">
        <ele>1268.267</ele>
        <time>2021-07-30T10:58:17Z</time>
      </trkpt>
      <trkpt lat="40.766838" lon="-3.875085">
        <ele>1268.774</ele>
        <time>2021-07-30T10:58:20Z</time>
      </trkpt>
      <trkpt lat="40.766848" lon="-3.875057">
        <ele>1269.213</ele>
        <time>2021-07-30T10:58:27Z</time>
      </trkpt>
      <trkpt lat="40.766861" lon="-3.875038">
        <ele>1269.743</ele>
        <time>2021-07-30T10:58:30Z</time>
      </trkpt>
      <trkpt lat="40.766874" lon="-3.875015">
        <ele>1270.307</ele>
        <time>2021-07-30T10:58:32Z</time>
      </trkpt>
      <trkpt lat="40.766893" lon="-3.874982">
        <ele>1271.108</ele>
        <time>2021-07-30T10:58:35Z</time>
      </trkpt>
      <trkpt lat="40.766896" lon="-3.874943">
        <ele>1271.788</ele>
        <time>2021-07-30T10:58:37Z</time>
      </trkpt>
      <trkpt lat="40.766902" lon="-3.874915">
        <ele>1272.330</ele>
        <time>2021-07-30T10:58:39Z</time>
      </trkpt>
      <trkpt lat="40.766918" lon="-3.874892">
        <ele>1272.957</ele>
        <time>2021-07-30T10:58:42Z</time>
      </trkpt>
      <trkpt lat="40.766941" lon="-3.874877">
        <ele>1273.744</ele>
        <time>2021-07-30T10:58:44Z</time>
      </trkpt>
      <trkpt lat="40.766957" lon="-3.874858">
        <ele>1274.515</ele>
        <time>2021-07-30T10:58:45Z</time>
      </trkpt>
      <trkpt lat="40.766966" lon="-3.874830">
        <ele>1275.215</ele>
        <time>2021-07-30T10:58:47Z</time>
      </trkpt>
      <trkpt lat="40.766954" lon="-3.874812">
        <ele>1275.019</ele>
        <time>2021-07-30T10:58:52Z</time>
      </trkpt>
      <trkpt lat="40.766947" lon="-3.874787">
        <ele>1275.246</ele>
        <time>2021-07-30T10:58:55Z</time>
      </trkpt>
      <trkpt lat="40.766973" lon="-3.874762">
        <ele>1276.411</ele>
        <time>2021-07-30T10:58:58Z</time>
      </trkpt>
      <trkpt lat="40.766979" lon="-3.874737">
        <ele>1276.921</ele>
        <time>2021-07-30T10:59:01Z</time>
      </trkpt>
      <trkpt lat="40.766995" lon="-3.874712">
        <ele>1277.803</ele>
        <time>2021-07-30T10:59:04Z</time>
      </trkpt>
      <trkpt lat="40.767018" lon="-3.874690">
        <ele>1278.808</ele>
        <time>2021-07-30T10:59:06Z</time>
      </trkpt>
      <trkpt lat="40.767040" lon="-3.874678">
        <ele>1279.758</ele>
        <time>2021-07-30T10:59:09Z</time>
      </trkpt>
      <trkpt lat="40.767040" lon="-3.874652">
        <ele>1280.060</ele>
        <time>2021-07-30T10:59:14Z</time>
      </trkpt>
      <trkpt lat="40.767059" lon="-3.874637">
        <ele>1280.887</ele>
        <time>2021-07-30T10:59:20Z</time>
      </trkpt>
      <trkpt lat="40.767062" lon="-3.874608">
        <ele>1281.334</ele>
        <time>2021-07-30T10:59:24Z</time>
      </trkpt>
      <trkpt lat="40.767062" lon="-3.874573">
        <ele>1281.745</ele>
        <time>2021-07-30T10:59:27Z</time>
      </trkpt>
      <trkpt lat="40.767053" lon="-3.874546">
        <ele>1281.835</ele>
        <time>2021-07-30T10:59:30Z</time>
      </trkpt>
      <trkpt lat="40.767056" lon="-3.874515">
        <ele>1282.379</ele>
        <time>2021-07-30T10:59:33Z</time>
      </trkpt>
      <trkpt lat="40.767062" lon="-3.874488">
        <ele>1282.856</ele>
        <time>2021-07-30T10:59:35Z</time>
      </trkpt>
      <trkpt lat="40.767075" lon="-3.874467">
        <ele>1283.532</ele>
        <time>2021-07-30T10:59:37Z</time>
      </trkpt>
      <trkpt lat="40.767082" lon="-3.874443">
        <ele>1284.092</ele>
        <time>2021-07-30T10:59:39Z</time>
      </trkpt>
      <trkpt lat="40.767094" lon="-3.874413">
        <ele>1284.411</ele>
        <time>2021-07-30T10:59:41Z</time>
      </trkpt>
      <trkpt lat="40.767104" lon="-3.874387">
        <ele>1284.808</ele>
        <time>2021-07-30T10:59:43Z</time>
      </trkpt>
      <trkpt lat="40.767110" lon="-3.874347">
        <ele>1285.110</ele>
        <time>2021-07-30T10:59:45Z</time>
      </trkpt>
      <trkpt lat="40.767117" lon="-3.874312">
        <ele>1285.432</ele>
        <time>2021-07-30T10:59:47Z</time>
      </trkpt>
      <trkpt lat="40.767098" lon="-3.874315">
        <ele>1284.969</ele>
        <time>2021-07-30T10:59:54Z</time>
      </trkpt>
      <trkpt lat="40.767110" lon="-3.874293">
        <ele>1285.356</ele>
        <time>2021-07-30T10:59:58Z</time>
      </trkpt>
      <trkpt lat="40.767123" lon="-3.874273">
        <ele>1285.897</ele>
        <time>2021-07-30T11:00:01Z</time>
      </trkpt>
      <trkpt lat="40.767136" lon="-3.874250">
        <ele>1286.237</ele>
        <time>2021-07-30T11:00:03Z</time>
      </trkpt>
      <trkpt lat="40.767146" lon="-3.874226">
        <ele>1286.671</ele>
        <time>2021-07-30T11:00:05Z</time>
      </trkpt>
      <trkpt lat="40.767158" lon="-3.874205">
        <ele>1287.088</ele>
        <time>2021-07-30T11:00:07Z</time>
      </trkpt>
      <trkpt lat="40.767165" lon="-3.874175">
        <ele>1287.355</ele>
        <time>2021-07-30T11:00:09Z</time>
      </trkpt>
      <trkpt lat="40.767171" lon="-3.874148">
        <ele>1287.607</ele>
        <time>2021-07-30T11:00:11Z</time>
      </trkpt>
      <trkpt lat="40.767178" lon="-3.874122">
        <ele>1287.817</ele>
        <time>2021-07-30T11:00:14Z</time>
      </trkpt>
      <trkpt lat="40.767200" lon="-3.874097">
        <ele>1288.608</ele>
        <time>2021-07-30T11:00:16Z</time>
      </trkpt>
      <trkpt lat="40.767222" lon="-3.874087">
        <ele>1289.382</ele>
        <time>2021-07-30T11:00:18Z</time>
      </trkpt>
      <trkpt lat="40.767251" lon="-3.874060">
        <ele>1291.044</ele>
        <time>2021-07-30T11:00:22Z</time>
      </trkpt>
      <trkpt lat="40.767270" lon="-3.874047">
        <ele>1292.121</ele>
        <time>2021-07-30T11:00:26Z</time>
      </trkpt>
      <trkpt lat="40.767290" lon="-3.874027">
        <ele>1293.238</ele>
        <time>2021-07-30T11:00:34Z</time>
      </trkpt>
      <trkpt lat="40.767312" lon="-3.874005">
        <ele>1294.319</ele>
        <time>2021-07-30T11:00:36Z</time>
      </trkpt>
      <trkpt lat="40.767325" lon="-3.873983">
        <ele>1295.019</ele>
        <time>2021-07-30T11:00:40Z</time>
      </trkpt>
      <trkpt lat="40.767344" lon="-3.873980">
        <ele>1295.943</ele>
        <time>2021-07-30T11:00:50Z</time>
      </trkpt>
      <trkpt lat="40.767363" lon="-3.873970">
        <ele>1296.910</ele>
        <time>2021-07-30T11:01:16Z</time>
      </trkpt>
      <trkpt lat="40.767389" lon="-3.873963">
        <ele>1298.262</ele>
        <time>2021-07-30T11:01:19Z</time>
      </trkpt>
      <trkpt lat="40.767501" lon="-3.873905">
        <ele>1303.283</ele>
        <time>2021-07-30T11:01:51Z</time>
      </trkpt>
      <trkpt lat="40.767523" lon="-3.873903">
        <ele>1304.611</ele>
        <time>2021-07-30T11:01:56Z</time>
      </trkpt>
      <trkpt lat="40.767552" lon="-3.873910">
        <ele>1306.408</ele>
        <time>2021-07-30T11:02:01Z</time>
      </trkpt>
      <trkpt lat="40.767568" lon="-3.873925">
        <ele>1307.673</ele>
        <time>2021-07-30T11:02:06Z</time>
      </trkpt>
      <trkpt lat="40.767587" lon="-3.873910">
        <ele>1308.655</ele>
        <time>2021-07-30T11:02:14Z</time>
      </trkpt>
      <trkpt lat="40.767606" lon="-3.873925">
        <ele>1309.942</ele>
        <time>2021-07-30T11:02:20Z</time>
      </trkpt>
      <trkpt lat="40.767632" lon="-3.873910">
        <ele>1311.379</ele>
        <time>2021-07-30T11:02:23Z</time>
      </trkpt>
      <trkpt lat="40.767658" lon="-3.873882">
        <ele>1312.650</ele>
        <time>2021-07-30T11:02:25Z</time>
      </trkpt>
      <trkpt lat="40.767670" lon="-3.873863">
        <ele>1313.160</ele>
        <time>2021-07-30T11:02:30Z</time>
      </trkpt>
      <trkpt lat="40.767693" lon="-3.873853">
        <ele>1314.354</ele>
        <time>2021-07-30T11:02:36Z</time>
      </trkpt>
      <trkpt lat="40.767712" lon="-3.873853">
        <ele>1315.551</ele>
        <time>2021-07-30T11:02:43Z</time>
      </trkpt>
      <trkpt lat="40.767734" lon="-3.873840">
        <ele>1316.625</ele>
        <time>2021-07-30T11:02:46Z</time>
      </trkpt>
      <trkpt lat="40.767754" lon="-3.873807">
        <ele>1317.426</ele>
        <time>2021-07-30T11:02:50Z</time>
      </trkpt>
      <trkpt lat="40.767776" lon="-3.873788">
        <ele>1318.408</ele>
        <time>2021-07-30T11:02:54Z</time>
      </trkpt>
      <trkpt lat="40.767792" lon="-3.873773">
        <ele>1319.208</ele>
        <time>2021-07-30T11:02:57Z</time>
      </trkpt>
      <trkpt lat="40.767811" lon="-3.873773">
        <ele>1320.329</ele>
        <time>2021-07-30T11:03:02Z</time>
      </trkpt>
      <trkpt lat="40.767821" lon="-3.873798">
        <ele>1321.311</ele>
        <time>2021-07-30T11:03:11Z</time>
      </trkpt>
      <trkpt lat="40.767827" lon="-3.873824">
        <ele>1322.058</ele>
        <time>2021-07-30T11:03:15Z</time>
      </trkpt>
      <trkpt lat="40.767846" lon="-3.873797">
        <ele>1322.825</ele>
        <time>2021-07-30T11:03:17Z</time>
      </trkpt>
      <trkpt lat="40.767853" lon="-3.873770">
        <ele>1322.876</ele>
        <time>2021-07-30T11:03:20Z</time>
      </trkpt>
      <trkpt lat="40.767875" lon="-3.873773">
        <ele>1324.176</ele>
        <time>2021-07-30T11:04:11Z</time>
      </trkpt>
      <trkpt lat="40.767901" lon="-3.873778">
        <ele>1325.850</ele>
        <time>2021-07-30T11:04:14Z</time>
      </trkpt>
      <trkpt lat="40.767930" lon="-3.873762">
        <ele>1327.257</ele>
        <time>2021-07-30T11:04:17Z</time>
      </trkpt>
      <trkpt lat="40.767949" lon="-3.873740">
        <ele>1328.055</ele>
        <time>2021-07-30T11:04:19Z</time>
      </trkpt>
      <trkpt lat="40.767955" lon="-3.873708">
        <ele>1327.807</ele>
        <time>2021-07-30T11:04:21Z</time>
      </trkpt>
      <trkpt lat="40.767955" lon="-3.873737">
        <ele>1328.317</ele>
        <time>2021-07-30T11:04:27Z</time>
      </trkpt>
      <trkpt lat="40.767978" lon="-3.873742">
        <ele>1329.808</ele>
        <time>2021-07-30T11:04:31Z</time>
      </trkpt>
      <trkpt lat="40.767990" lon="-3.873763">
        <ele>1330.822</ele>
        <time>2021-07-30T11:04:36Z</time>
      </trkpt>
      <trkpt lat="40.767987" lon="-3.873790">
        <ele>1331.184</ele>
        <time>2021-07-30T11:04:38Z</time>
      </trkpt>
      <trkpt lat="40.767987" lon="-3.873815">
        <ele>1331.531</ele>
        <time>2021-07-30T11:04:42Z</time>
      </trkpt>
      <trkpt lat="40.768006" lon="-3.873818">
        <ele>1332.788</ele>
        <time>2021-07-30T11:04:44Z</time>
      </trkpt>
      <trkpt lat="40.768029" lon="-3.873810">
        <ele>1334.059</ele>
        <time>2021-07-30T11:04:47Z</time>
      </trkpt>
      <trkpt lat="40.768090" lon="-3.873700">
        <ele>1335.699</ele>
        <time>2021-07-30T11:04:52Z</time>
      </trkpt>
      <trkpt lat="40.768064" lon="-3.873643">
        <ele>1333.013</ele>
        <time>2021-07-30T11:04:53Z</time>
      </trkpt>
      <trkpt lat="40.768054" lon="-3.873615">
        <ele>1332.080</ele>
        <time>2021-07-30T11:04:54Z</time>
      </trkpt>
      <trkpt lat="40.768054" lon="-3.873647">
        <ele>1332.637</ele>
        <time>2021-07-30T11:04:55Z</time>
      </trkpt>
      <trkpt lat="40.768077" lon="-3.873655">
        <ele>1333.949</ele>
        <time>2021-07-30T11:04:56Z</time>
      </trkpt>
      <trkpt lat="40.768096" lon="-3.873654">
        <ele>1334.913</ele>
        <time>2021-07-30T11:04:59Z</time>
      </trkpt>
      <trkpt lat="40.768112" lon="-3.873670">
        <ele>1336.108</ele>
        <time>2021-07-30T11:05:02Z</time>
      </trkpt>
      <trkpt lat="40.768131" lon="-3.873665">
        <ele>1337.060</ele>
        <time>2021-07-30T11:05:04Z</time>
      </trkpt>
      <trkpt lat="40.768147" lon="-3.873687">
        <ele>1338.572</ele>
        <time>2021-07-30T11:05:10Z</time>
      </trkpt>
      <trkpt lat="40.768166" lon="-3.873677">
        <ele>1339.229</ele>
        <time>2021-07-30T11:05:14Z</time>
      </trkpt>
      <trkpt lat="40.768163" lon="-3.873652">
        <ele>1338.316</ele>
        <time>2021-07-30T11:05:24Z</time>
      </trkpt>
      <trkpt lat="40.768170" lon="-3.873627">
        <ele>1337.937</ele>
        <time>2021-07-30T11:05:28Z</time>
      </trkpt>
      <trkpt lat="40.768182" lon="-3.873603">
        <ele>1337.897</ele>
        <time>2021-07-30T11:05:31Z</time>
      </trkpt>
      <trkpt lat="40.768192" lon="-3.873582">
        <ele>1337.981</ele>
        <time>2021-07-30T11:05:34Z</time>
      </trkpt>
      <trkpt lat="40.768189" lon="-3.873555">
        <ele>1337.358</ele>
        <time>2021-07-30T11:05:41Z</time>
      </trkpt>
      <trkpt lat="40.768182" lon="-3.873528">
        <ele>1336.616</ele>
        <time>2021-07-30T11:05:43Z</time>
      </trkpt>
      <trkpt lat="40.768208" lon="-3.873543">
        <ele>1338.076</ele>
        <time>2021-07-30T11:05:50Z</time>
      </trkpt>
      <trkpt lat="40.768224" lon="-3.873558">
        <ele>1339.013</ele>
        <time>2021-07-30T11:05:53Z</time>
      </trkpt>
      <trkpt lat="40.768243" lon="-3.873560">
        <ele>1340.008</ele>
        <time>2021-07-30T11:05:57Z</time>
      </trkpt>
      <trkpt lat="40.768266" lon="-3.873570">
        <ele>1341.238</ele>
        <time>2021-07-30T11:06:02Z</time>
      </trkpt>
      <trkpt lat="40.768282" lon="-3.873558">
        <ele>1341.870</ele>
        <time>2021-07-30T11:06:05Z</time>
      </trkpt>
      <trkpt lat="40.768304" lon="-3.873555">
        <ele>1342.857</ele>
        <time>2021-07-30T11:06:09Z</time>
      </trkpt>
      <trkpt lat="40.768323" lon="-3.873547">
        <ele>1343.664</ele>
        <time>2021-07-30T11:06:12Z</time>
      </trkpt>
      <trkpt lat="40.768342" lon="-3.873533">
        <ele>1344.245</ele>
        <time>2021-07-30T11:06:17Z</time>
      </trkpt>
      <trkpt lat="40.768362" lon="-3.873535">
        <ele>1344.915</ele>
        <time>2021-07-30T11:06:19Z</time>
      </trkpt>
      <trkpt lat="40.768374" lon="-3.873495">
        <ele>1344.869</ele>
        <time>2021-07-30T11:06:24Z</time>
      </trkpt>
      <trkpt lat="40.768394" lon="-3.873463">
        <ele>1345.336</ele>
        <time>2021-07-30T11:06:29Z</time>
      </trkpt>
      <trkpt lat="40.768410" lon="-3.873440">
        <ele>1345.818</ele>
        <time>2021-07-30T11:06:30Z</time>
      </trkpt>
      <trkpt lat="40.768426" lon="-3.873415">
        <ele>1346.498</ele>
        <time>2021-07-30T11:06:31Z</time>
      </trkpt>
      <trkpt lat="40.768426" lon="-3.873390">
        <ele>1346.317</ele>
        <time>2021-07-30T11:06:36Z</time>
      </trkpt>
      <trkpt lat="40.768429" lon="-3.873366">
        <ele>1346.308</ele>
        <time>2021-07-30T11:06:51Z</time>
      </trkpt>
      <trkpt lat="40.768448" lon="-3.873340">
        <ele>1347.238</ele>
        <time>2021-07-30T11:07:03Z</time>
      </trkpt>
      <trkpt lat="40.768461" lon="-3.873314">
        <ele>1348.180</ele>
        <time>2021-07-30T11:07:05Z</time>
      </trkpt>
      <trkpt lat="40.768464" lon="-3.873278">
        <ele>1348.717</ele>
        <time>2021-07-30T11:07:07Z</time>
      </trkpt>
      <trkpt lat="40.768483" lon="-3.873260">
        <ele>1350.014</ele>
        <time>2021-07-30T11:07:11Z</time>
      </trkpt>
      <trkpt lat="40.768502" lon="-3.873260">
        <ele>1351.155</ele>
        <time>2021-07-30T11:07:17Z</time>
      </trkpt>
      <trkpt lat="40.768522" lon="-3.873267">
        <ele>1352.175</ele>
        <time>2021-07-30T11:07:23Z</time>
      </trkpt>
      <trkpt lat="40.768547" lon="-3.873210">
        <ele>1354.249</ele>
        <time>2021-07-30T11:07:25Z</time>
      </trkpt>
      <trkpt lat="40.768560" lon="-3.873188">
        <ele>1355.286</ele>
        <time>2021-07-30T11:07:28Z</time>
      </trkpt>
      <trkpt lat="40.768531" lon="-3.873220">
        <ele>1353.264</ele>
        <time>2021-07-30T11:07:51Z</time>
      </trkpt>
      <trkpt lat="40.768515" lon="-3.873247">
        <ele>1351.906</ele>
        <time>2021-07-30T11:07:54Z</time>
      </trkpt>
      <trkpt lat="40.768496" lon="-3.873272">
        <ele>1350.616</ele>
        <time>2021-07-30T11:07:57Z</time>
      </trkpt>
      <trkpt lat="40.768483" lon="-3.873307">
        <ele>1349.408</ele>
        <time>2021-07-30T11:08:00Z</time>
      </trkpt>
      <trkpt lat="40.768490" lon="-3.873332">
        <ele>1349.553</ele>
        <time>2021-07-30T11:08:02Z</time>
      </trkpt>
      <trkpt lat="40.768486" lon="-3.873356">
        <ele>1349.215</ele>
        <time>2021-07-30T11:08:04Z</time>
      </trkpt>
      <trkpt lat="40.768496" lon="-3.873382">
        <ele>1349.762</ele>
        <time>2021-07-30T11:08:07Z</time>
      </trkpt>
      <trkpt lat="40.768493" lon="-3.873412">
        <ele>1349.539</ele>
        <time>2021-07-30T11:08:09Z</time>
      </trkpt>
      <trkpt lat="40.768506" lon="-3.873437">
        <ele>1350.060</ele>
        <time>2021-07-30T11:08:11Z</time>
      </trkpt>
      <trkpt lat="40.768528" lon="-3.873435">
        <ele>1350.960</ele>
        <time>2021-07-30T11:08:13Z</time>
      </trkpt>
      <trkpt lat="40.768528" lon="-3.873480">
        <ele>1350.714</ele>
        <time>2021-07-30T11:08:17Z</time>
      </trkpt>
      <trkpt lat="40.768525" lon="-3.873512">
        <ele>1350.461</ele>
        <time>2021-07-30T11:08:19Z</time>
      </trkpt>
      <trkpt lat="40.768541" lon="-3.873523">
        <ele>1350.947</ele>
        <time>2021-07-30T11:08:24Z</time>
      </trkpt>
      <trkpt lat="40.768531" lon="-3.873545">
        <ele>1350.429</ele>
        <time>2021-07-30T11:08:27Z</time>
      </trkpt>
      <trkpt lat="40.768547" lon="-3.873530">
        <ele>1351.021</ele>
        <time>2021-07-30T11:08:31Z</time>
      </trkpt>
      <trkpt lat="40.768563" lon="-3.873513">
        <ele>1351.708</ele>
        <time>2021-07-30T11:08:34Z</time>
      </trkpt>
      <trkpt lat="40.768576" lon="-3.873485">
        <ele>1352.561</ele>
        <time>2021-07-30T11:08:38Z</time>
      </trkpt>
      <trkpt lat="40.768605" lon="-3.873474">
        <ele>1353.743</ele>
        <time>2021-07-30T11:08:46Z</time>
      </trkpt>
      <trkpt lat="40.768627" lon="-3.873453">
        <ele>1355.650</ele>
        <time>2021-07-30T11:08:48Z</time>
      </trkpt>
      <trkpt lat="40.768640" lon="-3.873428">
        <ele>1357.087</ele>
        <time>2021-07-30T11:08:53Z</time>
      </trkpt>
      <trkpt lat="40.768650" lon="-3.873407">
        <ele>1358.088</ele>
        <time>2021-07-30T11:08:56Z</time>
      </trkpt>
      <trkpt lat="40.768662" lon="-3.873427">
        <ele>1358.818</ele>
        <time>2021-07-30T11:09:02Z</time>
      </trkpt>
      <trkpt lat="40.768682" lon="-3.873418">
        <ele>1360.522</ele>
        <time>2021-07-30T11:09:09Z</time>
      </trkpt>
      <trkpt lat="40.768694" lon="-3.873398">
        <ele>1361.689</ele>
        <time>2021-07-30T11:09:14Z</time>
      </trkpt>
      <trkpt lat="40.768710" lon="-3.873387">
        <ele>1362.913</ele>
        <time>2021-07-30T11:09:19Z</time>
      </trkpt>
      <trkpt lat="40.768726" lon="-3.873373">
        <ele>1364.243</ele>
        <time>2021-07-30T11:09:24Z</time>
      </trkpt>
      <trkpt lat="40.768739" lon="-3.873354">
        <ele>1365.207</ele>
        <time>2021-07-30T11:09:28Z</time>
      </trkpt>
      <trkpt lat="40.768758" lon="-3.873340">
        <ele>1366.608</ele>
        <time>2021-07-30T11:09:37Z</time>
      </trkpt>
      <trkpt lat="40.768781" lon="-3.873334">
        <ele>1368.298</ele>
        <time>2021-07-30T11:09:45Z</time>
      </trkpt>
      <trkpt lat="40.768733" lon="-3.873288">
        <ele>1365.480</ele>
        <time>2021-07-30T11:10:45Z</time>
      </trkpt>
      <trkpt lat="40.768730" lon="-3.873318">
        <ele>1364.897</ele>
        <time>2021-07-30T11:10:48Z</time>
      </trkpt>
      <trkpt lat="40.768720" lon="-3.873347">
        <ele>1363.894</ele>
        <time>2021-07-30T11:10:51Z</time>
      </trkpt>
      <trkpt lat="40.768723" lon="-3.873387">
        <ele>1363.985</ele>
        <time>2021-07-30T11:10:54Z</time>
      </trkpt>
      <trkpt lat="40.768726" lon="-3.873413">
        <ele>1364.125</ele>
        <time>2021-07-30T11:10:56Z</time>
      </trkpt>
      <trkpt lat="40.768746" lon="-3.873435">
        <ele>1365.719</ele>
        <time>2021-07-30T11:10:58Z</time>
      </trkpt>
      <trkpt lat="40.768768" lon="-3.873438">
        <ele>1367.566</ele>
        <time>2021-07-30T11:11:00Z</time>
      </trkpt>
      <trkpt lat="40.768781" lon="-3.873460">
        <ele>1368.626</ele>
        <time>2021-07-30T11:11:02Z</time>
      </trkpt>
      <trkpt lat="40.768790" lon="-3.873484">
        <ele>1369.547</ele>
        <time>2021-07-30T11:11:04Z</time>
      </trkpt>
      <trkpt lat="40.768810" lon="-3.873492">
        <ele>1371.311</ele>
        <time>2021-07-30T11:11:09Z</time>
      </trkpt>
      <trkpt lat="40.768822" lon="-3.873513">
        <ele>1372.508</ele>
        <time>2021-07-30T11:11:15Z</time>
      </trkpt>
      <trkpt lat="40.768822" lon="-3.873538">
        <ele>1372.779</ele>
        <time>2021-07-30T11:11:17Z</time>
      </trkpt>
      <trkpt lat="40.768842" lon="-3.873548">
        <ele>1374.771</ele>
        <time>2021-07-30T11:11:20Z</time>
      </trkpt>
      <trkpt lat="40.768861" lon="-3.873552">
        <ele>1376.578</ele>
        <time>2021-07-30T11:11:22Z</time>
      </trkpt>
      <trkpt lat="40.768883" lon="-3.873535">
        <ele>1378.445</ele>
        <time>2021-07-30T11:11:26Z</time>
      </trkpt>
      <trkpt lat="40.768902" lon="-3.873532">
        <ele>1380.786</ele>
        <time>2021-07-30T11:11:32Z</time>
      </trkpt>
      <trkpt lat="40.768925" lon="-3.873535">
        <ele>1383.996</ele>
        <time>2021-07-30T11:11:40Z</time>
      </trkpt>
      <trkpt lat="40.768941" lon="-3.873518">
        <ele>1385.870</ele>
        <time>2021-07-30T11:11:46Z</time>
      </trkpt>
      <trkpt lat="40.768979" lon="-3.873560">
        <ele>1391.937</ele>
        <time>2021-07-30T11:12:52Z</time>
      </trkpt>
      <trkpt lat="40.768998" lon="-3.873543">
        <ele>1394.224</ele>
        <time>2021-07-30T11:12:54Z</time>
      </trkpt>
      <trkpt lat="40.769024" lon="-3.873515">
        <ele>1397.104</ele>
        <time>2021-07-30T11:12:57Z</time>
      </trkpt>
      <trkpt lat="40.769040" lon="-3.873493">
        <ele>1398.714</ele>
        <time>2021-07-30T11:12:59Z</time>
      </trkpt>
      <trkpt lat="40.769043" lon="-3.873467">
        <ele>1398.408</ele>
        <time>2021-07-30T11:13:03Z</time>
      </trkpt>
      <trkpt lat="40.769046" lon="-3.873442">
        <ele>1398.199</ele>
        <time>2021-07-30T11:13:12Z</time>
      </trkpt>
      <trkpt lat="40.769062" lon="-3.873430">
        <ele>1399.911</ele>
        <time>2021-07-30T11:13:14Z</time>
      </trkpt>
      <trkpt lat="40.769082" lon="-3.873437">
        <ele>1402.788</ele>
        <time>2021-07-30T11:13:24Z</time>
      </trkpt>
      <trkpt lat="40.769101" lon="-3.873442">
        <ele>1405.385</ele>
        <time>2021-07-30T11:13:32Z</time>
      </trkpt>
      <trkpt lat="40.769085" lon="-3.873453">
        <ele>1403.656</ele>
        <time>2021-07-30T11:14:03Z</time>
      </trkpt>
      <trkpt lat="40.769066" lon="-3.873458">
        <ele>1401.296</ele>
        <time>2021-07-30T11:14:06Z</time>
      </trkpt>
      <trkpt lat="40.769043" lon="-3.873462">
        <ele>1398.330</ele>
        <time>2021-07-30T11:14:10Z</time>
      </trkpt>
      <trkpt lat="40.769062" lon="-3.873460">
        <ele>1400.737</ele>
        <time>2021-07-30T11:14:28Z</time>
      </trkpt>
      <trkpt lat="40.769078" lon="-3.873445">
        <ele>1402.475</ele>
        <time>2021-07-30T11:14:33Z</time>
      </trkpt>
      <trkpt lat="40.769050" lon="-3.873518">
        <ele>1400.728</ele>
        <time>2021-07-30T11:15:02Z</time>
      </trkpt>
      <trkpt lat="40.769037" lon="-3.873485">
        <ele>1398.120</ele>
        <time>2021-07-30T11:15:13Z</time>
      </trkpt>
      <trkpt lat="40.769056" lon="-3.873475">
        <ele>1400.308</ele>
        <time>2021-07-30T11:15:17Z</time>
      </trkpt>
      <trkpt lat="40.769072" lon="-3.873453">
        <ele>1401.824</ele>
        <time>2021-07-30T11:15:20Z</time>
      </trkpt>
      <trkpt lat="40.769098" lon="-3.873437">
        <ele>1404.876</ele>
        <time>2021-07-30T11:15:22Z</time>
      </trkpt>
      <trkpt lat="40.769117" lon="-3.873423">
        <ele>1406.843</ele>
        <time>2021-07-30T11:15:25Z</time>
      </trkpt>
      <trkpt lat="40.769136" lon="-3.873415">
        <ele>1409.060</ele>
        <time>2021-07-30T11:15:29Z</time>
      </trkpt>
      <trkpt lat="40.769162" lon="-3.873402">
        <ele>1411.911</ele>
        <time>2021-07-30T11:15:37Z</time>
      </trkpt>
      <trkpt lat="40.769181" lon="-3.873388">
        <ele>1413.091</ele>
        <time>2021-07-30T11:15:41Z</time>
      </trkpt>
      <trkpt lat="40.769158" lon="-3.873387">
        <ele>1410.895</ele>
        <time>2021-07-30T11:15:45Z</time>
      </trkpt>
      <trkpt lat="40.769149" lon="-3.873363">
        <ele>1408.982</ele>
        <time>2021-07-30T11:15:47Z</time>
      </trkpt>
      <trkpt lat="40.769165" lon="-3.873350">
        <ele>1410.439</ele>
        <time>2021-07-30T11:15:50Z</time>
      </trkpt>
      <trkpt lat="40.769184" lon="-3.873352">
        <ele>1411.901</ele>
        <time>2021-07-30T11:15:57Z</time>
      </trkpt>
      <trkpt lat="40.769190" lon="-3.873328">
        <ele>1411.621</ele>
        <time>2021-07-30T11:16:02Z</time>
      </trkpt>
      <trkpt lat="40.769206" lon="-3.873317">
        <ele>1412.608</ele>
        <time>2021-07-30T11:16:13Z</time>
      </trkpt>
      <trkpt lat="40.769222" lon="-3.873298">
        <ele>1413.670</ele>
        <time>2021-07-30T11:16:19Z</time>
      </trkpt>
      <trkpt lat="40.769245" lon="-3.873308">
        <ele>1415.292</ele>
        <time>2021-07-30T11:16:25Z</time>
      </trkpt>
      <trkpt lat="40.769258" lon="-3.873287">
        <ele>1416.099</ele>
        <time>2021-07-30T11:16:44Z</time>
      </trkpt>
      <trkpt lat="40.769264" lon="-3.873310">
        <ele>1416.516</ele>
        <time>2021-07-30T11:16:52Z</time>
      </trkpt>
      <trkpt lat="40.769283" lon="-3.873325">
        <ele>1417.917</ele>
        <time>2021-07-30T11:17:00Z</time>
      </trkpt>
      <trkpt lat="40.769283" lon="-3.873352">
        <ele>1418.717</ele>
        <time>2021-07-30T11:17:03Z</time>
      </trkpt>
      <trkpt lat="40.769299" lon="-3.873370">
        <ele>1420.491</ele>
        <time>2021-07-30T11:17:09Z</time>
      </trkpt>
      <trkpt lat="40.769322" lon="-3.873378">
        <ele>1422.368</ele>
        <time>2021-07-30T11:17:15Z</time>
      </trkpt>
      <trkpt lat="40.769299" lon="-3.873457">
        <ele>1423.774</ele>
        <time>2021-07-30T11:18:15Z</time>
      </trkpt>
      <trkpt lat="40.769328" lon="-3.873397">
        <ele>1423.556</ele>
        <time>2021-07-30T11:19:08Z</time>
      </trkpt>
      <trkpt lat="40.769306" lon="-3.873390">
        <ele>1421.721</ele>
        <time>2021-07-30T11:19:12Z</time>
      </trkpt>
      <trkpt lat="40.769286" lon="-3.873377">
        <ele>1419.808</ele>
        <time>2021-07-30T11:19:17Z</time>
      </trkpt>
      <trkpt lat="40.769309" lon="-3.873358">
        <ele>1420.784</ele>
        <time>2021-07-30T11:19:30Z</time>
      </trkpt>
      <trkpt lat="40.769325" lon="-3.873345">
        <ele>1421.336</ele>
        <time>2021-07-30T11:19:34Z</time>
      </trkpt>
      <trkpt lat="40.769341" lon="-3.873334">
        <ele>1422.023</ele>
        <time>2021-07-30T11:19:40Z</time>
      </trkpt>
      <trkpt lat="40.769299" lon="-3.873348">
        <ele>1419.650</ele>
        <time>2021-07-30T11:20:48Z</time>
      </trkpt>
      <trkpt lat="40.769286" lon="-3.873368">
        <ele>1419.571</ele>
        <time>2021-07-30T11:20:51Z</time>
      </trkpt>
      <trkpt lat="40.769302" lon="-3.873417">
        <ele>1422.441</ele>
        <time>2021-07-30T11:22:32Z</time>
      </trkpt>
      <trkpt lat="40.769318" lon="-3.873402">
        <ele>1423.015</ele>
        <time>2021-07-30T11:22:36Z</time>
      </trkpt>
      <trkpt lat="40.769322" lon="-3.873428">
        <ele>1424.212</ele>
        <time>2021-07-30T11:22:41Z</time>
      </trkpt>
      <trkpt lat="40.769306" lon="-3.873405">
        <ele>1422.262</ele>
        <time>2021-07-30T11:22:45Z</time>
      </trkpt>
      <trkpt lat="40.769315" lon="-3.873383">
        <ele>1422.083</ele>
        <time>2021-07-30T11:22:47Z</time>
      </trkpt>
      <trkpt lat="40.769334" lon="-3.873395">
        <ele>1423.811</ele>
        <time>2021-07-30T11:22:50Z</time>
      </trkpt>
      <trkpt lat="40.769360" lon="-3.873413">
        <ele>1426.308</ele>
        <time>2021-07-30T11:22:55Z</time>
      </trkpt>
      <trkpt lat="40.769379" lon="-3.873422">
        <ele>1428.053</ele>
        <time>2021-07-30T11:22:58Z</time>
      </trkpt>
      <trkpt lat="40.769402" lon="-3.873410">
        <ele>1429.185</ele>
        <time>2021-07-30T11:23:02Z</time>
      </trkpt>
      <trkpt lat="40.769424" lon="-3.873418">
        <ele>1430.962</ele>
        <time>2021-07-30T11:23:06Z</time>
      </trkpt>
      <trkpt lat="40.769443" lon="-3.873420">
        <ele>1432.349</ele>
        <time>2021-07-30T11:23:12Z</time>
      </trkpt>
      <trkpt lat="40.769459" lon="-3.873442">
        <ele>1434.360</ele>
        <time>2021-07-30T11:23:19Z</time>
      </trkpt>
      <trkpt lat="40.769459" lon="-3.873470">
        <ele>1435.490</ele>
        <time>2021-07-30T11:23:25Z</time>
      </trkpt>
      <trkpt lat="40.769482" lon="-3.873458">
        <ele>1436.684</ele>
        <time>2021-07-30T11:23:32Z</time>
      </trkpt>
      <trkpt lat="40.769494" lon="-3.873478">
        <ele>1438.221</ele>
        <time>2021-07-30T11:23:37Z</time>
      </trkpt>
      <trkpt lat="40.769494" lon="-3.873503">
        <ele>1439.212</ele>
        <time>2021-07-30T11:23:41Z</time>
      </trkpt>
      <trkpt lat="40.769507" lon="-3.873525">
        <ele>1441.032</ele>
        <time>2021-07-30T11:23:49Z</time>
      </trkpt>
      <trkpt lat="40.769533" lon="-3.873508">
        <ele>1442.205</ele>
        <time>2021-07-30T11:24:04Z</time>
      </trkpt>
      <trkpt lat="40.769555" lon="-3.873502">
        <ele>1443.508</ele>
        <time>2021-07-30T11:24:07Z</time>
      </trkpt>
      <trkpt lat="40.769581" lon="-3.873512">
        <ele>1445.798</ele>
        <time>2021-07-30T11:24:13Z</time>
      </trkpt>
      <trkpt lat="40.769581" lon="-3.873536">
        <ele>1446.730</ele>
        <time>2021-07-30T11:24:18Z</time>
      </trkpt>
      <trkpt lat="40.769574" lon="-3.873562">
        <ele>1447.347</ele>
        <time>2021-07-30T11:24:24Z</time>
      </trkpt>
      <trkpt lat="40.769587" lon="-3.873538">
        <ele>1447.254</ele>
        <time>2021-07-30T11:24:33Z</time>
      </trkpt>
      <trkpt lat="40.769606" lon="-3.873543">
        <ele>1448.835</ele>
        <time>2021-07-30T11:24:58Z</time>
      </trkpt>
      <trkpt lat="40.769622" lon="-3.873558">
        <ele>1450.655</ele>
        <time>2021-07-30T11:25:01Z</time>
      </trkpt>
      <trkpt lat="40.769642" lon="-3.873567">
        <ele>1452.499</ele>
        <time>2021-07-30T11:25:04Z</time>
      </trkpt>
      <trkpt lat="40.769667" lon="-3.873578">
        <ele>1454.686</ele>
        <time>2021-07-30T11:25:07Z</time>
      </trkpt>
      <trkpt lat="40.769686" lon="-3.873557">
        <ele>1455.172</ele>
        <time>2021-07-30T11:25:12Z</time>
      </trkpt>
      <trkpt lat="40.769686" lon="-3.873516">
        <ele>1453.313</ele>
        <time>2021-07-30T11:25:15Z</time>
      </trkpt>
      <trkpt lat="40.769702" lon="-3.873503">
        <ele>1453.914</ele>
        <time>2021-07-30T11:25:19Z</time>
      </trkpt>
      <trkpt lat="40.769731" lon="-3.873490">
        <ele>1454.808</ele>
        <time>2021-07-30T11:25:23Z</time>
      </trkpt>
      <trkpt lat="40.769731" lon="-3.873515">
        <ele>1455.874</ele>
        <time>2021-07-30T11:25:42Z</time>
      </trkpt>
      <trkpt lat="40.769744" lon="-3.873536">
        <ele>1456.456</ele>
        <time>2021-07-30T11:25:44Z</time>
      </trkpt>
      <trkpt lat="40.769757" lon="-3.873558">
        <ele>1456.983</ele>
        <time>2021-07-30T11:25:46Z</time>
      </trkpt>
      <trkpt lat="40.769760" lon="-3.873598">
        <ele>1458.140</ele>
        <time>2021-07-30T11:25:49Z</time>
      </trkpt>
      <trkpt lat="40.769773" lon="-3.873620">
        <ele>1458.021</ele>
        <time>2021-07-30T11:25:53Z</time>
      </trkpt>
      <trkpt lat="40.769779" lon="-3.873650">
        <ele>1457.861</ele>
        <time>2021-07-30T11:26:00Z</time>
      </trkpt>
      <trkpt lat="40.769773" lon="-3.873677">
        <ele>1458.165</ele>
        <time>2021-07-30T11:26:03Z</time>
      </trkpt>
      <trkpt lat="40.769760" lon="-3.873704">
        <ele>1458.832</ele>
        <time>2021-07-30T11:26:11Z</time>
      </trkpt>
      <trkpt lat="40.769763" lon="-3.873728">
        <ele>1458.712</ele>
        <time>2021-07-30T11:26:13Z</time>
      </trkpt>
      <trkpt lat="40.769782" lon="-3.873732">
        <ele>1457.732</ele>
        <time>2021-07-30T11:26:20Z</time>
      </trkpt>
      <trkpt lat="40.769798" lon="-3.873715">
        <ele>1456.805</ele>
        <time>2021-07-30T11:26:34Z</time>
      </trkpt>
      <trkpt lat="40.769792" lon="-3.873684">
        <ele>1457.208</ele>
        <time>2021-07-30T11:26:45Z</time>
      </trkpt>
      <trkpt lat="40.769782" lon="-3.873715">
        <ele>1457.748</ele>
        <time>2021-07-30T11:27:29Z</time>
      </trkpt>
      <trkpt lat="40.769763" lon="-3.873738">
        <ele>1458.750</ele>
        <time>2021-07-30T11:27:32Z</time>
      </trkpt>
      <trkpt lat="40.769744" lon="-3.873772">
        <ele>1459.997</ele>
        <time>2021-07-30T11:27:35Z</time>
      </trkpt>
      <trkpt lat="40.769757" lon="-3.873704">
        <ele>1458.914</ele>
        <time>2021-07-30T11:29:40Z</time>
      </trkpt>
      <trkpt lat="40.769773" lon="-3.873690">
        <ele>1458.195</ele>
        <time>2021-07-30T11:29:44Z</time>
      </trkpt>
      <trkpt lat="40.769802" lon="-3.873672">
        <ele>1456.755</ele>
        <time>2021-07-30T11:29:47Z</time>
      </trkpt>
      <trkpt lat="40.769821" lon="-3.873664">
        <ele>1455.939</ele>
        <time>2021-07-30T11:29:49Z</time>
      </trkpt>
      <trkpt lat="40.769840" lon="-3.873648">
        <ele>1455.166</ele>
        <time>2021-07-30T11:29:53Z</time>
      </trkpt>
      <trkpt lat="40.769856" lon="-3.873635">
        <ele>1454.598</ele>
        <time>2021-07-30T11:29:59Z</time>
      </trkpt>
      <trkpt lat="40.769914" lon="-3.873645">
        <ele>1451.915</ele>
        <time>2021-07-30T11:30:58Z</time>
      </trkpt>
      <trkpt lat="40.769914" lon="-3.873615">
        <ele>1452.326</ele>
        <time>2021-07-30T11:31:03Z</time>
      </trkpt>
      <trkpt lat="40.769933" lon="-3.873620">
        <ele>1451.508</ele>
        <time>2021-07-30T11:31:09Z</time>
      </trkpt>
      <trkpt lat="40.769933" lon="-3.873650">
        <ele>1451.086</ele>
        <time>2021-07-30T11:31:13Z</time>
      </trkpt>
      <trkpt lat="40.769936" lon="-3.873675">
        <ele>1450.438</ele>
        <time>2021-07-30T11:31:15Z</time>
      </trkpt>
      <trkpt lat="40.769936" lon="-3.873710">
        <ele>1449.825</ele>
        <time>2021-07-30T11:31:17Z</time>
      </trkpt>
      <trkpt lat="40.769939" lon="-3.873735">
        <ele>1449.282</ele>
        <time>2021-07-30T11:31:19Z</time>
      </trkpt>
      <trkpt lat="40.769962" lon="-3.873712">
        <ele>1448.443</ele>
        <time>2021-07-30T11:31:25Z</time>
      </trkpt>
      <trkpt lat="40.769978" lon="-3.873697">
        <ele>1447.983</ele>
        <time>2021-07-30T11:31:28Z</time>
      </trkpt>
      <trkpt lat="40.769990" lon="-3.873680">
        <ele>1447.777</ele>
        <time>2021-07-30T11:31:30Z</time>
      </trkpt>
      <trkpt lat="40.769984" lon="-3.873705">
        <ele>1447.434</ele>
        <time>2021-07-30T11:31:34Z</time>
      </trkpt>
      <trkpt lat="40.770003" lon="-3.873700">
        <ele>1446.861</ele>
        <time>2021-07-30T11:31:46Z</time>
      </trkpt>
      <trkpt lat="40.770032" lon="-3.873682">
        <ele>1448.121</ele>
        <time>2021-07-30T11:32:17Z</time>
      </trkpt>
      <trkpt lat="40.770054" lon="-3.873670">
        <ele>1449.013</ele>
        <time>2021-07-30T11:32:19Z</time>
      </trkpt>
      <trkpt lat="40.770077" lon="-3.873664">
        <ele>1449.808</ele>
        <time>2021-07-30T11:32:21Z</time>
      </trkpt>
      <trkpt lat="40.770102" lon="-3.873650">
        <ele>1450.913</ele>
        <time>2021-07-30T11:32:23Z</time>
      </trkpt>
      <trkpt lat="40.770131" lon="-3.873633">
        <ele>1452.215</ele>
        <time>2021-07-30T11:32:25Z</time>
      </trkpt>
      <trkpt lat="40.770154" lon="-3.873618">
        <ele>1453.232</ele>
        <time>2021-07-30T11:32:27Z</time>
      </trkpt>
      <trkpt lat="40.770125" lon="-3.873628">
        <ele>1452.139</ele>
        <time>2021-07-30T11:32:35Z</time>
      </trkpt>
      <trkpt lat="40.770134" lon="-3.873562">
        <ele>1455.570</ele>
        <time>2021-07-30T11:33:25Z</time>
      </trkpt>
      <trkpt lat="40.770125" lon="-3.873536">
        <ele>1456.670</ele>
        <time>2021-07-30T11:33:28Z</time>
      </trkpt>
      <trkpt lat="40.770141" lon="-3.873520">
        <ele>1458.034</ele>
        <time>2021-07-30T11:33:30Z</time>
      </trkpt>
      <trkpt lat="40.770144" lon="-3.873493">
        <ele>1459.611</ele>
        <time>2021-07-30T11:33:37Z</time>
      </trkpt>
      <trkpt lat="40.770157" lon="-3.873474">
        <ele>1461.121</ele>
        <time>2021-07-30T11:33:41Z</time>
      </trkpt>
      <trkpt lat="40.770170" lon="-3.873455">
        <ele>1462.641</ele>
        <time>2021-07-30T11:33:50Z</time>
      </trkpt>
      <trkpt lat="40.770195" lon="-3.873460">
        <ele>1463.205</ele>
        <time>2021-07-30T11:33:53Z</time>
      </trkpt>
      <trkpt lat="40.770189" lon="-3.873437">
        <ele>1464.308</ele>
        <time>2021-07-30T11:33:57Z</time>
      </trkpt>
      <trkpt lat="40.770211" lon="-3.873440">
        <ele>1465.029</ele>
        <time>2021-07-30T11:33:59Z</time>
      </trkpt>
      <trkpt lat="40.770224" lon="-3.873457">
        <ele>1464.521</ele>
        <time>2021-07-30T11:34:05Z</time>
      </trkpt>
      <trkpt lat="40.770240" lon="-3.873440">
        <ele>1466.048</ele>
        <time>2021-07-30T11:34:13Z</time>
      </trkpt>
      <trkpt lat="40.770243" lon="-3.873413">
        <ele>1467.825</ele>
        <time>2021-07-30T11:34:19Z</time>
      </trkpt>
      <trkpt lat="40.770253" lon="-3.873392">
        <ele>1469.496</ele>
        <time>2021-07-30T11:34:27Z</time>
      </trkpt>
      <trkpt lat="40.770272" lon="-3.873370">
        <ele>1471.596</ele>
        <time>2021-07-30T11:34:32Z</time>
      </trkpt>
      <trkpt lat="40.770250" lon="-3.873385">
        <ele>1469.790</ele>
        <time>2021-07-30T11:34:42Z</time>
      </trkpt>
      <trkpt lat="40.770272" lon="-3.873372">
        <ele>1471.457</ele>
        <time>2021-07-30T11:35:02Z</time>
      </trkpt>
      <trkpt lat="40.770259" lon="-3.873355">
        <ele>1471.943</ele>
        <time>2021-07-30T11:35:05Z</time>
      </trkpt>
      <trkpt lat="40.770269" lon="-3.873330">
        <ele>1473.864</ele>
        <time>2021-07-30T11:35:10Z</time>
      </trkpt>
      <trkpt lat="40.770272" lon="-3.873297">
        <ele>1476.110</ele>
        <time>2021-07-30T11:35:14Z</time>
      </trkpt>
      <trkpt lat="40.770291" lon="-3.873282">
        <ele>1478.108</ele>
        <time>2021-07-30T11:35:20Z</time>
      </trkpt>
      <trkpt lat="40.770307" lon="-3.873257">
        <ele>1480.891</ele>
        <time>2021-07-30T11:35:29Z</time>
      </trkpt>
      <trkpt lat="40.770330" lon="-3.873260">
        <ele>1482.173</ele>
        <time>2021-07-30T11:35:36Z</time>
      </trkpt>
      <trkpt lat="40.770330" lon="-3.873233">
        <ele>1483.970</ele>
        <time>2021-07-30T11:35:48Z</time>
      </trkpt>
      <trkpt lat="40.770330" lon="-3.873258">
        <ele>1482.287</ele>
        <time>2021-07-30T11:36:09Z</time>
      </trkpt>
      <trkpt lat="40.770330" lon="-3.873232">
        <ele>1484.038</ele>
        <time>2021-07-30T11:36:18Z</time>
      </trkpt>
      <trkpt lat="40.770349" lon="-3.873257">
        <ele>1483.538</ele>
        <time>2021-07-30T11:36:24Z</time>
      </trkpt>
      <trkpt lat="40.770362" lon="-3.873233">
        <ele>1486.012</ele>
        <time>2021-07-30T11:36:28Z</time>
      </trkpt>
      <trkpt lat="40.770368" lon="-3.873203">
        <ele>1488.679</ele>
        <time>2021-07-30T11:36:31Z</time>
      </trkpt>
      <trkpt lat="40.770381" lon="-3.873222">
        <ele>1488.142</ele>
        <time>2021-07-30T11:36:39Z</time>
      </trkpt>
      <trkpt lat="40.770400" lon="-3.873188">
        <ele>1491.822</ele>
        <time>2021-07-30T11:36:44Z</time>
      </trkpt>
      <trkpt lat="40.770381" lon="-3.873168">
        <ele>1492.014</ele>
        <time>2021-07-30T11:36:50Z</time>
      </trkpt>
      <trkpt lat="40.770387" lon="-3.873193">
        <ele>1490.608</ele>
        <time>2021-07-30T11:36:56Z</time>
      </trkpt>
      <trkpt lat="40.770406" lon="-3.873200">
        <ele>1491.461</ele>
        <time>2021-07-30T11:37:06Z</time>
      </trkpt>
      <trkpt lat="40.770422" lon="-3.873220">
        <ele>1490.913</ele>
        <time>2021-07-30T11:37:09Z</time>
      </trkpt>
      <trkpt lat="40.770451" lon="-3.873232">
        <ele>1491.990</ele>
        <time>2021-07-30T11:37:11Z</time>
      </trkpt>
      <trkpt lat="40.770454" lon="-3.873205">
        <ele>1494.267</ele>
        <time>2021-07-30T11:37:16Z</time>
      </trkpt>
      <trkpt lat="40.770429" lon="-3.873203">
        <ele>1492.778</ele>
        <time>2021-07-30T11:37:24Z</time>
      </trkpt>
      <trkpt lat="40.770413" lon="-3.873188">
        <ele>1492.738</ele>
        <time>2021-07-30T11:37:25Z</time>
      </trkpt>
      <trkpt lat="40.770406" lon="-3.873160">
        <ele>1494.342</ele>
        <time>2021-07-30T11:37:27Z</time>
      </trkpt>
      <trkpt lat="40.770406" lon="-3.873132">
        <ele>1496.419</ele>
        <time>2021-07-30T11:37:29Z</time>
      </trkpt>
      <trkpt lat="40.770397" lon="-3.873090">
        <ele>1498.995</ele>
        <time>2021-07-30T11:37:38Z</time>
      </trkpt>
      <trkpt lat="40.770397" lon="-3.873062">
        <ele>1501.049</ele>
        <time>2021-07-30T11:37:39Z</time>
      </trkpt>
      <trkpt lat="40.770413" lon="-3.873050">
        <ele>1502.923</ele>
        <time>2021-07-30T11:37:43Z</time>
      </trkpt>
      <trkpt lat="40.770429" lon="-3.873010">
        <ele>1505.008</ele>
        <time>2021-07-30T11:37:45Z</time>
      </trkpt>
      <trkpt lat="40.770451" lon="-3.872967">
        <ele>1507.286</ele>
        <time>2021-07-30T11:37:47Z</time>
      </trkpt>
      <trkpt lat="40.770467" lon="-3.872938">
        <ele>1508.648</ele>
        <time>2021-07-30T11:37:50Z</time>
      </trkpt>
      <trkpt lat="40.770448" lon="-3.872944">
        <ele>1507.585</ele>
        <time>2021-07-30T11:37:55Z</time>
      </trkpt>
      <trkpt lat="40.770461" lon="-3.872910">
        <ele>1508.752</ele>
        <time>2021-07-30T11:38:01Z</time>
      </trkpt>
      <trkpt lat="40.770470" lon="-3.872933">
        <ele>1508.853</ele>
        <time>2021-07-30T11:38:08Z</time>
      </trkpt>
      <trkpt lat="40.770490" lon="-3.872947">
        <ele>1509.723</ele>
        <time>2021-07-30T11:38:12Z</time>
      </trkpt>
      <trkpt lat="40.770515" lon="-3.872945">
        <ele>1511.017</ele>
        <time>2021-07-30T11:38:17Z</time>
      </trkpt>
      <trkpt lat="40.770534" lon="-3.872935">
        <ele>1512.034</ele>
        <time>2021-07-30T11:38:19Z</time>
      </trkpt>
      <trkpt lat="40.770502" lon="-3.872935">
        <ele>1510.486</ele>
        <time>2021-07-30T11:38:24Z</time>
      </trkpt>
      <trkpt lat="40.770512" lon="-3.872913">
        <ele>1511.060</ele>
        <time>2021-07-30T11:38:33Z</time>
      </trkpt>
      <trkpt lat="40.770528" lon="-3.872892">
        <ele>1511.726</ele>
        <time>2021-07-30T11:38:41Z</time>
      </trkpt>
      <trkpt lat="40.770515" lon="-3.872855">
        <ele>1511.208</ele>
        <time>2021-07-30T11:38:43Z</time>
      </trkpt>
      <trkpt lat="40.770496" lon="-3.872853">
        <ele>1510.635</ele>
        <time>2021-07-30T11:38:51Z</time>
      </trkpt>
      <trkpt lat="40.770480" lon="-3.872838">
        <ele>1510.327</ele>
        <time>2021-07-30T11:38:54Z</time>
      </trkpt>
      <trkpt lat="40.770493" lon="-3.872882">
        <ele>1510.334</ele>
        <time>2021-07-30T11:39:46Z</time>
      </trkpt>
      <trkpt lat="40.770512" lon="-3.872868">
        <ele>1511.181</ele>
        <time>2021-07-30T11:39:51Z</time>
      </trkpt>
      <trkpt lat="40.770531" lon="-3.872867">
        <ele>1511.872</ele>
        <time>2021-07-30T11:39:52Z</time>
      </trkpt>
      <trkpt lat="40.770512" lon="-3.872795">
        <ele>1511.392</ele>
        <time>2021-07-30T11:40:28Z</time>
      </trkpt>
      <trkpt lat="40.770496" lon="-3.872775">
        <ele>1511.226</ele>
        <time>2021-07-30T11:40:33Z</time>
      </trkpt>
      <trkpt lat="40.770486" lon="-3.872753">
        <ele>1511.223</ele>
        <time>2021-07-30T11:40:36Z</time>
      </trkpt>
      <trkpt lat="40.770474" lon="-3.872790">
        <ele>1510.745</ele>
        <time>2021-07-30T11:40:58Z</time>
      </trkpt>
      <trkpt lat="40.770467" lon="-3.872816">
        <ele>1510.247</ele>
        <time>2021-07-30T11:41:01Z</time>
      </trkpt>
      <trkpt lat="40.770422" lon="-3.872822">
        <ele>1509.011</ele>
        <time>2021-07-30T11:41:48Z</time>
      </trkpt>
      <trkpt lat="40.770477" lon="-3.872786">
        <ele>1510.808</ele>
        <time>2021-07-30T11:42:07Z</time>
      </trkpt>
      <trkpt lat="40.770477" lon="-3.872760">
        <ele>1511.041</ele>
        <time>2021-07-30T11:42:17Z</time>
      </trkpt>
      <trkpt lat="40.770490" lon="-3.872738">
        <ele>1511.483</ele>
        <time>2021-07-30T11:42:20Z</time>
      </trkpt>
      <trkpt lat="40.770509" lon="-3.872715">
        <ele>1511.890</ele>
        <time>2021-07-30T11:42:28Z</time>
      </trkpt>
      <trkpt lat="40.770493" lon="-3.872700">
        <ele>1511.847</ele>
        <time>2021-07-30T11:42:32Z</time>
      </trkpt>
      <trkpt lat="40.770512" lon="-3.872687">
        <ele>1512.088</ele>
        <time>2021-07-30T11:42:37Z</time>
      </trkpt>
      <trkpt lat="40.770486" lon="-3.872683">
        <ele>1511.978</ele>
        <time>2021-07-30T11:42:43Z</time>
      </trkpt>
      <trkpt lat="40.770467" lon="-3.872677">
        <ele>1511.872</ele>
        <time>2021-07-30T11:42:48Z</time>
      </trkpt>
      <trkpt lat="40.770448" lon="-3.872672">
        <ele>1511.759</ele>
        <time>2021-07-30T11:42:57Z</time>
      </trkpt>
      <trkpt lat="40.770429" lon="-3.872640">
        <ele>1512.062</ele>
        <time>2021-07-30T11:43:07Z</time>
      </trkpt>
      <trkpt lat="40.770448" lon="-3.872628">
        <ele>1512.283</ele>
        <time>2021-07-30T11:43:26Z</time>
      </trkpt>
      <trkpt lat="40.770461" lon="-3.872652">
        <ele>1512.011</ele>
        <time>2021-07-30T11:43:33Z</time>
      </trkpt>
      <trkpt lat="40.770451" lon="-3.872594">
        <ele>1512.708</ele>
        <time>2021-07-30T11:44:13Z</time>
      </trkpt>
      <trkpt lat="40.770454" lon="-3.872568">
        <ele>1512.973</ele>
        <time>2021-07-30T11:44:21Z</time>
      </trkpt>
      <trkpt lat="40.770435" lon="-3.872557">
        <ele>1513.175</ele>
        <time>2021-07-30T11:44:36Z</time>
      </trkpt>
      <trkpt lat="40.770435" lon="-3.872585">
        <ele>1512.892</ele>
        <time>2021-07-30T11:44:41Z</time>
      </trkpt>
      <trkpt lat="40.770448" lon="-3.872568">
        <ele>1513.039</ele>
        <time>2021-07-30T11:44:45Z</time>
      </trkpt>
      <trkpt lat="40.770435" lon="-3.872550">
        <ele>1513.210</ele>
        <time>2021-07-30T11:44:48Z</time>
      </trkpt>
      <trkpt lat="40.770451" lon="-3.872538">
        <ele>1513.390</ele>
        <time>2021-07-30T11:44:51Z</time>
      </trkpt>
      <trkpt lat="40.770474" lon="-3.872542">
        <ele>1513.254</ele>
        <time>2021-07-30T11:44:53Z</time>
      </trkpt>
      <trkpt lat="40.770490" lon="-3.872527">
        <ele>1513.271</ele>
        <time>2021-07-30T11:44:58Z</time>
      </trkpt>
      <trkpt lat="40.770502" lon="-3.872495">
        <ele>1513.561</ele>
        <time>2021-07-30T11:45:01Z</time>
      </trkpt>
      <trkpt lat="40.770512" lon="-3.872465">
        <ele>1514.121</ele>
        <time>2021-07-30T11:45:03Z</time>
      </trkpt>
      <trkpt lat="40.770496" lon="-3.872452">
        <ele>1514.513</ele>
        <time>2021-07-30T11:45:06Z</time>
      </trkpt>
      <trkpt lat="40.770499" lon="-3.872418">
        <ele>1515.308</ele>
        <time>2021-07-30T11:45:14Z</time>
      </trkpt>
      <trkpt lat="40.770518" lon="-3.872403">
        <ele>1515.583</ele>
        <time>2021-07-30T11:45:17Z</time>
      </trkpt>
      <trkpt lat="40.770534" lon="-3.872380">
        <ele>1515.885</ele>
        <time>2021-07-30T11:45:34Z</time>
      </trkpt>
      <trkpt lat="40.770541" lon="-3.872350">
        <ele>1516.412</ele>
        <time>2021-07-30T11:45:37Z</time>
      </trkpt>
      <trkpt lat="40.770560" lon="-3.872330">
        <ele>1517.259</ele>
        <time>2021-07-30T11:45:42Z</time>
      </trkpt>
      <trkpt lat="40.770518" lon="-3.872303">
        <ele>1517.730</ele>
        <time>2021-07-30T11:48:02Z</time>
      </trkpt>
      <trkpt lat="40.770534" lon="-3.872290">
        <ele>1517.810</ele>
        <time>2021-07-30T11:48:05Z</time>
      </trkpt>
      <trkpt lat="40.770614" lon="-3.872002">
        <ele>1527.954</ele>
        <time>2021-07-30T11:49:09Z</time>
      </trkpt>
      <trkpt lat="40.770675" lon="-3.871910">
        <ele>1530.311</ele>
        <time>2021-07-30T11:50:02Z</time>
      </trkpt>
      <trkpt lat="40.770666" lon="-3.871882">
        <ele>1531.196</ele>
        <time>2021-07-30T11:50:03Z</time>
      </trkpt>
      <trkpt lat="40.770691" lon="-3.871910">
        <ele>1530.431</ele>
        <time>2021-07-30T11:50:05Z</time>
      </trkpt>
      <trkpt lat="40.770707" lon="-3.871922">
        <ele>1530.124</ele>
        <time>2021-07-30T11:50:06Z</time>
      </trkpt>
      <trkpt lat="40.770736" lon="-3.871914">
        <ele>1530.508</ele>
        <time>2021-07-30T11:50:09Z</time>
      </trkpt>
      <trkpt lat="40.770720" lon="-3.871892">
        <ele>1530.826</ele>
        <time>2021-07-30T11:50:19Z</time>
      </trkpt>
      <trkpt lat="40.770736" lon="-3.871875">
        <ele>1531.128</ele>
        <time>2021-07-30T11:50:28Z</time>
      </trkpt>
      <trkpt lat="40.770746" lon="-3.871853">
        <ele>1531.445</ele>
        <time>2021-07-30T11:50:33Z</time>
      </trkpt>
      <trkpt lat="40.770765" lon="-3.871872">
        <ele>1531.072</ele>
        <time>2021-07-30T11:50:38Z</time>
      </trkpt>
      <trkpt lat="40.770778" lon="-3.871850">
        <ele>1531.193</ele>
        <time>2021-07-30T11:50:42Z</time>
      </trkpt>
      <trkpt lat="40.770774" lon="-3.871818">
        <ele>1531.523</ele>
        <time>2021-07-30T11:50:46Z</time>
      </trkpt>
      <trkpt lat="40.770784" lon="-3.871795">
        <ele>1531.527</ele>
        <time>2021-07-30T11:50:48Z</time>
      </trkpt>
      <trkpt lat="40.770797" lon="-3.871775">
        <ele>1531.334</ele>
        <time>2021-07-30T11:50:51Z</time>
      </trkpt>
      <trkpt lat="40.770819" lon="-3.871763">
        <ele>1530.774</ele>
        <time>2021-07-30T11:50:53Z</time>
      </trkpt>
      <trkpt lat="40.770838" lon="-3.871752">
        <ele>1530.656</ele>
        <time>2021-07-30T11:50:57Z</time>
      </trkpt>
      <trkpt lat="40.770790" lon="-3.871802">
        <ele>1531.321</ele>
        <time>2021-07-30T11:51:38Z</time>
      </trkpt>
      <trkpt lat="40.770771" lon="-3.871830">
        <ele>1531.408</ele>
        <time>2021-07-30T11:51:40Z</time>
      </trkpt>
      <trkpt lat="40.770749" lon="-3.871858">
        <ele>1531.354</ele>
        <time>2021-07-30T11:51:42Z</time>
      </trkpt>
      <trkpt lat="40.770730" lon="-3.871885">
        <ele>1530.946</ele>
        <time>2021-07-30T11:51:44Z</time>
      </trkpt>
      <trkpt lat="40.770707" lon="-3.871905">
        <ele>1530.513</ele>
        <time>2021-07-30T11:51:46Z</time>
      </trkpt>
      <trkpt lat="40.770688" lon="-3.871928">
        <ele>1529.930</ele>
        <time>2021-07-30T11:51:48Z</time>
      </trkpt>
      <trkpt lat="40.770685" lon="-3.871960">
        <ele>1529.611</ele>
        <time>2021-07-30T11:51:51Z</time>
      </trkpt>
      <trkpt lat="40.770698" lon="-3.871983">
        <ele>1530.191</ele>
        <time>2021-07-30T11:51:53Z</time>
      </trkpt>
      <trkpt lat="40.770710" lon="-3.872003">
        <ele>1530.855</ele>
        <time>2021-07-30T11:51:55Z</time>
      </trkpt>
      <trkpt lat="40.770730" lon="-3.872018">
        <ele>1531.852</ele>
        <time>2021-07-30T11:51:57Z</time>
      </trkpt>
      <trkpt lat="40.770749" lon="-3.872038">
        <ele>1533.229</ele>
        <time>2021-07-30T11:51:59Z</time>
      </trkpt>
      <trkpt lat="40.770771" lon="-3.872023">
        <ele>1533.500</ele>
        <time>2021-07-30T11:52:02Z</time>
      </trkpt>
      <trkpt lat="40.770797" lon="-3.872010">
        <ele>1533.820</ele>
        <time>2021-07-30T11:52:05Z</time>
      </trkpt>
      <trkpt lat="40.770806" lon="-3.871988">
        <ele>1533.008</ele>
        <time>2021-07-30T11:52:08Z</time>
      </trkpt>
      <trkpt lat="40.770829" lon="-3.871988">
        <ele>1533.669</ele>
        <time>2021-07-30T11:52:13Z</time>
      </trkpt>
      <trkpt lat="40.770854" lon="-3.871993">
        <ele>1535.271</ele>
        <time>2021-07-30T11:52:18Z</time>
      </trkpt>
      <trkpt lat="40.770883" lon="-3.872002">
        <ele>1537.218</ele>
        <time>2021-07-30T11:52:20Z</time>
      </trkpt>
      <trkpt lat="40.770906" lon="-3.871977">
        <ele>1537.665</ele>
        <time>2021-07-30T11:52:28Z</time>
      </trkpt>
      <trkpt lat="40.770918" lon="-3.871948">
        <ele>1537.576</ele>
        <time>2021-07-30T11:52:30Z</time>
      </trkpt>
      <trkpt lat="40.770925" lon="-3.871925">
        <ele>1537.766</ele>
        <time>2021-07-30T11:52:41Z</time>
      </trkpt>
      <trkpt lat="40.770918" lon="-3.871887">
        <ele>1536.870</ele>
        <time>2021-07-30T11:52:45Z</time>
      </trkpt>
      <trkpt lat="40.770928" lon="-3.871863">
        <ele>1537.227</ele>
        <time>2021-07-30T11:52:51Z</time>
      </trkpt>
      <trkpt lat="40.770944" lon="-3.871887">
        <ele>1538.692</ele>
        <time>2021-07-30T11:52:54Z</time>
      </trkpt>
      <trkpt lat="40.770963" lon="-3.871872">
        <ele>1539.773</ele>
        <time>2021-07-30T11:53:02Z</time>
      </trkpt>
      <trkpt lat="40.770982" lon="-3.871872">
        <ele>1541.020</ele>
        <time>2021-07-30T11:53:09Z</time>
      </trkpt>
      <trkpt lat="40.771005" lon="-3.871863">
        <ele>1542.408</ele>
        <time>2021-07-30T11:53:13Z</time>
      </trkpt>
      <trkpt lat="40.771030" lon="-3.871858">
        <ele>1544.066</ele>
        <time>2021-07-30T11:53:17Z</time>
      </trkpt>
      <trkpt lat="40.771053" lon="-3.871843">
        <ele>1545.218</ele>
        <time>2021-07-30T11:53:19Z</time>
      </trkpt>
      <trkpt lat="40.771072" lon="-3.871847">
        <ele>1546.615</ele>
        <time>2021-07-30T11:53:23Z</time>
      </trkpt>
      <trkpt lat="40.771091" lon="-3.871852">
        <ele>1548.042</ele>
        <time>2021-07-30T11:53:27Z</time>
      </trkpt>
      <trkpt lat="40.771110" lon="-3.871862">
        <ele>1549.583</ele>
        <time>2021-07-30T11:53:31Z</time>
      </trkpt>
      <trkpt lat="40.771130" lon="-3.871860">
        <ele>1550.323</ele>
        <time>2021-07-30T11:53:35Z</time>
      </trkpt>
      <trkpt lat="40.771146" lon="-3.871843">
        <ele>1550.477</ele>
        <time>2021-07-30T11:53:38Z</time>
      </trkpt>
      <trkpt lat="40.771216" lon="-3.871785">
        <ele>1551.134</ele>
        <time>2021-07-30T11:54:32Z</time>
      </trkpt>
      <trkpt lat="40.771229" lon="-3.871756">
        <ele>1550.753</ele>
        <time>2021-07-30T11:54:36Z</time>
      </trkpt>
      <trkpt lat="40.771232" lon="-3.871732">
        <ele>1550.004</ele>
        <time>2021-07-30T11:54:39Z</time>
      </trkpt>
      <trkpt lat="40.771242" lon="-3.871708">
        <ele>1549.614</ele>
        <time>2021-07-30T11:54:42Z</time>
      </trkpt>
      <trkpt lat="40.771261" lon="-3.871720">
        <ele>1550.608</ele>
        <time>2021-07-30T11:54:44Z</time>
      </trkpt>
      <trkpt lat="40.771264" lon="-3.871748">
        <ele>1551.622</ele>
        <time>2021-07-30T11:54:51Z</time>
      </trkpt>
      <trkpt lat="40.771251" lon="-3.871727">
        <ele>1550.534</ele>
        <time>2021-07-30T11:55:03Z</time>
      </trkpt>
      <trkpt lat="40.771274" lon="-3.871727">
        <ele>1551.381</ele>
        <time>2021-07-30T11:55:12Z</time>
      </trkpt>
      <trkpt lat="40.771293" lon="-3.871720">
        <ele>1551.768</ele>
        <time>2021-07-30T11:55:17Z</time>
      </trkpt>
      <trkpt lat="40.771277" lon="-3.871732">
        <ele>1551.589</ele>
        <time>2021-07-30T11:55:23Z</time>
      </trkpt>
      <trkpt lat="40.771245" lon="-3.871795">
        <ele>1552.539</ele>
        <time>2021-07-30T11:55:44Z</time>
      </trkpt>
      <trkpt lat="40.771248" lon="-3.871820">
        <ele>1553.443</ele>
        <time>2021-07-30T11:55:47Z</time>
      </trkpt>
      <trkpt lat="40.771242" lon="-3.871843">
        <ele>1553.920</ele>
        <time>2021-07-30T11:55:52Z</time>
      </trkpt>
      <trkpt lat="40.771229" lon="-3.871860">
        <ele>1554.096</ele>
        <time>2021-07-30T11:55:55Z</time>
      </trkpt>
      <trkpt lat="40.771242" lon="-3.871877">
        <ele>1555.031</ele>
        <time>2021-07-30T11:56:01Z</time>
      </trkpt>
      <trkpt lat="40.771229" lon="-3.871904">
        <ele>1555.424</ele>
        <time>2021-07-30T11:56:09Z</time>
      </trkpt>
      <trkpt lat="40.771197" lon="-3.871963">
        <ele>1554.408</ele>
        <time>2021-07-30T11:56:12Z</time>
      </trkpt>
      <trkpt lat="40.771184" lon="-3.871983">
        <ele>1552.986</ele>
        <time>2021-07-30T11:56:15Z</time>
      </trkpt>
      <trkpt lat="40.771174" lon="-3.872005">
        <ele>1551.538</ele>
        <time>2021-07-30T11:56:17Z</time>
      </trkpt>
      <trkpt lat="40.771155" lon="-3.872008">
        <ele>1550.845</ele>
        <time>2021-07-30T11:56:22Z</time>
      </trkpt>
      <trkpt lat="40.771142" lon="-3.872035">
        <ele>1549.262</ele>
        <time>2021-07-30T11:56:25Z</time>
      </trkpt>
      <trkpt lat="40.771149" lon="-3.872063">
        <ele>1548.153</ele>
        <time>2021-07-30T11:56:30Z</time>
      </trkpt>
      <trkpt lat="40.771130" lon="-3.872075">
        <ele>1547.213</ele>
        <time>2021-07-30T11:56:39Z</time>
      </trkpt>
      <trkpt lat="40.771142" lon="-3.872057">
        <ele>1548.287</ele>
        <time>2021-07-30T11:56:46Z</time>
      </trkpt>
      <trkpt lat="40.771146" lon="-3.872083">
        <ele>1547.164</ele>
        <time>2021-07-30T11:56:51Z</time>
      </trkpt>
      <trkpt lat="40.771126" lon="-3.872067">
        <ele>1547.548</ele>
        <time>2021-07-30T11:56:55Z</time>
      </trkpt>
      <trkpt lat="40.771123" lon="-3.872043">
        <ele>1548.461</ele>
        <time>2021-07-30T11:56:58Z</time>
      </trkpt>
      <trkpt lat="40.771155" lon="-3.872120">
        <ele>1545.617</ele>
        <time>2021-07-30T11:57:06Z</time>
      </trkpt>
      <trkpt lat="40.771174" lon="-3.872077">
        <ele>1547.908</ele>
        <time>2021-07-30T11:57:07Z</time>
      </trkpt>
      <trkpt lat="40.771248" lon="-3.872136">
        <ele>1545.871</ele>
        <time>2021-07-30T11:57:13Z</time>
      </trkpt>
      <trkpt lat="40.771315" lon="-3.871963">
        <ele>1558.843</ele>
        <time>2021-07-30T11:57:26Z</time>
      </trkpt>
      <trkpt lat="40.771328" lon="-3.871945">
        <ele>1560.570</ele>
        <time>2021-07-30T11:57:29Z</time>
      </trkpt>
      <trkpt lat="40.771344" lon="-3.871930">
        <ele>1560.737</ele>
        <time>2021-07-30T11:57:31Z</time>
      </trkpt>
      <trkpt lat="40.771360" lon="-3.871915">
        <ele>1560.858</ele>
        <time>2021-07-30T11:57:34Z</time>
      </trkpt>
      <trkpt lat="40.771376" lon="-3.871892">
        <ele>1560.678</ele>
        <time>2021-07-30T11:57:37Z</time>
      </trkpt>
      <trkpt lat="40.771382" lon="-3.871865">
        <ele>1559.962</ele>
        <time>2021-07-30T11:57:38Z</time>
      </trkpt>
      <trkpt lat="40.771405" lon="-3.871817">
        <ele>1558.529</ele>
        <time>2021-07-30T11:57:40Z</time>
      </trkpt>
      <trkpt lat="40.771414" lon="-3.871773">
        <ele>1557.311</ele>
        <time>2021-07-30T11:57:41Z</time>
      </trkpt>
      <trkpt lat="40.771421" lon="-3.871738">
        <ele>1556.621</ele>
        <time>2021-07-30T11:57:42Z</time>
      </trkpt>
      <trkpt lat="40.771434" lon="-3.871713">
        <ele>1556.603</ele>
        <time>2021-07-30T11:57:43Z</time>
      </trkpt>
      <trkpt lat="40.771459" lon="-3.871690">
        <ele>1557.508</ele>
        <time>2021-07-30T11:57:47Z</time>
      </trkpt>
      <trkpt lat="40.771459" lon="-3.871655">
        <ele>1557.558</ele>
        <time>2021-07-30T11:57:49Z</time>
      </trkpt>
      <trkpt lat="40.771466" lon="-3.871622">
        <ele>1558.590</ele>
        <time>2021-07-30T11:57:52Z</time>
      </trkpt>
      <trkpt lat="40.771485" lon="-3.871603">
        <ele>1559.987</ele>
        <time>2021-07-30T11:57:56Z</time>
      </trkpt>
      <trkpt lat="40.771501" lon="-3.871590">
        <ele>1560.954</ele>
        <time>2021-07-30T11:58:01Z</time>
      </trkpt>
      <trkpt lat="40.771523" lon="-3.871580">
        <ele>1562.275</ele>
        <time>2021-07-30T11:58:06Z</time>
      </trkpt>
      <trkpt lat="40.771542" lon="-3.871574">
        <ele>1563.265</ele>
        <time>2021-07-30T11:58:12Z</time>
      </trkpt>
      <trkpt lat="40.771565" lon="-3.871590">
        <ele>1564.399</ele>
        <time>2021-07-30T11:58:16Z</time>
      </trkpt>
      <trkpt lat="40.771587" lon="-3.871602">
        <ele>1565.456</ele>
        <time>2021-07-30T11:58:19Z</time>
      </trkpt>
      <trkpt lat="40.771606" lon="-3.871612">
        <ele>1566.458</ele>
        <time>2021-07-30T11:58:25Z</time>
      </trkpt>
      <trkpt lat="40.771626" lon="-3.871612">
        <ele>1567.552</ele>
        <time>2021-07-30T11:58:29Z</time>
      </trkpt>
      <trkpt lat="40.771638" lon="-3.871590">
        <ele>1568.217</ele>
        <time>2021-07-30T11:58:33Z</time>
      </trkpt>
      <trkpt lat="40.771664" lon="-3.871572">
        <ele>1569.508</ele>
        <time>2021-07-30T11:58:37Z</time>
      </trkpt>
      <trkpt lat="40.771683" lon="-3.871564">
        <ele>1568.722</ele>
        <time>2021-07-30T11:58:41Z</time>
      </trkpt>
      <trkpt lat="40.771699" lon="-3.871552">
        <ele>1567.934</ele>
        <time>2021-07-30T11:58:46Z</time>
      </trkpt>
      <trkpt lat="40.771712" lon="-3.871533">
        <ele>1567.361</ele>
        <time>2021-07-30T11:58:49Z</time>
      </trkpt>
      <trkpt lat="40.771712" lon="-3.871508">
        <ele>1567.548</ele>
        <time>2021-07-30T11:58:50Z</time>
      </trkpt>
      <trkpt lat="40.771680" lon="-3.871383">
        <ele>1569.319</ele>
        <time>2021-07-30T11:59:26Z</time>
      </trkpt>
      <trkpt lat="40.771674" lon="-3.871468">
        <ele>1569.049</ele>
        <time>2021-07-30T11:59:45Z</time>
      </trkpt>
      <trkpt lat="40.771683" lon="-3.871495">
        <ele>1568.723</ele>
        <time>2021-07-30T11:59:47Z</time>
      </trkpt>
      <trkpt lat="40.771702" lon="-3.871458">
        <ele>1568.120</ele>
        <time>2021-07-30T12:00:49Z</time>
      </trkpt>
      <trkpt lat="40.771686" lon="-3.871443">
        <ele>1568.689</ele>
        <time>2021-07-30T12:00:54Z</time>
      </trkpt>
      <trkpt lat="40.771709" lon="-3.871522">
        <ele>1567.506</ele>
        <time>2021-07-30T12:01:45Z</time>
      </trkpt>
      <trkpt lat="40.771699" lon="-3.871480">
        <ele>1568.126</ele>
        <time>2021-07-30T12:01:49Z</time>
      </trkpt>
      <trkpt lat="40.771690" lon="-3.871453">
        <ele>1568.508</ele>
        <time>2021-07-30T12:01:54Z</time>
      </trkpt>
      <trkpt lat="40.771686" lon="-3.871488">
        <ele>1568.645</ele>
        <time>2021-07-30T12:02:07Z</time>
      </trkpt>
      <trkpt lat="40.771706" lon="-3.871550">
        <ele>1567.697</ele>
        <time>2021-07-30T12:02:34Z</time>
      </trkpt>
      <trkpt lat="40.771718" lon="-3.871537">
        <ele>1567.074</ele>
        <time>2021-07-30T12:02:59Z</time>
      </trkpt>
      <trkpt lat="40.771661" lon="-3.871507">
        <ele>1569.221</ele>
        <time>2021-07-30T12:04:24Z</time>
      </trkpt>
      <trkpt lat="40.771718" lon="-3.871368">
        <ele>1569.822</ele>
        <time>2021-07-30T12:06:24Z</time>
      </trkpt>
      <trkpt lat="40.771760" lon="-3.871320">
        <ele>1573.392</ele>
        <time>2021-07-30T12:08:55Z</time>
      </trkpt>
      <trkpt lat="40.771757" lon="-3.871285">
        <ele>1576.326</ele>
        <time>2021-07-30T12:08:57Z</time>
      </trkpt>
      <trkpt lat="40.771750" lon="-3.871320">
        <ele>1573.433</ele>
        <time>2021-07-30T12:08:59Z</time>
      </trkpt>
      <trkpt lat="40.771728" lon="-3.871330">
        <ele>1572.969</ele>
        <time>2021-07-30T12:09:02Z</time>
      </trkpt>
      <trkpt lat="40.771690" lon="-3.871308">
        <ele>1575.404</ele>
        <time>2021-07-30T12:09:20Z</time>
      </trkpt>
      <trkpt lat="40.771709" lon="-3.871308">
        <ele>1575.124</ele>
        <time>2021-07-30T12:09:24Z</time>
      </trkpt>
      <trkpt lat="40.771709" lon="-3.871347">
        <ele>1571.808</ele>
        <time>2021-07-30T12:09:28Z</time>
      </trkpt>
      <trkpt lat="40.771722" lon="-3.871364">
        <ele>1570.183</ele>
        <time>2021-07-30T12:09:38Z</time>
      </trkpt>
      <trkpt lat="40.771712" lon="-3.871390">
        <ele>1568.235</ele>
        <time>2021-07-30T12:09:52Z</time>
      </trkpt>
      <trkpt lat="40.771702" lon="-3.871423">
        <ele>1568.222</ele>
        <time>2021-07-30T12:10:10Z</time>
      </trkpt>
      <trkpt lat="40.771709" lon="-3.871455">
        <ele>1567.999</ele>
        <time>2021-07-30T12:10:35Z</time>
      </trkpt>
      <trkpt lat="40.771712" lon="-3.871488">
        <ele>1567.660</ele>
        <time>2021-07-30T12:10:37Z</time>
      </trkpt>
      <trkpt lat="40.771712" lon="-3.871462">
        <ele>1567.860</ele>
        <time>2021-07-30T12:10:55Z</time>
      </trkpt>
      <trkpt lat="40.771728" lon="-3.871445">
        <ele>1567.484</ele>
        <time>2021-07-30T12:10:59Z</time>
      </trkpt>
      <trkpt lat="40.771747" lon="-3.871438">
        <ele>1566.961</ele>
        <time>2021-07-30T12:11:04Z</time>
      </trkpt>
      <trkpt lat="40.771763" lon="-3.871457">
        <ele>1566.268</ele>
        <time>2021-07-30T12:11:06Z</time>
      </trkpt>
      <trkpt lat="40.771789" lon="-3.871470">
        <ele>1565.042</ele>
        <time>2021-07-30T12:11:35Z</time>
      </trkpt>
      <trkpt lat="40.771811" lon="-3.871483">
        <ele>1563.926</ele>
        <time>2021-07-30T12:11:38Z</time>
      </trkpt>
      <trkpt lat="40.771840" lon="-3.871492">
        <ele>1562.508</ele>
        <time>2021-07-30T12:11:41Z</time>
      </trkpt>
      <trkpt lat="40.771859" lon="-3.871512">
        <ele>1561.133</ele>
        <time>2021-07-30T12:11:43Z</time>
      </trkpt>
      <trkpt lat="40.771869" lon="-3.871533">
        <ele>1559.885</ele>
        <time>2021-07-30T12:11:48Z</time>
      </trkpt>
      <trkpt lat="40.771888" lon="-3.871535">
        <ele>1558.892</ele>
        <time>2021-07-30T12:11:50Z</time>
      </trkpt>
      <trkpt lat="40.771901" lon="-3.871518">
        <ele>1559.039</ele>
        <time>2021-07-30T12:11:53Z</time>
      </trkpt>
      <trkpt lat="40.771917" lon="-3.871530">
        <ele>1557.710</ele>
        <time>2021-07-30T12:11:58Z</time>
      </trkpt>
      <trkpt lat="40.771939" lon="-3.871544">
        <ele>1555.970</ele>
        <time>2021-07-30T12:12:01Z</time>
      </trkpt>
      <trkpt lat="40.771958" lon="-3.871565">
        <ele>1554.734</ele>
        <time>2021-07-30T12:12:04Z</time>
      </trkpt>
      <trkpt lat="40.771968" lon="-3.871588">
        <ele>1553.811</ele>
        <time>2021-07-30T12:12:06Z</time>
      </trkpt>
      <trkpt lat="40.772000" lon="-3.871595">
        <ele>1554.168</ele>
        <time>2021-07-30T12:12:09Z</time>
      </trkpt>
      <trkpt lat="40.772022" lon="-3.871580">
        <ele>1555.342</ele>
        <time>2021-07-30T12:12:11Z</time>
      </trkpt>
      <trkpt lat="40.772003" lon="-3.871558">
        <ele>1555.826</ele>
        <time>2021-07-30T12:12:19Z</time>
      </trkpt>
      <trkpt lat="40.772006" lon="-3.871530">
        <ele>1557.108</ele>
        <time>2021-07-30T12:12:24Z</time>
      </trkpt>
      <trkpt lat="40.772035" lon="-3.871517">
        <ele>1557.943</ele>
        <time>2021-07-30T12:12:27Z</time>
      </trkpt>
      <trkpt lat="40.772058" lon="-3.871505">
        <ele>1558.545</ele>
        <time>2021-07-30T12:12:30Z</time>
      </trkpt>
      <trkpt lat="40.772077" lon="-3.871493">
        <ele>1559.012</ele>
        <time>2021-07-30T12:12:34Z</time>
      </trkpt>
      <trkpt lat="40.772099" lon="-3.871513">
        <ele>1558.639</ele>
        <time>2021-07-30T12:12:38Z</time>
      </trkpt>
      <trkpt lat="40.772115" lon="-3.871535">
        <ele>1558.250</ele>
        <time>2021-07-30T12:12:40Z</time>
      </trkpt>
      <trkpt lat="40.772128" lon="-3.871554">
        <ele>1557.980</ele>
        <time>2021-07-30T12:12:42Z</time>
      </trkpt>
      <trkpt lat="40.772147" lon="-3.871565">
        <ele>1558.014</ele>
        <time>2021-07-30T12:12:45Z</time>
      </trkpt>
      <trkpt lat="40.772157" lon="-3.871597">
        <ele>1557.721</ele>
        <time>2021-07-30T12:12:48Z</time>
      </trkpt>
      <trkpt lat="40.772144" lon="-3.871615">
        <ele>1557.114</ele>
        <time>2021-07-30T12:12:51Z</time>
      </trkpt>
      <trkpt lat="40.772166" lon="-3.871613">
        <ele>1557.754</ele>
        <time>2021-07-30T12:12:58Z</time>
      </trkpt>
      <trkpt lat="40.772147" lon="-3.871587">
        <ele>1557.709</ele>
        <time>2021-07-30T12:13:08Z</time>
      </trkpt>
      <trkpt lat="40.772138" lon="-3.871557">
        <ele>1558.008</ele>
        <time>2021-07-30T12:13:10Z</time>
      </trkpt>
      <trkpt lat="40.772166" lon="-3.871568">
        <ele>1558.348</ele>
        <time>2021-07-30T12:13:14Z</time>
      </trkpt>
      <trkpt lat="40.772176" lon="-3.871595">
        <ele>1558.260</ele>
        <time>2021-07-30T12:13:19Z</time>
      </trkpt>
      <trkpt lat="40.772205" lon="-3.871588">
        <ele>1558.967</ele>
        <time>2021-07-30T12:13:26Z</time>
      </trkpt>
      <trkpt lat="40.772202" lon="-3.871638">
        <ele>1558.574</ele>
        <time>2021-07-30T12:13:27Z</time>
      </trkpt>
      <trkpt lat="40.772218" lon="-3.871653">
        <ele>1558.995</ele>
        <time>2021-07-30T12:13:28Z</time>
      </trkpt>
      <trkpt lat="40.772202" lon="-3.871665">
        <ele>1558.355</ele>
        <time>2021-07-30T12:13:31Z</time>
      </trkpt>
      <trkpt lat="40.772195" lon="-3.871695">
        <ele>1557.949</ele>
        <time>2021-07-30T12:13:38Z</time>
      </trkpt>
      <trkpt lat="40.772189" lon="-3.871730">
        <ele>1557.546</ele>
        <time>2021-07-30T12:13:40Z</time>
      </trkpt>
      <trkpt lat="40.772179" lon="-3.871760">
        <ele>1557.154</ele>
        <time>2021-07-30T12:13:42Z</time>
      </trkpt>
      <trkpt lat="40.772186" lon="-3.871788">
        <ele>1557.256</ele>
        <time>2021-07-30T12:13:47Z</time>
      </trkpt>
      <trkpt lat="40.772198" lon="-3.871813">
        <ele>1557.611</ele>
        <time>2021-07-30T12:13:49Z</time>
      </trkpt>
      <trkpt lat="40.772202" lon="-3.871837">
        <ele>1557.608</ele>
        <time>2021-07-30T12:13:52Z</time>
      </trkpt>
      <trkpt lat="40.772182" lon="-3.871868">
        <ele>1556.732</ele>
        <time>2021-07-30T12:13:55Z</time>
      </trkpt>
      <trkpt lat="40.772179" lon="-3.871900">
        <ele>1556.594</ele>
        <time>2021-07-30T12:13:57Z</time>
      </trkpt>
      <trkpt lat="40.772176" lon="-3.871928">
        <ele>1556.231</ele>
        <time>2021-07-30T12:14:00Z</time>
      </trkpt>
      <trkpt lat="40.772176" lon="-3.871958">
        <ele>1556.258</ele>
        <time>2021-07-30T12:14:03Z</time>
      </trkpt>
      <trkpt lat="40.772205" lon="-3.871968">
        <ele>1557.439</ele>
        <time>2021-07-30T12:14:06Z</time>
      </trkpt>
      <trkpt lat="40.772218" lon="-3.871990">
        <ele>1558.029</ele>
        <time>2021-07-30T12:14:08Z</time>
      </trkpt>
      <trkpt lat="40.772237" lon="-3.872012">
        <ele>1559.063</ele>
        <time>2021-07-30T12:14:11Z</time>
      </trkpt>
      <trkpt lat="40.772243" lon="-3.872038">
        <ele>1559.390</ele>
        <time>2021-07-30T12:14:13Z</time>
      </trkpt>
      <trkpt lat="40.772246" lon="-3.872074">
        <ele>1559.666</ele>
        <time>2021-07-30T12:14:16Z</time>
      </trkpt>
      <trkpt lat="40.772246" lon="-3.872102">
        <ele>1559.729</ele>
        <time>2021-07-30T12:14:19Z</time>
      </trkpt>
      <trkpt lat="40.772237" lon="-3.872122">
        <ele>1559.321</ele>
        <time>2021-07-30T12:14:22Z</time>
      </trkpt>
      <trkpt lat="40.772218" lon="-3.872133">
        <ele>1558.508</ele>
        <time>2021-07-30T12:14:24Z</time>
      </trkpt>
      <trkpt lat="40.772198" lon="-3.872152">
        <ele>1557.843</ele>
        <time>2021-07-30T12:14:26Z</time>
      </trkpt>
      <trkpt lat="40.772176" lon="-3.872165">
        <ele>1557.065</ele>
        <time>2021-07-30T12:14:28Z</time>
      </trkpt>
      <trkpt lat="40.772170" lon="-3.872198">
        <ele>1556.812</ele>
        <time>2021-07-30T12:14:31Z</time>
      </trkpt>
      <trkpt lat="40.772163" lon="-3.872232">
        <ele>1556.759</ele>
        <time>2021-07-30T12:14:33Z</time>
      </trkpt>
      <trkpt lat="40.772176" lon="-3.872267">
        <ele>1557.620</ele>
        <time>2021-07-30T12:14:36Z</time>
      </trkpt>
      <trkpt lat="40.772176" lon="-3.872297">
        <ele>1557.870</ele>
        <time>2021-07-30T12:14:40Z</time>
      </trkpt>
      <trkpt lat="40.772186" lon="-3.872323">
        <ele>1558.474</ele>
        <time>2021-07-30T12:14:43Z</time>
      </trkpt>
      <trkpt lat="40.772202" lon="-3.872342">
        <ele>1559.251</ele>
        <time>2021-07-30T12:14:45Z</time>
      </trkpt>
      <trkpt lat="40.772205" lon="-3.872375">
        <ele>1559.596</ele>
        <time>2021-07-30T12:14:48Z</time>
      </trkpt>
      <trkpt lat="40.772221" lon="-3.872392">
        <ele>1560.231</ele>
        <time>2021-07-30T12:14:51Z</time>
      </trkpt>
      <trkpt lat="40.772221" lon="-3.872420">
        <ele>1560.424</ele>
        <time>2021-07-30T12:15:00Z</time>
      </trkpt>
      <trkpt lat="40.772214" lon="-3.872458">
        <ele>1560.408</ele>
        <time>2021-07-30T12:15:03Z</time>
      </trkpt>
      <trkpt lat="40.772218" lon="-3.872486">
        <ele>1560.816</ele>
        <time>2021-07-30T12:15:07Z</time>
      </trkpt>
      <trkpt lat="40.772237" lon="-3.872493">
        <ele>1561.638</ele>
        <time>2021-07-30T12:15:10Z</time>
      </trkpt>
      <trkpt lat="40.772256" lon="-3.872507">
        <ele>1562.645</ele>
        <time>2021-07-30T12:15:13Z</time>
      </trkpt>
      <trkpt lat="40.772269" lon="-3.872527">
        <ele>1563.562</ele>
        <time>2021-07-30T12:15:17Z</time>
      </trkpt>
      <trkpt lat="40.772285" lon="-3.872540">
        <ele>1564.393</ele>
        <time>2021-07-30T12:15:21Z</time>
      </trkpt>
      <trkpt lat="40.772298" lon="-3.872568">
        <ele>1565.333</ele>
        <time>2021-07-30T12:15:25Z</time>
      </trkpt>
      <trkpt lat="40.772304" lon="-3.872600">
        <ele>1566.087</ele>
        <time>2021-07-30T12:15:30Z</time>
      </trkpt>
      <trkpt lat="40.772298" lon="-3.872624">
        <ele>1566.124</ele>
        <time>2021-07-30T12:15:36Z</time>
      </trkpt>
      <trkpt lat="40.772278" lon="-3.872624">
        <ele>1565.468</ele>
        <time>2021-07-30T12:15:41Z</time>
      </trkpt>
      <trkpt lat="40.772262" lon="-3.872638">
        <ele>1565.042</ele>
        <time>2021-07-30T12:15:45Z</time>
      </trkpt>
      <trkpt lat="40.772243" lon="-3.872640">
        <ele>1564.326</ele>
        <time>2021-07-30T12:15:53Z</time>
      </trkpt>
      <trkpt lat="40.772227" lon="-3.872665">
        <ele>1564.108</ele>
        <time>2021-07-30T12:15:58Z</time>
      </trkpt>
      <trkpt lat="40.772205" lon="-3.872673">
        <ele>1563.773</ele>
        <time>2021-07-30T12:16:01Z</time>
      </trkpt>
      <trkpt lat="40.772189" lon="-3.872692">
        <ele>1563.675</ele>
        <time>2021-07-30T12:16:05Z</time>
      </trkpt>
      <trkpt lat="40.772176" lon="-3.872723">
        <ele>1563.812</ele>
        <time>2021-07-30T12:16:34Z</time>
      </trkpt>
      <trkpt lat="40.772163" lon="-3.872743">
        <ele>1563.979</ele>
        <time>2021-07-30T12:16:36Z</time>
      </trkpt>
      <trkpt lat="40.772157" lon="-3.872777">
        <ele>1564.330</ele>
        <time>2021-07-30T12:16:39Z</time>
      </trkpt>
      <trkpt lat="40.772150" lon="-3.872810">
        <ele>1564.650</ele>
        <time>2021-07-30T12:16:42Z</time>
      </trkpt>
      <trkpt lat="40.772157" lon="-3.872838">
        <ele>1565.244</ele>
        <time>2021-07-30T12:16:45Z</time>
      </trkpt>
      <trkpt lat="40.772141" lon="-3.872853">
        <ele>1565.031</ele>
        <time>2021-07-30T12:16:50Z</time>
      </trkpt>
      <trkpt lat="40.772106" lon="-3.872857">
        <ele>1564.166</ele>
        <time>2021-07-30T12:16:56Z</time>
      </trkpt>
      <trkpt lat="40.772086" lon="-3.872852">
        <ele>1563.529</ele>
        <time>2021-07-30T12:16:57Z</time>
      </trkpt>
      <trkpt lat="40.772058" lon="-3.872863">
        <ele>1562.921</ele>
        <time>2021-07-30T12:16:59Z</time>
      </trkpt>
      <trkpt lat="40.772042" lon="-3.872887">
        <ele>1562.808</ele>
        <time>2021-07-30T12:17:01Z</time>
      </trkpt>
      <trkpt lat="40.772045" lon="-3.872912">
        <ele>1563.273</ele>
        <time>2021-07-30T12:17:03Z</time>
      </trkpt>
      <trkpt lat="40.772042" lon="-3.872937">
        <ele>1563.455</ele>
        <time>2021-07-30T12:17:05Z</time>
      </trkpt>
      <trkpt lat="40.772029" lon="-3.872964">
        <ele>1563.312</ele>
        <time>2021-07-30T12:17:07Z</time>
      </trkpt>
      <trkpt lat="40.772048" lon="-3.872967">
        <ele>1563.929</ele>
        <time>2021-07-30T12:17:11Z</time>
      </trkpt>
      <trkpt lat="40.772077" lon="-3.872988">
        <ele>1565.010</ele>
        <time>2021-07-30T12:17:19Z</time>
      </trkpt>
      <trkpt lat="40.772096" lon="-3.872992">
        <ele>1565.650</ele>
        <time>2021-07-30T12:17:28Z</time>
      </trkpt>
      <trkpt lat="40.772083" lon="-3.873016">
        <ele>1565.544</ele>
        <time>2021-07-30T12:18:04Z</time>
      </trkpt>
      <trkpt lat="40.772080" lon="-3.873042">
        <ele>1565.721</ele>
        <time>2021-07-30T12:18:06Z</time>
      </trkpt>
      <trkpt lat="40.772070" lon="-3.873075">
        <ele>1565.616</ele>
        <time>2021-07-30T12:18:09Z</time>
      </trkpt>
      <trkpt lat="40.772070" lon="-3.873103">
        <ele>1565.676</ele>
        <time>2021-07-30T12:18:13Z</time>
      </trkpt>
      <trkpt lat="40.772064" lon="-3.873135">
        <ele>1565.413</ele>
        <time>2021-07-30T12:18:16Z</time>
      </trkpt>
      <trkpt lat="40.772061" lon="-3.873165">
        <ele>1565.308</ele>
        <time>2021-07-30T12:18:19Z</time>
      </trkpt>
      <trkpt lat="40.772061" lon="-3.873190">
        <ele>1565.268</ele>
        <time>2021-07-30T12:18:21Z</time>
      </trkpt>
      <trkpt lat="40.772067" lon="-3.873220">
        <ele>1565.360</ele>
        <time>2021-07-30T12:18:24Z</time>
      </trkpt>
      <trkpt lat="40.772080" lon="-3.873250">
        <ele>1565.657</ele>
        <time>2021-07-30T12:18:27Z</time>
      </trkpt>
      <trkpt lat="40.772090" lon="-3.873272">
        <ele>1565.744</ele>
        <time>2021-07-30T12:18:29Z</time>
      </trkpt>
      <trkpt lat="40.772099" lon="-3.873293">
        <ele>1565.965</ele>
        <time>2021-07-30T12:18:32Z</time>
      </trkpt>
      <trkpt lat="40.772109" lon="-3.873320">
        <ele>1566.015</ele>
        <time>2021-07-30T12:18:35Z</time>
      </trkpt>
      <trkpt lat="40.772125" lon="-3.873332">
        <ele>1566.369</ele>
        <time>2021-07-30T12:18:37Z</time>
      </trkpt>
      <trkpt lat="40.772144" lon="-3.873344">
        <ele>1566.666</ele>
        <time>2021-07-30T12:18:40Z</time>
      </trkpt>
      <trkpt lat="40.772163" lon="-3.873356">
        <ele>1567.082</ele>
        <time>2021-07-30T12:18:43Z</time>
      </trkpt>
      <trkpt lat="40.772179" lon="-3.873370">
        <ele>1567.443</ele>
        <time>2021-07-30T12:18:45Z</time>
      </trkpt>
      <trkpt lat="40.772198" lon="-3.873385">
        <ele>1567.817</ele>
        <time>2021-07-30T12:18:47Z</time>
      </trkpt>
      <trkpt lat="40.772214" lon="-3.873398">
        <ele>1568.108</ele>
        <time>2021-07-30T12:18:49Z</time>
      </trkpt>
      <trkpt lat="40.772240" lon="-3.873422">
        <ele>1568.915</ele>
        <time>2021-07-30T12:18:52Z</time>
      </trkpt>
      <trkpt lat="40.772256" lon="-3.873443">
        <ele>1569.487</ele>
        <time>2021-07-30T12:18:55Z</time>
      </trkpt>
      <trkpt lat="40.772262" lon="-3.873470">
        <ele>1569.744</ele>
        <time>2021-07-30T12:18:57Z</time>
      </trkpt>
      <trkpt lat="40.772282" lon="-3.873488">
        <ele>1570.491</ele>
        <time>2021-07-30T12:19:01Z</time>
      </trkpt>
      <trkpt lat="40.772301" lon="-3.873506">
        <ele>1571.082</ele>
        <time>2021-07-30T12:19:04Z</time>
      </trkpt>
      <trkpt lat="40.772320" lon="-3.873505">
        <ele>1571.692</ele>
        <time>2021-07-30T12:19:06Z</time>
      </trkpt>
      <trkpt lat="40.772339" lon="-3.873508">
        <ele>1572.176</ele>
        <time>2021-07-30T12:19:09Z</time>
      </trkpt>
      <trkpt lat="40.772355" lon="-3.873523">
        <ele>1572.713</ele>
        <time>2021-07-30T12:19:11Z</time>
      </trkpt>
      <trkpt lat="40.772365" lon="-3.873550">
        <ele>1573.027</ele>
        <time>2021-07-30T12:19:15Z</time>
      </trkpt>
      <trkpt lat="40.772362" lon="-3.873526">
        <ele>1572.968</ele>
        <time>2021-07-30T12:19:21Z</time>
      </trkpt>
      <trkpt lat="40.772346" lon="-3.873500">
        <ele>1572.314</ele>
        <time>2021-07-30T12:19:26Z</time>
      </trkpt>
      <trkpt lat="40.772326" lon="-3.873506">
        <ele>1571.808</ele>
        <time>2021-07-30T12:19:28Z</time>
      </trkpt>
      <trkpt lat="40.772314" lon="-3.873533">
        <ele>1571.589</ele>
        <time>2021-07-30T12:19:30Z</time>
      </trkpt>
      <trkpt lat="40.772301" lon="-3.873558">
        <ele>1571.161</ele>
        <time>2021-07-30T12:19:33Z</time>
      </trkpt>
      <trkpt lat="40.772282" lon="-3.873573">
        <ele>1570.638</ele>
        <time>2021-07-30T12:19:36Z</time>
      </trkpt>
      <trkpt lat="40.772266" lon="-3.873585">
        <ele>1570.265</ele>
        <time>2021-07-30T12:19:38Z</time>
      </trkpt>
      <trkpt lat="40.772256" lon="-3.873617">
        <ele>1570.046</ele>
        <time>2021-07-30T12:19:40Z</time>
      </trkpt>
      <trkpt lat="40.772269" lon="-3.873640">
        <ele>1570.516</ele>
        <time>2021-07-30T12:19:43Z</time>
      </trkpt>
      <trkpt lat="40.772259" lon="-3.873670">
        <ele>1570.330</ele>
        <time>2021-07-30T12:19:46Z</time>
      </trkpt>
      <trkpt lat="40.772250" lon="-3.873700">
        <ele>1570.287</ele>
        <time>2021-07-30T12:19:48Z</time>
      </trkpt>
      <trkpt lat="40.772262" lon="-3.873720">
        <ele>1570.644</ele>
        <time>2021-07-30T12:19:51Z</time>
      </trkpt>
      <trkpt lat="40.772282" lon="-3.873730">
        <ele>1571.205</ele>
        <time>2021-07-30T12:19:54Z</time>
      </trkpt>
      <trkpt lat="40.772304" lon="-3.873738">
        <ele>1571.915</ele>
        <time>2021-07-30T12:19:57Z</time>
      </trkpt>
      <trkpt lat="40.772336" lon="-3.873728">
        <ele>1572.908</ele>
        <time>2021-07-30T12:19:59Z</time>
      </trkpt>
      <trkpt lat="40.772355" lon="-3.873718">
        <ele>1573.421</ele>
        <time>2021-07-30T12:20:01Z</time>
      </trkpt>
      <trkpt lat="40.772378" lon="-3.873723">
        <ele>1574.173</ele>
        <time>2021-07-30T12:20:04Z</time>
      </trkpt>
      <trkpt lat="40.772381" lon="-3.873748">
        <ele>1574.360</ele>
        <time>2021-07-30T12:20:09Z</time>
      </trkpt>
      <trkpt lat="40.772403" lon="-3.873750">
        <ele>1575.087</ele>
        <time>2021-07-30T12:20:18Z</time>
      </trkpt>
      <trkpt lat="40.772419" lon="-3.873762">
        <ele>1575.668</ele>
        <time>2021-07-30T12:20:21Z</time>
      </trkpt>
      <trkpt lat="40.772435" lon="-3.873777">
        <ele>1576.268</ele>
        <time>2021-07-30T12:20:26Z</time>
      </trkpt>
      <trkpt lat="40.772445" lon="-3.873753">
        <ele>1576.332</ele>
        <time>2021-07-30T12:20:29Z</time>
      </trkpt>
      <trkpt lat="40.772445" lon="-3.873782">
        <ele>1576.549</ele>
        <time>2021-07-30T12:20:36Z</time>
      </trkpt>
      <trkpt lat="40.772461" lon="-3.873808">
        <ele>1577.251</ele>
        <time>2021-07-30T12:20:40Z</time>
      </trkpt>
      <trkpt lat="40.772448" lon="-3.873837">
        <ele>1577.001</ele>
        <time>2021-07-30T12:20:43Z</time>
      </trkpt>
      <trkpt lat="40.772461" lon="-3.873858">
        <ele>1577.511</ele>
        <time>2021-07-30T12:20:49Z</time>
      </trkpt>
      <trkpt lat="40.772480" lon="-3.873875">
        <ele>1578.308</ele>
        <time>2021-07-30T12:20:52Z</time>
      </trkpt>
      <trkpt lat="40.772506" lon="-3.873888">
        <ele>1579.022</ele>
        <time>2021-07-30T12:20:54Z</time>
      </trkpt>
      <trkpt lat="40.772515" lon="-3.873865">
        <ele>1578.964</ele>
        <time>2021-07-30T12:21:00Z</time>
      </trkpt>
      <trkpt lat="40.772531" lon="-3.873852">
        <ele>1578.911</ele>
        <time>2021-07-30T12:21:02Z</time>
      </trkpt>
      <trkpt lat="40.772557" lon="-3.873832">
        <ele>1579.068</ele>
        <time>2021-07-30T12:21:04Z</time>
      </trkpt>
      <trkpt lat="40.772576" lon="-3.873832">
        <ele>1579.129</ele>
        <time>2021-07-30T12:21:07Z</time>
      </trkpt>
      <trkpt lat="40.772595" lon="-3.873832">
        <ele>1579.299</ele>
        <time>2021-07-30T12:21:11Z</time>
      </trkpt>
      <trkpt lat="40.772614" lon="-3.873838">
        <ele>1579.363</ele>
        <time>2021-07-30T12:21:13Z</time>
      </trkpt>
      <trkpt lat="40.772659" lon="-3.873860">
        <ele>1579.670</ele>
        <time>2021-07-30T12:21:20Z</time>
      </trkpt>
      <trkpt lat="40.772666" lon="-3.873883">
        <ele>1579.621</ele>
        <time>2021-07-30T12:21:22Z</time>
      </trkpt>
      <trkpt lat="40.772691" lon="-3.873875">
        <ele>1579.741</ele>
        <time>2021-07-30T12:21:26Z</time>
      </trkpt>
      <trkpt lat="40.772701" lon="-3.873853">
        <ele>1579.805</ele>
        <time>2021-07-30T12:21:40Z</time>
      </trkpt>
      <trkpt lat="40.772717" lon="-3.873880">
        <ele>1579.808</ele>
        <time>2021-07-30T12:21:53Z</time>
      </trkpt>
      <trkpt lat="40.772733" lon="-3.873895">
        <ele>1580.079</ele>
        <time>2021-07-30T12:21:55Z</time>
      </trkpt>
      <trkpt lat="40.772720" lon="-3.873915">
        <ele>1580.521</ele>
        <time>2021-07-30T12:22:02Z</time>
      </trkpt>
      <trkpt lat="40.772710" lon="-3.873942">
        <ele>1581.128</ele>
        <time>2021-07-30T12:22:05Z</time>
      </trkpt>
      <trkpt lat="40.772694" lon="-3.873963">
        <ele>1581.565</ele>
        <time>2021-07-30T12:22:08Z</time>
      </trkpt>
      <trkpt lat="40.772685" lon="-3.873990">
        <ele>1582.016</ele>
        <time>2021-07-30T12:22:12Z</time>
      </trkpt>
      <trkpt lat="40.772678" lon="-3.874024">
        <ele>1582.616</ele>
        <time>2021-07-30T12:22:15Z</time>
      </trkpt>
      <trkpt lat="40.772678" lon="-3.874063">
        <ele>1583.580</ele>
        <time>2021-07-30T12:22:18Z</time>
      </trkpt>
      <trkpt lat="40.772675" lon="-3.874092">
        <ele>1584.027</ele>
        <time>2021-07-30T12:22:20Z</time>
      </trkpt>
      <trkpt lat="40.772666" lon="-3.874120">
        <ele>1584.445</ele>
        <time>2021-07-30T12:22:22Z</time>
      </trkpt>
      <trkpt lat="40.772662" lon="-3.874148">
        <ele>1584.947</ele>
        <time>2021-07-30T12:22:24Z</time>
      </trkpt>
      <trkpt lat="40.772653" lon="-3.874172">
        <ele>1585.011</ele>
        <time>2021-07-30T12:22:27Z</time>
      </trkpt>
      <trkpt lat="40.772659" lon="-3.874196">
        <ele>1585.508</ele>
        <time>2021-07-30T12:22:29Z</time>
      </trkpt>
      <trkpt lat="40.772672" lon="-3.874230">
        <ele>1586.491</ele>
        <time>2021-07-30T12:22:36Z</time>
      </trkpt>
      <trkpt lat="40.772698" lon="-3.874352">
        <ele>1589.493</ele>
        <time>2021-07-30T12:22:48Z</time>
      </trkpt>
      <trkpt lat="40.772672" lon="-3.874354">
        <ele>1588.080</ele>
        <time>2021-07-30T12:22:50Z</time>
      </trkpt>
      <trkpt lat="40.772653" lon="-3.874365">
        <ele>1587.157</ele>
        <time>2021-07-30T12:22:51Z</time>
      </trkpt>
      <trkpt lat="40.772634" lon="-3.874378">
        <ele>1586.118</ele>
        <time>2021-07-30T12:22:53Z</time>
      </trkpt>
      <trkpt lat="40.772646" lon="-3.874362">
        <ele>1586.718</ele>
        <time>2021-07-30T12:23:16Z</time>
      </trkpt>
      <trkpt lat="40.772682" lon="-3.874394">
        <ele>1589.182</ele>
        <time>2021-07-30T12:24:54Z</time>
      </trkpt>
      <trkpt lat="40.772701" lon="-3.874384">
        <ele>1590.029</ele>
        <time>2021-07-30T12:24:59Z</time>
      </trkpt>
      <trkpt lat="40.772682" lon="-3.874382">
        <ele>1588.982</ele>
        <time>2021-07-30T12:25:22Z</time>
      </trkpt>
      <trkpt lat="40.772678" lon="-3.874407">
        <ele>1589.043</ele>
        <time>2021-07-30T12:25:27Z</time>
      </trkpt>
      <trkpt lat="40.772666" lon="-3.874387">
        <ele>1588.117</ele>
        <time>2021-07-30T12:26:32Z</time>
      </trkpt>
      <trkpt lat="40.772672" lon="-3.874350">
        <ele>1587.908</ele>
        <time>2021-07-30T12:26:34Z</time>
      </trkpt>
      <trkpt lat="40.772666" lon="-3.874318">
        <ele>1587.215</ele>
        <time>2021-07-30T12:26:36Z</time>
      </trkpt>
      <trkpt lat="40.772666" lon="-3.874287">
        <ele>1586.877</ele>
        <time>2021-07-30T12:26:38Z</time>
      </trkpt>
      <trkpt lat="40.772646" lon="-3.874260">
        <ele>1585.684</ele>
        <time>2021-07-30T12:26:40Z</time>
      </trkpt>
      <trkpt lat="40.772611" lon="-3.874263">
        <ele>1584.281</ele>
        <time>2021-07-30T12:26:42Z</time>
      </trkpt>
      <trkpt lat="40.772592" lon="-3.874275">
        <ele>1583.472</ele>
        <time>2021-07-30T12:26:43Z</time>
      </trkpt>
      <trkpt lat="40.772566" lon="-3.874288">
        <ele>1582.262</ele>
        <time>2021-07-30T12:27:09Z</time>
      </trkpt>
      <trkpt lat="40.772576" lon="-3.874423">
        <ele>1582.946</ele>
        <time>2021-07-30T12:27:23Z</time>
      </trkpt>
      <trkpt lat="40.772541" lon="-3.874420">
        <ele>1580.773</ele>
        <time>2021-07-30T12:27:25Z</time>
      </trkpt>
      <trkpt lat="40.772557" lon="-3.874402">
        <ele>1581.743</ele>
        <time>2021-07-30T12:27:28Z</time>
      </trkpt>
      <trkpt lat="40.772586" lon="-3.874404">
        <ele>1583.564</ele>
        <time>2021-07-30T12:27:32Z</time>
      </trkpt>
      <trkpt lat="40.772614" lon="-3.874415">
        <ele>1585.210</ele>
        <time>2021-07-30T12:27:36Z</time>
      </trkpt>
      <trkpt lat="40.772634" lon="-3.874413">
        <ele>1586.408</ele>
        <time>2021-07-30T12:27:41Z</time>
      </trkpt>
      <trkpt lat="40.772653" lon="-3.874404">
        <ele>1587.521</ele>
        <time>2021-07-30T12:27:54Z</time>
      </trkpt>
      <trkpt lat="40.772643" lon="-3.874382">
        <ele>1586.733</ele>
        <time>2021-07-30T12:28:01Z</time>
      </trkpt>
      <trkpt lat="40.772643" lon="-3.874357">
        <ele>1586.420</ele>
        <time>2021-07-30T12:28:02Z</time>
      </trkpt>
      <trkpt lat="40.772653" lon="-3.874328">
        <ele>1586.717</ele>
        <time>2021-07-30T12:28:04Z</time>
      </trkpt>
      <trkpt lat="40.772653" lon="-3.874297">
        <ele>1586.388</ele>
        <time>2021-07-30T12:28:06Z</time>
      </trkpt>
      <trkpt lat="40.772637" lon="-3.874277">
        <ele>1585.448</ele>
        <time>2021-07-30T12:28:09Z</time>
      </trkpt>
      <trkpt lat="40.772621" lon="-3.874265">
        <ele>1584.672</ele>
        <time>2021-07-30T12:28:10Z</time>
      </trkpt>
      <trkpt lat="40.772598" lon="-3.874267">
        <ele>1583.679</ele>
        <time>2021-07-30T12:28:13Z</time>
      </trkpt>
      <trkpt lat="40.772576" lon="-3.874282">
        <ele>1582.789</ele>
        <time>2021-07-30T12:28:15Z</time>
      </trkpt>
      <trkpt lat="40.772566" lon="-3.874310">
        <ele>1582.206</ele>
        <time>2021-07-30T12:28:18Z</time>
      </trkpt>
      <trkpt lat="40.772554" lon="-3.874333">
        <ele>1581.626</ele>
        <time>2021-07-30T12:28:21Z</time>
      </trkpt>
      <trkpt lat="40.772560" lon="-3.874358">
        <ele>1581.908</ele>
        <time>2021-07-30T12:28:23Z</time>
      </trkpt>
      <trkpt lat="40.772547" lon="-3.874377">
        <ele>1581.235</ele>
        <time>2021-07-30T12:28:25Z</time>
      </trkpt>
      <trkpt lat="40.772541" lon="-3.874408">
        <ele>1580.747</ele>
        <time>2021-07-30T12:28:28Z</time>
      </trkpt>
      <trkpt lat="40.772522" lon="-3.874428">
        <ele>1579.534</ele>
        <time>2021-07-30T12:28:32Z</time>
      </trkpt>
      <trkpt lat="40.772506" lon="-3.874445">
        <ele>1578.431</ele>
        <time>2021-07-30T12:28:34Z</time>
      </trkpt>
      <trkpt lat="40.772493" lon="-3.874472">
        <ele>1577.722</ele>
        <time>2021-07-30T12:28:36Z</time>
      </trkpt>
      <trkpt lat="40.772467" lon="-3.874492">
        <ele>1577.242</ele>
        <time>2021-07-30T12:28:38Z</time>
      </trkpt>
      <trkpt lat="40.772445" lon="-3.874505">
        <ele>1576.926</ele>
        <time>2021-07-30T12:28:40Z</time>
      </trkpt>
      <trkpt lat="40.772419" lon="-3.874518">
        <ele>1576.513</ele>
        <time>2021-07-30T12:28:42Z</time>
      </trkpt>
      <trkpt lat="40.772397" lon="-3.874517">
        <ele>1576.473</ele>
        <time>2021-07-30T12:28:47Z</time>
      </trkpt>
      <trkpt lat="40.772378" lon="-3.874528">
        <ele>1576.185</ele>
        <time>2021-07-30T12:28:49Z</time>
      </trkpt>
      <trkpt lat="40.772381" lon="-3.874560">
        <ele>1575.713</ele>
        <time>2021-07-30T12:28:53Z</time>
      </trkpt>
      <trkpt lat="40.772387" lon="-3.874585">
        <ele>1575.508</ele>
        <time>2021-07-30T12:28:58Z</time>
      </trkpt>
      <trkpt lat="40.772442" lon="-3.874775">
        <ele>1573.384</ele>
        <time>2021-07-30T12:29:34Z</time>
      </trkpt>
      <trkpt lat="40.772365" lon="-3.874760">
        <ele>1572.556</ele>
        <time>2021-07-30T12:29:35Z</time>
      </trkpt>
      <trkpt lat="40.772400" lon="-3.874772">
        <ele>1572.743</ele>
        <time>2021-07-30T12:29:36Z</time>
      </trkpt>
      <trkpt lat="40.772400" lon="-3.874745">
        <ele>1573.490</ele>
        <time>2021-07-30T12:29:37Z</time>
      </trkpt>
      <trkpt lat="40.772365" lon="-3.874730">
        <ele>1573.361</ele>
        <time>2021-07-30T12:29:39Z</time>
      </trkpt>
      <trkpt lat="40.772358" lon="-3.874705">
        <ele>1573.751</ele>
        <time>2021-07-30T12:29:40Z</time>
      </trkpt>
      <trkpt lat="40.772314" lon="-3.874673">
        <ele>1573.665</ele>
        <time>2021-07-30T12:29:41Z</time>
      </trkpt>
      <trkpt lat="40.772269" lon="-3.874655">
        <ele>1573.462</ele>
        <time>2021-07-30T12:29:42Z</time>
      </trkpt>
      <trkpt lat="40.772288" lon="-3.874682">
        <ele>1573.334</ele>
        <time>2021-07-30T12:29:43Z</time>
      </trkpt>
      <trkpt lat="40.772314" lon="-3.874704">
        <ele>1573.255</ele>
        <time>2021-07-30T12:29:45Z</time>
      </trkpt>
      <trkpt lat="40.772294" lon="-3.874724">
        <ele>1572.710</ele>
        <time>2021-07-30T12:29:47Z</time>
      </trkpt>
      <trkpt lat="40.772282" lon="-3.874744">
        <ele>1571.808</ele>
        <time>2021-07-30T12:29:49Z</time>
      </trkpt>
      <trkpt lat="40.772282" lon="-3.874780">
        <ele>1570.580</ele>
        <time>2021-07-30T12:29:51Z</time>
      </trkpt>
      <trkpt lat="40.772282" lon="-3.874807">
        <ele>1569.512</ele>
        <time>2021-07-30T12:29:56Z</time>
      </trkpt>
      <trkpt lat="40.772246" lon="-3.874823">
        <ele>1568.219</ele>
        <time>2021-07-30T12:29:59Z</time>
      </trkpt>
      <trkpt lat="40.772224" lon="-3.874825">
        <ele>1567.636</ele>
        <time>2021-07-30T12:30:00Z</time>
      </trkpt>
      <trkpt lat="40.772205" lon="-3.874828">
        <ele>1568.187</ele>
        <time>2021-07-30T12:30:01Z</time>
      </trkpt>
      <trkpt lat="40.772218" lon="-3.874852">
        <ele>1566.687</ele>
        <time>2021-07-30T12:30:05Z</time>
      </trkpt>
      <trkpt lat="40.772237" lon="-3.874857">
        <ele>1566.591</ele>
        <time>2021-07-30T12:30:08Z</time>
      </trkpt>
      <trkpt lat="40.772234" lon="-3.874882">
        <ele>1565.488</ele>
        <time>2021-07-30T12:30:14Z</time>
      </trkpt>
      <trkpt lat="40.772218" lon="-3.874900">
        <ele>1564.569</ele>
        <time>2021-07-30T12:30:22Z</time>
      </trkpt>
      <trkpt lat="40.772202" lon="-3.874918">
        <ele>1564.704</ele>
        <time>2021-07-30T12:30:24Z</time>
      </trkpt>
      <trkpt lat="40.772218" lon="-3.874943">
        <ele>1562.724</ele>
        <time>2021-07-30T12:30:29Z</time>
      </trkpt>
      <trkpt lat="40.772195" lon="-3.874948">
        <ele>1563.908</ele>
        <time>2021-07-30T12:30:34Z</time>
      </trkpt>
      <trkpt lat="40.772195" lon="-3.874978">
        <ele>1562.853</ele>
        <time>2021-07-30T12:30:52Z</time>
      </trkpt>
      <trkpt lat="40.772195" lon="-3.875008">
        <ele>1561.665</ele>
        <time>2021-07-30T12:30:55Z</time>
      </trkpt>
      <trkpt lat="40.772176" lon="-3.875020">
        <ele>1562.432</ele>
        <time>2021-07-30T12:30:58Z</time>
      </trkpt>
      <trkpt lat="40.772150" lon="-3.875013">
        <ele>1564.749</ele>
        <time>2021-07-30T12:31:00Z</time>
      </trkpt>
      <trkpt lat="40.772128" lon="-3.875040">
        <ele>1565.480</ele>
        <time>2021-07-30T12:31:04Z</time>
      </trkpt>
      <trkpt lat="40.772138" lon="-3.875064">
        <ele>1563.740</ele>
        <time>2021-07-30T12:31:06Z</time>
      </trkpt>
      <trkpt lat="40.772176" lon="-3.875052">
        <ele>1561.024</ele>
        <time>2021-07-30T12:31:21Z</time>
      </trkpt>
      <trkpt lat="40.772182" lon="-3.875090">
        <ele>1558.761</ele>
        <time>2021-07-30T12:31:25Z</time>
      </trkpt>
      <trkpt lat="40.772176" lon="-3.875113">
        <ele>1558.274</ele>
        <time>2021-07-30T12:31:27Z</time>
      </trkpt>
      <trkpt lat="40.772176" lon="-3.875140">
        <ele>1557.056</ele>
        <time>2021-07-30T12:31:42Z</time>
      </trkpt>
      <trkpt lat="40.772195" lon="-3.875145">
        <ele>1554.921</ele>
        <time>2021-07-30T12:31:44Z</time>
      </trkpt>
      <trkpt lat="40.772214" lon="-3.875145">
        <ele>1553.008</ele>
        <time>2021-07-30T12:31:47Z</time>
      </trkpt>
      <trkpt lat="40.772227" lon="-3.875165">
        <ele>1551.394</ele>
        <time>2021-07-30T12:31:54Z</time>
      </trkpt>
      <trkpt lat="40.772205" lon="-3.875160">
        <ele>1553.156</ele>
        <time>2021-07-30T12:32:05Z</time>
      </trkpt>
      <trkpt lat="40.772186" lon="-3.875168">
        <ele>1554.753</ele>
        <time>2021-07-30T12:32:07Z</time>
      </trkpt>
      <trkpt lat="40.772163" lon="-3.875183">
        <ele>1556.530</ele>
        <time>2021-07-30T12:32:09Z</time>
      </trkpt>
      <trkpt lat="40.772150" lon="-3.875207">
        <ele>1556.941</ele>
        <time>2021-07-30T12:32:11Z</time>
      </trkpt>
      <trkpt lat="40.772141" lon="-3.875230">
        <ele>1557.181</ele>
        <time>2021-07-30T12:32:16Z</time>
      </trkpt>
      <trkpt lat="40.772125" lon="-3.875242">
        <ele>1558.555</ele>
        <time>2021-07-30T12:32:21Z</time>
      </trkpt>
      <trkpt lat="40.772122" lon="-3.875273">
        <ele>1557.892</ele>
        <time>2021-07-30T12:32:25Z</time>
      </trkpt>
      <trkpt lat="40.772109" lon="-3.875293">
        <ele>1558.061</ele>
        <time>2021-07-30T12:32:27Z</time>
      </trkpt>
      <trkpt lat="40.772099" lon="-3.875318">
        <ele>1556.921</ele>
        <time>2021-07-30T12:32:33Z</time>
      </trkpt>
      <trkpt lat="40.772102" lon="-3.875353">
        <ele>1553.513</ele>
        <time>2021-07-30T12:32:40Z</time>
      </trkpt>
      <trkpt lat="40.772106" lon="-3.875377">
        <ele>1551.008</ele>
        <time>2021-07-30T12:32:42Z</time>
      </trkpt>
      <trkpt lat="40.772099" lon="-3.875402">
        <ele>1549.423</ele>
        <time>2021-07-30T12:32:45Z</time>
      </trkpt>
      <trkpt lat="40.772099" lon="-3.875427">
        <ele>1547.165</ele>
        <time>2021-07-30T12:32:51Z</time>
      </trkpt>
      <trkpt lat="40.772080" lon="-3.875427">
        <ele>1548.542</ele>
        <time>2021-07-30T12:32:57Z</time>
      </trkpt>
      <trkpt lat="40.772064" lon="-3.875452">
        <ele>1547.139</ele>
        <time>2021-07-30T12:33:06Z</time>
      </trkpt>
      <trkpt lat="40.772067" lon="-3.875487">
        <ele>1543.430</ele>
        <time>2021-07-30T12:33:11Z</time>
      </trkpt>
      <trkpt lat="40.772090" lon="-3.875518">
        <ele>1539.340</ele>
        <time>2021-07-30T12:33:24Z</time>
      </trkpt>
      <trkpt lat="40.772109" lon="-3.875530">
        <ele>1537.584</ele>
        <time>2021-07-30T12:33:28Z</time>
      </trkpt>
      <trkpt lat="40.772128" lon="-3.875542">
        <ele>1535.871</ele>
        <time>2021-07-30T12:33:31Z</time>
      </trkpt>
      <trkpt lat="40.772106" lon="-3.875550">
        <ele>1535.855</ele>
        <time>2021-07-30T12:33:35Z</time>
      </trkpt>
      <trkpt lat="40.772080" lon="-3.875547">
        <ele>1536.907</ele>
        <time>2021-07-30T12:33:37Z</time>
      </trkpt>
      <trkpt lat="40.772058" lon="-3.875537">
        <ele>1538.717</ele>
        <time>2021-07-30T12:33:39Z</time>
      </trkpt>
      <trkpt lat="40.772042" lon="-3.875552">
        <ele>1537.608</ele>
        <time>2021-07-30T12:33:42Z</time>
      </trkpt>
      <trkpt lat="40.772019" lon="-3.875568">
        <ele>1537.062</ele>
        <time>2021-07-30T12:33:45Z</time>
      </trkpt>
      <trkpt lat="40.772006" lon="-3.875585">
        <ele>1536.214</ele>
        <time>2021-07-30T12:33:50Z</time>
      </trkpt>
      <trkpt lat="40.772026" lon="-3.875572">
        <ele>1536.511</ele>
        <time>2021-07-30T12:34:03Z</time>
      </trkpt>
      <trkpt lat="40.772045" lon="-3.875558">
        <ele>1536.918</ele>
        <time>2021-07-30T12:34:06Z</time>
      </trkpt>
      <trkpt lat="40.772019" lon="-3.875552">
        <ele>1538.319</ele>
        <time>2021-07-30T12:34:09Z</time>
      </trkpt>
      <trkpt lat="40.771997" lon="-3.875582">
        <ele>1536.629</ele>
        <time>2021-07-30T12:34:11Z</time>
      </trkpt>
      <trkpt lat="40.771981" lon="-3.875596">
        <ele>1536.053</ele>
        <time>2021-07-30T12:34:14Z</time>
      </trkpt>
      <trkpt lat="40.771965" lon="-3.875584">
        <ele>1537.310</ele>
        <time>2021-07-30T12:34:15Z</time>
      </trkpt>
      <trkpt lat="40.771946" lon="-3.875588">
        <ele>1537.555</ele>
        <time>2021-07-30T12:34:18Z</time>
      </trkpt>
      <trkpt lat="40.771930" lon="-3.875600">
        <ele>1537.307</ele>
        <time>2021-07-30T12:34:20Z</time>
      </trkpt>
      <trkpt lat="40.771923" lon="-3.875625">
        <ele>1535.817</ele>
        <time>2021-07-30T12:34:30Z</time>
      </trkpt>
      <trkpt lat="40.771939" lon="-3.875648">
        <ele>1533.308</ele>
        <time>2021-07-30T12:34:33Z</time>
      </trkpt>
      <trkpt lat="40.771920" lon="-3.875646">
        <ele>1534.462</ele>
        <time>2021-07-30T12:34:59Z</time>
      </trkpt>
      <trkpt lat="40.771901" lon="-3.875662">
        <ele>1534.314</ele>
        <time>2021-07-30T12:35:03Z</time>
      </trkpt>
      <trkpt lat="40.771882" lon="-3.875662">
        <ele>1535.341</ele>
        <time>2021-07-30T12:35:06Z</time>
      </trkpt>
      <trkpt lat="40.771901" lon="-3.875678">
        <ele>1533.288</ele>
        <time>2021-07-30T12:35:09Z</time>
      </trkpt>
      <trkpt lat="40.771898" lon="-3.875703">
        <ele>1531.699</ele>
        <time>2021-07-30T12:35:11Z</time>
      </trkpt>
      <trkpt lat="40.771901" lon="-3.875733">
        <ele>1529.329</ele>
        <time>2021-07-30T12:35:15Z</time>
      </trkpt>
      <trkpt lat="40.771910" lon="-3.875758">
        <ele>1526.983</ele>
        <time>2021-07-30T12:35:18Z</time>
      </trkpt>
      <trkpt lat="40.771907" lon="-3.875788">
        <ele>1524.990</ele>
        <time>2021-07-30T12:35:22Z</time>
      </trkpt>
      <trkpt lat="40.771888" lon="-3.875787">
        <ele>1526.325</ele>
        <time>2021-07-30T12:35:34Z</time>
      </trkpt>
      <trkpt lat="40.771869" lon="-3.875780">
        <ele>1528.026</ele>
        <time>2021-07-30T12:35:37Z</time>
      </trkpt>
      <trkpt lat="40.771846" lon="-3.875784">
        <ele>1529.308</ele>
        <time>2021-07-30T12:35:41Z</time>
      </trkpt>
      <trkpt lat="40.771827" lon="-3.875794">
        <ele>1530.008</ele>
        <time>2021-07-30T12:35:48Z</time>
      </trkpt>
      <trkpt lat="40.771837" lon="-3.875816">
        <ele>1527.979</ele>
        <time>2021-07-30T12:35:52Z</time>
      </trkpt>
      <trkpt lat="40.771818" lon="-3.875823">
        <ele>1528.841</ele>
        <time>2021-07-30T12:35:55Z</time>
      </trkpt>
      <trkpt lat="40.771786" lon="-3.875815">
        <ele>1531.558</ele>
        <time>2021-07-30T12:35:57Z</time>
      </trkpt>
      <trkpt lat="40.771808" lon="-3.875820">
        <ele>1529.615</ele>
        <time>2021-07-30T12:36:01Z</time>
      </trkpt>
      <trkpt lat="40.771811" lon="-3.875794">
        <ele>1531.066</ele>
        <time>2021-07-30T12:36:04Z</time>
      </trkpt>
      <trkpt lat="40.771792" lon="-3.875777">
        <ele>1533.326</ele>
        <time>2021-07-30T12:36:07Z</time>
      </trkpt>
      <trkpt lat="40.771766" lon="-3.875770">
        <ele>1535.510</ele>
        <time>2021-07-30T12:36:09Z</time>
      </trkpt>
      <trkpt lat="40.771741" lon="-3.875762">
        <ele>1537.587</ele>
        <time>2021-07-30T12:36:11Z</time>
      </trkpt>
      <trkpt lat="40.771712" lon="-3.875768">
        <ele>1539.188</ele>
        <time>2021-07-30T12:36:13Z</time>
      </trkpt>
      <trkpt lat="40.771718" lon="-3.875804">
        <ele>1536.824</ele>
        <time>2021-07-30T12:36:15Z</time>
      </trkpt>
      <trkpt lat="40.771632" lon="-3.875870">
        <ele>1536.326</ele>
        <time>2021-07-30T12:36:25Z</time>
      </trkpt>
      <trkpt lat="40.771590" lon="-3.875968">
        <ele>1532.608</ele>
        <time>2021-07-30T12:37:16Z</time>
      </trkpt>
      <trkpt lat="40.771610" lon="-3.875983">
        <ele>1532.945</ele>
        <time>2021-07-30T12:37:20Z</time>
      </trkpt>
      <trkpt lat="40.771610" lon="-3.876015">
        <ele>1532.377</ele>
        <time>2021-07-30T12:37:26Z</time>
      </trkpt>
      <trkpt lat="40.771600" lon="-3.876040">
        <ele>1531.664</ele>
        <time>2021-07-30T12:37:31Z</time>
      </trkpt>
      <trkpt lat="40.771584" lon="-3.876060">
        <ele>1530.981</ele>
        <time>2021-07-30T12:37:34Z</time>
      </trkpt>
      <trkpt lat="40.771568" lon="-3.876075">
        <ele>1530.482</ele>
        <time>2021-07-30T12:37:41Z</time>
      </trkpt>
      <trkpt lat="40.771546" lon="-3.876088">
        <ele>1529.972</ele>
        <time>2021-07-30T12:37:44Z</time>
      </trkpt>
      <trkpt lat="40.771530" lon="-3.876102">
        <ele>1529.636</ele>
        <time>2021-07-30T12:37:48Z</time>
      </trkpt>
      <trkpt lat="40.771510" lon="-3.876097">
        <ele>1529.433</ele>
        <time>2021-07-30T12:38:00Z</time>
      </trkpt>
      <trkpt lat="40.771542" lon="-3.876098">
        <ele>1529.878</ele>
        <time>2021-07-30T12:39:39Z</time>
      </trkpt>
      <trkpt lat="40.771533" lon="-3.876132">
        <ele>1528.933</ele>
        <time>2021-07-30T12:39:41Z</time>
      </trkpt>
      <trkpt lat="40.771526" lon="-3.876160">
        <ele>1528.226</ele>
        <time>2021-07-30T12:39:44Z</time>
      </trkpt>
      <trkpt lat="40.771504" lon="-3.876178">
        <ele>1528.208</ele>
        <time>2021-07-30T12:40:59Z</time>
      </trkpt>
      <trkpt lat="40.771491" lon="-3.876210">
        <ele>1528.224</ele>
        <time>2021-07-30T12:41:01Z</time>
      </trkpt>
      <trkpt lat="40.771482" lon="-3.876240">
        <ele>1528.486</ele>
        <time>2021-07-30T12:41:03Z</time>
      </trkpt>
      <trkpt lat="40.771472" lon="-3.876268">
        <ele>1528.973</ele>
        <time>2021-07-30T12:41:05Z</time>
      </trkpt>
      <trkpt lat="40.771475" lon="-3.876243">
        <ele>1528.720</ele>
        <time>2021-07-30T12:41:12Z</time>
      </trkpt>
      <trkpt lat="40.771485" lon="-3.876218">
        <ele>1528.361</ele>
        <time>2021-07-30T12:41:15Z</time>
      </trkpt>
      <trkpt lat="40.771504" lon="-3.876207">
        <ele>1527.751</ele>
        <time>2021-07-30T12:41:19Z</time>
      </trkpt>
      <trkpt lat="40.771523" lon="-3.876228">
        <ele>1526.615</ele>
        <time>2021-07-30T12:49:31Z</time>
      </trkpt>
      <trkpt lat="40.771504" lon="-3.876258">
        <ele>1527.072</ele>
        <time>2021-07-30T12:49:33Z</time>
      </trkpt>
      <trkpt lat="40.771488" lon="-3.876288">
        <ele>1527.779</ele>
        <time>2021-07-30T12:49:35Z</time>
      </trkpt>
      <trkpt lat="40.771475" lon="-3.876316">
        <ele>1528.605</ele>
        <time>2021-07-30T12:49:37Z</time>
      </trkpt>
      <trkpt lat="40.771453" lon="-3.876318">
        <ele>1530.525</ele>
        <time>2021-07-30T12:49:41Z</time>
      </trkpt>
      <trkpt lat="40.771450" lon="-3.876345">
        <ele>1531.108</ele>
        <time>2021-07-30T12:50:20Z</time>
      </trkpt>
      <trkpt lat="40.771472" lon="-3.876335">
        <ele>1528.884</ele>
        <time>2021-07-30T12:51:00Z</time>
      </trkpt>
      <trkpt lat="40.771491" lon="-3.876308">
        <ele>1527.386</ele>
        <time>2021-07-30T12:51:02Z</time>
      </trkpt>
      <trkpt lat="40.771507" lon="-3.876285">
        <ele>1526.323</ele>
        <time>2021-07-30T12:51:04Z</time>
      </trkpt>
      <trkpt lat="40.771530" lon="-3.876217">
        <ele>1526.660</ele>
        <time>2021-07-30T13:05:16Z</time>
      </trkpt>
      <trkpt lat="40.771539" lon="-3.876190">
        <ele>1527.121</ele>
        <time>2021-07-30T13:10:48Z</time>
      </trkpt>
      <trkpt lat="40.771546" lon="-3.876160">
        <ele>1528.041</ele>
        <time>2021-07-30T13:10:52Z</time>
      </trkpt>
      <trkpt lat="40.771562" lon="-3.876147">
        <ele>1528.355</ele>
        <time>2021-07-30T13:10:55Z</time>
      </trkpt>
      <trkpt lat="40.771565" lon="-3.876122">
        <ele>1529.462</ele>
        <time>2021-07-30T13:10:58Z</time>
      </trkpt>
      <trkpt lat="40.771565" lon="-3.876093">
        <ele>1530.173</ele>
        <time>2021-07-30T13:11:01Z</time>
      </trkpt>
      <trkpt lat="40.771584" lon="-3.876080">
        <ele>1530.685</ele>
        <time>2021-07-30T13:11:07Z</time>
      </trkpt>
      <trkpt lat="40.771600" lon="-3.876065">
        <ele>1531.113</ele>
        <time>2021-07-30T13:11:10Z</time>
      </trkpt>
      <trkpt lat="40.771619" lon="-3.876063">
        <ele>1531.508</ele>
        <time>2021-07-30T13:11:15Z</time>
      </trkpt>
      <trkpt lat="40.771638" lon="-3.876043">
        <ele>1532.374</ele>
        <time>2021-07-30T13:11:19Z</time>
      </trkpt>
      <trkpt lat="40.771658" lon="-3.876027">
        <ele>1533.296</ele>
        <time>2021-07-30T13:11:23Z</time>
      </trkpt>
      <trkpt lat="40.771658" lon="-3.875993">
        <ele>1534.133</ele>
        <time>2021-07-30T13:11:26Z</time>
      </trkpt>
      <trkpt lat="40.771674" lon="-3.875980">
        <ele>1534.230</ele>
        <time>2021-07-30T13:11:34Z</time>
      </trkpt>
      <trkpt lat="40.771699" lon="-3.875980">
        <ele>1532.251</ele>
        <time>2021-07-30T13:11:41Z</time>
      </trkpt>
      <trkpt lat="40.771722" lon="-3.875980">
        <ele>1530.461</ele>
        <time>2021-07-30T13:12:15Z</time>
      </trkpt>
      <trkpt lat="40.771738" lon="-3.875953">
        <ele>1530.025</ele>
        <time>2021-07-30T13:12:20Z</time>
      </trkpt>
      <trkpt lat="40.771709" lon="-3.875952">
        <ele>1532.372</ele>
        <time>2021-07-30T13:12:31Z</time>
      </trkpt>
      <trkpt lat="40.771693" lon="-3.875932">
        <ele>1534.171</ele>
        <time>2021-07-30T13:12:40Z</time>
      </trkpt>
      <trkpt lat="40.771712" lon="-3.875922">
        <ele>1533.041</ele>
        <time>2021-07-30T13:12:45Z</time>
      </trkpt>
      <trkpt lat="40.771725" lon="-3.875902">
        <ele>1532.615</ele>
        <time>2021-07-30T13:12:51Z</time>
      </trkpt>
      <trkpt lat="40.771773" lon="-3.875900">
        <ele>1529.108</ele>
        <time>2021-07-30T13:12:53Z</time>
      </trkpt>
      <trkpt lat="40.771792" lon="-3.875897">
        <ele>1527.774</ele>
        <time>2021-07-30T13:12:54Z</time>
      </trkpt>
      <trkpt lat="40.771770" lon="-3.875898">
        <ele>1529.476</ele>
        <time>2021-07-30T13:12:56Z</time>
      </trkpt>
      <trkpt lat="40.771786" lon="-3.875910">
        <ele>1527.793</ele>
        <time>2021-07-30T13:13:02Z</time>
      </trkpt>
      <trkpt lat="40.771805" lon="-3.875910">
        <ele>1526.390</ele>
        <time>2021-07-30T13:13:04Z</time>
      </trkpt>
      <trkpt lat="40.771830" lon="-3.875907">
        <ele>1524.521</ele>
        <time>2021-07-30T13:13:06Z</time>
      </trkpt>
      <trkpt lat="40.771862" lon="-3.875910">
        <ele>1522.091</ele>
        <time>2021-07-30T13:13:08Z</time>
      </trkpt>
      <trkpt lat="40.771898" lon="-3.875908">
        <ele>1519.345</ele>
        <time>2021-07-30T13:13:10Z</time>
      </trkpt>
      <trkpt lat="40.771917" lon="-3.875918">
        <ele>1517.432</ele>
        <time>2021-07-30T13:13:12Z</time>
      </trkpt>
      <trkpt lat="40.771898" lon="-3.875930">
        <ele>1518.464</ele>
        <time>2021-07-30T13:13:17Z</time>
      </trkpt>
      <trkpt lat="40.771885" lon="-3.875952">
        <ele>1518.506</ele>
        <time>2021-07-30T13:13:22Z</time>
      </trkpt>
      <trkpt lat="40.771904" lon="-3.875944">
        <ele>1517.416</ele>
        <time>2021-07-30T13:13:31Z</time>
      </trkpt>
      <trkpt lat="40.771930" lon="-3.875945">
        <ele>1515.308</ele>
        <time>2021-07-30T13:13:35Z</time>
      </trkpt>
      <trkpt lat="40.771965" lon="-3.875934">
        <ele>1514.713</ele>
        <time>2021-07-30T13:13:39Z</time>
      </trkpt>
      <trkpt lat="40.771946" lon="-3.875923">
        <ele>1515.145</ele>
        <time>2021-07-30T13:13:41Z</time>
      </trkpt>
      <trkpt lat="40.771926" lon="-3.875920">
        <ele>1516.772</ele>
        <time>2021-07-30T13:13:43Z</time>
      </trkpt>
      <trkpt lat="40.771946" lon="-3.875922">
        <ele>1515.289</ele>
        <time>2021-07-30T13:13:45Z</time>
      </trkpt>
      <trkpt lat="40.771965" lon="-3.875918">
        <ele>1515.420</ele>
        <time>2021-07-30T13:13:50Z</time>
      </trkpt>
      <trkpt lat="40.771984" lon="-3.875928">
        <ele>1515.110</ele>
        <time>2021-07-30T13:13:54Z</time>
      </trkpt>
      <trkpt lat="40.772003" lon="-3.875925">
        <ele>1515.224</ele>
        <time>2021-07-30T13:14:00Z</time>
      </trkpt>
      <trkpt lat="40.772022" lon="-3.875917">
        <ele>1515.631</ele>
        <time>2021-07-30T13:14:07Z</time>
      </trkpt>
      <trkpt lat="40.772045" lon="-3.875925">
        <ele>1515.467</ele>
        <time>2021-07-30T13:14:09Z</time>
      </trkpt>
      <trkpt lat="40.772029" lon="-3.875902">
        <ele>1516.381</ele>
        <time>2021-07-30T13:14:15Z</time>
      </trkpt>
      <trkpt lat="40.772019" lon="-3.875877">
        <ele>1517.219</ele>
        <time>2021-07-30T13:14:21Z</time>
      </trkpt>
      <trkpt lat="40.771949" lon="-3.875790">
        <ele>1522.308</ele>
        <time>2021-07-30T13:15:35Z</time>
      </trkpt>
      <trkpt lat="40.771962" lon="-3.875765">
        <ele>1524.093</ele>
        <time>2021-07-30T13:15:37Z</time>
      </trkpt>
      <trkpt lat="40.771978" lon="-3.875743">
        <ele>1525.535</ele>
        <time>2021-07-30T13:15:41Z</time>
      </trkpt>
      <trkpt lat="40.771984" lon="-3.875712">
        <ele>1527.742</ele>
        <time>2021-07-30T13:15:44Z</time>
      </trkpt>
      <trkpt lat="40.772006" lon="-3.875712">
        <ele>1527.449</ele>
        <time>2021-07-30T13:15:46Z</time>
      </trkpt>
      <trkpt lat="40.772016" lon="-3.875690">
        <ele>1528.870</ele>
        <time>2021-07-30T13:15:52Z</time>
      </trkpt>
      <trkpt lat="40.772010" lon="-3.875665">
        <ele>1530.620</ele>
        <time>2021-07-30T13:16:01Z</time>
      </trkpt>
      <trkpt lat="40.772026" lon="-3.875645">
        <ele>1531.624</ele>
        <time>2021-07-30T13:16:05Z</time>
      </trkpt>
      <trkpt lat="40.772035" lon="-3.875622">
        <ele>1533.041</ele>
        <time>2021-07-30T13:16:09Z</time>
      </trkpt>
      <trkpt lat="40.772061" lon="-3.875616">
        <ele>1532.837</ele>
        <time>2021-07-30T13:16:12Z</time>
      </trkpt>
      <trkpt lat="40.772064" lon="-3.875592">
        <ele>1534.349</ele>
        <time>2021-07-30T13:16:21Z</time>
      </trkpt>
      <trkpt lat="40.772080" lon="-3.875578">
        <ele>1534.713</ele>
        <time>2021-07-30T13:16:26Z</time>
      </trkpt>
      <trkpt lat="40.772106" lon="-3.875577">
        <ele>1534.108</ele>
        <time>2021-07-30T13:16:30Z</time>
      </trkpt>
      <trkpt lat="40.772122" lon="-3.875558">
        <ele>1534.730</ele>
        <time>2021-07-30T13:16:36Z</time>
      </trkpt>
      <trkpt lat="40.772125" lon="-3.875530">
        <ele>1536.992</ele>
        <time>2021-07-30T13:16:39Z</time>
      </trkpt>
      <trkpt lat="40.772141" lon="-3.875508">
        <ele>1537.919</ele>
        <time>2021-07-30T13:16:44Z</time>
      </trkpt>
      <trkpt lat="40.772160" lon="-3.875500">
        <ele>1537.646</ele>
        <time>2021-07-30T13:16:48Z</time>
      </trkpt>
      <trkpt lat="40.772186" lon="-3.875500">
        <ele>1536.327</ele>
        <time>2021-07-30T13:16:50Z</time>
      </trkpt>
      <trkpt lat="40.772179" lon="-3.875470">
        <ele>1538.537</ele>
        <time>2021-07-30T13:16:53Z</time>
      </trkpt>
      <trkpt lat="40.772195" lon="-3.875452">
        <ele>1538.671</ele>
        <time>2021-07-30T13:16:56Z</time>
      </trkpt>
      <trkpt lat="40.772221" lon="-3.875452">
        <ele>1536.968</ele>
        <time>2021-07-30T13:16:58Z</time>
      </trkpt>
      <trkpt lat="40.772202" lon="-3.875424">
        <ele>1539.775</ele>
        <time>2021-07-30T13:17:01Z</time>
      </trkpt>
      <trkpt lat="40.772202" lon="-3.875395">
        <ele>1541.228</ele>
        <time>2021-07-30T13:17:06Z</time>
      </trkpt>
      <trkpt lat="40.772182" lon="-3.875383">
        <ele>1543.720</ele>
        <time>2021-07-30T13:17:09Z</time>
      </trkpt>
      <trkpt lat="40.772163" lon="-3.875362">
        <ele>1546.808</ele>
        <time>2021-07-30T13:17:11Z</time>
      </trkpt>
      <trkpt lat="40.772147" lon="-3.875337">
        <ele>1550.114</ele>
        <time>2021-07-30T13:17:16Z</time>
      </trkpt>
      <trkpt lat="40.772160" lon="-3.875315">
        <ele>1550.326</ele>
        <time>2021-07-30T13:17:25Z</time>
      </trkpt>
      <trkpt lat="40.772179" lon="-3.875305">
        <ele>1548.853</ele>
        <time>2021-07-30T13:17:30Z</time>
      </trkpt>
      <trkpt lat="40.772195" lon="-3.875285">
        <ele>1548.060</ele>
        <time>2021-07-30T13:17:37Z</time>
      </trkpt>
      <trkpt lat="40.772214" lon="-3.875272">
        <ele>1546.391</ele>
        <time>2021-07-30T13:17:40Z</time>
      </trkpt>
      <trkpt lat="40.772237" lon="-3.875262">
        <ele>1546.681</ele>
        <time>2021-07-30T13:17:42Z</time>
      </trkpt>
      <trkpt lat="40.772256" lon="-3.875260">
        <ele>1547.825</ele>
        <time>2021-07-30T13:17:46Z</time>
      </trkpt>
      <trkpt lat="40.772243" lon="-3.875234">
        <ele>1548.472</ele>
        <time>2021-07-30T13:17:51Z</time>
      </trkpt>
      <trkpt lat="40.772259" lon="-3.875218">
        <ele>1550.191</ele>
        <time>2021-07-30T13:17:58Z</time>
      </trkpt>
      <trkpt lat="40.772227" lon="-3.875202">
        <ele>1549.381</ele>
        <time>2021-07-30T13:18:01Z</time>
      </trkpt>
      <trkpt lat="40.772208" lon="-3.875198">
        <ele>1550.919</ele>
        <time>2021-07-30T13:18:06Z</time>
      </trkpt>
      <trkpt lat="40.772189" lon="-3.875205">
        <ele>1552.608</ele>
        <time>2021-07-30T13:18:13Z</time>
      </trkpt>
      <trkpt lat="40.772214" lon="-3.875207">
        <ele>1549.716</ele>
        <time>2021-07-30T13:18:19Z</time>
      </trkpt>
      <trkpt lat="40.772227" lon="-3.875190">
        <ele>1550.088</ele>
        <time>2021-07-30T13:18:31Z</time>
      </trkpt>
      <trkpt lat="40.772246" lon="-3.875177">
        <ele>1551.685</ele>
        <time>2021-07-30T13:18:34Z</time>
      </trkpt>
      <trkpt lat="40.772256" lon="-3.875153">
        <ele>1553.382</ele>
        <time>2021-07-30T13:18:39Z</time>
      </trkpt>
      <trkpt lat="40.772294" lon="-3.875152">
        <ele>1555.213</ele>
        <time>2021-07-30T13:18:41Z</time>
      </trkpt>
      <trkpt lat="40.772307" lon="-3.875133">
        <ele>1556.863</ele>
        <time>2021-07-30T13:18:42Z</time>
      </trkpt>
      <trkpt lat="40.772317" lon="-3.875112">
        <ele>1558.367</ele>
        <time>2021-07-30T13:18:44Z</time>
      </trkpt>
      <trkpt lat="40.772333" lon="-3.875092">
        <ele>1559.944</ele>
        <time>2021-07-30T13:18:46Z</time>
      </trkpt>
      <trkpt lat="40.772298" lon="-3.875077">
        <ele>1559.186</ele>
        <time>2021-07-30T13:18:48Z</time>
      </trkpt>
      <trkpt lat="40.772301" lon="-3.875052">
        <ele>1560.560</ele>
        <time>2021-07-30T13:18:53Z</time>
      </trkpt>
      <trkpt lat="40.772317" lon="-3.875030">
        <ele>1562.326</ele>
        <time>2021-07-30T13:18:58Z</time>
      </trkpt>
      <trkpt lat="40.772339" lon="-3.875037">
        <ele>1562.808</ele>
        <time>2021-07-30T13:19:00Z</time>
      </trkpt>
      <trkpt lat="40.772355" lon="-3.875020">
        <ele>1564.325</ele>
        <time>2021-07-30T13:19:04Z</time>
      </trkpt>
      <trkpt lat="40.772336" lon="-3.875015">
        <ele>1563.857</ele>
        <time>2021-07-30T13:19:05Z</time>
      </trkpt>
      <trkpt lat="40.772314" lon="-3.875012">
        <ele>1563.064</ele>
        <time>2021-07-30T13:19:06Z</time>
      </trkpt>
      <trkpt lat="40.772282" lon="-3.875013">
        <ele>1561.781</ele>
        <time>2021-07-30T13:19:07Z</time>
      </trkpt>
      <trkpt lat="40.772259" lon="-3.875017">
        <ele>1560.682</ele>
        <time>2021-07-30T13:19:08Z</time>
      </trkpt>
      <trkpt lat="40.772227" lon="-3.875018">
        <ele>1559.252</ele>
        <time>2021-07-30T13:19:09Z</time>
      </trkpt>
      <trkpt lat="40.772250" lon="-3.875005">
        <ele>1560.846</ele>
        <time>2021-07-30T13:19:14Z</time>
      </trkpt>
      <trkpt lat="40.772269" lon="-3.875000">
        <ele>1561.993</ele>
        <time>2021-07-30T13:19:15Z</time>
      </trkpt>
      <trkpt lat="40.772288" lon="-3.874992">
        <ele>1562.944</ele>
        <time>2021-07-30T13:19:17Z</time>
      </trkpt>
      <trkpt lat="40.772304" lon="-3.874978">
        <ele>1564.005</ele>
        <time>2021-07-30T13:19:18Z</time>
      </trkpt>
      <trkpt lat="40.772320" lon="-3.874965">
        <ele>1565.015</ele>
        <time>2021-07-30T13:19:19Z</time>
      </trkpt>
      <trkpt lat="40.772339" lon="-3.874946">
        <ele>1566.308</ele>
        <time>2021-07-30T13:19:21Z</time>
      </trkpt>
      <trkpt lat="40.772307" lon="-3.874955">
        <ele>1564.951</ele>
        <time>2021-07-30T13:19:28Z</time>
      </trkpt>
      <trkpt lat="40.772285" lon="-3.874946">
        <ele>1564.553</ele>
        <time>2021-07-30T13:19:30Z</time>
      </trkpt>
      <trkpt lat="40.772307" lon="-3.874936">
        <ele>1565.680</ele>
        <time>2021-07-30T13:19:40Z</time>
      </trkpt>
      <trkpt lat="40.772333" lon="-3.874925">
        <ele>1566.887</ele>
        <time>2021-07-30T13:19:42Z</time>
      </trkpt>
      <trkpt lat="40.772346" lon="-3.874905">
        <ele>1567.858</ele>
        <time>2021-07-30T13:19:44Z</time>
      </trkpt>
      <trkpt lat="40.772346" lon="-3.874873">
        <ele>1568.848</ele>
        <time>2021-07-30T13:19:49Z</time>
      </trkpt>
      <trkpt lat="40.772326" lon="-3.874865">
        <ele>1568.532</ele>
        <time>2021-07-30T13:20:01Z</time>
      </trkpt>
      <trkpt lat="40.772346" lon="-3.874868">
        <ele>1568.989</ele>
        <time>2021-07-30T13:20:06Z</time>
      </trkpt>
      <trkpt lat="40.772365" lon="-3.874857">
        <ele>1569.778</ele>
        <time>2021-07-30T13:20:11Z</time>
      </trkpt>
      <trkpt lat="40.772381" lon="-3.874845">
        <ele>1570.433</ele>
        <time>2021-07-30T13:20:13Z</time>
      </trkpt>
      <trkpt lat="40.772397" lon="-3.874820">
        <ele>1571.426</ele>
        <time>2021-07-30T13:20:15Z</time>
      </trkpt>
      <trkpt lat="40.772394" lon="-3.874795">
        <ele>1572.008</ele>
        <time>2021-07-30T13:20:21Z</time>
      </trkpt>
      <trkpt lat="40.772378" lon="-3.874766">
        <ele>1572.584</ele>
        <time>2021-07-30T13:20:24Z</time>
      </trkpt>
      <trkpt lat="40.772365" lon="-3.874742">
        <ele>1573.066</ele>
        <time>2021-07-30T13:20:26Z</time>
      </trkpt>
      <trkpt lat="40.772426" lon="-3.874627">
        <ele>1575.323</ele>
        <time>2021-07-30T13:20:52Z</time>
      </trkpt>
      <trkpt lat="40.772397" lon="-3.874672">
        <ele>1574.520</ele>
        <time>2021-07-30T13:20:53Z</time>
      </trkpt>
      <trkpt lat="40.772403" lon="-3.874720">
        <ele>1574.091</ele>
        <time>2021-07-30T13:20:54Z</time>
      </trkpt>
      <trkpt lat="40.772416" lon="-3.874678">
        <ele>1574.641</ele>
        <time>2021-07-30T13:20:56Z</time>
      </trkpt>
      <trkpt lat="40.772445" lon="-3.874660">
        <ele>1575.125</ele>
        <time>2021-07-30T13:20:58Z</time>
      </trkpt>
      <trkpt lat="40.772464" lon="-3.874642">
        <ele>1575.592</ele>
        <time>2021-07-30T13:21:00Z</time>
      </trkpt>
      <trkpt lat="40.772467" lon="-3.874617">
        <ele>1575.826</ele>
        <time>2021-07-30T13:21:03Z</time>
      </trkpt>
      <trkpt lat="40.772480" lon="-3.874593">
        <ele>1576.247</ele>
        <time>2021-07-30T13:21:05Z</time>
      </trkpt>
      <trkpt lat="40.772502" lon="-3.874588">
        <ele>1576.611</ele>
        <time>2021-07-30T13:21:07Z</time>
      </trkpt>
      <trkpt lat="40.772515" lon="-3.874565">
        <ele>1577.808</ele>
        <time>2021-07-30T13:21:11Z</time>
      </trkpt>
      <trkpt lat="40.772518" lon="-3.874537">
        <ele>1578.399</ele>
        <time>2021-07-30T13:21:14Z</time>
      </trkpt>
      <trkpt lat="40.772522" lon="-3.874505">
        <ele>1578.971</ele>
        <time>2021-07-30T13:21:17Z</time>
      </trkpt>
      <trkpt lat="40.772525" lon="-3.874482">
        <ele>1579.388</ele>
        <time>2021-07-30T13:21:22Z</time>
      </trkpt>
      <trkpt lat="40.772518" lon="-3.874455">
        <ele>1579.155</ele>
        <time>2021-07-30T13:21:26Z</time>
      </trkpt>
      <trkpt lat="40.772506" lon="-3.874423">
        <ele>1578.556</ele>
        <time>2021-07-30T13:21:34Z</time>
      </trkpt>
      <trkpt lat="40.772483" lon="-3.874400">
        <ele>1578.216</ele>
        <time>2021-07-30T13:21:41Z</time>
      </trkpt>
      <trkpt lat="40.772506" lon="-3.874390">
        <ele>1578.720</ele>
        <time>2021-07-30T13:21:55Z</time>
      </trkpt>
      <trkpt lat="40.772515" lon="-3.874365">
        <ele>1579.497</ele>
        <time>2021-07-30T13:22:00Z</time>
      </trkpt>
      <trkpt lat="40.772518" lon="-3.874335">
        <ele>1579.783</ele>
        <time>2021-07-30T13:22:02Z</time>
      </trkpt>
      <trkpt lat="40.772515" lon="-3.874310">
        <ele>1579.725</ele>
        <time>2021-07-30T13:22:06Z</time>
      </trkpt>
      <trkpt lat="40.772534" lon="-3.874292">
        <ele>1580.717</ele>
        <time>2021-07-30T13:22:12Z</time>
      </trkpt>
      <trkpt lat="40.772547" lon="-3.874313">
        <ele>1581.308</ele>
        <time>2021-07-30T13:22:15Z</time>
      </trkpt>
      <trkpt lat="40.772566" lon="-3.874307">
        <ele>1582.255</ele>
        <time>2021-07-30T13:22:19Z</time>
      </trkpt>
      <trkpt lat="40.772582" lon="-3.874295">
        <ele>1583.037</ele>
        <time>2021-07-30T13:22:21Z</time>
      </trkpt>
      <trkpt lat="40.772605" lon="-3.874288">
        <ele>1584.044</ele>
        <time>2021-07-30T13:22:23Z</time>
      </trkpt>
      <trkpt lat="40.772624" lon="-3.874292">
        <ele>1584.961</ele>
        <time>2021-07-30T13:22:26Z</time>
      </trkpt>
      <trkpt lat="40.772637" lon="-3.874315">
        <ele>1585.782</ele>
        <time>2021-07-30T13:22:29Z</time>
      </trkpt>
      <trkpt lat="40.772653" lon="-3.874330">
        <ele>1586.722</ele>
        <time>2021-07-30T13:22:32Z</time>
      </trkpt>
      <trkpt lat="40.772662" lon="-3.874354">
        <ele>1587.416</ele>
        <time>2021-07-30T13:22:34Z</time>
      </trkpt>
      <trkpt lat="40.772666" lon="-3.874380">
        <ele>1588.053</ele>
        <time>2021-07-30T13:22:36Z</time>
      </trkpt>
      <trkpt lat="40.772662" lon="-3.874412">
        <ele>1588.155</ele>
        <time>2021-07-30T13:22:39Z</time>
      </trkpt>
      <trkpt lat="40.772678" lon="-3.874397">
        <ele>1588.907</ele>
        <time>2021-07-30T13:22:54Z</time>
      </trkpt>
      <trkpt lat="40.772685" lon="-3.874372">
        <ele>1588.917</ele>
        <time>2021-07-30T13:22:56Z</time>
      </trkpt>
      <trkpt lat="40.772685" lon="-3.874338">
        <ele>1588.508</ele>
        <time>2021-07-30T13:22:58Z</time>
      </trkpt>
      <trkpt lat="40.772678" lon="-3.874313">
        <ele>1587.872</ele>
        <time>2021-07-30T13:23:01Z</time>
      </trkpt>
      <trkpt lat="40.772675" lon="-3.874285">
        <ele>1587.294</ele>
        <time>2021-07-30T13:23:03Z</time>
      </trkpt>
      <trkpt lat="40.772666" lon="-3.874252">
        <ele>1586.451</ele>
        <time>2021-07-30T13:23:05Z</time>
      </trkpt>
      <trkpt lat="40.772653" lon="-3.874226">
        <ele>1585.668</ele>
        <time>2021-07-30T13:23:08Z</time>
      </trkpt>
      <trkpt lat="40.772640" lon="-3.874208">
        <ele>1584.949</ele>
        <time>2021-07-30T13:23:10Z</time>
      </trkpt>
      <trkpt lat="40.772640" lon="-3.874184">
        <ele>1584.749</ele>
        <time>2021-07-30T13:23:13Z</time>
      </trkpt>
      <trkpt lat="40.772653" lon="-3.874167">
        <ele>1585.013</ele>
        <time>2021-07-30T13:23:20Z</time>
      </trkpt>
      <trkpt lat="40.772678" lon="-3.874177">
        <ele>1585.990</ele>
        <time>2021-07-30T13:23:26Z</time>
      </trkpt>
      <trkpt lat="40.772739" lon="-3.874190">
        <ele>1588.275</ele>
        <time>2021-07-30T13:23:30Z</time>
      </trkpt>
      <trkpt lat="40.772733" lon="-3.874213">
        <ele>1588.528</ele>
        <time>2021-07-30T13:23:47Z</time>
      </trkpt>
      <trkpt lat="40.772710" lon="-3.874213">
        <ele>1587.620</ele>
        <time>2021-07-30T13:23:50Z</time>
      </trkpt>
      <trkpt lat="40.772691" lon="-3.874215">
        <ele>1586.908</ele>
        <time>2021-07-30T13:23:53Z</time>
      </trkpt>
      <trkpt lat="40.772666" lon="-3.874228">
        <ele>1586.124</ele>
        <time>2021-07-30T13:23:54Z</time>
      </trkpt>
      <trkpt lat="40.772646" lon="-3.874246">
        <ele>1585.536</ele>
        <time>2021-07-30T13:23:56Z</time>
      </trkpt>
      <trkpt lat="40.772662" lon="-3.874230">
        <ele>1586.073</ele>
        <time>2021-07-30T13:24:01Z</time>
      </trkpt>
      <trkpt lat="40.772682" lon="-3.874226">
        <ele>1586.780</ele>
        <time>2021-07-30T13:24:04Z</time>
      </trkpt>
      <trkpt lat="40.772733" lon="-3.874203">
        <ele>1588.371</ele>
        <time>2021-07-30T13:26:15Z</time>
      </trkpt>
      <trkpt lat="40.772714" lon="-3.874208">
        <ele>1587.711</ele>
        <time>2021-07-30T13:26:21Z</time>
      </trkpt>
      <trkpt lat="40.772710" lon="-3.874157">
        <ele>1586.635</ele>
        <time>2021-07-30T13:26:57Z</time>
      </trkpt>
      <trkpt lat="40.772704" lon="-3.874185">
        <ele>1586.962</ele>
        <time>2021-07-30T13:26:58Z</time>
      </trkpt>
      <trkpt lat="40.772682" lon="-3.874182">
        <ele>1586.198</ele>
        <time>2021-07-30T13:27:00Z</time>
      </trkpt>
      <trkpt lat="40.772678" lon="-3.874138">
        <ele>1585.115</ele>
        <time>2021-07-30T13:27:08Z</time>
      </trkpt>
      <trkpt lat="40.772691" lon="-3.874155">
        <ele>1585.926</ele>
        <time>2021-07-30T13:27:22Z</time>
      </trkpt>
      <trkpt lat="40.772723" lon="-3.874215">
        <ele>1588.108</ele>
        <time>2021-07-30T13:32:01Z</time>
      </trkpt>
      <trkpt lat="40.772701" lon="-3.874203">
        <ele>1587.146</ele>
        <time>2021-07-30T13:32:36Z</time>
      </trkpt>
      <trkpt lat="40.772717" lon="-3.874192">
        <ele>1587.598</ele>
        <time>2021-07-30T13:32:39Z</time>
      </trkpt>
      <trkpt lat="40.772736" lon="-3.874184">
        <ele>1588.035</ele>
        <time>2021-07-30T13:32:48Z</time>
      </trkpt>
      <trkpt lat="40.772765" lon="-3.874178">
        <ele>1588.992</ele>
        <time>2021-07-30T13:32:50Z</time>
      </trkpt>
      <trkpt lat="40.772746" lon="-3.874188">
        <ele>1588.413</ele>
        <time>2021-07-30T13:33:04Z</time>
      </trkpt>
      <trkpt lat="40.772723" lon="-3.874165">
        <ele>1587.233</ele>
        <time>2021-07-30T13:33:33Z</time>
      </trkpt>
      <trkpt lat="40.772717" lon="-3.874132">
        <ele>1586.177</ele>
        <time>2021-07-30T13:33:35Z</time>
      </trkpt>
      <trkpt lat="40.772710" lon="-3.874098">
        <ele>1585.114</ele>
        <time>2021-07-30T13:33:37Z</time>
      </trkpt>
      <trkpt lat="40.772710" lon="-3.874066">
        <ele>1584.217</ele>
        <time>2021-07-30T13:33:39Z</time>
      </trkpt>
      <trkpt lat="40.772714" lon="-3.874035">
        <ele>1583.587</ele>
        <time>2021-07-30T13:33:41Z</time>
      </trkpt>
      <trkpt lat="40.772717" lon="-3.874005">
        <ele>1582.815</ele>
        <time>2021-07-30T13:33:44Z</time>
      </trkpt>
      <trkpt lat="40.772723" lon="-3.873982">
        <ele>1582.308</ele>
        <time>2021-07-30T13:33:47Z</time>
      </trkpt>
      <trkpt lat="40.772733" lon="-3.873953">
        <ele>1581.618</ele>
        <time>2021-07-30T13:33:50Z</time>
      </trkpt>
      <trkpt lat="40.772726" lon="-3.873920">
        <ele>1580.720</ele>
        <time>2021-07-30T13:33:53Z</time>
      </trkpt>
      <trkpt lat="40.772736" lon="-3.873886">
        <ele>1579.967</ele>
        <time>2021-07-30T13:33:56Z</time>
      </trkpt>
      <trkpt lat="40.772755" lon="-3.873866">
        <ele>1580.184</ele>
        <time>2021-07-30T13:34:01Z</time>
      </trkpt>
      <trkpt lat="40.772771" lon="-3.873853">
        <ele>1580.235</ele>
        <time>2021-07-30T13:34:05Z</time>
      </trkpt>
      <trkpt lat="40.772781" lon="-3.873832">
        <ele>1580.575</ele>
        <time>2021-07-30T13:34:09Z</time>
      </trkpt>
      <trkpt lat="40.772794" lon="-3.873850">
        <ele>1580.999</ele>
        <time>2021-07-30T13:34:13Z</time>
      </trkpt>
      <trkpt lat="40.772822" lon="-3.873863">
        <ele>1581.956</ele>
        <time>2021-07-30T13:34:16Z</time>
      </trkpt>
      <trkpt lat="40.772838" lon="-3.873852">
        <ele>1582.738</ele>
        <time>2021-07-30T13:34:18Z</time>
      </trkpt>
      <trkpt lat="40.772845" lon="-3.873827">
        <ele>1583.370</ele>
        <time>2021-07-30T13:34:21Z</time>
      </trkpt>
      <trkpt lat="40.772861" lon="-3.873812">
        <ele>1584.217</ele>
        <time>2021-07-30T13:34:24Z</time>
      </trkpt>
      <trkpt lat="40.772854" lon="-3.873788">
        <ele>1584.308</ele>
        <time>2021-07-30T13:34:26Z</time>
      </trkpt>
      <trkpt lat="40.772858" lon="-3.873760">
        <ele>1584.980</ele>
        <time>2021-07-30T13:34:29Z</time>
      </trkpt>
      <trkpt lat="40.772851" lon="-3.873732">
        <ele>1585.092</ele>
        <time>2021-07-30T13:34:32Z</time>
      </trkpt>
      <trkpt lat="40.772864" lon="-3.873692">
        <ele>1586.339</ele>
        <time>2021-07-30T13:34:33Z</time>
      </trkpt>
      <trkpt lat="40.772880" lon="-3.873667">
        <ele>1587.676</ele>
        <time>2021-07-30T13:34:34Z</time>
      </trkpt>
      <trkpt lat="40.772896" lon="-3.873633">
        <ele>1589.287</ele>
        <time>2021-07-30T13:34:36Z</time>
      </trkpt>
      <trkpt lat="40.772877" lon="-3.873652">
        <ele>1587.737</ele>
        <time>2021-07-30T13:34:53Z</time>
      </trkpt>
      <trkpt lat="40.772861" lon="-3.873638">
        <ele>1587.011</ele>
        <time>2021-07-30T13:34:58Z</time>
      </trkpt>
      <trkpt lat="40.772842" lon="-3.873645">
        <ele>1585.748</ele>
        <time>2021-07-30T13:35:05Z</time>
      </trkpt>
      <trkpt lat="40.772858" lon="-3.873658">
        <ele>1586.514</ele>
        <time>2021-07-30T13:35:13Z</time>
      </trkpt>
      <trkpt lat="40.772874" lon="-3.873645">
        <ele>1587.754</ele>
        <time>2021-07-30T13:35:15Z</time>
      </trkpt>
      <trkpt lat="40.772864" lon="-3.873620">
        <ele>1587.409</ele>
        <time>2021-07-30T13:35:22Z</time>
      </trkpt>
      <trkpt lat="40.772845" lon="-3.873640">
        <ele>1585.908</ele>
        <time>2021-07-30T13:35:28Z</time>
      </trkpt>
      <trkpt lat="40.772838" lon="-3.873668">
        <ele>1585.198</ele>
        <time>2021-07-30T13:35:31Z</time>
      </trkpt>
      <trkpt lat="40.772835" lon="-3.873705">
        <ele>1584.560</ele>
        <time>2021-07-30T13:35:34Z</time>
      </trkpt>
      <trkpt lat="40.772816" lon="-3.873692">
        <ele>1583.657</ele>
        <time>2021-07-30T13:35:41Z</time>
      </trkpt>
      <trkpt lat="40.772822" lon="-3.873668">
        <ele>1584.294</ele>
        <time>2021-07-30T13:35:42Z</time>
      </trkpt>
      <trkpt lat="40.772832" lon="-3.873637">
        <ele>1585.215</ele>
        <time>2021-07-30T13:35:44Z</time>
      </trkpt>
      <trkpt lat="40.772842" lon="-3.873592">
        <ele>1586.655</ele>
        <time>2021-07-30T13:35:46Z</time>
      </trkpt>
      <trkpt lat="40.772832" lon="-3.873570">
        <ele>1586.559</ele>
        <time>2021-07-30T13:35:48Z</time>
      </trkpt>
      <trkpt lat="40.772816" lon="-3.873538">
        <ele>1586.416</ele>
        <time>2021-07-30T13:35:50Z</time>
      </trkpt>
      <trkpt lat="40.772797" lon="-3.873538">
        <ele>1585.431</ele>
        <time>2021-07-30T13:35:53Z</time>
      </trkpt>
      <trkpt lat="40.772800" lon="-3.873510">
        <ele>1586.461</ele>
        <time>2021-07-30T13:35:55Z</time>
      </trkpt>
      <trkpt lat="40.772813" lon="-3.873485">
        <ele>1587.707</ele>
        <time>2021-07-30T13:35:57Z</time>
      </trkpt>
      <trkpt lat="40.772797" lon="-3.873496">
        <ele>1586.608</ele>
        <time>2021-07-30T13:35:58Z</time>
      </trkpt>
      <trkpt lat="40.772816" lon="-3.873485">
        <ele>1587.830</ele>
        <time>2021-07-30T13:36:03Z</time>
      </trkpt>
      <trkpt lat="40.772790" lon="-3.873480">
        <ele>1586.892</ele>
        <time>2021-07-30T13:36:07Z</time>
      </trkpt>
      <trkpt lat="40.772810" lon="-3.873448">
        <ele>1588.689</ele>
        <time>2021-07-30T13:36:12Z</time>
      </trkpt>
      <trkpt lat="40.772819" lon="-3.873415">
        <ele>1589.866</ele>
        <time>2021-07-30T13:36:17Z</time>
      </trkpt>
      <trkpt lat="40.772835" lon="-3.873400">
        <ele>1590.797</ele>
        <time>2021-07-30T13:36:19Z</time>
      </trkpt>
      <trkpt lat="40.772851" lon="-3.873375">
        <ele>1591.777</ele>
        <time>2021-07-30T13:36:24Z</time>
      </trkpt>
      <trkpt lat="40.772870" lon="-3.873350">
        <ele>1592.731</ele>
        <time>2021-07-30T13:36:29Z</time>
      </trkpt>
      <trkpt lat="40.772883" lon="-3.873324">
        <ele>1593.418</ele>
        <time>2021-07-30T13:36:32Z</time>
      </trkpt>
      <trkpt lat="40.772899" lon="-3.873310">
        <ele>1594.089</ele>
        <time>2021-07-30T13:36:34Z</time>
      </trkpt>
      <trkpt lat="40.772915" lon="-3.873297">
        <ele>1594.606</ele>
        <time>2021-07-30T13:36:37Z</time>
      </trkpt>
      <trkpt lat="40.772938" lon="-3.873307">
        <ele>1594.926</ele>
        <time>2021-07-30T13:36:39Z</time>
      </trkpt>
      <trkpt lat="40.772957" lon="-3.873315">
        <ele>1595.208</ele>
        <time>2021-07-30T13:36:42Z</time>
      </trkpt>
      <trkpt lat="40.772976" lon="-3.873302">
        <ele>1595.895</ele>
        <time>2021-07-30T13:36:45Z</time>
      </trkpt>
      <trkpt lat="40.772963" lon="-3.873283">
        <ele>1595.837</ele>
        <time>2021-07-30T13:36:48Z</time>
      </trkpt>
      <trkpt lat="40.772944" lon="-3.873290">
        <ele>1595.344</ele>
        <time>2021-07-30T13:36:52Z</time>
      </trkpt>
      <trkpt lat="40.772909" lon="-3.873265">
        <ele>1594.931</ele>
        <time>2021-07-30T13:36:59Z</time>
      </trkpt>
      <trkpt lat="40.772941" lon="-3.873290">
        <ele>1595.232</ele>
        <time>2021-07-30T13:37:00Z</time>
      </trkpt>
      <trkpt lat="40.772963" lon="-3.873297">
        <ele>1595.632</ele>
        <time>2021-07-30T13:37:02Z</time>
      </trkpt>
      <trkpt lat="40.772979" lon="-3.873273">
        <ele>1596.356</ele>
        <time>2021-07-30T13:37:07Z</time>
      </trkpt>
      <trkpt lat="40.772998" lon="-3.873263">
        <ele>1596.823</ele>
        <time>2021-07-30T13:37:10Z</time>
      </trkpt>
      <trkpt lat="40.773024" lon="-3.873247">
        <ele>1597.652</ele>
        <time>2021-07-30T13:37:13Z</time>
      </trkpt>
      <trkpt lat="40.773043" lon="-3.873245">
        <ele>1598.053</ele>
        <time>2021-07-30T13:37:22Z</time>
      </trkpt>
      <trkpt lat="40.773056" lon="-3.873217">
        <ele>1598.708</ele>
        <time>2021-07-30T13:37:25Z</time>
      </trkpt>
      <trkpt lat="40.773069" lon="-3.873190">
        <ele>1599.608</ele>
        <time>2021-07-30T13:37:28Z</time>
      </trkpt>
      <trkpt lat="40.773088" lon="-3.873198">
        <ele>1600.242</ele>
        <time>2021-07-30T13:37:34Z</time>
      </trkpt>
      <trkpt lat="40.773114" lon="-3.873218">
        <ele>1601.024</ele>
        <time>2021-07-30T13:37:45Z</time>
      </trkpt>
      <trkpt lat="40.773107" lon="-3.873247">
        <ele>1600.551</ele>
        <time>2021-07-30T13:37:48Z</time>
      </trkpt>
      <trkpt lat="40.773130" lon="-3.873250">
        <ele>1601.538</ele>
        <time>2021-07-30T13:37:51Z</time>
      </trkpt>
      <trkpt lat="40.773152" lon="-3.873245">
        <ele>1602.529</ele>
        <time>2021-07-30T13:37:56Z</time>
      </trkpt>
      <trkpt lat="40.773162" lon="-3.873222">
        <ele>1603.079</ele>
        <time>2021-07-30T13:37:59Z</time>
      </trkpt>
      <trkpt lat="40.773174" lon="-3.873203">
        <ele>1603.583</ele>
        <time>2021-07-30T13:38:07Z</time>
      </trkpt>
      <trkpt lat="40.773194" lon="-3.873202">
        <ele>1604.240</ele>
        <time>2021-07-30T13:38:10Z</time>
      </trkpt>
      <trkpt lat="40.773187" lon="-3.873176">
        <ele>1604.066</ele>
        <time>2021-07-30T13:38:18Z</time>
      </trkpt>
      <trkpt lat="40.773168" lon="-3.873163">
        <ele>1603.329</ele>
        <time>2021-07-30T13:38:23Z</time>
      </trkpt>
      <trkpt lat="40.773187" lon="-3.873166">
        <ele>1603.921</ele>
        <time>2021-07-30T13:38:47Z</time>
      </trkpt>
      <trkpt lat="40.773174" lon="-3.873148">
        <ele>1603.508</ele>
        <time>2021-07-30T13:38:50Z</time>
      </trkpt>
      <trkpt lat="40.773187" lon="-3.873128">
        <ele>1603.953</ele>
        <time>2021-07-30T13:38:56Z</time>
      </trkpt>
      <trkpt lat="40.773174" lon="-3.873112">
        <ele>1603.565</ele>
        <time>2021-07-30T13:39:04Z</time>
      </trkpt>
      <trkpt lat="40.773187" lon="-3.873085">
        <ele>1603.982</ele>
        <time>2021-07-30T13:39:07Z</time>
      </trkpt>
      <trkpt lat="40.773190" lon="-3.873062">
        <ele>1603.989</ele>
        <time>2021-07-30T13:39:09Z</time>
      </trkpt>
      <trkpt lat="40.773206" lon="-3.873073">
        <ele>1604.330</ele>
        <time>2021-07-30T13:39:18Z</time>
      </trkpt>
      <trkpt lat="40.773222" lon="-3.873058">
        <ele>1604.660</ele>
        <time>2021-07-30T13:39:44Z</time>
      </trkpt>
      <trkpt lat="40.773242" lon="-3.873065">
        <ele>1605.184</ele>
        <time>2021-07-30T13:39:46Z</time>
      </trkpt>
      <trkpt lat="40.773261" lon="-3.873072">
        <ele>1605.621</ele>
        <time>2021-07-30T13:39:49Z</time>
      </trkpt>
      <trkpt lat="40.773286" lon="-3.873082">
        <ele>1606.327</ele>
        <time>2021-07-30T13:39:51Z</time>
      </trkpt>
      <trkpt lat="40.773267" lon="-3.873070">
        <ele>1605.768</ele>
        <time>2021-07-30T13:40:00Z</time>
      </trkpt>
      <trkpt lat="40.773261" lon="-3.873043">
        <ele>1605.814</ele>
        <time>2021-07-30T13:40:42Z</time>
      </trkpt>
      <trkpt lat="40.773286" lon="-3.873048">
        <ele>1606.208</ele>
        <time>2021-07-30T13:40:45Z</time>
      </trkpt>
      <trkpt lat="40.773309" lon="-3.873043">
        <ele>1606.799</ele>
        <time>2021-07-30T13:40:48Z</time>
      </trkpt>
      <trkpt lat="40.773328" lon="-3.873037">
        <ele>1607.231</ele>
        <time>2021-07-30T13:40:50Z</time>
      </trkpt>
      <trkpt lat="40.773354" lon="-3.873030">
        <ele>1608.318</ele>
        <time>2021-07-30T13:40:53Z</time>
      </trkpt>
      <trkpt lat="40.773376" lon="-3.873027">
        <ele>1609.355</ele>
        <time>2021-07-30T13:40:58Z</time>
      </trkpt>
      <trkpt lat="40.773398" lon="-3.873025">
        <ele>1610.336</ele>
        <time>2021-07-30T13:41:01Z</time>
      </trkpt>
      <trkpt lat="40.773392" lon="-3.872995">
        <ele>1610.396</ele>
        <time>2021-07-30T13:41:05Z</time>
      </trkpt>
      <trkpt lat="40.773379" lon="-3.872945">
        <ele>1610.340</ele>
        <time>2021-07-30T13:41:11Z</time>
      </trkpt>
      <trkpt lat="40.773376" lon="-3.872903">
        <ele>1610.747</ele>
        <time>2021-07-30T13:41:49Z</time>
      </trkpt>
      <trkpt lat="40.773392" lon="-3.872870">
        <ele>1611.633</ele>
        <time>2021-07-30T13:41:51Z</time>
      </trkpt>
      <trkpt lat="40.773411" lon="-3.872842">
        <ele>1612.423</ele>
        <time>2021-07-30T13:41:53Z</time>
      </trkpt>
      <trkpt lat="40.773430" lon="-3.872806">
        <ele>1613.215</ele>
        <time>2021-07-30T13:41:55Z</time>
      </trkpt>
      <trkpt lat="40.773446" lon="-3.872770">
        <ele>1614.008</ele>
        <time>2021-07-30T13:41:57Z</time>
      </trkpt>
      <trkpt lat="40.773453" lon="-3.872743">
        <ele>1614.750</ele>
        <time>2021-07-30T13:42:00Z</time>
      </trkpt>
      <trkpt lat="40.773466" lon="-3.872723">
        <ele>1615.342</ele>
        <time>2021-07-30T13:42:03Z</time>
      </trkpt>
      <trkpt lat="40.773472" lon="-3.872700">
        <ele>1615.879</ele>
        <time>2021-07-30T13:42:05Z</time>
      </trkpt>
      <trkpt lat="40.773478" lon="-3.872670">
        <ele>1616.356</ele>
        <time>2021-07-30T13:42:07Z</time>
      </trkpt>
      <trkpt lat="40.773488" lon="-3.872645">
        <ele>1616.897</ele>
        <time>2021-07-30T13:42:09Z</time>
      </trkpt>
      <trkpt lat="40.773498" lon="-3.872618">
        <ele>1617.267</ele>
        <time>2021-07-30T13:42:12Z</time>
      </trkpt>
      <trkpt lat="40.773520" lon="-3.872614">
        <ele>1617.241</ele>
        <time>2021-07-30T13:42:14Z</time>
      </trkpt>
      <trkpt lat="40.773549" lon="-3.872612">
        <ele>1617.338</ele>
        <time>2021-07-30T13:42:16Z</time>
      </trkpt>
      <trkpt lat="40.773565" lon="-3.872590">
        <ele>1617.485</ele>
        <time>2021-07-30T13:42:18Z</time>
      </trkpt>
      <trkpt lat="40.773568" lon="-3.872550">
        <ele>1617.589</ele>
        <time>2021-07-30T13:42:20Z</time>
      </trkpt>
      <trkpt lat="40.773568" lon="-3.872520">
        <ele>1617.617</ele>
        <time>2021-07-30T13:42:22Z</time>
      </trkpt>
      <trkpt lat="40.773568" lon="-3.872493">
        <ele>1617.608</ele>
        <time>2021-07-30T13:42:25Z</time>
      </trkpt>
      <trkpt lat="40.773584" lon="-3.872466">
        <ele>1617.165</ele>
        <time>2021-07-30T13:42:29Z</time>
      </trkpt>
      <trkpt lat="40.773587" lon="-3.872428">
        <ele>1616.857</ele>
        <time>2021-07-30T13:42:31Z</time>
      </trkpt>
      <trkpt lat="40.773584" lon="-3.872385">
        <ele>1616.444</ele>
        <time>2021-07-30T13:42:33Z</time>
      </trkpt>
      <trkpt lat="40.773574" lon="-3.872362">
        <ele>1616.341</ele>
        <time>2021-07-30T13:42:35Z</time>
      </trkpt>
      <trkpt lat="40.773574" lon="-3.872335">
        <ele>1616.182</ele>
        <time>2021-07-30T13:42:38Z</time>
      </trkpt>
      <trkpt lat="40.773594" lon="-3.872327">
        <ele>1615.982</ele>
        <time>2021-07-30T13:42:40Z</time>
      </trkpt>
      <trkpt lat="40.773606" lon="-3.872298">
        <ele>1615.696</ele>
        <time>2021-07-30T13:42:44Z</time>
      </trkpt>
      <trkpt lat="40.773584" lon="-3.872318">
        <ele>1615.913</ele>
        <time>2021-07-30T13:42:48Z</time>
      </trkpt>
      <trkpt lat="40.773613" lon="-3.872282">
        <ele>1615.463</ele>
        <time>2021-07-30T13:43:21Z</time>
      </trkpt>
      <trkpt lat="40.773613" lon="-3.872238">
        <ele>1615.144</ele>
        <time>2021-07-30T13:43:23Z</time>
      </trkpt>
      <trkpt lat="40.773606" lon="-3.872203">
        <ele>1614.918</ele>
        <time>2021-07-30T13:43:25Z</time>
      </trkpt>
      <trkpt lat="40.773590" lon="-3.872177">
        <ele>1614.708</ele>
        <time>2021-07-30T13:43:27Z</time>
      </trkpt>
      <trkpt lat="40.773590" lon="-3.872135">
        <ele>1614.393</ele>
        <time>2021-07-30T13:43:38Z</time>
      </trkpt>
      <trkpt lat="40.773578" lon="-3.872103">
        <ele>1613.965</ele>
        <time>2021-07-30T13:43:41Z</time>
      </trkpt>
      <trkpt lat="40.773578" lon="-3.872077">
        <ele>1613.642</ele>
        <time>2021-07-30T13:43:45Z</time>
      </trkpt>
      <trkpt lat="40.773578" lon="-3.872042">
        <ele>1613.369</ele>
        <time>2021-07-30T13:44:18Z</time>
      </trkpt>
      <trkpt lat="40.773578" lon="-3.872003">
        <ele>1612.950</ele>
        <time>2021-07-30T13:44:20Z</time>
      </trkpt>
      <trkpt lat="40.773587" lon="-3.871962">
        <ele>1612.650</ele>
        <time>2021-07-30T13:44:22Z</time>
      </trkpt>
      <trkpt lat="40.773594" lon="-3.871930">
        <ele>1612.564</ele>
        <time>2021-07-30T13:44:24Z</time>
      </trkpt>
      <trkpt lat="40.773613" lon="-3.871900">
        <ele>1612.681</ele>
        <time>2021-07-30T13:44:26Z</time>
      </trkpt>
      <trkpt lat="40.773629" lon="-3.871882">
        <ele>1612.797</ele>
        <time>2021-07-30T13:44:28Z</time>
      </trkpt>
      <trkpt lat="40.773626" lon="-3.871847">
        <ele>1612.323</ele>
        <time>2021-07-30T13:44:31Z</time>
      </trkpt>
      <trkpt lat="40.773600" lon="-3.871837">
        <ele>1611.625</ele>
        <time>2021-07-30T13:44:37Z</time>
      </trkpt>
      <trkpt lat="40.773584" lon="-3.871825">
        <ele>1611.008</ele>
        <time>2021-07-30T13:44:39Z</time>
      </trkpt>
      <trkpt lat="40.773565" lon="-3.871823">
        <ele>1610.546</ele>
        <time>2021-07-30T13:44:41Z</time>
      </trkpt>
      <trkpt lat="40.773546" lon="-3.871815">
        <ele>1609.968</ele>
        <time>2021-07-30T13:44:45Z</time>
      </trkpt>
      <trkpt lat="40.773520" lon="-3.871818">
        <ele>1609.215</ele>
        <time>2021-07-30T13:44:48Z</time>
      </trkpt>
      <trkpt lat="40.773498" lon="-3.871818">
        <ele>1608.662</ele>
        <time>2021-07-30T13:44:52Z</time>
      </trkpt>
      <trkpt lat="40.773475" lon="-3.871812">
        <ele>1607.923</ele>
        <time>2021-07-30T13:44:57Z</time>
      </trkpt>
      <trkpt lat="40.773459" lon="-3.871773">
        <ele>1606.883</ele>
        <time>2021-07-30T13:45:00Z</time>
      </trkpt>
      <trkpt lat="40.773440" lon="-3.871760">
        <ele>1606.117</ele>
        <time>2021-07-30T13:45:03Z</time>
      </trkpt>
      <trkpt lat="40.773418" lon="-3.871732">
        <ele>1604.954</ele>
        <time>2021-07-30T13:45:06Z</time>
      </trkpt>
      <trkpt lat="40.773402" lon="-3.871698">
        <ele>1603.837</ele>
        <time>2021-07-30T13:45:08Z</time>
      </trkpt>
      <trkpt lat="40.773376" lon="-3.871653">
        <ele>1602.349</ele>
        <time>2021-07-30T13:45:10Z</time>
      </trkpt>
      <trkpt lat="40.773386" lon="-3.871618">
        <ele>1602.513</ele>
        <time>2021-07-30T13:45:12Z</time>
      </trkpt>
      <trkpt lat="40.773379" lon="-3.871687">
        <ele>1602.908</ele>
        <time>2021-07-30T13:45:16Z</time>
      </trkpt>
      <trkpt lat="40.773360" lon="-3.871677">
        <ele>1602.140</ele>
        <time>2021-07-30T13:45:21Z</time>
      </trkpt>
      <trkpt lat="40.773373" lon="-3.871710">
        <ele>1603.222</ele>
        <time>2021-07-30T13:45:23Z</time>
      </trkpt>
      <trkpt lat="40.773395" lon="-3.871742">
        <ele>1604.489</ele>
        <time>2021-07-30T13:45:25Z</time>
      </trkpt>
      <trkpt lat="40.773418" lon="-3.871740">
        <ele>1605.166</ele>
        <time>2021-07-30T13:45:28Z</time>
      </trkpt>
      <trkpt lat="40.773430" lon="-3.871718">
        <ele>1605.097</ele>
        <time>2021-07-30T13:45:30Z</time>
      </trkpt>
      <trkpt lat="40.773421" lon="-3.871687">
        <ele>1604.247</ele>
        <time>2021-07-30T13:45:33Z</time>
      </trkpt>
      <trkpt lat="40.773398" lon="-3.871663">
        <ele>1603.121</ele>
        <time>2021-07-30T13:45:36Z</time>
      </trkpt>
      <trkpt lat="40.773376" lon="-3.871673">
        <ele>1602.518</ele>
        <time>2021-07-30T13:45:40Z</time>
      </trkpt>
      <trkpt lat="40.773395" lon="-3.871662">
        <ele>1603.063</ele>
        <time>2021-07-30T13:45:43Z</time>
      </trkpt>
      <trkpt lat="40.773370" lon="-3.871680">
        <ele>1602.544</ele>
        <time>2021-07-30T13:45:53Z</time>
      </trkpt>
      <trkpt lat="40.773354" lon="-3.871698">
        <ele>1602.318</ele>
        <time>2021-07-30T13:45:55Z</time>
      </trkpt>
      <trkpt lat="40.773341" lon="-3.871724">
        <ele>1602.508</ele>
        <time>2021-07-30T13:45:57Z</time>
      </trkpt>
      <trkpt lat="40.773328" lon="-3.871756">
        <ele>1602.863</ele>
        <time>2021-07-30T13:45:59Z</time>
      </trkpt>
      <trkpt lat="40.773315" lon="-3.871775">
        <ele>1603.085</ele>
        <time>2021-07-30T13:46:01Z</time>
      </trkpt>
      <trkpt lat="40.773296" lon="-3.871786">
        <ele>1603.042</ele>
        <time>2021-07-30T13:46:04Z</time>
      </trkpt>
      <trkpt lat="40.773280" lon="-3.871803">
        <ele>1603.189</ele>
        <time>2021-07-30T13:46:08Z</time>
      </trkpt>
      <trkpt lat="40.773267" lon="-3.871823">
        <ele>1603.340</ele>
        <time>2021-07-30T13:46:11Z</time>
      </trkpt>
      <trkpt lat="40.773267" lon="-3.871793">
        <ele>1602.780</ele>
        <time>2021-07-30T13:46:17Z</time>
      </trkpt>
      <trkpt lat="40.773277" lon="-3.871772">
        <ele>1602.494</ele>
        <time>2021-07-30T13:46:20Z</time>
      </trkpt>
      <trkpt lat="40.773277" lon="-3.871742">
        <ele>1601.851</ele>
        <time>2021-07-30T13:46:26Z</time>
      </trkpt>
      <trkpt lat="40.773258" lon="-3.871748">
        <ele>1601.617</ele>
        <time>2021-07-30T13:46:28Z</time>
      </trkpt>
      <trkpt lat="40.773238" lon="-3.871768">
        <ele>1601.787</ele>
        <time>2021-07-30T13:46:35Z</time>
      </trkpt>
      <trkpt lat="40.773219" lon="-3.871773">
        <ele>1601.515</ele>
        <time>2021-07-30T13:46:38Z</time>
      </trkpt>
      <trkpt lat="40.773206" lon="-3.871792">
        <ele>1601.708</ele>
        <time>2021-07-30T13:46:40Z</time>
      </trkpt>
      <trkpt lat="40.773181" lon="-3.871792">
        <ele>1601.358</ele>
        <time>2021-07-30T13:46:43Z</time>
      </trkpt>
      <trkpt lat="40.773155" lon="-3.871795">
        <ele>1600.930</ele>
        <time>2021-07-30T13:46:49Z</time>
      </trkpt>
      <trkpt lat="40.773136" lon="-3.871802">
        <ele>1600.787</ele>
        <time>2021-07-30T13:46:52Z</time>
      </trkpt>
      <trkpt lat="40.773114" lon="-3.871788">
        <ele>1600.144</ele>
        <time>2021-07-30T13:46:55Z</time>
      </trkpt>
      <trkpt lat="40.773098" lon="-3.871766">
        <ele>1599.515</ele>
        <time>2021-07-30T13:46:58Z</time>
      </trkpt>
      <trkpt lat="40.773082" lon="-3.871750">
        <ele>1598.915</ele>
        <time>2021-07-30T13:47:00Z</time>
      </trkpt>
      <trkpt lat="40.773062" lon="-3.871735">
        <ele>1598.389</ele>
        <time>2021-07-30T13:47:03Z</time>
      </trkpt>
      <trkpt lat="40.773053" lon="-3.871705">
        <ele>1597.676</ele>
        <time>2021-07-30T13:47:07Z</time>
      </trkpt>
      <trkpt lat="40.773053" lon="-3.871680">
        <ele>1597.198</ele>
        <time>2021-07-30T13:47:10Z</time>
      </trkpt>
      <trkpt lat="40.773037" lon="-3.871652">
        <ele>1596.115</ele>
        <time>2021-07-30T13:47:15Z</time>
      </trkpt>
      <trkpt lat="40.773021" lon="-3.871620">
        <ele>1594.926</ele>
        <time>2021-07-30T13:47:17Z</time>
      </trkpt>
      <trkpt lat="40.773021" lon="-3.871594">
        <ele>1594.408</ele>
        <time>2021-07-30T13:47:22Z</time>
      </trkpt>
      <trkpt lat="40.773034" lon="-3.871560">
        <ele>1594.316</ele>
        <time>2021-07-30T13:48:05Z</time>
      </trkpt>
      <trkpt lat="40.773050" lon="-3.871517">
        <ele>1594.158</ele>
        <time>2021-07-30T13:48:07Z</time>
      </trkpt>
      <trkpt lat="40.773059" lon="-3.871475">
        <ele>1593.615</ele>
        <time>2021-07-30T13:48:09Z</time>
      </trkpt>
      <trkpt lat="40.773059" lon="-3.871450">
        <ele>1593.212</ele>
        <time>2021-07-30T13:48:10Z</time>
      </trkpt>
      <trkpt lat="40.773059" lon="-3.871410">
        <ele>1592.583</ele>
        <time>2021-07-30T13:48:12Z</time>
      </trkpt>
      <trkpt lat="40.773059" lon="-3.871382">
        <ele>1592.073</ele>
        <time>2021-07-30T13:48:17Z</time>
      </trkpt>
      <trkpt lat="40.773059" lon="-3.871355">
        <ele>1591.667</ele>
        <time>2021-07-30T13:48:21Z</time>
      </trkpt>
      <trkpt lat="40.773050" lon="-3.871328">
        <ele>1590.954</ele>
        <time>2021-07-30T13:48:23Z</time>
      </trkpt>
      <trkpt lat="40.773056" lon="-3.871303">
        <ele>1590.831</ele>
        <time>2021-07-30T13:48:30Z</time>
      </trkpt>
      <trkpt lat="40.773034" lon="-3.871272">
        <ele>1589.461</ele>
        <time>2021-07-30T13:48:33Z</time>
      </trkpt>
      <trkpt lat="40.773018" lon="-3.871258">
        <ele>1588.607</ele>
        <time>2021-07-30T13:48:34Z</time>
      </trkpt>
      <trkpt lat="40.772998" lon="-3.871247">
        <ele>1587.608</ele>
        <time>2021-07-30T13:48:36Z</time>
      </trkpt>
      <trkpt lat="40.772979" lon="-3.871238">
        <ele>1586.610</ele>
        <time>2021-07-30T13:48:39Z</time>
      </trkpt>
      <trkpt lat="40.772963" lon="-3.871225">
        <ele>1585.862</ele>
        <time>2021-07-30T13:48:42Z</time>
      </trkpt>
      <trkpt lat="40.772944" lon="-3.871194">
        <ele>1584.599</ele>
        <time>2021-07-30T13:49:25Z</time>
      </trkpt>
      <trkpt lat="40.772931" lon="-3.871160">
        <ele>1583.486</ele>
        <time>2021-07-30T13:49:27Z</time>
      </trkpt>
      <trkpt lat="40.772918" lon="-3.871143">
        <ele>1582.677</ele>
        <time>2021-07-30T13:49:28Z</time>
      </trkpt>
      <trkpt lat="40.772902" lon="-3.871115">
        <ele>1581.467</ele>
        <time>2021-07-30T13:49:30Z</time>
      </trkpt>
      <trkpt lat="40.772893" lon="-3.871092">
        <ele>1580.981</ele>
        <time>2021-07-30T13:49:32Z</time>
      </trkpt>
      <trkpt lat="40.772874" lon="-3.871103">
        <ele>1580.148</ele>
        <time>2021-07-30T13:49:39Z</time>
      </trkpt>
      <trkpt lat="40.772854" lon="-3.871098">
        <ele>1579.337</ele>
        <time>2021-07-30T13:49:43Z</time>
      </trkpt>
      <trkpt lat="40.772835" lon="-3.871097">
        <ele>1578.549</ele>
        <time>2021-07-30T13:49:46Z</time>
      </trkpt>
      <trkpt lat="40.772816" lon="-3.871103">
        <ele>1577.613</ele>
        <time>2021-07-30T13:49:48Z</time>
      </trkpt>
      <trkpt lat="40.772803" lon="-3.871122">
        <ele>1577.308</ele>
        <time>2021-07-30T13:49:53Z</time>
      </trkpt>
      <trkpt lat="40.772784" lon="-3.871123">
        <ele>1576.560</ele>
        <time>2021-07-30T13:50:05Z</time>
      </trkpt>
      <trkpt lat="40.772765" lon="-3.871122">
        <ele>1575.822</ele>
        <time>2021-07-30T13:50:09Z</time>
      </trkpt>
      <trkpt lat="40.772746" lon="-3.871123">
        <ele>1575.369</ele>
        <time>2021-07-30T13:50:13Z</time>
      </trkpt>
      <trkpt lat="40.772733" lon="-3.871100">
        <ele>1574.856</ele>
        <time>2021-07-30T13:50:19Z</time>
      </trkpt>
      <trkpt lat="40.772736" lon="-3.871076">
        <ele>1575.017</ele>
        <time>2021-07-30T13:50:25Z</time>
      </trkpt>
      <trkpt lat="40.772733" lon="-3.871033">
        <ele>1575.177</ele>
        <time>2021-07-30T13:50:54Z</time>
      </trkpt>
      <trkpt lat="40.772723" lon="-3.870998">
        <ele>1575.181</ele>
        <time>2021-07-30T13:50:56Z</time>
      </trkpt>
      <trkpt lat="40.772726" lon="-3.870962">
        <ele>1575.468</ele>
        <time>2021-07-30T13:50:58Z</time>
      </trkpt>
      <trkpt lat="40.772733" lon="-3.870930">
        <ele>1575.794</ele>
        <time>2021-07-30T13:51:00Z</time>
      </trkpt>
      <trkpt lat="40.772720" lon="-3.870900">
        <ele>1575.857</ele>
        <time>2021-07-30T13:51:03Z</time>
      </trkpt>
      <trkpt lat="40.772739" lon="-3.870885">
        <ele>1575.922</ele>
        <time>2021-07-30T13:51:08Z</time>
      </trkpt>
      <trkpt lat="40.772758" lon="-3.870864">
        <ele>1576.008</ele>
        <time>2021-07-30T13:51:10Z</time>
      </trkpt>
      <trkpt lat="40.772774" lon="-3.870852">
        <ele>1576.066</ele>
        <time>2021-07-30T13:51:16Z</time>
      </trkpt>
      <trkpt lat="40.772762" lon="-3.870830">
        <ele>1576.288</ele>
        <time>2021-07-30T13:51:22Z</time>
      </trkpt>
      <trkpt lat="40.772710" lon="-3.870815">
        <ele>1576.975</ele>
        <time>2021-07-30T13:51:29Z</time>
      </trkpt>
      <trkpt lat="40.772723" lon="-3.870792">
        <ele>1577.692</ele>
        <time>2021-07-30T13:51:30Z</time>
      </trkpt>
      <trkpt lat="40.772781" lon="-3.870800">
        <ele>1577.213</ele>
        <time>2021-07-30T13:51:32Z</time>
      </trkpt>
      <trkpt lat="40.772800" lon="-3.870803">
        <ele>1577.713</ele>
        <time>2021-07-30T13:51:33Z</time>
      </trkpt>
      <trkpt lat="40.772816" lon="-3.870788">
        <ele>1578.737</ele>
        <time>2021-07-30T13:51:34Z</time>
      </trkpt>
      <trkpt lat="40.772832" lon="-3.870770">
        <ele>1579.774</ele>
        <time>2021-07-30T13:51:38Z</time>
      </trkpt>
      <trkpt lat="40.772851" lon="-3.870765">
        <ele>1580.474</ele>
        <time>2021-07-30T13:51:41Z</time>
      </trkpt>
      <trkpt lat="40.772864" lon="-3.870735">
        <ele>1581.556</ele>
        <time>2021-07-30T13:51:44Z</time>
      </trkpt>
      <trkpt lat="40.772877" lon="-3.870708">
        <ele>1582.521</ele>
        <time>2021-07-30T13:51:46Z</time>
      </trkpt>
      <trkpt lat="40.772896" lon="-3.870688">
        <ele>1583.408</ele>
        <time>2021-07-30T13:51:49Z</time>
      </trkpt>
      <trkpt lat="40.772909" lon="-3.870670">
        <ele>1584.124</ele>
        <time>2021-07-30T13:52:03Z</time>
      </trkpt>
      <trkpt lat="40.772931" lon="-3.870695">
        <ele>1584.116</ele>
        <time>2021-07-30T13:52:07Z</time>
      </trkpt>
      <trkpt lat="40.772950" lon="-3.870674">
        <ele>1584.983</ele>
        <time>2021-07-30T13:52:11Z</time>
      </trkpt>
      <trkpt lat="40.772963" lon="-3.870650">
        <ele>1585.580</ele>
        <time>2021-07-30T13:52:14Z</time>
      </trkpt>
      <trkpt lat="40.772982" lon="-3.870635">
        <ele>1586.141</ele>
        <time>2021-07-30T13:52:17Z</time>
      </trkpt>
      <trkpt lat="40.772992" lon="-3.870612">
        <ele>1586.611</ele>
        <time>2021-07-30T13:52:21Z</time>
      </trkpt>
      <trkpt lat="40.773011" lon="-3.870577">
        <ele>1587.395</ele>
        <time>2021-07-30T13:52:25Z</time>
      </trkpt>
      <trkpt lat="40.773018" lon="-3.870552">
        <ele>1587.762</ele>
        <time>2021-07-30T13:52:27Z</time>
      </trkpt>
      <trkpt lat="40.773034" lon="-3.870540">
        <ele>1588.043</ele>
        <time>2021-07-30T13:52:32Z</time>
      </trkpt>
      <trkpt lat="40.773056" lon="-3.870528">
        <ele>1588.464</ele>
        <time>2021-07-30T13:52:36Z</time>
      </trkpt>
      <trkpt lat="40.773069" lon="-3.870502">
        <ele>1589.410</ele>
        <time>2021-07-30T13:52:41Z</time>
      </trkpt>
      <trkpt lat="40.773088" lon="-3.870508">
        <ele>1590.208</ele>
        <time>2021-07-30T13:52:46Z</time>
      </trkpt>
      <trkpt lat="40.773101" lon="-3.870477">
        <ele>1591.251</ele>
        <time>2021-07-30T13:52:50Z</time>
      </trkpt>
      <trkpt lat="40.773120" lon="-3.870465">
        <ele>1592.283</ele>
        <time>2021-07-30T13:52:51Z</time>
      </trkpt>
      <trkpt lat="40.773123" lon="-3.870440">
        <ele>1592.780</ele>
        <time>2021-07-30T13:52:53Z</time>
      </trkpt>
      <trkpt lat="40.773130" lon="-3.870405">
        <ele>1593.357</ele>
        <time>2021-07-30T13:52:55Z</time>
      </trkpt>
      <trkpt lat="40.773152" lon="-3.870388">
        <ele>1594.498</ele>
        <time>2021-07-30T13:52:57Z</time>
      </trkpt>
      <trkpt lat="40.773168" lon="-3.870402">
        <ele>1595.068</ele>
        <time>2021-07-30T13:53:02Z</time>
      </trkpt>
      <trkpt lat="40.773142" lon="-3.870380">
        <ele>1594.112</ele>
        <time>2021-07-30T13:53:05Z</time>
      </trkpt>
      <trkpt lat="40.773136" lon="-3.870336">
        <ele>1594.349</ele>
        <time>2021-07-30T13:53:37Z</time>
      </trkpt>
      <trkpt lat="40.773142" lon="-3.870308">
        <ele>1594.867</ele>
        <time>2021-07-30T13:53:42Z</time>
      </trkpt>
      <trkpt lat="40.773149" lon="-3.870273">
        <ele>1595.481</ele>
        <time>2021-07-30T13:53:44Z</time>
      </trkpt>
      <trkpt lat="40.773133" lon="-3.870248">
        <ele>1595.319</ele>
        <time>2021-07-30T13:53:47Z</time>
      </trkpt>
      <trkpt lat="40.773117" lon="-3.870237">
        <ele>1595.108</ele>
        <time>2021-07-30T13:53:51Z</time>
      </trkpt>
      <trkpt lat="40.773101" lon="-3.870223">
        <ele>1594.933</ele>
        <time>2021-07-30T13:53:53Z</time>
      </trkpt>
      <trkpt lat="40.773088" lon="-3.870206">
        <ele>1594.975</ele>
        <time>2021-07-30T13:53:57Z</time>
      </trkpt>
      <trkpt lat="40.773075" lon="-3.870188">
        <ele>1595.172</ele>
        <time>2021-07-30T13:54:00Z</time>
      </trkpt>
      <trkpt lat="40.773062" lon="-3.870172">
        <ele>1595.259</ele>
        <time>2021-07-30T13:54:04Z</time>
      </trkpt>
      <trkpt lat="40.773082" lon="-3.870160">
        <ele>1595.940</ele>
        <time>2021-07-30T13:54:10Z</time>
      </trkpt>
      <trkpt lat="40.773101" lon="-3.870142">
        <ele>1596.780</ele>
        <time>2021-07-30T13:54:15Z</time>
      </trkpt>
      <trkpt lat="40.773117" lon="-3.870120">
        <ele>1597.554</ele>
        <time>2021-07-30T13:54:17Z</time>
      </trkpt>
      <trkpt lat="40.773101" lon="-3.870107">
        <ele>1597.541</ele>
        <time>2021-07-30T13:54:19Z</time>
      </trkpt>
      <trkpt lat="40.773101" lon="-3.870075">
        <ele>1598.369</ele>
        <time>2021-07-30T13:54:25Z</time>
      </trkpt>
      <trkpt lat="40.773120" lon="-3.870053">
        <ele>1598.904</ele>
        <time>2021-07-30T13:54:29Z</time>
      </trkpt>
      <trkpt lat="40.773142" lon="-3.870052">
        <ele>1599.124</ele>
        <time>2021-07-30T13:54:33Z</time>
      </trkpt>
      <trkpt lat="40.773158" lon="-3.870033">
        <ele>1599.508</ele>
        <time>2021-07-30T13:54:37Z</time>
      </trkpt>
      <trkpt lat="40.773168" lon="-3.870005">
        <ele>1599.933</ele>
        <time>2021-07-30T13:54:40Z</time>
      </trkpt>
      <trkpt lat="40.773187" lon="-3.869992">
        <ele>1600.295</ele>
        <time>2021-07-30T13:54:43Z</time>
      </trkpt>
      <trkpt lat="40.773210" lon="-3.870008">
        <ele>1599.952</ele>
        <time>2021-07-30T13:54:45Z</time>
      </trkpt>
      <trkpt lat="40.773190" lon="-3.870020">
        <ele>1599.899</ele>
        <time>2021-07-30T13:55:00Z</time>
      </trkpt>
      <trkpt lat="40.773174" lon="-3.870040">
        <ele>1599.510</ele>
        <time>2021-07-30T13:55:03Z</time>
      </trkpt>
      <trkpt lat="40.773197" lon="-3.870030">
        <ele>1599.740</ele>
        <time>2021-07-30T13:55:57Z</time>
      </trkpt>
      <trkpt lat="40.773219" lon="-3.870006">
        <ele>1600.034</ele>
        <time>2021-07-30T13:55:59Z</time>
      </trkpt>
      <trkpt lat="40.773235" lon="-3.869985">
        <ele>1600.361</ele>
        <time>2021-07-30T13:56:01Z</time>
      </trkpt>
      <trkpt lat="40.773251" lon="-3.869967">
        <ele>1600.651</ele>
        <time>2021-07-30T13:56:02Z</time>
      </trkpt>
      <trkpt lat="40.773261" lon="-3.869945">
        <ele>1601.001</ele>
        <time>2021-07-30T13:56:04Z</time>
      </trkpt>
      <trkpt lat="40.773270" lon="-3.869917">
        <ele>1601.411</ele>
        <time>2021-07-30T13:56:06Z</time>
      </trkpt>
      <trkpt lat="40.773290" lon="-3.869908">
        <ele>1601.408</ele>
        <time>2021-07-30T13:56:10Z</time>
      </trkpt>
      <trkpt lat="40.773299" lon="-3.869882">
        <ele>1601.742</ele>
        <time>2021-07-30T13:56:14Z</time>
      </trkpt>
      <trkpt lat="40.773312" lon="-3.869852">
        <ele>1601.994</ele>
        <time>2021-07-30T13:56:17Z</time>
      </trkpt>
      <trkpt lat="40.773328" lon="-3.869830">
        <ele>1601.951</ele>
        <time>2021-07-30T13:56:20Z</time>
      </trkpt>
      <trkpt lat="40.773334" lon="-3.869818">
        <ele>1602.028</ele>
        <time>2021-07-30T13:56:22Z</time>
      </trkpt>
      <trkpt lat="40.773350" lon="-3.869792">
        <ele>1602.459</ele>
        <time>2021-07-30T13:56:27Z</time>
      </trkpt>
      <trkpt lat="40.773366" lon="-3.869765">
        <ele>1602.879</ele>
        <time>2021-07-30T13:56:29Z</time>
      </trkpt>
      <trkpt lat="40.773386" lon="-3.869740">
        <ele>1603.213</ele>
        <time>2021-07-30T13:56:32Z</time>
      </trkpt>
      <trkpt lat="40.773395" lon="-3.869718">
        <ele>1603.590</ele>
        <time>2021-07-30T13:56:36Z</time>
      </trkpt>
      <trkpt lat="40.773418" lon="-3.869698">
        <ele>1604.225</ele>
        <time>2021-07-30T13:56:39Z</time>
      </trkpt>
      <trkpt lat="40.773427" lon="-3.869670">
        <ele>1604.926</ele>
        <time>2021-07-30T13:56:42Z</time>
      </trkpt>
      <trkpt lat="40.773434" lon="-3.869640">
        <ele>1605.608</ele>
        <time>2021-07-30T13:56:45Z</time>
      </trkpt>
      <trkpt lat="40.773450" lon="-3.869620">
        <ele>1606.008</ele>
        <time>2021-07-30T13:56:49Z</time>
      </trkpt>
      <trkpt lat="40.773446" lon="-3.869595">
        <ele>1606.529</ele>
        <time>2021-07-30T13:56:52Z</time>
      </trkpt>
      <trkpt lat="40.773466" lon="-3.869578">
        <ele>1606.981</ele>
        <time>2021-07-30T13:56:55Z</time>
      </trkpt>
      <trkpt lat="40.773485" lon="-3.869573">
        <ele>1606.918</ele>
        <time>2021-07-30T13:56:57Z</time>
      </trkpt>
      <trkpt lat="40.773494" lon="-3.869550">
        <ele>1607.355</ele>
        <time>2021-07-30T13:57:03Z</time>
      </trkpt>
      <trkpt lat="40.773510" lon="-3.869537">
        <ele>1607.526</ele>
        <time>2021-07-30T13:57:06Z</time>
      </trkpt>
      <trkpt lat="40.773517" lon="-3.869513">
        <ele>1607.976</ele>
        <time>2021-07-30T13:57:10Z</time>
      </trkpt>
      <trkpt lat="40.773536" lon="-3.869500">
        <ele>1607.990</ele>
        <time>2021-07-30T13:57:16Z</time>
      </trkpt>
      <trkpt lat="40.773552" lon="-3.869488">
        <ele>1608.097</ele>
        <time>2021-07-30T13:57:20Z</time>
      </trkpt>
      <trkpt lat="40.773571" lon="-3.869484">
        <ele>1607.923</ele>
        <time>2021-07-30T13:57:22Z</time>
      </trkpt>
      <trkpt lat="40.773594" lon="-3.869488">
        <ele>1607.783</ele>
        <time>2021-07-30T13:57:25Z</time>
      </trkpt>
      <trkpt lat="40.773619" lon="-3.869470">
        <ele>1607.811</ele>
        <time>2021-07-30T13:57:30Z</time>
      </trkpt>
      <trkpt lat="40.773645" lon="-3.869457">
        <ele>1608.208</ele>
        <time>2021-07-30T13:57:32Z</time>
      </trkpt>
      <trkpt lat="40.773664" lon="-3.869432">
        <ele>1608.959</ele>
        <time>2021-07-30T13:57:35Z</time>
      </trkpt>
      <trkpt lat="40.773683" lon="-3.869417">
        <ele>1609.441</ele>
        <time>2021-07-30T13:57:37Z</time>
      </trkpt>
      <trkpt lat="40.773706" lon="-3.869425">
        <ele>1609.428</ele>
        <time>2021-07-30T13:57:40Z</time>
      </trkpt>
      <trkpt lat="40.773725" lon="-3.869403">
        <ele>1610.135</ele>
        <time>2021-07-30T13:57:43Z</time>
      </trkpt>
      <trkpt lat="40.773747" lon="-3.869398">
        <ele>1610.476</ele>
        <time>2021-07-30T13:57:45Z</time>
      </trkpt>
      <trkpt lat="40.773766" lon="-3.869382">
        <ele>1610.946</ele>
        <time>2021-07-30T13:57:47Z</time>
      </trkpt>
      <trkpt lat="40.773782" lon="-3.869365">
        <ele>1611.340</ele>
        <time>2021-07-30T13:57:50Z</time>
      </trkpt>
      <trkpt lat="40.773798" lon="-3.869343">
        <ele>1611.877</ele>
        <time>2021-07-30T13:57:53Z</time>
      </trkpt>
      <trkpt lat="40.773814" lon="-3.869357">
        <ele>1611.724</ele>
        <time>2021-07-30T13:57:59Z</time>
      </trkpt>
      <trkpt lat="40.773830" lon="-3.869373">
        <ele>1611.604</ele>
        <time>2021-07-30T13:58:02Z</time>
      </trkpt>
      <trkpt lat="40.773843" lon="-3.869353">
        <ele>1612.014</ele>
        <time>2021-07-30T13:58:05Z</time>
      </trkpt>
      <trkpt lat="40.773862" lon="-3.869335">
        <ele>1612.408</ele>
        <time>2021-07-30T13:58:08Z</time>
      </trkpt>
      <trkpt lat="40.773882" lon="-3.869338">
        <ele>1612.539</ele>
        <time>2021-07-30T13:58:09Z</time>
      </trkpt>
      <trkpt lat="40.773904" lon="-3.869342">
        <ele>1612.881</ele>
        <time>2021-07-30T13:58:11Z</time>
      </trkpt>
      <trkpt lat="40.773930" lon="-3.869332">
        <ele>1613.548</ele>
        <time>2021-07-30T13:58:13Z</time>
      </trkpt>
      <trkpt lat="40.773942" lon="-3.869313">
        <ele>1614.055</ele>
        <time>2021-07-30T13:58:15Z</time>
      </trkpt>
      <trkpt lat="40.773955" lon="-3.869295">
        <ele>1614.466</ele>
        <time>2021-07-30T13:58:18Z</time>
      </trkpt>
      <trkpt lat="40.773978" lon="-3.869292">
        <ele>1614.966</ele>
        <time>2021-07-30T13:58:24Z</time>
      </trkpt>
      <trkpt lat="40.774010" lon="-3.869278">
        <ele>1615.740</ele>
        <time>2021-07-30T13:58:26Z</time>
      </trkpt>
      <trkpt lat="40.774026" lon="-3.869290">
        <ele>1615.937</ele>
        <time>2021-07-30T13:58:30Z</time>
      </trkpt>
      <trkpt lat="40.774045" lon="-3.869290">
        <ele>1616.232</ele>
        <time>2021-07-30T13:58:32Z</time>
      </trkpt>
      <trkpt lat="40.774067" lon="-3.869275">
        <ele>1616.892</ele>
        <time>2021-07-30T13:58:36Z</time>
      </trkpt>
      <trkpt lat="40.774051" lon="-3.869264">
        <ele>1616.511</ele>
        <time>2021-07-30T13:58:40Z</time>
      </trkpt>
      <trkpt lat="40.774051" lon="-3.869230">
        <ele>1616.808</ele>
        <time>2021-07-30T13:58:42Z</time>
      </trkpt>
      <trkpt lat="40.774051" lon="-3.869187">
        <ele>1617.220</ele>
        <time>2021-07-30T13:58:44Z</time>
      </trkpt>
      <trkpt lat="40.774051" lon="-3.869155">
        <ele>1617.532</ele>
        <time>2021-07-30T13:58:46Z</time>
      </trkpt>
      <trkpt lat="40.774064" lon="-3.869134">
        <ele>1617.859</ele>
        <time>2021-07-30T13:58:48Z</time>
      </trkpt>
      <trkpt lat="40.774090" lon="-3.869120">
        <ele>1618.376</ele>
        <time>2021-07-30T13:58:52Z</time>
      </trkpt>
      <trkpt lat="40.774106" lon="-3.869104">
        <ele>1618.787</ele>
        <time>2021-07-30T13:58:54Z</time>
      </trkpt>
      <trkpt lat="40.774134" lon="-3.869102">
        <ele>1619.087</ele>
        <time>2021-07-30T13:58:56Z</time>
      </trkpt>
      <trkpt lat="40.774160" lon="-3.869085">
        <ele>1619.581</ele>
        <time>2021-07-30T13:58:59Z</time>
      </trkpt>
      <trkpt lat="40.774160" lon="-3.869060">
        <ele>1619.798</ele>
        <time>2021-07-30T13:59:01Z</time>
      </trkpt>
      <trkpt lat="40.774173" lon="-3.869037">
        <ele>1620.142</ele>
        <time>2021-07-30T13:59:05Z</time>
      </trkpt>
      <trkpt lat="40.774173" lon="-3.869012">
        <ele>1620.322</ele>
        <time>2021-07-30T13:59:09Z</time>
      </trkpt>
      <trkpt lat="40.774186" lon="-3.868988">
        <ele>1620.714</ele>
        <time>2021-07-30T13:59:14Z</time>
      </trkpt>
      <trkpt lat="40.774173" lon="-3.868962">
        <ele>1620.608</ele>
        <time>2021-07-30T13:59:16Z</time>
      </trkpt>
      <trkpt lat="40.774186" lon="-3.868932">
        <ele>1621.121</ele>
        <time>2021-07-30T13:59:17Z</time>
      </trkpt>
      <trkpt lat="40.774202" lon="-3.868918">
        <ele>1621.513</ele>
        <time>2021-07-30T13:59:19Z</time>
      </trkpt>
      <trkpt lat="40.774224" lon="-3.868914">
        <ele>1621.930</ele>
        <time>2021-07-30T13:59:21Z</time>
      </trkpt>
      <trkpt lat="40.774243" lon="-3.868907">
        <ele>1622.367</ele>
        <time>2021-07-30T13:59:26Z</time>
      </trkpt>
      <trkpt lat="40.774262" lon="-3.868903">
        <ele>1622.738</ele>
        <time>2021-07-30T13:59:31Z</time>
      </trkpt>
      <trkpt lat="40.774285" lon="-3.868893">
        <ele>1623.188</ele>
        <time>2021-07-30T13:59:35Z</time>
      </trkpt>
      <trkpt lat="40.774304" lon="-3.868907">
        <ele>1623.532</ele>
        <time>2021-07-30T13:59:38Z</time>
      </trkpt>
      <trkpt lat="40.774320" lon="-3.868920">
        <ele>1623.869</ele>
        <time>2021-07-30T13:59:41Z</time>
      </trkpt>
      <trkpt lat="40.774346" lon="-3.868903">
        <ele>1624.319</ele>
        <time>2021-07-30T13:59:45Z</time>
      </trkpt>
      <trkpt lat="40.774330" lon="-3.868877">
        <ele>1624.109</ele>
        <time>2021-07-30T13:59:50Z</time>
      </trkpt>
      <trkpt lat="40.774330" lon="-3.868838">
        <ele>1624.519</ele>
        <time>2021-07-30T13:59:53Z</time>
      </trkpt>
      <trkpt lat="40.774342" lon="-3.868818">
        <ele>1624.908</ele>
        <time>2021-07-30T13:59:55Z</time>
      </trkpt>
      <trkpt lat="40.774320" lon="-3.868830">
        <ele>1624.558</ele>
        <time>2021-07-30T14:00:01Z</time>
      </trkpt>
      <trkpt lat="40.774330" lon="-3.868805">
        <ele>1624.980</ele>
        <time>2021-07-30T14:00:08Z</time>
      </trkpt>
      <trkpt lat="40.774358" lon="-3.868810">
        <ele>1625.317</ele>
        <time>2021-07-30T14:00:14Z</time>
      </trkpt>
      <trkpt lat="40.774371" lon="-3.868784">
        <ele>1625.784</ele>
        <time>2021-07-30T14:00:17Z</time>
      </trkpt>
      <trkpt lat="40.774371" lon="-3.868758">
        <ele>1626.085</ele>
        <time>2021-07-30T14:00:19Z</time>
      </trkpt>
      <trkpt lat="40.774381" lon="-3.868732">
        <ele>1626.445</ele>
        <time>2021-07-30T14:00:21Z</time>
      </trkpt>
      <trkpt lat="40.774400" lon="-3.868713">
        <ele>1626.819</ele>
        <time>2021-07-30T14:00:25Z</time>
      </trkpt>
      <trkpt lat="40.774419" lon="-3.868698">
        <ele>1627.146</ele>
        <time>2021-07-30T14:00:30Z</time>
      </trkpt>
      <trkpt lat="40.774438" lon="-3.868672">
        <ele>1627.551</ele>
        <time>2021-07-30T14:00:33Z</time>
      </trkpt>
      <trkpt lat="40.774448" lon="-3.868635">
        <ele>1627.901</ele>
        <time>2021-07-30T14:00:35Z</time>
      </trkpt>
      <trkpt lat="40.774458" lon="-3.868603">
        <ele>1628.411</ele>
        <time>2021-07-30T14:00:39Z</time>
      </trkpt>
      <trkpt lat="40.774486" lon="-3.868596">
        <ele>1629.208</ele>
        <time>2021-07-30T14:00:43Z</time>
      </trkpt>
      <trkpt lat="40.774499" lon="-3.868613">
        <ele>1629.252</ele>
        <time>2021-07-30T14:00:46Z</time>
      </trkpt>
      <trkpt lat="40.774522" lon="-3.868616">
        <ele>1629.724</ele>
        <time>2021-07-30T14:00:53Z</time>
      </trkpt>
      <trkpt lat="40.774538" lon="-3.868602">
        <ele>1630.261</ele>
        <time>2021-07-30T14:00:55Z</time>
      </trkpt>
      <trkpt lat="40.774557" lon="-3.868590">
        <ele>1630.868</ele>
        <time>2021-07-30T14:00:57Z</time>
      </trkpt>
      <trkpt lat="40.774557" lon="-3.868558">
        <ele>1631.349</ele>
        <time>2021-07-30T14:00:59Z</time>
      </trkpt>
      <trkpt lat="40.774557" lon="-3.868530">
        <ele>1631.829</ele>
        <time>2021-07-30T14:01:01Z</time>
      </trkpt>
      <trkpt lat="40.774579" lon="-3.868533">
        <ele>1632.223</ele>
        <time>2021-07-30T14:01:05Z</time>
      </trkpt>
      <trkpt lat="40.774589" lon="-3.868495">
        <ele>1633.090</ele>
        <time>2021-07-30T14:01:08Z</time>
      </trkpt>
      <trkpt lat="40.774582" lon="-3.868470">
        <ele>1633.356</ele>
        <time>2021-07-30T14:01:18Z</time>
      </trkpt>
      <trkpt lat="40.774582" lon="-3.868432">
        <ele>1633.959</ele>
        <time>2021-07-30T14:01:21Z</time>
      </trkpt>
      <trkpt lat="40.774586" lon="-3.868407">
        <ele>1634.414</ele>
        <time>2021-07-30T14:01:25Z</time>
      </trkpt>
      <trkpt lat="40.774592" lon="-3.868370">
        <ele>1635.108</ele>
        <time>2021-07-30T14:01:30Z</time>
      </trkpt>
      <trkpt lat="40.774598" lon="-3.868337">
        <ele>1635.722</ele>
        <time>2021-07-30T14:01:32Z</time>
      </trkpt>
      <trkpt lat="40.774608" lon="-3.868302">
        <ele>1636.534</ele>
        <time>2021-07-30T14:01:36Z</time>
      </trkpt>
      <trkpt lat="40.774630" lon="-3.868290">
        <ele>1637.071</ele>
        <time>2021-07-30T14:01:41Z</time>
      </trkpt>
      <trkpt lat="40.774653" lon="-3.868300">
        <ele>1637.248</ele>
        <time>2021-07-30T14:01:43Z</time>
      </trkpt>
      <trkpt lat="40.774682" lon="-3.868293">
        <ele>1637.879</ele>
        <time>2021-07-30T14:01:45Z</time>
      </trkpt>
      <trkpt lat="40.774701" lon="-3.868268">
        <ele>1638.449</ele>
        <time>2021-07-30T14:01:48Z</time>
      </trkpt>
      <trkpt lat="40.774723" lon="-3.868230">
        <ele>1639.193</ele>
        <time>2021-07-30T14:01:52Z</time>
      </trkpt>
      <trkpt lat="40.774742" lon="-3.868232">
        <ele>1639.690</ele>
        <time>2021-07-30T14:01:53Z</time>
      </trkpt>
      <trkpt lat="40.774758" lon="-3.868218">
        <ele>1640.296</ele>
        <time>2021-07-30T14:01:57Z</time>
      </trkpt>
      <trkpt lat="40.774778" lon="-3.868210">
        <ele>1640.831</ele>
        <time>2021-07-30T14:02:04Z</time>
      </trkpt>
      <trkpt lat="40.774749" lon="-3.868153">
        <ele>1640.624</ele>
        <time>2021-07-30T14:03:34Z</time>
      </trkpt>
      <trkpt lat="40.774749" lon="-3.868125">
        <ele>1640.908</ele>
        <time>2021-07-30T14:03:36Z</time>
      </trkpt>
      <trkpt lat="40.774765" lon="-3.868096">
        <ele>1641.536</ele>
        <time>2021-07-30T14:03:38Z</time>
      </trkpt>
      <trkpt lat="40.774768" lon="-3.868070">
        <ele>1641.838</ele>
        <time>2021-07-30T14:03:40Z</time>
      </trkpt>
      <trkpt lat="40.774778" lon="-3.868042">
        <ele>1642.485</ele>
        <time>2021-07-30T14:03:42Z</time>
      </trkpt>
      <trkpt lat="40.774784" lon="-3.868017">
        <ele>1642.942</ele>
        <time>2021-07-30T14:03:44Z</time>
      </trkpt>
      <trkpt lat="40.774781" lon="-3.867993">
        <ele>1643.323</ele>
        <time>2021-07-30T14:03:47Z</time>
      </trkpt>
      <trkpt lat="40.774787" lon="-3.867970">
        <ele>1643.793</ele>
        <time>2021-07-30T14:03:51Z</time>
      </trkpt>
      <trkpt lat="40.774800" lon="-3.867948">
        <ele>1644.327</ele>
        <time>2021-07-30T14:03:55Z</time>
      </trkpt>
      <trkpt lat="40.774806" lon="-3.867923">
        <ele>1644.844</ele>
        <time>2021-07-30T14:03:58Z</time>
      </trkpt>
      <trkpt lat="40.774826" lon="-3.867913">
        <ele>1645.228</ele>
        <time>2021-07-30T14:04:02Z</time>
      </trkpt>
      <trkpt lat="40.774838" lon="-3.867938">
        <ele>1645.189</ele>
        <time>2021-07-30T14:04:05Z</time>
      </trkpt>
      <trkpt lat="40.774858" lon="-3.867945">
        <ele>1645.317</ele>
        <time>2021-07-30T14:04:08Z</time>
      </trkpt>
      <trkpt lat="40.774883" lon="-3.867930">
        <ele>1645.908</ele>
        <time>2021-07-30T14:04:10Z</time>
      </trkpt>
      <trkpt lat="40.774899" lon="-3.867918">
        <ele>1646.379</ele>
        <time>2021-07-30T14:04:11Z</time>
      </trkpt>
      <trkpt lat="40.774915" lon="-3.867905">
        <ele>1646.761</ele>
        <time>2021-07-30T14:04:16Z</time>
      </trkpt>
      <trkpt lat="40.774938" lon="-3.867875">
        <ele>1647.468</ele>
        <time>2021-07-30T14:04:21Z</time>
      </trkpt>
      <trkpt lat="40.774963" lon="-3.867865">
        <ele>1647.825</ele>
        <time>2021-07-30T14:04:27Z</time>
      </trkpt>
      <trkpt lat="40.774982" lon="-3.867852">
        <ele>1648.226</ele>
        <time>2021-07-30T14:04:29Z</time>
      </trkpt>
      <trkpt lat="40.774998" lon="-3.867840">
        <ele>1648.586</ele>
        <time>2021-07-30T14:04:32Z</time>
      </trkpt>
      <trkpt lat="40.775014" lon="-3.867813">
        <ele>1649.030</ele>
        <time>2021-07-30T14:04:38Z</time>
      </trkpt>
      <trkpt lat="40.775037" lon="-3.867802">
        <ele>1649.667</ele>
        <time>2021-07-30T14:04:43Z</time>
      </trkpt>
      <trkpt lat="40.775056" lon="-3.867783">
        <ele>1650.253</ele>
        <time>2021-07-30T14:04:46Z</time>
      </trkpt>
      <trkpt lat="40.775059" lon="-3.867752">
        <ele>1650.904</ele>
        <time>2021-07-30T14:04:51Z</time>
      </trkpt>
      <trkpt lat="40.775056" lon="-3.867724">
        <ele>1651.414</ele>
        <time>2021-07-30T14:04:55Z</time>
      </trkpt>
      <trkpt lat="40.775050" lon="-3.867694">
        <ele>1652.008</ele>
        <time>2021-07-30T14:04:59Z</time>
      </trkpt>
      <trkpt lat="40.775040" lon="-3.867673">
        <ele>1652.392</ele>
        <time>2021-07-30T14:05:02Z</time>
      </trkpt>
      <trkpt lat="40.775037" lon="-3.867647">
        <ele>1652.944</ele>
        <time>2021-07-30T14:05:06Z</time>
      </trkpt>
      <trkpt lat="40.775024" lon="-3.867627">
        <ele>1653.221</ele>
        <time>2021-07-30T14:05:09Z</time>
      </trkpt>
      <trkpt lat="40.775024" lon="-3.867598">
        <ele>1653.928</ele>
        <time>2021-07-30T14:05:13Z</time>
      </trkpt>
      <trkpt lat="40.775027" lon="-3.867570">
        <ele>1654.629</ele>
        <time>2021-07-30T14:05:16Z</time>
      </trkpt>
      <trkpt lat="40.775043" lon="-3.867548">
        <ele>1655.369</ele>
        <time>2021-07-30T14:05:20Z</time>
      </trkpt>
      <trkpt lat="40.775059" lon="-3.867533">
        <ele>1655.943</ele>
        <time>2021-07-30T14:05:24Z</time>
      </trkpt>
      <trkpt lat="40.775075" lon="-3.867522">
        <ele>1656.380</ele>
        <time>2021-07-30T14:05:27Z</time>
      </trkpt>
      <trkpt lat="40.775094" lon="-3.867505">
        <ele>1656.963</ele>
        <time>2021-07-30T14:05:31Z</time>
      </trkpt>
      <trkpt lat="40.775114" lon="-3.867498">
        <ele>1657.344</ele>
        <time>2021-07-30T14:05:33Z</time>
      </trkpt>
      <trkpt lat="40.775133" lon="-3.867490">
        <ele>1657.718</ele>
        <time>2021-07-30T14:05:36Z</time>
      </trkpt>
      <trkpt lat="40.775149" lon="-3.867478">
        <ele>1658.308</ele>
        <time>2021-07-30T14:05:40Z</time>
      </trkpt>
      <trkpt lat="40.775168" lon="-3.867467">
        <ele>1658.883</ele>
        <time>2021-07-30T14:05:42Z</time>
      </trkpt>
      <trkpt lat="40.775187" lon="-3.867457">
        <ele>1659.295</ele>
        <time>2021-07-30T14:05:45Z</time>
      </trkpt>
      <trkpt lat="40.775213" lon="-3.867458">
        <ele>1659.422</ele>
        <time>2021-07-30T14:05:49Z</time>
      </trkpt>
      <trkpt lat="40.775226" lon="-3.867428">
        <ele>1660.219</ele>
        <time>2021-07-30T14:06:24Z</time>
      </trkpt>
      <trkpt lat="40.775238" lon="-3.867408">
        <ele>1660.830</ele>
        <time>2021-07-30T14:06:25Z</time>
      </trkpt>
      <trkpt lat="40.775245" lon="-3.867374">
        <ele>1661.610</ele>
        <time>2021-07-30T14:06:27Z</time>
      </trkpt>
      <trkpt lat="40.775254" lon="-3.867338">
        <ele>1662.534</ele>
        <time>2021-07-30T14:06:29Z</time>
      </trkpt>
      <trkpt lat="40.775258" lon="-3.867300">
        <ele>1663.421</ele>
        <time>2021-07-30T14:06:31Z</time>
      </trkpt>
      <trkpt lat="40.775261" lon="-3.867275">
        <ele>1663.987</ele>
        <time>2021-07-30T14:06:32Z</time>
      </trkpt>
      <trkpt lat="40.775254" lon="-3.867250">
        <ele>1664.542</ele>
        <time>2021-07-30T14:06:34Z</time>
      </trkpt>
      <trkpt lat="40.775235" lon="-3.867233">
        <ele>1665.026</ele>
        <time>2021-07-30T14:06:38Z</time>
      </trkpt>
      <trkpt lat="40.775226" lon="-3.867198">
        <ele>1665.808</ele>
        <time>2021-07-30T14:06:43Z</time>
      </trkpt>
      <trkpt lat="40.775219" lon="-3.867175">
        <ele>1666.335</ele>
        <time>2021-07-30T14:06:46Z</time>
      </trkpt>
      <trkpt lat="40.775213" lon="-3.867152">
        <ele>1666.857</ele>
        <time>2021-07-30T14:06:53Z</time>
      </trkpt>
      <trkpt lat="40.775226" lon="-3.867175">
        <ele>1666.334</ele>
        <time>2021-07-30T14:07:12Z</time>
      </trkpt>
      <trkpt lat="40.775206" lon="-3.867180">
        <ele>1666.341</ele>
        <time>2021-07-30T14:07:20Z</time>
      </trkpt>
      <trkpt lat="40.775197" lon="-3.867143">
        <ele>1667.092</ele>
        <time>2021-07-30T14:07:25Z</time>
      </trkpt>
      <trkpt lat="40.775200" lon="-3.867107">
        <ele>1667.772</ele>
        <time>2021-07-30T14:07:29Z</time>
      </trkpt>
      <trkpt lat="40.775200" lon="-3.867077">
        <ele>1668.376</ele>
        <time>2021-07-30T14:07:32Z</time>
      </trkpt>
      <trkpt lat="40.775197" lon="-3.867053">
        <ele>1668.773</ele>
        <time>2021-07-30T14:07:34Z</time>
      </trkpt>
      <trkpt lat="40.775187" lon="-3.867032">
        <ele>1669.164</ele>
        <time>2021-07-30T14:07:38Z</time>
      </trkpt>
      <trkpt lat="40.775181" lon="-3.867004">
        <ele>1669.606</ele>
        <time>2021-07-30T14:07:41Z</time>
      </trkpt>
      <trkpt lat="40.775178" lon="-3.866978">
        <ele>1670.016</ele>
        <time>2021-07-30T14:07:47Z</time>
      </trkpt>
      <trkpt lat="40.775197" lon="-3.866960">
        <ele>1670.408</ele>
        <time>2021-07-30T14:07:54Z</time>
      </trkpt>
      <trkpt lat="40.775200" lon="-3.866935">
        <ele>1670.933</ele>
        <time>2021-07-30T14:07:57Z</time>
      </trkpt>
      <trkpt lat="40.775203" lon="-3.866903">
        <ele>1671.725</ele>
        <time>2021-07-30T14:08:00Z</time>
      </trkpt>
      <trkpt lat="40.775219" lon="-3.866888">
        <ele>1672.292</ele>
        <time>2021-07-30T14:08:02Z</time>
      </trkpt>
      <trkpt lat="40.775226" lon="-3.866862">
        <ele>1672.989</ele>
        <time>2021-07-30T14:08:05Z</time>
      </trkpt>
      <trkpt lat="40.775216" lon="-3.866835">
        <ele>1673.490</ele>
        <time>2021-07-30T14:08:08Z</time>
      </trkpt>
      <trkpt lat="40.775206" lon="-3.866808">
        <ele>1673.970</ele>
        <time>2021-07-30T14:08:10Z</time>
      </trkpt>
      <trkpt lat="40.775200" lon="-3.866780">
        <ele>1674.544</ele>
        <time>2021-07-30T14:08:13Z</time>
      </trkpt>
      <trkpt lat="40.775181" lon="-3.866770">
        <ele>1674.421</ele>
        <time>2021-07-30T14:08:16Z</time>
      </trkpt>
      <trkpt lat="40.775162" lon="-3.866765">
        <ele>1674.184</ele>
        <time>2021-07-30T14:08:20Z</time>
      </trkpt>
      <trkpt lat="40.775142" lon="-3.866760">
        <ele>1673.907</ele>
        <time>2021-07-30T14:08:23Z</time>
      </trkpt>
      <trkpt lat="40.775142" lon="-3.866723">
        <ele>1674.617</ele>
        <time>2021-07-30T14:08:27Z</time>
      </trkpt>
      <trkpt lat="40.775146" lon="-3.866698">
        <ele>1675.108</ele>
        <time>2021-07-30T14:08:38Z</time>
      </trkpt>
      <trkpt lat="40.775158" lon="-3.866670">
        <ele>1675.985</ele>
        <time>2021-07-30T14:08:42Z</time>
      </trkpt>
      <trkpt lat="40.775165" lon="-3.866640">
        <ele>1676.477</ele>
        <time>2021-07-30T14:08:45Z</time>
      </trkpt>
      <trkpt lat="40.775168" lon="-3.866610">
        <ele>1676.854</ele>
        <time>2021-07-30T14:08:48Z</time>
      </trkpt>
      <trkpt lat="40.775174" lon="-3.866580">
        <ele>1677.351</ele>
        <time>2021-07-30T14:08:51Z</time>
      </trkpt>
      <trkpt lat="40.775174" lon="-3.866543">
        <ele>1677.742</ele>
        <time>2021-07-30T14:08:54Z</time>
      </trkpt>
      <trkpt lat="40.775178" lon="-3.866515">
        <ele>1678.142</ele>
        <time>2021-07-30T14:08:57Z</time>
      </trkpt>
      <trkpt lat="40.775168" lon="-3.866478">
        <ele>1678.356</ele>
        <time>2021-07-30T14:09:00Z</time>
      </trkpt>
      <trkpt lat="40.775174" lon="-3.866454">
        <ele>1678.763</ele>
        <time>2021-07-30T14:09:03Z</time>
      </trkpt>
      <trkpt lat="40.775174" lon="-3.866427">
        <ele>1679.092</ele>
        <time>2021-07-30T14:09:05Z</time>
      </trkpt>
      <trkpt lat="40.775174" lon="-3.866397">
        <ele>1679.373</ele>
        <time>2021-07-30T14:09:07Z</time>
      </trkpt>
      <trkpt lat="40.775178" lon="-3.866370">
        <ele>1679.720</ele>
        <time>2021-07-30T14:09:11Z</time>
      </trkpt>
      <trkpt lat="40.775197" lon="-3.866363">
        <ele>1680.208</ele>
        <time>2021-07-30T14:09:15Z</time>
      </trkpt>
      <trkpt lat="40.775219" lon="-3.866348">
        <ele>1681.096</ele>
        <time>2021-07-30T14:09:19Z</time>
      </trkpt>
      <trkpt lat="40.775238" lon="-3.866350">
        <ele>1681.428</ele>
        <time>2021-07-30T14:09:23Z</time>
      </trkpt>
      <trkpt lat="40.775261" lon="-3.866342">
        <ele>1682.115</ele>
        <time>2021-07-30T14:09:27Z</time>
      </trkpt>
      <trkpt lat="40.775283" lon="-3.866333">
        <ele>1682.742</ele>
        <time>2021-07-30T14:09:31Z</time>
      </trkpt>
      <trkpt lat="40.775302" lon="-3.866332">
        <ele>1683.333</ele>
        <time>2021-07-30T14:09:35Z</time>
      </trkpt>
      <trkpt lat="40.775318" lon="-3.866317">
        <ele>1683.983</ele>
        <time>2021-07-30T14:09:38Z</time>
      </trkpt>
      <trkpt lat="40.775328" lon="-3.866275">
        <ele>1684.677</ele>
        <time>2021-07-30T14:10:11Z</time>
      </trkpt>
      <trkpt lat="40.775338" lon="-3.866248">
        <ele>1685.384</ele>
        <time>2021-07-30T14:10:13Z</time>
      </trkpt>
      <trkpt lat="40.775357" lon="-3.866183">
        <ele>1686.615</ele>
        <time>2021-07-30T14:10:19Z</time>
      </trkpt>
      <trkpt lat="40.775347" lon="-3.866162">
        <ele>1686.665</ele>
        <time>2021-07-30T14:10:26Z</time>
      </trkpt>
      <trkpt lat="40.775354" lon="-3.866093">
        <ele>1687.611</ele>
        <time>2021-07-30T14:11:06Z</time>
      </trkpt>
      <trkpt lat="40.775373" lon="-3.866102">
        <ele>1688.208</ele>
        <time>2021-07-30T14:11:08Z</time>
      </trkpt>
      <trkpt lat="40.775392" lon="-3.866113">
        <ele>1688.758</ele>
        <time>2021-07-30T14:11:11Z</time>
      </trkpt>
      <trkpt lat="40.775411" lon="-3.866126">
        <ele>1689.170</ele>
        <time>2021-07-30T14:11:14Z</time>
      </trkpt>
      <trkpt lat="40.775437" lon="-3.866138">
        <ele>1689.837</ele>
        <time>2021-07-30T14:11:19Z</time>
      </trkpt>
      <trkpt lat="40.775456" lon="-3.866130">
        <ele>1690.574</ele>
        <time>2021-07-30T14:11:22Z</time>
      </trkpt>
      <trkpt lat="40.775472" lon="-3.866142">
        <ele>1690.815</ele>
        <time>2021-07-30T14:11:27Z</time>
      </trkpt>
      <trkpt lat="40.775491" lon="-3.866140">
        <ele>1691.455</ele>
        <time>2021-07-30T14:11:30Z</time>
      </trkpt>
      <trkpt lat="40.775510" lon="-3.866145">
        <ele>1692.089</ele>
        <time>2021-07-30T14:11:33Z</time>
      </trkpt>
      <trkpt lat="40.775533" lon="-3.866150">
        <ele>1692.686</ele>
        <time>2021-07-30T14:11:37Z</time>
      </trkpt>
      <trkpt lat="40.775555" lon="-3.866145">
        <ele>1693.473</ele>
        <time>2021-07-30T14:11:42Z</time>
      </trkpt>
      <trkpt lat="40.775571" lon="-3.866128">
        <ele>1694.185</ele>
        <time>2021-07-30T14:11:46Z</time>
      </trkpt>
      <trkpt lat="40.775594" lon="-3.866113">
        <ele>1695.113</ele>
        <time>2021-07-30T14:11:50Z</time>
      </trkpt>
      <trkpt lat="40.775613" lon="-3.866115">
        <ele>1695.608</ele>
        <time>2021-07-30T14:11:59Z</time>
      </trkpt>
      <trkpt lat="40.775635" lon="-3.866108">
        <ele>1696.364</ele>
        <time>2021-07-30T14:12:04Z</time>
      </trkpt>
      <trkpt lat="40.775651" lon="-3.866093">
        <ele>1697.046</ele>
        <time>2021-07-30T14:12:08Z</time>
      </trkpt>
      <trkpt lat="40.775670" lon="-3.866075">
        <ele>1697.953</ele>
        <time>2021-07-30T14:12:13Z</time>
      </trkpt>
      <trkpt lat="40.775693" lon="-3.866072">
        <ele>1698.610</ele>
        <time>2021-07-30T14:12:32Z</time>
      </trkpt>
      <trkpt lat="40.775718" lon="-3.866072">
        <ele>1699.351</ele>
        <time>2021-07-30T14:12:34Z</time>
      </trkpt>
      <trkpt lat="40.775741" lon="-3.866068">
        <ele>1700.121</ele>
        <time>2021-07-30T14:12:36Z</time>
      </trkpt>
      <trkpt lat="40.775763" lon="-3.866060">
        <ele>1700.855</ele>
        <time>2021-07-30T14:12:39Z</time>
      </trkpt>
      <trkpt lat="40.775776" lon="-3.866040">
        <ele>1701.622</ele>
        <time>2021-07-30T14:12:43Z</time>
      </trkpt>
      <trkpt lat="40.775795" lon="-3.866035">
        <ele>1702.259</ele>
        <time>2021-07-30T14:12:46Z</time>
      </trkpt>
      <trkpt lat="40.775811" lon="-3.866022">
        <ele>1702.903</ele>
        <time>2021-07-30T14:12:52Z</time>
      </trkpt>
      <trkpt lat="40.775808" lon="-3.866050">
        <ele>1702.323</ele>
        <time>2021-07-30T14:12:56Z</time>
      </trkpt>
      <trkpt lat="40.775821" lon="-3.866075">
        <ele>1702.308</ele>
        <time>2021-07-30T14:12:58Z</time>
      </trkpt>
      <trkpt lat="40.775824" lon="-3.866102">
        <ele>1701.912</ele>
        <time>2021-07-30T14:13:01Z</time>
      </trkpt>
      <trkpt lat="40.775837" lon="-3.866126">
        <ele>1701.744</ele>
        <time>2021-07-30T14:13:05Z</time>
      </trkpt>
      <trkpt lat="40.775856" lon="-3.866122">
        <ele>1702.111</ele>
        <time>2021-07-30T14:13:14Z</time>
      </trkpt>
      <trkpt lat="40.775859" lon="-3.866145">
        <ele>1701.618</ele>
        <time>2021-07-30T14:13:19Z</time>
      </trkpt>
      <trkpt lat="40.775875" lon="-3.866156">
        <ele>1701.659</ele>
        <time>2021-07-30T14:13:24Z</time>
      </trkpt>
      <trkpt lat="40.775869" lon="-3.866133">
        <ele>1702.049</ele>
        <time>2021-07-30T14:13:30Z</time>
      </trkpt>
      <trkpt lat="40.775840" lon="-3.866150">
        <ele>1701.213</ele>
        <time>2021-07-30T14:13:33Z</time>
      </trkpt>
      <trkpt lat="40.775850" lon="-3.866183">
        <ele>1700.770</ele>
        <time>2021-07-30T14:13:35Z</time>
      </trkpt>
      <trkpt lat="40.775869" lon="-3.866215">
        <ele>1700.283</ele>
        <time>2021-07-30T14:14:18Z</time>
      </trkpt>
      <trkpt lat="40.775875" lon="-3.866238">
        <ele>1699.725</ele>
        <time>2021-07-30T14:14:24Z</time>
      </trkpt>
      <trkpt lat="40.775856" lon="-3.866217">
        <ele>1700.017</ele>
        <time>2021-07-30T14:14:32Z</time>
      </trkpt>
      <trkpt lat="40.775834" lon="-3.866193">
        <ele>1700.208</ele>
        <time>2021-07-30T14:14:34Z</time>
      </trkpt>
      <trkpt lat="40.775875" lon="-3.866182">
        <ele>1701.045</ele>
        <time>2021-07-30T14:14:41Z</time>
      </trkpt>
      <trkpt lat="40.775859" lon="-3.866165">
        <ele>1701.247</ele>
        <time>2021-07-30T14:14:48Z</time>
      </trkpt>
      <trkpt lat="40.775882" lon="-3.866162">
        <ele>1701.544</ele>
        <time>2021-07-30T14:14:54Z</time>
      </trkpt>
      <trkpt lat="40.775859" lon="-3.866178">
        <ele>1700.981</ele>
        <time>2021-07-30T14:15:06Z</time>
      </trkpt>
      <trkpt lat="40.775840" lon="-3.866193">
        <ele>1700.332</ele>
        <time>2021-07-30T14:15:10Z</time>
      </trkpt>
      <trkpt lat="40.775862" lon="-3.866207">
        <ele>1700.382</ele>
        <time>2021-07-30T14:15:14Z</time>
      </trkpt>
      <trkpt lat="40.775843" lon="-3.866200">
        <ele>1700.216</ele>
        <time>2021-07-30T14:15:15Z</time>
      </trkpt>
      <trkpt lat="40.775862" lon="-3.866173">
        <ele>1701.023</ele>
        <time>2021-07-30T14:15:43Z</time>
      </trkpt>
      <trkpt lat="40.775888" lon="-3.866170">
        <ele>1701.482</ele>
        <time>2021-07-30T14:15:47Z</time>
      </trkpt>
      <trkpt lat="40.775914" lon="-3.866178">
        <ele>1701.643</ele>
        <time>2021-07-30T14:15:51Z</time>
      </trkpt>
      <trkpt lat="40.775914" lon="-3.866207">
        <ele>1700.917</ele>
        <time>2021-07-30T14:15:57Z</time>
      </trkpt>
      <trkpt lat="40.775894" lon="-3.866228">
        <ele>1700.208</ele>
        <time>2021-07-30T14:15:59Z</time>
      </trkpt>
      <trkpt lat="40.775878" lon="-3.866242">
        <ele>1699.735</ele>
        <time>2021-07-30T14:16:01Z</time>
      </trkpt>
      <trkpt lat="40.775888" lon="-3.866267">
        <ele>1699.247</ele>
        <time>2021-07-30T14:16:03Z</time>
      </trkpt>
      <trkpt lat="40.775907" lon="-3.866250">
        <ele>1699.844</ele>
        <time>2021-07-30T14:16:06Z</time>
      </trkpt>
      <trkpt lat="40.775930" lon="-3.866248">
        <ele>1700.131</ele>
        <time>2021-07-30T14:16:08Z</time>
      </trkpt>
      <trkpt lat="40.775910" lon="-3.866263">
        <ele>1699.592</ele>
        <time>2021-07-30T14:16:11Z</time>
      </trkpt>
      <trkpt lat="40.775882" lon="-3.866280">
        <ele>1698.882</ele>
        <time>2021-07-30T14:16:12Z</time>
      </trkpt>
      <trkpt lat="40.775888" lon="-3.866243">
        <ele>1699.836</ele>
        <time>2021-07-30T14:16:15Z</time>
      </trkpt>
      <trkpt lat="40.775910" lon="-3.866240">
        <ele>1700.113</ele>
        <time>2021-07-30T14:16:16Z</time>
      </trkpt>
      <trkpt lat="40.775933" lon="-3.866247">
        <ele>1700.136</ele>
        <time>2021-07-30T14:16:17Z</time>
      </trkpt>
      <trkpt lat="40.775958" lon="-3.866265">
        <ele>1700.017</ele>
        <time>2021-07-30T14:16:18Z</time>
      </trkpt>
      <trkpt lat="40.775990" lon="-3.866288">
        <ele>1699.718</ele>
        <time>2021-07-30T14:16:19Z</time>
      </trkpt>
      <trkpt lat="40.776013" lon="-3.866305">
        <ele>1699.508</ele>
        <time>2021-07-30T14:16:20Z</time>
      </trkpt>
      <trkpt lat="40.776029" lon="-3.866318">
        <ele>1699.340</ele>
        <time>2021-07-30T14:16:21Z</time>
      </trkpt>
      <trkpt lat="40.776058" lon="-3.866328">
        <ele>1699.372</ele>
        <time>2021-07-30T14:16:23Z</time>
      </trkpt>
      <trkpt lat="40.776090" lon="-3.866332">
        <ele>1699.599</ele>
        <time>2021-07-30T14:16:25Z</time>
      </trkpt>
      <trkpt lat="40.776115" lon="-3.866314">
        <ele>1700.326</ele>
        <time>2021-07-30T14:16:27Z</time>
      </trkpt>
      <trkpt lat="40.776112" lon="-3.866290">
        <ele>1700.977</ele>
        <time>2021-07-30T14:16:29Z</time>
      </trkpt>
      <trkpt lat="40.776112" lon="-3.866265">
        <ele>1701.637</ele>
        <time>2021-07-30T14:16:30Z</time>
      </trkpt>
      <trkpt lat="40.776090" lon="-3.866242">
        <ele>1702.051</ele>
        <time>2021-07-30T14:16:34Z</time>
      </trkpt>
      <trkpt lat="40.776016" lon="-3.866227">
        <ele>1701.628</ele>
        <time>2021-07-30T14:16:41Z</time>
      </trkpt>
      <trkpt lat="40.775981" lon="-3.866205">
        <ele>1701.717</ele>
        <time>2021-07-30T14:16:43Z</time>
      </trkpt>
      <trkpt lat="40.776016" lon="-3.866183">
        <ele>1702.787</ele>
        <time>2021-07-30T14:16:44Z</time>
      </trkpt>
      <trkpt lat="40.776032" lon="-3.866170">
        <ele>1703.315</ele>
        <time>2021-07-30T14:16:45Z</time>
      </trkpt>
      <trkpt lat="40.776013" lon="-3.866166">
        <ele>1703.108</ele>
        <time>2021-07-30T14:16:46Z</time>
      </trkpt>
      <trkpt lat="40.776013" lon="-3.866135">
        <ele>1704.098</ele>
        <time>2021-07-30T14:16:48Z</time>
      </trkpt>
      <trkpt lat="40.775987" lon="-3.866146">
        <ele>1703.380</ele>
        <time>2021-07-30T14:16:51Z</time>
      </trkpt>
      <trkpt lat="40.776003" lon="-3.866172">
        <ele>1702.997</ele>
        <time>2021-07-30T14:16:53Z</time>
      </trkpt>
      <trkpt lat="40.776029" lon="-3.866173">
        <ele>1703.244</ele>
        <time>2021-07-30T14:16:55Z</time>
      </trkpt>
      <trkpt lat="40.776058" lon="-3.866177">
        <ele>1703.425</ele>
        <time>2021-07-30T14:16:57Z</time>
      </trkpt>
      <trkpt lat="40.776035" lon="-3.866192">
        <ele>1702.765</ele>
        <time>2021-07-30T14:17:01Z</time>
      </trkpt>
      <trkpt lat="40.776003" lon="-3.866166">
        <ele>1703.039</ele>
        <time>2021-07-30T14:17:09Z</time>
      </trkpt>
      <trkpt lat="40.775917" lon="-3.866132">
        <ele>1702.726</ele>
        <time>2021-07-30T14:17:33Z</time>
      </trkpt>
      <trkpt lat="40.775875" lon="-3.866188">
        <ele>1700.949</ele>
        <time>2021-07-30T14:17:35Z</time>
      </trkpt>
      <trkpt lat="40.775898" lon="-3.866210">
        <ele>1700.602</ele>
        <time>2021-07-30T14:17:39Z</time>
      </trkpt>
      <trkpt lat="40.775920" lon="-3.866198">
        <ele>1701.222</ele>
        <time>2021-07-30T14:17:42Z</time>
      </trkpt>
      <trkpt lat="40.775933" lon="-3.866178">
        <ele>1701.808</ele>
        <time>2021-07-30T14:17:44Z</time>
      </trkpt>
      <trkpt lat="40.775936" lon="-3.866148">
        <ele>1702.661</ele>
        <time>2021-07-30T14:17:56Z</time>
      </trkpt>
      <trkpt lat="40.775936" lon="-3.866123">
        <ele>1703.283</ele>
        <time>2021-07-30T14:18:00Z</time>
      </trkpt>
      <trkpt lat="40.775939" lon="-3.866098">
        <ele>1703.890</ele>
        <time>2021-07-30T14:18:05Z</time>
      </trkpt>
      <trkpt lat="40.775939" lon="-3.866072">
        <ele>1704.477</ele>
        <time>2021-07-30T14:18:08Z</time>
      </trkpt>
      <trkpt lat="40.775939" lon="-3.866038">
        <ele>1705.218</ele>
        <time>2021-07-30T14:18:13Z</time>
      </trkpt>
      <trkpt lat="40.775930" lon="-3.866017">
        <ele>1705.638</ele>
        <time>2021-07-30T14:18:21Z</time>
      </trkpt>
      <trkpt lat="40.775933" lon="-3.865992">
        <ele>1706.232</ele>
        <time>2021-07-30T14:18:26Z</time>
      </trkpt>
      <trkpt lat="40.775942" lon="-3.865968">
        <ele>1706.929</ele>
        <time>2021-07-30T14:18:33Z</time>
      </trkpt>
      <trkpt lat="40.775933" lon="-3.865942">
        <ele>1707.412</ele>
        <time>2021-07-30T14:18:38Z</time>
      </trkpt>
      <trkpt lat="40.775949" lon="-3.865927">
        <ele>1708.132</ele>
        <time>2021-07-30T14:18:41Z</time>
      </trkpt>
      <trkpt lat="40.775955" lon="-3.865900">
        <ele>1708.905</ele>
        <time>2021-07-30T14:18:46Z</time>
      </trkpt>
      <trkpt lat="40.775974" lon="-3.865863">
        <ele>1710.308</ele>
        <time>2021-07-30T14:18:51Z</time>
      </trkpt>
      <trkpt lat="40.775974" lon="-3.865835">
        <ele>1711.068</ele>
        <time>2021-07-30T14:18:57Z</time>
      </trkpt>
      <trkpt lat="40.775994" lon="-3.865825">
        <ele>1712.080</ele>
        <time>2021-07-30T14:19:02Z</time>
      </trkpt>
      <trkpt lat="40.775974" lon="-3.865823">
        <ele>1711.557</ele>
        <time>2021-07-30T14:19:05Z</time>
      </trkpt>
      <trkpt lat="40.775955" lon="-3.865818">
        <ele>1711.114</ele>
        <time>2021-07-30T14:19:09Z</time>
      </trkpt>
      <trkpt lat="40.775936" lon="-3.865750">
        <ele>1712.975</ele>
        <time>2021-07-30T14:20:19Z</time>
      </trkpt>
      <trkpt lat="40.775952" lon="-3.865723">
        <ele>1714.665</ele>
        <time>2021-07-30T14:20:21Z</time>
      </trkpt>
      <trkpt lat="40.775962" lon="-3.865688">
        <ele>1716.399</ele>
        <time>2021-07-30T14:20:23Z</time>
      </trkpt>
      <trkpt lat="40.775971" lon="-3.865663">
        <ele>1717.776</ele>
        <time>2021-07-30T14:20:24Z</time>
      </trkpt>
      <trkpt lat="40.775974" lon="-3.865630">
        <ele>1719.134</ele>
        <time>2021-07-30T14:20:27Z</time>
      </trkpt>
      <trkpt lat="40.775974" lon="-3.865602">
        <ele>1720.355</ele>
        <time>2021-07-30T14:20:30Z</time>
      </trkpt>
      <trkpt lat="40.775955" lon="-3.865608">
        <ele>1719.010</ele>
        <time>2021-07-30T14:21:04Z</time>
      </trkpt>
      <trkpt lat="40.775939" lon="-3.865597">
        <ele>1718.608</ele>
        <time>2021-07-30T14:21:06Z</time>
      </trkpt>
      <trkpt lat="40.775917" lon="-3.865582">
        <ele>1717.990</ele>
        <time>2021-07-30T14:21:09Z</time>
      </trkpt>
      <trkpt lat="40.775891" lon="-3.865580">
        <ele>1716.642</ele>
        <time>2021-07-30T14:21:11Z</time>
      </trkpt>
      <trkpt lat="40.775875" lon="-3.865563">
        <ele>1716.299</ele>
        <time>2021-07-30T14:21:17Z</time>
      </trkpt>
      <trkpt lat="40.775853" lon="-3.865558">
        <ele>1715.196</ele>
        <time>2021-07-30T14:21:20Z</time>
      </trkpt>
      <trkpt lat="40.775834" lon="-3.865540">
        <ele>1714.597</ele>
        <time>2021-07-30T14:21:25Z</time>
      </trkpt>
      <trkpt lat="40.775821" lon="-3.865523">
        <ele>1714.677</ele>
        <time>2021-07-30T14:21:27Z</time>
      </trkpt>
      <trkpt lat="40.775811" lon="-3.865495">
        <ele>1715.141</ele>
        <time>2021-07-30T14:21:31Z</time>
      </trkpt>
      <trkpt lat="40.775802" lon="-3.865466">
        <ele>1715.748</ele>
        <time>2021-07-30T14:21:34Z</time>
      </trkpt>
      <trkpt lat="40.775795" lon="-3.865443">
        <ele>1716.125</ele>
        <time>2021-07-30T14:21:37Z</time>
      </trkpt>
      <trkpt lat="40.775779" lon="-3.865426">
        <ele>1716.026</ele>
        <time>2021-07-30T14:21:40Z</time>
      </trkpt>
      <trkpt lat="40.775770" lon="-3.865398">
        <ele>1716.408</ele>
        <time>2021-07-30T14:21:45Z</time>
      </trkpt>
      <trkpt lat="40.775760" lon="-3.865373">
        <ele>1716.808</ele>
        <time>2021-07-30T14:21:52Z</time>
      </trkpt>
      <trkpt lat="40.775760" lon="-3.865347">
        <ele>1717.589</ele>
        <time>2021-07-30T14:21:55Z</time>
      </trkpt>
      <trkpt lat="40.775750" lon="-3.865317">
        <ele>1718.051</ele>
        <time>2021-07-30T14:22:01Z</time>
      </trkpt>
      <trkpt lat="40.775731" lon="-3.865320">
        <ele>1717.098</ele>
        <time>2021-07-30T14:22:07Z</time>
      </trkpt>
      <trkpt lat="40.775750" lon="-3.865312">
        <ele>1718.195</ele>
        <time>2021-07-30T14:22:13Z</time>
      </trkpt>
      <trkpt lat="40.775744" lon="-3.865288">
        <ele>1718.566</ele>
        <time>2021-07-30T14:22:20Z</time>
      </trkpt>
      <trkpt lat="40.775754" lon="-3.865232">
        <ele>1721.296</ele>
        <time>2021-07-30T14:23:03Z</time>
      </trkpt>
      <trkpt lat="40.775744" lon="-3.865210">
        <ele>1721.630</ele>
        <time>2021-07-30T14:23:04Z</time>
      </trkpt>
      <trkpt lat="40.775750" lon="-3.865183">
        <ele>1723.087</ele>
        <time>2021-07-30T14:23:07Z</time>
      </trkpt>
      <trkpt lat="40.775738" lon="-3.865155">
        <ele>1723.598</ele>
        <time>2021-07-30T14:23:09Z</time>
      </trkpt>
      <trkpt lat="40.775741" lon="-3.865123">
        <ele>1725.015</ele>
        <time>2021-07-30T14:23:12Z</time>
      </trkpt>
      <trkpt lat="40.775754" lon="-3.865102">
        <ele>1726.526</ele>
        <time>2021-07-30T14:23:19Z</time>
      </trkpt>
      <trkpt lat="40.775744" lon="-3.865073">
        <ele>1727.208</ele>
        <time>2021-07-30T14:23:25Z</time>
      </trkpt>
      <trkpt lat="40.775763" lon="-3.865066">
        <ele>1728.536</ele>
        <time>2021-07-30T14:23:27Z</time>
      </trkpt>
      <trkpt lat="40.775782" lon="-3.865072">
        <ele>1729.218</ele>
        <time>2021-07-30T14:23:28Z</time>
      </trkpt>
      <trkpt lat="40.775811" lon="-3.865066">
        <ele>1731.085</ele>
        <time>2021-07-30T14:23:30Z</time>
      </trkpt>
      <trkpt lat="40.775837" lon="-3.865075">
        <ele>1731.952</ele>
        <time>2021-07-30T14:23:35Z</time>
      </trkpt>
      <trkpt lat="40.775811" lon="-3.865072">
        <ele>1730.733</ele>
        <time>2021-07-30T14:23:40Z</time>
      </trkpt>
      <trkpt lat="40.775770" lon="-3.865057">
        <ele>1729.263</ele>
        <time>2021-07-30T14:23:43Z</time>
      </trkpt>
      <trkpt lat="40.775744" lon="-3.865055">
        <ele>1727.967</ele>
        <time>2021-07-30T14:23:45Z</time>
      </trkpt>
      <trkpt lat="40.775658" lon="-3.865070">
        <ele>1722.854</ele>
        <time>2021-07-30T14:23:48Z</time>
      </trkpt>
      <trkpt lat="40.775626" lon="-3.865076">
        <ele>1720.912</ele>
        <time>2021-07-30T14:23:51Z</time>
      </trkpt>
      <trkpt lat="40.775597" lon="-3.865083">
        <ele>1719.232</ele>
        <time>2021-07-30T14:23:53Z</time>
      </trkpt>
      <trkpt lat="40.775539" lon="-3.865063">
        <ele>1716.405</ele>
        <time>2021-07-30T14:24:09Z</time>
      </trkpt>
      <trkpt lat="40.775523" lon="-3.865048">
        <ele>1715.608</ele>
        <time>2021-07-30T14:24:12Z</time>
      </trkpt>
      <trkpt lat="40.775552" lon="-3.865044">
        <ele>1718.158</ele>
        <time>2021-07-30T14:24:14Z</time>
      </trkpt>
      <trkpt lat="40.775562" lon="-3.865070">
        <ele>1717.880</ele>
        <time>2021-07-30T14:24:17Z</time>
      </trkpt>
      <trkpt lat="40.775603" lon="-3.865066">
        <ele>1720.197</ele>
        <time>2021-07-30T14:24:18Z</time>
      </trkpt>
      <trkpt lat="40.775645" lon="-3.865065">
        <ele>1722.334</ele>
        <time>2021-07-30T14:24:19Z</time>
      </trkpt>
      <trkpt lat="40.775664" lon="-3.865078">
        <ele>1722.835</ele>
        <time>2021-07-30T14:24:20Z</time>
      </trkpt>
      <trkpt lat="40.775683" lon="-3.865088">
        <ele>1723.475</ele>
        <time>2021-07-30T14:24:22Z</time>
      </trkpt>
      <trkpt lat="40.775712" lon="-3.865090">
        <ele>1724.819</ele>
        <time>2021-07-30T14:24:24Z</time>
      </trkpt>
      <trkpt lat="40.775731" lon="-3.865073">
        <ele>1726.556</ele>
        <time>2021-07-30T14:24:28Z</time>
      </trkpt>
      <trkpt lat="40.775754" lon="-3.865063">
        <ele>1728.158</ele>
        <time>2021-07-30T14:24:59Z</time>
      </trkpt>
      <trkpt lat="40.775754" lon="-3.865037">
        <ele>1729.252</ele>
        <time>2021-07-30T14:25:06Z</time>
      </trkpt>
      <trkpt lat="40.775734" lon="-3.865028">
        <ele>1728.517</ele>
        <time>2021-07-30T14:25:10Z</time>
      </trkpt>
      <trkpt lat="40.775715" lon="-3.865054">
        <ele>1726.408</ele>
        <time>2021-07-30T14:25:35Z</time>
      </trkpt>
      <trkpt lat="40.775722" lon="-3.865025">
        <ele>1728.062</ele>
        <time>2021-07-30T14:25:39Z</time>
      </trkpt>
      <trkpt lat="40.775725" lon="-3.864995">
        <ele>1729.324</ele>
        <time>2021-07-30T14:25:44Z</time>
      </trkpt>
      <trkpt lat="40.775702" lon="-3.864998">
        <ele>1728.021</ele>
        <time>2021-07-30T14:25:49Z</time>
      </trkpt>
      <trkpt lat="40.775718" lon="-3.864977">
        <ele>1729.448</ele>
        <time>2021-07-30T14:25:57Z</time>
      </trkpt>
      <trkpt lat="40.775738" lon="-3.864967">
        <ele>1730.879</ele>
        <time>2021-07-30T14:25:59Z</time>
      </trkpt>
      <trkpt lat="40.775741" lon="-3.864940">
        <ele>1731.789</ele>
        <time>2021-07-30T14:26:25Z</time>
      </trkpt>
      <trkpt lat="40.775757" lon="-3.864918">
        <ele>1733.483</ele>
        <time>2021-07-30T14:26:34Z</time>
      </trkpt>
      <trkpt lat="40.775763" lon="-3.864895">
        <ele>1734.580</ele>
        <time>2021-07-30T14:26:42Z</time>
      </trkpt>
      <trkpt lat="40.775750" lon="-3.864870">
        <ele>1734.434</ele>
        <time>2021-07-30T14:26:45Z</time>
      </trkpt>
      <trkpt lat="40.775760" lon="-3.864847">
        <ele>1735.855</ele>
        <time>2021-07-30T14:26:50Z</time>
      </trkpt>
      <trkpt lat="40.775779" lon="-3.864847">
        <ele>1737.210</ele>
        <time>2021-07-30T14:27:42Z</time>
      </trkpt>
      <trkpt lat="40.775798" lon="-3.864817">
        <ele>1739.608</ele>
        <time>2021-07-30T14:27:57Z</time>
      </trkpt>
      <trkpt lat="40.775824" lon="-3.864810">
        <ele>1741.810</ele>
        <time>2021-07-30T14:28:27Z</time>
      </trkpt>
      <trkpt lat="40.775856" lon="-3.864813">
        <ele>1743.142</ele>
        <time>2021-07-30T14:28:29Z</time>
      </trkpt>
      <trkpt lat="40.775878" lon="-3.864815">
        <ele>1743.749</ele>
        <time>2021-07-30T14:28:31Z</time>
      </trkpt>
      <trkpt lat="40.775744" lon="-3.864655">
        <ele>1737.196</ele>
        <time>2021-07-30T14:30:19Z</time>
      </trkpt>
      <trkpt lat="40.775750" lon="-3.864630">
        <ele>1737.237</ele>
        <time>2021-07-30T14:30:23Z</time>
      </trkpt>
      <trkpt lat="40.775757" lon="-3.864598">
        <ele>1737.167</ele>
        <time>2021-07-30T14:30:28Z</time>
      </trkpt>
      <trkpt lat="40.775757" lon="-3.864574">
        <ele>1736.791</ele>
        <time>2021-07-30T14:30:32Z</time>
      </trkpt>
      <trkpt lat="40.775776" lon="-3.864574">
        <ele>1738.198</ele>
        <time>2021-07-30T14:30:38Z</time>
      </trkpt>
      <trkpt lat="40.775782" lon="-3.864548">
        <ele>1738.061</ele>
        <time>2021-07-30T14:30:41Z</time>
      </trkpt>
      <trkpt lat="40.775782" lon="-3.864575">
        <ele>1738.521</ele>
        <time>2021-07-30T14:30:50Z</time>
      </trkpt>
      <trkpt lat="40.775773" lon="-3.864552">
        <ele>1737.413</ele>
        <time>2021-07-30T14:31:29Z</time>
      </trkpt>
      <trkpt lat="40.775779" lon="-3.864527">
        <ele>1737.308</ele>
        <time>2021-07-30T14:31:33Z</time>
      </trkpt>
      <trkpt lat="40.775798" lon="-3.864507">
        <ele>1738.263</ele>
        <time>2021-07-30T14:31:36Z</time>
      </trkpt>
      <trkpt lat="40.775821" lon="-3.864485">
        <ele>1739.225</ele>
        <time>2021-07-30T14:31:38Z</time>
      </trkpt>
      <trkpt lat="40.775840" lon="-3.864488">
        <ele>1740.512</ele>
        <time>2021-07-30T14:31:43Z</time>
      </trkpt>
      <trkpt lat="40.775850" lon="-3.864465">
        <ele>1740.659</ele>
        <time>2021-07-30T14:31:50Z</time>
      </trkpt>
      <trkpt lat="40.775859" lon="-3.864437">
        <ele>1741.020</ele>
        <time>2021-07-30T14:31:55Z</time>
      </trkpt>
      <trkpt lat="40.775856" lon="-3.864408">
        <ele>1741.880</ele>
        <time>2021-07-30T14:32:03Z</time>
      </trkpt>
      <trkpt lat="40.775872" lon="-3.864427">
        <ele>1742.224</ele>
        <time>2021-07-30T14:32:11Z</time>
      </trkpt>
      <trkpt lat="40.775875" lon="-3.864403">
        <ele>1743.121</ele>
        <time>2021-07-30T14:32:15Z</time>
      </trkpt>
      <trkpt lat="40.775872" lon="-3.864355">
        <ele>1744.442</ele>
        <time>2021-07-30T14:32:20Z</time>
      </trkpt>
      <trkpt lat="40.775888" lon="-3.864338">
        <ele>1745.622</ele>
        <time>2021-07-30T14:32:49Z</time>
      </trkpt>
      <trkpt lat="40.775894" lon="-3.864298">
        <ele>1746.914</ele>
        <time>2021-07-30T14:32:51Z</time>
      </trkpt>
      <trkpt lat="40.775901" lon="-3.864262">
        <ele>1748.008</ele>
        <time>2021-07-30T14:32:53Z</time>
      </trkpt>
      <trkpt lat="40.775917" lon="-3.864228">
        <ele>1749.191</ele>
        <time>2021-07-30T14:32:56Z</time>
      </trkpt>
      <trkpt lat="40.775920" lon="-3.864204">
        <ele>1749.613</ele>
        <time>2021-07-30T14:32:58Z</time>
      </trkpt>
      <trkpt lat="40.775930" lon="-3.864180">
        <ele>1750.120</ele>
        <time>2021-07-30T14:33:02Z</time>
      </trkpt>
      <trkpt lat="40.775936" lon="-3.864153">
        <ele>1750.497</ele>
        <time>2021-07-30T14:33:04Z</time>
      </trkpt>
      <trkpt lat="40.775949" lon="-3.864132">
        <ele>1750.458</ele>
        <time>2021-07-30T14:33:07Z</time>
      </trkpt>
      <trkpt lat="40.775962" lon="-3.864110">
        <ele>1750.558</ele>
        <time>2021-07-30T14:33:09Z</time>
      </trkpt>
      <trkpt lat="40.775978" lon="-3.864097">
        <ele>1750.522</ele>
        <time>2021-07-30T14:33:13Z</time>
      </trkpt>
      <trkpt lat="40.775997" lon="-3.864098">
        <ele>1750.699</ele>
        <time>2021-07-30T14:33:16Z</time>
      </trkpt>
      <trkpt lat="40.776019" lon="-3.864093">
        <ele>1750.793</ele>
        <time>2021-07-30T14:33:31Z</time>
      </trkpt>
      <trkpt lat="40.776042" lon="-3.864093">
        <ele>1750.865</ele>
        <time>2021-07-30T14:33:35Z</time>
      </trkpt>
      <trkpt lat="40.776010" lon="-3.864097">
        <ele>1750.621</ele>
        <time>2021-07-30T14:34:06Z</time>
      </trkpt>
      <trkpt lat="40.775997" lon="-3.864073">
        <ele>1750.608</ele>
        <time>2021-07-30T14:34:16Z</time>
      </trkpt>
      <trkpt lat="40.776019" lon="-3.864083">
        <ele>1750.766</ele>
        <time>2021-07-30T14:34:19Z</time>
      </trkpt>
      <trkpt lat="40.776022" lon="-3.864107">
        <ele>1750.718</ele>
        <time>2021-07-30T14:34:21Z</time>
      </trkpt>
      <trkpt lat="40.776016" lon="-3.864133">
        <ele>1750.755</ele>
        <time>2021-07-30T14:34:23Z</time>
      </trkpt>
      <trkpt lat="40.776013" lon="-3.864157">
        <ele>1750.642</ele>
        <time>2021-07-30T14:34:25Z</time>
      </trkpt>
      <trkpt lat="40.776010" lon="-3.864188">
        <ele>1750.763</ele>
        <time>2021-07-30T14:34:27Z</time>
      </trkpt>
      <trkpt lat="40.776019" lon="-3.864210">
        <ele>1750.863</ele>
        <time>2021-07-30T14:34:28Z</time>
      </trkpt>
      <trkpt lat="40.776032" lon="-3.864235">
        <ele>1751.217</ele>
        <time>2021-07-30T14:34:30Z</time>
      </trkpt>
      <trkpt lat="40.776042" lon="-3.864283">
        <ele>1751.844</ele>
        <time>2021-07-30T14:34:31Z</time>
      </trkpt>
      <trkpt lat="40.776032" lon="-3.864257">
        <ele>1751.327</ele>
        <time>2021-07-30T14:34:38Z</time>
      </trkpt>
      <trkpt lat="40.776013" lon="-3.864235">
        <ele>1750.868</ele>
        <time>2021-07-30T14:34:41Z</time>
      </trkpt>
      <trkpt lat="40.775990" lon="-3.864220">
        <ele>1750.414</ele>
        <time>2021-07-30T14:34:47Z</time>
      </trkpt>
      <trkpt lat="40.775978" lon="-3.864195">
        <ele>1750.408</ele>
        <time>2021-07-30T14:34:50Z</time>
      </trkpt>
      <trkpt lat="40.775978" lon="-3.864165">
        <ele>1750.559</ele>
        <time>2021-07-30T14:34:56Z</time>
      </trkpt>
      <trkpt lat="40.776000" lon="-3.864174">
        <ele>1750.661</ele>
        <time>2021-07-30T14:35:05Z</time>
      </trkpt>
      <trkpt lat="40.776016" lon="-3.864195">
        <ele>1750.728</ele>
        <time>2021-07-30T14:35:06Z</time>
      </trkpt>
      <trkpt lat="40.775994" lon="-3.864202">
        <ele>1750.555</ele>
        <time>2021-07-30T14:35:09Z</time>
      </trkpt>
      <trkpt lat="40.776003" lon="-3.864230">
        <ele>1750.626</ele>
        <time>2021-07-30T14:35:14Z</time>
      </trkpt>
      <trkpt lat="40.775987" lon="-3.864210">
        <ele>1750.446</ele>
        <time>2021-07-30T14:35:17Z</time>
      </trkpt>
      <trkpt lat="40.775978" lon="-3.864187">
        <ele>1750.410</ele>
        <time>2021-07-30T14:35:29Z</time>
      </trkpt>
      <trkpt lat="40.775955" lon="-3.864195">
        <ele>1750.167</ele>
        <time>2021-07-30T14:35:35Z</time>
      </trkpt>
      <trkpt lat="40.775968" lon="-3.864212">
        <ele>1750.186</ele>
        <time>2021-07-30T14:35:41Z</time>
      </trkpt>
      <trkpt lat="40.775990" lon="-3.864224">
        <ele>1750.460</ele>
        <time>2021-07-30T14:35:57Z</time>
      </trkpt>
      <trkpt lat="40.776000" lon="-3.864248">
        <ele>1750.526</ele>
        <time>2021-07-30T14:35:59Z</time>
      </trkpt>
      <trkpt lat="40.776032" lon="-3.864278">
        <ele>1751.508</ele>
        <time>2021-07-30T14:36:01Z</time>
      </trkpt>
      <trkpt lat="40.776054" lon="-3.864280">
        <ele>1752.165</ele>
        <time>2021-07-30T14:36:03Z</time>
      </trkpt>
      <trkpt lat="40.776074" lon="-3.864288">
        <ele>1752.917</ele>
        <time>2021-07-30T14:36:06Z</time>
      </trkpt>
      <trkpt lat="40.776054" lon="-3.864290">
        <ele>1752.344</ele>
        <time>2021-07-30T14:36:11Z</time>
      </trkpt>
      <trkpt lat="40.776038" lon="-3.864308">
        <ele>1751.941</ele>
        <time>2021-07-30T14:36:15Z</time>
      </trkpt>
      <trkpt lat="40.776051" lon="-3.864278">
        <ele>1752.042</ele>
        <time>2021-07-30T14:36:17Z</time>
      </trkpt>
      <trkpt lat="40.776061" lon="-3.864247">
        <ele>1751.952</ele>
        <time>2021-07-30T14:36:19Z</time>
      </trkpt>
      <trkpt lat="40.776074" lon="-3.864208">
        <ele>1751.586</ele>
        <time>2021-07-30T14:36:22Z</time>
      </trkpt>
      <trkpt lat="40.776090" lon="-3.864162">
        <ele>1750.933</ele>
        <time>2021-07-30T14:36:25Z</time>
      </trkpt>
      <trkpt lat="40.776099" lon="-3.864138">
        <ele>1751.039</ele>
        <time>2021-07-30T14:36:32Z</time>
      </trkpt>
      <trkpt lat="40.776118" lon="-3.864140">
        <ele>1751.601</ele>
        <time>2021-07-30T14:36:34Z</time>
      </trkpt>
      <trkpt lat="40.776090" lon="-3.864140">
        <ele>1750.921</ele>
        <time>2021-07-30T14:36:37Z</time>
      </trkpt>
      <trkpt lat="40.776070" lon="-3.864140">
        <ele>1750.908</ele>
        <time>2021-07-30T14:36:45Z</time>
      </trkpt>
      <trkpt lat="40.776051" lon="-3.864142">
        <ele>1750.890</ele>
        <time>2021-07-30T14:37:00Z</time>
      </trkpt>
      <trkpt lat="40.776022" lon="-3.864138">
        <ele>1750.792</ele>
        <time>2021-07-30T14:37:02Z</time>
      </trkpt>
      <trkpt lat="40.776003" lon="-3.864137">
        <ele>1750.699</ele>
        <time>2021-07-30T14:37:04Z</time>
      </trkpt>
      <trkpt lat="40.775978" lon="-3.864135">
        <ele>1750.526</ele>
        <time>2021-07-30T14:37:06Z</time>
      </trkpt>
      <trkpt lat="40.775981" lon="-3.864112">
        <ele>1750.537</ele>
        <time>2021-07-30T14:37:44Z</time>
      </trkpt>
      <trkpt lat="40.775962" lon="-3.864130">
        <ele>1750.567</ele>
        <time>2021-07-30T14:37:49Z</time>
      </trkpt>
      <trkpt lat="40.775933" lon="-3.864130">
        <ele>1750.431</ele>
        <time>2021-07-30T14:37:51Z</time>
      </trkpt>
      <trkpt lat="40.775958" lon="-3.864132">
        <ele>1750.498</ele>
        <time>2021-07-30T14:37:57Z</time>
      </trkpt>
      <trkpt lat="40.775971" lon="-3.864110">
        <ele>1750.546</ele>
        <time>2021-07-30T14:38:17Z</time>
      </trkpt>
      <trkpt lat="40.775994" lon="-3.864130">
        <ele>1750.688</ele>
        <time>2021-07-30T14:38:18Z</time>
      </trkpt>
      <trkpt lat="40.775955" lon="-3.864117">
        <ele>1750.416</ele>
        <time>2021-07-30T14:38:32Z</time>
      </trkpt>
      <trkpt lat="40.775936" lon="-3.864113">
        <ele>1750.408</ele>
        <time>2021-07-30T14:38:33Z</time>
      </trkpt>
      <trkpt lat="40.775968" lon="-3.864117">
        <ele>1750.551</ele>
        <time>2021-07-30T14:38:49Z</time>
      </trkpt>
      <trkpt lat="40.775990" lon="-3.864113">
        <ele>1750.673</ele>
        <time>2021-07-30T14:38:52Z</time>
      </trkpt>
      <trkpt lat="40.776019" lon="-3.864110">
        <ele>1750.780</ele>
        <time>2021-07-30T14:38:56Z</time>
      </trkpt>
      <trkpt lat="40.776038" lon="-3.864112">
        <ele>1750.757</ele>
        <time>2021-07-30T14:39:00Z</time>
      </trkpt>
      <trkpt lat="40.776019" lon="-3.864112">
        <ele>1750.738</ele>
        <time>2021-07-30T14:39:02Z</time>
      </trkpt>
      <trkpt lat="40.775994" lon="-3.864105">
        <ele>1750.698</ele>
        <time>2021-07-30T14:39:05Z</time>
      </trkpt>
      <trkpt lat="40.775971" lon="-3.864102">
        <ele>1750.552</ele>
        <time>2021-07-30T14:39:08Z</time>
      </trkpt>
      <trkpt lat="40.775952" lon="-3.864098">
        <ele>1750.479</ele>
        <time>2021-07-30T14:39:11Z</time>
      </trkpt>
      <trkpt lat="40.775939" lon="-3.864082">
        <ele>1750.467</ele>
        <time>2021-07-30T14:39:17Z</time>
      </trkpt>
      <trkpt lat="40.775962" lon="-3.864082">
        <ele>1750.581</ele>
        <time>2021-07-30T14:39:21Z</time>
      </trkpt>
      <trkpt lat="40.775990" lon="-3.864082">
        <ele>1750.619</ele>
        <time>2021-07-30T14:39:24Z</time>
      </trkpt>
      <trkpt lat="40.776016" lon="-3.864082">
        <ele>1750.708</ele>
        <time>2021-07-30T14:39:38Z</time>
      </trkpt>
      <trkpt lat="40.776035" lon="-3.864087">
        <ele>1750.743</ele>
        <time>2021-07-30T14:39:40Z</time>
      </trkpt>
      <trkpt lat="40.776010" lon="-3.864067">
        <ele>1750.685</ele>
        <time>2021-07-30T14:39:46Z</time>
      </trkpt>
      <trkpt lat="40.775981" lon="-3.864073">
        <ele>1750.562</ele>
        <time>2021-07-30T14:39:51Z</time>
      </trkpt>
      <trkpt lat="40.775955" lon="-3.864067">
        <ele>1750.479</ele>
        <time>2021-07-30T14:39:52Z</time>
      </trkpt>
      <trkpt lat="40.775936" lon="-3.864063">
        <ele>1750.420</ele>
        <time>2021-07-30T14:39:54Z</time>
      </trkpt>
      <trkpt lat="40.775958" lon="-3.864065">
        <ele>1750.410</ele>
        <time>2021-07-30T14:40:10Z</time>
      </trkpt>
      <trkpt lat="40.775955" lon="-3.864103">
        <ele>1750.414</ele>
        <time>2021-07-30T14:40:57Z</time>
      </trkpt>
      <trkpt lat="40.775936" lon="-3.864097">
        <ele>1750.461</ele>
        <time>2021-07-30T14:40:59Z</time>
      </trkpt>
      <trkpt lat="40.775952" lon="-3.864108">
        <ele>1750.437</ele>
        <time>2021-07-30T14:41:07Z</time>
      </trkpt>
      <trkpt lat="40.775933" lon="-3.864117">
        <ele>1750.449</ele>
        <time>2021-07-30T14:41:14Z</time>
      </trkpt>
      <trkpt lat="40.775952" lon="-3.864107">
        <ele>1750.413</ele>
        <time>2021-07-30T14:41:20Z</time>
      </trkpt>
      <trkpt lat="40.775936" lon="-3.864088">
        <ele>1750.408</ele>
        <time>2021-07-30T14:41:23Z</time>
      </trkpt>
      <trkpt lat="40.775914" lon="-3.864088">
        <ele>1750.310</ele>
        <time>2021-07-30T14:41:32Z</time>
      </trkpt>
      <trkpt lat="40.775933" lon="-3.864112">
        <ele>1750.422</ele>
        <time>2021-07-30T14:41:35Z</time>
      </trkpt>
      <trkpt lat="40.775952" lon="-3.864125">
        <ele>1750.429</ele>
        <time>2021-07-30T14:41:38Z</time>
      </trkpt>
      <trkpt lat="40.775936" lon="-3.864138">
        <ele>1750.476</ele>
        <time>2021-07-30T14:41:43Z</time>
      </trkpt>
      <trkpt lat="40.775920" lon="-3.864122">
        <ele>1750.357</ele>
        <time>2021-07-30T14:41:56Z</time>
      </trkpt>
      <trkpt lat="40.775920" lon="-3.864087">
        <ele>1750.347</ele>
        <time>2021-07-30T14:41:59Z</time>
      </trkpt>
      <trkpt lat="40.775907" lon="-3.864108">
        <ele>1750.311</ele>
        <time>2021-07-30T14:43:02Z</time>
      </trkpt>
      <trkpt lat="40.775850" lon="-3.864180">
        <ele>1749.698</ele>
        <time>2021-07-30T14:44:34Z</time>
      </trkpt>
      <trkpt lat="40.775859" lon="-3.864148">
        <ele>1750.171</ele>
        <time>2021-07-30T14:44:42Z</time>
      </trkpt>
      <trkpt lat="40.775859" lon="-3.864113">
        <ele>1750.141</ele>
        <time>2021-07-30T14:44:43Z</time>
      </trkpt>
      <trkpt lat="40.775949" lon="-3.864095">
        <ele>1750.415</ele>
        <time>2021-07-30T14:44:57Z</time>
      </trkpt>
      <trkpt lat="40.775968" lon="-3.864105">
        <ele>1750.508</ele>
        <time>2021-07-30T14:44:59Z</time>
      </trkpt>
      <trkpt lat="40.775949" lon="-3.864107">
        <ele>1750.484</ele>
        <time>2021-07-30T14:45:04Z</time>
      </trkpt>
      <trkpt lat="40.776138" lon="-3.864015">
        <ele>1753.666</ele>
        <time>2021-07-30T14:46:12Z</time>
      </trkpt>
      <trkpt lat="40.776102" lon="-3.864006">
        <ele>1751.073</ele>
        <time>2021-07-30T14:46:16Z</time>
      </trkpt>
      <trkpt lat="40.776032" lon="-3.863983">
        <ele>1750.730</ele>
        <time>2021-07-30T14:46:39Z</time>
      </trkpt>
      <trkpt lat="40.776003" lon="-3.863977">
        <ele>1750.621</ele>
        <time>2021-07-30T14:46:45Z</time>
      </trkpt>
      <trkpt lat="40.776003" lon="-3.863950">
        <ele>1750.641</ele>
        <time>2021-07-30T14:46:51Z</time>
      </trkpt>
      <trkpt lat="40.776013" lon="-3.863923">
        <ele>1750.685</ele>
        <time>2021-07-30T14:46:55Z</time>
      </trkpt>
      <trkpt lat="40.776032" lon="-3.863918">
        <ele>1750.742</ele>
        <time>2021-07-30T14:46:59Z</time>
      </trkpt>
      <trkpt lat="40.776051" lon="-3.863907">
        <ele>1750.869</ele>
        <time>2021-07-30T14:47:02Z</time>
      </trkpt>
      <trkpt lat="40.776058" lon="-3.863880">
        <ele>1750.804</ele>
        <time>2021-07-30T14:47:08Z</time>
      </trkpt>
      <trkpt lat="40.776070" lon="-3.863854">
        <ele>1750.724</ele>
        <time>2021-07-30T14:47:13Z</time>
      </trkpt>
      <trkpt lat="40.776070" lon="-3.863822">
        <ele>1750.608</ele>
        <time>2021-07-30T14:47:17Z</time>
      </trkpt>
      <trkpt lat="40.776074" lon="-3.863792">
        <ele>1750.663</ele>
        <time>2021-07-30T14:47:20Z</time>
      </trkpt>
      <trkpt lat="40.776074" lon="-3.863765">
        <ele>1750.535</ele>
        <time>2021-07-30T14:47:24Z</time>
      </trkpt>
      <trkpt lat="40.776096" lon="-3.863772">
        <ele>1750.552</ele>
        <time>2021-07-30T14:47:33Z</time>
      </trkpt>
      <trkpt lat="40.776099" lon="-3.863740">
        <ele>1750.439</ele>
        <time>2021-07-30T14:48:18Z</time>
      </trkpt>
      <trkpt lat="40.776099" lon="-3.863712">
        <ele>1750.360</ele>
        <time>2021-07-30T14:48:23Z</time>
      </trkpt>
      <trkpt lat="40.776093" lon="-3.863683">
        <ele>1750.290</ele>
        <time>2021-07-30T14:48:25Z</time>
      </trkpt>
      <trkpt lat="40.776096" lon="-3.863652">
        <ele>1750.174</ele>
        <time>2021-07-30T14:48:29Z</time>
      </trkpt>
      <trkpt lat="40.776077" lon="-3.863638">
        <ele>1750.151</ele>
        <time>2021-07-30T14:48:36Z</time>
      </trkpt>
      <trkpt lat="40.776058" lon="-3.863625">
        <ele>1750.081</ele>
        <time>2021-07-30T14:48:40Z</time>
      </trkpt>
      <trkpt lat="40.776035" lon="-3.863627">
        <ele>1750.061</ele>
        <time>2021-07-30T14:48:43Z</time>
      </trkpt>
      <trkpt lat="40.776054" lon="-3.863615">
        <ele>1750.017</ele>
        <time>2021-07-30T14:48:49Z</time>
      </trkpt>
      <trkpt lat="40.776070" lon="-3.863590">
        <ele>1749.308</ele>
        <time>2021-07-30T14:48:52Z</time>
      </trkpt>
      <trkpt lat="40.776090" lon="-3.863573">
        <ele>1748.745</ele>
        <time>2021-07-30T14:48:56Z</time>
      </trkpt>
      <trkpt lat="40.776109" lon="-3.863555">
        <ele>1748.077</ele>
        <time>2021-07-30T14:48:59Z</time>
      </trkpt>
      <trkpt lat="40.776115" lon="-3.863523">
        <ele>1747.334</ele>
        <time>2021-07-30T14:49:02Z</time>
      </trkpt>
      <trkpt lat="40.776122" lon="-3.863482">
        <ele>1746.771</ele>
        <time>2021-07-30T14:49:04Z</time>
      </trkpt>
      <trkpt lat="40.776131" lon="-3.863460">
        <ele>1747.062</ele>
        <time>2021-07-30T14:49:08Z</time>
      </trkpt>
      <trkpt lat="40.776122" lon="-3.863432">
        <ele>1744.922</ele>
        <time>2021-07-30T14:49:13Z</time>
      </trkpt>
      <trkpt lat="40.776154" lon="-3.863408">
        <ele>1747.776</ele>
        <time>2021-07-30T14:49:20Z</time>
      </trkpt>
      <trkpt lat="40.776154" lon="-3.863383">
        <ele>1746.743</ele>
        <time>2021-07-30T14:49:22Z</time>
      </trkpt>
      <trkpt lat="40.776138" lon="-3.863362">
        <ele>1744.066</ele>
        <time>2021-07-30T14:49:24Z</time>
      </trkpt>
      <trkpt lat="40.776141" lon="-3.863336">
        <ele>1743.329</ele>
        <time>2021-07-30T14:49:28Z</time>
      </trkpt>
      <trkpt lat="40.776154" lon="-3.863316">
        <ele>1743.921</ele>
        <time>2021-07-30T14:49:36Z</time>
      </trkpt>
      <trkpt lat="40.776154" lon="-3.863280">
        <ele>1742.508</ele>
        <time>2021-07-30T14:49:38Z</time>
      </trkpt>
      <trkpt lat="40.776176" lon="-3.863278">
        <ele>1744.713</ele>
        <time>2021-07-30T14:49:44Z</time>
      </trkpt>
      <trkpt lat="40.776160" lon="-3.863295">
        <ele>1743.755</ele>
        <time>2021-07-30T14:51:16Z</time>
      </trkpt>
      <trkpt lat="40.776141" lon="-3.863272">
        <ele>1740.922</ele>
        <time>2021-07-30T14:51:21Z</time>
      </trkpt>
      <trkpt lat="40.776122" lon="-3.863270">
        <ele>1738.839</ele>
        <time>2021-07-30T14:51:24Z</time>
      </trkpt>
      <trkpt lat="40.776115" lon="-3.863298">
        <ele>1739.180</ele>
        <time>2021-07-30T14:51:27Z</time>
      </trkpt>
      <trkpt lat="40.776099" lon="-3.863310">
        <ele>1739.430</ele>
        <time>2021-07-30T14:51:29Z</time>
      </trkpt>
      <trkpt lat="40.776080" lon="-3.863308">
        <ele>1739.654</ele>
        <time>2021-07-30T14:51:31Z</time>
      </trkpt>
      <trkpt lat="40.776061" lon="-3.863300">
        <ele>1739.621</ele>
        <time>2021-07-30T14:51:33Z</time>
      </trkpt>
      <trkpt lat="40.776042" lon="-3.863294">
        <ele>1739.772</ele>
        <time>2021-07-30T14:51:38Z</time>
      </trkpt>
      <trkpt lat="40.776042" lon="-3.863253">
        <ele>1737.713</ele>
        <time>2021-07-30T14:51:42Z</time>
      </trkpt>
      <trkpt lat="40.776048" lon="-3.863227">
        <ele>1736.514</ele>
        <time>2021-07-30T14:51:44Z</time>
      </trkpt>
      <trkpt lat="40.776054" lon="-3.863193">
        <ele>1734.908</ele>
        <time>2021-07-30T14:51:46Z</time>
      </trkpt>
      <trkpt lat="40.776067" lon="-3.863176">
        <ele>1734.214</ele>
        <time>2021-07-30T14:51:49Z</time>
      </trkpt>
      <trkpt lat="40.776093" lon="-3.863180">
        <ele>1734.446</ele>
        <time>2021-07-30T14:51:51Z</time>
      </trkpt>
      <trkpt lat="40.776099" lon="-3.863147">
        <ele>1733.233</ele>
        <time>2021-07-30T14:51:55Z</time>
      </trkpt>
      <trkpt lat="40.776118" lon="-3.863150">
        <ele>1734.080</ele>
        <time>2021-07-30T14:51:57Z</time>
      </trkpt>
      <trkpt lat="40.776099" lon="-3.863168">
        <ele>1734.041</ele>
        <time>2021-07-30T14:52:07Z</time>
      </trkpt>
      <trkpt lat="40.776099" lon="-3.863198">
        <ele>1735.161</ele>
        <time>2021-07-30T14:52:10Z</time>
      </trkpt>
      <trkpt lat="40.776102" lon="-3.863175">
        <ele>1734.345</ele>
        <time>2021-07-30T14:52:16Z</time>
      </trkpt>
      <trkpt lat="40.776115" lon="-3.863157">
        <ele>1734.082</ele>
        <time>2021-07-30T14:52:18Z</time>
      </trkpt>
      <trkpt lat="40.776128" lon="-3.863135">
        <ele>1734.441</ele>
        <time>2021-07-30T14:52:21Z</time>
      </trkpt>
      <trkpt lat="40.776138" lon="-3.863112">
        <ele>1734.481</ele>
        <time>2021-07-30T14:52:24Z</time>
      </trkpt>
      <trkpt lat="40.776131" lon="-3.863080">
        <ele>1732.609</ele>
        <time>2021-07-30T14:52:33Z</time>
      </trkpt>
      <trkpt lat="40.776154" lon="-3.863072">
        <ele>1734.208</ele>
        <time>2021-07-30T14:52:36Z</time>
      </trkpt>
      <trkpt lat="40.776166" lon="-3.863092">
        <ele>1736.071</ele>
        <time>2021-07-30T14:52:38Z</time>
      </trkpt>
      <trkpt lat="40.776157" lon="-3.863068">
        <ele>1734.363</ele>
        <time>2021-07-30T14:52:41Z</time>
      </trkpt>
      <trkpt lat="40.776166" lon="-3.863047">
        <ele>1734.350</ele>
        <time>2021-07-30T14:52:46Z</time>
      </trkpt>
      <trkpt lat="40.776179" lon="-3.863028">
        <ele>1734.927</ele>
        <time>2021-07-30T14:52:49Z</time>
      </trkpt>
      <trkpt lat="40.776179" lon="-3.863000">
        <ele>1734.288</ele>
        <time>2021-07-30T14:52:52Z</time>
      </trkpt>
      <trkpt lat="40.776179" lon="-3.862973">
        <ele>1733.518</ele>
        <time>2021-07-30T14:52:55Z</time>
      </trkpt>
      <trkpt lat="40.776192" lon="-3.862952">
        <ele>1733.982</ele>
        <time>2021-07-30T14:53:02Z</time>
      </trkpt>
      <trkpt lat="40.776202" lon="-3.862918">
        <ele>1733.719</ele>
        <time>2021-07-30T14:53:05Z</time>
      </trkpt>
      <trkpt lat="40.776211" lon="-3.862892">
        <ele>1733.782</ele>
        <time>2021-07-30T14:53:09Z</time>
      </trkpt>
      <trkpt lat="40.776234" lon="-3.862875">
        <ele>1734.843</ele>
        <time>2021-07-30T14:53:13Z</time>
      </trkpt>
      <trkpt lat="40.776246" lon="-3.862857">
        <ele>1735.117</ele>
        <time>2021-07-30T14:53:17Z</time>
      </trkpt>
      <trkpt lat="40.776269" lon="-3.862857">
        <ele>1736.808</ele>
        <time>2021-07-30T14:53:21Z</time>
      </trkpt>
      <trkpt lat="40.776275" lon="-3.862833">
        <ele>1736.485</ele>
        <time>2021-07-30T14:53:24Z</time>
      </trkpt>
      <trkpt lat="40.776298" lon="-3.862823">
        <ele>1737.647</ele>
        <time>2021-07-30T14:53:29Z</time>
      </trkpt>
      <trkpt lat="40.776314" lon="-3.862812">
        <ele>1738.334</ele>
        <time>2021-07-30T14:53:38Z</time>
      </trkpt>
      <trkpt lat="40.776336" lon="-3.862814">
        <ele>1739.971</ele>
        <time>2021-07-30T14:53:53Z</time>
      </trkpt>
      <trkpt lat="40.776358" lon="-3.862805">
        <ele>1741.072</ele>
        <time>2021-07-30T14:53:56Z</time>
      </trkpt>
      <trkpt lat="40.776374" lon="-3.862792">
        <ele>1741.632</ele>
        <time>2021-07-30T14:54:04Z</time>
      </trkpt>
      <trkpt lat="40.776429" lon="-3.862772">
        <ele>1744.116</ele>
        <time>2021-07-30T14:55:06Z</time>
      </trkpt>
      <trkpt lat="40.776451" lon="-3.862757">
        <ele>1745.013</ele>
        <time>2021-07-30T14:55:09Z</time>
      </trkpt>
      <trkpt lat="40.776470" lon="-3.862747">
        <ele>1745.845</ele>
        <time>2021-07-30T14:55:11Z</time>
      </trkpt>
      <trkpt lat="40.776490" lon="-3.862765">
        <ele>1747.547</ele>
        <time>2021-07-30T14:55:17Z</time>
      </trkpt>
      <trkpt lat="40.776512" lon="-3.862770">
        <ele>1748.911</ele>
        <time>2021-07-30T14:55:20Z</time>
      </trkpt>
      <trkpt lat="40.776525" lon="-3.862747">
        <ele>1749.008</ele>
        <time>2021-07-30T14:55:24Z</time>
      </trkpt>
      <trkpt lat="40.776544" lon="-3.862748">
        <ele>1750.191</ele>
        <time>2021-07-30T14:55:27Z</time>
      </trkpt>
      <trkpt lat="40.776557" lon="-3.862770">
        <ele>1751.593</ele>
        <time>2021-07-30T14:55:36Z</time>
      </trkpt>
      <trkpt lat="40.776573" lon="-3.862788">
        <ele>1753.160</ele>
        <time>2021-07-30T14:55:43Z</time>
      </trkpt>
      <trkpt lat="40.776595" lon="-3.862788">
        <ele>1754.437</ele>
        <time>2021-07-30T14:55:46Z</time>
      </trkpt>
      <trkpt lat="40.776608" lon="-3.862770">
        <ele>1754.458</ele>
        <time>2021-07-30T14:55:51Z</time>
      </trkpt>
      <trkpt lat="40.776627" lon="-3.862762">
        <ele>1755.368</ele>
        <time>2021-07-30T14:55:55Z</time>
      </trkpt>
      <trkpt lat="40.776650" lon="-3.862757">
        <ele>1756.482</ele>
        <time>2021-07-30T14:55:59Z</time>
      </trkpt>
      <trkpt lat="40.776666" lon="-3.862745">
        <ele>1757.099</ele>
        <time>2021-07-30T14:56:04Z</time>
      </trkpt>
      <trkpt lat="40.776685" lon="-3.862730">
        <ele>1757.443</ele>
        <time>2021-07-30T14:56:11Z</time>
      </trkpt>
      <trkpt lat="40.776707" lon="-3.862727">
        <ele>1758.264</ele>
        <time>2021-07-30T14:56:15Z</time>
      </trkpt>
      <trkpt lat="40.776726" lon="-3.862717">
        <ele>1758.710</ele>
        <time>2021-07-30T14:56:18Z</time>
      </trkpt>
      <trkpt lat="40.776742" lon="-3.862730">
        <ele>1759.808</ele>
        <time>2021-07-30T14:56:26Z</time>
      </trkpt>
      <trkpt lat="40.776762" lon="-3.862717">
        <ele>1760.241</ele>
        <time>2021-07-30T14:56:31Z</time>
      </trkpt>
      <trkpt lat="40.776787" lon="-3.862703">
        <ele>1760.883</ele>
        <time>2021-07-30T14:56:35Z</time>
      </trkpt>
      <trkpt lat="40.776790" lon="-3.862728">
        <ele>1761.710</ele>
        <time>2021-07-30T14:56:45Z</time>
      </trkpt>
      <trkpt lat="40.776803" lon="-3.862750">
        <ele>1763.077</ele>
        <time>2021-07-30T14:56:49Z</time>
      </trkpt>
      <trkpt lat="40.776822" lon="-3.862768">
        <ele>1764.468</ele>
        <time>2021-07-30T14:56:53Z</time>
      </trkpt>
      <trkpt lat="40.776842" lon="-3.862782">
        <ele>1765.838</ele>
        <time>2021-07-30T14:56:56Z</time>
      </trkpt>
      <trkpt lat="40.776851" lon="-3.862808">
        <ele>1767.712</ele>
        <time>2021-07-30T14:56:59Z</time>
      </trkpt>
      <trkpt lat="40.776867" lon="-3.862794">
        <ele>1767.639</ele>
        <time>2021-07-30T14:57:04Z</time>
      </trkpt>
      <trkpt lat="40.776877" lon="-3.862772">
        <ele>1766.961</ele>
        <time>2021-07-30T14:57:06Z</time>
      </trkpt>
      <trkpt lat="40.776893" lon="-3.862752">
        <ele>1766.921</ele>
        <time>2021-07-30T14:57:08Z</time>
      </trkpt>
      <trkpt lat="40.776912" lon="-3.862738">
        <ele>1767.213</ele>
        <time>2021-07-30T14:57:10Z</time>
      </trkpt>
      <trkpt lat="40.776925" lon="-3.862712">
        <ele>1766.808</ele>
        <time>2021-07-30T14:57:13Z</time>
      </trkpt>
      <trkpt lat="40.776947" lon="-3.862722">
        <ele>1768.063</ele>
        <time>2021-07-30T14:57:17Z</time>
      </trkpt>
      <trkpt lat="40.776947" lon="-3.862717">
        <ele>1767.825</ele>
        <time>2021-07-30T14:57:19Z</time>
      </trkpt>
      <trkpt lat="40.776973" lon="-3.862764">
        <ele>1769.162</ele>
        <time>2021-07-30T14:57:24Z</time>
      </trkpt>
      <trkpt lat="40.776963" lon="-3.862785">
        <ele>1770.179</ele>
        <time>2021-07-30T14:57:26Z</time>
      </trkpt>
      <trkpt lat="40.776982" lon="-3.862800">
        <ele>1770.790</ele>
        <time>2021-07-30T14:57:30Z</time>
      </trkpt>
      <trkpt lat="40.776995" lon="-3.862825">
        <ele>1771.850</ele>
        <time>2021-07-30T14:57:47Z</time>
      </trkpt>
      <trkpt lat="40.776995" lon="-3.862850">
        <ele>1773.124</ele>
        <time>2021-07-30T14:57:50Z</time>
      </trkpt>
      <trkpt lat="40.777011" lon="-3.862870">
        <ele>1773.891</ele>
        <time>2021-07-30T14:57:55Z</time>
      </trkpt>
      <trkpt lat="40.777027" lon="-3.862882">
        <ele>1774.089</ele>
        <time>2021-07-30T14:57:59Z</time>
      </trkpt>
      <trkpt lat="40.777050" lon="-3.862885">
        <ele>1773.606</ele>
        <time>2021-07-30T14:58:03Z</time>
      </trkpt>
      <trkpt lat="40.777066" lon="-3.862903">
        <ele>1774.126</ele>
        <time>2021-07-30T14:58:16Z</time>
      </trkpt>
      <trkpt lat="40.777085" lon="-3.862917">
        <ele>1774.208</ele>
        <time>2021-07-30T14:58:19Z</time>
      </trkpt>
      <trkpt lat="40.777104" lon="-3.862922">
        <ele>1773.985</ele>
        <time>2021-07-30T14:58:23Z</time>
      </trkpt>
      <trkpt lat="40.777114" lon="-3.862944">
        <ele>1774.657</ele>
        <time>2021-07-30T15:00:02Z</time>
      </trkpt>
      <trkpt lat="40.777114" lon="-3.862973">
        <ele>1775.874</ele>
        <time>2021-07-30T15:00:04Z</time>
      </trkpt>
      <trkpt lat="40.777126" lon="-3.862998">
        <ele>1776.431</ele>
        <time>2021-07-30T15:00:06Z</time>
      </trkpt>
      <trkpt lat="40.777139" lon="-3.863033">
        <ele>1777.472</ele>
        <time>2021-07-30T15:00:09Z</time>
      </trkpt>
      <trkpt lat="40.777152" lon="-3.863058">
        <ele>1777.912</ele>
        <time>2021-07-30T15:00:12Z</time>
      </trkpt>
      <trkpt lat="40.777162" lon="-3.863083">
        <ele>1778.446</ele>
        <time>2021-07-30T15:00:16Z</time>
      </trkpt>
      <trkpt lat="40.777181" lon="-3.863095">
        <ele>1778.013</ele>
        <time>2021-07-30T15:00:19Z</time>
      </trkpt>
      <trkpt lat="40.777194" lon="-3.863114">
        <ele>1778.136</ele>
        <time>2021-07-30T15:00:22Z</time>
      </trkpt>
      <trkpt lat="40.777213" lon="-3.863124">
        <ele>1777.617</ele>
        <time>2021-07-30T15:00:27Z</time>
      </trkpt>
      <trkpt lat="40.777222" lon="-3.863148">
        <ele>1778.018</ele>
        <time>2021-07-30T15:00:31Z</time>
      </trkpt>
      <trkpt lat="40.777238" lon="-3.863160">
        <ele>1778.408</ele>
        <time>2021-07-30T15:00:35Z</time>
      </trkpt>
      <trkpt lat="40.777258" lon="-3.863186">
        <ele>1779.230</ele>
        <time>2021-07-30T15:00:39Z</time>
      </trkpt>
      <trkpt lat="40.777274" lon="-3.863200">
        <ele>1779.662</ele>
        <time>2021-07-30T15:00:41Z</time>
      </trkpt>
      <trkpt lat="40.777290" lon="-3.863217">
        <ele>1780.199</ele>
        <time>2021-07-30T15:00:45Z</time>
      </trkpt>
      <trkpt lat="40.777309" lon="-3.863222">
        <ele>1780.226</ele>
        <time>2021-07-30T15:00:47Z</time>
      </trkpt>
      <trkpt lat="40.777328" lon="-3.863217">
        <ele>1780.067</ele>
        <time>2021-07-30T15:00:49Z</time>
      </trkpt>
      <trkpt lat="40.777354" lon="-3.863207">
        <ele>1779.657</ele>
        <time>2021-07-30T15:00:51Z</time>
      </trkpt>
      <trkpt lat="40.777382" lon="-3.863207">
        <ele>1779.621</ele>
        <time>2021-07-30T15:00:53Z</time>
      </trkpt>
      <trkpt lat="40.777405" lon="-3.863220">
        <ele>1779.998</ele>
        <time>2021-07-30T15:00:55Z</time>
      </trkpt>
      <trkpt lat="40.777421" lon="-3.863237">
        <ele>1780.449</ele>
        <time>2021-07-30T15:00:58Z</time>
      </trkpt>
      <trkpt lat="40.777437" lon="-3.863248">
        <ele>1780.702</ele>
        <time>2021-07-30T15:01:01Z</time>
      </trkpt>
      <trkpt lat="40.777459" lon="-3.863252">
        <ele>1780.822</ele>
        <time>2021-07-30T15:01:03Z</time>
      </trkpt>
      <trkpt lat="40.777472" lon="-3.863272">
        <ele>1781.308</ele>
        <time>2021-07-30T15:01:06Z</time>
      </trkpt>
      <trkpt lat="40.777488" lon="-3.863283">
        <ele>1781.671</ele>
        <time>2021-07-30T15:01:08Z</time>
      </trkpt>
      <trkpt lat="40.777517" lon="-3.863294">
        <ele>1782.313</ele>
        <time>2021-07-30T15:01:10Z</time>
      </trkpt>
      <trkpt lat="40.777530" lon="-3.863273">
        <ele>1782.080</ele>
        <time>2021-07-30T15:01:12Z</time>
      </trkpt>
      <trkpt lat="40.777558" lon="-3.863263">
        <ele>1782.517</ele>
        <time>2021-07-30T15:01:14Z</time>
      </trkpt>
      <trkpt lat="40.777578" lon="-3.863268">
        <ele>1783.238</ele>
        <time>2021-07-30T15:01:16Z</time>
      </trkpt>
      <trkpt lat="40.777600" lon="-3.863265">
        <ele>1783.628</ele>
        <time>2021-07-30T15:01:19Z</time>
      </trkpt>
      <trkpt lat="40.777619" lon="-3.863265">
        <ele>1784.142</ele>
        <time>2021-07-30T15:01:26Z</time>
      </trkpt>
      <trkpt lat="40.777642" lon="-3.863253">
        <ele>1784.419</ele>
        <time>2021-07-30T15:01:32Z</time>
      </trkpt>
      <trkpt lat="40.777667" lon="-3.863255">
        <ele>1785.131</ele>
        <time>2021-07-30T15:01:34Z</time>
      </trkpt>
      <trkpt lat="40.777686" lon="-3.863263">
        <ele>1785.861</ele>
        <time>2021-07-30T15:01:38Z</time>
      </trkpt>
      <trkpt lat="40.777702" lon="-3.863277">
        <ele>1786.607</ele>
        <time>2021-07-30T15:01:40Z</time>
      </trkpt>
      <trkpt lat="40.777725" lon="-3.863265">
        <ele>1786.908</ele>
        <time>2021-07-30T15:01:44Z</time>
      </trkpt>
      <trkpt lat="40.777744" lon="-3.863270">
        <ele>1787.590</ele>
        <time>2021-07-30T15:01:47Z</time>
      </trkpt>
      <trkpt lat="40.777766" lon="-3.863273">
        <ele>1788.272</ele>
        <time>2021-07-30T15:01:49Z</time>
      </trkpt>
      <trkpt lat="40.777786" lon="-3.863270">
        <ele>1788.259</ele>
        <time>2021-07-30T15:01:52Z</time>
      </trkpt>
      <trkpt lat="40.777802" lon="-3.863258">
        <ele>1787.496</ele>
        <time>2021-07-30T15:01:57Z</time>
      </trkpt>
      <trkpt lat="40.777821" lon="-3.863263">
        <ele>1787.037</ele>
        <time>2021-07-30T15:02:03Z</time>
      </trkpt>
      <trkpt lat="40.777840" lon="-3.863253">
        <ele>1786.297</ele>
        <time>2021-07-30T15:02:26Z</time>
      </trkpt>
      <trkpt lat="40.777866" lon="-3.863253">
        <ele>1785.571</ele>
        <time>2021-07-30T15:02:28Z</time>
      </trkpt>
      <trkpt lat="40.777885" lon="-3.863268">
        <ele>1785.478</ele>
        <time>2021-07-30T15:02:30Z</time>
      </trkpt>
      <trkpt lat="40.777904" lon="-3.863272">
        <ele>1784.996</ele>
        <time>2021-07-30T15:02:31Z</time>
      </trkpt>
      <trkpt lat="40.777933" lon="-3.863263">
        <ele>1783.931</ele>
        <time>2021-07-30T15:02:33Z</time>
      </trkpt>
      <trkpt lat="40.777955" lon="-3.863268">
        <ele>1783.424</ele>
        <time>2021-07-30T15:02:36Z</time>
      </trkpt>
      <trkpt lat="40.777974" lon="-3.863282">
        <ele>1783.208</ele>
        <time>2021-07-30T15:02:40Z</time>
      </trkpt>
      <trkpt lat="40.778000" lon="-3.863294">
        <ele>1782.726</ele>
        <time>2021-07-30T15:02:43Z</time>
      </trkpt>
      <trkpt lat="40.778026" lon="-3.863294">
        <ele>1782.078</ele>
        <time>2021-07-30T15:02:45Z</time>
      </trkpt>
      <trkpt lat="40.778045" lon="-3.863297">
        <ele>1781.585</ele>
        <time>2021-07-30T15:02:47Z</time>
      </trkpt>
      <trkpt lat="40.778074" lon="-3.863292">
        <ele>1781.082</ele>
        <time>2021-07-30T15:02:50Z</time>
      </trkpt>
      <trkpt lat="40.778096" lon="-3.863288">
        <ele>1780.863</ele>
        <time>2021-07-30T15:02:52Z</time>
      </trkpt>
      <trkpt lat="40.778118" lon="-3.863290">
        <ele>1780.623</ele>
        <time>2021-07-30T15:02:55Z</time>
      </trkpt>
      <trkpt lat="40.778138" lon="-3.863280">
        <ele>1780.327</ele>
        <time>2021-07-30T15:02:58Z</time>
      </trkpt>
      <trkpt lat="40.778157" lon="-3.863277">
        <ele>1780.164</ele>
        <time>2021-07-30T15:03:00Z</time>
      </trkpt>
      <trkpt lat="40.778179" lon="-3.863255">
        <ele>1779.547</ele>
        <time>2021-07-30T15:03:03Z</time>
      </trkpt>
      <trkpt lat="40.778198" lon="-3.863250">
        <ele>1779.329</ele>
        <time>2021-07-30T15:03:05Z</time>
      </trkpt>
      <trkpt lat="40.778224" lon="-3.863260">
        <ele>1779.421</ele>
        <time>2021-07-30T15:03:09Z</time>
      </trkpt>
      <trkpt lat="40.778253" lon="-3.863282">
        <ele>1779.608</ele>
        <time>2021-07-30T15:03:13Z</time>
      </trkpt>
      <trkpt lat="40.778262" lon="-3.863285">
        <ele>1779.671</ele>
        <time>2021-07-30T15:03:14Z</time>
      </trkpt>
      <trkpt lat="40.778285" lon="-3.863282">
        <ele>1779.483</ele>
        <time>2021-07-30T15:03:16Z</time>
      </trkpt>
      <trkpt lat="40.778304" lon="-3.863275">
        <ele>1779.130</ele>
        <time>2021-07-30T15:03:18Z</time>
      </trkpt>
      <trkpt lat="40.778326" lon="-3.863270">
        <ele>1778.917</ele>
        <time>2021-07-30T15:03:20Z</time>
      </trkpt>
      <trkpt lat="40.778342" lon="-3.863300">
        <ele>1779.658</ele>
        <time>2021-07-30T15:03:24Z</time>
      </trkpt>
      <trkpt lat="40.778371" lon="-3.863315">
        <ele>1780.348</ele>
        <time>2021-07-30T15:03:27Z</time>
      </trkpt>
      <trkpt lat="40.778390" lon="-3.863313">
        <ele>1780.742</ele>
        <time>2021-07-30T15:03:29Z</time>
      </trkpt>
      <trkpt lat="40.778410" lon="-3.863310">
        <ele>1781.029</ele>
        <time>2021-07-30T15:03:31Z</time>
      </trkpt>
      <trkpt lat="40.778442" lon="-3.863300">
        <ele>1781.431</ele>
        <time>2021-07-30T15:03:34Z</time>
      </trkpt>
      <trkpt lat="40.778461" lon="-3.863303">
        <ele>1781.861</ele>
        <time>2021-07-30T15:03:35Z</time>
      </trkpt>
      <trkpt lat="40.778483" lon="-3.863287">
        <ele>1781.907</ele>
        <time>2021-07-30T15:03:37Z</time>
      </trkpt>
      <trkpt lat="40.778502" lon="-3.863283">
        <ele>1782.108</ele>
        <time>2021-07-30T15:03:38Z</time>
      </trkpt>
      <trkpt lat="40.778531" lon="-3.863275">
        <ele>1782.530</ele>
        <time>2021-07-30T15:03:40Z</time>
      </trkpt>
      <trkpt lat="40.778554" lon="-3.863263">
        <ele>1782.752</ele>
        <time>2021-07-30T15:03:42Z</time>
      </trkpt>
      <trkpt lat="40.778573" lon="-3.863242">
        <ele>1782.789</ele>
        <time>2021-07-30T15:03:44Z</time>
      </trkpt>
      <trkpt lat="40.778589" lon="-3.863228">
        <ele>1782.776</ele>
        <time>2021-07-30T15:03:47Z</time>
      </trkpt>
      <trkpt lat="40.778592" lon="-3.863260">
        <ele>1783.327</ele>
        <time>2021-07-30T15:03:50Z</time>
      </trkpt>
      <trkpt lat="40.778608" lon="-3.863272">
        <ele>1783.887</ele>
        <time>2021-07-30T15:03:53Z</time>
      </trkpt>
      <trkpt lat="40.778650" lon="-3.863268">
        <ele>1785.011</ele>
        <time>2021-07-30T15:03:56Z</time>
      </trkpt>
      <trkpt lat="40.778643" lon="-3.863237">
        <ele>1784.248</ele>
        <time>2021-07-30T15:04:44Z</time>
      </trkpt>
      <trkpt lat="40.778672" lon="-3.863215">
        <ele>1784.663</ele>
        <time>2021-07-30T15:04:46Z</time>
      </trkpt>
      <trkpt lat="40.778701" lon="-3.863202">
        <ele>1785.144</ele>
        <time>2021-07-30T15:04:48Z</time>
      </trkpt>
      <trkpt lat="40.778723" lon="-3.863200">
        <ele>1785.618</ele>
        <time>2021-07-30T15:04:49Z</time>
      </trkpt>
      <trkpt lat="40.778749" lon="-3.863192">
        <ele>1786.208</ele>
        <time>2021-07-30T15:04:51Z</time>
      </trkpt>
      <trkpt lat="40.778774" lon="-3.863185">
        <ele>1786.733</ele>
        <time>2021-07-30T15:04:53Z</time>
      </trkpt>
      <trkpt lat="40.778794" lon="-3.863188">
        <ele>1787.315</ele>
        <time>2021-07-30T15:04:56Z</time>
      </trkpt>
      <trkpt lat="40.778816" lon="-3.863192">
        <ele>1788.072</ele>
        <time>2021-07-30T15:04:59Z</time>
      </trkpt>
      <trkpt lat="40.778832" lon="-3.863210">
        <ele>1788.919</ele>
        <time>2021-07-30T15:05:02Z</time>
      </trkpt>
      <trkpt lat="40.778858" lon="-3.863215">
        <ele>1789.770</ele>
        <time>2021-07-30T15:05:05Z</time>
      </trkpt>
      <trkpt lat="40.778909" lon="-3.863208">
        <ele>1790.660</ele>
        <time>2021-07-30T15:05:11Z</time>
      </trkpt>
      <trkpt lat="40.778931" lon="-3.863215">
        <ele>1790.964</ele>
        <time>2021-07-30T15:05:13Z</time>
      </trkpt>
      <trkpt lat="40.778954" lon="-3.863217">
        <ele>1791.281</ele>
        <time>2021-07-30T15:05:16Z</time>
      </trkpt>
      <trkpt lat="40.778976" lon="-3.863212">
        <ele>1791.223</ele>
        <time>2021-07-30T15:05:18Z</time>
      </trkpt>
      <trkpt lat="40.778992" lon="-3.863227">
        <ele>1791.783</ele>
        <time>2021-07-30T15:05:22Z</time>
      </trkpt>
      <trkpt lat="40.779008" lon="-3.863245">
        <ele>1792.311</ele>
        <time>2021-07-30T15:05:25Z</time>
      </trkpt>
      <trkpt lat="40.779027" lon="-3.863270">
        <ele>1793.008</ele>
        <time>2021-07-30T15:05:28Z</time>
      </trkpt>
      <trkpt lat="40.779050" lon="-3.863287">
        <ele>1793.529</ele>
        <time>2021-07-30T15:05:32Z</time>
      </trkpt>
      <trkpt lat="40.779072" lon="-3.863292">
        <ele>1793.871</ele>
        <time>2021-07-30T15:05:34Z</time>
      </trkpt>
      <trkpt lat="40.779091" lon="-3.863295">
        <ele>1793.928</ele>
        <time>2021-07-30T15:05:36Z</time>
      </trkpt>
      <trkpt lat="40.779110" lon="-3.863297">
        <ele>1794.115</ele>
        <time>2021-07-30T15:05:38Z</time>
      </trkpt>
      <trkpt lat="40.779133" lon="-3.863305">
        <ele>1794.336</ele>
        <time>2021-07-30T15:05:41Z</time>
      </trkpt>
      <trkpt lat="40.779155" lon="-3.863310">
        <ele>1794.526</ele>
        <time>2021-07-30T15:05:43Z</time>
      </trkpt>
      <trkpt lat="40.779174" lon="-3.863308">
        <ele>1794.780</ele>
        <time>2021-07-30T15:05:46Z</time>
      </trkpt>
      <trkpt lat="40.779200" lon="-3.863312">
        <ele>1795.157</ele>
        <time>2021-07-30T15:05:49Z</time>
      </trkpt>
      <trkpt lat="40.779226" lon="-3.863323">
        <ele>1795.754</ele>
        <time>2021-07-30T15:05:51Z</time>
      </trkpt>
      <trkpt lat="40.779248" lon="-3.863326">
        <ele>1796.056</ele>
        <time>2021-07-30T15:05:54Z</time>
      </trkpt>
      <trkpt lat="40.779270" lon="-3.863335">
        <ele>1796.511</ele>
        <time>2021-07-30T15:05:57Z</time>
      </trkpt>
      <trkpt lat="40.779283" lon="-3.863356">
        <ele>1797.108</ele>
        <time>2021-07-30T15:06:01Z</time>
      </trkpt>
      <trkpt lat="40.779296" lon="-3.863373">
        <ele>1797.662</ele>
        <time>2021-07-30T15:06:04Z</time>
      </trkpt>
      <trkpt lat="40.779306" lon="-3.863397">
        <ele>1798.254</ele>
        <time>2021-07-30T15:06:07Z</time>
      </trkpt>
      <trkpt lat="40.779296" lon="-3.863430">
        <ele>1798.681</ele>
        <time>2021-07-30T15:06:10Z</time>
      </trkpt>
      <trkpt lat="40.779309" lon="-3.863453">
        <ele>1799.238</ele>
        <time>2021-07-30T15:06:13Z</time>
      </trkpt>
      <trkpt lat="40.779325" lon="-3.863467">
        <ele>1799.719</ele>
        <time>2021-07-30T15:06:15Z</time>
      </trkpt>
      <trkpt lat="40.779344" lon="-3.863472">
        <ele>1800.029</ele>
        <time>2021-07-30T15:06:17Z</time>
      </trkpt>
      <trkpt lat="40.779350" lon="-3.863498">
        <ele>1800.673</ele>
        <time>2021-07-30T15:06:20Z</time>
      </trkpt>
      <trkpt lat="40.779354" lon="-3.863523">
        <ele>1801.160</ele>
        <time>2021-07-30T15:06:22Z</time>
      </trkpt>
      <trkpt lat="40.779370" lon="-3.863536">
        <ele>1801.648</ele>
        <time>2021-07-30T15:06:25Z</time>
      </trkpt>
      <trkpt lat="40.779386" lon="-3.863553">
        <ele>1802.161</ele>
        <time>2021-07-30T15:06:28Z</time>
      </trkpt>
      <trkpt lat="40.779405" lon="-3.863563">
        <ele>1802.617</ele>
        <time>2021-07-30T15:06:31Z</time>
      </trkpt>
      <trkpt lat="40.779424" lon="-3.863577">
        <ele>1803.108</ele>
        <time>2021-07-30T15:06:35Z</time>
      </trkpt>
      <trkpt lat="40.779446" lon="-3.863597">
        <ele>1803.771</ele>
        <time>2021-07-30T15:06:39Z</time>
      </trkpt>
      <trkpt lat="40.779446" lon="-3.863625">
        <ele>1804.293</ele>
        <time>2021-07-30T15:06:42Z</time>
      </trkpt>
      <trkpt lat="40.779456" lon="-3.863652">
        <ele>1804.570</ele>
        <time>2021-07-30T15:06:45Z</time>
      </trkpt>
      <trkpt lat="40.779469" lon="-3.863672">
        <ele>1804.687</ele>
        <time>2021-07-30T15:06:48Z</time>
      </trkpt>
      <trkpt lat="40.779475" lon="-3.863698">
        <ele>1804.938</ele>
        <time>2021-07-30T15:06:51Z</time>
      </trkpt>
      <trkpt lat="40.779494" lon="-3.863710">
        <ele>1804.948</ele>
        <time>2021-07-30T15:06:54Z</time>
      </trkpt>
      <trkpt lat="40.779514" lon="-3.863713">
        <ele>1804.762</ele>
        <time>2021-07-30T15:06:56Z</time>
      </trkpt>
      <trkpt lat="40.779530" lon="-3.863740">
        <ele>1804.889</ele>
        <time>2021-07-30T15:07:00Z</time>
      </trkpt>
      <trkpt lat="40.779542" lon="-3.863763">
        <ele>1804.963</ele>
        <time>2021-07-30T15:07:03Z</time>
      </trkpt>
      <trkpt lat="40.779565" lon="-3.863770">
        <ele>1804.744</ele>
        <time>2021-07-30T15:07:06Z</time>
      </trkpt>
      <trkpt lat="40.779587" lon="-3.863770">
        <ele>1804.418</ele>
        <time>2021-07-30T15:07:08Z</time>
      </trkpt>
      <trkpt lat="40.779610" lon="-3.863793">
        <ele>1804.308</ele>
        <time>2021-07-30T15:07:11Z</time>
      </trkpt>
      <trkpt lat="40.779626" lon="-3.863808">
        <ele>1804.193</ele>
        <time>2021-07-30T15:07:14Z</time>
      </trkpt>
      <trkpt lat="40.779648" lon="-3.863824">
        <ele>1803.995</ele>
        <time>2021-07-30T15:07:17Z</time>
      </trkpt>
      <trkpt lat="40.779664" lon="-3.863838">
        <ele>1803.862</ele>
        <time>2021-07-30T15:07:19Z</time>
      </trkpt>
      <trkpt lat="40.779677" lon="-3.863857">
        <ele>1803.669</ele>
        <time>2021-07-30T15:07:21Z</time>
      </trkpt>
      <trkpt lat="40.779690" lon="-3.863875">
        <ele>1803.560</ele>
        <time>2021-07-30T15:07:23Z</time>
      </trkpt>
      <trkpt lat="40.779706" lon="-3.863886">
        <ele>1803.340</ele>
        <time>2021-07-30T15:07:25Z</time>
      </trkpt>
      <trkpt lat="40.779722" lon="-3.863913">
        <ele>1802.994</ele>
        <time>2021-07-30T15:07:28Z</time>
      </trkpt>
      <trkpt lat="40.779731" lon="-3.863937">
        <ele>1802.751</ele>
        <time>2021-07-30T15:07:30Z</time>
      </trkpt>
      <trkpt lat="40.779747" lon="-3.863957">
        <ele>1802.473</ele>
        <time>2021-07-30T15:07:32Z</time>
      </trkpt>
      <trkpt lat="40.779763" lon="-3.863977">
        <ele>1802.185</ele>
        <time>2021-07-30T15:07:34Z</time>
      </trkpt>
      <trkpt lat="40.779770" lon="-3.864002">
        <ele>1801.913</ele>
        <time>2021-07-30T15:07:36Z</time>
      </trkpt>
      <trkpt lat="40.779786" lon="-3.864016">
        <ele>1801.608</ele>
        <time>2021-07-30T15:07:38Z</time>
      </trkpt>
      <trkpt lat="40.779795" lon="-3.864048">
        <ele>1801.414</ele>
        <time>2021-07-30T15:07:41Z</time>
      </trkpt>
      <trkpt lat="40.779814" lon="-3.864060">
        <ele>1801.126</ele>
        <time>2021-07-30T15:07:44Z</time>
      </trkpt>
      <trkpt lat="40.779830" lon="-3.864087">
        <ele>1800.743</ele>
        <time>2021-07-30T15:07:47Z</time>
      </trkpt>
      <trkpt lat="40.779843" lon="-3.864113">
        <ele>1800.580</ele>
        <time>2021-07-30T15:07:50Z</time>
      </trkpt>
      <trkpt lat="40.779866" lon="-3.864128">
        <ele>1800.111</ele>
        <time>2021-07-30T15:07:53Z</time>
      </trkpt>
      <trkpt lat="40.779885" lon="-3.864127">
        <ele>1799.841</ele>
        <time>2021-07-30T15:07:55Z</time>
      </trkpt>
      <trkpt lat="40.779904" lon="-3.864117">
        <ele>1799.625</ele>
        <time>2021-07-30T15:07:57Z</time>
      </trkpt>
      <trkpt lat="40.779923" lon="-3.864100">
        <ele>1799.382</ele>
        <time>2021-07-30T15:07:59Z</time>
      </trkpt>
      <trkpt lat="40.779942" lon="-3.864090">
        <ele>1799.158</ele>
        <time>2021-07-30T15:08:01Z</time>
      </trkpt>
      <trkpt lat="40.779958" lon="-3.864065">
        <ele>1799.052</ele>
        <time>2021-07-30T15:08:05Z</time>
      </trkpt>
      <trkpt lat="40.779974" lon="-3.864080">
        <ele>1798.717</ele>
        <time>2021-07-30T15:08:08Z</time>
      </trkpt>
      <trkpt lat="40.779990" lon="-3.864112">
        <ele>1798.308</ele>
        <time>2021-07-30T15:08:10Z</time>
      </trkpt>
      <trkpt lat="40.780013" lon="-3.864125">
        <ele>1797.932</ele>
        <time>2021-07-30T15:08:12Z</time>
      </trkpt>
      <trkpt lat="40.780026" lon="-3.864147">
        <ele>1797.574</ele>
        <time>2021-07-30T15:08:15Z</time>
      </trkpt>
      <trkpt lat="40.780045" lon="-3.864160">
        <ele>1797.041</ele>
        <time>2021-07-30T15:08:17Z</time>
      </trkpt>
      <trkpt lat="40.780061" lon="-3.864178">
        <ele>1796.668</ele>
        <time>2021-07-30T15:08:19Z</time>
      </trkpt>
      <trkpt lat="40.780080" lon="-3.864198">
        <ele>1796.139</ele>
        <time>2021-07-30T15:08:22Z</time>
      </trkpt>
      <trkpt lat="40.780102" lon="-3.864210">
        <ele>1795.529</ele>
        <time>2021-07-30T15:08:23Z</time>
      </trkpt>
      <trkpt lat="40.780118" lon="-3.864222">
        <ele>1795.113</ele>
        <time>2021-07-30T15:08:25Z</time>
      </trkpt>
      <trkpt lat="40.780141" lon="-3.864233">
        <ele>1794.650</ele>
        <time>2021-07-30T15:08:27Z</time>
      </trkpt>
      <trkpt lat="40.780163" lon="-3.864257">
        <ele>1794.092</ele>
        <time>2021-07-30T15:08:30Z</time>
      </trkpt>
      <trkpt lat="40.780189" lon="-3.864253">
        <ele>1793.573</ele>
        <time>2021-07-30T15:08:32Z</time>
      </trkpt>
      <trkpt lat="40.780227" lon="-3.864214">
        <ele>1792.920</ele>
        <time>2021-07-30T15:08:35Z</time>
      </trkpt>
      <trkpt lat="40.780246" lon="-3.864220">
        <ele>1792.508</ele>
        <time>2021-07-30T15:08:38Z</time>
      </trkpt>
      <trkpt lat="40.780262" lon="-3.864238">
        <ele>1792.196</ele>
        <time>2021-07-30T15:08:40Z</time>
      </trkpt>
      <trkpt lat="40.780266" lon="-3.864272">
        <ele>1791.938</ele>
        <time>2021-07-30T15:08:42Z</time>
      </trkpt>
      <trkpt lat="40.780272" lon="-3.864297">
        <ele>1791.625</ele>
        <time>2021-07-30T15:08:44Z</time>
      </trkpt>
      <trkpt lat="40.780291" lon="-3.864317">
        <ele>1791.252</ele>
        <time>2021-07-30T15:08:46Z</time>
      </trkpt>
      <trkpt lat="40.780310" lon="-3.864330">
        <ele>1790.983</ele>
        <time>2021-07-30T15:08:48Z</time>
      </trkpt>
      <trkpt lat="40.780323" lon="-3.864350">
        <ele>1790.763</ele>
        <time>2021-07-30T15:08:50Z</time>
      </trkpt>
      <trkpt lat="40.780339" lon="-3.864365">
        <ele>1790.447</ele>
        <time>2021-07-30T15:08:52Z</time>
      </trkpt>
      <trkpt lat="40.780365" lon="-3.864390">
        <ele>1790.174</ele>
        <time>2021-07-30T15:08:56Z</time>
      </trkpt>
      <trkpt lat="40.780365" lon="-3.864416">
        <ele>1790.169</ele>
        <time>2021-07-30T15:08:58Z</time>
      </trkpt>
      <trkpt lat="40.780384" lon="-3.864422">
        <ele>1789.804</ele>
        <time>2021-07-30T15:09:00Z</time>
      </trkpt>
      <trkpt lat="40.780403" lon="-3.864413">
        <ele>1789.624</ele>
        <time>2021-07-30T15:09:02Z</time>
      </trkpt>
      <trkpt lat="40.780426" lon="-3.864410">
        <ele>1789.308</ele>
        <time>2021-07-30T15:09:04Z</time>
      </trkpt>
      <trkpt lat="40.780445" lon="-3.864418">
        <ele>1789.193</ele>
        <time>2021-07-30T15:09:06Z</time>
      </trkpt>
      <trkpt lat="40.780467" lon="-3.864415">
        <ele>1788.875</ele>
        <time>2021-07-30T15:09:08Z</time>
      </trkpt>
      <trkpt lat="40.780499" lon="-3.864416">
        <ele>1788.532</ele>
        <time>2021-07-30T15:09:12Z</time>
      </trkpt>
      <trkpt lat="40.780522" lon="-3.864425">
        <ele>1788.299</ele>
        <time>2021-07-30T15:09:14Z</time>
      </trkpt>
      <trkpt lat="40.780544" lon="-3.864438">
        <ele>1788.120</ele>
        <time>2021-07-30T15:09:17Z</time>
      </trkpt>
      <trkpt lat="40.780563" lon="-3.864470">
        <ele>1787.660</ele>
        <time>2021-07-30T15:09:20Z</time>
      </trkpt>
      <trkpt lat="40.780579" lon="-3.864487">
        <ele>1787.344</ele>
        <time>2021-07-30T15:09:22Z</time>
      </trkpt>
      <trkpt lat="40.780598" lon="-3.864500">
        <ele>1787.091</ele>
        <time>2021-07-30T15:09:24Z</time>
      </trkpt>
      <trkpt lat="40.780618" lon="-3.864515">
        <ele>1786.663</ele>
        <time>2021-07-30T15:09:26Z</time>
      </trkpt>
      <trkpt lat="40.780624" lon="-3.864520">
        <ele>1786.544</ele>
        <time>2021-07-30T15:09:27Z</time>
      </trkpt>
      <trkpt lat="40.780659" lon="-3.864545">
        <ele>1785.918</ele>
        <time>2021-07-30T15:09:31Z</time>
      </trkpt>
      <trkpt lat="40.780682" lon="-3.864560">
        <ele>1785.608</ele>
        <time>2021-07-30T15:09:34Z</time>
      </trkpt>
      <trkpt lat="40.780701" lon="-3.864572">
        <ele>1785.363</ele>
        <time>2021-07-30T15:09:35Z</time>
      </trkpt>
      <trkpt lat="40.780720" lon="-3.864582">
        <ele>1785.055</ele>
        <time>2021-07-30T15:09:37Z</time>
      </trkpt>
      <trkpt lat="40.780736" lon="-3.864597">
        <ele>1784.852</ele>
        <time>2021-07-30T15:09:39Z</time>
      </trkpt>
      <trkpt lat="40.780762" lon="-3.864612">
        <ele>1784.469</ele>
        <time>2021-07-30T15:09:41Z</time>
      </trkpt>
      <trkpt lat="40.780778" lon="-3.864620">
        <ele>1784.240</ele>
        <time>2021-07-30T15:09:48Z</time>
      </trkpt>
      <trkpt lat="40.780794" lon="-3.864630">
        <ele>1784.030</ele>
        <time>2021-07-30T15:09:54Z</time>
      </trkpt>
      <trkpt lat="40.780819" lon="-3.864643">
        <ele>1783.744</ele>
        <time>2021-07-30T15:09:55Z</time>
      </trkpt>
      <trkpt lat="40.780838" lon="-3.864673">
        <ele>1783.441</ele>
        <time>2021-07-30T15:09:58Z</time>
      </trkpt>
      <trkpt lat="40.780861" lon="-3.864680">
        <ele>1783.521</ele>
        <time>2021-07-30T15:10:01Z</time>
      </trkpt>
      <trkpt lat="40.780880" lon="-3.864690">
        <ele>1783.741</ele>
        <time>2021-07-30T15:10:03Z</time>
      </trkpt>
      <trkpt lat="40.780906" lon="-3.864683">
        <ele>1783.905</ele>
        <time>2021-07-30T15:10:06Z</time>
      </trkpt>
      <trkpt lat="40.780918" lon="-3.864702">
        <ele>1784.008</ele>
        <time>2021-07-30T15:10:08Z</time>
      </trkpt>
      <trkpt lat="40.780938" lon="-3.864723">
        <ele>1784.179</ele>
        <time>2021-07-30T15:10:10Z</time>
      </trkpt>
      <trkpt lat="40.780947" lon="-3.864752">
        <ele>1784.381</ele>
        <time>2021-07-30T15:10:12Z</time>
      </trkpt>
      <trkpt lat="40.780963" lon="-3.864765">
        <ele>1784.598</ele>
        <time>2021-07-30T15:10:14Z</time>
      </trkpt>
      <trkpt lat="40.780986" lon="-3.864775">
        <ele>1784.895</ele>
        <time>2021-07-30T15:10:16Z</time>
      </trkpt>
      <trkpt lat="40.781021" lon="-3.864772">
        <ele>1785.296</ele>
        <time>2021-07-30T15:10:18Z</time>
      </trkpt>
      <trkpt lat="40.781040" lon="-3.864768">
        <ele>1785.456</ele>
        <time>2021-07-30T15:10:20Z</time>
      </trkpt>
      <trkpt lat="40.781062" lon="-3.864766">
        <ele>1785.720</ele>
        <time>2021-07-30T15:10:22Z</time>
      </trkpt>
      <trkpt lat="40.781091" lon="-3.864755">
        <ele>1786.027</ele>
        <time>2021-07-30T15:10:24Z</time>
      </trkpt>
      <trkpt lat="40.781110" lon="-3.864742">
        <ele>1786.132</ele>
        <time>2021-07-30T15:10:26Z</time>
      </trkpt>
      <trkpt lat="40.781133" lon="-3.864735">
        <ele>1785.692</ele>
        <time>2021-07-30T15:10:28Z</time>
      </trkpt>
      <trkpt lat="40.781152" lon="-3.864733">
        <ele>1785.211</ele>
        <time>2021-07-30T15:10:29Z</time>
      </trkpt>
      <trkpt lat="40.781174" lon="-3.864730">
        <ele>1784.708</ele>
        <time>2021-07-30T15:10:31Z</time>
      </trkpt>
      <trkpt lat="40.781194" lon="-3.864726">
        <ele>1784.290</ele>
        <time>2021-07-30T15:10:32Z</time>
      </trkpt>
      <trkpt lat="40.781219" lon="-3.864715">
        <ele>1783.642</ele>
        <time>2021-07-30T15:10:34Z</time>
      </trkpt>
      <trkpt lat="40.781242" lon="-3.864704">
        <ele>1783.199</ele>
        <time>2021-07-30T15:10:36Z</time>
      </trkpt>
      <trkpt lat="40.781261" lon="-3.864710">
        <ele>1782.736</ele>
        <time>2021-07-30T15:10:38Z</time>
      </trkpt>
      <trkpt lat="40.781280" lon="-3.864700">
        <ele>1782.397</ele>
        <time>2021-07-30T15:10:40Z</time>
      </trkpt>
      <trkpt lat="40.781312" lon="-3.864683">
        <ele>1781.697</ele>
        <time>2021-07-30T15:10:42Z</time>
      </trkpt>
      <trkpt lat="40.781331" lon="-3.864687">
        <ele>1781.251</ele>
        <time>2021-07-30T15:10:44Z</time>
      </trkpt>
      <trkpt lat="40.781350" lon="-3.864718">
        <ele>1780.898</ele>
        <time>2021-07-30T15:10:46Z</time>
      </trkpt>
      <trkpt lat="40.781363" lon="-3.864735">
        <ele>1780.631</ele>
        <time>2021-07-30T15:10:50Z</time>
      </trkpt>
      <trkpt lat="40.781389" lon="-3.864743">
        <ele>1780.061</ele>
        <time>2021-07-30T15:10:52Z</time>
      </trkpt>
      <trkpt lat="40.781402" lon="-3.864763">
        <ele>1780.107</ele>
        <time>2021-07-30T15:10:54Z</time>
      </trkpt>
      <trkpt lat="40.781418" lon="-3.864798">
        <ele>1780.208</ele>
        <time>2021-07-30T15:10:57Z</time>
      </trkpt>
      <trkpt lat="40.781424" lon="-3.864825">
        <ele>1780.340</ele>
        <time>2021-07-30T15:10:59Z</time>
      </trkpt>
      <trkpt lat="40.781437" lon="-3.864847">
        <ele>1780.492</ele>
        <time>2021-07-30T15:11:01Z</time>
      </trkpt>
      <trkpt lat="40.781456" lon="-3.864863">
        <ele>1780.639</ele>
        <time>2021-07-30T15:11:04Z</time>
      </trkpt>
      <trkpt lat="40.781472" lon="-3.864875">
        <ele>1780.826</ele>
        <time>2021-07-30T15:11:06Z</time>
      </trkpt>
      <trkpt lat="40.781488" lon="-3.864902">
        <ele>1781.047</ele>
        <time>2021-07-30T15:11:08Z</time>
      </trkpt>
      <trkpt lat="40.781504" lon="-3.864918">
        <ele>1781.387</ele>
        <time>2021-07-30T15:11:10Z</time>
      </trkpt>
      <trkpt lat="40.781517" lon="-3.864945">
        <ele>1781.651</ele>
        <time>2021-07-30T15:11:12Z</time>
      </trkpt>
      <trkpt lat="40.781530" lon="-3.864970">
        <ele>1781.978</ele>
        <time>2021-07-30T15:11:14Z</time>
      </trkpt>
      <trkpt lat="40.781539" lon="-3.865000">
        <ele>1782.244</ele>
        <time>2021-07-30T15:11:16Z</time>
      </trkpt>
      <trkpt lat="40.781552" lon="-3.865022">
        <ele>1782.505</ele>
        <time>2021-07-30T15:11:18Z</time>
      </trkpt>
      <trkpt lat="40.781562" lon="-3.865048">
        <ele>1782.815</ele>
        <time>2021-07-30T15:11:20Z</time>
      </trkpt>
      <trkpt lat="40.781574" lon="-3.865066">
        <ele>1783.108</ele>
        <time>2021-07-30T15:11:22Z</time>
      </trkpt>
      <trkpt lat="40.781594" lon="-3.865070">
        <ele>1783.571</ele>
        <time>2021-07-30T15:11:24Z</time>
      </trkpt>
      <trkpt lat="40.781638" lon="-3.865106">
        <ele>1784.653</ele>
        <time>2021-07-30T15:11:29Z</time>
      </trkpt>
      <trkpt lat="40.781686" lon="-3.865132">
        <ele>1785.530</ele>
        <time>2021-07-30T15:11:34Z</time>
      </trkpt>
      <trkpt lat="40.781712" lon="-3.865135">
        <ele>1785.797</ele>
        <time>2021-07-30T15:11:36Z</time>
      </trkpt>
      <trkpt lat="40.781718" lon="-3.865158">
        <ele>1786.028</ele>
        <time>2021-07-30T15:11:37Z</time>
      </trkpt>
      <trkpt lat="40.781741" lon="-3.865172">
        <ele>1786.398</ele>
        <time>2021-07-30T15:11:39Z</time>
      </trkpt>
      <trkpt lat="40.781773" lon="-3.865187">
        <ele>1786.722</ele>
        <time>2021-07-30T15:11:41Z</time>
      </trkpt>
      <trkpt lat="40.781795" lon="-3.865197">
        <ele>1786.979</ele>
        <time>2021-07-30T15:11:43Z</time>
      </trkpt>
      <trkpt lat="40.781811" lon="-3.865212">
        <ele>1787.223</ele>
        <time>2021-07-30T15:11:45Z</time>
      </trkpt>
      <trkpt lat="40.781811" lon="-3.865242">
        <ele>1787.683</ele>
        <time>2021-07-30T15:11:48Z</time>
      </trkpt>
      <trkpt lat="40.781827" lon="-3.865258">
        <ele>1787.911</ele>
        <time>2021-07-30T15:11:52Z</time>
      </trkpt>
      <trkpt lat="40.781840" lon="-3.865283">
        <ele>1788.308</ele>
        <time>2021-07-30T15:11:55Z</time>
      </trkpt>
      <trkpt lat="40.781856" lon="-3.865303">
        <ele>1788.659</ele>
        <time>2021-07-30T15:11:58Z</time>
      </trkpt>
      <trkpt lat="40.781885" lon="-3.865310">
        <ele>1788.891</ele>
        <time>2021-07-30T15:12:01Z</time>
      </trkpt>
      <trkpt lat="40.781907" lon="-3.865315">
        <ele>1789.088</ele>
        <time>2021-07-30T15:12:03Z</time>
      </trkpt>
      <trkpt lat="40.781930" lon="-3.865300">
        <ele>1789.175</ele>
        <time>2021-07-30T15:12:05Z</time>
      </trkpt>
      <trkpt lat="40.781958" lon="-3.865312">
        <ele>1789.476</ele>
        <time>2021-07-30T15:12:07Z</time>
      </trkpt>
      <trkpt lat="40.781958" lon="-3.865342">
        <ele>1789.686</ele>
        <time>2021-07-30T15:12:09Z</time>
      </trkpt>
      <trkpt lat="40.781958" lon="-3.865372">
        <ele>1789.860</ele>
        <time>2021-07-30T15:12:11Z</time>
      </trkpt>
      <trkpt lat="40.781958" lon="-3.865402">
        <ele>1790.017</ele>
        <time>2021-07-30T15:12:14Z</time>
      </trkpt>
      <trkpt lat="40.781952" lon="-3.865436">
        <ele>1790.245</ele>
        <time>2021-07-30T15:12:16Z</time>
      </trkpt>
      <trkpt lat="40.781949" lon="-3.865463">
        <ele>1790.447</ele>
        <time>2021-07-30T15:12:17Z</time>
      </trkpt>
      <trkpt lat="40.781952" lon="-3.865487">
        <ele>1790.611</ele>
        <time>2021-07-30T15:12:19Z</time>
      </trkpt>
      <trkpt lat="40.781952" lon="-3.865520">
        <ele>1790.808</ele>
        <time>2021-07-30T15:12:21Z</time>
      </trkpt>
      <trkpt lat="40.781971" lon="-3.865527">
        <ele>1791.231</ele>
        <time>2021-07-30T15:12:23Z</time>
      </trkpt>
      <trkpt lat="40.781971" lon="-3.865552">
        <ele>1791.473</ele>
        <time>2021-07-30T15:12:25Z</time>
      </trkpt>
      <trkpt lat="40.781965" lon="-3.865584">
        <ele>1791.420</ele>
        <time>2021-07-30T15:12:27Z</time>
      </trkpt>
      <trkpt lat="40.781955" lon="-3.865618">
        <ele>1791.467</ele>
        <time>2021-07-30T15:12:30Z</time>
      </trkpt>
      <trkpt lat="40.781965" lon="-3.865650">
        <ele>1791.788</ele>
        <time>2021-07-30T15:12:33Z</time>
      </trkpt>
      <trkpt lat="40.781965" lon="-3.865677">
        <ele>1791.888</ele>
        <time>2021-07-30T15:12:35Z</time>
      </trkpt>
      <trkpt lat="40.781955" lon="-3.865708">
        <ele>1791.822</ele>
        <time>2021-07-30T15:12:37Z</time>
      </trkpt>
      <trkpt lat="40.781958" lon="-3.865733">
        <ele>1791.999</ele>
        <time>2021-07-30T15:12:39Z</time>
      </trkpt>
      <trkpt lat="40.781958" lon="-3.865760">
        <ele>1792.036</ele>
        <time>2021-07-30T15:12:41Z</time>
      </trkpt>
      <trkpt lat="40.781958" lon="-3.865795">
        <ele>1792.217</ele>
        <time>2021-07-30T15:12:43Z</time>
      </trkpt>
      <trkpt lat="40.781965" lon="-3.865820">
        <ele>1792.518</ele>
        <time>2021-07-30T15:12:44Z</time>
      </trkpt>
      <trkpt lat="40.781955" lon="-3.865847">
        <ele>1792.008</ele>
        <time>2021-07-30T15:12:46Z</time>
      </trkpt>
      <trkpt lat="40.781952" lon="-3.865872">
        <ele>1791.520</ele>
        <time>2021-07-30T15:12:48Z</time>
      </trkpt>
      <trkpt lat="40.781949" lon="-3.865897">
        <ele>1791.062</ele>
        <time>2021-07-30T15:12:50Z</time>
      </trkpt>
      <trkpt lat="40.781936" lon="-3.865922">
        <ele>1790.459</ele>
        <time>2021-07-30T15:12:52Z</time>
      </trkpt>
      <trkpt lat="40.781930" lon="-3.865954">
        <ele>1789.836</ele>
        <time>2021-07-30T15:12:54Z</time>
      </trkpt>
      <trkpt lat="40.781920" lon="-3.865983">
        <ele>1789.357</ele>
        <time>2021-07-30T15:12:56Z</time>
      </trkpt>
      <trkpt lat="40.781910" lon="-3.866023">
        <ele>1788.647</ele>
        <time>2021-07-30T15:12:59Z</time>
      </trkpt>
      <trkpt lat="40.781907" lon="-3.866052">
        <ele>1788.161</ele>
        <time>2021-07-30T15:13:01Z</time>
      </trkpt>
      <trkpt lat="40.781894" lon="-3.866068">
        <ele>1787.928</ele>
        <time>2021-07-30T15:13:04Z</time>
      </trkpt>
      <trkpt lat="40.781891" lon="-3.866095">
        <ele>1787.472</ele>
        <time>2021-07-30T15:13:07Z</time>
      </trkpt>
      <trkpt lat="40.781878" lon="-3.866133">
        <ele>1786.813</ele>
        <time>2021-07-30T15:13:09Z</time>
      </trkpt>
      <trkpt lat="40.781878" lon="-3.866178">
        <ele>1785.914</ele>
        <time>2021-07-30T15:13:11Z</time>
      </trkpt>
      <trkpt lat="40.781885" lon="-3.866208">
        <ele>1785.208</ele>
        <time>2021-07-30T15:13:13Z</time>
      </trkpt>
      <trkpt lat="40.781885" lon="-3.866238">
        <ele>1784.614</ele>
        <time>2021-07-30T15:13:16Z</time>
      </trkpt>
      <trkpt lat="40.781891" lon="-3.866265">
        <ele>1784.146</ele>
        <time>2021-07-30T15:13:19Z</time>
      </trkpt>
      <trkpt lat="40.781885" lon="-3.866292">
        <ele>1783.533</ele>
        <time>2021-07-30T15:13:21Z</time>
      </trkpt>
      <trkpt lat="40.781885" lon="-3.866330">
        <ele>1782.820</ele>
        <time>2021-07-30T15:13:23Z</time>
      </trkpt>
      <trkpt lat="40.781885" lon="-3.866358">
        <ele>1782.251</ele>
        <time>2021-07-30T15:13:26Z</time>
      </trkpt>
      <trkpt lat="40.781878" lon="-3.866382">
        <ele>1781.741</ele>
        <time>2021-07-30T15:13:28Z</time>
      </trkpt>
      <trkpt lat="40.781875" lon="-3.866412">
        <ele>1781.195</ele>
        <time>2021-07-30T15:13:30Z</time>
      </trkpt>
      <trkpt lat="40.781869" lon="-3.866440">
        <ele>1780.612</ele>
        <time>2021-07-30T15:13:33Z</time>
      </trkpt>
      <trkpt lat="40.781856" lon="-3.866466">
        <ele>1780.125</ele>
        <time>2021-07-30T15:13:35Z</time>
      </trkpt>
      <trkpt lat="40.781859" lon="-3.866495">
        <ele>1779.626</ele>
        <time>2021-07-30T15:13:37Z</time>
      </trkpt>
      <trkpt lat="40.781869" lon="-3.866528">
        <ele>1779.208</ele>
        <time>2021-07-30T15:13:40Z</time>
      </trkpt>
      <trkpt lat="40.781859" lon="-3.866562">
        <ele>1778.508</ele>
        <time>2021-07-30T15:13:42Z</time>
      </trkpt>
      <trkpt lat="40.781846" lon="-3.866608">
        <ele>1777.629</ele>
        <time>2021-07-30T15:13:44Z</time>
      </trkpt>
      <trkpt lat="40.781846" lon="-3.866640">
        <ele>1777.011</ele>
        <time>2021-07-30T15:13:46Z</time>
      </trkpt>
      <trkpt lat="40.781850" lon="-3.866672">
        <ele>1776.648</ele>
        <time>2021-07-30T15:13:48Z</time>
      </trkpt>
      <trkpt lat="40.781869" lon="-3.866705">
        <ele>1777.045</ele>
        <time>2021-07-30T15:13:51Z</time>
      </trkpt>
      <trkpt lat="40.781885" lon="-3.866718">
        <ele>1777.286</ele>
        <time>2021-07-30T15:13:53Z</time>
      </trkpt>
      <trkpt lat="40.781872" lon="-3.866738">
        <ele>1777.146</ele>
        <time>2021-07-30T15:13:55Z</time>
      </trkpt>
      <trkpt lat="40.781853" lon="-3.866747">
        <ele>1776.850</ele>
        <time>2021-07-30T15:13:58Z</time>
      </trkpt>
      <trkpt lat="40.781821" lon="-3.866745">
        <ele>1776.327</ele>
        <time>2021-07-30T15:14:01Z</time>
      </trkpt>
      <trkpt lat="40.781798" lon="-3.866735">
        <ele>1775.941</ele>
        <time>2021-07-30T15:14:04Z</time>
      </trkpt>
      <trkpt lat="40.781789" lon="-3.866713">
        <ele>1775.781</ele>
        <time>2021-07-30T15:14:06Z</time>
      </trkpt>
      <trkpt lat="40.781779" lon="-3.866688">
        <ele>1775.609</ele>
        <time>2021-07-30T15:14:08Z</time>
      </trkpt>
      <trkpt lat="40.781757" lon="-3.866664">
        <ele>1775.408</ele>
        <time>2021-07-30T15:14:11Z</time>
      </trkpt>
      <trkpt lat="40.781738" lon="-3.866657">
        <ele>1775.271</ele>
        <time>2021-07-30T15:14:13Z</time>
      </trkpt>
      <trkpt lat="40.781728" lon="-3.866627">
        <ele>1775.713</ele>
        <time>2021-07-30T15:14:15Z</time>
      </trkpt>
      <trkpt lat="40.781699" lon="-3.866620">
        <ele>1775.440</ele>
        <time>2021-07-30T15:14:17Z</time>
      </trkpt>
      <trkpt lat="40.781686" lon="-3.866600">
        <ele>1775.747</ele>
        <time>2021-07-30T15:14:19Z</time>
      </trkpt>
      <trkpt lat="40.781670" lon="-3.866580">
        <ele>1775.958</ele>
        <time>2021-07-30T15:14:21Z</time>
      </trkpt>
      <trkpt lat="40.781638" lon="-3.866583">
        <ele>1775.228</ele>
        <time>2021-07-30T15:14:25Z</time>
      </trkpt>
      <trkpt lat="40.781635" lon="-3.866590">
        <ele>1774.992</ele>
        <time>2021-07-30T15:14:26Z</time>
      </trkpt>
      <trkpt lat="40.781619" lon="-3.866615">
        <ele>1774.119</ele>
        <time>2021-07-30T15:14:28Z</time>
      </trkpt>
      <trkpt lat="40.781600" lon="-3.866644">
        <ele>1773.034</ele>
        <time>2021-07-30T15:14:31Z</time>
      </trkpt>
      <trkpt lat="40.781594" lon="-3.866668">
        <ele>1772.455</ele>
        <time>2021-07-30T15:14:33Z</time>
      </trkpt>
      <trkpt lat="40.781600" lon="-3.866700">
        <ele>1772.410</ele>
        <time>2021-07-30T15:14:36Z</time>
      </trkpt>
      <trkpt lat="40.781578" lon="-3.866702">
        <ele>1771.908</ele>
        <time>2021-07-30T15:14:41Z</time>
      </trkpt>
      <trkpt lat="40.781558" lon="-3.866713">
        <ele>1771.440</ele>
        <time>2021-07-30T15:14:43Z</time>
      </trkpt>
      <trkpt lat="40.781539" lon="-3.866720">
        <ele>1771.092</ele>
        <time>2021-07-30T15:14:50Z</time>
      </trkpt>
      <trkpt lat="40.781523" lon="-3.866737">
        <ele>1770.539</ele>
        <time>2021-07-30T15:14:54Z</time>
      </trkpt>
      <trkpt lat="40.781504" lon="-3.866753">
        <ele>1770.076</ele>
        <time>2021-07-30T15:14:57Z</time>
      </trkpt>
      <trkpt lat="40.781482" lon="-3.866767">
        <ele>1769.497</ele>
        <time>2021-07-30T15:15:00Z</time>
      </trkpt>
      <trkpt lat="40.781462" lon="-3.866778">
        <ele>1768.987</ele>
        <time>2021-07-30T15:15:02Z</time>
      </trkpt>
      <trkpt lat="40.781443" lon="-3.866800">
        <ele>1768.321</ele>
        <time>2021-07-30T15:15:04Z</time>
      </trkpt>
      <trkpt lat="40.781421" lon="-3.866828">
        <ele>1767.658</ele>
        <time>2021-07-30T15:15:08Z</time>
      </trkpt>
      <trkpt lat="40.781402" lon="-3.866845">
        <ele>1767.013</ele>
        <time>2021-07-30T15:15:11Z</time>
      </trkpt>
      <trkpt lat="40.781382" lon="-3.866850">
        <ele>1766.543</ele>
        <time>2021-07-30T15:15:14Z</time>
      </trkpt>
      <trkpt lat="40.781373" lon="-3.866872">
        <ele>1766.007</ele>
        <time>2021-07-30T15:15:18Z</time>
      </trkpt>
      <trkpt lat="40.781341" lon="-3.866870">
        <ele>1765.008</ele>
        <time>2021-07-30T15:15:21Z</time>
      </trkpt>
      <trkpt lat="40.781312" lon="-3.866883">
        <ele>1764.048</ele>
        <time>2021-07-30T15:15:24Z</time>
      </trkpt>
      <trkpt lat="40.781293" lon="-3.866898">
        <ele>1763.390</ele>
        <time>2021-07-30T15:15:27Z</time>
      </trkpt>
      <trkpt lat="40.781264" lon="-3.866897">
        <ele>1762.427</ele>
        <time>2021-07-30T15:15:30Z</time>
      </trkpt>
      <trkpt lat="40.781245" lon="-3.866885">
        <ele>1761.914</ele>
        <time>2021-07-30T15:15:32Z</time>
      </trkpt>
      <trkpt lat="40.781219" lon="-3.866872">
        <ele>1761.235</ele>
        <time>2021-07-30T15:15:35Z</time>
      </trkpt>
      <trkpt lat="40.781197" lon="-3.866863">
        <ele>1760.695</ele>
        <time>2021-07-30T15:15:37Z</time>
      </trkpt>
      <trkpt lat="40.781178" lon="-3.866842">
        <ele>1760.229</ele>
        <time>2021-07-30T15:15:39Z</time>
      </trkpt>
      <trkpt lat="40.781165" lon="-3.866822">
        <ele>1760.056</ele>
        <time>2021-07-30T15:15:41Z</time>
      </trkpt>
      <trkpt lat="40.781155" lon="-3.866800">
        <ele>1759.978</ele>
        <time>2021-07-30T15:15:44Z</time>
      </trkpt>
      <trkpt lat="40.781136" lon="-3.866788">
        <ele>1759.433</ele>
        <time>2021-07-30T15:15:47Z</time>
      </trkpt>
      <trkpt lat="40.781117" lon="-3.866787">
        <ele>1758.926</ele>
        <time>2021-07-30T15:15:49Z</time>
      </trkpt>
      <trkpt lat="40.781091" lon="-3.866797">
        <ele>1758.008</ele>
        <time>2021-07-30T15:15:52Z</time>
      </trkpt>
      <trkpt lat="40.781066" lon="-3.866792">
        <ele>1757.414</ele>
        <time>2021-07-30T15:15:55Z</time>
      </trkpt>
      <trkpt lat="40.781043" lon="-3.866787">
        <ele>1756.816</ele>
        <time>2021-07-30T15:15:58Z</time>
      </trkpt>
      <trkpt lat="40.781011" lon="-3.866777">
        <ele>1756.093</ele>
        <time>2021-07-30T15:16:02Z</time>
      </trkpt>
      <trkpt lat="40.781002" lon="-3.866778">
        <ele>1755.740</ele>
        <time>2021-07-30T15:16:03Z</time>
      </trkpt>
      <trkpt lat="40.780982" lon="-3.866793">
        <ele>1755.041</ele>
        <time>2021-07-30T15:16:09Z</time>
      </trkpt>
      <trkpt lat="40.780973" lon="-3.866814">
        <ele>1754.481</ele>
        <time>2021-07-30T15:16:11Z</time>
      </trkpt>
      <trkpt lat="40.780966" lon="-3.866840">
        <ele>1753.845</ele>
        <time>2021-07-30T15:16:13Z</time>
      </trkpt>
      <trkpt lat="40.780954" lon="-3.866858">
        <ele>1753.282</ele>
        <time>2021-07-30T15:16:17Z</time>
      </trkpt>
      <trkpt lat="40.780941" lon="-3.866882">
        <ele>1752.465</ele>
        <time>2021-07-30T15:16:20Z</time>
      </trkpt>
      <trkpt lat="40.780925" lon="-3.866897">
        <ele>1751.768</ele>
        <time>2021-07-30T15:16:24Z</time>
      </trkpt>
      <trkpt lat="40.780906" lon="-3.866907">
        <ele>1751.014</ele>
        <time>2021-07-30T15:16:26Z</time>
      </trkpt>
      <trkpt lat="40.780893" lon="-3.866932">
        <ele>1750.108</ele>
        <time>2021-07-30T15:16:29Z</time>
      </trkpt>
      <trkpt lat="40.780896" lon="-3.866960">
        <ele>1749.883</ele>
        <time>2021-07-30T15:16:35Z</time>
      </trkpt>
      <trkpt lat="40.780883" lon="-3.866982">
        <ele>1749.185</ele>
        <time>2021-07-30T15:16:39Z</time>
      </trkpt>
      <trkpt lat="40.780883" lon="-3.867008">
        <ele>1748.892</ele>
        <time>2021-07-30T15:16:43Z</time>
      </trkpt>
      <trkpt lat="40.780877" lon="-3.867035">
        <ele>1748.359</ele>
        <time>2021-07-30T15:16:46Z</time>
      </trkpt>
      <trkpt lat="40.780861" lon="-3.867052">
        <ele>1747.540</ele>
        <time>2021-07-30T15:16:50Z</time>
      </trkpt>
      <trkpt lat="40.780842" lon="-3.867062">
        <ele>1746.640</ele>
        <time>2021-07-30T15:16:53Z</time>
      </trkpt>
      <trkpt lat="40.780826" lon="-3.867073">
        <ele>1745.934</ele>
        <time>2021-07-30T15:16:55Z</time>
      </trkpt>
      <trkpt lat="40.780819" lon="-3.867102">
        <ele>1745.231</ele>
        <time>2021-07-30T15:16:58Z</time>
      </trkpt>
      <trkpt lat="40.780813" lon="-3.867125">
        <ele>1744.692</ele>
        <time>2021-07-30T15:17:02Z</time>
      </trkpt>
      <trkpt lat="40.780803" lon="-3.867147">
        <ele>1743.973</ele>
        <time>2021-07-30T15:17:09Z</time>
      </trkpt>
      <trkpt lat="40.780774" lon="-3.867145">
        <ele>1742.820</ele>
        <time>2021-07-30T15:17:13Z</time>
      </trkpt>
      <trkpt lat="40.780749" lon="-3.867155">
        <ele>1741.608</ele>
        <time>2021-07-30T15:17:15Z</time>
      </trkpt>
      <trkpt lat="40.780726" lon="-3.867148">
        <ele>1740.896</ele>
        <time>2021-07-30T15:17:20Z</time>
      </trkpt>
      <trkpt lat="40.780717" lon="-3.867170">
        <ele>1740.068</ele>
        <time>2021-07-30T15:17:27Z</time>
      </trkpt>
      <trkpt lat="40.780707" lon="-3.867193">
        <ele>1739.235</ele>
        <time>2021-07-30T15:17:31Z</time>
      </trkpt>
      <trkpt lat="40.780688" lon="-3.867206">
        <ele>1738.162</ele>
        <time>2021-07-30T15:17:36Z</time>
      </trkpt>
      <trkpt lat="40.780669" lon="-3.867227">
        <ele>1736.983</ele>
        <time>2021-07-30T15:17:39Z</time>
      </trkpt>
      <trkpt lat="40.780659" lon="-3.867253">
        <ele>1736.443</ele>
        <time>2021-07-30T15:17:41Z</time>
      </trkpt>
      <trkpt lat="40.780643" lon="-3.867275">
        <ele>1735.537</ele>
        <time>2021-07-30T15:17:45Z</time>
      </trkpt>
      <trkpt lat="40.780621" lon="-3.867272">
        <ele>1734.474</ele>
        <time>2021-07-30T15:17:50Z</time>
      </trkpt>
      <trkpt lat="40.780602" lon="-3.867287">
        <ele>1733.441</ele>
        <time>2021-07-30T15:17:52Z</time>
      </trkpt>
      <trkpt lat="40.780586" lon="-3.867308">
        <ele>1732.481</ele>
        <time>2021-07-30T15:18:00Z</time>
      </trkpt>
      <trkpt lat="40.780579" lon="-3.867334">
        <ele>1731.709</ele>
        <time>2021-07-30T15:18:06Z</time>
      </trkpt>
      <trkpt lat="40.780563" lon="-3.867348">
        <ele>1730.608</ele>
        <time>2021-07-30T15:18:12Z</time>
      </trkpt>
      <trkpt lat="40.780557" lon="-3.867375">
        <ele>1729.951</ele>
        <time>2021-07-30T15:18:15Z</time>
      </trkpt>
      <trkpt lat="40.780547" lon="-3.867350">
        <ele>1729.953</ele>
        <time>2021-07-30T15:18:18Z</time>
      </trkpt>
      <trkpt lat="40.780528" lon="-3.867342">
        <ele>1729.580</ele>
        <time>2021-07-30T15:18:23Z</time>
      </trkpt>
      <trkpt lat="40.780509" lon="-3.867354">
        <ele>1728.757</ele>
        <time>2021-07-30T15:18:26Z</time>
      </trkpt>
      <trkpt lat="40.780490" lon="-3.867358">
        <ele>1728.178</ele>
        <time>2021-07-30T15:18:29Z</time>
      </trkpt>
      <trkpt lat="40.780467" lon="-3.867354">
        <ele>1727.468</ele>
        <time>2021-07-30T15:18:32Z</time>
      </trkpt>
      <trkpt lat="40.780448" lon="-3.867354">
        <ele>1726.962</ele>
        <time>2021-07-30T15:18:34Z</time>
      </trkpt>
      <trkpt lat="40.780429" lon="-3.867357">
        <ele>1726.269</ele>
        <time>2021-07-30T15:18:38Z</time>
      </trkpt>
      <trkpt lat="40.780406" lon="-3.867362">
        <ele>1725.416</ele>
        <time>2021-07-30T15:18:45Z</time>
      </trkpt>
      <trkpt lat="40.780387" lon="-3.867368">
        <ele>1724.776</ele>
        <time>2021-07-30T15:18:47Z</time>
      </trkpt>
      <trkpt lat="40.780365" lon="-3.867386">
        <ele>1723.513</ele>
        <time>2021-07-30T15:18:49Z</time>
      </trkpt>
      <trkpt lat="40.780349" lon="-3.867418">
        <ele>1722.108</ele>
        <time>2021-07-30T15:18:52Z</time>
      </trkpt>
      <trkpt lat="40.780326" lon="-3.867422">
        <ele>1721.268</ele>
        <time>2021-07-30T15:18:56Z</time>
      </trkpt>
      <trkpt lat="40.780304" lon="-3.867420">
        <ele>1720.560</ele>
        <time>2021-07-30T15:18:59Z</time>
      </trkpt>
      <trkpt lat="40.780285" lon="-3.867430">
        <ele>1719.597</ele>
        <time>2021-07-30T15:19:02Z</time>
      </trkpt>
      <trkpt lat="40.780272" lon="-3.867447">
        <ele>1718.684</ele>
        <time>2021-07-30T15:19:06Z</time>
      </trkpt>
      <trkpt lat="40.780246" lon="-3.867462">
        <ele>1717.695</ele>
        <time>2021-07-30T15:19:10Z</time>
      </trkpt>
      <trkpt lat="40.780224" lon="-3.867458">
        <ele>1717.295</ele>
        <time>2021-07-30T15:19:12Z</time>
      </trkpt>
      <trkpt lat="40.780205" lon="-3.867463">
        <ele>1716.719</ele>
        <time>2021-07-30T15:19:16Z</time>
      </trkpt>
      <trkpt lat="40.780186" lon="-3.867467">
        <ele>1716.156</ele>
        <time>2021-07-30T15:19:20Z</time>
      </trkpt>
      <trkpt lat="40.780166" lon="-3.867457">
        <ele>1716.028</ele>
        <time>2021-07-30T15:19:23Z</time>
      </trkpt>
      <trkpt lat="40.780150" lon="-3.867443">
        <ele>1716.289</ele>
        <time>2021-07-30T15:19:27Z</time>
      </trkpt>
      <trkpt lat="40.780131" lon="-3.867438">
        <ele>1716.017</ele>
        <time>2021-07-30T15:19:31Z</time>
      </trkpt>
      <trkpt lat="40.780112" lon="-3.867433">
        <ele>1715.708</ele>
        <time>2021-07-30T15:19:35Z</time>
      </trkpt>
      <trkpt lat="40.780086" lon="-3.867432">
        <ele>1715.249</ele>
        <time>2021-07-30T15:19:40Z</time>
      </trkpt>
      <trkpt lat="40.780074" lon="-3.867448">
        <ele>1714.461</ele>
        <time>2021-07-30T15:19:42Z</time>
      </trkpt>
      <trkpt lat="40.780061" lon="-3.867470">
        <ele>1713.418</ele>
        <time>2021-07-30T15:19:46Z</time>
      </trkpt>
      <trkpt lat="40.780042" lon="-3.867478">
        <ele>1712.725</ele>
        <time>2021-07-30T15:19:50Z</time>
      </trkpt>
      <trkpt lat="40.780026" lon="-3.867498">
        <ele>1711.696</ele>
        <time>2021-07-30T15:20:14Z</time>
      </trkpt>
      <trkpt lat="40.780006" lon="-3.867512">
        <ele>1710.716</ele>
        <time>2021-07-30T15:20:15Z</time>
      </trkpt>
      <trkpt lat="40.779981" lon="-3.867522">
        <ele>1710.120</ele>
        <time>2021-07-30T15:20:17Z</time>
      </trkpt>
      <trkpt lat="40.779958" lon="-3.867522">
        <ele>1709.837</ele>
        <time>2021-07-30T15:20:19Z</time>
      </trkpt>
      <trkpt lat="40.779939" lon="-3.867520">
        <ele>1709.726</ele>
        <time>2021-07-30T15:20:21Z</time>
      </trkpt>
      <trkpt lat="40.779914" lon="-3.867526">
        <ele>1709.347</ele>
        <time>2021-07-30T15:20:22Z</time>
      </trkpt>
      <trkpt lat="40.779930" lon="-3.867542">
        <ele>1708.911</ele>
        <time>2021-07-30T15:20:28Z</time>
      </trkpt>
      <trkpt lat="40.779962" lon="-3.867528">
        <ele>1709.708</ele>
        <time>2021-07-30T15:20:29Z</time>
      </trkpt>
      <trkpt lat="40.779974" lon="-3.867512">
        <ele>1710.369</ele>
        <time>2021-07-30T15:20:37Z</time>
      </trkpt>
      <trkpt lat="40.779984" lon="-3.867483">
        <ele>1711.461</ele>
        <time>2021-07-30T15:21:27Z</time>
      </trkpt>
      <trkpt lat="40.779958" lon="-3.867487">
        <ele>1711.068</ele>
        <time>2021-07-30T15:21:30Z</time>
      </trkpt>
      <trkpt lat="40.779930" lon="-3.867500">
        <ele>1710.245</ele>
        <time>2021-07-30T15:21:33Z</time>
      </trkpt>
      <trkpt lat="40.779910" lon="-3.867514">
        <ele>1709.656</ele>
        <time>2021-07-30T15:21:35Z</time>
      </trkpt>
      <trkpt lat="40.779891" lon="-3.867526">
        <ele>1709.056</ele>
        <time>2021-07-30T15:21:38Z</time>
      </trkpt>
      <trkpt lat="40.779882" lon="-3.867550">
        <ele>1708.280</ele>
        <time>2021-07-30T15:21:41Z</time>
      </trkpt>
      <trkpt lat="40.779866" lon="-3.867563">
        <ele>1707.677</ele>
        <time>2021-07-30T15:21:43Z</time>
      </trkpt>
      <trkpt lat="40.779843" lon="-3.867573">
        <ele>1707.111</ele>
        <time>2021-07-30T15:21:45Z</time>
      </trkpt>
      <trkpt lat="40.779814" lon="-3.867582">
        <ele>1706.521</ele>
        <time>2021-07-30T15:21:48Z</time>
      </trkpt>
      <trkpt lat="40.779795" lon="-3.867593">
        <ele>1706.003</ele>
        <time>2021-07-30T15:21:51Z</time>
      </trkpt>
      <trkpt lat="40.779776" lon="-3.867620">
        <ele>1705.008</ele>
        <time>2021-07-30T15:21:55Z</time>
      </trkpt>
      <trkpt lat="40.779754" lon="-3.867635">
        <ele>1704.498</ele>
        <time>2021-07-30T15:22:00Z</time>
      </trkpt>
      <trkpt lat="40.779734" lon="-3.867642">
        <ele>1704.030</ele>
        <time>2021-07-30T15:22:03Z</time>
      </trkpt>
      <trkpt lat="40.779715" lon="-3.867652">
        <ele>1703.687</ele>
        <time>2021-07-30T15:22:06Z</time>
      </trkpt>
      <trkpt lat="40.779686" lon="-3.867673">
        <ele>1703.034</ele>
        <time>2021-07-30T15:22:08Z</time>
      </trkpt>
      <trkpt lat="40.779667" lon="-3.867687">
        <ele>1702.515</ele>
        <time>2021-07-30T15:22:10Z</time>
      </trkpt>
      <trkpt lat="40.779651" lon="-3.867698">
        <ele>1702.275</ele>
        <time>2021-07-30T15:22:11Z</time>
      </trkpt>
      <trkpt lat="40.779626" lon="-3.867715">
        <ele>1701.669</ele>
        <time>2021-07-30T15:22:13Z</time>
      </trkpt>
      <trkpt lat="40.779606" lon="-3.867720">
        <ele>1701.446</ele>
        <time>2021-07-30T15:22:15Z</time>
      </trkpt>
      <trkpt lat="40.779590" lon="-3.867753">
        <ele>1700.337</ele>
        <time>2021-07-30T15:22:19Z</time>
      </trkpt>
      <trkpt lat="40.779578" lon="-3.867772">
        <ele>1699.749</ele>
        <time>2021-07-30T15:22:22Z</time>
      </trkpt>
      <trkpt lat="40.779555" lon="-3.867778">
        <ele>1699.413</ele>
        <time>2021-07-30T15:22:26Z</time>
      </trkpt>
      <trkpt lat="40.779530" lon="-3.867787">
        <ele>1698.908</ele>
        <time>2021-07-30T15:22:28Z</time>
      </trkpt>
      <trkpt lat="40.779504" lon="-3.867805">
        <ele>1698.140</ele>
        <time>2021-07-30T15:22:30Z</time>
      </trkpt>
      <trkpt lat="40.779478" lon="-3.867837">
        <ele>1696.842</ele>
        <time>2021-07-30T15:22:32Z</time>
      </trkpt>
      <trkpt lat="40.779453" lon="-3.867843">
        <ele>1696.439</ele>
        <time>2021-07-30T15:22:35Z</time>
      </trkpt>
      <trkpt lat="40.779430" lon="-3.867845">
        <ele>1696.576</ele>
        <time>2021-07-30T15:22:37Z</time>
      </trkpt>
      <trkpt lat="40.779414" lon="-3.867864">
        <ele>1695.887</ele>
        <time>2021-07-30T15:22:39Z</time>
      </trkpt>
      <trkpt lat="40.779398" lon="-3.867885">
        <ele>1695.267</ele>
        <time>2021-07-30T15:22:42Z</time>
      </trkpt>
      <trkpt lat="40.779389" lon="-3.867913">
        <ele>1694.121</ele>
        <time>2021-07-30T15:22:47Z</time>
      </trkpt>
      <trkpt lat="40.779370" lon="-3.867928">
        <ele>1693.778</ele>
        <time>2021-07-30T15:22:52Z</time>
      </trkpt>
      <trkpt lat="40.779347" lon="-3.867942">
        <ele>1693.483</ele>
        <time>2021-07-30T15:22:55Z</time>
      </trkpt>
      <trkpt lat="40.779328" lon="-3.867948">
        <ele>1693.425</ele>
        <time>2021-07-30T15:22:57Z</time>
      </trkpt>
      <trkpt lat="40.779306" lon="-3.867962">
        <ele>1693.017</ele>
        <time>2021-07-30T15:23:01Z</time>
      </trkpt>
      <trkpt lat="40.779290" lon="-3.867985">
        <ele>1692.308</ele>
        <time>2021-07-30T15:23:03Z</time>
      </trkpt>
      <trkpt lat="40.779270" lon="-3.868003">
        <ele>1691.845</ele>
        <time>2021-07-30T15:23:06Z</time>
      </trkpt>
      <trkpt lat="40.779251" lon="-3.868005">
        <ele>1692.087</ele>
        <time>2021-07-30T15:23:09Z</time>
      </trkpt>
      <trkpt lat="40.779238" lon="-3.868027">
        <ele>1691.364</ele>
        <time>2021-07-30T15:23:12Z</time>
      </trkpt>
      <trkpt lat="40.779216" lon="-3.868022">
        <ele>1691.721</ele>
        <time>2021-07-30T15:23:15Z</time>
      </trkpt>
      <trkpt lat="40.779200" lon="-3.868040">
        <ele>1691.262</ele>
        <time>2021-07-30T15:23:18Z</time>
      </trkpt>
      <trkpt lat="40.779178" lon="-3.868057">
        <ele>1690.862</ele>
        <time>2021-07-30T15:23:25Z</time>
      </trkpt>
      <trkpt lat="40.779171" lon="-3.868085">
        <ele>1689.826</ele>
        <time>2021-07-30T15:23:27Z</time>
      </trkpt>
      <trkpt lat="40.779187" lon="-3.868098">
        <ele>1689.143</ele>
        <time>2021-07-30T15:23:29Z</time>
      </trkpt>
      <trkpt lat="40.779200" lon="-3.868127">
        <ele>1687.831</ele>
        <time>2021-07-30T15:23:32Z</time>
      </trkpt>
      <trkpt lat="40.779216" lon="-3.868138">
        <ele>1687.361</ele>
        <time>2021-07-30T15:23:36Z</time>
      </trkpt>
      <trkpt lat="40.779213" lon="-3.868167">
        <ele>1686.207</ele>
        <time>2021-07-30T15:23:47Z</time>
      </trkpt>
      <trkpt lat="40.779210" lon="-3.868200">
        <ele>1684.908</ele>
        <time>2021-07-30T15:23:50Z</time>
      </trkpt>
      <trkpt lat="40.779213" lon="-3.868225">
        <ele>1683.990</ele>
        <time>2021-07-30T15:23:52Z</time>
      </trkpt>
      <trkpt lat="40.779200" lon="-3.868248">
        <ele>1683.192</ele>
        <time>2021-07-30T15:23:58Z</time>
      </trkpt>
      <trkpt lat="40.779184" lon="-3.868273">
        <ele>1682.349</ele>
        <time>2021-07-30T15:24:00Z</time>
      </trkpt>
      <trkpt lat="40.779171" lon="-3.868307">
        <ele>1681.036</ele>
        <time>2021-07-30T15:24:03Z</time>
      </trkpt>
      <trkpt lat="40.779158" lon="-3.868343">
        <ele>1679.797</ele>
        <time>2021-07-30T15:24:06Z</time>
      </trkpt>
      <trkpt lat="40.779146" lon="-3.868363">
        <ele>1678.997</ele>
        <time>2021-07-30T15:24:11Z</time>
      </trkpt>
      <trkpt lat="40.779133" lon="-3.868387">
        <ele>1678.061</ele>
        <time>2021-07-30T15:24:17Z</time>
      </trkpt>
      <trkpt lat="40.779117" lon="-3.868410">
        <ele>1677.198</ele>
        <time>2021-07-30T15:24:19Z</time>
      </trkpt>
      <trkpt lat="40.779126" lon="-3.868440">
        <ele>1675.588</ele>
        <time>2021-07-30T15:24:22Z</time>
      </trkpt>
      <trkpt lat="40.779146" lon="-3.868446">
        <ele>1675.024</ele>
        <time>2021-07-30T15:24:27Z</time>
      </trkpt>
      <trkpt lat="40.779126" lon="-3.868462">
        <ele>1674.526</ele>
        <time>2021-07-30T15:24:34Z</time>
      </trkpt>
      <trkpt lat="40.779130" lon="-3.868493">
        <ele>1673.008</ele>
        <time>2021-07-30T15:24:37Z</time>
      </trkpt>
      <trkpt lat="40.779146" lon="-3.868505">
        <ele>1672.295</ele>
        <time>2021-07-30T15:24:43Z</time>
      </trkpt>
      <trkpt lat="40.779130" lon="-3.868530">
        <ele>1671.287</ele>
        <time>2021-07-30T15:24:51Z</time>
      </trkpt>
      <trkpt lat="40.779107" lon="-3.868547">
        <ele>1670.754</ele>
        <time>2021-07-30T15:24:54Z</time>
      </trkpt>
      <trkpt lat="40.779094" lon="-3.868572">
        <ele>1669.771</ele>
        <time>2021-07-30T15:24:56Z</time>
      </trkpt>
      <trkpt lat="40.779088" lon="-3.868612">
        <ele>1667.882</ele>
        <time>2021-07-30T15:24:58Z</time>
      </trkpt>
      <trkpt lat="40.779107" lon="-3.868640">
        <ele>1666.442</ele>
        <time>2021-07-30T15:25:02Z</time>
      </trkpt>
      <trkpt lat="40.779101" lon="-3.868662">
        <ele>1665.516</ele>
        <time>2021-07-30T15:25:05Z</time>
      </trkpt>
      <trkpt lat="40.779078" lon="-3.868685">
        <ele>1664.763</ele>
        <time>2021-07-30T15:25:10Z</time>
      </trkpt>
      <trkpt lat="40.779075" lon="-3.868718">
        <ele>1663.235</ele>
        <time>2021-07-30T15:25:16Z</time>
      </trkpt>
      <trkpt lat="40.779091" lon="-3.868747">
        <ele>1661.886</ele>
        <time>2021-07-30T15:25:20Z</time>
      </trkpt>
      <trkpt lat="40.779110" lon="-3.868750">
        <ele>1661.514</ele>
        <time>2021-07-30T15:25:23Z</time>
      </trkpt>
      <trkpt lat="40.779098" lon="-3.868770">
        <ele>1660.708</ele>
        <time>2021-07-30T15:25:26Z</time>
      </trkpt>
      <trkpt lat="40.779021" lon="-3.868845">
        <ele>1658.090</ele>
        <time>2021-07-30T15:25:33Z</time>
      </trkpt>
      <trkpt lat="40.779008" lon="-3.868872">
        <ele>1656.972</ele>
        <time>2021-07-30T15:25:34Z</time>
      </trkpt>
      <trkpt lat="40.778989" lon="-3.868888">
        <ele>1656.349</ele>
        <time>2021-07-30T15:25:36Z</time>
      </trkpt>
      <trkpt lat="40.779008" lon="-3.868865">
        <ele>1657.296</ele>
        <time>2021-07-30T15:25:38Z</time>
      </trkpt>
      <trkpt lat="40.779014" lon="-3.868902">
        <ele>1655.537</ele>
        <time>2021-07-30T15:25:41Z</time>
      </trkpt>
      <trkpt lat="40.778992" lon="-3.868918">
        <ele>1654.937</ele>
        <time>2021-07-30T15:25:43Z</time>
      </trkpt>
      <trkpt lat="40.778995" lon="-3.868885">
        <ele>1656.451</ele>
        <time>2021-07-30T15:25:48Z</time>
      </trkpt>
      <trkpt lat="40.778979" lon="-3.868900">
        <ele>1655.898</ele>
        <time>2021-07-30T15:25:52Z</time>
      </trkpt>
      <trkpt lat="40.778957" lon="-3.868914">
        <ele>1655.368</ele>
        <time>2021-07-30T15:25:57Z</time>
      </trkpt>
      <trkpt lat="40.778941" lon="-3.868932">
        <ele>1654.642</ele>
        <time>2021-07-30T15:26:00Z</time>
      </trkpt>
      <trkpt lat="40.778928" lon="-3.868950">
        <ele>1653.926</ele>
        <time>2021-07-30T15:26:04Z</time>
      </trkpt>
      <trkpt lat="40.778915" lon="-3.868975">
        <ele>1652.808</ele>
        <time>2021-07-30T15:26:11Z</time>
      </trkpt>
      <trkpt lat="40.778902" lon="-3.868997">
        <ele>1651.813</ele>
        <time>2021-07-30T15:26:13Z</time>
      </trkpt>
      <trkpt lat="40.778899" lon="-3.869033">
        <ele>1650.275</ele>
        <time>2021-07-30T15:26:14Z</time>
      </trkpt>
      <trkpt lat="40.778931" lon="-3.869012">
        <ele>1650.922</ele>
        <time>2021-07-30T15:26:20Z</time>
      </trkpt>
      <trkpt lat="40.778941" lon="-3.869002">
        <ele>1651.329</ele>
        <time>2021-07-30T15:26:21Z</time>
      </trkpt>
      <trkpt lat="40.778922" lon="-3.869025">
        <ele>1650.490</ele>
        <time>2021-07-30T15:26:26Z</time>
      </trkpt>
      <trkpt lat="40.778912" lon="-3.869047">
        <ele>1649.440</ele>
        <time>2021-07-30T15:26:28Z</time>
      </trkpt>
      <trkpt lat="40.778902" lon="-3.869073">
        <ele>1648.394</ele>
        <time>2021-07-30T15:26:39Z</time>
      </trkpt>
      <trkpt lat="40.778877" lon="-3.869078">
        <ele>1648.381</ele>
        <time>2021-07-30T15:26:43Z</time>
      </trkpt>
      <trkpt lat="40.778858" lon="-3.869087">
        <ele>1648.272</ele>
        <time>2021-07-30T15:26:45Z</time>
      </trkpt>
      <trkpt lat="40.778838" lon="-3.869092">
        <ele>1648.313</ele>
        <time>2021-07-30T15:26:48Z</time>
      </trkpt>
      <trkpt lat="40.778816" lon="-3.869118">
        <ele>1647.414</ele>
        <time>2021-07-30T15:26:50Z</time>
      </trkpt>
      <trkpt lat="40.778797" lon="-3.869138">
        <ele>1646.708</ele>
        <time>2021-07-30T15:26:53Z</time>
      </trkpt>
      <trkpt lat="40.778778" lon="-3.869142">
        <ele>1646.884</ele>
        <time>2021-07-30T15:26:57Z</time>
      </trkpt>
      <trkpt lat="40.778758" lon="-3.869160">
        <ele>1646.236</ele>
        <time>2021-07-30T15:26:59Z</time>
      </trkpt>
      <trkpt lat="40.778755" lon="-3.869187">
        <ele>1644.933</ele>
        <time>2021-07-30T15:27:01Z</time>
      </trkpt>
      <trkpt lat="40.778730" lon="-3.869202">
        <ele>1644.680</ele>
        <time>2021-07-30T15:27:03Z</time>
      </trkpt>
      <trkpt lat="40.778730" lon="-3.869227">
        <ele>1643.441</ele>
        <time>2021-07-30T15:27:06Z</time>
      </trkpt>
      <trkpt lat="40.778742" lon="-3.869247">
        <ele>1642.291</ele>
        <time>2021-07-30T15:27:08Z</time>
      </trkpt>
      <trkpt lat="40.778730" lon="-3.869270">
        <ele>1641.365</ele>
        <time>2021-07-30T15:27:13Z</time>
      </trkpt>
      <trkpt lat="40.778656" lon="-3.869333">
        <ele>1639.512</ele>
        <time>2021-07-30T15:27:22Z</time>
      </trkpt>
      <trkpt lat="40.778682" lon="-3.869362">
        <ele>1637.797</ele>
        <time>2021-07-30T15:27:25Z</time>
      </trkpt>
      <trkpt lat="40.778701" lon="-3.869365">
        <ele>1637.223</ele>
        <time>2021-07-30T15:27:29Z</time>
      </trkpt>
      <trkpt lat="40.778694" lon="-3.869395">
        <ele>1635.925</ele>
        <time>2021-07-30T15:27:38Z</time>
      </trkpt>
      <trkpt lat="40.778662" lon="-3.869405">
        <ele>1636.008</ele>
        <time>2021-07-30T15:27:40Z</time>
      </trkpt>
      <trkpt lat="40.778650" lon="-3.869434">
        <ele>1634.886</ele>
        <time>2021-07-30T15:27:45Z</time>
      </trkpt>
      <trkpt lat="40.778637" lon="-3.869452">
        <ele>1634.288</ele>
        <time>2021-07-30T15:27:47Z</time>
      </trkpt>
      <trkpt lat="40.778611" lon="-3.869465">
        <ele>1634.085</ele>
        <time>2021-07-30T15:27:49Z</time>
      </trkpt>
      <trkpt lat="40.778589" lon="-3.869480">
        <ele>1633.992</ele>
        <time>2021-07-30T15:27:51Z</time>
      </trkpt>
      <trkpt lat="40.778576" lon="-3.869503">
        <ele>1633.143</ele>
        <time>2021-07-30T15:27:54Z</time>
      </trkpt>
      <trkpt lat="40.778573" lon="-3.869533">
        <ele>1631.753</ele>
        <time>2021-07-30T15:28:02Z</time>
      </trkpt>
      <trkpt lat="40.778560" lon="-3.869553">
        <ele>1631.177</ele>
        <time>2021-07-30T15:28:10Z</time>
      </trkpt>
      <trkpt lat="40.778550" lon="-3.869585">
        <ele>1629.774</ele>
        <time>2021-07-30T15:28:13Z</time>
      </trkpt>
      <trkpt lat="40.778557" lon="-3.869615">
        <ele>1628.156</ele>
        <time>2021-07-30T15:28:15Z</time>
      </trkpt>
      <trkpt lat="40.778557" lon="-3.869640">
        <ele>1626.959</ele>
        <time>2021-07-30T15:28:19Z</time>
      </trkpt>
      <trkpt lat="40.778531" lon="-3.869635">
        <ele>1627.714</ele>
        <time>2021-07-30T15:28:23Z</time>
      </trkpt>
      <trkpt lat="40.778496" lon="-3.869630">
        <ele>1628.708</ele>
        <time>2021-07-30T15:28:25Z</time>
      </trkpt>
      <trkpt lat="40.778490" lon="-3.869660">
        <ele>1627.322</ele>
        <time>2021-07-30T15:28:29Z</time>
      </trkpt>
      <trkpt lat="40.778496" lon="-3.869693">
        <ele>1625.514</ele>
        <time>2021-07-30T15:28:31Z</time>
      </trkpt>
      <trkpt lat="40.778496" lon="-3.869720">
        <ele>1624.221</ele>
        <time>2021-07-30T15:28:33Z</time>
      </trkpt>
      <trkpt lat="40.778483" lon="-3.869748">
        <ele>1623.298</ele>
        <time>2021-07-30T15:28:39Z</time>
      </trkpt>
      <trkpt lat="40.778454" lon="-3.869763">
        <ele>1623.179</ele>
        <time>2021-07-30T15:28:43Z</time>
      </trkpt>
      <trkpt lat="40.778432" lon="-3.869788">
        <ele>1622.519</ele>
        <time>2021-07-30T15:28:47Z</time>
      </trkpt>
      <trkpt lat="40.778432" lon="-3.869814">
        <ele>1621.583</ele>
        <time>2021-07-30T15:28:48Z</time>
      </trkpt>
      <trkpt lat="40.778461" lon="-3.869822">
        <ele>1620.680</ele>
        <time>2021-07-30T15:28:50Z</time>
      </trkpt>
      <trkpt lat="40.778461" lon="-3.869858">
        <ele>1619.198</ele>
        <time>2021-07-30T15:28:52Z</time>
      </trkpt>
      <trkpt lat="40.778480" lon="-3.869872">
        <ele>1618.115</ele>
        <time>2021-07-30T15:28:53Z</time>
      </trkpt>
      <trkpt lat="40.778502" lon="-3.869895">
        <ele>1616.726</ele>
        <time>2021-07-30T15:28:55Z</time>
      </trkpt>
      <trkpt lat="40.778518" lon="-3.869907">
        <ele>1615.908</ele>
        <time>2021-07-30T15:28:57Z</time>
      </trkpt>
      <trkpt lat="40.778493" lon="-3.869895">
        <ele>1616.986</ele>
        <time>2021-07-30T15:29:00Z</time>
      </trkpt>
      <trkpt lat="40.778445" lon="-3.869888">
        <ele>1618.258</ele>
        <time>2021-07-30T15:29:03Z</time>
      </trkpt>
      <trkpt lat="40.778451" lon="-3.869925">
        <ele>1616.535</ele>
        <time>2021-07-30T15:29:07Z</time>
      </trkpt>
      <trkpt lat="40.778435" lon="-3.869938">
        <ele>1616.342</ele>
        <time>2021-07-30T15:29:13Z</time>
      </trkpt>
      <trkpt lat="40.778416" lon="-3.869950">
        <ele>1616.273</ele>
        <time>2021-07-30T15:29:16Z</time>
      </trkpt>
      <trkpt lat="40.778419" lon="-3.870002">
        <ele>1614.193</ele>
        <time>2021-07-30T15:29:18Z</time>
      </trkpt>
      <trkpt lat="40.778422" lon="-3.870028">
        <ele>1612.777</ele>
        <time>2021-07-30T15:29:19Z</time>
      </trkpt>
      <trkpt lat="40.778426" lon="-3.870055">
        <ele>1611.324</ele>
        <time>2021-07-30T15:29:21Z</time>
      </trkpt>
      <trkpt lat="40.778458" lon="-3.870047">
        <ele>1611.096</ele>
        <time>2021-07-30T15:29:23Z</time>
      </trkpt>
      <trkpt lat="40.778474" lon="-3.870035">
        <ele>1611.331</ele>
        <time>2021-07-30T15:29:25Z</time>
      </trkpt>
      <trkpt lat="40.778493" lon="-3.870025">
        <ele>1611.324</ele>
        <time>2021-07-30T15:29:27Z</time>
      </trkpt>
      <trkpt lat="40.778518" lon="-3.870020">
        <ele>1611.108</ele>
        <time>2021-07-30T15:29:29Z</time>
      </trkpt>
      <trkpt lat="40.778554" lon="-3.870006">
        <ele>1610.926</ele>
        <time>2021-07-30T15:29:31Z</time>
      </trkpt>
      <trkpt lat="40.778525" lon="-3.870010">
        <ele>1611.458</ele>
        <time>2021-07-30T15:29:34Z</time>
      </trkpt>
      <trkpt lat="40.778570" lon="-3.869964">
        <ele>1612.465</ele>
        <time>2021-07-30T15:29:37Z</time>
      </trkpt>
      <trkpt lat="40.778582" lon="-3.869937">
        <ele>1613.382</ele>
        <time>2021-07-30T15:29:39Z</time>
      </trkpt>
      <trkpt lat="40.778602" lon="-3.869922">
        <ele>1613.643</ele>
        <time>2021-07-30T15:29:41Z</time>
      </trkpt>
      <trkpt lat="40.778582" lon="-3.869935">
        <ele>1613.443</ele>
        <time>2021-07-30T15:29:44Z</time>
      </trkpt>
      <trkpt lat="40.778602" lon="-3.869940">
        <ele>1612.817</ele>
        <time>2021-07-30T15:29:46Z</time>
      </trkpt>
      <trkpt lat="40.778579" lon="-3.869952">
        <ele>1612.724</ele>
        <time>2021-07-30T15:29:48Z</time>
      </trkpt>
      <trkpt lat="40.778602" lon="-3.869920">
        <ele>1613.675</ele>
        <time>2021-07-30T15:29:54Z</time>
      </trkpt>
      <trkpt lat="40.778595" lon="-3.869942">
        <ele>1612.828</ele>
        <time>2021-07-30T15:30:25Z</time>
      </trkpt>
      <trkpt lat="40.778608" lon="-3.869953">
        <ele>1612.120</ele>
        <time>2021-07-30T15:30:28Z</time>
      </trkpt>
      <trkpt lat="40.778621" lon="-3.869974">
        <ele>1610.908</ele>
        <time>2021-07-30T15:30:32Z</time>
      </trkpt>
      <trkpt lat="40.778640" lon="-3.870006">
        <ele>1609.184</ele>
        <time>2021-07-30T15:30:35Z</time>
      </trkpt>
      <trkpt lat="40.778653" lon="-3.870012">
        <ele>1608.546</ele>
        <time>2021-07-30T15:30:37Z</time>
      </trkpt>
      <trkpt lat="40.778675" lon="-3.870003">
        <ele>1608.593</ele>
        <time>2021-07-30T15:30:39Z</time>
      </trkpt>
      <trkpt lat="40.778694" lon="-3.870000">
        <ele>1608.230</ele>
        <time>2021-07-30T15:30:41Z</time>
      </trkpt>
      <trkpt lat="40.778714" lon="-3.870015">
        <ele>1607.191</ele>
        <time>2021-07-30T15:30:45Z</time>
      </trkpt>
      <trkpt lat="40.778774" lon="-3.869992">
        <ele>1606.861</ele>
        <time>2021-07-30T15:30:48Z</time>
      </trkpt>
      <trkpt lat="40.778794" lon="-3.870002">
        <ele>1606.025</ele>
        <time>2021-07-30T15:30:51Z</time>
      </trkpt>
      <trkpt lat="40.778816" lon="-3.870006">
        <ele>1605.382</ele>
        <time>2021-07-30T15:30:53Z</time>
      </trkpt>
      <trkpt lat="40.778835" lon="-3.870023">
        <ele>1604.231</ele>
        <time>2021-07-30T15:30:56Z</time>
      </trkpt>
      <trkpt lat="40.778848" lon="-3.870040">
        <ele>1603.161</ele>
        <time>2021-07-30T15:30:59Z</time>
      </trkpt>
      <trkpt lat="40.778870" lon="-3.870040">
        <ele>1602.707</ele>
        <time>2021-07-30T15:31:02Z</time>
      </trkpt>
      <trkpt lat="40.778890" lon="-3.870050">
        <ele>1601.808</ele>
        <time>2021-07-30T15:31:05Z</time>
      </trkpt>
      <trkpt lat="40.778909" lon="-3.870052">
        <ele>1601.790</ele>
        <time>2021-07-30T15:31:06Z</time>
      </trkpt>
      <trkpt lat="40.778934" lon="-3.870068">
        <ele>1601.092</ele>
        <time>2021-07-30T15:31:08Z</time>
      </trkpt>
      <trkpt lat="40.778938" lon="-3.870103">
        <ele>1599.659</ele>
        <time>2021-07-30T15:31:11Z</time>
      </trkpt>
      <trkpt lat="40.778909" lon="-3.870082">
        <ele>1600.446</ele>
        <time>2021-07-30T15:31:15Z</time>
      </trkpt>
      <trkpt lat="40.778890" lon="-3.870075">
        <ele>1600.837</ele>
        <time>2021-07-30T15:31:17Z</time>
      </trkpt>
      <trkpt lat="40.778858" lon="-3.870082">
        <ele>1601.147</ele>
        <time>2021-07-30T15:31:20Z</time>
      </trkpt>
      <trkpt lat="40.778835" lon="-3.870085">
        <ele>1601.481</ele>
        <time>2021-07-30T15:31:23Z</time>
      </trkpt>
      <trkpt lat="40.778848" lon="-3.870112">
        <ele>1600.018</ele>
        <time>2021-07-30T15:31:27Z</time>
      </trkpt>
      <trkpt lat="40.778822" lon="-3.870123">
        <ele>1600.099</ele>
        <time>2021-07-30T15:31:30Z</time>
      </trkpt>
      <trkpt lat="40.778800" lon="-3.870122">
        <ele>1600.507</ele>
        <time>2021-07-30T15:31:32Z</time>
      </trkpt>
      <trkpt lat="40.778781" lon="-3.870128">
        <ele>1600.627</ele>
        <time>2021-07-30T15:31:34Z</time>
      </trkpt>
      <trkpt lat="40.778758" lon="-3.870154">
        <ele>1599.908</ele>
        <time>2021-07-30T15:31:36Z</time>
      </trkpt>
      <trkpt lat="40.778736" lon="-3.870164">
        <ele>1599.976</ele>
        <time>2021-07-30T15:31:39Z</time>
      </trkpt>
      <trkpt lat="40.778723" lon="-3.870184">
        <ele>1599.278</ele>
        <time>2021-07-30T15:31:42Z</time>
      </trkpt>
      <trkpt lat="40.778714" lon="-3.870205">
        <ele>1598.565</ele>
        <time>2021-07-30T15:31:44Z</time>
      </trkpt>
      <trkpt lat="40.778704" lon="-3.870232">
        <ele>1597.472</ele>
        <time>2021-07-30T15:31:47Z</time>
      </trkpt>
      <trkpt lat="40.778698" lon="-3.870255">
        <ele>1596.573</ele>
        <time>2021-07-30T15:31:51Z</time>
      </trkpt>
      <trkpt lat="40.778682" lon="-3.870282">
        <ele>1595.543</ele>
        <time>2021-07-30T15:31:58Z</time>
      </trkpt>
      <trkpt lat="40.778662" lon="-3.870285">
        <ele>1595.817</ele>
        <time>2021-07-30T15:31:59Z</time>
      </trkpt>
      <trkpt lat="40.778630" lon="-3.870302">
        <ele>1595.674</ele>
        <time>2021-07-30T15:32:02Z</time>
      </trkpt>
      <trkpt lat="40.778621" lon="-3.870315">
        <ele>1595.274</ele>
        <time>2021-07-30T15:32:04Z</time>
      </trkpt>
      <trkpt lat="40.778624" lon="-3.870342">
        <ele>1594.056</ele>
        <time>2021-07-30T15:32:08Z</time>
      </trkpt>
      <trkpt lat="40.778602" lon="-3.870348">
        <ele>1594.121</ele>
        <time>2021-07-30T15:32:10Z</time>
      </trkpt>
      <trkpt lat="40.778598" lon="-3.870373">
        <ele>1593.108</ele>
        <time>2021-07-30T15:32:15Z</time>
      </trkpt>
      <trkpt lat="40.778598" lon="-3.870405">
        <ele>1591.774</ele>
        <time>2021-07-30T15:32:17Z</time>
      </trkpt>
      <trkpt lat="40.778595" lon="-3.870437">
        <ele>1590.476</ele>
        <time>2021-07-30T15:32:19Z</time>
      </trkpt>
      <trkpt lat="40.778611" lon="-3.870460">
        <ele>1589.143</ele>
        <time>2021-07-30T15:32:26Z</time>
      </trkpt>
      <trkpt lat="40.778602" lon="-3.870488">
        <ele>1588.190</ele>
        <time>2021-07-30T15:32:41Z</time>
      </trkpt>
      <trkpt lat="40.778582" lon="-3.870520">
        <ele>1587.141</ele>
        <time>2021-07-30T15:32:47Z</time>
      </trkpt>
      <trkpt lat="40.778576" lon="-3.870544">
        <ele>1586.191</ele>
        <time>2021-07-30T15:32:51Z</time>
      </trkpt>
      <trkpt lat="40.778576" lon="-3.870570">
        <ele>1584.965</ele>
        <time>2021-07-30T15:32:54Z</time>
      </trkpt>
      <trkpt lat="40.778595" lon="-3.870585">
        <ele>1583.732</ele>
        <time>2021-07-30T15:32:57Z</time>
      </trkpt>
      <trkpt lat="40.778614" lon="-3.870590">
        <ele>1583.123</ele>
        <time>2021-07-30T15:33:00Z</time>
      </trkpt>
      <trkpt lat="40.778634" lon="-3.870582">
        <ele>1583.383</ele>
        <time>2021-07-30T15:33:02Z</time>
      </trkpt>
      <trkpt lat="40.778650" lon="-3.870593">
        <ele>1582.511</ele>
        <time>2021-07-30T15:33:08Z</time>
      </trkpt>
      <trkpt lat="40.778624" lon="-3.870608">
        <ele>1582.008</ele>
        <time>2021-07-30T15:33:11Z</time>
      </trkpt>
      <trkpt lat="40.778598" lon="-3.870627">
        <ele>1581.419</ele>
        <time>2021-07-30T15:33:16Z</time>
      </trkpt>
      <trkpt lat="40.778582" lon="-3.870638">
        <ele>1581.221</ele>
        <time>2021-07-30T15:33:18Z</time>
      </trkpt>
      <trkpt lat="40.778560" lon="-3.870650">
        <ele>1581.038</ele>
        <time>2021-07-30T15:33:19Z</time>
      </trkpt>
      <trkpt lat="40.778538" lon="-3.870664">
        <ele>1580.855</ele>
        <time>2021-07-30T15:33:21Z</time>
      </trkpt>
      <trkpt lat="40.778518" lon="-3.870678">
        <ele>1580.576</ele>
        <time>2021-07-30T15:33:28Z</time>
      </trkpt>
      <trkpt lat="40.778512" lon="-3.870705">
        <ele>1579.346</ele>
        <time>2021-07-30T15:33:35Z</time>
      </trkpt>
      <trkpt lat="40.778496" lon="-3.870716">
        <ele>1579.130</ele>
        <time>2021-07-30T15:33:43Z</time>
      </trkpt>
      <trkpt lat="40.778480" lon="-3.870735">
        <ele>1578.667</ele>
        <time>2021-07-30T15:33:46Z</time>
      </trkpt>
      <trkpt lat="40.778464" lon="-3.870748">
        <ele>1578.484</ele>
        <time>2021-07-30T15:33:48Z</time>
      </trkpt>
      <trkpt lat="40.778493" lon="-3.870777">
        <ele>1576.207</ele>
        <time>2021-07-30T15:34:14Z</time>
      </trkpt>
      <trkpt lat="40.778512" lon="-3.870795">
        <ele>1574.817</ele>
        <time>2021-07-30T15:34:17Z</time>
      </trkpt>
      <trkpt lat="40.778541" lon="-3.870820">
        <ele>1572.708</ele>
        <time>2021-07-30T15:34:35Z</time>
      </trkpt>
      <trkpt lat="40.778560" lon="-3.870828">
        <ele>1571.745</ele>
        <time>2021-07-30T15:34:36Z</time>
      </trkpt>
      <trkpt lat="40.778589" lon="-3.870845">
        <ele>1570.247</ele>
        <time>2021-07-30T15:34:38Z</time>
      </trkpt>
      <trkpt lat="40.778621" lon="-3.870862">
        <ele>1569.034</ele>
        <time>2021-07-30T15:34:40Z</time>
      </trkpt>
      <trkpt lat="40.778643" lon="-3.870867">
        <ele>1568.981</ele>
        <time>2021-07-30T15:34:42Z</time>
      </trkpt>
      <trkpt lat="40.778682" lon="-3.870878">
        <ele>1568.682</ele>
        <time>2021-07-30T15:34:44Z</time>
      </trkpt>
      <trkpt lat="40.778701" lon="-3.870885">
        <ele>1568.432</ele>
        <time>2021-07-30T15:34:46Z</time>
      </trkpt>
      <trkpt lat="40.778678" lon="-3.870902">
        <ele>1567.826</ele>
        <time>2021-07-30T15:35:00Z</time>
      </trkpt>
      <trkpt lat="40.778656" lon="-3.870917">
        <ele>1567.283</ele>
        <time>2021-07-30T15:35:09Z</time>
      </trkpt>
      <trkpt lat="40.778637" lon="-3.870938">
        <ele>1566.445</ele>
        <time>2021-07-30T15:35:11Z</time>
      </trkpt>
      <trkpt lat="40.778608" lon="-3.870965">
        <ele>1565.347</ele>
        <time>2021-07-30T15:35:14Z</time>
      </trkpt>
      <trkpt lat="40.778598" lon="-3.870967">
        <ele>1565.511</ele>
        <time>2021-07-30T15:35:16Z</time>
      </trkpt>
      <trkpt lat="40.778595" lon="-3.870995">
        <ele>1564.508</ele>
        <time>2021-07-30T15:35:20Z</time>
      </trkpt>
      <trkpt lat="40.778595" lon="-3.871030">
        <ele>1563.281</ele>
        <time>2021-07-30T15:35:23Z</time>
      </trkpt>
      <trkpt lat="40.778595" lon="-3.871055">
        <ele>1562.313</ele>
        <time>2021-07-30T15:35:25Z</time>
      </trkpt>
      <trkpt lat="40.778570" lon="-3.871063">
        <ele>1562.470</ele>
        <time>2021-07-30T15:35:30Z</time>
      </trkpt>
      <trkpt lat="40.778554" lon="-3.871086">
        <ele>1561.897</ele>
        <time>2021-07-30T15:35:34Z</time>
      </trkpt>
      <trkpt lat="40.778538" lon="-3.871120">
        <ele>1560.748</ele>
        <time>2021-07-30T15:35:37Z</time>
      </trkpt>
      <trkpt lat="40.778538" lon="-3.871155">
        <ele>1559.298</ele>
        <time>2021-07-30T15:35:40Z</time>
      </trkpt>
      <trkpt lat="40.778541" lon="-3.871180">
        <ele>1558.222</ele>
        <time>2021-07-30T15:35:56Z</time>
      </trkpt>
      <trkpt lat="40.778544" lon="-3.871205">
        <ele>1557.159</ele>
        <time>2021-07-30T15:35:59Z</time>
      </trkpt>
      <trkpt lat="40.778557" lon="-3.871238">
        <ele>1555.658</ele>
        <time>2021-07-30T15:36:01Z</time>
      </trkpt>
      <trkpt lat="40.778554" lon="-3.871268">
        <ele>1554.452</ele>
        <time>2021-07-30T15:36:03Z</time>
      </trkpt>
      <trkpt lat="40.778570" lon="-3.871253">
        <ele>1554.817</ele>
        <time>2021-07-30T15:36:11Z</time>
      </trkpt>
      <trkpt lat="40.778560" lon="-3.871277">
        <ele>1553.908</ele>
        <time>2021-07-30T15:36:13Z</time>
      </trkpt>
      <trkpt lat="40.778563" lon="-3.871303">
        <ele>1552.952</ele>
        <time>2021-07-30T15:36:16Z</time>
      </trkpt>
      <trkpt lat="40.778582" lon="-3.871310">
        <ele>1552.444</ele>
        <time>2021-07-30T15:36:21Z</time>
      </trkpt>
      <trkpt lat="40.778602" lon="-3.871302">
        <ele>1552.561</ele>
        <time>2021-07-30T15:36:23Z</time>
      </trkpt>
      <trkpt lat="40.778621" lon="-3.871312">
        <ele>1552.468</ele>
        <time>2021-07-30T15:36:26Z</time>
      </trkpt>
      <trkpt lat="40.778643" lon="-3.871320">
        <ele>1552.899</ele>
        <time>2021-07-30T15:36:30Z</time>
      </trkpt>
      <trkpt lat="40.778662" lon="-3.871327">
        <ele>1553.279</ele>
        <time>2021-07-30T15:36:33Z</time>
      </trkpt>
      <trkpt lat="40.778643" lon="-3.871322">
        <ele>1552.733</ele>
        <time>2021-07-30T15:36:37Z</time>
      </trkpt>
      <trkpt lat="40.778621" lon="-3.871322">
        <ele>1552.020</ele>
        <time>2021-07-30T15:36:40Z</time>
      </trkpt>
      <trkpt lat="40.778602" lon="-3.871323">
        <ele>1551.794</ele>
        <time>2021-07-30T15:36:42Z</time>
      </trkpt>
      <trkpt lat="40.778592" lon="-3.871352">
        <ele>1550.657</ele>
        <time>2021-07-30T15:36:45Z</time>
      </trkpt>
      <trkpt lat="40.778579" lon="-3.871382">
        <ele>1549.522</ele>
        <time>2021-07-30T15:36:47Z</time>
      </trkpt>
      <trkpt lat="40.778560" lon="-3.871402">
        <ele>1549.008</ele>
        <time>2021-07-30T15:36:49Z</time>
      </trkpt>
      <trkpt lat="40.778538" lon="-3.871395">
        <ele>1549.416</ele>
        <time>2021-07-30T15:36:51Z</time>
      </trkpt>
      <trkpt lat="40.778512" lon="-3.871385">
        <ele>1549.948</ele>
        <time>2021-07-30T15:36:53Z</time>
      </trkpt>
      <trkpt lat="40.778496" lon="-3.871402">
        <ele>1549.425</ele>
        <time>2021-07-30T15:36:56Z</time>
      </trkpt>
      <trkpt lat="40.778480" lon="-3.871430">
        <ele>1548.722</ele>
        <time>2021-07-30T15:36:58Z</time>
      </trkpt>
      <trkpt lat="40.778461" lon="-3.871436">
        <ele>1548.613</ele>
        <time>2021-07-30T15:37:02Z</time>
      </trkpt>
      <trkpt lat="40.778464" lon="-3.871468">
        <ele>1547.663</ele>
        <time>2021-07-30T15:37:05Z</time>
      </trkpt>
      <trkpt lat="40.778438" lon="-3.871483">
        <ele>1547.267</ele>
        <time>2021-07-30T15:37:11Z</time>
      </trkpt>
      <trkpt lat="40.778419" lon="-3.871475">
        <ele>1547.634</ele>
        <time>2021-07-30T15:37:13Z</time>
      </trkpt>
      <trkpt lat="40.778397" lon="-3.871495">
        <ele>1547.096</ele>
        <time>2021-07-30T15:37:16Z</time>
      </trkpt>
      <trkpt lat="40.778381" lon="-3.871508">
        <ele>1546.631</ele>
        <time>2021-07-30T15:37:18Z</time>
      </trkpt>
      <trkpt lat="40.778362" lon="-3.871517">
        <ele>1546.324</ele>
        <time>2021-07-30T15:37:20Z</time>
      </trkpt>
      <trkpt lat="40.778339" lon="-3.871528">
        <ele>1546.008</ele>
        <time>2021-07-30T15:37:22Z</time>
      </trkpt>
      <trkpt lat="40.778310" lon="-3.871548">
        <ele>1545.866</ele>
        <time>2021-07-30T15:37:24Z</time>
      </trkpt>
      <trkpt lat="40.778294" lon="-3.871560">
        <ele>1545.748</ele>
        <time>2021-07-30T15:37:25Z</time>
      </trkpt>
      <trkpt lat="40.778275" lon="-3.871575">
        <ele>1545.575</ele>
        <time>2021-07-30T15:37:26Z</time>
      </trkpt>
      <trkpt lat="40.778253" lon="-3.871605">
        <ele>1544.842</ele>
        <time>2021-07-30T15:37:32Z</time>
      </trkpt>
      <trkpt lat="40.778246" lon="-3.871628">
        <ele>1544.163</ele>
        <time>2021-07-30T15:37:33Z</time>
      </trkpt>
      <trkpt lat="40.778253" lon="-3.871660">
        <ele>1542.763</ele>
        <time>2021-07-30T15:37:35Z</time>
      </trkpt>
      <trkpt lat="40.778256" lon="-3.871688">
        <ele>1541.677</ele>
        <time>2021-07-30T15:37:37Z</time>
      </trkpt>
      <trkpt lat="40.778262" lon="-3.871717">
        <ele>1540.594</ele>
        <time>2021-07-30T15:37:45Z</time>
      </trkpt>
      <trkpt lat="40.778246" lon="-3.871745">
        <ele>1539.815</ele>
        <time>2021-07-30T15:37:48Z</time>
      </trkpt>
      <trkpt lat="40.778227" lon="-3.871756">
        <ele>1539.865</ele>
        <time>2021-07-30T15:37:50Z</time>
      </trkpt>
      <trkpt lat="40.778198" lon="-3.871795">
        <ele>1539.011</ele>
        <time>2021-07-30T15:37:53Z</time>
      </trkpt>
      <trkpt lat="40.778192" lon="-3.871808">
        <ele>1538.708</ele>
        <time>2021-07-30T15:37:54Z</time>
      </trkpt>
      <trkpt lat="40.778179" lon="-3.871837">
        <ele>1538.018</ele>
        <time>2021-07-30T15:37:56Z</time>
      </trkpt>
      <trkpt lat="40.778160" lon="-3.871855">
        <ele>1537.850</ele>
        <time>2021-07-30T15:37:59Z</time>
      </trkpt>
      <trkpt lat="40.778138" lon="-3.871875">
        <ele>1537.537</ele>
        <time>2021-07-30T15:38:01Z</time>
      </trkpt>
      <trkpt lat="40.778118" lon="-3.871900">
        <ele>1537.174</ele>
        <time>2021-07-30T15:38:03Z</time>
      </trkpt>
      <trkpt lat="40.778099" lon="-3.871904">
        <ele>1537.435</ele>
        <time>2021-07-30T15:38:05Z</time>
      </trkpt>
      <trkpt lat="40.778122" lon="-3.871905">
        <ele>1536.935</ele>
        <time>2021-07-30T15:38:08Z</time>
      </trkpt>
      <trkpt lat="40.778118" lon="-3.871930">
        <ele>1536.129</ele>
        <time>2021-07-30T15:38:10Z</time>
      </trkpt>
      <trkpt lat="40.778122" lon="-3.871955">
        <ele>1535.136</ele>
        <time>2021-07-30T15:38:13Z</time>
      </trkpt>
      <trkpt lat="40.778118" lon="-3.871985">
        <ele>1533.952</ele>
        <time>2021-07-30T15:38:17Z</time>
      </trkpt>
      <trkpt lat="40.778099" lon="-3.871998">
        <ele>1533.753</ele>
        <time>2021-07-30T15:38:21Z</time>
      </trkpt>
      <trkpt lat="40.778093" lon="-3.872023">
        <ele>1532.808</ele>
        <time>2021-07-30T15:38:26Z</time>
      </trkpt>
      <trkpt lat="40.778080" lon="-3.872005">
        <ele>1533.908</ele>
        <time>2021-07-30T15:38:30Z</time>
      </trkpt>
      <trkpt lat="40.778080" lon="-3.872057">
        <ele>1531.682</ele>
        <time>2021-07-30T15:38:34Z</time>
      </trkpt>
      <trkpt lat="40.778061" lon="-3.872077">
        <ele>1531.254</ele>
        <time>2021-07-30T15:38:36Z</time>
      </trkpt>
      <trkpt lat="40.778035" lon="-3.872080">
        <ele>1531.731</ele>
        <time>2021-07-30T15:38:38Z</time>
      </trkpt>
      <trkpt lat="40.777987" lon="-3.872105">
        <ele>1531.818</ele>
        <time>2021-07-30T15:38:41Z</time>
      </trkpt>
      <trkpt lat="40.777949" lon="-3.872130">
        <ele>1531.819</ele>
        <time>2021-07-30T15:38:42Z</time>
      </trkpt>
      <trkpt lat="40.777946" lon="-3.872155">
        <ele>1530.959</ele>
        <time>2021-07-30T15:38:46Z</time>
      </trkpt>
      <trkpt lat="40.777926" lon="-3.872153">
        <ele>1531.513</ele>
        <time>2021-07-30T15:38:48Z</time>
      </trkpt>
      <trkpt lat="40.777920" lon="-3.872178">
        <ele>1530.780</ele>
        <time>2021-07-30T15:38:55Z</time>
      </trkpt>
      <trkpt lat="40.777907" lon="-3.872198">
        <ele>1530.268</ele>
        <time>2021-07-30T15:38:58Z</time>
      </trkpt>
      <trkpt lat="40.777904" lon="-3.872227">
        <ele>1529.142</ele>
        <time>2021-07-30T15:39:01Z</time>
      </trkpt>
      <trkpt lat="40.777888" lon="-3.872260">
        <ele>1528.126</ele>
        <time>2021-07-30T15:39:04Z</time>
      </trkpt>
      <trkpt lat="40.777866" lon="-3.872284">
        <ele>1527.608</ele>
        <time>2021-07-30T15:39:08Z</time>
      </trkpt>
      <trkpt lat="40.777846" lon="-3.872302">
        <ele>1527.343</ele>
        <time>2021-07-30T15:39:24Z</time>
      </trkpt>
      <trkpt lat="40.777875" lon="-3.872278">
        <ele>1527.625</ele>
        <time>2021-07-30T15:39:25Z</time>
      </trkpt>
      <trkpt lat="40.777856" lon="-3.872284">
        <ele>1527.932</ele>
        <time>2021-07-30T15:39:27Z</time>
      </trkpt>
      <trkpt lat="40.777859" lon="-3.872322">
        <ele>1526.039</ele>
        <time>2021-07-30T15:39:30Z</time>
      </trkpt>
      <trkpt lat="40.777843" lon="-3.872352">
        <ele>1525.050</ele>
        <time>2021-07-30T15:39:32Z</time>
      </trkpt>
      <trkpt lat="40.777837" lon="-3.872385">
        <ele>1523.720</ele>
        <time>2021-07-30T15:39:35Z</time>
      </trkpt>
      <trkpt lat="40.777795" lon="-3.872420">
        <ele>1523.234</ele>
        <time>2021-07-30T15:39:38Z</time>
      </trkpt>
      <trkpt lat="40.777789" lon="-3.872422">
        <ele>1523.381</ele>
        <time>2021-07-30T15:39:39Z</time>
      </trkpt>
      <trkpt lat="40.777786" lon="-3.872445">
        <ele>1522.399</ele>
        <time>2021-07-30T15:39:43Z</time>
      </trkpt>
      <trkpt lat="40.777766" lon="-3.872452">
        <ele>1522.507</ele>
        <time>2021-07-30T15:39:45Z</time>
      </trkpt>
      <trkpt lat="40.777747" lon="-3.872463">
        <ele>1522.527</ele>
        <time>2021-07-30T15:39:47Z</time>
      </trkpt>
      <trkpt lat="40.777725" lon="-3.872472">
        <ele>1522.608</ele>
        <time>2021-07-30T15:39:49Z</time>
      </trkpt>
      <trkpt lat="40.777709" lon="-3.872483">
        <ele>1522.546</ele>
        <time>2021-07-30T15:39:52Z</time>
      </trkpt>
      <trkpt lat="40.777706" lon="-3.872507">
        <ele>1521.698</ele>
        <time>2021-07-30T15:39:56Z</time>
      </trkpt>
      <trkpt lat="40.777696" lon="-3.872538">
        <ele>1520.735</ele>
        <time>2021-07-30T15:39:59Z</time>
      </trkpt>
      <trkpt lat="40.777680" lon="-3.872558">
        <ele>1520.462</ele>
        <time>2021-07-30T15:40:01Z</time>
      </trkpt>
      <trkpt lat="40.777690" lon="-3.872583">
        <ele>1519.233</ele>
        <time>2021-07-30T15:40:03Z</time>
      </trkpt>
      <trkpt lat="40.777680" lon="-3.872612">
        <ele>1518.423</ele>
        <time>2021-07-30T15:40:06Z</time>
      </trkpt>
      <trkpt lat="40.777661" lon="-3.872635">
        <ele>1518.137</ele>
        <time>2021-07-30T15:40:11Z</time>
      </trkpt>
      <trkpt lat="40.777658" lon="-3.872658">
        <ele>1517.394</ele>
        <time>2021-07-30T15:40:19Z</time>
      </trkpt>
      <trkpt lat="40.777629" lon="-3.872678">
        <ele>1517.367</ele>
        <time>2021-07-30T15:40:22Z</time>
      </trkpt>
      <trkpt lat="40.777661" lon="-3.872712">
        <ele>1515.381</ele>
        <time>2021-07-30T15:40:28Z</time>
      </trkpt>
      <trkpt lat="40.777677" lon="-3.872717">
        <ele>1514.719</ele>
        <time>2021-07-30T15:40:29Z</time>
      </trkpt>
      <trkpt lat="40.777699" lon="-3.872735">
        <ele>1513.508</ele>
        <time>2021-07-30T15:40:32Z</time>
      </trkpt>
      <trkpt lat="40.777696" lon="-3.872755">
        <ele>1512.983</ele>
        <time>2021-07-30T15:40:34Z</time>
      </trkpt>
      <trkpt lat="40.777683" lon="-3.872786">
        <ele>1512.145</ele>
        <time>2021-07-30T15:40:37Z</time>
      </trkpt>
      <trkpt lat="40.777648" lon="-3.872813">
        <ele>1511.912</ele>
        <time>2021-07-30T15:40:39Z</time>
      </trkpt>
      <trkpt lat="40.777626" lon="-3.872832">
        <ele>1511.769</ele>
        <time>2021-07-30T15:40:41Z</time>
      </trkpt>
      <trkpt lat="40.777603" lon="-3.872850">
        <ele>1511.650</ele>
        <time>2021-07-30T15:40:43Z</time>
      </trkpt>
      <trkpt lat="40.777590" lon="-3.872868">
        <ele>1511.330</ele>
        <time>2021-07-30T15:40:45Z</time>
      </trkpt>
      <trkpt lat="40.777581" lon="-3.872893">
        <ele>1510.624</ele>
        <time>2021-07-30T15:40:47Z</time>
      </trkpt>
      <trkpt lat="40.777562" lon="-3.872910">
        <ele>1510.521</ele>
        <time>2021-07-30T15:40:49Z</time>
      </trkpt>
      <trkpt lat="40.777549" lon="-3.872952">
        <ele>1509.338</ele>
        <time>2021-07-30T15:40:52Z</time>
      </trkpt>
      <trkpt lat="40.777542" lon="-3.872972">
        <ele>1508.770</ele>
        <time>2021-07-30T15:40:54Z</time>
      </trkpt>
      <trkpt lat="40.777520" lon="-3.872987">
        <ele>1508.917</ele>
        <time>2021-07-30T15:40:56Z</time>
      </trkpt>
      <trkpt lat="40.777507" lon="-3.873008">
        <ele>1508.508</ele>
        <time>2021-07-30T15:40:58Z</time>
      </trkpt>
      <trkpt lat="40.777504" lon="-3.873040">
        <ele>1507.490</ele>
        <time>2021-07-30T15:41:01Z</time>
      </trkpt>
      <trkpt lat="40.777488" lon="-3.873058">
        <ele>1507.362</ele>
        <time>2021-07-30T15:41:03Z</time>
      </trkpt>
      <trkpt lat="40.777466" lon="-3.873085">
        <ele>1507.019</ele>
        <time>2021-07-30T15:41:05Z</time>
      </trkpt>
      <trkpt lat="40.777459" lon="-3.873112">
        <ele>1506.076</ele>
        <time>2021-07-30T15:41:08Z</time>
      </trkpt>
      <trkpt lat="40.777437" lon="-3.873128">
        <ele>1506.177</ele>
        <time>2021-07-30T15:41:13Z</time>
      </trkpt>
      <trkpt lat="40.777421" lon="-3.873150">
        <ele>1505.837</ele>
        <time>2021-07-30T15:41:15Z</time>
      </trkpt>
      <trkpt lat="40.777411" lon="-3.873173">
        <ele>1505.151</ele>
        <time>2021-07-30T15:41:17Z</time>
      </trkpt>
      <trkpt lat="40.777418" lon="-3.873202">
        <ele>1503.678</ele>
        <time>2021-07-30T15:41:20Z</time>
      </trkpt>
      <trkpt lat="40.777392" lon="-3.873213">
        <ele>1504.127</ele>
        <time>2021-07-30T15:41:22Z</time>
      </trkpt>
      <trkpt lat="40.777382" lon="-3.873235">
        <ele>1503.568</ele>
        <time>2021-07-30T15:41:24Z</time>
      </trkpt>
      <trkpt lat="40.777398" lon="-3.873258">
        <ele>1501.914</ele>
        <time>2021-07-30T15:41:26Z</time>
      </trkpt>
      <trkpt lat="40.777408" lon="-3.873290">
        <ele>1500.208</ele>
        <time>2021-07-30T15:41:28Z</time>
      </trkpt>
      <trkpt lat="40.777440" lon="-3.873298">
        <ele>1498.739</ele>
        <time>2021-07-30T15:41:30Z</time>
      </trkpt>
      <trkpt lat="40.777478" lon="-3.873300">
        <ele>1497.221</ele>
        <time>2021-07-30T15:41:32Z</time>
      </trkpt>
      <trkpt lat="40.777501" lon="-3.873297">
        <ele>1496.548</ele>
        <time>2021-07-30T15:41:34Z</time>
      </trkpt>
      <trkpt lat="40.777523" lon="-3.873283">
        <ele>1496.495</ele>
        <time>2021-07-30T15:41:36Z</time>
      </trkpt>
      <trkpt lat="40.777546" lon="-3.873292">
        <ele>1495.366</ele>
        <time>2021-07-30T15:41:40Z</time>
      </trkpt>
      <trkpt lat="40.777565" lon="-3.873292">
        <ele>1494.786</ele>
        <time>2021-07-30T15:41:42Z</time>
      </trkpt>
      <trkpt lat="40.777587" lon="-3.873287">
        <ele>1494.210</ele>
        <time>2021-07-30T15:41:44Z</time>
      </trkpt>
      <trkpt lat="40.777610" lon="-3.873288">
        <ele>1493.497</ele>
        <time>2021-07-30T15:41:46Z</time>
      </trkpt>
      <trkpt lat="40.777619" lon="-3.873314">
        <ele>1492.096</ele>
        <time>2021-07-30T15:41:48Z</time>
      </trkpt>
      <trkpt lat="40.777645" lon="-3.873344">
        <ele>1489.831</ele>
        <time>2021-07-30T15:41:50Z</time>
      </trkpt>
      <trkpt lat="40.777658" lon="-3.873377">
        <ele>1487.824</ele>
        <time>2021-07-30T15:41:52Z</time>
      </trkpt>
      <trkpt lat="40.777702" lon="-3.873368">
        <ele>1486.808</ele>
        <time>2021-07-30T15:41:55Z</time>
      </trkpt>
      <trkpt lat="40.777722" lon="-3.873360">
        <ele>1486.526</ele>
        <time>2021-07-30T15:41:56Z</time>
      </trkpt>
      <trkpt lat="40.777741" lon="-3.873365">
        <ele>1485.628</ele>
        <time>2021-07-30T15:41:58Z</time>
      </trkpt>
      <trkpt lat="40.777786" lon="-3.873355">
        <ele>1484.925</ele>
        <time>2021-07-30T15:42:01Z</time>
      </trkpt>
      <trkpt lat="40.777738" lon="-3.873387">
        <ele>1484.682</ele>
        <time>2021-07-30T15:42:04Z</time>
      </trkpt>
      <trkpt lat="40.777709" lon="-3.873387">
        <ele>1485.653</ele>
        <time>2021-07-30T15:42:06Z</time>
      </trkpt>
      <trkpt lat="40.777690" lon="-3.873382">
        <ele>1486.553</ele>
        <time>2021-07-30T15:42:08Z</time>
      </trkpt>
      <trkpt lat="40.777670" lon="-3.873387">
        <ele>1486.967</ele>
        <time>2021-07-30T15:42:10Z</time>
      </trkpt>
      <trkpt lat="40.777658" lon="-3.873368">
        <ele>1488.294</ele>
        <time>2021-07-30T15:42:12Z</time>
      </trkpt>
      <trkpt lat="40.777680" lon="-3.873378">
        <ele>1487.061</ele>
        <time>2021-07-30T15:42:14Z</time>
      </trkpt>
      <trkpt lat="40.777696" lon="-3.873398">
        <ele>1485.521</ele>
        <time>2021-07-30T15:42:17Z</time>
      </trkpt>
      <trkpt lat="40.777702" lon="-3.873430">
        <ele>1483.813</ele>
        <time>2021-07-30T15:42:21Z</time>
      </trkpt>
      <trkpt lat="40.777683" lon="-3.873442">
        <ele>1483.908</ele>
        <time>2021-07-30T15:42:24Z</time>
      </trkpt>
      <trkpt lat="40.777677" lon="-3.873472">
        <ele>1482.653</ele>
        <time>2021-07-30T15:42:26Z</time>
      </trkpt>
      <trkpt lat="40.777670" lon="-3.873500">
        <ele>1481.625</ele>
        <time>2021-07-30T15:42:28Z</time>
      </trkpt>
      <trkpt lat="40.777651" lon="-3.873500">
        <ele>1482.342</ele>
        <time>2021-07-30T15:42:29Z</time>
      </trkpt>
      <trkpt lat="40.777619" lon="-3.873495">
        <ele>1483.749</ele>
        <time>2021-07-30T15:42:31Z</time>
      </trkpt>
      <trkpt lat="40.777603" lon="-3.873512">
        <ele>1483.540</ele>
        <time>2021-07-30T15:42:33Z</time>
      </trkpt>
      <trkpt lat="40.777590" lon="-3.873530">
        <ele>1483.170</ele>
        <time>2021-07-30T15:42:35Z</time>
      </trkpt>
      <trkpt lat="40.777565" lon="-3.873572">
        <ele>1482.294</ele>
        <time>2021-07-30T15:42:38Z</time>
      </trkpt>
      <trkpt lat="40.777549" lon="-3.873577">
        <ele>1482.641</ele>
        <time>2021-07-30T15:42:39Z</time>
      </trkpt>
      <trkpt lat="40.777510" lon="-3.873570">
        <ele>1484.425</ele>
        <time>2021-07-30T15:42:40Z</time>
      </trkpt>
      <trkpt lat="40.777488" lon="-3.873562">
        <ele>1485.526</ele>
        <time>2021-07-30T15:42:41Z</time>
      </trkpt>
      <trkpt lat="40.777469" lon="-3.873562">
        <ele>1486.108</ele>
        <time>2021-07-30T15:42:44Z</time>
      </trkpt>
      <trkpt lat="40.777459" lon="-3.873583">
        <ele>1485.608</ele>
        <time>2021-07-30T15:42:49Z</time>
      </trkpt>
      <trkpt lat="40.777430" lon="-3.873590">
        <ele>1486.269</ele>
        <time>2021-07-30T15:42:51Z</time>
      </trkpt>
      <trkpt lat="40.777418" lon="-3.873615">
        <ele>1485.591</ele>
        <time>2021-07-30T15:42:54Z</time>
      </trkpt>
      <trkpt lat="40.777440" lon="-3.873647">
        <ele>1483.468</ele>
        <time>2021-07-30T15:42:59Z</time>
      </trkpt>
      <trkpt lat="40.777427" lon="-3.873674">
        <ele>1482.795</ele>
        <time>2021-07-30T15:43:01Z</time>
      </trkpt>
      <trkpt lat="40.777418" lon="-3.873708">
        <ele>1481.676</ele>
        <time>2021-07-30T15:43:03Z</time>
      </trkpt>
      <trkpt lat="40.777405" lon="-3.873735">
        <ele>1480.956</ele>
        <time>2021-07-30T15:43:08Z</time>
      </trkpt>
      <trkpt lat="40.777405" lon="-3.873773">
        <ele>1479.310</ele>
        <time>2021-07-30T15:43:14Z</time>
      </trkpt>
      <trkpt lat="40.777402" lon="-3.873805">
        <ele>1478.077</ele>
        <time>2021-07-30T15:43:17Z</time>
      </trkpt>
      <trkpt lat="40.777379" lon="-3.873824">
        <ele>1478.146</ele>
        <time>2021-07-30T15:43:19Z</time>
      </trkpt>
      <trkpt lat="40.777354" lon="-3.873835">
        <ele>1478.588</ele>
        <time>2021-07-30T15:43:20Z</time>
      </trkpt>
      <trkpt lat="40.777322" lon="-3.873853">
        <ele>1478.916</ele>
        <time>2021-07-30T15:43:22Z</time>
      </trkpt>
      <trkpt lat="40.777306" lon="-3.873870">
        <ele>1478.808</ele>
        <time>2021-07-30T15:43:23Z</time>
      </trkpt>
      <trkpt lat="40.777325" lon="-3.873885">
        <ele>1477.571</ele>
        <time>2021-07-30T15:43:25Z</time>
      </trkpt>
      <trkpt lat="40.777312" lon="-3.873913">
        <ele>1476.683</ele>
        <time>2021-07-30T15:43:28Z</time>
      </trkpt>
      <trkpt lat="40.777293" lon="-3.873927">
        <ele>1476.670</ele>
        <time>2021-07-30T15:43:29Z</time>
      </trkpt>
      <trkpt lat="40.777267" lon="-3.873958">
        <ele>1476.157</ele>
        <time>2021-07-30T15:43:31Z</time>
      </trkpt>
      <trkpt lat="40.777274" lon="-3.873990">
        <ele>1474.318</ele>
        <time>2021-07-30T15:43:34Z</time>
      </trkpt>
      <trkpt lat="40.777286" lon="-3.874012">
        <ele>1472.838</ele>
        <time>2021-07-30T15:43:36Z</time>
      </trkpt>
      <trkpt lat="40.777299" lon="-3.874028">
        <ele>1471.642</ele>
        <time>2021-07-30T15:43:37Z</time>
      </trkpt>
      <trkpt lat="40.777325" lon="-3.874037">
        <ele>1470.249</ele>
        <time>2021-07-30T15:43:38Z</time>
      </trkpt>
      <trkpt lat="40.777363" lon="-3.874038">
        <ele>1468.759</ele>
        <time>2021-07-30T15:43:39Z</time>
      </trkpt>
      <trkpt lat="40.777382" lon="-3.874037">
        <ele>1468.003</ele>
        <time>2021-07-30T15:43:40Z</time>
      </trkpt>
      <trkpt lat="40.777418" lon="-3.874047">
        <ele>1466.223</ele>
        <time>2021-07-30T15:43:42Z</time>
      </trkpt>
      <trkpt lat="40.777437" lon="-3.874047">
        <ele>1465.408</ele>
        <time>2021-07-30T15:43:43Z</time>
      </trkpt>
      <trkpt lat="40.777462" lon="-3.874040">
        <ele>1464.892</ele>
        <time>2021-07-30T15:43:44Z</time>
      </trkpt>
      <trkpt lat="40.777459" lon="-3.874073">
        <ele>1463.324</ele>
        <time>2021-07-30T15:43:47Z</time>
      </trkpt>
      <trkpt lat="40.777459" lon="-3.874100">
        <ele>1461.971</ele>
        <time>2021-07-30T15:43:49Z</time>
      </trkpt>
      <trkpt lat="40.777482" lon="-3.874105">
        <ele>1460.828</ele>
        <time>2021-07-30T15:43:52Z</time>
      </trkpt>
      <trkpt lat="40.777501" lon="-3.874100">
        <ele>1460.459</ele>
        <time>2021-07-30T15:43:53Z</time>
      </trkpt>
      <trkpt lat="40.777523" lon="-3.874088">
        <ele>1461.019</ele>
        <time>2021-07-30T15:43:54Z</time>
      </trkpt>
      <trkpt lat="40.777549" lon="-3.874068">
        <ele>1461.943</ele>
        <time>2021-07-30T15:43:55Z</time>
      </trkpt>
      <trkpt lat="40.777501" lon="-3.874088">
        <ele>1461.040</ele>
        <time>2021-07-30T15:43:58Z</time>
      </trkpt>
      <trkpt lat="40.777478" lon="-3.874100">
        <ele>1461.272</ele>
        <time>2021-07-30T15:44:00Z</time>
      </trkpt>
      <trkpt lat="40.777459" lon="-3.874095">
        <ele>1462.213</ele>
        <time>2021-07-30T15:44:11Z</time>
      </trkpt>
      <trkpt lat="40.777430" lon="-3.874107">
        <ele>1462.714</ele>
        <time>2021-07-30T15:44:13Z</time>
      </trkpt>
      <trkpt lat="40.777446" lon="-3.874113">
        <ele>1461.808</ele>
        <time>2021-07-30T15:44:15Z</time>
      </trkpt>
      <trkpt lat="40.777498" lon="-3.874090">
        <ele>1460.984</ele>
        <time>2021-07-30T15:44:19Z</time>
      </trkpt>
      <trkpt lat="40.777504" lon="-3.874083">
        <ele>1461.226</ele>
        <time>2021-07-30T15:44:20Z</time>
      </trkpt>
      <trkpt lat="40.777523" lon="-3.874066">
        <ele>1462.023</ele>
        <time>2021-07-30T15:44:24Z</time>
      </trkpt>
      <trkpt lat="40.777523" lon="-3.874037">
        <ele>1463.450</ele>
        <time>2021-07-30T15:44:29Z</time>
      </trkpt>
      <trkpt lat="40.777549" lon="-3.874035">
        <ele>1463.341</ele>
        <time>2021-07-30T15:44:33Z</time>
      </trkpt>
      <trkpt lat="40.777578" lon="-3.874018">
        <ele>1463.871</ele>
        <time>2021-07-30T15:44:39Z</time>
      </trkpt>
      <trkpt lat="40.777581" lon="-3.874012">
        <ele>1464.075</ele>
        <time>2021-07-30T15:44:40Z</time>
      </trkpt>
      <trkpt lat="40.777603" lon="-3.873993">
        <ele>1464.562</ele>
        <time>2021-07-30T15:44:43Z</time>
      </trkpt>
      <trkpt lat="40.777619" lon="-3.873965">
        <ele>1465.344</ele>
        <time>2021-07-30T15:44:51Z</time>
      </trkpt>
      <trkpt lat="40.777645" lon="-3.873948">
        <ele>1465.505</ele>
        <time>2021-07-30T15:44:54Z</time>
      </trkpt>
      <trkpt lat="40.777661" lon="-3.873917">
        <ele>1466.115</ele>
        <time>2021-07-30T15:44:59Z</time>
      </trkpt>
      <trkpt lat="40.777690" lon="-3.873910">
        <ele>1465.708</ele>
        <time>2021-07-30T15:45:01Z</time>
      </trkpt>
      <trkpt lat="40.777709" lon="-3.873910">
        <ele>1465.291</ele>
        <time>2021-07-30T15:45:02Z</time>
      </trkpt>
      <trkpt lat="40.777728" lon="-3.873896">
        <ele>1465.153</ele>
        <time>2021-07-30T15:45:05Z</time>
      </trkpt>
      <trkpt lat="40.777750" lon="-3.873896">
        <ele>1464.660</ele>
        <time>2021-07-30T15:45:09Z</time>
      </trkpt>
      <trkpt lat="40.777779" lon="-3.873883">
        <ele>1464.287</ele>
        <time>2021-07-30T15:45:11Z</time>
      </trkpt>
      <trkpt lat="40.777798" lon="-3.873873">
        <ele>1465.438</ele>
        <time>2021-07-30T15:45:17Z</time>
      </trkpt>
      <trkpt lat="40.777789" lon="-3.873843">
        <ele>1465.878</ele>
        <time>2021-07-30T15:45:25Z</time>
      </trkpt>
      <trkpt lat="40.777770" lon="-3.873824">
        <ele>1466.132</ele>
        <time>2021-07-30T15:45:33Z</time>
      </trkpt>
      <trkpt lat="40.777760" lon="-3.873812">
        <ele>1466.799</ele>
        <time>2021-07-30T15:45:35Z</time>
      </trkpt>
      <trkpt lat="40.777818" lon="-3.873795">
        <ele>1468.469</ele>
        <time>2021-07-30T15:45:40Z</time>
      </trkpt>
      <trkpt lat="40.777782" lon="-3.873800">
        <ele>1466.704</ele>
        <time>2021-07-30T15:45:42Z</time>
      </trkpt>
      <trkpt lat="40.777744" lon="-3.873817">
        <ele>1467.024</ele>
        <time>2021-07-30T15:45:45Z</time>
      </trkpt>
      <trkpt lat="40.777734" lon="-3.873846">
        <ele>1466.408</ele>
        <time>2021-07-30T15:45:47Z</time>
      </trkpt>
      <trkpt lat="40.777709" lon="-3.873860">
        <ele>1466.793</ele>
        <time>2021-07-30T15:45:49Z</time>
      </trkpt>
      <trkpt lat="40.777683" lon="-3.873886">
        <ele>1466.545</ele>
        <time>2021-07-30T15:45:53Z</time>
      </trkpt>
      <trkpt lat="40.777667" lon="-3.873886">
        <ele>1466.932</ele>
        <time>2021-07-30T15:45:58Z</time>
      </trkpt>
      <trkpt lat="40.777667" lon="-3.873915">
        <ele>1466.059</ele>
        <time>2021-07-30T15:46:03Z</time>
      </trkpt>
      <trkpt lat="40.777658" lon="-3.873942">
        <ele>1465.450</ele>
        <time>2021-07-30T15:46:05Z</time>
      </trkpt>
      <trkpt lat="40.777635" lon="-3.873960">
        <ele>1465.330</ele>
        <time>2021-07-30T15:46:06Z</time>
      </trkpt>
      <trkpt lat="40.777603" lon="-3.873973">
        <ele>1465.384</ele>
        <time>2021-07-30T15:46:09Z</time>
      </trkpt>
      <trkpt lat="40.777581" lon="-3.873982">
        <ele>1465.221</ele>
        <time>2021-07-30T15:46:10Z</time>
      </trkpt>
      <trkpt lat="40.777558" lon="-3.873993">
        <ele>1465.157</ele>
        <time>2021-07-30T15:46:11Z</time>
      </trkpt>
      <trkpt lat="40.777546" lon="-3.874022">
        <ele>1463.900</ele>
        <time>2021-07-30T15:46:14Z</time>
      </trkpt>
      <trkpt lat="40.777530" lon="-3.874018">
        <ele>1464.220</ele>
        <time>2021-07-30T15:46:16Z</time>
      </trkpt>
      <trkpt lat="40.777510" lon="-3.874044">
        <ele>1463.108</ele>
        <time>2021-07-30T15:46:21Z</time>
      </trkpt>
      <trkpt lat="40.777488" lon="-3.874052">
        <ele>1463.292</ele>
        <time>2021-07-30T15:46:26Z</time>
      </trkpt>
      <trkpt lat="40.777507" lon="-3.874042">
        <ele>1463.274</ele>
        <time>2021-07-30T15:46:27Z</time>
      </trkpt>
      <trkpt lat="40.777510" lon="-3.874018">
        <ele>1464.441</ele>
        <time>2021-07-30T15:46:38Z</time>
      </trkpt>
      <trkpt lat="40.777501" lon="-3.873997">
        <ele>1465.548</ele>
        <time>2021-07-30T15:46:51Z</time>
      </trkpt>
      <trkpt lat="40.777485" lon="-3.874010">
        <ele>1465.589</ele>
        <time>2021-07-30T15:46:55Z</time>
      </trkpt>
      <trkpt lat="40.777472" lon="-3.873992">
        <ele>1466.849</ele>
        <time>2021-07-30T15:47:05Z</time>
      </trkpt>
      <trkpt lat="40.777485" lon="-3.873972">
        <ele>1467.453</ele>
        <time>2021-07-30T15:47:17Z</time>
      </trkpt>
      <trkpt lat="40.777504" lon="-3.873965">
        <ele>1467.130</ele>
        <time>2021-07-30T15:47:23Z</time>
      </trkpt>
      <trkpt lat="40.777482" lon="-3.873963">
        <ele>1467.983</ele>
        <time>2021-07-30T15:47:30Z</time>
      </trkpt>
      <trkpt lat="40.777491" lon="-3.873988">
        <ele>1466.325</ele>
        <time>2021-07-30T15:47:52Z</time>
      </trkpt>
      <trkpt lat="40.777469" lon="-3.874012">
        <ele>1466.017</ele>
        <time>2021-07-30T15:47:57Z</time>
      </trkpt>
      <trkpt lat="40.777453" lon="-3.874002">
        <ele>1467.108</ele>
        <time>2021-07-30T15:48:03Z</time>
      </trkpt>
      <trkpt lat="40.777469" lon="-3.873987">
        <ele>1467.255</ele>
        <time>2021-07-30T15:48:13Z</time>
      </trkpt>
      <trkpt lat="40.777485" lon="-3.873972">
        <ele>1467.417</ele>
        <time>2021-07-30T15:48:15Z</time>
      </trkpt>
      <trkpt lat="40.777482" lon="-3.873997">
        <ele>1466.294</ele>
        <time>2021-07-30T15:48:24Z</time>
      </trkpt>
      <trkpt lat="40.777507" lon="-3.874017">
        <ele>1464.571</ele>
        <time>2021-07-30T15:48:49Z</time>
      </trkpt>
      <trkpt lat="40.777526" lon="-3.874020">
        <ele>1464.282</ele>
        <time>2021-07-30T15:48:51Z</time>
      </trkpt>
      <trkpt lat="40.777552" lon="-3.874032">
        <ele>1463.422</ele>
        <time>2021-07-30T15:48:55Z</time>
      </trkpt>
      <trkpt lat="40.777578" lon="-3.874025">
        <ele>1463.526</ele>
        <time>2021-07-30T15:49:16Z</time>
      </trkpt>
      <trkpt lat="40.777603" lon="-3.874018">
        <ele>1463.673</ele>
        <time>2021-07-30T15:49:21Z</time>
      </trkpt>
      <trkpt lat="40.777629" lon="-3.874008">
        <ele>1463.731</ele>
        <time>2021-07-30T15:49:25Z</time>
      </trkpt>
      <trkpt lat="40.777645" lon="-3.873995">
        <ele>1464.061</ele>
        <time>2021-07-30T15:49:26Z</time>
      </trkpt>
      <trkpt lat="40.777658" lon="-3.873975">
        <ele>1464.407</ele>
        <time>2021-07-30T15:50:14Z</time>
      </trkpt>
      <trkpt lat="40.777686" lon="-3.873962">
        <ele>1464.408</ele>
        <time>2021-07-30T15:50:16Z</time>
      </trkpt>
      <trkpt lat="40.777722" lon="-3.873943">
        <ele>1464.290</ele>
        <time>2021-07-30T15:50:18Z</time>
      </trkpt>
      <trkpt lat="40.777750" lon="-3.873932">
        <ele>1463.992</ele>
        <time>2021-07-30T15:50:19Z</time>
      </trkpt>
      <trkpt lat="40.777738" lon="-3.873957">
        <ele>1463.729</ele>
        <time>2021-07-30T15:50:21Z</time>
      </trkpt>
      <trkpt lat="40.777690" lon="-3.873993">
        <ele>1463.586</ele>
        <time>2021-07-30T15:50:23Z</time>
      </trkpt>
      <trkpt lat="40.777667" lon="-3.874007">
        <ele>1463.457</ele>
        <time>2021-07-30T15:50:24Z</time>
      </trkpt>
      <trkpt lat="40.777734" lon="-3.874018">
        <ele>1462.587</ele>
        <time>2021-07-30T15:50:27Z</time>
      </trkpt>
      <trkpt lat="40.777715" lon="-3.874032">
        <ele>1462.471</ele>
        <time>2021-07-30T15:50:40Z</time>
      </trkpt>
      <trkpt lat="40.777725" lon="-3.874058">
        <ele>1461.778</ele>
        <time>2021-07-30T15:51:12Z</time>
      </trkpt>
      <trkpt lat="40.777757" lon="-3.874054">
        <ele>1461.793</ele>
        <time>2021-07-30T15:51:14Z</time>
      </trkpt>
      <trkpt lat="40.777776" lon="-3.874054">
        <ele>1461.665</ele>
        <time>2021-07-30T15:51:15Z</time>
      </trkpt>
      <trkpt lat="40.777795" lon="-3.874055">
        <ele>1462.521</ele>
        <time>2021-07-30T15:51:16Z</time>
      </trkpt>
      <trkpt lat="40.777776" lon="-3.874056">
        <ele>1461.608</ele>
        <time>2021-07-30T15:51:26Z</time>
      </trkpt>
      <trkpt lat="40.777750" lon="-3.874070">
        <ele>1461.496</ele>
        <time>2021-07-30T15:51:39Z</time>
      </trkpt>
      <trkpt lat="40.777725" lon="-3.874052">
        <ele>1461.928</ele>
        <time>2021-07-30T15:51:43Z</time>
      </trkpt>
      <trkpt lat="40.777718" lon="-3.874025">
        <ele>1462.565</ele>
        <time>2021-07-30T15:52:02Z</time>
      </trkpt>
      <trkpt lat="40.777696" lon="-3.874018">
        <ele>1462.882</ele>
        <time>2021-07-30T15:52:04Z</time>
      </trkpt>
      <trkpt lat="40.777670" lon="-3.874027">
        <ele>1462.863</ele>
        <time>2021-07-30T15:52:05Z</time>
      </trkpt>
      <trkpt lat="40.777645" lon="-3.874032">
        <ele>1462.833</ele>
        <time>2021-07-30T15:52:06Z</time>
      </trkpt>
      <trkpt lat="40.777616" lon="-3.874038">
        <ele>1462.867</ele>
        <time>2021-07-30T15:52:08Z</time>
      </trkpt>
      <trkpt lat="40.777597" lon="-3.874044">
        <ele>1462.734</ele>
        <time>2021-07-30T15:52:10Z</time>
      </trkpt>
      <trkpt lat="40.777578" lon="-3.874063">
        <ele>1462.025</ele>
        <time>2021-07-30T15:52:14Z</time>
      </trkpt>
      <trkpt lat="40.777562" lon="-3.874077">
        <ele>1461.526</ele>
        <time>2021-07-30T15:52:16Z</time>
      </trkpt>
      <trkpt lat="40.777546" lon="-3.874054">
        <ele>1462.508</ele>
        <time>2021-07-30T15:52:31Z</time>
      </trkpt>
      <trkpt lat="40.777510" lon="-3.874058">
        <ele>1462.408</ele>
        <time>2021-07-30T15:52:37Z</time>
      </trkpt>
      <trkpt lat="40.777491" lon="-3.874073">
        <ele>1462.129</ele>
        <time>2021-07-30T15:52:40Z</time>
      </trkpt>
      <trkpt lat="40.777472" lon="-3.874056">
        <ele>1463.691</ele>
        <time>2021-07-30T15:52:46Z</time>
      </trkpt>
      <trkpt lat="40.777491" lon="-3.874040">
        <ele>1463.738</ele>
        <time>2021-07-30T15:52:59Z</time>
      </trkpt>
      <trkpt lat="40.777536" lon="-3.874012">
        <ele>1464.545</ele>
        <time>2021-07-30T15:53:01Z</time>
      </trkpt>
      <trkpt lat="40.777552" lon="-3.873995">
        <ele>1465.186</ele>
        <time>2021-07-30T15:53:02Z</time>
      </trkpt>
      <trkpt lat="40.777517" lon="-3.874004">
        <ele>1465.046</ele>
        <time>2021-07-30T15:53:04Z</time>
      </trkpt>
      <trkpt lat="40.777539" lon="-3.873985">
        <ele>1465.740</ele>
        <time>2021-07-30T15:53:06Z</time>
      </trkpt>
      <trkpt lat="40.777549" lon="-3.873955">
        <ele>1466.987</ele>
        <time>2021-07-30T15:53:13Z</time>
      </trkpt>
      <trkpt lat="40.777530" lon="-3.873962">
        <ele>1466.854</ele>
        <time>2021-07-30T15:53:14Z</time>
      </trkpt>
      <trkpt lat="40.777520" lon="-3.873988">
        <ele>1465.856</ele>
        <time>2021-07-30T15:53:29Z</time>
      </trkpt>
      <trkpt lat="40.777504" lon="-3.874000">
        <ele>1465.411</ele>
        <time>2021-07-30T15:53:31Z</time>
      </trkpt>
      <trkpt lat="40.777498" lon="-3.874047">
        <ele>1463.108</ele>
        <time>2021-07-30T15:53:36Z</time>
      </trkpt>
      <trkpt lat="40.777478" lon="-3.874060">
        <ele>1463.212</ele>
        <time>2021-07-30T15:53:39Z</time>
      </trkpt>
      <trkpt lat="40.777504" lon="-3.874047">
        <ele>1463.054</ele>
        <time>2021-07-30T15:53:45Z</time>
      </trkpt>
      <trkpt lat="40.777536" lon="-3.874037">
        <ele>1463.311</ele>
        <time>2021-07-30T15:53:47Z</time>
      </trkpt>
      <trkpt lat="40.777562" lon="-3.874037">
        <ele>1463.228</ele>
        <time>2021-07-30T15:53:49Z</time>
      </trkpt>
      <trkpt lat="40.777485" lon="-3.874056">
        <ele>1463.299</ele>
        <time>2021-07-30T15:53:50Z</time>
      </trkpt>
      <trkpt lat="40.777485" lon="-3.874032">
        <ele>1464.439</ele>
        <time>2021-07-30T15:54:18Z</time>
      </trkpt>
      <trkpt lat="40.777466" lon="-3.874034">
        <ele>1465.083</ele>
        <time>2021-07-30T15:54:39Z</time>
      </trkpt>
      <trkpt lat="40.777485" lon="-3.874050">
        <ele>1463.560</ele>
        <time>2021-07-30T15:54:46Z</time>
      </trkpt>
      <trkpt lat="40.777485" lon="-3.874017">
        <ele>1465.157</ele>
        <time>2021-07-30T15:54:52Z</time>
      </trkpt>
      <trkpt lat="40.777462" lon="-3.874005">
        <ele>1466.600</ele>
        <time>2021-07-30T15:54:55Z</time>
      </trkpt>
      <trkpt lat="40.777440" lon="-3.873997">
        <ele>1467.820</ele>
        <time>2021-07-30T15:54:57Z</time>
      </trkpt>
      <trkpt lat="40.777459" lon="-3.874000">
        <ele>1466.908</ele>
        <time>2021-07-30T15:55:05Z</time>
      </trkpt>
      <trkpt lat="40.777482" lon="-3.873997">
        <ele>1466.232</ele>
        <time>2021-07-30T15:55:06Z</time>
      </trkpt>
      <trkpt lat="40.777450" lon="-3.874024">
        <ele>1466.124</ele>
        <time>2021-07-30T15:56:31Z</time>
      </trkpt>
      <trkpt lat="40.777453" lon="-3.874055">
        <ele>1464.461</ele>
        <time>2021-07-30T15:58:25Z</time>
      </trkpt>
      <trkpt lat="40.777478" lon="-3.874052">
        <ele>1463.658</ele>
        <time>2021-07-30T15:58:26Z</time>
      </trkpt>
      <trkpt lat="40.777501" lon="-3.874062">
        <ele>1462.359</ele>
        <time>2021-07-30T15:58:32Z</time>
      </trkpt>
      <trkpt lat="40.777517" lon="-3.874075">
        <ele>1461.669</ele>
        <time>2021-07-30T15:58:41Z</time>
      </trkpt>
      <trkpt lat="40.777491" lon="-3.874062">
        <ele>1462.613</ele>
        <time>2021-07-30T15:58:52Z</time>
      </trkpt>
      <trkpt lat="40.777472" lon="-3.874077">
        <ele>1462.610</ele>
        <time>2021-07-30T15:59:01Z</time>
      </trkpt>
      <trkpt lat="40.777453" lon="-3.874062">
        <ele>1464.128</ele>
        <time>2021-07-30T15:59:15Z</time>
      </trkpt>
      <trkpt lat="40.777472" lon="-3.874050">
        <ele>1463.989</ele>
        <time>2021-07-30T15:59:21Z</time>
      </trkpt>
      <trkpt lat="40.777462" lon="-3.874025">
        <ele>1465.617</ele>
        <time>2021-07-30T15:59:40Z</time>
      </trkpt>
      <trkpt lat="40.777446" lon="-3.874040">
        <ele>1465.408</ele>
        <time>2021-07-30T15:59:43Z</time>
      </trkpt>
      <trkpt lat="40.777440" lon="-3.874066">
        <ele>1464.439</ele>
        <time>2021-07-30T15:59:55Z</time>
      </trkpt>
      <trkpt lat="40.777430" lon="-3.874090">
        <ele>1463.621</ele>
        <time>2021-07-30T16:00:01Z</time>
      </trkpt>
      <trkpt lat="40.777440" lon="-3.874112">
        <ele>1462.178</ele>
        <time>2021-07-30T16:00:04Z</time>
      </trkpt>
      <trkpt lat="40.777453" lon="-3.874142">
        <ele>1460.135</ele>
        <time>2021-07-30T16:00:08Z</time>
      </trkpt>
      <trkpt lat="40.777443" lon="-3.874177">
        <ele>1459.046</ele>
        <time>2021-07-30T16:00:12Z</time>
      </trkpt>
      <trkpt lat="40.777446" lon="-3.874206">
        <ele>1458.016</ele>
        <time>2021-07-30T16:00:27Z</time>
      </trkpt>
      <trkpt lat="40.777430" lon="-3.874233">
        <ele>1457.950</ele>
        <time>2021-07-30T16:00:32Z</time>
      </trkpt>
      <trkpt lat="40.777408" lon="-3.874252">
        <ele>1458.127</ele>
        <time>2021-07-30T16:00:34Z</time>
      </trkpt>
      <trkpt lat="40.777386" lon="-3.874260">
        <ele>1458.623</ele>
        <time>2021-07-30T16:00:37Z</time>
      </trkpt>
      <trkpt lat="40.777370" lon="-3.874280">
        <ele>1458.583</ele>
        <time>2021-07-30T16:00:40Z</time>
      </trkpt>
      <trkpt lat="40.777366" lon="-3.874307">
        <ele>1457.811</ele>
        <time>2021-07-30T16:00:45Z</time>
      </trkpt>
      <trkpt lat="40.777354" lon="-3.874358">
        <ele>1456.508</ele>
        <time>2021-07-30T16:00:47Z</time>
      </trkpt>
      <trkpt lat="40.777344" lon="-3.874388">
        <ele>1455.899</ele>
        <time>2021-07-30T16:00:49Z</time>
      </trkpt>
      <trkpt lat="40.777328" lon="-3.874405">
        <ele>1455.751</ele>
        <time>2021-07-30T16:00:52Z</time>
      </trkpt>
      <trkpt lat="40.777341" lon="-3.874447">
        <ele>1453.938</ele>
        <time>2021-07-30T16:00:54Z</time>
      </trkpt>
      <trkpt lat="40.777341" lon="-3.874477">
        <ele>1453.275</ele>
        <time>2021-07-30T16:00:56Z</time>
      </trkpt>
      <trkpt lat="40.777331" lon="-3.874500">
        <ele>1452.876</ele>
        <time>2021-07-30T16:01:00Z</time>
      </trkpt>
      <trkpt lat="40.777328" lon="-3.874528">
        <ele>1452.146</ele>
        <time>2021-07-30T16:01:04Z</time>
      </trkpt>
      <trkpt lat="40.777299" lon="-3.874562">
        <ele>1451.550</ele>
        <time>2021-07-30T16:01:11Z</time>
      </trkpt>
      <trkpt lat="40.777283" lon="-3.874586">
        <ele>1450.947</ele>
        <time>2021-07-30T16:01:13Z</time>
      </trkpt>
      <trkpt lat="40.777264" lon="-3.874585">
        <ele>1451.187</ele>
        <time>2021-07-30T16:01:17Z</time>
      </trkpt>
      <trkpt lat="40.777248" lon="-3.874602">
        <ele>1450.642</ele>
        <time>2021-07-30T16:01:22Z</time>
      </trkpt>
      <trkpt lat="40.777238" lon="-3.874630">
        <ele>1449.626</ele>
        <time>2021-07-30T16:01:25Z</time>
      </trkpt>
      <trkpt lat="40.777226" lon="-3.874647">
        <ele>1449.008</ele>
        <time>2021-07-30T16:01:27Z</time>
      </trkpt>
      <trkpt lat="40.777210" lon="-3.874662">
        <ele>1448.855</ele>
        <time>2021-07-30T16:01:29Z</time>
      </trkpt>
      <trkpt lat="40.777194" lon="-3.874690">
        <ele>1448.347</ele>
        <time>2021-07-30T16:01:31Z</time>
      </trkpt>
      <trkpt lat="40.777174" lon="-3.874702">
        <ele>1448.514</ele>
        <time>2021-07-30T16:01:32Z</time>
      </trkpt>
      <trkpt lat="40.777158" lon="-3.874717">
        <ele>1448.561</ele>
        <time>2021-07-30T16:01:36Z</time>
      </trkpt>
      <trkpt lat="40.777165" lon="-3.874750">
        <ele>1446.992</ele>
        <time>2021-07-30T16:01:41Z</time>
      </trkpt>
      <trkpt lat="40.777158" lon="-3.874777">
        <ele>1446.142</ele>
        <time>2021-07-30T16:01:43Z</time>
      </trkpt>
      <trkpt lat="40.777130" lon="-3.874798">
        <ele>1446.126</ele>
        <time>2021-07-30T16:01:45Z</time>
      </trkpt>
      <trkpt lat="40.777107" lon="-3.874818">
        <ele>1446.163</ele>
        <time>2021-07-30T16:01:47Z</time>
      </trkpt>
      <trkpt lat="40.777088" lon="-3.874830">
        <ele>1446.251</ele>
        <time>2021-07-30T16:01:49Z</time>
      </trkpt>
      <trkpt lat="40.777059" lon="-3.874852">
        <ele>1446.201</ele>
        <time>2021-07-30T16:01:51Z</time>
      </trkpt>
      <trkpt lat="40.777034" lon="-3.874862">
        <ele>1446.611</ele>
        <time>2021-07-30T16:01:53Z</time>
      </trkpt>
      <trkpt lat="40.777014" lon="-3.874892">
        <ele>1445.908</ele>
        <time>2021-07-30T16:01:56Z</time>
      </trkpt>
      <trkpt lat="40.776995" lon="-3.874912">
        <ele>1445.512</ele>
        <time>2021-07-30T16:01:57Z</time>
      </trkpt>
      <trkpt lat="40.776982" lon="-3.874930">
        <ele>1445.164</ele>
        <time>2021-07-30T16:01:58Z</time>
      </trkpt>
      <trkpt lat="40.776966" lon="-3.874945">
        <ele>1444.961</ele>
        <time>2021-07-30T16:01:59Z</time>
      </trkpt>
      <trkpt lat="40.776950" lon="-3.874958">
        <ele>1444.858</ele>
        <time>2021-07-30T16:02:02Z</time>
      </trkpt>
      <trkpt lat="40.776941" lon="-3.874995">
        <ele>1443.389</ele>
        <time>2021-07-30T16:02:05Z</time>
      </trkpt>
      <trkpt lat="40.776934" lon="-3.875018">
        <ele>1442.679</ele>
        <time>2021-07-30T16:02:07Z</time>
      </trkpt>
      <trkpt lat="40.776928" lon="-3.875042">
        <ele>1441.993</ele>
        <time>2021-07-30T16:02:10Z</time>
      </trkpt>
      <trkpt lat="40.776909" lon="-3.875067">
        <ele>1441.510</ele>
        <time>2021-07-30T16:02:12Z</time>
      </trkpt>
      <trkpt lat="40.776890" lon="-3.875085">
        <ele>1441.475</ele>
        <time>2021-07-30T16:02:14Z</time>
      </trkpt>
      <trkpt lat="40.776874" lon="-3.875102">
        <ele>1441.228</ele>
        <time>2021-07-30T16:02:16Z</time>
      </trkpt>
      <trkpt lat="40.776864" lon="-3.875123">
        <ele>1440.720</ele>
        <time>2021-07-30T16:02:19Z</time>
      </trkpt>
      <trkpt lat="40.776854" lon="-3.875160">
        <ele>1439.608</ele>
        <time>2021-07-30T16:02:21Z</time>
      </trkpt>
      <trkpt lat="40.776835" lon="-3.875173">
        <ele>1439.764</ele>
        <time>2021-07-30T16:02:25Z</time>
      </trkpt>
      <trkpt lat="40.776698" lon="-3.875345">
        <ele>1437.366</ele>
        <time>2021-07-30T16:02:39Z</time>
      </trkpt>
      <trkpt lat="40.776672" lon="-3.875358">
        <ele>1437.693</ele>
        <time>2021-07-30T16:02:40Z</time>
      </trkpt>
      <trkpt lat="40.776666" lon="-3.875382">
        <ele>1436.940</ele>
        <time>2021-07-30T16:02:50Z</time>
      </trkpt>
      <trkpt lat="40.776666" lon="-3.875412">
        <ele>1435.791</ele>
        <time>2021-07-30T16:02:53Z</time>
      </trkpt>
      <trkpt lat="40.776662" lon="-3.875440">
        <ele>1434.731</ele>
        <time>2021-07-30T16:02:57Z</time>
      </trkpt>
      <trkpt lat="40.776662" lon="-3.875468">
        <ele>1433.645</ele>
        <time>2021-07-30T16:03:00Z</time>
      </trkpt>
      <trkpt lat="40.776662" lon="-3.875495">
        <ele>1432.562</ele>
        <time>2021-07-30T16:03:06Z</time>
      </trkpt>
      <trkpt lat="40.776650" lon="-3.875512">
        <ele>1432.121</ele>
        <time>2021-07-30T16:03:08Z</time>
      </trkpt>
      <trkpt lat="40.776643" lon="-3.875543">
        <ele>1431.141</ele>
        <time>2021-07-30T16:03:12Z</time>
      </trkpt>
      <trkpt lat="40.776624" lon="-3.875560">
        <ele>1430.905</ele>
        <time>2021-07-30T16:03:14Z</time>
      </trkpt>
      <trkpt lat="40.776608" lon="-3.875584">
        <ele>1430.308</ele>
        <time>2021-07-30T16:03:19Z</time>
      </trkpt>
      <trkpt lat="40.776598" lon="-3.875605">
        <ele>1429.689</ele>
        <time>2021-07-30T16:03:21Z</time>
      </trkpt>
      <trkpt lat="40.776573" lon="-3.875635">
        <ele>1429.081</ele>
        <time>2021-07-30T16:03:24Z</time>
      </trkpt>
      <trkpt lat="40.776557" lon="-3.875655">
        <ele>1428.678</ele>
        <time>2021-07-30T16:03:26Z</time>
      </trkpt>
      <trkpt lat="40.776538" lon="-3.875672">
        <ele>1428.415</ele>
        <time>2021-07-30T16:03:30Z</time>
      </trkpt>
      <trkpt lat="40.776518" lon="-3.875688">
        <ele>1428.376</ele>
        <time>2021-07-30T16:03:34Z</time>
      </trkpt>
      <trkpt lat="40.776506" lon="-3.875715">
        <ele>1427.596</ele>
        <time>2021-07-30T16:03:37Z</time>
      </trkpt>
      <trkpt lat="40.776490" lon="-3.875737">
        <ele>1427.050</ele>
        <time>2021-07-30T16:03:39Z</time>
      </trkpt>
      <trkpt lat="40.776477" lon="-3.875754">
        <ele>1426.777</ele>
        <time>2021-07-30T16:03:40Z</time>
      </trkpt>
      <trkpt lat="40.776458" lon="-3.875757">
        <ele>1427.117</ele>
        <time>2021-07-30T16:03:43Z</time>
      </trkpt>
      <trkpt lat="40.776483" lon="-3.875755">
        <ele>1426.587</ele>
        <time>2021-07-30T16:03:46Z</time>
      </trkpt>
      <trkpt lat="40.776496" lon="-3.875778">
        <ele>1425.215</ele>
        <time>2021-07-30T16:03:48Z</time>
      </trkpt>
      <trkpt lat="40.776515" lon="-3.875775">
        <ele>1424.808</ele>
        <time>2021-07-30T16:03:51Z</time>
      </trkpt>
      <trkpt lat="40.776534" lon="-3.875764">
        <ele>1424.768</ele>
        <time>2021-07-30T16:03:53Z</time>
      </trkpt>
      <trkpt lat="40.776538" lon="-3.875816">
        <ele>1422.450</ele>
        <time>2021-07-30T16:04:18Z</time>
      </trkpt>
      <trkpt lat="40.776531" lon="-3.875852">
        <ele>1421.257</ele>
        <time>2021-07-30T16:04:20Z</time>
      </trkpt>
      <trkpt lat="40.776518" lon="-3.875887">
        <ele>1420.284</ele>
        <time>2021-07-30T16:04:22Z</time>
      </trkpt>
      <trkpt lat="40.776499" lon="-3.875903">
        <ele>1420.145</ele>
        <time>2021-07-30T16:04:24Z</time>
      </trkpt>
      <trkpt lat="40.776486" lon="-3.875935">
        <ele>1419.175</ele>
        <time>2021-07-30T16:04:26Z</time>
      </trkpt>
      <trkpt lat="40.776474" lon="-3.875968">
        <ele>1418.089</ele>
        <time>2021-07-30T16:04:28Z</time>
      </trkpt>
      <trkpt lat="40.776464" lon="-3.875993">
        <ele>1417.176</ele>
        <time>2021-07-30T16:04:30Z</time>
      </trkpt>
      <trkpt lat="40.776445" lon="-3.876017">
        <ele>1416.597</ele>
        <time>2021-07-30T16:04:32Z</time>
      </trkpt>
      <trkpt lat="40.776429" lon="-3.876033">
        <ele>1416.023</ele>
        <time>2021-07-30T16:04:33Z</time>
      </trkpt>
      <trkpt lat="40.776416" lon="-3.876062">
        <ele>1414.925</ele>
        <time>2021-07-30T16:04:35Z</time>
      </trkpt>
      <trkpt lat="40.776397" lon="-3.876077">
        <ele>1414.508</ele>
        <time>2021-07-30T16:04:37Z</time>
      </trkpt>
      <trkpt lat="40.776374" lon="-3.876105">
        <ele>1413.716</ele>
        <time>2021-07-30T16:04:39Z</time>
      </trkpt>
      <trkpt lat="40.776358" lon="-3.876128">
        <ele>1413.568</ele>
        <time>2021-07-30T16:04:41Z</time>
      </trkpt>
      <trkpt lat="40.776333" lon="-3.876140">
        <ele>1413.995</ele>
        <time>2021-07-30T16:04:45Z</time>
      </trkpt>
      <trkpt lat="40.776330" lon="-3.876165">
        <ele>1413.492</ele>
        <time>2021-07-30T16:04:48Z</time>
      </trkpt>
      <trkpt lat="40.776336" lon="-3.876188">
        <ele>1412.823</ele>
        <time>2021-07-30T16:04:50Z</time>
      </trkpt>
      <trkpt lat="40.776330" lon="-3.876220">
        <ele>1412.213</ele>
        <time>2021-07-30T16:04:53Z</time>
      </trkpt>
      <trkpt lat="40.776310" lon="-3.876235">
        <ele>1412.287</ele>
        <time>2021-07-30T16:04:57Z</time>
      </trkpt>
      <trkpt lat="40.776288" lon="-3.876250">
        <ele>1412.134</ele>
        <time>2021-07-30T16:05:00Z</time>
      </trkpt>
      <trkpt lat="40.776269" lon="-3.876255">
        <ele>1412.352</ele>
        <time>2021-07-30T16:05:02Z</time>
      </trkpt>
      <trkpt lat="40.776253" lon="-3.876280">
        <ele>1411.853</ele>
        <time>2021-07-30T16:05:08Z</time>
      </trkpt>
      <trkpt lat="40.776246" lon="-3.876306">
        <ele>1411.108</ele>
        <time>2021-07-30T16:05:10Z</time>
      </trkpt>
      <trkpt lat="40.776237" lon="-3.876328">
        <ele>1410.508</ele>
        <time>2021-07-30T16:05:11Z</time>
      </trkpt>
      <trkpt lat="40.776253" lon="-3.876350">
        <ele>1409.792</ele>
        <time>2021-07-30T16:05:15Z</time>
      </trkpt>
      <trkpt lat="40.776237" lon="-3.876383">
        <ele>1408.794</ele>
        <time>2021-07-30T16:05:18Z</time>
      </trkpt>
      <trkpt lat="40.776253" lon="-3.876410">
        <ele>1408.031</ele>
        <time>2021-07-30T16:05:21Z</time>
      </trkpt>
      <trkpt lat="40.776269" lon="-3.876422">
        <ele>1407.778</ele>
        <time>2021-07-30T16:05:22Z</time>
      </trkpt>
      <trkpt lat="40.776275" lon="-3.876453">
        <ele>1407.069</ele>
        <time>2021-07-30T16:05:24Z</time>
      </trkpt>
      <trkpt lat="40.776250" lon="-3.876455">
        <ele>1406.829</ele>
        <time>2021-07-30T16:05:29Z</time>
      </trkpt>
      <trkpt lat="40.776237" lon="-3.876477">
        <ele>1406.233</ele>
        <time>2021-07-30T16:05:31Z</time>
      </trkpt>
      <trkpt lat="40.776221" lon="-3.876494">
        <ele>1405.620</ele>
        <time>2021-07-30T16:05:40Z</time>
      </trkpt>
      <trkpt lat="40.776208" lon="-3.876557">
        <ele>1403.724</ele>
        <time>2021-07-30T16:05:42Z</time>
      </trkpt>
      <trkpt lat="40.776192" lon="-3.876593">
        <ele>1402.304</ele>
        <time>2021-07-30T16:05:43Z</time>
      </trkpt>
      <trkpt lat="40.776170" lon="-3.876623">
        <ele>1400.914</ele>
        <time>2021-07-30T16:05:46Z</time>
      </trkpt>
      <trkpt lat="40.776147" lon="-3.876638">
        <ele>1399.908</ele>
        <time>2021-07-30T16:05:48Z</time>
      </trkpt>
      <trkpt lat="40.776138" lon="-3.876660">
        <ele>1398.959</ele>
        <time>2021-07-30T16:05:50Z</time>
      </trkpt>
      <trkpt lat="40.776118" lon="-3.876662">
        <ele>1398.491</ele>
        <time>2021-07-30T16:05:52Z</time>
      </trkpt>
      <trkpt lat="40.776090" lon="-3.876690">
        <ele>1398.148</ele>
        <time>2021-07-30T16:05:55Z</time>
      </trkpt>
      <trkpt lat="40.776061" lon="-3.876712">
        <ele>1398.355</ele>
        <time>2021-07-30T16:05:57Z</time>
      </trkpt>
      <trkpt lat="40.776035" lon="-3.876693">
        <ele>1398.966</ele>
        <time>2021-07-30T16:05:59Z</time>
      </trkpt>
      <trkpt lat="40.776016" lon="-3.876693">
        <ele>1399.226</ele>
        <time>2021-07-30T16:06:02Z</time>
      </trkpt>
      <trkpt lat="40.775987" lon="-3.876703">
        <ele>1399.330</ele>
        <time>2021-07-30T16:06:05Z</time>
      </trkpt>
      <trkpt lat="40.775962" lon="-3.876722">
        <ele>1399.147</ele>
        <time>2021-07-30T16:06:07Z</time>
      </trkpt>
      <trkpt lat="40.775936" lon="-3.876712">
        <ele>1399.783</ele>
        <time>2021-07-30T16:06:09Z</time>
      </trkpt>
      <trkpt lat="40.775910" lon="-3.876700">
        <ele>1400.425</ele>
        <time>2021-07-30T16:06:11Z</time>
      </trkpt>
      <trkpt lat="40.775901" lon="-3.876722">
        <ele>1399.717</ele>
        <time>2021-07-30T16:06:15Z</time>
      </trkpt>
      <trkpt lat="40.775878" lon="-3.876757">
        <ele>1398.508</ele>
        <time>2021-07-30T16:06:17Z</time>
      </trkpt>
      <trkpt lat="40.775862" lon="-3.876777">
        <ele>1397.895</ele>
        <time>2021-07-30T16:06:18Z</time>
      </trkpt>
      <trkpt lat="40.775840" lon="-3.876797">
        <ele>1396.997</ele>
        <time>2021-07-30T16:06:20Z</time>
      </trkpt>
      <trkpt lat="40.775824" lon="-3.876818">
        <ele>1396.194</ele>
        <time>2021-07-30T16:06:23Z</time>
      </trkpt>
      <trkpt lat="40.775802" lon="-3.876832">
        <ele>1396.021</ele>
        <time>2021-07-30T16:06:26Z</time>
      </trkpt>
      <trkpt lat="40.775782" lon="-3.876855">
        <ele>1395.462</ele>
        <time>2021-07-30T16:06:29Z</time>
      </trkpt>
      <trkpt lat="40.775763" lon="-3.876858">
        <ele>1395.892</ele>
        <time>2021-07-30T16:06:31Z</time>
      </trkpt>
      <trkpt lat="40.775744" lon="-3.876855">
        <ele>1396.356</ele>
        <time>2021-07-30T16:06:34Z</time>
      </trkpt>
      <trkpt lat="40.775734" lon="-3.876888">
        <ele>1395.283</ele>
        <time>2021-07-30T16:06:37Z</time>
      </trkpt>
      <trkpt lat="40.775722" lon="-3.876913">
        <ele>1394.564</ele>
        <time>2021-07-30T16:06:39Z</time>
      </trkpt>
      <trkpt lat="40.775702" lon="-3.876915">
        <ele>1395.006</ele>
        <time>2021-07-30T16:06:44Z</time>
      </trkpt>
      <trkpt lat="40.775693" lon="-3.876937">
        <ele>1394.316</ele>
        <time>2021-07-30T16:06:50Z</time>
      </trkpt>
      <trkpt lat="40.775699" lon="-3.876960">
        <ele>1393.308</ele>
        <time>2021-07-30T16:06:53Z</time>
      </trkpt>
      <trkpt lat="40.775683" lon="-3.876975">
        <ele>1393.283</ele>
        <time>2021-07-30T16:06:57Z</time>
      </trkpt>
      <trkpt lat="40.775658" lon="-3.877005">
        <ele>1392.425</ele>
        <time>2021-07-30T16:06:59Z</time>
      </trkpt>
      <trkpt lat="40.775635" lon="-3.877012">
        <ele>1392.442</ele>
        <time>2021-07-30T16:07:02Z</time>
      </trkpt>
      <trkpt lat="40.775616" lon="-3.877013">
        <ele>1392.729</ele>
        <time>2021-07-30T16:07:06Z</time>
      </trkpt>
      <trkpt lat="40.775597" lon="-3.877036">
        <ele>1391.750</ele>
        <time>2021-07-30T16:07:08Z</time>
      </trkpt>
      <trkpt lat="40.775578" lon="-3.877053">
        <ele>1390.820</ele>
        <time>2021-07-30T16:07:13Z</time>
      </trkpt>
      <trkpt lat="40.775555" lon="-3.877083">
        <ele>1389.054</ele>
        <time>2021-07-30T16:07:15Z</time>
      </trkpt>
      <trkpt lat="40.775555" lon="-3.877112">
        <ele>1387.281</ele>
        <time>2021-07-30T16:07:18Z</time>
      </trkpt>
      <trkpt lat="40.775542" lon="-3.877128">
        <ele>1386.613</ele>
        <time>2021-07-30T16:07:22Z</time>
      </trkpt>
      <trkpt lat="40.775523" lon="-3.877147">
        <ele>1386.043</ele>
        <time>2021-07-30T16:07:25Z</time>
      </trkpt>
      <trkpt lat="40.775510" lon="-3.877184">
        <ele>1384.207</ele>
        <time>2021-07-30T16:07:28Z</time>
      </trkpt>
      <trkpt lat="40.775491" lon="-3.877208">
        <ele>1383.408</ele>
        <time>2021-07-30T16:07:30Z</time>
      </trkpt>
      <trkpt lat="40.775485" lon="-3.877233">
        <ele>1382.618</ele>
        <time>2021-07-30T16:07:33Z</time>
      </trkpt>
      <trkpt lat="40.775462" lon="-3.877275">
        <ele>1382.320</ele>
        <time>2021-07-30T16:07:35Z</time>
      </trkpt>
      <trkpt lat="40.775440" lon="-3.877298">
        <ele>1382.277</ele>
        <time>2021-07-30T16:07:36Z</time>
      </trkpt>
      <trkpt lat="40.775424" lon="-3.877328">
        <ele>1381.654</ele>
        <time>2021-07-30T16:07:37Z</time>
      </trkpt>
      <trkpt lat="40.775411" lon="-3.877347">
        <ele>1381.165</ele>
        <time>2021-07-30T16:07:38Z</time>
      </trkpt>
      <trkpt lat="40.775382" lon="-3.877358">
        <ele>1381.015</ele>
        <time>2021-07-30T16:07:40Z</time>
      </trkpt>
      <trkpt lat="40.775363" lon="-3.877370">
        <ele>1380.769</ele>
        <time>2021-07-30T16:07:41Z</time>
      </trkpt>
      <trkpt lat="40.775344" lon="-3.877382">
        <ele>1380.296</ele>
        <time>2021-07-30T16:07:42Z</time>
      </trkpt>
      <trkpt lat="40.775312" lon="-3.877396">
        <ele>1379.679</ele>
        <time>2021-07-30T16:07:44Z</time>
      </trkpt>
      <trkpt lat="40.775286" lon="-3.877398">
        <ele>1379.605</ele>
        <time>2021-07-30T16:07:46Z</time>
      </trkpt>
      <trkpt lat="40.775264" lon="-3.877408">
        <ele>1379.525</ele>
        <time>2021-07-30T16:07:48Z</time>
      </trkpt>
      <trkpt lat="40.775242" lon="-3.877433">
        <ele>1378.808</ele>
        <time>2021-07-30T16:07:51Z</time>
      </trkpt>
      <trkpt lat="40.775219" lon="-3.877422">
        <ele>1380.514</ele>
        <time>2021-07-30T16:07:54Z</time>
      </trkpt>
      <trkpt lat="40.775187" lon="-3.877450">
        <ele>1380.046</ele>
        <time>2021-07-30T16:07:57Z</time>
      </trkpt>
      <trkpt lat="40.775174" lon="-3.877483">
        <ele>1378.553</ele>
        <time>2021-07-30T16:07:59Z</time>
      </trkpt>
      <trkpt lat="40.775158" lon="-3.877530">
        <ele>1377.430</ele>
        <time>2021-07-30T16:08:01Z</time>
      </trkpt>
      <trkpt lat="40.775158" lon="-3.877562">
        <ele>1376.631</ele>
        <time>2021-07-30T16:08:02Z</time>
      </trkpt>
      <trkpt lat="40.775146" lon="-3.877585">
        <ele>1376.551</ele>
        <time>2021-07-30T16:08:03Z</time>
      </trkpt>
      <trkpt lat="40.775142" lon="-3.877620">
        <ele>1375.735</ele>
        <time>2021-07-30T16:08:05Z</time>
      </trkpt>
      <trkpt lat="40.775123" lon="-3.877623">
        <ele>1376.192</ele>
        <time>2021-07-30T16:08:07Z</time>
      </trkpt>
      <trkpt lat="40.775107" lon="-3.877607">
        <ele>1377.135</ele>
        <time>2021-07-30T16:08:10Z</time>
      </trkpt>
      <trkpt lat="40.775085" lon="-3.877615">
        <ele>1377.586</ele>
        <time>2021-07-30T16:08:13Z</time>
      </trkpt>
      <trkpt lat="40.775066" lon="-3.877618">
        <ele>1378.014</ele>
        <time>2021-07-30T16:08:18Z</time>
      </trkpt>
      <trkpt lat="40.775050" lon="-3.877645">
        <ele>1377.408</ele>
        <time>2021-07-30T16:08:22Z</time>
      </trkpt>
      <trkpt lat="40.775040" lon="-3.877668">
        <ele>1376.810</ele>
        <time>2021-07-30T16:08:24Z</time>
      </trkpt>
      <trkpt lat="40.775027" lon="-3.877688">
        <ele>1376.382</ele>
        <time>2021-07-30T16:08:26Z</time>
      </trkpt>
      <trkpt lat="40.775014" lon="-3.877716">
        <ele>1375.499</ele>
        <time>2021-07-30T16:08:28Z</time>
      </trkpt>
      <trkpt lat="40.774998" lon="-3.877758">
        <ele>1373.916</ele>
        <time>2021-07-30T16:08:30Z</time>
      </trkpt>
      <trkpt lat="40.774982" lon="-3.877775">
        <ele>1373.627</ele>
        <time>2021-07-30T16:08:32Z</time>
      </trkpt>
      <trkpt lat="40.774963" lon="-3.877788">
        <ele>1373.617</ele>
        <time>2021-07-30T16:08:35Z</time>
      </trkpt>
      <trkpt lat="40.774950" lon="-3.877817">
        <ele>1372.921</ele>
        <time>2021-07-30T16:08:37Z</time>
      </trkpt>
      <trkpt lat="40.774938" lon="-3.877837">
        <ele>1372.578</ele>
        <time>2021-07-30T16:08:39Z</time>
      </trkpt>
      <trkpt lat="40.774925" lon="-3.877857">
        <ele>1372.299</ele>
        <time>2021-07-30T16:08:42Z</time>
      </trkpt>
      <trkpt lat="40.774909" lon="-3.877874">
        <ele>1372.107</ele>
        <time>2021-07-30T16:08:44Z</time>
      </trkpt>
      <trkpt lat="40.774890" lon="-3.877895">
        <ele>1371.927</ele>
        <time>2021-07-30T16:08:48Z</time>
      </trkpt>
      <trkpt lat="40.774870" lon="-3.877917">
        <ele>1371.708</ele>
        <time>2021-07-30T16:08:51Z</time>
      </trkpt>
      <trkpt lat="40.774835" lon="-3.877950">
        <ele>1371.766</ele>
        <time>2021-07-30T16:08:54Z</time>
      </trkpt>
      <trkpt lat="40.774822" lon="-3.877970">
        <ele>1371.518</ele>
        <time>2021-07-30T16:08:55Z</time>
      </trkpt>
      <trkpt lat="40.774810" lon="-3.877988">
        <ele>1371.325</ele>
        <time>2021-07-30T16:08:56Z</time>
      </trkpt>
      <trkpt lat="40.774800" lon="-3.878018">
        <ele>1370.632</ele>
        <time>2021-07-30T16:08:57Z</time>
      </trkpt>
      <trkpt lat="40.774787" lon="-3.878035">
        <ele>1370.533</ele>
        <time>2021-07-30T16:08:58Z</time>
      </trkpt>
      <trkpt lat="40.774768" lon="-3.878062">
        <ele>1370.353</ele>
        <time>2021-07-30T16:09:00Z</time>
      </trkpt>
      <trkpt lat="40.774749" lon="-3.878065">
        <ele>1370.827</ele>
        <time>2021-07-30T16:09:03Z</time>
      </trkpt>
      <trkpt lat="40.774730" lon="-3.878076">
        <ele>1371.094</ele>
        <time>2021-07-30T16:09:05Z</time>
      </trkpt>
      <trkpt lat="40.774726" lon="-3.878113">
        <ele>1369.868</ele>
        <time>2021-07-30T16:09:08Z</time>
      </trkpt>
      <trkpt lat="40.774736" lon="-3.878137">
        <ele>1368.742</ele>
        <time>2021-07-30T16:09:09Z</time>
      </trkpt>
      <trkpt lat="40.774717" lon="-3.878147">
        <ele>1368.926</ele>
        <time>2021-07-30T16:09:13Z</time>
      </trkpt>
      <trkpt lat="40.774698" lon="-3.878162">
        <ele>1368.908</ele>
        <time>2021-07-30T16:09:15Z</time>
      </trkpt>
      <trkpt lat="40.774678" lon="-3.878167">
        <ele>1369.353</ele>
        <time>2021-07-30T16:09:17Z</time>
      </trkpt>
      <trkpt lat="40.774666" lon="-3.878188">
        <ele>1368.935</ele>
        <time>2021-07-30T16:09:20Z</time>
      </trkpt>
      <trkpt lat="40.774659" lon="-3.878217">
        <ele>1368.252</ele>
        <time>2021-07-30T16:09:22Z</time>
      </trkpt>
      <trkpt lat="40.774646" lon="-3.878244">
        <ele>1367.719</ele>
        <time>2021-07-30T16:09:24Z</time>
      </trkpt>
      <trkpt lat="40.774621" lon="-3.878250">
        <ele>1368.380</ele>
        <time>2021-07-30T16:09:32Z</time>
      </trkpt>
      <trkpt lat="40.774602" lon="-3.878280">
        <ele>1368.060</ele>
        <time>2021-07-30T16:09:34Z</time>
      </trkpt>
      <trkpt lat="40.774592" lon="-3.878315">
        <ele>1367.384</ele>
        <time>2021-07-30T16:09:36Z</time>
      </trkpt>
      <trkpt lat="40.774592" lon="-3.878345">
        <ele>1366.331</ele>
        <time>2021-07-30T16:09:38Z</time>
      </trkpt>
      <trkpt lat="40.774573" lon="-3.878373">
        <ele>1365.998</ele>
        <time>2021-07-30T16:09:40Z</time>
      </trkpt>
      <trkpt lat="40.774557" lon="-3.878395">
        <ele>1365.715</ele>
        <time>2021-07-30T16:09:42Z</time>
      </trkpt>
      <trkpt lat="40.774550" lon="-3.878422">
        <ele>1364.926</ele>
        <time>2021-07-30T16:09:44Z</time>
      </trkpt>
      <trkpt lat="40.774544" lon="-3.878446">
        <ele>1364.208</ele>
        <time>2021-07-30T16:09:46Z</time>
      </trkpt>
      <trkpt lat="40.774512" lon="-3.878460">
        <ele>1364.856</ele>
        <time>2021-07-30T16:09:49Z</time>
      </trkpt>
      <trkpt lat="40.774499" lon="-3.878478">
        <ele>1364.538</ele>
        <time>2021-07-30T16:09:52Z</time>
      </trkpt>
      <trkpt lat="40.774480" lon="-3.878505">
        <ele>1364.145</ele>
        <time>2021-07-30T16:09:58Z</time>
      </trkpt>
      <trkpt lat="40.774470" lon="-3.878545">
        <ele>1362.822</ele>
        <time>2021-07-30T16:10:00Z</time>
      </trkpt>
      <trkpt lat="40.774470" lon="-3.878570">
        <ele>1361.963</ele>
        <time>2021-07-30T16:10:02Z</time>
      </trkpt>
      <trkpt lat="40.774451" lon="-3.878570">
        <ele>1362.463</ele>
        <time>2021-07-30T16:10:07Z</time>
      </trkpt>
      <trkpt lat="40.774442" lon="-3.878594">
        <ele>1361.847</ele>
        <time>2021-07-30T16:10:10Z</time>
      </trkpt>
      <trkpt lat="40.774426" lon="-3.878630">
        <ele>1360.854</ele>
        <time>2021-07-30T16:10:12Z</time>
      </trkpt>
      <trkpt lat="40.774422" lon="-3.878655">
        <ele>1360.083</ele>
        <time>2021-07-30T16:10:15Z</time>
      </trkpt>
      <trkpt lat="40.774403" lon="-3.878678">
        <ele>1359.625</ele>
        <time>2021-07-30T16:10:18Z</time>
      </trkpt>
      <trkpt lat="40.774374" lon="-3.878692">
        <ele>1359.917</ele>
        <time>2021-07-30T16:10:19Z</time>
      </trkpt>
      <trkpt lat="40.774358" lon="-3.878728">
        <ele>1358.908</ele>
        <time>2021-07-30T16:10:27Z</time>
      </trkpt>
      <trkpt lat="40.774346" lon="-3.878745">
        <ele>1358.585</ele>
        <time>2021-07-30T16:10:28Z</time>
      </trkpt>
      <trkpt lat="40.774333" lon="-3.878772">
        <ele>1357.887</ele>
        <time>2021-07-30T16:10:31Z</time>
      </trkpt>
      <trkpt lat="40.774330" lon="-3.878796">
        <ele>1356.864</ele>
        <time>2021-07-30T16:10:35Z</time>
      </trkpt>
      <trkpt lat="40.774314" lon="-3.878827">
        <ele>1355.961</ele>
        <time>2021-07-30T16:10:37Z</time>
      </trkpt>
      <trkpt lat="40.774294" lon="-3.878835">
        <ele>1356.152</ele>
        <time>2021-07-30T16:10:40Z</time>
      </trkpt>
      <trkpt lat="40.774288" lon="-3.878868">
        <ele>1354.962</ele>
        <time>2021-07-30T16:10:42Z</time>
      </trkpt>
      <trkpt lat="40.774288" lon="-3.878905">
        <ele>1353.396</ele>
        <time>2021-07-30T16:10:44Z</time>
      </trkpt>
      <trkpt lat="40.774288" lon="-3.878944">
        <ele>1351.953</ele>
        <time>2021-07-30T16:10:47Z</time>
      </trkpt>
      <trkpt lat="40.774288" lon="-3.878973">
        <ele>1350.881</ele>
        <time>2021-07-30T16:10:48Z</time>
      </trkpt>
      <trkpt lat="40.774310" lon="-3.879002">
        <ele>1349.161</ele>
        <time>2021-07-30T16:10:50Z</time>
      </trkpt>
      <trkpt lat="40.774330" lon="-3.879012">
        <ele>1348.217</ele>
        <time>2021-07-30T16:10:52Z</time>
      </trkpt>
      <trkpt lat="40.774352" lon="-3.879013">
        <ele>1347.608</ele>
        <time>2021-07-30T16:10:53Z</time>
      </trkpt>
      <trkpt lat="40.774381" lon="-3.879007">
        <ele>1347.095</ele>
        <time>2021-07-30T16:10:54Z</time>
      </trkpt>
      <trkpt lat="40.774400" lon="-3.879010">
        <ele>1346.417</ele>
        <time>2021-07-30T16:10:56Z</time>
      </trkpt>
      <trkpt lat="40.774403" lon="-3.879035">
        <ele>1345.364</ele>
        <time>2021-07-30T16:11:03Z</time>
      </trkpt>
      <trkpt lat="40.774438" lon="-3.879033">
        <ele>1344.531</ele>
        <time>2021-07-30T16:11:05Z</time>
      </trkpt>
      <trkpt lat="40.774458" lon="-3.879037">
        <ele>1344.012</ele>
        <time>2021-07-30T16:11:06Z</time>
      </trkpt>
      <trkpt lat="40.774483" lon="-3.879043">
        <ele>1343.542</ele>
        <time>2021-07-30T16:11:09Z</time>
      </trkpt>
      <trkpt lat="40.774499" lon="-3.879030">
        <ele>1343.766</ele>
        <time>2021-07-30T16:11:10Z</time>
      </trkpt>
      <trkpt lat="40.774512" lon="-3.879052">
        <ele>1342.963</ele>
        <time>2021-07-30T16:11:18Z</time>
      </trkpt>
      <trkpt lat="40.774512" lon="-3.879078">
        <ele>1342.142</ele>
        <time>2021-07-30T16:11:23Z</time>
      </trkpt>
      <trkpt lat="40.774531" lon="-3.879090">
        <ele>1341.622</ele>
        <time>2021-07-30T16:11:26Z</time>
      </trkpt>
      <trkpt lat="40.774547" lon="-3.879110">
        <ele>1340.914</ele>
        <time>2021-07-30T16:11:30Z</time>
      </trkpt>
      <trkpt lat="40.774557" lon="-3.879132">
        <ele>1340.308</ele>
        <time>2021-07-30T16:11:33Z</time>
      </trkpt>
      <trkpt lat="40.774550" lon="-3.879106">
        <ele>1341.021</ele>
        <time>2021-07-30T16:11:47Z</time>
      </trkpt>
      <trkpt lat="40.774573" lon="-3.879090">
        <ele>1341.323</ele>
        <time>2021-07-30T16:11:49Z</time>
      </trkpt>
      <trkpt lat="40.774592" lon="-3.878302">
        <ele>1367.729</ele>
        <time>2021-07-30T22:43:11Z</time>
      </trkpt>
      <trkpt lat="40.774611" lon="-3.878293">
        <ele>1367.300</ele>
        <time>2021-07-30T22:43:12Z</time>
      </trkpt>
      <trkpt lat="40.774627" lon="-3.878270">
        <ele>1367.520</ele>
        <time>2021-07-30T22:43:15Z</time>
      </trkpt>
      <trkpt lat="40.774627" lon="-3.878245">
        <ele>1368.308</ele>
        <time>2021-07-30T22:43:26Z</time>
      </trkpt>
      <trkpt lat="40.774637" lon="-3.878222">
        <ele>1368.789</ele>
        <time>2021-07-30T22:43:30Z</time>
      </trkpt>
      <trkpt lat="40.774646" lon="-3.878200">
        <ele>1369.151</ele>
        <time>2021-07-30T22:43:35Z</time>
      </trkpt>
      <trkpt lat="40.774653" lon="-3.878170">
        <ele>1369.938</ele>
        <time>2021-07-30T22:43:38Z</time>
      </trkpt>
      <trkpt lat="40.774669" lon="-3.878157">
        <ele>1369.915</ele>
        <time>2021-07-30T22:43:40Z</time>
      </trkpt>
      <trkpt lat="40.774682" lon="-3.878133">
        <ele>1370.376</ele>
        <time>2021-07-30T22:43:43Z</time>
      </trkpt>
      <trkpt lat="40.774698" lon="-3.878120">
        <ele>1370.486</ele>
        <time>2021-07-30T22:43:46Z</time>
      </trkpt>
      <trkpt lat="40.774720" lon="-3.878110">
        <ele>1370.150</ele>
        <time>2021-07-30T22:43:49Z</time>
      </trkpt>
      <trkpt lat="40.774742" lon="-3.878096">
        <ele>1369.998</ele>
        <time>2021-07-30T22:43:52Z</time>
      </trkpt>
      <trkpt lat="40.774765" lon="-3.878082">
        <ele>1369.799</ele>
        <time>2021-07-30T22:43:54Z</time>
      </trkpt>
      <trkpt lat="40.774771" lon="-3.878058">
        <ele>1370.307</ele>
        <time>2021-07-30T22:43:56Z</time>
      </trkpt>
      <trkpt lat="40.774790" lon="-3.878040">
        <ele>1370.327</ele>
        <time>2021-07-30T22:43:59Z</time>
      </trkpt>
      <trkpt lat="40.774810" lon="-3.878022">
        <ele>1370.208</ele>
        <time>2021-07-30T22:44:02Z</time>
      </trkpt>
      <trkpt lat="40.774829" lon="-3.877995">
        <ele>1370.566</ele>
        <time>2021-07-30T22:44:04Z</time>
      </trkpt>
      <trkpt lat="40.774845" lon="-3.877977">
        <ele>1370.518</ele>
        <time>2021-07-30T22:44:06Z</time>
      </trkpt>
      <trkpt lat="40.774867" lon="-3.877958">
        <ele>1370.575</ele>
        <time>2021-07-30T22:44:08Z</time>
      </trkpt>
      <trkpt lat="40.774864" lon="-3.877935">
        <ele>1371.322</ele>
        <time>2021-07-30T22:44:12Z</time>
      </trkpt>
      <trkpt lat="40.774896" lon="-3.877905">
        <ele>1371.493</ele>
        <time>2021-07-30T22:44:18Z</time>
      </trkpt>
      <trkpt lat="40.774925" lon="-3.877885">
        <ele>1371.283</ele>
        <time>2021-07-30T22:44:23Z</time>
      </trkpt>
      <trkpt lat="40.774944" lon="-3.877868">
        <ele>1371.397</ele>
        <time>2021-07-30T22:44:25Z</time>
      </trkpt>
      <trkpt lat="40.774960" lon="-3.877845">
        <ele>1371.735</ele>
        <time>2021-07-30T22:44:27Z</time>
      </trkpt>
      <trkpt lat="40.774979" lon="-3.877833">
        <ele>1371.661</ele>
        <time>2021-07-30T22:44:29Z</time>
      </trkpt>
      <trkpt lat="40.775002" lon="-3.877822">
        <ele>1371.421</ele>
        <time>2021-07-30T22:44:31Z</time>
      </trkpt>
      <trkpt lat="40.775034" lon="-3.877815">
        <ele>1371.413</ele>
        <time>2021-07-30T22:44:38Z</time>
      </trkpt>
      <trkpt lat="40.775056" lon="-3.877802">
        <ele>1371.708</ele>
        <time>2021-07-30T22:44:40Z</time>
      </trkpt>
      <trkpt lat="40.775046" lon="-3.877775">
        <ele>1372.663</ele>
        <time>2021-07-30T22:44:43Z</time>
      </trkpt>
      <trkpt lat="40.775062" lon="-3.877753">
        <ele>1373.215</ele>
        <time>2021-07-30T22:44:46Z</time>
      </trkpt>
      <trkpt lat="40.775082" lon="-3.877745">
        <ele>1373.282</ele>
        <time>2021-07-30T22:44:48Z</time>
      </trkpt>
      <trkpt lat="40.775114" lon="-3.877732">
        <ele>1373.159</ele>
        <time>2021-07-30T22:44:51Z</time>
      </trkpt>
      <trkpt lat="40.775123" lon="-3.877708">
        <ele>1373.760</ele>
        <time>2021-07-30T22:44:54Z</time>
      </trkpt>
      <trkpt lat="40.775139" lon="-3.877687">
        <ele>1373.950</ele>
        <time>2021-07-30T22:44:57Z</time>
      </trkpt>
      <trkpt lat="40.775149" lon="-3.877663">
        <ele>1374.494</ele>
        <time>2021-07-30T22:45:01Z</time>
      </trkpt>
      <trkpt lat="40.775168" lon="-3.877655">
        <ele>1374.132</ele>
        <time>2021-07-30T22:45:05Z</time>
      </trkpt>
      <trkpt lat="40.775187" lon="-3.877647">
        <ele>1373.828</ele>
        <time>2021-07-30T22:45:07Z</time>
      </trkpt>
      <trkpt lat="40.775206" lon="-3.877632">
        <ele>1373.689</ele>
        <time>2021-07-30T22:45:10Z</time>
      </trkpt>
      <trkpt lat="40.775226" lon="-3.877625">
        <ele>1373.117</ele>
        <time>2021-07-30T22:45:12Z</time>
      </trkpt>
      <trkpt lat="40.775226" lon="-3.877598">
        <ele>1373.608</ele>
        <time>2021-07-30T22:45:16Z</time>
      </trkpt>
      <trkpt lat="40.775242" lon="-3.877585">
        <ele>1373.329</ele>
        <time>2021-07-30T22:45:21Z</time>
      </trkpt>
      <trkpt lat="40.775264" lon="-3.877568">
        <ele>1372.821</ele>
        <time>2021-07-30T22:45:28Z</time>
      </trkpt>
      <trkpt lat="40.775283" lon="-3.877552">
        <ele>1372.558</ele>
        <time>2021-07-30T22:45:31Z</time>
      </trkpt>
      <trkpt lat="40.775302" lon="-3.877532">
        <ele>1373.175</ele>
        <time>2021-07-30T22:45:33Z</time>
      </trkpt>
      <trkpt lat="40.775318" lon="-3.877507">
        <ele>1373.766</ele>
        <time>2021-07-30T22:45:36Z</time>
      </trkpt>
      <trkpt lat="40.775325" lon="-3.877480">
        <ele>1375.016</ele>
        <time>2021-07-30T22:45:39Z</time>
      </trkpt>
      <trkpt lat="40.775344" lon="-3.877458">
        <ele>1376.340</ele>
        <time>2021-07-30T22:45:42Z</time>
      </trkpt>
      <trkpt lat="40.775360" lon="-3.877430">
        <ele>1377.868</ele>
        <time>2021-07-30T22:45:45Z</time>
      </trkpt>
      <trkpt lat="40.775376" lon="-3.877417">
        <ele>1378.559</ele>
        <time>2021-07-30T22:45:47Z</time>
      </trkpt>
      <trkpt lat="40.775395" lon="-3.877396">
        <ele>1379.303</ele>
        <time>2021-07-30T22:45:50Z</time>
      </trkpt>
      <trkpt lat="40.775414" lon="-3.877380">
        <ele>1379.823</ele>
        <time>2021-07-30T22:45:53Z</time>
      </trkpt>
      <trkpt lat="40.775427" lon="-3.877363">
        <ele>1380.308</ele>
        <time>2021-07-30T22:45:54Z</time>
      </trkpt>
      <trkpt lat="40.775453" lon="-3.877345">
        <ele>1380.622</ele>
        <time>2021-07-30T22:45:56Z</time>
      </trkpt>
      <trkpt lat="40.775466" lon="-3.877325">
        <ele>1380.954</ele>
        <time>2021-07-30T22:45:58Z</time>
      </trkpt>
      <trkpt lat="40.775482" lon="-3.877305">
        <ele>1381.151</ele>
        <time>2021-07-30T22:46:00Z</time>
      </trkpt>
      <trkpt lat="40.775501" lon="-3.877287">
        <ele>1381.058</ele>
        <time>2021-07-30T22:46:02Z</time>
      </trkpt>
      <trkpt lat="40.775494" lon="-3.877263">
        <ele>1381.629</ele>
        <time>2021-07-30T22:46:05Z</time>
      </trkpt>
      <trkpt lat="40.775510" lon="-3.877248">
        <ele>1381.479</ele>
        <time>2021-07-30T22:46:08Z</time>
      </trkpt>
      <trkpt lat="40.775526" lon="-3.877228">
        <ele>1381.163</ele>
        <time>2021-07-30T22:46:12Z</time>
      </trkpt>
      <trkpt lat="40.775536" lon="-3.877194">
        <ele>1382.661</ele>
        <time>2021-07-30T22:46:19Z</time>
      </trkpt>
      <trkpt lat="40.775555" lon="-3.877195">
        <ele>1381.879</ele>
        <time>2021-07-30T22:46:25Z</time>
      </trkpt>
      <trkpt lat="40.775571" lon="-3.877178">
        <ele>1383.205</ele>
        <time>2021-07-30T22:46:29Z</time>
      </trkpt>
      <trkpt lat="40.775584" lon="-3.877198">
        <ele>1382.225</ele>
        <time>2021-07-30T22:46:32Z</time>
      </trkpt>
      <trkpt lat="40.775610" lon="-3.877168">
        <ele>1384.508</ele>
        <time>2021-07-30T22:46:38Z</time>
      </trkpt>
      <trkpt lat="40.775626" lon="-3.877155">
        <ele>1385.454</ele>
        <time>2021-07-30T22:46:39Z</time>
      </trkpt>
      <trkpt lat="40.775616" lon="-3.877123">
        <ele>1386.966</ele>
        <time>2021-07-30T22:46:44Z</time>
      </trkpt>
      <trkpt lat="40.775632" lon="-3.877108">
        <ele>1387.883</ele>
        <time>2021-07-30T22:46:50Z</time>
      </trkpt>
      <trkpt lat="40.775645" lon="-3.877092">
        <ele>1388.670</ele>
        <time>2021-07-30T22:46:57Z</time>
      </trkpt>
      <trkpt lat="40.775645" lon="-3.877067">
        <ele>1389.871</ele>
        <time>2021-07-30T22:47:08Z</time>
      </trkpt>
      <trkpt lat="40.775658" lon="-3.877045">
        <ele>1390.711</ele>
        <time>2021-07-30T22:47:11Z</time>
      </trkpt>
      <trkpt lat="40.775670" lon="-3.877020">
        <ele>1391.635</ele>
        <time>2021-07-30T22:47:14Z</time>
      </trkpt>
      <trkpt lat="40.775696" lon="-3.877005">
        <ele>1391.833</ele>
        <time>2021-07-30T22:47:16Z</time>
      </trkpt>
      <trkpt lat="40.775715" lon="-3.877015">
        <ele>1391.228</ele>
        <time>2021-07-30T22:47:18Z</time>
      </trkpt>
      <trkpt lat="40.775738" lon="-3.877010">
        <ele>1391.089</ele>
        <time>2021-07-30T22:47:19Z</time>
      </trkpt>
      <trkpt lat="40.775770" lon="-3.877000">
        <ele>1390.717</ele>
        <time>2021-07-30T22:47:20Z</time>
      </trkpt>
      <trkpt lat="40.775792" lon="-3.876977">
        <ele>1390.708</ele>
        <time>2021-07-30T22:47:23Z</time>
      </trkpt>
      <trkpt lat="40.775814" lon="-3.876970">
        <ele>1390.379</ele>
        <time>2021-07-30T22:47:27Z</time>
      </trkpt>
      <trkpt lat="40.775808" lon="-3.876942">
        <ele>1390.811</ele>
        <time>2021-07-30T22:47:31Z</time>
      </trkpt>
      <trkpt lat="40.775837" lon="-3.876928">
        <ele>1390.838</ele>
        <time>2021-07-30T22:47:34Z</time>
      </trkpt>
      <trkpt lat="40.775859" lon="-3.876927">
        <ele>1391.335</ele>
        <time>2021-07-30T22:47:35Z</time>
      </trkpt>
      <trkpt lat="40.775878" lon="-3.876928">
        <ele>1391.656</ele>
        <time>2021-07-30T22:47:40Z</time>
      </trkpt>
      <trkpt lat="40.775898" lon="-3.876927">
        <ele>1392.196</ele>
        <time>2021-07-30T22:47:43Z</time>
      </trkpt>
      <trkpt lat="40.775917" lon="-3.876917">
        <ele>1392.820</ele>
        <time>2021-07-30T22:47:47Z</time>
      </trkpt>
      <trkpt lat="40.775939" lon="-3.876892">
        <ele>1393.968</ele>
        <time>2021-07-30T22:47:50Z</time>
      </trkpt>
      <trkpt lat="40.775955" lon="-3.876878">
        <ele>1394.621</ele>
        <time>2021-07-30T22:47:53Z</time>
      </trkpt>
      <trkpt lat="40.775974" lon="-3.876875">
        <ele>1394.941</ele>
        <time>2021-07-30T22:47:57Z</time>
      </trkpt>
      <trkpt lat="40.775994" lon="-3.876866">
        <ele>1395.305</ele>
        <time>2021-07-30T22:48:01Z</time>
      </trkpt>
      <trkpt lat="40.776013" lon="-3.876847">
        <ele>1395.908</ele>
        <time>2021-07-30T22:48:03Z</time>
      </trkpt>
      <trkpt lat="40.776029" lon="-3.876830">
        <ele>1396.489</ele>
        <time>2021-07-30T22:48:05Z</time>
      </trkpt>
      <trkpt lat="40.776051" lon="-3.876805">
        <ele>1396.981</ele>
        <time>2021-07-30T22:48:09Z</time>
      </trkpt>
      <trkpt lat="40.776070" lon="-3.876803">
        <ele>1397.018</ele>
        <time>2021-07-30T22:48:10Z</time>
      </trkpt>
      <trkpt lat="40.776093" lon="-3.876798">
        <ele>1397.065</ele>
        <time>2021-07-30T22:48:12Z</time>
      </trkpt>
      <trkpt lat="40.776109" lon="-3.876780">
        <ele>1397.296</ele>
        <time>2021-07-30T22:48:21Z</time>
      </trkpt>
      <trkpt lat="40.776128" lon="-3.876775">
        <ele>1397.856</ele>
        <time>2021-07-30T22:48:26Z</time>
      </trkpt>
      <trkpt lat="40.776118" lon="-3.876752">
        <ele>1397.680</ele>
        <time>2021-07-30T22:48:30Z</time>
      </trkpt>
      <trkpt lat="40.776131" lon="-3.876730">
        <ele>1398.288</ele>
        <time>2021-07-30T22:48:38Z</time>
      </trkpt>
      <trkpt lat="40.776150" lon="-3.876722">
        <ele>1398.877</ele>
        <time>2021-07-30T22:48:47Z</time>
      </trkpt>
      <trkpt lat="40.776166" lon="-3.876710">
        <ele>1399.361</ele>
        <time>2021-07-30T22:48:49Z</time>
      </trkpt>
      <trkpt lat="40.776160" lon="-3.876678">
        <ele>1399.227</ele>
        <time>2021-07-30T22:48:55Z</time>
      </trkpt>
      <trkpt lat="40.776186" lon="-3.876675">
        <ele>1399.908</ele>
        <time>2021-07-30T22:48:58Z</time>
      </trkpt>
      <trkpt lat="40.776211" lon="-3.876660">
        <ele>1400.774</ele>
        <time>2021-07-30T22:49:00Z</time>
      </trkpt>
      <trkpt lat="40.776234" lon="-3.876640">
        <ele>1401.816</ele>
        <time>2021-07-30T22:49:04Z</time>
      </trkpt>
      <trkpt lat="40.776246" lon="-3.876618">
        <ele>1402.693</ele>
        <time>2021-07-30T22:49:06Z</time>
      </trkpt>
      <trkpt lat="40.776256" lon="-3.876593">
        <ele>1403.560</ele>
        <time>2021-07-30T22:49:10Z</time>
      </trkpt>
      <trkpt lat="40.776256" lon="-3.876562">
        <ele>1404.211</ele>
        <time>2021-07-30T22:49:15Z</time>
      </trkpt>
      <trkpt lat="40.776269" lon="-3.876538">
        <ele>1405.051</ele>
        <time>2021-07-30T22:49:18Z</time>
      </trkpt>
      <trkpt lat="40.776288" lon="-3.876530">
        <ele>1405.465</ele>
        <time>2021-07-30T22:49:21Z</time>
      </trkpt>
      <trkpt lat="40.776301" lon="-3.876504">
        <ele>1406.043</ele>
        <time>2021-07-30T22:49:23Z</time>
      </trkpt>
      <trkpt lat="40.776298" lon="-3.876472">
        <ele>1406.634</ele>
        <time>2021-07-30T22:49:28Z</time>
      </trkpt>
      <trkpt lat="40.776278" lon="-3.876462">
        <ele>1406.855</ele>
        <time>2021-07-30T22:49:31Z</time>
      </trkpt>
      <trkpt lat="40.776291" lon="-3.876443">
        <ele>1407.210</ele>
        <time>2021-07-30T22:49:35Z</time>
      </trkpt>
      <trkpt lat="40.776310" lon="-3.876432">
        <ele>1407.508</ele>
        <time>2021-07-30T22:49:37Z</time>
      </trkpt>
      <trkpt lat="40.776294" lon="-3.876420">
        <ele>1407.730</ele>
        <time>2021-07-30T22:49:42Z</time>
      </trkpt>
      <trkpt lat="40.776307" lon="-3.876400">
        <ele>1408.162</ele>
        <time>2021-07-30T22:49:48Z</time>
      </trkpt>
      <trkpt lat="40.776310" lon="-3.876430">
        <ele>1407.519</ele>
        <time>2021-07-30T22:49:53Z</time>
      </trkpt>
      <trkpt lat="40.776320" lon="-3.876408">
        <ele>1407.956</ele>
        <time>2021-07-30T22:49:56Z</time>
      </trkpt>
      <trkpt lat="40.776333" lon="-3.876392">
        <ele>1408.247</ele>
        <time>2021-07-30T22:49:58Z</time>
      </trkpt>
      <trkpt lat="40.776352" lon="-3.876380">
        <ele>1408.317</ele>
        <time>2021-07-30T22:50:00Z</time>
      </trkpt>
      <trkpt lat="40.776346" lon="-3.876353">
        <ele>1408.991</ele>
        <time>2021-07-30T22:50:05Z</time>
      </trkpt>
      <trkpt lat="40.776358" lon="-3.876335">
        <ele>1409.239</ele>
        <time>2021-07-30T22:50:09Z</time>
      </trkpt>
      <trkpt lat="40.776374" lon="-3.876305">
        <ele>1409.739</ele>
        <time>2021-07-30T22:50:12Z</time>
      </trkpt>
      <trkpt lat="40.776374" lon="-3.876278">
        <ele>1410.201</ele>
        <time>2021-07-30T22:50:14Z</time>
      </trkpt>
      <trkpt lat="40.776352" lon="-3.876248">
        <ele>1411.121</ele>
        <time>2021-07-30T22:50:16Z</time>
      </trkpt>
      <trkpt lat="40.776333" lon="-3.876240">
        <ele>1411.608</ele>
        <time>2021-07-30T22:50:18Z</time>
      </trkpt>
      <trkpt lat="40.776346" lon="-3.876218">
        <ele>1411.940</ele>
        <time>2021-07-30T22:50:22Z</time>
      </trkpt>
      <trkpt lat="40.776355" lon="-3.876193">
        <ele>1412.212</ele>
        <time>2021-07-30T22:50:26Z</time>
      </trkpt>
      <trkpt lat="40.776352" lon="-3.876158">
        <ele>1413.159</ele>
        <time>2021-07-30T22:50:29Z</time>
      </trkpt>
      <trkpt lat="40.776355" lon="-3.876134">
        <ele>1413.566</ele>
        <time>2021-07-30T22:50:32Z</time>
      </trkpt>
      <trkpt lat="40.776387" lon="-3.876102">
        <ele>1413.597</ele>
        <time>2021-07-30T22:50:36Z</time>
      </trkpt>
      <trkpt lat="40.776410" lon="-3.876083">
        <ele>1414.027</ele>
        <time>2021-07-30T22:50:39Z</time>
      </trkpt>
      <trkpt lat="40.776435" lon="-3.876070">
        <ele>1414.381</ele>
        <time>2021-07-30T22:50:43Z</time>
      </trkpt>
      <trkpt lat="40.776458" lon="-3.876062">
        <ele>1414.369</ele>
        <time>2021-07-30T22:50:45Z</time>
      </trkpt>
      <trkpt lat="40.776486" lon="-3.876048">
        <ele>1414.533</ele>
        <time>2021-07-30T22:50:52Z</time>
      </trkpt>
      <trkpt lat="40.776509" lon="-3.876025">
        <ele>1415.123</ele>
        <time>2021-07-30T22:50:55Z</time>
      </trkpt>
      <trkpt lat="40.776506" lon="-3.875995">
        <ele>1416.315</ele>
        <time>2021-07-30T22:50:59Z</time>
      </trkpt>
      <trkpt lat="40.776483" lon="-3.875972">
        <ele>1417.608</ele>
        <time>2021-07-30T22:51:02Z</time>
      </trkpt>
      <trkpt lat="40.776454" lon="-3.875970">
        <ele>1418.370</ele>
        <time>2021-07-30T22:51:03Z</time>
      </trkpt>
      <trkpt lat="40.776454" lon="-3.875942">
        <ele>1419.562</ele>
        <time>2021-07-30T22:51:12Z</time>
      </trkpt>
      <trkpt lat="40.776438" lon="-3.875930">
        <ele>1420.479</ele>
        <time>2021-07-30T22:51:17Z</time>
      </trkpt>
      <trkpt lat="40.776467" lon="-3.875908">
        <ele>1420.646</ele>
        <time>2021-07-30T22:51:30Z</time>
      </trkpt>
      <trkpt lat="40.776486" lon="-3.875872">
        <ele>1421.677</ele>
        <time>2021-07-30T22:51:32Z</time>
      </trkpt>
      <trkpt lat="40.776496" lon="-3.875850">
        <ele>1422.357</ele>
        <time>2021-07-30T22:51:34Z</time>
      </trkpt>
      <trkpt lat="40.776509" lon="-3.875826">
        <ele>1422.861</ele>
        <time>2021-07-30T22:51:36Z</time>
      </trkpt>
      <trkpt lat="40.776496" lon="-3.875804">
        <ele>1424.119</ele>
        <time>2021-07-30T22:51:38Z</time>
      </trkpt>
      <trkpt lat="40.776506" lon="-3.875777">
        <ele>1424.951</ele>
        <time>2021-07-30T22:51:42Z</time>
      </trkpt>
      <trkpt lat="40.776512" lon="-3.875750">
        <ele>1425.901</ele>
        <time>2021-07-30T22:51:46Z</time>
      </trkpt>
      <trkpt lat="40.776528" lon="-3.875737">
        <ele>1426.011</ele>
        <time>2021-07-30T22:51:50Z</time>
      </trkpt>
      <trkpt lat="40.776547" lon="-3.875722">
        <ele>1426.108</ele>
        <time>2021-07-30T22:51:52Z</time>
      </trkpt>
      <trkpt lat="40.776563" lon="-3.875700">
        <ele>1426.692</ele>
        <time>2021-07-30T22:51:54Z</time>
      </trkpt>
      <trkpt lat="40.776586" lon="-3.875683">
        <ele>1426.724</ele>
        <time>2021-07-30T22:51:57Z</time>
      </trkpt>
      <trkpt lat="40.776605" lon="-3.875675">
        <ele>1426.551</ele>
        <time>2021-07-30T22:51:59Z</time>
      </trkpt>
      <trkpt lat="40.776627" lon="-3.875663">
        <ele>1426.478</ele>
        <time>2021-07-30T22:52:01Z</time>
      </trkpt>
      <trkpt lat="40.776646" lon="-3.875657">
        <ele>1426.219</ele>
        <time>2021-07-30T22:52:03Z</time>
      </trkpt>
      <trkpt lat="40.776672" lon="-3.875645">
        <ele>1426.079</ele>
        <time>2021-07-30T22:52:05Z</time>
      </trkpt>
      <trkpt lat="40.776688" lon="-3.875625">
        <ele>1426.563</ele>
        <time>2021-07-30T22:52:09Z</time>
      </trkpt>
      <trkpt lat="40.776707" lon="-3.875600">
        <ele>1426.941</ele>
        <time>2021-07-30T22:52:12Z</time>
      </trkpt>
      <trkpt lat="40.776723" lon="-3.875584">
        <ele>1427.024</ele>
        <time>2021-07-30T22:52:14Z</time>
      </trkpt>
      <trkpt lat="40.776726" lon="-3.875555">
        <ele>1427.904</ele>
        <time>2021-07-30T22:52:21Z</time>
      </trkpt>
      <trkpt lat="40.776723" lon="-3.875532">
        <ele>1428.914</ele>
        <time>2021-07-30T22:52:24Z</time>
      </trkpt>
      <trkpt lat="40.776707" lon="-3.875518">
        <ele>1430.108</ele>
        <time>2021-07-30T22:52:26Z</time>
      </trkpt>
      <trkpt lat="40.776704" lon="-3.875495">
        <ele>1431.139</ele>
        <time>2021-07-30T22:52:30Z</time>
      </trkpt>
      <trkpt lat="40.776698" lon="-3.875470">
        <ele>1432.311</ele>
        <time>2021-07-30T22:52:37Z</time>
      </trkpt>
      <trkpt lat="40.776717" lon="-3.875472">
        <ele>1431.698</ele>
        <time>2021-07-30T22:52:39Z</time>
      </trkpt>
      <trkpt lat="40.776730" lon="-3.875447">
        <ele>1432.185</ele>
        <time>2021-07-30T22:52:42Z</time>
      </trkpt>
      <trkpt lat="40.776742" lon="-3.875417">
        <ele>1432.916</ele>
        <time>2021-07-30T22:52:45Z</time>
      </trkpt>
      <trkpt lat="40.776762" lon="-3.875402">
        <ele>1432.886</ele>
        <time>2021-07-30T22:52:47Z</time>
      </trkpt>
      <trkpt lat="40.776784" lon="-3.875382">
        <ele>1432.930</ele>
        <time>2021-07-30T22:52:50Z</time>
      </trkpt>
      <trkpt lat="40.776797" lon="-3.875360">
        <ele>1433.418</ele>
        <time>2021-07-30T22:52:53Z</time>
      </trkpt>
      <trkpt lat="40.776829" lon="-3.875360">
        <ele>1432.346</ele>
        <time>2021-07-30T22:52:56Z</time>
      </trkpt>
      <trkpt lat="40.776854" lon="-3.875345">
        <ele>1432.188</ele>
        <time>2021-07-30T22:52:58Z</time>
      </trkpt>
      <trkpt lat="40.776864" lon="-3.875318">
        <ele>1432.916</ele>
        <time>2021-07-30T22:53:02Z</time>
      </trkpt>
      <trkpt lat="40.776877" lon="-3.875295">
        <ele>1433.508</ele>
        <time>2021-07-30T22:53:06Z</time>
      </trkpt>
      <trkpt lat="40.776890" lon="-3.875276">
        <ele>1433.811</ele>
        <time>2021-07-30T22:53:08Z</time>
      </trkpt>
      <trkpt lat="40.776890" lon="-3.875250">
        <ele>1434.923</ele>
        <time>2021-07-30T22:53:13Z</time>
      </trkpt>
      <trkpt lat="40.776906" lon="-3.875228">
        <ele>1435.280</ele>
        <time>2021-07-30T22:53:16Z</time>
      </trkpt>
      <trkpt lat="40.776915" lon="-3.875203">
        <ele>1435.977</ele>
        <time>2021-07-30T22:53:19Z</time>
      </trkpt>
      <trkpt lat="40.776928" lon="-3.875177">
        <ele>1436.558</ele>
        <time>2021-07-30T22:53:22Z</time>
      </trkpt>
      <trkpt lat="40.776944" lon="-3.875165">
        <ele>1436.568</ele>
        <time>2021-07-30T22:53:27Z</time>
      </trkpt>
      <trkpt lat="40.776970" lon="-3.875150">
        <ele>1436.632</ele>
        <time>2021-07-30T22:53:30Z</time>
      </trkpt>
      <trkpt lat="40.776982" lon="-3.875127">
        <ele>1437.320</ele>
        <time>2021-07-30T22:53:32Z</time>
      </trkpt>
      <trkpt lat="40.776986" lon="-3.875095">
        <ele>1438.383</ele>
        <time>2021-07-30T22:53:35Z</time>
      </trkpt>
      <trkpt lat="40.776989" lon="-3.875064">
        <ele>1439.425</ele>
        <time>2021-07-30T22:53:40Z</time>
      </trkpt>
      <trkpt lat="40.776992" lon="-3.875040">
        <ele>1440.217</ele>
        <time>2021-07-30T22:53:43Z</time>
      </trkpt>
      <trkpt lat="40.777008" lon="-3.875022">
        <ele>1440.408</ele>
        <time>2021-07-30T22:53:48Z</time>
      </trkpt>
      <trkpt lat="40.777014" lon="-3.874997">
        <ele>1441.175</ele>
        <time>2021-07-30T22:53:50Z</time>
      </trkpt>
      <trkpt lat="40.777024" lon="-3.874967">
        <ele>1442.227</ele>
        <time>2021-07-30T22:53:53Z</time>
      </trkpt>
      <trkpt lat="40.777046" lon="-3.874930">
        <ele>1443.234</ele>
        <time>2021-07-30T22:53:56Z</time>
      </trkpt>
      <trkpt lat="40.777066" lon="-3.874926">
        <ele>1442.751</ele>
        <time>2021-07-30T22:53:58Z</time>
      </trkpt>
      <trkpt lat="40.777069" lon="-3.874902">
        <ele>1443.772</ele>
        <time>2021-07-30T22:54:02Z</time>
      </trkpt>
      <trkpt lat="40.777088" lon="-3.874895">
        <ele>1443.482</ele>
        <time>2021-07-30T22:54:04Z</time>
      </trkpt>
      <trkpt lat="40.777110" lon="-3.874888">
        <ele>1443.016</ele>
        <time>2021-07-30T22:54:06Z</time>
      </trkpt>
      <trkpt lat="40.777130" lon="-3.874868">
        <ele>1443.244</ele>
        <time>2021-07-30T22:54:08Z</time>
      </trkpt>
      <trkpt lat="40.777152" lon="-3.874850">
        <ele>1443.287</ele>
        <time>2021-07-30T22:54:10Z</time>
      </trkpt>
      <trkpt lat="40.777142" lon="-3.874827">
        <ele>1444.542</ele>
        <time>2021-07-30T22:54:12Z</time>
      </trkpt>
      <trkpt lat="40.777162" lon="-3.874822">
        <ele>1444.126</ele>
        <time>2021-07-30T22:54:16Z</time>
      </trkpt>
      <trkpt lat="40.777171" lon="-3.874797">
        <ele>1444.808</ele>
        <time>2021-07-30T22:54:21Z</time>
      </trkpt>
      <trkpt lat="40.777194" lon="-3.874787">
        <ele>1444.485</ele>
        <time>2021-07-30T22:54:23Z</time>
      </trkpt>
      <trkpt lat="40.777219" lon="-3.874770">
        <ele>1444.287</ele>
        <time>2021-07-30T22:54:27Z</time>
      </trkpt>
      <trkpt lat="40.777222" lon="-3.874742">
        <ele>1445.294</ele>
        <time>2021-07-30T22:54:30Z</time>
      </trkpt>
      <trkpt lat="40.777238" lon="-3.874715">
        <ele>1446.411</ele>
        <time>2021-07-30T22:54:36Z</time>
      </trkpt>
      <trkpt lat="40.777229" lon="-3.874693">
        <ele>1447.252</ele>
        <time>2021-07-30T22:54:38Z</time>
      </trkpt>
      <trkpt lat="40.777248" lon="-3.874687">
        <ele>1447.562</ele>
        <time>2021-07-30T22:54:39Z</time>
      </trkpt>
      <trkpt lat="40.777280" lon="-3.874685">
        <ele>1447.686</ele>
        <time>2021-07-30T22:54:41Z</time>
      </trkpt>
      <trkpt lat="40.777302" lon="-3.874677">
        <ele>1447.944</ele>
        <time>2021-07-30T22:54:43Z</time>
      </trkpt>
      <trkpt lat="40.777309" lon="-3.874652">
        <ele>1448.767</ele>
        <time>2021-07-30T22:54:48Z</time>
      </trkpt>
      <trkpt lat="40.777322" lon="-3.874620">
        <ele>1449.681</ele>
        <time>2021-07-30T22:54:52Z</time>
      </trkpt>
      <trkpt lat="40.777338" lon="-3.874608">
        <ele>1449.819</ele>
        <time>2021-07-30T22:54:53Z</time>
      </trkpt>
      <trkpt lat="40.777328" lon="-3.874576">
        <ele>1450.708</ele>
        <time>2021-07-30T22:55:00Z</time>
      </trkpt>
      <trkpt lat="40.777331" lon="-3.874550">
        <ele>1451.443</ele>
        <time>2021-07-30T22:55:02Z</time>
      </trkpt>
      <trkpt lat="40.777341" lon="-3.874528">
        <ele>1451.945</ele>
        <time>2021-07-30T22:55:04Z</time>
      </trkpt>
      <trkpt lat="40.777360" lon="-3.874505">
        <ele>1452.182</ele>
        <time>2021-07-30T22:55:09Z</time>
      </trkpt>
      <trkpt lat="40.777366" lon="-3.874478">
        <ele>1452.619</ele>
        <time>2021-07-30T22:55:12Z</time>
      </trkpt>
      <trkpt lat="40.777363" lon="-3.874450">
        <ele>1453.370</ele>
        <time>2021-07-30T22:55:16Z</time>
      </trkpt>
      <trkpt lat="40.777354" lon="-3.874423">
        <ele>1454.480</ele>
        <time>2021-07-30T22:55:20Z</time>
      </trkpt>
      <trkpt lat="40.777328" lon="-3.874418">
        <ele>1455.264</ele>
        <time>2021-07-30T22:55:23Z</time>
      </trkpt>
      <trkpt lat="40.777338" lon="-3.874394">
        <ele>1455.842</ele>
        <time>2021-07-30T22:55:27Z</time>
      </trkpt>
      <trkpt lat="40.777309" lon="-3.874385">
        <ele>1456.917</ele>
        <time>2021-07-30T22:55:30Z</time>
      </trkpt>
      <trkpt lat="40.777322" lon="-3.874368">
        <ele>1457.187</ele>
        <time>2021-07-30T22:55:37Z</time>
      </trkpt>
      <trkpt lat="40.777338" lon="-3.874343">
        <ele>1457.515</ele>
        <time>2021-07-30T22:55:43Z</time>
      </trkpt>
      <trkpt lat="40.777322" lon="-3.874328">
        <ele>1458.508</ele>
        <time>2021-07-30T22:55:45Z</time>
      </trkpt>
      <trkpt lat="40.777338" lon="-3.874313">
        <ele>1458.548</ele>
        <time>2021-07-30T22:55:48Z</time>
      </trkpt>
      <trkpt lat="40.777347" lon="-3.874288">
        <ele>1459.080</ele>
        <time>2021-07-30T22:55:52Z</time>
      </trkpt>
      <trkpt lat="40.777360" lon="-3.874272">
        <ele>1459.117</ele>
        <time>2021-07-30T22:55:54Z</time>
      </trkpt>
      <trkpt lat="40.777373" lon="-3.874253">
        <ele>1459.314</ele>
        <time>2021-07-30T22:55:56Z</time>
      </trkpt>
      <trkpt lat="40.777382" lon="-3.874225">
        <ele>1459.865</ele>
        <time>2021-07-30T22:55:59Z</time>
      </trkpt>
      <trkpt lat="40.777402" lon="-3.874210">
        <ele>1459.645</ele>
        <time>2021-07-30T22:56:01Z</time>
      </trkpt>
      <trkpt lat="40.777408" lon="-3.874182">
        <ele>1460.259</ele>
        <time>2021-07-30T22:56:04Z</time>
      </trkpt>
      <trkpt lat="40.777421" lon="-3.874163">
        <ele>1460.377</ele>
        <time>2021-07-30T22:56:06Z</time>
      </trkpt>
      <trkpt lat="40.777408" lon="-3.874140">
        <ele>1462.039</ele>
        <time>2021-07-30T22:56:10Z</time>
      </trkpt>
      <trkpt lat="40.777402" lon="-3.874115">
        <ele>1463.401</ele>
        <time>2021-07-30T22:56:12Z</time>
      </trkpt>
      <trkpt lat="40.777386" lon="-3.874095">
        <ele>1465.021</ele>
        <time>2021-07-30T22:56:24Z</time>
      </trkpt>
      <trkpt lat="40.777405" lon="-3.874085">
        <ele>1464.808</ele>
        <time>2021-07-30T22:56:32Z</time>
      </trkpt>
      <trkpt lat="40.777424" lon="-3.874075">
        <ele>1464.570</ele>
        <time>2021-07-30T22:56:43Z</time>
      </trkpt>
      <trkpt lat="40.777453" lon="-3.874073">
        <ele>1463.512</ele>
        <time>2021-07-30T22:56:47Z</time>
      </trkpt>
      <trkpt lat="40.777472" lon="-3.874073">
        <ele>1462.819</ele>
        <time>2021-07-30T22:56:48Z</time>
      </trkpt>
      <trkpt lat="40.777488" lon="-3.874060">
        <ele>1462.846</ele>
        <time>2021-07-30T22:56:50Z</time>
      </trkpt>
      <trkpt lat="40.777507" lon="-3.874050">
        <ele>1462.817</ele>
        <time>2021-07-30T22:56:52Z</time>
      </trkpt>
      <trkpt lat="40.777523" lon="-3.874038">
        <ele>1463.317</ele>
        <time>2021-07-30T22:56:54Z</time>
      </trkpt>
      <trkpt lat="40.777539" lon="-3.874025">
        <ele>1463.871</ele>
        <time>2021-07-30T22:56:56Z</time>
      </trkpt>
      <trkpt lat="40.777562" lon="-3.873997">
        <ele>1464.929</ele>
        <time>2021-07-30T22:57:00Z</time>
      </trkpt>
      <trkpt lat="40.777552" lon="-3.873970">
        <ele>1466.128</ele>
        <time>2021-07-30T22:57:03Z</time>
      </trkpt>
      <trkpt lat="40.777581" lon="-3.873960">
        <ele>1466.189</ele>
        <time>2021-07-30T22:57:05Z</time>
      </trkpt>
      <trkpt lat="40.777590" lon="-3.873927">
        <ele>1467.317</ele>
        <time>2021-07-30T22:57:10Z</time>
      </trkpt>
      <trkpt lat="40.777606" lon="-3.873905">
        <ele>1467.708</ele>
        <time>2021-07-30T22:57:12Z</time>
      </trkpt>
      <trkpt lat="40.777616" lon="-3.873878">
        <ele>1468.539</ele>
        <time>2021-07-30T22:57:16Z</time>
      </trkpt>
      <trkpt lat="40.777635" lon="-3.873862">
        <ele>1468.651</ele>
        <time>2021-07-30T22:57:19Z</time>
      </trkpt>
      <trkpt lat="40.777658" lon="-3.873840">
        <ele>1468.748</ele>
        <time>2021-07-30T22:57:21Z</time>
      </trkpt>
      <trkpt lat="40.777680" lon="-3.873830">
        <ele>1468.525</ele>
        <time>2021-07-30T22:57:23Z</time>
      </trkpt>
      <trkpt lat="40.777683" lon="-3.873805">
        <ele>1469.296</ele>
        <time>2021-07-30T22:57:27Z</time>
      </trkpt>
      <trkpt lat="40.777706" lon="-3.873802">
        <ele>1468.686</ele>
        <time>2021-07-30T22:57:30Z</time>
      </trkpt>
      <trkpt lat="40.777728" lon="-3.873785">
        <ele>1468.570</ele>
        <time>2021-07-30T22:57:34Z</time>
      </trkpt>
      <trkpt lat="40.777747" lon="-3.873777">
        <ele>1468.298</ele>
        <time>2021-07-30T22:57:36Z</time>
      </trkpt>
      <trkpt lat="40.777770" lon="-3.873792">
        <ele>1467.089</ele>
        <time>2021-07-30T22:57:40Z</time>
      </trkpt>
      <trkpt lat="40.777786" lon="-3.873775">
        <ele>1467.606</ele>
        <time>2021-07-30T22:57:45Z</time>
      </trkpt>
      <trkpt lat="40.777805" lon="-3.873750">
        <ele>1469.126</ele>
        <time>2021-07-30T22:57:48Z</time>
      </trkpt>
      <trkpt lat="40.777824" lon="-3.873755">
        <ele>1469.708</ele>
        <time>2021-07-30T22:57:54Z</time>
      </trkpt>
      <trkpt lat="40.777846" lon="-3.873763">
        <ele>1470.455</ele>
        <time>2021-07-30T22:57:57Z</time>
      </trkpt>
      <trkpt lat="40.777866" lon="-3.873763">
        <ele>1471.227</ele>
        <time>2021-07-30T22:57:59Z</time>
      </trkpt>
      <trkpt lat="40.777885" lon="-3.873768">
        <ele>1471.884</ele>
        <time>2021-07-30T22:58:04Z</time>
      </trkpt>
      <trkpt lat="40.777894" lon="-3.873797">
        <ele>1471.531</ele>
        <time>2021-07-30T22:58:06Z</time>
      </trkpt>
      <trkpt lat="40.777898" lon="-3.873832">
        <ele>1470.932</ele>
        <time>2021-07-30T22:58:08Z</time>
      </trkpt>
      <trkpt lat="40.777920" lon="-3.873842">
        <ele>1471.742</ele>
        <time>2021-07-30T22:58:12Z</time>
      </trkpt>
      <trkpt lat="40.777939" lon="-3.873837">
        <ele>1472.676</ele>
        <time>2021-07-30T22:58:18Z</time>
      </trkpt>
      <trkpt lat="40.777955" lon="-3.873807">
        <ele>1473.934</ele>
        <time>2021-07-30T22:58:22Z</time>
      </trkpt>
      <trkpt lat="40.777968" lon="-3.873790">
        <ele>1474.887</ele>
        <time>2021-07-30T22:58:26Z</time>
      </trkpt>
      <trkpt lat="40.777994" lon="-3.873788">
        <ele>1475.942</ele>
        <time>2021-07-30T22:58:32Z</time>
      </trkpt>
      <trkpt lat="40.778019" lon="-3.873790">
        <ele>1476.926</ele>
        <time>2021-07-30T22:58:35Z</time>
      </trkpt>
      <trkpt lat="40.778038" lon="-3.873797">
        <ele>1477.608</ele>
        <time>2021-07-30T22:58:38Z</time>
      </trkpt>
      <trkpt lat="40.778061" lon="-3.873792">
        <ele>1478.635</ele>
        <time>2021-07-30T22:58:41Z</time>
      </trkpt>
      <trkpt lat="40.778077" lon="-3.873778">
        <ele>1479.257</ele>
        <time>2021-07-30T22:58:46Z</time>
      </trkpt>
      <trkpt lat="40.778093" lon="-3.873798">
        <ele>1479.474</ele>
        <time>2021-07-30T22:58:51Z</time>
      </trkpt>
      <trkpt lat="40.778118" lon="-3.873780">
        <ele>1480.411</ele>
        <time>2021-07-30T22:58:54Z</time>
      </trkpt>
      <trkpt lat="40.778118" lon="-3.873813">
        <ele>1479.942</ele>
        <time>2021-07-30T22:59:01Z</time>
      </trkpt>
      <trkpt lat="40.778128" lon="-3.873846">
        <ele>1479.722</ele>
        <time>2021-07-30T22:59:11Z</time>
      </trkpt>
      <trkpt lat="40.778138" lon="-3.873868">
        <ele>1479.776</ele>
        <time>2021-07-30T22:59:13Z</time>
      </trkpt>
      <trkpt lat="40.778160" lon="-3.873850">
        <ele>1480.664</ele>
        <time>2021-07-30T22:59:16Z</time>
      </trkpt>
      <trkpt lat="40.778179" lon="-3.873838">
        <ele>1481.387</ele>
        <time>2021-07-30T22:59:19Z</time>
      </trkpt>
      <trkpt lat="40.778195" lon="-3.873853">
        <ele>1481.542</ele>
        <time>2021-07-30T22:59:23Z</time>
      </trkpt>
      <trkpt lat="40.778205" lon="-3.873875">
        <ele>1481.526</ele>
        <time>2021-07-30T22:59:28Z</time>
      </trkpt>
      <trkpt lat="40.778237" lon="-3.873880">
        <ele>1482.408</ele>
        <time>2021-07-30T22:59:31Z</time>
      </trkpt>
      <trkpt lat="40.778262" lon="-3.873858">
        <ele>1483.435</ele>
        <time>2021-07-30T22:59:39Z</time>
      </trkpt>
      <trkpt lat="40.778275" lon="-3.873837">
        <ele>1484.187</ele>
        <time>2021-07-30T22:59:41Z</time>
      </trkpt>
      <trkpt lat="40.778294" lon="-3.873810">
        <ele>1485.094</ele>
        <time>2021-07-30T22:59:45Z</time>
      </trkpt>
      <trkpt lat="40.778317" lon="-3.873817">
        <ele>1485.621</ele>
        <time>2021-07-30T22:59:53Z</time>
      </trkpt>
      <trkpt lat="40.778333" lon="-3.873805">
        <ele>1486.242</ele>
        <time>2021-07-30T22:59:59Z</time>
      </trkpt>
      <trkpt lat="40.778358" lon="-3.873805">
        <ele>1487.252</ele>
        <time>2021-07-30T23:00:21Z</time>
      </trkpt>
      <trkpt lat="40.778381" lon="-3.873812">
        <ele>1488.196</ele>
        <time>2021-07-30T23:00:23Z</time>
      </trkpt>
      <trkpt lat="40.778413" lon="-3.873818">
        <ele>1489.374</ele>
        <time>2021-07-30T23:00:25Z</time>
      </trkpt>
      <trkpt lat="40.778435" lon="-3.873834">
        <ele>1490.024</ele>
        <time>2021-07-30T23:00:27Z</time>
      </trkpt>
      <trkpt lat="40.778451" lon="-3.873846">
        <ele>1490.604</ele>
        <time>2021-07-30T23:00:31Z</time>
      </trkpt>
      <trkpt lat="40.778458" lon="-3.873870">
        <ele>1490.614</ele>
        <time>2021-07-30T23:00:33Z</time>
      </trkpt>
      <trkpt lat="40.778470" lon="-3.873892">
        <ele>1490.908</ele>
        <time>2021-07-30T23:00:37Z</time>
      </trkpt>
      <trkpt lat="40.778490" lon="-3.873905">
        <ele>1491.829</ele>
        <time>2021-07-30T23:00:41Z</time>
      </trkpt>
      <trkpt lat="40.778493" lon="-3.873932">
        <ele>1492.051</ele>
        <time>2021-07-30T23:00:47Z</time>
      </trkpt>
      <trkpt lat="40.778499" lon="-3.873963">
        <ele>1492.398</ele>
        <time>2021-07-30T23:00:49Z</time>
      </trkpt>
      <trkpt lat="40.778502" lon="-3.873993">
        <ele>1492.465</ele>
        <time>2021-07-30T23:00:53Z</time>
      </trkpt>
      <trkpt lat="40.778518" lon="-3.874014">
        <ele>1493.136</ele>
        <time>2021-07-30T23:00:59Z</time>
      </trkpt>
      <trkpt lat="40.778531" lon="-3.874050">
        <ele>1493.796</ele>
        <time>2021-07-30T23:01:01Z</time>
      </trkpt>
      <trkpt lat="40.778534" lon="-3.874078">
        <ele>1493.970</ele>
        <time>2021-07-30T23:01:05Z</time>
      </trkpt>
      <trkpt lat="40.778541" lon="-3.874112">
        <ele>1494.288</ele>
        <time>2021-07-30T23:01:08Z</time>
      </trkpt>
      <trkpt lat="40.778557" lon="-3.874125">
        <ele>1494.864</ele>
        <time>2021-07-30T23:01:10Z</time>
      </trkpt>
      <trkpt lat="40.778557" lon="-3.874152">
        <ele>1494.806</ele>
        <time>2021-07-30T23:01:19Z</time>
      </trkpt>
      <trkpt lat="40.778554" lon="-3.874184">
        <ele>1494.916</ele>
        <time>2021-07-30T23:01:23Z</time>
      </trkpt>
      <trkpt lat="40.778544" lon="-3.874220">
        <ele>1494.808</ele>
        <time>2021-07-30T23:01:26Z</time>
      </trkpt>
      <trkpt lat="40.778538" lon="-3.874246">
        <ele>1494.873</ele>
        <time>2021-07-30T23:01:28Z</time>
      </trkpt>
      <trkpt lat="40.778531" lon="-3.874275">
        <ele>1494.845</ele>
        <time>2021-07-30T23:01:37Z</time>
      </trkpt>
      <trkpt lat="40.778531" lon="-3.874312">
        <ele>1495.232</ele>
        <time>2021-07-30T23:01:39Z</time>
      </trkpt>
      <trkpt lat="40.778522" lon="-3.874343">
        <ele>1495.169</ele>
        <time>2021-07-30T23:01:41Z</time>
      </trkpt>
      <trkpt lat="40.778525" lon="-3.874375">
        <ele>1495.610</ele>
        <time>2021-07-30T23:01:43Z</time>
      </trkpt>
      <trkpt lat="40.778525" lon="-3.874407">
        <ele>1495.940</ele>
        <time>2021-07-30T23:01:46Z</time>
      </trkpt>
      <trkpt lat="40.778525" lon="-3.874435">
        <ele>1496.174</ele>
        <time>2021-07-30T23:01:49Z</time>
      </trkpt>
      <trkpt lat="40.778518" lon="-3.874462">
        <ele>1496.012</ele>
        <time>2021-07-30T23:01:52Z</time>
      </trkpt>
      <trkpt lat="40.778518" lon="-3.874488">
        <ele>1496.164</ele>
        <time>2021-07-30T23:01:56Z</time>
      </trkpt>
      <trkpt lat="40.778522" lon="-3.874515">
        <ele>1496.306</ele>
        <time>2021-07-30T23:02:00Z</time>
      </trkpt>
      <trkpt lat="40.778518" lon="-3.874543">
        <ele>1496.216</ele>
        <time>2021-07-30T23:02:05Z</time>
      </trkpt>
      <trkpt lat="40.778515" lon="-3.874575">
        <ele>1496.208</ele>
        <time>2021-07-30T23:02:08Z</time>
      </trkpt>
      <trkpt lat="40.778515" lon="-3.874605">
        <ele>1496.343</ele>
        <time>2021-07-30T23:02:11Z</time>
      </trkpt>
      <trkpt lat="40.778496" lon="-3.874632">
        <ele>1495.725</ele>
        <time>2021-07-30T23:02:15Z</time>
      </trkpt>
      <trkpt lat="40.778490" lon="-3.874668">
        <ele>1495.562</ele>
        <time>2021-07-30T23:02:21Z</time>
      </trkpt>
      <trkpt lat="40.778490" lon="-3.874702">
        <ele>1495.629</ele>
        <time>2021-07-30T23:02:24Z</time>
      </trkpt>
      <trkpt lat="40.778480" lon="-3.874727">
        <ele>1495.390</ele>
        <time>2021-07-30T23:02:26Z</time>
      </trkpt>
      <trkpt lat="40.778477" lon="-3.874760">
        <ele>1495.270</ele>
        <time>2021-07-30T23:02:28Z</time>
      </trkpt>
      <trkpt lat="40.778474" lon="-3.874803">
        <ele>1495.124</ele>
        <time>2021-07-30T23:02:30Z</time>
      </trkpt>
      <trkpt lat="40.778461" lon="-3.874842">
        <ele>1494.672</ele>
        <time>2021-07-30T23:02:33Z</time>
      </trkpt>
      <trkpt lat="40.778464" lon="-3.874868">
        <ele>1494.773</ele>
        <time>2021-07-30T23:02:51Z</time>
      </trkpt>
      <trkpt lat="40.778477" lon="-3.874888">
        <ele>1495.285</ele>
        <time>2021-07-30T23:02:53Z</time>
      </trkpt>
      <trkpt lat="40.778499" lon="-3.874892">
        <ele>1496.013</ele>
        <time>2021-07-30T23:02:57Z</time>
      </trkpt>
      <trkpt lat="40.778522" lon="-3.874903">
        <ele>1496.808</ele>
        <time>2021-07-30T23:03:00Z</time>
      </trkpt>
      <trkpt lat="40.778531" lon="-3.874878">
        <ele>1497.174</ele>
        <time>2021-07-30T23:03:10Z</time>
      </trkpt>
      <trkpt lat="40.778518" lon="-3.874935">
        <ele>1496.686</ele>
        <time>2021-07-30T23:03:28Z</time>
      </trkpt>
      <trkpt lat="40.778515" lon="-3.874962">
        <ele>1496.563</ele>
        <time>2021-07-30T23:03:29Z</time>
      </trkpt>
      <trkpt lat="40.778518" lon="-3.874998">
        <ele>1496.650</ele>
        <time>2021-07-30T23:03:31Z</time>
      </trkpt>
      <trkpt lat="40.778525" lon="-3.875030">
        <ele>1496.851</ele>
        <time>2021-07-30T23:03:33Z</time>
      </trkpt>
      <trkpt lat="40.778531" lon="-3.875065">
        <ele>1496.881</ele>
        <time>2021-07-30T23:03:35Z</time>
      </trkpt>
      <trkpt lat="40.778544" lon="-3.875084">
        <ele>1497.225</ele>
        <time>2021-07-30T23:03:37Z</time>
      </trkpt>
      <trkpt lat="40.778563" lon="-3.875088">
        <ele>1497.923</ele>
        <time>2021-07-30T23:03:39Z</time>
      </trkpt>
      <trkpt lat="40.778582" lon="-3.875080">
        <ele>1498.689</ele>
        <time>2021-07-30T23:03:42Z</time>
      </trkpt>
      <trkpt lat="40.778598" lon="-3.875065">
        <ele>1499.306</ele>
        <time>2021-07-30T23:03:44Z</time>
      </trkpt>
      <trkpt lat="40.778602" lon="-3.875090">
        <ele>1499.326</ele>
        <time>2021-07-30T23:03:47Z</time>
      </trkpt>
      <trkpt lat="40.778621" lon="-3.875112">
        <ele>1499.708</ele>
        <time>2021-07-30T23:03:50Z</time>
      </trkpt>
      <trkpt lat="40.778630" lon="-3.875137">
        <ele>1499.755</ele>
        <time>2021-07-30T23:03:53Z</time>
      </trkpt>
      <trkpt lat="40.778630" lon="-3.875178">
        <ele>1499.537</ele>
        <time>2021-07-30T23:03:55Z</time>
      </trkpt>
      <trkpt lat="40.778650" lon="-3.875202">
        <ele>1499.534</ele>
        <time>2021-07-30T23:03:59Z</time>
      </trkpt>
      <trkpt lat="40.778675" lon="-3.875218">
        <ele>1499.671</ele>
        <time>2021-07-30T23:04:03Z</time>
      </trkpt>
      <trkpt lat="40.778694" lon="-3.875213">
        <ele>1499.752</ele>
        <time>2021-07-30T23:04:05Z</time>
      </trkpt>
      <trkpt lat="40.778714" lon="-3.875213">
        <ele>1499.912</ele>
        <time>2021-07-30T23:04:07Z</time>
      </trkpt>
      <trkpt lat="40.778733" lon="-3.875230">
        <ele>1499.816</ele>
        <time>2021-07-30T23:04:11Z</time>
      </trkpt>
      <trkpt lat="40.778755" lon="-3.875228">
        <ele>1500.014</ele>
        <time>2021-07-30T23:04:15Z</time>
      </trkpt>
      <trkpt lat="40.778774" lon="-3.875230">
        <ele>1500.148</ele>
        <time>2021-07-30T23:04:21Z</time>
      </trkpt>
      <trkpt lat="40.778797" lon="-3.875222">
        <ele>1500.361</ele>
        <time>2021-07-30T23:04:24Z</time>
      </trkpt>
      <trkpt lat="40.778819" lon="-3.875223">
        <ele>1500.417</ele>
        <time>2021-07-30T23:04:29Z</time>
      </trkpt>
      <trkpt lat="40.778832" lon="-3.875250">
        <ele>1500.108</ele>
        <time>2021-07-30T23:04:36Z</time>
      </trkpt>
      <trkpt lat="40.778819" lon="-3.875270">
        <ele>1499.871</ele>
        <time>2021-07-30T23:04:38Z</time>
      </trkpt>
      <trkpt lat="40.778810" lon="-3.875295">
        <ele>1499.673</ele>
        <time>2021-07-30T23:04:40Z</time>
      </trkpt>
      <trkpt lat="40.778810" lon="-3.875322">
        <ele>1499.370</ele>
        <time>2021-07-30T23:04:42Z</time>
      </trkpt>
      <trkpt lat="40.778794" lon="-3.875340">
        <ele>1499.037</ele>
        <time>2021-07-30T23:04:54Z</time>
      </trkpt>
      <trkpt lat="40.778778" lon="-3.875352">
        <ele>1498.628</ele>
        <time>2021-07-30T23:04:58Z</time>
      </trkpt>
      <trkpt lat="40.778758" lon="-3.875353">
        <ele>1498.478</ele>
        <time>2021-07-30T23:05:02Z</time>
      </trkpt>
      <trkpt lat="40.778749" lon="-3.875377">
        <ele>1497.932</ele>
        <time>2021-07-30T23:05:05Z</time>
      </trkpt>
      <trkpt lat="40.778755" lon="-3.875414">
        <ele>1497.430</ele>
        <time>2021-07-30T23:05:08Z</time>
      </trkpt>
      <trkpt lat="40.778768" lon="-3.875435">
        <ele>1497.339</ele>
        <time>2021-07-30T23:05:11Z</time>
      </trkpt>
      <trkpt lat="40.778762" lon="-3.875463">
        <ele>1496.801</ele>
        <time>2021-07-30T23:05:15Z</time>
      </trkpt>
      <trkpt lat="40.778755" lon="-3.875490">
        <ele>1496.221</ele>
        <time>2021-07-30T23:05:21Z</time>
      </trkpt>
      <trkpt lat="40.778768" lon="-3.875466">
        <ele>1496.908</ele>
        <time>2021-07-30T23:05:29Z</time>
      </trkpt>
      <trkpt lat="40.778755" lon="-3.875493">
        <ele>1496.260</ele>
        <time>2021-07-30T23:05:34Z</time>
      </trkpt>
      <trkpt lat="40.778768" lon="-3.875515">
        <ele>1496.232</ele>
        <time>2021-07-30T23:05:37Z</time>
      </trkpt>
      <trkpt lat="40.778755" lon="-3.875537">
        <ele>1495.529</ele>
        <time>2021-07-30T23:05:40Z</time>
      </trkpt>
      <trkpt lat="40.778742" lon="-3.875560">
        <ele>1494.786</ele>
        <time>2021-07-30T23:05:43Z</time>
      </trkpt>
      <trkpt lat="40.778733" lon="-3.875584">
        <ele>1494.147</ele>
        <time>2021-07-30T23:05:48Z</time>
      </trkpt>
      <trkpt lat="40.778720" lon="-3.875616">
        <ele>1493.227</ele>
        <time>2021-07-30T23:05:51Z</time>
      </trkpt>
      <trkpt lat="40.778701" lon="-3.875616">
        <ele>1492.351</ele>
        <time>2021-07-30T23:05:56Z</time>
      </trkpt>
      <trkpt lat="40.778691" lon="-3.875648">
        <ele>1491.439</ele>
        <time>2021-07-30T23:06:01Z</time>
      </trkpt>
      <trkpt lat="40.778694" lon="-3.875675">
        <ele>1491.147</ele>
        <time>2021-07-30T23:06:05Z</time>
      </trkpt>
      <trkpt lat="40.778682" lon="-3.875695">
        <ele>1490.229</ele>
        <time>2021-07-30T23:06:12Z</time>
      </trkpt>
      <trkpt lat="40.778669" lon="-3.875720">
        <ele>1489.021</ele>
        <time>2021-07-30T23:06:18Z</time>
      </trkpt>
      <trkpt lat="40.778650" lon="-3.875710">
        <ele>1488.208</ele>
        <time>2021-07-30T23:06:21Z</time>
      </trkpt>
      <trkpt lat="40.778643" lon="-3.875742">
        <ele>1487.181</ele>
        <time>2021-07-30T23:06:25Z</time>
      </trkpt>
      <trkpt lat="40.778637" lon="-3.875767">
        <ele>1486.253</ele>
        <time>2021-07-30T23:06:27Z</time>
      </trkpt>
      <trkpt lat="40.778624" lon="-3.875792">
        <ele>1484.970</ele>
        <time>2021-07-30T23:06:37Z</time>
      </trkpt>
      <trkpt lat="40.778621" lon="-3.875822">
        <ele>1483.937</ele>
        <time>2021-07-30T23:06:47Z</time>
      </trkpt>
      <trkpt lat="40.778630" lon="-3.875850">
        <ele>1483.888</ele>
        <time>2021-07-30T23:06:50Z</time>
      </trkpt>
      <trkpt lat="40.778634" lon="-3.875890">
        <ele>1483.068</ele>
        <time>2021-07-30T23:06:52Z</time>
      </trkpt>
      <trkpt lat="40.778634" lon="-3.875922">
        <ele>1482.142</ele>
        <time>2021-07-30T23:06:56Z</time>
      </trkpt>
      <trkpt lat="40.778624" lon="-3.875945">
        <ele>1480.760</ele>
        <time>2021-07-30T23:07:04Z</time>
      </trkpt>
      <trkpt lat="40.778618" lon="-3.875968">
        <ele>1479.681</ele>
        <time>2021-07-30T23:07:10Z</time>
      </trkpt>
      <trkpt lat="40.778598" lon="-3.875983">
        <ele>1478.661</ele>
        <time>2021-07-30T23:07:14Z</time>
      </trkpt>
      <trkpt lat="40.778608" lon="-3.876007">
        <ele>1478.017</ele>
        <time>2021-07-30T23:07:18Z</time>
      </trkpt>
      <trkpt lat="40.778611" lon="-3.876043">
        <ele>1477.008</ele>
        <time>2021-07-30T23:07:23Z</time>
      </trkpt>
      <trkpt lat="40.778592" lon="-3.876060">
        <ele>1476.475</ele>
        <time>2021-07-30T23:07:27Z</time>
      </trkpt>
      <trkpt lat="40.778579" lon="-3.876082">
        <ele>1475.737</ele>
        <time>2021-07-30T23:07:29Z</time>
      </trkpt>
      <trkpt lat="40.778563" lon="-3.876097">
        <ele>1475.284</ele>
        <time>2021-07-30T23:07:31Z</time>
      </trkpt>
      <trkpt lat="40.778544" lon="-3.876105">
        <ele>1474.951</ele>
        <time>2021-07-30T23:07:45Z</time>
      </trkpt>
      <trkpt lat="40.778557" lon="-3.876130">
        <ele>1474.532</ele>
        <time>2021-07-30T23:07:49Z</time>
      </trkpt>
      <trkpt lat="40.778573" lon="-3.876142">
        <ele>1474.382</ele>
        <time>2021-07-30T23:07:54Z</time>
      </trkpt>
      <trkpt lat="40.778595" lon="-3.876140">
        <ele>1474.436</ele>
        <time>2021-07-30T23:07:57Z</time>
      </trkpt>
      <trkpt lat="40.778618" lon="-3.876137">
        <ele>1475.124</ele>
        <time>2021-07-30T23:08:00Z</time>
      </trkpt>
      <trkpt lat="40.778618" lon="-3.876170">
        <ele>1474.532</ele>
        <time>2021-07-30T23:08:03Z</time>
      </trkpt>
      <trkpt lat="40.778618" lon="-3.876197">
        <ele>1474.092</ele>
        <time>2021-07-30T23:08:05Z</time>
      </trkpt>
      <trkpt lat="40.778621" lon="-3.876222">
        <ele>1473.811</ele>
        <time>2021-07-30T23:08:07Z</time>
      </trkpt>
      <trkpt lat="40.778602" lon="-3.876232">
        <ele>1472.808</ele>
        <time>2021-07-30T23:08:11Z</time>
      </trkpt>
      <trkpt lat="40.778589" lon="-3.876248">
        <ele>1472.490</ele>
        <time>2021-07-30T23:08:13Z</time>
      </trkpt>
      <trkpt lat="40.778602" lon="-3.876267">
        <ele>1472.122</ele>
        <time>2021-07-30T23:08:36Z</time>
      </trkpt>
      <trkpt lat="40.778611" lon="-3.876290">
        <ele>1471.839</ele>
        <time>2021-07-30T23:08:38Z</time>
      </trkpt>
      <trkpt lat="40.778618" lon="-3.876318">
        <ele>1471.836</ele>
        <time>2021-07-30T23:08:42Z</time>
      </trkpt>
      <trkpt lat="40.778621" lon="-3.876345">
        <ele>1471.687</ele>
        <time>2021-07-30T23:08:44Z</time>
      </trkpt>
      <trkpt lat="40.778621" lon="-3.876375">
        <ele>1471.017</ele>
        <time>2021-07-30T23:08:48Z</time>
      </trkpt>
      <trkpt lat="40.778618" lon="-3.876403">
        <ele>1470.531</ele>
        <time>2021-07-30T23:08:50Z</time>
      </trkpt>
      <trkpt lat="40.778602" lon="-3.876433">
        <ele>1469.989</ele>
        <time>2021-07-30T23:08:55Z</time>
      </trkpt>
      <trkpt lat="40.778592" lon="-3.876455">
        <ele>1469.862</ele>
        <time>2021-07-30T23:09:02Z</time>
      </trkpt>
      <trkpt lat="40.778602" lon="-3.876485">
        <ele>1469.983</ele>
        <time>2021-07-30T23:09:06Z</time>
      </trkpt>
      <trkpt lat="40.778595" lon="-3.876514">
        <ele>1469.811</ele>
        <time>2021-07-30T23:09:08Z</time>
      </trkpt>
      <trkpt lat="40.778595" lon="-3.876547">
        <ele>1469.708</ele>
        <time>2021-07-30T23:09:12Z</time>
      </trkpt>
      <trkpt lat="40.778598" lon="-3.876577">
        <ele>1469.773</ele>
        <time>2021-07-30T23:09:17Z</time>
      </trkpt>
      <trkpt lat="40.778589" lon="-3.876602">
        <ele>1469.555</ele>
        <time>2021-07-30T23:09:20Z</time>
      </trkpt>
      <trkpt lat="40.778592" lon="-3.876637">
        <ele>1469.662</ele>
        <time>2021-07-30T23:09:23Z</time>
      </trkpt>
      <trkpt lat="40.778589" lon="-3.876673">
        <ele>1469.499</ele>
        <time>2021-07-30T23:09:25Z</time>
      </trkpt>
      <trkpt lat="40.778582" lon="-3.876705">
        <ele>1469.160</ele>
        <time>2021-07-30T23:09:27Z</time>
      </trkpt>
      <trkpt lat="40.778579" lon="-3.876732">
        <ele>1468.920</ele>
        <time>2021-07-30T23:09:32Z</time>
      </trkpt>
      <trkpt lat="40.778579" lon="-3.876765">
        <ele>1468.754</ele>
        <time>2021-07-30T23:09:33Z</time>
      </trkpt>
      <trkpt lat="40.778579" lon="-3.876793">
        <ele>1468.612</ele>
        <time>2021-07-30T23:09:34Z</time>
      </trkpt>
      <trkpt lat="40.778570" lon="-3.876837">
        <ele>1468.174</ele>
        <time>2021-07-30T23:09:36Z</time>
      </trkpt>
      <trkpt lat="40.778550" lon="-3.876870">
        <ele>1467.256</ele>
        <time>2021-07-30T23:09:38Z</time>
      </trkpt>
      <trkpt lat="40.778538" lon="-3.876900">
        <ele>1466.721</ele>
        <time>2021-07-30T23:09:40Z</time>
      </trkpt>
      <trkpt lat="40.778541" lon="-3.876927">
        <ele>1466.608</ele>
        <time>2021-07-30T23:09:42Z</time>
      </trkpt>
      <trkpt lat="40.778531" lon="-3.876957">
        <ele>1466.174</ele>
        <time>2021-07-30T23:09:44Z</time>
      </trkpt>
      <trkpt lat="40.778522" lon="-3.876980">
        <ele>1465.766</ele>
        <time>2021-07-30T23:09:46Z</time>
      </trkpt>
      <trkpt lat="40.778522" lon="-3.877008">
        <ele>1465.633</ele>
        <time>2021-07-30T23:09:48Z</time>
      </trkpt>
      <trkpt lat="40.778518" lon="-3.877040">
        <ele>1465.440</ele>
        <time>2021-07-30T23:09:50Z</time>
      </trkpt>
      <trkpt lat="40.778534" lon="-3.877062">
        <ele>1466.091</ele>
        <time>2021-07-30T23:09:54Z</time>
      </trkpt>
      <trkpt lat="40.778538" lon="-3.877098">
        <ele>1466.111</ele>
        <time>2021-07-30T23:09:56Z</time>
      </trkpt>
      <trkpt lat="40.778534" lon="-3.877123">
        <ele>1465.915</ele>
        <time>2021-07-30T23:09:59Z</time>
      </trkpt>
      <trkpt lat="40.778525" lon="-3.877145">
        <ele>1465.523</ele>
        <time>2021-07-30T23:10:09Z</time>
      </trkpt>
      <trkpt lat="40.778531" lon="-3.877172">
        <ele>1465.688</ele>
        <time>2021-07-30T23:10:36Z</time>
      </trkpt>
      <trkpt lat="40.778518" lon="-3.877195">
        <ele>1465.024</ele>
        <time>2021-07-30T23:10:37Z</time>
      </trkpt>
      <trkpt lat="40.778502" lon="-3.877212">
        <ele>1464.326</ele>
        <time>2021-07-30T23:10:38Z</time>
      </trkpt>
      <trkpt lat="40.778499" lon="-3.877263">
        <ele>1464.008</ele>
        <time>2021-07-30T23:10:43Z</time>
      </trkpt>
      <trkpt lat="40.778502" lon="-3.877287">
        <ele>1464.165</ele>
        <time>2021-07-30T23:10:46Z</time>
      </trkpt>
      <trkpt lat="40.778483" lon="-3.877293">
        <ele>1463.227</ele>
        <time>2021-07-30T23:10:52Z</time>
      </trkpt>
      <trkpt lat="40.778470" lon="-3.877312">
        <ele>1462.634</ele>
        <time>2021-07-30T23:10:56Z</time>
      </trkpt>
      <trkpt lat="40.778474" lon="-3.877335">
        <ele>1462.751</ele>
        <time>2021-07-30T23:10:59Z</time>
      </trkpt>
      <trkpt lat="40.778461" lon="-3.877353">
        <ele>1462.042</ele>
        <time>2021-07-30T23:11:02Z</time>
      </trkpt>
      <trkpt lat="40.778461" lon="-3.877378">
        <ele>1461.952</ele>
        <time>2021-07-30T23:11:07Z</time>
      </trkpt>
      <trkpt lat="40.778422" lon="-3.877272">
        <ele>1460.626</ele>
        <time>2021-07-30T23:11:17Z</time>
      </trkpt>
      <trkpt lat="40.778400" lon="-3.877185">
        <ele>1460.154</ele>
        <time>2021-07-30T23:11:24Z</time>
      </trkpt>
      <trkpt lat="40.778416" lon="-3.877200">
        <ele>1460.796</ele>
        <time>2021-07-30T23:11:30Z</time>
      </trkpt>
      <trkpt lat="40.778435" lon="-3.877205">
        <ele>1461.531</ele>
        <time>2021-07-30T23:11:32Z</time>
      </trkpt>
      <trkpt lat="40.778438" lon="-3.877232">
        <ele>1461.524</ele>
        <time>2021-07-30T23:11:38Z</time>
      </trkpt>
      <trkpt lat="40.778461" lon="-3.877252">
        <ele>1462.408</ele>
        <time>2021-07-30T23:11:40Z</time>
      </trkpt>
      <trkpt lat="40.778454" lon="-3.877280">
        <ele>1462.096</ele>
        <time>2021-07-30T23:11:42Z</time>
      </trkpt>
      <trkpt lat="40.778477" lon="-3.877298">
        <ele>1462.958</ele>
        <time>2021-07-30T23:11:49Z</time>
      </trkpt>
      <trkpt lat="40.778477" lon="-3.877323">
        <ele>1462.925</ele>
        <time>2021-07-30T23:11:51Z</time>
      </trkpt>
      <trkpt lat="40.778493" lon="-3.877340">
        <ele>1463.522</ele>
        <time>2021-07-30T23:12:01Z</time>
      </trkpt>
      <trkpt lat="40.778483" lon="-3.877318">
        <ele>1463.193</ele>
        <time>2021-07-30T23:12:14Z</time>
      </trkpt>
      <trkpt lat="40.778470" lon="-3.877342">
        <ele>1462.533</ele>
        <time>2021-07-30T23:12:26Z</time>
      </trkpt>
      <trkpt lat="40.778435" lon="-3.877253">
        <ele>1461.387</ele>
        <time>2021-07-30T23:13:44Z</time>
      </trkpt>
      <trkpt lat="40.778438" lon="-3.877223">
        <ele>1461.535</ele>
        <time>2021-07-30T23:13:51Z</time>
      </trkpt>
      <trkpt lat="40.778438" lon="-3.877190">
        <ele>1461.731</ele>
        <time>2021-07-30T23:13:54Z</time>
      </trkpt>
      <trkpt lat="40.778454" lon="-3.877204">
        <ele>1462.361</ele>
        <time>2021-07-30T23:14:00Z</time>
      </trkpt>
      <trkpt lat="40.778438" lon="-3.877218">
        <ele>1461.507</ele>
        <time>2021-07-30T23:14:03Z</time>
      </trkpt>
      <trkpt lat="40.778458" lon="-3.877225">
        <ele>1462.408</ele>
        <time>2021-07-30T23:14:13Z</time>
      </trkpt>
      <trkpt lat="40.778480" lon="-3.877205">
        <ele>1463.410</ele>
        <time>2021-07-30T23:14:16Z</time>
      </trkpt>
      <trkpt lat="40.778490" lon="-3.877184">
        <ele>1463.952</ele>
        <time>2021-07-30T23:14:20Z</time>
      </trkpt>
      <trkpt lat="40.778477" lon="-3.877202">
        <ele>1463.349</ele>
        <time>2021-07-30T23:14:32Z</time>
      </trkpt>
      <trkpt lat="40.778432" lon="-3.877232">
        <ele>1461.276</ele>
        <time>2021-07-30T23:14:36Z</time>
      </trkpt>
      <trkpt lat="40.778445" lon="-3.877375">
        <ele>1461.295</ele>
        <time>2021-07-31T07:57:39Z</time>
      </trkpt>
      <trkpt lat="40.778477" lon="-3.877430">
        <ele>1462.549</ele>
        <time>2021-07-31T07:57:44Z</time>
      </trkpt>
      <trkpt lat="40.778496" lon="-3.877448">
        <ele>1463.423</ele>
        <time>2021-07-31T07:57:47Z</time>
      </trkpt>
      <trkpt lat="40.778512" lon="-3.877460">
        <ele>1464.108</ele>
        <time>2021-07-31T07:57:49Z</time>
      </trkpt>
      <trkpt lat="40.778435" lon="-3.877415">
        <ele>1460.556</ele>
        <time>2021-07-31T07:58:29Z</time>
      </trkpt>
      <trkpt lat="40.778422" lon="-3.877388">
        <ele>1460.038</ele>
        <time>2021-07-31T07:58:33Z</time>
      </trkpt>
      <trkpt lat="40.778413" lon="-3.877355">
        <ele>1459.895</ele>
        <time>2021-07-31T07:58:34Z</time>
      </trkpt>
      <trkpt lat="40.778390" lon="-3.877350">
        <ele>1458.742</ele>
        <time>2021-07-31T07:58:36Z</time>
      </trkpt>
      <trkpt lat="40.778378" lon="-3.877370">
        <ele>1458.044</ele>
        <time>2021-07-31T07:58:39Z</time>
      </trkpt>
      <trkpt lat="40.778365" lon="-3.877402">
        <ele>1457.231</ele>
        <time>2021-07-31T07:58:45Z</time>
      </trkpt>
      <trkpt lat="40.778362" lon="-3.877428">
        <ele>1456.951</ele>
        <time>2021-07-31T07:58:50Z</time>
      </trkpt>
      <trkpt lat="40.778355" lon="-3.877458">
        <ele>1456.489</ele>
        <time>2021-07-31T07:58:52Z</time>
      </trkpt>
      <trkpt lat="40.778342" lon="-3.877487">
        <ele>1455.597</ele>
        <time>2021-07-31T07:58:54Z</time>
      </trkpt>
      <trkpt lat="40.778336" lon="-3.877517">
        <ele>1455.123</ele>
        <time>2021-07-31T07:58:56Z</time>
      </trkpt>
      <trkpt lat="40.778326" lon="-3.877545">
        <ele>1454.625</ele>
        <time>2021-07-31T07:58:58Z</time>
      </trkpt>
      <trkpt lat="40.778323" lon="-3.877572">
        <ele>1454.408</ele>
        <time>2021-07-31T07:59:00Z</time>
      </trkpt>
      <trkpt lat="40.778320" lon="-3.877600">
        <ele>1454.226</ele>
        <time>2021-07-31T07:59:02Z</time>
      </trkpt>
      <trkpt lat="40.778326" lon="-3.877632">
        <ele>1454.228</ele>
        <time>2021-07-31T07:59:04Z</time>
      </trkpt>
      <trkpt lat="40.778342" lon="-3.877643">
        <ele>1454.915</ele>
        <time>2021-07-31T07:59:08Z</time>
      </trkpt>
      <trkpt lat="40.778358" lon="-3.877667">
        <ele>1455.782</ele>
        <time>2021-07-31T07:59:11Z</time>
      </trkpt>
      <trkpt lat="40.778339" lon="-3.877697">
        <ele>1454.634</ele>
        <time>2021-07-31T07:59:13Z</time>
      </trkpt>
      <trkpt lat="40.778323" lon="-3.877725">
        <ele>1453.871</ele>
        <time>2021-07-31T07:59:15Z</time>
      </trkpt>
      <trkpt lat="40.778333" lon="-3.877762">
        <ele>1454.031</ele>
        <time>2021-07-31T07:59:17Z</time>
      </trkpt>
      <trkpt lat="40.778339" lon="-3.877788">
        <ele>1454.359</ele>
        <time>2021-07-31T07:59:19Z</time>
      </trkpt>
      <trkpt lat="40.778333" lon="-3.877817">
        <ele>1454.178</ele>
        <time>2021-07-31T07:59:21Z</time>
      </trkpt>
      <trkpt lat="40.778333" lon="-3.877848">
        <ele>1454.233</ele>
        <time>2021-07-31T07:59:24Z</time>
      </trkpt>
      <trkpt lat="40.778317" lon="-3.877860">
        <ele>1453.626</ele>
        <time>2021-07-31T07:59:32Z</time>
      </trkpt>
      <trkpt lat="40.778294" lon="-3.877870">
        <ele>1452.708</ele>
        <time>2021-07-31T07:59:38Z</time>
      </trkpt>
      <trkpt lat="40.778275" lon="-3.877875">
        <ele>1451.994</ele>
        <time>2021-07-31T07:59:44Z</time>
      </trkpt>
      <trkpt lat="40.778256" lon="-3.877885">
        <ele>1451.226</ele>
        <time>2021-07-31T07:59:52Z</time>
      </trkpt>
      <trkpt lat="40.778237" lon="-3.877884">
        <ele>1450.483</ele>
        <time>2021-07-31T07:59:54Z</time>
      </trkpt>
      <trkpt lat="40.778218" lon="-3.877877">
        <ele>1449.570</ele>
        <time>2021-07-31T07:59:56Z</time>
      </trkpt>
      <trkpt lat="40.778214" lon="-3.877848">
        <ele>1449.252</ele>
        <time>2021-07-31T08:00:01Z</time>
      </trkpt>
      <trkpt lat="40.778211" lon="-3.877818">
        <ele>1448.989</ele>
        <time>2021-07-31T08:00:05Z</time>
      </trkpt>
      <trkpt lat="40.778186" lon="-3.877802">
        <ele>1447.819</ele>
        <time>2021-07-31T08:00:09Z</time>
      </trkpt>
      <trkpt lat="40.778166" lon="-3.877790">
        <ele>1446.877</ele>
        <time>2021-07-31T08:00:12Z</time>
      </trkpt>
      <trkpt lat="40.778163" lon="-3.877753">
        <ele>1446.967</ele>
        <time>2021-07-31T08:00:16Z</time>
      </trkpt>
      <trkpt lat="40.778144" lon="-3.877755">
        <ele>1446.181</ele>
        <time>2021-07-31T08:00:23Z</time>
      </trkpt>
      <trkpt lat="40.778122" lon="-3.877755">
        <ele>1445.119</ele>
        <time>2021-07-31T08:00:26Z</time>
      </trkpt>
      <trkpt lat="40.778112" lon="-3.877783">
        <ele>1444.508</ele>
        <time>2021-07-31T08:00:29Z</time>
      </trkpt>
      <trkpt lat="40.778102" lon="-3.877813">
        <ele>1444.283</ele>
        <time>2021-07-31T08:00:34Z</time>
      </trkpt>
      <trkpt lat="40.778106" lon="-3.877838">
        <ele>1444.645</ele>
        <time>2021-07-31T08:00:37Z</time>
      </trkpt>
      <trkpt lat="40.778093" lon="-3.877860">
        <ele>1444.292</ele>
        <time>2021-07-31T08:00:42Z</time>
      </trkpt>
      <trkpt lat="40.778077" lon="-3.877874">
        <ele>1443.639</ele>
        <time>2021-07-31T08:00:44Z</time>
      </trkpt>
      <trkpt lat="40.778058" lon="-3.877868">
        <ele>1442.811</ele>
        <time>2021-07-31T08:00:46Z</time>
      </trkpt>
      <trkpt lat="40.778042" lon="-3.877888">
        <ele>1442.668</ele>
        <time>2021-07-31T08:00:49Z</time>
      </trkpt>
      <trkpt lat="40.778022" lon="-3.877912">
        <ele>1442.588</ele>
        <time>2021-07-31T08:00:51Z</time>
      </trkpt>
      <trkpt lat="40.778000" lon="-3.877933">
        <ele>1442.356</ele>
        <time>2021-07-31T08:00:53Z</time>
      </trkpt>
      <trkpt lat="40.777981" lon="-3.877947">
        <ele>1442.092</ele>
        <time>2021-07-31T08:00:56Z</time>
      </trkpt>
      <trkpt lat="40.777962" lon="-3.877950">
        <ele>1441.773</ele>
        <time>2021-07-31T08:00:59Z</time>
      </trkpt>
      <trkpt lat="40.777946" lon="-3.877962">
        <ele>1441.520</ele>
        <time>2021-07-31T08:01:03Z</time>
      </trkpt>
      <trkpt lat="40.777923" lon="-3.877955">
        <ele>1441.108</ele>
        <time>2021-07-31T08:01:06Z</time>
      </trkpt>
      <trkpt lat="40.777898" lon="-3.877973">
        <ele>1440.736</ele>
        <time>2021-07-31T08:01:08Z</time>
      </trkpt>
      <trkpt lat="40.777885" lon="-3.877998">
        <ele>1440.468</ele>
        <time>2021-07-31T08:01:10Z</time>
      </trkpt>
      <trkpt lat="40.777866" lon="-3.878035">
        <ele>1440.015</ele>
        <time>2021-07-31T08:01:12Z</time>
      </trkpt>
      <trkpt lat="40.777856" lon="-3.878058">
        <ele>1439.762</ele>
        <time>2021-07-31T08:01:14Z</time>
      </trkpt>
      <trkpt lat="40.777840" lon="-3.878073">
        <ele>1439.274</ele>
        <time>2021-07-31T08:01:16Z</time>
      </trkpt>
      <trkpt lat="40.777827" lon="-3.878092">
        <ele>1438.871</ele>
        <time>2021-07-31T08:01:22Z</time>
      </trkpt>
      <trkpt lat="40.777802" lon="-3.878128">
        <ele>1438.011</ele>
        <time>2021-07-31T08:01:24Z</time>
      </trkpt>
      <trkpt lat="40.777789" lon="-3.878147">
        <ele>1437.649</ele>
        <time>2021-07-31T08:01:26Z</time>
      </trkpt>
      <trkpt lat="40.777776" lon="-3.878175">
        <ele>1437.199</ele>
        <time>2021-07-31T08:01:28Z</time>
      </trkpt>
      <trkpt lat="40.777766" lon="-3.878193">
        <ele>1436.907</ele>
        <time>2021-07-31T08:01:30Z</time>
      </trkpt>
      <trkpt lat="40.777734" lon="-3.878252">
        <ele>1436.127</ele>
        <time>2021-07-31T08:01:37Z</time>
      </trkpt>
      <trkpt lat="40.777725" lon="-3.878288">
        <ele>1435.708</ele>
        <time>2021-07-31T08:01:44Z</time>
      </trkpt>
      <trkpt lat="40.777683" lon="-3.878292">
        <ele>1435.156</ele>
        <time>2021-07-31T08:01:46Z</time>
      </trkpt>
      <trkpt lat="40.777664" lon="-3.878295">
        <ele>1434.988</ele>
        <time>2021-07-31T08:01:47Z</time>
      </trkpt>
      <trkpt lat="40.777648" lon="-3.878310">
        <ele>1434.555</ele>
        <time>2021-07-31T08:01:49Z</time>
      </trkpt>
      <trkpt lat="40.777635" lon="-3.878330">
        <ele>1434.042</ele>
        <time>2021-07-31T08:01:51Z</time>
      </trkpt>
      <trkpt lat="40.777603" lon="-3.878340">
        <ele>1433.494</ele>
        <time>2021-07-31T08:01:54Z</time>
      </trkpt>
      <trkpt lat="40.777597" lon="-3.878365">
        <ele>1433.211</ele>
        <time>2021-07-31T08:01:56Z</time>
      </trkpt>
      <trkpt lat="40.777590" lon="-3.878394">
        <ele>1432.931</ele>
        <time>2021-07-31T08:01:59Z</time>
      </trkpt>
      <trkpt lat="40.777584" lon="-3.878422">
        <ele>1432.799</ele>
        <time>2021-07-31T08:02:03Z</time>
      </trkpt>
      <trkpt lat="40.777581" lon="-3.878446">
        <ele>1432.569</ele>
        <time>2021-07-31T08:02:05Z</time>
      </trkpt>
      <trkpt lat="40.777562" lon="-3.878482">
        <ele>1431.904</ele>
        <time>2021-07-31T08:02:07Z</time>
      </trkpt>
      <trkpt lat="40.777549" lon="-3.878498">
        <ele>1431.624</ele>
        <time>2021-07-31T08:02:09Z</time>
      </trkpt>
      <trkpt lat="40.777549" lon="-3.878527">
        <ele>1431.408</ele>
        <time>2021-07-31T08:02:12Z</time>
      </trkpt>
      <trkpt lat="40.777562" lon="-3.878553">
        <ele>1431.593</ele>
        <time>2021-07-31T08:02:14Z</time>
      </trkpt>
      <trkpt lat="40.777571" lon="-3.878578">
        <ele>1431.555</ele>
        <time>2021-07-31T08:02:16Z</time>
      </trkpt>
      <trkpt lat="40.777581" lon="-3.878598">
        <ele>1431.582</ele>
        <time>2021-07-31T08:02:18Z</time>
      </trkpt>
      <trkpt lat="40.777590" lon="-3.878620">
        <ele>1431.699</ele>
        <time>2021-07-31T08:02:21Z</time>
      </trkpt>
      <trkpt lat="40.777600" lon="-3.878642">
        <ele>1431.941</ele>
        <time>2021-07-31T08:02:24Z</time>
      </trkpt>
      <trkpt lat="40.777584" lon="-3.878657">
        <ele>1431.648</ele>
        <time>2021-07-31T08:02:28Z</time>
      </trkpt>
      <trkpt lat="40.777581" lon="-3.878685">
        <ele>1431.668</ele>
        <time>2021-07-31T08:02:30Z</time>
      </trkpt>
      <trkpt lat="40.777578" lon="-3.878718">
        <ele>1431.636</ele>
        <time>2021-07-31T08:02:33Z</time>
      </trkpt>
      <trkpt lat="40.777584" lon="-3.878742">
        <ele>1431.825</ele>
        <time>2021-07-31T08:02:38Z</time>
      </trkpt>
      <trkpt lat="40.777597" lon="-3.878758">
        <ele>1432.126</ele>
        <time>2021-07-31T08:02:41Z</time>
      </trkpt>
      <trkpt lat="40.777600" lon="-3.878783">
        <ele>1432.208</ele>
        <time>2021-07-31T08:02:43Z</time>
      </trkpt>
      <trkpt lat="40.777587" lon="-3.878817">
        <ele>1432.008</ele>
        <time>2021-07-31T08:02:46Z</time>
      </trkpt>
      <trkpt lat="40.777571" lon="-3.878835">
        <ele>1431.769</ele>
        <time>2021-07-31T08:02:48Z</time>
      </trkpt>
      <trkpt lat="40.777562" lon="-3.878867">
        <ele>1431.521</ele>
        <time>2021-07-31T08:02:51Z</time>
      </trkpt>
      <trkpt lat="40.777549" lon="-3.878902">
        <ele>1431.288</ele>
        <time>2021-07-31T08:02:53Z</time>
      </trkpt>
      <trkpt lat="40.777539" lon="-3.878927">
        <ele>1431.025</ele>
        <time>2021-07-31T08:02:55Z</time>
      </trkpt>
      <trkpt lat="40.777530" lon="-3.878958">
        <ele>1430.897</ele>
        <time>2021-07-31T08:02:58Z</time>
      </trkpt>
      <trkpt lat="40.777523" lon="-3.878990">
        <ele>1430.654</ele>
        <time>2021-07-31T08:03:01Z</time>
      </trkpt>
      <trkpt lat="40.777536" lon="-3.879020">
        <ele>1431.084</ele>
        <time>2021-07-31T08:03:04Z</time>
      </trkpt>
      <trkpt lat="40.777546" lon="-3.879057">
        <ele>1431.372</ele>
        <time>2021-07-31T08:03:07Z</time>
      </trkpt>
      <trkpt lat="40.777542" lon="-3.879085">
        <ele>1431.288</ele>
        <time>2021-07-31T08:03:11Z</time>
      </trkpt>
      <trkpt lat="40.777526" lon="-3.879113">
        <ele>1430.724</ele>
        <time>2021-07-31T08:03:13Z</time>
      </trkpt>
      <trkpt lat="40.777510" lon="-3.879125">
        <ele>1430.326</ele>
        <time>2021-07-31T08:03:14Z</time>
      </trkpt>
      <trkpt lat="40.777491" lon="-3.879146">
        <ele>1429.808</ele>
        <time>2021-07-31T08:03:16Z</time>
      </trkpt>
      <trkpt lat="40.777469" lon="-3.879158">
        <ele>1429.395</ele>
        <time>2021-07-31T08:03:18Z</time>
      </trkpt>
      <trkpt lat="40.777453" lon="-3.879182">
        <ele>1429.037</ele>
        <time>2021-07-31T08:03:21Z</time>
      </trkpt>
      <trkpt lat="40.777446" lon="-3.879222">
        <ele>1428.854</ele>
        <time>2021-07-31T08:03:24Z</time>
      </trkpt>
      <trkpt lat="40.777437" lon="-3.879257">
        <ele>1428.641</ele>
        <time>2021-07-31T08:03:26Z</time>
      </trkpt>
      <trkpt lat="40.777427" lon="-3.879294">
        <ele>1428.383</ele>
        <time>2021-07-31T08:03:28Z</time>
      </trkpt>
      <trkpt lat="40.777427" lon="-3.879322">
        <ele>1428.340</ele>
        <time>2021-07-31T08:03:30Z</time>
      </trkpt>
      <trkpt lat="40.777421" lon="-3.879348">
        <ele>1428.190</ele>
        <time>2021-07-31T08:03:32Z</time>
      </trkpt>
      <trkpt lat="40.777411" lon="-3.879380">
        <ele>1427.848</ele>
        <time>2021-07-31T08:03:34Z</time>
      </trkpt>
      <trkpt lat="40.777408" lon="-3.879422">
        <ele>1427.781</ele>
        <time>2021-07-31T08:03:36Z</time>
      </trkpt>
      <trkpt lat="40.777392" lon="-3.879444">
        <ele>1427.361</ele>
        <time>2021-07-31T08:03:38Z</time>
      </trkpt>
      <trkpt lat="40.777370" lon="-3.879465">
        <ele>1426.817</ele>
        <time>2021-07-31T08:03:40Z</time>
      </trkpt>
      <trkpt lat="40.777363" lon="-3.879492">
        <ele>1426.808</ele>
        <time>2021-07-31T08:03:43Z</time>
      </trkpt>
      <trkpt lat="40.777354" lon="-3.879517">
        <ele>1426.715</ele>
        <time>2021-07-31T08:03:45Z</time>
      </trkpt>
      <trkpt lat="40.777347" lon="-3.879543">
        <ele>1426.727</ele>
        <time>2021-07-31T08:03:47Z</time>
      </trkpt>
      <trkpt lat="40.777341" lon="-3.879572">
        <ele>1426.634</ele>
        <time>2021-07-31T08:03:49Z</time>
      </trkpt>
      <trkpt lat="40.777328" lon="-3.879605">
        <ele>1426.521</ele>
        <time>2021-07-31T08:03:52Z</time>
      </trkpt>
      <trkpt lat="40.777322" lon="-3.879647">
        <ele>1426.543</ele>
        <time>2021-07-31T08:03:54Z</time>
      </trkpt>
      <trkpt lat="40.777322" lon="-3.879676">
        <ele>1426.690</ele>
        <time>2021-07-31T08:03:56Z</time>
      </trkpt>
      <trkpt lat="40.777331" lon="-3.879710">
        <ele>1427.160</ele>
        <time>2021-07-31T08:03:58Z</time>
      </trkpt>
      <trkpt lat="40.777331" lon="-3.879747">
        <ele>1427.348</ele>
        <time>2021-07-31T08:04:00Z</time>
      </trkpt>
      <trkpt lat="40.777328" lon="-3.879777">
        <ele>1427.336</ele>
        <time>2021-07-31T08:04:02Z</time>
      </trkpt>
      <trkpt lat="40.777341" lon="-3.879800">
        <ele>1427.817</ele>
        <time>2021-07-31T08:04:05Z</time>
      </trkpt>
      <trkpt lat="40.777379" lon="-3.879818">
        <ele>1429.118</ele>
        <time>2021-07-31T08:04:06Z</time>
      </trkpt>
      <trkpt lat="40.777386" lon="-3.879855">
        <ele>1429.508</ele>
        <time>2021-07-31T08:04:11Z</time>
      </trkpt>
      <trkpt lat="40.777392" lon="-3.879888">
        <ele>1429.930</ele>
        <time>2021-07-31T08:04:14Z</time>
      </trkpt>
      <trkpt lat="40.777402" lon="-3.879913">
        <ele>1430.362</ele>
        <time>2021-07-31T08:04:18Z</time>
      </trkpt>
      <trkpt lat="40.777392" lon="-3.879938">
        <ele>1430.149</ele>
        <time>2021-07-31T08:04:21Z</time>
      </trkpt>
      <trkpt lat="40.777366" lon="-3.879962">
        <ele>1429.576</ele>
        <time>2021-07-31T08:04:25Z</time>
      </trkpt>
      <trkpt lat="40.777347" lon="-3.879972">
        <ele>1428.998</ele>
        <time>2021-07-31T08:04:29Z</time>
      </trkpt>
      <trkpt lat="40.777245" lon="-3.880163">
        <ele>1426.935</ele>
        <time>2021-07-31T08:04:54Z</time>
      </trkpt>
      <trkpt lat="40.777238" lon="-3.880138">
        <ele>1426.515</ele>
        <time>2021-07-31T08:04:56Z</time>
      </trkpt>
      <trkpt lat="40.777302" lon="-3.880026">
        <ele>1427.883</ele>
        <time>2021-07-31T08:05:11Z</time>
      </trkpt>
      <trkpt lat="40.777331" lon="-3.879998">
        <ele>1428.566</ele>
        <time>2021-07-31T08:05:14Z</time>
      </trkpt>
      <trkpt lat="40.777293" lon="-3.880024">
        <ele>1427.529</ele>
        <time>2021-07-31T08:05:16Z</time>
      </trkpt>
      <trkpt lat="40.777264" lon="-3.880042">
        <ele>1426.721</ele>
        <time>2021-07-31T08:05:20Z</time>
      </trkpt>
      <trkpt lat="40.777222" lon="-3.880097">
        <ele>1425.708</ele>
        <time>2021-07-31T08:05:35Z</time>
      </trkpt>
      <trkpt lat="40.777238" lon="-3.880078">
        <ele>1426.153</ele>
        <time>2021-07-31T08:05:42Z</time>
      </trkpt>
      <trkpt lat="40.777280" lon="-3.880085">
        <ele>1427.535</ele>
        <time>2021-07-31T08:05:46Z</time>
      </trkpt>
      <trkpt lat="40.777318" lon="-3.880065">
        <ele>1428.682</ele>
        <time>2021-07-31T08:05:51Z</time>
      </trkpt>
      <trkpt lat="40.777306" lon="-3.880045">
        <ele>1428.039</ele>
        <time>2021-07-31T08:05:54Z</time>
      </trkpt>
      <trkpt lat="40.777302" lon="-3.880014">
        <ele>1427.711</ele>
        <time>2021-07-31T08:05:58Z</time>
      </trkpt>
      <trkpt lat="40.777318" lon="-3.880002">
        <ele>1428.198</ele>
        <time>2021-07-31T08:06:00Z</time>
      </trkpt>
      <trkpt lat="40.777331" lon="-3.879982">
        <ele>1428.498</ele>
        <time>2021-07-31T08:06:04Z</time>
      </trkpt>
      <trkpt lat="40.777325" lon="-3.880005">
        <ele>1428.486</ele>
        <time>2021-07-31T08:06:07Z</time>
      </trkpt>
      <trkpt lat="40.777302" lon="-3.880022">
        <ele>1427.768</ele>
        <time>2021-07-31T08:06:09Z</time>
      </trkpt>
      <trkpt lat="40.777280" lon="-3.880035">
        <ele>1427.142</ele>
        <time>2021-07-31T08:06:12Z</time>
      </trkpt>
      <trkpt lat="40.777302" lon="-3.880052">
        <ele>1428.026</ele>
        <time>2021-07-31T08:06:15Z</time>
      </trkpt>
      <trkpt lat="40.777322" lon="-3.880060">
        <ele>1428.708</ele>
        <time>2021-07-31T08:06:19Z</time>
      </trkpt>
      <trkpt lat="40.777306" lon="-3.880077">
        <ele>1428.313</ele>
        <time>2021-07-31T08:06:20Z</time>
      </trkpt>
      <trkpt lat="40.777322" lon="-3.880058">
        <ele>1428.735</ele>
        <time>2021-07-31T08:06:25Z</time>
      </trkpt>
      <trkpt lat="40.777306" lon="-3.880045">
        <ele>1428.042</ele>
        <time>2021-07-31T08:06:30Z</time>
      </trkpt>
      <trkpt lat="40.777290" lon="-3.880070">
        <ele>1427.789</ele>
        <time>2021-07-31T08:06:43Z</time>
      </trkpt>
      <trkpt lat="40.777299" lon="-3.880098">
        <ele>1428.211</ele>
        <time>2021-07-31T08:06:46Z</time>
      </trkpt>
      <trkpt lat="40.777302" lon="-3.880128">
        <ele>1428.518</ele>
        <time>2021-07-31T08:06:48Z</time>
      </trkpt>
      <trkpt lat="40.777302" lon="-3.880160">
        <ele>1428.738</ele>
        <time>2021-07-31T08:06:50Z</time>
      </trkpt>
      <trkpt lat="40.777318" lon="-3.880172">
        <ele>1429.386</ele>
        <time>2021-07-31T08:06:53Z</time>
      </trkpt>
      <trkpt lat="40.777309" lon="-3.880202">
        <ele>1429.386</ele>
        <time>2021-07-31T08:06:57Z</time>
      </trkpt>
      <trkpt lat="40.777302" lon="-3.880227">
        <ele>1429.260</ele>
        <time>2021-07-31T08:06:59Z</time>
      </trkpt>
      <trkpt lat="40.777299" lon="-3.880252">
        <ele>1429.326</ele>
        <time>2021-07-31T08:07:03Z</time>
      </trkpt>
      <trkpt lat="40.777290" lon="-3.880275">
        <ele>1429.208</ele>
        <time>2021-07-31T08:07:05Z</time>
      </trkpt>
      <trkpt lat="40.777286" lon="-3.880308">
        <ele>1429.215</ele>
        <time>2021-07-31T08:07:07Z</time>
      </trkpt>
      <trkpt lat="40.777270" lon="-3.880338">
        <ele>1428.847</ele>
        <time>2021-07-31T08:07:09Z</time>
      </trkpt>
      <trkpt lat="40.777251" lon="-3.880367">
        <ele>1428.314</ele>
        <time>2021-07-31T08:07:11Z</time>
      </trkpt>
      <trkpt lat="40.777238" lon="-3.880402">
        <ele>1428.081</ele>
        <time>2021-07-31T08:07:13Z</time>
      </trkpt>
      <trkpt lat="40.777229" lon="-3.880428">
        <ele>1427.873</ele>
        <time>2021-07-31T08:07:15Z</time>
      </trkpt>
      <trkpt lat="40.777222" lon="-3.880453">
        <ele>1427.660</ele>
        <time>2021-07-31T08:07:17Z</time>
      </trkpt>
      <trkpt lat="40.777222" lon="-3.880480">
        <ele>1427.730</ele>
        <time>2021-07-31T08:07:19Z</time>
      </trkpt>
      <trkpt lat="40.777232" lon="-3.880502">
        <ele>1428.218</ele>
        <time>2021-07-31T08:07:23Z</time>
      </trkpt>
      <trkpt lat="40.777229" lon="-3.880526">
        <ele>1428.166</ele>
        <time>2021-07-31T08:07:25Z</time>
      </trkpt>
      <trkpt lat="40.777238" lon="-3.880553">
        <ele>1428.629</ele>
        <time>2021-07-31T08:07:27Z</time>
      </trkpt>
      <trkpt lat="40.777242" lon="-3.880587">
        <ele>1428.921</ele>
        <time>2021-07-31T08:07:29Z</time>
      </trkpt>
      <trkpt lat="40.777245" lon="-3.880612">
        <ele>1429.208</ele>
        <time>2021-07-31T08:07:31Z</time>
      </trkpt>
      <trkpt lat="40.777242" lon="-3.880645">
        <ele>1429.483</ele>
        <time>2021-07-31T08:07:33Z</time>
      </trkpt>
      <trkpt lat="40.777251" lon="-3.880684">
        <ele>1430.065</ele>
        <time>2021-07-31T08:07:36Z</time>
      </trkpt>
      <trkpt lat="40.777245" lon="-3.880720">
        <ele>1430.052</ele>
        <time>2021-07-31T08:07:38Z</time>
      </trkpt>
      <trkpt lat="40.777238" lon="-3.880750">
        <ele>1430.039</ele>
        <time>2021-07-31T08:07:40Z</time>
      </trkpt>
      <trkpt lat="40.777232" lon="-3.880773">
        <ele>1429.971</ele>
        <time>2021-07-31T08:07:42Z</time>
      </trkpt>
      <trkpt lat="40.777245" lon="-3.880797">
        <ele>1430.688</ele>
        <time>2021-07-31T08:07:45Z</time>
      </trkpt>
      <trkpt lat="40.777232" lon="-3.880830">
        <ele>1430.378</ele>
        <time>2021-07-31T08:07:47Z</time>
      </trkpt>
      <trkpt lat="40.777229" lon="-3.880860">
        <ele>1430.366</ele>
        <time>2021-07-31T08:07:49Z</time>
      </trkpt>
      <trkpt lat="40.777229" lon="-3.880900">
        <ele>1430.566</ele>
        <time>2021-07-31T08:07:51Z</time>
      </trkpt>
      <trkpt lat="40.777219" lon="-3.880937">
        <ele>1430.329</ele>
        <time>2021-07-31T08:07:53Z</time>
      </trkpt>
      <trkpt lat="40.777238" lon="-3.880927">
        <ele>1430.921</ele>
        <time>2021-07-31T08:07:54Z</time>
      </trkpt>
      <trkpt lat="40.777242" lon="-3.880955">
        <ele>1431.208</ele>
        <time>2021-07-31T08:07:57Z</time>
      </trkpt>
      <trkpt lat="40.777248" lon="-3.880980">
        <ele>1431.593</ele>
        <time>2021-07-31T08:07:59Z</time>
      </trkpt>
      <trkpt lat="40.777248" lon="-3.881012">
        <ele>1431.655</ele>
        <time>2021-07-31T08:08:01Z</time>
      </trkpt>
      <trkpt lat="40.777229" lon="-3.881025">
        <ele>1431.042</ele>
        <time>2021-07-31T08:08:04Z</time>
      </trkpt>
      <trkpt lat="40.777206" lon="-3.881070">
        <ele>1430.799</ele>
        <time>2021-07-31T08:08:07Z</time>
      </trkpt>
      <trkpt lat="40.777219" lon="-3.881090">
        <ele>1430.981</ele>
        <time>2021-07-31T08:08:09Z</time>
      </trkpt>
      <trkpt lat="40.777242" lon="-3.881100">
        <ele>1431.788</ele>
        <time>2021-07-31T08:08:13Z</time>
      </trkpt>
      <trkpt lat="40.777261" lon="-3.881098">
        <ele>1432.598</ele>
        <time>2021-07-31T08:08:14Z</time>
      </trkpt>
      <trkpt lat="40.777245" lon="-3.881118">
        <ele>1432.076</ele>
        <time>2021-07-31T08:08:16Z</time>
      </trkpt>
      <trkpt lat="40.777245" lon="-3.881152">
        <ele>1432.523</ele>
        <time>2021-07-31T08:08:19Z</time>
      </trkpt>
      <trkpt lat="40.777264" lon="-3.881143">
        <ele>1433.183</ele>
        <time>2021-07-31T08:08:20Z</time>
      </trkpt>
      <trkpt lat="40.777267" lon="-3.881167">
        <ele>1433.511</ele>
        <time>2021-07-31T08:08:22Z</time>
      </trkpt>
      <trkpt lat="40.777290" lon="-3.881147">
        <ele>1434.208</ele>
        <time>2021-07-31T08:08:23Z</time>
      </trkpt>
      <trkpt lat="40.777299" lon="-3.881175">
        <ele>1434.949</ele>
        <time>2021-07-31T08:08:27Z</time>
      </trkpt>
      <trkpt lat="40.777286" lon="-3.881210">
        <ele>1434.961</ele>
        <time>2021-07-31T08:08:33Z</time>
      </trkpt>
      <trkpt lat="40.777280" lon="-3.881235">
        <ele>1435.098</ele>
        <time>2021-07-31T08:08:35Z</time>
      </trkpt>
      <trkpt lat="40.777270" lon="-3.881262">
        <ele>1435.025</ele>
        <time>2021-07-31T08:08:37Z</time>
      </trkpt>
      <trkpt lat="40.777261" lon="-3.881283">
        <ele>1434.947</ele>
        <time>2021-07-31T08:08:39Z</time>
      </trkpt>
      <trkpt lat="40.777229" lon="-3.881328">
        <ele>1434.414</ele>
        <time>2021-07-31T08:08:41Z</time>
      </trkpt>
      <trkpt lat="40.777219" lon="-3.881350">
        <ele>1434.484</ele>
        <time>2021-07-31T08:08:42Z</time>
      </trkpt>
      <trkpt lat="40.777203" lon="-3.881380">
        <ele>1434.522</ele>
        <time>2021-07-31T08:08:44Z</time>
      </trkpt>
      <trkpt lat="40.777190" lon="-3.881400">
        <ele>1434.437</ele>
        <time>2021-07-31T08:08:45Z</time>
      </trkpt>
      <trkpt lat="40.777181" lon="-3.881425">
        <ele>1434.449</ele>
        <time>2021-07-31T08:08:46Z</time>
      </trkpt>
      <trkpt lat="40.777168" lon="-3.881452">
        <ele>1434.313</ele>
        <time>2021-07-31T08:08:47Z</time>
      </trkpt>
      <trkpt lat="40.777171" lon="-3.881493">
        <ele>1434.608</ele>
        <time>2021-07-31T08:08:49Z</time>
      </trkpt>
      <trkpt lat="40.777114" lon="-3.881785">
        <ele>1435.810</ele>
        <time>2021-07-31T08:09:02Z</time>
      </trkpt>
      <trkpt lat="40.777088" lon="-3.881813">
        <ele>1435.732</ele>
        <time>2021-07-31T08:09:03Z</time>
      </trkpt>
      <trkpt lat="40.777066" lon="-3.881830">
        <ele>1435.589</ele>
        <time>2021-07-31T08:09:04Z</time>
      </trkpt>
      <trkpt lat="40.777043" lon="-3.881845">
        <ele>1435.246</ele>
        <time>2021-07-31T08:09:05Z</time>
      </trkpt>
      <trkpt lat="40.777027" lon="-3.881863">
        <ele>1435.268</ele>
        <time>2021-07-31T08:09:06Z</time>
      </trkpt>
      <trkpt lat="40.777011" lon="-3.881883">
        <ele>1435.245</ele>
        <time>2021-07-31T08:09:07Z</time>
      </trkpt>
      <trkpt lat="40.776982" lon="-3.881928">
        <ele>1435.315</ele>
        <time>2021-07-31T08:09:09Z</time>
      </trkpt>
      <trkpt lat="40.776970" lon="-3.881950">
        <ele>1435.493</ele>
        <time>2021-07-31T08:09:10Z</time>
      </trkpt>
      <trkpt lat="40.776960" lon="-3.881975">
        <ele>1435.565</ele>
        <time>2021-07-31T08:09:11Z</time>
      </trkpt>
      <trkpt lat="40.776944" lon="-3.882005">
        <ele>1435.668</ele>
        <time>2021-07-31T08:09:13Z</time>
      </trkpt>
      <trkpt lat="40.776928" lon="-3.882028">
        <ele>1435.614</ele>
        <time>2021-07-31T08:09:14Z</time>
      </trkpt>
      <trkpt lat="40.776906" lon="-3.882068">
        <ele>1435.708</ele>
        <time>2021-07-31T08:09:16Z</time>
      </trkpt>
      <trkpt lat="40.776886" lon="-3.882092">
        <ele>1435.623</ele>
        <time>2021-07-31T08:09:17Z</time>
      </trkpt>
      <trkpt lat="40.776867" lon="-3.882115">
        <ele>1435.685</ele>
        <time>2021-07-31T08:09:18Z</time>
      </trkpt>
      <trkpt lat="40.776854" lon="-3.882143">
        <ele>1435.662</ele>
        <time>2021-07-31T08:09:19Z</time>
      </trkpt>
      <trkpt lat="40.776842" lon="-3.882167">
        <ele>1435.649</ele>
        <time>2021-07-31T08:09:20Z</time>
      </trkpt>
      <trkpt lat="40.776829" lon="-3.882195">
        <ele>1435.731</ele>
        <time>2021-07-31T08:09:21Z</time>
      </trkpt>
      <trkpt lat="40.776816" lon="-3.882215">
        <ele>1435.658</ele>
        <time>2021-07-31T08:09:22Z</time>
      </trkpt>
      <trkpt lat="40.776803" lon="-3.882242">
        <ele>1435.688</ele>
        <time>2021-07-31T08:09:24Z</time>
      </trkpt>
      <trkpt lat="40.776614" lon="-3.882585">
        <ele>1435.296</ele>
        <time>2021-07-31T08:09:41Z</time>
      </trkpt>
      <trkpt lat="40.776592" lon="-3.882616">
        <ele>1435.231</ele>
        <time>2021-07-31T08:09:42Z</time>
      </trkpt>
      <trkpt lat="40.776586" lon="-3.882648">
        <ele>1435.461</ele>
        <time>2021-07-31T08:09:43Z</time>
      </trkpt>
      <trkpt lat="40.776586" lon="-3.882678">
        <ele>1435.807</ele>
        <time>2021-07-31T08:09:46Z</time>
      </trkpt>
      <trkpt lat="40.776566" lon="-3.882680">
        <ele>1435.508</ele>
        <time>2021-07-31T08:09:54Z</time>
      </trkpt>
      <trkpt lat="40.776563" lon="-3.882688">
        <ele>1435.560</ele>
        <time>2021-07-31T08:09:57Z</time>
      </trkpt>
      <trkpt lat="40.776426" lon="-3.882772">
        <ele>1434.522</ele>
        <time>2021-07-31T08:10:12Z</time>
      </trkpt>
      <trkpt lat="40.776406" lon="-3.882768">
        <ele>1434.189</ele>
        <time>2021-07-31T08:10:15Z</time>
      </trkpt>
      <trkpt lat="40.776387" lon="-3.882802">
        <ele>1434.326</ele>
        <time>2021-07-31T08:10:18Z</time>
      </trkpt>
      <trkpt lat="40.776390" lon="-3.882835">
        <ele>1434.628</ele>
        <time>2021-07-31T08:10:20Z</time>
      </trkpt>
      <trkpt lat="40.776384" lon="-3.882908">
        <ele>1435.495</ele>
        <time>2021-07-31T08:10:26Z</time>
      </trkpt>
      <trkpt lat="40.776374" lon="-3.882930">
        <ele>1435.695</ele>
        <time>2021-07-31T08:10:28Z</time>
      </trkpt>
      <trkpt lat="40.776384" lon="-3.882952">
        <ele>1435.933</ele>
        <time>2021-07-31T08:10:31Z</time>
      </trkpt>
      <trkpt lat="40.776384" lon="-3.882978">
        <ele>1436.263</ele>
        <time>2021-07-31T08:10:34Z</time>
      </trkpt>
      <trkpt lat="40.776406" lon="-3.883020">
        <ele>1436.844</ele>
        <time>2021-07-31T08:10:40Z</time>
      </trkpt>
      <trkpt lat="40.776394" lon="-3.883052">
        <ele>1437.018</ele>
        <time>2021-07-31T08:10:42Z</time>
      </trkpt>
      <trkpt lat="40.776394" lon="-3.883087">
        <ele>1437.408</ele>
        <time>2021-07-31T08:10:44Z</time>
      </trkpt>
      <trkpt lat="40.776374" lon="-3.883140">
        <ele>1437.913</ele>
        <time>2021-07-31T08:10:47Z</time>
      </trkpt>
      <trkpt lat="40.776368" lon="-3.883174">
        <ele>1438.315</ele>
        <time>2021-07-31T08:10:49Z</time>
      </trkpt>
      <trkpt lat="40.776368" lon="-3.883200">
        <ele>1438.662</ele>
        <time>2021-07-31T08:10:50Z</time>
      </trkpt>
      <trkpt lat="40.776352" lon="-3.883230">
        <ele>1439.089</ele>
        <time>2021-07-31T08:10:52Z</time>
      </trkpt>
      <trkpt lat="40.776365" lon="-3.883252">
        <ele>1439.281</ele>
        <time>2021-07-31T08:10:54Z</time>
      </trkpt>
      <trkpt lat="40.776368" lon="-3.883275">
        <ele>1439.498</ele>
        <time>2021-07-31T08:10:56Z</time>
      </trkpt>
      <trkpt lat="40.776355" lon="-3.883297">
        <ele>1439.728</ele>
        <time>2021-07-31T08:10:58Z</time>
      </trkpt>
      <trkpt lat="40.776352" lon="-3.883328">
        <ele>1440.116</ele>
        <time>2021-07-31T08:11:01Z</time>
      </trkpt>
      <trkpt lat="40.776339" lon="-3.883355">
        <ele>1440.478</ele>
        <time>2021-07-31T08:11:03Z</time>
      </trkpt>
      <trkpt lat="40.776326" lon="-3.883383">
        <ele>1440.733</ele>
        <time>2021-07-31T08:11:05Z</time>
      </trkpt>
      <trkpt lat="40.776310" lon="-3.883412">
        <ele>1441.126</ele>
        <time>2021-07-31T08:11:07Z</time>
      </trkpt>
      <trkpt lat="40.776310" lon="-3.883447">
        <ele>1441.408</ele>
        <time>2021-07-31T08:11:09Z</time>
      </trkpt>
      <trkpt lat="40.776298" lon="-3.883490">
        <ele>1441.814</ele>
        <time>2021-07-31T08:11:12Z</time>
      </trkpt>
      <trkpt lat="40.776288" lon="-3.883512">
        <ele>1442.186</ele>
        <time>2021-07-31T08:11:14Z</time>
      </trkpt>
      <trkpt lat="40.776285" lon="-3.883537">
        <ele>1442.373</ele>
        <time>2021-07-31T08:11:16Z</time>
      </trkpt>
      <trkpt lat="40.776288" lon="-3.883563">
        <ele>1442.530</ele>
        <time>2021-07-31T08:11:19Z</time>
      </trkpt>
      <trkpt lat="40.776285" lon="-3.883608">
        <ele>1443.022</ele>
        <time>2021-07-31T08:11:23Z</time>
      </trkpt>
      <trkpt lat="40.776298" lon="-3.883630">
        <ele>1443.259</ele>
        <time>2021-07-31T08:11:26Z</time>
      </trkpt>
      <trkpt lat="40.776326" lon="-3.883625">
        <ele>1443.279</ele>
        <time>2021-07-31T08:11:29Z</time>
      </trkpt>
      <trkpt lat="40.776326" lon="-3.883650">
        <ele>1443.417</ele>
        <time>2021-07-31T08:11:31Z</time>
      </trkpt>
      <trkpt lat="40.776317" lon="-3.883690">
        <ele>1443.928</ele>
        <time>2021-07-31T08:11:33Z</time>
      </trkpt>
      <trkpt lat="40.776314" lon="-3.883718">
        <ele>1444.289</ele>
        <time>2021-07-31T08:11:36Z</time>
      </trkpt>
      <trkpt lat="40.776307" lon="-3.883752">
        <ele>1444.517</ele>
        <time>2021-07-31T08:11:39Z</time>
      </trkpt>
      <trkpt lat="40.776288" lon="-3.883775">
        <ele>1444.808</ele>
        <time>2021-07-31T08:11:41Z</time>
      </trkpt>
      <trkpt lat="40.776285" lon="-3.883802">
        <ele>1445.119</ele>
        <time>2021-07-31T08:11:44Z</time>
      </trkpt>
      <trkpt lat="40.776285" lon="-3.883828">
        <ele>1445.381</ele>
        <time>2021-07-31T08:11:47Z</time>
      </trkpt>
      <trkpt lat="40.776269" lon="-3.883865">
        <ele>1445.788</ele>
        <time>2021-07-31T08:11:51Z</time>
      </trkpt>
      <trkpt lat="40.776253" lon="-3.883888">
        <ele>1446.055</ele>
        <time>2021-07-31T08:11:53Z</time>
      </trkpt>
      <trkpt lat="40.776234" lon="-3.883915">
        <ele>1446.297</ele>
        <time>2021-07-31T08:11:57Z</time>
      </trkpt>
      <trkpt lat="40.776218" lon="-3.883940">
        <ele>1446.464</ele>
        <time>2021-07-31T08:11:59Z</time>
      </trkpt>
      <trkpt lat="40.776202" lon="-3.883967">
        <ele>1446.754</ele>
        <time>2021-07-31T08:12:02Z</time>
      </trkpt>
      <trkpt lat="40.776176" lon="-3.883997">
        <ele>1446.942</ele>
        <time>2021-07-31T08:12:05Z</time>
      </trkpt>
      <trkpt lat="40.776160" lon="-3.884018">
        <ele>1447.098</ele>
        <time>2021-07-31T08:12:07Z</time>
      </trkpt>
      <trkpt lat="40.776147" lon="-3.884043">
        <ele>1447.215</ele>
        <time>2021-07-31T08:12:10Z</time>
      </trkpt>
      <trkpt lat="40.776138" lon="-3.884068">
        <ele>1447.426</ele>
        <time>2021-07-31T08:12:12Z</time>
      </trkpt>
      <trkpt lat="40.776141" lon="-3.884095">
        <ele>1447.608</ele>
        <time>2021-07-31T08:12:16Z</time>
      </trkpt>
      <trkpt lat="40.776138" lon="-3.884120">
        <ele>1447.786</ele>
        <time>2021-07-31T08:12:19Z</time>
      </trkpt>
      <trkpt lat="40.776138" lon="-3.884145">
        <ele>1447.958</ele>
        <time>2021-07-31T08:12:21Z</time>
      </trkpt>
      <trkpt lat="40.776131" lon="-3.884175">
        <ele>1448.265</ele>
        <time>2021-07-31T08:12:25Z</time>
      </trkpt>
      <trkpt lat="40.776115" lon="-3.884194">
        <ele>1448.372</ele>
        <time>2021-07-31T08:12:27Z</time>
      </trkpt>
      <trkpt lat="40.776099" lon="-3.884222">
        <ele>1448.774</ele>
        <time>2021-07-31T08:12:29Z</time>
      </trkpt>
      <trkpt lat="40.776099" lon="-3.884260">
        <ele>1449.121</ele>
        <time>2021-07-31T08:12:32Z</time>
      </trkpt>
      <trkpt lat="40.776128" lon="-3.884267">
        <ele>1449.121</ele>
        <time>2021-07-31T08:12:34Z</time>
      </trkpt>
      <trkpt lat="40.776112" lon="-3.884293">
        <ele>1449.499</ele>
        <time>2021-07-31T08:12:39Z</time>
      </trkpt>
      <trkpt lat="40.776099" lon="-3.884317">
        <ele>1449.752</ele>
        <time>2021-07-31T08:12:41Z</time>
      </trkpt>
      <trkpt lat="40.776080" lon="-3.884343">
        <ele>1450.253</ele>
        <time>2021-07-31T08:12:43Z</time>
      </trkpt>
      <trkpt lat="40.776061" lon="-3.884368">
        <ele>1450.608</ele>
        <time>2021-07-31T08:12:46Z</time>
      </trkpt>
      <trkpt lat="40.776054" lon="-3.884398">
        <ele>1450.908</ele>
        <time>2021-07-31T08:12:50Z</time>
      </trkpt>
      <trkpt lat="40.776048" lon="-3.884426">
        <ele>1451.312</ele>
        <time>2021-07-31T08:12:53Z</time>
      </trkpt>
      <trkpt lat="40.776035" lon="-3.884452">
        <ele>1451.654</ele>
        <time>2021-07-31T08:12:57Z</time>
      </trkpt>
      <trkpt lat="40.776019" lon="-3.884470">
        <ele>1451.951</ele>
        <time>2021-07-31T08:12:59Z</time>
      </trkpt>
      <trkpt lat="40.776010" lon="-3.884503">
        <ele>1452.458</ele>
        <time>2021-07-31T08:13:01Z</time>
      </trkpt>
      <trkpt lat="40.776000" lon="-3.884537">
        <ele>1452.830</ele>
        <time>2021-07-31T08:13:03Z</time>
      </trkpt>
      <trkpt lat="40.775994" lon="-3.884567">
        <ele>1453.267</ele>
        <time>2021-07-31T08:13:05Z</time>
      </trkpt>
      <trkpt lat="40.776003" lon="-3.884596">
        <ele>1453.437</ele>
        <time>2021-07-31T08:13:08Z</time>
      </trkpt>
      <trkpt lat="40.775994" lon="-3.884627">
        <ele>1453.895</ele>
        <time>2021-07-31T08:13:10Z</time>
      </trkpt>
      <trkpt lat="40.775987" lon="-3.884658">
        <ele>1454.258</ele>
        <time>2021-07-31T08:13:12Z</time>
      </trkpt>
      <trkpt lat="40.775978" lon="-3.884683">
        <ele>1454.552</ele>
        <time>2021-07-31T08:13:14Z</time>
      </trkpt>
      <trkpt lat="40.775971" lon="-3.884708">
        <ele>1454.917</ele>
        <time>2021-07-31T08:13:16Z</time>
      </trkpt>
      <trkpt lat="40.775955" lon="-3.884732">
        <ele>1455.208</ele>
        <time>2021-07-31T08:13:18Z</time>
      </trkpt>
      <trkpt lat="40.775949" lon="-3.884758">
        <ele>1455.582</ele>
        <time>2021-07-31T08:13:20Z</time>
      </trkpt>
      <trkpt lat="40.775942" lon="-3.884783">
        <ele>1455.724</ele>
        <time>2021-07-31T08:13:23Z</time>
      </trkpt>
      <trkpt lat="40.775942" lon="-3.884810">
        <ele>1456.091</ele>
        <time>2021-07-31T08:13:25Z</time>
      </trkpt>
      <trkpt lat="40.775942" lon="-3.884835">
        <ele>1456.218</ele>
        <time>2021-07-31T08:13:28Z</time>
      </trkpt>
      <trkpt lat="40.775933" lon="-3.884857">
        <ele>1456.450</ele>
        <time>2021-07-31T08:13:30Z</time>
      </trkpt>
      <trkpt lat="40.775923" lon="-3.884880">
        <ele>1456.737</ele>
        <time>2021-07-31T08:13:32Z</time>
      </trkpt>
      <trkpt lat="40.775907" lon="-3.884905">
        <ele>1457.037</ele>
        <time>2021-07-31T08:13:34Z</time>
      </trkpt>
      <trkpt lat="40.775898" lon="-3.884935">
        <ele>1457.275</ele>
        <time>2021-07-31T08:13:35Z</time>
      </trkpt>
      <trkpt lat="40.775898" lon="-3.884962">
        <ele>1457.512</ele>
        <time>2021-07-31T08:13:37Z</time>
      </trkpt>
      <trkpt lat="40.775910" lon="-3.884985">
        <ele>1457.632</ele>
        <time>2021-07-31T08:13:39Z</time>
      </trkpt>
      <trkpt lat="40.775901" lon="-3.885007">
        <ele>1457.805</ele>
        <time>2021-07-31T08:13:40Z</time>
      </trkpt>
      <trkpt lat="40.775888" lon="-3.885035">
        <ele>1458.208</ele>
        <time>2021-07-31T08:13:43Z</time>
      </trkpt>
      <trkpt lat="40.775875" lon="-3.885058">
        <ele>1458.588</ele>
        <time>2021-07-31T08:13:45Z</time>
      </trkpt>
      <trkpt lat="40.775859" lon="-3.885070">
        <ele>1458.780</ele>
        <time>2021-07-31T08:13:47Z</time>
      </trkpt>
      <trkpt lat="40.775843" lon="-3.885083">
        <ele>1458.987</ele>
        <time>2021-07-31T08:13:49Z</time>
      </trkpt>
      <trkpt lat="40.775830" lon="-3.885102">
        <ele>1459.184</ele>
        <time>2021-07-31T08:13:51Z</time>
      </trkpt>
      <trkpt lat="40.775818" lon="-3.885126">
        <ele>1459.586</ele>
        <time>2021-07-31T08:13:53Z</time>
      </trkpt>
      <trkpt lat="40.775811" lon="-3.885152">
        <ele>1459.923</ele>
        <time>2021-07-31T08:13:55Z</time>
      </trkpt>
      <trkpt lat="40.775802" lon="-3.885178">
        <ele>1460.393</ele>
        <time>2021-07-31T08:13:58Z</time>
      </trkpt>
      <trkpt lat="40.775808" lon="-3.885203">
        <ele>1460.591</ele>
        <time>2021-07-31T08:14:02Z</time>
      </trkpt>
      <trkpt lat="40.775795" lon="-3.885235">
        <ele>1461.016</ele>
        <time>2021-07-31T08:14:05Z</time>
      </trkpt>
      <trkpt lat="40.775782" lon="-3.885262">
        <ele>1461.476</ele>
        <time>2021-07-31T08:14:07Z</time>
      </trkpt>
      <trkpt lat="40.775773" lon="-3.885288">
        <ele>1461.813</ele>
        <time>2021-07-31T08:14:11Z</time>
      </trkpt>
      <trkpt lat="40.775770" lon="-3.885320">
        <ele>1462.308</ele>
        <time>2021-07-31T08:14:14Z</time>
      </trkpt>
      <trkpt lat="40.775763" lon="-3.885343">
        <ele>1462.648</ele>
        <time>2021-07-31T08:14:16Z</time>
      </trkpt>
      <trkpt lat="40.775750" lon="-3.885383">
        <ele>1463.320</ele>
        <time>2021-07-31T08:14:18Z</time>
      </trkpt>
      <trkpt lat="40.775741" lon="-3.885417">
        <ele>1463.847</ele>
        <time>2021-07-31T08:14:20Z</time>
      </trkpt>
      <trkpt lat="40.775725" lon="-3.885436">
        <ele>1464.214</ele>
        <time>2021-07-31T08:14:22Z</time>
      </trkpt>
      <trkpt lat="40.775715" lon="-3.885473">
        <ele>1464.826</ele>
        <time>2021-07-31T08:14:25Z</time>
      </trkpt>
      <trkpt lat="40.775702" lon="-3.885495">
        <ele>1465.273</ele>
        <time>2021-07-31T08:14:26Z</time>
      </trkpt>
      <trkpt lat="40.775683" lon="-3.885527">
        <ele>1465.733</ele>
        <time>2021-07-31T08:14:28Z</time>
      </trkpt>
      <trkpt lat="40.775664" lon="-3.885547">
        <ele>1466.181</ele>
        <time>2021-07-31T08:14:30Z</time>
      </trkpt>
      <trkpt lat="40.775651" lon="-3.885575">
        <ele>1466.545</ele>
        <time>2021-07-31T08:14:33Z</time>
      </trkpt>
      <trkpt lat="40.775635" lon="-3.885595">
        <ele>1466.947</ele>
        <time>2021-07-31T08:14:36Z</time>
      </trkpt>
      <trkpt lat="40.775622" lon="-3.885617">
        <ele>1467.211</ele>
        <time>2021-07-31T08:14:39Z</time>
      </trkpt>
      <trkpt lat="40.775603" lon="-3.885630">
        <ele>1467.508</ele>
        <time>2021-07-31T08:14:41Z</time>
      </trkpt>
      <trkpt lat="40.775584" lon="-3.885648">
        <ele>1467.821</ele>
        <time>2021-07-31T08:14:44Z</time>
      </trkpt>
      <trkpt lat="40.775562" lon="-3.885683">
        <ele>1468.313</ele>
        <time>2021-07-31T08:14:46Z</time>
      </trkpt>
      <trkpt lat="40.775546" lon="-3.885718">
        <ele>1468.920</ele>
        <time>2021-07-31T08:14:49Z</time>
      </trkpt>
      <trkpt lat="40.775539" lon="-3.885742">
        <ele>1469.237</ele>
        <time>2021-07-31T08:14:50Z</time>
      </trkpt>
      <trkpt lat="40.775536" lon="-3.885765">
        <ele>1469.559</ele>
        <time>2021-07-31T08:14:53Z</time>
      </trkpt>
      <trkpt lat="40.775523" lon="-3.885790">
        <ele>1469.956</ele>
        <time>2021-07-31T08:14:56Z</time>
      </trkpt>
      <trkpt lat="40.775504" lon="-3.885812">
        <ele>1470.396</ele>
        <time>2021-07-31T08:14:59Z</time>
      </trkpt>
      <trkpt lat="40.775485" lon="-3.885818">
        <ele>1470.684</ele>
        <time>2021-07-31T08:15:02Z</time>
      </trkpt>
      <trkpt lat="40.775472" lon="-3.885845">
        <ele>1471.097</ele>
        <time>2021-07-31T08:15:05Z</time>
      </trkpt>
      <trkpt lat="40.775456" lon="-3.885867">
        <ele>1471.423</ele>
        <time>2021-07-31T08:15:07Z</time>
      </trkpt>
      <trkpt lat="40.775437" lon="-3.885885">
        <ele>1471.825</ele>
        <time>2021-07-31T08:15:09Z</time>
      </trkpt>
      <trkpt lat="40.775427" lon="-3.885915">
        <ele>1472.308</ele>
        <time>2021-07-31T08:15:11Z</time>
      </trkpt>
      <trkpt lat="40.775414" lon="-3.885937">
        <ele>1472.686</ele>
        <time>2021-07-31T08:15:13Z</time>
      </trkpt>
      <trkpt lat="40.775392" lon="-3.885942">
        <ele>1472.988</ele>
        <time>2021-07-31T08:15:16Z</time>
      </trkpt>
      <trkpt lat="40.775363" lon="-3.885944">
        <ele>1473.375</ele>
        <time>2021-07-31T08:15:18Z</time>
      </trkpt>
      <trkpt lat="40.775347" lon="-3.885974">
        <ele>1473.872</ele>
        <time>2021-07-31T08:15:22Z</time>
      </trkpt>
      <trkpt lat="40.775334" lon="-3.885998">
        <ele>1474.264</ele>
        <time>2021-07-31T08:15:25Z</time>
      </trkpt>
      <trkpt lat="40.775315" lon="-3.886027">
        <ele>1474.721</ele>
        <time>2021-07-31T08:15:27Z</time>
      </trkpt>
      <trkpt lat="40.775299" lon="-3.886055">
        <ele>1475.281</ele>
        <time>2021-07-31T08:15:31Z</time>
      </trkpt>
      <trkpt lat="40.775286" lon="-3.886080">
        <ele>1475.659</ele>
        <time>2021-07-31T08:15:33Z</time>
      </trkpt>
      <trkpt lat="40.775280" lon="-3.886103">
        <ele>1475.983</ele>
        <time>2021-07-31T08:15:36Z</time>
      </trkpt>
      <trkpt lat="40.775274" lon="-3.886130">
        <ele>1476.225</ele>
        <time>2021-07-31T08:15:39Z</time>
      </trkpt>
      <trkpt lat="40.775274" lon="-3.886156">
        <ele>1476.517</ele>
        <time>2021-07-31T08:15:44Z</time>
      </trkpt>
      <trkpt lat="40.775261" lon="-3.886175">
        <ele>1476.908</ele>
        <time>2021-07-31T08:15:46Z</time>
      </trkpt>
      <trkpt lat="40.775248" lon="-3.886197">
        <ele>1477.215</ele>
        <time>2021-07-31T08:15:48Z</time>
      </trkpt>
      <trkpt lat="40.775242" lon="-3.886228">
        <ele>1477.617</ele>
        <time>2021-07-31T08:15:50Z</time>
      </trkpt>
      <trkpt lat="40.775235" lon="-3.886262">
        <ele>1478.114</ele>
        <time>2021-07-31T08:15:52Z</time>
      </trkpt>
      <trkpt lat="40.775232" lon="-3.886288">
        <ele>1478.441</ele>
        <time>2021-07-31T08:15:54Z</time>
      </trkpt>
      <trkpt lat="40.775219" lon="-3.886312">
        <ele>1478.813</ele>
        <time>2021-07-31T08:15:56Z</time>
      </trkpt>
      <trkpt lat="40.775216" lon="-3.886344">
        <ele>1479.210</ele>
        <time>2021-07-31T08:15:59Z</time>
      </trkpt>
      <trkpt lat="40.775219" lon="-3.886377">
        <ele>1479.530</ele>
        <time>2021-07-31T08:16:02Z</time>
      </trkpt>
      <trkpt lat="40.775219" lon="-3.886403">
        <ele>1479.838</ele>
        <time>2021-07-31T08:16:04Z</time>
      </trkpt>
      <trkpt lat="40.775222" lon="-3.886430">
        <ele>1480.024</ele>
        <time>2021-07-31T08:16:06Z</time>
      </trkpt>
      <trkpt lat="40.775242" lon="-3.886458">
        <ele>1480.104</ele>
        <time>2021-07-31T08:16:08Z</time>
      </trkpt>
      <trkpt lat="40.775254" lon="-3.886493">
        <ele>1480.314</ele>
        <time>2021-07-31T08:16:11Z</time>
      </trkpt>
      <trkpt lat="40.775248" lon="-3.886522">
        <ele>1480.708</ele>
        <time>2021-07-31T08:16:13Z</time>
      </trkpt>
      <trkpt lat="40.775242" lon="-3.886550">
        <ele>1481.189</ele>
        <time>2021-07-31T08:16:15Z</time>
      </trkpt>
      <trkpt lat="40.775242" lon="-3.886575">
        <ele>1481.371</ele>
        <time>2021-07-31T08:16:17Z</time>
      </trkpt>
      <trkpt lat="40.775232" lon="-3.886597">
        <ele>1481.628</ele>
        <time>2021-07-31T08:16:19Z</time>
      </trkpt>
      <trkpt lat="40.775226" lon="-3.886625">
        <ele>1482.055</ele>
        <time>2021-07-31T08:16:22Z</time>
      </trkpt>
      <trkpt lat="40.775235" lon="-3.886658">
        <ele>1482.227</ele>
        <time>2021-07-31T08:16:25Z</time>
      </trkpt>
      <trkpt lat="40.775232" lon="-3.886687">
        <ele>1482.624</ele>
        <time>2021-07-31T08:16:27Z</time>
      </trkpt>
      <trkpt lat="40.775232" lon="-3.886715">
        <ele>1483.054</ele>
        <time>2021-07-31T08:16:31Z</time>
      </trkpt>
      <trkpt lat="40.775226" lon="-3.886742">
        <ele>1483.412</ele>
        <time>2021-07-31T08:16:34Z</time>
      </trkpt>
      <trkpt lat="40.775226" lon="-3.886782">
        <ele>1484.033</ele>
        <time>2021-07-31T08:16:38Z</time>
      </trkpt>
      <trkpt lat="40.775216" lon="-3.886973">
        <ele>1486.523</ele>
        <time>2021-07-31T08:16:52Z</time>
      </trkpt>
      <trkpt lat="40.775178" lon="-3.886998">
        <ele>1486.815</ele>
        <time>2021-07-31T08:16:53Z</time>
      </trkpt>
      <trkpt lat="40.775136" lon="-3.887044">
        <ele>1487.408</ele>
        <time>2021-07-31T08:16:54Z</time>
      </trkpt>
      <trkpt lat="40.775117" lon="-3.887077">
        <ele>1487.830</ele>
        <time>2021-07-31T08:16:55Z</time>
      </trkpt>
      <trkpt lat="40.775104" lon="-3.887097">
        <ele>1488.162</ele>
        <time>2021-07-31T08:16:56Z</time>
      </trkpt>
      <trkpt lat="40.775117" lon="-3.887125">
        <ele>1488.399</ele>
        <time>2021-07-31T08:16:58Z</time>
      </trkpt>
      <trkpt lat="40.775120" lon="-3.887172">
        <ele>1488.746</ele>
        <time>2021-07-31T08:17:03Z</time>
      </trkpt>
      <trkpt lat="40.775123" lon="-3.887206">
        <ele>1489.088</ele>
        <time>2021-07-31T08:17:06Z</time>
      </trkpt>
      <trkpt lat="40.775117" lon="-3.887262">
        <ele>1489.595</ele>
        <time>2021-07-31T08:17:10Z</time>
      </trkpt>
      <trkpt lat="40.775101" lon="-3.887297">
        <ele>1489.985</ele>
        <time>2021-07-31T08:17:12Z</time>
      </trkpt>
      <trkpt lat="40.775098" lon="-3.887323">
        <ele>1490.163</ele>
        <time>2021-07-31T08:17:13Z</time>
      </trkpt>
      <trkpt lat="40.775094" lon="-3.887347">
        <ele>1490.448</ele>
        <time>2021-07-31T08:17:14Z</time>
      </trkpt>
      <trkpt lat="40.775085" lon="-3.887377">
        <ele>1490.761</ele>
        <time>2021-07-31T08:17:17Z</time>
      </trkpt>
      <trkpt lat="40.775075" lon="-3.887428">
        <ele>1491.117</ele>
        <time>2021-07-31T08:17:20Z</time>
      </trkpt>
      <trkpt lat="40.775069" lon="-3.887472">
        <ele>1491.508</ele>
        <time>2021-07-31T08:17:25Z</time>
      </trkpt>
      <trkpt lat="40.775082" lon="-3.887525">
        <ele>1491.951</ele>
        <time>2021-07-31T08:17:30Z</time>
      </trkpt>
      <trkpt lat="40.775082" lon="-3.887568">
        <ele>1492.253</ele>
        <time>2021-07-31T08:17:34Z</time>
      </trkpt>
      <trkpt lat="40.775104" lon="-3.887630">
        <ele>1492.640</ele>
        <time>2021-07-31T08:17:39Z</time>
      </trkpt>
      <trkpt lat="40.775101" lon="-3.887653">
        <ele>1492.717</ele>
        <time>2021-07-31T08:17:41Z</time>
      </trkpt>
      <trkpt lat="40.775094" lon="-3.887690">
        <ele>1493.079</ele>
        <time>2021-07-31T08:17:43Z</time>
      </trkpt>
      <trkpt lat="40.775082" lon="-3.887724">
        <ele>1493.396</ele>
        <time>2021-07-31T08:17:48Z</time>
      </trkpt>
      <trkpt lat="40.775082" lon="-3.887763">
        <ele>1493.636</ele>
        <time>2021-07-31T08:17:51Z</time>
      </trkpt>
      <trkpt lat="40.775085" lon="-3.887852">
        <ele>1494.334</ele>
        <time>2021-07-31T08:18:01Z</time>
      </trkpt>
      <trkpt lat="40.775066" lon="-3.887903">
        <ele>1494.882</ele>
        <time>2021-07-31T08:18:04Z</time>
      </trkpt>
      <trkpt lat="40.775056" lon="-3.887936">
        <ele>1495.143</ele>
        <time>2021-07-31T08:18:06Z</time>
      </trkpt>
      <trkpt lat="40.775059" lon="-3.888052">
        <ele>1496.017</ele>
        <time>2021-07-31T08:18:13Z</time>
      </trkpt>
      <trkpt lat="40.775027" lon="-3.888118">
        <ele>1496.508</ele>
        <time>2021-07-31T08:18:17Z</time>
      </trkpt>
      <trkpt lat="40.775024" lon="-3.888147">
        <ele>1496.765</ele>
        <time>2021-07-31T08:18:22Z</time>
      </trkpt>
      <trkpt lat="40.775024" lon="-3.888232">
        <ele>1497.387</ele>
        <time>2021-07-31T08:18:29Z</time>
      </trkpt>
      <trkpt lat="40.775024" lon="-3.888293">
        <ele>1497.794</ele>
        <time>2021-07-31T08:18:33Z</time>
      </trkpt>
      <trkpt lat="40.775021" lon="-3.888325">
        <ele>1497.911</ele>
        <time>2021-07-31T08:18:35Z</time>
      </trkpt>
      <trkpt lat="40.774998" lon="-3.888377">
        <ele>1498.583</ele>
        <time>2021-07-31T08:18:39Z</time>
      </trkpt>
      <trkpt lat="40.774998" lon="-3.888402">
        <ele>1498.850</ele>
        <time>2021-07-31T08:18:41Z</time>
      </trkpt>
      <trkpt lat="40.775005" lon="-3.888427">
        <ele>1499.040</ele>
        <time>2021-07-31T08:18:43Z</time>
      </trkpt>
      <trkpt lat="40.775008" lon="-3.888455">
        <ele>1499.398</ele>
        <time>2021-07-31T08:18:45Z</time>
      </trkpt>
      <trkpt lat="40.775021" lon="-3.888495">
        <ele>1499.794</ele>
        <time>2021-07-31T08:18:47Z</time>
      </trkpt>
      <trkpt lat="40.775027" lon="-3.888523">
        <ele>1500.057</ele>
        <time>2021-07-31T08:18:49Z</time>
      </trkpt>
      <trkpt lat="40.775002" lon="-3.888602">
        <ele>1500.922</ele>
        <time>2021-07-31T08:18:57Z</time>
      </trkpt>
      <trkpt lat="40.774998" lon="-3.888643">
        <ele>1501.208</ele>
        <time>2021-07-31T08:19:01Z</time>
      </trkpt>
      <trkpt lat="40.775014" lon="-3.888797">
        <ele>1502.326</ele>
        <time>2021-07-31T08:19:11Z</time>
      </trkpt>
      <trkpt lat="40.774998" lon="-3.888822">
        <ele>1502.548</ele>
        <time>2021-07-31T08:19:13Z</time>
      </trkpt>
      <trkpt lat="40.774986" lon="-3.888863">
        <ele>1502.925</ele>
        <time>2021-07-31T08:19:15Z</time>
      </trkpt>
      <trkpt lat="40.774970" lon="-3.888907">
        <ele>1503.362</ele>
        <time>2021-07-31T08:19:18Z</time>
      </trkpt>
      <trkpt lat="40.774960" lon="-3.888946">
        <ele>1503.784</ele>
        <time>2021-07-31T08:19:22Z</time>
      </trkpt>
      <trkpt lat="40.774944" lon="-3.888993">
        <ele>1504.281</ele>
        <time>2021-07-31T08:19:25Z</time>
      </trkpt>
      <trkpt lat="40.774928" lon="-3.889055">
        <ele>1504.781</ele>
        <time>2021-07-31T08:19:29Z</time>
      </trkpt>
      <trkpt lat="40.774909" lon="-3.889067">
        <ele>1504.959</ele>
        <time>2021-07-31T08:19:30Z</time>
      </trkpt>
      <trkpt lat="40.774890" lon="-3.889072">
        <ele>1505.146</ele>
        <time>2021-07-31T08:19:31Z</time>
      </trkpt>
      <trkpt lat="40.774870" lon="-3.889075">
        <ele>1505.388</ele>
        <time>2021-07-31T08:19:33Z</time>
      </trkpt>
      <trkpt lat="40.774851" lon="-3.889075">
        <ele>1505.416</ele>
        <time>2021-07-31T08:19:35Z</time>
      </trkpt>
      <trkpt lat="40.774829" lon="-3.889078">
        <ele>1505.608</ele>
        <time>2021-07-31T08:19:37Z</time>
      </trkpt>
      <trkpt lat="40.774810" lon="-3.889072">
        <ele>1505.761</ele>
        <time>2021-07-31T08:19:39Z</time>
      </trkpt>
      <trkpt lat="40.774787" lon="-3.889072">
        <ele>1505.933</ele>
        <time>2021-07-31T08:19:42Z</time>
      </trkpt>
      <trkpt lat="40.774768" lon="-3.889083">
        <ele>1506.120</ele>
        <time>2021-07-31T08:19:44Z</time>
      </trkpt>
      <trkpt lat="40.774749" lon="-3.889107">
        <ele>1506.477</ele>
        <time>2021-07-31T08:19:46Z</time>
      </trkpt>
      <trkpt lat="40.774749" lon="-3.889134">
        <ele>1506.649</ele>
        <time>2021-07-31T08:19:48Z</time>
      </trkpt>
      <trkpt lat="40.774736" lon="-3.889154">
        <ele>1506.886</ele>
        <time>2021-07-31T08:19:50Z</time>
      </trkpt>
      <trkpt lat="40.774723" lon="-3.889182">
        <ele>1507.196</ele>
        <time>2021-07-31T08:19:52Z</time>
      </trkpt>
      <trkpt lat="40.774726" lon="-3.889208">
        <ele>1507.394</ele>
        <time>2021-07-31T08:19:55Z</time>
      </trkpt>
      <trkpt lat="40.774742" lon="-3.889230">
        <ele>1507.387</ele>
        <time>2021-07-31T08:19:58Z</time>
      </trkpt>
      <trkpt lat="40.774762" lon="-3.889240">
        <ele>1507.242</ele>
        <time>2021-07-31T08:20:01Z</time>
      </trkpt>
      <trkpt lat="40.774778" lon="-3.889268">
        <ele>1507.326</ele>
        <time>2021-07-31T08:20:03Z</time>
      </trkpt>
      <trkpt lat="40.774787" lon="-3.889293">
        <ele>1507.408</ele>
        <time>2021-07-31T08:20:06Z</time>
      </trkpt>
      <trkpt lat="40.774800" lon="-3.889313">
        <ele>1507.575</ele>
        <time>2021-07-31T08:20:08Z</time>
      </trkpt>
      <trkpt lat="40.774803" lon="-3.889343">
        <ele>1507.777</ele>
        <time>2021-07-31T08:20:10Z</time>
      </trkpt>
      <trkpt lat="40.774800" lon="-3.889368">
        <ele>1507.974</ele>
        <time>2021-07-31T08:20:12Z</time>
      </trkpt>
      <trkpt lat="40.774803" lon="-3.889400">
        <ele>1508.151</ele>
        <time>2021-07-31T08:20:14Z</time>
      </trkpt>
      <trkpt lat="40.774797" lon="-3.889430">
        <ele>1508.483</ele>
        <time>2021-07-31T08:20:17Z</time>
      </trkpt>
      <trkpt lat="40.774790" lon="-3.889464">
        <ele>1508.750</ele>
        <time>2021-07-31T08:20:20Z</time>
      </trkpt>
      <trkpt lat="40.774800" lon="-3.889498">
        <ele>1508.830</ele>
        <time>2021-07-31T08:20:22Z</time>
      </trkpt>
      <trkpt lat="40.774816" lon="-3.889525">
        <ele>1508.958</ele>
        <time>2021-07-31T08:20:24Z</time>
      </trkpt>
      <trkpt lat="40.774829" lon="-3.889547">
        <ele>1509.078</ele>
        <time>2021-07-31T08:20:26Z</time>
      </trkpt>
      <trkpt lat="40.774845" lon="-3.889562">
        <ele>1509.033</ele>
        <time>2021-07-31T08:20:27Z</time>
      </trkpt>
      <trkpt lat="40.774861" lon="-3.889583">
        <ele>1509.026</ele>
        <time>2021-07-31T08:20:30Z</time>
      </trkpt>
      <trkpt lat="40.774880" lon="-3.889598">
        <ele>1509.008</ele>
        <time>2021-07-31T08:20:32Z</time>
      </trkpt>
      <trkpt lat="40.774899" lon="-3.889624">
        <ele>1509.074</ele>
        <time>2021-07-31T08:20:35Z</time>
      </trkpt>
      <trkpt lat="40.774909" lon="-3.889648">
        <ele>1509.196</ele>
        <time>2021-07-31T08:20:37Z</time>
      </trkpt>
      <trkpt lat="40.774938" lon="-3.889668">
        <ele>1509.133</ele>
        <time>2021-07-31T08:20:39Z</time>
      </trkpt>
      <trkpt lat="40.774957" lon="-3.889676">
        <ele>1509.080</ele>
        <time>2021-07-31T08:20:41Z</time>
      </trkpt>
      <trkpt lat="40.774976" lon="-3.889690">
        <ele>1508.932</ele>
        <time>2021-07-31T08:20:43Z</time>
      </trkpt>
      <trkpt lat="40.774989" lon="-3.889710">
        <ele>1509.049</ele>
        <time>2021-07-31T08:20:45Z</time>
      </trkpt>
      <trkpt lat="40.775005" lon="-3.889723">
        <ele>1509.029</ele>
        <time>2021-07-31T08:20:47Z</time>
      </trkpt>
      <trkpt lat="40.775024" lon="-3.889733">
        <ele>1509.257</ele>
        <time>2021-07-31T08:20:49Z</time>
      </trkpt>
      <trkpt lat="40.775043" lon="-3.889735">
        <ele>1509.325</ele>
        <time>2021-07-31T08:20:53Z</time>
      </trkpt>
      <trkpt lat="40.775059" lon="-3.889748">
        <ele>1509.526</ele>
        <time>2021-07-31T08:20:55Z</time>
      </trkpt>
      <trkpt lat="40.775078" lon="-3.889758">
        <ele>1509.708</ele>
        <time>2021-07-31T08:20:57Z</time>
      </trkpt>
      <trkpt lat="40.775104" lon="-3.889767">
        <ele>1509.908</ele>
        <time>2021-07-31T08:21:00Z</time>
      </trkpt>
      <trkpt lat="40.775123" lon="-3.889793">
        <ele>1510.289</ele>
        <time>2021-07-31T08:21:06Z</time>
      </trkpt>
      <trkpt lat="40.775142" lon="-3.889815">
        <ele>1510.551</ele>
        <time>2021-07-31T08:21:10Z</time>
      </trkpt>
      <trkpt lat="40.775165" lon="-3.889830">
        <ele>1510.888</ele>
        <time>2021-07-31T08:21:15Z</time>
      </trkpt>
      <trkpt lat="40.775197" lon="-3.889844">
        <ele>1511.035</ele>
        <time>2021-07-31T08:21:17Z</time>
      </trkpt>
      <trkpt lat="40.775216" lon="-3.889858">
        <ele>1511.247</ele>
        <time>2021-07-31T08:21:19Z</time>
      </trkpt>
      <trkpt lat="40.775238" lon="-3.889883">
        <ele>1511.644</ele>
        <time>2021-07-31T08:21:22Z</time>
      </trkpt>
      <trkpt lat="40.775254" lon="-3.889905">
        <ele>1511.964</ele>
        <time>2021-07-31T08:21:26Z</time>
      </trkpt>
      <trkpt lat="40.775277" lon="-3.889908">
        <ele>1512.042</ele>
        <time>2021-07-31T08:21:29Z</time>
      </trkpt>
      <trkpt lat="40.775293" lon="-3.889922">
        <ele>1512.739</ele>
        <time>2021-07-31T08:21:36Z</time>
      </trkpt>
      <trkpt lat="40.775312" lon="-3.889935">
        <ele>1513.401</ele>
        <time>2021-07-31T08:21:39Z</time>
      </trkpt>
      <trkpt lat="40.775328" lon="-3.889912">
        <ele>1513.721</ele>
        <time>2021-07-31T08:21:41Z</time>
      </trkpt>
      <trkpt lat="40.775344" lon="-3.889893">
        <ele>1514.108</ele>
        <time>2021-07-31T08:21:44Z</time>
      </trkpt>
      <trkpt lat="40.775360" lon="-3.889868">
        <ele>1514.450</ele>
        <time>2021-07-31T08:21:47Z</time>
      </trkpt>
      <trkpt lat="40.775382" lon="-3.889877">
        <ele>1515.252</ele>
        <time>2021-07-31T08:21:50Z</time>
      </trkpt>
      <trkpt lat="40.775402" lon="-3.889882">
        <ele>1515.939</ele>
        <time>2021-07-31T08:21:53Z</time>
      </trkpt>
      <trkpt lat="40.775434" lon="-3.889882">
        <ele>1517.066</ele>
        <time>2021-07-31T08:21:55Z</time>
      </trkpt>
      <trkpt lat="40.775456" lon="-3.889878">
        <ele>1517.788</ele>
        <time>2021-07-31T08:21:57Z</time>
      </trkpt>
      <trkpt lat="40.775478" lon="-3.889878">
        <ele>1518.585</ele>
        <time>2021-07-31T08:22:00Z</time>
      </trkpt>
      <trkpt lat="40.775504" lon="-3.889887">
        <ele>1519.495</ele>
        <time>2021-07-31T08:22:02Z</time>
      </trkpt>
      <trkpt lat="40.775526" lon="-3.889898">
        <ele>1520.373</ele>
        <time>2021-07-31T08:22:05Z</time>
      </trkpt>
      <trkpt lat="40.775546" lon="-3.889892">
        <ele>1520.977</ele>
        <time>2021-07-31T08:22:09Z</time>
      </trkpt>
      <trkpt lat="40.775574" lon="-3.889900">
        <ele>1521.861</ele>
        <time>2021-07-31T08:22:12Z</time>
      </trkpt>
      <trkpt lat="40.775594" lon="-3.889903">
        <ele>1522.327</ele>
        <time>2021-07-31T08:22:13Z</time>
      </trkpt>
      <trkpt lat="40.775610" lon="-3.889888">
        <ele>1522.608</ele>
        <time>2021-07-31T08:22:16Z</time>
      </trkpt>
      <trkpt lat="40.775622" lon="-3.889910">
        <ele>1523.194</ele>
        <time>2021-07-31T08:22:21Z</time>
      </trkpt>
      <trkpt lat="40.775645" lon="-3.889913">
        <ele>1523.746</ele>
        <time>2021-07-31T08:22:24Z</time>
      </trkpt>
      <trkpt lat="40.775664" lon="-3.889930">
        <ele>1524.483</ele>
        <time>2021-07-31T08:22:27Z</time>
      </trkpt>
      <trkpt lat="40.775690" lon="-3.889930">
        <ele>1525.160</ele>
        <time>2021-07-31T08:22:30Z</time>
      </trkpt>
      <trkpt lat="40.775715" lon="-3.889905">
        <ele>1525.552</ele>
        <time>2021-07-31T08:22:33Z</time>
      </trkpt>
      <trkpt lat="40.775734" lon="-3.889907">
        <ele>1526.049</ele>
        <time>2021-07-31T08:22:37Z</time>
      </trkpt>
      <trkpt lat="40.775734" lon="-3.889882">
        <ele>1525.729</ele>
        <time>2021-07-31T08:22:41Z</time>
      </trkpt>
      <trkpt lat="40.775757" lon="-3.889868">
        <ele>1526.257</ele>
        <time>2021-07-31T08:22:44Z</time>
      </trkpt>
      <trkpt lat="40.775770" lon="-3.889892">
        <ele>1526.848</ele>
        <time>2021-07-31T08:22:47Z</time>
      </trkpt>
      <trkpt lat="40.775792" lon="-3.889895">
        <ele>1527.461</ele>
        <time>2021-07-31T08:22:55Z</time>
      </trkpt>
      <trkpt lat="40.775811" lon="-3.889872">
        <ele>1527.617</ele>
        <time>2021-07-31T08:22:58Z</time>
      </trkpt>
      <trkpt lat="40.775821" lon="-3.889842">
        <ele>1527.408</ele>
        <time>2021-07-31T08:23:01Z</time>
      </trkpt>
      <trkpt lat="40.775830" lon="-3.889817">
        <ele>1527.341</ele>
        <time>2021-07-31T08:23:03Z</time>
      </trkpt>
      <trkpt lat="40.775843" lon="-3.889800">
        <ele>1527.443</ele>
        <time>2021-07-31T08:23:07Z</time>
      </trkpt>
      <trkpt lat="40.775862" lon="-3.889820">
        <ele>1528.160</ele>
        <time>2021-07-31T08:23:09Z</time>
      </trkpt>
      <trkpt lat="40.775878" lon="-3.889832">
        <ele>1528.617</ele>
        <time>2021-07-31T08:23:10Z</time>
      </trkpt>
      <trkpt lat="40.775901" lon="-3.889840">
        <ele>1529.349</ele>
        <time>2021-07-31T08:23:12Z</time>
      </trkpt>
      <trkpt lat="40.775933" lon="-3.889840">
        <ele>1530.136</ele>
        <time>2021-07-31T08:23:14Z</time>
      </trkpt>
      <trkpt lat="40.775958" lon="-3.889852">
        <ele>1530.816</ele>
        <time>2021-07-31T08:23:17Z</time>
      </trkpt>
      <trkpt lat="40.775978" lon="-3.889852">
        <ele>1531.334</ele>
        <time>2021-07-31T08:23:19Z</time>
      </trkpt>
      <trkpt lat="40.776003" lon="-3.889855">
        <ele>1531.918</ele>
        <time>2021-07-31T08:23:21Z</time>
      </trkpt>
      <trkpt lat="40.776022" lon="-3.889865">
        <ele>1532.598</ele>
        <time>2021-07-31T08:23:26Z</time>
      </trkpt>
      <trkpt lat="40.776035" lon="-3.889847">
        <ele>1532.617</ele>
        <time>2021-07-31T08:23:31Z</time>
      </trkpt>
      <trkpt lat="40.776022" lon="-3.889866">
        <ele>1532.508</ele>
        <time>2021-07-31T08:23:39Z</time>
      </trkpt>
      <trkpt lat="40.776042" lon="-3.889872">
        <ele>1533.048</ele>
        <time>2021-07-31T08:23:44Z</time>
      </trkpt>
      <trkpt lat="40.776080" lon="-3.889825">
        <ele>1533.480</ele>
        <time>2021-07-31T08:24:04Z</time>
      </trkpt>
      <trkpt lat="40.776096" lon="-3.889848">
        <ele>1534.067</ele>
        <time>2021-07-31T08:24:05Z</time>
      </trkpt>
      <trkpt lat="40.776122" lon="-3.889847">
        <ele>1535.014</ele>
        <time>2021-07-31T08:24:07Z</time>
      </trkpt>
      <trkpt lat="40.776115" lon="-3.889810">
        <ele>1534.286</ele>
        <time>2021-07-31T08:24:11Z</time>
      </trkpt>
      <trkpt lat="40.776128" lon="-3.889792">
        <ele>1534.873</ele>
        <time>2021-07-31T08:24:12Z</time>
      </trkpt>
      <trkpt lat="40.776150" lon="-3.889793">
        <ele>1536.273</ele>
        <time>2021-07-31T08:24:17Z</time>
      </trkpt>
      <trkpt lat="40.776160" lon="-3.889815">
        <ele>1537.131</ele>
        <time>2021-07-31T08:24:20Z</time>
      </trkpt>
      <trkpt lat="40.776186" lon="-3.889808">
        <ele>1538.643</ele>
        <time>2021-07-31T08:24:22Z</time>
      </trkpt>
      <trkpt lat="40.776198" lon="-3.889788">
        <ele>1539.164</ele>
        <time>2021-07-31T08:24:24Z</time>
      </trkpt>
      <trkpt lat="40.776218" lon="-3.889780">
        <ele>1540.210</ele>
        <time>2021-07-31T08:24:28Z</time>
      </trkpt>
      <trkpt lat="40.776237" lon="-3.889802">
        <ele>1541.708</ele>
        <time>2021-07-31T08:24:33Z</time>
      </trkpt>
      <trkpt lat="40.776256" lon="-3.889785">
        <ele>1542.791</ele>
        <time>2021-07-31T08:24:38Z</time>
      </trkpt>
      <trkpt lat="40.776272" lon="-3.889767">
        <ele>1543.483</ele>
        <time>2021-07-31T08:24:40Z</time>
      </trkpt>
      <trkpt lat="40.776285" lon="-3.889735">
        <ele>1543.890</ele>
        <time>2021-07-31T08:24:43Z</time>
      </trkpt>
      <trkpt lat="40.776298" lon="-3.889713">
        <ele>1544.357</ele>
        <time>2021-07-31T08:24:47Z</time>
      </trkpt>
      <trkpt lat="40.776320" lon="-3.889713">
        <ele>1545.679</ele>
        <time>2021-07-31T08:24:51Z</time>
      </trkpt>
      <trkpt lat="40.776346" lon="-3.889703">
        <ele>1547.166</ele>
        <time>2021-07-31T08:24:54Z</time>
      </trkpt>
      <trkpt lat="40.776355" lon="-3.889725">
        <ele>1548.086</ele>
        <time>2021-07-31T08:25:07Z</time>
      </trkpt>
      <trkpt lat="40.776371" lon="-3.889738">
        <ele>1549.194</ele>
        <time>2021-07-31T08:25:14Z</time>
      </trkpt>
      <trkpt lat="40.776394" lon="-3.889743">
        <ele>1550.762</ele>
        <time>2021-07-31T08:25:16Z</time>
      </trkpt>
      <trkpt lat="40.776419" lon="-3.889743">
        <ele>1552.583</ele>
        <time>2021-07-31T08:25:18Z</time>
      </trkpt>
      <trkpt lat="40.776429" lon="-3.889722">
        <ele>1552.911</ele>
        <time>2021-07-31T08:25:23Z</time>
      </trkpt>
      <trkpt lat="40.776435" lon="-3.889698">
        <ele>1552.808</ele>
        <time>2021-07-31T08:25:28Z</time>
      </trkpt>
      <trkpt lat="40.776454" lon="-3.889673">
        <ele>1553.633</ele>
        <time>2021-07-31T08:25:31Z</time>
      </trkpt>
      <trkpt lat="40.776470" lon="-3.889652">
        <ele>1554.255</ele>
        <time>2021-07-31T08:25:33Z</time>
      </trkpt>
      <trkpt lat="40.776490" lon="-3.889628">
        <ele>1555.052</ele>
        <time>2021-07-31T08:25:36Z</time>
      </trkpt>
      <trkpt lat="40.776512" lon="-3.889638">
        <ele>1556.799</ele>
        <time>2021-07-31T08:25:41Z</time>
      </trkpt>
      <trkpt lat="40.776528" lon="-3.889627">
        <ele>1557.411</ele>
        <time>2021-07-31T08:25:43Z</time>
      </trkpt>
      <trkpt lat="40.776531" lon="-3.889652">
        <ele>1558.348</ele>
        <time>2021-07-31T08:25:48Z</time>
      </trkpt>
      <trkpt lat="40.776554" lon="-3.889653">
        <ele>1559.988</ele>
        <time>2021-07-31T08:25:53Z</time>
      </trkpt>
      <trkpt lat="40.776573" lon="-3.889662">
        <ele>1561.586</ele>
        <time>2021-07-31T08:26:00Z</time>
      </trkpt>
      <trkpt lat="40.776582" lon="-3.889683">
        <ele>1562.765</ele>
        <time>2021-07-31T08:26:07Z</time>
      </trkpt>
      <trkpt lat="40.776563" lon="-3.889675">
        <ele>1561.268</ele>
        <time>2021-07-31T08:26:11Z</time>
      </trkpt>
      <trkpt lat="40.776544" lon="-3.889685">
        <ele>1560.114</ele>
        <time>2021-07-31T08:26:15Z</time>
      </trkpt>
      <trkpt lat="40.776534" lon="-3.889712">
        <ele>1560.208</ele>
        <time>2021-07-31T08:26:19Z</time>
      </trkpt>
      <trkpt lat="40.776531" lon="-3.889747">
        <ele>1560.513</ele>
        <time>2021-07-31T08:26:22Z</time>
      </trkpt>
      <trkpt lat="40.776547" lon="-3.889768">
        <ele>1561.955</ele>
        <time>2021-07-31T08:26:27Z</time>
      </trkpt>
      <trkpt lat="40.776531" lon="-3.889787">
        <ele>1560.932</ele>
        <time>2021-07-31T08:26:31Z</time>
      </trkpt>
      <trkpt lat="40.776509" lon="-3.889787">
        <ele>1559.499</ele>
        <time>2021-07-31T08:26:33Z</time>
      </trkpt>
      <trkpt lat="40.776493" lon="-3.889808">
        <ele>1558.591</ele>
        <time>2021-07-31T08:26:35Z</time>
      </trkpt>
      <trkpt lat="40.776477" lon="-3.889824">
        <ele>1557.648</ele>
        <time>2021-07-31T08:26:37Z</time>
      </trkpt>
      <trkpt lat="40.776454" lon="-3.889847">
        <ele>1556.358</ele>
        <time>2021-07-31T08:26:40Z</time>
      </trkpt>
      <trkpt lat="40.776435" lon="-3.889868">
        <ele>1555.236</ele>
        <time>2021-07-31T08:26:43Z</time>
      </trkpt>
      <trkpt lat="40.776454" lon="-3.889880">
        <ele>1556.732</ele>
        <time>2021-07-31T08:26:46Z</time>
      </trkpt>
      <trkpt lat="40.776470" lon="-3.889898">
        <ele>1558.092</ele>
        <time>2021-07-31T08:26:50Z</time>
      </trkpt>
      <trkpt lat="40.776490" lon="-3.889908">
        <ele>1559.511</ele>
        <time>2021-07-31T08:26:54Z</time>
      </trkpt>
      <trkpt lat="40.776506" lon="-3.889923">
        <ele>1560.708</ele>
        <time>2021-07-31T08:26:56Z</time>
      </trkpt>
      <trkpt lat="40.776512" lon="-3.889952">
        <ele>1561.410</ele>
        <time>2021-07-31T08:26:58Z</time>
      </trkpt>
      <trkpt lat="40.776512" lon="-3.889978">
        <ele>1561.792</ele>
        <time>2021-07-31T08:26:59Z</time>
      </trkpt>
      <trkpt lat="40.776509" lon="-3.890003">
        <ele>1561.849</ele>
        <time>2021-07-31T08:27:01Z</time>
      </trkpt>
      <trkpt lat="40.776509" lon="-3.890032">
        <ele>1562.166</ele>
        <time>2021-07-31T08:27:04Z</time>
      </trkpt>
      <trkpt lat="40.776509" lon="-3.890057">
        <ele>1562.488</ele>
        <time>2021-07-31T08:27:06Z</time>
      </trkpt>
      <trkpt lat="40.776531" lon="-3.890068">
        <ele>1563.955</ele>
        <time>2021-07-31T08:27:10Z</time>
      </trkpt>
      <trkpt lat="40.776528" lon="-3.890095">
        <ele>1564.035</ele>
        <time>2021-07-31T08:27:18Z</time>
      </trkpt>
      <trkpt lat="40.776547" lon="-3.890113">
        <ele>1565.413</ele>
        <time>2021-07-31T08:27:21Z</time>
      </trkpt>
      <trkpt lat="40.776566" lon="-3.890108">
        <ele>1566.553</ele>
        <time>2021-07-31T08:27:26Z</time>
      </trkpt>
      <trkpt lat="40.776570" lon="-3.890137">
        <ele>1567.104</ele>
        <time>2021-07-31T08:27:36Z</time>
      </trkpt>
      <trkpt lat="40.776570" lon="-3.890167">
        <ele>1567.414</ele>
        <time>2021-07-31T08:27:38Z</time>
      </trkpt>
      <trkpt lat="40.776563" lon="-3.890197">
        <ele>1567.208</ele>
        <time>2021-07-31T08:27:44Z</time>
      </trkpt>
      <trkpt lat="40.776557" lon="-3.890220">
        <ele>1567.142</ele>
        <time>2021-07-31T08:27:46Z</time>
      </trkpt>
      <trkpt lat="40.776554" lon="-3.890245">
        <ele>1567.264</ele>
        <time>2021-07-31T08:27:49Z</time>
      </trkpt>
      <trkpt lat="40.776570" lon="-3.890263">
        <ele>1568.351</ele>
        <time>2021-07-31T08:27:52Z</time>
      </trkpt>
      <trkpt lat="40.776586" lon="-3.890293">
        <ele>1569.578</ele>
        <time>2021-07-31T08:27:58Z</time>
      </trkpt>
      <trkpt lat="40.776605" lon="-3.890267">
        <ele>1570.420</ele>
        <time>2021-07-31T08:28:05Z</time>
      </trkpt>
      <trkpt lat="40.776630" lon="-3.890252">
        <ele>1571.787</ele>
        <time>2021-07-31T08:28:07Z</time>
      </trkpt>
      <trkpt lat="40.776646" lon="-3.890232">
        <ele>1572.537</ele>
        <time>2021-07-31T08:28:09Z</time>
      </trkpt>
      <trkpt lat="40.776653" lon="-3.890204">
        <ele>1572.735</ele>
        <time>2021-07-31T08:28:14Z</time>
      </trkpt>
      <trkpt lat="40.776672" lon="-3.890205">
        <ele>1573.963</ele>
        <time>2021-07-31T08:28:19Z</time>
      </trkpt>
      <trkpt lat="40.776685" lon="-3.890227">
        <ele>1575.044</ele>
        <time>2021-07-31T08:28:31Z</time>
      </trkpt>
      <trkpt lat="40.776678" lon="-3.890253">
        <ele>1574.718</ele>
        <time>2021-07-31T08:28:34Z</time>
      </trkpt>
      <trkpt lat="40.776694" lon="-3.890268">
        <ele>1575.908</ele>
        <time>2021-07-31T08:28:36Z</time>
      </trkpt>
      <trkpt lat="40.776714" lon="-3.890268">
        <ele>1577.493</ele>
        <time>2021-07-31T08:28:39Z</time>
      </trkpt>
      <trkpt lat="40.776726" lon="-3.890292">
        <ele>1578.445</ele>
        <time>2021-07-31T08:28:43Z</time>
      </trkpt>
      <trkpt lat="40.776710" lon="-3.890312">
        <ele>1577.392</ele>
        <time>2021-07-31T08:28:48Z</time>
      </trkpt>
      <trkpt lat="40.776733" lon="-3.890328">
        <ele>1579.169</ele>
        <time>2021-07-31T08:28:55Z</time>
      </trkpt>
      <trkpt lat="40.776752" lon="-3.890332">
        <ele>1580.581</ele>
        <time>2021-07-31T08:28:56Z</time>
      </trkpt>
      <trkpt lat="40.776784" lon="-3.890337">
        <ele>1582.838</ele>
        <time>2021-07-31T08:28:58Z</time>
      </trkpt>
      <trkpt lat="40.776842" lon="-3.890313">
        <ele>1586.888</ele>
        <time>2021-07-31T08:29:30Z</time>
      </trkpt>
      <trkpt lat="40.776698" lon="-3.890160">
        <ele>1575.686</ele>
        <time>2021-07-31T08:29:32Z</time>
      </trkpt>
      <trkpt lat="40.776698" lon="-3.890194">
        <ele>1575.874</ele>
        <time>2021-07-31T08:29:36Z</time>
      </trkpt>
      <trkpt lat="40.776717" lon="-3.890240">
        <ele>1577.556</ele>
        <time>2021-07-31T08:29:37Z</time>
      </trkpt>
      <trkpt lat="40.776746" lon="-3.890310">
        <ele>1579.921</ele>
        <time>2021-07-31T08:29:51Z</time>
      </trkpt>
      <trkpt lat="40.776733" lon="-3.890292">
        <ele>1578.908</ele>
        <time>2021-07-31T08:30:16Z</time>
      </trkpt>
      <trkpt lat="40.776717" lon="-3.890312">
        <ele>1577.824</ele>
        <time>2021-07-31T08:30:21Z</time>
      </trkpt>
      <trkpt lat="40.776742" lon="-3.890303">
        <ele>1579.676</ele>
        <time>2021-07-31T08:30:30Z</time>
      </trkpt>
      <trkpt lat="40.776768" lon="-3.890324">
        <ele>1581.633</ele>
        <time>2021-07-31T08:30:32Z</time>
      </trkpt>
      <trkpt lat="40.776797" lon="-3.890353">
        <ele>1583.820</ele>
        <time>2021-07-31T08:30:39Z</time>
      </trkpt>
      <trkpt lat="40.776816" lon="-3.890348">
        <ele>1585.122</ele>
        <time>2021-07-31T08:30:47Z</time>
      </trkpt>
      <trkpt lat="40.776803" lon="-3.890376">
        <ele>1584.349</ele>
        <time>2021-07-31T08:30:56Z</time>
      </trkpt>
      <trkpt lat="40.776787" lon="-3.890350">
        <ele>1583.189</ele>
        <time>2021-07-31T08:31:06Z</time>
      </trkpt>
      <trkpt lat="40.776762" lon="-3.890213">
        <ele>1580.777</ele>
        <time>2021-07-31T08:31:55Z</time>
      </trkpt>
      <trkpt lat="40.776829" lon="-3.890198">
        <ele>1585.897</ele>
        <time>2021-07-31T08:33:27Z</time>
      </trkpt>
      <trkpt lat="40.776867" lon="-3.890218">
        <ele>1588.623</ele>
        <time>2021-07-31T08:33:29Z</time>
      </trkpt>
      <trkpt lat="40.776890" lon="-3.890222">
        <ele>1590.325</ele>
        <time>2021-07-31T08:33:31Z</time>
      </trkpt>
      <trkpt lat="40.776902" lon="-3.890197">
        <ele>1591.308</ele>
        <time>2021-07-31T08:33:38Z</time>
      </trkpt>
      <trkpt lat="40.776925" lon="-3.890197">
        <ele>1593.196</ele>
        <time>2021-07-31T08:33:41Z</time>
      </trkpt>
      <trkpt lat="40.776893" lon="-3.890172">
        <ele>1590.858</ele>
        <time>2021-07-31T08:36:04Z</time>
      </trkpt>
      <trkpt lat="40.776861" lon="-3.890187">
        <ele>1588.315</ele>
        <time>2021-07-31T08:36:09Z</time>
      </trkpt>
      <trkpt lat="40.776851" lon="-3.890198">
        <ele>1587.512</ele>
        <time>2021-07-31T08:36:11Z</time>
      </trkpt>
      <trkpt lat="40.776832" lon="-3.890216">
        <ele>1586.064</ele>
        <time>2021-07-31T08:36:15Z</time>
      </trkpt>
      <trkpt lat="40.776832" lon="-3.890262">
        <ele>1585.961</ele>
        <time>2021-07-31T08:36:18Z</time>
      </trkpt>
      <trkpt lat="40.776832" lon="-3.890273">
        <ele>1585.981</ele>
        <time>2021-07-31T08:36:19Z</time>
      </trkpt>
      <trkpt lat="40.776826" lon="-3.890297">
        <ele>1585.649</ele>
        <time>2021-07-31T08:36:24Z</time>
      </trkpt>
      <trkpt lat="40.776845" lon="-3.890278">
        <ele>1586.878</ele>
        <time>2021-07-31T08:36:29Z</time>
      </trkpt>
      <trkpt lat="40.776883" lon="-3.890235">
        <ele>1589.733</ele>
        <time>2021-07-31T08:37:33Z</time>
      </trkpt>
      <trkpt lat="40.776902" lon="-3.890182">
        <ele>1591.426</ele>
        <time>2021-07-31T08:37:37Z</time>
      </trkpt>
      <trkpt lat="40.776909" lon="-3.890155">
        <ele>1592.108</ele>
        <time>2021-07-31T08:37:38Z</time>
      </trkpt>
      <trkpt lat="40.776909" lon="-3.890128">
        <ele>1592.324</ele>
        <time>2021-07-31T08:37:40Z</time>
      </trkpt>
      <trkpt lat="40.776912" lon="-3.890088">
        <ele>1592.766</ele>
        <time>2021-07-31T08:37:42Z</time>
      </trkpt>
      <trkpt lat="40.776925" lon="-3.890065">
        <ele>1593.923</ele>
        <time>2021-07-31T08:37:43Z</time>
      </trkpt>
      <trkpt lat="40.776909" lon="-3.890033">
        <ele>1592.850</ele>
        <time>2021-07-31T08:37:45Z</time>
      </trkpt>
      <trkpt lat="40.776890" lon="-3.890020">
        <ele>1591.262</ele>
        <time>2021-07-31T08:37:46Z</time>
      </trkpt>
      <trkpt lat="40.776864" lon="-3.890008">
        <ele>1589.089</ele>
        <time>2021-07-31T08:37:48Z</time>
      </trkpt>
      <trkpt lat="40.776835" lon="-3.889996">
        <ele>1586.689</ele>
        <time>2021-07-31T08:37:50Z</time>
      </trkpt>
      <trkpt lat="40.776816" lon="-3.889996">
        <ele>1584.987</ele>
        <time>2021-07-31T08:37:52Z</time>
      </trkpt>
      <trkpt lat="40.776797" lon="-3.890015">
        <ele>1583.317</ele>
        <time>2021-07-31T08:37:54Z</time>
      </trkpt>
      <trkpt lat="40.776778" lon="-3.890042">
        <ele>1581.787</ele>
        <time>2021-07-31T08:37:58Z</time>
      </trkpt>
      <trkpt lat="40.776787" lon="-3.890077">
        <ele>1582.515</ele>
        <time>2021-07-31T08:38:27Z</time>
      </trkpt>
      <trkpt lat="40.776784" lon="-3.890105">
        <ele>1582.308</ele>
        <time>2021-07-31T08:38:31Z</time>
      </trkpt>
      <trkpt lat="40.776784" lon="-3.890142">
        <ele>1582.328</ele>
        <time>2021-07-31T08:38:37Z</time>
      </trkpt>
      <trkpt lat="40.776765" lon="-3.890187">
        <ele>1580.980</ele>
        <time>2021-07-31T08:39:05Z</time>
      </trkpt>
      <trkpt lat="40.776752" lon="-3.890225">
        <ele>1580.087</ele>
        <time>2021-07-31T08:39:08Z</time>
      </trkpt>
      <trkpt lat="40.776749" lon="-3.890248">
        <ele>1579.824</ele>
        <time>2021-07-31T08:39:12Z</time>
      </trkpt>
      <trkpt lat="40.776736" lon="-3.890272">
        <ele>1579.036</ele>
        <time>2021-07-31T08:39:16Z</time>
      </trkpt>
      <trkpt lat="40.776765" lon="-3.890270">
        <ele>1581.133</ele>
        <time>2021-07-31T08:39:19Z</time>
      </trkpt>
      <trkpt lat="40.776787" lon="-3.890265">
        <ele>1582.763</ele>
        <time>2021-07-31T08:39:21Z</time>
      </trkpt>
      <trkpt lat="40.776822" lon="-3.890265">
        <ele>1585.211</ele>
        <time>2021-07-31T08:39:24Z</time>
      </trkpt>
      <trkpt lat="40.776842" lon="-3.890248">
        <ele>1586.718</ele>
        <time>2021-07-31T08:39:29Z</time>
      </trkpt>
      <trkpt lat="40.776861" lon="-3.890235">
        <ele>1588.198</ele>
        <time>2021-07-31T08:39:31Z</time>
      </trkpt>
      <trkpt lat="40.776874" lon="-3.890216">
        <ele>1589.117</ele>
        <time>2021-07-31T08:39:35Z</time>
      </trkpt>
      <trkpt lat="40.776877" lon="-3.890190">
        <ele>1589.508</ele>
        <time>2021-07-31T08:39:41Z</time>
      </trkpt>
      <trkpt lat="40.776890" lon="-3.890167">
        <ele>1590.638</ele>
        <time>2021-07-31T08:39:46Z</time>
      </trkpt>
      <trkpt lat="40.776874" lon="-3.890187">
        <ele>1589.230</ele>
        <time>2021-07-31T08:39:49Z</time>
      </trkpt>
      <trkpt lat="40.776896" lon="-3.890174">
        <ele>1591.097</ele>
        <time>2021-07-31T08:39:55Z</time>
      </trkpt>
      <trkpt lat="40.776877" lon="-3.890188">
        <ele>1589.514</ele>
        <time>2021-07-31T08:40:00Z</time>
      </trkpt>
      <trkpt lat="40.776854" lon="-3.890213">
        <ele>1587.726</ele>
        <time>2021-07-31T08:40:02Z</time>
      </trkpt>
      <trkpt lat="40.776842" lon="-3.890235">
        <ele>1586.753</ele>
        <time>2021-07-31T08:40:04Z</time>
      </trkpt>
      <trkpt lat="40.776864" lon="-3.890228">
        <ele>1588.423</ele>
        <time>2021-07-31T08:40:15Z</time>
      </trkpt>
      <trkpt lat="40.776886" lon="-3.890188">
        <ele>1590.281</ele>
        <time>2021-07-31T08:40:53Z</time>
      </trkpt>
      <trkpt lat="40.776902" lon="-3.890175">
        <ele>1591.591</ele>
        <time>2021-07-31T08:40:56Z</time>
      </trkpt>
      <trkpt lat="40.776922" lon="-3.890160">
        <ele>1593.181</ele>
        <time>2021-07-31T08:41:00Z</time>
      </trkpt>
      <trkpt lat="40.776944" lon="-3.890155">
        <ele>1594.819</ele>
        <time>2021-07-31T08:41:03Z</time>
      </trkpt>
      <trkpt lat="40.776950" lon="-3.890128">
        <ele>1595.008</ele>
        <time>2021-07-31T08:41:05Z</time>
      </trkpt>
      <trkpt lat="40.776934" lon="-3.890147">
        <ele>1594.126</ele>
        <time>2021-07-31T08:41:17Z</time>
      </trkpt>
      <trkpt lat="40.776912" lon="-3.890158">
        <ele>1592.318</ele>
        <time>2021-07-31T08:41:20Z</time>
      </trkpt>
      <trkpt lat="40.776928" lon="-3.890174">
        <ele>1593.585</ele>
        <time>2021-07-31T08:41:29Z</time>
      </trkpt>
      <trkpt lat="40.776925" lon="-3.890235">
        <ele>1592.972</ele>
        <time>2021-07-31T08:43:06Z</time>
      </trkpt>
      <trkpt lat="40.776931" lon="-3.890210">
        <ele>1593.584</ele>
        <time>2021-07-31T08:43:47Z</time>
      </trkpt>
      <trkpt lat="40.776960" lon="-3.890204">
        <ele>1594.371</ele>
        <time>2021-07-31T08:43:50Z</time>
      </trkpt>
      <trkpt lat="40.776976" lon="-3.890204">
        <ele>1594.171</ele>
        <time>2021-07-31T08:43:57Z</time>
      </trkpt>
      <trkpt lat="40.776986" lon="-3.890213">
        <ele>1593.999</ele>
        <time>2021-07-31T08:43:59Z</time>
      </trkpt>
      <trkpt lat="40.776986" lon="-3.890185">
        <ele>1594.027</ele>
        <time>2021-07-31T08:44:06Z</time>
      </trkpt>
      <trkpt lat="40.777002" lon="-3.890170">
        <ele>1593.868</ele>
        <time>2021-07-31T08:44:09Z</time>
      </trkpt>
      <trkpt lat="40.777021" lon="-3.890170">
        <ele>1593.514</ele>
        <time>2021-07-31T08:44:13Z</time>
      </trkpt>
      <trkpt lat="40.777027" lon="-3.890205">
        <ele>1593.408</ele>
        <time>2021-07-31T08:44:45Z</time>
      </trkpt>
      <trkpt lat="40.777030" lon="-3.890233">
        <ele>1593.489</ele>
        <time>2021-07-31T08:44:47Z</time>
      </trkpt>
      <trkpt lat="40.777021" lon="-3.890265">
        <ele>1593.581</ele>
        <time>2021-07-31T08:44:50Z</time>
      </trkpt>
      <trkpt lat="40.777021" lon="-3.890297">
        <ele>1593.728</ele>
        <time>2021-07-31T08:44:51Z</time>
      </trkpt>
      <trkpt lat="40.777024" lon="-3.890327">
        <ele>1594.065</ele>
        <time>2021-07-31T08:44:52Z</time>
      </trkpt>
      <trkpt lat="40.777021" lon="-3.890352">
        <ele>1594.267</ele>
        <time>2021-07-31T08:44:53Z</time>
      </trkpt>
      <trkpt lat="40.777024" lon="-3.890380">
        <ele>1594.514</ele>
        <time>2021-07-31T08:44:55Z</time>
      </trkpt>
      <trkpt lat="40.777011" lon="-3.890402">
        <ele>1594.754</ele>
        <time>2021-07-31T08:44:58Z</time>
      </trkpt>
      <trkpt lat="40.777011" lon="-3.890427">
        <ele>1595.092</ele>
        <time>2021-07-31T08:45:02Z</time>
      </trkpt>
      <trkpt lat="40.776989" lon="-3.890437">
        <ele>1594.958</ele>
        <time>2021-07-31T08:45:04Z</time>
      </trkpt>
      <trkpt lat="40.776986" lon="-3.890470">
        <ele>1595.152</ele>
        <time>2021-07-31T08:45:09Z</time>
      </trkpt>
      <trkpt lat="40.776992" lon="-3.890497">
        <ele>1595.417</ele>
        <time>2021-07-31T08:45:12Z</time>
      </trkpt>
      <trkpt lat="40.777005" lon="-3.890522">
        <ele>1595.808</ele>
        <time>2021-07-31T08:45:16Z</time>
      </trkpt>
      <trkpt lat="40.777024" lon="-3.890540">
        <ele>1596.382</ele>
        <time>2021-07-31T08:45:20Z</time>
      </trkpt>
      <trkpt lat="40.777040" lon="-3.890554">
        <ele>1596.744</ele>
        <time>2021-07-31T08:45:21Z</time>
      </trkpt>
      <trkpt lat="40.777046" lon="-3.890578">
        <ele>1597.331</ele>
        <time>2021-07-31T08:45:23Z</time>
      </trkpt>
      <trkpt lat="40.777040" lon="-3.890607">
        <ele>1597.868</ele>
        <time>2021-07-31T08:45:26Z</time>
      </trkpt>
      <trkpt lat="40.777014" lon="-3.890647">
        <ele>1598.080</ele>
        <time>2021-07-31T08:45:29Z</time>
      </trkpt>
      <trkpt lat="40.777011" lon="-3.890665">
        <ele>1598.247</ele>
        <time>2021-07-31T08:45:30Z</time>
      </trkpt>
      <trkpt lat="40.777008" lon="-3.890698">
        <ele>1598.817</ele>
        <time>2021-07-31T08:45:33Z</time>
      </trkpt>
      <trkpt lat="40.777008" lon="-3.890728">
        <ele>1599.395</ele>
        <time>2021-07-31T08:45:36Z</time>
      </trkpt>
      <trkpt lat="40.776989" lon="-3.890726">
        <ele>1598.749</ele>
        <time>2021-07-31T08:45:38Z</time>
      </trkpt>
      <trkpt lat="40.776995" lon="-3.890757">
        <ele>1599.502</ele>
        <time>2021-07-31T08:45:46Z</time>
      </trkpt>
      <trkpt lat="40.777021" lon="-3.890782">
        <ele>1600.822</ele>
        <time>2021-07-31T08:45:48Z</time>
      </trkpt>
      <trkpt lat="40.777027" lon="-3.890813">
        <ele>1601.608</ele>
        <time>2021-07-31T08:45:51Z</time>
      </trkpt>
      <trkpt lat="40.777024" lon="-3.890838">
        <ele>1601.931</ele>
        <time>2021-07-31T08:45:53Z</time>
      </trkpt>
      <trkpt lat="40.777014" lon="-3.890865">
        <ele>1601.783</ele>
        <time>2021-07-31T08:45:55Z</time>
      </trkpt>
      <trkpt lat="40.777021" lon="-3.890892">
        <ele>1602.130</ele>
        <time>2021-07-31T08:45:57Z</time>
      </trkpt>
      <trkpt lat="40.777005" lon="-3.890918">
        <ele>1601.787</ele>
        <time>2021-07-31T08:45:59Z</time>
      </trkpt>
      <trkpt lat="40.776989" lon="-3.890945">
        <ele>1601.269</ele>
        <time>2021-07-31T08:46:02Z</time>
      </trkpt>
      <trkpt lat="40.777011" lon="-3.890978">
        <ele>1602.376</ele>
        <time>2021-07-31T08:46:05Z</time>
      </trkpt>
      <trkpt lat="40.777011" lon="-3.891005">
        <ele>1602.516</ele>
        <time>2021-07-31T08:46:07Z</time>
      </trkpt>
      <trkpt lat="40.777008" lon="-3.891034">
        <ele>1602.584</ele>
        <time>2021-07-31T08:46:13Z</time>
      </trkpt>
      <trkpt lat="40.777030" lon="-3.891035">
        <ele>1603.535</ele>
        <time>2021-07-31T08:46:19Z</time>
      </trkpt>
      <trkpt lat="40.777053" lon="-3.891038">
        <ele>1604.586</ele>
        <time>2021-07-31T08:46:22Z</time>
      </trkpt>
      <trkpt lat="40.777069" lon="-3.891053">
        <ele>1605.314</ele>
        <time>2021-07-31T08:46:26Z</time>
      </trkpt>
      <trkpt lat="40.777082" lon="-3.891086">
        <ele>1606.208</ele>
        <time>2021-07-31T08:46:29Z</time>
      </trkpt>
      <trkpt lat="40.777066" lon="-3.891115">
        <ele>1605.720</ele>
        <time>2021-07-31T08:46:31Z</time>
      </trkpt>
      <trkpt lat="40.777069" lon="-3.891140">
        <ele>1605.862</ele>
        <time>2021-07-31T08:46:34Z</time>
      </trkpt>
      <trkpt lat="40.777088" lon="-3.891132">
        <ele>1606.789</ele>
        <time>2021-07-31T08:46:37Z</time>
      </trkpt>
      <trkpt lat="40.777110" lon="-3.891138">
        <ele>1607.836</ele>
        <time>2021-07-31T08:46:41Z</time>
      </trkpt>
      <trkpt lat="40.777130" lon="-3.891130">
        <ele>1608.888</ele>
        <time>2021-07-31T08:46:48Z</time>
      </trkpt>
      <trkpt lat="40.777120" lon="-3.891157">
        <ele>1608.335</ele>
        <time>2021-07-31T08:46:53Z</time>
      </trkpt>
      <trkpt lat="40.777149" lon="-3.891180">
        <ele>1609.975</ele>
        <time>2021-07-31T08:46:58Z</time>
      </trkpt>
      <trkpt lat="40.777165" lon="-3.891193">
        <ele>1610.883</ele>
        <time>2021-07-31T08:47:00Z</time>
      </trkpt>
      <trkpt lat="40.777184" lon="-3.891207">
        <ele>1612.058</ele>
        <time>2021-07-31T08:47:02Z</time>
      </trkpt>
      <trkpt lat="40.777171" lon="-3.891187">
        <ele>1611.152</ele>
        <time>2021-07-31T08:47:13Z</time>
      </trkpt>
      <trkpt lat="40.777190" lon="-3.891182">
        <ele>1612.117</ele>
        <time>2021-07-31T08:47:19Z</time>
      </trkpt>
      <trkpt lat="40.777187" lon="-3.891212">
        <ele>1612.208</ele>
        <time>2021-07-31T08:47:23Z</time>
      </trkpt>
      <trkpt lat="40.777190" lon="-3.891238">
        <ele>1612.552</ele>
        <time>2021-07-31T08:47:26Z</time>
      </trkpt>
      <trkpt lat="40.777219" lon="-3.891227">
        <ele>1614.144</ele>
        <time>2021-07-31T08:47:29Z</time>
      </trkpt>
      <trkpt lat="40.777226" lon="-3.891202">
        <ele>1614.251</ele>
        <time>2021-07-31T08:47:33Z</time>
      </trkpt>
      <trkpt lat="40.777245" lon="-3.891205">
        <ele>1615.548</ele>
        <time>2021-07-31T08:47:39Z</time>
      </trkpt>
      <trkpt lat="40.777264" lon="-3.891205">
        <ele>1616.740</ele>
        <time>2021-07-31T08:47:41Z</time>
      </trkpt>
      <trkpt lat="40.777251" lon="-3.891187">
        <ele>1615.697</ele>
        <time>2021-07-31T08:47:47Z</time>
      </trkpt>
      <trkpt lat="40.777267" lon="-3.891212">
        <ele>1617.077</ele>
        <time>2021-07-31T08:47:51Z</time>
      </trkpt>
      <trkpt lat="40.777274" lon="-3.891237">
        <ele>1617.885</ele>
        <time>2021-07-31T08:47:54Z</time>
      </trkpt>
      <trkpt lat="40.777283" lon="-3.891268">
        <ele>1618.812</ele>
        <time>2021-07-31T08:47:57Z</time>
      </trkpt>
      <trkpt lat="40.777286" lon="-3.891300">
        <ele>1619.532</ele>
        <time>2021-07-31T08:48:00Z</time>
      </trkpt>
      <trkpt lat="40.777293" lon="-3.891327">
        <ele>1620.405</ele>
        <time>2021-07-31T08:48:05Z</time>
      </trkpt>
      <trkpt lat="40.777302" lon="-3.891355">
        <ele>1621.508</ele>
        <time>2021-07-31T08:48:16Z</time>
      </trkpt>
      <trkpt lat="40.777302" lon="-3.891385">
        <ele>1622.018</ele>
        <time>2021-07-31T08:48:19Z</time>
      </trkpt>
      <trkpt lat="40.777312" lon="-3.891420">
        <ele>1623.580</ele>
        <time>2021-07-31T08:48:50Z</time>
      </trkpt>
      <trkpt lat="40.777306" lon="-3.891462">
        <ele>1623.977</ele>
        <time>2021-07-31T08:48:52Z</time>
      </trkpt>
      <trkpt lat="40.777302" lon="-3.891502">
        <ele>1624.584</ele>
        <time>2021-07-31T08:48:54Z</time>
      </trkpt>
      <trkpt lat="40.777302" lon="-3.891535">
        <ele>1625.256</ele>
        <time>2021-07-31T08:48:57Z</time>
      </trkpt>
      <trkpt lat="40.777286" lon="-3.891552">
        <ele>1624.323</ele>
        <time>2021-07-31T08:49:08Z</time>
      </trkpt>
      <trkpt lat="40.777267" lon="-3.891565">
        <ele>1623.213</ele>
        <time>2021-07-31T08:49:11Z</time>
      </trkpt>
      <trkpt lat="40.777270" lon="-3.891592">
        <ele>1624.021</ele>
        <time>2021-07-31T08:49:14Z</time>
      </trkpt>
      <trkpt lat="40.777302" lon="-3.891592">
        <ele>1626.482</ele>
        <time>2021-07-31T08:49:17Z</time>
      </trkpt>
      <trkpt lat="40.777322" lon="-3.891580">
        <ele>1627.743</ele>
        <time>2021-07-31T08:49:21Z</time>
      </trkpt>
      <trkpt lat="40.777338" lon="-3.891560">
        <ele>1628.417</ele>
        <time>2021-07-31T08:49:26Z</time>
      </trkpt>
      <trkpt lat="40.777363" lon="-3.891568">
        <ele>1630.508</ele>
        <time>2021-07-31T08:49:35Z</time>
      </trkpt>
      <trkpt lat="40.777347" lon="-3.891598">
        <ele>1630.085</ele>
        <time>2021-07-31T08:50:05Z</time>
      </trkpt>
      <trkpt lat="40.777354" lon="-3.891632">
        <ele>1631.227</ele>
        <time>2021-07-31T08:50:14Z</time>
      </trkpt>
      <trkpt lat="40.777354" lon="-3.891660">
        <ele>1631.884</ele>
        <time>2021-07-31T08:50:17Z</time>
      </trkpt>
      <trkpt lat="40.777360" lon="-3.891687">
        <ele>1632.871</ele>
        <time>2021-07-31T08:50:19Z</time>
      </trkpt>
      <trkpt lat="40.777354" lon="-3.891717">
        <ele>1633.073</ele>
        <time>2021-07-31T08:50:22Z</time>
      </trkpt>
      <trkpt lat="40.777366" lon="-3.891734">
        <ele>1634.280</ele>
        <time>2021-07-31T08:50:24Z</time>
      </trkpt>
      <trkpt lat="40.777370" lon="-3.891758">
        <ele>1635.040</ele>
        <time>2021-07-31T08:50:27Z</time>
      </trkpt>
      <trkpt lat="40.777379" lon="-3.891780">
        <ele>1636.128</ele>
        <time>2021-07-31T08:50:29Z</time>
      </trkpt>
      <trkpt lat="40.777402" lon="-3.891780">
        <ele>1637.991</ele>
        <time>2021-07-31T08:50:33Z</time>
      </trkpt>
      <trkpt lat="40.777421" lon="-3.891773">
        <ele>1639.281</ele>
        <time>2021-07-31T08:50:36Z</time>
      </trkpt>
      <trkpt lat="40.777411" lon="-3.891807">
        <ele>1639.119</ele>
        <time>2021-07-31T08:51:20Z</time>
      </trkpt>
      <trkpt lat="40.777424" lon="-3.891827">
        <ele>1640.608</ele>
        <time>2021-07-31T08:51:24Z</time>
      </trkpt>
      <trkpt lat="40.777405" lon="-3.891838">
        <ele>1639.386</ele>
        <time>2021-07-31T08:51:36Z</time>
      </trkpt>
      <trkpt lat="40.777382" lon="-3.891853">
        <ele>1637.868</ele>
        <time>2021-07-31T08:51:40Z</time>
      </trkpt>
      <trkpt lat="40.777398" lon="-3.891868">
        <ele>1639.455</ele>
        <time>2021-07-31T08:51:48Z</time>
      </trkpt>
      <trkpt lat="40.777402" lon="-3.891893">
        <ele>1640.272</ele>
        <time>2021-07-31T08:51:52Z</time>
      </trkpt>
      <trkpt lat="40.777392" lon="-3.891914">
        <ele>1639.824</ele>
        <time>2021-07-31T08:51:54Z</time>
      </trkpt>
      <trkpt lat="40.777402" lon="-3.891937">
        <ele>1641.151</ele>
        <time>2021-07-31T08:51:56Z</time>
      </trkpt>
      <trkpt lat="40.777398" lon="-3.891966">
        <ele>1641.371</ele>
        <time>2021-07-31T08:52:00Z</time>
      </trkpt>
      <trkpt lat="40.777392" lon="-3.892005">
        <ele>1641.449</ele>
        <time>2021-07-31T08:52:03Z</time>
      </trkpt>
      <trkpt lat="40.777386" lon="-3.892035">
        <ele>1641.438</ele>
        <time>2021-07-31T08:52:05Z</time>
      </trkpt>
      <trkpt lat="40.777382" lon="-3.892062">
        <ele>1641.570</ele>
        <time>2021-07-31T08:52:07Z</time>
      </trkpt>
      <trkpt lat="40.777379" lon="-3.892095">
        <ele>1641.817</ele>
        <time>2021-07-31T08:52:09Z</time>
      </trkpt>
      <trkpt lat="40.777382" lon="-3.892123">
        <ele>1642.508</ele>
        <time>2021-07-31T08:52:14Z</time>
      </trkpt>
      <trkpt lat="40.777392" lon="-3.892152">
        <ele>1643.750</ele>
        <time>2021-07-31T08:52:17Z</time>
      </trkpt>
      <trkpt lat="40.777392" lon="-3.892178">
        <ele>1644.172</ele>
        <time>2021-07-31T08:52:22Z</time>
      </trkpt>
      <trkpt lat="40.777392" lon="-3.892205">
        <ele>1644.649</ele>
        <time>2021-07-31T08:52:25Z</time>
      </trkpt>
      <trkpt lat="40.777411" lon="-3.892207">
        <ele>1646.096</ele>
        <time>2021-07-31T08:52:28Z</time>
      </trkpt>
      <trkpt lat="40.777430" lon="-3.892238">
        <ele>1648.228</ele>
        <time>2021-07-31T08:52:31Z</time>
      </trkpt>
      <trkpt lat="40.777440" lon="-3.892262">
        <ele>1649.625</ele>
        <time>2021-07-31T08:52:34Z</time>
      </trkpt>
      <trkpt lat="40.777450" lon="-3.892287">
        <ele>1651.165</ele>
        <time>2021-07-31T08:53:02Z</time>
      </trkpt>
      <trkpt lat="40.777450" lon="-3.892314">
        <ele>1651.963</ele>
        <time>2021-07-31T08:53:04Z</time>
      </trkpt>
      <trkpt lat="40.777446" lon="-3.892345">
        <ele>1652.569</ele>
        <time>2021-07-31T08:53:07Z</time>
      </trkpt>
      <trkpt lat="40.777459" lon="-3.892370">
        <ele>1654.204</ele>
        <time>2021-07-31T08:53:09Z</time>
      </trkpt>
      <trkpt lat="40.777472" lon="-3.892393">
        <ele>1655.824</ele>
        <time>2021-07-31T08:53:23Z</time>
      </trkpt>
      <trkpt lat="40.777491" lon="-3.892398">
        <ele>1657.408</ele>
        <time>2021-07-31T08:53:27Z</time>
      </trkpt>
      <trkpt lat="40.777517" lon="-3.892388">
        <ele>1658.853</ele>
        <time>2021-07-31T08:53:33Z</time>
      </trkpt>
      <trkpt lat="40.777549" lon="-3.892367">
        <ele>1660.235</ele>
        <time>2021-07-31T08:53:42Z</time>
      </trkpt>
      <trkpt lat="40.777565" lon="-3.892350">
        <ele>1660.852</ele>
        <time>2021-07-31T08:53:44Z</time>
      </trkpt>
      <trkpt lat="40.777584" lon="-3.892355">
        <ele>1662.119</ele>
        <time>2021-07-31T08:53:47Z</time>
      </trkpt>
      <trkpt lat="40.777606" lon="-3.892355">
        <ele>1663.521</ele>
        <time>2021-07-31T08:54:14Z</time>
      </trkpt>
      <trkpt lat="40.777626" lon="-3.892342">
        <ele>1664.528</ele>
        <time>2021-07-31T08:54:16Z</time>
      </trkpt>
      <trkpt lat="40.777645" lon="-3.892358">
        <ele>1666.198</ele>
        <time>2021-07-31T08:54:46Z</time>
      </trkpt>
      <trkpt lat="40.777658" lon="-3.892388">
        <ele>1667.556</ele>
        <time>2021-07-31T08:54:48Z</time>
      </trkpt>
      <trkpt lat="40.777651" lon="-3.892417">
        <ele>1667.688</ele>
        <time>2021-07-31T08:54:50Z</time>
      </trkpt>
      <trkpt lat="40.777667" lon="-3.892402">
        <ele>1668.324</ele>
        <time>2021-07-31T08:54:55Z</time>
      </trkpt>
      <trkpt lat="40.777686" lon="-3.892415">
        <ele>1669.626</ele>
        <time>2021-07-31T08:55:04Z</time>
      </trkpt>
      <trkpt lat="40.777686" lon="-3.892440">
        <ele>1670.008</ele>
        <time>2021-07-31T08:55:11Z</time>
      </trkpt>
      <trkpt lat="40.777706" lon="-3.892434">
        <ele>1671.145</ele>
        <time>2021-07-31T08:55:16Z</time>
      </trkpt>
      <trkpt lat="40.777725" lon="-3.892428">
        <ele>1672.177</ele>
        <time>2021-07-31T08:55:20Z</time>
      </trkpt>
      <trkpt lat="40.777734" lon="-3.892466">
        <ele>1673.294</ele>
        <time>2021-07-31T08:55:27Z</time>
      </trkpt>
      <trkpt lat="40.777725" lon="-3.892438">
        <ele>1672.321</ele>
        <time>2021-07-31T08:55:45Z</time>
      </trkpt>
      <trkpt lat="40.777725" lon="-3.892470">
        <ele>1672.773</ele>
        <time>2021-07-31T08:55:50Z</time>
      </trkpt>
      <trkpt lat="40.777763" lon="-3.892545">
        <ele>1676.720</ele>
        <time>2021-07-31T08:56:51Z</time>
      </trkpt>
      <trkpt lat="40.777789" lon="-3.892540">
        <ele>1678.180</ele>
        <time>2021-07-31T08:56:54Z</time>
      </trkpt>
      <trkpt lat="40.777808" lon="-3.892555">
        <ele>1680.038</ele>
        <time>2021-07-31T08:56:58Z</time>
      </trkpt>
      <trkpt lat="40.777827" lon="-3.892573">
        <ele>1681.955</ele>
        <time>2021-07-31T08:57:00Z</time>
      </trkpt>
      <trkpt lat="40.777846" lon="-3.892560">
        <ele>1682.807</ele>
        <time>2021-07-31T08:57:06Z</time>
      </trkpt>
      <trkpt lat="40.777856" lon="-3.892530">
        <ele>1682.717</ele>
        <time>2021-07-31T08:57:11Z</time>
      </trkpt>
      <trkpt lat="40.777875" lon="-3.892517">
        <ele>1683.808</ele>
        <time>2021-07-31T08:57:22Z</time>
      </trkpt>
      <trkpt lat="40.777885" lon="-3.892542">
        <ele>1685.292</ele>
        <time>2021-07-31T08:57:27Z</time>
      </trkpt>
      <trkpt lat="40.777888" lon="-3.892567">
        <ele>1686.014</ele>
        <time>2021-07-31T08:57:43Z</time>
      </trkpt>
      <trkpt lat="40.777901" lon="-3.892587">
        <ele>1687.431</ele>
        <time>2021-07-31T08:57:46Z</time>
      </trkpt>
      <trkpt lat="40.777907" lon="-3.892612">
        <ele>1688.548</ele>
        <time>2021-07-31T08:57:49Z</time>
      </trkpt>
      <trkpt lat="40.777923" lon="-3.892598">
        <ele>1689.220</ele>
        <time>2021-07-31T08:57:53Z</time>
      </trkpt>
      <trkpt lat="40.777939" lon="-3.892583">
        <ele>1690.077</ele>
        <time>2021-07-31T08:58:02Z</time>
      </trkpt>
      <trkpt lat="40.777949" lon="-3.892560">
        <ele>1690.217</ele>
        <time>2021-07-31T08:58:04Z</time>
      </trkpt>
      <trkpt lat="40.777936" lon="-3.892528">
        <ele>1688.615</ele>
        <time>2021-07-31T08:58:08Z</time>
      </trkpt>
      <trkpt lat="40.777926" lon="-3.892493">
        <ele>1687.293</ele>
        <time>2021-07-31T08:58:12Z</time>
      </trkpt>
      <trkpt lat="40.777901" lon="-3.892523">
        <ele>1685.965</ele>
        <time>2021-07-31T08:58:18Z</time>
      </trkpt>
      <trkpt lat="40.777920" lon="-3.892550">
        <ele>1687.921</ele>
        <time>2021-07-31T08:58:57Z</time>
      </trkpt>
      <trkpt lat="40.777949" lon="-3.892548">
        <ele>1690.008</ele>
        <time>2021-07-31T08:59:00Z</time>
      </trkpt>
      <trkpt lat="40.777968" lon="-3.892537">
        <ele>1691.136</ele>
        <time>2021-07-31T08:59:02Z</time>
      </trkpt>
      <trkpt lat="40.777987" lon="-3.892530">
        <ele>1692.488</ele>
        <time>2021-07-31T08:59:06Z</time>
      </trkpt>
      <trkpt lat="40.778006" lon="-3.892545">
        <ele>1694.055</ele>
        <time>2021-07-31T08:59:09Z</time>
      </trkpt>
      <trkpt lat="40.778029" lon="-3.892543">
        <ele>1695.722</ele>
        <time>2021-07-31T08:59:12Z</time>
      </trkpt>
      <trkpt lat="40.778026" lon="-3.892567">
        <ele>1695.914</ele>
        <time>2021-07-31T08:59:17Z</time>
      </trkpt>
      <trkpt lat="40.778042" lon="-3.892592">
        <ele>1697.471</ele>
        <time>2021-07-31T08:59:26Z</time>
      </trkpt>
      <trkpt lat="40.778061" lon="-3.892608">
        <ele>1699.071</ele>
        <time>2021-07-31T08:59:28Z</time>
      </trkpt>
      <trkpt lat="40.778077" lon="-3.892622">
        <ele>1700.729</ele>
        <time>2021-07-31T08:59:31Z</time>
      </trkpt>
      <trkpt lat="40.778096" lon="-3.892648">
        <ele>1703.052</ele>
        <time>2021-07-31T08:59:35Z</time>
      </trkpt>
      <trkpt lat="40.778112" lon="-3.892673">
        <ele>1705.153</ele>
        <time>2021-07-31T08:59:42Z</time>
      </trkpt>
      <trkpt lat="40.778125" lon="-3.892702">
        <ele>1707.108</ele>
        <time>2021-07-31T08:59:47Z</time>
      </trkpt>
      <trkpt lat="40.778096" lon="-3.892718">
        <ele>1704.408</ele>
        <time>2021-07-31T08:59:49Z</time>
      </trkpt>
      <trkpt lat="40.778099" lon="-3.892755">
        <ele>1705.572</ele>
        <time>2021-07-31T08:59:54Z</time>
      </trkpt>
      <trkpt lat="40.778115" lon="-3.892768">
        <ele>1707.654</ele>
        <time>2021-07-31T08:59:56Z</time>
      </trkpt>
      <trkpt lat="40.778134" lon="-3.892753">
        <ele>1709.411</ele>
        <time>2021-07-31T08:59:59Z</time>
      </trkpt>
      <trkpt lat="40.778144" lon="-3.892723">
        <ele>1709.698</ele>
        <time>2021-07-31T09:00:16Z</time>
      </trkpt>
      <trkpt lat="40.778154" lon="-3.892698">
        <ele>1710.050</ele>
        <time>2021-07-31T09:00:17Z</time>
      </trkpt>
      <trkpt lat="40.778163" lon="-3.892665">
        <ele>1709.927</ele>
        <time>2021-07-31T09:00:19Z</time>
      </trkpt>
      <trkpt lat="40.778176" lon="-3.892645">
        <ele>1710.547</ele>
        <time>2021-07-31T09:00:20Z</time>
      </trkpt>
      <trkpt lat="40.778186" lon="-3.892605">
        <ele>1710.055</ele>
        <time>2021-07-31T09:00:22Z</time>
      </trkpt>
      <trkpt lat="40.778198" lon="-3.892570">
        <ele>1709.844</ele>
        <time>2021-07-31T09:00:24Z</time>
      </trkpt>
      <trkpt lat="40.778198" lon="-3.892543">
        <ele>1708.805</ele>
        <time>2021-07-31T09:00:26Z</time>
      </trkpt>
      <trkpt lat="40.778214" lon="-3.892527">
        <ele>1709.515</ele>
        <time>2021-07-31T09:00:29Z</time>
      </trkpt>
      <trkpt lat="40.778214" lon="-3.892496">
        <ele>1708.508</ele>
        <time>2021-07-31T09:00:34Z</time>
      </trkpt>
      <trkpt lat="40.778234" lon="-3.892482">
        <ele>1710.121</ele>
        <time>2021-07-31T09:00:37Z</time>
      </trkpt>
      <trkpt lat="40.778240" lon="-3.892448">
        <ele>1711.083</ele>
        <time>2021-07-31T09:00:41Z</time>
      </trkpt>
      <trkpt lat="40.778253" lon="-3.892470">
        <ele>1711.670</ele>
        <time>2021-07-31T09:00:46Z</time>
      </trkpt>
      <trkpt lat="40.778272" lon="-3.892478">
        <ele>1712.987</ele>
        <time>2021-07-31T09:00:51Z</time>
      </trkpt>
      <trkpt lat="40.778278" lon="-3.892453">
        <ele>1713.789</ele>
        <time>2021-07-31T09:00:53Z</time>
      </trkpt>
      <trkpt lat="40.778294" lon="-3.892480">
        <ele>1714.526</ele>
        <time>2021-07-31T09:00:56Z</time>
      </trkpt>
      <trkpt lat="40.778278" lon="-3.892495">
        <ele>1713.156</ele>
        <time>2021-07-31T09:00:59Z</time>
      </trkpt>
      <trkpt lat="40.778282" lon="-3.892522">
        <ele>1714.474</ele>
        <time>2021-07-31T09:01:01Z</time>
      </trkpt>
      <trkpt lat="40.778301" lon="-3.892562">
        <ele>1717.959</ele>
        <time>2021-07-31T09:01:04Z</time>
      </trkpt>
      <trkpt lat="40.778317" lon="-3.892538">
        <ele>1717.903</ele>
        <time>2021-07-31T09:01:24Z</time>
      </trkpt>
      <trkpt lat="40.778333" lon="-3.892527">
        <ele>1718.523</ele>
        <time>2021-07-31T09:01:27Z</time>
      </trkpt>
      <trkpt lat="40.778352" lon="-3.892525">
        <ele>1719.908</ele>
        <time>2021-07-31T09:01:33Z</time>
      </trkpt>
      <trkpt lat="40.778371" lon="-3.892550">
        <ele>1722.882</ele>
        <time>2021-07-31T09:01:36Z</time>
      </trkpt>
      <trkpt lat="40.778381" lon="-3.892525">
        <ele>1722.154</ele>
        <time>2021-07-31T09:01:43Z</time>
      </trkpt>
      <trkpt lat="40.778381" lon="-3.892496">
        <ele>1720.651</ele>
        <time>2021-07-31T09:01:47Z</time>
      </trkpt>
      <trkpt lat="40.778371" lon="-3.892470">
        <ele>1720.158</ele>
        <time>2021-07-31T09:01:52Z</time>
      </trkpt>
      <trkpt lat="40.778384" lon="-3.892493">
        <ele>1720.990</ele>
        <time>2021-07-31T09:02:00Z</time>
      </trkpt>
      <trkpt lat="40.778394" lon="-3.892470">
        <ele>1721.747</ele>
        <time>2021-07-31T09:02:04Z</time>
      </trkpt>
      <trkpt lat="40.778397" lon="-3.892446">
        <ele>1722.157</ele>
        <time>2021-07-31T09:02:08Z</time>
      </trkpt>
      <trkpt lat="40.778397" lon="-3.892422">
        <ele>1722.295</ele>
        <time>2021-07-31T09:02:10Z</time>
      </trkpt>
      <trkpt lat="40.778410" lon="-3.892390">
        <ele>1723.133</ele>
        <time>2021-07-31T09:02:55Z</time>
      </trkpt>
      <trkpt lat="40.778419" lon="-3.892423">
        <ele>1723.623</ele>
        <time>2021-07-31T09:02:58Z</time>
      </trkpt>
      <trkpt lat="40.778438" lon="-3.892423">
        <ele>1724.815</ele>
        <time>2021-07-31T09:03:05Z</time>
      </trkpt>
      <trkpt lat="40.778458" lon="-3.892403">
        <ele>1725.908</ele>
        <time>2021-07-31T09:03:09Z</time>
      </trkpt>
      <trkpt lat="40.778470" lon="-3.892383">
        <ele>1726.580</ele>
        <time>2021-07-31T09:03:12Z</time>
      </trkpt>
      <trkpt lat="40.778474" lon="-3.892412">
        <ele>1727.062</ele>
        <time>2021-07-31T09:03:16Z</time>
      </trkpt>
      <trkpt lat="40.778470" lon="-3.892444">
        <ele>1726.979</ele>
        <time>2021-07-31T09:03:20Z</time>
      </trkpt>
      <trkpt lat="40.778490" lon="-3.892482">
        <ele>1728.726</ele>
        <time>2021-07-31T09:03:23Z</time>
      </trkpt>
      <trkpt lat="40.778493" lon="-3.892517">
        <ele>1730.288</ele>
        <time>2021-07-31T09:03:28Z</time>
      </trkpt>
      <trkpt lat="40.778477" lon="-3.892532">
        <ele>1729.925</ele>
        <time>2021-07-31T09:03:35Z</time>
      </trkpt>
      <trkpt lat="40.778461" lon="-3.892557">
        <ele>1730.235</ele>
        <time>2021-07-31T09:03:40Z</time>
      </trkpt>
      <trkpt lat="40.778458" lon="-3.892582">
        <ele>1731.593</ele>
        <time>2021-07-31T09:03:42Z</time>
      </trkpt>
      <trkpt lat="40.778464" lon="-3.892607">
        <ele>1733.645</ele>
        <time>2021-07-31T09:04:00Z</time>
      </trkpt>
      <trkpt lat="40.778490" lon="-3.892612">
        <ele>1736.047</ele>
        <time>2021-07-31T09:04:03Z</time>
      </trkpt>
      <trkpt lat="40.778509" lon="-3.892598">
        <ele>1736.611</ele>
        <time>2021-07-31T09:04:07Z</time>
      </trkpt>
      <trkpt lat="40.778525" lon="-3.892615">
        <ele>1739.008</ele>
        <time>2021-07-31T09:04:12Z</time>
      </trkpt>
      <trkpt lat="40.778554" lon="-3.892605">
        <ele>1740.661</ele>
        <time>2021-07-31T09:04:31Z</time>
      </trkpt>
      <trkpt lat="40.778560" lon="-3.892577">
        <ele>1739.263</ele>
        <time>2021-07-31T09:04:43Z</time>
      </trkpt>
      <trkpt lat="40.778576" lon="-3.892552">
        <ele>1738.870</ele>
        <time>2021-07-31T09:04:46Z</time>
      </trkpt>
      <trkpt lat="40.778592" lon="-3.892538">
        <ele>1739.177</ele>
        <time>2021-07-31T09:04:50Z</time>
      </trkpt>
      <trkpt lat="40.778611" lon="-3.892548">
        <ele>1741.359</ele>
        <time>2021-07-31T09:04:59Z</time>
      </trkpt>
      <trkpt lat="40.778621" lon="-3.892575">
        <ele>1743.876</ele>
        <time>2021-07-31T09:05:03Z</time>
      </trkpt>
      <trkpt lat="40.778621" lon="-3.892600">
        <ele>1745.616</ele>
        <time>2021-07-31T09:05:09Z</time>
      </trkpt>
      <trkpt lat="40.778621" lon="-3.892634">
        <ele>1747.974</ele>
        <time>2021-07-31T09:05:12Z</time>
      </trkpt>
      <trkpt lat="40.778618" lon="-3.892664">
        <ele>1749.714</ele>
        <time>2021-07-31T09:05:16Z</time>
      </trkpt>
      <trkpt lat="40.778614" lon="-3.892692">
        <ele>1751.454</ele>
        <time>2021-07-31T09:05:19Z</time>
      </trkpt>
      <trkpt lat="40.778618" lon="-3.892722">
        <ele>1753.709</ele>
        <time>2021-07-31T09:05:21Z</time>
      </trkpt>
      <trkpt lat="40.778614" lon="-3.892748">
        <ele>1755.208</ele>
        <time>2021-07-31T09:05:25Z</time>
      </trkpt>
      <trkpt lat="40.778595" lon="-3.892713">
        <ele>1751.278</ele>
        <time>2021-07-31T09:07:08Z</time>
      </trkpt>
      <trkpt lat="40.778579" lon="-3.892702">
        <ele>1749.190</ele>
        <time>2021-07-31T09:07:12Z</time>
      </trkpt>
      <trkpt lat="40.778563" lon="-3.892680">
        <ele>1746.347</ele>
        <time>2021-07-31T09:07:18Z</time>
      </trkpt>
      <trkpt lat="40.778563" lon="-3.892655">
        <ele>1744.774</ele>
        <time>2021-07-31T09:07:21Z</time>
      </trkpt>
      <trkpt lat="40.778554" lon="-3.892634">
        <ele>1742.576</ele>
        <time>2021-07-31T09:07:25Z</time>
      </trkpt>
      <trkpt lat="40.778576" lon="-3.892664">
        <ele>1746.333</ele>
        <time>2021-07-31T09:09:14Z</time>
      </trkpt>
      <trkpt lat="40.778582" lon="-3.892688">
        <ele>1748.413</ele>
        <time>2021-07-31T09:09:17Z</time>
      </trkpt>
      <trkpt lat="40.778592" lon="-3.892720">
        <ele>1751.461</ele>
        <time>2021-07-31T09:09:25Z</time>
      </trkpt>
      <trkpt lat="40.778595" lon="-3.892745">
        <ele>1753.415</ele>
        <time>2021-07-31T09:10:13Z</time>
      </trkpt>
      <trkpt lat="40.778618" lon="-3.892752">
        <ele>1755.865</ele>
        <time>2021-07-31T09:10:16Z</time>
      </trkpt>
      <trkpt lat="40.778640" lon="-3.892742">
        <ele>1756.911</ele>
        <time>2021-07-31T09:10:42Z</time>
      </trkpt>
      <trkpt lat="40.778659" lon="-3.892728">
        <ele>1757.408</ele>
        <time>2021-07-31T09:10:44Z</time>
      </trkpt>
      <trkpt lat="40.778691" lon="-3.892712">
        <ele>1758.848</ele>
        <time>2021-07-31T09:10:46Z</time>
      </trkpt>
      <trkpt lat="40.778717" lon="-3.892692">
        <ele>1759.420</ele>
        <time>2021-07-31T09:10:48Z</time>
      </trkpt>
      <trkpt lat="40.778736" lon="-3.892683">
        <ele>1760.267</ele>
        <time>2021-07-31T09:10:49Z</time>
      </trkpt>
      <trkpt lat="40.778755" lon="-3.892668">
        <ele>1760.654</ele>
        <time>2021-07-31T09:10:51Z</time>
      </trkpt>
      <trkpt lat="40.778755" lon="-3.892635">
        <ele>1758.176</ele>
        <time>2021-07-31T09:10:55Z</time>
      </trkpt>
      <trkpt lat="40.778771" lon="-3.892617">
        <ele>1757.923</ele>
        <time>2021-07-31T09:10:57Z</time>
      </trkpt>
      <trkpt lat="40.778794" lon="-3.892598">
        <ele>1758.193</ele>
        <time>2021-07-31T09:11:00Z</time>
      </trkpt>
      <trkpt lat="40.778797" lon="-3.892557">
        <ele>1755.271</ele>
        <time>2021-07-31T09:11:03Z</time>
      </trkpt>
      <trkpt lat="40.778819" lon="-3.892558">
        <ele>1756.899</ele>
        <time>2021-07-31T09:11:13Z</time>
      </trkpt>
      <trkpt lat="40.778835" lon="-3.892572">
        <ele>1759.107</ele>
        <time>2021-07-31T09:11:23Z</time>
      </trkpt>
      <trkpt lat="40.778848" lon="-3.892548">
        <ele>1758.127</ele>
        <time>2021-07-31T09:11:30Z</time>
      </trkpt>
      <trkpt lat="40.778870" lon="-3.892540">
        <ele>1759.008</ele>
        <time>2021-07-31T09:11:37Z</time>
      </trkpt>
      <trkpt lat="40.778874" lon="-3.892565">
        <ele>1761.336</ele>
        <time>2021-07-31T09:11:44Z</time>
      </trkpt>
      <trkpt lat="40.778893" lon="-3.892563">
        <ele>1762.448</ele>
        <time>2021-07-31T09:11:51Z</time>
      </trkpt>
      <trkpt lat="40.778886" lon="-3.892538">
        <ele>1759.945</ele>
        <time>2021-07-31T09:11:54Z</time>
      </trkpt>
      <trkpt lat="40.778880" lon="-3.892563">
        <ele>1761.622</ele>
        <time>2021-07-31T09:12:11Z</time>
      </trkpt>
      <trkpt lat="40.778899" lon="-3.892577">
        <ele>1763.884</ele>
        <time>2021-07-31T09:12:25Z</time>
      </trkpt>
      <trkpt lat="40.778915" lon="-3.892588">
        <ele>1765.441</ele>
        <time>2021-07-31T09:12:31Z</time>
      </trkpt>
      <trkpt lat="40.778922" lon="-3.892565">
        <ele>1763.831</ele>
        <time>2021-07-31T09:12:41Z</time>
      </trkpt>
      <trkpt lat="40.778960" lon="-3.892598">
        <ele>1768.049</ele>
        <time>2021-07-31T09:13:30Z</time>
      </trkpt>
      <trkpt lat="40.778979" lon="-3.892588">
        <ele>1768.092</ele>
        <time>2021-07-31T09:13:40Z</time>
      </trkpt>
      <trkpt lat="40.778973" lon="-3.892565">
        <ele>1765.973</ele>
        <time>2021-07-31T09:13:48Z</time>
      </trkpt>
      <trkpt lat="40.778966" lon="-3.892492">
        <ele>1760.120</ele>
        <time>2021-07-31T09:14:53Z</time>
      </trkpt>
      <trkpt lat="40.778960" lon="-3.892517">
        <ele>1761.408</ele>
        <time>2021-07-31T09:14:55Z</time>
      </trkpt>
      <trkpt lat="40.778950" lon="-3.892545">
        <ele>1763.326</ele>
        <time>2021-07-31T09:15:09Z</time>
      </trkpt>
      <trkpt lat="40.779046" lon="-3.892565">
        <ele>1768.968</ele>
        <time>2021-07-31T09:18:05Z</time>
      </trkpt>
      <trkpt lat="40.779069" lon="-3.892582">
        <ele>1771.265</ele>
        <time>2021-07-31T09:18:07Z</time>
      </trkpt>
      <trkpt lat="40.779088" lon="-3.892593">
        <ele>1772.862</ele>
        <time>2021-07-31T09:18:09Z</time>
      </trkpt>
      <trkpt lat="40.779110" lon="-3.892598">
        <ele>1774.164</ele>
        <time>2021-07-31T09:18:12Z</time>
      </trkpt>
      <trkpt lat="40.779130" lon="-3.892608">
        <ele>1775.751</ele>
        <time>2021-07-31T09:18:21Z</time>
      </trkpt>
      <trkpt lat="40.779152" lon="-3.892615">
        <ele>1777.121</ele>
        <time>2021-07-31T09:18:25Z</time>
      </trkpt>
      <trkpt lat="40.779174" lon="-3.892620">
        <ele>1778.089</ele>
        <time>2021-07-31T09:18:27Z</time>
      </trkpt>
      <trkpt lat="40.779194" lon="-3.892624">
        <ele>1778.322</ele>
        <time>2021-07-31T09:18:30Z</time>
      </trkpt>
      <trkpt lat="40.779213" lon="-3.892628">
        <ele>1778.462</ele>
        <time>2021-07-31T09:18:36Z</time>
      </trkpt>
      <trkpt lat="40.779235" lon="-3.892624">
        <ele>1778.108</ele>
        <time>2021-07-31T09:18:39Z</time>
      </trkpt>
      <trkpt lat="40.779254" lon="-3.892624">
        <ele>1778.008</ele>
        <time>2021-07-31T09:18:41Z</time>
      </trkpt>
      <trkpt lat="40.779277" lon="-3.892632">
        <ele>1778.389</ele>
        <time>2021-07-31T09:18:45Z</time>
      </trkpt>
      <trkpt lat="40.779293" lon="-3.892618">
        <ele>1777.521</ele>
        <time>2021-07-31T09:18:47Z</time>
      </trkpt>
      <trkpt lat="40.779299" lon="-3.892590">
        <ele>1776.038</ele>
        <time>2021-07-31T09:18:50Z</time>
      </trkpt>
      <trkpt lat="40.779312" lon="-3.892565">
        <ele>1774.855</ele>
        <time>2021-07-31T09:18:53Z</time>
      </trkpt>
      <trkpt lat="40.779331" lon="-3.892572">
        <ele>1775.397</ele>
        <time>2021-07-31T09:18:59Z</time>
      </trkpt>
      <trkpt lat="40.779357" lon="-3.892573">
        <ele>1775.454</ele>
        <time>2021-07-31T09:19:03Z</time>
      </trkpt>
      <trkpt lat="40.779373" lon="-3.892560">
        <ele>1775.084</ele>
        <time>2021-07-31T09:19:08Z</time>
      </trkpt>
      <trkpt lat="40.779443" lon="-3.892523">
        <ele>1774.662</ele>
        <time>2021-07-31T09:20:17Z</time>
      </trkpt>
      <trkpt lat="40.779446" lon="-3.892495">
        <ele>1773.855</ele>
        <time>2021-07-31T09:20:18Z</time>
      </trkpt>
      <trkpt lat="40.779453" lon="-3.892460">
        <ele>1772.307</ele>
        <time>2021-07-31T09:20:20Z</time>
      </trkpt>
      <trkpt lat="40.779456" lon="-3.892425">
        <ele>1770.717</ele>
        <time>2021-07-31T09:20:23Z</time>
      </trkpt>
      <trkpt lat="40.779466" lon="-3.892402">
        <ele>1769.808</ele>
        <time>2021-07-31T09:20:28Z</time>
      </trkpt>
      <trkpt lat="40.779491" lon="-3.892397">
        <ele>1770.142</ele>
        <time>2021-07-31T09:21:20Z</time>
      </trkpt>
      <trkpt lat="40.779507" lon="-3.892380">
        <ele>1769.574</ele>
        <time>2021-07-31T09:21:23Z</time>
      </trkpt>
      <trkpt lat="40.779526" lon="-3.892373">
        <ele>1769.541</ele>
        <time>2021-07-31T09:21:25Z</time>
      </trkpt>
      <trkpt lat="40.779533" lon="-3.892337">
        <ele>1767.948</ele>
        <time>2021-07-31T09:21:28Z</time>
      </trkpt>
      <trkpt lat="40.779542" lon="-3.892315">
        <ele>1767.060</ele>
        <time>2021-07-31T09:21:30Z</time>
      </trkpt>
      <trkpt lat="40.779565" lon="-3.892304">
        <ele>1766.837</ele>
        <time>2021-07-31T09:21:33Z</time>
      </trkpt>
      <trkpt lat="40.779590" lon="-3.892290">
        <ele>1766.557</ele>
        <time>2021-07-31T09:21:40Z</time>
      </trkpt>
      <trkpt lat="40.779610" lon="-3.892288">
        <ele>1766.775</ele>
        <time>2021-07-31T09:21:43Z</time>
      </trkpt>
      <trkpt lat="40.779632" lon="-3.892288">
        <ele>1767.132</ele>
        <time>2021-07-31T09:21:45Z</time>
      </trkpt>
      <trkpt lat="40.779648" lon="-3.892277">
        <ele>1766.892</ele>
        <time>2021-07-31T09:21:48Z</time>
      </trkpt>
      <trkpt lat="40.779661" lon="-3.892248">
        <ele>1765.511</ele>
        <time>2021-07-31T09:21:51Z</time>
      </trkpt>
      <trkpt lat="40.779664" lon="-3.892220">
        <ele>1764.108</ele>
        <time>2021-07-31T09:21:54Z</time>
      </trkpt>
      <trkpt lat="40.779664" lon="-3.892193">
        <ele>1763.170</ele>
        <time>2021-07-31T09:21:57Z</time>
      </trkpt>
      <trkpt lat="40.779683" lon="-3.892168">
        <ele>1762.462</ele>
        <time>2021-07-31T09:21:59Z</time>
      </trkpt>
      <trkpt lat="40.779702" lon="-3.892153">
        <ele>1762.069</ele>
        <time>2021-07-31T09:22:04Z</time>
      </trkpt>
      <trkpt lat="40.779722" lon="-3.892155">
        <ele>1762.386</ele>
        <time>2021-07-31T09:22:09Z</time>
      </trkpt>
      <trkpt lat="40.779725" lon="-3.892178">
        <ele>1763.288</ele>
        <time>2021-07-31T09:22:11Z</time>
      </trkpt>
      <trkpt lat="40.779741" lon="-3.892195">
        <ele>1763.515</ele>
        <time>2021-07-31T09:22:13Z</time>
      </trkpt>
      <trkpt lat="40.779760" lon="-3.892190">
        <ele>1763.035</ele>
        <time>2021-07-31T09:22:15Z</time>
      </trkpt>
      <trkpt lat="40.779789" lon="-3.892200">
        <ele>1762.713</ele>
        <time>2021-07-31T09:22:18Z</time>
      </trkpt>
      <trkpt lat="40.779808" lon="-3.892210">
        <ele>1762.568</ele>
        <time>2021-07-31T09:22:20Z</time>
      </trkpt>
      <trkpt lat="40.779824" lon="-3.892225">
        <ele>1762.542</ele>
        <time>2021-07-31T09:22:22Z</time>
      </trkpt>
      <trkpt lat="40.779840" lon="-3.892238">
        <ele>1762.426</ele>
        <time>2021-07-31T09:22:24Z</time>
      </trkpt>
      <trkpt lat="40.779840" lon="-3.892282">
        <ele>1763.508</ele>
        <time>2021-07-31T09:22:27Z</time>
      </trkpt>
      <trkpt lat="40.779862" lon="-3.892307">
        <ele>1763.173</ele>
        <time>2021-07-31T09:22:36Z</time>
      </trkpt>
      <trkpt lat="40.779875" lon="-3.892280">
        <ele>1762.125</ele>
        <time>2021-07-31T09:22:39Z</time>
      </trkpt>
      <trkpt lat="40.779894" lon="-3.892280">
        <ele>1761.312</ele>
        <time>2021-07-31T09:22:46Z</time>
      </trkpt>
      <trkpt lat="40.779920" lon="-3.892284">
        <ele>1760.339</ele>
        <time>2021-07-31T09:23:01Z</time>
      </trkpt>
      <trkpt lat="40.779946" lon="-3.892272">
        <ele>1759.311</ele>
        <time>2021-07-31T09:23:03Z</time>
      </trkpt>
      <trkpt lat="40.779965" lon="-3.892287">
        <ele>1758.578</ele>
        <time>2021-07-31T09:23:06Z</time>
      </trkpt>
      <trkpt lat="40.779984" lon="-3.892294">
        <ele>1757.768</ele>
        <time>2021-07-31T09:23:09Z</time>
      </trkpt>
      <trkpt lat="40.780003" lon="-3.892275">
        <ele>1757.296</ele>
        <time>2021-07-31T09:23:13Z</time>
      </trkpt>
      <trkpt lat="40.780019" lon="-3.892253">
        <ele>1757.682</ele>
        <time>2021-07-31T09:23:16Z</time>
      </trkpt>
      <trkpt lat="40.780045" lon="-3.892242">
        <ele>1757.943</ele>
        <time>2021-07-31T09:23:18Z</time>
      </trkpt>
      <trkpt lat="40.780064" lon="-3.892240">
        <ele>1758.117</ele>
        <time>2021-07-31T09:23:21Z</time>
      </trkpt>
      <trkpt lat="40.780093" lon="-3.892248">
        <ele>1758.008</ele>
        <time>2021-07-31T09:23:23Z</time>
      </trkpt>
      <trkpt lat="40.780112" lon="-3.892250">
        <ele>1758.125</ele>
        <time>2021-07-31T09:23:25Z</time>
      </trkpt>
      <trkpt lat="40.780138" lon="-3.892242">
        <ele>1758.447</ele>
        <time>2021-07-31T09:23:27Z</time>
      </trkpt>
      <trkpt lat="40.780166" lon="-3.892233">
        <ele>1758.954</ele>
        <time>2021-07-31T09:23:30Z</time>
      </trkpt>
      <trkpt lat="40.780186" lon="-3.892237">
        <ele>1758.831</ele>
        <time>2021-07-31T09:23:32Z</time>
      </trkpt>
      <trkpt lat="40.780205" lon="-3.892237">
        <ele>1758.943</ele>
        <time>2021-07-31T09:23:35Z</time>
      </trkpt>
      <trkpt lat="40.780224" lon="-3.892238">
        <ele>1759.030</ele>
        <time>2021-07-31T09:23:39Z</time>
      </trkpt>
      <trkpt lat="40.780243" lon="-3.892228">
        <ele>1759.530</ele>
        <time>2021-07-31T09:23:41Z</time>
      </trkpt>
      <trkpt lat="40.780259" lon="-3.892217">
        <ele>1760.098</ele>
        <time>2021-07-31T09:23:45Z</time>
      </trkpt>
      <trkpt lat="40.780285" lon="-3.892213">
        <ele>1760.038</ele>
        <time>2021-07-31T09:23:46Z</time>
      </trkpt>
      <trkpt lat="40.780310" lon="-3.892175">
        <ele>1760.370</ele>
        <time>2021-07-31T09:23:49Z</time>
      </trkpt>
      <trkpt lat="40.780349" lon="-3.892162">
        <ele>1759.717</ele>
        <time>2021-07-31T09:23:51Z</time>
      </trkpt>
      <trkpt lat="40.780368" lon="-3.892150">
        <ele>1759.608</ele>
        <time>2021-07-31T09:23:52Z</time>
      </trkpt>
      <trkpt lat="40.780387" lon="-3.892130">
        <ele>1759.740</ele>
        <time>2021-07-31T09:23:54Z</time>
      </trkpt>
      <trkpt lat="40.780403" lon="-3.892098">
        <ele>1760.312</ele>
        <time>2021-07-31T09:23:56Z</time>
      </trkpt>
      <trkpt lat="40.780419" lon="-3.892087">
        <ele>1760.359</ele>
        <time>2021-07-31T09:24:00Z</time>
      </trkpt>
      <trkpt lat="40.780429" lon="-3.892063">
        <ele>1760.916</ele>
        <time>2021-07-31T09:24:04Z</time>
      </trkpt>
      <trkpt lat="40.780448" lon="-3.892035">
        <ele>1761.588</ele>
        <time>2021-07-31T09:24:06Z</time>
      </trkpt>
      <trkpt lat="40.780470" lon="-3.892027">
        <ele>1761.335</ele>
        <time>2021-07-31T09:24:10Z</time>
      </trkpt>
      <trkpt lat="40.780490" lon="-3.892005">
        <ele>1761.815</ele>
        <time>2021-07-31T09:24:16Z</time>
      </trkpt>
      <trkpt lat="40.780506" lon="-3.891990">
        <ele>1762.033</ele>
        <time>2021-07-31T09:24:19Z</time>
      </trkpt>
      <trkpt lat="40.780522" lon="-3.891972">
        <ele>1762.438</ele>
        <time>2021-07-31T09:24:22Z</time>
      </trkpt>
      <trkpt lat="40.780544" lon="-3.891965">
        <ele>1762.470</ele>
        <time>2021-07-31T09:24:27Z</time>
      </trkpt>
      <trkpt lat="40.780566" lon="-3.891968">
        <ele>1761.817</ele>
        <time>2021-07-31T09:24:30Z</time>
      </trkpt>
      <trkpt lat="40.780586" lon="-3.891958">
        <ele>1761.808</ele>
        <time>2021-07-31T09:24:33Z</time>
      </trkpt>
      <trkpt lat="40.780602" lon="-3.891940">
        <ele>1762.250</ele>
        <time>2021-07-31T09:24:36Z</time>
      </trkpt>
      <trkpt lat="40.780621" lon="-3.891924">
        <ele>1762.552</ele>
        <time>2021-07-31T09:24:38Z</time>
      </trkpt>
      <trkpt lat="40.780640" lon="-3.891920">
        <ele>1762.249</ele>
        <time>2021-07-31T09:24:42Z</time>
      </trkpt>
      <trkpt lat="40.780650" lon="-3.891897">
        <ele>1763.016</ele>
        <time>2021-07-31T09:24:45Z</time>
      </trkpt>
      <trkpt lat="40.780669" lon="-3.891890">
        <ele>1762.968</ele>
        <time>2021-07-31T09:24:47Z</time>
      </trkpt>
      <trkpt lat="40.780685" lon="-3.891865">
        <ele>1763.565</ele>
        <time>2021-07-31T09:24:51Z</time>
      </trkpt>
      <trkpt lat="40.780707" lon="-3.891862">
        <ele>1763.195</ele>
        <time>2021-07-31T09:24:54Z</time>
      </trkpt>
      <trkpt lat="40.780726" lon="-3.891850">
        <ele>1763.173</ele>
        <time>2021-07-31T09:24:58Z</time>
      </trkpt>
      <trkpt lat="40.780746" lon="-3.891843">
        <ele>1762.959</ele>
        <time>2021-07-31T09:25:02Z</time>
      </trkpt>
      <trkpt lat="40.780765" lon="-3.891827">
        <ele>1763.003</ele>
        <time>2021-07-31T09:25:04Z</time>
      </trkpt>
      <trkpt lat="40.780784" lon="-3.891810">
        <ele>1763.223</ele>
        <time>2021-07-31T09:25:07Z</time>
      </trkpt>
      <trkpt lat="40.780806" lon="-3.891805">
        <ele>1762.808</ele>
        <time>2021-07-31T09:25:10Z</time>
      </trkpt>
      <trkpt lat="40.780826" lon="-3.891803">
        <ele>1762.352</ele>
        <time>2021-07-31T09:25:13Z</time>
      </trkpt>
      <trkpt lat="40.780845" lon="-3.891805">
        <ele>1761.884</ele>
        <time>2021-07-31T09:25:16Z</time>
      </trkpt>
      <trkpt lat="40.780874" lon="-3.891808">
        <ele>1761.231</ele>
        <time>2021-07-31T09:25:19Z</time>
      </trkpt>
      <trkpt lat="40.780893" lon="-3.891786">
        <ele>1761.668</ele>
        <time>2021-07-31T09:25:21Z</time>
      </trkpt>
      <trkpt lat="40.780899" lon="-3.891763">
        <ele>1762.380</ele>
        <time>2021-07-31T09:25:25Z</time>
      </trkpt>
      <trkpt lat="40.780877" lon="-3.891740">
        <ele>1763.677</ele>
        <time>2021-07-31T09:25:28Z</time>
      </trkpt>
      <trkpt lat="40.780899" lon="-3.891720">
        <ele>1763.967</ele>
        <time>2021-07-31T09:25:32Z</time>
      </trkpt>
      <trkpt lat="40.780918" lon="-3.891707">
        <ele>1764.015</ele>
        <time>2021-07-31T09:25:35Z</time>
      </trkpt>
      <trkpt lat="40.780934" lon="-3.891685">
        <ele>1764.556</ele>
        <time>2021-07-31T09:25:39Z</time>
      </trkpt>
      <trkpt lat="40.780957" lon="-3.891678">
        <ele>1764.459</ele>
        <time>2021-07-31T09:25:41Z</time>
      </trkpt>
      <trkpt lat="40.780966" lon="-3.891653">
        <ele>1765.314</ele>
        <time>2021-07-31T09:25:43Z</time>
      </trkpt>
      <trkpt lat="40.780979" lon="-3.891630">
        <ele>1766.308</ele>
        <time>2021-07-31T09:25:45Z</time>
      </trkpt>
      <trkpt lat="40.780995" lon="-3.891616">
        <ele>1766.612</ele>
        <time>2021-07-31T09:25:49Z</time>
      </trkpt>
      <trkpt lat="40.781014" lon="-3.891612">
        <ele>1766.364</ele>
        <time>2021-07-31T09:25:53Z</time>
      </trkpt>
      <trkpt lat="40.781027" lon="-3.891628">
        <ele>1765.391</ele>
        <time>2021-07-31T09:25:58Z</time>
      </trkpt>
      <trkpt lat="40.781046" lon="-3.891642">
        <ele>1764.238</ele>
        <time>2021-07-31T09:26:07Z</time>
      </trkpt>
      <trkpt lat="40.781072" lon="-3.891640">
        <ele>1763.820</ele>
        <time>2021-07-31T09:26:14Z</time>
      </trkpt>
      <trkpt lat="40.781091" lon="-3.891628">
        <ele>1763.867</ele>
        <time>2021-07-31T09:26:18Z</time>
      </trkpt>
      <trkpt lat="40.781114" lon="-3.891623">
        <ele>1763.667</ele>
        <time>2021-07-31T09:26:21Z</time>
      </trkpt>
      <trkpt lat="40.781133" lon="-3.891633">
        <ele>1763.725</ele>
        <time>2021-07-31T09:26:27Z</time>
      </trkpt>
      <trkpt lat="40.781142" lon="-3.891655">
        <ele>1763.076</ele>
        <time>2021-07-31T09:26:31Z</time>
      </trkpt>
      <trkpt lat="40.781158" lon="-3.891672">
        <ele>1762.690</ele>
        <time>2021-07-31T09:26:33Z</time>
      </trkpt>
      <trkpt lat="40.781181" lon="-3.891677">
        <ele>1762.919</ele>
        <time>2021-07-31T09:26:37Z</time>
      </trkpt>
      <trkpt lat="40.781200" lon="-3.891678">
        <ele>1763.208</ele>
        <time>2021-07-31T09:26:39Z</time>
      </trkpt>
      <trkpt lat="40.781219" lon="-3.891685">
        <ele>1763.344</ele>
        <time>2021-07-31T09:26:41Z</time>
      </trkpt>
      <trkpt lat="40.781235" lon="-3.891697">
        <ele>1763.176</ele>
        <time>2021-07-31T09:26:44Z</time>
      </trkpt>
      <trkpt lat="40.781261" lon="-3.891697">
        <ele>1763.543</ele>
        <time>2021-07-31T09:26:48Z</time>
      </trkpt>
      <trkpt lat="40.781283" lon="-3.891690">
        <ele>1764.250</ele>
        <time>2021-07-31T09:26:54Z</time>
      </trkpt>
      <trkpt lat="40.781302" lon="-3.891693">
        <ele>1764.492</ele>
        <time>2021-07-31T09:26:57Z</time>
      </trkpt>
      <trkpt lat="40.781322" lon="-3.891700">
        <ele>1764.519</ele>
        <time>2021-07-31T09:26:59Z</time>
      </trkpt>
      <trkpt lat="40.781341" lon="-3.891700">
        <ele>1764.899</ele>
        <time>2021-07-31T09:27:02Z</time>
      </trkpt>
      <trkpt lat="40.781360" lon="-3.891702">
        <ele>1765.187</ele>
        <time>2021-07-31T09:27:04Z</time>
      </trkpt>
      <trkpt lat="40.781382" lon="-3.891707">
        <ele>1765.348</ele>
        <time>2021-07-31T09:27:07Z</time>
      </trkpt>
      <trkpt lat="40.781402" lon="-3.891720">
        <ele>1765.061</ele>
        <time>2021-07-31T09:27:09Z</time>
      </trkpt>
      <trkpt lat="40.781421" lon="-3.891722">
        <ele>1765.117</ele>
        <time>2021-07-31T09:27:11Z</time>
      </trkpt>
      <trkpt lat="40.781440" lon="-3.891722">
        <ele>1765.308</ele>
        <time>2021-07-31T09:27:14Z</time>
      </trkpt>
      <trkpt lat="40.781456" lon="-3.891707">
        <ele>1766.151</ele>
        <time>2021-07-31T09:27:18Z</time>
      </trkpt>
      <trkpt lat="40.781478" lon="-3.891710">
        <ele>1766.183</ele>
        <time>2021-07-31T09:27:22Z</time>
      </trkpt>
      <trkpt lat="40.781498" lon="-3.891727">
        <ele>1765.640</ele>
        <time>2021-07-31T09:27:30Z</time>
      </trkpt>
      <trkpt lat="40.781514" lon="-3.891755">
        <ele>1764.697</ele>
        <time>2021-07-31T09:27:34Z</time>
      </trkpt>
      <trkpt lat="40.781530" lon="-3.891766">
        <ele>1764.259</ele>
        <time>2021-07-31T09:27:36Z</time>
      </trkpt>
      <trkpt lat="40.781536" lon="-3.891790">
        <ele>1763.216</ele>
        <time>2021-07-31T09:27:39Z</time>
      </trkpt>
      <trkpt lat="40.781555" lon="-3.891808">
        <ele>1762.626</ele>
        <time>2021-07-31T09:27:42Z</time>
      </trkpt>
      <trkpt lat="40.781578" lon="-3.891795">
        <ele>1763.354</ele>
        <time>2021-07-31T09:27:45Z</time>
      </trkpt>
      <trkpt lat="40.781594" lon="-3.891773">
        <ele>1764.476</ele>
        <time>2021-07-31T09:27:49Z</time>
      </trkpt>
      <trkpt lat="40.781613" lon="-3.891778">
        <ele>1764.490</ele>
        <time>2021-07-31T09:27:54Z</time>
      </trkpt>
      <trkpt lat="40.781629" lon="-3.891766">
        <ele>1765.019</ele>
        <time>2021-07-31T09:27:56Z</time>
      </trkpt>
      <trkpt lat="40.781651" lon="-3.891744">
        <ele>1766.208</ele>
        <time>2021-07-31T09:27:59Z</time>
      </trkpt>
      <trkpt lat="40.781670" lon="-3.891730">
        <ele>1766.924</ele>
        <time>2021-07-31T09:28:01Z</time>
      </trkpt>
      <trkpt lat="40.781677" lon="-3.891707">
        <ele>1767.826</ele>
        <time>2021-07-31T09:28:05Z</time>
      </trkpt>
      <trkpt lat="40.781686" lon="-3.891677">
        <ele>1768.913</ele>
        <time>2021-07-31T09:28:07Z</time>
      </trkpt>
      <trkpt lat="40.781712" lon="-3.891668">
        <ele>1768.560</ele>
        <time>2021-07-31T09:28:13Z</time>
      </trkpt>
      <trkpt lat="40.781731" lon="-3.891665">
        <ele>1768.082</ele>
        <time>2021-07-31T09:28:15Z</time>
      </trkpt>
      <trkpt lat="40.781757" lon="-3.891667">
        <ele>1767.159</ele>
        <time>2021-07-31T09:28:21Z</time>
      </trkpt>
      <trkpt lat="40.781786" lon="-3.891660">
        <ele>1766.639</ele>
        <time>2021-07-31T09:28:23Z</time>
      </trkpt>
      <trkpt lat="40.781811" lon="-3.891658">
        <ele>1765.957</ele>
        <time>2021-07-31T09:28:26Z</time>
      </trkpt>
      <trkpt lat="40.781837" lon="-3.891662">
        <ele>1764.844</ele>
        <time>2021-07-31T09:28:28Z</time>
      </trkpt>
      <trkpt lat="40.781856" lon="-3.891668">
        <ele>1763.805</ele>
        <time>2021-07-31T09:28:31Z</time>
      </trkpt>
      <trkpt lat="40.781875" lon="-3.891672">
        <ele>1763.015</ele>
        <time>2021-07-31T09:28:33Z</time>
      </trkpt>
      <trkpt lat="40.781898" lon="-3.891667">
        <ele>1762.508</ele>
        <time>2021-07-31T09:28:35Z</time>
      </trkpt>
      <trkpt lat="40.781914" lon="-3.891652">
        <ele>1763.081</ele>
        <time>2021-07-31T09:28:37Z</time>
      </trkpt>
      <trkpt lat="40.781933" lon="-3.891658">
        <ele>1762.073</ele>
        <time>2021-07-31T09:28:41Z</time>
      </trkpt>
      <trkpt lat="40.781952" lon="-3.891645">
        <ele>1762.510</ele>
        <time>2021-07-31T09:28:44Z</time>
      </trkpt>
      <trkpt lat="40.781965" lon="-3.891662">
        <ele>1761.417</ele>
        <time>2021-07-31T09:28:47Z</time>
      </trkpt>
      <trkpt lat="40.781990" lon="-3.891662">
        <ele>1761.559</ele>
        <time>2021-07-31T09:28:52Z</time>
      </trkpt>
      <trkpt lat="40.782006" lon="-3.891650">
        <ele>1762.246</ele>
        <time>2021-07-31T09:28:56Z</time>
      </trkpt>
      <trkpt lat="40.782054" lon="-3.891515">
        <ele>1769.626</ele>
        <time>2021-07-31T09:30:02Z</time>
      </trkpt>
      <trkpt lat="40.782032" lon="-3.891515">
        <ele>1770.074</ele>
        <time>2021-07-31T09:30:05Z</time>
      </trkpt>
      <trkpt lat="40.782013" lon="-3.891508">
        <ele>1770.735</ele>
        <time>2021-07-31T09:30:07Z</time>
      </trkpt>
      <trkpt lat="40.782032" lon="-3.891503">
        <ele>1770.786</ele>
        <time>2021-07-31T09:30:09Z</time>
      </trkpt>
      <trkpt lat="40.782045" lon="-3.891480">
        <ele>1771.714</ele>
        <time>2021-07-31T09:31:30Z</time>
      </trkpt>
      <trkpt lat="40.782067" lon="-3.891470">
        <ele>1771.808</ele>
        <time>2021-07-31T09:31:33Z</time>
      </trkpt>
      <trkpt lat="40.782090" lon="-3.891462">
        <ele>1771.710</ele>
        <time>2021-07-31T09:31:38Z</time>
      </trkpt>
      <trkpt lat="40.782115" lon="-3.891465">
        <ele>1771.012</ele>
        <time>2021-07-31T09:32:08Z</time>
      </trkpt>
      <trkpt lat="40.782147" lon="-3.891452">
        <ele>1770.849</ele>
        <time>2021-07-31T09:32:10Z</time>
      </trkpt>
      <trkpt lat="40.782170" lon="-3.891442">
        <ele>1770.626</ele>
        <time>2021-07-31T09:32:13Z</time>
      </trkpt>
      <trkpt lat="40.782192" lon="-3.891433">
        <ele>1770.478</ele>
        <time>2021-07-31T09:32:17Z</time>
      </trkpt>
      <trkpt lat="40.782208" lon="-3.891415">
        <ele>1770.695</ele>
        <time>2021-07-31T09:32:24Z</time>
      </trkpt>
      <trkpt lat="40.782227" lon="-3.891400">
        <ele>1770.545</ele>
        <time>2021-07-31T09:32:29Z</time>
      </trkpt>
      <trkpt lat="40.782246" lon="-3.891393">
        <ele>1770.493</ele>
        <time>2021-07-31T09:32:32Z</time>
      </trkpt>
      <trkpt lat="40.782256" lon="-3.891418">
        <ele>1769.332</ele>
        <time>2021-07-31T09:32:36Z</time>
      </trkpt>
      <trkpt lat="40.782272" lon="-3.891406">
        <ele>1769.492</ele>
        <time>2021-07-31T09:32:41Z</time>
      </trkpt>
      <trkpt lat="40.782275" lon="-3.891382">
        <ele>1770.011</ele>
        <time>2021-07-31T09:32:44Z</time>
      </trkpt>
      <trkpt lat="40.782291" lon="-3.891353">
        <ele>1770.408</ele>
        <time>2021-07-31T09:32:47Z</time>
      </trkpt>
      <trkpt lat="40.782317" lon="-3.891348">
        <ele>1770.030</ele>
        <time>2021-07-31T09:32:51Z</time>
      </trkpt>
      <trkpt lat="40.782333" lon="-3.891330">
        <ele>1770.112</ele>
        <time>2021-07-31T09:32:53Z</time>
      </trkpt>
      <trkpt lat="40.782355" lon="-3.891308">
        <ele>1770.259</ele>
        <time>2021-07-31T09:32:55Z</time>
      </trkpt>
      <trkpt lat="40.782384" lon="-3.891298">
        <ele>1769.876</ele>
        <time>2021-07-31T09:32:57Z</time>
      </trkpt>
      <trkpt lat="40.782397" lon="-3.891278">
        <ele>1770.058</ele>
        <time>2021-07-31T09:32:59Z</time>
      </trkpt>
      <trkpt lat="40.782413" lon="-3.891262">
        <ele>1770.165</ele>
        <time>2021-07-31T09:33:01Z</time>
      </trkpt>
      <trkpt lat="40.782422" lon="-3.891234">
        <ele>1770.635</ele>
        <time>2021-07-31T09:33:04Z</time>
      </trkpt>
      <trkpt lat="40.782442" lon="-3.891220">
        <ele>1770.543</ele>
        <time>2021-07-31T09:33:06Z</time>
      </trkpt>
      <trkpt lat="40.782454" lon="-3.891195">
        <ele>1770.915</ele>
        <time>2021-07-31T09:33:08Z</time>
      </trkpt>
      <trkpt lat="40.782477" lon="-3.891182">
        <ele>1770.765</ele>
        <time>2021-07-31T09:33:12Z</time>
      </trkpt>
      <trkpt lat="40.782506" lon="-3.891173">
        <ele>1770.211</ele>
        <time>2021-07-31T09:33:14Z</time>
      </trkpt>
      <trkpt lat="40.782534" lon="-3.891158">
        <ele>1769.708</ele>
        <time>2021-07-31T09:33:18Z</time>
      </trkpt>
      <trkpt lat="40.782544" lon="-3.891183">
        <ele>1768.768</ele>
        <time>2021-07-31T09:33:23Z</time>
      </trkpt>
      <trkpt lat="40.782566" lon="-3.891177">
        <ele>1768.280</ele>
        <time>2021-07-31T09:33:28Z</time>
      </trkpt>
      <trkpt lat="40.782586" lon="-3.891175">
        <ele>1767.627</ele>
        <time>2021-07-31T09:33:32Z</time>
      </trkpt>
      <trkpt lat="40.782611" lon="-3.891175">
        <ele>1766.754</ele>
        <time>2021-07-31T09:33:34Z</time>
      </trkpt>
      <trkpt lat="40.782634" lon="-3.891168">
        <ele>1766.246</ele>
        <time>2021-07-31T09:33:37Z</time>
      </trkpt>
      <trkpt lat="40.782659" lon="-3.891167">
        <ele>1765.423</ele>
        <time>2021-07-31T09:33:40Z</time>
      </trkpt>
      <trkpt lat="40.782672" lon="-3.891150">
        <ele>1765.693</ele>
        <time>2021-07-31T09:33:42Z</time>
      </trkpt>
      <trkpt lat="40.782688" lon="-3.891132">
        <ele>1765.821</ele>
        <time>2021-07-31T09:33:44Z</time>
      </trkpt>
      <trkpt lat="40.782701" lon="-3.891113">
        <ele>1766.125</ele>
        <time>2021-07-31T09:33:47Z</time>
      </trkpt>
      <trkpt lat="40.782723" lon="-3.891133">
        <ele>1764.726</ele>
        <time>2021-07-31T09:33:53Z</time>
      </trkpt>
      <trkpt lat="40.782746" lon="-3.891143">
        <ele>1763.608</ele>
        <time>2021-07-31T09:33:56Z</time>
      </trkpt>
      <trkpt lat="40.782758" lon="-3.891120">
        <ele>1764.208</ele>
        <time>2021-07-31T09:34:00Z</time>
      </trkpt>
      <trkpt lat="40.782774" lon="-3.891102">
        <ele>1764.659</ele>
        <time>2021-07-31T09:34:07Z</time>
      </trkpt>
      <trkpt lat="40.782784" lon="-3.891080">
        <ele>1765.521</ele>
        <time>2021-07-31T09:34:16Z</time>
      </trkpt>
      <trkpt lat="40.782794" lon="-3.891053">
        <ele>1766.728</ele>
        <time>2021-07-31T09:34:23Z</time>
      </trkpt>
      <trkpt lat="40.782813" lon="-3.891038">
        <ele>1767.225</ele>
        <time>2021-07-31T09:34:25Z</time>
      </trkpt>
      <trkpt lat="40.782832" lon="-3.891042">
        <ele>1766.837</ele>
        <time>2021-07-31T09:34:27Z</time>
      </trkpt>
      <trkpt lat="40.782851" lon="-3.891030">
        <ele>1767.184</ele>
        <time>2021-07-31T09:34:33Z</time>
      </trkpt>
      <trkpt lat="40.782845" lon="-3.891005">
        <ele>1768.594</ele>
        <time>2021-07-31T09:34:39Z</time>
      </trkpt>
      <trkpt lat="40.782861" lon="-3.890985">
        <ele>1769.362</ele>
        <time>2021-07-31T09:34:46Z</time>
      </trkpt>
      <trkpt lat="40.782870" lon="-3.890962">
        <ele>1770.461</ele>
        <time>2021-07-31T09:34:51Z</time>
      </trkpt>
      <trkpt lat="40.782854" lon="-3.890950">
        <ele>1771.221</ele>
        <time>2021-07-31T09:34:54Z</time>
      </trkpt>
      <trkpt lat="40.782848" lon="-3.890922">
        <ele>1772.713</ele>
        <time>2021-07-31T09:35:02Z</time>
      </trkpt>
      <trkpt lat="40.782832" lon="-3.890904">
        <ele>1773.808</ele>
        <time>2021-07-31T09:35:07Z</time>
      </trkpt>
      <trkpt lat="40.782848" lon="-3.890892">
        <ele>1774.293</ele>
        <time>2021-07-31T09:35:12Z</time>
      </trkpt>
      <trkpt lat="40.782867" lon="-3.890888">
        <ele>1774.235</ele>
        <time>2021-07-31T09:35:15Z</time>
      </trkpt>
      <trkpt lat="40.782886" lon="-3.890880">
        <ele>1774.492</ele>
        <time>2021-07-31T09:35:19Z</time>
      </trkpt>
      <trkpt lat="40.782906" lon="-3.890887">
        <ele>1773.819</ele>
        <time>2021-07-31T09:35:32Z</time>
      </trkpt>
      <trkpt lat="40.782922" lon="-3.890905">
        <ele>1772.721</ele>
        <time>2021-07-31T09:35:35Z</time>
      </trkpt>
      <trkpt lat="40.782944" lon="-3.890904">
        <ele>1772.578</ele>
        <time>2021-07-31T09:35:37Z</time>
      </trkpt>
      <trkpt lat="40.782963" lon="-3.890907">
        <ele>1772.138</ele>
        <time>2021-07-31T09:35:40Z</time>
      </trkpt>
      <trkpt lat="40.782986" lon="-3.890898">
        <ele>1772.316</ele>
        <time>2021-07-31T09:35:43Z</time>
      </trkpt>
      <trkpt lat="40.783005" lon="-3.890895">
        <ele>1772.371</ele>
        <time>2021-07-31T09:35:47Z</time>
      </trkpt>
      <trkpt lat="40.783024" lon="-3.890907">
        <ele>1771.441</ele>
        <time>2021-07-31T09:35:56Z</time>
      </trkpt>
      <trkpt lat="40.783040" lon="-3.890920">
        <ele>1770.515</ele>
        <time>2021-07-31T09:36:00Z</time>
      </trkpt>
      <trkpt lat="40.783062" lon="-3.890920">
        <ele>1770.208</ele>
        <time>2021-07-31T09:36:03Z</time>
      </trkpt>
      <trkpt lat="40.783085" lon="-3.890932">
        <ele>1769.054</ele>
        <time>2021-07-31T09:36:06Z</time>
      </trkpt>
      <trkpt lat="40.783104" lon="-3.890928">
        <ele>1768.886</ele>
        <time>2021-07-31T09:36:12Z</time>
      </trkpt>
      <trkpt lat="40.783130" lon="-3.890925">
        <ele>1768.473</ele>
        <time>2021-07-31T09:36:17Z</time>
      </trkpt>
      <trkpt lat="40.783152" lon="-3.890933">
        <ele>1767.690</ele>
        <time>2021-07-31T09:36:20Z</time>
      </trkpt>
      <trkpt lat="40.783178" lon="-3.890940">
        <ele>1766.792</ele>
        <time>2021-07-31T09:36:24Z</time>
      </trkpt>
      <trkpt lat="40.783165" lon="-3.890923">
        <ele>1767.899</ele>
        <time>2021-07-31T09:36:30Z</time>
      </trkpt>
      <trkpt lat="40.783178" lon="-3.890895">
        <ele>1768.999</ele>
        <time>2021-07-31T09:36:35Z</time>
      </trkpt>
      <trkpt lat="40.783197" lon="-3.890887">
        <ele>1768.897</ele>
        <time>2021-07-31T09:36:41Z</time>
      </trkpt>
      <trkpt lat="40.783210" lon="-3.890868">
        <ele>1769.445</ele>
        <time>2021-07-31T09:36:43Z</time>
      </trkpt>
      <trkpt lat="40.783222" lon="-3.890848">
        <ele>1770.147</ele>
        <time>2021-07-31T09:36:46Z</time>
      </trkpt>
      <trkpt lat="40.783245" lon="-3.890838">
        <ele>1770.011</ele>
        <time>2021-07-31T09:36:51Z</time>
      </trkpt>
      <trkpt lat="40.783261" lon="-3.890825">
        <ele>1770.308</ele>
        <time>2021-07-31T09:36:54Z</time>
      </trkpt>
      <trkpt lat="40.783277" lon="-3.890808">
        <ele>1770.991</ele>
        <time>2021-07-31T09:36:57Z</time>
      </trkpt>
      <trkpt lat="40.783299" lon="-3.890788">
        <ele>1771.443</ele>
        <time>2021-07-31T09:37:02Z</time>
      </trkpt>
      <trkpt lat="40.783318" lon="-3.890773">
        <ele>1771.750</ele>
        <time>2021-07-31T09:37:06Z</time>
      </trkpt>
      <trkpt lat="40.783338" lon="-3.890758">
        <ele>1772.067</ele>
        <time>2021-07-31T09:37:09Z</time>
      </trkpt>
      <trkpt lat="40.783357" lon="-3.890760">
        <ele>1771.499</ele>
        <time>2021-07-31T09:37:11Z</time>
      </trkpt>
      <trkpt lat="40.783370" lon="-3.890733">
        <ele>1772.596</ele>
        <time>2021-07-31T09:37:18Z</time>
      </trkpt>
      <trkpt lat="40.783398" lon="-3.890668">
        <ele>1775.146</ele>
        <time>2021-07-31T09:37:56Z</time>
      </trkpt>
      <trkpt lat="40.783418" lon="-3.890652">
        <ele>1775.324</ele>
        <time>2021-07-31T09:37:57Z</time>
      </trkpt>
      <trkpt lat="40.783427" lon="-3.890630">
        <ele>1776.117</ele>
        <time>2021-07-31T09:37:59Z</time>
      </trkpt>
      <trkpt lat="40.783446" lon="-3.890605">
        <ele>1776.687</ele>
        <time>2021-07-31T09:38:01Z</time>
      </trkpt>
      <trkpt lat="40.783478" lon="-3.890582">
        <ele>1776.615</ele>
        <time>2021-07-31T09:38:04Z</time>
      </trkpt>
      <trkpt lat="40.783498" lon="-3.890570">
        <ele>1776.408</ele>
        <time>2021-07-31T09:38:05Z</time>
      </trkpt>
      <trkpt lat="40.783517" lon="-3.890560">
        <ele>1776.238</ele>
        <time>2021-07-31T09:38:12Z</time>
      </trkpt>
      <trkpt lat="40.783536" lon="-3.890570">
        <ele>1775.120</ele>
        <time>2021-07-31T09:38:20Z</time>
      </trkpt>
      <trkpt lat="40.783558" lon="-3.890554">
        <ele>1775.067</ele>
        <time>2021-07-31T09:38:24Z</time>
      </trkpt>
      <trkpt lat="40.783568" lon="-3.890528">
        <ele>1775.864</ele>
        <time>2021-07-31T09:38:28Z</time>
      </trkpt>
      <trkpt lat="40.783578" lon="-3.890505">
        <ele>1776.536</ele>
        <time>2021-07-31T09:38:31Z</time>
      </trkpt>
      <trkpt lat="40.783603" lon="-3.890492">
        <ele>1776.133</ele>
        <time>2021-07-31T09:38:35Z</time>
      </trkpt>
      <trkpt lat="40.783626" lon="-3.890473">
        <ele>1776.583</ele>
        <time>2021-07-31T09:38:39Z</time>
      </trkpt>
      <trkpt lat="40.783642" lon="-3.890462">
        <ele>1776.961</ele>
        <time>2021-07-31T09:38:41Z</time>
      </trkpt>
      <trkpt lat="40.783658" lon="-3.890442">
        <ele>1777.616</ele>
        <time>2021-07-31T09:38:44Z</time>
      </trkpt>
      <trkpt lat="40.783680" lon="-3.890432">
        <ele>1777.976</ele>
        <time>2021-07-31T09:38:46Z</time>
      </trkpt>
      <trkpt lat="40.783702" lon="-3.890420">
        <ele>1778.213</ele>
        <time>2021-07-31T09:38:49Z</time>
      </trkpt>
      <trkpt lat="40.783718" lon="-3.890396">
        <ele>1779.108</ele>
        <time>2021-07-31T09:38:51Z</time>
      </trkpt>
      <trkpt lat="40.783738" lon="-3.890390">
        <ele>1779.288</ele>
        <time>2021-07-31T09:38:55Z</time>
      </trkpt>
      <trkpt lat="40.783760" lon="-3.890375">
        <ele>1779.680</ele>
        <time>2021-07-31T09:38:57Z</time>
      </trkpt>
      <trkpt lat="40.783773" lon="-3.890350">
        <ele>1780.467</ele>
        <time>2021-07-31T09:38:59Z</time>
      </trkpt>
      <trkpt lat="40.783773" lon="-3.890325">
        <ele>1781.494</ele>
        <time>2021-07-31T09:39:01Z</time>
      </trkpt>
      <trkpt lat="40.783795" lon="-3.890305">
        <ele>1782.096</ele>
        <time>2021-07-31T09:39:07Z</time>
      </trkpt>
      <trkpt lat="40.783814" lon="-3.890297">
        <ele>1782.113</ele>
        <time>2021-07-31T09:39:12Z</time>
      </trkpt>
      <trkpt lat="40.783834" lon="-3.890272">
        <ele>1782.893</ele>
        <time>2021-07-31T09:39:17Z</time>
      </trkpt>
      <trkpt lat="40.783853" lon="-3.890243">
        <ele>1783.651</ele>
        <time>2021-07-31T09:39:22Z</time>
      </trkpt>
      <trkpt lat="40.783872" lon="-3.890237">
        <ele>1783.657</ele>
        <time>2021-07-31T09:39:28Z</time>
      </trkpt>
      <trkpt lat="40.783885" lon="-3.890220">
        <ele>1783.900</ele>
        <time>2021-07-31T09:39:34Z</time>
      </trkpt>
      <trkpt lat="40.783891" lon="-3.890194">
        <ele>1784.720</ele>
        <time>2021-07-31T09:39:42Z</time>
      </trkpt>
      <trkpt lat="40.783910" lon="-3.890190">
        <ele>1785.108</ele>
        <time>2021-07-31T09:39:44Z</time>
      </trkpt>
      <trkpt lat="40.783926" lon="-3.890177">
        <ele>1785.782</ele>
        <time>2021-07-31T09:39:48Z</time>
      </trkpt>
      <trkpt lat="40.783942" lon="-3.890158">
        <ele>1786.574</ele>
        <time>2021-07-31T09:39:51Z</time>
      </trkpt>
      <trkpt lat="40.783955" lon="-3.890140">
        <ele>1787.261</ele>
        <time>2021-07-31T09:39:55Z</time>
      </trkpt>
      <trkpt lat="40.783955" lon="-3.890107">
        <ele>1788.298</ele>
        <time>2021-07-31T09:39:59Z</time>
      </trkpt>
      <trkpt lat="40.783942" lon="-3.890085">
        <ele>1788.810</ele>
        <time>2021-07-31T09:40:03Z</time>
      </trkpt>
      <trkpt lat="40.783942" lon="-3.890058">
        <ele>1789.757</ele>
        <time>2021-07-31T09:40:09Z</time>
      </trkpt>
      <trkpt lat="40.783958" lon="-3.890046">
        <ele>1790.377</ele>
        <time>2021-07-31T09:40:13Z</time>
      </trkpt>
      <trkpt lat="40.783958" lon="-3.890022">
        <ele>1791.065</ele>
        <time>2021-07-31T09:40:21Z</time>
      </trkpt>
      <trkpt lat="40.783971" lon="-3.890002">
        <ele>1791.846</ele>
        <time>2021-07-31T09:40:33Z</time>
      </trkpt>
      <trkpt lat="40.783997" lon="-3.889987">
        <ele>1792.888</ele>
        <time>2021-07-31T09:40:36Z</time>
      </trkpt>
      <trkpt lat="40.784022" lon="-3.889984">
        <ele>1793.216</ele>
        <time>2021-07-31T09:40:38Z</time>
      </trkpt>
      <trkpt lat="40.784045" lon="-3.889978">
        <ele>1793.708</ele>
        <time>2021-07-31T09:40:41Z</time>
      </trkpt>
      <trkpt lat="40.784064" lon="-3.889975">
        <ele>1794.041</ele>
        <time>2021-07-31T09:40:44Z</time>
      </trkpt>
      <trkpt lat="40.784083" lon="-3.889982">
        <ele>1793.893</ele>
        <time>2021-07-31T09:40:47Z</time>
      </trkpt>
      <trkpt lat="40.784102" lon="-3.889992">
        <ele>1793.650</ele>
        <time>2021-07-31T09:40:52Z</time>
      </trkpt>
      <trkpt lat="40.784122" lon="-3.890002">
        <ele>1793.527</ele>
        <time>2021-07-31T09:40:55Z</time>
      </trkpt>
      <trkpt lat="40.784144" lon="-3.890002">
        <ele>1793.739</ele>
        <time>2021-07-31T09:40:57Z</time>
      </trkpt>
      <trkpt lat="40.784160" lon="-3.889990">
        <ele>1794.376</ele>
        <time>2021-07-31T09:41:00Z</time>
      </trkpt>
      <trkpt lat="40.784182" lon="-3.889988">
        <ele>1794.766</ele>
        <time>2021-07-31T09:41:04Z</time>
      </trkpt>
      <trkpt lat="40.784205" lon="-3.889996">
        <ele>1794.754</ele>
        <time>2021-07-31T09:41:09Z</time>
      </trkpt>
      <trkpt lat="40.784224" lon="-3.890005">
        <ele>1794.793</ele>
        <time>2021-07-31T09:41:13Z</time>
      </trkpt>
      <trkpt lat="40.784243" lon="-3.890010">
        <ele>1794.865</ele>
        <time>2021-07-31T09:41:16Z</time>
      </trkpt>
      <trkpt lat="40.784272" lon="-3.890006">
        <ele>1795.321</ele>
        <time>2021-07-31T09:41:21Z</time>
      </trkpt>
      <trkpt lat="40.784294" lon="-3.889992">
        <ele>1796.108</ele>
        <time>2021-07-31T09:41:23Z</time>
      </trkpt>
      <trkpt lat="40.784314" lon="-3.890003">
        <ele>1796.046</ele>
        <time>2021-07-31T09:41:26Z</time>
      </trkpt>
      <trkpt lat="40.784320" lon="-3.890028">
        <ele>1795.248</ele>
        <time>2021-07-31T09:41:28Z</time>
      </trkpt>
      <trkpt lat="40.784336" lon="-3.890057">
        <ele>1794.585</ele>
        <time>2021-07-31T09:41:32Z</time>
      </trkpt>
      <trkpt lat="40.784355" lon="-3.890075">
        <ele>1794.162</ele>
        <time>2021-07-31T09:41:37Z</time>
      </trkpt>
      <trkpt lat="40.784387" lon="-3.890097">
        <ele>1793.834</ele>
        <time>2021-07-31T09:41:39Z</time>
      </trkpt>
      <trkpt lat="40.784410" lon="-3.890110">
        <ele>1793.651</ele>
        <time>2021-07-31T09:41:42Z</time>
      </trkpt>
      <trkpt lat="40.784416" lon="-3.890137">
        <ele>1792.711</ele>
        <time>2021-07-31T09:41:44Z</time>
      </trkpt>
      <trkpt lat="40.784403" lon="-3.890164">
        <ele>1791.689</ele>
        <time>2021-07-31T09:41:46Z</time>
      </trkpt>
      <trkpt lat="40.784400" lon="-3.890198">
        <ele>1790.368</ele>
        <time>2021-07-31T09:41:54Z</time>
      </trkpt>
      <trkpt lat="40.784413" lon="-3.890223">
        <ele>1789.642</ele>
        <time>2021-07-31T09:41:56Z</time>
      </trkpt>
      <trkpt lat="40.784432" lon="-3.890247">
        <ele>1789.026</ele>
        <time>2021-07-31T09:42:00Z</time>
      </trkpt>
      <trkpt lat="40.784442" lon="-3.890270">
        <ele>1788.308</ele>
        <time>2021-07-31T09:42:04Z</time>
      </trkpt>
      <trkpt lat="40.784467" lon="-3.890277">
        <ele>1788.473</ele>
        <time>2021-07-31T09:42:08Z</time>
      </trkpt>
      <trkpt lat="40.784467" lon="-3.890302">
        <ele>1787.685</ele>
        <time>2021-07-31T09:42:15Z</time>
      </trkpt>
      <trkpt lat="40.784474" lon="-3.890330">
        <ele>1786.872</ele>
        <time>2021-07-31T09:42:17Z</time>
      </trkpt>
      <trkpt lat="40.784496" lon="-3.890346">
        <ele>1786.729</ele>
        <time>2021-07-31T09:42:20Z</time>
      </trkpt>
      <trkpt lat="40.784522" lon="-3.890355">
        <ele>1786.931</ele>
        <time>2021-07-31T09:42:23Z</time>
      </trkpt>
      <trkpt lat="40.784547" lon="-3.890362">
        <ele>1787.178</ele>
        <time>2021-07-31T09:42:29Z</time>
      </trkpt>
      <trkpt lat="40.784554" lon="-3.890372">
        <ele>1786.918</ele>
        <time>2021-07-31T09:42:30Z</time>
      </trkpt>
      <trkpt lat="40.784934" lon="-3.890395">
        <ele>1792.616</ele>
        <time>2021-07-31T09:43:38Z</time>
      </trkpt>
      <trkpt lat="40.785091" lon="-3.890177">
        <ele>1802.559</ele>
        <time>2021-07-31T09:44:38Z</time>
      </trkpt>
      <trkpt lat="40.785184" lon="-3.889930">
        <ele>1812.803</ele>
        <time>2021-07-31T09:45:38Z</time>
      </trkpt>
      <trkpt lat="40.785411" lon="-3.889747">
        <ele>1819.823</ele>
        <time>2021-07-31T09:46:38Z</time>
      </trkpt>
      <trkpt lat="40.785805" lon="-3.889540">
        <ele>1827.508</ele>
        <time>2021-07-31T09:47:38Z</time>
      </trkpt>
      <trkpt lat="40.785805" lon="-3.889172">
        <ele>1836.092</ele>
        <time>2021-07-31T09:48:38Z</time>
      </trkpt>
      <trkpt lat="40.785981" lon="-3.888784">
        <ele>1845.624</ele>
        <time>2021-07-31T09:49:38Z</time>
      </trkpt>
      <trkpt lat="40.786045" lon="-3.888293">
        <ele>1858.221</ele>
        <time>2021-07-31T09:50:38Z</time>
      </trkpt>
      <trkpt lat="40.786205" lon="-3.887756">
        <ele>1867.518</ele>
        <time>2021-07-31T09:51:38Z</time>
      </trkpt>
      <trkpt lat="40.786477" lon="-3.887205">
        <ele>1873.640</ele>
        <time>2021-07-31T09:52:38Z</time>
      </trkpt>
      <trkpt lat="40.786710" lon="-3.886498">
        <ele>1883.497</ele>
        <time>2021-07-31T09:53:38Z</time>
      </trkpt>
      <trkpt lat="40.787088" lon="-3.885873">
        <ele>1885.297</ele>
        <time>2021-07-31T09:54:38Z</time>
      </trkpt>
      <trkpt lat="40.787555" lon="-3.885265">
        <ele>1886.865</ele>
        <time>2021-07-31T09:55:38Z</time>
      </trkpt>
      <trkpt lat="40.787891" lon="-3.884527">
        <ele>1885.442</ele>
        <time>2021-07-31T09:56:38Z</time>
      </trkpt>
      <trkpt lat="40.788211" lon="-3.883802">
        <ele>1884.222</ele>
        <time>2021-07-31T09:57:38Z</time>
      </trkpt>
      <trkpt lat="40.788326" lon="-3.883408">
        <ele>1884.114</ele>
        <time>2021-07-31T09:58:13Z</time>
      </trkpt>
      <trkpt lat="40.788346" lon="-3.883393">
        <ele>1884.408</ele>
        <time>2021-07-31T09:58:14Z</time>
      </trkpt>
      <trkpt lat="40.788365" lon="-3.883383">
        <ele>1884.781</ele>
        <time>2021-07-31T09:58:16Z</time>
      </trkpt>
      <trkpt lat="40.788346" lon="-3.883365">
        <ele>1884.373</ele>
        <time>2021-07-31T09:58:27Z</time>
      </trkpt>
      <trkpt lat="40.788339" lon="-3.883338">
        <ele>1884.140</ele>
        <time>2021-07-31T10:02:31Z</time>
      </trkpt>
      <trkpt lat="40.788342" lon="-3.883307">
        <ele>1884.297</ele>
        <time>2021-07-31T10:02:33Z</time>
      </trkpt>
      <trkpt lat="40.788352" lon="-3.883283">
        <ele>1884.339</ele>
        <time>2021-07-31T10:02:34Z</time>
      </trkpt>
      <trkpt lat="40.788362" lon="-3.883252">
        <ele>1884.586</ele>
        <time>2021-07-31T10:02:36Z</time>
      </trkpt>
      <trkpt lat="40.788368" lon="-3.883223">
        <ele>1884.616</ele>
        <time>2021-07-31T10:02:38Z</time>
      </trkpt>
      <trkpt lat="40.788384" lon="-3.883203">
        <ele>1884.914</ele>
        <time>2021-07-31T10:02:40Z</time>
      </trkpt>
      <trkpt lat="40.788400" lon="-3.883178">
        <ele>1885.256</ele>
        <time>2021-07-31T10:02:44Z</time>
      </trkpt>
      <trkpt lat="40.788410" lon="-3.883150">
        <ele>1885.459</ele>
        <time>2021-07-31T10:02:47Z</time>
      </trkpt>
      <trkpt lat="40.788422" lon="-3.883125">
        <ele>1885.614</ele>
        <time>2021-07-31T10:02:49Z</time>
      </trkpt>
      <trkpt lat="40.788432" lon="-3.883095">
        <ele>1885.808</ele>
        <time>2021-07-31T10:02:52Z</time>
      </trkpt>
      <trkpt lat="40.788445" lon="-3.883070">
        <ele>1886.012</ele>
        <time>2021-07-31T10:02:55Z</time>
      </trkpt>
      <trkpt lat="40.788451" lon="-3.883037">
        <ele>1886.264</ele>
        <time>2021-07-31T10:02:59Z</time>
      </trkpt>
      <trkpt lat="40.788448" lon="-3.883006">
        <ele>1886.331</ele>
        <time>2021-07-31T10:03:02Z</time>
      </trkpt>
      <trkpt lat="40.788454" lon="-3.882970">
        <ele>1886.538</ele>
        <time>2021-07-31T10:03:05Z</time>
      </trkpt>
      <trkpt lat="40.788467" lon="-3.882945">
        <ele>1886.870</ele>
        <time>2021-07-31T10:03:07Z</time>
      </trkpt>
      <trkpt lat="40.788486" lon="-3.882922">
        <ele>1887.227</ele>
        <time>2021-07-31T10:03:09Z</time>
      </trkpt>
      <trkpt lat="40.788502" lon="-3.882908">
        <ele>1887.537</ele>
        <time>2021-07-31T10:03:11Z</time>
      </trkpt>
      <trkpt lat="40.788525" lon="-3.882882">
        <ele>1887.895</ele>
        <time>2021-07-31T10:03:15Z</time>
      </trkpt>
      <trkpt lat="40.788544" lon="-3.882820">
        <ele>1888.285</ele>
        <time>2021-07-31T10:03:21Z</time>
      </trkpt>
      <trkpt lat="40.788525" lon="-3.882802">
        <ele>1888.089</ele>
        <time>2021-07-31T10:03:25Z</time>
      </trkpt>
      <trkpt lat="40.788518" lon="-3.882778">
        <ele>1888.017</ele>
        <time>2021-07-31T10:03:28Z</time>
      </trkpt>
      <trkpt lat="40.788506" lon="-3.882757">
        <ele>1888.508</ele>
        <time>2021-07-31T10:03:31Z</time>
      </trkpt>
      <trkpt lat="40.788502" lon="-3.882730">
        <ele>1889.365</ele>
        <time>2021-07-31T10:03:34Z</time>
      </trkpt>
      <trkpt lat="40.788486" lon="-3.882715">
        <ele>1889.687</ele>
        <time>2021-07-31T10:03:39Z</time>
      </trkpt>
      <trkpt lat="40.788502" lon="-3.882693">
        <ele>1890.464</ele>
        <time>2021-07-31T10:03:42Z</time>
      </trkpt>
      <trkpt lat="40.788522" lon="-3.882677">
        <ele>1890.941</ele>
        <time>2021-07-31T10:03:45Z</time>
      </trkpt>
      <trkpt lat="40.788528" lon="-3.882653">
        <ele>1891.613</ele>
        <time>2021-07-31T10:03:49Z</time>
      </trkpt>
      <trkpt lat="40.788544" lon="-3.882638">
        <ele>1892.050</ele>
        <time>2021-07-31T10:03:52Z</time>
      </trkpt>
      <trkpt lat="40.788550" lon="-3.882615">
        <ele>1892.640</ele>
        <time>2021-07-31T10:03:55Z</time>
      </trkpt>
      <trkpt lat="40.788566" lon="-3.882592">
        <ele>1893.218</ele>
        <time>2021-07-31T10:03:59Z</time>
      </trkpt>
      <trkpt lat="40.788566" lon="-3.882567">
        <ele>1893.864</ele>
        <time>2021-07-31T10:04:02Z</time>
      </trkpt>
      <trkpt lat="40.788570" lon="-3.882540">
        <ele>1894.506</ele>
        <time>2021-07-31T10:04:05Z</time>
      </trkpt>
      <trkpt lat="40.788589" lon="-3.882520">
        <ele>1894.816</ele>
        <time>2021-07-31T10:04:09Z</time>
      </trkpt>
      <trkpt lat="40.788602" lon="-3.882496">
        <ele>1895.208</ele>
        <time>2021-07-31T10:04:13Z</time>
      </trkpt>
      <trkpt lat="40.788611" lon="-3.882475">
        <ele>1895.733</ele>
        <time>2021-07-31T10:04:16Z</time>
      </trkpt>
      <trkpt lat="40.788630" lon="-3.882448">
        <ele>1896.285</ele>
        <time>2021-07-31T10:04:19Z</time>
      </trkpt>
      <trkpt lat="40.788640" lon="-3.882427">
        <ele>1896.652</ele>
        <time>2021-07-31T10:04:21Z</time>
      </trkpt>
      <trkpt lat="40.788643" lon="-3.882403">
        <ele>1897.359</ele>
        <time>2021-07-31T10:04:23Z</time>
      </trkpt>
      <trkpt lat="40.788653" lon="-3.882372">
        <ele>1897.991</ele>
        <time>2021-07-31T10:04:26Z</time>
      </trkpt>
      <trkpt lat="40.788666" lon="-3.882352">
        <ele>1898.368</ele>
        <time>2021-07-31T10:04:28Z</time>
      </trkpt>
      <trkpt lat="40.788685" lon="-3.882330">
        <ele>1898.548</ele>
        <time>2021-07-31T10:04:30Z</time>
      </trkpt>
      <trkpt lat="40.788701" lon="-3.882302">
        <ele>1898.996</ele>
        <time>2021-07-31T10:04:33Z</time>
      </trkpt>
      <trkpt lat="40.788701" lon="-3.882276">
        <ele>1899.662</ele>
        <time>2021-07-31T10:04:35Z</time>
      </trkpt>
      <trkpt lat="40.788707" lon="-3.882248">
        <ele>1900.283</ele>
        <time>2021-07-31T10:04:38Z</time>
      </trkpt>
      <trkpt lat="40.788707" lon="-3.882217">
        <ele>1901.111</ele>
        <time>2021-07-31T10:04:41Z</time>
      </trkpt>
      <trkpt lat="40.788698" lon="-3.882190">
        <ele>1901.908</ele>
        <time>2021-07-31T10:04:45Z</time>
      </trkpt>
      <trkpt lat="40.788710" lon="-3.882167">
        <ele>1902.213</ele>
        <time>2021-07-31T10:04:48Z</time>
      </trkpt>
      <trkpt lat="40.788720" lon="-3.882145">
        <ele>1902.575</ele>
        <time>2021-07-31T10:04:52Z</time>
      </trkpt>
      <trkpt lat="40.788723" lon="-3.882118">
        <ele>1903.182</ele>
        <time>2021-07-31T10:04:55Z</time>
      </trkpt>
      <trkpt lat="40.788742" lon="-3.882102">
        <ele>1903.029</ele>
        <time>2021-07-31T10:04:57Z</time>
      </trkpt>
      <trkpt lat="40.788746" lon="-3.882067">
        <ele>1903.771</ele>
        <time>2021-07-31T10:05:00Z</time>
      </trkpt>
      <trkpt lat="40.788752" lon="-3.882030">
        <ele>1904.518</ele>
        <time>2021-07-31T10:05:03Z</time>
      </trkpt>
      <trkpt lat="40.788758" lon="-3.882003">
        <ele>1904.928</ele>
        <time>2021-07-31T10:05:06Z</time>
      </trkpt>
      <trkpt lat="40.788781" lon="-3.881995">
        <ele>1904.676</ele>
        <time>2021-07-31T10:05:08Z</time>
      </trkpt>
      <trkpt lat="40.788800" lon="-3.881990">
        <ele>1904.227</ele>
        <time>2021-07-31T10:05:09Z</time>
      </trkpt>
      <trkpt lat="40.788790" lon="-3.881956">
        <ele>1905.268</ele>
        <time>2021-07-31T10:05:12Z</time>
      </trkpt>
      <trkpt lat="40.788810" lon="-3.881933">
        <ele>1905.314</ele>
        <time>2021-07-31T10:05:15Z</time>
      </trkpt>
      <trkpt lat="40.788822" lon="-3.881910">
        <ele>1905.708</ele>
        <time>2021-07-31T10:05:18Z</time>
      </trkpt>
      <trkpt lat="40.788842" lon="-3.881895">
        <ele>1905.749</ele>
        <time>2021-07-31T10:05:20Z</time>
      </trkpt>
      <trkpt lat="40.788848" lon="-3.881870">
        <ele>1906.311</ele>
        <time>2021-07-31T10:05:23Z</time>
      </trkpt>
      <trkpt lat="40.788851" lon="-3.881840">
        <ele>1907.128</ele>
        <time>2021-07-31T10:05:27Z</time>
      </trkpt>
      <trkpt lat="40.788858" lon="-3.881810">
        <ele>1907.835</ele>
        <time>2021-07-31T10:05:32Z</time>
      </trkpt>
      <trkpt lat="40.788858" lon="-3.881783">
        <ele>1908.667</ele>
        <time>2021-07-31T10:05:36Z</time>
      </trkpt>
      <trkpt lat="40.788877" lon="-3.881765">
        <ele>1908.594</ele>
        <time>2021-07-31T10:05:38Z</time>
      </trkpt>
      <trkpt lat="40.788880" lon="-3.881740">
        <ele>1909.224</ele>
        <time>2021-07-31T10:05:42Z</time>
      </trkpt>
      <trkpt lat="40.788880" lon="-3.881715">
        <ele>1909.992</ele>
        <time>2021-07-31T10:05:45Z</time>
      </trkpt>
      <trkpt lat="40.788899" lon="-3.881713">
        <ele>1909.734</ele>
        <time>2021-07-31T10:05:46Z</time>
      </trkpt>
      <trkpt lat="40.788902" lon="-3.881688">
        <ele>1910.455</ele>
        <time>2021-07-31T10:05:50Z</time>
      </trkpt>
      <trkpt lat="40.788915" lon="-3.881668">
        <ele>1911.010</ele>
        <time>2021-07-31T10:05:53Z</time>
      </trkpt>
      <trkpt lat="40.788918" lon="-3.881640">
        <ele>1912.308</ele>
        <time>2021-07-31T10:05:57Z</time>
      </trkpt>
      <trkpt lat="40.788928" lon="-3.881616">
        <ele>1913.530</ele>
        <time>2021-07-31T10:06:01Z</time>
      </trkpt>
      <trkpt lat="40.788934" lon="-3.881586">
        <ele>1914.972</ele>
        <time>2021-07-31T10:06:05Z</time>
      </trkpt>
      <trkpt lat="40.788944" lon="-3.881563">
        <ele>1915.969</ele>
        <time>2021-07-31T10:06:09Z</time>
      </trkpt>
      <trkpt lat="40.788963" lon="-3.881542">
        <ele>1916.786</ele>
        <time>2021-07-31T10:06:12Z</time>
      </trkpt>
      <trkpt lat="40.788970" lon="-3.881517">
        <ele>1917.758</ele>
        <time>2021-07-31T10:06:16Z</time>
      </trkpt>
      <trkpt lat="40.788979" lon="-3.881492">
        <ele>1918.615</ele>
        <time>2021-07-31T10:06:19Z</time>
      </trkpt>
      <trkpt lat="40.788986" lon="-3.881465">
        <ele>1919.675</ele>
        <time>2021-07-31T10:06:22Z</time>
      </trkpt>
      <trkpt lat="40.789002" lon="-3.881446">
        <ele>1920.073</ele>
        <time>2021-07-31T10:06:26Z</time>
      </trkpt>
      <trkpt lat="40.789008" lon="-3.881418">
        <ele>1921.087</ele>
        <time>2021-07-31T10:06:30Z</time>
      </trkpt>
      <trkpt lat="40.789024" lon="-3.881404">
        <ele>1921.042</ele>
        <time>2021-07-31T10:06:36Z</time>
      </trkpt>
      <trkpt lat="40.789040" lon="-3.881390">
        <ele>1921.126</ele>
        <time>2021-07-31T10:06:38Z</time>
      </trkpt>
      <trkpt lat="40.789056" lon="-3.881375">
        <ele>1921.108</ele>
        <time>2021-07-31T10:06:40Z</time>
      </trkpt>
      <trkpt lat="40.789046" lon="-3.881353">
        <ele>1922.395</ele>
        <time>2021-07-31T10:06:42Z</time>
      </trkpt>
      <trkpt lat="40.789059" lon="-3.881330">
        <ele>1922.777</ele>
        <time>2021-07-31T10:06:46Z</time>
      </trkpt>
      <trkpt lat="40.789082" lon="-3.881317">
        <ele>1922.334</ele>
        <time>2021-07-31T10:06:49Z</time>
      </trkpt>
      <trkpt lat="40.789107" lon="-3.881305">
        <ele>1921.711</ele>
        <time>2021-07-31T10:06:52Z</time>
      </trkpt>
      <trkpt lat="40.789126" lon="-3.881297">
        <ele>1921.393</ele>
        <time>2021-07-31T10:06:54Z</time>
      </trkpt>
      <trkpt lat="40.789136" lon="-3.881275">
        <ele>1921.550</ele>
        <time>2021-07-31T10:06:57Z</time>
      </trkpt>
      <trkpt lat="40.789149" lon="-3.881256">
        <ele>1921.620</ele>
        <time>2021-07-31T10:07:00Z</time>
      </trkpt>
      <trkpt lat="40.789168" lon="-3.881245">
        <ele>1921.138</ele>
        <time>2021-07-31T10:07:02Z</time>
      </trkpt>
      <trkpt lat="40.789165" lon="-3.881213">
        <ele>1922.169</ele>
        <time>2021-07-31T10:07:06Z</time>
      </trkpt>
      <trkpt lat="40.789149" lon="-3.881190">
        <ele>1923.604</ele>
        <time>2021-07-31T10:07:10Z</time>
      </trkpt>
      <trkpt lat="40.789149" lon="-3.881163">
        <ele>1924.424</ele>
        <time>2021-07-31T10:07:18Z</time>
      </trkpt>
      <trkpt lat="40.789165" lon="-3.881145">
        <ele>1924.108</ele>
        <time>2021-07-31T10:07:21Z</time>
      </trkpt>
      <trkpt lat="40.789181" lon="-3.881130">
        <ele>1924.083</ele>
        <time>2021-07-31T10:07:23Z</time>
      </trkpt>
      <trkpt lat="40.789187" lon="-3.881105">
        <ele>1924.665</ele>
        <time>2021-07-31T10:07:26Z</time>
      </trkpt>
      <trkpt lat="40.789197" lon="-3.881080">
        <ele>1925.182</ele>
        <time>2021-07-31T10:07:30Z</time>
      </trkpt>
      <trkpt lat="40.789216" lon="-3.881065">
        <ele>1925.049</ele>
        <time>2021-07-31T10:07:33Z</time>
      </trkpt>
      <trkpt lat="40.789229" lon="-3.881042">
        <ele>1925.441</ele>
        <time>2021-07-31T10:07:37Z</time>
      </trkpt>
      <trkpt lat="40.789245" lon="-3.881020">
        <ele>1925.678</ele>
        <time>2021-07-31T10:07:40Z</time>
      </trkpt>
      <trkpt lat="40.789254" lon="-3.880998">
        <ele>1926.048</ele>
        <time>2021-07-31T10:07:43Z</time>
      </trkpt>
      <trkpt lat="40.789258" lon="-3.880972">
        <ele>1926.726</ele>
        <time>2021-07-31T10:07:46Z</time>
      </trkpt>
      <trkpt lat="40.789267" lon="-3.880950">
        <ele>1927.196</ele>
        <time>2021-07-31T10:07:49Z</time>
      </trkpt>
      <trkpt lat="40.789277" lon="-3.880925">
        <ele>1927.631</ele>
        <time>2021-07-31T10:07:51Z</time>
      </trkpt>
      <trkpt lat="40.789283" lon="-3.880898">
        <ele>1928.324</ele>
        <time>2021-07-31T10:07:54Z</time>
      </trkpt>
      <trkpt lat="40.789306" lon="-3.880882">
        <ele>1927.908</ele>
        <time>2021-07-31T10:07:57Z</time>
      </trkpt>
      <trkpt lat="40.789322" lon="-3.880866">
        <ele>1927.826</ele>
        <time>2021-07-31T10:07:59Z</time>
      </trkpt>
      <trkpt lat="40.789334" lon="-3.880845">
        <ele>1928.068</ele>
        <time>2021-07-31T10:08:01Z</time>
      </trkpt>
      <trkpt lat="40.789341" lon="-3.880820">
        <ele>1928.545</ele>
        <time>2021-07-31T10:08:03Z</time>
      </trkpt>
      <trkpt lat="40.789354" lon="-3.880802">
        <ele>1928.512</ele>
        <time>2021-07-31T10:08:05Z</time>
      </trkpt>
      <trkpt lat="40.789373" lon="-3.880782">
        <ele>1928.344</ele>
        <time>2021-07-31T10:08:07Z</time>
      </trkpt>
      <trkpt lat="40.789382" lon="-3.880753">
        <ele>1928.791</ele>
        <time>2021-07-31T10:08:09Z</time>
      </trkpt>
      <trkpt lat="40.789373" lon="-3.880730">
        <ele>1929.761</ele>
        <time>2021-07-31T10:08:11Z</time>
      </trkpt>
      <trkpt lat="40.789363" lon="-3.880707">
        <ele>1930.869</ele>
        <time>2021-07-31T10:08:14Z</time>
      </trkpt>
      <trkpt lat="40.789379" lon="-3.880685">
        <ele>1930.731</ele>
        <time>2021-07-31T10:08:17Z</time>
      </trkpt>
      <trkpt lat="40.789379" lon="-3.880655">
        <ele>1931.561</ele>
        <time>2021-07-31T10:08:21Z</time>
      </trkpt>
      <trkpt lat="40.789382" lon="-3.880632">
        <ele>1932.007</ele>
        <time>2021-07-31T10:08:23Z</time>
      </trkpt>
      <trkpt lat="40.789382" lon="-3.880598">
        <ele>1933.008</ele>
        <time>2021-07-31T10:08:26Z</time>
      </trkpt>
      <trkpt lat="40.789395" lon="-3.880578">
        <ele>1932.910</ele>
        <time>2021-07-31T10:08:28Z</time>
      </trkpt>
      <trkpt lat="40.789398" lon="-3.880552">
        <ele>1933.452</ele>
        <time>2021-07-31T10:08:31Z</time>
      </trkpt>
      <trkpt lat="40.789398" lon="-3.880526">
        <ele>1934.119</ele>
        <time>2021-07-31T10:08:34Z</time>
      </trkpt>
      <trkpt lat="40.789398" lon="-3.880488">
        <ele>1935.066</ele>
        <time>2021-07-31T10:08:37Z</time>
      </trkpt>
      <trkpt lat="40.789402" lon="-3.880463">
        <ele>1935.548</ele>
        <time>2021-07-31T10:08:43Z</time>
      </trkpt>
      <trkpt lat="40.789414" lon="-3.880438">
        <ele>1935.585</ele>
        <time>2021-07-31T10:08:47Z</time>
      </trkpt>
      <trkpt lat="40.789421" lon="-3.880412">
        <ele>1935.855</ele>
        <time>2021-07-31T10:08:50Z</time>
      </trkpt>
      <trkpt lat="40.789421" lon="-3.880383">
        <ele>1936.533</ele>
        <time>2021-07-31T10:08:53Z</time>
      </trkpt>
      <trkpt lat="40.789418" lon="-3.880358">
        <ele>1937.361</ele>
        <time>2021-07-31T10:08:59Z</time>
      </trkpt>
      <trkpt lat="40.789411" lon="-3.880335">
        <ele>1938.221</ele>
        <time>2021-07-31T10:09:04Z</time>
      </trkpt>
      <trkpt lat="40.789398" lon="-3.880315">
        <ele>1939.413</ele>
        <time>2021-07-31T10:09:09Z</time>
      </trkpt>
      <trkpt lat="40.789405" lon="-3.880287">
        <ele>1939.808</ele>
        <time>2021-07-31T10:09:15Z</time>
      </trkpt>
      <trkpt lat="40.789395" lon="-3.880260">
        <ele>1940.993</ele>
        <time>2021-07-31T10:09:19Z</time>
      </trkpt>
      <trkpt lat="40.789386" lon="-3.880235">
        <ele>1941.865</ele>
        <time>2021-07-31T10:09:23Z</time>
      </trkpt>
      <trkpt lat="40.789373" lon="-3.880216">
        <ele>1942.822</ele>
        <time>2021-07-31T10:09:27Z</time>
      </trkpt>
      <trkpt lat="40.789376" lon="-3.880190">
        <ele>1943.279</ele>
        <time>2021-07-31T10:09:33Z</time>
      </trkpt>
      <trkpt lat="40.789376" lon="-3.880163">
        <ele>1943.791</ele>
        <time>2021-07-31T10:09:37Z</time>
      </trkpt>
      <trkpt lat="40.789382" lon="-3.880140">
        <ele>1943.968</ele>
        <time>2021-07-31T10:09:40Z</time>
      </trkpt>
      <trkpt lat="40.789382" lon="-3.880110">
        <ele>1944.598</ele>
        <time>2021-07-31T10:09:43Z</time>
      </trkpt>
      <trkpt lat="40.789395" lon="-3.880077">
        <ele>1944.676</ele>
        <time>2021-07-31T10:09:46Z</time>
      </trkpt>
      <trkpt lat="40.789398" lon="-3.880050">
        <ele>1945.041</ele>
        <time>2021-07-31T10:09:49Z</time>
      </trkpt>
      <trkpt lat="40.789395" lon="-3.880025">
        <ele>1945.681</ele>
        <time>2021-07-31T10:09:52Z</time>
      </trkpt>
      <trkpt lat="40.789395" lon="-3.880000">
        <ele>1946.109</ele>
        <time>2021-07-31T10:09:55Z</time>
      </trkpt>
      <trkpt lat="40.789398" lon="-3.879972">
        <ele>1946.508</ele>
        <time>2021-07-31T10:09:58Z</time>
      </trkpt>
      <trkpt lat="40.789392" lon="-3.879947">
        <ele>1947.221</ele>
        <time>2021-07-31T10:10:01Z</time>
      </trkpt>
      <trkpt lat="40.789379" lon="-3.879925">
        <ele>1948.133</ele>
        <time>2021-07-31T10:10:04Z</time>
      </trkpt>
      <trkpt lat="40.789379" lon="-3.879900">
        <ele>1948.530</ele>
        <time>2021-07-31T10:10:07Z</time>
      </trkpt>
      <trkpt lat="40.789379" lon="-3.879872">
        <ele>1949.027</ele>
        <time>2021-07-31T10:10:10Z</time>
      </trkpt>
      <trkpt lat="40.789379" lon="-3.879843">
        <ele>1949.519</ele>
        <time>2021-07-31T10:10:13Z</time>
      </trkpt>
      <trkpt lat="40.789373" lon="-3.879820">
        <ele>1950.226</ele>
        <time>2021-07-31T10:10:15Z</time>
      </trkpt>
      <trkpt lat="40.789360" lon="-3.879800">
        <ele>1951.086</ele>
        <time>2021-07-31T10:10:19Z</time>
      </trkpt>
      <trkpt lat="40.789366" lon="-3.879773">
        <ele>1951.284</ele>
        <time>2021-07-31T10:10:23Z</time>
      </trkpt>
      <trkpt lat="40.789363" lon="-3.879748">
        <ele>1951.847</ele>
        <time>2021-07-31T10:10:27Z</time>
      </trkpt>
      <trkpt lat="40.789373" lon="-3.879727">
        <ele>1951.729</ele>
        <time>2021-07-31T10:10:30Z</time>
      </trkpt>
      <trkpt lat="40.789373" lon="-3.879697">
        <ele>1952.221</ele>
        <time>2021-07-31T10:10:33Z</time>
      </trkpt>
      <trkpt lat="40.789386" lon="-3.879668">
        <ele>1952.208</ele>
        <time>2021-07-31T10:10:36Z</time>
      </trkpt>
      <trkpt lat="40.789398" lon="-3.879642">
        <ele>1952.131</ele>
        <time>2021-07-31T10:10:38Z</time>
      </trkpt>
      <trkpt lat="40.789405" lon="-3.879610">
        <ele>1952.473</ele>
        <time>2021-07-31T10:10:41Z</time>
      </trkpt>
      <trkpt lat="40.789414" lon="-3.879587">
        <ele>1952.520</ele>
        <time>2021-07-31T10:10:44Z</time>
      </trkpt>
      <trkpt lat="40.789414" lon="-3.879555">
        <ele>1953.097</ele>
        <time>2021-07-31T10:10:48Z</time>
      </trkpt>
      <trkpt lat="40.789411" lon="-3.879527">
        <ele>1953.669</ele>
        <time>2021-07-31T10:10:51Z</time>
      </trkpt>
      <trkpt lat="40.789411" lon="-3.879498">
        <ele>1954.146</ele>
        <time>2021-07-31T10:10:55Z</time>
      </trkpt>
      <trkpt lat="40.789402" lon="-3.879476">
        <ele>1954.716</ele>
        <time>2021-07-31T10:10:57Z</time>
      </trkpt>
      <trkpt lat="40.789398" lon="-3.879452">
        <ele>1955.234</ele>
        <time>2021-07-31T10:11:00Z</time>
      </trkpt>
      <trkpt lat="40.789398" lon="-3.879422">
        <ele>1955.752</ele>
        <time>2021-07-31T10:11:03Z</time>
      </trkpt>
      <trkpt lat="40.789395" lon="-3.879395">
        <ele>1956.253</ele>
        <time>2021-07-31T10:11:05Z</time>
      </trkpt>
      <trkpt lat="40.789379" lon="-3.879368">
        <ele>1957.008</ele>
        <time>2021-07-31T10:11:09Z</time>
      </trkpt>
      <trkpt lat="40.789373" lon="-3.879345">
        <ele>1957.608</ele>
        <time>2021-07-31T10:11:12Z</time>
      </trkpt>
      <trkpt lat="40.789373" lon="-3.879318">
        <ele>1958.032</ele>
        <time>2021-07-31T10:11:16Z</time>
      </trkpt>
      <trkpt lat="40.789366" lon="-3.879290">
        <ele>1958.624</ele>
        <time>2021-07-31T10:11:20Z</time>
      </trkpt>
      <trkpt lat="40.789366" lon="-3.879264">
        <ele>1959.021</ele>
        <time>2021-07-31T10:11:23Z</time>
      </trkpt>
      <trkpt lat="40.789373" lon="-3.879238">
        <ele>1959.248</ele>
        <time>2021-07-31T10:11:26Z</time>
      </trkpt>
      <trkpt lat="40.789373" lon="-3.879208">
        <ele>1959.780</ele>
        <time>2021-07-31T10:11:29Z</time>
      </trkpt>
      <trkpt lat="40.789373" lon="-3.879178">
        <ele>1960.167</ele>
        <time>2021-07-31T10:11:33Z</time>
      </trkpt>
      <trkpt lat="40.789376" lon="-3.879155">
        <ele>1960.497</ele>
        <time>2021-07-31T10:11:36Z</time>
      </trkpt>
      <trkpt lat="40.789382" lon="-3.879128">
        <ele>1960.795</ele>
        <time>2021-07-31T10:11:39Z</time>
      </trkpt>
      <trkpt lat="40.789392" lon="-3.879094">
        <ele>1961.072</ele>
        <time>2021-07-31T10:11:42Z</time>
      </trkpt>
      <trkpt lat="40.789398" lon="-3.879068">
        <ele>1961.213</ele>
        <time>2021-07-31T10:11:44Z</time>
      </trkpt>
      <trkpt lat="40.789421" lon="-3.879045">
        <ele>1960.914</ele>
        <time>2021-07-31T10:11:47Z</time>
      </trkpt>
      <trkpt lat="40.789440" lon="-3.879028">
        <ele>1960.608</ele>
        <time>2021-07-31T10:11:49Z</time>
      </trkpt>
      <trkpt lat="40.789443" lon="-3.879005">
        <ele>1961.054</ele>
        <time>2021-07-31T10:11:52Z</time>
      </trkpt>
      <trkpt lat="40.789475" lon="-3.878988">
        <ele>1960.496</ele>
        <time>2021-07-31T10:11:54Z</time>
      </trkpt>
      <trkpt lat="40.789466" lon="-3.878962">
        <ele>1961.173</ele>
        <time>2021-07-31T10:11:57Z</time>
      </trkpt>
      <trkpt lat="40.789466" lon="-3.878928">
        <ele>1961.890</ele>
        <time>2021-07-31T10:12:00Z</time>
      </trkpt>
      <trkpt lat="40.789475" lon="-3.878903">
        <ele>1962.022</ele>
        <time>2021-07-31T10:12:03Z</time>
      </trkpt>
      <trkpt lat="40.789491" lon="-3.878873">
        <ele>1962.169</ele>
        <time>2021-07-31T10:12:06Z</time>
      </trkpt>
      <trkpt lat="40.789494" lon="-3.878842">
        <ele>1962.619</ele>
        <time>2021-07-31T10:12:09Z</time>
      </trkpt>
      <trkpt lat="40.789491" lon="-3.878812">
        <ele>1963.237</ele>
        <time>2021-07-31T10:12:13Z</time>
      </trkpt>
      <trkpt lat="40.789485" lon="-3.878786">
        <ele>1963.825</ele>
        <time>2021-07-31T10:12:17Z</time>
      </trkpt>
      <trkpt lat="40.789482" lon="-3.878755">
        <ele>1964.426</ele>
        <time>2021-07-31T10:12:21Z</time>
      </trkpt>
      <trkpt lat="40.789478" lon="-3.878732">
        <ele>1964.908</ele>
        <time>2021-07-31T10:12:25Z</time>
      </trkpt>
      <trkpt lat="40.789466" lon="-3.878713">
        <ele>1965.608</ele>
        <time>2021-07-31T10:12:27Z</time>
      </trkpt>
      <trkpt lat="40.789456" lon="-3.878690">
        <ele>1966.399</ele>
        <time>2021-07-31T10:12:32Z</time>
      </trkpt>
      <trkpt lat="40.789440" lon="-3.878678">
        <ele>1966.961</ele>
        <time>2021-07-31T10:12:36Z</time>
      </trkpt>
      <trkpt lat="40.789424" lon="-3.878665">
        <ele>1967.768</ele>
        <time>2021-07-31T10:12:39Z</time>
      </trkpt>
      <trkpt lat="40.789414" lon="-3.878642">
        <ele>1968.525</ele>
        <time>2021-07-31T10:12:45Z</time>
      </trkpt>
      <trkpt lat="40.789402" lon="-3.878618">
        <ele>1969.427</ele>
        <time>2021-07-31T10:12:49Z</time>
      </trkpt>
      <trkpt lat="40.789418" lon="-3.878597">
        <ele>1969.384</ele>
        <time>2021-07-31T10:12:51Z</time>
      </trkpt>
      <trkpt lat="40.789424" lon="-3.878574">
        <ele>1969.754</ele>
        <time>2021-07-31T10:12:54Z</time>
      </trkpt>
      <trkpt lat="40.789424" lon="-3.878542">
        <ele>1970.562</ele>
        <time>2021-07-31T10:12:58Z</time>
      </trkpt>
      <trkpt lat="40.789424" lon="-3.878513">
        <ele>1971.355</ele>
        <time>2021-07-31T10:13:02Z</time>
      </trkpt>
      <trkpt lat="40.789434" lon="-3.878492">
        <ele>1971.407</ele>
        <time>2021-07-31T10:13:05Z</time>
      </trkpt>
      <trkpt lat="40.789421" lon="-3.878467">
        <ele>1972.617</ele>
        <time>2021-07-31T10:13:09Z</time>
      </trkpt>
      <trkpt lat="40.789414" lon="-3.878443">
        <ele>1973.508</ele>
        <time>2021-07-31T10:13:12Z</time>
      </trkpt>
      <trkpt lat="40.789398" lon="-3.878428">
        <ele>1974.672</ele>
        <time>2021-07-31T10:13:15Z</time>
      </trkpt>
      <trkpt lat="40.789398" lon="-3.878397">
        <ele>1975.554</ele>
        <time>2021-07-31T10:13:19Z</time>
      </trkpt>
      <trkpt lat="40.789395" lon="-3.878368">
        <ele>1976.411</ele>
        <time>2021-07-31T10:13:23Z</time>
      </trkpt>
      <trkpt lat="40.789398" lon="-3.878338">
        <ele>1977.048</ele>
        <time>2021-07-31T10:13:26Z</time>
      </trkpt>
      <trkpt lat="40.789398" lon="-3.878308">
        <ele>1977.760</ele>
        <time>2021-07-31T10:13:30Z</time>
      </trkpt>
      <trkpt lat="40.789398" lon="-3.878283">
        <ele>1978.297</ele>
        <time>2021-07-31T10:13:33Z</time>
      </trkpt>
      <trkpt lat="40.789405" lon="-3.878254">
        <ele>1978.477</ele>
        <time>2021-07-31T10:13:37Z</time>
      </trkpt>
      <trkpt lat="40.789411" lon="-3.878227">
        <ele>1978.735</ele>
        <time>2021-07-31T10:13:40Z</time>
      </trkpt>
      <trkpt lat="40.789418" lon="-3.878202">
        <ele>1978.896</ele>
        <time>2021-07-31T10:13:43Z</time>
      </trkpt>
      <trkpt lat="40.789414" lon="-3.878172">
        <ele>1979.631</ele>
        <time>2021-07-31T10:13:48Z</time>
      </trkpt>
      <trkpt lat="40.789418" lon="-3.878147">
        <ele>1979.824</ele>
        <time>2021-07-31T10:13:52Z</time>
      </trkpt>
      <trkpt lat="40.789434" lon="-3.878128">
        <ele>1979.308</ele>
        <time>2021-07-31T10:13:54Z</time>
      </trkpt>
      <trkpt lat="40.789437" lon="-3.878103">
        <ele>1979.686</ele>
        <time>2021-07-31T10:13:56Z</time>
      </trkpt>
      <trkpt lat="40.789453" lon="-3.878083">
        <ele>1979.388</ele>
        <time>2021-07-31T10:13:58Z</time>
      </trkpt>
      <trkpt lat="40.789462" lon="-3.878060">
        <ele>1979.475</ele>
        <time>2021-07-31T10:14:01Z</time>
      </trkpt>
      <trkpt lat="40.789475" lon="-3.878033">
        <ele>1979.782</ele>
        <time>2021-07-31T10:14:03Z</time>
      </trkpt>
      <trkpt lat="40.789482" lon="-3.878008">
        <ele>1980.144</ele>
        <time>2021-07-31T10:14:05Z</time>
      </trkpt>
      <trkpt lat="40.789491" lon="-3.877987">
        <ele>1980.461</ele>
        <time>2021-07-31T10:14:07Z</time>
      </trkpt>
      <trkpt lat="40.789498" lon="-3.877935">
        <ele>1981.571</ele>
        <time>2021-07-31T10:14:12Z</time>
      </trkpt>
      <trkpt lat="40.789498" lon="-3.877905">
        <ele>1982.349</ele>
        <time>2021-07-31T10:14:15Z</time>
      </trkpt>
      <trkpt lat="40.789504" lon="-3.877882">
        <ele>1982.762</ele>
        <time>2021-07-31T10:14:18Z</time>
      </trkpt>
      <trkpt lat="40.789510" lon="-3.877853">
        <ele>1983.283</ele>
        <time>2021-07-31T10:14:21Z</time>
      </trkpt>
      <trkpt lat="40.789520" lon="-3.877823">
        <ele>1983.711</ele>
        <time>2021-07-31T10:14:24Z</time>
      </trkpt>
      <trkpt lat="40.789533" lon="-3.877802">
        <ele>1983.808</ele>
        <time>2021-07-31T10:14:27Z</time>
      </trkpt>
      <trkpt lat="40.789539" lon="-3.877775">
        <ele>1984.323</ele>
        <time>2021-07-31T10:14:30Z</time>
      </trkpt>
      <trkpt lat="40.789552" lon="-3.877755">
        <ele>1984.315</ele>
        <time>2021-07-31T10:14:32Z</time>
      </trkpt>
      <trkpt lat="40.789562" lon="-3.877728">
        <ele>1984.692</ele>
        <time>2021-07-31T10:14:34Z</time>
      </trkpt>
      <trkpt lat="40.789558" lon="-3.877702">
        <ele>1985.249</ele>
        <time>2021-07-31T10:14:37Z</time>
      </trkpt>
      <trkpt lat="40.789571" lon="-3.877675">
        <ele>1985.381</ele>
        <time>2021-07-31T10:14:40Z</time>
      </trkpt>
      <trkpt lat="40.789590" lon="-3.877652">
        <ele>1985.018</ele>
        <time>2021-07-31T10:14:43Z</time>
      </trkpt>
      <trkpt lat="40.789610" lon="-3.877625">
        <ele>1984.838</ele>
        <time>2021-07-31T10:14:46Z</time>
      </trkpt>
      <trkpt lat="40.789622" lon="-3.877592">
        <ele>1984.986</ele>
        <time>2021-07-31T10:14:50Z</time>
      </trkpt>
      <trkpt lat="40.789635" lon="-3.877562">
        <ele>1984.813</ele>
        <time>2021-07-31T10:14:53Z</time>
      </trkpt>
      <trkpt lat="40.789622" lon="-3.877532">
        <ele>1985.843</ele>
        <time>2021-07-31T10:14:57Z</time>
      </trkpt>
      <trkpt lat="40.789613" lon="-3.877505">
        <ele>1986.607</ele>
        <time>2021-07-31T10:15:02Z</time>
      </trkpt>
      <trkpt lat="40.789600" lon="-3.877480">
        <ele>1987.608</ele>
        <time>2021-07-31T10:15:06Z</time>
      </trkpt>
      <trkpt lat="40.789581" lon="-3.877462">
        <ele>1988.858</ele>
        <time>2021-07-31T10:16:18Z</time>
      </trkpt>
      <trkpt lat="40.789562" lon="-3.877445">
        <ele>1989.960</ele>
        <time>2021-07-31T10:16:21Z</time>
      </trkpt>
      <trkpt lat="40.789542" lon="-3.877440">
        <ele>1990.967</ele>
        <time>2021-07-31T10:16:24Z</time>
      </trkpt>
      <trkpt lat="40.789523" lon="-3.877422">
        <ele>1992.154</ele>
        <time>2021-07-31T10:16:27Z</time>
      </trkpt>
      <trkpt lat="40.789533" lon="-3.877467">
        <ele>1990.846</ele>
        <time>2021-07-31T10:19:58Z</time>
      </trkpt>
      <trkpt lat="40.789520" lon="-3.877433">
        <ele>1992.153</ele>
        <time>2021-07-31T10:20:00Z</time>
      </trkpt>
      <trkpt lat="40.789514" lon="-3.877410">
        <ele>1992.863</ele>
        <time>2021-07-31T10:20:02Z</time>
      </trkpt>
      <trkpt lat="40.789501" lon="-3.877386">
        <ele>1993.931</ele>
        <time>2021-07-31T10:20:05Z</time>
      </trkpt>
      <trkpt lat="40.789491" lon="-3.877363">
        <ele>1994.849</ele>
        <time>2021-07-31T10:20:07Z</time>
      </trkpt>
      <trkpt lat="40.789472" lon="-3.877368">
        <ele>1995.602</ele>
        <time>2021-07-31T10:20:11Z</time>
      </trkpt>
      <trkpt lat="40.789453" lon="-3.877366">
        <ele>1996.522</ele>
        <time>2021-07-31T10:20:14Z</time>
      </trkpt>
      <trkpt lat="40.789440" lon="-3.877347">
        <ele>1997.708</ele>
        <time>2021-07-31T10:20:17Z</time>
      </trkpt>
      <trkpt lat="40.789418" lon="-3.877335">
        <ele>1999.721</ele>
        <time>2021-07-31T10:20:21Z</time>
      </trkpt>
      <trkpt lat="40.789398" lon="-3.877322">
        <ele>2001.543</ele>
        <time>2021-07-31T10:20:24Z</time>
      </trkpt>
      <trkpt lat="40.789382" lon="-3.877298">
        <ele>2003.280</ele>
        <time>2021-07-31T10:20:30Z</time>
      </trkpt>
      <trkpt lat="40.789379" lon="-3.877282">
        <ele>2003.767</ele>
        <time>2021-07-31T10:20:33Z</time>
      </trkpt>
      <trkpt lat="40.789366" lon="-3.877257">
        <ele>2005.159</ele>
        <time>2021-07-31T10:20:38Z</time>
      </trkpt>
      <trkpt lat="40.789373" lon="-3.877232">
        <ele>2005.036</ele>
        <time>2021-07-31T10:20:41Z</time>
      </trkpt>
      <trkpt lat="40.789354" lon="-3.877215">
        <ele>2006.586</ele>
        <time>2021-07-31T10:20:48Z</time>
      </trkpt>
      <trkpt lat="40.789334" lon="-3.877218">
        <ele>2007.984</ele>
        <time>2021-07-31T10:20:54Z</time>
      </trkpt>
      <trkpt lat="40.789325" lon="-3.877195">
        <ele>2008.353</ele>
        <time>2021-07-31T10:21:02Z</time>
      </trkpt>
      <trkpt lat="40.789315" lon="-3.877170">
        <ele>2008.604</ele>
        <time>2021-07-31T10:21:07Z</time>
      </trkpt>
      <trkpt lat="40.789312" lon="-3.877143">
        <ele>2008.414</ele>
        <time>2021-07-31T10:21:14Z</time>
      </trkpt>
      <trkpt lat="40.789296" lon="-3.877127">
        <ele>2008.908</ele>
        <time>2021-07-31T10:21:20Z</time>
      </trkpt>
      <trkpt lat="40.789280" lon="-3.877142">
        <ele>2010.042</ele>
        <time>2021-07-31T10:21:24Z</time>
      </trkpt>
      <trkpt lat="40.789261" lon="-3.877158">
        <ele>2011.424</ele>
        <time>2021-07-31T10:21:28Z</time>
      </trkpt>
      <trkpt lat="40.789238" lon="-3.877162">
        <ele>2012.811</ele>
        <time>2021-07-31T10:21:30Z</time>
      </trkpt>
      <trkpt lat="40.789213" lon="-3.877178">
        <ele>2014.868</ele>
        <time>2021-07-31T10:21:32Z</time>
      </trkpt>
      <trkpt lat="40.789242" lon="-3.877180">
        <ele>2013.230</ele>
        <time>2021-07-31T10:21:42Z</time>
      </trkpt>
      <trkpt lat="40.789261" lon="-3.877178">
        <ele>2012.097</ele>
        <time>2021-07-31T10:21:43Z</time>
      </trkpt>
      <trkpt lat="40.789235" lon="-3.877168">
        <ele>2013.277</ele>
        <time>2021-07-31T10:22:55Z</time>
      </trkpt>
      <trkpt lat="40.789242" lon="-3.877195">
        <ele>2013.735</ele>
        <time>2021-07-31T10:22:59Z</time>
      </trkpt>
      <trkpt lat="40.789254" lon="-3.877223">
        <ele>2013.727</ele>
        <time>2021-07-31T10:23:01Z</time>
      </trkpt>
      <trkpt lat="40.789245" lon="-3.877247">
        <ele>2014.268</ele>
        <time>2021-07-31T10:23:05Z</time>
      </trkpt>
      <trkpt lat="40.789222" lon="-3.877245">
        <ele>2015.914</ele>
        <time>2021-07-31T10:23:10Z</time>
      </trkpt>
      <trkpt lat="40.789197" lon="-3.877282">
        <ele>2017.708</ele>
        <time>2021-07-31T10:24:21Z</time>
      </trkpt>
      <trkpt lat="40.789187" lon="-3.877305">
        <ele>2018.449</ele>
        <time>2021-07-31T10:24:24Z</time>
      </trkpt>
      <trkpt lat="40.789168" lon="-3.877330">
        <ele>2019.991</ele>
        <time>2021-07-31T10:24:29Z</time>
      </trkpt>
      <trkpt lat="40.789174" lon="-3.877302">
        <ele>2019.428</ele>
        <time>2021-07-31T10:38:38Z</time>
      </trkpt>
      <trkpt lat="40.789216" lon="-3.877260">
        <ele>2016.365</ele>
        <time>2021-07-31T10:39:29Z</time>
      </trkpt>
      <trkpt lat="40.789264" lon="-3.877180">
        <ele>2011.817</ele>
        <time>2021-07-31T10:41:14Z</time>
      </trkpt>
      <trkpt lat="40.789277" lon="-3.877204">
        <ele>2011.614</ele>
        <time>2021-07-31T10:41:17Z</time>
      </trkpt>
      <trkpt lat="40.789286" lon="-3.877235">
        <ele>2011.354</ele>
        <time>2021-07-31T10:41:23Z</time>
      </trkpt>
      <trkpt lat="40.789306" lon="-3.877248">
        <ele>2009.772</ele>
        <time>2021-07-31T10:41:27Z</time>
      </trkpt>
      <trkpt lat="40.789325" lon="-3.877237">
        <ele>2008.474</ele>
        <time>2021-07-31T10:41:29Z</time>
      </trkpt>
      <trkpt lat="40.789338" lon="-3.877257">
        <ele>2007.256</ele>
        <time>2021-07-31T10:41:32Z</time>
      </trkpt>
      <trkpt lat="40.789328" lon="-3.877278">
        <ele>2007.721</ele>
        <time>2021-07-31T10:41:37Z</time>
      </trkpt>
      <trkpt lat="40.789306" lon="-3.877297">
        <ele>2009.208</ele>
        <time>2021-07-31T10:41:42Z</time>
      </trkpt>
      <trkpt lat="40.789286" lon="-3.877308">
        <ele>2010.634</ele>
        <time>2021-07-31T10:41:44Z</time>
      </trkpt>
      <trkpt lat="40.789261" lon="-3.877323">
        <ele>2012.526</ele>
        <time>2021-07-31T10:41:45Z</time>
      </trkpt>
      <trkpt lat="40.789226" lon="-3.877353">
        <ele>2015.113</ele>
        <time>2021-07-31T10:41:56Z</time>
      </trkpt>
      <trkpt lat="40.789216" lon="-3.877375">
        <ele>2015.940</ele>
        <time>2021-07-31T10:42:01Z</time>
      </trkpt>
      <trkpt lat="40.789216" lon="-3.877400">
        <ele>2015.872</ele>
        <time>2021-07-31T10:42:05Z</time>
      </trkpt>
      <trkpt lat="40.789235" lon="-3.877408">
        <ele>2014.159</ele>
        <time>2021-07-31T10:42:11Z</time>
      </trkpt>
      <trkpt lat="40.789229" lon="-3.877378">
        <ele>2014.849</ele>
        <time>2021-07-31T10:42:19Z</time>
      </trkpt>
      <trkpt lat="40.789248" lon="-3.877398">
        <ele>2013.037</ele>
        <time>2021-07-31T10:42:31Z</time>
      </trkpt>
      <trkpt lat="40.789267" lon="-3.877405">
        <ele>2011.317</ele>
        <time>2021-07-31T10:42:34Z</time>
      </trkpt>
      <trkpt lat="40.789293" lon="-3.877392">
        <ele>2009.287</ele>
        <time>2021-07-31T10:42:41Z</time>
      </trkpt>
      <trkpt lat="40.789312" lon="-3.877396">
        <ele>2007.615</ele>
        <time>2021-07-31T10:42:43Z</time>
      </trkpt>
      <trkpt lat="40.789334" lon="-3.877398">
        <ele>2005.708</ele>
        <time>2021-07-31T10:42:45Z</time>
      </trkpt>
      <trkpt lat="40.789354" lon="-3.877393">
        <ele>2004.018</ele>
        <time>2021-07-31T10:42:47Z</time>
      </trkpt>
      <trkpt lat="40.789338" lon="-3.877413">
        <ele>2005.110</ele>
        <time>2021-07-31T10:42:51Z</time>
      </trkpt>
      <trkpt lat="40.789318" lon="-3.877425">
        <ele>2006.767</ele>
        <time>2021-07-31T10:42:54Z</time>
      </trkpt>
      <trkpt lat="40.789306" lon="-3.877443">
        <ele>2007.634</ele>
        <time>2021-07-31T10:42:58Z</time>
      </trkpt>
      <trkpt lat="40.789328" lon="-3.877450">
        <ele>2005.536</ele>
        <time>2021-07-31T10:43:00Z</time>
      </trkpt>
      <trkpt lat="40.789357" lon="-3.877432">
        <ele>2003.293</ele>
        <time>2021-07-31T10:43:04Z</time>
      </trkpt>
      <trkpt lat="40.789392" lon="-3.877403">
        <ele>2000.683</ele>
        <time>2021-07-31T10:43:48Z</time>
      </trkpt>
      <trkpt lat="40.789398" lon="-3.877372">
        <ele>2000.771</ele>
        <time>2021-07-31T10:43:50Z</time>
      </trkpt>
      <trkpt lat="40.789405" lon="-3.877348">
        <ele>2000.535</ele>
        <time>2021-07-31T10:43:52Z</time>
      </trkpt>
      <trkpt lat="40.789424" lon="-3.877322">
        <ele>1999.586</ele>
        <time>2021-07-31T10:43:54Z</time>
      </trkpt>
      <trkpt lat="40.789437" lon="-3.877302">
        <ele>1998.914</ele>
        <time>2021-07-31T10:43:56Z</time>
      </trkpt>
      <trkpt lat="40.789456" lon="-3.877317">
        <ele>1997.408</ele>
        <time>2021-07-31T10:44:03Z</time>
      </trkpt>
      <trkpt lat="40.789475" lon="-3.877303">
        <ele>1996.850</ele>
        <time>2021-07-31T10:44:07Z</time>
      </trkpt>
      <trkpt lat="40.789494" lon="-3.877302">
        <ele>1995.912</ele>
        <time>2021-07-31T10:44:10Z</time>
      </trkpt>
      <trkpt lat="40.789504" lon="-3.877323">
        <ele>1995.099</ele>
        <time>2021-07-31T10:44:12Z</time>
      </trkpt>
      <trkpt lat="40.789520" lon="-3.877312">
        <ele>1994.426</ele>
        <time>2021-07-31T10:44:15Z</time>
      </trkpt>
      <trkpt lat="40.789542" lon="-3.877292">
        <ele>1993.878</ele>
        <time>2021-07-31T10:44:18Z</time>
      </trkpt>
      <trkpt lat="40.789562" lon="-3.877293">
        <ele>1992.885</ele>
        <time>2021-07-31T10:44:20Z</time>
      </trkpt>
      <trkpt lat="40.789578" lon="-3.877268">
        <ele>1992.435</ele>
        <time>2021-07-31T10:44:23Z</time>
      </trkpt>
      <trkpt lat="40.789584" lon="-3.877243">
        <ele>1992.623</ele>
        <time>2021-07-31T10:44:29Z</time>
      </trkpt>
      <trkpt lat="40.789600" lon="-3.877226">
        <ele>1992.196</ele>
        <time>2021-07-31T10:44:32Z</time>
      </trkpt>
      <trkpt lat="40.789610" lon="-3.877204">
        <ele>1992.031</ele>
        <time>2021-07-31T10:44:36Z</time>
      </trkpt>
      <trkpt lat="40.789590" lon="-3.877214">
        <ele>1992.824</ele>
        <time>2021-07-31T10:44:42Z</time>
      </trkpt>
      <trkpt lat="40.789578" lon="-3.877242">
        <ele>1992.908</ele>
        <time>2021-07-31T10:44:45Z</time>
      </trkpt>
      <trkpt lat="40.789565" lon="-3.877262">
        <ele>1993.266</ele>
        <time>2021-07-31T10:44:48Z</time>
      </trkpt>
      <trkpt lat="40.789542" lon="-3.877285">
        <ele>1993.958</ele>
        <time>2021-07-31T10:44:52Z</time>
      </trkpt>
      <trkpt lat="40.789533" lon="-3.877312">
        <ele>1993.885</ele>
        <time>2021-07-31T10:44:54Z</time>
      </trkpt>
      <trkpt lat="40.789526" lon="-3.877342">
        <ele>1993.642</ele>
        <time>2021-07-31T10:44:57Z</time>
      </trkpt>
      <trkpt lat="40.789523" lon="-3.877365">
        <ele>1993.254</ele>
        <time>2021-07-31T10:45:00Z</time>
      </trkpt>
      <trkpt lat="40.789523" lon="-3.877393">
        <ele>1992.711</ele>
        <time>2021-07-31T10:45:04Z</time>
      </trkpt>
      <trkpt lat="40.789536" lon="-3.877415">
        <ele>1991.791</ele>
        <time>2021-07-31T10:45:07Z</time>
      </trkpt>
      <trkpt lat="40.789523" lon="-3.877435">
        <ele>1991.999</ele>
        <time>2021-07-31T10:45:09Z</time>
      </trkpt>
      <trkpt lat="40.789533" lon="-3.877460">
        <ele>1990.941</ele>
        <time>2021-07-31T10:45:25Z</time>
      </trkpt>
      <trkpt lat="40.789520" lon="-3.877440">
        <ele>1991.981</ele>
        <time>2021-07-31T10:45:29Z</time>
      </trkpt>
      <trkpt lat="40.789539" lon="-3.877450">
        <ele>1990.909</ele>
        <time>2021-07-31T10:46:40Z</time>
      </trkpt>
      <trkpt lat="40.789520" lon="-3.877452">
        <ele>1991.708</ele>
        <time>2021-07-31T10:47:00Z</time>
      </trkpt>
      <trkpt lat="40.789574" lon="-3.877442">
        <ele>1989.531</ele>
        <time>2021-07-31T10:48:18Z</time>
      </trkpt>
      <trkpt lat="40.789590" lon="-3.877417">
        <ele>1989.263</ele>
        <time>2021-07-31T10:48:20Z</time>
      </trkpt>
      <trkpt lat="40.789613" lon="-3.877390">
        <ele>1988.660</ele>
        <time>2021-07-31T10:48:22Z</time>
      </trkpt>
      <trkpt lat="40.789632" lon="-3.877365">
        <ele>1988.247</ele>
        <time>2021-07-31T10:48:24Z</time>
      </trkpt>
      <trkpt lat="40.789645" lon="-3.877345">
        <ele>1987.969</ele>
        <time>2021-07-31T10:48:26Z</time>
      </trkpt>
      <trkpt lat="40.789658" lon="-3.877322">
        <ele>1987.646</ele>
        <time>2021-07-31T10:48:28Z</time>
      </trkpt>
      <trkpt lat="40.789674" lon="-3.877310">
        <ele>1987.166</ele>
        <time>2021-07-31T10:48:32Z</time>
      </trkpt>
      <trkpt lat="40.789693" lon="-3.877300">
        <ele>1986.354</ele>
        <time>2021-07-31T10:48:35Z</time>
      </trkpt>
      <trkpt lat="40.789715" lon="-3.877287">
        <ele>1985.475</ele>
        <time>2021-07-31T10:48:40Z</time>
      </trkpt>
      <trkpt lat="40.789734" lon="-3.877287">
        <ele>1984.828</ele>
        <time>2021-07-31T10:48:42Z</time>
      </trkpt>
      <trkpt lat="40.789760" lon="-3.877262">
        <ele>1984.420</ele>
        <time>2021-07-31T10:48:44Z</time>
      </trkpt>
      <trkpt lat="40.789760" lon="-3.877233">
        <ele>1984.908</ele>
        <time>2021-07-31T10:48:46Z</time>
      </trkpt>
      <trkpt lat="40.789773" lon="-3.877214">
        <ele>1984.844</ele>
        <time>2021-07-31T10:48:48Z</time>
      </trkpt>
      <trkpt lat="40.789779" lon="-3.877188">
        <ele>1985.036</ele>
        <time>2021-07-31T10:48:50Z</time>
      </trkpt>
      <trkpt lat="40.789779" lon="-3.877162">
        <ele>1985.473</ele>
        <time>2021-07-31T10:48:53Z</time>
      </trkpt>
      <trkpt lat="40.789789" lon="-3.877133">
        <ele>1985.530</ele>
        <time>2021-07-31T10:48:56Z</time>
      </trkpt>
      <trkpt lat="40.789802" lon="-3.877105">
        <ele>1985.632</ele>
        <time>2021-07-31T10:48:59Z</time>
      </trkpt>
      <trkpt lat="40.789811" lon="-3.877078">
        <ele>1985.789</ele>
        <time>2021-07-31T10:49:02Z</time>
      </trkpt>
      <trkpt lat="40.789818" lon="-3.877045">
        <ele>1985.959</ele>
        <time>2021-07-31T10:49:05Z</time>
      </trkpt>
      <trkpt lat="40.789818" lon="-3.877012">
        <ele>1986.487</ele>
        <time>2021-07-31T10:49:07Z</time>
      </trkpt>
      <trkpt lat="40.789821" lon="-3.876982">
        <ele>1986.727</ele>
        <time>2021-07-31T10:49:10Z</time>
      </trkpt>
      <trkpt lat="40.789824" lon="-3.876955">
        <ele>1986.968</ele>
        <time>2021-07-31T10:49:13Z</time>
      </trkpt>
      <trkpt lat="40.789834" lon="-3.876925">
        <ele>1987.014</ele>
        <time>2021-07-31T10:49:16Z</time>
      </trkpt>
      <trkpt lat="40.789843" lon="-3.876902">
        <ele>1986.908</ele>
        <time>2021-07-31T10:49:18Z</time>
      </trkpt>
      <trkpt lat="40.789856" lon="-3.876882">
        <ele>1986.799</ele>
        <time>2021-07-31T10:49:20Z</time>
      </trkpt>
      <trkpt lat="40.789859" lon="-3.876854">
        <ele>1986.951</ele>
        <time>2021-07-31T10:49:23Z</time>
      </trkpt>
      <trkpt lat="40.789862" lon="-3.876828">
        <ele>1987.078</ele>
        <time>2021-07-31T10:49:25Z</time>
      </trkpt>
      <trkpt lat="40.789872" lon="-3.876797">
        <ele>1987.055</ele>
        <time>2021-07-31T10:49:28Z</time>
      </trkpt>
      <trkpt lat="40.789878" lon="-3.876767">
        <ele>1987.187</ele>
        <time>2021-07-31T10:49:32Z</time>
      </trkpt>
      <trkpt lat="40.789888" lon="-3.876742">
        <ele>1987.064</ele>
        <time>2021-07-31T10:49:34Z</time>
      </trkpt>
      <trkpt lat="40.789898" lon="-3.876715">
        <ele>1986.944</ele>
        <time>2021-07-31T10:49:36Z</time>
      </trkpt>
      <trkpt lat="40.789910" lon="-3.876686">
        <ele>1986.852</ele>
        <time>2021-07-31T10:49:38Z</time>
      </trkpt>
      <trkpt lat="40.789923" lon="-3.876656">
        <ele>1986.637</ele>
        <time>2021-07-31T10:49:40Z</time>
      </trkpt>
      <trkpt lat="40.789936" lon="-3.876632">
        <ele>1986.349</ele>
        <time>2021-07-31T10:49:42Z</time>
      </trkpt>
      <trkpt lat="40.789952" lon="-3.876612">
        <ele>1985.913</ele>
        <time>2021-07-31T10:49:44Z</time>
      </trkpt>
      <trkpt lat="40.789971" lon="-3.876590">
        <ele>1985.508</ele>
        <time>2021-07-31T10:49:46Z</time>
      </trkpt>
      <trkpt lat="40.789990" lon="-3.876573">
        <ele>1985.020</ele>
        <time>2021-07-31T10:49:48Z</time>
      </trkpt>
      <trkpt lat="40.790003" lon="-3.876555">
        <ele>1984.772</ele>
        <time>2021-07-31T10:49:50Z</time>
      </trkpt>
      <trkpt lat="40.790016" lon="-3.876532">
        <ele>1984.569</ele>
        <time>2021-07-31T10:49:52Z</time>
      </trkpt>
      <trkpt lat="40.790022" lon="-3.876500">
        <ele>1984.576</ele>
        <time>2021-07-31T10:49:55Z</time>
      </trkpt>
      <trkpt lat="40.790029" lon="-3.876465">
        <ele>1984.528</ele>
        <time>2021-07-31T10:49:58Z</time>
      </trkpt>
      <trkpt lat="40.790032" lon="-3.876435">
        <ele>1984.625</ele>
        <time>2021-07-31T10:50:00Z</time>
      </trkpt>
      <trkpt lat="40.790019" lon="-3.876415">
        <ele>1985.255</ele>
        <time>2021-07-31T10:50:02Z</time>
      </trkpt>
      <trkpt lat="40.790038" lon="-3.876410">
        <ele>1984.643</ele>
        <time>2021-07-31T10:50:09Z</time>
      </trkpt>
      <trkpt lat="40.790061" lon="-3.876395">
        <ele>1984.016</ele>
        <time>2021-07-31T10:50:12Z</time>
      </trkpt>
      <trkpt lat="40.790080" lon="-3.876387">
        <ele>1983.476</ele>
        <time>2021-07-31T10:50:14Z</time>
      </trkpt>
      <trkpt lat="40.790099" lon="-3.876377">
        <ele>1983.013</ele>
        <time>2021-07-31T10:50:16Z</time>
      </trkpt>
      <trkpt lat="40.790122" lon="-3.876390">
        <ele>1982.008</ele>
        <time>2021-07-31T10:50:19Z</time>
      </trkpt>
      <trkpt lat="40.790138" lon="-3.876402">
        <ele>1981.418</ele>
        <time>2021-07-31T10:50:21Z</time>
      </trkpt>
      <trkpt lat="40.790160" lon="-3.876397">
        <ele>1980.840</ele>
        <time>2021-07-31T10:50:24Z</time>
      </trkpt>
      <trkpt lat="40.790186" lon="-3.876395">
        <ele>1979.977</ele>
        <time>2021-07-31T10:50:26Z</time>
      </trkpt>
      <trkpt lat="40.790211" lon="-3.876387">
        <ele>1979.254</ele>
        <time>2021-07-31T10:50:30Z</time>
      </trkpt>
      <trkpt lat="40.790230" lon="-3.876387">
        <ele>1978.676</ele>
        <time>2021-07-31T10:50:32Z</time>
      </trkpt>
      <trkpt lat="40.790240" lon="-3.876413">
        <ele>1978.073</ele>
        <time>2021-07-31T10:50:36Z</time>
      </trkpt>
      <trkpt lat="40.790250" lon="-3.876435">
        <ele>1977.613</ele>
        <time>2021-07-31T10:50:38Z</time>
      </trkpt>
      <trkpt lat="40.790272" lon="-3.876445">
        <ele>1976.871</ele>
        <time>2021-07-31T10:50:41Z</time>
      </trkpt>
      <trkpt lat="40.790294" lon="-3.876440">
        <ele>1976.017</ele>
        <time>2021-07-31T10:50:44Z</time>
      </trkpt>
      <trkpt lat="40.790317" lon="-3.876428">
        <ele>1975.187</ele>
        <time>2021-07-31T10:50:48Z</time>
      </trkpt>
      <trkpt lat="40.790336" lon="-3.876423">
        <ele>1974.415</ele>
        <time>2021-07-31T10:50:51Z</time>
      </trkpt>
      <trkpt lat="40.790352" lon="-3.876455">
        <ele>1973.508</ele>
        <time>2021-07-31T10:50:55Z</time>
      </trkpt>
      <trkpt lat="40.790368" lon="-3.876474">
        <ele>1972.738</ele>
        <time>2021-07-31T10:50:58Z</time>
      </trkpt>
      <trkpt lat="40.790374" lon="-3.876500">
        <ele>1972.380</ele>
        <time>2021-07-31T10:51:02Z</time>
      </trkpt>
      <trkpt lat="40.790390" lon="-3.876525">
        <ele>1971.427</ele>
        <time>2021-07-31T10:51:05Z</time>
      </trkpt>
      <trkpt lat="40.790416" lon="-3.876526">
        <ele>1970.334</ele>
        <time>2021-07-31T10:51:08Z</time>
      </trkpt>
      <trkpt lat="40.790435" lon="-3.876516">
        <ele>1969.676</ele>
        <time>2021-07-31T10:51:10Z</time>
      </trkpt>
      <trkpt lat="40.790458" lon="-3.876508">
        <ele>1968.713</ele>
        <time>2021-07-31T10:51:12Z</time>
      </trkpt>
      <trkpt lat="40.790474" lon="-3.876492">
        <ele>1968.213</ele>
        <time>2021-07-31T10:51:14Z</time>
      </trkpt>
      <trkpt lat="40.790493" lon="-3.876474">
        <ele>1967.621</ele>
        <time>2021-07-31T10:51:16Z</time>
      </trkpt>
      <trkpt lat="40.790515" lon="-3.876460">
        <ele>1966.957</ele>
        <time>2021-07-31T10:51:19Z</time>
      </trkpt>
      <trkpt lat="40.790534" lon="-3.876445">
        <ele>1966.300</ele>
        <time>2021-07-31T10:51:22Z</time>
      </trkpt>
      <trkpt lat="40.790554" lon="-3.876448">
        <ele>1965.420</ele>
        <time>2021-07-31T10:51:25Z</time>
      </trkpt>
      <trkpt lat="40.790573" lon="-3.876457">
        <ele>1965.108</ele>
        <time>2021-07-31T10:51:28Z</time>
      </trkpt>
      <trkpt lat="40.790589" lon="-3.876480">
        <ele>1964.742</ele>
        <time>2021-07-31T10:51:31Z</time>
      </trkpt>
      <trkpt lat="40.790598" lon="-3.876508">
        <ele>1964.324</ele>
        <time>2021-07-31T10:51:34Z</time>
      </trkpt>
      <trkpt lat="40.790598" lon="-3.876547">
        <ele>1963.971</ele>
        <time>2021-07-31T10:51:37Z</time>
      </trkpt>
      <trkpt lat="40.790614" lon="-3.876613">
        <ele>1963.288</ele>
        <time>2021-07-31T10:51:42Z</time>
      </trkpt>
      <trkpt lat="40.790643" lon="-3.876625">
        <ele>1963.010</ele>
        <time>2021-07-31T10:51:45Z</time>
      </trkpt>
      <trkpt lat="40.790653" lon="-3.876646">
        <ele>1962.817</ele>
        <time>2021-07-31T10:51:47Z</time>
      </trkpt>
      <trkpt lat="40.790669" lon="-3.876665">
        <ele>1962.677</ele>
        <time>2021-07-31T10:51:49Z</time>
      </trkpt>
      <trkpt lat="40.790685" lon="-3.876676">
        <ele>1962.415</ele>
        <time>2021-07-31T10:51:51Z</time>
      </trkpt>
      <trkpt lat="40.790698" lon="-3.876698">
        <ele>1962.181</ele>
        <time>2021-07-31T10:51:54Z</time>
      </trkpt>
      <trkpt lat="40.790714" lon="-3.876727">
        <ele>1961.861</ele>
        <time>2021-07-31T10:51:57Z</time>
      </trkpt>
      <trkpt lat="40.790726" lon="-3.876757">
        <ele>1961.417</ele>
        <time>2021-07-31T10:51:59Z</time>
      </trkpt>
      <trkpt lat="40.790736" lon="-3.876783">
        <ele>1961.108</ele>
        <time>2021-07-31T10:52:01Z</time>
      </trkpt>
      <trkpt lat="40.790755" lon="-3.876782">
        <ele>1961.075</ele>
        <time>2021-07-31T10:52:05Z</time>
      </trkpt>
      <trkpt lat="40.790774" lon="-3.876760">
        <ele>1961.237</ele>
        <time>2021-07-31T10:52:33Z</time>
      </trkpt>
      <trkpt lat="40.790803" lon="-3.876762">
        <ele>1961.124</ele>
        <time>2021-07-31T10:52:35Z</time>
      </trkpt>
      <trkpt lat="40.790829" lon="-3.876767">
        <ele>1960.911</ele>
        <time>2021-07-31T10:52:37Z</time>
      </trkpt>
      <trkpt lat="40.790861" lon="-3.876762">
        <ele>1961.363</ele>
        <time>2021-07-31T10:52:39Z</time>
      </trkpt>
      <trkpt lat="40.790886" lon="-3.876748">
        <ele>1961.850</ele>
        <time>2021-07-31T10:52:41Z</time>
      </trkpt>
      <trkpt lat="40.790906" lon="-3.876737">
        <ele>1962.260</ele>
        <time>2021-07-31T10:52:43Z</time>
      </trkpt>
      <trkpt lat="40.790925" lon="-3.876715">
        <ele>1962.768</ele>
        <time>2021-07-31T10:52:46Z</time>
      </trkpt>
      <trkpt lat="40.790944" lon="-3.876702">
        <ele>1963.257</ele>
        <time>2021-07-31T10:52:48Z</time>
      </trkpt>
      <trkpt lat="40.790966" lon="-3.876702">
        <ele>1963.500</ele>
        <time>2021-07-31T10:52:50Z</time>
      </trkpt>
      <trkpt lat="40.790982" lon="-3.876713">
        <ele>1963.620</ele>
        <time>2021-07-31T10:52:52Z</time>
      </trkpt>
      <trkpt lat="40.791011" lon="-3.876727">
        <ele>1963.808</ele>
        <time>2021-07-31T10:52:55Z</time>
      </trkpt>
      <trkpt lat="40.791030" lon="-3.876733">
        <ele>1963.972</ele>
        <time>2021-07-31T10:52:57Z</time>
      </trkpt>
      <trkpt lat="40.791050" lon="-3.876740">
        <ele>1964.194</ele>
        <time>2021-07-31T10:52:59Z</time>
      </trkpt>
      <trkpt lat="40.791069" lon="-3.876740">
        <ele>1964.451</ele>
        <time>2021-07-31T10:53:01Z</time>
      </trkpt>
      <trkpt lat="40.791082" lon="-3.876718">
        <ele>1964.988</ele>
        <time>2021-07-31T10:53:03Z</time>
      </trkpt>
      <trkpt lat="40.791091" lon="-3.876693">
        <ele>1965.380</ele>
        <time>2021-07-31T10:53:06Z</time>
      </trkpt>
      <trkpt lat="40.791107" lon="-3.876680">
        <ele>1965.867</ele>
        <time>2021-07-31T10:53:08Z</time>
      </trkpt>
      <trkpt lat="40.791123" lon="-3.876668">
        <ele>1966.227</ele>
        <time>2021-07-31T10:53:10Z</time>
      </trkpt>
      <trkpt lat="40.791142" lon="-3.876660">
        <ele>1966.425</ele>
        <time>2021-07-31T10:53:12Z</time>
      </trkpt>
      <trkpt lat="40.791168" lon="-3.876638">
        <ele>1966.896</ele>
        <time>2021-07-31T10:53:15Z</time>
      </trkpt>
      <trkpt lat="40.791184" lon="-3.876627">
        <ele>1967.131</ele>
        <time>2021-07-31T10:53:17Z</time>
      </trkpt>
      <trkpt lat="40.791203" lon="-3.876608">
        <ele>1967.424</ele>
        <time>2021-07-31T10:53:19Z</time>
      </trkpt>
      <trkpt lat="40.791213" lon="-3.876577">
        <ele>1967.608</ele>
        <time>2021-07-31T10:53:22Z</time>
      </trkpt>
      <trkpt lat="40.791219" lon="-3.876552">
        <ele>1967.786</ele>
        <time>2021-07-31T10:53:25Z</time>
      </trkpt>
      <trkpt lat="40.791238" lon="-3.876550">
        <ele>1968.098</ele>
        <time>2021-07-31T10:53:28Z</time>
      </trkpt>
      <trkpt lat="40.791254" lon="-3.876562">
        <ele>1968.365</ele>
        <time>2021-07-31T10:53:31Z</time>
      </trkpt>
      <trkpt lat="40.791274" lon="-3.876562">
        <ele>1968.642</ele>
        <time>2021-07-31T10:53:33Z</time>
      </trkpt>
      <trkpt lat="40.791299" lon="-3.876555">
        <ele>1969.064</ele>
        <time>2021-07-31T10:53:36Z</time>
      </trkpt>
      <trkpt lat="40.791322" lon="-3.876542">
        <ele>1969.451</ele>
        <time>2021-07-31T10:53:39Z</time>
      </trkpt>
      <trkpt lat="40.791341" lon="-3.876532">
        <ele>1969.731</ele>
        <time>2021-07-31T10:53:42Z</time>
      </trkpt>
      <trkpt lat="40.791360" lon="-3.876516">
        <ele>1970.149</ele>
        <time>2021-07-31T10:53:45Z</time>
      </trkpt>
      <trkpt lat="40.791379" lon="-3.876530">
        <ele>1970.356</ele>
        <time>2021-07-31T10:53:51Z</time>
      </trkpt>
      <trkpt lat="40.791398" lon="-3.876532">
        <ele>1970.759</ele>
        <time>2021-07-31T10:53:54Z</time>
      </trkpt>
      <trkpt lat="40.791418" lon="-3.876552">
        <ele>1971.114</ele>
        <time>2021-07-31T10:53:58Z</time>
      </trkpt>
      <trkpt lat="40.791437" lon="-3.876548">
        <ele>1971.608</ele>
        <time>2021-07-31T10:54:00Z</time>
      </trkpt>
      <trkpt lat="40.791453" lon="-3.876532">
        <ele>1972.152</ele>
        <time>2021-07-31T10:54:03Z</time>
      </trkpt>
      <trkpt lat="40.791462" lon="-3.876510">
        <ele>1972.544</ele>
        <time>2021-07-31T10:54:07Z</time>
      </trkpt>
      <trkpt lat="40.791485" lon="-3.876507">
        <ele>1973.111</ele>
        <time>2021-07-31T10:54:11Z</time>
      </trkpt>
      <trkpt lat="40.791507" lon="-3.876505">
        <ele>1973.738</ele>
        <time>2021-07-31T10:54:17Z</time>
      </trkpt>
      <trkpt lat="40.791526" lon="-3.876495">
        <ele>1974.330</ele>
        <time>2021-07-31T10:54:20Z</time>
      </trkpt>
      <trkpt lat="40.791542" lon="-3.876484">
        <ele>1974.957</ele>
        <time>2021-07-31T10:54:24Z</time>
      </trkpt>
      <trkpt lat="40.791562" lon="-3.876474">
        <ele>1975.547</ele>
        <time>2021-07-31T10:54:27Z</time>
      </trkpt>
      <trkpt lat="40.791584" lon="-3.876460">
        <ele>1976.395</ele>
        <time>2021-07-31T10:54:30Z</time>
      </trkpt>
      <trkpt lat="40.791603" lon="-3.876448">
        <ele>1977.157</ele>
        <time>2021-07-31T10:54:33Z</time>
      </trkpt>
      <trkpt lat="40.791619" lon="-3.876428">
        <ele>1977.800</ele>
        <time>2021-07-31T10:54:37Z</time>
      </trkpt>
      <trkpt lat="40.791635" lon="-3.876405">
        <ele>1978.720</ele>
        <time>2021-07-31T10:54:40Z</time>
      </trkpt>
      <trkpt lat="40.791651" lon="-3.876392">
        <ele>1979.408</ele>
        <time>2021-07-31T10:54:43Z</time>
      </trkpt>
      <trkpt lat="40.791667" lon="-3.876375">
        <ele>1980.082</ele>
        <time>2021-07-31T10:54:47Z</time>
      </trkpt>
      <trkpt lat="40.791686" lon="-3.876375">
        <ele>1980.674</ele>
        <time>2021-07-31T10:54:51Z</time>
      </trkpt>
      <trkpt lat="40.791706" lon="-3.876372">
        <ele>1981.211</ele>
        <time>2021-07-31T10:54:55Z</time>
      </trkpt>
      <trkpt lat="40.791722" lon="-3.876355">
        <ele>1981.678</ele>
        <time>2021-07-31T10:54:57Z</time>
      </trkpt>
      <trkpt lat="40.791738" lon="-3.876338">
        <ele>1982.150</ele>
        <time>2021-07-31T10:55:00Z</time>
      </trkpt>
      <trkpt lat="40.791757" lon="-3.876328">
        <ele>1982.757</ele>
        <time>2021-07-31T10:55:04Z</time>
      </trkpt>
      <trkpt lat="40.791776" lon="-3.876312">
        <ele>1983.437</ele>
        <time>2021-07-31T10:55:08Z</time>
      </trkpt>
      <trkpt lat="40.791782" lon="-3.876285">
        <ele>1983.655</ele>
        <time>2021-07-31T10:55:14Z</time>
      </trkpt>
      <trkpt lat="40.791802" lon="-3.876287">
        <ele>1984.329</ele>
        <time>2021-07-31T10:55:20Z</time>
      </trkpt>
      <trkpt lat="40.791824" lon="-3.876294">
        <ele>1984.900</ele>
        <time>2021-07-31T10:55:24Z</time>
      </trkpt>
      <trkpt lat="40.791843" lon="-3.876312">
        <ele>1985.420</ele>
        <time>2021-07-31T10:55:27Z</time>
      </trkpt>
      <trkpt lat="40.791862" lon="-3.876312">
        <ele>1986.008</ele>
        <time>2021-07-31T10:55:31Z</time>
      </trkpt>
      <trkpt lat="40.791882" lon="-3.876310">
        <ele>1986.649</ele>
        <time>2021-07-31T10:55:36Z</time>
      </trkpt>
      <trkpt lat="40.791888" lon="-3.876287">
        <ele>1987.061</ele>
        <time>2021-07-31T10:55:41Z</time>
      </trkpt>
      <trkpt lat="40.791904" lon="-3.876272">
        <ele>1987.698</ele>
        <time>2021-07-31T10:55:45Z</time>
      </trkpt>
      <trkpt lat="40.791920" lon="-3.876255">
        <ele>1988.275</ele>
        <time>2021-07-31T10:55:53Z</time>
      </trkpt>
      <trkpt lat="40.791936" lon="-3.876242">
        <ele>1988.827</ele>
        <time>2021-07-31T10:55:58Z</time>
      </trkpt>
      <trkpt lat="40.791946" lon="-3.876218">
        <ele>1989.324</ele>
        <time>2021-07-31T10:56:02Z</time>
      </trkpt>
      <trkpt lat="40.791968" lon="-3.876195">
        <ele>1990.524</ele>
        <time>2021-07-31T10:56:05Z</time>
      </trkpt>
      <trkpt lat="40.791981" lon="-3.876173">
        <ele>1991.382</ele>
        <time>2021-07-31T10:56:17Z</time>
      </trkpt>
      <trkpt lat="40.791987" lon="-3.876150">
        <ele>1991.774</ele>
        <time>2021-07-31T10:56:21Z</time>
      </trkpt>
      <trkpt lat="40.792006" lon="-3.876144">
        <ele>1992.656</ele>
        <time>2021-07-31T10:56:25Z</time>
      </trkpt>
      <trkpt lat="40.792019" lon="-3.876125">
        <ele>1993.421</ele>
        <time>2021-07-31T10:56:28Z</time>
      </trkpt>
      <trkpt lat="40.792042" lon="-3.876117">
        <ele>1994.508</ele>
        <time>2021-07-31T10:56:32Z</time>
      </trkpt>
      <trkpt lat="40.792048" lon="-3.876092">
        <ele>1994.924</ele>
        <time>2021-07-31T10:56:35Z</time>
      </trkpt>
      <trkpt lat="40.792054" lon="-3.876062">
        <ele>1995.256</ele>
        <time>2021-07-31T10:56:38Z</time>
      </trkpt>
      <trkpt lat="40.792067" lon="-3.876033">
        <ele>1995.963</ele>
        <time>2021-07-31T10:56:42Z</time>
      </trkpt>
      <trkpt lat="40.792067" lon="-3.876008">
        <ele>1995.920</ele>
        <time>2021-07-31T10:56:48Z</time>
      </trkpt>
      <trkpt lat="40.792096" lon="-3.875998">
        <ele>1997.312</ele>
        <time>2021-07-31T10:56:58Z</time>
      </trkpt>
      <trkpt lat="40.792118" lon="-3.875992">
        <ele>1998.359</ele>
        <time>2021-07-31T10:57:02Z</time>
      </trkpt>
      <trkpt lat="40.792138" lon="-3.875980">
        <ele>1999.229</ele>
        <time>2021-07-31T10:57:04Z</time>
      </trkpt>
      <trkpt lat="40.792134" lon="-3.875955">
        <ele>1999.027</ele>
        <time>2021-07-31T10:57:07Z</time>
      </trkpt>
      <trkpt lat="40.792147" lon="-3.875935">
        <ele>1999.726</ele>
        <time>2021-07-31T10:57:11Z</time>
      </trkpt>
      <trkpt lat="40.792163" lon="-3.875922">
        <ele>2000.447</ele>
        <time>2021-07-31T10:57:16Z</time>
      </trkpt>
      <trkpt lat="40.792176" lon="-3.875902">
        <ele>2001.011</ele>
        <time>2021-07-31T10:57:21Z</time>
      </trkpt>
      <trkpt lat="40.792195" lon="-3.875905">
        <ele>2001.808</ele>
        <time>2021-07-31T10:57:25Z</time>
      </trkpt>
      <trkpt lat="40.792214" lon="-3.875902">
        <ele>2002.649</ele>
        <time>2021-07-31T10:57:29Z</time>
      </trkpt>
      <trkpt lat="40.792234" lon="-3.875890">
        <ele>2003.541</ele>
        <time>2021-07-31T10:57:33Z</time>
      </trkpt>
      <trkpt lat="40.792253" lon="-3.875867">
        <ele>2004.268</ele>
        <time>2021-07-31T10:57:39Z</time>
      </trkpt>
      <trkpt lat="40.792272" lon="-3.875848">
        <ele>2004.865</ele>
        <time>2021-07-31T10:57:41Z</time>
      </trkpt>
      <trkpt lat="40.792291" lon="-3.875837">
        <ele>2005.557</ele>
        <time>2021-07-31T10:57:44Z</time>
      </trkpt>
      <trkpt lat="40.792304" lon="-3.875818">
        <ele>2005.834</ele>
        <time>2021-07-31T10:57:47Z</time>
      </trkpt>
      <trkpt lat="40.792333" lon="-3.875813">
        <ele>2006.884</ele>
        <time>2021-07-31T10:57:50Z</time>
      </trkpt>
      <trkpt lat="40.792355" lon="-3.875794">
        <ele>2007.462</ele>
        <time>2021-07-31T10:57:53Z</time>
      </trkpt>
      <trkpt lat="40.792362" lon="-3.875764">
        <ele>2007.448</ele>
        <time>2021-07-31T10:57:56Z</time>
      </trkpt>
      <trkpt lat="40.792378" lon="-3.875742">
        <ele>2007.761</ele>
        <time>2021-07-31T10:57:58Z</time>
      </trkpt>
      <trkpt lat="40.792397" lon="-3.875727">
        <ele>2008.217</ele>
        <time>2021-07-31T10:58:00Z</time>
      </trkpt>
      <trkpt lat="40.792416" lon="-3.875710">
        <ele>2008.608</ele>
        <time>2021-07-31T10:58:02Z</time>
      </trkpt>
      <trkpt lat="40.792435" lon="-3.875687">
        <ele>2008.921</ele>
        <time>2021-07-31T10:58:04Z</time>
      </trkpt>
      <trkpt lat="40.792442" lon="-3.875663">
        <ele>2008.873</ele>
        <time>2021-07-31T10:58:06Z</time>
      </trkpt>
      <trkpt lat="40.792454" lon="-3.875638">
        <ele>2008.940</ele>
        <time>2021-07-31T10:58:09Z</time>
      </trkpt>
      <trkpt lat="40.792464" lon="-3.875616">
        <ele>2008.947</ele>
        <time>2021-07-31T10:58:11Z</time>
      </trkpt>
      <trkpt lat="40.792477" lon="-3.875595">
        <ele>2009.089</ele>
        <time>2021-07-31T10:58:14Z</time>
      </trkpt>
      <trkpt lat="40.792490" lon="-3.875572">
        <ele>2009.046</ele>
        <time>2021-07-31T10:58:18Z</time>
      </trkpt>
      <trkpt lat="40.792506" lon="-3.875553">
        <ele>2009.386</ele>
        <time>2021-07-31T10:58:25Z</time>
      </trkpt>
      <trkpt lat="40.792515" lon="-3.875532">
        <ele>2009.194</ele>
        <time>2021-07-31T10:58:29Z</time>
      </trkpt>
      <trkpt lat="40.792531" lon="-3.875515">
        <ele>2009.583</ele>
        <time>2021-07-31T10:58:38Z</time>
      </trkpt>
      <trkpt lat="40.792550" lon="-3.875502">
        <ele>2010.225</ele>
        <time>2021-07-31T10:58:44Z</time>
      </trkpt>
      <trkpt lat="40.792570" lon="-3.875498">
        <ele>2011.217</ele>
        <time>2021-07-31T10:58:51Z</time>
      </trkpt>
      <trkpt lat="40.792589" lon="-3.875493">
        <ele>2012.108</ele>
        <time>2021-07-31T10:58:57Z</time>
      </trkpt>
      <trkpt lat="40.792611" lon="-3.875480">
        <ele>2012.965</ele>
        <time>2021-07-31T10:59:00Z</time>
      </trkpt>
      <trkpt lat="40.792630" lon="-3.875465">
        <ele>2013.427</ele>
        <time>2021-07-31T10:59:03Z</time>
      </trkpt>
      <trkpt lat="40.792650" lon="-3.875444">
        <ele>2013.734</ele>
        <time>2021-07-31T10:59:08Z</time>
      </trkpt>
      <trkpt lat="40.792672" lon="-3.875425">
        <ele>2014.171</ele>
        <time>2021-07-31T10:59:13Z</time>
      </trkpt>
      <trkpt lat="40.792688" lon="-3.875405">
        <ele>2014.213</ele>
        <time>2021-07-31T10:59:17Z</time>
      </trkpt>
      <trkpt lat="40.792714" lon="-3.875410">
        <ele>2015.830</ele>
        <time>2021-07-31T10:59:21Z</time>
      </trkpt>
      <trkpt lat="40.792733" lon="-3.875414">
        <ele>2017.030</ele>
        <time>2021-07-31T10:59:23Z</time>
      </trkpt>
      <trkpt lat="40.792755" lon="-3.875407">
        <ele>2017.848</ele>
        <time>2021-07-31T10:59:26Z</time>
      </trkpt>
      <trkpt lat="40.792774" lon="-3.875410">
        <ele>2019.013</ele>
        <time>2021-07-31T10:59:30Z</time>
      </trkpt>
      <trkpt lat="40.792797" lon="-3.875405">
        <ele>2019.243</ele>
        <time>2021-07-31T10:59:35Z</time>
      </trkpt>
      <trkpt lat="40.792816" lon="-3.875395">
        <ele>2019.007</ele>
        <time>2021-07-31T10:59:38Z</time>
      </trkpt>
      <trkpt lat="40.792832" lon="-3.875407">
        <ele>2019.708</ele>
        <time>2021-07-31T10:59:50Z</time>
      </trkpt>
      <trkpt lat="40.792835" lon="-3.875435">
        <ele>2021.128</ele>
        <time>2021-07-31T10:59:54Z</time>
      </trkpt>
      <trkpt lat="40.792832" lon="-3.875458">
        <ele>2022.120</ele>
        <time>2021-07-31T10:59:57Z</time>
      </trkpt>
      <trkpt lat="40.792858" lon="-3.875452">
        <ele>2022.187</ele>
        <time>2021-07-31T11:00:00Z</time>
      </trkpt>
      <trkpt lat="40.792880" lon="-3.875463">
        <ele>2022.954</ele>
        <time>2021-07-31T11:00:04Z</time>
      </trkpt>
      <trkpt lat="40.792899" lon="-3.875476">
        <ele>2023.786</ele>
        <time>2021-07-31T11:00:07Z</time>
      </trkpt>
      <trkpt lat="40.792915" lon="-3.875495">
        <ele>2024.823</ele>
        <time>2021-07-31T11:00:11Z</time>
      </trkpt>
      <trkpt lat="40.792931" lon="-3.875508">
        <ele>2025.593</ele>
        <time>2021-07-31T11:00:13Z</time>
      </trkpt>
      <trkpt lat="40.792938" lon="-3.875538">
        <ele>2026.971</ele>
        <time>2021-07-31T11:00:17Z</time>
      </trkpt>
      <trkpt lat="40.792950" lon="-3.875557">
        <ele>2027.993</ele>
        <time>2021-07-31T11:00:19Z</time>
      </trkpt>
      <trkpt lat="40.792960" lon="-3.875580">
        <ele>2029.465</ele>
        <time>2021-07-31T11:00:24Z</time>
      </trkpt>
      <trkpt lat="40.792979" lon="-3.875593">
        <ele>2030.521</ele>
        <time>2021-07-31T11:00:29Z</time>
      </trkpt>
      <trkpt lat="40.793002" lon="-3.875573">
        <ele>2029.508</ele>
        <time>2021-07-31T11:00:31Z</time>
      </trkpt>
      <trkpt lat="40.793021" lon="-3.875575">
        <ele>2029.996</ele>
        <time>2021-07-31T11:00:33Z</time>
      </trkpt>
      <trkpt lat="40.793040" lon="-3.875572">
        <ele>2029.988</ele>
        <time>2021-07-31T11:00:35Z</time>
      </trkpt>
      <trkpt lat="40.793053" lon="-3.875596">
        <ele>2031.635</ele>
        <time>2021-07-31T11:00:43Z</time>
      </trkpt>
      <trkpt lat="40.793066" lon="-3.875616">
        <ele>2033.192</ele>
        <time>2021-07-31T11:00:48Z</time>
      </trkpt>
      <trkpt lat="40.793082" lon="-3.875642">
        <ele>2035.074</ele>
        <time>2021-07-31T11:00:54Z</time>
      </trkpt>
      <trkpt lat="40.793101" lon="-3.875640">
        <ele>2035.191</ele>
        <time>2021-07-31T11:00:59Z</time>
      </trkpt>
      <trkpt lat="40.793120" lon="-3.875643">
        <ele>2035.671</ele>
        <time>2021-07-31T11:01:04Z</time>
      </trkpt>
      <trkpt lat="40.793139" lon="-3.875650">
        <ele>2036.379</ele>
        <time>2021-07-31T11:01:07Z</time>
      </trkpt>
      <trkpt lat="40.793155" lon="-3.875663">
        <ele>2037.395</ele>
        <time>2021-07-31T11:01:16Z</time>
      </trkpt>
      <trkpt lat="40.793168" lon="-3.875685">
        <ele>2038.849</ele>
        <time>2021-07-31T11:01:22Z</time>
      </trkpt>
      <trkpt lat="40.793178" lon="-3.875705">
        <ele>2040.223</ele>
        <time>2021-07-31T11:01:40Z</time>
      </trkpt>
      <trkpt lat="40.793187" lon="-3.875730">
        <ele>2041.808</ele>
        <time>2021-07-31T11:01:43Z</time>
      </trkpt>
      <trkpt lat="40.793197" lon="-3.875755">
        <ele>2043.416</ele>
        <time>2021-07-31T11:01:47Z</time>
      </trkpt>
      <trkpt lat="40.793210" lon="-3.875780">
        <ele>2045.098</ele>
        <time>2021-07-31T11:01:59Z</time>
      </trkpt>
      <trkpt lat="40.793200" lon="-3.875802">
        <ele>2046.235</ele>
        <time>2021-07-31T11:02:05Z</time>
      </trkpt>
      <trkpt lat="40.793206" lon="-3.875828">
        <ele>2047.892</ele>
        <time>2021-07-31T11:02:11Z</time>
      </trkpt>
      <trkpt lat="40.793197" lon="-3.875853">
        <ele>2048.244</ele>
        <time>2021-07-31T11:02:41Z</time>
      </trkpt>
      <trkpt lat="40.793206" lon="-3.875875">
        <ele>2048.441</ele>
        <time>2021-07-31T11:02:45Z</time>
      </trkpt>
      <trkpt lat="40.793194" lon="-3.875892">
        <ele>2048.471</ele>
        <time>2021-07-31T11:02:49Z</time>
      </trkpt>
      <trkpt lat="40.793206" lon="-3.875913">
        <ele>2048.659</ele>
        <time>2021-07-31T11:02:52Z</time>
      </trkpt>
      <trkpt lat="40.793226" lon="-3.875932">
        <ele>2048.984</ele>
        <time>2021-07-31T11:03:00Z</time>
      </trkpt>
      <trkpt lat="40.793226" lon="-3.875956">
        <ele>2049.007</ele>
        <time>2021-07-31T11:03:03Z</time>
      </trkpt>
      <trkpt lat="40.793210" lon="-3.875970">
        <ele>2049.017</ele>
        <time>2021-07-31T11:03:07Z</time>
      </trkpt>
      <trkpt lat="40.793210" lon="-3.875995">
        <ele>2049.208</ele>
        <time>2021-07-31T11:03:15Z</time>
      </trkpt>
      <trkpt lat="40.793226" lon="-3.876010">
        <ele>2049.455</ele>
        <time>2021-07-31T11:03:21Z</time>
      </trkpt>
      <trkpt lat="40.793238" lon="-3.876027">
        <ele>2049.547</ele>
        <time>2021-07-31T11:03:26Z</time>
      </trkpt>
      <trkpt lat="40.793258" lon="-3.876030">
        <ele>2049.614</ele>
        <time>2021-07-31T11:03:30Z</time>
      </trkpt>
      <trkpt lat="40.793277" lon="-3.876027">
        <ele>2049.621</ele>
        <time>2021-07-31T11:03:32Z</time>
      </trkpt>
      <trkpt lat="40.793290" lon="-3.876047">
        <ele>2049.793</ele>
        <time>2021-07-31T11:03:36Z</time>
      </trkpt>
      <trkpt lat="40.793306" lon="-3.876067">
        <ele>2049.870</ele>
        <time>2021-07-31T11:03:40Z</time>
      </trkpt>
      <trkpt lat="40.793306" lon="-3.876092">
        <ele>2049.920</ele>
        <time>2021-07-31T11:03:45Z</time>
      </trkpt>
      <trkpt lat="40.793290" lon="-3.876110">
        <ele>2050.018</ele>
        <time>2021-07-31T11:03:48Z</time>
      </trkpt>
      <trkpt lat="40.793293" lon="-3.876135">
        <ele>2049.185</ele>
        <time>2021-07-31T11:03:52Z</time>
      </trkpt>
      <trkpt lat="40.793306" lon="-3.876155">
        <ele>2048.489</ele>
        <time>2021-07-31T11:03:59Z</time>
      </trkpt>
      <trkpt lat="40.793331" lon="-3.876150">
        <ele>2048.617</ele>
        <time>2021-07-31T11:04:14Z</time>
      </trkpt>
      <trkpt lat="40.793347" lon="-3.876130">
        <ele>2049.408</ele>
        <time>2021-07-31T11:04:16Z</time>
      </trkpt>
      <trkpt lat="40.793366" lon="-3.876114">
        <ele>2050.095</ele>
        <time>2021-07-31T11:04:18Z</time>
      </trkpt>
      <trkpt lat="40.793389" lon="-3.876115">
        <ele>2050.137</ele>
        <time>2021-07-31T11:04:20Z</time>
      </trkpt>
      <trkpt lat="40.793411" lon="-3.876105">
        <ele>2050.314</ele>
        <time>2021-07-31T11:04:22Z</time>
      </trkpt>
      <trkpt lat="40.793430" lon="-3.876108">
        <ele>2050.381</ele>
        <time>2021-07-31T11:04:26Z</time>
      </trkpt>
      <trkpt lat="40.793450" lon="-3.876115">
        <ele>2050.373</ele>
        <time>2021-07-31T11:04:29Z</time>
      </trkpt>
      <trkpt lat="40.793472" lon="-3.876115">
        <ele>2050.420</ele>
        <time>2021-07-31T11:04:32Z</time>
      </trkpt>
      <trkpt lat="40.793491" lon="-3.876117">
        <ele>2050.490</ele>
        <time>2021-07-31T11:04:35Z</time>
      </trkpt>
      <trkpt lat="40.793510" lon="-3.876118">
        <ele>2050.418</ele>
        <time>2021-07-31T11:04:41Z</time>
      </trkpt>
      <trkpt lat="40.793526" lon="-3.876132">
        <ele>2050.123</ele>
        <time>2021-07-31T11:04:47Z</time>
      </trkpt>
      <trkpt lat="40.793555" lon="-3.876134">
        <ele>2050.283</ele>
        <time>2021-07-31T11:05:03Z</time>
      </trkpt>
      <trkpt lat="40.793584" lon="-3.876127">
        <ele>2050.511</ele>
        <time>2021-07-31T11:05:05Z</time>
      </trkpt>
      <trkpt lat="40.793610" lon="-3.876112">
        <ele>2051.008</ele>
        <time>2021-07-31T11:05:07Z</time>
      </trkpt>
      <trkpt lat="40.793642" lon="-3.876095">
        <ele>2051.099</ele>
        <time>2021-07-31T11:05:09Z</time>
      </trkpt>
      <trkpt lat="40.793667" lon="-3.876083">
        <ele>2051.051</ele>
        <time>2021-07-31T11:05:11Z</time>
      </trkpt>
      <trkpt lat="40.793686" lon="-3.876073">
        <ele>2051.078</ele>
        <time>2021-07-31T11:05:13Z</time>
      </trkpt>
      <trkpt lat="40.793706" lon="-3.876063">
        <ele>2050.955</ele>
        <time>2021-07-31T11:05:15Z</time>
      </trkpt>
      <trkpt lat="40.793728" lon="-3.876050">
        <ele>2050.987</ele>
        <time>2021-07-31T11:05:18Z</time>
      </trkpt>
      <trkpt lat="40.793750" lon="-3.876047">
        <ele>2050.914</ele>
        <time>2021-07-31T11:05:21Z</time>
      </trkpt>
      <trkpt lat="40.793776" lon="-3.876048">
        <ele>2051.074</ele>
        <time>2021-07-31T11:05:25Z</time>
      </trkpt>
      <trkpt lat="40.793802" lon="-3.876057">
        <ele>2051.252</ele>
        <time>2021-07-31T11:05:29Z</time>
      </trkpt>
      <trkpt lat="40.793821" lon="-3.876063">
        <ele>2051.337</ele>
        <time>2021-07-31T11:05:31Z</time>
      </trkpt>
      <trkpt lat="40.793840" lon="-3.876057">
        <ele>2051.349</ele>
        <time>2021-07-31T11:05:34Z</time>
      </trkpt>
      <trkpt lat="40.793856" lon="-3.876045">
        <ele>2051.213</ele>
        <time>2021-07-31T11:05:37Z</time>
      </trkpt>
      <trkpt lat="40.793882" lon="-3.876035">
        <ele>2051.208</ele>
        <time>2021-07-31T11:05:40Z</time>
      </trkpt>
      <trkpt lat="40.793901" lon="-3.876043">
        <ele>2051.630</ele>
        <time>2021-07-31T11:05:45Z</time>
      </trkpt>
      <trkpt lat="40.793923" lon="-3.876033">
        <ele>2052.172</ele>
        <time>2021-07-31T11:05:47Z</time>
      </trkpt>
      <trkpt lat="40.793942" lon="-3.876033">
        <ele>2052.649</ele>
        <time>2021-07-31T11:05:49Z</time>
      </trkpt>
      <trkpt lat="40.793962" lon="-3.876043">
        <ele>2053.266</ele>
        <time>2021-07-31T11:05:52Z</time>
      </trkpt>
      <trkpt lat="40.793981" lon="-3.876050">
        <ele>2053.828</ele>
        <time>2021-07-31T11:05:56Z</time>
      </trkpt>
      <trkpt lat="40.794006" lon="-3.876048">
        <ele>2054.595</ele>
        <time>2021-07-31T11:05:59Z</time>
      </trkpt>
      <trkpt lat="40.794026" lon="-3.876055">
        <ele>2055.175</ele>
        <time>2021-07-31T11:06:02Z</time>
      </trkpt>
      <trkpt lat="40.794054" lon="-3.876042">
        <ele>2055.793</ele>
        <time>2021-07-31T11:06:04Z</time>
      </trkpt>
      <trkpt lat="40.794070" lon="-3.876028">
        <ele>2055.949</ele>
        <time>2021-07-31T11:06:06Z</time>
      </trkpt>
      <trkpt lat="40.794090" lon="-3.876033">
        <ele>2056.502</ele>
        <time>2021-07-31T11:06:09Z</time>
      </trkpt>
      <trkpt lat="40.794106" lon="-3.876045">
        <ele>2057.222</ele>
        <time>2021-07-31T11:06:11Z</time>
      </trkpt>
      <trkpt lat="40.794125" lon="-3.876025">
        <ele>2057.308</ele>
        <time>2021-07-31T11:06:16Z</time>
      </trkpt>
      <trkpt lat="40.794147" lon="-3.876035">
        <ele>2058.121</ele>
        <time>2021-07-31T11:06:18Z</time>
      </trkpt>
      <trkpt lat="40.794160" lon="-3.876060">
        <ele>2058.933</ele>
        <time>2021-07-31T11:06:25Z</time>
      </trkpt>
      <trkpt lat="40.794179" lon="-3.876067">
        <ele>2059.240</ele>
        <time>2021-07-31T11:06:28Z</time>
      </trkpt>
      <trkpt lat="40.794198" lon="-3.876070">
        <ele>2059.317</ele>
        <time>2021-07-31T11:06:32Z</time>
      </trkpt>
      <trkpt lat="40.794221" lon="-3.876068">
        <ele>2059.379</ele>
        <time>2021-07-31T11:06:36Z</time>
      </trkpt>
      <trkpt lat="40.794240" lon="-3.876078">
        <ele>2059.516</ele>
        <time>2021-07-31T11:06:45Z</time>
      </trkpt>
      <trkpt lat="40.794262" lon="-3.876093">
        <ele>2059.896</ele>
        <time>2021-07-31T11:06:52Z</time>
      </trkpt>
      <trkpt lat="40.794285" lon="-3.876102">
        <ele>2059.964</ele>
        <time>2021-07-31T11:06:55Z</time>
      </trkpt>
      <trkpt lat="40.794307" lon="-3.876110">
        <ele>2060.099</ele>
        <time>2021-07-31T11:06:57Z</time>
      </trkpt>
      <trkpt lat="40.794326" lon="-3.876110">
        <ele>2060.007</ele>
        <time>2021-07-31T11:06:59Z</time>
      </trkpt>
      <trkpt lat="40.794346" lon="-3.876114">
        <ele>2060.027</ele>
        <time>2021-07-31T11:07:01Z</time>
      </trkpt>
      <trkpt lat="40.794365" lon="-3.876118">
        <ele>2059.908</ele>
        <time>2021-07-31T11:07:04Z</time>
      </trkpt>
      <trkpt lat="40.794387" lon="-3.876128">
        <ele>2059.716</ele>
        <time>2021-07-31T11:07:07Z</time>
      </trkpt>
      <trkpt lat="40.794410" lon="-3.876132">
        <ele>2059.768</ele>
        <time>2021-07-31T11:07:10Z</time>
      </trkpt>
      <trkpt lat="40.794432" lon="-3.876120">
        <ele>2059.875</ele>
        <time>2021-07-31T11:07:14Z</time>
      </trkpt>
      <trkpt lat="40.794445" lon="-3.876102">
        <ele>2060.012</ele>
        <time>2021-07-31T11:07:18Z</time>
      </trkpt>
      <trkpt lat="40.794467" lon="-3.876092">
        <ele>2060.544</ele>
        <time>2021-07-31T11:07:22Z</time>
      </trkpt>
      <trkpt lat="40.794486" lon="-3.876088">
        <ele>2060.971</ele>
        <time>2021-07-31T11:07:27Z</time>
      </trkpt>
      <trkpt lat="40.794506" lon="-3.876092">
        <ele>2061.441</ele>
        <time>2021-07-31T11:07:31Z</time>
      </trkpt>
      <trkpt lat="40.794525" lon="-3.876087">
        <ele>2061.869</ele>
        <time>2021-07-31T11:07:36Z</time>
      </trkpt>
      <trkpt lat="40.794544" lon="-3.876080">
        <ele>2062.312</ele>
        <time>2021-07-31T11:07:45Z</time>
      </trkpt>
      <trkpt lat="40.794560" lon="-3.876068">
        <ele>2062.732</ele>
        <time>2021-07-31T11:07:50Z</time>
      </trkpt>
      <trkpt lat="40.794579" lon="-3.876068">
        <ele>2063.205</ele>
        <time>2021-07-31T11:07:55Z</time>
      </trkpt>
      <trkpt lat="40.794595" lon="-3.876057">
        <ele>2063.708</ele>
        <time>2021-07-31T11:07:59Z</time>
      </trkpt>
      <trkpt lat="40.794618" lon="-3.876048">
        <ele>2064.488</ele>
        <time>2021-07-31T11:08:02Z</time>
      </trkpt>
      <trkpt lat="40.794640" lon="-3.876040">
        <ele>2065.040</ele>
        <time>2021-07-31T11:08:06Z</time>
      </trkpt>
      <trkpt lat="40.794656" lon="-3.876028">
        <ele>2065.677</ele>
        <time>2021-07-31T11:08:11Z</time>
      </trkpt>
      <trkpt lat="40.794675" lon="-3.876030">
        <ele>2066.124</ele>
        <time>2021-07-31T11:08:15Z</time>
      </trkpt>
      <trkpt lat="40.794694" lon="-3.876032">
        <ele>2066.676</ele>
        <time>2021-07-31T11:08:20Z</time>
      </trkpt>
      <trkpt lat="40.794714" lon="-3.876027">
        <ele>2067.393</ele>
        <time>2021-07-31T11:08:26Z</time>
      </trkpt>
      <trkpt lat="40.794730" lon="-3.876047">
        <ele>2067.223</ele>
        <time>2021-07-31T11:08:32Z</time>
      </trkpt>
      <trkpt lat="40.794749" lon="-3.876068">
        <ele>2067.051</ele>
        <time>2021-07-31T11:08:36Z</time>
      </trkpt>
      <trkpt lat="40.794774" lon="-3.876073">
        <ele>2067.152</ele>
        <time>2021-07-31T11:08:39Z</time>
      </trkpt>
      <trkpt lat="40.794797" lon="-3.876065">
        <ele>2067.453</ele>
        <time>2021-07-31T11:08:43Z</time>
      </trkpt>
      <trkpt lat="40.794819" lon="-3.876068">
        <ele>2067.508</ele>
        <time>2021-07-31T11:08:47Z</time>
      </trkpt>
      <trkpt lat="40.794842" lon="-3.876072">
        <ele>2067.608</ele>
        <time>2021-07-31T11:08:49Z</time>
      </trkpt>
      <trkpt lat="40.794867" lon="-3.876063">
        <ele>2068.032</ele>
        <time>2021-07-31T11:08:52Z</time>
      </trkpt>
      <trkpt lat="40.794886" lon="-3.876053">
        <ele>2068.344</ele>
        <time>2021-07-31T11:08:54Z</time>
      </trkpt>
      <trkpt lat="40.794906" lon="-3.876048">
        <ele>2068.681</ele>
        <time>2021-07-31T11:08:57Z</time>
      </trkpt>
      <trkpt lat="40.794918" lon="-3.876028">
        <ele>2069.118</ele>
        <time>2021-07-31T11:09:02Z</time>
      </trkpt>
      <trkpt lat="40.794934" lon="-3.876008">
        <ele>2069.770</ele>
        <time>2021-07-31T11:09:08Z</time>
      </trkpt>
      <trkpt lat="40.794941" lon="-3.875983">
        <ele>2070.217</ele>
        <time>2021-07-31T11:09:13Z</time>
      </trkpt>
      <trkpt lat="40.794960" lon="-3.875973">
        <ele>2070.637</ele>
        <time>2021-07-31T11:09:17Z</time>
      </trkpt>
      <trkpt lat="40.794979" lon="-3.875970">
        <ele>2070.945</ele>
        <time>2021-07-31T11:09:20Z</time>
      </trkpt>
      <trkpt lat="40.794998" lon="-3.875966">
        <ele>2071.121</ele>
        <time>2021-07-31T11:09:23Z</time>
      </trkpt>
      <trkpt lat="40.795002" lon="-3.875942">
        <ele>2071.741</ele>
        <time>2021-07-31T11:09:28Z</time>
      </trkpt>
      <trkpt lat="40.795018" lon="-3.875923">
        <ele>2072.305</ele>
        <time>2021-07-31T11:09:33Z</time>
      </trkpt>
      <trkpt lat="40.795034" lon="-3.875900">
        <ele>2073.008</ele>
        <time>2021-07-31T11:09:39Z</time>
      </trkpt>
      <trkpt lat="40.795046" lon="-3.875880">
        <ele>2073.619</ele>
        <time>2021-07-31T11:09:42Z</time>
      </trkpt>
      <trkpt lat="40.795066" lon="-3.875870">
        <ele>2074.151</ele>
        <time>2021-07-31T11:09:45Z</time>
      </trkpt>
      <trkpt lat="40.795085" lon="-3.875858">
        <ele>2074.668</ele>
        <time>2021-07-31T11:09:48Z</time>
      </trkpt>
      <trkpt lat="40.795104" lon="-3.875845">
        <ele>2075.295</ele>
        <time>2021-07-31T11:09:53Z</time>
      </trkpt>
      <trkpt lat="40.795123" lon="-3.875838">
        <ele>2075.787</ele>
        <time>2021-07-31T11:09:57Z</time>
      </trkpt>
      <trkpt lat="40.795142" lon="-3.875852">
        <ele>2075.664</ele>
        <time>2021-07-31T11:10:04Z</time>
      </trkpt>
      <trkpt lat="40.795155" lon="-3.875885">
        <ele>2074.914</ele>
        <time>2021-07-31T11:10:07Z</time>
      </trkpt>
      <trkpt lat="40.795171" lon="-3.875908">
        <ele>2074.522</ele>
        <time>2021-07-31T11:10:12Z</time>
      </trkpt>
      <trkpt lat="40.795190" lon="-3.875928">
        <ele>2074.275</ele>
        <time>2021-07-31T11:10:15Z</time>
      </trkpt>
      <trkpt lat="40.795213" lon="-3.875938">
        <ele>2074.228</ele>
        <time>2021-07-31T11:10:19Z</time>
      </trkpt>
      <trkpt lat="40.795226" lon="-3.875963">
        <ele>2073.720</ele>
        <time>2021-07-31T11:10:22Z</time>
      </trkpt>
      <trkpt lat="40.795242" lon="-3.875976">
        <ele>2073.508</ele>
        <time>2021-07-31T11:10:24Z</time>
      </trkpt>
      <trkpt lat="40.795254" lon="-3.875996">
        <ele>2073.154</ele>
        <time>2021-07-31T11:10:26Z</time>
      </trkpt>
      <trkpt lat="40.795270" lon="-3.876010">
        <ele>2072.816</ele>
        <time>2021-07-31T11:10:28Z</time>
      </trkpt>
      <trkpt lat="40.795283" lon="-3.876027">
        <ele>2072.693</ele>
        <time>2021-07-31T11:10:30Z</time>
      </trkpt>
      <trkpt lat="40.795302" lon="-3.876032">
        <ele>2072.910</ele>
        <time>2021-07-31T11:10:32Z</time>
      </trkpt>
      <trkpt lat="40.795322" lon="-3.876040">
        <ele>2073.132</ele>
        <time>2021-07-31T11:10:35Z</time>
      </trkpt>
      <trkpt lat="40.795341" lon="-3.876058">
        <ele>2073.049</ele>
        <time>2021-07-31T11:10:39Z</time>
      </trkpt>
      <trkpt lat="40.795370" lon="-3.876068">
        <ele>2073.429</ele>
        <time>2021-07-31T11:10:42Z</time>
      </trkpt>
      <trkpt lat="40.795389" lon="-3.876067">
        <ele>2073.927</ele>
        <time>2021-07-31T11:10:45Z</time>
      </trkpt>
      <trkpt lat="40.795398" lon="-3.876097">
        <ele>2073.136</ele>
        <time>2021-07-31T11:10:48Z</time>
      </trkpt>
      <trkpt lat="40.795414" lon="-3.876110">
        <ele>2073.017</ele>
        <time>2021-07-31T11:10:50Z</time>
      </trkpt>
      <trkpt lat="40.795437" lon="-3.876114">
        <ele>2073.418</ele>
        <time>2021-07-31T11:10:53Z</time>
      </trkpt>
      <trkpt lat="40.795456" lon="-3.876110">
        <ele>2073.908</ele>
        <time>2021-07-31T11:10:58Z</time>
      </trkpt>
      <trkpt lat="40.795475" lon="-3.876115">
        <ele>2074.110</ele>
        <time>2021-07-31T11:11:06Z</time>
      </trkpt>
      <trkpt lat="40.795494" lon="-3.876125">
        <ele>2074.212</ele>
        <time>2021-07-31T11:11:09Z</time>
      </trkpt>
      <trkpt lat="40.795514" lon="-3.876135">
        <ele>2074.449</ele>
        <time>2021-07-31T11:11:13Z</time>
      </trkpt>
      <trkpt lat="40.795530" lon="-3.876147">
        <ele>2074.366</ele>
        <time>2021-07-31T11:11:18Z</time>
      </trkpt>
      <trkpt lat="40.795552" lon="-3.876160">
        <ele>2074.348</ele>
        <time>2021-07-31T11:11:23Z</time>
      </trkpt>
      <trkpt lat="40.795568" lon="-3.876176">
        <ele>2074.155</ele>
        <time>2021-07-31T11:11:25Z</time>
      </trkpt>
      <trkpt lat="40.795590" lon="-3.876183">
        <ele>2074.385</ele>
        <time>2021-07-31T11:11:29Z</time>
      </trkpt>
      <trkpt lat="40.795613" lon="-3.876182">
        <ele>2074.733</ele>
        <time>2021-07-31T11:11:32Z</time>
      </trkpt>
      <trkpt lat="40.795632" lon="-3.876180">
        <ele>2075.178</ele>
        <time>2021-07-31T11:11:34Z</time>
      </trkpt>
      <trkpt lat="40.795654" lon="-3.876188">
        <ele>2075.233</ele>
        <time>2021-07-31T11:11:38Z</time>
      </trkpt>
      <trkpt lat="40.795674" lon="-3.876180">
        <ele>2075.826</ele>
        <time>2021-07-31T11:11:42Z</time>
      </trkpt>
      <trkpt lat="40.795693" lon="-3.876162">
        <ele>2076.708</ele>
        <time>2021-07-31T11:11:45Z</time>
      </trkpt>
      <trkpt lat="40.795699" lon="-3.876138">
        <ele>2077.714</ele>
        <time>2021-07-31T11:11:50Z</time>
      </trkpt>
      <trkpt lat="40.795712" lon="-3.876115">
        <ele>2078.786</ele>
        <time>2021-07-31T11:11:54Z</time>
      </trkpt>
      <trkpt lat="40.795731" lon="-3.876112">
        <ele>2079.143</ele>
        <time>2021-07-31T11:12:00Z</time>
      </trkpt>
      <trkpt lat="40.795747" lon="-3.876127">
        <ele>2078.950</ele>
        <time>2021-07-31T11:12:03Z</time>
      </trkpt>
      <trkpt lat="40.795770" lon="-3.876122">
        <ele>2079.512</ele>
        <time>2021-07-31T11:12:05Z</time>
      </trkpt>
      <trkpt lat="40.795792" lon="-3.876107">
        <ele>2080.419</ele>
        <time>2021-07-31T11:12:08Z</time>
      </trkpt>
      <trkpt lat="40.795814" lon="-3.876115">
        <ele>2080.559</ele>
        <time>2021-07-31T11:12:12Z</time>
      </trkpt>
      <trkpt lat="40.795837" lon="-3.876104">
        <ele>2081.287</ele>
        <time>2021-07-31T11:12:16Z</time>
      </trkpt>
      <trkpt lat="40.795850" lon="-3.876082">
        <ele>2081.846</ele>
        <time>2021-07-31T11:12:18Z</time>
      </trkpt>
      <trkpt lat="40.795872" lon="-3.876090">
        <ele>2081.688</ele>
        <time>2021-07-31T11:12:22Z</time>
      </trkpt>
      <trkpt lat="40.795894" lon="-3.876095">
        <ele>2081.516</ele>
        <time>2021-07-31T11:12:26Z</time>
      </trkpt>
      <trkpt lat="40.795917" lon="-3.876092">
        <ele>2081.508</ele>
        <time>2021-07-31T11:12:29Z</time>
      </trkpt>
      <trkpt lat="40.795936" lon="-3.876104">
        <ele>2081.251</ele>
        <time>2021-07-31T11:12:31Z</time>
      </trkpt>
      <trkpt lat="40.795955" lon="-3.876098">
        <ele>2081.453</ele>
        <time>2021-07-31T11:12:35Z</time>
      </trkpt>
      <trkpt lat="40.795974" lon="-3.876088">
        <ele>2081.630</ele>
        <time>2021-07-31T11:12:38Z</time>
      </trkpt>
      <trkpt lat="40.795997" lon="-3.876083">
        <ele>2081.847</ele>
        <time>2021-07-31T11:12:41Z</time>
      </trkpt>
      <trkpt lat="40.796019" lon="-3.876077">
        <ele>2081.919</ele>
        <time>2021-07-31T11:12:44Z</time>
      </trkpt>
      <trkpt lat="40.796048" lon="-3.876070">
        <ele>2082.156</ele>
        <time>2021-07-31T11:12:46Z</time>
      </trkpt>
      <trkpt lat="40.796067" lon="-3.876065">
        <ele>2082.276</ele>
        <time>2021-07-31T11:12:48Z</time>
      </trkpt>
      <trkpt lat="40.796086" lon="-3.876052">
        <ele>2082.544</ele>
        <time>2021-07-31T11:12:52Z</time>
      </trkpt>
      <trkpt lat="40.796109" lon="-3.876040">
        <ele>2082.825</ele>
        <time>2021-07-31T11:12:55Z</time>
      </trkpt>
      <trkpt lat="40.796128" lon="-3.876030">
        <ele>2083.126</ele>
        <time>2021-07-31T11:12:58Z</time>
      </trkpt>
      <trkpt lat="40.796150" lon="-3.876020">
        <ele>2083.408</ele>
        <time>2021-07-31T11:13:02Z</time>
      </trkpt>
      <trkpt lat="40.796170" lon="-3.876017">
        <ele>2083.508</ele>
        <time>2021-07-31T11:13:04Z</time>
      </trkpt>
      <trkpt lat="40.796189" lon="-3.876020">
        <ele>2083.549</ele>
        <time>2021-07-31T11:13:06Z</time>
      </trkpt>
      <trkpt lat="40.796208" lon="-3.876017">
        <ele>2083.681</ele>
        <time>2021-07-31T11:13:10Z</time>
      </trkpt>
      <trkpt lat="40.796227" lon="-3.876012">
        <ele>2083.748</ele>
        <time>2021-07-31T11:13:13Z</time>
      </trkpt>
      <trkpt lat="40.796246" lon="-3.876012">
        <ele>2083.865</ele>
        <time>2021-07-31T11:13:15Z</time>
      </trkpt>
      <trkpt lat="40.796275" lon="-3.876012">
        <ele>2083.897</ele>
        <time>2021-07-31T11:13:17Z</time>
      </trkpt>
      <trkpt lat="40.796294" lon="-3.876008">
        <ele>2083.934</ele>
        <time>2021-07-31T11:13:19Z</time>
      </trkpt>
      <trkpt lat="40.796314" lon="-3.876000">
        <ele>2084.194</ele>
        <time>2021-07-31T11:13:21Z</time>
      </trkpt>
      <trkpt lat="40.796330" lon="-3.875975">
        <ele>2084.512</ele>
        <time>2021-07-31T11:13:25Z</time>
      </trkpt>
      <trkpt lat="40.796349" lon="-3.875958">
        <ele>2084.746</ele>
        <time>2021-07-31T11:13:28Z</time>
      </trkpt>
      <trkpt lat="40.796378" lon="-3.875962">
        <ele>2084.688</ele>
        <time>2021-07-31T11:13:31Z</time>
      </trkpt>
      <trkpt lat="40.796397" lon="-3.875963">
        <ele>2084.616</ele>
        <time>2021-07-31T11:13:33Z</time>
      </trkpt>
      <trkpt lat="40.796422" lon="-3.875965">
        <ele>2084.408</ele>
        <time>2021-07-31T11:13:36Z</time>
      </trkpt>
      <trkpt lat="40.796442" lon="-3.875963">
        <ele>2084.341</ele>
        <time>2021-07-31T11:13:38Z</time>
      </trkpt>
      <trkpt lat="40.796464" lon="-3.875952">
        <ele>2084.333</ele>
        <time>2021-07-31T11:13:40Z</time>
      </trkpt>
      <trkpt lat="40.796477" lon="-3.875934">
        <ele>2084.490</ele>
        <time>2021-07-31T11:13:42Z</time>
      </trkpt>
      <trkpt lat="40.796496" lon="-3.875927">
        <ele>2084.367</ele>
        <time>2021-07-31T11:13:44Z</time>
      </trkpt>
      <trkpt lat="40.796515" lon="-3.875922">
        <ele>2084.379</ele>
        <time>2021-07-31T11:13:46Z</time>
      </trkpt>
      <trkpt lat="40.796541" lon="-3.875920">
        <ele>2084.126</ele>
        <time>2021-07-31T11:13:49Z</time>
      </trkpt>
      <trkpt lat="40.796566" lon="-3.875937">
        <ele>2083.816</ele>
        <time>2021-07-31T11:13:53Z</time>
      </trkpt>
      <trkpt lat="40.796586" lon="-3.875948">
        <ele>2083.644</ele>
        <time>2021-07-31T11:13:55Z</time>
      </trkpt>
      <trkpt lat="40.796605" lon="-3.875966">
        <ele>2083.476</ele>
        <time>2021-07-31T11:13:57Z</time>
      </trkpt>
      <trkpt lat="40.796624" lon="-3.875978">
        <ele>2083.290</ele>
        <time>2021-07-31T11:13:59Z</time>
      </trkpt>
      <trkpt lat="40.796646" lon="-3.875992">
        <ele>2083.019</ele>
        <time>2021-07-31T11:14:02Z</time>
      </trkpt>
      <trkpt lat="40.796669" lon="-3.875996">
        <ele>2082.808</ele>
        <time>2021-07-31T11:14:04Z</time>
      </trkpt>
      <trkpt lat="40.796688" lon="-3.876013">
        <ele>2082.634</ele>
        <time>2021-07-31T11:14:06Z</time>
      </trkpt>
      <trkpt lat="40.796704" lon="-3.876035">
        <ele>2082.466</ele>
        <time>2021-07-31T11:14:08Z</time>
      </trkpt>
      <trkpt lat="40.796726" lon="-3.876047">
        <ele>2082.243</ele>
        <time>2021-07-31T11:14:11Z</time>
      </trkpt>
      <trkpt lat="40.796755" lon="-3.876043">
        <ele>2082.110</ele>
        <time>2021-07-31T11:14:13Z</time>
      </trkpt>
      <trkpt lat="40.796784" lon="-3.876037">
        <ele>2082.022</ele>
        <time>2021-07-31T11:14:15Z</time>
      </trkpt>
      <trkpt lat="40.796810" lon="-3.876043">
        <ele>2081.839</ele>
        <time>2021-07-31T11:14:18Z</time>
      </trkpt>
      <trkpt lat="40.796829" lon="-3.876050">
        <ele>2081.759</ele>
        <time>2021-07-31T11:14:20Z</time>
      </trkpt>
      <trkpt lat="40.796842" lon="-3.876067">
        <ele>2081.627</ele>
        <time>2021-07-31T11:14:22Z</time>
      </trkpt>
      <trkpt lat="40.796861" lon="-3.876075">
        <ele>2081.596</ele>
        <time>2021-07-31T11:14:24Z</time>
      </trkpt>
      <trkpt lat="40.796886" lon="-3.876093">
        <ele>2081.331</ele>
        <time>2021-07-31T11:14:27Z</time>
      </trkpt>
      <trkpt lat="40.796909" lon="-3.876100">
        <ele>2081.224</ele>
        <time>2021-07-31T11:14:29Z</time>
      </trkpt>
      <trkpt lat="40.796928" lon="-3.876115">
        <ele>2081.008</ele>
        <time>2021-07-31T11:14:31Z</time>
      </trkpt>
      <trkpt lat="40.796944" lon="-3.876130">
        <ele>2080.966</ele>
        <time>2021-07-31T11:14:33Z</time>
      </trkpt>
      <trkpt lat="40.796963" lon="-3.876135">
        <ele>2080.848</ele>
        <time>2021-07-31T11:14:35Z</time>
      </trkpt>
      <trkpt lat="40.796982" lon="-3.876144">
        <ele>2080.785</ele>
        <time>2021-07-31T11:14:37Z</time>
      </trkpt>
      <trkpt lat="40.797002" lon="-3.876152">
        <ele>2080.692</ele>
        <time>2021-07-31T11:14:39Z</time>
      </trkpt>
      <trkpt lat="40.797021" lon="-3.876150">
        <ele>2080.514</ele>
        <time>2021-07-31T11:14:41Z</time>
      </trkpt>
      <trkpt lat="40.797043" lon="-3.876145">
        <ele>2080.571</ele>
        <time>2021-07-31T11:14:43Z</time>
      </trkpt>
      <trkpt lat="40.797066" lon="-3.876137">
        <ele>2080.421</ele>
        <time>2021-07-31T11:14:46Z</time>
      </trkpt>
      <trkpt lat="40.797085" lon="-3.876140">
        <ele>2080.389</ele>
        <time>2021-07-31T11:14:48Z</time>
      </trkpt>
      <trkpt lat="40.797104" lon="-3.876150">
        <ele>2080.231</ele>
        <time>2021-07-31T11:14:51Z</time>
      </trkpt>
      <trkpt lat="40.797117" lon="-3.876178">
        <ele>2080.061</ele>
        <time>2021-07-31T11:14:54Z</time>
      </trkpt>
      <trkpt lat="40.797120" lon="-3.876208">
        <ele>2079.807</ele>
        <time>2021-07-31T11:14:57Z</time>
      </trkpt>
      <trkpt lat="40.797139" lon="-3.876232">
        <ele>2079.608</ele>
        <time>2021-07-31T11:15:00Z</time>
      </trkpt>
      <trkpt lat="40.797158" lon="-3.876228">
        <ele>2079.590</ele>
        <time>2021-07-31T11:15:03Z</time>
      </trkpt>
      <trkpt lat="40.797178" lon="-3.876237">
        <ele>2079.362</ele>
        <time>2021-07-31T11:15:07Z</time>
      </trkpt>
      <trkpt lat="40.797190" lon="-3.876255">
        <ele>2079.189</ele>
        <time>2021-07-31T11:15:13Z</time>
      </trkpt>
      <trkpt lat="40.797200" lon="-3.876284">
        <ele>2078.946</ele>
        <time>2021-07-31T11:15:16Z</time>
      </trkpt>
      <trkpt lat="40.797203" lon="-3.876315">
        <ele>2078.718</ele>
        <time>2021-07-31T11:15:19Z</time>
      </trkpt>
      <trkpt lat="40.797219" lon="-3.876335">
        <ele>2078.415</ele>
        <time>2021-07-31T11:15:22Z</time>
      </trkpt>
      <trkpt lat="40.797238" lon="-3.876350">
        <ele>2078.315</ele>
        <time>2021-07-31T11:15:26Z</time>
      </trkpt>
      <trkpt lat="40.797258" lon="-3.876377">
        <ele>2078.193</ele>
        <time>2021-07-31T11:15:29Z</time>
      </trkpt>
      <trkpt lat="40.797277" lon="-3.876397">
        <ele>2077.973</ele>
        <time>2021-07-31T11:15:32Z</time>
      </trkpt>
      <trkpt lat="40.797290" lon="-3.876417">
        <ele>2077.785</ele>
        <time>2021-07-31T11:15:34Z</time>
      </trkpt>
      <trkpt lat="40.797309" lon="-3.876427">
        <ele>2077.613</ele>
        <time>2021-07-31T11:15:36Z</time>
      </trkpt>
      <trkpt lat="40.797322" lon="-3.876455">
        <ele>2077.308</ele>
        <time>2021-07-31T11:15:39Z</time>
      </trkpt>
      <trkpt lat="40.797338" lon="-3.876485">
        <ele>2077.044</ele>
        <time>2021-07-31T11:15:42Z</time>
      </trkpt>
      <trkpt lat="40.797347" lon="-3.876510">
        <ele>2076.736</ele>
        <time>2021-07-31T11:15:45Z</time>
      </trkpt>
      <trkpt lat="40.797360" lon="-3.876530">
        <ele>2076.563</ele>
        <time>2021-07-31T11:15:47Z</time>
      </trkpt>
      <trkpt lat="40.797363" lon="-3.876565">
        <ele>2076.130</ele>
        <time>2021-07-31T11:15:50Z</time>
      </trkpt>
      <trkpt lat="40.797376" lon="-3.876587">
        <ele>2075.992</ele>
        <time>2021-07-31T11:15:52Z</time>
      </trkpt>
      <trkpt lat="40.797389" lon="-3.876607">
        <ele>2075.669</ele>
        <time>2021-07-31T11:15:54Z</time>
      </trkpt>
      <trkpt lat="40.797408" lon="-3.876608">
        <ele>2075.669</ele>
        <time>2021-07-31T11:15:56Z</time>
      </trkpt>
      <trkpt lat="40.797427" lon="-3.876605">
        <ele>2075.767</ele>
        <time>2021-07-31T11:15:59Z</time>
      </trkpt>
      <trkpt lat="40.797446" lon="-3.876597">
        <ele>2075.824</ele>
        <time>2021-07-31T11:16:01Z</time>
      </trkpt>
      <trkpt lat="40.797462" lon="-3.876582">
        <ele>2075.904</ele>
        <time>2021-07-31T11:16:04Z</time>
      </trkpt>
      <trkpt lat="40.797488" lon="-3.876590">
        <ele>2075.814</ele>
        <time>2021-07-31T11:16:07Z</time>
      </trkpt>
      <trkpt lat="40.797514" lon="-3.876598">
        <ele>2075.708</ele>
        <time>2021-07-31T11:16:09Z</time>
      </trkpt>
      <trkpt lat="40.797536" lon="-3.876602">
        <ele>2075.759</ele>
        <time>2021-07-31T11:16:11Z</time>
      </trkpt>
      <trkpt lat="40.797555" lon="-3.876582">
        <ele>2075.911</ele>
        <time>2021-07-31T11:16:14Z</time>
      </trkpt>
      <trkpt lat="40.797578" lon="-3.876568">
        <ele>2076.168</ele>
        <time>2021-07-31T11:16:17Z</time>
      </trkpt>
      <trkpt lat="40.797594" lon="-3.876545">
        <ele>2076.345</ele>
        <time>2021-07-31T11:16:20Z</time>
      </trkpt>
      <trkpt lat="40.797603" lon="-3.876510">
        <ele>2076.767</ele>
        <time>2021-07-31T11:16:23Z</time>
      </trkpt>
      <trkpt lat="40.797613" lon="-3.876487">
        <ele>2076.934</ele>
        <time>2021-07-31T11:16:25Z</time>
      </trkpt>
      <trkpt lat="40.797619" lon="-3.876453">
        <ele>2077.354</ele>
        <time>2021-07-31T11:16:28Z</time>
      </trkpt>
      <trkpt lat="40.797622" lon="-3.876420">
        <ele>2077.722</ele>
        <time>2021-07-31T11:16:31Z</time>
      </trkpt>
      <trkpt lat="40.797619" lon="-3.876390">
        <ele>2078.024</ele>
        <time>2021-07-31T11:16:33Z</time>
      </trkpt>
      <trkpt lat="40.797622" lon="-3.876360">
        <ele>2078.204</ele>
        <time>2021-07-31T11:16:36Z</time>
      </trkpt>
      <trkpt lat="40.797635" lon="-3.876340">
        <ele>2078.414</ele>
        <time>2021-07-31T11:16:39Z</time>
      </trkpt>
      <trkpt lat="40.797654" lon="-3.876318">
        <ele>2078.508</ele>
        <time>2021-07-31T11:16:42Z</time>
      </trkpt>
      <trkpt lat="40.797677" lon="-3.876310">
        <ele>2078.649</ele>
        <time>2021-07-31T11:16:44Z</time>
      </trkpt>
      <trkpt lat="40.797699" lon="-3.876302">
        <ele>2078.671</ele>
        <time>2021-07-31T11:16:47Z</time>
      </trkpt>
      <trkpt lat="40.797725" lon="-3.876287">
        <ele>2078.758</ele>
        <time>2021-07-31T11:16:50Z</time>
      </trkpt>
      <trkpt lat="40.797741" lon="-3.876275">
        <ele>2078.865</ele>
        <time>2021-07-31T11:16:52Z</time>
      </trkpt>
      <trkpt lat="40.797760" lon="-3.876263">
        <ele>2078.937</ele>
        <time>2021-07-31T11:16:54Z</time>
      </trkpt>
      <trkpt lat="40.797782" lon="-3.876265">
        <ele>2078.994</ele>
        <time>2021-07-31T11:16:57Z</time>
      </trkpt>
      <trkpt lat="40.797805" lon="-3.876273">
        <ele>2079.084</ele>
        <time>2021-07-31T11:16:59Z</time>
      </trkpt>
      <trkpt lat="40.797824" lon="-3.876270">
        <ele>2079.242</ele>
        <time>2021-07-31T11:17:01Z</time>
      </trkpt>
      <trkpt lat="40.797846" lon="-3.876258">
        <ele>2079.499</ele>
        <time>2021-07-31T11:17:04Z</time>
      </trkpt>
      <trkpt lat="40.797866" lon="-3.876253">
        <ele>2079.607</ele>
        <time>2021-07-31T11:17:06Z</time>
      </trkpt>
      <trkpt lat="40.797891" lon="-3.876247">
        <ele>2079.827</ele>
        <time>2021-07-31T11:17:08Z</time>
      </trkpt>
      <trkpt lat="40.797904" lon="-3.876230">
        <ele>2080.108</ele>
        <time>2021-07-31T11:17:10Z</time>
      </trkpt>
      <trkpt lat="40.797920" lon="-3.876217">
        <ele>2080.346</ele>
        <time>2021-07-31T11:17:12Z</time>
      </trkpt>
      <trkpt lat="40.797939" lon="-3.876207">
        <ele>2080.528</ele>
        <time>2021-07-31T11:17:14Z</time>
      </trkpt>
      <trkpt lat="40.797958" lon="-3.876203">
        <ele>2080.615</ele>
        <time>2021-07-31T11:17:16Z</time>
      </trkpt>
      <trkpt lat="40.797981" lon="-3.876205">
        <ele>2080.892</ele>
        <time>2021-07-31T11:17:19Z</time>
      </trkpt>
      <trkpt lat="40.798003" lon="-3.876218">
        <ele>2080.994</ele>
        <time>2021-07-31T11:17:22Z</time>
      </trkpt>
      <trkpt lat="40.798026" lon="-3.876217">
        <ele>2081.021</ele>
        <time>2021-07-31T11:17:25Z</time>
      </trkpt>
      <trkpt lat="40.798045" lon="-3.876212">
        <ele>2081.271</ele>
        <time>2021-07-31T11:17:27Z</time>
      </trkpt>
      <trkpt lat="40.798064" lon="-3.876210">
        <ele>2081.419</ele>
        <time>2021-07-31T11:17:29Z</time>
      </trkpt>
      <trkpt lat="40.798099" lon="-3.876202">
        <ele>2081.823</ele>
        <time>2021-07-31T11:17:33Z</time>
      </trkpt>
      <trkpt lat="40.798118" lon="-3.876190">
        <ele>2082.183</ele>
        <time>2021-07-31T11:17:36Z</time>
      </trkpt>
      <trkpt lat="40.798141" lon="-3.876187">
        <ele>2082.411</ele>
        <time>2021-07-31T11:17:39Z</time>
      </trkpt>
      <trkpt lat="40.798160" lon="-3.876187">
        <ele>2082.608</ele>
        <time>2021-07-31T11:17:41Z</time>
      </trkpt>
      <trkpt lat="40.798182" lon="-3.876182">
        <ele>2082.959</ele>
        <time>2021-07-31T11:17:44Z</time>
      </trkpt>
      <trkpt lat="40.798205" lon="-3.876165">
        <ele>2083.231</ele>
        <time>2021-07-31T11:17:47Z</time>
      </trkpt>
      <trkpt lat="40.798221" lon="-3.876150">
        <ele>2083.598</ele>
        <time>2021-07-31T11:17:49Z</time>
      </trkpt>
      <trkpt lat="40.798237" lon="-3.876130">
        <ele>2083.825</ele>
        <time>2021-07-31T11:17:52Z</time>
      </trkpt>
      <trkpt lat="40.798253" lon="-3.876114">
        <ele>2084.137</ele>
        <time>2021-07-31T11:17:54Z</time>
      </trkpt>
      <trkpt lat="40.798275" lon="-3.876102">
        <ele>2084.444</ele>
        <time>2021-07-31T11:17:56Z</time>
      </trkpt>
      <trkpt lat="40.798301" lon="-3.876100">
        <ele>2084.684</ele>
        <time>2021-07-31T11:17:58Z</time>
      </trkpt>
      <trkpt lat="40.798320" lon="-3.876102">
        <ele>2084.912</ele>
        <time>2021-07-31T11:18:00Z</time>
      </trkpt>
      <trkpt lat="40.798336" lon="-3.876114">
        <ele>2085.016</ele>
        <time>2021-07-31T11:18:04Z</time>
      </trkpt>
      <trkpt lat="40.798355" lon="-3.876120">
        <ele>2085.276</ele>
        <time>2021-07-31T11:18:14Z</time>
      </trkpt>
      <trkpt lat="40.798381" lon="-3.876115">
        <ele>2085.513</ele>
        <time>2021-07-31T11:18:18Z</time>
      </trkpt>
      <trkpt lat="40.798400" lon="-3.876108">
        <ele>2085.708</ele>
        <time>2021-07-31T11:18:20Z</time>
      </trkpt>
      <trkpt lat="40.798419" lon="-3.876104">
        <ele>2085.948</ele>
        <time>2021-07-31T11:18:22Z</time>
      </trkpt>
      <trkpt lat="40.798438" lon="-3.876097">
        <ele>2086.210</ele>
        <time>2021-07-31T11:18:24Z</time>
      </trkpt>
      <trkpt lat="40.798461" lon="-3.876088">
        <ele>2086.457</ele>
        <time>2021-07-31T11:18:27Z</time>
      </trkpt>
      <trkpt lat="40.798480" lon="-3.876085">
        <ele>2086.614</ele>
        <time>2021-07-31T11:18:29Z</time>
      </trkpt>
      <trkpt lat="40.798502" lon="-3.876073">
        <ele>2086.996</ele>
        <time>2021-07-31T11:18:32Z</time>
      </trkpt>
      <trkpt lat="40.798528" lon="-3.876067">
        <ele>2087.263</ele>
        <time>2021-07-31T11:18:35Z</time>
      </trkpt>
      <trkpt lat="40.798547" lon="-3.876072">
        <ele>2087.473</ele>
        <time>2021-07-31T11:18:38Z</time>
      </trkpt>
      <trkpt lat="40.798566" lon="-3.876060">
        <ele>2087.711</ele>
        <time>2021-07-31T11:18:43Z</time>
      </trkpt>
      <trkpt lat="40.798582" lon="-3.876042">
        <ele>2087.947</ele>
        <time>2021-07-31T11:18:47Z</time>
      </trkpt>
      <trkpt lat="40.798595" lon="-3.876020">
        <ele>2088.129</ele>
        <time>2021-07-31T11:18:50Z</time>
      </trkpt>
      <trkpt lat="40.798608" lon="-3.875986">
        <ele>2088.421</ele>
        <time>2021-07-31T11:18:53Z</time>
      </trkpt>
      <trkpt lat="40.798614" lon="-3.875963">
        <ele>2088.608</ele>
        <time>2021-07-31T11:18:55Z</time>
      </trkpt>
      <trkpt lat="40.798634" lon="-3.875944">
        <ele>2088.951</ele>
        <time>2021-07-31T11:18:58Z</time>
      </trkpt>
      <trkpt lat="40.798653" lon="-3.875942">
        <ele>2089.233</ele>
        <time>2021-07-31T11:19:01Z</time>
      </trkpt>
      <trkpt lat="40.798672" lon="-3.875940">
        <ele>2089.560</ele>
        <time>2021-07-31T11:19:04Z</time>
      </trkpt>
      <trkpt lat="40.798694" lon="-3.875935">
        <ele>2089.827</ele>
        <time>2021-07-31T11:19:07Z</time>
      </trkpt>
      <trkpt lat="40.798714" lon="-3.875922">
        <ele>2090.279</ele>
        <time>2021-07-31T11:19:10Z</time>
      </trkpt>
      <trkpt lat="40.798733" lon="-3.875910">
        <ele>2090.566</ele>
        <time>2021-07-31T11:19:13Z</time>
      </trkpt>
      <trkpt lat="40.798749" lon="-3.875892">
        <ele>2090.856</ele>
        <time>2021-07-31T11:19:16Z</time>
      </trkpt>
      <trkpt lat="40.798768" lon="-3.875878">
        <ele>2091.174</ele>
        <time>2021-07-31T11:19:19Z</time>
      </trkpt>
      <trkpt lat="40.798787" lon="-3.875870">
        <ele>2091.474</ele>
        <time>2021-07-31T11:19:21Z</time>
      </trkpt>
      <trkpt lat="40.798806" lon="-3.875865">
        <ele>2091.756</ele>
        <time>2021-07-31T11:19:23Z</time>
      </trkpt>
      <trkpt lat="40.798826" lon="-3.875853">
        <ele>2092.021</ele>
        <time>2021-07-31T11:19:26Z</time>
      </trkpt>
      <trkpt lat="40.798845" lon="-3.875842">
        <ele>2092.308</ele>
        <time>2021-07-31T11:19:28Z</time>
      </trkpt>
      <trkpt lat="40.798867" lon="-3.875823">
        <ele>2092.734</ele>
        <time>2021-07-31T11:19:31Z</time>
      </trkpt>
      <trkpt lat="40.798886" lon="-3.875812">
        <ele>2093.026</ele>
        <time>2021-07-31T11:19:34Z</time>
      </trkpt>
      <trkpt lat="40.798906" lon="-3.875794">
        <ele>2093.373</ele>
        <time>2021-07-31T11:19:38Z</time>
      </trkpt>
      <trkpt lat="40.798925" lon="-3.875777">
        <ele>2093.730</ele>
        <time>2021-07-31T11:19:41Z</time>
      </trkpt>
      <trkpt lat="40.798944" lon="-3.875755">
        <ele>2094.062</ele>
        <time>2021-07-31T11:19:44Z</time>
      </trkpt>
      <trkpt lat="40.798963" lon="-3.875743">
        <ele>2094.449</ele>
        <time>2021-07-31T11:19:46Z</time>
      </trkpt>
      <trkpt lat="40.798989" lon="-3.875728">
        <ele>2094.979</ele>
        <time>2021-07-31T11:19:49Z</time>
      </trkpt>
      <trkpt lat="40.799005" lon="-3.875715">
        <ele>2095.387</ele>
        <time>2021-07-31T11:19:51Z</time>
      </trkpt>
      <trkpt lat="40.799027" lon="-3.875698">
        <ele>2095.711</ele>
        <time>2021-07-31T11:19:54Z</time>
      </trkpt>
      <trkpt lat="40.799053" lon="-3.875688">
        <ele>2096.321</ele>
        <time>2021-07-31T11:19:57Z</time>
      </trkpt>
      <trkpt lat="40.799075" lon="-3.875678">
        <ele>2096.703</ele>
        <time>2021-07-31T11:20:00Z</time>
      </trkpt>
      <trkpt lat="40.799094" lon="-3.875662">
        <ele>2097.108</ele>
        <time>2021-07-31T11:20:03Z</time>
      </trkpt>
      <trkpt lat="40.799107" lon="-3.875645">
        <ele>2097.558</ele>
        <time>2021-07-31T11:20:05Z</time>
      </trkpt>
      <trkpt lat="40.799114" lon="-3.875622">
        <ele>2097.750</ele>
        <time>2021-07-31T11:20:08Z</time>
      </trkpt>
      <trkpt lat="40.799130" lon="-3.875605">
        <ele>2098.117</ele>
        <time>2021-07-31T11:20:10Z</time>
      </trkpt>
      <trkpt lat="40.799136" lon="-3.875572">
        <ele>2098.374</ele>
        <time>2021-07-31T11:20:13Z</time>
      </trkpt>
      <trkpt lat="40.799149" lon="-3.875540">
        <ele>2098.566</ele>
        <time>2021-07-31T11:20:16Z</time>
      </trkpt>
      <trkpt lat="40.799165" lon="-3.875522">
        <ele>2098.763</ele>
        <time>2021-07-31T11:20:19Z</time>
      </trkpt>
      <trkpt lat="40.799178" lon="-3.875503">
        <ele>2098.893</ele>
        <time>2021-07-31T11:20:21Z</time>
      </trkpt>
      <trkpt lat="40.799197" lon="-3.875485">
        <ele>2099.021</ele>
        <time>2021-07-31T11:20:24Z</time>
      </trkpt>
      <trkpt lat="40.799213" lon="-3.875466">
        <ele>2099.144</ele>
        <time>2021-07-31T11:20:27Z</time>
      </trkpt>
      <trkpt lat="40.799232" lon="-3.875450">
        <ele>2099.405</ele>
        <time>2021-07-31T11:20:30Z</time>
      </trkpt>
      <trkpt lat="40.799245" lon="-3.875430">
        <ele>2099.515</ele>
        <time>2021-07-31T11:20:33Z</time>
      </trkpt>
      <trkpt lat="40.799248" lon="-3.875400">
        <ele>2099.408</ele>
        <time>2021-07-31T11:20:52Z</time>
      </trkpt>
      <trkpt lat="40.799264" lon="-3.875372">
        <ele>2099.511</ele>
        <time>2021-07-31T11:20:56Z</time>
      </trkpt>
      <trkpt lat="40.799283" lon="-3.875352">
        <ele>2099.873</ele>
        <time>2021-07-31T11:20:59Z</time>
      </trkpt>
      <trkpt lat="40.799302" lon="-3.875345">
        <ele>2100.210</ele>
        <time>2021-07-31T11:21:01Z</time>
      </trkpt>
      <trkpt lat="40.799322" lon="-3.875343">
        <ele>2100.687</ele>
        <time>2021-07-31T11:21:03Z</time>
      </trkpt>
      <trkpt lat="40.799341" lon="-3.875328">
        <ele>2100.959</ele>
        <time>2021-07-31T11:21:06Z</time>
      </trkpt>
      <trkpt lat="40.799357" lon="-3.875302">
        <ele>2101.286</ele>
        <time>2021-07-31T11:21:09Z</time>
      </trkpt>
      <trkpt lat="40.799373" lon="-3.875278">
        <ele>2101.546</ele>
        <time>2021-07-31T11:21:12Z</time>
      </trkpt>
      <trkpt lat="40.799392" lon="-3.875258">
        <ele>2101.764</ele>
        <time>2021-07-31T11:21:15Z</time>
      </trkpt>
      <trkpt lat="40.799411" lon="-3.875248">
        <ele>2102.011</ele>
        <time>2021-07-31T11:21:18Z</time>
      </trkpt>
      <trkpt lat="40.799440" lon="-3.875250">
        <ele>2102.721</ele>
        <time>2021-07-31T11:21:21Z</time>
      </trkpt>
      <trkpt lat="40.799462" lon="-3.875238">
        <ele>2103.103</ele>
        <time>2021-07-31T11:21:23Z</time>
      </trkpt>
      <trkpt lat="40.799485" lon="-3.875223">
        <ele>2103.408</ele>
        <time>2021-07-31T11:21:26Z</time>
      </trkpt>
      <trkpt lat="40.799504" lon="-3.875208">
        <ele>2103.718</ele>
        <time>2021-07-31T11:21:29Z</time>
      </trkpt>
      <trkpt lat="40.799526" lon="-3.875202">
        <ele>2104.160</ele>
        <time>2021-07-31T11:21:31Z</time>
      </trkpt>
      <trkpt lat="40.799546" lon="-3.875193">
        <ele>2104.427</ele>
        <time>2021-07-31T11:21:33Z</time>
      </trkpt>
      <trkpt lat="40.799565" lon="-3.875177">
        <ele>2104.624</ele>
        <time>2021-07-31T11:21:36Z</time>
      </trkpt>
      <trkpt lat="40.799584" lon="-3.875157">
        <ele>2104.776</ele>
        <time>2021-07-31T11:21:39Z</time>
      </trkpt>
      <trkpt lat="40.799606" lon="-3.875138">
        <ele>2104.993</ele>
        <time>2021-07-31T11:21:42Z</time>
      </trkpt>
      <trkpt lat="40.799626" lon="-3.875133">
        <ele>2105.213</ele>
        <time>2021-07-31T11:21:44Z</time>
      </trkpt>
      <trkpt lat="40.799645" lon="-3.875135">
        <ele>2105.611</ele>
        <time>2021-07-31T11:21:47Z</time>
      </trkpt>
      <trkpt lat="40.799664" lon="-3.875138">
        <ele>2105.972</ele>
        <time>2021-07-31T11:21:50Z</time>
      </trkpt>
      <trkpt lat="40.799683" lon="-3.875133">
        <ele>2106.213</ele>
        <time>2021-07-31T11:21:52Z</time>
      </trkpt>
      <trkpt lat="40.799702" lon="-3.875125">
        <ele>2106.414</ele>
        <time>2021-07-31T11:21:54Z</time>
      </trkpt>
      <trkpt lat="40.799725" lon="-3.875112">
        <ele>2106.708</ele>
        <time>2021-07-31T11:21:57Z</time>
      </trkpt>
      <trkpt lat="40.799741" lon="-3.875100">
        <ele>2106.854</ele>
        <time>2021-07-31T11:21:59Z</time>
      </trkpt>
      <trkpt lat="40.799760" lon="-3.875095">
        <ele>2107.096</ele>
        <time>2021-07-31T11:22:01Z</time>
      </trkpt>
      <trkpt lat="40.799782" lon="-3.875075">
        <ele>2107.263</ele>
        <time>2021-07-31T11:22:04Z</time>
      </trkpt>
      <trkpt lat="40.799802" lon="-3.875057">
        <ele>2107.460</ele>
        <time>2021-07-31T11:22:07Z</time>
      </trkpt>
      <trkpt lat="40.799818" lon="-3.875043">
        <ele>2107.532</ele>
        <time>2021-07-31T11:22:09Z</time>
      </trkpt>
      <trkpt lat="40.799840" lon="-3.875020">
        <ele>2107.789</ele>
        <time>2021-07-31T11:22:12Z</time>
      </trkpt>
      <trkpt lat="40.799859" lon="-3.875010">
        <ele>2108.039</ele>
        <time>2021-07-31T11:22:14Z</time>
      </trkpt>
      <trkpt lat="40.799869" lon="-3.874987">
        <ele>2108.037</ele>
        <time>2021-07-31T11:22:16Z</time>
      </trkpt>
      <trkpt lat="40.799882" lon="-3.874967">
        <ele>2108.133</ele>
        <time>2021-07-31T11:22:18Z</time>
      </trkpt>
      <trkpt lat="40.799898" lon="-3.874952">
        <ele>2108.323</ele>
        <time>2021-07-31T11:22:20Z</time>
      </trkpt>
      <trkpt lat="40.799920" lon="-3.874930">
        <ele>2108.615</ele>
        <time>2021-07-31T11:22:23Z</time>
      </trkpt>
      <trkpt lat="40.799939" lon="-3.874908">
        <ele>2108.908</ele>
        <time>2021-07-31T11:22:26Z</time>
      </trkpt>
      <trkpt lat="40.799949" lon="-3.874887">
        <ele>2108.970</ele>
        <time>2021-07-31T11:22:28Z</time>
      </trkpt>
      <trkpt lat="40.799965" lon="-3.874872">
        <ele>2109.282</ele>
        <time>2021-07-31T11:22:30Z</time>
      </trkpt>
      <trkpt lat="40.799984" lon="-3.874865">
        <ele>2109.669</ele>
        <time>2021-07-31T11:22:33Z</time>
      </trkpt>
      <trkpt lat="40.800006" lon="-3.874860">
        <ele>2110.146</ele>
        <time>2021-07-31T11:22:36Z</time>
      </trkpt>
      <trkpt lat="40.800026" lon="-3.874850">
        <ele>2110.458</ele>
        <time>2021-07-31T11:22:39Z</time>
      </trkpt>
      <trkpt lat="40.800045" lon="-3.874850">
        <ele>2110.735</ele>
        <time>2021-07-31T11:22:43Z</time>
      </trkpt>
      <trkpt lat="40.800067" lon="-3.874838">
        <ele>2111.065</ele>
        <time>2021-07-31T11:22:46Z</time>
      </trkpt>
      <trkpt lat="40.800086" lon="-3.874838">
        <ele>2111.443</ele>
        <time>2021-07-31T11:22:49Z</time>
      </trkpt>
      <trkpt lat="40.800109" lon="-3.874835">
        <ele>2111.842</ele>
        <time>2021-07-31T11:22:53Z</time>
      </trkpt>
      <trkpt lat="40.800138" lon="-3.874850">
        <ele>2112.422</ele>
        <time>2021-07-31T11:22:57Z</time>
      </trkpt>
      <trkpt lat="40.800157" lon="-3.874868">
        <ele>2112.914</ele>
        <time>2021-07-31T11:23:00Z</time>
      </trkpt>
      <trkpt lat="40.800176" lon="-3.874858">
        <ele>2113.108</ele>
        <time>2021-07-31T11:23:03Z</time>
      </trkpt>
      <trkpt lat="40.800195" lon="-3.874847">
        <ele>2113.411</ele>
        <time>2021-07-31T11:23:07Z</time>
      </trkpt>
      <trkpt lat="40.800208" lon="-3.874867">
        <ele>2113.853</ele>
        <time>2021-07-31T11:23:10Z</time>
      </trkpt>
      <trkpt lat="40.800221" lon="-3.874887">
        <ele>2114.280</ele>
        <time>2021-07-31T11:23:13Z</time>
      </trkpt>
      <trkpt lat="40.800227" lon="-3.874916">
        <ele>2114.587</ele>
        <time>2021-07-31T11:23:16Z</time>
      </trkpt>
      <trkpt lat="40.800230" lon="-3.874940">
        <ele>2114.779</ele>
        <time>2021-07-31T11:23:18Z</time>
      </trkpt>
      <trkpt lat="40.800237" lon="-3.874963">
        <ele>2115.096</ele>
        <time>2021-07-31T11:23:20Z</time>
      </trkpt>
      <trkpt lat="40.800256" lon="-3.874988">
        <ele>2115.556</ele>
        <time>2021-07-31T11:23:23Z</time>
      </trkpt>
      <trkpt lat="40.800282" lon="-3.874998">
        <ele>2116.054</ele>
        <time>2021-07-31T11:23:26Z</time>
      </trkpt>
      <trkpt lat="40.800301" lon="-3.874992">
        <ele>2116.294</ele>
        <time>2021-07-31T11:23:28Z</time>
      </trkpt>
      <trkpt lat="40.800320" lon="-3.874987">
        <ele>2116.457</ele>
        <time>2021-07-31T11:23:30Z</time>
      </trkpt>
      <trkpt lat="40.800339" lon="-3.874980">
        <ele>2116.522</ele>
        <time>2021-07-31T11:23:33Z</time>
      </trkpt>
      <trkpt lat="40.800358" lon="-3.874975">
        <ele>2116.708</ele>
        <time>2021-07-31T11:23:35Z</time>
      </trkpt>
      <trkpt lat="40.800381" lon="-3.874973">
        <ele>2116.996</ele>
        <time>2021-07-31T11:23:39Z</time>
      </trkpt>
      <trkpt lat="40.800400" lon="-3.874967">
        <ele>2117.058</ele>
        <time>2021-07-31T11:23:41Z</time>
      </trkpt>
      <trkpt lat="40.800422" lon="-3.874957">
        <ele>2117.285</ele>
        <time>2021-07-31T11:23:44Z</time>
      </trkpt>
      <trkpt lat="40.800442" lon="-3.874953">
        <ele>2117.382</ele>
        <time>2021-07-31T11:23:46Z</time>
      </trkpt>
      <trkpt lat="40.800464" lon="-3.874953">
        <ele>2117.634</ele>
        <time>2021-07-31T11:23:49Z</time>
      </trkpt>
      <trkpt lat="40.800486" lon="-3.874943">
        <ele>2117.711</ele>
        <time>2021-07-31T11:23:51Z</time>
      </trkpt>
      <trkpt lat="40.800506" lon="-3.874946">
        <ele>2117.951</ele>
        <time>2021-07-31T11:23:53Z</time>
      </trkpt>
      <trkpt lat="40.800525" lon="-3.874965">
        <ele>2118.389</ele>
        <time>2021-07-31T11:23:56Z</time>
      </trkpt>
      <trkpt lat="40.800547" lon="-3.874980">
        <ele>2118.727</ele>
        <time>2021-07-31T11:23:59Z</time>
      </trkpt>
      <trkpt lat="40.800566" lon="-3.874990">
        <ele>2119.068</ele>
        <time>2021-07-31T11:24:01Z</time>
      </trkpt>
      <trkpt lat="40.800586" lon="-3.875000">
        <ele>2119.414</ele>
        <time>2021-07-31T11:24:03Z</time>
      </trkpt>
      <trkpt lat="40.800614" lon="-3.875013">
        <ele>2119.808</ele>
        <time>2021-07-31T11:24:06Z</time>
      </trkpt>
      <trkpt lat="40.800637" lon="-3.875017">
        <ele>2120.189</ele>
        <time>2021-07-31T11:24:09Z</time>
      </trkpt>
      <trkpt lat="40.800662" lon="-3.875030">
        <ele>2120.421</ele>
        <time>2021-07-31T11:24:12Z</time>
      </trkpt>
      <trkpt lat="40.800685" lon="-3.875037">
        <ele>2120.798</ele>
        <time>2021-07-31T11:24:15Z</time>
      </trkpt>
      <trkpt lat="40.800704" lon="-3.875052">
        <ele>2120.995</ele>
        <time>2021-07-31T11:24:18Z</time>
      </trkpt>
      <trkpt lat="40.800723" lon="-3.875060">
        <ele>2121.227</ele>
        <time>2021-07-31T11:24:20Z</time>
      </trkpt>
      <trkpt lat="40.800739" lon="-3.875077">
        <ele>2121.494</ele>
        <time>2021-07-31T11:24:22Z</time>
      </trkpt>
      <trkpt lat="40.800755" lon="-3.875090">
        <ele>2121.574</ele>
        <time>2021-07-31T11:24:24Z</time>
      </trkpt>
      <trkpt lat="40.800778" lon="-3.875105">
        <ele>2121.892</ele>
        <time>2021-07-31T11:24:27Z</time>
      </trkpt>
      <trkpt lat="40.800797" lon="-3.875107">
        <ele>2122.184</ele>
        <time>2021-07-31T11:24:29Z</time>
      </trkpt>
      <trkpt lat="40.800816" lon="-3.875110">
        <ele>2122.407</ele>
        <time>2021-07-31T11:24:31Z</time>
      </trkpt>
      <trkpt lat="40.800835" lon="-3.875120">
        <ele>2122.617</ele>
        <time>2021-07-31T11:24:34Z</time>
      </trkpt>
      <trkpt lat="40.800851" lon="-3.875140">
        <ele>2122.808</ele>
        <time>2021-07-31T11:24:36Z</time>
      </trkpt>
      <trkpt lat="40.800864" lon="-3.875165">
        <ele>2122.955</ele>
        <time>2021-07-31T11:24:39Z</time>
      </trkpt>
      <trkpt lat="40.800880" lon="-3.875182">
        <ele>2123.137</ele>
        <time>2021-07-31T11:24:42Z</time>
      </trkpt>
      <trkpt lat="40.800899" lon="-3.875177">
        <ele>2123.494</ele>
        <time>2021-07-31T11:24:44Z</time>
      </trkpt>
      <trkpt lat="40.800915" lon="-3.875163">
        <ele>2123.711</ele>
        <time>2021-07-31T11:24:46Z</time>
      </trkpt>
      <trkpt lat="40.800934" lon="-3.875152">
        <ele>2124.123</ele>
        <time>2021-07-31T11:24:48Z</time>
      </trkpt>
      <trkpt lat="40.800954" lon="-3.875150">
        <ele>2124.420</ele>
        <time>2021-07-31T11:24:51Z</time>
      </trkpt>
      <trkpt lat="40.800973" lon="-3.875150">
        <ele>2124.770</ele>
        <time>2021-07-31T11:24:53Z</time>
      </trkpt>
      <trkpt lat="40.800992" lon="-3.875162">
        <ele>2124.938</ele>
        <time>2021-07-31T11:24:56Z</time>
      </trkpt>
      <trkpt lat="40.801014" lon="-3.875183">
        <ele>2125.238</ele>
        <time>2021-07-31T11:24:59Z</time>
      </trkpt>
      <trkpt lat="40.801037" lon="-3.875197">
        <ele>2125.470</ele>
        <time>2021-07-31T11:25:01Z</time>
      </trkpt>
      <trkpt lat="40.801056" lon="-3.875203">
        <ele>2125.717</ele>
        <time>2021-07-31T11:25:04Z</time>
      </trkpt>
      <trkpt lat="40.801072" lon="-3.875218">
        <ele>2125.808</ele>
        <time>2021-07-31T11:25:06Z</time>
      </trkpt>
      <trkpt lat="40.801088" lon="-3.875232">
        <ele>2126.070</ele>
        <time>2021-07-31T11:25:08Z</time>
      </trkpt>
      <trkpt lat="40.801114" lon="-3.875238">
        <ele>2126.342</ele>
        <time>2021-07-31T11:25:11Z</time>
      </trkpt>
      <trkpt lat="40.801133" lon="-3.875252">
        <ele>2126.789</ele>
        <time>2021-07-31T11:25:14Z</time>
      </trkpt>
      <trkpt lat="40.801152" lon="-3.875262">
        <ele>2127.056</ele>
        <time>2021-07-31T11:25:16Z</time>
      </trkpt>
      <trkpt lat="40.801174" lon="-3.875286">
        <ele>2127.358</ele>
        <time>2021-07-31T11:25:19Z</time>
      </trkpt>
      <trkpt lat="40.801187" lon="-3.875308">
        <ele>2127.555</ele>
        <time>2021-07-31T11:25:21Z</time>
      </trkpt>
      <trkpt lat="40.801200" lon="-3.875332">
        <ele>2127.755</ele>
        <time>2021-07-31T11:25:23Z</time>
      </trkpt>
      <trkpt lat="40.801213" lon="-3.875360">
        <ele>2127.933</ele>
        <time>2021-07-31T11:25:26Z</time>
      </trkpt>
      <trkpt lat="40.801222" lon="-3.875383">
        <ele>2128.094</ele>
        <time>2021-07-31T11:25:28Z</time>
      </trkpt>
      <trkpt lat="40.801232" lon="-3.875404">
        <ele>2128.257</ele>
        <time>2021-07-31T11:25:30Z</time>
      </trkpt>
      <trkpt lat="40.801242" lon="-3.875438">
        <ele>2128.222</ele>
        <time>2021-07-31T11:25:33Z</time>
      </trkpt>
      <trkpt lat="40.801258" lon="-3.875462">
        <ele>2128.508</ele>
        <time>2021-07-31T11:25:35Z</time>
      </trkpt>
      <trkpt lat="40.801274" lon="-3.875473">
        <ele>2128.846</ele>
        <time>2021-07-31T11:25:37Z</time>
      </trkpt>
      <trkpt lat="40.801293" lon="-3.875482">
        <ele>2129.288</ele>
        <time>2021-07-31T11:25:39Z</time>
      </trkpt>
      <trkpt lat="40.801312" lon="-3.875493">
        <ele>2129.665</ele>
        <time>2021-07-31T11:25:41Z</time>
      </trkpt>
      <trkpt lat="40.801331" lon="-3.875505">
        <ele>2129.912</ele>
        <time>2021-07-31T11:25:44Z</time>
      </trkpt>
      <trkpt lat="40.801350" lon="-3.875525">
        <ele>2130.314</ele>
        <time>2021-07-31T11:25:46Z</time>
      </trkpt>
      <trkpt lat="40.801366" lon="-3.875538">
        <ele>2130.671</ele>
        <time>2021-07-31T11:25:48Z</time>
      </trkpt>
      <trkpt lat="40.801379" lon="-3.875558">
        <ele>2130.881</ele>
        <time>2021-07-31T11:25:51Z</time>
      </trkpt>
      <trkpt lat="40.801392" lon="-3.875577">
        <ele>2131.059</ele>
        <time>2021-07-31T11:25:53Z</time>
      </trkpt>
      <trkpt lat="40.801408" lon="-3.875596">
        <ele>2131.357</ele>
        <time>2021-07-31T11:25:55Z</time>
      </trkpt>
      <trkpt lat="40.801427" lon="-3.875598">
        <ele>2131.600</ele>
        <time>2021-07-31T11:25:59Z</time>
      </trkpt>
      <trkpt lat="40.801446" lon="-3.875588">
        <ele>2132.120</ele>
        <time>2021-07-31T11:26:03Z</time>
      </trkpt>
      <trkpt lat="40.801469" lon="-3.875578">
        <ele>2132.608</ele>
        <time>2021-07-31T11:26:06Z</time>
      </trkpt>
      <trkpt lat="40.801488" lon="-3.875570">
        <ele>2133.172</ele>
        <time>2021-07-31T11:26:09Z</time>
      </trkpt>
      <trkpt lat="40.801510" lon="-3.875580">
        <ele>2133.544</ele>
        <time>2021-07-31T11:26:12Z</time>
      </trkpt>
      <trkpt lat="40.801526" lon="-3.875593">
        <ele>2133.821</ele>
        <time>2021-07-31T11:26:14Z</time>
      </trkpt>
      <trkpt lat="40.801546" lon="-3.875610">
        <ele>2134.168</ele>
        <time>2021-07-31T11:26:17Z</time>
      </trkpt>
      <trkpt lat="40.801568" lon="-3.875620">
        <ele>2134.550</ele>
        <time>2021-07-31T11:26:20Z</time>
      </trkpt>
      <trkpt lat="40.801590" lon="-3.875623">
        <ele>2134.917</ele>
        <time>2021-07-31T11:26:24Z</time>
      </trkpt>
      <trkpt lat="40.801613" lon="-3.875623">
        <ele>2135.487</ele>
        <time>2021-07-31T11:26:27Z</time>
      </trkpt>
      <trkpt lat="40.801635" lon="-3.875622">
        <ele>2135.985</ele>
        <time>2021-07-31T11:26:30Z</time>
      </trkpt>
      <trkpt lat="40.801654" lon="-3.875636">
        <ele>2136.295</ele>
        <time>2021-07-31T11:26:33Z</time>
      </trkpt>
      <trkpt lat="40.801670" lon="-3.875653">
        <ele>2136.449</ele>
        <time>2021-07-31T11:26:35Z</time>
      </trkpt>
      <trkpt lat="40.801690" lon="-3.875672">
        <ele>2136.723</ele>
        <time>2021-07-31T11:26:38Z</time>
      </trkpt>
      <trkpt lat="40.801699" lon="-3.875693">
        <ele>2136.808</ele>
        <time>2021-07-31T11:26:40Z</time>
      </trkpt>
      <trkpt lat="40.801718" lon="-3.875707">
        <ele>2137.176</ele>
        <time>2021-07-31T11:26:42Z</time>
      </trkpt>
      <trkpt lat="40.801738" lon="-3.875720">
        <ele>2137.558</ele>
        <time>2021-07-31T11:26:44Z</time>
      </trkpt>
      <trkpt lat="40.801763" lon="-3.875723">
        <ele>2138.085</ele>
        <time>2021-07-31T11:26:47Z</time>
      </trkpt>
      <trkpt lat="40.801789" lon="-3.875720">
        <ele>2138.692</ele>
        <time>2021-07-31T11:26:50Z</time>
      </trkpt>
      <trkpt lat="40.801811" lon="-3.875727">
        <ele>2139.184</ele>
        <time>2021-07-31T11:26:53Z</time>
      </trkpt>
      <trkpt lat="40.801827" lon="-3.875752">
        <ele>2139.271</ele>
        <time>2021-07-31T11:26:56Z</time>
      </trkpt>
      <trkpt lat="40.801834" lon="-3.875777">
        <ele>2139.181</ele>
        <time>2021-07-31T11:26:58Z</time>
      </trkpt>
      <trkpt lat="40.801853" lon="-3.875784">
        <ele>2139.539</ele>
        <time>2021-07-31T11:27:00Z</time>
      </trkpt>
      <trkpt lat="40.801872" lon="-3.875798">
        <ele>2139.818</ele>
        <time>2021-07-31T11:27:03Z</time>
      </trkpt>
      <trkpt lat="40.801891" lon="-3.875823">
        <ele>2139.998</ele>
        <time>2021-07-31T11:27:06Z</time>
      </trkpt>
      <trkpt lat="40.801907" lon="-3.875848">
        <ele>2140.117</ele>
        <time>2021-07-31T11:27:09Z</time>
      </trkpt>
      <trkpt lat="40.801926" lon="-3.875863">
        <ele>2140.408</ele>
        <time>2021-07-31T11:27:12Z</time>
      </trkpt>
      <trkpt lat="40.801946" lon="-3.875875">
        <ele>2140.828</ele>
        <time>2021-07-31T11:27:15Z</time>
      </trkpt>
      <trkpt lat="40.801958" lon="-3.875897">
        <ele>2141.090</ele>
        <time>2021-07-31T11:27:18Z</time>
      </trkpt>
      <trkpt lat="40.801971" lon="-3.875928">
        <ele>2141.247</ele>
        <time>2021-07-31T11:27:21Z</time>
      </trkpt>
      <trkpt lat="40.801987" lon="-3.875956">
        <ele>2141.624</ele>
        <time>2021-07-31T11:27:23Z</time>
      </trkpt>
      <trkpt lat="40.802003" lon="-3.875972">
        <ele>2142.066</ele>
        <time>2021-07-31T11:27:25Z</time>
      </trkpt>
      <trkpt lat="40.802022" lon="-3.875978">
        <ele>2142.623</ele>
        <time>2021-07-31T11:27:27Z</time>
      </trkpt>
      <trkpt lat="40.802042" lon="-3.875980">
        <ele>2143.313</ele>
        <time>2021-07-31T11:27:30Z</time>
      </trkpt>
      <trkpt lat="40.802067" lon="-3.875986">
        <ele>2144.191</ele>
        <time>2021-07-31T11:27:35Z</time>
      </trkpt>
      <trkpt lat="40.802083" lon="-3.876000">
        <ele>2144.623</ele>
        <time>2021-07-31T11:27:38Z</time>
      </trkpt>
      <trkpt lat="40.802106" lon="-3.876013">
        <ele>2145.383</ele>
        <time>2021-07-31T11:27:41Z</time>
      </trkpt>
      <trkpt lat="40.802125" lon="-3.876028">
        <ele>2145.911</ele>
        <time>2021-07-31T11:27:44Z</time>
      </trkpt>
      <trkpt lat="40.802144" lon="-3.876042">
        <ele>2146.508</ele>
        <time>2021-07-31T11:27:47Z</time>
      </trkpt>
      <trkpt lat="40.802163" lon="-3.876048">
        <ele>2147.199</ele>
        <time>2021-07-31T11:27:52Z</time>
      </trkpt>
      <trkpt lat="40.802186" lon="-3.876037">
        <ele>2148.031</ele>
        <time>2021-07-31T11:27:57Z</time>
      </trkpt>
      <trkpt lat="40.802205" lon="-3.876032">
        <ele>2148.778</ele>
        <time>2021-07-31T11:27:59Z</time>
      </trkpt>
      <trkpt lat="40.802224" lon="-3.876030">
        <ele>2149.355</ele>
        <time>2021-07-31T11:28:01Z</time>
      </trkpt>
      <trkpt lat="40.802243" lon="-3.876035">
        <ele>2149.737</ele>
        <time>2021-07-31T11:28:04Z</time>
      </trkpt>
      <trkpt lat="40.802262" lon="-3.876032">
        <ele>2150.234</ele>
        <time>2021-07-31T11:28:06Z</time>
      </trkpt>
      <trkpt lat="40.802282" lon="-3.876018">
        <ele>2150.724</ele>
        <time>2021-07-31T11:28:12Z</time>
      </trkpt>
      <trkpt lat="40.802294" lon="-3.876048">
        <ele>2150.892</ele>
        <time>2021-07-31T11:28:16Z</time>
      </trkpt>
      <trkpt lat="40.802314" lon="-3.876063">
        <ele>2151.216</ele>
        <time>2021-07-31T11:28:19Z</time>
      </trkpt>
      <trkpt lat="40.802330" lon="-3.876077">
        <ele>2151.576</ele>
        <time>2021-07-31T11:28:21Z</time>
      </trkpt>
      <trkpt lat="40.802352" lon="-3.876087">
        <ele>2151.913</ele>
        <time>2021-07-31T11:28:24Z</time>
      </trkpt>
      <trkpt lat="40.802371" lon="-3.876083">
        <ele>2152.408</ele>
        <time>2021-07-31T11:28:27Z</time>
      </trkpt>
      <trkpt lat="40.802387" lon="-3.876097">
        <ele>2152.658</ele>
        <time>2021-07-31T11:28:30Z</time>
      </trkpt>
      <trkpt lat="40.802400" lon="-3.876114">
        <ele>2152.840</ele>
        <time>2021-07-31T11:28:32Z</time>
      </trkpt>
      <trkpt lat="40.802419" lon="-3.876138">
        <ele>2153.027</ele>
        <time>2021-07-31T11:28:35Z</time>
      </trkpt>
      <trkpt lat="40.802432" lon="-3.876157">
        <ele>2153.254</ele>
        <time>2021-07-31T11:28:38Z</time>
      </trkpt>
      <trkpt lat="40.802448" lon="-3.876170">
        <ele>2153.416</ele>
        <time>2021-07-31T11:28:42Z</time>
      </trkpt>
      <trkpt lat="40.802464" lon="-3.876185">
        <ele>2153.743</ele>
        <time>2021-07-31T11:28:44Z</time>
      </trkpt>
      <trkpt lat="40.802483" lon="-3.876197">
        <ele>2154.053</ele>
        <time>2021-07-31T11:28:47Z</time>
      </trkpt>
      <trkpt lat="40.802502" lon="-3.876203">
        <ele>2154.461</ele>
        <time>2021-07-31T11:28:51Z</time>
      </trkpt>
      <trkpt lat="40.802522" lon="-3.876202">
        <ele>2155.113</ele>
        <time>2021-07-31T11:28:54Z</time>
      </trkpt>
      <trkpt lat="40.802541" lon="-3.876217">
        <ele>2155.643</ele>
        <time>2021-07-31T11:28:58Z</time>
      </trkpt>
      <trkpt lat="40.802560" lon="-3.876223">
        <ele>2156.107</ele>
        <time>2021-07-31T11:29:01Z</time>
      </trkpt>
      <trkpt lat="40.802573" lon="-3.876253">
        <ele>2156.308</ele>
        <time>2021-07-31T11:29:05Z</time>
      </trkpt>
      <trkpt lat="40.802586" lon="-3.876273">
        <ele>2156.688</ele>
        <time>2021-07-31T11:29:08Z</time>
      </trkpt>
      <trkpt lat="40.802598" lon="-3.876295">
        <ele>2156.980</ele>
        <time>2021-07-31T11:29:13Z</time>
      </trkpt>
      <trkpt lat="40.802618" lon="-3.876312">
        <ele>2157.497</ele>
        <time>2021-07-31T11:29:18Z</time>
      </trkpt>
      <trkpt lat="40.802634" lon="-3.876328">
        <ele>2157.814</ele>
        <time>2021-07-31T11:29:22Z</time>
      </trkpt>
      <trkpt lat="40.802653" lon="-3.876330">
        <ele>2158.466</ele>
        <time>2021-07-31T11:29:26Z</time>
      </trkpt>
      <trkpt lat="40.802672" lon="-3.876352">
        <ele>2158.893</ele>
        <time>2021-07-31T11:29:31Z</time>
      </trkpt>
      <trkpt lat="40.802685" lon="-3.876373">
        <ele>2159.163</ele>
        <time>2021-07-31T11:29:33Z</time>
      </trkpt>
      <trkpt lat="40.802707" lon="-3.876385">
        <ele>2159.761</ele>
        <time>2021-07-31T11:29:36Z</time>
      </trkpt>
      <trkpt lat="40.802726" lon="-3.876400">
        <ele>2160.347</ele>
        <time>2021-07-31T11:29:40Z</time>
      </trkpt>
      <trkpt lat="40.802742" lon="-3.876427">
        <ele>2160.729</ele>
        <time>2021-07-31T11:29:43Z</time>
      </trkpt>
      <trkpt lat="40.802758" lon="-3.876452">
        <ele>2161.121</ele>
        <time>2021-07-31T11:29:46Z</time>
      </trkpt>
      <trkpt lat="40.802778" lon="-3.876468">
        <ele>2161.708</ele>
        <time>2021-07-31T11:29:51Z</time>
      </trkpt>
      <trkpt lat="40.802790" lon="-3.876494">
        <ele>2162.061</ele>
        <time>2021-07-31T11:29:54Z</time>
      </trkpt>
      <trkpt lat="40.802806" lon="-3.876512">
        <ele>2162.593</ele>
        <time>2021-07-31T11:29:57Z</time>
      </trkpt>
      <trkpt lat="40.802826" lon="-3.876522">
        <ele>2163.180</ele>
        <time>2021-07-31T11:30:00Z</time>
      </trkpt>
      <trkpt lat="40.802845" lon="-3.876523">
        <ele>2163.767</ele>
        <time>2021-07-31T11:30:04Z</time>
      </trkpt>
      <trkpt lat="40.802867" lon="-3.876514">
        <ele>2164.439</ele>
        <time>2021-07-31T11:30:09Z</time>
      </trkpt>
      <trkpt lat="40.802886" lon="-3.876500">
        <ele>2165.116</ele>
        <time>2021-07-31T11:30:12Z</time>
      </trkpt>
      <trkpt lat="40.802906" lon="-3.876508">
        <ele>2165.766</ele>
        <time>2021-07-31T11:30:16Z</time>
      </trkpt>
      <trkpt lat="40.802922" lon="-3.876520">
        <ele>2166.284</ele>
        <time>2021-07-31T11:30:20Z</time>
      </trkpt>
      <trkpt lat="40.802947" lon="-3.876533">
        <ele>2167.098</ele>
        <time>2021-07-31T11:30:25Z</time>
      </trkpt>
      <trkpt lat="40.802960" lon="-3.876563">
        <ele>2167.315</ele>
        <time>2021-07-31T11:30:28Z</time>
      </trkpt>
      <trkpt lat="40.802960" lon="-3.876593">
        <ele>2167.226</ele>
        <time>2021-07-31T11:30:30Z</time>
      </trkpt>
      <trkpt lat="40.802970" lon="-3.876615">
        <ele>2167.408</ele>
        <time>2021-07-31T11:30:34Z</time>
      </trkpt>
      <trkpt lat="40.802982" lon="-3.876634">
        <ele>2167.746</ele>
        <time>2021-07-31T11:30:36Z</time>
      </trkpt>
      <trkpt lat="40.802998" lon="-3.876662">
        <ele>2168.268</ele>
        <time>2021-07-31T11:30:39Z</time>
      </trkpt>
      <trkpt lat="40.803014" lon="-3.876678">
        <ele>2168.625</ele>
        <time>2021-07-31T11:30:42Z</time>
      </trkpt>
      <trkpt lat="40.803018" lon="-3.876703">
        <ele>2168.592</ele>
        <time>2021-07-31T11:30:44Z</time>
      </trkpt>
      <trkpt lat="40.803027" lon="-3.876733">
        <ele>2168.644</ele>
        <time>2021-07-31T11:30:47Z</time>
      </trkpt>
      <trkpt lat="40.803043" lon="-3.876745">
        <ele>2169.071</ele>
        <time>2021-07-31T11:30:50Z</time>
      </trkpt>
      <trkpt lat="40.803059" lon="-3.876758">
        <ele>2169.461</ele>
        <time>2021-07-31T11:30:53Z</time>
      </trkpt>
      <trkpt lat="40.803075" lon="-3.876772">
        <ele>2169.889</ele>
        <time>2021-07-31T11:30:59Z</time>
      </trkpt>
      <trkpt lat="40.803085" lon="-3.876750">
        <ele>2170.244</ele>
        <time>2021-07-31T11:31:08Z</time>
      </trkpt>
      <trkpt lat="40.803104" lon="-3.876745">
        <ele>2170.805</ele>
        <time>2021-07-31T11:31:12Z</time>
      </trkpt>
      <trkpt lat="40.803123" lon="-3.876750">
        <ele>2171.315</ele>
        <time>2021-07-31T11:31:16Z</time>
      </trkpt>
      <trkpt lat="40.803139" lon="-3.876768">
        <ele>2171.708</ele>
        <time>2021-07-31T11:31:20Z</time>
      </trkpt>
      <trkpt lat="40.803155" lon="-3.876787">
        <ele>2172.061</ele>
        <time>2021-07-31T11:31:24Z</time>
      </trkpt>
      <trkpt lat="40.803178" lon="-3.876800">
        <ele>2172.653</ele>
        <time>2021-07-31T11:31:29Z</time>
      </trkpt>
      <trkpt lat="40.803197" lon="-3.876805">
        <ele>2173.190</ele>
        <time>2021-07-31T11:31:33Z</time>
      </trkpt>
      <trkpt lat="40.803216" lon="-3.876783">
        <ele>2173.837</ele>
        <time>2021-07-31T11:31:37Z</time>
      </trkpt>
      <trkpt lat="40.803229" lon="-3.876753">
        <ele>2174.479</ele>
        <time>2021-07-31T11:31:40Z</time>
      </trkpt>
      <trkpt lat="40.803258" lon="-3.876745">
        <ele>2175.356</ele>
        <time>2021-07-31T11:31:52Z</time>
      </trkpt>
      <trkpt lat="40.803277" lon="-3.876757">
        <ele>2175.736</ele>
        <time>2021-07-31T11:31:56Z</time>
      </trkpt>
      <trkpt lat="40.803296" lon="-3.876755">
        <ele>2176.374</ele>
        <time>2021-07-31T11:31:59Z</time>
      </trkpt>
      <trkpt lat="40.803315" lon="-3.876765">
        <ele>2176.892</ele>
        <time>2021-07-31T11:32:02Z</time>
      </trkpt>
      <trkpt lat="40.803334" lon="-3.876773">
        <ele>2177.273</ele>
        <time>2021-07-31T11:32:06Z</time>
      </trkpt>
      <trkpt lat="40.803354" lon="-3.876773">
        <ele>2177.620</ele>
        <time>2021-07-31T11:32:09Z</time>
      </trkpt>
      <trkpt lat="40.803357" lon="-3.876747">
        <ele>2177.808</ele>
        <time>2021-07-31T11:32:13Z</time>
      </trkpt>
      <trkpt lat="40.803360" lon="-3.876723">
        <ele>2178.066</ele>
        <time>2021-07-31T11:32:16Z</time>
      </trkpt>
      <trkpt lat="40.803373" lon="-3.876696">
        <ele>2178.438</ele>
        <time>2021-07-31T11:32:20Z</time>
      </trkpt>
      <trkpt lat="40.803382" lon="-3.876672">
        <ele>2178.795</ele>
        <time>2021-07-31T11:32:24Z</time>
      </trkpt>
      <trkpt lat="40.803402" lon="-3.876672">
        <ele>2179.062</ele>
        <time>2021-07-31T11:32:28Z</time>
      </trkpt>
      <trkpt lat="40.803424" lon="-3.876692">
        <ele>2179.274</ele>
        <time>2021-07-31T11:32:36Z</time>
      </trkpt>
      <trkpt lat="40.803440" lon="-3.876703">
        <ele>2179.351</ele>
        <time>2021-07-31T11:32:38Z</time>
      </trkpt>
      <trkpt lat="40.803462" lon="-3.876725">
        <ele>2179.511</ele>
        <time>2021-07-31T11:32:41Z</time>
      </trkpt>
      <trkpt lat="40.803478" lon="-3.876712">
        <ele>2179.829</ele>
        <time>2021-07-31T11:32:45Z</time>
      </trkpt>
      <trkpt lat="40.803501" lon="-3.876713">
        <ele>2180.257</ele>
        <time>2021-07-31T11:32:54Z</time>
      </trkpt>
      <trkpt lat="40.803514" lon="-3.876732">
        <ele>2180.300</ele>
        <time>2021-07-31T11:32:57Z</time>
      </trkpt>
      <trkpt lat="40.803536" lon="-3.876728">
        <ele>2180.620</ele>
        <time>2021-07-31T11:33:00Z</time>
      </trkpt>
      <trkpt lat="40.803558" lon="-3.876732">
        <ele>2181.008</ele>
        <time>2021-07-31T11:33:04Z</time>
      </trkpt>
      <trkpt lat="40.803578" lon="-3.876735">
        <ele>2181.232</ele>
        <time>2021-07-31T11:33:07Z</time>
      </trkpt>
      <trkpt lat="40.803597" lon="-3.876723">
        <ele>2181.614</ele>
        <time>2021-07-31T11:33:10Z</time>
      </trkpt>
      <trkpt lat="40.803616" lon="-3.876713">
        <ele>2181.991</ele>
        <time>2021-07-31T11:33:15Z</time>
      </trkpt>
      <trkpt lat="40.803635" lon="-3.876710">
        <ele>2182.258</ele>
        <time>2021-07-31T11:33:18Z</time>
      </trkpt>
      <trkpt lat="40.803645" lon="-3.876686">
        <ele>2182.410</ele>
        <time>2021-07-31T11:33:21Z</time>
      </trkpt>
      <trkpt lat="40.803661" lon="-3.876672">
        <ele>2182.727</ele>
        <time>2021-07-31T11:33:25Z</time>
      </trkpt>
      <trkpt lat="40.803683" lon="-3.876656">
        <ele>2183.087</ele>
        <time>2021-07-31T11:33:29Z</time>
      </trkpt>
      <trkpt lat="40.803706" lon="-3.876650">
        <ele>2183.345</ele>
        <time>2021-07-31T11:33:32Z</time>
      </trkpt>
      <trkpt lat="40.803731" lon="-3.876663">
        <ele>2183.716</ele>
        <time>2021-07-31T11:33:34Z</time>
      </trkpt>
      <trkpt lat="40.803750" lon="-3.876672">
        <ele>2184.076</ele>
        <time>2021-07-31T11:33:36Z</time>
      </trkpt>
      <trkpt lat="40.803770" lon="-3.876692">
        <ele>2184.413</ele>
        <time>2021-07-31T11:33:39Z</time>
      </trkpt>
      <trkpt lat="40.803795" lon="-3.876700">
        <ele>2184.808</ele>
        <time>2021-07-31T11:33:42Z</time>
      </trkpt>
      <trkpt lat="40.803821" lon="-3.876705">
        <ele>2185.268</ele>
        <time>2021-07-31T11:33:45Z</time>
      </trkpt>
      <trkpt lat="40.803837" lon="-3.876717">
        <ele>2185.580</ele>
        <time>2021-07-31T11:34:35Z</time>
      </trkpt>
      <trkpt lat="40.803859" lon="-3.876733">
        <ele>2186.067</ele>
        <time>2021-07-31T11:34:37Z</time>
      </trkpt>
      <trkpt lat="40.803891" lon="-3.876740">
        <ele>2186.624</ele>
        <time>2021-07-31T11:34:39Z</time>
      </trkpt>
      <trkpt lat="40.803920" lon="-3.876757">
        <ele>2187.276</ele>
        <time>2021-07-31T11:34:41Z</time>
      </trkpt>
      <trkpt lat="40.803936" lon="-3.876768">
        <ele>2187.523</ele>
        <time>2021-07-31T11:34:42Z</time>
      </trkpt>
      <trkpt lat="40.803939" lon="-3.876797">
        <ele>2187.813</ele>
        <time>2021-07-31T11:34:46Z</time>
      </trkpt>
      <trkpt lat="40.803930" lon="-3.876825">
        <ele>2187.841</ele>
        <time>2021-07-31T11:34:49Z</time>
      </trkpt>
      <trkpt lat="40.803923" lon="-3.876860">
        <ele>2187.941</ele>
        <time>2021-07-31T11:34:51Z</time>
      </trkpt>
      <trkpt lat="40.803939" lon="-3.876890">
        <ele>2188.481</ele>
        <time>2021-07-31T11:34:54Z</time>
      </trkpt>
      <trkpt lat="40.803939" lon="-3.876922">
        <ele>2188.609</ele>
        <time>2021-07-31T11:34:57Z</time>
      </trkpt>
      <trkpt lat="40.803952" lon="-3.876945">
        <ele>2188.908</ele>
        <time>2021-07-31T11:34:59Z</time>
      </trkpt>
      <trkpt lat="40.803958" lon="-3.876968">
        <ele>2189.221</ele>
        <time>2021-07-31T11:35:01Z</time>
      </trkpt>
      <trkpt lat="40.803968" lon="-3.876994">
        <ele>2189.593</ele>
        <time>2021-07-31T11:35:04Z</time>
      </trkpt>
      <trkpt lat="40.803981" lon="-3.877012">
        <ele>2189.850</ele>
        <time>2021-07-31T11:35:07Z</time>
      </trkpt>
      <trkpt lat="40.803997" lon="-3.877025">
        <ele>2190.117</ele>
        <time>2021-07-31T11:35:11Z</time>
      </trkpt>
      <trkpt lat="40.804013" lon="-3.877050">
        <ele>2190.569</ele>
        <time>2021-07-31T11:35:14Z</time>
      </trkpt>
      <trkpt lat="40.803997" lon="-3.877022">
        <ele>2190.196</ele>
        <time>2021-07-31T11:38:17Z</time>
      </trkpt>
      <trkpt lat="40.804016" lon="-3.877030">
        <ele>2190.436</ele>
        <time>2021-07-31T11:40:08Z</time>
      </trkpt>
      <trkpt lat="40.804016" lon="-3.877060">
        <ele>2190.714</ele>
        <time>2021-07-31T11:45:41Z</time>
      </trkpt>
      <trkpt lat="40.804032" lon="-3.877090">
        <ele>2191.192</ele>
        <time>2021-07-31T11:45:43Z</time>
      </trkpt>
      <trkpt lat="40.804042" lon="-3.877123">
        <ele>2191.573</ele>
        <time>2021-07-31T11:45:45Z</time>
      </trkpt>
      <trkpt lat="40.804054" lon="-3.877152">
        <ele>2191.920</ele>
        <time>2021-07-31T11:45:47Z</time>
      </trkpt>
      <trkpt lat="40.804067" lon="-3.877180">
        <ele>2192.308</ele>
        <time>2021-07-31T11:45:49Z</time>
      </trkpt>
      <trkpt lat="40.804077" lon="-3.877202">
        <ele>2192.636</ele>
        <time>2021-07-31T11:45:52Z</time>
      </trkpt>
      <trkpt lat="40.804096" lon="-3.877195">
        <ele>2192.888</ele>
        <time>2021-07-31T11:45:58Z</time>
      </trkpt>
      <trkpt lat="40.804112" lon="-3.877184">
        <ele>2192.935</ele>
        <time>2021-07-31T11:46:02Z</time>
      </trkpt>
      <trkpt lat="40.804134" lon="-3.877192">
        <ele>2193.322</ele>
        <time>2021-07-31T11:46:06Z</time>
      </trkpt>
      <trkpt lat="40.804154" lon="-3.877198">
        <ele>2193.624</ele>
        <time>2021-07-31T11:46:09Z</time>
      </trkpt>
      <trkpt lat="40.804173" lon="-3.877205">
        <ele>2193.971</ele>
        <time>2021-07-31T11:46:13Z</time>
      </trkpt>
      <trkpt lat="40.804189" lon="-3.877220">
        <ele>2194.091</ele>
        <time>2021-07-31T11:46:16Z</time>
      </trkpt>
      <trkpt lat="40.804198" lon="-3.877243">
        <ele>2194.199</ele>
        <time>2021-07-31T11:46:19Z</time>
      </trkpt>
      <trkpt lat="40.804208" lon="-3.877267">
        <ele>2194.258</ele>
        <time>2021-07-31T11:46:21Z</time>
      </trkpt>
      <trkpt lat="40.804211" lon="-3.877300">
        <ele>2194.452</ele>
        <time>2021-07-31T11:46:24Z</time>
      </trkpt>
      <trkpt lat="40.804211" lon="-3.877345">
        <ele>2194.617</ele>
        <time>2021-07-31T11:46:28Z</time>
      </trkpt>
      <trkpt lat="40.804208" lon="-3.877372">
        <ele>2194.708</ele>
        <time>2021-07-31T11:46:31Z</time>
      </trkpt>
      <trkpt lat="40.804211" lon="-3.877396">
        <ele>2194.882</ele>
        <time>2021-07-31T11:46:33Z</time>
      </trkpt>
      <trkpt lat="40.804227" lon="-3.877423">
        <ele>2195.034</ele>
        <time>2021-07-31T11:46:36Z</time>
      </trkpt>
      <trkpt lat="40.804234" lon="-3.877448">
        <ele>2195.271</ele>
        <time>2021-07-31T11:46:38Z</time>
      </trkpt>
      <trkpt lat="40.804246" lon="-3.877472">
        <ele>2195.498</ele>
        <time>2021-07-31T11:46:40Z</time>
      </trkpt>
      <trkpt lat="40.804256" lon="-3.877497">
        <ele>2195.620</ele>
        <time>2021-07-31T11:46:42Z</time>
      </trkpt>
      <trkpt lat="40.804266" lon="-3.877522">
        <ele>2195.957</ele>
        <time>2021-07-31T11:46:44Z</time>
      </trkpt>
      <trkpt lat="40.804275" lon="-3.877544">
        <ele>2196.287</ele>
        <time>2021-07-31T11:46:46Z</time>
      </trkpt>
      <trkpt lat="40.804282" lon="-3.877570">
        <ele>2196.425</ele>
        <time>2021-07-31T11:46:48Z</time>
      </trkpt>
      <trkpt lat="40.804288" lon="-3.877593">
        <ele>2196.737</ele>
        <time>2021-07-31T11:46:50Z</time>
      </trkpt>
      <trkpt lat="40.804294" lon="-3.877620">
        <ele>2197.049</ele>
        <time>2021-07-31T11:46:52Z</time>
      </trkpt>
      <trkpt lat="40.804298" lon="-3.877645">
        <ele>2197.213</ele>
        <time>2021-07-31T11:46:54Z</time>
      </trkpt>
      <trkpt lat="40.804310" lon="-3.877665">
        <ele>2197.508</ele>
        <time>2021-07-31T11:46:56Z</time>
      </trkpt>
      <trkpt lat="40.804326" lon="-3.877678">
        <ele>2197.810</ele>
        <time>2021-07-31T11:46:58Z</time>
      </trkpt>
      <trkpt lat="40.804346" lon="-3.877698">
        <ele>2198.232</ele>
        <time>2021-07-31T11:47:01Z</time>
      </trkpt>
      <trkpt lat="40.804355" lon="-3.877725">
        <ele>2198.549</ele>
        <time>2021-07-31T11:47:04Z</time>
      </trkpt>
      <trkpt lat="40.804365" lon="-3.877748">
        <ele>2198.946</ele>
        <time>2021-07-31T11:47:06Z</time>
      </trkpt>
      <trkpt lat="40.804378" lon="-3.877780">
        <ele>2199.358</ele>
        <time>2021-07-31T11:47:09Z</time>
      </trkpt>
      <trkpt lat="40.804390" lon="-3.877815">
        <ele>2199.415</ele>
        <time>2021-07-31T11:47:12Z</time>
      </trkpt>
      <trkpt lat="40.804397" lon="-3.877842">
        <ele>2199.595</ele>
        <time>2021-07-31T11:47:14Z</time>
      </trkpt>
      <trkpt lat="40.804394" lon="-3.877874">
        <ele>2199.533</ele>
        <time>2021-07-31T11:47:17Z</time>
      </trkpt>
      <trkpt lat="40.804406" lon="-3.877904">
        <ele>2199.693</ele>
        <time>2021-07-31T11:47:20Z</time>
      </trkpt>
      <trkpt lat="40.804416" lon="-3.877926">
        <ele>2199.765</ele>
        <time>2021-07-31T11:47:22Z</time>
      </trkpt>
      <trkpt lat="40.804429" lon="-3.877952">
        <ele>2199.921</ele>
        <time>2021-07-31T11:47:25Z</time>
      </trkpt>
      <trkpt lat="40.804435" lon="-3.877978">
        <ele>2199.908</ele>
        <time>2021-07-31T11:47:28Z</time>
      </trkpt>
      <trkpt lat="40.804445" lon="-3.878000">
        <ele>2200.056</ele>
        <time>2021-07-31T11:47:30Z</time>
      </trkpt>
      <trkpt lat="40.804458" lon="-3.878028">
        <ele>2200.028</ele>
        <time>2021-07-31T11:47:33Z</time>
      </trkpt>
      <trkpt lat="40.804470" lon="-3.878048">
        <ele>2200.175</ele>
        <time>2021-07-31T11:47:35Z</time>
      </trkpt>
      <trkpt lat="40.804486" lon="-3.878072">
        <ele>2200.232</ele>
        <time>2021-07-31T11:47:37Z</time>
      </trkpt>
      <trkpt lat="40.804493" lon="-3.878100">
        <ele>2200.214</ele>
        <time>2021-07-31T11:47:40Z</time>
      </trkpt>
      <trkpt lat="40.804499" lon="-3.878127">
        <ele>2200.281</ele>
        <time>2021-07-31T11:47:42Z</time>
      </trkpt>
      <trkpt lat="40.804506" lon="-3.878153">
        <ele>2200.271</ele>
        <time>2021-07-31T11:47:44Z</time>
      </trkpt>
      <trkpt lat="40.804512" lon="-3.878180">
        <ele>2200.229</ele>
        <time>2021-07-31T11:47:46Z</time>
      </trkpt>
      <trkpt lat="40.804518" lon="-3.878205">
        <ele>2200.317</ele>
        <time>2021-07-31T11:47:48Z</time>
      </trkpt>
      <trkpt lat="40.804528" lon="-3.878228">
        <ele>2200.387</ele>
        <time>2021-07-31T11:47:50Z</time>
      </trkpt>
      <trkpt lat="40.804538" lon="-3.878250">
        <ele>2200.315</ele>
        <time>2021-07-31T11:47:52Z</time>
      </trkpt>
      <trkpt lat="40.804550" lon="-3.878268">
        <ele>2200.408</ele>
        <time>2021-07-31T11:47:54Z</time>
      </trkpt>
      <trkpt lat="40.804563" lon="-3.878293">
        <ele>2200.488</ele>
        <time>2021-07-31T11:47:56Z</time>
      </trkpt>
      <trkpt lat="40.804573" lon="-3.878318">
        <ele>2200.510</ele>
        <time>2021-07-31T11:47:58Z</time>
      </trkpt>
      <trkpt lat="40.804586" lon="-3.878343">
        <ele>2200.527</ele>
        <time>2021-07-31T11:48:00Z</time>
      </trkpt>
      <trkpt lat="40.804589" lon="-3.878368">
        <ele>2200.674</ele>
        <time>2021-07-31T11:48:03Z</time>
      </trkpt>
      <trkpt lat="40.804592" lon="-3.878395">
        <ele>2200.686</ele>
        <time>2021-07-31T11:48:06Z</time>
      </trkpt>
      <trkpt lat="40.804611" lon="-3.878422">
        <ele>2200.833</ele>
        <time>2021-07-31T11:48:09Z</time>
      </trkpt>
      <trkpt lat="40.804614" lon="-3.878445">
        <ele>2200.983</ele>
        <time>2021-07-31T11:48:11Z</time>
      </trkpt>
      <trkpt lat="40.804630" lon="-3.878472">
        <ele>2201.011</ele>
        <time>2021-07-31T11:48:13Z</time>
      </trkpt>
      <trkpt lat="40.804637" lon="-3.878497">
        <ele>2201.198</ele>
        <time>2021-07-31T11:48:15Z</time>
      </trkpt>
      <trkpt lat="40.804646" lon="-3.878525">
        <ele>2201.215</ele>
        <time>2021-07-31T11:48:17Z</time>
      </trkpt>
      <trkpt lat="40.804650" lon="-3.878550">
        <ele>2201.326</ele>
        <time>2021-07-31T11:48:19Z</time>
      </trkpt>
      <trkpt lat="40.804659" lon="-3.878575">
        <ele>2201.408</ele>
        <time>2021-07-31T11:48:21Z</time>
      </trkpt>
      <trkpt lat="40.804672" lon="-3.878597">
        <ele>2201.656</ele>
        <time>2021-07-31T11:48:23Z</time>
      </trkpt>
      <trkpt lat="40.804694" lon="-3.878618">
        <ele>2201.838</ele>
        <time>2021-07-31T11:48:25Z</time>
      </trkpt>
      <trkpt lat="40.804704" lon="-3.878640">
        <ele>2201.975</ele>
        <time>2021-07-31T11:48:27Z</time>
      </trkpt>
      <trkpt lat="40.804714" lon="-3.878662">
        <ele>2201.942</ele>
        <time>2021-07-31T11:48:29Z</time>
      </trkpt>
      <trkpt lat="40.804726" lon="-3.878683">
        <ele>2202.154</ele>
        <time>2021-07-31T11:48:31Z</time>
      </trkpt>
      <trkpt lat="40.804742" lon="-3.878708">
        <ele>2202.551</ele>
        <time>2021-07-31T11:48:33Z</time>
      </trkpt>
      <trkpt lat="40.804749" lon="-3.878735">
        <ele>2202.761</ele>
        <time>2021-07-31T11:48:35Z</time>
      </trkpt>
      <trkpt lat="40.804755" lon="-3.878763">
        <ele>2202.819</ele>
        <time>2021-07-31T11:48:37Z</time>
      </trkpt>
      <trkpt lat="40.804758" lon="-3.878788">
        <ele>2202.922</ele>
        <time>2021-07-31T11:48:39Z</time>
      </trkpt>
      <trkpt lat="40.804771" lon="-3.878812">
        <ele>2203.362</ele>
        <time>2021-07-31T11:48:41Z</time>
      </trkpt>
      <trkpt lat="40.804784" lon="-3.878835">
        <ele>2203.708</ele>
        <time>2021-07-31T11:48:43Z</time>
      </trkpt>
      <trkpt lat="40.804797" lon="-3.878863">
        <ele>2204.108</ele>
        <time>2021-07-31T11:48:46Z</time>
      </trkpt>
      <trkpt lat="40.804822" lon="-3.878878">
        <ele>2204.829</ele>
        <time>2021-07-31T11:48:48Z</time>
      </trkpt>
      <trkpt lat="40.804835" lon="-3.878902">
        <ele>2205.311</ele>
        <time>2021-07-31T11:48:50Z</time>
      </trkpt>
      <trkpt lat="40.804851" lon="-3.878930">
        <ele>2205.998</ele>
        <time>2021-07-31T11:48:52Z</time>
      </trkpt>
      <trkpt lat="40.804867" lon="-3.878954">
        <ele>2206.465</ele>
        <time>2021-07-31T11:48:54Z</time>
      </trkpt>
      <trkpt lat="40.804874" lon="-3.878978">
        <ele>2206.737</ele>
        <time>2021-07-31T11:48:56Z</time>
      </trkpt>
      <trkpt lat="40.804883" lon="-3.879002">
        <ele>2207.024</ele>
        <time>2021-07-31T11:48:58Z</time>
      </trkpt>
      <trkpt lat="40.804890" lon="-3.879028">
        <ele>2207.354</ele>
        <time>2021-07-31T11:49:00Z</time>
      </trkpt>
      <trkpt lat="40.804896" lon="-3.879053">
        <ele>2207.622</ele>
        <time>2021-07-31T11:49:02Z</time>
      </trkpt>
      <trkpt lat="40.804906" lon="-3.879080">
        <ele>2208.027</ele>
        <time>2021-07-31T11:49:04Z</time>
      </trkpt>
      <trkpt lat="40.804922" lon="-3.879098">
        <ele>2208.568</ele>
        <time>2021-07-31T11:49:06Z</time>
      </trkpt>
      <trkpt lat="40.804947" lon="-3.879108">
        <ele>2209.314</ele>
        <time>2021-07-31T11:49:09Z</time>
      </trkpt>
      <trkpt lat="40.804966" lon="-3.879098">
        <ele>2209.808</ele>
        <time>2021-07-31T11:49:11Z</time>
      </trkpt>
      <trkpt lat="40.804992" lon="-3.879082">
        <ele>2210.519</ele>
        <time>2021-07-31T11:49:13Z</time>
      </trkpt>
      <trkpt lat="40.805011" lon="-3.879077">
        <ele>2210.771</ele>
        <time>2021-07-31T11:49:15Z</time>
      </trkpt>
      <trkpt lat="40.805034" lon="-3.879094">
        <ele>2210.848</ele>
        <time>2021-07-31T11:49:18Z</time>
      </trkpt>
      <trkpt lat="40.805046" lon="-3.879122">
        <ele>2211.035</ele>
        <time>2021-07-31T11:49:21Z</time>
      </trkpt>
      <trkpt lat="40.805056" lon="-3.879146">
        <ele>2211.127</ele>
        <time>2021-07-31T11:49:24Z</time>
      </trkpt>
      <trkpt lat="40.805066" lon="-3.879167">
        <ele>2211.264</ele>
        <time>2021-07-31T11:49:26Z</time>
      </trkpt>
      <trkpt lat="40.805075" lon="-3.879188">
        <ele>2211.354</ele>
        <time>2021-07-31T11:49:28Z</time>
      </trkpt>
      <trkpt lat="40.805091" lon="-3.879207">
        <ele>2211.452</ele>
        <time>2021-07-31T11:49:30Z</time>
      </trkpt>
      <trkpt lat="40.805101" lon="-3.879230">
        <ele>2211.432</ele>
        <time>2021-07-31T11:49:32Z</time>
      </trkpt>
      <trkpt lat="40.805107" lon="-3.879253">
        <ele>2211.592</ele>
        <time>2021-07-31T11:49:34Z</time>
      </trkpt>
      <trkpt lat="40.805120" lon="-3.879277">
        <ele>2211.611</ele>
        <time>2021-07-31T11:49:36Z</time>
      </trkpt>
      <trkpt lat="40.805133" lon="-3.879297">
        <ele>2211.708</ele>
        <time>2021-07-31T11:49:38Z</time>
      </trkpt>
      <trkpt lat="40.805155" lon="-3.879315">
        <ele>2211.960</ele>
        <time>2021-07-31T11:49:40Z</time>
      </trkpt>
      <trkpt lat="40.805174" lon="-3.879326">
        <ele>2212.032</ele>
        <time>2021-07-31T11:49:42Z</time>
      </trkpt>
      <trkpt lat="40.805194" lon="-3.879347">
        <ele>2212.259</ele>
        <time>2021-07-31T11:49:44Z</time>
      </trkpt>
      <trkpt lat="40.805206" lon="-3.879378">
        <ele>2212.326</ele>
        <time>2021-07-31T11:49:47Z</time>
      </trkpt>
      <trkpt lat="40.805222" lon="-3.879403">
        <ele>2212.558</ele>
        <time>2021-07-31T11:49:50Z</time>
      </trkpt>
      <trkpt lat="40.805238" lon="-3.879415">
        <ele>2212.665</ele>
        <time>2021-07-31T11:49:58Z</time>
      </trkpt>
      <trkpt lat="40.805245" lon="-3.879445">
        <ele>2212.815</ele>
        <time>2021-07-31T11:50:09Z</time>
      </trkpt>
      <trkpt lat="40.805261" lon="-3.879462">
        <ele>2213.093</ele>
        <time>2021-07-31T11:50:11Z</time>
      </trkpt>
      <trkpt lat="40.805283" lon="-3.879482">
        <ele>2213.339</ele>
        <time>2021-07-31T11:50:14Z</time>
      </trkpt>
      <trkpt lat="40.805299" lon="-3.879500">
        <ele>2213.401</ele>
        <time>2021-07-31T11:50:16Z</time>
      </trkpt>
      <trkpt lat="40.805309" lon="-3.879535">
        <ele>2213.721</ele>
        <time>2021-07-31T11:50:19Z</time>
      </trkpt>
      <trkpt lat="40.805312" lon="-3.879572">
        <ele>2213.908</ele>
        <time>2021-07-31T11:50:21Z</time>
      </trkpt>
      <trkpt lat="40.805322" lon="-3.879608">
        <ele>2214.210</ele>
        <time>2021-07-31T11:50:23Z</time>
      </trkpt>
      <trkpt lat="40.805328" lon="-3.879634">
        <ele>2214.482</ele>
        <time>2021-07-31T11:50:25Z</time>
      </trkpt>
      <trkpt lat="40.805341" lon="-3.879662">
        <ele>2214.699</ele>
        <time>2021-07-31T11:50:27Z</time>
      </trkpt>
      <trkpt lat="40.805354" lon="-3.879692">
        <ele>2214.876</ele>
        <time>2021-07-31T11:50:30Z</time>
      </trkpt>
      <trkpt lat="40.805354" lon="-3.879717">
        <ele>2215.098</ele>
        <time>2021-07-31T11:50:32Z</time>
      </trkpt>
      <trkpt lat="40.805360" lon="-3.879747">
        <ele>2215.145</ele>
        <time>2021-07-31T11:50:34Z</time>
      </trkpt>
      <trkpt lat="40.805382" lon="-3.879772">
        <ele>2215.395</ele>
        <time>2021-07-31T11:50:37Z</time>
      </trkpt>
      <trkpt lat="40.805405" lon="-3.879790">
        <ele>2215.513</ele>
        <time>2021-07-31T11:50:40Z</time>
      </trkpt>
      <trkpt lat="40.805411" lon="-3.879813">
        <ele>2215.661</ele>
        <time>2021-07-31T11:50:42Z</time>
      </trkpt>
      <trkpt lat="40.805421" lon="-3.879836">
        <ele>2215.821</ele>
        <time>2021-07-31T11:50:44Z</time>
      </trkpt>
      <trkpt lat="40.805430" lon="-3.879863">
        <ele>2216.113</ele>
        <time>2021-07-31T11:50:46Z</time>
      </trkpt>
      <trkpt lat="40.805440" lon="-3.879893">
        <ele>2216.308</ele>
        <time>2021-07-31T11:50:48Z</time>
      </trkpt>
      <trkpt lat="40.805450" lon="-3.879920">
        <ele>2216.643</ele>
        <time>2021-07-31T11:50:50Z</time>
      </trkpt>
      <trkpt lat="40.805466" lon="-3.879950">
        <ele>2216.975</ele>
        <time>2021-07-31T11:50:52Z</time>
      </trkpt>
      <trkpt lat="40.805472" lon="-3.879978">
        <ele>2217.252</ele>
        <time>2021-07-31T11:50:54Z</time>
      </trkpt>
      <trkpt lat="40.805478" lon="-3.880007">
        <ele>2217.589</ele>
        <time>2021-07-31T11:50:56Z</time>
      </trkpt>
      <trkpt lat="40.805482" lon="-3.880036">
        <ele>2217.741</ele>
        <time>2021-07-31T11:50:58Z</time>
      </trkpt>
      <trkpt lat="40.805488" lon="-3.880067">
        <ele>2218.028</ele>
        <time>2021-07-31T11:51:00Z</time>
      </trkpt>
      <trkpt lat="40.805501" lon="-3.880100">
        <ele>2218.378</ele>
        <time>2021-07-31T11:51:02Z</time>
      </trkpt>
      <trkpt lat="40.805504" lon="-3.880125">
        <ele>2218.526</ele>
        <time>2021-07-31T11:51:04Z</time>
      </trkpt>
      <trkpt lat="40.805510" lon="-3.880155">
        <ele>2218.853</ele>
        <time>2021-07-31T11:51:06Z</time>
      </trkpt>
      <trkpt lat="40.805520" lon="-3.880176">
        <ele>2219.004</ele>
        <time>2021-07-31T11:51:08Z</time>
      </trkpt>
      <trkpt lat="40.805530" lon="-3.880205">
        <ele>2219.314</ele>
        <time>2021-07-31T11:51:11Z</time>
      </trkpt>
      <trkpt lat="40.805542" lon="-3.880237">
        <ele>2219.608</ele>
        <time>2021-07-31T11:51:13Z</time>
      </trkpt>
      <trkpt lat="40.805552" lon="-3.880258">
        <ele>2219.862</ele>
        <time>2021-07-31T11:51:15Z</time>
      </trkpt>
      <trkpt lat="40.805568" lon="-3.880283">
        <ele>2219.994</ele>
        <time>2021-07-31T11:51:17Z</time>
      </trkpt>
      <trkpt lat="40.805581" lon="-3.880310">
        <ele>2220.071</ele>
        <time>2021-07-31T11:51:19Z</time>
      </trkpt>
      <trkpt lat="40.805597" lon="-3.880332">
        <ele>2220.158</ele>
        <time>2021-07-31T11:51:21Z</time>
      </trkpt>
      <trkpt lat="40.805603" lon="-3.880357">
        <ele>2220.250</ele>
        <time>2021-07-31T11:51:23Z</time>
      </trkpt>
      <trkpt lat="40.805606" lon="-3.880383">
        <ele>2220.467</ele>
        <time>2021-07-31T11:51:25Z</time>
      </trkpt>
      <trkpt lat="40.805616" lon="-3.880407">
        <ele>2220.567</ele>
        <time>2021-07-31T11:51:27Z</time>
      </trkpt>
      <trkpt lat="40.805626" lon="-3.880438">
        <ele>2220.645</ele>
        <time>2021-07-31T11:51:30Z</time>
      </trkpt>
      <trkpt lat="40.805629" lon="-3.880463">
        <ele>2220.812</ele>
        <time>2021-07-31T11:51:32Z</time>
      </trkpt>
      <trkpt lat="40.805619" lon="-3.880504">
        <ele>2221.232</ele>
        <time>2021-07-31T11:51:35Z</time>
      </trkpt>
      <trkpt lat="40.805610" lon="-3.880533">
        <ele>2221.405</ele>
        <time>2021-07-31T11:51:37Z</time>
      </trkpt>
      <trkpt lat="40.805606" lon="-3.880560">
        <ele>2221.708</ele>
        <time>2021-07-31T11:51:39Z</time>
      </trkpt>
      <trkpt lat="40.805606" lon="-3.880587">
        <ele>2221.968</ele>
        <time>2021-07-31T11:51:41Z</time>
      </trkpt>
      <trkpt lat="40.805600" lon="-3.880625">
        <ele>2222.290</ele>
        <time>2021-07-31T11:51:44Z</time>
      </trkpt>
      <trkpt lat="40.805603" lon="-3.880655">
        <ele>2222.497</ele>
        <time>2021-07-31T11:51:46Z</time>
      </trkpt>
      <trkpt lat="40.805600" lon="-3.880684">
        <ele>2222.714</ele>
        <time>2021-07-31T11:51:48Z</time>
      </trkpt>
      <trkpt lat="40.805597" lon="-3.880710">
        <ele>2222.996</ele>
        <time>2021-07-31T11:51:50Z</time>
      </trkpt>
      <trkpt lat="40.805590" lon="-3.880742">
        <ele>2223.253</ele>
        <time>2021-07-31T11:51:52Z</time>
      </trkpt>
      <trkpt lat="40.805584" lon="-3.880768">
        <ele>2223.433</ele>
        <time>2021-07-31T11:51:54Z</time>
      </trkpt>
      <trkpt lat="40.805587" lon="-3.880805">
        <ele>2223.741</ele>
        <time>2021-07-31T11:51:56Z</time>
      </trkpt>
      <trkpt lat="40.805587" lon="-3.880840">
        <ele>2223.915</ele>
        <time>2021-07-31T11:51:58Z</time>
      </trkpt>
      <trkpt lat="40.805590" lon="-3.880866">
        <ele>2224.165</ele>
        <time>2021-07-31T11:52:00Z</time>
      </trkpt>
      <trkpt lat="40.805590" lon="-3.880900">
        <ele>2224.411</ele>
        <time>2021-07-31T11:52:02Z</time>
      </trkpt>
      <trkpt lat="40.805584" lon="-3.880935">
        <ele>2224.708</ele>
        <time>2021-07-31T11:52:04Z</time>
      </trkpt>
      <trkpt lat="40.805584" lon="-3.880970">
        <ele>2225.088</ele>
        <time>2021-07-31T11:52:06Z</time>
      </trkpt>
      <trkpt lat="40.805587" lon="-3.880998">
        <ele>2225.280</ele>
        <time>2021-07-31T11:52:08Z</time>
      </trkpt>
      <trkpt lat="40.805597" lon="-3.881025">
        <ele>2225.417</ele>
        <time>2021-07-31T11:52:10Z</time>
      </trkpt>
      <trkpt lat="40.805603" lon="-3.881052">
        <ele>2225.734</ele>
        <time>2021-07-31T11:52:12Z</time>
      </trkpt>
      <trkpt lat="40.805603" lon="-3.881085">
        <ele>2226.036</ele>
        <time>2021-07-31T11:52:14Z</time>
      </trkpt>
      <trkpt lat="40.805606" lon="-3.881115">
        <ele>2226.283</ele>
        <time>2021-07-31T11:52:16Z</time>
      </trkpt>
      <trkpt lat="40.805606" lon="-3.881142">
        <ele>2226.313</ele>
        <time>2021-07-31T11:52:18Z</time>
      </trkpt>
      <trkpt lat="40.805619" lon="-3.881177">
        <ele>2226.661</ele>
        <time>2021-07-31T11:52:20Z</time>
      </trkpt>
      <trkpt lat="40.805626" lon="-3.881215">
        <ele>2226.835</ele>
        <time>2021-07-31T11:52:22Z</time>
      </trkpt>
      <trkpt lat="40.805632" lon="-3.881256">
        <ele>2227.186</ele>
        <time>2021-07-31T11:52:25Z</time>
      </trkpt>
      <trkpt lat="40.805632" lon="-3.881285">
        <ele>2227.214</ele>
        <time>2021-07-31T11:52:27Z</time>
      </trkpt>
      <trkpt lat="40.805642" lon="-3.881312">
        <ele>2227.508</ele>
        <time>2021-07-31T11:52:29Z</time>
      </trkpt>
      <trkpt lat="40.805651" lon="-3.881343">
        <ele>2227.890</ele>
        <time>2021-07-31T11:52:31Z</time>
      </trkpt>
      <trkpt lat="40.805661" lon="-3.881368">
        <ele>2228.022</ele>
        <time>2021-07-31T11:52:33Z</time>
      </trkpt>
      <trkpt lat="40.805670" lon="-3.881394">
        <ele>2228.339</ele>
        <time>2021-07-31T11:52:35Z</time>
      </trkpt>
      <trkpt lat="40.805683" lon="-3.881422">
        <ele>2228.616</ele>
        <time>2021-07-31T11:52:37Z</time>
      </trkpt>
      <trkpt lat="40.805699" lon="-3.881452">
        <ele>2229.048</ele>
        <time>2021-07-31T11:52:39Z</time>
      </trkpt>
      <trkpt lat="40.805709" lon="-3.881478">
        <ele>2229.325</ele>
        <time>2021-07-31T11:52:41Z</time>
      </trkpt>
      <trkpt lat="40.805722" lon="-3.881513">
        <ele>2229.725</ele>
        <time>2021-07-31T11:52:43Z</time>
      </trkpt>
      <trkpt lat="40.805728" lon="-3.881542">
        <ele>2230.053</ele>
        <time>2021-07-31T11:52:45Z</time>
      </trkpt>
      <trkpt lat="40.805738" lon="-3.881575">
        <ele>2230.333</ele>
        <time>2021-07-31T11:52:47Z</time>
      </trkpt>
      <trkpt lat="40.805760" lon="-3.881635">
        <ele>2231.023</ele>
        <time>2021-07-31T11:52:51Z</time>
      </trkpt>
      <trkpt lat="40.805770" lon="-3.881670">
        <ele>2231.315</ele>
        <time>2021-07-31T11:52:54Z</time>
      </trkpt>
      <trkpt lat="40.805776" lon="-3.881697">
        <ele>2231.608</ele>
        <time>2021-07-31T11:52:56Z</time>
      </trkpt>
      <trkpt lat="40.805782" lon="-3.881727">
        <ele>2231.870</ele>
        <time>2021-07-31T11:52:58Z</time>
      </trkpt>
      <trkpt lat="40.805786" lon="-3.881754">
        <ele>2232.082</ele>
        <time>2021-07-31T11:53:00Z</time>
      </trkpt>
      <trkpt lat="40.805798" lon="-3.881780">
        <ele>2232.369</ele>
        <time>2021-07-31T11:53:02Z</time>
      </trkpt>
      <trkpt lat="40.805808" lon="-3.881805">
        <ele>2232.676</ele>
        <time>2021-07-31T11:53:04Z</time>
      </trkpt>
      <trkpt lat="40.805818" lon="-3.881827">
        <ele>2232.928</ele>
        <time>2021-07-31T11:53:06Z</time>
      </trkpt>
      <trkpt lat="40.805821" lon="-3.881857">
        <ele>2233.275</ele>
        <time>2021-07-31T11:53:08Z</time>
      </trkpt>
      <trkpt lat="40.805827" lon="-3.881885">
        <ele>2233.515</ele>
        <time>2021-07-31T11:53:10Z</time>
      </trkpt>
      <trkpt lat="40.805840" lon="-3.881910">
        <ele>2233.733</ele>
        <time>2021-07-31T11:53:12Z</time>
      </trkpt>
      <trkpt lat="40.805850" lon="-3.881935">
        <ele>2233.831</ele>
        <time>2021-07-31T11:53:14Z</time>
      </trkpt>
      <trkpt lat="40.805862" lon="-3.881963">
        <ele>2233.961</ele>
        <time>2021-07-31T11:53:16Z</time>
      </trkpt>
      <trkpt lat="40.805875" lon="-3.881990">
        <ele>2233.907</ele>
        <time>2021-07-31T11:53:18Z</time>
      </trkpt>
      <trkpt lat="40.805882" lon="-3.882020">
        <ele>2234.008</ele>
        <time>2021-07-31T11:53:20Z</time>
      </trkpt>
      <trkpt lat="40.805888" lon="-3.882053">
        <ele>2234.120</ele>
        <time>2021-07-31T11:53:22Z</time>
      </trkpt>
      <trkpt lat="40.805898" lon="-3.882080">
        <ele>2234.162</ele>
        <time>2021-07-31T11:53:24Z</time>
      </trkpt>
      <trkpt lat="40.805904" lon="-3.882105">
        <ele>2234.259</ele>
        <time>2021-07-31T11:53:26Z</time>
      </trkpt>
      <trkpt lat="40.805914" lon="-3.882136">
        <ele>2234.346</ele>
        <time>2021-07-31T11:53:28Z</time>
      </trkpt>
      <trkpt lat="40.805920" lon="-3.882167">
        <ele>2234.418</ele>
        <time>2021-07-31T11:53:30Z</time>
      </trkpt>
      <trkpt lat="40.805930" lon="-3.882193">
        <ele>2234.585</ele>
        <time>2021-07-31T11:53:32Z</time>
      </trkpt>
      <trkpt lat="40.805942" lon="-3.882227">
        <ele>2234.675</ele>
        <time>2021-07-31T11:53:34Z</time>
      </trkpt>
      <trkpt lat="40.805949" lon="-3.882252">
        <ele>2234.863</ele>
        <time>2021-07-31T11:53:36Z</time>
      </trkpt>
      <trkpt lat="40.805955" lon="-3.882285">
        <ele>2235.071</ele>
        <time>2021-07-31T11:53:38Z</time>
      </trkpt>
      <trkpt lat="40.805958" lon="-3.882312">
        <ele>2235.241</ele>
        <time>2021-07-31T11:53:40Z</time>
      </trkpt>
      <trkpt lat="40.805962" lon="-3.882337">
        <ele>2235.415</ele>
        <time>2021-07-31T11:53:42Z</time>
      </trkpt>
      <trkpt lat="40.805965" lon="-3.882373">
        <ele>2235.608</ele>
        <time>2021-07-31T11:53:45Z</time>
      </trkpt>
      <trkpt lat="40.805974" lon="-3.882398">
        <ele>2235.844</ele>
        <time>2021-07-31T11:53:47Z</time>
      </trkpt>
      <trkpt lat="40.805978" lon="-3.882424">
        <ele>2235.986</ele>
        <time>2021-07-31T11:53:49Z</time>
      </trkpt>
      <trkpt lat="40.805981" lon="-3.882454">
        <ele>2236.123</ele>
        <time>2021-07-31T11:53:51Z</time>
      </trkpt>
      <trkpt lat="40.805987" lon="-3.882485">
        <ele>2236.350</ele>
        <time>2021-07-31T11:53:53Z</time>
      </trkpt>
      <trkpt lat="40.805994" lon="-3.882522">
        <ele>2236.682</ele>
        <time>2021-07-31T11:53:56Z</time>
      </trkpt>
      <trkpt lat="40.806000" lon="-3.882550">
        <ele>2236.879</ele>
        <time>2021-07-31T11:53:58Z</time>
      </trkpt>
      <trkpt lat="40.806000" lon="-3.882575">
        <ele>2237.029</ele>
        <time>2021-07-31T11:54:00Z</time>
      </trkpt>
      <trkpt lat="40.806006" lon="-3.882600">
        <ele>2237.297</ele>
        <time>2021-07-31T11:54:02Z</time>
      </trkpt>
      <trkpt lat="40.806010" lon="-3.882630">
        <ele>2237.593</ele>
        <time>2021-07-31T11:54:04Z</time>
      </trkpt>
      <trkpt lat="40.806019" lon="-3.882662">
        <ele>2237.765</ele>
        <time>2021-07-31T11:54:06Z</time>
      </trkpt>
      <trkpt lat="40.806035" lon="-3.882695">
        <ele>2237.921</ele>
        <time>2021-07-31T11:54:09Z</time>
      </trkpt>
      <trkpt lat="40.806042" lon="-3.882727">
        <ele>2238.108</ele>
        <time>2021-07-31T11:54:11Z</time>
      </trkpt>
      <trkpt lat="40.806048" lon="-3.882753">
        <ele>2238.336</ele>
        <time>2021-07-31T11:54:13Z</time>
      </trkpt>
      <trkpt lat="40.806054" lon="-3.882778">
        <ele>2238.498</ele>
        <time>2021-07-31T11:54:15Z</time>
      </trkpt>
      <trkpt lat="40.806064" lon="-3.882805">
        <ele>2238.275</ele>
        <time>2021-07-31T11:54:17Z</time>
      </trkpt>
      <trkpt lat="40.806074" lon="-3.882828">
        <ele>2238.052</ele>
        <time>2021-07-31T11:54:19Z</time>
      </trkpt>
      <trkpt lat="40.806086" lon="-3.882850">
        <ele>2237.724</ele>
        <time>2021-07-31T11:54:21Z</time>
      </trkpt>
      <trkpt lat="40.806102" lon="-3.882872">
        <ele>2237.491</ele>
        <time>2021-07-31T11:54:23Z</time>
      </trkpt>
      <trkpt lat="40.806118" lon="-3.882890">
        <ele>2237.181</ele>
        <time>2021-07-31T11:54:25Z</time>
      </trkpt>
      <trkpt lat="40.806122" lon="-3.882915">
        <ele>2236.819</ele>
        <time>2021-07-31T11:54:27Z</time>
      </trkpt>
      <trkpt lat="40.806128" lon="-3.882940">
        <ele>2236.655</ele>
        <time>2021-07-31T11:54:29Z</time>
      </trkpt>
      <trkpt lat="40.806141" lon="-3.882970">
        <ele>2236.207</ele>
        <time>2021-07-31T11:54:31Z</time>
      </trkpt>
      <trkpt lat="40.806157" lon="-3.883000">
        <ele>2235.717</ele>
        <time>2021-07-31T11:54:33Z</time>
      </trkpt>
      <trkpt lat="40.806163" lon="-3.883025">
        <ele>2235.508</ele>
        <time>2021-07-31T11:54:35Z</time>
      </trkpt>
      <trkpt lat="40.806182" lon="-3.883052">
        <ele>2235.042</ele>
        <time>2021-07-31T11:54:37Z</time>
      </trkpt>
      <trkpt lat="40.806195" lon="-3.883077">
        <ele>2234.624</ele>
        <time>2021-07-31T11:54:39Z</time>
      </trkpt>
      <trkpt lat="40.806208" lon="-3.883100">
        <ele>2234.241</ele>
        <time>2021-07-31T11:54:41Z</time>
      </trkpt>
      <trkpt lat="40.806224" lon="-3.883122">
        <ele>2233.958</ele>
        <time>2021-07-31T11:54:43Z</time>
      </trkpt>
      <trkpt lat="40.806237" lon="-3.883147">
        <ele>2233.580</ele>
        <time>2021-07-31T11:54:45Z</time>
      </trkpt>
      <trkpt lat="40.806253" lon="-3.883174">
        <ele>2233.157</ele>
        <time>2021-07-31T11:54:47Z</time>
      </trkpt>
      <trkpt lat="40.806262" lon="-3.883195">
        <ele>2232.947</ele>
        <time>2021-07-31T11:54:49Z</time>
      </trkpt>
      <trkpt lat="40.806266" lon="-3.883225">
        <ele>2232.695</ele>
        <time>2021-07-31T11:54:51Z</time>
      </trkpt>
      <trkpt lat="40.806278" lon="-3.883258">
        <ele>2232.381</ele>
        <time>2021-07-31T11:54:53Z</time>
      </trkpt>
      <trkpt lat="40.806294" lon="-3.883282">
        <ele>2232.061</ele>
        <time>2021-07-31T11:54:55Z</time>
      </trkpt>
      <trkpt lat="40.806304" lon="-3.883305">
        <ele>2231.817</ele>
        <time>2021-07-31T11:54:57Z</time>
      </trkpt>
      <trkpt lat="40.806320" lon="-3.883333">
        <ele>2231.508</ele>
        <time>2021-07-31T11:54:59Z</time>
      </trkpt>
      <trkpt lat="40.806333" lon="-3.883355">
        <ele>2231.395</ele>
        <time>2021-07-31T11:55:01Z</time>
      </trkpt>
      <trkpt lat="40.806342" lon="-3.883376">
        <ele>2231.287</ele>
        <time>2021-07-31T11:55:03Z</time>
      </trkpt>
      <trkpt lat="40.806355" lon="-3.883403">
        <ele>2231.024</ele>
        <time>2021-07-31T11:55:06Z</time>
      </trkpt>
      <trkpt lat="40.806358" lon="-3.883428">
        <ele>2230.831</ele>
        <time>2021-07-31T11:55:08Z</time>
      </trkpt>
      <trkpt lat="40.806374" lon="-3.883455">
        <ele>2230.613</ele>
        <time>2021-07-31T11:55:11Z</time>
      </trkpt>
      <trkpt lat="40.806390" lon="-3.883478">
        <ele>2230.520</ele>
        <time>2021-07-31T11:55:14Z</time>
      </trkpt>
      <trkpt lat="40.806413" lon="-3.883502">
        <ele>2230.490</ele>
        <time>2021-07-31T11:55:17Z</time>
      </trkpt>
      <trkpt lat="40.806432" lon="-3.883520">
        <ele>2230.358</ele>
        <time>2021-07-31T11:55:20Z</time>
      </trkpt>
      <trkpt lat="40.806445" lon="-3.883537">
        <ele>2230.259</ele>
        <time>2021-07-31T11:55:22Z</time>
      </trkpt>
      <trkpt lat="40.806464" lon="-3.883550">
        <ele>2230.203</ele>
        <time>2021-07-31T11:55:34Z</time>
      </trkpt>
      <trkpt lat="40.806483" lon="-3.883563">
        <ele>2230.123</ele>
        <time>2021-07-31T11:55:36Z</time>
      </trkpt>
      <trkpt lat="40.806506" lon="-3.883585">
        <ele>2230.108</ele>
        <time>2021-07-31T11:55:38Z</time>
      </trkpt>
      <trkpt lat="40.806522" lon="-3.883602">
        <ele>2230.062</ele>
        <time>2021-07-31T11:55:40Z</time>
      </trkpt>
      <trkpt lat="40.806544" lon="-3.883617">
        <ele>2230.044</ele>
        <time>2021-07-31T11:55:42Z</time>
      </trkpt>
      <trkpt lat="40.806570" lon="-3.883623">
        <ele>2230.091</ele>
        <time>2021-07-31T11:55:44Z</time>
      </trkpt>
      <trkpt lat="40.806589" lon="-3.883635">
        <ele>2230.078</ele>
        <time>2021-07-31T11:55:46Z</time>
      </trkpt>
      <trkpt lat="40.806605" lon="-3.883647">
        <ele>2230.020</ele>
        <time>2021-07-31T11:55:48Z</time>
      </trkpt>
      <trkpt lat="40.806621" lon="-3.883664">
        <ele>2230.017</ele>
        <time>2021-07-31T11:55:50Z</time>
      </trkpt>
      <trkpt lat="40.806640" lon="-3.883678">
        <ele>2230.077</ele>
        <time>2021-07-31T11:55:52Z</time>
      </trkpt>
      <trkpt lat="40.806662" lon="-3.883693">
        <ele>2230.095</ele>
        <time>2021-07-31T11:55:54Z</time>
      </trkpt>
      <trkpt lat="40.806682" lon="-3.883706">
        <ele>2230.081</ele>
        <time>2021-07-31T11:55:56Z</time>
      </trkpt>
      <trkpt lat="40.806698" lon="-3.883720">
        <ele>2230.061</ele>
        <time>2021-07-31T11:55:58Z</time>
      </trkpt>
      <trkpt lat="40.806714" lon="-3.883735">
        <ele>2230.017</ele>
        <time>2021-07-31T11:56:00Z</time>
      </trkpt>
      <trkpt lat="40.806730" lon="-3.883752">
        <ele>2230.008</ele>
        <time>2021-07-31T11:56:02Z</time>
      </trkpt>
      <trkpt lat="40.806749" lon="-3.883768">
        <ele>2230.055</ele>
        <time>2021-07-31T11:56:06Z</time>
      </trkpt>
      <trkpt lat="40.806774" lon="-3.883792">
        <ele>2230.037</ele>
        <time>2021-07-31T11:56:09Z</time>
      </trkpt>
      <trkpt lat="40.806794" lon="-3.883823">
        <ele>2230.074</ele>
        <time>2021-07-31T11:56:12Z</time>
      </trkpt>
      <trkpt lat="40.806810" lon="-3.883845">
        <ele>2230.091</ele>
        <time>2021-07-31T11:56:14Z</time>
      </trkpt>
      <trkpt lat="40.806819" lon="-3.883874">
        <ele>2230.033</ele>
        <time>2021-07-31T11:56:17Z</time>
      </trkpt>
      <trkpt lat="40.806835" lon="-3.883896">
        <ele>2230.050</ele>
        <time>2021-07-31T11:56:19Z</time>
      </trkpt>
      <trkpt lat="40.806842" lon="-3.883920">
        <ele>2229.860</ele>
        <time>2021-07-31T11:56:21Z</time>
      </trkpt>
      <trkpt lat="40.806854" lon="-3.883938">
        <ele>2229.748</ele>
        <time>2021-07-31T11:56:24Z</time>
      </trkpt>
      <trkpt lat="40.806874" lon="-3.883943">
        <ele>2229.751</ele>
        <time>2021-07-31T11:56:26Z</time>
      </trkpt>
      <trkpt lat="40.806890" lon="-3.883960">
        <ele>2229.501</ele>
        <time>2021-07-31T11:56:30Z</time>
      </trkpt>
      <trkpt lat="40.806902" lon="-3.883978">
        <ele>2229.411</ele>
        <time>2021-07-31T11:56:33Z</time>
      </trkpt>
      <trkpt lat="40.806922" lon="-3.884000">
        <ele>2229.208</ele>
        <time>2021-07-31T11:56:37Z</time>
      </trkpt>
      <trkpt lat="40.806928" lon="-3.884023">
        <ele>2229.192</ele>
        <time>2021-07-31T11:56:40Z</time>
      </trkpt>
      <trkpt lat="40.806931" lon="-3.884056">
        <ele>2228.824</ele>
        <time>2021-07-31T11:56:44Z</time>
      </trkpt>
      <trkpt lat="40.806938" lon="-3.884082">
        <ele>2228.611</ele>
        <time>2021-07-31T11:56:47Z</time>
      </trkpt>
      <trkpt lat="40.806947" lon="-3.884117">
        <ele>2228.318</ele>
        <time>2021-07-31T11:56:50Z</time>
      </trkpt>
      <trkpt lat="40.806966" lon="-3.884148">
        <ele>2228.050</ele>
        <time>2021-07-31T11:56:53Z</time>
      </trkpt>
      <trkpt lat="40.806979" lon="-3.884175">
        <ele>2227.757</ele>
        <time>2021-07-31T11:56:55Z</time>
      </trkpt>
      <trkpt lat="40.807008" lon="-3.884200">
        <ele>2227.367</ele>
        <time>2021-07-31T11:56:57Z</time>
      </trkpt>
      <trkpt lat="40.807021" lon="-3.884225">
        <ele>2227.195</ele>
        <time>2021-07-31T11:56:59Z</time>
      </trkpt>
      <trkpt lat="40.807037" lon="-3.884245">
        <ele>2226.952</ele>
        <time>2021-07-31T11:57:01Z</time>
      </trkpt>
      <trkpt lat="40.807053" lon="-3.884267">
        <ele>2226.753</ele>
        <time>2021-07-31T11:57:03Z</time>
      </trkpt>
      <trkpt lat="40.807072" lon="-3.884295">
        <ele>2226.508</ele>
        <time>2021-07-31T11:57:05Z</time>
      </trkpt>
      <trkpt lat="40.807091" lon="-3.884318">
        <ele>2226.508</ele>
        <time>2021-07-31T11:57:07Z</time>
      </trkpt>
      <trkpt lat="40.807107" lon="-3.884343">
        <ele>2226.452</ele>
        <time>2021-07-31T11:57:09Z</time>
      </trkpt>
      <trkpt lat="40.807117" lon="-3.884367">
        <ele>2226.454</ele>
        <time>2021-07-31T11:57:12Z</time>
      </trkpt>
      <trkpt lat="40.807130" lon="-3.884398">
        <ele>2226.481</ele>
        <time>2021-07-31T11:57:15Z</time>
      </trkpt>
      <trkpt lat="40.807149" lon="-3.884428">
        <ele>2226.588</ele>
        <time>2021-07-31T11:57:18Z</time>
      </trkpt>
      <trkpt lat="40.807165" lon="-3.884443">
        <ele>2226.660</ele>
        <time>2021-07-31T11:57:20Z</time>
      </trkpt>
      <trkpt lat="40.807178" lon="-3.884465">
        <ele>2226.737</ele>
        <time>2021-07-31T11:57:22Z</time>
      </trkpt>
      <trkpt lat="40.807190" lon="-3.884482">
        <ele>2226.937</ele>
        <time>2021-07-31T11:57:24Z</time>
      </trkpt>
      <trkpt lat="40.807213" lon="-3.884497">
        <ele>2227.145</ele>
        <time>2021-07-31T11:57:27Z</time>
      </trkpt>
      <trkpt lat="40.807232" lon="-3.884520">
        <ele>2227.395</ele>
        <time>2021-07-31T11:57:29Z</time>
      </trkpt>
      <trkpt lat="40.807245" lon="-3.884545">
        <ele>2227.349</ele>
        <time>2021-07-31T11:57:31Z</time>
      </trkpt>
      <trkpt lat="40.807267" lon="-3.884574">
        <ele>2227.523</ele>
        <time>2021-07-31T11:57:33Z</time>
      </trkpt>
      <trkpt lat="40.807280" lon="-3.884593">
        <ele>2227.508</ele>
        <time>2021-07-31T11:57:35Z</time>
      </trkpt>
      <trkpt lat="40.807293" lon="-3.884618">
        <ele>2227.716</ele>
        <time>2021-07-31T11:57:37Z</time>
      </trkpt>
      <trkpt lat="40.807309" lon="-3.884640">
        <ele>2227.868</ele>
        <time>2021-07-31T11:57:39Z</time>
      </trkpt>
      <trkpt lat="40.807325" lon="-3.884658">
        <ele>2228.095</ele>
        <time>2021-07-31T11:57:41Z</time>
      </trkpt>
      <trkpt lat="40.807344" lon="-3.884668">
        <ele>2228.122</ele>
        <time>2021-07-31T11:57:43Z</time>
      </trkpt>
      <trkpt lat="40.807328" lon="-3.884683">
        <ele>2228.114</ele>
        <time>2021-07-31T11:58:02Z</time>
      </trkpt>
      <trkpt lat="40.807306" lon="-3.884700">
        <ele>2228.281</ele>
        <time>2021-07-31T11:58:04Z</time>
      </trkpt>
      <trkpt lat="40.807293" lon="-3.884720">
        <ele>2228.231</ele>
        <time>2021-07-31T11:58:06Z</time>
      </trkpt>
      <trkpt lat="40.807290" lon="-3.884755">
        <ele>2228.329</ele>
        <time>2021-07-31T11:58:08Z</time>
      </trkpt>
      <trkpt lat="40.807290" lon="-3.884782">
        <ele>2228.394</ele>
        <time>2021-07-31T11:58:10Z</time>
      </trkpt>
      <trkpt lat="40.807299" lon="-3.884807">
        <ele>2228.457</ele>
        <time>2021-07-31T11:58:12Z</time>
      </trkpt>
      <trkpt lat="40.807309" lon="-3.884835">
        <ele>2228.422</ele>
        <time>2021-07-31T11:58:14Z</time>
      </trkpt>
      <trkpt lat="40.807318" lon="-3.884863">
        <ele>2228.508</ele>
        <time>2021-07-31T11:58:16Z</time>
      </trkpt>
      <trkpt lat="40.807328" lon="-3.884888">
        <ele>2228.666</ele>
        <time>2021-07-31T11:58:18Z</time>
      </trkpt>
      <trkpt lat="40.807334" lon="-3.884914">
        <ele>2228.758</ele>
        <time>2021-07-31T11:58:20Z</time>
      </trkpt>
      <trkpt lat="40.807331" lon="-3.884946">
        <ele>2228.795</ele>
        <time>2021-07-31T11:58:22Z</time>
      </trkpt>
      <trkpt lat="40.807334" lon="-3.884975">
        <ele>2228.862</ele>
        <time>2021-07-31T11:58:24Z</time>
      </trkpt>
      <trkpt lat="40.807347" lon="-3.885005">
        <ele>2228.924</ele>
        <time>2021-07-31T11:58:26Z</time>
      </trkpt>
      <trkpt lat="40.807354" lon="-3.885028">
        <ele>2228.841</ele>
        <time>2021-07-31T11:58:28Z</time>
      </trkpt>
      <trkpt lat="40.807373" lon="-3.885052">
        <ele>2228.921</ele>
        <time>2021-07-31T11:58:30Z</time>
      </trkpt>
      <trkpt lat="40.807389" lon="-3.885068">
        <ele>2229.059</ele>
        <time>2021-07-31T11:58:32Z</time>
      </trkpt>
      <trkpt lat="40.807405" lon="-3.885090">
        <ele>2229.121</ele>
        <time>2021-07-31T11:58:34Z</time>
      </trkpt>
      <trkpt lat="40.807411" lon="-3.885125">
        <ele>2229.141</ele>
        <time>2021-07-31T11:58:37Z</time>
      </trkpt>
      <trkpt lat="40.807414" lon="-3.885157">
        <ele>2229.005</ele>
        <time>2021-07-31T11:58:40Z</time>
      </trkpt>
      <trkpt lat="40.807437" lon="-3.885175">
        <ele>2229.308</ele>
        <time>2021-07-31T11:58:43Z</time>
      </trkpt>
      <trkpt lat="40.807466" lon="-3.885178">
        <ele>2229.639</ele>
        <time>2021-07-31T11:58:46Z</time>
      </trkpt>
      <trkpt lat="40.807485" lon="-3.885182">
        <ele>2229.891</ele>
        <time>2021-07-31T11:58:48Z</time>
      </trkpt>
      <trkpt lat="40.807504" lon="-3.885193">
        <ele>2230.088</ele>
        <time>2021-07-31T11:58:50Z</time>
      </trkpt>
      <trkpt lat="40.807523" lon="-3.885177">
        <ele>2229.725</ele>
        <time>2021-07-31T11:58:53Z</time>
      </trkpt>
      <trkpt lat="40.807542" lon="-3.885178">
        <ele>2229.547</ele>
        <time>2021-07-31T11:58:55Z</time>
      </trkpt>
      <trkpt lat="40.807565" lon="-3.885198">
        <ele>2229.234</ele>
        <time>2021-07-31T11:58:57Z</time>
      </trkpt>
      <trkpt lat="40.807578" lon="-3.885222">
        <ele>2229.114</ele>
        <time>2021-07-31T11:58:59Z</time>
      </trkpt>
      <trkpt lat="40.807590" lon="-3.885252">
        <ele>2229.092</ele>
        <time>2021-07-31T11:59:01Z</time>
      </trkpt>
      <trkpt lat="40.807606" lon="-3.885278">
        <ele>2228.913</ele>
        <time>2021-07-31T11:59:03Z</time>
      </trkpt>
      <trkpt lat="40.807622" lon="-3.885290">
        <ele>2228.743</ele>
        <time>2021-07-31T11:59:05Z</time>
      </trkpt>
      <trkpt lat="40.807648" lon="-3.885292">
        <ele>2228.407</ele>
        <time>2021-07-31T11:59:08Z</time>
      </trkpt>
      <trkpt lat="40.807670" lon="-3.885292">
        <ele>2228.108</ele>
        <time>2021-07-31T11:59:10Z</time>
      </trkpt>
      <trkpt lat="40.807693" lon="-3.885280">
        <ele>2227.918</ele>
        <time>2021-07-31T11:59:12Z</time>
      </trkpt>
      <trkpt lat="40.807706" lon="-3.885254">
        <ele>2227.740</ele>
        <time>2021-07-31T11:59:15Z</time>
      </trkpt>
      <trkpt lat="40.807702" lon="-3.885227">
        <ele>2227.797</ele>
        <time>2021-07-31T11:59:17Z</time>
      </trkpt>
      <trkpt lat="40.807706" lon="-3.885200">
        <ele>2227.654</ele>
        <time>2021-07-31T11:59:20Z</time>
      </trkpt>
      <trkpt lat="40.807722" lon="-3.885172">
        <ele>2227.336</ele>
        <time>2021-07-31T11:59:22Z</time>
      </trkpt>
      <trkpt lat="40.807731" lon="-3.885147">
        <ele>2227.133</ele>
        <time>2021-07-31T11:59:24Z</time>
      </trkpt>
      <trkpt lat="40.807744" lon="-3.885126">
        <ele>2226.963</ele>
        <time>2021-07-31T11:59:26Z</time>
      </trkpt>
      <trkpt lat="40.807763" lon="-3.885118">
        <ele>2226.681</ele>
        <time>2021-07-31T11:59:28Z</time>
      </trkpt>
      <trkpt lat="40.807786" lon="-3.885118">
        <ele>2226.148</ele>
        <time>2021-07-31T11:59:31Z</time>
      </trkpt>
      <trkpt lat="40.807795" lon="-3.885093">
        <ele>2225.861</ele>
        <time>2021-07-31T11:59:35Z</time>
      </trkpt>
      <trkpt lat="40.807805" lon="-3.885068">
        <ele>2225.317</ele>
        <time>2021-07-31T11:59:38Z</time>
      </trkpt>
      <trkpt lat="40.807824" lon="-3.885048">
        <ele>2224.608</ele>
        <time>2021-07-31T11:59:41Z</time>
      </trkpt>
      <trkpt lat="40.807840" lon="-3.885028">
        <ele>2224.121</ele>
        <time>2021-07-31T11:59:44Z</time>
      </trkpt>
      <trkpt lat="40.807853" lon="-3.885008">
        <ele>2223.673</ele>
        <time>2021-07-31T11:59:47Z</time>
      </trkpt>
      <trkpt lat="40.807882" lon="-3.885005">
        <ele>2222.670</ele>
        <time>2021-07-31T11:59:51Z</time>
      </trkpt>
      <trkpt lat="40.807901" lon="-3.884995">
        <ele>2222.037</ele>
        <time>2021-07-31T11:59:54Z</time>
      </trkpt>
      <trkpt lat="40.807894" lon="-3.884963">
        <ele>2221.969</ele>
        <time>2021-07-31T11:59:57Z</time>
      </trkpt>
      <trkpt lat="40.807888" lon="-3.884937">
        <ele>2221.876</ele>
        <time>2021-07-31T12:00:00Z</time>
      </trkpt>
      <trkpt lat="40.807875" lon="-3.884915">
        <ele>2222.086</ele>
        <time>2021-07-31T12:00:03Z</time>
      </trkpt>
      <trkpt lat="40.807882" lon="-3.884892">
        <ele>2221.684</ele>
        <time>2021-07-31T12:00:06Z</time>
      </trkpt>
      <trkpt lat="40.807885" lon="-3.884853">
        <ele>2221.118</ele>
        <time>2021-07-31T12:00:09Z</time>
      </trkpt>
      <trkpt lat="40.807875" lon="-3.884828">
        <ele>2221.298</ele>
        <time>2021-07-31T12:00:11Z</time>
      </trkpt>
      <trkpt lat="40.807869" lon="-3.884793">
        <ele>2221.117</ele>
        <time>2021-07-31T12:00:14Z</time>
      </trkpt>
      <trkpt lat="40.807872" lon="-3.884760">
        <ele>2220.608</ele>
        <time>2021-07-31T12:00:17Z</time>
      </trkpt>
      <trkpt lat="40.807891" lon="-3.884745">
        <ele>2220.038</ele>
        <time>2021-07-31T12:00:20Z</time>
      </trkpt>
      <trkpt lat="40.807920" lon="-3.884732">
        <ele>2219.050</ele>
        <time>2021-07-31T12:00:23Z</time>
      </trkpt>
      <trkpt lat="40.807933" lon="-3.884703">
        <ele>2218.477</ele>
        <time>2021-07-31T12:00:26Z</time>
      </trkpt>
      <trkpt lat="40.807946" lon="-3.884680">
        <ele>2217.854</ele>
        <time>2021-07-31T12:00:29Z</time>
      </trkpt>
      <trkpt lat="40.807962" lon="-3.884665">
        <ele>2217.116</ele>
        <time>2021-07-31T12:00:37Z</time>
      </trkpt>
      <trkpt lat="40.807984" lon="-3.884647">
        <ele>2216.343</ele>
        <time>2021-07-31T12:00:41Z</time>
      </trkpt>
      <trkpt lat="40.808000" lon="-3.884625">
        <ele>2215.613</ele>
        <time>2021-07-31T12:00:45Z</time>
      </trkpt>
      <trkpt lat="40.808022" lon="-3.884610">
        <ele>2214.831</ele>
        <time>2021-07-31T12:00:50Z</time>
      </trkpt>
      <trkpt lat="40.808038" lon="-3.884595">
        <ele>2214.216</ele>
        <time>2021-07-31T12:00:59Z</time>
      </trkpt>
      <trkpt lat="40.808048" lon="-3.884567">
        <ele>2213.676</ele>
        <time>2021-07-31T12:01:02Z</time>
      </trkpt>
      <trkpt lat="40.808061" lon="-3.884547">
        <ele>2212.913</ele>
        <time>2021-07-31T12:01:05Z</time>
      </trkpt>
      <trkpt lat="40.808070" lon="-3.884515">
        <ele>2212.308</ele>
        <time>2021-07-31T12:01:08Z</time>
      </trkpt>
      <trkpt lat="40.808083" lon="-3.884490">
        <ele>2211.618</ele>
        <time>2021-07-31T12:01:11Z</time>
      </trkpt>
      <trkpt lat="40.808099" lon="-3.884463">
        <ele>2210.820</ele>
        <time>2021-07-31T12:01:14Z</time>
      </trkpt>
      <trkpt lat="40.808109" lon="-3.884437">
        <ele>2210.287</ele>
        <time>2021-07-31T12:01:17Z</time>
      </trkpt>
      <trkpt lat="40.808125" lon="-3.884425">
        <ele>2209.694</ele>
        <time>2021-07-31T12:01:20Z</time>
      </trkpt>
      <trkpt lat="40.808141" lon="-3.884413">
        <ele>2209.036</ele>
        <time>2021-07-31T12:01:22Z</time>
      </trkpt>
      <trkpt lat="40.808160" lon="-3.884393">
        <ele>2208.213</ele>
        <time>2021-07-31T12:01:25Z</time>
      </trkpt>
      <trkpt lat="40.808170" lon="-3.884368">
        <ele>2207.773</ele>
        <time>2021-07-31T12:01:30Z</time>
      </trkpt>
      <trkpt lat="40.808186" lon="-3.884357">
        <ele>2207.111</ele>
        <time>2021-07-31T12:01:33Z</time>
      </trkpt>
      <trkpt lat="40.808208" lon="-3.884362">
        <ele>2206.563</ele>
        <time>2021-07-31T12:01:36Z</time>
      </trkpt>
      <trkpt lat="40.808221" lon="-3.884380">
        <ele>2206.244</ele>
        <time>2021-07-31T12:01:38Z</time>
      </trkpt>
      <trkpt lat="40.808240" lon="-3.884383">
        <ele>2205.618</ele>
        <time>2021-07-31T12:01:42Z</time>
      </trkpt>
      <trkpt lat="40.808262" lon="-3.884367">
        <ele>2204.808</ele>
        <time>2021-07-31T12:01:47Z</time>
      </trkpt>
      <trkpt lat="40.808269" lon="-3.884343">
        <ele>2204.453</ele>
        <time>2021-07-31T12:01:50Z</time>
      </trkpt>
      <trkpt lat="40.808278" lon="-3.884317">
        <ele>2203.985</ele>
        <time>2021-07-31T12:01:54Z</time>
      </trkpt>
      <trkpt lat="40.808298" lon="-3.884310">
        <ele>2203.212</ele>
        <time>2021-07-31T12:02:00Z</time>
      </trkpt>
      <trkpt lat="40.808317" lon="-3.884322">
        <ele>2202.669</ele>
        <time>2021-07-31T12:02:05Z</time>
      </trkpt>
      <trkpt lat="40.808333" lon="-3.884342">
        <ele>2202.331</ele>
        <time>2021-07-31T12:02:08Z</time>
      </trkpt>
      <trkpt lat="40.808358" lon="-3.884355">
        <ele>2201.698</ele>
        <time>2021-07-31T12:02:11Z</time>
      </trkpt>
      <trkpt lat="40.808381" lon="-3.884357">
        <ele>2200.868</ele>
        <time>2021-07-31T12:02:15Z</time>
      </trkpt>
      <trkpt lat="40.808400" lon="-3.884340">
        <ele>2200.126</ele>
        <time>2021-07-31T12:02:17Z</time>
      </trkpt>
      <trkpt lat="40.808400" lon="-3.884315">
        <ele>2199.989</ele>
        <time>2021-07-31T12:02:20Z</time>
      </trkpt>
      <trkpt lat="40.808416" lon="-3.884298">
        <ele>2199.306</ele>
        <time>2021-07-31T12:02:24Z</time>
      </trkpt>
      <trkpt lat="40.808432" lon="-3.884275">
        <ele>2198.626</ele>
        <time>2021-07-31T12:02:29Z</time>
      </trkpt>
      <trkpt lat="40.808451" lon="-3.884260">
        <ele>2197.908</ele>
        <time>2021-07-31T12:02:32Z</time>
      </trkpt>
      <trkpt lat="40.808470" lon="-3.884246">
        <ele>2197.145</ele>
        <time>2021-07-31T12:02:35Z</time>
      </trkpt>
      <trkpt lat="40.808483" lon="-3.884228">
        <ele>2196.687</ele>
        <time>2021-07-31T12:02:39Z</time>
      </trkpt>
      <trkpt lat="40.808483" lon="-3.884204">
        <ele>2196.454</ele>
        <time>2021-07-31T12:02:42Z</time>
      </trkpt>
      <trkpt lat="40.808499" lon="-3.884190">
        <ele>2195.811</ele>
        <time>2021-07-31T12:02:50Z</time>
      </trkpt>
      <trkpt lat="40.808509" lon="-3.884167">
        <ele>2195.323</ele>
        <time>2021-07-31T12:02:54Z</time>
      </trkpt>
      <trkpt lat="40.808528" lon="-3.884163">
        <ele>2194.740</ele>
        <time>2021-07-31T12:03:01Z</time>
      </trkpt>
      <trkpt lat="40.808550" lon="-3.884165">
        <ele>2194.090</ele>
        <time>2021-07-31T12:03:03Z</time>
      </trkpt>
      <trkpt lat="40.808576" lon="-3.884157">
        <ele>2193.158</ele>
        <time>2021-07-31T12:03:06Z</time>
      </trkpt>
      <trkpt lat="40.808595" lon="-3.884148">
        <ele>2192.423</ele>
        <time>2021-07-31T12:03:09Z</time>
      </trkpt>
      <trkpt lat="40.808618" lon="-3.884145">
        <ele>2191.783</ele>
        <time>2021-07-31T12:03:12Z</time>
      </trkpt>
      <trkpt lat="40.808637" lon="-3.884148">
        <ele>2191.211</ele>
        <time>2021-07-31T12:03:15Z</time>
      </trkpt>
      <trkpt lat="40.808656" lon="-3.884157">
        <ele>2190.808</ele>
        <time>2021-07-31T12:03:18Z</time>
      </trkpt>
      <trkpt lat="40.808675" lon="-3.884162">
        <ele>2190.419</ele>
        <time>2021-07-31T12:03:21Z</time>
      </trkpt>
      <trkpt lat="40.808694" lon="-3.884170">
        <ele>2189.941</ele>
        <time>2021-07-31T12:03:23Z</time>
      </trkpt>
      <trkpt lat="40.808720" lon="-3.884173">
        <ele>2189.358</ele>
        <time>2021-07-31T12:03:26Z</time>
      </trkpt>
      <trkpt lat="40.808742" lon="-3.884172">
        <ele>2188.775</ele>
        <time>2021-07-31T12:03:28Z</time>
      </trkpt>
      <trkpt lat="40.808758" lon="-3.884160">
        <ele>2188.297</ele>
        <time>2021-07-31T12:03:30Z</time>
      </trkpt>
      <trkpt lat="40.808774" lon="-3.884140">
        <ele>2187.634</ele>
        <time>2021-07-31T12:03:34Z</time>
      </trkpt>
      <trkpt lat="40.808797" lon="-3.884137">
        <ele>2187.024</ele>
        <time>2021-07-31T12:03:41Z</time>
      </trkpt>
      <trkpt lat="40.808816" lon="-3.884138">
        <ele>2186.682</ele>
        <time>2021-07-31T12:03:43Z</time>
      </trkpt>
      <trkpt lat="40.808829" lon="-3.884117">
        <ele>2186.066</ele>
        <time>2021-07-31T12:03:49Z</time>
      </trkpt>
      <trkpt lat="40.808842" lon="-3.884100">
        <ele>2185.529</ele>
        <time>2021-07-31T12:03:52Z</time>
      </trkpt>
      <trkpt lat="40.808858" lon="-3.884083">
        <ele>2184.921</ele>
        <time>2021-07-31T12:04:00Z</time>
      </trkpt>
      <trkpt lat="40.808880" lon="-3.884075">
        <ele>2184.208</ele>
        <time>2021-07-31T12:04:04Z</time>
      </trkpt>
      <trkpt lat="40.808899" lon="-3.884070">
        <ele>2183.633</ele>
        <time>2021-07-31T12:04:07Z</time>
      </trkpt>
      <trkpt lat="40.808922" lon="-3.884073">
        <ele>2183.035</ele>
        <time>2021-07-31T12:04:10Z</time>
      </trkpt>
      <trkpt lat="40.808947" lon="-3.884078">
        <ele>2182.252</ele>
        <time>2021-07-31T12:04:12Z</time>
      </trkpt>
      <trkpt lat="40.808966" lon="-3.884082">
        <ele>2181.769</ele>
        <time>2021-07-31T12:04:15Z</time>
      </trkpt>
      <trkpt lat="40.808986" lon="-3.884092">
        <ele>2181.111</ele>
        <time>2021-07-31T12:04:17Z</time>
      </trkpt>
      <trkpt lat="40.809005" lon="-3.884090">
        <ele>2180.558</ele>
        <time>2021-07-31T12:04:20Z</time>
      </trkpt>
      <trkpt lat="40.809021" lon="-3.884078">
        <ele>2179.958</ele>
        <time>2021-07-31T12:04:24Z</time>
      </trkpt>
      <trkpt lat="40.809043" lon="-3.884076">
        <ele>2179.296</ele>
        <time>2021-07-31T12:04:27Z</time>
      </trkpt>
      <trkpt lat="40.809066" lon="-3.884063">
        <ele>2178.431</ele>
        <time>2021-07-31T12:04:31Z</time>
      </trkpt>
      <trkpt lat="40.809082" lon="-3.884052">
        <ele>2177.861</ele>
        <time>2021-07-31T12:04:36Z</time>
      </trkpt>
      <trkpt lat="40.809104" lon="-3.884053">
        <ele>2177.107</ele>
        <time>2021-07-31T12:04:42Z</time>
      </trkpt>
      <trkpt lat="40.809117" lon="-3.884072">
        <ele>2176.908</ele>
        <time>2021-07-31T12:04:44Z</time>
      </trkpt>
      <trkpt lat="40.809136" lon="-3.884076">
        <ele>2176.320</ele>
        <time>2021-07-31T12:04:48Z</time>
      </trkpt>
      <trkpt lat="40.809155" lon="-3.884070">
        <ele>2175.772</ele>
        <time>2021-07-31T12:04:52Z</time>
      </trkpt>
      <trkpt lat="40.809174" lon="-3.884056">
        <ele>2174.949</ele>
        <time>2021-07-31T12:04:56Z</time>
      </trkpt>
      <trkpt lat="40.809190" lon="-3.884036">
        <ele>2174.176</ele>
        <time>2021-07-31T12:05:00Z</time>
      </trkpt>
      <trkpt lat="40.809203" lon="-3.884015">
        <ele>2173.458</ele>
        <time>2021-07-31T12:05:04Z</time>
      </trkpt>
      <trkpt lat="40.809222" lon="-3.884015">
        <ele>2172.655</ele>
        <time>2021-07-31T12:05:07Z</time>
      </trkpt>
      <trkpt lat="40.809242" lon="-3.884014">
        <ele>2171.835</ele>
        <time>2021-07-31T12:05:09Z</time>
      </trkpt>
      <trkpt lat="40.809264" lon="-3.884022">
        <ele>2170.933</ele>
        <time>2021-07-31T12:05:12Z</time>
      </trkpt>
      <trkpt lat="40.809283" lon="-3.884025">
        <ele>2170.213</ele>
        <time>2021-07-31T12:05:14Z</time>
      </trkpt>
      <trkpt lat="40.809299" lon="-3.884014">
        <ele>2169.443</ele>
        <time>2021-07-31T12:05:19Z</time>
      </trkpt>
      <trkpt lat="40.809318" lon="-3.884010">
        <ele>2168.607</ele>
        <time>2021-07-31T12:05:23Z</time>
      </trkpt>
      <trkpt lat="40.809338" lon="-3.883992">
        <ele>2167.708</ele>
        <time>2021-07-31T12:05:27Z</time>
      </trkpt>
      <trkpt lat="40.809357" lon="-3.884002">
        <ele>2167.058</ele>
        <time>2021-07-31T12:05:31Z</time>
      </trkpt>
      <trkpt lat="40.809376" lon="-3.884014">
        <ele>2166.360</ele>
        <time>2021-07-31T12:05:33Z</time>
      </trkpt>
      <trkpt lat="40.809395" lon="-3.884010">
        <ele>2165.547</ele>
        <time>2021-07-31T12:05:35Z</time>
      </trkpt>
      <trkpt lat="40.809418" lon="-3.884004">
        <ele>2164.584</ele>
        <time>2021-07-31T12:05:38Z</time>
      </trkpt>
      <trkpt lat="40.809437" lon="-3.884007">
        <ele>2163.756</ele>
        <time>2021-07-31T12:05:41Z</time>
      </trkpt>
      <trkpt lat="40.809456" lon="-3.884020">
        <ele>2163.183</ele>
        <time>2021-07-31T12:05:44Z</time>
      </trkpt>
      <trkpt lat="40.809472" lon="-3.884035">
        <ele>2162.723</ele>
        <time>2021-07-31T12:05:47Z</time>
      </trkpt>
      <trkpt lat="40.809491" lon="-3.884053">
        <ele>2162.271</ele>
        <time>2021-07-31T12:05:50Z</time>
      </trkpt>
      <trkpt lat="40.809510" lon="-3.884063">
        <ele>2161.798</ele>
        <time>2021-07-31T12:05:52Z</time>
      </trkpt>
      <trkpt lat="40.809530" lon="-3.884058">
        <ele>2161.015</ele>
        <time>2021-07-31T12:05:55Z</time>
      </trkpt>
      <trkpt lat="40.809552" lon="-3.884053">
        <ele>2160.326</ele>
        <time>2021-07-31T12:05:59Z</time>
      </trkpt>
      <trkpt lat="40.809571" lon="-3.884053">
        <ele>2159.808</ele>
        <time>2021-07-31T12:06:02Z</time>
      </trkpt>
      <trkpt lat="40.809590" lon="-3.884055">
        <ele>2159.296</ele>
        <time>2021-07-31T12:06:04Z</time>
      </trkpt>
      <trkpt lat="40.809610" lon="-3.884068">
        <ele>2158.718</ele>
        <time>2021-07-31T12:06:07Z</time>
      </trkpt>
      <trkpt lat="40.809629" lon="-3.884066">
        <ele>2158.195</ele>
        <time>2021-07-31T12:06:54Z</time>
      </trkpt>
      <trkpt lat="40.809651" lon="-3.884082">
        <ele>2157.542</ele>
        <time>2021-07-31T12:07:13Z</time>
      </trkpt>
      <trkpt lat="40.809674" lon="-3.884085">
        <ele>2156.994</ele>
        <time>2021-07-31T12:07:15Z</time>
      </trkpt>
      <trkpt lat="40.809696" lon="-3.884092">
        <ele>2156.211</ele>
        <time>2021-07-31T12:07:17Z</time>
      </trkpt>
      <trkpt lat="40.809718" lon="-3.884097">
        <ele>2155.641</ele>
        <time>2021-07-31T12:07:20Z</time>
      </trkpt>
      <trkpt lat="40.809738" lon="-3.884097">
        <ele>2154.989</ele>
        <time>2021-07-31T12:07:22Z</time>
      </trkpt>
      <trkpt lat="40.809766" lon="-3.884082">
        <ele>2153.789</ele>
        <time>2021-07-31T12:07:25Z</time>
      </trkpt>
      <trkpt lat="40.809782" lon="-3.884062">
        <ele>2152.906</ele>
        <time>2021-07-31T12:07:28Z</time>
      </trkpt>
      <trkpt lat="40.809802" lon="-3.884050">
        <ele>2152.026</ele>
        <time>2021-07-31T12:07:31Z</time>
      </trkpt>
      <trkpt lat="40.809821" lon="-3.884062">
        <ele>2151.308</ele>
        <time>2021-07-31T12:07:34Z</time>
      </trkpt>
      <trkpt lat="40.809846" lon="-3.884066">
        <ele>2150.485</ele>
        <time>2021-07-31T12:07:36Z</time>
      </trkpt>
      <trkpt lat="40.809866" lon="-3.884065">
        <ele>2149.697</ele>
        <time>2021-07-31T12:07:39Z</time>
      </trkpt>
      <trkpt lat="40.809888" lon="-3.884056">
        <ele>2148.624</ele>
        <time>2021-07-31T12:07:45Z</time>
      </trkpt>
      <trkpt lat="40.809907" lon="-3.884042">
        <ele>2147.891</ele>
        <time>2021-07-31T12:07:51Z</time>
      </trkpt>
      <trkpt lat="40.809933" lon="-3.884038">
        <ele>2146.753</ele>
        <time>2021-07-31T12:07:54Z</time>
      </trkpt>
      <trkpt lat="40.809952" lon="-3.884030">
        <ele>2145.940</ele>
        <time>2021-07-31T12:07:56Z</time>
      </trkpt>
      <trkpt lat="40.809971" lon="-3.884033">
        <ele>2145.240</ele>
        <time>2021-07-31T12:08:00Z</time>
      </trkpt>
      <trkpt lat="40.809987" lon="-3.884022">
        <ele>2144.578</ele>
        <time>2021-07-31T12:08:05Z</time>
      </trkpt>
      <trkpt lat="40.809997" lon="-3.884000">
        <ele>2143.973</ele>
        <time>2021-07-31T12:08:08Z</time>
      </trkpt>
      <trkpt lat="40.810006" lon="-3.883978">
        <ele>2143.485</ele>
        <time>2021-07-31T12:08:11Z</time>
      </trkpt>
      <trkpt lat="40.810016" lon="-3.883955">
        <ele>2142.813</ele>
        <time>2021-07-31T12:08:15Z</time>
      </trkpt>
      <trkpt lat="40.810035" lon="-3.883950">
        <ele>2142.008</ele>
        <time>2021-07-31T12:08:18Z</time>
      </trkpt>
      <trkpt lat="40.810054" lon="-3.883945">
        <ele>2141.214</ele>
        <time>2021-07-31T12:08:21Z</time>
      </trkpt>
      <trkpt lat="40.810070" lon="-3.883932">
        <ele>2140.536</ele>
        <time>2021-07-31T12:08:25Z</time>
      </trkpt>
      <trkpt lat="40.810093" lon="-3.883923">
        <ele>2139.563</ele>
        <time>2021-07-31T12:08:28Z</time>
      </trkpt>
      <trkpt lat="40.810109" lon="-3.883910">
        <ele>2138.860</ele>
        <time>2021-07-31T12:08:31Z</time>
      </trkpt>
      <trkpt lat="40.810131" lon="-3.883927">
        <ele>2138.052</ele>
        <time>2021-07-31T12:08:34Z</time>
      </trkpt>
      <trkpt lat="40.810150" lon="-3.883943">
        <ele>2137.319</ele>
        <time>2021-07-31T12:08:36Z</time>
      </trkpt>
      <trkpt lat="40.810166" lon="-3.883957">
        <ele>2136.849</ele>
        <time>2021-07-31T12:08:39Z</time>
      </trkpt>
      <trkpt lat="40.810186" lon="-3.883963">
        <ele>2136.037</ele>
        <time>2021-07-31T12:08:42Z</time>
      </trkpt>
      <trkpt lat="40.810208" lon="-3.883977">
        <ele>2135.215</ele>
        <time>2021-07-31T12:08:46Z</time>
      </trkpt>
      <trkpt lat="40.810234" lon="-3.883988">
        <ele>2134.165</ele>
        <time>2021-07-31T12:08:49Z</time>
      </trkpt>
      <trkpt lat="40.810246" lon="-3.883972">
        <ele>2133.611</ele>
        <time>2021-07-31T12:08:57Z</time>
      </trkpt>
      <trkpt lat="40.810256" lon="-3.883943">
        <ele>2133.108</ele>
        <time>2021-07-31T12:09:18Z</time>
      </trkpt>
      <trkpt lat="40.810266" lon="-3.883917">
        <ele>2132.688</ele>
        <time>2021-07-31T12:09:20Z</time>
      </trkpt>
      <trkpt lat="40.810266" lon="-3.883875">
        <ele>2132.410</ele>
        <time>2021-07-31T12:09:22Z</time>
      </trkpt>
      <trkpt lat="40.810266" lon="-3.883834">
        <ele>2132.317</ele>
        <time>2021-07-31T12:09:24Z</time>
      </trkpt>
      <trkpt lat="40.810272" lon="-3.883792">
        <ele>2131.954</ele>
        <time>2021-07-31T12:09:26Z</time>
      </trkpt>
      <trkpt lat="40.810285" lon="-3.883815">
        <ele>2131.576</ele>
        <time>2021-07-31T12:10:56Z</time>
      </trkpt>
      <trkpt lat="40.810298" lon="-3.883840">
        <ele>2131.283</ele>
        <time>2021-07-31T12:10:59Z</time>
      </trkpt>
      <trkpt lat="40.810314" lon="-3.883862">
        <ele>2130.773</ele>
        <time>2021-07-31T12:11:01Z</time>
      </trkpt>
      <trkpt lat="40.810323" lon="-3.883890">
        <ele>2130.521</ele>
        <time>2021-07-31T12:11:04Z</time>
      </trkpt>
      <trkpt lat="40.810342" lon="-3.883905">
        <ele>2129.998</ele>
        <time>2021-07-31T12:11:10Z</time>
      </trkpt>
      <trkpt lat="40.810355" lon="-3.883925">
        <ele>2129.615</ele>
        <time>2021-07-31T12:11:14Z</time>
      </trkpt>
      <trkpt lat="40.810371" lon="-3.883948">
        <ele>2129.126</ele>
        <time>2021-07-31T12:11:18Z</time>
      </trkpt>
      <trkpt lat="40.810384" lon="-3.883973">
        <ele>2128.608</ele>
        <time>2021-07-31T12:11:21Z</time>
      </trkpt>
      <trkpt lat="40.810390" lon="-3.884000">
        <ele>2128.476</ele>
        <time>2021-07-31T12:11:25Z</time>
      </trkpt>
      <trkpt lat="40.810403" lon="-3.884026">
        <ele>2128.088</ele>
        <time>2021-07-31T12:11:28Z</time>
      </trkpt>
      <trkpt lat="40.810416" lon="-3.884046">
        <ele>2127.535</ele>
        <time>2021-07-31T12:11:31Z</time>
      </trkpt>
      <trkpt lat="40.810432" lon="-3.884060">
        <ele>2126.942</ele>
        <time>2021-07-31T12:11:36Z</time>
      </trkpt>
      <trkpt lat="40.810448" lon="-3.884087">
        <ele>2126.344</ele>
        <time>2021-07-31T12:12:24Z</time>
      </trkpt>
      <trkpt lat="40.810464" lon="-3.884098">
        <ele>2125.781</ele>
        <time>2021-07-31T12:12:29Z</time>
      </trkpt>
      <trkpt lat="40.810490" lon="-3.884080">
        <ele>2124.831</ele>
        <time>2021-07-31T12:12:33Z</time>
      </trkpt>
      <trkpt lat="40.810493" lon="-3.884056">
        <ele>2124.779</ele>
        <time>2021-07-31T12:12:40Z</time>
      </trkpt>
      <trkpt lat="40.810506" lon="-3.884035">
        <ele>2124.335</ele>
        <time>2021-07-31T12:12:43Z</time>
      </trkpt>
      <trkpt lat="40.810525" lon="-3.884022">
        <ele>2123.686</ele>
        <time>2021-07-31T12:12:46Z</time>
      </trkpt>
      <trkpt lat="40.810541" lon="-3.883998">
        <ele>2123.114</ele>
        <time>2021-07-31T12:12:50Z</time>
      </trkpt>
      <trkpt lat="40.810547" lon="-3.883975">
        <ele>2123.008</ele>
        <time>2021-07-31T12:12:54Z</time>
      </trkpt>
      <trkpt lat="40.810557" lon="-3.883950">
        <ele>2122.750</ele>
        <time>2021-07-31T12:12:57Z</time>
      </trkpt>
      <trkpt lat="40.810557" lon="-3.883923">
        <ele>2122.822</ele>
        <time>2021-07-31T12:13:00Z</time>
      </trkpt>
      <trkpt lat="40.810570" lon="-3.883898">
        <ele>2122.469</ele>
        <time>2021-07-31T12:13:05Z</time>
      </trkpt>
      <trkpt lat="40.810589" lon="-3.883905">
        <ele>2121.716</ele>
        <time>2021-07-31T12:13:08Z</time>
      </trkpt>
      <trkpt lat="40.810608" lon="-3.883915">
        <ele>2121.038</ele>
        <time>2021-07-31T12:13:11Z</time>
      </trkpt>
      <trkpt lat="40.810624" lon="-3.883903">
        <ele>2120.545</ele>
        <time>2021-07-31T12:13:15Z</time>
      </trkpt>
      <trkpt lat="40.810643" lon="-3.883878">
        <ele>2119.855</ele>
        <time>2021-07-31T12:13:22Z</time>
      </trkpt>
      <trkpt lat="40.810662" lon="-3.883854">
        <ele>2119.153</ele>
        <time>2021-07-31T12:13:25Z</time>
      </trkpt>
      <trkpt lat="40.810682" lon="-3.883832">
        <ele>2118.432</ele>
        <time>2021-07-31T12:13:28Z</time>
      </trkpt>
      <trkpt lat="40.810701" lon="-3.883815">
        <ele>2117.892</ele>
        <time>2021-07-31T12:13:31Z</time>
      </trkpt>
      <trkpt lat="40.810720" lon="-3.883815">
        <ele>2117.111</ele>
        <time>2021-07-31T12:13:34Z</time>
      </trkpt>
      <trkpt lat="40.810739" lon="-3.883800">
        <ele>2116.508</ele>
        <time>2021-07-31T12:13:39Z</time>
      </trkpt>
      <trkpt lat="40.810765" lon="-3.883790">
        <ele>2115.620</ele>
        <time>2021-07-31T12:13:48Z</time>
      </trkpt>
      <trkpt lat="40.810765" lon="-3.883760">
        <ele>2115.712</ele>
        <time>2021-07-31T12:13:51Z</time>
      </trkpt>
      <trkpt lat="40.810768" lon="-3.883730">
        <ele>2115.779</ele>
        <time>2021-07-31T12:13:54Z</time>
      </trkpt>
      <trkpt lat="40.810781" lon="-3.883705">
        <ele>2115.376</ele>
        <time>2021-07-31T12:13:57Z</time>
      </trkpt>
      <trkpt lat="40.810800" lon="-3.883698">
        <ele>2114.788</ele>
        <time>2021-07-31T12:14:00Z</time>
      </trkpt>
      <trkpt lat="40.810819" lon="-3.883698">
        <ele>2114.195</ele>
        <time>2021-07-31T12:14:10Z</time>
      </trkpt>
      <trkpt lat="40.810803" lon="-3.883678">
        <ele>2114.795</ele>
        <time>2021-07-31T12:14:12Z</time>
      </trkpt>
      <trkpt lat="40.810810" lon="-3.883654">
        <ele>2114.553</ele>
        <time>2021-07-31T12:14:15Z</time>
      </trkpt>
      <trkpt lat="40.810810" lon="-3.883627">
        <ele>2114.664</ele>
        <time>2021-07-31T12:14:17Z</time>
      </trkpt>
      <trkpt lat="40.810822" lon="-3.883608">
        <ele>2114.306</ele>
        <time>2021-07-31T12:14:21Z</time>
      </trkpt>
      <trkpt lat="40.810842" lon="-3.883600">
        <ele>2113.716</ele>
        <time>2021-07-31T12:14:24Z</time>
      </trkpt>
      <trkpt lat="40.810864" lon="-3.883582">
        <ele>2113.108</ele>
        <time>2021-07-31T12:14:27Z</time>
      </trkpt>
      <trkpt lat="40.810880" lon="-3.883567">
        <ele>2112.723</ele>
        <time>2021-07-31T12:14:29Z</time>
      </trkpt>
      <trkpt lat="40.810899" lon="-3.883563">
        <ele>2112.245</ele>
        <time>2021-07-31T12:14:33Z</time>
      </trkpt>
      <trkpt lat="40.810909" lon="-3.883540">
        <ele>2111.862</ele>
        <time>2021-07-31T12:14:38Z</time>
      </trkpt>
      <trkpt lat="40.810902" lon="-3.883517">
        <ele>2111.929</ele>
        <time>2021-07-31T12:14:42Z</time>
      </trkpt>
      <trkpt lat="40.810912" lon="-3.883495">
        <ele>2111.651</ele>
        <time>2021-07-31T12:14:45Z</time>
      </trkpt>
      <trkpt lat="40.810928" lon="-3.883480">
        <ele>2111.198</ele>
        <time>2021-07-31T12:14:47Z</time>
      </trkpt>
      <trkpt lat="40.810934" lon="-3.883457">
        <ele>2110.978</ele>
        <time>2021-07-31T12:14:49Z</time>
      </trkpt>
      <trkpt lat="40.810931" lon="-3.883428">
        <ele>2110.956</ele>
        <time>2021-07-31T12:14:51Z</time>
      </trkpt>
      <trkpt lat="40.810931" lon="-3.883403">
        <ele>2110.844</ele>
        <time>2021-07-31T12:14:53Z</time>
      </trkpt>
      <trkpt lat="40.810950" lon="-3.883398">
        <ele>2110.305</ele>
        <time>2021-07-31T12:14:56Z</time>
      </trkpt>
      <trkpt lat="40.810970" lon="-3.883390">
        <ele>2109.815</ele>
        <time>2021-07-31T12:14:59Z</time>
      </trkpt>
      <trkpt lat="40.810989" lon="-3.883373">
        <ele>2109.208</ele>
        <time>2021-07-31T12:15:02Z</time>
      </trkpt>
      <trkpt lat="40.811008" lon="-3.883366">
        <ele>2108.771</ele>
        <time>2021-07-31T12:15:06Z</time>
      </trkpt>
      <trkpt lat="40.811027" lon="-3.883380">
        <ele>2108.333</ele>
        <time>2021-07-31T12:15:09Z</time>
      </trkpt>
      <trkpt lat="40.811059" lon="-3.883393">
        <ele>2107.520</ele>
        <time>2021-07-31T12:15:12Z</time>
      </trkpt>
      <trkpt lat="40.811078" lon="-3.883413">
        <ele>2107.137</ele>
        <time>2021-07-31T12:15:16Z</time>
      </trkpt>
      <trkpt lat="40.811098" lon="-3.883430">
        <ele>2106.769</ele>
        <time>2021-07-31T12:15:22Z</time>
      </trkpt>
      <trkpt lat="40.811117" lon="-3.883442">
        <ele>2106.256</ele>
        <time>2021-07-31T12:15:25Z</time>
      </trkpt>
      <trkpt lat="40.811139" lon="-3.883437">
        <ele>2105.566</ele>
        <time>2021-07-31T12:15:29Z</time>
      </trkpt>
      <trkpt lat="40.811158" lon="-3.883425">
        <ele>2104.974</ele>
        <time>2021-07-31T12:15:32Z</time>
      </trkpt>
      <trkpt lat="40.811178" lon="-3.883408">
        <ele>2104.388</ele>
        <time>2021-07-31T12:15:37Z</time>
      </trkpt>
      <trkpt lat="40.811203" lon="-3.883405">
        <ele>2103.524</ele>
        <time>2021-07-31T12:15:40Z</time>
      </trkpt>
      <trkpt lat="40.811226" lon="-3.883412">
        <ele>2102.926</ele>
        <time>2021-07-31T12:15:42Z</time>
      </trkpt>
      <trkpt lat="40.811245" lon="-3.883425">
        <ele>2102.308</ele>
        <time>2021-07-31T12:15:44Z</time>
      </trkpt>
      <trkpt lat="40.811264" lon="-3.883430">
        <ele>2101.845</ele>
        <time>2021-07-31T12:15:46Z</time>
      </trkpt>
      <trkpt lat="40.811283" lon="-3.883432">
        <ele>2101.217</ele>
        <time>2021-07-31T12:15:48Z</time>
      </trkpt>
      <trkpt lat="40.811302" lon="-3.883420">
        <ele>2100.624</ele>
        <time>2021-07-31T12:15:52Z</time>
      </trkpt>
      <trkpt lat="40.811318" lon="-3.883405">
        <ele>2100.171</ele>
        <time>2021-07-31T12:15:55Z</time>
      </trkpt>
      <trkpt lat="40.811338" lon="-3.883410">
        <ele>2099.533</ele>
        <time>2021-07-31T12:15:57Z</time>
      </trkpt>
      <trkpt lat="40.811360" lon="-3.883398">
        <ele>2098.960</ele>
        <time>2021-07-31T12:16:02Z</time>
      </trkpt>
      <trkpt lat="40.811379" lon="-3.883370">
        <ele>2098.310</ele>
        <time>2021-07-31T12:16:05Z</time>
      </trkpt>
      <trkpt lat="40.811389" lon="-3.883346">
        <ele>2098.098</ele>
        <time>2021-07-31T12:16:07Z</time>
      </trkpt>
      <trkpt lat="40.811402" lon="-3.883325">
        <ele>2097.674</ele>
        <time>2021-07-31T12:16:10Z</time>
      </trkpt>
      <trkpt lat="40.811408" lon="-3.883298">
        <ele>2097.456</ele>
        <time>2021-07-31T12:16:13Z</time>
      </trkpt>
      <trkpt lat="40.811421" lon="-3.883265">
        <ele>2097.021</ele>
        <time>2021-07-31T12:16:16Z</time>
      </trkpt>
      <trkpt lat="40.811437" lon="-3.883242">
        <ele>2096.508</ele>
        <time>2021-07-31T12:16:20Z</time>
      </trkpt>
      <trkpt lat="40.811456" lon="-3.883215">
        <ele>2096.084</ele>
        <time>2021-07-31T12:16:23Z</time>
      </trkpt>
      <trkpt lat="40.811466" lon="-3.883192">
        <ele>2095.716</ele>
        <time>2021-07-31T12:16:28Z</time>
      </trkpt>
      <trkpt lat="40.811482" lon="-3.883177">
        <ele>2095.333</ele>
        <time>2021-07-31T12:16:30Z</time>
      </trkpt>
      <trkpt lat="40.811498" lon="-3.883154">
        <ele>2094.940</ele>
        <time>2021-07-31T12:16:33Z</time>
      </trkpt>
      <trkpt lat="40.811517" lon="-3.883138">
        <ele>2094.492</ele>
        <time>2021-07-31T12:16:35Z</time>
      </trkpt>
      <trkpt lat="40.811536" lon="-3.883128">
        <ele>2093.989</ele>
        <time>2021-07-31T12:16:37Z</time>
      </trkpt>
      <trkpt lat="40.811558" lon="-3.883115">
        <ele>2093.429</ele>
        <time>2021-07-31T12:16:40Z</time>
      </trkpt>
      <trkpt lat="40.811578" lon="-3.883113">
        <ele>2093.067</ele>
        <time>2021-07-31T12:16:42Z</time>
      </trkpt>
      <trkpt lat="40.811597" lon="-3.883113">
        <ele>2092.633</ele>
        <time>2021-07-31T12:16:45Z</time>
      </trkpt>
      <trkpt lat="40.811616" lon="-3.883123">
        <ele>2092.123</ele>
        <time>2021-07-31T12:16:47Z</time>
      </trkpt>
      <trkpt lat="40.811635" lon="-3.883128">
        <ele>2091.715</ele>
        <time>2021-07-31T12:16:50Z</time>
      </trkpt>
      <trkpt lat="40.811661" lon="-3.883125">
        <ele>2091.108</ele>
        <time>2021-07-31T12:16:53Z</time>
      </trkpt>
      <trkpt lat="40.811680" lon="-3.883132">
        <ele>2090.670</ele>
        <time>2021-07-31T12:16:55Z</time>
      </trkpt>
      <trkpt lat="40.811702" lon="-3.883135">
        <ele>2090.022</ele>
        <time>2021-07-31T12:16:58Z</time>
      </trkpt>
      <trkpt lat="40.811722" lon="-3.883128">
        <ele>2089.599</ele>
        <time>2021-07-31T12:17:00Z</time>
      </trkpt>
      <trkpt lat="40.811747" lon="-3.883123">
        <ele>2088.816</ele>
        <time>2021-07-31T12:17:03Z</time>
      </trkpt>
      <trkpt lat="40.811766" lon="-3.883113">
        <ele>2088.248</ele>
        <time>2021-07-31T12:17:05Z</time>
      </trkpt>
      <trkpt lat="40.811786" lon="-3.883098">
        <ele>2087.655</ele>
        <time>2021-07-31T12:17:08Z</time>
      </trkpt>
      <trkpt lat="40.811805" lon="-3.883092">
        <ele>2087.155</ele>
        <time>2021-07-31T12:17:11Z</time>
      </trkpt>
      <trkpt lat="40.811827" lon="-3.883090">
        <ele>2086.543</ele>
        <time>2021-07-31T12:17:13Z</time>
      </trkpt>
      <trkpt lat="40.811843" lon="-3.883078">
        <ele>2086.013</ele>
        <time>2021-07-31T12:17:16Z</time>
      </trkpt>
      <trkpt lat="40.811856" lon="-3.883060">
        <ele>2085.643</ele>
        <time>2021-07-31T12:17:21Z</time>
      </trkpt>
      <trkpt lat="40.811878" lon="-3.883055">
        <ele>2084.907</ele>
        <time>2021-07-31T12:17:26Z</time>
      </trkpt>
      <trkpt lat="40.811901" lon="-3.883055">
        <ele>2084.208</ele>
        <time>2021-07-31T12:17:29Z</time>
      </trkpt>
      <trkpt lat="40.811904" lon="-3.883028">
        <ele>2084.138</ele>
        <time>2021-07-31T12:17:32Z</time>
      </trkpt>
      <trkpt lat="40.811920" lon="-3.883012">
        <ele>2083.540</ele>
        <time>2021-07-31T12:17:35Z</time>
      </trkpt>
      <trkpt lat="40.811939" lon="-3.883002">
        <ele>2083.067</ele>
        <time>2021-07-31T12:17:41Z</time>
      </trkpt>
      <trkpt lat="40.811962" lon="-3.883006">
        <ele>2082.524</ele>
        <time>2021-07-31T12:17:44Z</time>
      </trkpt>
      <trkpt lat="40.811981" lon="-3.883006">
        <ele>2082.146</ele>
        <time>2021-07-31T12:17:46Z</time>
      </trkpt>
      <trkpt lat="40.812013" lon="-3.882993">
        <ele>2081.373</ele>
        <time>2021-07-31T12:17:49Z</time>
      </trkpt>
      <trkpt lat="40.812032" lon="-3.882995">
        <ele>2081.093</ele>
        <time>2021-07-31T12:17:51Z</time>
      </trkpt>
      <trkpt lat="40.812051" lon="-3.882988">
        <ele>2080.581</ele>
        <time>2021-07-31T12:17:54Z</time>
      </trkpt>
      <trkpt lat="40.812064" lon="-3.882968">
        <ele>2080.299</ele>
        <time>2021-07-31T12:17:57Z</time>
      </trkpt>
      <trkpt lat="40.812090" lon="-3.882958">
        <ele>2079.707</ele>
        <time>2021-07-31T12:18:00Z</time>
      </trkpt>
      <trkpt lat="40.812115" lon="-3.882960">
        <ele>2079.227</ele>
        <time>2021-07-31T12:18:03Z</time>
      </trkpt>
      <trkpt lat="40.812141" lon="-3.882965">
        <ele>2078.708</ele>
        <time>2021-07-31T12:18:05Z</time>
      </trkpt>
      <trkpt lat="40.812160" lon="-3.882970">
        <ele>2078.316</ele>
        <time>2021-07-31T12:18:07Z</time>
      </trkpt>
      <trkpt lat="40.812182" lon="-3.882970">
        <ele>2077.898</ele>
        <time>2021-07-31T12:18:10Z</time>
      </trkpt>
      <trkpt lat="40.812205" lon="-3.882968">
        <ele>2077.495</ele>
        <time>2021-07-31T12:18:12Z</time>
      </trkpt>
      <trkpt lat="40.812218" lon="-3.882940">
        <ele>2077.112</ele>
        <time>2021-07-31T12:18:15Z</time>
      </trkpt>
      <trkpt lat="40.812224" lon="-3.882915">
        <ele>2077.014</ele>
        <time>2021-07-31T12:18:17Z</time>
      </trkpt>
      <trkpt lat="40.812250" lon="-3.882903">
        <ele>2076.321</ele>
        <time>2021-07-31T12:18:20Z</time>
      </trkpt>
      <trkpt lat="40.812272" lon="-3.882903">
        <ele>2075.721</ele>
        <time>2021-07-31T12:18:23Z</time>
      </trkpt>
      <trkpt lat="40.812291" lon="-3.882893">
        <ele>2075.339</ele>
        <time>2021-07-31T12:18:25Z</time>
      </trkpt>
      <trkpt lat="40.812310" lon="-3.882878">
        <ele>2074.839</ele>
        <time>2021-07-31T12:18:28Z</time>
      </trkpt>
      <trkpt lat="40.812330" lon="-3.882868">
        <ele>2074.301</ele>
        <time>2021-07-31T12:18:31Z</time>
      </trkpt>
      <trkpt lat="40.812349" lon="-3.882863">
        <ele>2073.821</ele>
        <time>2021-07-31T12:18:33Z</time>
      </trkpt>
      <trkpt lat="40.812368" lon="-3.882850">
        <ele>2073.308</ele>
        <time>2021-07-31T12:18:36Z</time>
      </trkpt>
      <trkpt lat="40.812394" lon="-3.882852">
        <ele>2072.720</ele>
        <time>2021-07-31T12:18:40Z</time>
      </trkpt>
      <trkpt lat="40.812410" lon="-3.882836">
        <ele>2072.352</ele>
        <time>2021-07-31T12:18:43Z</time>
      </trkpt>
      <trkpt lat="40.812429" lon="-3.882820">
        <ele>2071.889</ele>
        <time>2021-07-31T12:18:46Z</time>
      </trkpt>
      <trkpt lat="40.812448" lon="-3.882810">
        <ele>2071.366</ele>
        <time>2021-07-31T12:18:49Z</time>
      </trkpt>
      <trkpt lat="40.812467" lon="-3.882798">
        <ele>2070.888</ele>
        <time>2021-07-31T12:18:51Z</time>
      </trkpt>
      <trkpt lat="40.812496" lon="-3.882787">
        <ele>2070.155</ele>
        <time>2021-07-31T12:18:54Z</time>
      </trkpt>
      <trkpt lat="40.812515" lon="-3.882780">
        <ele>2069.645</ele>
        <time>2021-07-31T12:18:56Z</time>
      </trkpt>
      <trkpt lat="40.812538" lon="-3.882785">
        <ele>2069.093</ele>
        <time>2021-07-31T12:18:59Z</time>
      </trkpt>
      <trkpt lat="40.812560" lon="-3.882777">
        <ele>2068.559</ele>
        <time>2021-07-31T12:19:01Z</time>
      </trkpt>
      <trkpt lat="40.812579" lon="-3.882765">
        <ele>2068.003</ele>
        <time>2021-07-31T12:19:04Z</time>
      </trkpt>
      <trkpt lat="40.812602" lon="-3.882758">
        <ele>2067.423</ele>
        <time>2021-07-31T12:19:07Z</time>
      </trkpt>
      <trkpt lat="40.812627" lon="-3.882748">
        <ele>2066.808</ele>
        <time>2021-07-31T12:19:10Z</time>
      </trkpt>
      <trkpt lat="40.812646" lon="-3.882735">
        <ele>2066.292</ele>
        <time>2021-07-31T12:19:13Z</time>
      </trkpt>
      <trkpt lat="40.812669" lon="-3.882732">
        <ele>2065.694</ele>
        <time>2021-07-31T12:19:15Z</time>
      </trkpt>
      <trkpt lat="40.812688" lon="-3.882723">
        <ele>2065.111</ele>
        <time>2021-07-31T12:19:26Z</time>
      </trkpt>
      <trkpt lat="40.812707" lon="-3.882723">
        <ele>2064.628</ele>
        <time>2021-07-31T12:19:29Z</time>
      </trkpt>
      <trkpt lat="40.812730" lon="-3.882715">
        <ele>2064.050</ele>
        <time>2021-07-31T12:19:33Z</time>
      </trkpt>
      <trkpt lat="40.812749" lon="-3.882710">
        <ele>2063.597</ele>
        <time>2021-07-31T12:19:35Z</time>
      </trkpt>
      <trkpt lat="40.812765" lon="-3.882722">
        <ele>2063.197</ele>
        <time>2021-07-31T12:19:37Z</time>
      </trkpt>
      <trkpt lat="40.812774" lon="-3.882747">
        <ele>2063.095</ele>
        <time>2021-07-31T12:19:39Z</time>
      </trkpt>
      <trkpt lat="40.812790" lon="-3.882770">
        <ele>2062.667</ele>
        <time>2021-07-31T12:19:41Z</time>
      </trkpt>
      <trkpt lat="40.812816" lon="-3.882778">
        <ele>2061.981</ele>
        <time>2021-07-31T12:19:43Z</time>
      </trkpt>
      <trkpt lat="40.812838" lon="-3.882768">
        <ele>2061.219</ele>
        <time>2021-07-31T12:19:47Z</time>
      </trkpt>
      <trkpt lat="40.812858" lon="-3.882758">
        <ele>2060.608</ele>
        <time>2021-07-31T12:19:50Z</time>
      </trkpt>
      <trkpt lat="40.812880" lon="-3.882750">
        <ele>2060.043</ele>
        <time>2021-07-31T12:19:53Z</time>
      </trkpt>
      <trkpt lat="40.812899" lon="-3.882742">
        <ele>2059.485</ele>
        <time>2021-07-31T12:19:55Z</time>
      </trkpt>
      <trkpt lat="40.812925" lon="-3.882733">
        <ele>2058.632</ele>
        <time>2021-07-31T12:19:58Z</time>
      </trkpt>
      <trkpt lat="40.812954" lon="-3.882727">
        <ele>2057.749</ele>
        <time>2021-07-31T12:20:01Z</time>
      </trkpt>
      <trkpt lat="40.812976" lon="-3.882732">
        <ele>2057.161</ele>
        <time>2021-07-31T12:20:04Z</time>
      </trkpt>
      <trkpt lat="40.813008" lon="-3.882740">
        <ele>2056.228</ele>
        <time>2021-07-31T12:20:07Z</time>
      </trkpt>
      <trkpt lat="40.813027" lon="-3.882738">
        <ele>2055.758</ele>
        <time>2021-07-31T12:20:09Z</time>
      </trkpt>
      <trkpt lat="40.813046" lon="-3.882743">
        <ele>2055.236</ele>
        <time>2021-07-31T12:20:11Z</time>
      </trkpt>
      <trkpt lat="40.813066" lon="-3.882740">
        <ele>2054.447</ele>
        <time>2021-07-31T12:20:13Z</time>
      </trkpt>
      <trkpt lat="40.813085" lon="-3.882753">
        <ele>2053.729</ele>
        <time>2021-07-31T12:20:17Z</time>
      </trkpt>
      <trkpt lat="40.813104" lon="-3.882763">
        <ele>2053.021</ele>
        <time>2021-07-31T12:20:19Z</time>
      </trkpt>
      <trkpt lat="40.813126" lon="-3.882760">
        <ele>2052.108</ele>
        <time>2021-07-31T12:20:22Z</time>
      </trkpt>
      <trkpt lat="40.813146" lon="-3.882767">
        <ele>2051.491</ele>
        <time>2021-07-31T12:20:24Z</time>
      </trkpt>
      <trkpt lat="40.813174" lon="-3.882785">
        <ele>2050.313</ele>
        <time>2021-07-31T12:20:27Z</time>
      </trkpt>
      <trkpt lat="40.813197" lon="-3.882800">
        <ele>2049.590</ele>
        <time>2021-07-31T12:20:30Z</time>
      </trkpt>
      <trkpt lat="40.813226" lon="-3.882808">
        <ele>2048.457</ele>
        <time>2021-07-31T12:20:32Z</time>
      </trkpt>
      <trkpt lat="40.813245" lon="-3.882804">
        <ele>2047.649</ele>
        <time>2021-07-31T12:20:36Z</time>
      </trkpt>
      <trkpt lat="40.813270" lon="-3.882804">
        <ele>2046.786</ele>
        <time>2021-07-31T12:20:39Z</time>
      </trkpt>
      <trkpt lat="40.813293" lon="-3.882792">
        <ele>2045.766</ele>
        <time>2021-07-31T12:20:42Z</time>
      </trkpt>
      <trkpt lat="40.813322" lon="-3.882788">
        <ele>2044.574</ele>
        <time>2021-07-31T12:20:44Z</time>
      </trkpt>
      <trkpt lat="40.813341" lon="-3.882795">
        <ele>2044.039</ele>
        <time>2021-07-31T12:20:46Z</time>
      </trkpt>
      <trkpt lat="40.813366" lon="-3.882802">
        <ele>2043.601</ele>
        <time>2021-07-31T12:20:49Z</time>
      </trkpt>
      <trkpt lat="40.813382" lon="-3.882822">
        <ele>2043.421</ele>
        <time>2021-07-31T12:20:52Z</time>
      </trkpt>
      <trkpt lat="40.813402" lon="-3.882830">
        <ele>2043.008</ele>
        <time>2021-07-31T12:20:54Z</time>
      </trkpt>
      <trkpt lat="40.813421" lon="-3.882828">
        <ele>2042.720</ele>
        <time>2021-07-31T12:20:56Z</time>
      </trkpt>
      <trkpt lat="40.813443" lon="-3.882820">
        <ele>2042.292</ele>
        <time>2021-07-31T12:20:59Z</time>
      </trkpt>
      <trkpt lat="40.813466" lon="-3.882822">
        <ele>2041.829</ele>
        <time>2021-07-31T12:21:01Z</time>
      </trkpt>
      <trkpt lat="40.813485" lon="-3.882832">
        <ele>2041.436</ele>
        <time>2021-07-31T12:21:03Z</time>
      </trkpt>
      <trkpt lat="40.813510" lon="-3.882846">
        <ele>2041.088</ele>
        <time>2021-07-31T12:21:05Z</time>
      </trkpt>
      <trkpt lat="40.813536" lon="-3.882855">
        <ele>2040.535</ele>
        <time>2021-07-31T12:21:07Z</time>
      </trkpt>
      <trkpt lat="40.813565" lon="-3.882860">
        <ele>2039.925</ele>
        <time>2021-07-31T12:21:11Z</time>
      </trkpt>
      <trkpt lat="40.813584" lon="-3.882858">
        <ele>2039.543</ele>
        <time>2021-07-31T12:21:13Z</time>
      </trkpt>
      <trkpt lat="40.813603" lon="-3.882848">
        <ele>2039.279</ele>
        <time>2021-07-31T12:21:15Z</time>
      </trkpt>
      <trkpt lat="40.813622" lon="-3.882858">
        <ele>2038.705</ele>
        <time>2021-07-31T12:21:17Z</time>
      </trkpt>
      <trkpt lat="40.813648" lon="-3.882865">
        <ele>2038.025</ele>
        <time>2021-07-31T12:21:20Z</time>
      </trkpt>
      <trkpt lat="40.813667" lon="-3.882858">
        <ele>2037.508</ele>
        <time>2021-07-31T12:21:22Z</time>
      </trkpt>
      <trkpt lat="40.813686" lon="-3.882855">
        <ele>2037.084</ele>
        <time>2021-07-31T12:21:23Z</time>
      </trkpt>
      <trkpt lat="40.813709" lon="-3.882843">
        <ele>2036.546</ele>
        <time>2021-07-31T12:21:26Z</time>
      </trkpt>
      <trkpt lat="40.813728" lon="-3.882832">
        <ele>2036.053</ele>
        <time>2021-07-31T12:21:28Z</time>
      </trkpt>
      <trkpt lat="40.813754" lon="-3.882834">
        <ele>2035.390</ele>
        <time>2021-07-31T12:21:30Z</time>
      </trkpt>
      <trkpt lat="40.813782" lon="-3.882830">
        <ele>2034.652</ele>
        <time>2021-07-31T12:21:32Z</time>
      </trkpt>
      <trkpt lat="40.813802" lon="-3.882828">
        <ele>2034.169</ele>
        <time>2021-07-31T12:21:34Z</time>
      </trkpt>
      <trkpt lat="40.813821" lon="-3.882827">
        <ele>2033.629</ele>
        <time>2021-07-31T12:21:36Z</time>
      </trkpt>
      <trkpt lat="40.813821" lon="-3.882862">
        <ele>2033.597</ele>
        <time>2021-07-31T12:21:39Z</time>
      </trkpt>
      <trkpt lat="40.813834" lon="-3.882887">
        <ele>2033.187</ele>
        <time>2021-07-31T12:21:42Z</time>
      </trkpt>
      <trkpt lat="40.813850" lon="-3.882908">
        <ele>2032.642</ele>
        <time>2021-07-31T12:21:44Z</time>
      </trkpt>
      <trkpt lat="40.813866" lon="-3.882933">
        <ele>2032.126</ele>
        <time>2021-07-31T12:21:46Z</time>
      </trkpt>
      <trkpt lat="40.813885" lon="-3.882948">
        <ele>2031.508</ele>
        <time>2021-07-31T12:21:48Z</time>
      </trkpt>
      <trkpt lat="40.813901" lon="-3.882965">
        <ele>2031.055</ele>
        <time>2021-07-31T12:21:50Z</time>
      </trkpt>
      <trkpt lat="40.813917" lon="-3.882982">
        <ele>2030.667</ele>
        <time>2021-07-31T12:21:52Z</time>
      </trkpt>
      <trkpt lat="40.813930" lon="-3.883003">
        <ele>2030.394</ele>
        <time>2021-07-31T12:21:54Z</time>
      </trkpt>
      <trkpt lat="40.813946" lon="-3.883018">
        <ele>2029.961</ele>
        <time>2021-07-31T12:21:56Z</time>
      </trkpt>
      <trkpt lat="40.813965" lon="-3.883030">
        <ele>2029.413</ele>
        <time>2021-07-31T12:21:58Z</time>
      </trkpt>
      <trkpt lat="40.813987" lon="-3.883047">
        <ele>2028.910</ele>
        <time>2021-07-31T12:22:00Z</time>
      </trkpt>
      <trkpt lat="40.814006" lon="-3.883063">
        <ele>2028.460</ele>
        <time>2021-07-31T12:22:02Z</time>
      </trkpt>
      <trkpt lat="40.814016" lon="-3.883087">
        <ele>2028.178</ele>
        <time>2021-07-31T12:22:04Z</time>
      </trkpt>
      <trkpt lat="40.814032" lon="-3.883108">
        <ele>2027.668</ele>
        <time>2021-07-31T12:22:06Z</time>
      </trkpt>
      <trkpt lat="40.814061" lon="-3.883120">
        <ele>2026.942</ele>
        <time>2021-07-31T12:22:09Z</time>
      </trkpt>
      <trkpt lat="40.814080" lon="-3.883120">
        <ele>2026.526</ele>
        <time>2021-07-31T12:22:11Z</time>
      </trkpt>
      <trkpt lat="40.814099" lon="-3.883122">
        <ele>2026.008</ele>
        <time>2021-07-31T12:22:14Z</time>
      </trkpt>
      <trkpt lat="40.814122" lon="-3.883120">
        <ele>2025.533</ele>
        <time>2021-07-31T12:22:17Z</time>
      </trkpt>
      <trkpt lat="40.814150" lon="-3.883112">
        <ele>2025.095</ele>
        <time>2021-07-31T12:22:20Z</time>
      </trkpt>
      <trkpt lat="40.814170" lon="-3.883108">
        <ele>2024.532</ele>
        <time>2021-07-31T12:22:22Z</time>
      </trkpt>
      <trkpt lat="40.814189" lon="-3.883105">
        <ele>2024.179</ele>
        <time>2021-07-31T12:22:24Z</time>
      </trkpt>
      <trkpt lat="40.814208" lon="-3.883092">
        <ele>2023.711</ele>
        <time>2021-07-31T12:22:26Z</time>
      </trkpt>
      <trkpt lat="40.814230" lon="-3.883095">
        <ele>2023.118</ele>
        <time>2021-07-31T12:22:29Z</time>
      </trkpt>
      <trkpt lat="40.814256" lon="-3.883102">
        <ele>2022.458</ele>
        <time>2021-07-31T12:22:31Z</time>
      </trkpt>
      <trkpt lat="40.814275" lon="-3.883123">
        <ele>2021.736</ele>
        <time>2021-07-31T12:22:34Z</time>
      </trkpt>
      <trkpt lat="40.814298" lon="-3.883128">
        <ele>2021.031</ele>
        <time>2021-07-31T12:22:37Z</time>
      </trkpt>
      <trkpt lat="40.814317" lon="-3.883123">
        <ele>2020.661</ele>
        <time>2021-07-31T12:22:39Z</time>
      </trkpt>
      <trkpt lat="40.814336" lon="-3.883125">
        <ele>2020.107</ele>
        <time>2021-07-31T12:22:41Z</time>
      </trkpt>
      <trkpt lat="40.814362" lon="-3.883140">
        <ele>2019.308</ele>
        <time>2021-07-31T12:22:44Z</time>
      </trkpt>
      <trkpt lat="40.814378" lon="-3.883154">
        <ele>2018.720</ele>
        <time>2021-07-31T12:22:46Z</time>
      </trkpt>
      <trkpt lat="40.814400" lon="-3.883164">
        <ele>2018.082</ele>
        <time>2021-07-31T12:22:48Z</time>
      </trkpt>
      <trkpt lat="40.814419" lon="-3.883172">
        <ele>2017.419</ele>
        <time>2021-07-31T12:22:50Z</time>
      </trkpt>
      <trkpt lat="40.814438" lon="-3.883175">
        <ele>2016.996</ele>
        <time>2021-07-31T12:22:52Z</time>
      </trkpt>
      <trkpt lat="40.814461" lon="-3.883178">
        <ele>2016.268</ele>
        <time>2021-07-31T12:22:55Z</time>
      </trkpt>
      <trkpt lat="40.814480" lon="-3.883174">
        <ele>2015.835</ele>
        <time>2021-07-31T12:22:57Z</time>
      </trkpt>
      <trkpt lat="40.814506" lon="-3.883184">
        <ele>2014.935</ele>
        <time>2021-07-31T12:23:00Z</time>
      </trkpt>
      <trkpt lat="40.814528" lon="-3.883188">
        <ele>2014.373</ele>
        <time>2021-07-31T12:23:02Z</time>
      </trkpt>
      <trkpt lat="40.814554" lon="-3.883185">
        <ele>2013.614</ele>
        <time>2021-07-31T12:23:06Z</time>
      </trkpt>
      <trkpt lat="40.814576" lon="-3.883174">
        <ele>2013.154</ele>
        <time>2021-07-31T12:23:09Z</time>
      </trkpt>
      <trkpt lat="40.814592" lon="-3.883155">
        <ele>2012.909</ele>
        <time>2021-07-31T12:23:13Z</time>
      </trkpt>
      <trkpt lat="40.814608" lon="-3.883134">
        <ele>2012.608</ele>
        <time>2021-07-31T12:23:16Z</time>
      </trkpt>
      <trkpt lat="40.814624" lon="-3.883113">
        <ele>2012.358</ele>
        <time>2021-07-31T12:23:19Z</time>
      </trkpt>
      <trkpt lat="40.814637" lon="-3.883090">
        <ele>2012.250</ele>
        <time>2021-07-31T12:23:22Z</time>
      </trkpt>
      <trkpt lat="40.814656" lon="-3.883075">
        <ele>2011.817</ele>
        <time>2021-07-31T12:23:25Z</time>
      </trkpt>
      <trkpt lat="40.814682" lon="-3.883068">
        <ele>2011.114</ele>
        <time>2021-07-31T12:23:27Z</time>
      </trkpt>
      <trkpt lat="40.814701" lon="-3.883055">
        <ele>2010.656</ele>
        <time>2021-07-31T12:23:29Z</time>
      </trkpt>
      <trkpt lat="40.814717" lon="-3.883030">
        <ele>2010.193</ele>
        <time>2021-07-31T12:23:32Z</time>
      </trkpt>
      <trkpt lat="40.814739" lon="-3.883023">
        <ele>2009.483</ele>
        <time>2021-07-31T12:23:34Z</time>
      </trkpt>
      <trkpt lat="40.814762" lon="-3.883016">
        <ele>2008.751</ele>
        <time>2021-07-31T12:23:36Z</time>
      </trkpt>
      <trkpt lat="40.814784" lon="-3.883008">
        <ele>2008.198</ele>
        <time>2021-07-31T12:23:38Z</time>
      </trkpt>
      <trkpt lat="40.814803" lon="-3.882988">
        <ele>2007.515</ele>
        <time>2021-07-31T12:23:41Z</time>
      </trkpt>
      <trkpt lat="40.814822" lon="-3.882986">
        <ele>2007.026</ele>
        <time>2021-07-31T12:23:44Z</time>
      </trkpt>
      <trkpt lat="40.814851" lon="-3.882972">
        <ele>2006.108</ele>
        <time>2021-07-31T12:23:47Z</time>
      </trkpt>
      <trkpt lat="40.814877" lon="-3.882955">
        <ele>2005.456</ele>
        <time>2021-07-31T12:23:49Z</time>
      </trkpt>
      <trkpt lat="40.814893" lon="-3.882933">
        <ele>2004.988</ele>
        <time>2021-07-31T12:23:52Z</time>
      </trkpt>
      <trkpt lat="40.814915" lon="-3.882930">
        <ele>2004.395</ele>
        <time>2021-07-31T12:23:54Z</time>
      </trkpt>
      <trkpt lat="40.814941" lon="-3.882932">
        <ele>2003.622</ele>
        <time>2021-07-31T12:23:56Z</time>
      </trkpt>
      <trkpt lat="40.814960" lon="-3.882922">
        <ele>2003.194</ele>
        <time>2021-07-31T12:23:58Z</time>
      </trkpt>
      <trkpt lat="40.814973" lon="-3.882900">
        <ele>2002.791</ele>
        <time>2021-07-31T12:24:00Z</time>
      </trkpt>
      <trkpt lat="40.814995" lon="-3.882890">
        <ele>2002.141</ele>
        <time>2021-07-31T12:24:03Z</time>
      </trkpt>
      <trkpt lat="40.815011" lon="-3.882877">
        <ele>2001.749</ele>
        <time>2021-07-31T12:24:05Z</time>
      </trkpt>
      <trkpt lat="40.815030" lon="-3.882868">
        <ele>2001.161</ele>
        <time>2021-07-31T12:24:07Z</time>
      </trkpt>
      <trkpt lat="40.815053" lon="-3.882863">
        <ele>2000.521</ele>
        <time>2021-07-31T12:24:10Z</time>
      </trkpt>
      <trkpt lat="40.815072" lon="-3.882862">
        <ele>1999.913</ele>
        <time>2021-07-31T12:24:12Z</time>
      </trkpt>
      <trkpt lat="40.815085" lon="-3.882845">
        <ele>1999.608</ele>
        <time>2021-07-31T12:24:14Z</time>
      </trkpt>
      <trkpt lat="40.815101" lon="-3.882822">
        <ele>1999.173</ele>
        <time>2021-07-31T12:24:17Z</time>
      </trkpt>
      <trkpt lat="40.815123" lon="-3.882812">
        <ele>1998.525</ele>
        <time>2021-07-31T12:24:20Z</time>
      </trkpt>
      <trkpt lat="40.815142" lon="-3.882807">
        <ele>1997.942</ele>
        <time>2021-07-31T12:24:23Z</time>
      </trkpt>
      <trkpt lat="40.815168" lon="-3.882802">
        <ele>1997.239</ele>
        <time>2021-07-31T12:24:25Z</time>
      </trkpt>
      <trkpt lat="40.815194" lon="-3.882808">
        <ele>1996.461</ele>
        <time>2021-07-31T12:24:27Z</time>
      </trkpt>
      <trkpt lat="40.815219" lon="-3.882812">
        <ele>1995.788</ele>
        <time>2021-07-31T12:24:29Z</time>
      </trkpt>
      <trkpt lat="40.815248" lon="-3.882810">
        <ele>1994.968</ele>
        <time>2021-07-31T12:24:32Z</time>
      </trkpt>
      <trkpt lat="40.815267" lon="-3.882795">
        <ele>1994.366</ele>
        <time>2021-07-31T12:24:34Z</time>
      </trkpt>
      <trkpt lat="40.815283" lon="-3.882782">
        <ele>1993.947</ele>
        <time>2021-07-31T12:24:36Z</time>
      </trkpt>
      <trkpt lat="40.815296" lon="-3.882763">
        <ele>1993.629</ele>
        <time>2021-07-31T12:24:38Z</time>
      </trkpt>
      <trkpt lat="40.815299" lon="-3.882735">
        <ele>1993.421</ele>
        <time>2021-07-31T12:24:41Z</time>
      </trkpt>
      <trkpt lat="40.815318" lon="-3.882712">
        <ele>1992.908</ele>
        <time>2021-07-31T12:24:44Z</time>
      </trkpt>
      <trkpt lat="40.815338" lon="-3.882705">
        <ele>1992.421</ele>
        <time>2021-07-31T12:24:46Z</time>
      </trkpt>
      <trkpt lat="40.815366" lon="-3.882707">
        <ele>1991.813</ele>
        <time>2021-07-31T12:24:48Z</time>
      </trkpt>
      <trkpt lat="40.815392" lon="-3.882698">
        <ele>1991.250</ele>
        <time>2021-07-31T12:24:51Z</time>
      </trkpt>
      <trkpt lat="40.815418" lon="-3.882698">
        <ele>1990.777</ele>
        <time>2021-07-31T12:24:54Z</time>
      </trkpt>
      <trkpt lat="40.815434" lon="-3.882680">
        <ele>1990.339</ele>
        <time>2021-07-31T12:24:57Z</time>
      </trkpt>
      <trkpt lat="40.815456" lon="-3.882668">
        <ele>1989.876</ele>
        <time>2021-07-31T12:24:59Z</time>
      </trkpt>
      <trkpt lat="40.815472" lon="-3.882655">
        <ele>1989.486</ele>
        <time>2021-07-31T12:25:01Z</time>
      </trkpt>
      <trkpt lat="40.815507" lon="-3.882638">
        <ele>1988.584</ele>
        <time>2021-07-31T12:26:08Z</time>
      </trkpt>
      <trkpt lat="40.815533" lon="-3.882640">
        <ele>1988.089</ele>
        <time>2021-07-31T12:26:10Z</time>
      </trkpt>
      <trkpt lat="40.815558" lon="-3.882630">
        <ele>1987.406</ele>
        <time>2021-07-31T12:26:12Z</time>
      </trkpt>
      <trkpt lat="40.815590" lon="-3.882620">
        <ele>1986.726</ele>
        <time>2021-07-31T12:26:14Z</time>
      </trkpt>
      <trkpt lat="40.815619" lon="-3.882620">
        <ele>1986.108</ele>
        <time>2021-07-31T12:26:16Z</time>
      </trkpt>
      <trkpt lat="40.815645" lon="-3.882622">
        <ele>1985.575</ele>
        <time>2021-07-31T12:26:18Z</time>
      </trkpt>
      <trkpt lat="40.815667" lon="-3.882633">
        <ele>1985.127</ele>
        <time>2021-07-31T12:26:20Z</time>
      </trkpt>
      <trkpt lat="40.815696" lon="-3.882643">
        <ele>1984.544</ele>
        <time>2021-07-31T12:26:23Z</time>
      </trkpt>
      <trkpt lat="40.815715" lon="-3.882643">
        <ele>1984.121</ele>
        <time>2021-07-31T12:26:25Z</time>
      </trkpt>
      <trkpt lat="40.815734" lon="-3.882632">
        <ele>1983.693</ele>
        <time>2021-07-31T12:26:27Z</time>
      </trkpt>
      <trkpt lat="40.815750" lon="-3.882620">
        <ele>1983.260</ele>
        <time>2021-07-31T12:26:29Z</time>
      </trkpt>
      <trkpt lat="40.815773" lon="-3.882612">
        <ele>1982.740</ele>
        <time>2021-07-31T12:26:31Z</time>
      </trkpt>
      <trkpt lat="40.815795" lon="-3.882598">
        <ele>1982.248</ele>
        <time>2021-07-31T12:26:33Z</time>
      </trkpt>
      <trkpt lat="40.815811" lon="-3.882582">
        <ele>1981.881</ele>
        <time>2021-07-31T12:26:35Z</time>
      </trkpt>
      <trkpt lat="40.815830" lon="-3.882555">
        <ele>1981.361</ele>
        <time>2021-07-31T12:26:38Z</time>
      </trkpt>
      <trkpt lat="40.815846" lon="-3.882542">
        <ele>1980.917</ele>
        <time>2021-07-31T12:26:40Z</time>
      </trkpt>
      <trkpt lat="40.815866" lon="-3.882523">
        <ele>1980.408</ele>
        <time>2021-07-31T12:26:42Z</time>
      </trkpt>
      <trkpt lat="40.815872" lon="-3.882498">
        <ele>1980.255</ele>
        <time>2021-07-31T12:26:44Z</time>
      </trkpt>
      <trkpt lat="40.815888" lon="-3.882483">
        <ele>1979.857</ele>
        <time>2021-07-31T12:26:46Z</time>
      </trkpt>
      <trkpt lat="40.815907" lon="-3.882468">
        <ele>1979.484</ele>
        <time>2021-07-31T12:26:48Z</time>
      </trkpt>
      <trkpt lat="40.815923" lon="-3.882450">
        <ele>1979.071</ele>
        <time>2021-07-31T12:26:50Z</time>
      </trkpt>
      <trkpt lat="40.815933" lon="-3.882427">
        <ele>1978.833</ele>
        <time>2021-07-31T12:26:52Z</time>
      </trkpt>
      <trkpt lat="40.815949" lon="-3.882412">
        <ele>1978.470</ele>
        <time>2021-07-31T12:26:53Z</time>
      </trkpt>
      <trkpt lat="40.815968" lon="-3.882387">
        <ele>1977.970</ele>
        <time>2021-07-31T12:26:55Z</time>
      </trkpt>
      <trkpt lat="40.815987" lon="-3.882380">
        <ele>1977.428</ele>
        <time>2021-07-31T12:26:58Z</time>
      </trkpt>
      <trkpt lat="40.816010" lon="-3.882388">
        <ele>1976.951</ele>
        <time>2021-07-31T12:27:00Z</time>
      </trkpt>
      <trkpt lat="40.816026" lon="-3.882400">
        <ele>1976.601</ele>
        <time>2021-07-31T12:27:05Z</time>
      </trkpt>
      <trkpt lat="40.816035" lon="-3.882432">
        <ele>1976.511</ele>
        <time>2021-07-31T12:27:08Z</time>
      </trkpt>
      <trkpt lat="40.816051" lon="-3.882444">
        <ele>1976.108</ele>
        <time>2021-07-31T12:27:09Z</time>
      </trkpt>
      <trkpt lat="40.816070" lon="-3.882454">
        <ele>1975.732</ele>
        <time>2021-07-31T12:27:11Z</time>
      </trkpt>
      <trkpt lat="40.816090" lon="-3.882457">
        <ele>1975.344</ele>
        <time>2021-07-31T12:27:13Z</time>
      </trkpt>
      <trkpt lat="40.816109" lon="-3.882455">
        <ele>1974.951</ele>
        <time>2021-07-31T12:27:15Z</time>
      </trkpt>
      <trkpt lat="40.816128" lon="-3.882445">
        <ele>1974.618</ele>
        <time>2021-07-31T12:27:17Z</time>
      </trkpt>
      <trkpt lat="40.816147" lon="-3.882427">
        <ele>1974.220</ele>
        <time>2021-07-31T12:27:19Z</time>
      </trkpt>
      <trkpt lat="40.816170" lon="-3.882395">
        <ele>1973.847</ele>
        <time>2021-07-31T12:27:22Z</time>
      </trkpt>
      <trkpt lat="40.816186" lon="-3.882367">
        <ele>1973.487</ele>
        <time>2021-07-31T12:27:24Z</time>
      </trkpt>
      <trkpt lat="40.816205" lon="-3.882343">
        <ele>1973.155</ele>
        <time>2021-07-31T12:27:26Z</time>
      </trkpt>
      <trkpt lat="40.816224" lon="-3.882323">
        <ele>1972.717</ele>
        <time>2021-07-31T12:27:28Z</time>
      </trkpt>
      <trkpt lat="40.816240" lon="-3.882303">
        <ele>1972.487</ele>
        <time>2021-07-31T12:27:30Z</time>
      </trkpt>
      <trkpt lat="40.816266" lon="-3.882290">
        <ele>1972.015</ele>
        <time>2021-07-31T12:27:33Z</time>
      </trkpt>
      <trkpt lat="40.816285" lon="-3.882288">
        <ele>1971.708</ele>
        <time>2021-07-31T12:27:35Z</time>
      </trkpt>
      <trkpt lat="40.816304" lon="-3.882286">
        <ele>1971.558</ele>
        <time>2021-07-31T12:27:37Z</time>
      </trkpt>
      <trkpt lat="40.816326" lon="-3.882290">
        <ele>1971.240</ele>
        <time>2021-07-31T12:27:39Z</time>
      </trkpt>
      <trkpt lat="40.816352" lon="-3.882292">
        <ele>1970.817</ele>
        <time>2021-07-31T12:27:41Z</time>
      </trkpt>
      <trkpt lat="40.816371" lon="-3.882298">
        <ele>1970.544</ele>
        <time>2021-07-31T12:27:43Z</time>
      </trkpt>
      <trkpt lat="40.816406" lon="-3.882315">
        <ele>1970.066</ele>
        <time>2021-07-31T12:27:46Z</time>
      </trkpt>
      <trkpt lat="40.816426" lon="-3.882320">
        <ele>1969.623</ele>
        <time>2021-07-31T12:27:48Z</time>
      </trkpt>
      <trkpt lat="40.816445" lon="-3.882315">
        <ele>1969.383</ele>
        <time>2021-07-31T12:27:50Z</time>
      </trkpt>
      <trkpt lat="40.816470" lon="-3.882316">
        <ele>1968.821</ele>
        <time>2021-07-31T12:27:52Z</time>
      </trkpt>
      <trkpt lat="40.816493" lon="-3.882316">
        <ele>1968.355</ele>
        <time>2021-07-31T12:27:54Z</time>
      </trkpt>
      <trkpt lat="40.816518" lon="-3.882315">
        <ele>1967.907</ele>
        <time>2021-07-31T12:27:56Z</time>
      </trkpt>
      <trkpt lat="40.816544" lon="-3.882330">
        <ele>1967.417</ele>
        <time>2021-07-31T12:27:59Z</time>
      </trkpt>
      <trkpt lat="40.816566" lon="-3.882343">
        <ele>1967.008</ele>
        <time>2021-07-31T12:28:01Z</time>
      </trkpt>
      <trkpt lat="40.816586" lon="-3.882347">
        <ele>1966.692</ele>
        <time>2021-07-31T12:28:03Z</time>
      </trkpt>
      <trkpt lat="40.816605" lon="-3.882347">
        <ele>1966.264</ele>
        <time>2021-07-31T12:28:05Z</time>
      </trkpt>
      <trkpt lat="40.816627" lon="-3.882343">
        <ele>1965.831</ele>
        <time>2021-07-31T12:28:07Z</time>
      </trkpt>
      <trkpt lat="40.816646" lon="-3.882330">
        <ele>1965.418</ele>
        <time>2021-07-31T12:28:09Z</time>
      </trkpt>
      <trkpt lat="40.816666" lon="-3.882316">
        <ele>1965.080</ele>
        <time>2021-07-31T12:28:11Z</time>
      </trkpt>
      <trkpt lat="40.816685" lon="-3.882296">
        <ele>1964.717</ele>
        <time>2021-07-31T12:28:14Z</time>
      </trkpt>
      <trkpt lat="40.816707" lon="-3.882286">
        <ele>1964.317</ele>
        <time>2021-07-31T12:28:17Z</time>
      </trkpt>
      <trkpt lat="40.816730" lon="-3.882278">
        <ele>1963.965</ele>
        <time>2021-07-31T12:28:19Z</time>
      </trkpt>
      <trkpt lat="40.816752" lon="-3.882266">
        <ele>1963.518</ele>
        <time>2021-07-31T12:28:22Z</time>
      </trkpt>
      <trkpt lat="40.816771" lon="-3.882276">
        <ele>1963.198</ele>
        <time>2021-07-31T12:28:24Z</time>
      </trkpt>
      <trkpt lat="40.816790" lon="-3.882276">
        <ele>1962.817</ele>
        <time>2021-07-31T12:28:26Z</time>
      </trkpt>
      <trkpt lat="40.816810" lon="-3.882272">
        <ele>1962.408</ele>
        <time>2021-07-31T12:28:28Z</time>
      </trkpt>
      <trkpt lat="40.816829" lon="-3.882272">
        <ele>1962.188</ele>
        <time>2021-07-31T12:28:30Z</time>
      </trkpt>
      <trkpt lat="40.816851" lon="-3.882272">
        <ele>1961.750</ele>
        <time>2021-07-31T12:28:32Z</time>
      </trkpt>
      <trkpt lat="40.816870" lon="-3.882276">
        <ele>1961.387</ele>
        <time>2021-07-31T12:28:34Z</time>
      </trkpt>
      <trkpt lat="40.816890" lon="-3.882282">
        <ele>1961.024</ele>
        <time>2021-07-31T12:28:36Z</time>
      </trkpt>
      <trkpt lat="40.816906" lon="-3.882270">
        <ele>1960.756</ele>
        <time>2021-07-31T12:28:38Z</time>
      </trkpt>
      <trkpt lat="40.816925" lon="-3.882264">
        <ele>1960.343</ele>
        <time>2021-07-31T12:28:41Z</time>
      </trkpt>
      <trkpt lat="40.816944" lon="-3.882265">
        <ele>1960.083</ele>
        <time>2021-07-31T12:28:43Z</time>
      </trkpt>
      <trkpt lat="40.816963" lon="-3.882270">
        <ele>1959.571</ele>
        <time>2021-07-31T12:28:45Z</time>
      </trkpt>
      <trkpt lat="40.816989" lon="-3.882270">
        <ele>1958.717</ele>
        <time>2021-07-31T12:28:48Z</time>
      </trkpt>
      <trkpt lat="40.817002" lon="-3.882250">
        <ele>1958.387</ele>
        <time>2021-07-31T12:28:50Z</time>
      </trkpt>
      <trkpt lat="40.817018" lon="-3.882230">
        <ele>1957.915</ele>
        <time>2021-07-31T12:28:53Z</time>
      </trkpt>
      <trkpt lat="40.817040" lon="-3.882212">
        <ele>1957.208</ele>
        <time>2021-07-31T12:28:57Z</time>
      </trkpt>
      <trkpt lat="40.817069" lon="-3.882217">
        <ele>1956.428</ele>
        <time>2021-07-31T12:29:00Z</time>
      </trkpt>
      <trkpt lat="40.817098" lon="-3.882212">
        <ele>1955.590</ele>
        <time>2021-07-31T12:29:03Z</time>
      </trkpt>
      <trkpt lat="40.817117" lon="-3.882210">
        <ele>1955.037</ele>
        <time>2021-07-31T12:29:05Z</time>
      </trkpt>
      <trkpt lat="40.817136" lon="-3.882203">
        <ele>1954.414</ele>
        <time>2021-07-31T12:29:09Z</time>
      </trkpt>
      <trkpt lat="40.817142" lon="-3.882230">
        <ele>1954.326</ele>
        <time>2021-07-31T12:29:14Z</time>
      </trkpt>
      <trkpt lat="40.817162" lon="-3.882255">
        <ele>1953.793</ele>
        <time>2021-07-31T12:29:17Z</time>
      </trkpt>
      <trkpt lat="40.817178" lon="-3.882270">
        <ele>1953.393</ele>
        <time>2021-07-31T12:29:19Z</time>
      </trkpt>
      <trkpt lat="40.817200" lon="-3.882273">
        <ele>1952.621</ele>
        <time>2021-07-31T12:29:22Z</time>
      </trkpt>
      <trkpt lat="40.817219" lon="-3.882278">
        <ele>1952.149</ele>
        <time>2021-07-31T12:29:24Z</time>
      </trkpt>
      <trkpt lat="40.817242" lon="-3.882276">
        <ele>1951.502</ele>
        <time>2021-07-31T12:29:27Z</time>
      </trkpt>
      <trkpt lat="40.817258" lon="-3.882264">
        <ele>1951.122</ele>
        <time>2021-07-31T12:29:29Z</time>
      </trkpt>
      <trkpt lat="40.817264" lon="-3.882240">
        <ele>1951.008</ele>
        <time>2021-07-31T12:29:31Z</time>
      </trkpt>
      <trkpt lat="40.817280" lon="-3.882218">
        <ele>1950.541</ele>
        <time>2021-07-31T12:29:34Z</time>
      </trkpt>
      <trkpt lat="40.817293" lon="-3.882197">
        <ele>1950.113</ele>
        <time>2021-07-31T12:29:37Z</time>
      </trkpt>
      <trkpt lat="40.817315" lon="-3.882178">
        <ele>1949.620</ele>
        <time>2021-07-31T12:29:40Z</time>
      </trkpt>
      <trkpt lat="40.817334" lon="-3.882170">
        <ele>1949.197</ele>
        <time>2021-07-31T12:29:42Z</time>
      </trkpt>
      <trkpt lat="40.817354" lon="-3.882148">
        <ele>1948.569</ele>
        <time>2021-07-31T12:29:45Z</time>
      </trkpt>
      <trkpt lat="40.817373" lon="-3.882133">
        <ele>1948.196</ele>
        <time>2021-07-31T12:29:48Z</time>
      </trkpt>
      <trkpt lat="40.817395" lon="-3.882132">
        <ele>1947.576</ele>
        <time>2021-07-31T12:29:51Z</time>
      </trkpt>
      <trkpt lat="40.817421" lon="-3.882133">
        <ele>1946.964</ele>
        <time>2021-07-31T12:29:53Z</time>
      </trkpt>
      <trkpt lat="40.817443" lon="-3.882120">
        <ele>1946.498</ele>
        <time>2021-07-31T12:29:56Z</time>
      </trkpt>
      <trkpt lat="40.817462" lon="-3.882102">
        <ele>1945.915</ele>
        <time>2021-07-31T12:29:59Z</time>
      </trkpt>
      <trkpt lat="40.817472" lon="-3.882075">
        <ele>1945.726</ele>
        <time>2021-07-31T12:30:01Z</time>
      </trkpt>
      <trkpt lat="40.817491" lon="-3.882043">
        <ele>1945.208</ele>
        <time>2021-07-31T12:30:03Z</time>
      </trkpt>
      <trkpt lat="40.817504" lon="-3.882025">
        <ele>1944.976</ele>
        <time>2021-07-31T12:30:05Z</time>
      </trkpt>
      <trkpt lat="40.817520" lon="-3.882008">
        <ele>1944.618</ele>
        <time>2021-07-31T12:30:07Z</time>
      </trkpt>
      <trkpt lat="40.817539" lon="-3.882002">
        <ele>1944.165</ele>
        <time>2021-07-31T12:30:09Z</time>
      </trkpt>
      <trkpt lat="40.817558" lon="-3.881990">
        <ele>1943.752</ele>
        <time>2021-07-31T12:30:12Z</time>
      </trkpt>
      <trkpt lat="40.817578" lon="-3.881988">
        <ele>1943.344</ele>
        <time>2021-07-31T12:30:14Z</time>
      </trkpt>
      <trkpt lat="40.817606" lon="-3.881983">
        <ele>1942.781</ele>
        <time>2021-07-31T12:30:16Z</time>
      </trkpt>
      <trkpt lat="40.817626" lon="-3.881968">
        <ele>1942.211</ele>
        <time>2021-07-31T12:30:18Z</time>
      </trkpt>
      <trkpt lat="40.817651" lon="-3.881950">
        <ele>1941.769</ele>
        <time>2021-07-31T12:30:21Z</time>
      </trkpt>
      <trkpt lat="40.817670" lon="-3.881936">
        <ele>1941.367</ele>
        <time>2021-07-31T12:30:23Z</time>
      </trkpt>
      <trkpt lat="40.817696" lon="-3.881926">
        <ele>1940.781</ele>
        <time>2021-07-31T12:30:26Z</time>
      </trkpt>
      <trkpt lat="40.817718" lon="-3.881930">
        <ele>1940.219</ele>
        <time>2021-07-31T12:30:28Z</time>
      </trkpt>
      <trkpt lat="40.817738" lon="-3.881933">
        <ele>1939.808</ele>
        <time>2021-07-31T12:30:30Z</time>
      </trkpt>
      <trkpt lat="40.817757" lon="-3.881926">
        <ele>1939.453</ele>
        <time>2021-07-31T12:30:32Z</time>
      </trkpt>
      <trkpt lat="40.817776" lon="-3.881918">
        <ele>1938.985</ele>
        <time>2021-07-31T12:30:34Z</time>
      </trkpt>
      <trkpt lat="40.817795" lon="-3.881910">
        <ele>1938.582</ele>
        <time>2021-07-31T12:30:36Z</time>
      </trkpt>
      <trkpt lat="40.817811" lon="-3.881898">
        <ele>1938.099</ele>
        <time>2021-07-31T12:30:38Z</time>
      </trkpt>
      <trkpt lat="40.817834" lon="-3.881890">
        <ele>1937.451</ele>
        <time>2021-07-31T12:30:45Z</time>
      </trkpt>
      <trkpt lat="40.817856" lon="-3.881880">
        <ele>1936.918</ele>
        <time>2021-07-31T12:30:48Z</time>
      </trkpt>
      <trkpt lat="40.817862" lon="-3.881855">
        <ele>1936.738</ele>
        <time>2021-07-31T12:30:51Z</time>
      </trkpt>
      <trkpt lat="40.817875" lon="-3.881833">
        <ele>1936.336</ele>
        <time>2021-07-31T12:30:53Z</time>
      </trkpt>
      <trkpt lat="40.817882" lon="-3.881808">
        <ele>1936.168</ele>
        <time>2021-07-31T12:30:56Z</time>
      </trkpt>
      <trkpt lat="40.817901" lon="-3.881800">
        <ele>1935.642</ele>
        <time>2021-07-31T12:30:59Z</time>
      </trkpt>
      <trkpt lat="40.817920" lon="-3.881785">
        <ele>1935.126</ele>
        <time>2021-07-31T12:31:01Z</time>
      </trkpt>
      <trkpt lat="40.817949" lon="-3.881785">
        <ele>1934.508</ele>
        <time>2021-07-31T12:31:04Z</time>
      </trkpt>
      <trkpt lat="40.817978" lon="-3.881782">
        <ele>1933.853</ele>
        <time>2021-07-31T12:31:06Z</time>
      </trkpt>
      <trkpt lat="40.817997" lon="-3.881777">
        <ele>1933.355</ele>
        <time>2021-07-31T12:31:08Z</time>
      </trkpt>
      <trkpt lat="40.818019" lon="-3.881768">
        <ele>1932.862</ele>
        <time>2021-07-31T12:31:12Z</time>
      </trkpt>
      <trkpt lat="40.818038" lon="-3.881765">
        <ele>1932.499</ele>
        <time>2021-07-31T12:31:15Z</time>
      </trkpt>
      <trkpt lat="40.818058" lon="-3.881754">
        <ele>1931.971</ele>
        <time>2021-07-31T12:31:17Z</time>
      </trkpt>
      <trkpt lat="40.818080" lon="-3.881732">
        <ele>1931.448</ele>
        <time>2021-07-31T12:31:21Z</time>
      </trkpt>
      <trkpt lat="40.818102" lon="-3.881730">
        <ele>1930.818</ele>
        <time>2021-07-31T12:31:24Z</time>
      </trkpt>
      <trkpt lat="40.818128" lon="-3.881740">
        <ele>1930.186</ele>
        <time>2021-07-31T12:31:27Z</time>
      </trkpt>
      <trkpt lat="40.818150" lon="-3.881748">
        <ele>1929.547</ele>
        <time>2021-07-31T12:31:30Z</time>
      </trkpt>
      <trkpt lat="40.818170" lon="-3.881742">
        <ele>1929.029</ele>
        <time>2021-07-31T12:31:33Z</time>
      </trkpt>
      <trkpt lat="40.818189" lon="-3.881742">
        <ele>1928.521</ele>
        <time>2021-07-31T12:31:35Z</time>
      </trkpt>
      <trkpt lat="40.818208" lon="-3.881744">
        <ele>1928.008</ele>
        <time>2021-07-31T12:31:37Z</time>
      </trkpt>
      <trkpt lat="40.818230" lon="-3.881744">
        <ele>1927.461</ele>
        <time>2021-07-31T12:31:39Z</time>
      </trkpt>
      <trkpt lat="40.818250" lon="-3.881742">
        <ele>1926.913</ele>
        <time>2021-07-31T12:31:41Z</time>
      </trkpt>
      <trkpt lat="40.818269" lon="-3.881745">
        <ele>1926.480</ele>
        <time>2021-07-31T12:31:43Z</time>
      </trkpt>
      <trkpt lat="40.818288" lon="-3.881738">
        <ele>1925.997</ele>
        <time>2021-07-31T12:31:53Z</time>
      </trkpt>
      <trkpt lat="40.818307" lon="-3.881734">
        <ele>1925.459</ele>
        <time>2021-07-31T12:32:32Z</time>
      </trkpt>
      <trkpt lat="40.818333" lon="-3.881722">
        <ele>1924.816</ele>
        <time>2021-07-31T12:32:34Z</time>
      </trkpt>
      <trkpt lat="40.818355" lon="-3.881708">
        <ele>1924.476</ele>
        <time>2021-07-31T12:32:36Z</time>
      </trkpt>
      <trkpt lat="40.818390" lon="-3.881695">
        <ele>1923.714</ele>
        <time>2021-07-31T12:32:38Z</time>
      </trkpt>
      <trkpt lat="40.818410" lon="-3.881692">
        <ele>1923.391</ele>
        <time>2021-07-31T12:32:39Z</time>
      </trkpt>
      <trkpt lat="40.818435" lon="-3.881680">
        <ele>1922.881</ele>
        <time>2021-07-31T12:32:41Z</time>
      </trkpt>
      <trkpt lat="40.818458" lon="-3.881660">
        <ele>1922.319</ele>
        <time>2021-07-31T12:32:44Z</time>
      </trkpt>
      <trkpt lat="40.818480" lon="-3.881643">
        <ele>1921.708</ele>
        <time>2021-07-31T12:32:47Z</time>
      </trkpt>
      <trkpt lat="40.818499" lon="-3.881632">
        <ele>1921.256</ele>
        <time>2021-07-31T12:32:49Z</time>
      </trkpt>
      <trkpt lat="40.818525" lon="-3.881618">
        <ele>1920.628</ele>
        <time>2021-07-31T12:32:51Z</time>
      </trkpt>
      <trkpt lat="40.818538" lon="-3.881598">
        <ele>1920.265</ele>
        <time>2021-07-31T12:32:53Z</time>
      </trkpt>
      <trkpt lat="40.818554" lon="-3.881586">
        <ele>1919.782</ele>
        <time>2021-07-31T12:32:55Z</time>
      </trkpt>
      <trkpt lat="40.818573" lon="-3.881568">
        <ele>1919.284</ele>
        <time>2021-07-31T12:32:58Z</time>
      </trkpt>
      <trkpt lat="40.818589" lon="-3.881548">
        <ele>1918.721</ele>
        <time>2021-07-31T12:33:01Z</time>
      </trkpt>
      <trkpt lat="40.818598" lon="-3.881525">
        <ele>1918.361</ele>
        <time>2021-07-31T12:33:03Z</time>
      </trkpt>
      <trkpt lat="40.818611" lon="-3.881508">
        <ele>1917.929</ele>
        <time>2021-07-31T12:33:05Z</time>
      </trkpt>
      <trkpt lat="40.818627" lon="-3.881495">
        <ele>1917.526</ele>
        <time>2021-07-31T12:33:07Z</time>
      </trkpt>
      <trkpt lat="40.818650" lon="-3.881480">
        <ele>1916.947</ele>
        <time>2021-07-31T12:33:10Z</time>
      </trkpt>
      <trkpt lat="40.818656" lon="-3.881477">
        <ele>1916.811</ele>
        <time>2021-07-31T12:33:11Z</time>
      </trkpt>
      <trkpt lat="40.818710" lon="-3.881458">
        <ele>1915.608</ele>
        <time>2021-07-31T12:33:16Z</time>
      </trkpt>
      <trkpt lat="40.818746" lon="-3.881458">
        <ele>1914.919</ele>
        <time>2021-07-31T12:33:17Z</time>
      </trkpt>
      <trkpt lat="40.818765" lon="-3.881445">
        <ele>1914.571</ele>
        <time>2021-07-31T12:33:19Z</time>
      </trkpt>
      <trkpt lat="40.818784" lon="-3.881427">
        <ele>1914.168</ele>
        <time>2021-07-31T12:33:21Z</time>
      </trkpt>
      <trkpt lat="40.818803" lon="-3.881414">
        <ele>1913.745</ele>
        <time>2021-07-31T12:33:23Z</time>
      </trkpt>
      <trkpt lat="40.818822" lon="-3.881397">
        <ele>1913.217</ele>
        <time>2021-07-31T12:33:26Z</time>
      </trkpt>
      <trkpt lat="40.818842" lon="-3.881394">
        <ele>1912.964</ele>
        <time>2021-07-31T12:33:28Z</time>
      </trkpt>
      <trkpt lat="40.818858" lon="-3.881378">
        <ele>1912.594</ele>
        <time>2021-07-31T12:33:31Z</time>
      </trkpt>
      <trkpt lat="40.818877" lon="-3.881374">
        <ele>1912.292</ele>
        <time>2021-07-31T12:33:33Z</time>
      </trkpt>
      <trkpt lat="40.818896" lon="-3.881374">
        <ele>1911.857</ele>
        <time>2021-07-31T12:33:36Z</time>
      </trkpt>
      <trkpt lat="40.818922" lon="-3.881352">
        <ele>1911.100</ele>
        <time>2021-07-31T12:33:39Z</time>
      </trkpt>
      <trkpt lat="40.818947" lon="-3.881337">
        <ele>1910.520</ele>
        <time>2021-07-31T12:33:42Z</time>
      </trkpt>
      <trkpt lat="40.818970" lon="-3.881322">
        <ele>1909.908</ele>
        <time>2021-07-31T12:33:44Z</time>
      </trkpt>
      <trkpt lat="40.818989" lon="-3.881307">
        <ele>1909.482</ele>
        <time>2021-07-31T12:33:46Z</time>
      </trkpt>
      <trkpt lat="40.818992" lon="-3.881282">
        <ele>1909.254</ele>
        <time>2021-07-31T12:33:48Z</time>
      </trkpt>
      <trkpt lat="40.819008" lon="-3.881270">
        <ele>1908.881</ele>
        <time>2021-07-31T12:33:50Z</time>
      </trkpt>
      <trkpt lat="40.819027" lon="-3.881263">
        <ele>1908.318</ele>
        <time>2021-07-31T12:33:52Z</time>
      </trkpt>
      <trkpt lat="40.819046" lon="-3.881260">
        <ele>1907.930</ele>
        <time>2021-07-31T12:33:54Z</time>
      </trkpt>
      <trkpt lat="40.819066" lon="-3.881248">
        <ele>1907.347</ele>
        <time>2021-07-31T12:33:56Z</time>
      </trkpt>
      <trkpt lat="40.819085" lon="-3.881240">
        <ele>1906.817</ele>
        <time>2021-07-31T12:33:58Z</time>
      </trkpt>
      <trkpt lat="40.819107" lon="-3.881215">
        <ele>1906.225</ele>
        <time>2021-07-31T12:34:01Z</time>
      </trkpt>
      <trkpt lat="40.819123" lon="-3.881198">
        <ele>1905.778</ele>
        <time>2021-07-31T12:34:03Z</time>
      </trkpt>
      <trkpt lat="40.819136" lon="-3.881170">
        <ele>1905.233</ele>
        <time>2021-07-31T12:34:06Z</time>
      </trkpt>
      <trkpt lat="40.819162" lon="-3.881153">
        <ele>1904.426</ele>
        <time>2021-07-31T12:34:09Z</time>
      </trkpt>
      <trkpt lat="40.819184" lon="-3.881132">
        <ele>1903.908</ele>
        <time>2021-07-31T12:34:12Z</time>
      </trkpt>
      <trkpt lat="40.819200" lon="-3.881102">
        <ele>1903.514</ele>
        <time>2021-07-31T12:34:15Z</time>
      </trkpt>
      <trkpt lat="40.819213" lon="-3.881072">
        <ele>1903.276</ele>
        <time>2021-07-31T12:34:18Z</time>
      </trkpt>
      <trkpt lat="40.819226" lon="-3.881040">
        <ele>1902.813</ele>
        <time>2021-07-31T12:34:22Z</time>
      </trkpt>
      <trkpt lat="40.819232" lon="-3.881015">
        <ele>1902.660</ele>
        <time>2021-07-31T12:34:25Z</time>
      </trkpt>
      <trkpt lat="40.819251" lon="-3.880995">
        <ele>1902.272</ele>
        <time>2021-07-31T12:34:29Z</time>
      </trkpt>
      <trkpt lat="40.819264" lon="-3.880978">
        <ele>1902.029</ele>
        <time>2021-07-31T12:34:32Z</time>
      </trkpt>
      <trkpt lat="40.819283" lon="-3.880960">
        <ele>1901.649</ele>
        <time>2021-07-31T12:34:35Z</time>
      </trkpt>
      <trkpt lat="40.819306" lon="-3.880947">
        <ele>1901.187</ele>
        <time>2021-07-31T12:34:38Z</time>
      </trkpt>
      <trkpt lat="40.819322" lon="-3.880927">
        <ele>1900.722</ele>
        <time>2021-07-31T12:34:41Z</time>
      </trkpt>
      <trkpt lat="40.819331" lon="-3.880902">
        <ele>1900.462</ele>
        <time>2021-07-31T12:34:44Z</time>
      </trkpt>
      <trkpt lat="40.819354" lon="-3.880878">
        <ele>1899.908</ele>
        <time>2021-07-31T12:34:47Z</time>
      </trkpt>
      <trkpt lat="40.819373" lon="-3.880870">
        <ele>1899.508</ele>
        <time>2021-07-31T12:34:49Z</time>
      </trkpt>
      <trkpt lat="40.819389" lon="-3.880852">
        <ele>1899.149</ele>
        <time>2021-07-31T12:34:52Z</time>
      </trkpt>
      <trkpt lat="40.819408" lon="-3.880833">
        <ele>1898.721</ele>
        <time>2021-07-31T12:34:55Z</time>
      </trkpt>
      <trkpt lat="40.819421" lon="-3.880813">
        <ele>1898.338</ele>
        <time>2021-07-31T12:34:58Z</time>
      </trkpt>
      <trkpt lat="40.819443" lon="-3.880827">
        <ele>1898.035</ele>
        <time>2021-07-31T12:35:02Z</time>
      </trkpt>
      <trkpt lat="40.819466" lon="-3.880818">
        <ele>1897.487</ele>
        <time>2021-07-31T12:35:05Z</time>
      </trkpt>
      <trkpt lat="40.819485" lon="-3.880813">
        <ele>1897.014</ele>
        <time>2021-07-31T12:35:07Z</time>
      </trkpt>
      <trkpt lat="40.819510" lon="-3.880818">
        <ele>1896.544</ele>
        <time>2021-07-31T12:35:09Z</time>
      </trkpt>
      <trkpt lat="40.819530" lon="-3.880823">
        <ele>1896.122</ele>
        <time>2021-07-31T12:35:11Z</time>
      </trkpt>
      <trkpt lat="40.819552" lon="-3.880828">
        <ele>1895.659</ele>
        <time>2021-07-31T12:35:13Z</time>
      </trkpt>
      <trkpt lat="40.819578" lon="-3.880825">
        <ele>1895.103</ele>
        <time>2021-07-31T12:35:15Z</time>
      </trkpt>
      <trkpt lat="40.819600" lon="-3.880805">
        <ele>1894.523</ele>
        <time>2021-07-31T12:35:18Z</time>
      </trkpt>
      <trkpt lat="40.819619" lon="-3.880790">
        <ele>1894.008</ele>
        <time>2021-07-31T12:35:20Z</time>
      </trkpt>
      <trkpt lat="40.819626" lon="-3.880765">
        <ele>1893.792</ele>
        <time>2021-07-31T12:35:22Z</time>
      </trkpt>
      <trkpt lat="40.819645" lon="-3.880747">
        <ele>1893.344</ele>
        <time>2021-07-31T12:35:25Z</time>
      </trkpt>
      <trkpt lat="40.819661" lon="-3.880725">
        <ele>1892.811</ele>
        <time>2021-07-31T12:35:27Z</time>
      </trkpt>
      <trkpt lat="40.819670" lon="-3.880702">
        <ele>1892.618</ele>
        <time>2021-07-31T12:35:29Z</time>
      </trkpt>
      <trkpt lat="40.819686" lon="-3.880688">
        <ele>1892.210</ele>
        <time>2021-07-31T12:35:31Z</time>
      </trkpt>
      <trkpt lat="40.819702" lon="-3.880677">
        <ele>1891.847</ele>
        <time>2021-07-31T12:35:33Z</time>
      </trkpt>
      <trkpt lat="40.819728" lon="-3.880667">
        <ele>1891.357</ele>
        <time>2021-07-31T12:35:36Z</time>
      </trkpt>
      <trkpt lat="40.819757" lon="-3.880663">
        <ele>1890.715</ele>
        <time>2021-07-31T12:35:39Z</time>
      </trkpt>
      <trkpt lat="40.819776" lon="-3.880660">
        <ele>1890.388</ele>
        <time>2021-07-31T12:35:41Z</time>
      </trkpt>
      <trkpt lat="40.819798" lon="-3.880655">
        <ele>1889.824</ele>
        <time>2021-07-31T12:35:44Z</time>
      </trkpt>
      <trkpt lat="40.819818" lon="-3.880653">
        <ele>1889.426</ele>
        <time>2021-07-31T12:35:46Z</time>
      </trkpt>
      <trkpt lat="40.819840" lon="-3.880638">
        <ele>1888.908</ele>
        <time>2021-07-31T12:35:50Z</time>
      </trkpt>
      <trkpt lat="40.819856" lon="-3.880625">
        <ele>1888.545</ele>
        <time>2021-07-31T12:35:52Z</time>
      </trkpt>
      <trkpt lat="40.819878" lon="-3.880618">
        <ele>1888.067</ele>
        <time>2021-07-31T12:35:54Z</time>
      </trkpt>
      <trkpt lat="40.819901" lon="-3.880597">
        <ele>1887.454</ele>
        <time>2021-07-31T12:35:57Z</time>
      </trkpt>
      <trkpt lat="40.819920" lon="-3.880583">
        <ele>1886.931</ele>
        <time>2021-07-31T12:35:59Z</time>
      </trkpt>
      <trkpt lat="40.819936" lon="-3.880558">
        <ele>1886.493</ele>
        <time>2021-07-31T12:36:02Z</time>
      </trkpt>
      <trkpt lat="40.819958" lon="-3.880542">
        <ele>1885.860</ele>
        <time>2021-07-31T12:36:05Z</time>
      </trkpt>
      <trkpt lat="40.819974" lon="-3.880530">
        <ele>1885.420</ele>
        <time>2021-07-31T12:36:07Z</time>
      </trkpt>
      <trkpt lat="40.820000" lon="-3.880513">
        <ele>1884.758</ele>
        <time>2021-07-31T12:36:10Z</time>
      </trkpt>
      <trkpt lat="40.820016" lon="-3.880497">
        <ele>1884.438</ele>
        <time>2021-07-31T12:36:12Z</time>
      </trkpt>
      <trkpt lat="40.820029" lon="-3.880478">
        <ele>1884.270</ele>
        <time>2021-07-31T12:36:14Z</time>
      </trkpt>
      <trkpt lat="40.820042" lon="-3.880460">
        <ele>1883.917</ele>
        <time>2021-07-31T12:36:16Z</time>
      </trkpt>
      <trkpt lat="40.820061" lon="-3.880448">
        <ele>1883.708</ele>
        <time>2021-07-31T12:36:18Z</time>
      </trkpt>
      <trkpt lat="40.820080" lon="-3.880437">
        <ele>1883.490</ele>
        <time>2021-07-31T12:36:20Z</time>
      </trkpt>
      <trkpt lat="40.820102" lon="-3.880427">
        <ele>1883.152</ele>
        <time>2021-07-31T12:36:23Z</time>
      </trkpt>
      <trkpt lat="40.820122" lon="-3.880422">
        <ele>1882.999</ele>
        <time>2021-07-31T12:36:25Z</time>
      </trkpt>
      <trkpt lat="40.820144" lon="-3.880415">
        <ele>1882.766</ele>
        <time>2021-07-31T12:36:27Z</time>
      </trkpt>
      <trkpt lat="40.820166" lon="-3.880403">
        <ele>1882.428</ele>
        <time>2021-07-31T12:36:30Z</time>
      </trkpt>
      <trkpt lat="40.820182" lon="-3.880390">
        <ele>1882.265</ele>
        <time>2021-07-31T12:36:32Z</time>
      </trkpt>
      <trkpt lat="40.820202" lon="-3.880372">
        <ele>1882.025</ele>
        <time>2021-07-31T12:36:34Z</time>
      </trkpt>
      <trkpt lat="40.820214" lon="-3.880347">
        <ele>1881.873</ele>
        <time>2021-07-31T12:36:37Z</time>
      </trkpt>
      <trkpt lat="40.820234" lon="-3.880322">
        <ele>1881.576</ele>
        <time>2021-07-31T12:36:40Z</time>
      </trkpt>
      <trkpt lat="40.820253" lon="-3.880297">
        <ele>1881.390</ele>
        <time>2021-07-31T12:36:43Z</time>
      </trkpt>
      <trkpt lat="40.820266" lon="-3.880268">
        <ele>1881.019</ele>
        <time>2021-07-31T12:36:46Z</time>
      </trkpt>
      <trkpt lat="40.820282" lon="-3.880248">
        <ele>1880.608</ele>
        <time>2021-07-31T12:36:48Z</time>
      </trkpt>
      <trkpt lat="40.820294" lon="-3.880227">
        <ele>1880.124</ele>
        <time>2021-07-31T12:36:50Z</time>
      </trkpt>
      <trkpt lat="40.820304" lon="-3.880200">
        <ele>1879.616</ele>
        <time>2021-07-31T12:36:53Z</time>
      </trkpt>
      <trkpt lat="40.820317" lon="-3.880178">
        <ele>1879.123</ele>
        <time>2021-07-31T12:36:55Z</time>
      </trkpt>
      <trkpt lat="40.820333" lon="-3.880160">
        <ele>1878.620</ele>
        <time>2021-07-31T12:36:58Z</time>
      </trkpt>
      <trkpt lat="40.820342" lon="-3.880138">
        <ele>1878.292</ele>
        <time>2021-07-31T12:37:00Z</time>
      </trkpt>
      <trkpt lat="40.820355" lon="-3.880108">
        <ele>1877.729</ele>
        <time>2021-07-31T12:37:03Z</time>
      </trkpt>
      <trkpt lat="40.820371" lon="-3.880088">
        <ele>1877.219</ele>
        <time>2021-07-31T12:37:05Z</time>
      </trkpt>
      <trkpt lat="40.820400" lon="-3.880062">
        <ele>1876.457</ele>
        <time>2021-07-31T12:37:08Z</time>
      </trkpt>
      <trkpt lat="40.820413" lon="-3.880040">
        <ele>1875.933</ele>
        <time>2021-07-31T12:37:10Z</time>
      </trkpt>
      <trkpt lat="40.820426" lon="-3.880012">
        <ele>1875.423</ele>
        <time>2021-07-31T12:37:13Z</time>
      </trkpt>
      <trkpt lat="40.820442" lon="-3.879990">
        <ele>1874.915</ele>
        <time>2021-07-31T12:37:16Z</time>
      </trkpt>
      <trkpt lat="40.820470" lon="-3.879980">
        <ele>1874.408</ele>
        <time>2021-07-31T12:37:18Z</time>
      </trkpt>
      <trkpt lat="40.820496" lon="-3.879967">
        <ele>1873.850</ele>
        <time>2021-07-31T12:37:21Z</time>
      </trkpt>
      <trkpt lat="40.820518" lon="-3.879945">
        <ele>1873.252</ele>
        <time>2021-07-31T12:37:24Z</time>
      </trkpt>
      <trkpt lat="40.820522" lon="-3.879922">
        <ele>1873.069</ele>
        <time>2021-07-31T12:37:26Z</time>
      </trkpt>
      <trkpt lat="40.820531" lon="-3.879898">
        <ele>1872.626</ele>
        <time>2021-07-31T12:37:28Z</time>
      </trkpt>
      <trkpt lat="40.820544" lon="-3.879872">
        <ele>1872.298</ele>
        <time>2021-07-31T12:37:30Z</time>
      </trkpt>
      <trkpt lat="40.820557" lon="-3.879852">
        <ele>1871.975</ele>
        <time>2021-07-31T12:37:32Z</time>
      </trkpt>
      <trkpt lat="40.820573" lon="-3.879830">
        <ele>1871.515</ele>
        <time>2021-07-31T12:37:34Z</time>
      </trkpt>
      <trkpt lat="40.820595" lon="-3.879808">
        <ele>1871.173</ele>
        <time>2021-07-31T12:37:37Z</time>
      </trkpt>
      <trkpt lat="40.820618" lon="-3.879797">
        <ele>1870.728</ele>
        <time>2021-07-31T12:37:39Z</time>
      </trkpt>
      <trkpt lat="40.820637" lon="-3.879788">
        <ele>1870.489</ele>
        <time>2021-07-31T12:37:41Z</time>
      </trkpt>
      <trkpt lat="40.820656" lon="-3.879768">
        <ele>1869.917</ele>
        <time>2021-07-31T12:37:44Z</time>
      </trkpt>
      <trkpt lat="40.820669" lon="-3.879750">
        <ele>1869.608</ele>
        <time>2021-07-31T12:37:46Z</time>
      </trkpt>
      <trkpt lat="40.820675" lon="-3.879712">
        <ele>1869.269</ele>
        <time>2021-07-31T12:37:49Z</time>
      </trkpt>
      <trkpt lat="40.820685" lon="-3.879690">
        <ele>1868.891</ele>
        <time>2021-07-31T12:37:51Z</time>
      </trkpt>
      <trkpt lat="40.820701" lon="-3.879670">
        <ele>1868.318</ele>
        <time>2021-07-31T12:37:53Z</time>
      </trkpt>
      <trkpt lat="40.820717" lon="-3.879648">
        <ele>1867.945</ele>
        <time>2021-07-31T12:37:55Z</time>
      </trkpt>
      <trkpt lat="40.820733" lon="-3.879622">
        <ele>1867.427</ele>
        <time>2021-07-31T12:37:58Z</time>
      </trkpt>
      <trkpt lat="40.820749" lon="-3.879605">
        <ele>1866.964</ele>
        <time>2021-07-31T12:38:00Z</time>
      </trkpt>
      <trkpt lat="40.820771" lon="-3.879585">
        <ele>1866.454</ele>
        <time>2021-07-31T12:38:03Z</time>
      </trkpt>
      <trkpt lat="40.820794" lon="-3.879568">
        <ele>1865.942</ele>
        <time>2021-07-31T12:38:05Z</time>
      </trkpt>
      <trkpt lat="40.820810" lon="-3.879552">
        <ele>1865.522</ele>
        <time>2021-07-31T12:38:07Z</time>
      </trkpt>
      <trkpt lat="40.820829" lon="-3.879528">
        <ele>1865.062</ele>
        <time>2021-07-31T12:38:10Z</time>
      </trkpt>
      <trkpt lat="40.820848" lon="-3.879503">
        <ele>1864.508</ele>
        <time>2021-07-31T12:38:13Z</time>
      </trkpt>
      <trkpt lat="40.820870" lon="-3.879482">
        <ele>1864.008</ele>
        <time>2021-07-31T12:38:16Z</time>
      </trkpt>
      <trkpt lat="40.820893" lon="-3.879462">
        <ele>1863.559</ele>
        <time>2021-07-31T12:38:19Z</time>
      </trkpt>
      <trkpt lat="40.820915" lon="-3.879445">
        <ele>1863.161</ele>
        <time>2021-07-31T12:38:21Z</time>
      </trkpt>
      <trkpt lat="40.820931" lon="-3.879423">
        <ele>1862.728</ele>
        <time>2021-07-31T12:38:24Z</time>
      </trkpt>
      <trkpt lat="40.820947" lon="-3.879393">
        <ele>1862.335</ele>
        <time>2021-07-31T12:38:27Z</time>
      </trkpt>
      <trkpt lat="40.820960" lon="-3.879365">
        <ele>1861.937</ele>
        <time>2021-07-31T12:38:30Z</time>
      </trkpt>
      <trkpt lat="40.820966" lon="-3.879338">
        <ele>1861.614</ele>
        <time>2021-07-31T12:38:33Z</time>
      </trkpt>
      <trkpt lat="40.820979" lon="-3.879320">
        <ele>1861.344</ele>
        <time>2021-07-31T12:38:56Z</time>
      </trkpt>
      <trkpt lat="40.820998" lon="-3.879297">
        <ele>1860.972</ele>
        <time>2021-07-31T12:38:58Z</time>
      </trkpt>
      <trkpt lat="40.821034" lon="-3.879277">
        <ele>1860.538</ele>
        <time>2021-07-31T12:39:00Z</time>
      </trkpt>
      <trkpt lat="40.821050" lon="-3.879264">
        <ele>1860.270</ele>
        <time>2021-07-31T12:39:01Z</time>
      </trkpt>
      <trkpt lat="40.821072" lon="-3.879242">
        <ele>1859.917</ele>
        <time>2021-07-31T12:39:03Z</time>
      </trkpt>
      <trkpt lat="40.821088" lon="-3.879215">
        <ele>1859.508</ele>
        <time>2021-07-31T12:39:05Z</time>
      </trkpt>
      <trkpt lat="40.821101" lon="-3.879187">
        <ele>1859.220</ele>
        <time>2021-07-31T12:39:08Z</time>
      </trkpt>
      <trkpt lat="40.821117" lon="-3.879167">
        <ele>1858.922</ele>
        <time>2021-07-31T12:39:11Z</time>
      </trkpt>
      <trkpt lat="40.821139" lon="-3.879160">
        <ele>1858.559</ele>
        <time>2021-07-31T12:39:13Z</time>
      </trkpt>
      <trkpt lat="40.821158" lon="-3.879150">
        <ele>1858.026</ele>
        <time>2021-07-31T12:39:15Z</time>
      </trkpt>
      <trkpt lat="40.821178" lon="-3.879143">
        <ele>1857.778</ele>
        <time>2021-07-31T12:39:17Z</time>
      </trkpt>
      <trkpt lat="40.821194" lon="-3.879125">
        <ele>1857.195</ele>
        <time>2021-07-31T12:39:19Z</time>
      </trkpt>
      <trkpt lat="40.821210" lon="-3.879104">
        <ele>1856.695</ele>
        <time>2021-07-31T12:39:21Z</time>
      </trkpt>
      <trkpt lat="40.821226" lon="-3.879088">
        <ele>1856.263</ele>
        <time>2021-07-31T12:39:23Z</time>
      </trkpt>
      <trkpt lat="40.821245" lon="-3.879060">
        <ele>1855.555</ele>
        <time>2021-07-31T12:39:25Z</time>
      </trkpt>
      <trkpt lat="40.821251" lon="-3.879032">
        <ele>1855.007</ele>
        <time>2021-07-31T12:39:30Z</time>
      </trkpt>
      <trkpt lat="40.821258" lon="-3.878998">
        <ele>1854.517</ele>
        <time>2021-07-31T12:39:33Z</time>
      </trkpt>
      <trkpt lat="40.821274" lon="-3.878985">
        <ele>1854.208</ele>
        <time>2021-07-31T12:39:38Z</time>
      </trkpt>
      <trkpt lat="40.821290" lon="-3.878970">
        <ele>1853.862</ele>
        <time>2021-07-31T12:39:40Z</time>
      </trkpt>
      <trkpt lat="40.821306" lon="-3.878948">
        <ele>1853.474</ele>
        <time>2021-07-31T12:39:43Z</time>
      </trkpt>
      <trkpt lat="40.821328" lon="-3.878938">
        <ele>1853.091</ele>
        <time>2021-07-31T12:39:45Z</time>
      </trkpt>
      <trkpt lat="40.821350" lon="-3.878928">
        <ele>1852.738</ele>
        <time>2021-07-31T12:39:48Z</time>
      </trkpt>
      <trkpt lat="40.821376" lon="-3.878918">
        <ele>1852.460</ele>
        <time>2021-07-31T12:39:52Z</time>
      </trkpt>
      <trkpt lat="40.821389" lon="-3.878900">
        <ele>1852.167</ele>
        <time>2021-07-31T12:39:54Z</time>
      </trkpt>
      <trkpt lat="40.821379" lon="-3.878867">
        <ele>1851.847</ele>
        <time>2021-07-31T12:39:58Z</time>
      </trkpt>
      <trkpt lat="40.821392" lon="-3.878847">
        <ele>1851.445</ele>
        <time>2021-07-31T12:40:00Z</time>
      </trkpt>
      <trkpt lat="40.821414" lon="-3.878835">
        <ele>1851.028</ele>
        <time>2021-07-31T12:40:03Z</time>
      </trkpt>
      <trkpt lat="40.821434" lon="-3.878820">
        <ele>1850.589</ele>
        <time>2021-07-31T12:40:06Z</time>
      </trkpt>
      <trkpt lat="40.821446" lon="-3.878796">
        <ele>1850.017</ele>
        <time>2021-07-31T12:40:08Z</time>
      </trkpt>
      <trkpt lat="40.821459" lon="-3.878770">
        <ele>1849.508</ele>
        <time>2021-07-31T12:40:11Z</time>
      </trkpt>
      <trkpt lat="40.821475" lon="-3.878748">
        <ele>1849.079</ele>
        <time>2021-07-31T12:40:13Z</time>
      </trkpt>
      <trkpt lat="40.821491" lon="-3.878717">
        <ele>1848.431</ele>
        <time>2021-07-31T12:40:16Z</time>
      </trkpt>
      <trkpt lat="40.821504" lon="-3.878697">
        <ele>1848.048</ele>
        <time>2021-07-31T12:40:18Z</time>
      </trkpt>
      <trkpt lat="40.821507" lon="-3.878672">
        <ele>1847.635</ele>
        <time>2021-07-31T12:40:20Z</time>
      </trkpt>
      <trkpt lat="40.821526" lon="-3.878655">
        <ele>1847.227</ele>
        <time>2021-07-31T12:40:22Z</time>
      </trkpt>
      <trkpt lat="40.821549" lon="-3.878638">
        <ele>1846.784</ele>
        <time>2021-07-31T12:40:24Z</time>
      </trkpt>
      <trkpt lat="40.821571" lon="-3.878622">
        <ele>1846.274</ele>
        <time>2021-07-31T12:40:27Z</time>
      </trkpt>
      <trkpt lat="40.821587" lon="-3.878604">
        <ele>1845.832</ele>
        <time>2021-07-31T12:40:29Z</time>
      </trkpt>
      <trkpt lat="40.821610" lon="-3.878598">
        <ele>1845.478</ele>
        <time>2021-07-31T12:40:31Z</time>
      </trkpt>
      <trkpt lat="40.821632" lon="-3.878588">
        <ele>1845.033</ele>
        <time>2021-07-31T12:40:33Z</time>
      </trkpt>
      <trkpt lat="40.821651" lon="-3.878574">
        <ele>1844.626</ele>
        <time>2021-07-31T12:40:35Z</time>
      </trkpt>
      <trkpt lat="40.821667" lon="-3.878550">
        <ele>1844.108</ele>
        <time>2021-07-31T12:40:38Z</time>
      </trkpt>
      <trkpt lat="40.821683" lon="-3.878533">
        <ele>1843.614</ele>
        <time>2021-07-31T12:40:40Z</time>
      </trkpt>
      <trkpt lat="40.821706" lon="-3.878512">
        <ele>1842.996</ele>
        <time>2021-07-31T12:40:42Z</time>
      </trkpt>
      <trkpt lat="40.821709" lon="-3.878487">
        <ele>1842.583</ele>
        <time>2021-07-31T12:40:44Z</time>
      </trkpt>
      <trkpt lat="40.821722" lon="-3.878467">
        <ele>1842.040</ele>
        <time>2021-07-31T12:40:46Z</time>
      </trkpt>
      <trkpt lat="40.821738" lon="-3.878443">
        <ele>1841.542</ele>
        <time>2021-07-31T12:40:48Z</time>
      </trkpt>
      <trkpt lat="40.821744" lon="-3.878418">
        <ele>1841.099</ele>
        <time>2021-07-31T12:40:50Z</time>
      </trkpt>
      <trkpt lat="40.821750" lon="-3.878392">
        <ele>1840.699</ele>
        <time>2021-07-31T12:40:52Z</time>
      </trkpt>
      <trkpt lat="40.821757" lon="-3.878360">
        <ele>1840.167</ele>
        <time>2021-07-31T12:40:54Z</time>
      </trkpt>
      <trkpt lat="40.821770" lon="-3.878337">
        <ele>1839.617</ele>
        <time>2021-07-31T12:40:56Z</time>
      </trkpt>
      <trkpt lat="40.821786" lon="-3.878318">
        <ele>1839.087</ele>
        <time>2021-07-31T12:40:58Z</time>
      </trkpt>
      <trkpt lat="40.821802" lon="-3.878300">
        <ele>1838.515</ele>
        <time>2021-07-31T12:41:00Z</time>
      </trkpt>
      <trkpt lat="40.821811" lon="-3.878278">
        <ele>1838.008</ele>
        <time>2021-07-31T12:41:03Z</time>
      </trkpt>
      <trkpt lat="40.821827" lon="-3.878264">
        <ele>1837.638</ele>
        <time>2021-07-31T12:41:09Z</time>
      </trkpt>
      <trkpt lat="40.821846" lon="-3.878252">
        <ele>1837.130</ele>
        <time>2021-07-31T12:41:11Z</time>
      </trkpt>
      <trkpt lat="40.821862" lon="-3.878224">
        <ele>1836.557</ele>
        <time>2021-07-31T12:41:14Z</time>
      </trkpt>
      <trkpt lat="40.821853" lon="-3.878192">
        <ele>1836.194</ele>
        <time>2021-07-31T12:41:16Z</time>
      </trkpt>
      <trkpt lat="40.821843" lon="-3.878163">
        <ele>1835.846</ele>
        <time>2021-07-31T12:41:18Z</time>
      </trkpt>
      <trkpt lat="40.821843" lon="-3.878137">
        <ele>1835.493</ele>
        <time>2021-07-31T12:41:21Z</time>
      </trkpt>
      <trkpt lat="40.821850" lon="-3.878106">
        <ele>1834.863</ele>
        <time>2021-07-31T12:41:23Z</time>
      </trkpt>
      <trkpt lat="40.821866" lon="-3.878086">
        <ele>1834.351</ele>
        <time>2021-07-31T12:41:25Z</time>
      </trkpt>
      <trkpt lat="40.821872" lon="-3.878050">
        <ele>1833.761</ele>
        <time>2021-07-31T12:41:28Z</time>
      </trkpt>
      <trkpt lat="40.821888" lon="-3.878037">
        <ele>1833.421</ele>
        <time>2021-07-31T12:41:30Z</time>
      </trkpt>
      <trkpt lat="40.821914" lon="-3.878020">
        <ele>1832.913</ele>
        <time>2021-07-31T12:41:33Z</time>
      </trkpt>
      <trkpt lat="40.821930" lon="-3.877997">
        <ele>1832.508</ele>
        <time>2021-07-31T12:41:35Z</time>
      </trkpt>
      <trkpt lat="40.821936" lon="-3.877968">
        <ele>1832.183</ele>
        <time>2021-07-31T12:41:37Z</time>
      </trkpt>
      <trkpt lat="40.821949" lon="-3.877938">
        <ele>1831.795</ele>
        <time>2021-07-31T12:41:39Z</time>
      </trkpt>
      <trkpt lat="40.821965" lon="-3.877914">
        <ele>1831.172</ele>
        <time>2021-07-31T12:41:41Z</time>
      </trkpt>
      <trkpt lat="40.821974" lon="-3.877884">
        <ele>1830.729</ele>
        <time>2021-07-31T12:41:43Z</time>
      </trkpt>
      <trkpt lat="40.821987" lon="-3.877860">
        <ele>1830.291</ele>
        <time>2021-07-31T12:41:45Z</time>
      </trkpt>
      <trkpt lat="40.821994" lon="-3.877830">
        <ele>1829.898</ele>
        <time>2021-07-31T12:41:47Z</time>
      </trkpt>
      <trkpt lat="40.822010" lon="-3.877803">
        <ele>1829.348</ele>
        <time>2021-07-31T12:41:49Z</time>
      </trkpt>
      <trkpt lat="40.822029" lon="-3.877788">
        <ele>1828.926</ele>
        <time>2021-07-31T12:41:51Z</time>
      </trkpt>
      <trkpt lat="40.822045" lon="-3.877770">
        <ele>1828.549</ele>
        <time>2021-07-31T12:41:53Z</time>
      </trkpt>
      <trkpt lat="40.822061" lon="-3.877736">
        <ele>1827.802</ele>
        <time>2021-07-31T12:41:56Z</time>
      </trkpt>
      <trkpt lat="40.822083" lon="-3.877712">
        <ele>1827.322</ele>
        <time>2021-07-31T12:41:59Z</time>
      </trkpt>
      <trkpt lat="40.822093" lon="-3.877685">
        <ele>1826.908</ele>
        <time>2021-07-31T12:42:02Z</time>
      </trkpt>
      <trkpt lat="40.822106" lon="-3.877653">
        <ele>1826.451</ele>
        <time>2021-07-31T12:42:04Z</time>
      </trkpt>
      <trkpt lat="40.822122" lon="-3.877628">
        <ele>1826.033</ele>
        <time>2021-07-31T12:42:06Z</time>
      </trkpt>
      <trkpt lat="40.822128" lon="-3.877603">
        <ele>1825.770</ele>
        <time>2021-07-31T12:42:08Z</time>
      </trkpt>
      <trkpt lat="40.822134" lon="-3.877578">
        <ele>1825.427</ele>
        <time>2021-07-31T12:42:10Z</time>
      </trkpt>
      <trkpt lat="40.822144" lon="-3.877554">
        <ele>1825.129</ele>
        <time>2021-07-31T12:42:12Z</time>
      </trkpt>
      <trkpt lat="40.822163" lon="-3.877532">
        <ele>1824.796</ele>
        <time>2021-07-31T12:42:15Z</time>
      </trkpt>
      <trkpt lat="40.822179" lon="-3.877497">
        <ele>1824.346</ele>
        <time>2021-07-31T12:42:17Z</time>
      </trkpt>
      <trkpt lat="40.822189" lon="-3.877465">
        <ele>1823.924</ele>
        <time>2021-07-31T12:42:19Z</time>
      </trkpt>
      <trkpt lat="40.822202" lon="-3.877437">
        <ele>1823.594</ele>
        <time>2021-07-31T12:42:21Z</time>
      </trkpt>
      <trkpt lat="40.822208" lon="-3.877410">
        <ele>1823.157</ele>
        <time>2021-07-31T12:42:23Z</time>
      </trkpt>
      <trkpt lat="40.822221" lon="-3.877386">
        <ele>1822.822</ele>
        <time>2021-07-31T12:42:25Z</time>
      </trkpt>
      <trkpt lat="40.822246" lon="-3.877368">
        <ele>1822.308</ele>
        <time>2021-07-31T12:42:27Z</time>
      </trkpt>
      <trkpt lat="40.822269" lon="-3.877352">
        <ele>1821.896</ele>
        <time>2021-07-31T12:42:29Z</time>
      </trkpt>
      <trkpt lat="40.822278" lon="-3.877327">
        <ele>1821.568</ele>
        <time>2021-07-31T12:42:31Z</time>
      </trkpt>
      <trkpt lat="40.822288" lon="-3.877302">
        <ele>1821.125</ele>
        <time>2021-07-31T12:42:33Z</time>
      </trkpt>
      <trkpt lat="40.822307" lon="-3.877270">
        <ele>1820.582</ele>
        <time>2021-07-31T12:42:35Z</time>
      </trkpt>
      <trkpt lat="40.822310" lon="-3.877240">
        <ele>1820.274</ele>
        <time>2021-07-31T12:42:37Z</time>
      </trkpt>
      <trkpt lat="40.822320" lon="-3.877218">
        <ele>1819.931</ele>
        <time>2021-07-31T12:42:39Z</time>
      </trkpt>
      <trkpt lat="40.822333" lon="-3.877185">
        <ele>1819.691</ele>
        <time>2021-07-31T12:42:41Z</time>
      </trkpt>
      <trkpt lat="40.822346" lon="-3.877148">
        <ele>1819.229</ele>
        <time>2021-07-31T12:42:43Z</time>
      </trkpt>
      <trkpt lat="40.822358" lon="-3.877132">
        <ele>1819.062</ele>
        <time>2021-07-31T12:42:44Z</time>
      </trkpt>
      <trkpt lat="40.822365" lon="-3.877103">
        <ele>1818.883</ele>
        <time>2021-07-31T12:42:46Z</time>
      </trkpt>
      <trkpt lat="40.822381" lon="-3.877077">
        <ele>1818.511</ele>
        <time>2021-07-31T12:42:48Z</time>
      </trkpt>
      <trkpt lat="40.822400" lon="-3.877052">
        <ele>1818.208</ele>
        <time>2021-07-31T12:42:50Z</time>
      </trkpt>
      <trkpt lat="40.822413" lon="-3.877023">
        <ele>1818.063</ele>
        <time>2021-07-31T12:42:52Z</time>
      </trkpt>
      <trkpt lat="40.822422" lon="-3.877000">
        <ele>1817.855</ele>
        <time>2021-07-31T12:42:54Z</time>
      </trkpt>
      <trkpt lat="40.822438" lon="-3.876977">
        <ele>1817.642</ele>
        <time>2021-07-31T12:42:56Z</time>
      </trkpt>
      <trkpt lat="40.822458" lon="-3.876958">
        <ele>1817.459</ele>
        <time>2021-07-31T12:42:58Z</time>
      </trkpt>
      <trkpt lat="40.822470" lon="-3.876942">
        <ele>1817.281</ele>
        <time>2021-07-31T12:43:00Z</time>
      </trkpt>
      <trkpt lat="40.822499" lon="-3.876927">
        <ele>1816.958</ele>
        <time>2021-07-31T12:43:02Z</time>
      </trkpt>
      <trkpt lat="40.822518" lon="-3.876908">
        <ele>1816.678</ele>
        <time>2021-07-31T12:43:04Z</time>
      </trkpt>
      <trkpt lat="40.822538" lon="-3.876892">
        <ele>1816.276</ele>
        <time>2021-07-31T12:43:06Z</time>
      </trkpt>
      <trkpt lat="40.822557" lon="-3.876875">
        <ele>1815.912</ele>
        <time>2021-07-31T12:43:08Z</time>
      </trkpt>
      <trkpt lat="40.822576" lon="-3.876854">
        <ele>1815.632</ele>
        <time>2021-07-31T12:43:10Z</time>
      </trkpt>
      <trkpt lat="40.822586" lon="-3.876825">
        <ele>1815.305</ele>
        <time>2021-07-31T12:43:13Z</time>
      </trkpt>
      <trkpt lat="40.822605" lon="-3.876820">
        <ele>1815.108</ele>
        <time>2021-07-31T12:43:34Z</time>
      </trkpt>
      <trkpt lat="40.822624" lon="-3.876825">
        <ele>1815.088</ele>
        <time>2021-07-31T12:43:37Z</time>
      </trkpt>
      <trkpt lat="40.822643" lon="-3.876830">
        <ele>1814.840</ele>
        <time>2021-07-31T12:43:39Z</time>
      </trkpt>
      <trkpt lat="40.822669" lon="-3.876825">
        <ele>1814.657</ele>
        <time>2021-07-31T12:43:41Z</time>
      </trkpt>
      <trkpt lat="40.822698" lon="-3.876808">
        <ele>1814.264</ele>
        <time>2021-07-31T12:43:43Z</time>
      </trkpt>
      <trkpt lat="40.822707" lon="-3.876782">
        <ele>1814.016</ele>
        <time>2021-07-31T12:43:45Z</time>
      </trkpt>
      <trkpt lat="40.822723" lon="-3.876762">
        <ele>1813.873</ele>
        <time>2021-07-31T12:43:47Z</time>
      </trkpt>
      <trkpt lat="40.822746" lon="-3.876738">
        <ele>1813.563</ele>
        <time>2021-07-31T12:43:49Z</time>
      </trkpt>
      <trkpt lat="40.822762" lon="-3.876713">
        <ele>1813.351</ele>
        <time>2021-07-31T12:43:51Z</time>
      </trkpt>
      <trkpt lat="40.822774" lon="-3.876693">
        <ele>1813.171</ele>
        <time>2021-07-31T12:43:53Z</time>
      </trkpt>
      <trkpt lat="40.822797" lon="-3.876668">
        <ele>1812.841</ele>
        <time>2021-07-31T12:43:55Z</time>
      </trkpt>
      <trkpt lat="40.822806" lon="-3.876640">
        <ele>1812.615</ele>
        <time>2021-07-31T12:43:57Z</time>
      </trkpt>
      <trkpt lat="40.822816" lon="-3.876618">
        <ele>1812.408</ele>
        <time>2021-07-31T12:43:59Z</time>
      </trkpt>
      <trkpt lat="40.822829" lon="-3.876595">
        <ele>1812.294</ele>
        <time>2021-07-31T12:44:01Z</time>
      </trkpt>
      <trkpt lat="40.822842" lon="-3.876565">
        <ele>1811.976</ele>
        <time>2021-07-31T12:44:03Z</time>
      </trkpt>
      <trkpt lat="40.822854" lon="-3.876542">
        <ele>1811.773</ele>
        <time>2021-07-31T12:44:05Z</time>
      </trkpt>
      <trkpt lat="40.822877" lon="-3.876518">
        <ele>1811.410</ele>
        <time>2021-07-31T12:44:08Z</time>
      </trkpt>
      <trkpt lat="40.822902" lon="-3.876500">
        <ele>1811.192</ele>
        <time>2021-07-31T12:44:10Z</time>
      </trkpt>
      <trkpt lat="40.822922" lon="-3.876490">
        <ele>1810.889</ele>
        <time>2021-07-31T12:44:12Z</time>
      </trkpt>
      <trkpt lat="40.822941" lon="-3.876480">
        <ele>1810.689</ele>
        <time>2021-07-31T12:44:14Z</time>
      </trkpt>
      <trkpt lat="40.822963" lon="-3.876464">
        <ele>1810.377</ele>
        <time>2021-07-31T12:44:16Z</time>
      </trkpt>
      <trkpt lat="40.822986" lon="-3.876447">
        <ele>1810.095</ele>
        <time>2021-07-31T12:44:18Z</time>
      </trkpt>
      <trkpt lat="40.823005" lon="-3.876438">
        <ele>1809.749</ele>
        <time>2021-07-31T12:44:19Z</time>
      </trkpt>
      <trkpt lat="40.823024" lon="-3.876435">
        <ele>1809.523</ele>
        <time>2021-07-31T12:44:20Z</time>
      </trkpt>
      <trkpt lat="40.823046" lon="-3.876415">
        <ele>1809.208</ele>
        <time>2021-07-31T12:44:23Z</time>
      </trkpt>
      <trkpt lat="40.823046" lon="-3.876382">
        <ele>1809.126</ele>
        <time>2021-07-31T12:44:25Z</time>
      </trkpt>
      <trkpt lat="40.823062" lon="-3.876352">
        <ele>1808.838</ele>
        <time>2021-07-31T12:44:27Z</time>
      </trkpt>
      <trkpt lat="40.823075" lon="-3.876328">
        <ele>1808.435</ele>
        <time>2021-07-31T12:44:29Z</time>
      </trkpt>
      <trkpt lat="40.823082" lon="-3.876305">
        <ele>1808.382</ele>
        <time>2021-07-31T12:44:31Z</time>
      </trkpt>
      <trkpt lat="40.823098" lon="-3.876282">
        <ele>1807.924</ele>
        <time>2021-07-31T12:44:33Z</time>
      </trkpt>
      <trkpt lat="40.823114" lon="-3.876258">
        <ele>1807.661</ele>
        <time>2021-07-31T12:44:35Z</time>
      </trkpt>
      <trkpt lat="40.823126" lon="-3.876225">
        <ele>1807.361</ele>
        <time>2021-07-31T12:44:37Z</time>
      </trkpt>
      <trkpt lat="40.823139" lon="-3.876195">
        <ele>1807.029</ele>
        <time>2021-07-31T12:44:39Z</time>
      </trkpt>
      <trkpt lat="40.823158" lon="-3.876166">
        <ele>1806.769</ele>
        <time>2021-07-31T12:44:42Z</time>
      </trkpt>
      <trkpt lat="40.823184" lon="-3.876148">
        <ele>1806.204</ele>
        <time>2021-07-31T12:44:44Z</time>
      </trkpt>
      <trkpt lat="40.823194" lon="-3.876122">
        <ele>1806.024</ele>
        <time>2021-07-31T12:44:46Z</time>
      </trkpt>
      <trkpt lat="40.823213" lon="-3.876093">
        <ele>1805.608</ele>
        <time>2021-07-31T12:44:49Z</time>
      </trkpt>
      <trkpt lat="40.823226" lon="-3.876063">
        <ele>1805.353</ele>
        <time>2021-07-31T12:44:51Z</time>
      </trkpt>
      <trkpt lat="40.823238" lon="-3.876037">
        <ele>1805.095</ele>
        <time>2021-07-31T12:44:53Z</time>
      </trkpt>
      <trkpt lat="40.823251" lon="-3.876020">
        <ele>1804.892</ele>
        <time>2021-07-31T12:44:55Z</time>
      </trkpt>
      <trkpt lat="40.823274" lon="-3.876008">
        <ele>1804.469</ele>
        <time>2021-07-31T12:44:57Z</time>
      </trkpt>
      <trkpt lat="40.823286" lon="-3.875990">
        <ele>1804.211</ele>
        <time>2021-07-31T12:44:59Z</time>
      </trkpt>
      <trkpt lat="40.823299" lon="-3.875965">
        <ele>1803.948</ele>
        <time>2021-07-31T12:45:01Z</time>
      </trkpt>
      <trkpt lat="40.823315" lon="-3.875950">
        <ele>1803.678</ele>
        <time>2021-07-31T12:45:03Z</time>
      </trkpt>
      <trkpt lat="40.823338" lon="-3.875938">
        <ele>1803.326</ele>
        <time>2021-07-31T12:45:05Z</time>
      </trkpt>
      <trkpt lat="40.823363" lon="-3.875935">
        <ele>1803.089</ele>
        <time>2021-07-31T12:45:07Z</time>
      </trkpt>
      <trkpt lat="40.823382" lon="-3.875930">
        <ele>1802.806</ele>
        <time>2021-07-31T12:45:09Z</time>
      </trkpt>
      <trkpt lat="40.823411" lon="-3.875927">
        <ele>1802.426</ele>
        <time>2021-07-31T12:45:11Z</time>
      </trkpt>
      <trkpt lat="40.823437" lon="-3.875923">
        <ele>1802.108</ele>
        <time>2021-07-31T12:45:13Z</time>
      </trkpt>
      <trkpt lat="40.823462" lon="-3.875912">
        <ele>1801.815</ele>
        <time>2021-07-31T12:45:15Z</time>
      </trkpt>
      <trkpt lat="40.823485" lon="-3.875905">
        <ele>1801.567</ele>
        <time>2021-07-31T12:45:17Z</time>
      </trkpt>
      <trkpt lat="40.823501" lon="-3.875887">
        <ele>1801.344</ele>
        <time>2021-07-31T12:45:20Z</time>
      </trkpt>
      <trkpt lat="40.823520" lon="-3.875882">
        <ele>1801.081</ele>
        <time>2021-07-31T12:45:22Z</time>
      </trkpt>
      <trkpt lat="40.823542" lon="-3.875873">
        <ele>1800.893</ele>
        <time>2021-07-31T12:45:24Z</time>
      </trkpt>
      <trkpt lat="40.823571" lon="-3.875855">
        <ele>1800.420</ele>
        <time>2021-07-31T12:45:26Z</time>
      </trkpt>
      <trkpt lat="40.823597" lon="-3.875845">
        <ele>1800.290</ele>
        <time>2021-07-31T12:45:28Z</time>
      </trkpt>
      <trkpt lat="40.823629" lon="-3.875832">
        <ele>1799.568</ele>
        <time>2021-07-31T12:45:30Z</time>
      </trkpt>
      <trkpt lat="40.823648" lon="-3.875804">
        <ele>1799.012</ele>
        <time>2021-07-31T12:45:33Z</time>
      </trkpt>
      <trkpt lat="40.823674" lon="-3.875788">
        <ele>1798.332</ele>
        <time>2021-07-31T12:45:35Z</time>
      </trkpt>
      <trkpt lat="40.823699" lon="-3.875772">
        <ele>1797.605</ele>
        <time>2021-07-31T12:45:37Z</time>
      </trkpt>
      <trkpt lat="40.823712" lon="-3.875750">
        <ele>1797.208</ele>
        <time>2021-07-31T12:45:40Z</time>
      </trkpt>
      <trkpt lat="40.823738" lon="-3.875733">
        <ele>1796.438</ele>
        <time>2021-07-31T12:45:42Z</time>
      </trkpt>
      <trkpt lat="40.823747" lon="-3.875710">
        <ele>1796.150</ele>
        <time>2021-07-31T12:45:44Z</time>
      </trkpt>
      <trkpt lat="40.823757" lon="-3.875688">
        <ele>1795.877</ele>
        <time>2021-07-31T12:45:46Z</time>
      </trkpt>
      <trkpt lat="40.823776" lon="-3.875668">
        <ele>1795.284</ele>
        <time>2021-07-31T12:45:48Z</time>
      </trkpt>
      <trkpt lat="40.823789" lon="-3.875652">
        <ele>1794.996</ele>
        <time>2021-07-31T12:45:49Z</time>
      </trkpt>
      <trkpt lat="40.823808" lon="-3.875620">
        <ele>1794.373</ele>
        <time>2021-07-31T12:45:51Z</time>
      </trkpt>
      <trkpt lat="40.823830" lon="-3.875602">
        <ele>1793.783</ele>
        <time>2021-07-31T12:45:54Z</time>
      </trkpt>
      <trkpt lat="40.823853" lon="-3.875582">
        <ele>1793.021</ele>
        <time>2021-07-31T12:45:56Z</time>
      </trkpt>
      <trkpt lat="40.823875" lon="-3.875568">
        <ele>1792.473</ele>
        <time>2021-07-31T12:45:59Z</time>
      </trkpt>
      <trkpt lat="40.823898" lon="-3.875552">
        <ele>1791.885</ele>
        <time>2021-07-31T12:46:01Z</time>
      </trkpt>
      <trkpt lat="40.823926" lon="-3.875543">
        <ele>1791.013</ele>
        <time>2021-07-31T12:46:03Z</time>
      </trkpt>
      <trkpt lat="40.823946" lon="-3.875552">
        <ele>1790.508</ele>
        <time>2021-07-31T12:46:06Z</time>
      </trkpt>
      <trkpt lat="40.823958" lon="-3.875568">
        <ele>1790.314</ele>
        <time>2021-07-31T12:46:08Z</time>
      </trkpt>
      <trkpt lat="40.823978" lon="-3.875573">
        <ele>1789.866</ele>
        <time>2021-07-31T12:46:10Z</time>
      </trkpt>
      <trkpt lat="40.824000" lon="-3.875568">
        <ele>1789.283</ele>
        <time>2021-07-31T12:46:12Z</time>
      </trkpt>
      <trkpt lat="40.824019" lon="-3.875557">
        <ele>1788.740</ele>
        <time>2021-07-31T12:46:14Z</time>
      </trkpt>
      <trkpt lat="40.824048" lon="-3.875557">
        <ele>1788.012</ele>
        <time>2021-07-31T12:46:16Z</time>
      </trkpt>
      <trkpt lat="40.824067" lon="-3.875563">
        <ele>1787.579</ele>
        <time>2021-07-31T12:46:18Z</time>
      </trkpt>
      <trkpt lat="40.824090" lon="-3.875545">
        <ele>1786.969</ele>
        <time>2021-07-31T12:46:21Z</time>
      </trkpt>
      <trkpt lat="40.824112" lon="-3.875523">
        <ele>1786.357</ele>
        <time>2021-07-31T12:46:23Z</time>
      </trkpt>
      <trkpt lat="40.824144" lon="-3.875525">
        <ele>1785.527</ele>
        <time>2021-07-31T12:46:26Z</time>
      </trkpt>
      <trkpt lat="40.824166" lon="-3.875522">
        <ele>1784.968</ele>
        <time>2021-07-31T12:46:28Z</time>
      </trkpt>
      <trkpt lat="40.824189" lon="-3.875510">
        <ele>1784.414</ele>
        <time>2021-07-31T12:46:30Z</time>
      </trkpt>
      <trkpt lat="40.824205" lon="-3.875495">
        <ele>1784.108</ele>
        <time>2021-07-31T12:46:32Z</time>
      </trkpt>
      <trkpt lat="40.824224" lon="-3.875475">
        <ele>1783.799</ele>
        <time>2021-07-31T12:46:34Z</time>
      </trkpt>
      <trkpt lat="40.824250" lon="-3.875462">
        <ele>1783.371</ele>
        <time>2021-07-31T12:46:37Z</time>
      </trkpt>
      <trkpt lat="40.824269" lon="-3.875455">
        <ele>1782.928</ele>
        <time>2021-07-31T12:46:39Z</time>
      </trkpt>
      <trkpt lat="40.824294" lon="-3.875445">
        <ele>1782.585</ele>
        <time>2021-07-31T12:46:41Z</time>
      </trkpt>
      <trkpt lat="40.824317" lon="-3.875434">
        <ele>1782.117</ele>
        <time>2021-07-31T12:46:43Z</time>
      </trkpt>
      <trkpt lat="40.824333" lon="-3.875422">
        <ele>1781.824</ele>
        <time>2021-07-31T12:46:45Z</time>
      </trkpt>
      <trkpt lat="40.824349" lon="-3.875398">
        <ele>1781.524</ele>
        <time>2021-07-31T12:46:47Z</time>
      </trkpt>
      <trkpt lat="40.824374" lon="-3.875385">
        <ele>1781.112</ele>
        <time>2021-07-31T12:46:49Z</time>
      </trkpt>
      <trkpt lat="40.824390" lon="-3.875372">
        <ele>1780.885</ele>
        <time>2021-07-31T12:46:51Z</time>
      </trkpt>
      <trkpt lat="40.824403" lon="-3.875350">
        <ele>1780.689</ele>
        <time>2021-07-31T12:46:53Z</time>
      </trkpt>
      <trkpt lat="40.824413" lon="-3.875327">
        <ele>1780.517</ele>
        <time>2021-07-31T12:46:55Z</time>
      </trkpt>
      <trkpt lat="40.824445" lon="-3.875322">
        <ele>1780.008</ele>
        <time>2021-07-31T12:46:58Z</time>
      </trkpt>
      <trkpt lat="40.824464" lon="-3.875303">
        <ele>1779.415</ele>
        <time>2021-07-31T12:47:00Z</time>
      </trkpt>
      <trkpt lat="40.824477" lon="-3.875282">
        <ele>1779.137</ele>
        <time>2021-07-31T12:47:02Z</time>
      </trkpt>
      <trkpt lat="40.824496" lon="-3.875273">
        <ele>1778.554</ele>
        <time>2021-07-31T12:47:04Z</time>
      </trkpt>
      <trkpt lat="40.824522" lon="-3.875266">
        <ele>1777.821</ele>
        <time>2021-07-31T12:47:06Z</time>
      </trkpt>
      <trkpt lat="40.824550" lon="-3.875265">
        <ele>1777.023</ele>
        <time>2021-07-31T12:47:09Z</time>
      </trkpt>
      <trkpt lat="40.824576" lon="-3.875263">
        <ele>1776.270</ele>
        <time>2021-07-31T12:47:11Z</time>
      </trkpt>
      <trkpt lat="40.824595" lon="-3.875255">
        <ele>1775.770</ele>
        <time>2021-07-31T12:47:13Z</time>
      </trkpt>
      <trkpt lat="40.824614" lon="-3.875252">
        <ele>1775.238</ele>
        <time>2021-07-31T12:47:15Z</time>
      </trkpt>
      <trkpt lat="40.824637" lon="-3.875252">
        <ele>1774.543</ele>
        <time>2021-07-31T12:47:17Z</time>
      </trkpt>
      <trkpt lat="40.824666" lon="-3.875246">
        <ele>1773.764</ele>
        <time>2021-07-31T12:47:19Z</time>
      </trkpt>
      <trkpt lat="40.824688" lon="-3.875240">
        <ele>1773.110</ele>
        <time>2021-07-31T12:47:21Z</time>
      </trkpt>
      <trkpt lat="40.824707" lon="-3.875232">
        <ele>1772.608</ele>
        <time>2021-07-31T12:47:23Z</time>
      </trkpt>
      <trkpt lat="40.824726" lon="-3.875223">
        <ele>1772.161</ele>
        <time>2021-07-31T12:47:25Z</time>
      </trkpt>
      <trkpt lat="40.824749" lon="-3.875212">
        <ele>1771.793</ele>
        <time>2021-07-31T12:47:27Z</time>
      </trkpt>
      <trkpt lat="40.824765" lon="-3.875193">
        <ele>1771.410</ele>
        <time>2021-07-31T12:47:29Z</time>
      </trkpt>
      <trkpt lat="40.824784" lon="-3.875175">
        <ele>1771.167</ele>
        <time>2021-07-31T12:47:32Z</time>
      </trkpt>
      <trkpt lat="40.824806" lon="-3.875172">
        <ele>1770.779</ele>
        <time>2021-07-31T12:47:34Z</time>
      </trkpt>
      <trkpt lat="40.824829" lon="-3.875175">
        <ele>1770.266</ele>
        <time>2021-07-31T12:47:36Z</time>
      </trkpt>
      <trkpt lat="40.824848" lon="-3.875170">
        <ele>1769.816</ele>
        <time>2021-07-31T12:47:38Z</time>
      </trkpt>
      <trkpt lat="40.824874" lon="-3.875158">
        <ele>1769.444</ele>
        <time>2021-07-31T12:47:40Z</time>
      </trkpt>
      <trkpt lat="40.824890" lon="-3.875130">
        <ele>1769.218</ele>
        <time>2021-07-31T12:47:43Z</time>
      </trkpt>
      <trkpt lat="40.824902" lon="-3.875108">
        <ele>1769.198</ele>
        <time>2021-07-31T12:47:45Z</time>
      </trkpt>
      <trkpt lat="40.824922" lon="-3.875084">
        <ele>1768.917</ele>
        <time>2021-07-31T12:47:48Z</time>
      </trkpt>
      <trkpt lat="40.824947" lon="-3.875064">
        <ele>1768.508</ele>
        <time>2021-07-31T12:47:51Z</time>
      </trkpt>
      <trkpt lat="40.824966" lon="-3.875054">
        <ele>1768.258</ele>
        <time>2021-07-31T12:47:53Z</time>
      </trkpt>
      <trkpt lat="40.824989" lon="-3.875054">
        <ele>1767.880</ele>
        <time>2021-07-31T12:47:55Z</time>
      </trkpt>
      <trkpt lat="40.825008" lon="-3.875058">
        <ele>1767.477</ele>
        <time>2021-07-31T12:47:58Z</time>
      </trkpt>
      <trkpt lat="40.825027" lon="-3.875075">
        <ele>1766.844</ele>
        <time>2021-07-31T12:48:01Z</time>
      </trkpt>
      <trkpt lat="40.825043" lon="-3.875095">
        <ele>1766.316</ele>
        <time>2021-07-31T12:48:03Z</time>
      </trkpt>
      <trkpt lat="40.825059" lon="-3.875118">
        <ele>1765.873</ele>
        <time>2021-07-31T12:48:05Z</time>
      </trkpt>
      <trkpt lat="40.825082" lon="-3.875138">
        <ele>1765.213</ele>
        <time>2021-07-31T12:48:07Z</time>
      </trkpt>
      <trkpt lat="40.825104" lon="-3.875150">
        <ele>1764.731</ele>
        <time>2021-07-31T12:48:09Z</time>
      </trkpt>
      <trkpt lat="40.825126" lon="-3.875155">
        <ele>1764.252</ele>
        <time>2021-07-31T12:48:11Z</time>
      </trkpt>
      <trkpt lat="40.825142" lon="-3.875170">
        <ele>1763.853</ele>
        <time>2021-07-31T12:48:13Z</time>
      </trkpt>
      <trkpt lat="40.825158" lon="-3.875183">
        <ele>1763.508</ele>
        <time>2021-07-31T12:48:15Z</time>
      </trkpt>
      <trkpt lat="40.825181" lon="-3.875187">
        <ele>1763.008</ele>
        <time>2021-07-31T12:48:18Z</time>
      </trkpt>
      <trkpt lat="40.825203" lon="-3.875198">
        <ele>1762.522</ele>
        <time>2021-07-31T12:48:21Z</time>
      </trkpt>
      <trkpt lat="40.825226" lon="-3.875213">
        <ele>1762.094</ele>
        <time>2021-07-31T12:48:23Z</time>
      </trkpt>
      <trkpt lat="40.825258" lon="-3.875207">
        <ele>1761.431</ele>
        <time>2021-07-31T12:48:26Z</time>
      </trkpt>
      <trkpt lat="40.825277" lon="-3.875207">
        <ele>1761.098</ele>
        <time>2021-07-31T12:48:28Z</time>
      </trkpt>
      <trkpt lat="40.825296" lon="-3.875203">
        <ele>1760.740</ele>
        <time>2021-07-31T12:48:30Z</time>
      </trkpt>
      <trkpt lat="40.825309" lon="-3.875183">
        <ele>1760.447</ele>
        <time>2021-07-31T12:48:33Z</time>
      </trkpt>
      <trkpt lat="40.825306" lon="-3.875158">
        <ele>1760.587</ele>
        <time>2021-07-31T12:48:35Z</time>
      </trkpt>
      <trkpt lat="40.825309" lon="-3.875128">
        <ele>1760.445</ele>
        <time>2021-07-31T12:48:38Z</time>
      </trkpt>
      <trkpt lat="40.825328" lon="-3.875118">
        <ele>1760.157</ele>
        <time>2021-07-31T12:48:41Z</time>
      </trkpt>
      <trkpt lat="40.825347" lon="-3.875122">
        <ele>1759.800</ele>
        <time>2021-07-31T12:48:43Z</time>
      </trkpt>
      <trkpt lat="40.825366" lon="-3.875115">
        <ele>1759.420</ele>
        <time>2021-07-31T12:48:46Z</time>
      </trkpt>
      <trkpt lat="40.825386" lon="-3.875097">
        <ele>1759.108</ele>
        <time>2021-07-31T12:48:48Z</time>
      </trkpt>
      <trkpt lat="40.825398" lon="-3.875078">
        <ele>1758.862</ele>
        <time>2021-07-31T12:48:50Z</time>
      </trkpt>
      <trkpt lat="40.825418" lon="-3.875070">
        <ele>1758.574</ele>
        <time>2021-07-31T12:48:53Z</time>
      </trkpt>
      <trkpt lat="40.825437" lon="-3.875068">
        <ele>1758.191</ele>
        <time>2021-07-31T12:48:55Z</time>
      </trkpt>
      <trkpt lat="40.825456" lon="-3.875068">
        <ele>1757.818</ele>
        <time>2021-07-31T12:48:57Z</time>
      </trkpt>
      <trkpt lat="40.825478" lon="-3.875088">
        <ele>1757.470</ele>
        <time>2021-07-31T12:49:00Z</time>
      </trkpt>
      <trkpt lat="40.825498" lon="-3.875110">
        <ele>1757.047</ele>
        <time>2021-07-31T12:49:02Z</time>
      </trkpt>
      <trkpt lat="40.825517" lon="-3.875130">
        <ele>1756.757</ele>
        <time>2021-07-31T12:49:05Z</time>
      </trkpt>
      <trkpt lat="40.825536" lon="-3.875143">
        <ele>1756.495</ele>
        <time>2021-07-31T12:49:07Z</time>
      </trkpt>
      <trkpt lat="40.825558" lon="-3.875153">
        <ele>1755.945</ele>
        <time>2021-07-31T12:49:09Z</time>
      </trkpt>
      <trkpt lat="40.825578" lon="-3.875157">
        <ele>1755.547</ele>
        <time>2021-07-31T12:49:11Z</time>
      </trkpt>
      <trkpt lat="40.825597" lon="-3.875170">
        <ele>1755.111</ele>
        <time>2021-07-31T12:49:13Z</time>
      </trkpt>
      <trkpt lat="40.825616" lon="-3.875185">
        <ele>1754.708</ele>
        <time>2021-07-31T12:49:15Z</time>
      </trkpt>
      <trkpt lat="40.825642" lon="-3.875198">
        <ele>1754.151</ele>
        <time>2021-07-31T12:49:18Z</time>
      </trkpt>
      <trkpt lat="40.825661" lon="-3.875200">
        <ele>1753.723</ele>
        <time>2021-07-31T12:49:19Z</time>
      </trkpt>
      <trkpt lat="40.825683" lon="-3.875200">
        <ele>1753.210</ele>
        <time>2021-07-31T12:49:21Z</time>
      </trkpt>
      <trkpt lat="40.825706" lon="-3.875220">
        <ele>1752.817</ele>
        <time>2021-07-31T12:49:24Z</time>
      </trkpt>
      <trkpt lat="40.825728" lon="-3.875232">
        <ele>1752.359</ele>
        <time>2021-07-31T12:49:26Z</time>
      </trkpt>
      <trkpt lat="40.825754" lon="-3.875238">
        <ele>1751.796</ele>
        <time>2021-07-31T12:49:28Z</time>
      </trkpt>
      <trkpt lat="40.825766" lon="-3.875255">
        <ele>1751.586</ele>
        <time>2021-07-31T12:49:30Z</time>
      </trkpt>
      <trkpt lat="40.825795" lon="-3.875270">
        <ele>1750.824</ele>
        <time>2021-07-31T12:49:32Z</time>
      </trkpt>
      <trkpt lat="40.825814" lon="-3.875278">
        <ele>1750.491</ele>
        <time>2021-07-31T12:49:34Z</time>
      </trkpt>
      <trkpt lat="40.825837" lon="-3.875288">
        <ele>1749.981</ele>
        <time>2021-07-31T12:49:37Z</time>
      </trkpt>
      <trkpt lat="40.825859" lon="-3.875302">
        <ele>1749.619</ele>
        <time>2021-07-31T12:49:39Z</time>
      </trkpt>
      <trkpt lat="40.825882" lon="-3.875292">
        <ele>1749.308</ele>
        <time>2021-07-31T12:49:41Z</time>
      </trkpt>
      <trkpt lat="40.825898" lon="-3.875268">
        <ele>1749.116</ele>
        <time>2021-07-31T12:49:43Z</time>
      </trkpt>
      <trkpt lat="40.825914" lon="-3.875235">
        <ele>1748.838</ele>
        <time>2021-07-31T12:49:46Z</time>
      </trkpt>
      <trkpt lat="40.825933" lon="-3.875218">
        <ele>1748.595</ele>
        <time>2021-07-31T12:49:48Z</time>
      </trkpt>
      <trkpt lat="40.825936" lon="-3.875192">
        <ele>1748.422</ele>
        <time>2021-07-31T12:49:50Z</time>
      </trkpt>
      <trkpt lat="40.825958" lon="-3.875182">
        <ele>1748.054</ele>
        <time>2021-07-31T12:49:54Z</time>
      </trkpt>
      <trkpt lat="40.825981" lon="-3.875193">
        <ele>1747.751</ele>
        <time>2021-07-31T12:49:57Z</time>
      </trkpt>
      <trkpt lat="40.825994" lon="-3.875210">
        <ele>1747.521</ele>
        <time>2021-07-31T12:50:00Z</time>
      </trkpt>
      <trkpt lat="40.826016" lon="-3.875217">
        <ele>1747.279</ele>
        <time>2021-07-31T12:50:06Z</time>
      </trkpt>
      <trkpt lat="40.826045" lon="-3.875227">
        <ele>1746.869</ele>
        <time>2021-07-31T12:50:08Z</time>
      </trkpt>
      <trkpt lat="40.826074" lon="-3.875212">
        <ele>1746.304</ele>
        <time>2021-07-31T12:50:11Z</time>
      </trkpt>
      <trkpt lat="40.826099" lon="-3.875195">
        <ele>1745.924</ele>
        <time>2021-07-31T12:50:13Z</time>
      </trkpt>
      <trkpt lat="40.826118" lon="-3.875177">
        <ele>1745.508</ele>
        <time>2021-07-31T12:50:15Z</time>
      </trkpt>
      <trkpt lat="40.826131" lon="-3.875160">
        <ele>1745.233</ele>
        <time>2021-07-31T12:50:17Z</time>
      </trkpt>
      <trkpt lat="40.826144" lon="-3.875143">
        <ele>1745.075</ele>
        <time>2021-07-31T12:50:19Z</time>
      </trkpt>
      <trkpt lat="40.826160" lon="-3.875128">
        <ele>1744.792</ele>
        <time>2021-07-31T12:50:21Z</time>
      </trkpt>
      <trkpt lat="40.826173" lon="-3.875110">
        <ele>1744.419</ele>
        <time>2021-07-31T12:50:23Z</time>
      </trkpt>
      <trkpt lat="40.826221" lon="-3.875084">
        <ele>1743.661</ele>
        <time>2021-07-31T12:50:28Z</time>
      </trkpt>
      <trkpt lat="40.826243" lon="-3.875085">
        <ele>1743.338</ele>
        <time>2021-07-31T12:50:30Z</time>
      </trkpt>
      <trkpt lat="40.826301" lon="-3.875115">
        <ele>1742.448</ele>
        <time>2021-07-31T12:50:38Z</time>
      </trkpt>
      <trkpt lat="40.826330" lon="-3.875122">
        <ele>1741.916</ele>
        <time>2021-07-31T12:50:41Z</time>
      </trkpt>
      <trkpt lat="40.826349" lon="-3.875135">
        <ele>1741.645</ele>
        <time>2021-07-31T12:50:44Z</time>
      </trkpt>
      <trkpt lat="40.826371" lon="-3.875145">
        <ele>1741.347</ele>
        <time>2021-07-31T12:50:47Z</time>
      </trkpt>
      <trkpt lat="40.826378" lon="-3.875145">
        <ele>1741.211</ele>
        <time>2021-07-31T12:50:48Z</time>
      </trkpt>
      <trkpt lat="40.826413" lon="-3.875137">
        <ele>1740.408</ele>
        <time>2021-07-31T12:50:52Z</time>
      </trkpt>
      <trkpt lat="40.826438" lon="-3.875135">
        <ele>1739.851</ele>
        <time>2021-07-31T12:50:54Z</time>
      </trkpt>
      <trkpt lat="40.826458" lon="-3.875112">
        <ele>1739.253</ele>
        <time>2021-07-31T12:50:57Z</time>
      </trkpt>
      <trkpt lat="40.826480" lon="-3.875102">
        <ele>1738.610</ele>
        <time>2021-07-31T12:50:59Z</time>
      </trkpt>
      <trkpt lat="40.826502" lon="-3.875084">
        <ele>1738.067</ele>
        <time>2021-07-31T12:51:01Z</time>
      </trkpt>
      <trkpt lat="40.826528" lon="-3.875064">
        <ele>1737.219</ele>
        <time>2021-07-31T12:51:03Z</time>
      </trkpt>
      <trkpt lat="40.826550" lon="-3.875043">
        <ele>1736.556</ele>
        <time>2021-07-31T12:51:06Z</time>
      </trkpt>
      <trkpt lat="40.826570" lon="-3.875028">
        <ele>1735.996</ele>
        <time>2021-07-31T12:51:08Z</time>
      </trkpt>
      <trkpt lat="40.826592" lon="-3.875010">
        <ele>1735.294</ele>
        <time>2021-07-31T12:51:10Z</time>
      </trkpt>
      <trkpt lat="40.826611" lon="-3.874987">
        <ele>1734.582</ele>
        <time>2021-07-31T12:51:12Z</time>
      </trkpt>
      <trkpt lat="40.826627" lon="-3.874967">
        <ele>1734.043</ele>
        <time>2021-07-31T12:51:14Z</time>
      </trkpt>
      <trkpt lat="40.826646" lon="-3.874950">
        <ele>1733.417</ele>
        <time>2021-07-31T12:51:16Z</time>
      </trkpt>
      <trkpt lat="40.826672" lon="-3.874932">
        <ele>1732.708</ele>
        <time>2021-07-31T12:51:18Z</time>
      </trkpt>
      <trkpt lat="40.826688" lon="-3.874908">
        <ele>1732.485</ele>
        <time>2021-07-31T12:51:20Z</time>
      </trkpt>
      <trkpt lat="40.826707" lon="-3.874890">
        <ele>1732.197</ele>
        <time>2021-07-31T12:51:22Z</time>
      </trkpt>
      <trkpt lat="40.826726" lon="-3.874873">
        <ele>1731.844</ele>
        <time>2021-07-31T12:51:24Z</time>
      </trkpt>
      <trkpt lat="40.826749" lon="-3.874848">
        <ele>1731.461</ele>
        <time>2021-07-31T12:51:27Z</time>
      </trkpt>
      <trkpt lat="40.826771" lon="-3.874832">
        <ele>1731.073</ele>
        <time>2021-07-31T12:51:29Z</time>
      </trkpt>
      <trkpt lat="40.826787" lon="-3.874813">
        <ele>1730.780</ele>
        <time>2021-07-31T12:51:31Z</time>
      </trkpt>
      <trkpt lat="40.826806" lon="-3.874797">
        <ele>1730.420</ele>
        <time>2021-07-31T12:51:33Z</time>
      </trkpt>
      <trkpt lat="40.826819" lon="-3.874780">
        <ele>1730.118</ele>
        <time>2021-07-31T12:51:35Z</time>
      </trkpt>
      <trkpt lat="40.826845" lon="-3.874765">
        <ele>1729.739</ele>
        <time>2021-07-31T12:51:37Z</time>
      </trkpt>
      <trkpt lat="40.826870" lon="-3.874754">
        <ele>1729.301</ele>
        <time>2021-07-31T12:51:39Z</time>
      </trkpt>
      <trkpt lat="40.826886" lon="-3.874738">
        <ele>1728.921</ele>
        <time>2021-07-31T12:51:41Z</time>
      </trkpt>
      <trkpt lat="40.826909" lon="-3.874715">
        <ele>1728.408</ele>
        <time>2021-07-31T12:51:44Z</time>
      </trkpt>
      <trkpt lat="40.826928" lon="-3.874710">
        <ele>1728.140</ele>
        <time>2021-07-31T12:51:46Z</time>
      </trkpt>
      <trkpt lat="40.826950" lon="-3.874712">
        <ele>1727.852</ele>
        <time>2021-07-31T12:51:48Z</time>
      </trkpt>
      <trkpt lat="40.826973" lon="-3.874707">
        <ele>1727.499</ele>
        <time>2021-07-31T12:51:50Z</time>
      </trkpt>
      <trkpt lat="40.826989" lon="-3.874688">
        <ele>1727.016</ele>
        <time>2021-07-31T12:51:52Z</time>
      </trkpt>
      <trkpt lat="40.827011" lon="-3.874670">
        <ele>1726.528</ele>
        <time>2021-07-31T12:51:54Z</time>
      </trkpt>
      <trkpt lat="40.827027" lon="-3.874645">
        <ele>1726.145</ele>
        <time>2021-07-31T12:51:56Z</time>
      </trkpt>
      <trkpt lat="40.827043" lon="-3.874618">
        <ele>1725.685</ele>
        <time>2021-07-31T12:51:58Z</time>
      </trkpt>
      <trkpt lat="40.827046" lon="-3.874590">
        <ele>1725.323</ele>
        <time>2021-07-31T12:52:00Z</time>
      </trkpt>
      <trkpt lat="40.827059" lon="-3.874565">
        <ele>1724.947</ele>
        <time>2021-07-31T12:52:02Z</time>
      </trkpt>
      <trkpt lat="40.827075" lon="-3.874542">
        <ele>1724.529</ele>
        <time>2021-07-31T12:52:04Z</time>
      </trkpt>
      <trkpt lat="40.827098" lon="-3.874522">
        <ele>1724.021</ele>
        <time>2021-07-31T12:52:07Z</time>
      </trkpt>
      <trkpt lat="40.827117" lon="-3.874515">
        <ele>1723.708</ele>
        <time>2021-07-31T12:52:09Z</time>
      </trkpt>
      <trkpt lat="40.827136" lon="-3.874508">
        <ele>1723.561</ele>
        <time>2021-07-31T12:52:11Z</time>
      </trkpt>
      <trkpt lat="40.827165" lon="-3.874515">
        <ele>1723.293</ele>
        <time>2021-07-31T12:52:14Z</time>
      </trkpt>
      <trkpt lat="40.827187" lon="-3.874515">
        <ele>1722.910</ele>
        <time>2021-07-31T12:52:16Z</time>
      </trkpt>
      <trkpt lat="40.827210" lon="-3.874508">
        <ele>1722.637</ele>
        <time>2021-07-31T12:52:18Z</time>
      </trkpt>
      <trkpt lat="40.827232" lon="-3.874495">
        <ele>1722.219</ele>
        <time>2021-07-31T12:52:20Z</time>
      </trkpt>
      <trkpt lat="40.827258" lon="-3.874485">
        <ele>1721.836</ele>
        <time>2021-07-31T12:52:22Z</time>
      </trkpt>
      <trkpt lat="40.827277" lon="-3.874465">
        <ele>1721.486</ele>
        <time>2021-07-31T12:52:25Z</time>
      </trkpt>
      <trkpt lat="40.827296" lon="-3.874445">
        <ele>1720.944</ele>
        <time>2021-07-31T12:52:27Z</time>
      </trkpt>
      <trkpt lat="40.827309" lon="-3.874427">
        <ele>1720.678</ele>
        <time>2021-07-31T12:52:29Z</time>
      </trkpt>
      <trkpt lat="40.827331" lon="-3.874412">
        <ele>1720.233</ele>
        <time>2021-07-31T12:52:32Z</time>
      </trkpt>
      <trkpt lat="40.827354" lon="-3.874394">
        <ele>1719.726</ele>
        <time>2021-07-31T12:52:34Z</time>
      </trkpt>
      <trkpt lat="40.827389" lon="-3.874382">
        <ele>1719.108</ele>
        <time>2021-07-31T12:52:36Z</time>
      </trkpt>
      <trkpt lat="40.827411" lon="-3.874370">
        <ele>1718.754</ele>
        <time>2021-07-31T12:52:38Z</time>
      </trkpt>
      <trkpt lat="40.827434" lon="-3.874354">
        <ele>1718.316</ele>
        <time>2021-07-31T12:52:41Z</time>
      </trkpt>
      <trkpt lat="40.827453" lon="-3.874328">
        <ele>1717.813</ele>
        <time>2021-07-31T12:52:43Z</time>
      </trkpt>
      <trkpt lat="40.827462" lon="-3.874297">
        <ele>1717.510</ele>
        <time>2021-07-31T12:52:45Z</time>
      </trkpt>
      <trkpt lat="40.827475" lon="-3.874278">
        <ele>1717.292</ele>
        <time>2021-07-31T12:52:47Z</time>
      </trkpt>
      <trkpt lat="40.827488" lon="-3.874258">
        <ele>1716.849</ele>
        <time>2021-07-31T12:52:49Z</time>
      </trkpt>
      <trkpt lat="40.827510" lon="-3.874243">
        <ele>1716.429</ele>
        <time>2021-07-31T12:52:51Z</time>
      </trkpt>
      <trkpt lat="40.827526" lon="-3.874222">
        <ele>1715.987</ele>
        <time>2021-07-31T12:52:53Z</time>
      </trkpt>
      <trkpt lat="40.827530" lon="-3.874196">
        <ele>1715.792</ele>
        <time>2021-07-31T12:52:55Z</time>
      </trkpt>
      <trkpt lat="40.827549" lon="-3.874180">
        <ele>1715.273</ele>
        <time>2021-07-31T12:52:57Z</time>
      </trkpt>
      <trkpt lat="40.827568" lon="-3.874152">
        <ele>1714.620</ele>
        <time>2021-07-31T12:52:59Z</time>
      </trkpt>
      <trkpt lat="40.827584" lon="-3.874138">
        <ele>1714.208</ele>
        <time>2021-07-31T12:53:00Z</time>
      </trkpt>
      <trkpt lat="40.827600" lon="-3.874112">
        <ele>1713.866</ele>
        <time>2021-07-31T12:53:02Z</time>
      </trkpt>
      <trkpt lat="40.827622" lon="-3.874092">
        <ele>1713.298</ele>
        <time>2021-07-31T12:53:04Z</time>
      </trkpt>
      <trkpt lat="40.827648" lon="-3.874087">
        <ele>1712.865</ele>
        <time>2021-07-31T12:53:06Z</time>
      </trkpt>
      <trkpt lat="40.827664" lon="-3.874058">
        <ele>1712.342</ele>
        <time>2021-07-31T12:53:08Z</time>
      </trkpt>
      <trkpt lat="40.827674" lon="-3.874032">
        <ele>1712.074</ele>
        <time>2021-07-31T12:53:10Z</time>
      </trkpt>
      <trkpt lat="40.827699" lon="-3.874015">
        <ele>1711.631</ele>
        <time>2021-07-31T12:53:12Z</time>
      </trkpt>
      <trkpt lat="40.827718" lon="-3.874005">
        <ele>1711.231</ele>
        <time>2021-07-31T12:53:14Z</time>
      </trkpt>
      <trkpt lat="40.827741" lon="-3.873973">
        <ele>1710.839</ele>
        <time>2021-07-31T12:53:17Z</time>
      </trkpt>
      <trkpt lat="40.827766" lon="-3.873943">
        <ele>1710.374</ele>
        <time>2021-07-31T12:53:19Z</time>
      </trkpt>
      <trkpt lat="40.827792" lon="-3.873920">
        <ele>1709.956</ele>
        <time>2021-07-31T12:53:21Z</time>
      </trkpt>
      <trkpt lat="40.827824" lon="-3.873907">
        <ele>1709.421</ele>
        <time>2021-07-31T12:53:23Z</time>
      </trkpt>
      <trkpt lat="40.827846" lon="-3.873883">
        <ele>1709.008</ele>
        <time>2021-07-31T12:53:25Z</time>
      </trkpt>
      <trkpt lat="40.827866" lon="-3.873860">
        <ele>1708.524</ele>
        <time>2021-07-31T12:53:27Z</time>
      </trkpt>
      <trkpt lat="40.827885" lon="-3.873830">
        <ele>1708.066</ele>
        <time>2021-07-31T12:53:29Z</time>
      </trkpt>
      <trkpt lat="40.827901" lon="-3.873802">
        <ele>1707.623</ele>
        <time>2021-07-31T12:53:31Z</time>
      </trkpt>
      <trkpt lat="40.827910" lon="-3.873778">
        <ele>1707.340</ele>
        <time>2021-07-31T12:53:33Z</time>
      </trkpt>
      <trkpt lat="40.827923" lon="-3.873757">
        <ele>1707.042</ele>
        <time>2021-07-31T12:53:35Z</time>
      </trkpt>
      <trkpt lat="40.827939" lon="-3.873742">
        <ele>1706.769</ele>
        <time>2021-07-31T12:53:37Z</time>
      </trkpt>
      <trkpt lat="40.827965" lon="-3.873722">
        <ele>1706.369</ele>
        <time>2021-07-31T12:53:39Z</time>
      </trkpt>
      <trkpt lat="40.827978" lon="-3.873705">
        <ele>1706.197</ele>
        <time>2021-07-31T12:53:40Z</time>
      </trkpt>
      <trkpt lat="40.827990" lon="-3.873677">
        <ele>1705.813</ele>
        <time>2021-07-31T12:53:43Z</time>
      </trkpt>
      <trkpt lat="40.828006" lon="-3.873650">
        <ele>1705.543</ele>
        <time>2021-07-31T12:53:45Z</time>
      </trkpt>
      <trkpt lat="40.828042" lon="-3.873633">
        <ele>1705.207</ele>
        <time>2021-07-31T12:53:47Z</time>
      </trkpt>
      <trkpt lat="40.828070" lon="-3.873647">
        <ele>1705.008</ele>
        <time>2021-07-31T12:53:48Z</time>
      </trkpt>
      <trkpt lat="40.828102" lon="-3.873642">
        <ele>1704.678</ele>
        <time>2021-07-31T12:53:49Z</time>
      </trkpt>
      <trkpt lat="40.828125" lon="-3.873617">
        <ele>1704.330</ele>
        <time>2021-07-31T12:53:51Z</time>
      </trkpt>
      <trkpt lat="40.828138" lon="-3.873598">
        <ele>1704.017</ele>
        <time>2021-07-31T12:53:53Z</time>
      </trkpt>
      <trkpt lat="40.828150" lon="-3.873582">
        <ele>1703.844</ele>
        <time>2021-07-31T12:53:55Z</time>
      </trkpt>
      <trkpt lat="40.828170" lon="-3.873563">
        <ele>1703.566</ele>
        <time>2021-07-31T12:53:57Z</time>
      </trkpt>
      <trkpt lat="40.828198" lon="-3.873535">
        <ele>1703.113</ele>
        <time>2021-07-31T12:53:59Z</time>
      </trkpt>
      <trkpt lat="40.828224" lon="-3.873503">
        <ele>1702.633</ele>
        <time>2021-07-31T12:54:01Z</time>
      </trkpt>
      <trkpt lat="40.828246" lon="-3.873480">
        <ele>1702.331</ele>
        <time>2021-07-31T12:54:03Z</time>
      </trkpt>
      <trkpt lat="40.828262" lon="-3.873453">
        <ele>1702.134</ele>
        <time>2021-07-31T12:54:05Z</time>
      </trkpt>
      <trkpt lat="40.828285" lon="-3.873433">
        <ele>1701.855</ele>
        <time>2021-07-31T12:54:07Z</time>
      </trkpt>
      <trkpt lat="40.828304" lon="-3.873412">
        <ele>1701.510</ele>
        <time>2021-07-31T12:54:11Z</time>
      </trkpt>
      <trkpt lat="40.828320" lon="-3.873387">
        <ele>1701.308</ele>
        <time>2021-07-31T12:54:13Z</time>
      </trkpt>
      <trkpt lat="40.828310" lon="-3.873360">
        <ele>1701.340</ele>
        <time>2021-07-31T12:54:15Z</time>
      </trkpt>
      <trkpt lat="40.828336" lon="-3.873342">
        <ele>1701.042</ele>
        <time>2021-07-31T12:54:17Z</time>
      </trkpt>
      <trkpt lat="40.828339" lon="-3.873314">
        <ele>1700.889</ele>
        <time>2021-07-31T12:54:19Z</time>
      </trkpt>
      <trkpt lat="40.828355" lon="-3.873282">
        <ele>1700.466</ele>
        <time>2021-07-31T12:54:21Z</time>
      </trkpt>
      <trkpt lat="40.828365" lon="-3.873252">
        <ele>1700.158</ele>
        <time>2021-07-31T12:54:24Z</time>
      </trkpt>
      <trkpt lat="40.828378" lon="-3.873230">
        <ele>1699.845</ele>
        <time>2021-07-31T12:54:26Z</time>
      </trkpt>
      <trkpt lat="40.828403" lon="-3.873205">
        <ele>1699.395</ele>
        <time>2021-07-31T12:54:29Z</time>
      </trkpt>
      <trkpt lat="40.828416" lon="-3.873185">
        <ele>1699.033</ele>
        <time>2021-07-31T12:54:31Z</time>
      </trkpt>
      <trkpt lat="40.828438" lon="-3.873172">
        <ele>1698.511</ele>
        <time>2021-07-31T12:54:33Z</time>
      </trkpt>
      <trkpt lat="40.828458" lon="-3.873156">
        <ele>1698.121</ele>
        <time>2021-07-31T12:54:35Z</time>
      </trkpt>
      <trkpt lat="40.828467" lon="-3.873132">
        <ele>1697.903</ele>
        <time>2021-07-31T12:54:37Z</time>
      </trkpt>
      <trkpt lat="40.828493" lon="-3.873107">
        <ele>1697.308</ele>
        <time>2021-07-31T12:54:40Z</time>
      </trkpt>
      <trkpt lat="40.828506" lon="-3.873085">
        <ele>1697.068</ele>
        <time>2021-07-31T12:54:42Z</time>
      </trkpt>
      <trkpt lat="40.828528" lon="-3.873068">
        <ele>1696.510</ele>
        <time>2021-07-31T12:54:44Z</time>
      </trkpt>
      <trkpt lat="40.828554" lon="-3.873055">
        <ele>1696.077</ele>
        <time>2021-07-31T12:54:46Z</time>
      </trkpt>
      <trkpt lat="40.828579" lon="-3.873042">
        <ele>1695.584</ele>
        <time>2021-07-31T12:54:48Z</time>
      </trkpt>
      <trkpt lat="40.828602" lon="-3.873037">
        <ele>1695.156</ele>
        <time>2021-07-31T12:54:50Z</time>
      </trkpt>
      <trkpt lat="40.828621" lon="-3.873016">
        <ele>1694.843</ele>
        <time>2021-07-31T12:54:52Z</time>
      </trkpt>
      <trkpt lat="40.828640" lon="-3.872995">
        <ele>1694.683</ele>
        <time>2021-07-31T12:54:54Z</time>
      </trkpt>
      <trkpt lat="40.828659" lon="-3.872970">
        <ele>1694.341</ele>
        <time>2021-07-31T12:54:56Z</time>
      </trkpt>
      <trkpt lat="40.828675" lon="-3.872954">
        <ele>1694.237</ele>
        <time>2021-07-31T12:55:16Z</time>
      </trkpt>
      <trkpt lat="40.828701" lon="-3.872930">
        <ele>1693.949</ele>
        <time>2021-07-31T12:55:18Z</time>
      </trkpt>
      <trkpt lat="40.828720" lon="-3.872900">
        <ele>1693.713</ele>
        <time>2021-07-31T12:55:20Z</time>
      </trkpt>
      <trkpt lat="40.828746" lon="-3.872872">
        <ele>1693.408</ele>
        <time>2021-07-31T12:55:22Z</time>
      </trkpt>
      <trkpt lat="40.828758" lon="-3.872855">
        <ele>1693.260</ele>
        <time>2021-07-31T12:55:23Z</time>
      </trkpt>
      <trkpt lat="40.828774" lon="-3.872838">
        <ele>1693.082</ele>
        <time>2021-07-31T12:55:24Z</time>
      </trkpt>
      <trkpt lat="40.828787" lon="-3.872816">
        <ele>1692.949</ele>
        <time>2021-07-31T12:55:26Z</time>
      </trkpt>
      <trkpt lat="40.828813" lon="-3.872803">
        <ele>1692.676</ele>
        <time>2021-07-31T12:55:28Z</time>
      </trkpt>
      <trkpt lat="40.828832" lon="-3.872780">
        <ele>1692.458</ele>
        <time>2021-07-31T12:55:30Z</time>
      </trkpt>
      <trkpt lat="40.828842" lon="-3.872753">
        <ele>1692.315</ele>
        <time>2021-07-31T12:55:32Z</time>
      </trkpt>
      <trkpt lat="40.828861" lon="-3.872737">
        <ele>1692.285</ele>
        <time>2021-07-31T12:55:34Z</time>
      </trkpt>
      <trkpt lat="40.828877" lon="-3.872712">
        <ele>1692.173</ele>
        <time>2021-07-31T12:55:36Z</time>
      </trkpt>
      <trkpt lat="40.828893" lon="-3.872682">
        <ele>1692.063</ele>
        <time>2021-07-31T12:55:38Z</time>
      </trkpt>
      <trkpt lat="40.828906" lon="-3.872652">
        <ele>1691.944</ele>
        <time>2021-07-31T12:55:40Z</time>
      </trkpt>
      <trkpt lat="40.828922" lon="-3.872640">
        <ele>1691.818</ele>
        <time>2021-07-31T12:55:41Z</time>
      </trkpt>
      <trkpt lat="40.828941" lon="-3.872620">
        <ele>1691.608</ele>
        <time>2021-07-31T12:55:43Z</time>
      </trkpt>
      <trkpt lat="40.828957" lon="-3.872600">
        <ele>1691.563</ele>
        <time>2021-07-31T12:55:45Z</time>
      </trkpt>
      <trkpt lat="40.828973" lon="-3.872587">
        <ele>1691.495</ele>
        <time>2021-07-31T12:55:46Z</time>
      </trkpt>
      <trkpt lat="40.828995" lon="-3.872563">
        <ele>1691.232</ele>
        <time>2021-07-31T12:55:48Z</time>
      </trkpt>
      <trkpt lat="40.829018" lon="-3.872542">
        <ele>1691.159</ele>
        <time>2021-07-31T12:55:50Z</time>
      </trkpt>
      <trkpt lat="40.829034" lon="-3.872517">
        <ele>1691.061</ele>
        <time>2021-07-31T12:55:52Z</time>
      </trkpt>
      <trkpt lat="40.829050" lon="-3.872495">
        <ele>1690.888</ele>
        <time>2021-07-31T12:55:54Z</time>
      </trkpt>
      <trkpt lat="40.829062" lon="-3.872466">
        <ele>1690.758</ele>
        <time>2021-07-31T12:55:56Z</time>
      </trkpt>
      <trkpt lat="40.829085" lon="-3.872446">
        <ele>1690.596</ele>
        <time>2021-07-31T12:55:58Z</time>
      </trkpt>
      <trkpt lat="40.829101" lon="-3.872422">
        <ele>1690.456</ele>
        <time>2021-07-31T12:56:00Z</time>
      </trkpt>
      <trkpt lat="40.829123" lon="-3.872400">
        <ele>1690.359</ele>
        <time>2021-07-31T12:56:02Z</time>
      </trkpt>
      <trkpt lat="40.829142" lon="-3.872383">
        <ele>1690.114</ele>
        <time>2021-07-31T12:56:04Z</time>
      </trkpt>
      <trkpt lat="40.829168" lon="-3.872368">
        <ele>1690.008</ele>
        <time>2021-07-31T12:56:06Z</time>
      </trkpt>
      <trkpt lat="40.829184" lon="-3.872347">
        <ele>1690.052</ele>
        <time>2021-07-31T12:56:08Z</time>
      </trkpt>
      <trkpt lat="40.829210" lon="-3.872325">
        <ele>1690.064</ele>
        <time>2021-07-31T12:56:10Z</time>
      </trkpt>
      <trkpt lat="40.829219" lon="-3.872295">
        <ele>1690.021</ele>
        <time>2021-07-31T12:56:12Z</time>
      </trkpt>
      <trkpt lat="40.829232" lon="-3.872275">
        <ele>1690.018</ele>
        <time>2021-07-31T12:56:14Z</time>
      </trkpt>
      <trkpt lat="40.829248" lon="-3.872254">
        <ele>1690.040</ele>
        <time>2021-07-31T12:56:16Z</time>
      </trkpt>
      <trkpt lat="40.829264" lon="-3.872227">
        <ele>1690.017</ele>
        <time>2021-07-31T12:56:18Z</time>
      </trkpt>
      <trkpt lat="40.829283" lon="-3.872205">
        <ele>1689.977</ele>
        <time>2021-07-31T12:56:20Z</time>
      </trkpt>
      <trkpt lat="40.829299" lon="-3.872192">
        <ele>1689.925</ele>
        <time>2021-07-31T12:56:21Z</time>
      </trkpt>
      <trkpt lat="40.829315" lon="-3.872165">
        <ele>1689.834</ele>
        <time>2021-07-31T12:56:23Z</time>
      </trkpt>
      <trkpt lat="40.829328" lon="-3.872143">
        <ele>1689.755</ele>
        <time>2021-07-31T12:56:25Z</time>
      </trkpt>
      <trkpt lat="40.829350" lon="-3.872123">
        <ele>1689.510</ele>
        <time>2021-07-31T12:56:27Z</time>
      </trkpt>
      <trkpt lat="40.829363" lon="-3.872096">
        <ele>1689.408</ele>
        <time>2021-07-31T12:56:29Z</time>
      </trkpt>
      <trkpt lat="40.829382" lon="-3.872068">
        <ele>1689.140</ele>
        <time>2021-07-31T12:56:31Z</time>
      </trkpt>
      <trkpt lat="40.829408" lon="-3.872053">
        <ele>1688.982</ele>
        <time>2021-07-31T12:56:33Z</time>
      </trkpt>
      <trkpt lat="40.829427" lon="-3.872037">
        <ele>1688.839</ele>
        <time>2021-07-31T12:56:35Z</time>
      </trkpt>
      <trkpt lat="40.829453" lon="-3.872017">
        <ele>1688.576</ele>
        <time>2021-07-31T12:56:37Z</time>
      </trkpt>
      <trkpt lat="40.829472" lon="-3.871997">
        <ele>1688.218</ele>
        <time>2021-07-31T12:56:39Z</time>
      </trkpt>
      <trkpt lat="40.829488" lon="-3.871972">
        <ele>1687.955</ele>
        <time>2021-07-31T12:56:41Z</time>
      </trkpt>
      <trkpt lat="40.829507" lon="-3.871955">
        <ele>1687.615</ele>
        <time>2021-07-31T12:56:43Z</time>
      </trkpt>
      <trkpt lat="40.829526" lon="-3.871924">
        <ele>1687.333</ele>
        <time>2021-07-31T12:56:46Z</time>
      </trkpt>
      <trkpt lat="40.829546" lon="-3.871904">
        <ele>1687.029</ele>
        <time>2021-07-31T12:56:48Z</time>
      </trkpt>
      <trkpt lat="40.829568" lon="-3.871887">
        <ele>1686.800</ele>
        <time>2021-07-31T12:56:50Z</time>
      </trkpt>
      <trkpt lat="40.829597" lon="-3.871877">
        <ele>1686.520</ele>
        <time>2021-07-31T12:56:52Z</time>
      </trkpt>
      <trkpt lat="40.829645" lon="-3.871867">
        <ele>1686.208</ele>
        <time>2021-07-31T12:56:54Z</time>
      </trkpt>
      <trkpt lat="40.829667" lon="-3.871858">
        <ele>1686.099</ele>
        <time>2021-07-31T12:56:55Z</time>
      </trkpt>
      <trkpt lat="40.829706" lon="-3.871843">
        <ele>1685.741</ele>
        <time>2021-07-31T12:56:57Z</time>
      </trkpt>
      <trkpt lat="40.829728" lon="-3.871803">
        <ele>1685.528</ele>
        <time>2021-07-31T12:56:59Z</time>
      </trkpt>
      <trkpt lat="40.829728" lon="-3.871762">
        <ele>1685.385</ele>
        <time>2021-07-31T12:57:01Z</time>
      </trkpt>
      <trkpt lat="40.829728" lon="-3.871730">
        <ele>1685.227</ele>
        <time>2021-07-31T12:57:03Z</time>
      </trkpt>
      <trkpt lat="40.829757" lon="-3.871713">
        <ele>1685.064</ele>
        <time>2021-07-31T12:57:05Z</time>
      </trkpt>
      <trkpt lat="40.829786" lon="-3.871712">
        <ele>1684.964</ele>
        <time>2021-07-31T12:57:06Z</time>
      </trkpt>
      <trkpt lat="40.829805" lon="-3.871687">
        <ele>1684.862</ele>
        <time>2021-07-31T12:57:08Z</time>
      </trkpt>
      <trkpt lat="40.829830" lon="-3.871670">
        <ele>1684.614</ele>
        <time>2021-07-31T12:57:10Z</time>
      </trkpt>
      <trkpt lat="40.829866" lon="-3.871652">
        <ele>1684.454</ele>
        <time>2021-07-31T12:57:12Z</time>
      </trkpt>
      <trkpt lat="40.829885" lon="-3.871635">
        <ele>1684.309</ele>
        <time>2021-07-31T12:57:14Z</time>
      </trkpt>
      <trkpt lat="40.829907" lon="-3.871617">
        <ele>1684.108</ele>
        <time>2021-07-31T12:57:16Z</time>
      </trkpt>
      <trkpt lat="40.829923" lon="-3.871587">
        <ele>1683.978</ele>
        <time>2021-07-31T12:57:18Z</time>
      </trkpt>
      <trkpt lat="40.829923" lon="-3.871560">
        <ele>1683.890</ele>
        <time>2021-07-31T12:57:19Z</time>
      </trkpt>
      <trkpt lat="40.829955" lon="-3.871530">
        <ele>1683.627</ele>
        <time>2021-07-31T12:57:21Z</time>
      </trkpt>
      <trkpt lat="40.829974" lon="-3.871530">
        <ele>1683.624</ele>
        <time>2021-07-31T12:57:22Z</time>
      </trkpt>
      <trkpt lat="40.829994" lon="-3.871525">
        <ele>1683.516</ele>
        <time>2021-07-31T12:57:23Z</time>
      </trkpt>
      <trkpt lat="40.830016" lon="-3.871525">
        <ele>1683.493</ele>
        <time>2021-07-31T12:57:24Z</time>
      </trkpt>
      <trkpt lat="40.830032" lon="-3.871512">
        <ele>1683.333</ele>
        <time>2021-07-31T12:57:25Z</time>
      </trkpt>
      <trkpt lat="40.830058" lon="-3.871488">
        <ele>1683.141</ele>
        <time>2021-07-31T12:57:27Z</time>
      </trkpt>
      <trkpt lat="40.830074" lon="-3.871463">
        <ele>1683.021</ele>
        <time>2021-07-31T12:57:29Z</time>
      </trkpt>
      <trkpt lat="40.830093" lon="-3.871440">
        <ele>1682.841</ele>
        <time>2021-07-31T12:57:31Z</time>
      </trkpt>
      <trkpt lat="40.830115" lon="-3.871423">
        <ele>1682.705</ele>
        <time>2021-07-31T12:57:34Z</time>
      </trkpt>
      <trkpt lat="40.830134" lon="-3.871402">
        <ele>1682.608</ele>
        <time>2021-07-31T12:57:36Z</time>
      </trkpt>
      <trkpt lat="40.830150" lon="-3.871374">
        <ele>1682.479</ele>
        <time>2021-07-31T12:57:38Z</time>
      </trkpt>
      <trkpt lat="40.830166" lon="-3.871353">
        <ele>1682.351</ele>
        <time>2021-07-31T12:57:40Z</time>
      </trkpt>
      <trkpt lat="40.830182" lon="-3.871335">
        <ele>1682.278</ele>
        <time>2021-07-31T12:57:42Z</time>
      </trkpt>
      <trkpt lat="40.830202" lon="-3.871320">
        <ele>1682.075</ele>
        <time>2021-07-31T12:57:44Z</time>
      </trkpt>
      <trkpt lat="40.830224" lon="-3.871300">
        <ele>1681.977</ele>
        <time>2021-07-31T12:57:46Z</time>
      </trkpt>
      <trkpt lat="40.830250" lon="-3.871278">
        <ele>1681.714</ele>
        <time>2021-07-31T12:57:48Z</time>
      </trkpt>
      <trkpt lat="40.830266" lon="-3.871252">
        <ele>1681.534</ele>
        <time>2021-07-31T12:57:50Z</time>
      </trkpt>
      <trkpt lat="40.830282" lon="-3.871224">
        <ele>1681.472</ele>
        <time>2021-07-31T12:57:52Z</time>
      </trkpt>
      <trkpt lat="40.830291" lon="-3.871197">
        <ele>1681.379</ele>
        <time>2021-07-31T12:57:54Z</time>
      </trkpt>
      <trkpt lat="40.830304" lon="-3.871175">
        <ele>1681.205</ele>
        <time>2021-07-31T12:57:56Z</time>
      </trkpt>
      <trkpt lat="40.830326" lon="-3.871150">
        <ele>1681.125</ele>
        <time>2021-07-31T12:57:58Z</time>
      </trkpt>
      <trkpt lat="40.830342" lon="-3.871115">
        <ele>1681.008</ele>
        <time>2021-07-31T12:58:00Z</time>
      </trkpt>
      <trkpt lat="40.830349" lon="-3.871082">
        <ele>1680.934</ele>
        <time>2021-07-31T12:58:02Z</time>
      </trkpt>
      <trkpt lat="40.830368" lon="-3.871062">
        <ele>1680.826</ele>
        <time>2021-07-31T12:58:04Z</time>
      </trkpt>
      <trkpt lat="40.830387" lon="-3.871045">
        <ele>1680.883</ele>
        <time>2021-07-31T12:58:06Z</time>
      </trkpt>
      <trkpt lat="40.830410" lon="-3.871024">
        <ele>1680.770</ele>
        <time>2021-07-31T12:58:08Z</time>
      </trkpt>
      <trkpt lat="40.830435" lon="-3.870957">
        <ele>1680.462</ele>
        <time>2021-07-31T12:58:13Z</time>
      </trkpt>
      <trkpt lat="40.830448" lon="-3.870928">
        <ele>1680.369</ele>
        <time>2021-07-31T12:58:15Z</time>
      </trkpt>
      <trkpt lat="40.830448" lon="-3.870888">
        <ele>1680.299</ele>
        <time>2021-07-31T12:58:17Z</time>
      </trkpt>
      <trkpt lat="40.830464" lon="-3.870872">
        <ele>1680.187</ele>
        <time>2021-07-31T12:58:19Z</time>
      </trkpt>
      <trkpt lat="40.830499" lon="-3.870862">
        <ele>1680.179</ele>
        <time>2021-07-31T12:58:21Z</time>
      </trkpt>
      <trkpt lat="40.830525" lon="-3.870844">
        <ele>1680.005</ele>
        <time>2021-07-31T12:58:23Z</time>
      </trkpt>
      <trkpt lat="40.830550" lon="-3.870825">
        <ele>1680.025</ele>
        <time>2021-07-31T12:58:25Z</time>
      </trkpt>
      <trkpt lat="40.830579" lon="-3.870805">
        <ele>1680.008</ele>
        <time>2021-07-31T12:58:27Z</time>
      </trkpt>
      <trkpt lat="40.830602" lon="-3.870780">
        <ele>1680.034</ele>
        <time>2021-07-31T12:58:29Z</time>
      </trkpt>
      <trkpt lat="40.830621" lon="-3.870765">
        <ele>1680.056</ele>
        <time>2021-07-31T12:58:30Z</time>
      </trkpt>
      <trkpt lat="40.830640" lon="-3.870742">
        <ele>1680.053</ele>
        <time>2021-07-31T12:58:32Z</time>
      </trkpt>
      <trkpt lat="40.830669" lon="-3.870722">
        <ele>1680.040</ele>
        <time>2021-07-31T12:58:34Z</time>
      </trkpt>
      <trkpt lat="40.830688" lon="-3.870705">
        <ele>1680.092</ele>
        <time>2021-07-31T12:58:36Z</time>
      </trkpt>
      <trkpt lat="40.830710" lon="-3.870685">
        <ele>1680.059</ele>
        <time>2021-07-31T12:58:38Z</time>
      </trkpt>
      <trkpt lat="40.830726" lon="-3.870662">
        <ele>1680.029</ele>
        <time>2021-07-31T12:58:40Z</time>
      </trkpt>
      <trkpt lat="40.830752" lon="-3.870640">
        <ele>1680.027</ele>
        <time>2021-07-31T12:58:42Z</time>
      </trkpt>
      <trkpt lat="40.830765" lon="-3.870622">
        <ele>1680.096</ele>
        <time>2021-07-31T12:58:43Z</time>
      </trkpt>
      <trkpt lat="40.830781" lon="-3.870588">
        <ele>1680.031</ele>
        <time>2021-07-31T12:58:45Z</time>
      </trkpt>
      <trkpt lat="40.830800" lon="-3.870556">
        <ele>1680.024</ele>
        <time>2021-07-31T12:58:47Z</time>
      </trkpt>
      <trkpt lat="40.830819" lon="-3.870528">
        <ele>1679.908</ele>
        <time>2021-07-31T12:58:49Z</time>
      </trkpt>
      <trkpt lat="40.830845" lon="-3.870514">
        <ele>1679.896</ele>
        <time>2021-07-31T12:58:51Z</time>
      </trkpt>
      <trkpt lat="40.830861" lon="-3.870498">
        <ele>1679.698</ele>
        <time>2021-07-31T12:58:53Z</time>
      </trkpt>
      <trkpt lat="40.830886" lon="-3.870485">
        <ele>1679.435</ele>
        <time>2021-07-31T12:58:55Z</time>
      </trkpt>
      <trkpt lat="40.830922" lon="-3.870480">
        <ele>1679.152</ele>
        <time>2021-07-31T12:58:57Z</time>
      </trkpt>
      <trkpt lat="40.830941" lon="-3.870473">
        <ele>1678.934</ele>
        <time>2021-07-31T12:58:58Z</time>
      </trkpt>
      <trkpt lat="40.830963" lon="-3.870462">
        <ele>1678.781</ele>
        <time>2021-07-31T12:59:00Z</time>
      </trkpt>
      <trkpt lat="40.830982" lon="-3.870457">
        <ele>1678.661</ele>
        <time>2021-07-31T12:59:01Z</time>
      </trkpt>
      <trkpt lat="40.831005" lon="-3.870448">
        <ele>1678.499</ele>
        <time>2021-07-31T12:59:02Z</time>
      </trkpt>
      <trkpt lat="40.831030" lon="-3.870442">
        <ele>1678.256</ele>
        <time>2021-07-31T12:59:04Z</time>
      </trkpt>
      <trkpt lat="40.831056" lon="-3.870433">
        <ele>1678.059</ele>
        <time>2021-07-31T12:59:06Z</time>
      </trkpt>
      <trkpt lat="40.831078" lon="-3.870425">
        <ele>1677.814</ele>
        <time>2021-07-31T12:59:08Z</time>
      </trkpt>
      <trkpt lat="40.831101" lon="-3.870422">
        <ele>1677.608</ele>
        <time>2021-07-31T12:59:10Z</time>
      </trkpt>
      <trkpt lat="40.831136" lon="-3.870418">
        <ele>1677.332</ele>
        <time>2021-07-31T12:59:12Z</time>
      </trkpt>
      <trkpt lat="40.831165" lon="-3.870412">
        <ele>1677.194</ele>
        <time>2021-07-31T12:59:14Z</time>
      </trkpt>
      <trkpt lat="40.831197" lon="-3.870407">
        <ele>1676.881</ele>
        <time>2021-07-31T12:59:16Z</time>
      </trkpt>
      <trkpt lat="40.831216" lon="-3.870405">
        <ele>1676.728</ele>
        <time>2021-07-31T12:59:17Z</time>
      </trkpt>
      <trkpt lat="40.831242" lon="-3.870403">
        <ele>1676.580</ele>
        <time>2021-07-31T12:59:19Z</time>
      </trkpt>
      <trkpt lat="40.831267" lon="-3.870398">
        <ele>1676.367</ele>
        <time>2021-07-31T12:59:21Z</time>
      </trkpt>
      <trkpt lat="40.831296" lon="-3.870390">
        <ele>1676.167</ele>
        <time>2021-07-31T12:59:23Z</time>
      </trkpt>
      <trkpt lat="40.831315" lon="-3.870380">
        <ele>1675.915</ele>
        <time>2021-07-31T12:59:25Z</time>
      </trkpt>
      <trkpt lat="40.831334" lon="-3.870380">
        <ele>1675.855</ele>
        <time>2021-07-31T12:59:26Z</time>
      </trkpt>
      <trkpt lat="40.831354" lon="-3.870376">
        <ele>1675.607</ele>
        <time>2021-07-31T12:59:27Z</time>
      </trkpt>
      <trkpt lat="40.831386" lon="-3.870370">
        <ele>1675.417</ele>
        <time>2021-07-31T12:59:29Z</time>
      </trkpt>
      <trkpt lat="40.831408" lon="-3.870365">
        <ele>1675.208</ele>
        <time>2021-07-31T12:59:31Z</time>
      </trkpt>
      <trkpt lat="40.831440" lon="-3.870352">
        <ele>1674.882</ele>
        <time>2021-07-31T12:59:33Z</time>
      </trkpt>
      <trkpt lat="40.831472" lon="-3.870348">
        <ele>1674.634</ele>
        <time>2021-07-31T12:59:35Z</time>
      </trkpt>
      <trkpt lat="40.831504" lon="-3.870345">
        <ele>1674.331</ele>
        <time>2021-07-31T12:59:37Z</time>
      </trkpt>
      <trkpt lat="40.831536" lon="-3.870326">
        <ele>1674.098</ele>
        <time>2021-07-31T12:59:39Z</time>
      </trkpt>
      <trkpt lat="40.831555" lon="-3.870302">
        <ele>1673.850</ele>
        <time>2021-07-31T12:59:41Z</time>
      </trkpt>
      <trkpt lat="40.831581" lon="-3.870290">
        <ele>1673.657</ele>
        <time>2021-07-31T12:59:43Z</time>
      </trkpt>
      <trkpt lat="40.831600" lon="-3.870283">
        <ele>1673.587</ele>
        <time>2021-07-31T12:59:44Z</time>
      </trkpt>
      <trkpt lat="40.831635" lon="-3.870275">
        <ele>1673.255</ele>
        <time>2021-07-31T12:59:46Z</time>
      </trkpt>
      <trkpt lat="40.831664" lon="-3.870270">
        <ele>1673.095</ele>
        <time>2021-07-31T12:59:48Z</time>
      </trkpt>
      <trkpt lat="40.831683" lon="-3.870262">
        <ele>1672.849</ele>
        <time>2021-07-31T12:59:50Z</time>
      </trkpt>
      <trkpt lat="40.831712" lon="-3.870255">
        <ele>1672.623</ele>
        <time>2021-07-31T12:59:52Z</time>
      </trkpt>
      <trkpt lat="40.831741" lon="-3.870247">
        <ele>1672.408</ele>
        <time>2021-07-31T12:59:54Z</time>
      </trkpt>
      <trkpt lat="40.831770" lon="-3.870240">
        <ele>1672.286</ele>
        <time>2021-07-31T12:59:56Z</time>
      </trkpt>
      <trkpt lat="40.831792" lon="-3.870233">
        <ele>1672.028</ele>
        <time>2021-07-31T12:59:58Z</time>
      </trkpt>
      <trkpt lat="40.831811" lon="-3.870220">
        <ele>1671.925</ele>
        <time>2021-07-31T13:00:00Z</time>
      </trkpt>
      <trkpt lat="40.831837" lon="-3.870218">
        <ele>1671.782</ele>
        <time>2021-07-31T13:00:02Z</time>
      </trkpt>
      <trkpt lat="40.831862" lon="-3.870215">
        <ele>1671.564</ele>
        <time>2021-07-31T13:00:04Z</time>
      </trkpt>
      <trkpt lat="40.831891" lon="-3.870212">
        <ele>1671.361</ele>
        <time>2021-07-31T13:00:06Z</time>
      </trkpt>
      <trkpt lat="40.831914" lon="-3.870210">
        <ele>1671.281</ele>
        <time>2021-07-31T13:00:08Z</time>
      </trkpt>
      <trkpt lat="40.831933" lon="-3.870208">
        <ele>1671.149</ele>
        <time>2021-07-31T13:00:09Z</time>
      </trkpt>
      <trkpt lat="40.831958" lon="-3.870200">
        <ele>1671.051</ele>
        <time>2021-07-31T13:00:11Z</time>
      </trkpt>
      <trkpt lat="40.831990" lon="-3.870194">
        <ele>1670.801</ele>
        <time>2021-07-31T13:00:13Z</time>
      </trkpt>
      <trkpt lat="40.832010" lon="-3.870190">
        <ele>1670.811</ele>
        <time>2021-07-31T13:00:14Z</time>
      </trkpt>
      <trkpt lat="40.832035" lon="-3.870185">
        <ele>1670.708</ele>
        <time>2021-07-31T13:00:16Z</time>
      </trkpt>
      <trkpt lat="40.832054" lon="-3.870180">
        <ele>1670.672</ele>
        <time>2021-07-31T13:00:17Z</time>
      </trkpt>
      <trkpt lat="40.832090" lon="-3.870175">
        <ele>1670.574</ele>
        <time>2021-07-31T13:00:19Z</time>
      </trkpt>
      <trkpt lat="40.832115" lon="-3.870167">
        <ele>1670.471</ele>
        <time>2021-07-31T13:00:21Z</time>
      </trkpt>
      <trkpt lat="40.832134" lon="-3.870162">
        <ele>1670.398</ele>
        <time>2021-07-31T13:00:22Z</time>
      </trkpt>
      <trkpt lat="40.832160" lon="-3.870144">
        <ele>1670.260</ele>
        <time>2021-07-31T13:00:24Z</time>
      </trkpt>
      <trkpt lat="40.832189" lon="-3.870127">
        <ele>1670.187</ele>
        <time>2021-07-31T13:00:26Z</time>
      </trkpt>
      <trkpt lat="40.832208" lon="-3.870117">
        <ele>1670.197</ele>
        <time>2021-07-31T13:00:28Z</time>
      </trkpt>
      <trkpt lat="40.832237" lon="-3.870110">
        <ele>1670.075</ele>
        <time>2021-07-31T13:00:30Z</time>
      </trkpt>
      <trkpt lat="40.832262" lon="-3.870102">
        <ele>1670.068</ele>
        <time>2021-07-31T13:00:32Z</time>
      </trkpt>
      <trkpt lat="40.832282" lon="-3.870100">
        <ele>1670.042</ele>
        <time>2021-07-31T13:00:33Z</time>
      </trkpt>
      <trkpt lat="40.832301" lon="-3.870095">
        <ele>1670.026</ele>
        <time>2021-07-31T13:00:34Z</time>
      </trkpt>
      <trkpt lat="40.832333" lon="-3.870092">
        <ele>1670.008</ele>
        <time>2021-07-31T13:00:36Z</time>
      </trkpt>
      <trkpt lat="40.832358" lon="-3.870095">
        <ele>1670.033</ele>
        <time>2021-07-31T13:00:38Z</time>
      </trkpt>
      <trkpt lat="40.832390" lon="-3.870093">
        <ele>1670.055</ele>
        <time>2021-07-31T13:00:40Z</time>
      </trkpt>
      <trkpt lat="40.832416" lon="-3.870100">
        <ele>1670.022</ele>
        <time>2021-07-31T13:00:43Z</time>
      </trkpt>
      <trkpt lat="40.832438" lon="-3.870105">
        <ele>1670.049</ele>
        <time>2021-07-31T13:00:45Z</time>
      </trkpt>
      <trkpt lat="40.832467" lon="-3.870108">
        <ele>1670.041</ele>
        <time>2021-07-31T13:00:47Z</time>
      </trkpt>
      <trkpt lat="40.832496" lon="-3.870108">
        <ele>1670.048</ele>
        <time>2021-07-31T13:00:49Z</time>
      </trkpt>
      <trkpt lat="40.832531" lon="-3.870105">
        <ele>1670.078</ele>
        <time>2021-07-31T13:00:51Z</time>
      </trkpt>
      <trkpt lat="40.832550" lon="-3.870102">
        <ele>1670.096</ele>
        <time>2021-07-31T13:00:52Z</time>
      </trkpt>
      <trkpt lat="40.832576" lon="-3.870100">
        <ele>1670.027</ele>
        <time>2021-07-31T13:00:54Z</time>
      </trkpt>
      <trkpt lat="40.832598" lon="-3.870102">
        <ele>1670.068</ele>
        <time>2021-07-31T13:00:56Z</time>
      </trkpt>
      <trkpt lat="40.832618" lon="-3.870103">
        <ele>1670.014</ele>
        <time>2021-07-31T13:00:58Z</time>
      </trkpt>
      <trkpt lat="40.832643" lon="-3.870098">
        <ele>1670.008</ele>
        <time>2021-07-31T13:01:00Z</time>
      </trkpt>
      <trkpt lat="40.832672" lon="-3.870093">
        <ele>1670.019</ele>
        <time>2021-07-31T13:01:02Z</time>
      </trkpt>
      <trkpt lat="40.832704" lon="-3.870085">
        <ele>1670.091</ele>
        <time>2021-07-31T13:01:04Z</time>
      </trkpt>
      <trkpt lat="40.832733" lon="-3.870083">
        <ele>1670.028</ele>
        <time>2021-07-31T13:01:06Z</time>
      </trkpt>
      <trkpt lat="40.832765" lon="-3.870085">
        <ele>1670.015</ele>
        <time>2021-07-31T13:01:08Z</time>
      </trkpt>
      <trkpt lat="40.832790" lon="-3.870088">
        <ele>1670.087</ele>
        <time>2021-07-31T13:01:10Z</time>
      </trkpt>
      <trkpt lat="40.832816" lon="-3.870088">
        <ele>1670.064</ele>
        <time>2021-07-31T13:01:12Z</time>
      </trkpt>
      <trkpt lat="40.832838" lon="-3.870088">
        <ele>1670.074</ele>
        <time>2021-07-31T13:01:14Z</time>
      </trkpt>
      <trkpt lat="40.832867" lon="-3.870087">
        <ele>1670.092</ele>
        <time>2021-07-31T13:01:16Z</time>
      </trkpt>
      <trkpt lat="40.832896" lon="-3.870082">
        <ele>1670.061</ele>
        <time>2021-07-31T13:01:18Z</time>
      </trkpt>
      <trkpt lat="40.832928" lon="-3.870085">
        <ele>1670.021</ele>
        <time>2021-07-31T13:01:20Z</time>
      </trkpt>
      <trkpt lat="40.832957" lon="-3.870087">
        <ele>1670.013</ele>
        <time>2021-07-31T13:01:22Z</time>
      </trkpt>
      <trkpt lat="40.832982" lon="-3.870085">
        <ele>1670.008</ele>
        <time>2021-07-31T13:01:24Z</time>
      </trkpt>
      <trkpt lat="40.833005" lon="-3.870085">
        <ele>1670.073</ele>
        <time>2021-07-31T13:01:26Z</time>
      </trkpt>
      <trkpt lat="40.833030" lon="-3.870083">
        <ele>1670.015</ele>
        <time>2021-07-31T13:01:28Z</time>
      </trkpt>
      <trkpt lat="40.833053" lon="-3.870082">
        <ele>1670.082</ele>
        <time>2021-07-31T13:01:30Z</time>
      </trkpt>
      <trkpt lat="40.833082" lon="-3.870087">
        <ele>1669.819</ele>
        <time>2021-07-31T13:01:32Z</time>
      </trkpt>
      <trkpt lat="40.833104" lon="-3.870088">
        <ele>1669.781</ele>
        <time>2021-07-31T13:01:33Z</time>
      </trkpt>
      <trkpt lat="40.833130" lon="-3.870093">
        <ele>1669.648</ele>
        <time>2021-07-31T13:01:35Z</time>
      </trkpt>
      <trkpt lat="40.833155" lon="-3.870095">
        <ele>1669.448</ele>
        <time>2021-07-31T13:01:37Z</time>
      </trkpt>
      <trkpt lat="40.833174" lon="-3.870093">
        <ele>1669.326</ele>
        <time>2021-07-31T13:01:38Z</time>
      </trkpt>
      <trkpt lat="40.833194" lon="-3.870110">
        <ele>1669.111</ele>
        <time>2021-07-31T13:01:40Z</time>
      </trkpt>
      <trkpt lat="40.833213" lon="-3.870123">
        <ele>1668.921</ele>
        <time>2021-07-31T13:01:42Z</time>
      </trkpt>
      <trkpt lat="40.833242" lon="-3.870144">
        <ele>1668.603</ele>
        <time>2021-07-31T13:01:44Z</time>
      </trkpt>
      <trkpt lat="40.833261" lon="-3.870152">
        <ele>1668.508</ele>
        <time>2021-07-31T13:01:45Z</time>
      </trkpt>
      <trkpt lat="40.833290" lon="-3.870157">
        <ele>1668.248</ele>
        <time>2021-07-31T13:01:47Z</time>
      </trkpt>
      <trkpt lat="40.833309" lon="-3.870155">
        <ele>1668.140</ele>
        <time>2021-07-31T13:01:48Z</time>
      </trkpt>
      <trkpt lat="40.833344" lon="-3.870152">
        <ele>1667.837</ele>
        <time>2021-07-31T13:01:50Z</time>
      </trkpt>
      <trkpt lat="40.833366" lon="-3.870154">
        <ele>1667.724</ele>
        <time>2021-07-31T13:01:52Z</time>
      </trkpt>
      <trkpt lat="40.833386" lon="-3.870164">
        <ele>1667.446</ele>
        <time>2021-07-31T13:01:54Z</time>
      </trkpt>
      <trkpt lat="40.833408" lon="-3.870168">
        <ele>1667.343</ele>
        <time>2021-07-31T13:01:56Z</time>
      </trkpt>
      <trkpt lat="40.833440" lon="-3.870168">
        <ele>1667.043</ele>
        <time>2021-07-31T13:01:58Z</time>
      </trkpt>
      <trkpt lat="40.833469" lon="-3.870168">
        <ele>1666.841</ele>
        <time>2021-07-31T13:02:00Z</time>
      </trkpt>
      <trkpt lat="40.833488" lon="-3.870170">
        <ele>1666.784</ele>
        <time>2021-07-31T13:02:01Z</time>
      </trkpt>
      <trkpt lat="40.833520" lon="-3.870172">
        <ele>1666.407</ele>
        <time>2021-07-31T13:02:03Z</time>
      </trkpt>
      <trkpt lat="40.833546" lon="-3.870168">
        <ele>1666.317</ele>
        <time>2021-07-31T13:02:05Z</time>
      </trkpt>
      <trkpt lat="40.833578" lon="-3.870174">
        <ele>1666.008</ele>
        <time>2021-07-31T13:02:07Z</time>
      </trkpt>
      <trkpt lat="40.833600" lon="-3.870170">
        <ele>1665.985</ele>
        <time>2021-07-31T13:02:09Z</time>
      </trkpt>
      <trkpt lat="40.833626" lon="-3.870170">
        <ele>1665.787</ele>
        <time>2021-07-31T13:02:11Z</time>
      </trkpt>
      <trkpt lat="40.833658" lon="-3.870160">
        <ele>1665.714</ele>
        <time>2021-07-31T13:02:13Z</time>
      </trkpt>
      <trkpt lat="40.833683" lon="-3.870155">
        <ele>1665.631</ele>
        <time>2021-07-31T13:02:15Z</time>
      </trkpt>
      <trkpt lat="40.833709" lon="-3.870138">
        <ele>1665.793</ele>
        <time>2021-07-31T13:02:17Z</time>
      </trkpt>
      <trkpt lat="40.833731" lon="-3.870118">
        <ele>1665.780</ele>
        <time>2021-07-31T13:02:19Z</time>
      </trkpt>
      <trkpt lat="40.833760" lon="-3.870113">
        <ele>1665.710</ele>
        <time>2021-07-31T13:02:21Z</time>
      </trkpt>
      <trkpt lat="40.833782" lon="-3.870108">
        <ele>1665.618</ele>
        <time>2021-07-31T13:02:23Z</time>
      </trkpt>
      <trkpt lat="40.833808" lon="-3.870098">
        <ele>1665.642</ele>
        <time>2021-07-31T13:02:25Z</time>
      </trkpt>
      <trkpt lat="40.833840" lon="-3.870097">
        <ele>1665.522</ele>
        <time>2021-07-31T13:02:27Z</time>
      </trkpt>
      <trkpt lat="40.833869" lon="-3.870090">
        <ele>1665.414</ele>
        <time>2021-07-31T13:02:29Z</time>
      </trkpt>
      <trkpt lat="40.833898" lon="-3.870085">
        <ele>1665.308</ele>
        <time>2021-07-31T13:02:31Z</time>
      </trkpt>
      <trkpt lat="40.833920" lon="-3.870080">
        <ele>1665.211</ele>
        <time>2021-07-31T13:02:33Z</time>
      </trkpt>
      <trkpt lat="40.833939" lon="-3.870072">
        <ele>1665.233</ele>
        <time>2021-07-31T13:02:35Z</time>
      </trkpt>
      <trkpt lat="40.833968" lon="-3.870057">
        <ele>1665.170</ele>
        <time>2021-07-31T13:02:37Z</time>
      </trkpt>
      <trkpt lat="40.834000" lon="-3.870053">
        <ele>1664.917</ele>
        <time>2021-07-31T13:02:39Z</time>
      </trkpt>
      <trkpt lat="40.834022" lon="-3.870058">
        <ele>1664.759</ele>
        <time>2021-07-31T13:02:41Z</time>
      </trkpt>
      <trkpt lat="40.834042" lon="-3.870065">
        <ele>1664.676</ele>
        <time>2021-07-31T13:02:43Z</time>
      </trkpt>
      <trkpt lat="40.834067" lon="-3.870065">
        <ele>1664.456</ele>
        <time>2021-07-31T13:02:45Z</time>
      </trkpt>
      <trkpt lat="40.834099" lon="-3.870068">
        <ele>1664.274</ele>
        <time>2021-07-31T13:02:47Z</time>
      </trkpt>
      <trkpt lat="40.834118" lon="-3.870072">
        <ele>1664.096</ele>
        <time>2021-07-31T13:02:48Z</time>
      </trkpt>
      <trkpt lat="40.834144" lon="-3.870070">
        <ele>1663.931</ele>
        <time>2021-07-31T13:02:50Z</time>
      </trkpt>
      <trkpt lat="40.834166" lon="-3.870063">
        <ele>1663.824</ele>
        <time>2021-07-31T13:02:52Z</time>
      </trkpt>
      <trkpt lat="40.834195" lon="-3.870058">
        <ele>1663.708</ele>
        <time>2021-07-31T13:02:54Z</time>
      </trkpt>
      <trkpt lat="40.834221" lon="-3.870060">
        <ele>1663.626</ele>
        <time>2021-07-31T13:02:56Z</time>
      </trkpt>
      <trkpt lat="40.834246" lon="-3.870057">
        <ele>1663.678</ele>
        <time>2021-07-31T13:02:58Z</time>
      </trkpt>
      <trkpt lat="40.834282" lon="-3.870050">
        <ele>1663.575</ele>
        <time>2021-07-31T13:03:00Z</time>
      </trkpt>
      <trkpt lat="40.834304" lon="-3.870050">
        <ele>1663.482</ele>
        <time>2021-07-31T13:03:01Z</time>
      </trkpt>
      <trkpt lat="40.834333" lon="-3.870048">
        <ele>1663.314</ele>
        <time>2021-07-31T13:03:03Z</time>
      </trkpt>
      <trkpt lat="40.834358" lon="-3.870050">
        <ele>1663.371</ele>
        <time>2021-07-31T13:03:05Z</time>
      </trkpt>
      <trkpt lat="40.834381" lon="-3.870050">
        <ele>1663.251</ele>
        <time>2021-07-31T13:03:07Z</time>
      </trkpt>
      <trkpt lat="40.834413" lon="-3.870052">
        <ele>1663.119</ele>
        <time>2021-07-31T13:03:09Z</time>
      </trkpt>
      <trkpt lat="40.834432" lon="-3.870050">
        <ele>1663.094</ele>
        <time>2021-07-31T13:03:10Z</time>
      </trkpt>
      <trkpt lat="40.834461" lon="-3.870047">
        <ele>1662.957</ele>
        <time>2021-07-31T13:03:12Z</time>
      </trkpt>
      <trkpt lat="40.834486" lon="-3.870047">
        <ele>1662.822</ele>
        <time>2021-07-31T13:03:14Z</time>
      </trkpt>
      <trkpt lat="40.834518" lon="-3.870047">
        <ele>1662.708</ele>
        <time>2021-07-31T13:03:16Z</time>
      </trkpt>
      <trkpt lat="40.834541" lon="-3.870048">
        <ele>1662.796</ele>
        <time>2021-07-31T13:03:18Z</time>
      </trkpt>
      <trkpt lat="40.834563" lon="-3.870050">
        <ele>1662.648</ele>
        <time>2021-07-31T13:03:20Z</time>
      </trkpt>
      <trkpt lat="40.834595" lon="-3.870047">
        <ele>1662.595</ele>
        <time>2021-07-31T13:03:22Z</time>
      </trkpt>
      <trkpt lat="40.834614" lon="-3.870045">
        <ele>1662.482</ele>
        <time>2021-07-31T13:03:23Z</time>
      </trkpt>
      <trkpt lat="40.834643" lon="-3.870052">
        <ele>1662.314</ele>
        <time>2021-07-31T13:03:25Z</time>
      </trkpt>
      <trkpt lat="40.834662" lon="-3.870057">
        <ele>1662.241</ele>
        <time>2021-07-31T13:03:26Z</time>
      </trkpt>
      <trkpt lat="40.834682" lon="-3.870060">
        <ele>1662.191</ele>
        <time>2021-07-31T13:03:27Z</time>
      </trkpt>
      <trkpt lat="40.834714" lon="-3.870055">
        <ele>1662.029</ele>
        <time>2021-07-31T13:03:29Z</time>
      </trkpt>
      <trkpt lat="40.834736" lon="-3.870057">
        <ele>1661.924</ele>
        <time>2021-07-31T13:03:31Z</time>
      </trkpt>
      <trkpt lat="40.834758" lon="-3.870057">
        <ele>1661.704</ele>
        <time>2021-07-31T13:03:33Z</time>
      </trkpt>
      <trkpt lat="40.834784" lon="-3.870048">
        <ele>1661.614</ele>
        <time>2021-07-31T13:03:35Z</time>
      </trkpt>
      <trkpt lat="40.834816" lon="-3.870045">
        <ele>1661.308</ele>
        <time>2021-07-31T13:03:37Z</time>
      </trkpt>
      <trkpt lat="40.834835" lon="-3.870045">
        <ele>1661.269</ele>
        <time>2021-07-31T13:03:38Z</time>
      </trkpt>
      <trkpt lat="40.834864" lon="-3.870042">
        <ele>1661.061</ele>
        <time>2021-07-31T13:03:40Z</time>
      </trkpt>
      <trkpt lat="40.834896" lon="-3.870045">
        <ele>1660.738</ele>
        <time>2021-07-31T13:03:42Z</time>
      </trkpt>
      <trkpt lat="40.834915" lon="-3.870045">
        <ele>1660.675</ele>
        <time>2021-07-31T13:03:43Z</time>
      </trkpt>
      <trkpt lat="40.834950" lon="-3.870040">
        <ele>1660.497</ele>
        <time>2021-07-31T13:03:45Z</time>
      </trkpt>
      <trkpt lat="40.834973" lon="-3.870048">
        <ele>1660.244</ele>
        <time>2021-07-31T13:03:47Z</time>
      </trkpt>
      <trkpt lat="40.834995" lon="-3.870055">
        <ele>1660.034</ele>
        <time>2021-07-31T13:03:49Z</time>
      </trkpt>
      <trkpt lat="40.835018" lon="-3.870053">
        <ele>1659.872</ele>
        <time>2021-07-31T13:03:51Z</time>
      </trkpt>
      <trkpt lat="40.835050" lon="-3.870058">
        <ele>1659.435</ele>
        <time>2021-07-31T13:03:53Z</time>
      </trkpt>
      <trkpt lat="40.835082" lon="-3.870062">
        <ele>1659.086</ele>
        <time>2021-07-31T13:03:55Z</time>
      </trkpt>
      <trkpt lat="40.835101" lon="-3.870058">
        <ele>1658.814</ele>
        <time>2021-07-31T13:03:56Z</time>
      </trkpt>
      <trkpt lat="40.835130" lon="-3.870068">
        <ele>1658.508</ele>
        <time>2021-07-31T13:03:58Z</time>
      </trkpt>
      <trkpt lat="40.835152" lon="-3.870077">
        <ele>1658.290</ele>
        <time>2021-07-31T13:04:00Z</time>
      </trkpt>
      <trkpt lat="40.835174" lon="-3.870083">
        <ele>1657.942</ele>
        <time>2021-07-31T13:04:02Z</time>
      </trkpt>
      <trkpt lat="40.835194" lon="-3.870082">
        <ele>1657.789</ele>
        <time>2021-07-31T13:04:04Z</time>
      </trkpt>
      <trkpt lat="40.835216" lon="-3.870082">
        <ele>1657.486</ele>
        <time>2021-07-31T13:04:06Z</time>
      </trkpt>
      <trkpt lat="40.835248" lon="-3.870080">
        <ele>1657.158</ele>
        <time>2021-07-31T13:04:08Z</time>
      </trkpt>
      <trkpt lat="40.835270" lon="-3.870085">
        <ele>1656.845</ele>
        <time>2021-07-31T13:04:10Z</time>
      </trkpt>
      <trkpt lat="40.835290" lon="-3.870088">
        <ele>1656.585</ele>
        <time>2021-07-31T13:04:12Z</time>
      </trkpt>
      <trkpt lat="40.835315" lon="-3.870098">
        <ele>1656.233</ele>
        <time>2021-07-31T13:04:14Z</time>
      </trkpt>
      <trkpt lat="40.835334" lon="-3.870103">
        <ele>1655.926</ele>
        <time>2021-07-31T13:04:16Z</time>
      </trkpt>
      <trkpt lat="40.835366" lon="-3.870112">
        <ele>1655.547</ele>
        <time>2021-07-31T13:04:18Z</time>
      </trkpt>
      <trkpt lat="40.835392" lon="-3.870120">
        <ele>1655.111</ele>
        <time>2021-07-31T13:04:20Z</time>
      </trkpt>
      <trkpt lat="40.835418" lon="-3.870127">
        <ele>1654.808</ele>
        <time>2021-07-31T13:04:22Z</time>
      </trkpt>
      <trkpt lat="40.835440" lon="-3.870133">
        <ele>1654.569</ele>
        <time>2021-07-31T13:04:24Z</time>
      </trkpt>
      <trkpt lat="40.835475" lon="-3.870133">
        <ele>1654.011</ele>
        <time>2021-07-31T13:04:26Z</time>
      </trkpt>
      <trkpt lat="40.835504" lon="-3.870127">
        <ele>1653.748</ele>
        <time>2021-07-31T13:04:28Z</time>
      </trkpt>
      <trkpt lat="40.835523" lon="-3.870122">
        <ele>1653.435</ele>
        <time>2021-07-31T13:04:30Z</time>
      </trkpt>
      <trkpt lat="40.835552" lon="-3.870117">
        <ele>1653.027</ele>
        <time>2021-07-31T13:04:32Z</time>
      </trkpt>
      <trkpt lat="40.835574" lon="-3.870117">
        <ele>1652.994</ele>
        <time>2021-07-31T13:04:34Z</time>
      </trkpt>
      <trkpt lat="40.835603" lon="-3.870122">
        <ele>1652.794</ele>
        <time>2021-07-31T13:04:36Z</time>
      </trkpt>
      <trkpt lat="40.835622" lon="-3.870128">
        <ele>1652.612</ele>
        <time>2021-07-31T13:04:38Z</time>
      </trkpt>
      <trkpt lat="40.835654" lon="-3.870128">
        <ele>1652.542</ele>
        <time>2021-07-31T13:04:41Z</time>
      </trkpt>
      <trkpt lat="40.835677" lon="-3.870130">
        <ele>1652.322</ele>
        <time>2021-07-31T13:04:43Z</time>
      </trkpt>
      <trkpt lat="40.835709" lon="-3.870128">
        <ele>1652.214</ele>
        <time>2021-07-31T13:04:45Z</time>
      </trkpt>
      <trkpt lat="40.835731" lon="-3.870130">
        <ele>1652.008</ele>
        <time>2021-07-31T13:04:47Z</time>
      </trkpt>
      <trkpt lat="40.835763" lon="-3.870137">
        <ele>1651.991</ele>
        <time>2021-07-31T13:04:49Z</time>
      </trkpt>
      <trkpt lat="40.835782" lon="-3.870132">
        <ele>1651.853</ele>
        <time>2021-07-31T13:04:50Z</time>
      </trkpt>
      <trkpt lat="40.835802" lon="-3.870137">
        <ele>1651.750</ele>
        <time>2021-07-31T13:04:52Z</time>
      </trkpt>
      <trkpt lat="40.835824" lon="-3.870128">
        <ele>1651.517</ele>
        <time>2021-07-31T13:04:54Z</time>
      </trkpt>
      <trkpt lat="40.835853" lon="-3.870120">
        <ele>1651.529</ele>
        <time>2021-07-31T13:04:56Z</time>
      </trkpt>
      <trkpt lat="40.835885" lon="-3.870110">
        <ele>1651.766</ele>
        <time>2021-07-31T13:04:58Z</time>
      </trkpt>
      <trkpt lat="40.835904" lon="-3.870110">
        <ele>1651.836</ele>
        <time>2021-07-31T13:04:59Z</time>
      </trkpt>
      <trkpt lat="40.835933" lon="-3.870108">
        <ele>1651.994</ele>
        <time>2021-07-31T13:05:01Z</time>
      </trkpt>
      <trkpt lat="40.835965" lon="-3.870112">
        <ele>1652.161</ele>
        <time>2021-07-31T13:05:03Z</time>
      </trkpt>
      <trkpt lat="40.835987" lon="-3.870108">
        <ele>1652.221</ele>
        <time>2021-07-31T13:05:05Z</time>
      </trkpt>
      <trkpt lat="40.836022" lon="-3.870112">
        <ele>1652.413</ele>
        <time>2021-07-31T13:05:07Z</time>
      </trkpt>
      <trkpt lat="40.836048" lon="-3.870107">
        <ele>1652.508</ele>
        <time>2021-07-31T13:05:09Z</time>
      </trkpt>
      <trkpt lat="40.836074" lon="-3.870102">
        <ele>1652.653</ele>
        <time>2021-07-31T13:05:11Z</time>
      </trkpt>
      <trkpt lat="40.836102" lon="-3.870110">
        <ele>1652.715</ele>
        <time>2021-07-31T13:05:13Z</time>
      </trkpt>
      <trkpt lat="40.836125" lon="-3.870110">
        <ele>1652.972</ele>
        <time>2021-07-31T13:05:15Z</time>
      </trkpt>
      <trkpt lat="40.836147" lon="-3.870103">
        <ele>1652.999</ele>
        <time>2021-07-31T13:05:17Z</time>
      </trkpt>
      <trkpt lat="40.836173" lon="-3.870102">
        <ele>1653.091</ele>
        <time>2021-07-31T13:05:19Z</time>
      </trkpt>
      <trkpt lat="40.836192" lon="-3.870103">
        <ele>1653.188</ele>
        <time>2021-07-31T13:05:20Z</time>
      </trkpt>
      <trkpt lat="40.836214" lon="-3.870102">
        <ele>1653.238</ele>
        <time>2021-07-31T13:05:21Z</time>
      </trkpt>
      <trkpt lat="40.836240" lon="-3.870100">
        <ele>1653.456</ele>
        <time>2021-07-31T13:05:22Z</time>
      </trkpt>
      <trkpt lat="40.836259" lon="-3.870102">
        <ele>1653.599</ele>
        <time>2021-07-31T13:05:23Z</time>
      </trkpt>
      <trkpt lat="40.836285" lon="-3.870108">
        <ele>1653.607</ele>
        <time>2021-07-31T13:05:25Z</time>
      </trkpt>
      <trkpt lat="40.836314" lon="-3.870117">
        <ele>1653.927</ele>
        <time>2021-07-31T13:05:27Z</time>
      </trkpt>
      <trkpt lat="40.836333" lon="-3.870117">
        <ele>1654.008</ele>
        <time>2021-07-31T13:05:29Z</time>
      </trkpt>
      <trkpt lat="40.836362" lon="-3.870115">
        <ele>1654.166</ele>
        <time>2021-07-31T13:05:31Z</time>
      </trkpt>
      <trkpt lat="40.836381" lon="-3.870125">
        <ele>1654.348</ele>
        <time>2021-07-31T13:05:33Z</time>
      </trkpt>
      <trkpt lat="40.836410" lon="-3.870137">
        <ele>1654.685</ele>
        <time>2021-07-31T13:05:35Z</time>
      </trkpt>
      <trkpt lat="40.836445" lon="-3.870148">
        <ele>1654.882</ele>
        <time>2021-07-31T13:05:37Z</time>
      </trkpt>
      <trkpt lat="40.836470" lon="-3.870155">
        <ele>1655.054</ele>
        <time>2021-07-31T13:05:39Z</time>
      </trkpt>
      <trkpt lat="40.836509" lon="-3.870155">
        <ele>1655.151</ele>
        <time>2021-07-31T13:05:41Z</time>
      </trkpt>
      <trkpt lat="40.836528" lon="-3.870162">
        <ele>1655.251</ele>
        <time>2021-07-31T13:05:42Z</time>
      </trkpt>
      <trkpt lat="40.836563" lon="-3.870172">
        <ele>1655.569</ele>
        <time>2021-07-31T13:05:44Z</time>
      </trkpt>
      <trkpt lat="40.836598" lon="-3.870180">
        <ele>1655.765</ele>
        <time>2021-07-31T13:05:46Z</time>
      </trkpt>
      <trkpt lat="40.836621" lon="-3.870182">
        <ele>1655.868</ele>
        <time>2021-07-31T13:05:48Z</time>
      </trkpt>
      <trkpt lat="40.836640" lon="-3.870168">
        <ele>1655.714</ele>
        <time>2021-07-31T13:05:50Z</time>
      </trkpt>
      <trkpt lat="40.836662" lon="-3.870168">
        <ele>1655.808</ele>
        <time>2021-07-31T13:05:52Z</time>
      </trkpt>
      <trkpt lat="40.836688" lon="-3.870168">
        <ele>1655.953</ele>
        <time>2021-07-31T13:05:54Z</time>
      </trkpt>
      <trkpt lat="40.836720" lon="-3.870160">
        <ele>1655.965</ele>
        <time>2021-07-31T13:05:56Z</time>
      </trkpt>
      <trkpt lat="40.836749" lon="-3.870148">
        <ele>1655.932</ele>
        <time>2021-07-31T13:05:58Z</time>
      </trkpt>
      <trkpt lat="40.836778" lon="-3.870144">
        <ele>1656.029</ele>
        <time>2021-07-31T13:06:00Z</time>
      </trkpt>
      <trkpt lat="40.836803" lon="-3.870140">
        <ele>1656.011</ele>
        <time>2021-07-31T13:06:02Z</time>
      </trkpt>
      <trkpt lat="40.836826" lon="-3.870140">
        <ele>1656.118</ele>
        <time>2021-07-31T13:06:04Z</time>
      </trkpt>
      <trkpt lat="40.836848" lon="-3.870144">
        <ele>1656.228</ele>
        <time>2021-07-31T13:06:06Z</time>
      </trkpt>
      <trkpt lat="40.836877" lon="-3.870135">
        <ele>1656.216</ele>
        <time>2021-07-31T13:06:08Z</time>
      </trkpt>
      <trkpt lat="40.836902" lon="-3.870133">
        <ele>1656.383</ele>
        <time>2021-07-31T13:06:10Z</time>
      </trkpt>
      <trkpt lat="40.836922" lon="-3.870132">
        <ele>1656.325</ele>
        <time>2021-07-31T13:06:11Z</time>
      </trkpt>
      <trkpt lat="40.836947" lon="-3.870133">
        <ele>1656.417</ele>
        <time>2021-07-31T13:06:13Z</time>
      </trkpt>
      <trkpt lat="40.836979" lon="-3.870130">
        <ele>1656.208</ele>
        <time>2021-07-31T13:06:15Z</time>
      </trkpt>
      <trkpt lat="40.837008" lon="-3.870130">
        <ele>1656.135</ele>
        <time>2021-07-31T13:06:17Z</time>
      </trkpt>
      <trkpt lat="40.837037" lon="-3.870125">
        <ele>1655.927</ele>
        <time>2021-07-31T13:06:19Z</time>
      </trkpt>
      <trkpt lat="40.837066" lon="-3.870127">
        <ele>1655.774</ele>
        <time>2021-07-31T13:06:21Z</time>
      </trkpt>
      <trkpt lat="40.837094" lon="-3.870125">
        <ele>1655.671</ele>
        <time>2021-07-31T13:06:23Z</time>
      </trkpt>
      <trkpt lat="40.837123" lon="-3.870123">
        <ele>1655.463</ele>
        <time>2021-07-31T13:06:25Z</time>
      </trkpt>
      <trkpt lat="40.837142" lon="-3.870123">
        <ele>1655.350</ele>
        <time>2021-07-31T13:06:26Z</time>
      </trkpt>
      <trkpt lat="40.837174" lon="-3.870125">
        <ele>1655.220</ele>
        <time>2021-07-31T13:06:28Z</time>
      </trkpt>
      <trkpt lat="40.837203" lon="-3.870127">
        <ele>1655.038</ele>
        <time>2021-07-31T13:06:30Z</time>
      </trkpt>
      <trkpt lat="40.837226" lon="-3.870132">
        <ele>1654.965</ele>
        <time>2021-07-31T13:06:32Z</time>
      </trkpt>
      <trkpt lat="40.837251" lon="-3.870133">
        <ele>1654.868</ele>
        <time>2021-07-31T13:06:34Z</time>
      </trkpt>
      <trkpt lat="40.837277" lon="-3.870137">
        <ele>1654.714</ele>
        <time>2021-07-31T13:06:36Z</time>
      </trkpt>
      <trkpt lat="40.837312" lon="-3.870132">
        <ele>1654.508</ele>
        <time>2021-07-31T13:06:38Z</time>
      </trkpt>
      <trkpt lat="40.837341" lon="-3.870127">
        <ele>1654.313</ele>
        <time>2021-07-31T13:06:40Z</time>
      </trkpt>
      <trkpt lat="40.837373" lon="-3.870132">
        <ele>1654.235</ele>
        <time>2021-07-31T13:06:42Z</time>
      </trkpt>
      <trkpt lat="40.837395" lon="-3.870137">
        <ele>1654.142</ele>
        <time>2021-07-31T13:06:44Z</time>
      </trkpt>
      <trkpt lat="40.837414" lon="-3.870135">
        <ele>1653.979</ele>
        <time>2021-07-31T13:06:46Z</time>
      </trkpt>
      <trkpt lat="40.837440" lon="-3.870138">
        <ele>1653.821</ele>
        <time>2021-07-31T13:06:48Z</time>
      </trkpt>
      <trkpt lat="40.837472" lon="-3.870147">
        <ele>1653.728</ele>
        <time>2021-07-31T13:06:50Z</time>
      </trkpt>
      <trkpt lat="40.837498" lon="-3.870145">
        <ele>1653.558</ele>
        <time>2021-07-31T13:06:52Z</time>
      </trkpt>
      <trkpt lat="40.837517" lon="-3.870150">
        <ele>1653.326</ele>
        <time>2021-07-31T13:06:53Z</time>
      </trkpt>
      <trkpt lat="40.837542" lon="-3.870154">
        <ele>1653.048</ele>
        <time>2021-07-31T13:06:55Z</time>
      </trkpt>
      <trkpt lat="40.837574" lon="-3.870157">
        <ele>1652.661</ele>
        <time>2021-07-31T13:06:57Z</time>
      </trkpt>
      <trkpt lat="40.837594" lon="-3.870165">
        <ele>1652.417</ele>
        <time>2021-07-31T13:06:58Z</time>
      </trkpt>
      <trkpt lat="40.837619" lon="-3.870178">
        <ele>1652.108</ele>
        <time>2021-07-31T13:07:00Z</time>
      </trkpt>
      <trkpt lat="40.837642" lon="-3.870180">
        <ele>1651.841</ele>
        <time>2021-07-31T13:07:02Z</time>
      </trkpt>
      <trkpt lat="40.837664" lon="-3.870190">
        <ele>1651.523</ele>
        <time>2021-07-31T13:07:04Z</time>
      </trkpt>
      <trkpt lat="40.837683" lon="-3.870192">
        <ele>1651.310</ele>
        <time>2021-07-31T13:07:05Z</time>
      </trkpt>
      <trkpt lat="40.837715" lon="-3.870195">
        <ele>1650.887</ele>
        <time>2021-07-31T13:07:07Z</time>
      </trkpt>
      <trkpt lat="40.837734" lon="-3.870200">
        <ele>1650.669</ele>
        <time>2021-07-31T13:07:08Z</time>
      </trkpt>
      <trkpt lat="40.837760" lon="-3.870217">
        <ele>1650.236</ele>
        <time>2021-07-31T13:07:10Z</time>
      </trkpt>
      <trkpt lat="40.837789" lon="-3.870238">
        <ele>1649.926</ele>
        <time>2021-07-31T13:07:12Z</time>
      </trkpt>
      <trkpt lat="40.837811" lon="-3.870257">
        <ele>1649.624</ele>
        <time>2021-07-31T13:07:14Z</time>
      </trkpt>
      <trkpt lat="40.837834" lon="-3.870273">
        <ele>1649.413</ele>
        <time>2021-07-31T13:07:16Z</time>
      </trkpt>
      <trkpt lat="40.837856" lon="-3.870288">
        <ele>1649.143</ele>
        <time>2021-07-31T13:07:18Z</time>
      </trkpt>
      <trkpt lat="40.837878" lon="-3.870305">
        <ele>1648.907</ele>
        <time>2021-07-31T13:07:20Z</time>
      </trkpt>
      <trkpt lat="40.837901" lon="-3.870312">
        <ele>1648.608</ele>
        <time>2021-07-31T13:07:22Z</time>
      </trkpt>
      <trkpt lat="40.837926" lon="-3.870328">
        <ele>1648.358</ele>
        <time>2021-07-31T13:07:24Z</time>
      </trkpt>
      <trkpt lat="40.837949" lon="-3.870342">
        <ele>1648.160</ele>
        <time>2021-07-31T13:07:26Z</time>
      </trkpt>
      <trkpt lat="40.837974" lon="-3.870352">
        <ele>1647.877</ele>
        <time>2021-07-31T13:07:28Z</time>
      </trkpt>
      <trkpt lat="40.838000" lon="-3.870360">
        <ele>1647.574</ele>
        <time>2021-07-31T13:07:30Z</time>
      </trkpt>
      <trkpt lat="40.838019" lon="-3.870365">
        <ele>1647.446</ele>
        <time>2021-07-31T13:07:31Z</time>
      </trkpt>
      <trkpt lat="40.838035" lon="-3.870376">
        <ele>1647.213</ele>
        <time>2021-07-31T13:07:32Z</time>
      </trkpt>
      <trkpt lat="40.838067" lon="-3.870390">
        <ele>1646.943</ele>
        <time>2021-07-31T13:07:34Z</time>
      </trkpt>
      <trkpt lat="40.838093" lon="-3.870407">
        <ele>1646.731</ele>
        <time>2021-07-31T13:07:36Z</time>
      </trkpt>
      <trkpt lat="40.838112" lon="-3.870422">
        <ele>1646.695</ele>
        <time>2021-07-31T13:07:38Z</time>
      </trkpt>
      <trkpt lat="40.838134" lon="-3.870437">
        <ele>1646.449</ele>
        <time>2021-07-31T13:07:40Z</time>
      </trkpt>
      <trkpt lat="40.838166" lon="-3.870452">
        <ele>1646.223</ele>
        <time>2021-07-31T13:07:42Z</time>
      </trkpt>
      <trkpt lat="40.838195" lon="-3.870460">
        <ele>1646.008</ele>
        <time>2021-07-31T13:07:44Z</time>
      </trkpt>
      <trkpt lat="40.838227" lon="-3.870473">
        <ele>1645.886</ele>
        <time>2021-07-31T13:07:46Z</time>
      </trkpt>
      <trkpt lat="40.838250" lon="-3.870488">
        <ele>1645.638</ele>
        <time>2021-07-31T13:07:48Z</time>
      </trkpt>
      <trkpt lat="40.838269" lon="-3.870502">
        <ele>1645.555</ele>
        <time>2021-07-31T13:07:50Z</time>
      </trkpt>
      <trkpt lat="40.838288" lon="-3.870508">
        <ele>1645.312</ele>
        <time>2021-07-31T13:07:52Z</time>
      </trkpt>
      <trkpt lat="40.838317" lon="-3.870512">
        <ele>1645.134</ele>
        <time>2021-07-31T13:07:54Z</time>
      </trkpt>
      <trkpt lat="40.838349" lon="-3.870520">
        <ele>1644.981</ele>
        <time>2021-07-31T13:07:56Z</time>
      </trkpt>
      <trkpt lat="40.838374" lon="-3.870528">
        <ele>1644.751</ele>
        <time>2021-07-31T13:07:58Z</time>
      </trkpt>
      <trkpt lat="40.838397" lon="-3.870545">
        <ele>1644.589</ele>
        <time>2021-07-31T13:08:01Z</time>
      </trkpt>
      <trkpt lat="40.838422" lon="-3.870555">
        <ele>1644.429</ele>
        <time>2021-07-31T13:08:03Z</time>
      </trkpt>
      <trkpt lat="40.838448" lon="-3.870567">
        <ele>1644.100</ele>
        <time>2021-07-31T13:08:05Z</time>
      </trkpt>
      <trkpt lat="40.838477" lon="-3.870583">
        <ele>1643.820</ele>
        <time>2021-07-31T13:08:07Z</time>
      </trkpt>
      <trkpt lat="40.838502" lon="-3.870598">
        <ele>1643.508</ele>
        <time>2021-07-31T13:08:09Z</time>
      </trkpt>
      <trkpt lat="40.838522" lon="-3.870615">
        <ele>1643.219</ele>
        <time>2021-07-31T13:08:11Z</time>
      </trkpt>
      <trkpt lat="40.838547" lon="-3.870627">
        <ele>1642.981</ele>
        <time>2021-07-31T13:08:14Z</time>
      </trkpt>
      <trkpt lat="40.838573" lon="-3.870635">
        <ele>1642.738</ele>
        <time>2021-07-31T13:08:16Z</time>
      </trkpt>
      <trkpt lat="40.838602" lon="-3.870642">
        <ele>1642.495</ele>
        <time>2021-07-31T13:08:18Z</time>
      </trkpt>
      <trkpt lat="40.838624" lon="-3.870655">
        <ele>1642.297</ele>
        <time>2021-07-31T13:08:20Z</time>
      </trkpt>
      <trkpt lat="40.838650" lon="-3.870675">
        <ele>1641.994</ele>
        <time>2021-07-31T13:08:23Z</time>
      </trkpt>
      <trkpt lat="40.838682" lon="-3.870680">
        <ele>1641.784</ele>
        <time>2021-07-31T13:08:25Z</time>
      </trkpt>
      <trkpt lat="40.838710" lon="-3.870686">
        <ele>1641.552</ele>
        <time>2021-07-31T13:08:27Z</time>
      </trkpt>
      <trkpt lat="40.838733" lon="-3.870693">
        <ele>1641.392</ele>
        <time>2021-07-31T13:08:29Z</time>
      </trkpt>
      <trkpt lat="40.838755" lon="-3.870705">
        <ele>1641.273</ele>
        <time>2021-07-31T13:08:31Z</time>
      </trkpt>
      <trkpt lat="40.838781" lon="-3.870715">
        <ele>1641.020</ele>
        <time>2021-07-31T13:08:33Z</time>
      </trkpt>
      <trkpt lat="40.838806" lon="-3.870720">
        <ele>1640.808</ele>
        <time>2021-07-31T13:08:35Z</time>
      </trkpt>
      <trkpt lat="40.838832" lon="-3.870732">
        <ele>1640.616</ele>
        <time>2021-07-31T13:08:37Z</time>
      </trkpt>
      <trkpt lat="40.838854" lon="-3.870743">
        <ele>1640.558</ele>
        <time>2021-07-31T13:08:39Z</time>
      </trkpt>
      <trkpt lat="40.838874" lon="-3.870758">
        <ele>1640.315</ele>
        <time>2021-07-31T13:08:41Z</time>
      </trkpt>
      <trkpt lat="40.838906" lon="-3.870770">
        <ele>1640.142</ele>
        <time>2021-07-31T13:08:43Z</time>
      </trkpt>
      <trkpt lat="40.838941" lon="-3.870782">
        <ele>1639.744</ele>
        <time>2021-07-31T13:08:45Z</time>
      </trkpt>
      <trkpt lat="40.838963" lon="-3.870793">
        <ele>1639.461</ele>
        <time>2021-07-31T13:08:47Z</time>
      </trkpt>
      <trkpt lat="40.838982" lon="-3.870803">
        <ele>1639.161</ele>
        <time>2021-07-31T13:08:49Z</time>
      </trkpt>
      <trkpt lat="40.839005" lon="-3.870817">
        <ele>1638.849</ele>
        <time>2021-07-31T13:08:51Z</time>
      </trkpt>
      <trkpt lat="40.839030" lon="-3.870830">
        <ele>1638.573</ele>
        <time>2021-07-31T13:08:53Z</time>
      </trkpt>
      <trkpt lat="40.839062" lon="-3.870844">
        <ele>1638.085</ele>
        <time>2021-07-31T13:08:55Z</time>
      </trkpt>
      <trkpt lat="40.839082" lon="-3.870857">
        <ele>1637.713</ele>
        <time>2021-07-31T13:08:57Z</time>
      </trkpt>
      <trkpt lat="40.839101" lon="-3.870864">
        <ele>1637.508</ele>
        <time>2021-07-31T13:08:59Z</time>
      </trkpt>
      <trkpt lat="40.839123" lon="-3.870872">
        <ele>1637.274</ele>
        <time>2021-07-31T13:09:01Z</time>
      </trkpt>
      <trkpt lat="40.839152" lon="-3.870885">
        <ele>1636.876</ele>
        <time>2021-07-31T13:09:03Z</time>
      </trkpt>
      <trkpt lat="40.839181" lon="-3.870903">
        <ele>1636.423</ele>
        <time>2021-07-31T13:09:05Z</time>
      </trkpt>
      <trkpt lat="40.839206" lon="-3.870910">
        <ele>1636.250</ele>
        <time>2021-07-31T13:09:07Z</time>
      </trkpt>
      <trkpt lat="40.839226" lon="-3.870918">
        <ele>1636.092</ele>
        <time>2021-07-31T13:09:09Z</time>
      </trkpt>
      <trkpt lat="40.839248" lon="-3.870930">
        <ele>1635.819</ele>
        <time>2021-07-31T13:09:11Z</time>
      </trkpt>
      <trkpt lat="40.839277" lon="-3.870948">
        <ele>1635.589</ele>
        <time>2021-07-31T13:09:13Z</time>
      </trkpt>
      <trkpt lat="40.839299" lon="-3.870962">
        <ele>1635.327</ele>
        <time>2021-07-31T13:09:15Z</time>
      </trkpt>
      <trkpt lat="40.839322" lon="-3.870973">
        <ele>1635.233</ele>
        <time>2021-07-31T13:09:17Z</time>
      </trkpt>
      <trkpt lat="40.839341" lon="-3.870982">
        <ele>1635.023</ele>
        <time>2021-07-31T13:09:19Z</time>
      </trkpt>
      <trkpt lat="40.839366" lon="-3.870988">
        <ele>1634.915</ele>
        <time>2021-07-31T13:09:21Z</time>
      </trkpt>
      <trkpt lat="40.839398" lon="-3.870997">
        <ele>1634.608</ele>
        <time>2021-07-31T13:09:23Z</time>
      </trkpt>
      <trkpt lat="40.839424" lon="-3.871012">
        <ele>1634.570</ele>
        <time>2021-07-31T13:09:25Z</time>
      </trkpt>
      <trkpt lat="40.839443" lon="-3.871022">
        <ele>1634.382</ele>
        <time>2021-07-31T13:09:27Z</time>
      </trkpt>
      <trkpt lat="40.839459" lon="-3.871035">
        <ele>1634.229</ele>
        <time>2021-07-31T13:09:29Z</time>
      </trkpt>
      <trkpt lat="40.839485" lon="-3.871050">
        <ele>1633.926</ele>
        <time>2021-07-31T13:09:31Z</time>
      </trkpt>
      <trkpt lat="40.839517" lon="-3.871062">
        <ele>1633.788</ele>
        <time>2021-07-31T13:09:33Z</time>
      </trkpt>
      <trkpt lat="40.839539" lon="-3.871073">
        <ele>1633.595</ele>
        <time>2021-07-31T13:09:35Z</time>
      </trkpt>
      <trkpt lat="40.839558" lon="-3.871088">
        <ele>1633.345</ele>
        <time>2021-07-31T13:09:37Z</time>
      </trkpt>
      <trkpt lat="40.839581" lon="-3.871102">
        <ele>1633.043</ele>
        <time>2021-07-31T13:09:39Z</time>
      </trkpt>
      <trkpt lat="40.839606" lon="-3.871113">
        <ele>1632.854</ele>
        <time>2021-07-31T13:09:41Z</time>
      </trkpt>
      <trkpt lat="40.839635" lon="-3.871122">
        <ele>1632.556</ele>
        <time>2021-07-31T13:09:43Z</time>
      </trkpt>
      <trkpt lat="40.839661" lon="-3.871133">
        <ele>1632.311</ele>
        <time>2021-07-31T13:09:45Z</time>
      </trkpt>
      <trkpt lat="40.839683" lon="-3.871148">
        <ele>1632.008</ele>
        <time>2021-07-31T13:09:48Z</time>
      </trkpt>
      <trkpt lat="40.839706" lon="-3.871157">
        <ele>1631.852</ele>
        <time>2021-07-31T13:09:50Z</time>
      </trkpt>
      <trkpt lat="40.839734" lon="-3.871168">
        <ele>1631.534</ele>
        <time>2021-07-31T13:09:52Z</time>
      </trkpt>
      <trkpt lat="40.839760" lon="-3.871178">
        <ele>1631.221</ele>
        <time>2021-07-31T13:09:55Z</time>
      </trkpt>
      <trkpt lat="40.839782" lon="-3.871188">
        <ele>1631.028</ele>
        <time>2021-07-31T13:09:57Z</time>
      </trkpt>
      <trkpt lat="40.839802" lon="-3.871198">
        <ele>1630.850</ele>
        <time>2021-07-31T13:09:59Z</time>
      </trkpt>
      <trkpt lat="40.839824" lon="-3.871205">
        <ele>1630.687</ele>
        <time>2021-07-31T13:10:01Z</time>
      </trkpt>
      <trkpt lat="40.839846" lon="-3.871212">
        <ele>1630.417</ele>
        <time>2021-07-31T13:10:03Z</time>
      </trkpt>
      <trkpt lat="40.839875" lon="-3.871225">
        <ele>1630.155</ele>
        <time>2021-07-31T13:10:05Z</time>
      </trkpt>
      <trkpt lat="40.839898" lon="-3.871237">
        <ele>1629.847</ele>
        <time>2021-07-31T13:10:07Z</time>
      </trkpt>
      <trkpt lat="40.839917" lon="-3.871247">
        <ele>1629.629</ele>
        <time>2021-07-31T13:10:09Z</time>
      </trkpt>
      <trkpt lat="40.839933" lon="-3.871258">
        <ele>1629.421</ele>
        <time>2021-07-31T13:10:11Z</time>
      </trkpt>
      <trkpt lat="40.839952" lon="-3.871285">
        <ele>1629.108</ele>
        <time>2021-07-31T13:10:13Z</time>
      </trkpt>
      <trkpt lat="40.839978" lon="-3.871307">
        <ele>1628.781</ele>
        <time>2021-07-31T13:10:15Z</time>
      </trkpt>
      <trkpt lat="40.840000" lon="-3.871318">
        <ele>1628.543</ele>
        <time>2021-07-31T13:10:17Z</time>
      </trkpt>
      <trkpt lat="40.840026" lon="-3.871327">
        <ele>1628.010</ele>
        <time>2021-07-31T13:10:19Z</time>
      </trkpt>
      <trkpt lat="40.840045" lon="-3.871335">
        <ele>1627.747</ele>
        <time>2021-07-31T13:10:21Z</time>
      </trkpt>
      <trkpt lat="40.840064" lon="-3.871352">
        <ele>1627.349</ele>
        <time>2021-07-31T13:10:23Z</time>
      </trkpt>
      <trkpt lat="40.840093" lon="-3.871374">
        <ele>1626.816</ele>
        <time>2021-07-31T13:10:25Z</time>
      </trkpt>
      <trkpt lat="40.840122" lon="-3.871395">
        <ele>1626.246</ele>
        <time>2021-07-31T13:10:27Z</time>
      </trkpt>
      <trkpt lat="40.840150" lon="-3.871415">
        <ele>1625.654</ele>
        <time>2021-07-31T13:10:29Z</time>
      </trkpt>
      <trkpt lat="40.840173" lon="-3.871426">
        <ele>1625.255</ele>
        <time>2021-07-31T13:10:31Z</time>
      </trkpt>
      <trkpt lat="40.840195" lon="-3.871440">
        <ele>1624.807</ele>
        <time>2021-07-31T13:10:33Z</time>
      </trkpt>
      <trkpt lat="40.840221" lon="-3.871453">
        <ele>1624.317</ele>
        <time>2021-07-31T13:10:36Z</time>
      </trkpt>
      <trkpt lat="40.840243" lon="-3.871470">
        <ele>1623.908</ele>
        <time>2021-07-31T13:10:38Z</time>
      </trkpt>
      <trkpt lat="40.840275" lon="-3.871480">
        <ele>1623.492</ele>
        <time>2021-07-31T13:10:40Z</time>
      </trkpt>
      <trkpt lat="40.840301" lon="-3.871485">
        <ele>1623.064</ele>
        <time>2021-07-31T13:10:42Z</time>
      </trkpt>
      <trkpt lat="40.840330" lon="-3.871502">
        <ele>1622.561</ele>
        <time>2021-07-31T13:10:45Z</time>
      </trkpt>
      <trkpt lat="40.840352" lon="-3.871520">
        <ele>1622.138</ele>
        <time>2021-07-31T13:10:47Z</time>
      </trkpt>
      <trkpt lat="40.840381" lon="-3.871528">
        <ele>1621.760</ele>
        <time>2021-07-31T13:10:49Z</time>
      </trkpt>
      <trkpt lat="40.840400" lon="-3.871540">
        <ele>1621.497</ele>
        <time>2021-07-31T13:10:51Z</time>
      </trkpt>
      <trkpt lat="40.840419" lon="-3.871554">
        <ele>1621.137</ele>
        <time>2021-07-31T13:10:53Z</time>
      </trkpt>
      <trkpt lat="40.840448" lon="-3.871557">
        <ele>1620.725</ele>
        <time>2021-07-31T13:10:56Z</time>
      </trkpt>
      <trkpt lat="40.840474" lon="-3.871570">
        <ele>1620.351</ele>
        <time>2021-07-31T13:10:58Z</time>
      </trkpt>
      <trkpt lat="40.840499" lon="-3.871582">
        <ele>1620.001</ele>
        <time>2021-07-31T13:11:00Z</time>
      </trkpt>
      <trkpt lat="40.840528" lon="-3.871592">
        <ele>1619.611</ele>
        <time>2021-07-31T13:11:02Z</time>
      </trkpt>
      <trkpt lat="40.840550" lon="-3.871603">
        <ele>1619.308</ele>
        <time>2021-07-31T13:11:04Z</time>
      </trkpt>
      <trkpt lat="40.840570" lon="-3.871620">
        <ele>1619.052</ele>
        <time>2021-07-31T13:11:06Z</time>
      </trkpt>
      <trkpt lat="40.840589" lon="-3.871635">
        <ele>1618.634</ele>
        <time>2021-07-31T13:11:08Z</time>
      </trkpt>
      <trkpt lat="40.840608" lon="-3.871643">
        <ele>1618.391</ele>
        <time>2021-07-31T13:11:10Z</time>
      </trkpt>
      <trkpt lat="40.840627" lon="-3.871652">
        <ele>1618.038</ele>
        <time>2021-07-31T13:11:12Z</time>
      </trkpt>
      <trkpt lat="40.840646" lon="-3.871663">
        <ele>1617.740</ele>
        <time>2021-07-31T13:11:14Z</time>
      </trkpt>
      <trkpt lat="40.840662" lon="-3.871678">
        <ele>1617.497</ele>
        <time>2021-07-31T13:11:16Z</time>
      </trkpt>
      <trkpt lat="40.840688" lon="-3.871697">
        <ele>1616.967</ele>
        <time>2021-07-31T13:11:18Z</time>
      </trkpt>
      <trkpt lat="40.840714" lon="-3.871707">
        <ele>1616.595</ele>
        <time>2021-07-31T13:11:20Z</time>
      </trkpt>
      <trkpt lat="40.840739" lon="-3.871722">
        <ele>1616.177</ele>
        <time>2021-07-31T13:11:22Z</time>
      </trkpt>
      <trkpt lat="40.840768" lon="-3.871746">
        <ele>1615.661</ele>
        <time>2021-07-31T13:11:24Z</time>
      </trkpt>
      <trkpt lat="40.840790" lon="-3.871760">
        <ele>1615.227</ele>
        <time>2021-07-31T13:11:26Z</time>
      </trkpt>
      <trkpt lat="40.840813" lon="-3.871770">
        <ele>1614.908</ele>
        <time>2021-07-31T13:11:28Z</time>
      </trkpt>
      <trkpt lat="40.840835" lon="-3.871783">
        <ele>1614.644</ele>
        <time>2021-07-31T13:11:30Z</time>
      </trkpt>
      <trkpt lat="40.840861" lon="-3.871797">
        <ele>1614.286</ele>
        <time>2021-07-31T13:11:32Z</time>
      </trkpt>
      <trkpt lat="40.840890" lon="-3.871807">
        <ele>1613.813</ele>
        <time>2021-07-31T13:11:34Z</time>
      </trkpt>
      <trkpt lat="40.840912" lon="-3.871825">
        <ele>1613.570</ele>
        <time>2021-07-31T13:11:36Z</time>
      </trkpt>
      <trkpt lat="40.840934" lon="-3.871842">
        <ele>1613.122</ele>
        <time>2021-07-31T13:11:38Z</time>
      </trkpt>
      <trkpt lat="40.840966" lon="-3.871855">
        <ele>1612.749</ele>
        <time>2021-07-31T13:11:40Z</time>
      </trkpt>
      <trkpt lat="40.840992" lon="-3.871867">
        <ele>1612.449</ele>
        <time>2021-07-31T13:11:42Z</time>
      </trkpt>
      <trkpt lat="40.841018" lon="-3.871880">
        <ele>1612.177</ele>
        <time>2021-07-31T13:11:44Z</time>
      </trkpt>
      <trkpt lat="40.841040" lon="-3.871890">
        <ele>1611.884</ele>
        <time>2021-07-31T13:11:46Z</time>
      </trkpt>
      <trkpt lat="40.841069" lon="-3.871904">
        <ele>1611.507</ele>
        <time>2021-07-31T13:11:48Z</time>
      </trkpt>
      <trkpt lat="40.841091" lon="-3.871914">
        <ele>1611.217</ele>
        <time>2021-07-31T13:11:50Z</time>
      </trkpt>
      <trkpt lat="40.841117" lon="-3.871925">
        <ele>1611.008</ele>
        <time>2021-07-31T13:11:52Z</time>
      </trkpt>
      <trkpt lat="40.841197" lon="-3.871960">
        <ele>1610.355</ele>
        <time>2021-07-31T13:11:58Z</time>
      </trkpt>
      <trkpt lat="40.841213" lon="-3.871978">
        <ele>1610.147</ele>
        <time>2021-07-31T13:12:00Z</time>
      </trkpt>
      <trkpt lat="40.841245" lon="-3.871987">
        <ele>1609.984</ele>
        <time>2021-07-31T13:12:02Z</time>
      </trkpt>
      <trkpt lat="40.841267" lon="-3.872005">
        <ele>1609.781</ele>
        <time>2021-07-31T13:12:04Z</time>
      </trkpt>
      <trkpt lat="40.841290" lon="-3.872025">
        <ele>1609.453</ele>
        <time>2021-07-31T13:12:06Z</time>
      </trkpt>
      <trkpt lat="40.841302" lon="-3.872043">
        <ele>1609.370</ele>
        <time>2021-07-31T13:12:07Z</time>
      </trkpt>
      <trkpt lat="40.841325" lon="-3.872068">
        <ele>1609.060</ele>
        <time>2021-07-31T13:12:09Z</time>
      </trkpt>
      <trkpt lat="40.841344" lon="-3.872088">
        <ele>1608.828</ele>
        <time>2021-07-31T13:12:11Z</time>
      </trkpt>
      <trkpt lat="40.841370" lon="-3.872106">
        <ele>1608.629</ele>
        <time>2021-07-31T13:12:13Z</time>
      </trkpt>
      <trkpt lat="40.841389" lon="-3.872122">
        <ele>1608.400</ele>
        <time>2021-07-31T13:12:15Z</time>
      </trkpt>
      <trkpt lat="40.841414" lon="-3.872147">
        <ele>1608.120</ele>
        <time>2021-07-31T13:12:17Z</time>
      </trkpt>
      <trkpt lat="40.841434" lon="-3.872175">
        <ele>1607.808</ele>
        <time>2021-07-31T13:12:19Z</time>
      </trkpt>
      <trkpt lat="40.841466" lon="-3.872193">
        <ele>1607.559</ele>
        <time>2021-07-31T13:12:21Z</time>
      </trkpt>
      <trkpt lat="40.841488" lon="-3.872217">
        <ele>1607.331</ele>
        <time>2021-07-31T13:12:23Z</time>
      </trkpt>
      <trkpt lat="40.841510" lon="-3.872237">
        <ele>1607.028</ele>
        <time>2021-07-31T13:12:25Z</time>
      </trkpt>
      <trkpt lat="40.841533" lon="-3.872250">
        <ele>1606.855</ele>
        <time>2021-07-31T13:12:27Z</time>
      </trkpt>
      <trkpt lat="40.841562" lon="-3.872264">
        <ele>1606.577</ele>
        <time>2021-07-31T13:12:29Z</time>
      </trkpt>
      <trkpt lat="40.841584" lon="-3.872278">
        <ele>1606.384</ele>
        <time>2021-07-31T13:12:31Z</time>
      </trkpt>
      <trkpt lat="40.841603" lon="-3.872288">
        <ele>1606.294</ele>
        <time>2021-07-31T13:12:32Z</time>
      </trkpt>
      <trkpt lat="40.841629" lon="-3.872302">
        <ele>1605.942</ele>
        <time>2021-07-31T13:12:34Z</time>
      </trkpt>
      <trkpt lat="40.841651" lon="-3.872320">
        <ele>1605.752</ele>
        <time>2021-07-31T13:12:36Z</time>
      </trkpt>
      <trkpt lat="40.841674" lon="-3.872320">
        <ele>1605.653</ele>
        <time>2021-07-31T13:12:38Z</time>
      </trkpt>
      <trkpt lat="40.841702" lon="-3.872328">
        <ele>1605.408</ele>
        <time>2021-07-31T13:12:40Z</time>
      </trkpt>
      <trkpt lat="40.841725" lon="-3.872347">
        <ele>1605.208</ele>
        <time>2021-07-31T13:12:42Z</time>
      </trkpt>
      <trkpt lat="40.841747" lon="-3.872363">
        <ele>1605.192</ele>
        <time>2021-07-31T13:12:44Z</time>
      </trkpt>
      <trkpt lat="40.841770" lon="-3.872385">
        <ele>1604.944</ele>
        <time>2021-07-31T13:12:46Z</time>
      </trkpt>
      <trkpt lat="40.841798" lon="-3.872400">
        <ele>1604.791</ele>
        <time>2021-07-31T13:12:48Z</time>
      </trkpt>
      <trkpt lat="40.841821" lon="-3.872415">
        <ele>1604.628</ele>
        <time>2021-07-31T13:12:50Z</time>
      </trkpt>
      <trkpt lat="40.841846" lon="-3.872432">
        <ele>1604.470</ele>
        <time>2021-07-31T13:12:52Z</time>
      </trkpt>
      <trkpt lat="40.841878" lon="-3.872445">
        <ele>1604.367</ele>
        <time>2021-07-31T13:12:54Z</time>
      </trkpt>
      <trkpt lat="40.841901" lon="-3.872455">
        <ele>1604.287</ele>
        <time>2021-07-31T13:12:56Z</time>
      </trkpt>
      <trkpt lat="40.841926" lon="-3.872476">
        <ele>1604.165</ele>
        <time>2021-07-31T13:12:58Z</time>
      </trkpt>
      <trkpt lat="40.841942" lon="-3.872488">
        <ele>1604.064</ele>
        <time>2021-07-31T13:12:59Z</time>
      </trkpt>
      <trkpt lat="40.841968" lon="-3.872505">
        <ele>1603.806</ele>
        <time>2021-07-31T13:13:01Z</time>
      </trkpt>
      <trkpt lat="40.841987" lon="-3.872520">
        <ele>1603.616</ele>
        <time>2021-07-31T13:13:03Z</time>
      </trkpt>
      <trkpt lat="40.842010" lon="-3.872533">
        <ele>1603.408</ele>
        <time>2021-07-31T13:13:05Z</time>
      </trkpt>
      <trkpt lat="40.842032" lon="-3.872545">
        <ele>1603.353</ele>
        <time>2021-07-31T13:13:07Z</time>
      </trkpt>
      <trkpt lat="40.842058" lon="-3.872562">
        <ele>1603.025</ele>
        <time>2021-07-31T13:13:09Z</time>
      </trkpt>
      <trkpt lat="40.842080" lon="-3.872580">
        <ele>1602.912</ele>
        <time>2021-07-31T13:13:11Z</time>
      </trkpt>
      <trkpt lat="40.842099" lon="-3.872595">
        <ele>1602.729</ele>
        <time>2021-07-31T13:13:13Z</time>
      </trkpt>
      <trkpt lat="40.842122" lon="-3.872608">
        <ele>1602.621</ele>
        <time>2021-07-31T13:13:15Z</time>
      </trkpt>
      <trkpt lat="40.842141" lon="-3.872625">
        <ele>1602.568</ele>
        <time>2021-07-31T13:13:17Z</time>
      </trkpt>
      <trkpt lat="40.842160" lon="-3.872642">
        <ele>1602.368</ele>
        <time>2021-07-31T13:13:19Z</time>
      </trkpt>
      <trkpt lat="40.842182" lon="-3.872655">
        <ele>1602.296</ele>
        <time>2021-07-31T13:13:21Z</time>
      </trkpt>
      <trkpt lat="40.842205" lon="-3.872666">
        <ele>1602.193</ele>
        <time>2021-07-31T13:13:23Z</time>
      </trkpt>
      <trkpt lat="40.842227" lon="-3.872678">
        <ele>1602.065</ele>
        <time>2021-07-31T13:13:25Z</time>
      </trkpt>
      <trkpt lat="40.842250" lon="-3.872687">
        <ele>1601.921</ele>
        <time>2021-07-31T13:13:27Z</time>
      </trkpt>
      <trkpt lat="40.842269" lon="-3.872695">
        <ele>1601.808</ele>
        <time>2021-07-31T13:13:29Z</time>
      </trkpt>
      <trkpt lat="40.842298" lon="-3.872710">
        <ele>1601.766</ele>
        <time>2021-07-31T13:13:31Z</time>
      </trkpt>
      <trkpt lat="40.842317" lon="-3.872730">
        <ele>1601.768</ele>
        <time>2021-07-31T13:13:33Z</time>
      </trkpt>
      <trkpt lat="40.842342" lon="-3.872740">
        <ele>1601.635</ele>
        <time>2021-07-31T13:13:35Z</time>
      </trkpt>
      <trkpt lat="40.842365" lon="-3.872752">
        <ele>1601.562</ele>
        <time>2021-07-31T13:13:37Z</time>
      </trkpt>
      <trkpt lat="40.842387" lon="-3.872762">
        <ele>1601.434</ele>
        <time>2021-07-31T13:13:39Z</time>
      </trkpt>
      <trkpt lat="40.842416" lon="-3.872767">
        <ele>1601.351</ele>
        <time>2021-07-31T13:13:41Z</time>
      </trkpt>
      <trkpt lat="40.842435" lon="-3.872753">
        <ele>1601.291</ele>
        <time>2021-07-31T13:13:43Z</time>
      </trkpt>
      <trkpt lat="40.842461" lon="-3.872730">
        <ele>1601.139</ele>
        <time>2021-07-31T13:13:45Z</time>
      </trkpt>
      <trkpt lat="40.842480" lon="-3.872705">
        <ele>1601.182</ele>
        <time>2021-07-31T13:13:47Z</time>
      </trkpt>
      <trkpt lat="40.842496" lon="-3.872666">
        <ele>1601.043</ele>
        <time>2021-07-31T13:13:49Z</time>
      </trkpt>
      <trkpt lat="40.842515" lon="-3.872635">
        <ele>1600.917</ele>
        <time>2021-07-31T13:13:51Z</time>
      </trkpt>
      <trkpt lat="40.842525" lon="-3.872608">
        <ele>1600.908</ele>
        <time>2021-07-31T13:13:53Z</time>
      </trkpt>
      <trkpt lat="40.842541" lon="-3.872580">
        <ele>1600.945</ele>
        <time>2021-07-31T13:13:55Z</time>
      </trkpt>
      <trkpt lat="40.842560" lon="-3.872550">
        <ele>1600.847</ele>
        <time>2021-07-31T13:13:57Z</time>
      </trkpt>
      <trkpt lat="40.842576" lon="-3.872538">
        <ele>1600.734</ele>
        <time>2021-07-31T13:13:58Z</time>
      </trkpt>
      <trkpt lat="40.842605" lon="-3.872508">
        <ele>1600.671</ele>
        <time>2021-07-31T13:14:00Z</time>
      </trkpt>
      <trkpt lat="40.842618" lon="-3.872476">
        <ele>1600.693</ele>
        <time>2021-07-31T13:14:02Z</time>
      </trkpt>
      <trkpt lat="40.842637" lon="-3.872460">
        <ele>1600.560</ele>
        <time>2021-07-31T13:14:07Z</time>
      </trkpt>
      <trkpt lat="40.842659" lon="-3.872442">
        <ele>1600.450</ele>
        <time>2021-07-31T13:14:09Z</time>
      </trkpt>
      <trkpt lat="40.842666" lon="-3.872412">
        <ele>1600.418</ele>
        <time>2021-07-31T13:14:11Z</time>
      </trkpt>
      <trkpt lat="40.842682" lon="-3.872393">
        <ele>1600.312</ele>
        <time>2021-07-31T13:14:13Z</time>
      </trkpt>
      <trkpt lat="40.842707" lon="-3.872382">
        <ele>1600.332</ele>
        <time>2021-07-31T13:14:16Z</time>
      </trkpt>
      <trkpt lat="40.842726" lon="-3.872355">
        <ele>1600.205</ele>
        <time>2021-07-31T13:14:18Z</time>
      </trkpt>
      <trkpt lat="40.842742" lon="-3.872335">
        <ele>1600.108</ele>
        <time>2021-07-31T13:14:20Z</time>
      </trkpt>
      <trkpt lat="40.842758" lon="-3.872310">
        <ele>1600.118</ele>
        <time>2021-07-31T13:14:22Z</time>
      </trkpt>
      <trkpt lat="40.842778" lon="-3.872284">
        <ele>1600.030</ele>
        <time>2021-07-31T13:14:24Z</time>
      </trkpt>
      <trkpt lat="40.842784" lon="-3.872255">
        <ele>1599.947</ele>
        <time>2021-07-31T13:14:26Z</time>
      </trkpt>
      <trkpt lat="40.842803" lon="-3.872220">
        <ele>1599.654</ele>
        <time>2021-07-31T13:14:28Z</time>
      </trkpt>
      <trkpt lat="40.842816" lon="-3.872198">
        <ele>1599.316</ele>
        <time>2021-07-31T13:14:29Z</time>
      </trkpt>
      <trkpt lat="40.842832" lon="-3.872158">
        <ele>1598.813</ele>
        <time>2021-07-31T13:14:31Z</time>
      </trkpt>
      <trkpt lat="40.842845" lon="-3.872128">
        <ele>1598.453</ele>
        <time>2021-07-31T13:14:33Z</time>
      </trkpt>
      <trkpt lat="40.842877" lon="-3.872092">
        <ele>1597.861</ele>
        <time>2021-07-31T13:14:35Z</time>
      </trkpt>
      <trkpt lat="40.842893" lon="-3.872075">
        <ele>1597.588</ele>
        <time>2021-07-31T13:14:36Z</time>
      </trkpt>
      <trkpt lat="40.842906" lon="-3.872043">
        <ele>1597.224</ele>
        <time>2021-07-31T13:14:38Z</time>
      </trkpt>
      <trkpt lat="40.842922" lon="-3.872025">
        <ele>1596.926</ele>
        <time>2021-07-31T13:14:39Z</time>
      </trkpt>
      <trkpt lat="40.842934" lon="-3.872003">
        <ele>1596.608</ele>
        <time>2021-07-31T13:14:40Z</time>
      </trkpt>
      <trkpt lat="40.842960" lon="-3.871970">
        <ele>1596.225</ele>
        <time>2021-07-31T13:14:42Z</time>
      </trkpt>
      <trkpt lat="40.842976" lon="-3.871948">
        <ele>1595.967</ele>
        <time>2021-07-31T13:14:44Z</time>
      </trkpt>
      <trkpt lat="40.842986" lon="-3.871925">
        <ele>1595.624</ele>
        <time>2021-07-31T13:14:46Z</time>
      </trkpt>
      <trkpt lat="40.842986" lon="-3.871900">
        <ele>1595.411</ele>
        <time>2021-07-31T13:14:48Z</time>
      </trkpt>
      <trkpt lat="40.842998" lon="-3.871872">
        <ele>1595.133</ele>
        <time>2021-07-31T13:14:50Z</time>
      </trkpt>
      <trkpt lat="40.843014" lon="-3.871847">
        <ele>1594.710</ele>
        <time>2021-07-31T13:14:52Z</time>
      </trkpt>
      <trkpt lat="40.843018" lon="-3.871813">
        <ele>1594.540</ele>
        <time>2021-07-31T13:14:54Z</time>
      </trkpt>
      <trkpt lat="40.843034" lon="-3.871790">
        <ele>1594.118</ele>
        <time>2021-07-31T13:14:56Z</time>
      </trkpt>
      <trkpt lat="40.843040" lon="-3.871762">
        <ele>1593.972</ele>
        <time>2021-07-31T13:14:58Z</time>
      </trkpt>
      <trkpt lat="40.843056" lon="-3.871738">
        <ele>1593.513</ele>
        <time>2021-07-31T13:15:00Z</time>
      </trkpt>
      <trkpt lat="40.843066" lon="-3.871710">
        <ele>1593.214</ele>
        <time>2021-07-31T13:15:03Z</time>
      </trkpt>
      <trkpt lat="40.843091" lon="-3.871685">
        <ele>1592.908</ele>
        <time>2021-07-31T13:15:05Z</time>
      </trkpt>
      <trkpt lat="40.843101" lon="-3.871653">
        <ele>1592.644</ele>
        <time>2021-07-31T13:15:07Z</time>
      </trkpt>
      <trkpt lat="40.843120" lon="-3.871625">
        <ele>1592.476</ele>
        <time>2021-07-31T13:15:09Z</time>
      </trkpt>
      <trkpt lat="40.843117" lon="-3.871598">
        <ele>1592.383</ele>
        <time>2021-07-31T13:15:12Z</time>
      </trkpt>
      <trkpt lat="40.843110" lon="-3.871572">
        <ele>1592.390</ele>
        <time>2021-07-31T13:15:14Z</time>
      </trkpt>
      <trkpt lat="40.843136" lon="-3.871537">
        <ele>1592.072</ele>
        <time>2021-07-31T13:15:16Z</time>
      </trkpt>
      <trkpt lat="40.843152" lon="-3.871518">
        <ele>1591.869</ele>
        <time>2021-07-31T13:15:18Z</time>
      </trkpt>
      <trkpt lat="40.843162" lon="-3.871485">
        <ele>1591.629</ele>
        <time>2021-07-31T13:15:21Z</time>
      </trkpt>
      <trkpt lat="40.843178" lon="-3.871468">
        <ele>1591.477</ele>
        <time>2021-07-31T13:15:23Z</time>
      </trkpt>
      <trkpt lat="40.843197" lon="-3.871445">
        <ele>1591.258</ele>
        <time>2021-07-31T13:15:25Z</time>
      </trkpt>
      <trkpt lat="40.843200" lon="-3.871412">
        <ele>1591.052</ele>
        <time>2021-07-31T13:15:27Z</time>
      </trkpt>
      <trkpt lat="40.843210" lon="-3.871390">
        <ele>1590.917</ele>
        <time>2021-07-31T13:15:28Z</time>
      </trkpt>
      <trkpt lat="40.843229" lon="-3.871362">
        <ele>1590.708</ele>
        <time>2021-07-31T13:15:30Z</time>
      </trkpt>
      <trkpt lat="40.843248" lon="-3.871335">
        <ele>1590.662</ele>
        <time>2021-07-31T13:15:32Z</time>
      </trkpt>
      <trkpt lat="40.843261" lon="-3.871318">
        <ele>1590.514</ele>
        <time>2021-07-31T13:15:33Z</time>
      </trkpt>
      <trkpt lat="40.843277" lon="-3.871290">
        <ele>1590.331</ele>
        <time>2021-07-31T13:15:35Z</time>
      </trkpt>
      <trkpt lat="40.843283" lon="-3.871260">
        <ele>1590.358</ele>
        <time>2021-07-31T13:15:37Z</time>
      </trkpt>
      <trkpt lat="40.843293" lon="-3.871224">
        <ele>1590.250</ele>
        <time>2021-07-31T13:15:39Z</time>
      </trkpt>
      <trkpt lat="40.843309" lon="-3.871192">
        <ele>1590.137</ele>
        <time>2021-07-31T13:15:41Z</time>
      </trkpt>
      <trkpt lat="40.843315" lon="-3.871168">
        <ele>1590.167</ele>
        <time>2021-07-31T13:15:42Z</time>
      </trkpt>
      <trkpt lat="40.843334" lon="-3.871142">
        <ele>1590.095</ele>
        <time>2021-07-31T13:15:44Z</time>
      </trkpt>
      <trkpt lat="40.843350" lon="-3.871113">
        <ele>1589.737</ele>
        <time>2021-07-31T13:15:46Z</time>
      </trkpt>
      <trkpt lat="40.843341" lon="-3.871060">
        <ele>1589.549</ele>
        <time>2021-07-31T13:15:48Z</time>
      </trkpt>
      <trkpt lat="40.843347" lon="-3.871020">
        <ele>1589.113</ele>
        <time>2021-07-31T13:15:50Z</time>
      </trkpt>
      <trkpt lat="40.843357" lon="-3.870995">
        <ele>1588.808</ele>
        <time>2021-07-31T13:15:52Z</time>
      </trkpt>
      <trkpt lat="40.843370" lon="-3.870968">
        <ele>1588.420</ele>
        <time>2021-07-31T13:15:54Z</time>
      </trkpt>
      <trkpt lat="40.843382" lon="-3.870948">
        <ele>1588.292</ele>
        <time>2021-07-31T13:15:56Z</time>
      </trkpt>
      <trkpt lat="40.843408" lon="-3.870922">
        <ele>1587.769</ele>
        <time>2021-07-31T13:15:58Z</time>
      </trkpt>
      <trkpt lat="40.843421" lon="-3.870894">
        <ele>1587.436</ele>
        <time>2021-07-31T13:16:01Z</time>
      </trkpt>
      <trkpt lat="40.843430" lon="-3.870870">
        <ele>1587.128</ele>
        <time>2021-07-31T13:16:03Z</time>
      </trkpt>
      <trkpt lat="40.843437" lon="-3.870844">
        <ele>1586.955</ele>
        <time>2021-07-31T13:16:05Z</time>
      </trkpt>
      <trkpt lat="40.843446" lon="-3.870815">
        <ele>1586.665</ele>
        <time>2021-07-31T13:16:07Z</time>
      </trkpt>
      <trkpt lat="40.843450" lon="-3.870785">
        <ele>1586.373</ele>
        <time>2021-07-31T13:16:10Z</time>
      </trkpt>
      <trkpt lat="40.843456" lon="-3.870752">
        <ele>1585.997</ele>
        <time>2021-07-31T13:16:12Z</time>
      </trkpt>
      <trkpt lat="40.843459" lon="-3.870723">
        <ele>1585.623</ele>
        <time>2021-07-31T13:16:14Z</time>
      </trkpt>
      <trkpt lat="40.843459" lon="-3.870688">
        <ele>1585.325</ele>
        <time>2021-07-31T13:16:16Z</time>
      </trkpt>
      <trkpt lat="40.843469" lon="-3.870652">
        <ele>1584.908</ele>
        <time>2021-07-31T13:16:18Z</time>
      </trkpt>
      <trkpt lat="40.843475" lon="-3.870627">
        <ele>1584.636</ele>
        <time>2021-07-31T13:16:20Z</time>
      </trkpt>
      <trkpt lat="40.843478" lon="-3.870597">
        <ele>1584.338</ele>
        <time>2021-07-31T13:16:22Z</time>
      </trkpt>
      <trkpt lat="40.843488" lon="-3.870568">
        <ele>1584.035</ele>
        <time>2021-07-31T13:16:24Z</time>
      </trkpt>
      <trkpt lat="40.843498" lon="-3.870545">
        <ele>1583.712</ele>
        <time>2021-07-31T13:16:26Z</time>
      </trkpt>
      <trkpt lat="40.843510" lon="-3.870522">
        <ele>1583.554</ele>
        <time>2021-07-31T13:16:28Z</time>
      </trkpt>
      <trkpt lat="40.843526" lon="-3.870502">
        <ele>1583.291</ele>
        <time>2021-07-31T13:16:30Z</time>
      </trkpt>
      <trkpt lat="40.843536" lon="-3.870480">
        <ele>1583.021</ele>
        <time>2021-07-31T13:16:32Z</time>
      </trkpt>
      <trkpt lat="40.843552" lon="-3.870450">
        <ele>1582.789</ele>
        <time>2021-07-31T13:16:34Z</time>
      </trkpt>
      <trkpt lat="40.843568" lon="-3.870428">
        <ele>1582.468</ele>
        <time>2021-07-31T13:16:36Z</time>
      </trkpt>
      <trkpt lat="40.843581" lon="-3.870400">
        <ele>1582.142</ele>
        <time>2021-07-31T13:16:39Z</time>
      </trkpt>
      <trkpt lat="40.843594" lon="-3.870376">
        <ele>1581.826</ele>
        <time>2021-07-31T13:16:41Z</time>
      </trkpt>
      <trkpt lat="40.843610" lon="-3.870353">
        <ele>1581.508</ele>
        <time>2021-07-31T13:16:43Z</time>
      </trkpt>
      <trkpt lat="40.843626" lon="-3.870335">
        <ele>1581.283</ele>
        <time>2021-07-31T13:16:45Z</time>
      </trkpt>
      <trkpt lat="40.843635" lon="-3.870305">
        <ele>1580.835</ele>
        <time>2021-07-31T13:16:47Z</time>
      </trkpt>
      <trkpt lat="40.843632" lon="-3.870268">
        <ele>1580.642</ele>
        <time>2021-07-31T13:16:49Z</time>
      </trkpt>
      <trkpt lat="40.843638" lon="-3.870237">
        <ele>1580.249</ele>
        <time>2021-07-31T13:16:51Z</time>
      </trkpt>
      <trkpt lat="40.843654" lon="-3.870203">
        <ele>1579.791</ele>
        <time>2021-07-31T13:16:53Z</time>
      </trkpt>
      <trkpt lat="40.843670" lon="-3.870185">
        <ele>1579.378</ele>
        <time>2021-07-31T13:16:54Z</time>
      </trkpt>
      <trkpt lat="40.843686" lon="-3.870152">
        <ele>1578.768</ele>
        <time>2021-07-31T13:16:55Z</time>
      </trkpt>
      <trkpt lat="40.843696" lon="-3.870127">
        <ele>1578.456</ele>
        <time>2021-07-31T13:16:56Z</time>
      </trkpt>
      <trkpt lat="40.843690" lon="-3.870083">
        <ele>1578.229</ele>
        <time>2021-07-31T13:16:58Z</time>
      </trkpt>
      <trkpt lat="40.843696" lon="-3.870060">
        <ele>1577.900</ele>
        <time>2021-07-31T13:16:59Z</time>
      </trkpt>
      <trkpt lat="40.843712" lon="-3.870033">
        <ele>1577.420</ele>
        <time>2021-07-31T13:17:00Z</time>
      </trkpt>
      <trkpt lat="40.843725" lon="-3.870012">
        <ele>1577.008</ele>
        <time>2021-07-31T13:17:01Z</time>
      </trkpt>
      <trkpt lat="40.843731" lon="-3.869978">
        <ele>1576.669</ele>
        <time>2021-07-31T13:17:03Z</time>
      </trkpt>
      <trkpt lat="40.843741" lon="-3.869947">
        <ele>1576.181</ele>
        <time>2021-07-31T13:17:05Z</time>
      </trkpt>
      <trkpt lat="40.843757" lon="-3.869917">
        <ele>1575.548</ele>
        <time>2021-07-31T13:17:07Z</time>
      </trkpt>
      <trkpt lat="40.843773" lon="-3.869897">
        <ele>1575.065</ele>
        <time>2021-07-31T13:17:11Z</time>
      </trkpt>
      <trkpt lat="40.843789" lon="-3.869872">
        <ele>1574.597</ele>
        <time>2021-07-31T13:17:13Z</time>
      </trkpt>
      <trkpt lat="40.843805" lon="-3.869846">
        <ele>1574.194</ele>
        <time>2021-07-31T13:17:16Z</time>
      </trkpt>
      <trkpt lat="40.843811" lon="-3.869818">
        <ele>1573.784</ele>
        <time>2021-07-31T13:17:18Z</time>
      </trkpt>
      <trkpt lat="40.843824" lon="-3.869784">
        <ele>1573.292</ele>
        <time>2021-07-31T13:17:21Z</time>
      </trkpt>
      <trkpt lat="40.843830" lon="-3.869755">
        <ele>1572.974</ele>
        <time>2021-07-31T13:17:23Z</time>
      </trkpt>
      <trkpt lat="40.843837" lon="-3.869725">
        <ele>1572.656</ele>
        <time>2021-07-31T13:17:25Z</time>
      </trkpt>
      <trkpt lat="40.843837" lon="-3.869693">
        <ele>1572.121</ele>
        <time>2021-07-31T13:17:27Z</time>
      </trkpt>
      <trkpt lat="40.843837" lon="-3.869652">
        <ele>1571.508</ele>
        <time>2021-07-31T13:17:29Z</time>
      </trkpt>
      <trkpt lat="40.843837" lon="-3.869614">
        <ele>1570.914</ele>
        <time>2021-07-31T13:17:31Z</time>
      </trkpt>
      <trkpt lat="40.843837" lon="-3.869583">
        <ele>1570.546</ele>
        <time>2021-07-31T13:17:33Z</time>
      </trkpt>
      <trkpt lat="40.843834" lon="-3.869558">
        <ele>1570.163</ele>
        <time>2021-07-31T13:17:36Z</time>
      </trkpt>
      <trkpt lat="40.843850" lon="-3.869522">
        <ele>1569.460</ele>
        <time>2021-07-31T13:17:39Z</time>
      </trkpt>
      <trkpt lat="40.843850" lon="-3.869490">
        <ele>1569.092</ele>
        <time>2021-07-31T13:17:40Z</time>
      </trkpt>
      <trkpt lat="40.843853" lon="-3.869458">
        <ele>1568.589</ele>
        <time>2021-07-31T13:17:41Z</time>
      </trkpt>
      <trkpt lat="40.843853" lon="-3.869432">
        <ele>1568.069</ele>
        <time>2021-07-31T13:17:42Z</time>
      </trkpt>
      <trkpt lat="40.843869" lon="-3.869407">
        <ele>1567.337</ele>
        <time>2021-07-31T13:17:44Z</time>
      </trkpt>
      <trkpt lat="40.843878" lon="-3.869375">
        <ele>1566.652</ele>
        <time>2021-07-31T13:17:46Z</time>
      </trkpt>
      <trkpt lat="40.843875" lon="-3.869345">
        <ele>1565.953</ele>
        <time>2021-07-31T13:17:49Z</time>
      </trkpt>
      <trkpt lat="40.843891" lon="-3.869320">
        <ele>1565.308</ele>
        <time>2021-07-31T13:17:52Z</time>
      </trkpt>
      <trkpt lat="40.843904" lon="-3.869300">
        <ele>1564.608</ele>
        <time>2021-07-31T13:17:54Z</time>
      </trkpt>
      <trkpt lat="40.843923" lon="-3.869265">
        <ele>1563.582</ele>
        <time>2021-07-31T13:17:57Z</time>
      </trkpt>
      <trkpt lat="40.843930" lon="-3.869235">
        <ele>1562.844</ele>
        <time>2021-07-31T13:17:59Z</time>
      </trkpt>
      <trkpt lat="40.843936" lon="-3.869207">
        <ele>1562.191</ele>
        <time>2021-07-31T13:18:02Z</time>
      </trkpt>
      <trkpt lat="40.843955" lon="-3.869178">
        <ele>1561.398</ele>
        <time>2021-07-31T13:18:04Z</time>
      </trkpt>
      <trkpt lat="40.843978" lon="-3.869150">
        <ele>1560.320</ele>
        <time>2021-07-31T13:18:06Z</time>
      </trkpt>
      <trkpt lat="40.844003" lon="-3.869125">
        <ele>1559.467</ele>
        <time>2021-07-31T13:18:08Z</time>
      </trkpt>
      <trkpt lat="40.844016" lon="-3.869107">
        <ele>1558.877</ele>
        <time>2021-07-31T13:18:11Z</time>
      </trkpt>
      <trkpt lat="40.844029" lon="-3.869087">
        <ele>1558.155</ele>
        <time>2021-07-31T13:18:16Z</time>
      </trkpt>
      <trkpt lat="40.844054" lon="-3.869068">
        <ele>1557.334</ele>
        <time>2021-07-31T13:18:18Z</time>
      </trkpt>
      <trkpt lat="40.844074" lon="-3.869040">
        <ele>1556.455</ele>
        <time>2021-07-31T13:18:20Z</time>
      </trkpt>
      <trkpt lat="40.844090" lon="-3.869020">
        <ele>1555.810</ele>
        <time>2021-07-31T13:18:22Z</time>
      </trkpt>
      <trkpt lat="40.844102" lon="-3.868997">
        <ele>1555.108</ele>
        <time>2021-07-31T13:18:24Z</time>
      </trkpt>
      <trkpt lat="40.844096" lon="-3.868960">
        <ele>1554.460</ele>
        <time>2021-07-31T13:18:27Z</time>
      </trkpt>
      <trkpt lat="40.844102" lon="-3.868925">
        <ele>1553.552</ele>
        <time>2021-07-31T13:18:30Z</time>
      </trkpt>
      <trkpt lat="40.844112" lon="-3.868898">
        <ele>1552.889</ele>
        <time>2021-07-31T13:18:32Z</time>
      </trkpt>
      <trkpt lat="40.844122" lon="-3.868877">
        <ele>1552.296</ele>
        <time>2021-07-31T13:18:34Z</time>
      </trkpt>
      <trkpt lat="40.844147" lon="-3.868855">
        <ele>1551.468</ele>
        <time>2021-07-31T13:18:37Z</time>
      </trkpt>
      <trkpt lat="40.844166" lon="-3.868837">
        <ele>1550.745</ele>
        <time>2021-07-31T13:18:39Z</time>
      </trkpt>
      <trkpt lat="40.844170" lon="-3.868810">
        <ele>1549.995</ele>
        <time>2021-07-31T13:18:41Z</time>
      </trkpt>
      <trkpt lat="40.844176" lon="-3.868782">
        <ele>1549.193</ele>
        <time>2021-07-31T13:18:44Z</time>
      </trkpt>
      <trkpt lat="40.844195" lon="-3.868774">
        <ele>1548.442</ele>
        <time>2021-07-31T13:18:48Z</time>
      </trkpt>
      <trkpt lat="40.844205" lon="-3.868748">
        <ele>1547.622</ele>
        <time>2021-07-31T13:18:53Z</time>
      </trkpt>
      <trkpt lat="40.844224" lon="-3.868730">
        <ele>1546.714</ele>
        <time>2021-07-31T13:18:56Z</time>
      </trkpt>
      <trkpt lat="40.844237" lon="-3.868700">
        <ele>1545.608</ele>
        <time>2021-07-31T13:19:01Z</time>
      </trkpt>
      <trkpt lat="40.844250" lon="-3.868673">
        <ele>1544.751</ele>
        <time>2021-07-31T13:19:04Z</time>
      </trkpt>
      <trkpt lat="40.844262" lon="-3.868637">
        <ele>1543.653</ele>
        <time>2021-07-31T13:19:07Z</time>
      </trkpt>
      <trkpt lat="40.844262" lon="-3.868608">
        <ele>1542.940</ele>
        <time>2021-07-31T13:19:09Z</time>
      </trkpt>
      <trkpt lat="40.844269" lon="-3.868585">
        <ele>1542.257</ele>
        <time>2021-07-31T13:19:14Z</time>
      </trkpt>
      <trkpt lat="40.844272" lon="-3.868558">
        <ele>1541.689</ele>
        <time>2021-07-31T13:19:16Z</time>
      </trkpt>
      <trkpt lat="40.844342" lon="-3.868498">
        <ele>1539.176</ele>
        <time>2021-07-31T13:19:25Z</time>
      </trkpt>
      <trkpt lat="40.844352" lon="-3.868477">
        <ele>1538.696</ele>
        <time>2021-07-31T13:19:26Z</time>
      </trkpt>
      <trkpt lat="40.844387" lon="-3.868412">
        <ele>1536.924</ele>
        <time>2021-07-31T13:19:30Z</time>
      </trkpt>
      <trkpt lat="40.844394" lon="-3.868388">
        <ele>1536.419</ele>
        <time>2021-07-31T13:19:31Z</time>
      </trkpt>
      <trkpt lat="40.844413" lon="-3.868378">
        <ele>1536.009</ele>
        <time>2021-07-31T13:19:32Z</time>
      </trkpt>
      <trkpt lat="40.844435" lon="-3.868352">
        <ele>1535.419</ele>
        <time>2021-07-31T13:19:34Z</time>
      </trkpt>
      <trkpt lat="40.844435" lon="-3.868323">
        <ele>1534.908</ele>
        <time>2021-07-31T13:19:36Z</time>
      </trkpt>
      <trkpt lat="40.844445" lon="-3.868298">
        <ele>1534.488</ele>
        <time>2021-07-31T13:19:38Z</time>
      </trkpt>
      <trkpt lat="40.844451" lon="-3.868268">
        <ele>1533.750</ele>
        <time>2021-07-31T13:19:40Z</time>
      </trkpt>
      <trkpt lat="40.844474" lon="-3.868246">
        <ele>1533.057</ele>
        <time>2021-07-31T13:19:42Z</time>
      </trkpt>
      <trkpt lat="40.844506" lon="-3.868232">
        <ele>1532.434</ele>
        <time>2021-07-31T13:19:44Z</time>
      </trkpt>
      <trkpt lat="40.844528" lon="-3.868220">
        <ele>1531.966</ele>
        <time>2021-07-31T13:19:46Z</time>
      </trkpt>
      <trkpt lat="40.844547" lon="-3.868212">
        <ele>1531.693</ele>
        <time>2021-07-31T13:19:49Z</time>
      </trkpt>
      <trkpt lat="40.844554" lon="-3.868183">
        <ele>1531.273</ele>
        <time>2021-07-31T13:19:51Z</time>
      </trkpt>
      <trkpt lat="40.844560" lon="-3.868157">
        <ele>1530.831</ele>
        <time>2021-07-31T13:19:53Z</time>
      </trkpt>
      <trkpt lat="40.844573" lon="-3.868133">
        <ele>1530.454</ele>
        <time>2021-07-31T13:19:56Z</time>
      </trkpt>
      <trkpt lat="40.844589" lon="-3.868112">
        <ele>1530.156</ele>
        <time>2021-07-31T13:19:59Z</time>
      </trkpt>
      <trkpt lat="40.844579" lon="-3.868074">
        <ele>1529.711</ele>
        <time>2021-07-31T13:20:50Z</time>
      </trkpt>
      <trkpt lat="40.844598" lon="-3.868067">
        <ele>1529.608</ele>
        <time>2021-07-31T13:20:51Z</time>
      </trkpt>
      <trkpt lat="40.844627" lon="-3.868055">
        <ele>1529.382</ele>
        <time>2021-07-31T13:20:53Z</time>
      </trkpt>
      <trkpt lat="40.844659" lon="-3.868048">
        <ele>1529.214</ele>
        <time>2021-07-31T13:20:55Z</time>
      </trkpt>
      <trkpt lat="40.844685" lon="-3.868042">
        <ele>1529.141</ele>
        <time>2021-07-31T13:20:57Z</time>
      </trkpt>
      <trkpt lat="40.844701" lon="-3.868030">
        <ele>1529.148</ele>
        <time>2021-07-31T13:21:01Z</time>
      </trkpt>
      <trkpt lat="40.844710" lon="-3.868007">
        <ele>1529.090</ele>
        <time>2021-07-31T13:21:09Z</time>
      </trkpt>
      <trkpt lat="40.844688" lon="-3.867990">
        <ele>1529.147</ele>
        <time>2021-07-31T13:22:39Z</time>
      </trkpt>
      <trkpt lat="40.844666" lon="-3.867955">
        <ele>1529.197</ele>
        <time>2021-07-31T13:22:41Z</time>
      </trkpt>
      <trkpt lat="40.844650" lon="-3.867930">
        <ele>1529.085</ele>
        <time>2021-07-31T13:22:43Z</time>
      </trkpt>
      <trkpt lat="40.844627" lon="-3.867940">
        <ele>1529.163</ele>
        <time>2021-07-31T13:22:46Z</time>
      </trkpt>
      <trkpt lat="40.844621" lon="-3.867905">
        <ele>1529.044</ele>
        <time>2021-07-31T13:22:51Z</time>
      </trkpt>
      <trkpt lat="40.844621" lon="-3.867876">
        <ele>1528.918</ele>
        <time>2021-07-31T13:22:53Z</time>
      </trkpt>
      <trkpt lat="40.844624" lon="-3.867852">
        <ele>1528.808</ele>
        <time>2021-07-31T13:22:55Z</time>
      </trkpt>
      <trkpt lat="40.844627" lon="-3.867820">
        <ele>1528.863</ele>
        <time>2021-07-31T13:22:58Z</time>
      </trkpt>
      <trkpt lat="40.844640" lon="-3.867793">
        <ele>1528.725</ele>
        <time>2021-07-31T13:23:01Z</time>
      </trkpt>
      <trkpt lat="40.844659" lon="-3.867770">
        <ele>1528.842</ele>
        <time>2021-07-31T13:23:04Z</time>
      </trkpt>
      <trkpt lat="40.844643" lon="-3.867805">
        <ele>1528.869</ele>
        <time>2021-07-31T13:23:10Z</time>
      </trkpt>
      <trkpt lat="40.844634" lon="-3.867830">
        <ele>1528.891</ele>
        <time>2021-07-31T13:23:12Z</time>
      </trkpt>
      <trkpt lat="40.844624" lon="-3.867864">
        <ele>1528.958</ele>
        <time>2021-07-31T13:23:14Z</time>
      </trkpt>
      <trkpt lat="40.844614" lon="-3.867902">
        <ele>1529.068</ele>
        <time>2021-07-31T13:23:16Z</time>
      </trkpt>
      <trkpt lat="40.844608" lon="-3.867942">
        <ele>1529.126</ele>
        <time>2021-07-31T13:23:18Z</time>
      </trkpt>
      <trkpt lat="40.844598" lon="-3.867973">
        <ele>1529.221</ele>
        <time>2021-07-31T13:23:20Z</time>
      </trkpt>
      <trkpt lat="40.844598" lon="-3.868002">
        <ele>1529.341</ele>
        <time>2021-07-31T13:23:22Z</time>
      </trkpt>
      <trkpt lat="40.844589" lon="-3.868038">
        <ele>1529.405</ele>
        <time>2021-07-31T13:23:24Z</time>
      </trkpt>
      <trkpt lat="40.844586" lon="-3.868068">
        <ele>1529.608</ele>
        <time>2021-07-31T13:23:26Z</time>
      </trkpt>
      <trkpt lat="40.844582" lon="-3.868028">
        <ele>1529.439</ele>
        <time>2021-07-31T13:23:54Z</time>
      </trkpt>
      <trkpt lat="40.844573" lon="-3.868002">
        <ele>1529.321</ele>
        <time>2021-07-31T13:23:55Z</time>
      </trkpt>
      <trkpt lat="40.844570" lon="-3.867977">
        <ele>1529.298</ele>
        <time>2021-07-31T13:23:56Z</time>
      </trkpt>
      <trkpt lat="40.844566" lon="-3.867953">
        <ele>1529.115</ele>
        <time>2021-07-31T13:23:57Z</time>
      </trkpt>
      <trkpt lat="40.844566" lon="-3.867922">
        <ele>1529.097</ele>
        <time>2021-07-31T13:23:58Z</time>
      </trkpt>
      <trkpt lat="40.844566" lon="-3.867895">
        <ele>1528.924</ele>
        <time>2021-07-31T13:23:59Z</time>
      </trkpt>
      <trkpt lat="40.844550" lon="-3.868042">
        <ele>1529.674</ele>
        <time>2021-07-31T13:25:54Z</time>
      </trkpt>
      <trkpt lat="40.844573" lon="-3.868054">
        <ele>1529.592</ele>
        <time>2021-07-31T13:25:56Z</time>
      </trkpt>
      <trkpt lat="40.844592" lon="-3.868064">
        <ele>1529.611</ele>
        <time>2021-07-31T13:25:58Z</time>
      </trkpt>
      <trkpt lat="40.844621" lon="-3.868074">
        <ele>1529.521</ele>
        <time>2021-07-31T13:26:00Z</time>
      </trkpt>
      <trkpt lat="40.844643" lon="-3.868080">
        <ele>1529.503</ele>
        <time>2021-07-31T13:26:01Z</time>
      </trkpt>
      <trkpt lat="40.844662" lon="-3.868085">
        <ele>1529.408</ele>
        <time>2021-07-31T13:26:02Z</time>
      </trkpt>
      <trkpt lat="40.844678" lon="-3.868098">
        <ele>1529.428</ele>
        <time>2021-07-31T13:26:03Z</time>
      </trkpt>
      <trkpt lat="40.844701" lon="-3.868117">
        <ele>1529.460</ele>
        <time>2021-07-31T13:26:05Z</time>
      </trkpt>
      <trkpt lat="40.844726" lon="-3.868128">
        <ele>1529.267</ele>
        <time>2021-07-31T13:26:07Z</time>
      </trkpt>
      <trkpt lat="40.844752" lon="-3.868135">
        <ele>1528.864</ele>
        <time>2021-07-31T13:26:09Z</time>
      </trkpt>
      <trkpt lat="40.844771" lon="-3.868137">
        <ele>1528.596</ele>
        <time>2021-07-31T13:26:10Z</time>
      </trkpt>
      <trkpt lat="40.844800" lon="-3.868147">
        <ele>1528.043</ele>
        <time>2021-07-31T13:26:12Z</time>
      </trkpt>
      <trkpt lat="40.844829" lon="-3.868157">
        <ele>1527.583</ele>
        <time>2021-07-31T13:26:14Z</time>
      </trkpt>
      <trkpt lat="40.844858" lon="-3.868168">
        <ele>1526.971</ele>
        <time>2021-07-31T13:26:16Z</time>
      </trkpt>
      <trkpt lat="40.844880" lon="-3.868178">
        <ele>1526.587</ele>
        <time>2021-07-31T13:26:18Z</time>
      </trkpt>
      <trkpt lat="40.844912" lon="-3.868193">
        <ele>1525.842</ele>
        <time>2021-07-31T13:26:20Z</time>
      </trkpt>
      <trkpt lat="40.844944" lon="-3.868202">
        <ele>1525.026</ele>
        <time>2021-07-31T13:26:22Z</time>
      </trkpt>
      <trkpt lat="40.844976" lon="-3.868208">
        <ele>1524.308</ele>
        <time>2021-07-31T13:26:24Z</time>
      </trkpt>
      <trkpt lat="40.845002" lon="-3.868220">
        <ele>1523.645</ele>
        <time>2021-07-31T13:26:26Z</time>
      </trkpt>
      <trkpt lat="40.845024" lon="-3.868223">
        <ele>1523.127</ele>
        <time>2021-07-31T13:26:28Z</time>
      </trkpt>
      <trkpt lat="40.845050" lon="-3.868214">
        <ele>1522.654</ele>
        <time>2021-07-31T13:26:30Z</time>
      </trkpt>
      <trkpt lat="40.845078" lon="-3.868218">
        <ele>1521.991</ele>
        <time>2021-07-31T13:26:32Z</time>
      </trkpt>
      <trkpt lat="40.845107" lon="-3.868220">
        <ele>1521.273</ele>
        <time>2021-07-31T13:26:34Z</time>
      </trkpt>
      <trkpt lat="40.845130" lon="-3.868226">
        <ele>1520.620</ele>
        <time>2021-07-31T13:26:36Z</time>
      </trkpt>
      <trkpt lat="40.845158" lon="-3.868228">
        <ele>1520.030</ele>
        <time>2021-07-31T13:26:38Z</time>
      </trkpt>
      <trkpt lat="40.845187" lon="-3.868217">
        <ele>1519.558</ele>
        <time>2021-07-31T13:26:40Z</time>
      </trkpt>
      <trkpt lat="40.845206" lon="-3.868214">
        <ele>1519.217</ele>
        <time>2021-07-31T13:26:41Z</time>
      </trkpt>
      <trkpt lat="40.845226" lon="-3.868198">
        <ele>1519.087</ele>
        <time>2021-07-31T13:26:43Z</time>
      </trkpt>
      <trkpt lat="40.845248" lon="-3.868197">
        <ele>1518.615</ele>
        <time>2021-07-31T13:26:45Z</time>
      </trkpt>
      <trkpt lat="40.845277" lon="-3.868195">
        <ele>1518.008</ele>
        <time>2021-07-31T13:26:47Z</time>
      </trkpt>
      <trkpt lat="40.845296" lon="-3.868188">
        <ele>1517.638</ele>
        <time>2021-07-31T13:26:49Z</time>
      </trkpt>
      <trkpt lat="40.845315" lon="-3.868188">
        <ele>1517.150</ele>
        <time>2021-07-31T13:26:50Z</time>
      </trkpt>
      <trkpt lat="40.845341" lon="-3.868180">
        <ele>1516.587</ele>
        <time>2021-07-31T13:26:53Z</time>
      </trkpt>
      <trkpt lat="40.845373" lon="-3.868185">
        <ele>1515.584</ele>
        <time>2021-07-31T13:26:55Z</time>
      </trkpt>
      <trkpt lat="40.845395" lon="-3.868183">
        <ele>1514.936</ele>
        <time>2021-07-31T13:26:57Z</time>
      </trkpt>
      <trkpt lat="40.845418" lon="-3.868173">
        <ele>1514.623</ele>
        <time>2021-07-31T13:26:59Z</time>
      </trkpt>
      <trkpt lat="40.845440" lon="-3.868165">
        <ele>1514.253</ele>
        <time>2021-07-31T13:27:01Z</time>
      </trkpt>
      <trkpt lat="40.845466" lon="-3.868160">
        <ele>1513.711</ele>
        <time>2021-07-31T13:27:03Z</time>
      </trkpt>
      <trkpt lat="40.845485" lon="-3.868150">
        <ele>1513.572</ele>
        <time>2021-07-31T13:27:05Z</time>
      </trkpt>
      <trkpt lat="40.845507" lon="-3.868132">
        <ele>1513.513</ele>
        <time>2021-07-31T13:27:07Z</time>
      </trkpt>
      <trkpt lat="40.845539" lon="-3.868113">
        <ele>1513.314</ele>
        <time>2021-07-31T13:27:09Z</time>
      </trkpt>
      <trkpt lat="40.845558" lon="-3.868102">
        <ele>1513.308</ele>
        <time>2021-07-31T13:27:10Z</time>
      </trkpt>
      <trkpt lat="40.845626" lon="-3.868075">
        <ele>1512.634</ele>
        <time>2021-07-31T13:27:16Z</time>
      </trkpt>
      <trkpt lat="40.845651" lon="-3.868058">
        <ele>1512.596</ele>
        <time>2021-07-31T13:27:18Z</time>
      </trkpt>
      <trkpt lat="40.845674" lon="-3.868052">
        <ele>1512.113</ele>
        <time>2021-07-31T13:27:20Z</time>
      </trkpt>
      <trkpt lat="40.845696" lon="-3.868045">
        <ele>1511.820</ele>
        <time>2021-07-31T13:27:22Z</time>
      </trkpt>
      <trkpt lat="40.845718" lon="-3.868040">
        <ele>1511.542</ele>
        <time>2021-07-31T13:27:24Z</time>
      </trkpt>
      <trkpt lat="40.845738" lon="-3.868034">
        <ele>1511.299</ele>
        <time>2021-07-31T13:27:26Z</time>
      </trkpt>
      <trkpt lat="40.845754" lon="-3.868022">
        <ele>1511.239</ele>
        <time>2021-07-31T13:27:27Z</time>
      </trkpt>
      <trkpt lat="40.845776" lon="-3.868002">
        <ele>1511.457</ele>
        <time>2021-07-31T13:27:29Z</time>
      </trkpt>
      <trkpt lat="40.845798" lon="-3.867990">
        <ele>1511.223</ele>
        <time>2021-07-31T13:27:32Z</time>
      </trkpt>
      <trkpt lat="40.845821" lon="-3.867977">
        <ele>1511.183</ele>
        <time>2021-07-31T13:27:34Z</time>
      </trkpt>
      <trkpt lat="40.845840" lon="-3.867977">
        <ele>1510.811</ele>
        <time>2021-07-31T13:27:35Z</time>
      </trkpt>
      <trkpt lat="40.845862" lon="-3.867973">
        <ele>1510.708</ele>
        <time>2021-07-31T13:27:36Z</time>
      </trkpt>
      <trkpt lat="40.845891" lon="-3.867972">
        <ele>1510.449</ele>
        <time>2021-07-31T13:27:38Z</time>
      </trkpt>
      <trkpt lat="40.845910" lon="-3.867962">
        <ele>1510.541</ele>
        <time>2021-07-31T13:27:40Z</time>
      </trkpt>
      <trkpt lat="40.845930" lon="-3.867948">
        <ele>1510.828</ele>
        <time>2021-07-31T13:27:42Z</time>
      </trkpt>
      <trkpt lat="40.845952" lon="-3.867928">
        <ele>1511.185</ele>
        <time>2021-07-31T13:27:45Z</time>
      </trkpt>
      <trkpt lat="40.845974" lon="-3.867913">
        <ele>1511.397</ele>
        <time>2021-07-31T13:27:47Z</time>
      </trkpt>
      <trkpt lat="40.845997" lon="-3.867920">
        <ele>1510.884</ele>
        <time>2021-07-31T13:27:49Z</time>
      </trkpt>
      <trkpt lat="40.846038" lon="-3.867915">
        <ele>1510.544</ele>
        <time>2021-07-31T13:27:51Z</time>
      </trkpt>
      <trkpt lat="40.846061" lon="-3.867915">
        <ele>1510.292</ele>
        <time>2021-07-31T13:27:52Z</time>
      </trkpt>
      <trkpt lat="40.846093" lon="-3.867905">
        <ele>1510.087</ele>
        <time>2021-07-31T13:27:53Z</time>
      </trkpt>
      <trkpt lat="40.846112" lon="-3.867898">
        <ele>1510.042</ele>
        <time>2021-07-31T13:27:54Z</time>
      </trkpt>
      <trkpt lat="40.846131" lon="-3.867888">
        <ele>1509.926</ele>
        <time>2021-07-31T13:27:55Z</time>
      </trkpt>
      <trkpt lat="40.846154" lon="-3.867885">
        <ele>1509.508</ele>
        <time>2021-07-31T13:27:58Z</time>
      </trkpt>
      <trkpt lat="40.846182" lon="-3.867882">
        <ele>1509.145</ele>
        <time>2021-07-31T13:28:02Z</time>
      </trkpt>
      <trkpt lat="40.846202" lon="-3.867882">
        <ele>1508.737</ele>
        <time>2021-07-31T13:28:03Z</time>
      </trkpt>
      <trkpt lat="40.846221" lon="-3.867880">
        <ele>1508.414</ele>
        <time>2021-07-31T13:28:04Z</time>
      </trkpt>
      <trkpt lat="40.846246" lon="-3.867862">
        <ele>1508.531</ele>
        <time>2021-07-31T13:28:06Z</time>
      </trkpt>
      <trkpt lat="40.846272" lon="-3.867865">
        <ele>1507.983</ele>
        <time>2021-07-31T13:28:08Z</time>
      </trkpt>
      <trkpt lat="40.846298" lon="-3.867843">
        <ele>1508.030</ele>
        <time>2021-07-31T13:28:10Z</time>
      </trkpt>
      <trkpt lat="40.846317" lon="-3.867838">
        <ele>1507.860</ele>
        <time>2021-07-31T13:28:11Z</time>
      </trkpt>
      <trkpt lat="40.846342" lon="-3.867854">
        <ele>1506.918</ele>
        <time>2021-07-31T13:28:13Z</time>
      </trkpt>
      <trkpt lat="40.846371" lon="-3.867848">
        <ele>1506.611</ele>
        <time>2021-07-31T13:28:15Z</time>
      </trkpt>
      <trkpt lat="40.846390" lon="-3.867842">
        <ele>1506.421</ele>
        <time>2021-07-31T13:28:16Z</time>
      </trkpt>
      <trkpt lat="40.846410" lon="-3.867845">
        <ele>1505.903</ele>
        <time>2021-07-31T13:28:18Z</time>
      </trkpt>
      <trkpt lat="40.846442" lon="-3.867833">
        <ele>1505.708</ele>
        <time>2021-07-31T13:28:21Z</time>
      </trkpt>
      <trkpt lat="40.846470" lon="-3.867825">
        <ele>1505.528</ele>
        <time>2021-07-31T13:28:23Z</time>
      </trkpt>
      <trkpt lat="40.846490" lon="-3.867818">
        <ele>1505.410</ele>
        <time>2021-07-31T13:28:27Z</time>
      </trkpt>
      <trkpt lat="40.846515" lon="-3.867800">
        <ele>1505.567</ele>
        <time>2021-07-31T13:28:31Z</time>
      </trkpt>
      <trkpt lat="40.846554" lon="-3.867785">
        <ele>1505.484</ele>
        <time>2021-07-31T13:28:33Z</time>
      </trkpt>
      <trkpt lat="40.846579" lon="-3.867790">
        <ele>1504.916</ele>
        <time>2021-07-31T13:28:34Z</time>
      </trkpt>
      <trkpt lat="40.846598" lon="-3.867800">
        <ele>1504.263</ele>
        <time>2021-07-31T13:28:35Z</time>
      </trkpt>
      <trkpt lat="40.846618" lon="-3.867790">
        <ele>1504.313</ele>
        <time>2021-07-31T13:28:38Z</time>
      </trkpt>
      <trkpt lat="40.846640" lon="-3.867803">
        <ele>1503.531</ele>
        <time>2021-07-31T13:28:40Z</time>
      </trkpt>
      <trkpt lat="40.846653" lon="-3.867830">
        <ele>1502.392</ele>
        <time>2021-07-31T13:28:42Z</time>
      </trkpt>
      <trkpt lat="40.846691" lon="-3.867830">
        <ele>1501.773</ele>
        <time>2021-07-31T13:28:44Z</time>
      </trkpt>
      <trkpt lat="40.846710" lon="-3.867825">
        <ele>1501.520</ele>
        <time>2021-07-31T13:28:45Z</time>
      </trkpt>
      <trkpt lat="40.846730" lon="-3.867817">
        <ele>1501.408</ele>
        <time>2021-07-31T13:28:46Z</time>
      </trkpt>
      <trkpt lat="40.846749" lon="-3.867813">
        <ele>1501.296</ele>
        <time>2021-07-31T13:28:48Z</time>
      </trkpt>
      <trkpt lat="40.846768" lon="-3.867817">
        <ele>1500.738</ele>
        <time>2021-07-31T13:28:49Z</time>
      </trkpt>
      <trkpt lat="40.846787" lon="-3.867817">
        <ele>1500.485</ele>
        <time>2021-07-31T13:28:50Z</time>
      </trkpt>
      <trkpt lat="40.846813" lon="-3.867795">
        <ele>1500.772</ele>
        <time>2021-07-31T13:28:52Z</time>
      </trkpt>
      <trkpt lat="40.846829" lon="-3.867782">
        <ele>1500.934</ele>
        <time>2021-07-31T13:28:53Z</time>
      </trkpt>
      <trkpt lat="40.846854" lon="-3.867770">
        <ele>1500.931</ele>
        <time>2021-07-31T13:28:55Z</time>
      </trkpt>
      <trkpt lat="40.846877" lon="-3.867768">
        <ele>1500.521</ele>
        <time>2021-07-31T13:28:56Z</time>
      </trkpt>
      <trkpt lat="40.846896" lon="-3.867763">
        <ele>1500.439</ele>
        <time>2021-07-31T13:28:57Z</time>
      </trkpt>
      <trkpt lat="40.846925" lon="-3.867760">
        <ele>1499.911</ele>
        <time>2021-07-31T13:28:59Z</time>
      </trkpt>
      <trkpt lat="40.846947" lon="-3.867753">
        <ele>1499.821</ele>
        <time>2021-07-31T13:29:01Z</time>
      </trkpt>
      <trkpt lat="40.846973" lon="-3.867748">
        <ele>1499.503</ele>
        <time>2021-07-31T13:29:03Z</time>
      </trkpt>
      <trkpt lat="40.847002" lon="-3.867738">
        <ele>1499.408</ele>
        <time>2021-07-31T13:29:05Z</time>
      </trkpt>
      <trkpt lat="40.847030" lon="-3.867732">
        <ele>1499.278</ele>
        <time>2021-07-31T13:29:07Z</time>
      </trkpt>
      <trkpt lat="40.847050" lon="-3.867712">
        <ele>1499.590</ele>
        <time>2021-07-31T13:29:08Z</time>
      </trkpt>
      <trkpt lat="40.847069" lon="-3.867675">
        <ele>1500.437</ele>
        <time>2021-07-31T13:29:10Z</time>
      </trkpt>
      <trkpt lat="40.847091" lon="-3.867673">
        <ele>1500.154</ele>
        <time>2021-07-31T13:29:12Z</time>
      </trkpt>
      <trkpt lat="40.847117" lon="-3.867663">
        <ele>1500.066</ele>
        <time>2021-07-31T13:29:14Z</time>
      </trkpt>
      <trkpt lat="40.847149" lon="-3.867662">
        <ele>1499.513</ele>
        <time>2021-07-31T13:29:16Z</time>
      </trkpt>
      <trkpt lat="40.847171" lon="-3.867665">
        <ele>1499.173</ele>
        <time>2021-07-31T13:29:17Z</time>
      </trkpt>
      <trkpt lat="40.847190" lon="-3.867667">
        <ele>1498.731</ele>
        <time>2021-07-31T13:29:18Z</time>
      </trkpt>
      <trkpt lat="40.847210" lon="-3.867662">
        <ele>1498.546</ele>
        <time>2021-07-31T13:29:19Z</time>
      </trkpt>
      <trkpt lat="40.847235" lon="-3.867663">
        <ele>1498.288</ele>
        <time>2021-07-31T13:29:21Z</time>
      </trkpt>
      <trkpt lat="40.847267" lon="-3.867662">
        <ele>1497.916</ele>
        <time>2021-07-31T13:29:22Z</time>
      </trkpt>
      <trkpt lat="40.847302" lon="-3.867653">
        <ele>1497.908</ele>
        <time>2021-07-31T13:29:24Z</time>
      </trkpt>
      <trkpt lat="40.847322" lon="-3.867667">
        <ele>1497.361</ele>
        <time>2021-07-31T13:29:27Z</time>
      </trkpt>
      <trkpt lat="40.847347" lon="-3.867665">
        <ele>1497.243</ele>
        <time>2021-07-31T13:29:30Z</time>
      </trkpt>
      <trkpt lat="40.847366" lon="-3.867670">
        <ele>1496.930</ele>
        <time>2021-07-31T13:29:31Z</time>
      </trkpt>
      <trkpt lat="40.847398" lon="-3.867678">
        <ele>1496.437</ele>
        <time>2021-07-31T13:29:33Z</time>
      </trkpt>
      <trkpt lat="40.847427" lon="-3.867680">
        <ele>1496.189</ele>
        <time>2021-07-31T13:29:37Z</time>
      </trkpt>
      <trkpt lat="40.847453" lon="-3.867695">
        <ele>1495.536</ele>
        <time>2021-07-31T13:29:39Z</time>
      </trkpt>
      <trkpt lat="40.847485" lon="-3.867704">
        <ele>1495.066</ele>
        <time>2021-07-31T13:29:41Z</time>
      </trkpt>
      <trkpt lat="40.847504" lon="-3.867694">
        <ele>1495.184</ele>
        <time>2021-07-31T13:29:42Z</time>
      </trkpt>
      <trkpt lat="40.847526" lon="-3.867700">
        <ele>1494.992</ele>
        <time>2021-07-31T13:29:44Z</time>
      </trkpt>
      <trkpt lat="40.847552" lon="-3.867694">
        <ele>1494.973</ele>
        <time>2021-07-31T13:29:46Z</time>
      </trkpt>
      <trkpt lat="40.847581" lon="-3.867684">
        <ele>1495.120</ele>
        <time>2021-07-31T13:29:48Z</time>
      </trkpt>
      <trkpt lat="40.847603" lon="-3.867680">
        <ele>1495.108</ele>
        <time>2021-07-31T13:29:50Z</time>
      </trkpt>
      <trkpt lat="40.847626" lon="-3.867695">
        <ele>1494.686</ele>
        <time>2021-07-31T13:29:52Z</time>
      </trkpt>
      <trkpt lat="40.847645" lon="-3.867685">
        <ele>1494.828</ele>
        <time>2021-07-31T13:29:54Z</time>
      </trkpt>
      <trkpt lat="40.847670" lon="-3.867687">
        <ele>1494.795</ele>
        <time>2021-07-31T13:30:02Z</time>
      </trkpt>
      <trkpt lat="40.847693" lon="-3.867695">
        <ele>1494.422</ele>
        <time>2021-07-31T13:30:08Z</time>
      </trkpt>
      <trkpt lat="40.847712" lon="-3.867705">
        <ele>1494.164</ele>
        <time>2021-07-31T13:30:10Z</time>
      </trkpt>
      <trkpt lat="40.847741" lon="-3.867700">
        <ele>1494.111</ele>
        <time>2021-07-31T13:30:12Z</time>
      </trkpt>
      <trkpt lat="40.847763" lon="-3.867688">
        <ele>1494.331</ele>
        <time>2021-07-31T13:30:14Z</time>
      </trkpt>
      <trkpt lat="40.847782" lon="-3.867680">
        <ele>1494.489</ele>
        <time>2021-07-31T13:30:16Z</time>
      </trkpt>
      <trkpt lat="40.847811" lon="-3.867682">
        <ele>1494.236</ele>
        <time>2021-07-31T13:30:18Z</time>
      </trkpt>
      <trkpt lat="40.847846" lon="-3.867677">
        <ele>1494.017</ele>
        <time>2021-07-31T13:30:20Z</time>
      </trkpt>
      <trkpt lat="40.847866" lon="-3.867673">
        <ele>1494.018</ele>
        <time>2021-07-31T13:30:21Z</time>
      </trkpt>
      <trkpt lat="40.847888" lon="-3.867680">
        <ele>1493.708</ele>
        <time>2021-07-31T13:30:22Z</time>
      </trkpt>
      <trkpt lat="40.847907" lon="-3.867675">
        <ele>1493.710</ele>
        <time>2021-07-31T13:30:23Z</time>
      </trkpt>
      <trkpt lat="40.847939" lon="-3.867682">
        <ele>1493.392</ele>
        <time>2021-07-31T13:30:25Z</time>
      </trkpt>
      <trkpt lat="40.847965" lon="-3.867665">
        <ele>1493.579</ele>
        <time>2021-07-31T13:30:27Z</time>
      </trkpt>
      <trkpt lat="40.847997" lon="-3.867657">
        <ele>1493.586</ele>
        <time>2021-07-31T13:30:29Z</time>
      </trkpt>
      <trkpt lat="40.848029" lon="-3.867647">
        <ele>1493.548</ele>
        <time>2021-07-31T13:30:31Z</time>
      </trkpt>
      <trkpt lat="40.848048" lon="-3.867658">
        <ele>1493.115</ele>
        <time>2021-07-31T13:30:34Z</time>
      </trkpt>
      <trkpt lat="40.848083" lon="-3.867648">
        <ele>1493.035</ele>
        <time>2021-07-31T13:30:36Z</time>
      </trkpt>
      <trkpt lat="40.848109" lon="-3.867648">
        <ele>1492.783</ele>
        <time>2021-07-31T13:30:37Z</time>
      </trkpt>
      <trkpt lat="40.848134" lon="-3.867650">
        <ele>1492.323</ele>
        <time>2021-07-31T13:30:39Z</time>
      </trkpt>
      <trkpt lat="40.848154" lon="-3.867660">
        <ele>1491.983</ele>
        <time>2021-07-31T13:30:40Z</time>
      </trkpt>
      <trkpt lat="40.848179" lon="-3.867682">
        <ele>1490.911</ele>
        <time>2021-07-31T13:30:42Z</time>
      </trkpt>
      <trkpt lat="40.848198" lon="-3.867685">
        <ele>1490.608</ele>
        <time>2021-07-31T13:30:43Z</time>
      </trkpt>
      <trkpt lat="40.848221" lon="-3.867682">
        <ele>1490.469</ele>
        <time>2021-07-31T13:30:45Z</time>
      </trkpt>
      <trkpt lat="40.848240" lon="-3.867677">
        <ele>1490.431</ele>
        <time>2021-07-31T13:30:47Z</time>
      </trkpt>
      <trkpt lat="40.848272" lon="-3.867678">
        <ele>1490.068</ele>
        <time>2021-07-31T13:30:49Z</time>
      </trkpt>
      <trkpt lat="40.848301" lon="-3.867680">
        <ele>1489.685</ele>
        <time>2021-07-31T13:30:51Z</time>
      </trkpt>
      <trkpt lat="40.848323" lon="-3.867668">
        <ele>1489.747</ele>
        <time>2021-07-31T13:30:54Z</time>
      </trkpt>
      <trkpt lat="40.848346" lon="-3.867658">
        <ele>1489.884</ele>
        <time>2021-07-31T13:30:56Z</time>
      </trkpt>
      <trkpt lat="40.848365" lon="-3.867660">
        <ele>1489.574</ele>
        <time>2021-07-31T13:30:57Z</time>
      </trkpt>
      <trkpt lat="40.848384" lon="-3.867660">
        <ele>1489.462</ele>
        <time>2021-07-31T13:30:58Z</time>
      </trkpt>
      <trkpt lat="40.848406" lon="-3.867653">
        <ele>1489.412</ele>
        <time>2021-07-31T13:30:59Z</time>
      </trkpt>
      <trkpt lat="40.848432" lon="-3.867653">
        <ele>1489.232</ele>
        <time>2021-07-31T13:31:00Z</time>
      </trkpt>
      <trkpt lat="40.848451" lon="-3.867657">
        <ele>1488.905</ele>
        <time>2021-07-31T13:31:01Z</time>
      </trkpt>
      <trkpt lat="40.848486" lon="-3.867652">
        <ele>1488.708</ele>
        <time>2021-07-31T13:31:03Z</time>
      </trkpt>
      <trkpt lat="40.848506" lon="-3.867642">
        <ele>1488.988</ele>
        <time>2021-07-31T13:31:05Z</time>
      </trkpt>
      <trkpt lat="40.848525" lon="-3.867648">
        <ele>1488.590</ele>
        <time>2021-07-31T13:31:06Z</time>
      </trkpt>
      <trkpt lat="40.848550" lon="-3.867633">
        <ele>1488.727</ele>
        <time>2021-07-31T13:31:08Z</time>
      </trkpt>
      <trkpt lat="40.848566" lon="-3.867618">
        <ele>1489.064</ele>
        <time>2021-07-31T13:31:10Z</time>
      </trkpt>
      <trkpt lat="40.848586" lon="-3.867612">
        <ele>1489.036</ele>
        <time>2021-07-31T13:31:12Z</time>
      </trkpt>
      <trkpt lat="40.848605" lon="-3.867595">
        <ele>1489.373</ele>
        <time>2021-07-31T13:31:14Z</time>
      </trkpt>
      <trkpt lat="40.848624" lon="-3.867593">
        <ele>1489.253</ele>
        <time>2021-07-31T13:31:15Z</time>
      </trkpt>
      <trkpt lat="40.848653" lon="-3.867576">
        <ele>1489.471</ele>
        <time>2021-07-31T13:31:17Z</time>
      </trkpt>
      <trkpt lat="40.848678" lon="-3.867572">
        <ele>1489.253</ele>
        <time>2021-07-31T13:31:19Z</time>
      </trkpt>
      <trkpt lat="40.848698" lon="-3.867563">
        <ele>1489.204</ele>
        <time>2021-07-31T13:31:21Z</time>
      </trkpt>
      <trkpt lat="40.848720" lon="-3.867555">
        <ele>1489.214</ele>
        <time>2021-07-31T13:31:29Z</time>
      </trkpt>
      <trkpt lat="40.848749" lon="-3.867560">
        <ele>1488.808</ele>
        <time>2021-07-31T13:31:31Z</time>
      </trkpt>
      <trkpt lat="40.848771" lon="-3.867580">
        <ele>1488.022</ele>
        <time>2021-07-31T13:31:33Z</time>
      </trkpt>
      <trkpt lat="40.848797" lon="-3.867587">
        <ele>1487.514</ele>
        <time>2021-07-31T13:31:35Z</time>
      </trkpt>
      <trkpt lat="40.848819" lon="-3.867592">
        <ele>1487.191</ele>
        <time>2021-07-31T13:31:36Z</time>
      </trkpt>
      <trkpt lat="40.848854" lon="-3.867583">
        <ele>1487.058</ele>
        <time>2021-07-31T13:31:38Z</time>
      </trkpt>
      <trkpt lat="40.848874" lon="-3.867585">
        <ele>1486.720</ele>
        <time>2021-07-31T13:31:40Z</time>
      </trkpt>
      <trkpt lat="40.848899" lon="-3.867585">
        <ele>1486.427</ele>
        <time>2021-07-31T13:31:42Z</time>
      </trkpt>
      <trkpt lat="40.848922" lon="-3.867572">
        <ele>1486.647</ele>
        <time>2021-07-31T13:31:44Z</time>
      </trkpt>
      <trkpt lat="40.848941" lon="-3.867573">
        <ele>1486.365</ele>
        <time>2021-07-31T13:31:45Z</time>
      </trkpt>
      <trkpt lat="40.848960" lon="-3.867568">
        <ele>1486.313</ele>
        <time>2021-07-31T13:31:46Z</time>
      </trkpt>
      <trkpt lat="40.848992" lon="-3.867560">
        <ele>1486.243</ele>
        <time>2021-07-31T13:31:48Z</time>
      </trkpt>
      <trkpt lat="40.849011" lon="-3.867558">
        <ele>1486.007</ele>
        <time>2021-07-31T13:31:50Z</time>
      </trkpt>
      <trkpt lat="40.849030" lon="-3.867550">
        <ele>1486.008</ele>
        <time>2021-07-31T13:31:52Z</time>
      </trkpt>
      <trkpt lat="40.849059" lon="-3.867568">
        <ele>1485.268</ele>
        <time>2021-07-31T13:31:55Z</time>
      </trkpt>
      <trkpt lat="40.849088" lon="-3.867566">
        <ele>1484.950</ele>
        <time>2021-07-31T13:31:57Z</time>
      </trkpt>
      <trkpt lat="40.849107" lon="-3.867562">
        <ele>1484.997</ele>
        <time>2021-07-31T13:31:58Z</time>
      </trkpt>
      <trkpt lat="40.849133" lon="-3.867530">
        <ele>1485.534</ele>
        <time>2021-07-31T13:32:00Z</time>
      </trkpt>
      <trkpt lat="40.849149" lon="-3.867517">
        <ele>1485.736</ele>
        <time>2021-07-31T13:32:01Z</time>
      </trkpt>
      <trkpt lat="40.849171" lon="-3.867502">
        <ele>1485.993</ele>
        <time>2021-07-31T13:32:03Z</time>
      </trkpt>
      <trkpt lat="40.849194" lon="-3.867480">
        <ele>1486.483</ele>
        <time>2021-07-31T13:32:05Z</time>
      </trkpt>
      <trkpt lat="40.849226" lon="-3.867465">
        <ele>1486.611</ele>
        <time>2021-07-31T13:32:07Z</time>
      </trkpt>
      <trkpt lat="40.849242" lon="-3.867450">
        <ele>1486.848</ele>
        <time>2021-07-31T13:32:12Z</time>
      </trkpt>
      <trkpt lat="40.849274" lon="-3.867450">
        <ele>1486.661</ele>
        <time>2021-07-31T13:32:15Z</time>
      </trkpt>
      <trkpt lat="40.849296" lon="-3.867453">
        <ele>1486.317</ele>
        <time>2021-07-31T13:32:17Z</time>
      </trkpt>
      <trkpt lat="40.849318" lon="-3.867462">
        <ele>1485.908</ele>
        <time>2021-07-31T13:32:19Z</time>
      </trkpt>
      <trkpt lat="40.849341" lon="-3.867458">
        <ele>1485.941</ele>
        <time>2021-07-31T13:32:21Z</time>
      </trkpt>
      <trkpt lat="40.849366" lon="-3.867448">
        <ele>1485.993</ele>
        <time>2021-07-31T13:32:23Z</time>
      </trkpt>
      <trkpt lat="40.849389" lon="-3.867452">
        <ele>1485.640</ele>
        <time>2021-07-31T13:32:25Z</time>
      </trkpt>
      <trkpt lat="40.849440" lon="-3.867472">
        <ele>1484.727</ele>
        <time>2021-07-31T13:32:31Z</time>
      </trkpt>
      <trkpt lat="40.849466" lon="-3.867470">
        <ele>1484.629</ele>
        <time>2021-07-31T13:32:32Z</time>
      </trkpt>
      <trkpt lat="40.849488" lon="-3.867468">
        <ele>1484.576</ele>
        <time>2021-07-31T13:32:33Z</time>
      </trkpt>
      <trkpt lat="40.849507" lon="-3.867457">
        <ele>1484.616</ele>
        <time>2021-07-31T13:32:34Z</time>
      </trkpt>
      <trkpt lat="40.849530" lon="-3.867453">
        <ele>1484.524</ele>
        <time>2021-07-31T13:32:36Z</time>
      </trkpt>
      <trkpt lat="40.849552" lon="-3.867443">
        <ele>1484.616</ele>
        <time>2021-07-31T13:32:37Z</time>
      </trkpt>
      <trkpt lat="40.849578" lon="-3.867442">
        <ele>1484.476</ele>
        <time>2021-07-31T13:32:39Z</time>
      </trkpt>
      <trkpt lat="40.849613" lon="-3.867448">
        <ele>1484.013</ele>
        <time>2021-07-31T13:32:41Z</time>
      </trkpt>
      <trkpt lat="40.849648" lon="-3.867453">
        <ele>1483.608</ele>
        <time>2021-07-31T13:32:43Z</time>
      </trkpt>
      <trkpt lat="40.849677" lon="-3.867450">
        <ele>1483.498</ele>
        <time>2021-07-31T13:32:45Z</time>
      </trkpt>
      <trkpt lat="40.849702" lon="-3.867453">
        <ele>1483.220</ele>
        <time>2021-07-31T13:32:47Z</time>
      </trkpt>
      <trkpt lat="40.849728" lon="-3.867448">
        <ele>1483.167</ele>
        <time>2021-07-31T13:32:49Z</time>
      </trkpt>
      <trkpt lat="40.849757" lon="-3.867448">
        <ele>1483.034</ele>
        <time>2021-07-31T13:32:51Z</time>
      </trkpt>
      <trkpt lat="40.849786" lon="-3.867438">
        <ele>1483.126</ele>
        <time>2021-07-31T13:32:53Z</time>
      </trkpt>
      <trkpt lat="40.849811" lon="-3.867445">
        <ele>1482.953</ele>
        <time>2021-07-31T13:32:55Z</time>
      </trkpt>
      <trkpt lat="40.849843" lon="-3.867440">
        <ele>1482.913</ele>
        <time>2021-07-31T13:32:57Z</time>
      </trkpt>
      <trkpt lat="40.849869" lon="-3.867435">
        <ele>1482.951</ele>
        <time>2021-07-31T13:32:59Z</time>
      </trkpt>
      <trkpt lat="40.849894" lon="-3.867442">
        <ele>1482.673</ele>
        <time>2021-07-31T13:33:01Z</time>
      </trkpt>
      <trkpt lat="40.849914" lon="-3.867445">
        <ele>1482.585</ele>
        <time>2021-07-31T13:33:02Z</time>
      </trkpt>
      <trkpt lat="40.849942" lon="-3.867443">
        <ele>1482.413</ele>
        <time>2021-07-31T13:33:04Z</time>
      </trkpt>
      <trkpt lat="40.849962" lon="-3.867440">
        <ele>1482.408</ele>
        <time>2021-07-31T13:33:06Z</time>
      </trkpt>
      <trkpt lat="40.849984" lon="-3.867463">
        <ele>1481.924</ele>
        <time>2021-07-31T13:33:08Z</time>
      </trkpt>
      <trkpt lat="40.850003" lon="-3.867468">
        <ele>1481.726</ele>
        <time>2021-07-31T13:33:09Z</time>
      </trkpt>
      <trkpt lat="40.850032" lon="-3.867477">
        <ele>1481.263</ele>
        <time>2021-07-31T13:33:11Z</time>
      </trkpt>
      <trkpt lat="40.850051" lon="-3.867480">
        <ele>1480.950</ele>
        <time>2021-07-31T13:33:13Z</time>
      </trkpt>
      <trkpt lat="40.850074" lon="-3.867492">
        <ele>1480.462</ele>
        <time>2021-07-31T13:33:15Z</time>
      </trkpt>
      <trkpt lat="40.850102" lon="-3.867510">
        <ele>1479.649</ele>
        <time>2021-07-31T13:33:17Z</time>
      </trkpt>
      <trkpt lat="40.850128" lon="-3.867522">
        <ele>1479.099</ele>
        <time>2021-07-31T13:33:19Z</time>
      </trkpt>
      <trkpt lat="40.850147" lon="-3.867532">
        <ele>1478.567</ele>
        <time>2021-07-31T13:33:20Z</time>
      </trkpt>
      <trkpt lat="40.850173" lon="-3.867525">
        <ele>1478.558</ele>
        <time>2021-07-31T13:33:22Z</time>
      </trkpt>
      <trkpt lat="40.850198" lon="-3.867536">
        <ele>1477.952</ele>
        <time>2021-07-31T13:33:24Z</time>
      </trkpt>
      <trkpt lat="40.850224" lon="-3.867553">
        <ele>1477.317</ele>
        <time>2021-07-31T13:33:26Z</time>
      </trkpt>
      <trkpt lat="40.850243" lon="-3.867565">
        <ele>1476.908</ele>
        <time>2021-07-31T13:33:27Z</time>
      </trkpt>
      <trkpt lat="40.850272" lon="-3.867573">
        <ele>1476.542</ele>
        <time>2021-07-31T13:33:29Z</time>
      </trkpt>
      <trkpt lat="40.850291" lon="-3.867590">
        <ele>1476.244</ele>
        <time>2021-07-31T13:33:30Z</time>
      </trkpt>
      <trkpt lat="40.850314" lon="-3.867607">
        <ele>1476.081</ele>
        <time>2021-07-31T13:33:32Z</time>
      </trkpt>
      <trkpt lat="40.850333" lon="-3.867605">
        <ele>1476.158</ele>
        <time>2021-07-31T13:33:33Z</time>
      </trkpt>
      <trkpt lat="40.850352" lon="-3.867618">
        <ele>1476.060</ele>
        <time>2021-07-31T13:33:35Z</time>
      </trkpt>
      <trkpt lat="40.850381" lon="-3.867640">
        <ele>1475.757</ele>
        <time>2021-07-31T13:33:37Z</time>
      </trkpt>
      <trkpt lat="40.850406" lon="-3.867653">
        <ele>1475.627</ele>
        <time>2021-07-31T13:33:39Z</time>
      </trkpt>
      <trkpt lat="40.850426" lon="-3.867667">
        <ele>1475.565</ele>
        <time>2021-07-31T13:33:41Z</time>
      </trkpt>
      <trkpt lat="40.850451" lon="-3.867670">
        <ele>1475.682</ele>
        <time>2021-07-31T13:33:43Z</time>
      </trkpt>
      <trkpt lat="40.850477" lon="-3.867673">
        <ele>1475.743</ele>
        <time>2021-07-31T13:33:45Z</time>
      </trkpt>
      <trkpt lat="40.850506" lon="-3.867684">
        <ele>1475.717</ele>
        <time>2021-07-31T13:33:47Z</time>
      </trkpt>
      <trkpt lat="40.850525" lon="-3.867687">
        <ele>1475.708</ele>
        <time>2021-07-31T13:33:48Z</time>
      </trkpt>
      <trkpt lat="40.850544" lon="-3.867672">
        <ele>1476.285</ele>
        <time>2021-07-31T13:33:49Z</time>
      </trkpt>
      <trkpt lat="40.850576" lon="-3.867675">
        <ele>1476.337</ele>
        <time>2021-07-31T13:33:51Z</time>
      </trkpt>
      <trkpt lat="40.850608" lon="-3.867690">
        <ele>1476.174</ele>
        <time>2021-07-31T13:33:53Z</time>
      </trkpt>
      <trkpt lat="40.850637" lon="-3.867702">
        <ele>1475.921</ele>
        <time>2021-07-31T13:33:55Z</time>
      </trkpt>
      <trkpt lat="40.850669" lon="-3.867692">
        <ele>1476.383</ele>
        <time>2021-07-31T13:33:57Z</time>
      </trkpt>
      <trkpt lat="40.850691" lon="-3.867692">
        <ele>1476.310</ele>
        <time>2021-07-31T13:33:58Z</time>
      </trkpt>
      <trkpt lat="40.850710" lon="-3.867688">
        <ele>1476.580</ele>
        <time>2021-07-31T13:34:00Z</time>
      </trkpt>
      <trkpt lat="40.850746" lon="-3.867695">
        <ele>1476.598</ele>
        <time>2021-07-31T13:34:03Z</time>
      </trkpt>
      <trkpt lat="40.850765" lon="-3.867712">
        <ele>1476.283</ele>
        <time>2021-07-31T13:34:05Z</time>
      </trkpt>
      <trkpt lat="40.850784" lon="-3.867714">
        <ele>1476.225</ele>
        <time>2021-07-31T13:34:07Z</time>
      </trkpt>
      <trkpt lat="40.850800" lon="-3.867702">
        <ele>1476.517</ele>
        <time>2021-07-31T13:34:08Z</time>
      </trkpt>
      <trkpt lat="40.850842" lon="-3.867692">
        <ele>1476.808</ele>
        <time>2021-07-31T13:34:11Z</time>
      </trkpt>
      <trkpt lat="40.850861" lon="-3.867685">
        <ele>1476.735</ele>
        <time>2021-07-31T13:34:12Z</time>
      </trkpt>
      <trkpt lat="40.850877" lon="-3.867665">
        <ele>1477.017</ele>
        <time>2021-07-31T13:34:14Z</time>
      </trkpt>
      <trkpt lat="40.850896" lon="-3.867670">
        <ele>1476.764</ele>
        <time>2021-07-31T13:34:16Z</time>
      </trkpt>
      <trkpt lat="40.850925" lon="-3.867704">
        <ele>1475.551</ele>
        <time>2021-07-31T13:34:18Z</time>
      </trkpt>
      <trkpt lat="40.850947" lon="-3.867710">
        <ele>1475.173</ele>
        <time>2021-07-31T13:34:19Z</time>
      </trkpt>
      <trkpt lat="40.850982" lon="-3.867700">
        <ele>1475.060</ele>
        <time>2021-07-31T13:34:21Z</time>
      </trkpt>
      <trkpt lat="40.851005" lon="-3.867690">
        <ele>1475.050</ele>
        <time>2021-07-31T13:34:23Z</time>
      </trkpt>
      <trkpt lat="40.851027" lon="-3.867684">
        <ele>1474.988</ele>
        <time>2021-07-31T13:34:25Z</time>
      </trkpt>
      <trkpt lat="40.851053" lon="-3.867673">
        <ele>1475.046</ele>
        <time>2021-07-31T13:34:28Z</time>
      </trkpt>
      <trkpt lat="40.851082" lon="-3.867663">
        <ele>1475.088</ele>
        <time>2021-07-31T13:34:30Z</time>
      </trkpt>
      <trkpt lat="40.851107" lon="-3.867677">
        <ele>1474.316</ele>
        <time>2021-07-31T13:34:32Z</time>
      </trkpt>
      <trkpt lat="40.851117" lon="-3.867708">
        <ele>1473.208</ele>
        <time>2021-07-31T13:34:33Z</time>
      </trkpt>
      <trkpt lat="40.851136" lon="-3.867700">
        <ele>1473.251</ele>
        <time>2021-07-31T13:34:35Z</time>
      </trkpt>
      <trkpt lat="40.851158" lon="-3.867690">
        <ele>1473.293</ele>
        <time>2021-07-31T13:34:37Z</time>
      </trkpt>
      <trkpt lat="40.851178" lon="-3.867667">
        <ele>1473.730</ele>
        <time>2021-07-31T13:34:39Z</time>
      </trkpt>
      <trkpt lat="40.851200" lon="-3.867653">
        <ele>1473.857</ele>
        <time>2021-07-31T13:34:41Z</time>
      </trkpt>
      <trkpt lat="40.851219" lon="-3.867638">
        <ele>1474.099</ele>
        <time>2021-07-31T13:34:43Z</time>
      </trkpt>
      <trkpt lat="40.851242" lon="-3.867642">
        <ele>1473.576</ele>
        <time>2021-07-31T13:34:45Z</time>
      </trkpt>
      <trkpt lat="40.851264" lon="-3.867638">
        <ele>1473.336</ele>
        <time>2021-07-31T13:34:47Z</time>
      </trkpt>
      <trkpt lat="40.851286" lon="-3.867638">
        <ele>1473.084</ele>
        <time>2021-07-31T13:34:49Z</time>
      </trkpt>
      <trkpt lat="40.851312" lon="-3.867620">
        <ele>1473.157</ele>
        <time>2021-07-31T13:34:52Z</time>
      </trkpt>
      <trkpt lat="40.851331" lon="-3.867598">
        <ele>1473.400</ele>
        <time>2021-07-31T13:34:55Z</time>
      </trkpt>
      <trkpt lat="40.851357" lon="-3.867576">
        <ele>1473.620</ele>
        <time>2021-07-31T13:34:58Z</time>
      </trkpt>
      <trkpt lat="40.851382" lon="-3.867552">
        <ele>1473.808</ele>
        <time>2021-07-31T13:35:00Z</time>
      </trkpt>
      <trkpt lat="40.851418" lon="-3.867546">
        <ele>1473.292</ele>
        <time>2021-07-31T13:35:02Z</time>
      </trkpt>
      <trkpt lat="40.851437" lon="-3.867550">
        <ele>1472.764</ele>
        <time>2021-07-31T13:35:03Z</time>
      </trkpt>
      <trkpt lat="40.851459" lon="-3.867542">
        <ele>1472.481</ele>
        <time>2021-07-31T13:35:05Z</time>
      </trkpt>
      <trkpt lat="40.851482" lon="-3.867528">
        <ele>1472.318</ele>
        <time>2021-07-31T13:35:07Z</time>
      </trkpt>
      <trkpt lat="40.851514" lon="-3.867517">
        <ele>1471.980</ele>
        <time>2021-07-31T13:35:09Z</time>
      </trkpt>
      <trkpt lat="40.851533" lon="-3.867514">
        <ele>1471.587</ele>
        <time>2021-07-31T13:35:11Z</time>
      </trkpt>
      <trkpt lat="40.851555" lon="-3.867517">
        <ele>1471.057</ele>
        <time>2021-07-31T13:35:13Z</time>
      </trkpt>
      <trkpt lat="40.851581" lon="-3.867498">
        <ele>1470.975</ele>
        <time>2021-07-31T13:35:15Z</time>
      </trkpt>
      <trkpt lat="40.851603" lon="-3.867490">
        <ele>1470.683</ele>
        <time>2021-07-31T13:35:17Z</time>
      </trkpt>
      <trkpt lat="40.851629" lon="-3.867480">
        <ele>1470.325</ele>
        <time>2021-07-31T13:35:19Z</time>
      </trkpt>
      <trkpt lat="40.851651" lon="-3.867473">
        <ele>1470.017</ele>
        <time>2021-07-31T13:35:21Z</time>
      </trkpt>
      <trkpt lat="40.851674" lon="-3.867468">
        <ele>1469.708</ele>
        <time>2021-07-31T13:35:23Z</time>
      </trkpt>
      <trkpt lat="40.851693" lon="-3.867462">
        <ele>1469.535</ele>
        <time>2021-07-31T13:35:24Z</time>
      </trkpt>
      <trkpt lat="40.851715" lon="-3.867450">
        <ele>1469.457</ele>
        <time>2021-07-31T13:35:26Z</time>
      </trkpt>
      <trkpt lat="40.851741" lon="-3.867432">
        <ele>1469.494</ele>
        <time>2021-07-31T13:35:28Z</time>
      </trkpt>
      <trkpt lat="40.851763" lon="-3.867405">
        <ele>1469.811</ele>
        <time>2021-07-31T13:35:30Z</time>
      </trkpt>
      <trkpt lat="40.851792" lon="-3.867396">
        <ele>1469.513</ele>
        <time>2021-07-31T13:35:32Z</time>
      </trkpt>
      <trkpt lat="40.851821" lon="-3.867380">
        <ele>1469.510</ele>
        <time>2021-07-31T13:35:34Z</time>
      </trkpt>
      <trkpt lat="40.851837" lon="-3.867365">
        <ele>1469.690</ele>
        <time>2021-07-31T13:35:35Z</time>
      </trkpt>
      <trkpt lat="40.851869" lon="-3.867330">
        <ele>1470.148</ele>
        <time>2021-07-31T13:35:37Z</time>
      </trkpt>
      <trkpt lat="40.851894" lon="-3.867313">
        <ele>1470.246</ele>
        <time>2021-07-31T13:35:39Z</time>
      </trkpt>
      <trkpt lat="40.851914" lon="-3.867307">
        <ele>1470.088</ele>
        <time>2021-07-31T13:35:40Z</time>
      </trkpt>
      <trkpt lat="40.851936" lon="-3.867317">
        <ele>1469.416</ele>
        <time>2021-07-31T13:35:42Z</time>
      </trkpt>
      <trkpt lat="40.851958" lon="-3.867320">
        <ele>1469.008</ele>
        <time>2021-07-31T13:35:44Z</time>
      </trkpt>
      <trkpt lat="40.851990" lon="-3.867307">
        <ele>1468.841</ele>
        <time>2021-07-31T13:35:46Z</time>
      </trkpt>
      <trkpt lat="40.852026" lon="-3.867305">
        <ele>1468.213</ele>
        <time>2021-07-31T13:35:48Z</time>
      </trkpt>
      <trkpt lat="40.852058" lon="-3.867282">
        <ele>1468.360</ele>
        <time>2021-07-31T13:35:50Z</time>
      </trkpt>
      <trkpt lat="40.852077" lon="-3.867275">
        <ele>1468.287</ele>
        <time>2021-07-31T13:35:51Z</time>
      </trkpt>
      <trkpt lat="40.852099" lon="-3.867278">
        <ele>1467.789</ele>
        <time>2021-07-31T13:35:53Z</time>
      </trkpt>
      <trkpt lat="40.852125" lon="-3.867258">
        <ele>1467.856</ele>
        <time>2021-07-31T13:35:55Z</time>
      </trkpt>
      <trkpt lat="40.852147" lon="-3.867247">
        <ele>1467.716</ele>
        <time>2021-07-31T13:35:57Z</time>
      </trkpt>
      <trkpt lat="40.852173" lon="-3.867240">
        <ele>1467.414</ele>
        <time>2021-07-31T13:35:59Z</time>
      </trkpt>
      <trkpt lat="40.852192" lon="-3.867233">
        <ele>1467.376</ele>
        <time>2021-07-31T13:36:01Z</time>
      </trkpt>
      <trkpt lat="40.852211" lon="-3.867218">
        <ele>1467.390</ele>
        <time>2021-07-31T13:36:03Z</time>
      </trkpt>
      <trkpt lat="40.852230" lon="-3.867210">
        <ele>1467.219</ele>
        <time>2021-07-31T13:36:05Z</time>
      </trkpt>
      <trkpt lat="40.852250" lon="-3.867198">
        <ele>1467.208</ele>
        <time>2021-07-31T13:36:07Z</time>
      </trkpt>
      <trkpt lat="40.852269" lon="-3.867185">
        <ele>1467.344</ele>
        <time>2021-07-31T13:36:09Z</time>
      </trkpt>
      <trkpt lat="40.852291" lon="-3.867175">
        <ele>1467.256</ele>
        <time>2021-07-31T13:36:11Z</time>
      </trkpt>
      <trkpt lat="40.852323" lon="-3.867158">
        <ele>1467.293</ele>
        <time>2021-07-31T13:36:13Z</time>
      </trkpt>
      <trkpt lat="40.852352" lon="-3.867154">
        <ele>1466.850</ele>
        <time>2021-07-31T13:36:15Z</time>
      </trkpt>
      <trkpt lat="40.852374" lon="-3.867176">
        <ele>1466.092</ele>
        <time>2021-07-31T13:36:17Z</time>
      </trkpt>
      <trkpt lat="40.852394" lon="-3.867175">
        <ele>1465.789</ele>
        <time>2021-07-31T13:36:18Z</time>
      </trkpt>
      <trkpt lat="40.852413" lon="-3.867170">
        <ele>1465.699</ele>
        <time>2021-07-31T13:36:19Z</time>
      </trkpt>
      <trkpt lat="40.852445" lon="-3.867168">
        <ele>1465.217</ele>
        <time>2021-07-31T13:36:21Z</time>
      </trkpt>
      <trkpt lat="40.852474" lon="-3.867148">
        <ele>1465.255</ele>
        <time>2021-07-31T13:36:23Z</time>
      </trkpt>
      <trkpt lat="40.852496" lon="-3.867127">
        <ele>1465.507</ele>
        <time>2021-07-31T13:36:25Z</time>
      </trkpt>
      <trkpt lat="40.852509" lon="-3.867098">
        <ele>1466.117</ele>
        <time>2021-07-31T13:36:27Z</time>
      </trkpt>
      <trkpt lat="40.852528" lon="-3.867088">
        <ele>1466.108</ele>
        <time>2021-07-31T13:36:28Z</time>
      </trkpt>
      <trkpt lat="40.852557" lon="-3.867073">
        <ele>1466.272</ele>
        <time>2021-07-31T13:36:29Z</time>
      </trkpt>
      <trkpt lat="40.852570" lon="-3.867053">
        <ele>1466.644</ele>
        <time>2021-07-31T13:36:30Z</time>
      </trkpt>
      <trkpt lat="40.852602" lon="-3.867063">
        <ele>1466.161</ele>
        <time>2021-07-31T13:36:32Z</time>
      </trkpt>
      <trkpt lat="40.852627" lon="-3.867060">
        <ele>1465.978</ele>
        <time>2021-07-31T13:36:34Z</time>
      </trkpt>
      <trkpt lat="40.852653" lon="-3.867053">
        <ele>1465.870</ele>
        <time>2021-07-31T13:36:36Z</time>
      </trkpt>
      <trkpt lat="40.852685" lon="-3.867053">
        <ele>1465.567</ele>
        <time>2021-07-31T13:36:38Z</time>
      </trkpt>
      <trkpt lat="40.852707" lon="-3.867050">
        <ele>1465.437</ele>
        <time>2021-07-31T13:36:39Z</time>
      </trkpt>
      <trkpt lat="40.852730" lon="-3.867043">
        <ele>1465.335</ele>
        <time>2021-07-31T13:36:40Z</time>
      </trkpt>
      <trkpt lat="40.852752" lon="-3.867035">
        <ele>1465.352</ele>
        <time>2021-07-31T13:36:42Z</time>
      </trkpt>
      <trkpt lat="40.852774" lon="-3.867015">
        <ele>1465.553</ele>
        <time>2021-07-31T13:36:44Z</time>
      </trkpt>
      <trkpt lat="40.852794" lon="-3.867012">
        <ele>1465.408</ele>
        <time>2021-07-31T13:36:46Z</time>
      </trkpt>
      <trkpt lat="40.852822" lon="-3.866988">
        <ele>1465.608</ele>
        <time>2021-07-31T13:36:48Z</time>
      </trkpt>
      <trkpt lat="40.852845" lon="-3.866980">
        <ele>1465.592</ele>
        <time>2021-07-31T13:36:49Z</time>
      </trkpt>
      <trkpt lat="40.852874" lon="-3.866982">
        <ele>1465.294</ele>
        <time>2021-07-31T13:36:50Z</time>
      </trkpt>
      <trkpt lat="40.852893" lon="-3.866965">
        <ele>1465.311</ele>
        <time>2021-07-31T13:36:51Z</time>
      </trkpt>
      <trkpt lat="40.852928" lon="-3.866963">
        <ele>1465.058</ele>
        <time>2021-07-31T13:36:52Z</time>
      </trkpt>
      <trkpt lat="40.852944" lon="-3.866947">
        <ele>1465.210</ele>
        <time>2021-07-31T13:36:53Z</time>
      </trkpt>
      <trkpt lat="40.852925" lon="-3.866938">
        <ele>1465.577</ele>
        <time>2021-07-31T13:36:55Z</time>
      </trkpt>
      <trkpt lat="40.852934" lon="-3.866965">
        <ele>1464.967</ele>
        <time>2021-07-31T13:36:56Z</time>
      </trkpt>
      <trkpt lat="40.852963" lon="-3.866950">
        <ele>1464.995</ele>
        <time>2021-07-31T13:36:57Z</time>
      </trkpt>
      <trkpt lat="40.852979" lon="-3.866933">
        <ele>1465.132</ele>
        <time>2021-07-31T13:36:58Z</time>
      </trkpt>
      <trkpt lat="40.853021" lon="-3.866932">
        <ele>1464.692</ele>
        <time>2021-07-31T13:36:59Z</time>
      </trkpt>
      <trkpt lat="40.853053" lon="-3.866918">
        <ele>1464.511</ele>
        <time>2021-07-31T13:37:00Z</time>
      </trkpt>
      <trkpt lat="40.853062" lon="-3.866897">
        <ele>1464.808</ele>
        <time>2021-07-31T13:37:01Z</time>
      </trkpt>
      <trkpt lat="40.853059" lon="-3.866870">
        <ele>1465.370</ele>
        <time>2021-07-31T13:37:03Z</time>
      </trkpt>
      <trkpt lat="40.853043" lon="-3.866855">
        <ele>1465.862</ele>
        <time>2021-07-31T13:37:07Z</time>
      </trkpt>
      <trkpt lat="40.853024" lon="-3.866860">
        <ele>1465.919</ele>
        <time>2021-07-31T13:37:17Z</time>
      </trkpt>
      <trkpt lat="40.853046" lon="-3.866868">
        <ele>1465.516</ele>
        <time>2021-07-31T13:38:01Z</time>
      </trkpt>
      <trkpt lat="40.853066" lon="-3.866866">
        <ele>1465.338</ele>
        <time>2021-07-31T13:38:26Z</time>
      </trkpt>
      <trkpt lat="40.853078" lon="-3.866836">
        <ele>1465.725</ele>
        <time>2021-07-31T13:38:33Z</time>
      </trkpt>
      <trkpt lat="40.853107" lon="-3.866880">
        <ele>1464.625</ele>
        <time>2021-07-31T13:39:43Z</time>
      </trkpt>
      <trkpt lat="40.853133" lon="-3.866868">
        <ele>1464.543</ele>
        <time>2021-07-31T13:39:45Z</time>
      </trkpt>
      <trkpt lat="40.853158" lon="-3.866865">
        <ele>1464.399</ele>
        <time>2021-07-31T13:39:47Z</time>
      </trkpt>
      <trkpt lat="40.853181" lon="-3.866858">
        <ele>1464.207</ele>
        <time>2021-07-31T13:39:49Z</time>
      </trkpt>
      <trkpt lat="40.853219" lon="-3.866835">
        <ele>1464.227</ele>
        <time>2021-07-31T13:39:52Z</time>
      </trkpt>
      <trkpt lat="40.853238" lon="-3.866823">
        <ele>1464.208</ele>
        <time>2021-07-31T13:39:54Z</time>
      </trkpt>
      <trkpt lat="40.853264" lon="-3.866820">
        <ele>1464.096</ele>
        <time>2021-07-31T13:39:58Z</time>
      </trkpt>
      <trkpt lat="40.853283" lon="-3.866820">
        <ele>1463.878</ele>
        <time>2021-07-31T13:39:59Z</time>
      </trkpt>
      <trkpt lat="40.853309" lon="-3.866820">
        <ele>1463.515</ele>
        <time>2021-07-31T13:40:01Z</time>
      </trkpt>
      <trkpt lat="40.853338" lon="-3.866830">
        <ele>1463.062</ele>
        <time>2021-07-31T13:40:03Z</time>
      </trkpt>
      <trkpt lat="40.853366" lon="-3.866833">
        <ele>1462.724</ele>
        <time>2021-07-31T13:40:05Z</time>
      </trkpt>
      <trkpt lat="40.853386" lon="-3.866833">
        <ele>1462.531</ele>
        <time>2021-07-31T13:40:06Z</time>
      </trkpt>
      <trkpt lat="40.853411" lon="-3.866832">
        <ele>1462.281</ele>
        <time>2021-07-31T13:40:08Z</time>
      </trkpt>
      <trkpt lat="40.853440" lon="-3.866820">
        <ele>1462.199</ele>
        <time>2021-07-31T13:40:11Z</time>
      </trkpt>
      <trkpt lat="40.853466" lon="-3.866822">
        <ele>1461.841</ele>
        <time>2021-07-31T13:40:13Z</time>
      </trkpt>
      <trkpt lat="40.853498" lon="-3.866818">
        <ele>1461.681</ele>
        <time>2021-07-31T13:40:15Z</time>
      </trkpt>
      <trkpt lat="40.853523" lon="-3.866808">
        <ele>1461.409</ele>
        <time>2021-07-31T13:40:17Z</time>
      </trkpt>
      <trkpt lat="40.853549" lon="-3.866802">
        <ele>1461.208</ele>
        <time>2021-07-31T13:40:19Z</time>
      </trkpt>
      <trkpt lat="40.853568" lon="-3.866788">
        <ele>1461.231</ele>
        <time>2021-07-31T13:40:21Z</time>
      </trkpt>
      <trkpt lat="40.853597" lon="-3.866777">
        <ele>1461.043</ele>
        <time>2021-07-31T13:40:23Z</time>
      </trkpt>
      <trkpt lat="40.853616" lon="-3.866757">
        <ele>1461.040</ele>
        <time>2021-07-31T13:40:25Z</time>
      </trkpt>
      <trkpt lat="40.853642" lon="-3.866770">
        <ele>1460.747</ele>
        <time>2021-07-31T13:40:27Z</time>
      </trkpt>
      <trkpt lat="40.853661" lon="-3.866767">
        <ele>1460.679</ele>
        <time>2021-07-31T13:40:29Z</time>
      </trkpt>
      <trkpt lat="40.853683" lon="-3.866772">
        <ele>1460.476</ele>
        <time>2021-07-31T13:40:32Z</time>
      </trkpt>
      <trkpt lat="40.853702" lon="-3.866772">
        <ele>1460.396</ele>
        <time>2021-07-31T13:40:33Z</time>
      </trkpt>
      <trkpt lat="40.853725" lon="-3.866768">
        <ele>1460.274</ele>
        <time>2021-07-31T13:40:34Z</time>
      </trkpt>
      <trkpt lat="40.853757" lon="-3.866775">
        <ele>1460.028</ele>
        <time>2021-07-31T13:40:36Z</time>
      </trkpt>
      <trkpt lat="40.853779" lon="-3.866778">
        <ele>1459.889</ele>
        <time>2021-07-31T13:40:37Z</time>
      </trkpt>
      <trkpt lat="40.853805" lon="-3.866778">
        <ele>1459.717</ele>
        <time>2021-07-31T13:40:39Z</time>
      </trkpt>
      <trkpt lat="40.853837" lon="-3.866785">
        <ele>1459.408</ele>
        <time>2021-07-31T13:40:41Z</time>
      </trkpt>
      <trkpt lat="40.853856" lon="-3.866778">
        <ele>1459.469</ele>
        <time>2021-07-31T13:40:42Z</time>
      </trkpt>
      <trkpt lat="40.853878" lon="-3.866777">
        <ele>1459.311</ele>
        <time>2021-07-31T13:40:43Z</time>
      </trkpt>
      <trkpt lat="40.853914" lon="-3.866767">
        <ele>1459.168</ele>
        <time>2021-07-31T13:40:45Z</time>
      </trkpt>
      <trkpt lat="40.853933" lon="-3.866773">
        <ele>1459.025</ele>
        <time>2021-07-31T13:40:46Z</time>
      </trkpt>
      <trkpt lat="40.853965" lon="-3.866783">
        <ele>1458.867</ele>
        <time>2021-07-31T13:40:48Z</time>
      </trkpt>
      <trkpt lat="40.853984" lon="-3.866792">
        <ele>1458.774</ele>
        <time>2021-07-31T13:40:49Z</time>
      </trkpt>
      <trkpt lat="40.854013" lon="-3.866804">
        <ele>1458.574</ele>
        <time>2021-07-31T13:40:51Z</time>
      </trkpt>
      <trkpt lat="40.854035" lon="-3.866808">
        <ele>1458.512</ele>
        <time>2021-07-31T13:40:53Z</time>
      </trkpt>
      <trkpt lat="40.854058" lon="-3.866815">
        <ele>1458.478</ele>
        <time>2021-07-31T13:40:55Z</time>
      </trkpt>
      <trkpt lat="40.854077" lon="-3.866825">
        <ele>1458.533</ele>
        <time>2021-07-31T13:40:57Z</time>
      </trkpt>
      <trkpt lat="40.854106" lon="-3.866828">
        <ele>1458.426</ele>
        <time>2021-07-31T13:40:59Z</time>
      </trkpt>
      <trkpt lat="40.854134" lon="-3.866826">
        <ele>1458.408</ele>
        <time>2021-07-31T13:41:01Z</time>
      </trkpt>
      <trkpt lat="40.854154" lon="-3.866832">
        <ele>1458.434</ele>
        <time>2021-07-31T13:41:02Z</time>
      </trkpt>
      <trkpt lat="40.854173" lon="-3.866838">
        <ele>1458.466</ele>
        <time>2021-07-31T13:41:03Z</time>
      </trkpt>
      <trkpt lat="40.854195" lon="-3.866858">
        <ele>1458.253</ele>
        <time>2021-07-31T13:41:05Z</time>
      </trkpt>
      <trkpt lat="40.854224" lon="-3.866866">
        <ele>1457.860</ele>
        <time>2021-07-31T13:41:08Z</time>
      </trkpt>
      <trkpt lat="40.854250" lon="-3.866873">
        <ele>1457.572</ele>
        <time>2021-07-31T13:41:10Z</time>
      </trkpt>
      <trkpt lat="40.854262" lon="-3.866890">
        <ele>1457.549</ele>
        <time>2021-07-31T13:41:12Z</time>
      </trkpt>
      <trkpt lat="40.854278" lon="-3.866903">
        <ele>1457.439</ele>
        <time>2021-07-31T13:41:13Z</time>
      </trkpt>
      <trkpt lat="40.854294" lon="-3.866932">
        <ele>1457.577</ele>
        <time>2021-07-31T13:41:15Z</time>
      </trkpt>
      <trkpt lat="40.854330" lon="-3.866938">
        <ele>1457.035</ele>
        <time>2021-07-31T13:41:17Z</time>
      </trkpt>
      <trkpt lat="40.854342" lon="-3.866960">
        <ele>1456.986</ele>
        <time>2021-07-31T13:41:20Z</time>
      </trkpt>
      <trkpt lat="40.854365" lon="-3.866958">
        <ele>1456.514</ele>
        <time>2021-07-31T13:41:21Z</time>
      </trkpt>
      <trkpt lat="40.854384" lon="-3.866967">
        <ele>1456.108</ele>
        <time>2021-07-31T13:41:22Z</time>
      </trkpt>
      <trkpt lat="40.854403" lon="-3.866970">
        <ele>1455.810</ele>
        <time>2021-07-31T13:41:23Z</time>
      </trkpt>
      <trkpt lat="40.854432" lon="-3.866988">
        <ele>1455.462</ele>
        <time>2021-07-31T13:41:25Z</time>
      </trkpt>
      <trkpt lat="40.854461" lon="-3.867007">
        <ele>1455.039</ele>
        <time>2021-07-31T13:41:27Z</time>
      </trkpt>
      <trkpt lat="40.854474" lon="-3.867024">
        <ele>1454.986</ele>
        <time>2021-07-31T13:41:28Z</time>
      </trkpt>
      <trkpt lat="40.854490" lon="-3.867042">
        <ele>1454.748</ele>
        <time>2021-07-31T13:41:30Z</time>
      </trkpt>
      <trkpt lat="40.854518" lon="-3.867048">
        <ele>1454.345</ele>
        <time>2021-07-31T13:41:32Z</time>
      </trkpt>
      <trkpt lat="40.854541" lon="-3.867058">
        <ele>1454.095</ele>
        <time>2021-07-31T13:41:34Z</time>
      </trkpt>
      <trkpt lat="40.854563" lon="-3.867078">
        <ele>1453.843</ele>
        <time>2021-07-31T13:41:36Z</time>
      </trkpt>
      <trkpt lat="40.854589" lon="-3.867095">
        <ele>1453.575</ele>
        <time>2021-07-31T13:41:38Z</time>
      </trkpt>
      <trkpt lat="40.854608" lon="-3.867105">
        <ele>1453.228</ele>
        <time>2021-07-31T13:41:40Z</time>
      </trkpt>
      <trkpt lat="40.854640" lon="-3.867113">
        <ele>1452.820</ele>
        <time>2021-07-31T13:41:42Z</time>
      </trkpt>
      <trkpt lat="40.854662" lon="-3.867140">
        <ele>1452.608</ele>
        <time>2021-07-31T13:41:44Z</time>
      </trkpt>
      <trkpt lat="40.854675" lon="-3.867164">
        <ele>1452.554</ele>
        <time>2021-07-31T13:41:46Z</time>
      </trkpt>
      <trkpt lat="40.854691" lon="-3.867198">
        <ele>1452.486</ele>
        <time>2021-07-31T13:41:48Z</time>
      </trkpt>
      <trkpt lat="40.854714" lon="-3.867232">
        <ele>1452.153</ele>
        <time>2021-07-31T13:41:50Z</time>
      </trkpt>
      <trkpt lat="40.854730" lon="-3.867253">
        <ele>1451.860</ele>
        <time>2021-07-31T13:41:51Z</time>
      </trkpt>
      <trkpt lat="40.854739" lon="-3.867280">
        <ele>1451.632</ele>
        <time>2021-07-31T13:41:52Z</time>
      </trkpt>
      <trkpt lat="40.854749" lon="-3.867302">
        <ele>1451.479</ele>
        <time>2021-07-31T13:41:53Z</time>
      </trkpt>
      <trkpt lat="40.854755" lon="-3.867325">
        <ele>1451.319</ele>
        <time>2021-07-31T13:41:54Z</time>
      </trkpt>
      <trkpt lat="40.854755" lon="-3.867350">
        <ele>1451.277</ele>
        <time>2021-07-31T13:41:56Z</time>
      </trkpt>
      <trkpt lat="40.854778" lon="-3.867370">
        <ele>1451.026</ele>
        <time>2021-07-31T13:41:59Z</time>
      </trkpt>
      <trkpt lat="40.854790" lon="-3.867390">
        <ele>1450.947</ele>
        <time>2021-07-31T13:42:00Z</time>
      </trkpt>
      <trkpt lat="40.854790" lon="-3.867417">
        <ele>1450.811</ele>
        <time>2021-07-31T13:42:01Z</time>
      </trkpt>
      <trkpt lat="40.854800" lon="-3.867455">
        <ele>1450.708</ele>
        <time>2021-07-31T13:42:03Z</time>
      </trkpt>
      <trkpt lat="40.854806" lon="-3.867482">
        <ele>1450.799</ele>
        <time>2021-07-31T13:42:04Z</time>
      </trkpt>
      <trkpt lat="40.854810" lon="-3.867505">
        <ele>1450.731</ele>
        <time>2021-07-31T13:42:07Z</time>
      </trkpt>
      <trkpt lat="40.854816" lon="-3.867528">
        <ele>1450.568</ele>
        <time>2021-07-31T13:42:09Z</time>
      </trkpt>
      <trkpt lat="40.854816" lon="-3.867563">
        <ele>1450.385</ele>
        <time>2021-07-31T13:42:11Z</time>
      </trkpt>
      <trkpt lat="40.854816" lon="-3.867595">
        <ele>1450.177</ele>
        <time>2021-07-31T13:42:13Z</time>
      </trkpt>
      <trkpt lat="40.854800" lon="-3.867618">
        <ele>1450.144</ele>
        <time>2021-07-31T13:42:16Z</time>
      </trkpt>
      <trkpt lat="40.854790" lon="-3.867642">
        <ele>1450.094</ele>
        <time>2021-07-31T13:42:18Z</time>
      </trkpt>
      <trkpt lat="40.854771" lon="-3.867672">
        <ele>1450.022</ele>
        <time>2021-07-31T13:42:20Z</time>
      </trkpt>
      <trkpt lat="40.854749" lon="-3.867695">
        <ele>1450.151</ele>
        <time>2021-07-31T13:42:22Z</time>
      </trkpt>
      <trkpt lat="40.854733" lon="-3.867708">
        <ele>1450.201</ele>
        <time>2021-07-31T13:42:24Z</time>
      </trkpt>
      <trkpt lat="40.854714" lon="-3.867722">
        <ele>1450.211</ele>
        <time>2021-07-31T13:42:26Z</time>
      </trkpt>
      <trkpt lat="40.854688" lon="-3.867736">
        <ele>1450.308</ele>
        <time>2021-07-31T13:42:28Z</time>
      </trkpt>
      <trkpt lat="40.854672" lon="-3.867748">
        <ele>1450.372</ele>
        <time>2021-07-31T13:42:29Z</time>
      </trkpt>
      <trkpt lat="40.854653" lon="-3.867770">
        <ele>1450.364</ele>
        <time>2021-07-31T13:42:31Z</time>
      </trkpt>
      <trkpt lat="40.854630" lon="-3.867788">
        <ele>1450.241</ele>
        <time>2021-07-31T13:42:33Z</time>
      </trkpt>
      <trkpt lat="40.854614" lon="-3.867805">
        <ele>1449.958</ele>
        <time>2021-07-31T13:42:35Z</time>
      </trkpt>
      <trkpt lat="40.854598" lon="-3.867828">
        <ele>1449.640</ele>
        <time>2021-07-31T13:42:37Z</time>
      </trkpt>
      <trkpt lat="40.854582" lon="-3.867842">
        <ele>1449.527</ele>
        <time>2021-07-31T13:42:38Z</time>
      </trkpt>
      <trkpt lat="40.854554" lon="-3.867862">
        <ele>1449.377</ele>
        <time>2021-07-31T13:42:40Z</time>
      </trkpt>
      <trkpt lat="40.854528" lon="-3.867872">
        <ele>1449.275</ele>
        <time>2021-07-31T13:42:42Z</time>
      </trkpt>
      <trkpt lat="40.854509" lon="-3.867885">
        <ele>1449.137</ele>
        <time>2021-07-31T13:42:44Z</time>
      </trkpt>
      <trkpt lat="40.854483" lon="-3.867910">
        <ele>1448.949</ele>
        <time>2021-07-31T13:42:47Z</time>
      </trkpt>
      <trkpt lat="40.854461" lon="-3.867920">
        <ele>1448.913</ele>
        <time>2021-07-31T13:42:50Z</time>
      </trkpt>
      <trkpt lat="40.854429" lon="-3.867938">
        <ele>1448.608</ele>
        <time>2021-07-31T13:42:53Z</time>
      </trkpt>
      <trkpt lat="40.854400" lon="-3.867957">
        <ele>1448.230</ele>
        <time>2021-07-31T13:42:55Z</time>
      </trkpt>
      <trkpt lat="40.854365" lon="-3.867957">
        <ele>1447.972</ele>
        <time>2021-07-31T13:42:57Z</time>
      </trkpt>
      <trkpt lat="40.854349" lon="-3.867945">
        <ele>1448.099</ele>
        <time>2021-07-31T13:42:59Z</time>
      </trkpt>
      <trkpt lat="40.854317" lon="-3.867937">
        <ele>1448.066</ele>
        <time>2021-07-31T13:43:05Z</time>
      </trkpt>
      <trkpt lat="40.854285" lon="-3.867940">
        <ele>1447.858</ele>
        <time>2021-07-31T13:43:07Z</time>
      </trkpt>
      <trkpt lat="40.854259" lon="-3.867953">
        <ele>1447.485</ele>
        <time>2021-07-31T13:43:08Z</time>
      </trkpt>
      <trkpt lat="40.854237" lon="-3.867967">
        <ele>1447.055</ele>
        <time>2021-07-31T13:43:09Z</time>
      </trkpt>
      <trkpt lat="40.854218" lon="-3.867978">
        <ele>1446.723</ele>
        <time>2021-07-31T13:43:10Z</time>
      </trkpt>
      <trkpt lat="40.854195" lon="-3.867982">
        <ele>1446.511</ele>
        <time>2021-07-31T13:43:12Z</time>
      </trkpt>
      <trkpt lat="40.854166" lon="-3.867972">
        <ele>1446.521</ele>
        <time>2021-07-31T13:43:14Z</time>
      </trkpt>
      <trkpt lat="40.854131" lon="-3.867973">
        <ele>1446.003</ele>
        <time>2021-07-31T13:43:16Z</time>
      </trkpt>
      <trkpt lat="40.854102" lon="-3.867970">
        <ele>1445.608</ele>
        <time>2021-07-31T13:43:18Z</time>
      </trkpt>
      <trkpt lat="40.854080" lon="-3.867980">
        <ele>1445.198</ele>
        <time>2021-07-31T13:43:20Z</time>
      </trkpt>
      <trkpt lat="40.854058" lon="-3.867973">
        <ele>1444.960</ele>
        <time>2021-07-31T13:43:22Z</time>
      </trkpt>
      <trkpt lat="40.854032" lon="-3.867967">
        <ele>1444.767</ele>
        <time>2021-07-31T13:43:24Z</time>
      </trkpt>
      <trkpt lat="40.854003" lon="-3.867968">
        <ele>1444.244</ele>
        <time>2021-07-31T13:43:26Z</time>
      </trkpt>
      <trkpt lat="40.853981" lon="-3.867963">
        <ele>1444.046</ele>
        <time>2021-07-31T13:43:30Z</time>
      </trkpt>
      <trkpt lat="40.853962" lon="-3.867957">
        <ele>1443.833</ele>
        <time>2021-07-31T13:43:32Z</time>
      </trkpt>
      <trkpt lat="40.853936" lon="-3.867960">
        <ele>1443.433</ele>
        <time>2021-07-31T13:43:34Z</time>
      </trkpt>
      <trkpt lat="40.853917" lon="-3.867962">
        <ele>1443.131</ele>
        <time>2021-07-31T13:43:36Z</time>
      </trkpt>
      <trkpt lat="40.853885" lon="-3.867950">
        <ele>1442.849</ele>
        <time>2021-07-31T13:43:38Z</time>
      </trkpt>
      <trkpt lat="40.853862" lon="-3.867948">
        <ele>1442.402</ele>
        <time>2021-07-31T13:43:40Z</time>
      </trkpt>
      <trkpt lat="40.853843" lon="-3.867938">
        <ele>1442.222</ele>
        <time>2021-07-31T13:43:43Z</time>
      </trkpt>
      <trkpt lat="40.853818" lon="-3.867933">
        <ele>1441.808</ele>
        <time>2021-07-31T13:43:45Z</time>
      </trkpt>
      <trkpt lat="40.853786" lon="-3.867930">
        <ele>1441.251</ele>
        <time>2021-07-31T13:43:47Z</time>
      </trkpt>
      <trkpt lat="40.853741" lon="-3.867942">
        <ele>1440.053</ele>
        <time>2021-07-31T13:43:49Z</time>
      </trkpt>
      <trkpt lat="40.853722" lon="-3.867942">
        <ele>1439.630</ele>
        <time>2021-07-31T13:43:50Z</time>
      </trkpt>
      <trkpt lat="40.853709" lon="-3.867912">
        <ele>1440.157</ele>
        <time>2021-07-31T13:43:52Z</time>
      </trkpt>
      <trkpt lat="40.853718" lon="-3.867882">
        <ele>1441.099</ele>
        <time>2021-07-31T13:43:54Z</time>
      </trkpt>
      <trkpt lat="40.853699" lon="-3.867867">
        <ele>1441.046</ele>
        <time>2021-07-31T13:43:57Z</time>
      </trkpt>
      <trkpt lat="40.853680" lon="-3.867857">
        <ele>1440.916</ele>
        <time>2021-07-31T13:44:00Z</time>
      </trkpt>
      <trkpt lat="40.853658" lon="-3.867843">
        <ele>1440.984</ele>
        <time>2021-07-31T13:44:02Z</time>
      </trkpt>
      <trkpt lat="40.853642" lon="-3.867832">
        <ele>1440.962</ele>
        <time>2021-07-31T13:44:04Z</time>
      </trkpt>
      <trkpt lat="40.853610" lon="-3.867827">
        <ele>1440.683</ele>
        <time>2021-07-31T13:44:06Z</time>
      </trkpt>
      <trkpt lat="40.853590" lon="-3.867808">
        <ele>1440.811</ele>
        <time>2021-07-31T13:44:08Z</time>
      </trkpt>
      <trkpt lat="40.853568" lon="-3.867802">
        <ele>1440.608</ele>
        <time>2021-07-31T13:44:11Z</time>
      </trkpt>
      <trkpt lat="40.853539" lon="-3.867788">
        <ele>1440.693</ele>
        <time>2021-07-31T13:44:13Z</time>
      </trkpt>
      <trkpt lat="40.853520" lon="-3.867788">
        <ele>1440.485</ele>
        <time>2021-07-31T13:44:15Z</time>
      </trkpt>
      <trkpt lat="40.853485" lon="-3.867805">
        <ele>1439.312</ele>
        <time>2021-07-31T13:44:17Z</time>
      </trkpt>
      <trkpt lat="40.853466" lon="-3.867803">
        <ele>1439.039</ele>
        <time>2021-07-31T13:44:20Z</time>
      </trkpt>
      <trkpt lat="40.853469" lon="-3.867827">
        <ele>1438.361</ele>
        <time>2021-07-31T13:44:21Z</time>
      </trkpt>
      <trkpt lat="40.853478" lon="-3.867850">
        <ele>1437.678</ele>
        <time>2021-07-31T13:44:31Z</time>
      </trkpt>
      <trkpt lat="40.853462" lon="-3.867864">
        <ele>1436.948</ele>
        <time>2021-07-31T13:44:41Z</time>
      </trkpt>
      <trkpt lat="40.853443" lon="-3.867872">
        <ele>1436.276</ele>
        <time>2021-07-31T13:44:43Z</time>
      </trkpt>
      <trkpt lat="40.853437" lon="-3.867898">
        <ele>1435.213</ele>
        <time>2021-07-31T13:44:46Z</time>
      </trkpt>
      <trkpt lat="40.853421" lon="-3.867922">
        <ele>1434.043</ele>
        <time>2021-07-31T13:44:48Z</time>
      </trkpt>
      <trkpt lat="40.853418" lon="-3.867960">
        <ele>1432.607</ele>
        <time>2021-07-31T13:44:51Z</time>
      </trkpt>
      <trkpt lat="40.853408" lon="-3.867988">
        <ele>1431.408</ele>
        <time>2021-07-31T13:44:53Z</time>
      </trkpt>
      <trkpt lat="40.853405" lon="-3.868020">
        <ele>1430.118</ele>
        <time>2021-07-31T13:44:56Z</time>
      </trkpt>
      <trkpt lat="40.853405" lon="-3.868048">
        <ele>1429.160</ele>
        <time>2021-07-31T13:44:58Z</time>
      </trkpt>
      <trkpt lat="40.853398" lon="-3.868074">
        <ele>1428.267</ele>
        <time>2021-07-31T13:45:01Z</time>
      </trkpt>
      <trkpt lat="40.853370" lon="-3.868093">
        <ele>1427.074</ele>
        <time>2021-07-31T13:45:03Z</time>
      </trkpt>
      <trkpt lat="40.853350" lon="-3.868105">
        <ele>1426.266</ele>
        <time>2021-07-31T13:45:05Z</time>
      </trkpt>
      <trkpt lat="40.853363" lon="-3.868137">
        <ele>1425.753</ele>
        <time>2021-07-31T13:45:07Z</time>
      </trkpt>
      <trkpt lat="40.853366" lon="-3.868172">
        <ele>1424.983</ele>
        <time>2021-07-31T13:45:10Z</time>
      </trkpt>
      <trkpt lat="40.853360" lon="-3.868210">
        <ele>1423.871</ele>
        <time>2021-07-31T13:45:12Z</time>
      </trkpt>
      <trkpt lat="40.853347" lon="-3.868228">
        <ele>1423.043</ele>
        <time>2021-07-31T13:45:15Z</time>
      </trkpt>
      <trkpt lat="40.853347" lon="-3.868265">
        <ele>1422.164</ele>
        <time>2021-07-31T13:45:17Z</time>
      </trkpt>
      <trkpt lat="40.853350" lon="-3.868292">
        <ele>1421.510</ele>
        <time>2021-07-31T13:45:19Z</time>
      </trkpt>
      <trkpt lat="40.853341" lon="-3.868318">
        <ele>1420.608</ele>
        <time>2021-07-31T13:45:21Z</time>
      </trkpt>
      <trkpt lat="40.853325" lon="-3.868337">
        <ele>1420.031</ele>
        <time>2021-07-31T13:45:24Z</time>
      </trkpt>
      <trkpt lat="40.853306" lon="-3.868355">
        <ele>1419.713</ele>
        <time>2021-07-31T13:45:27Z</time>
      </trkpt>
      <trkpt lat="40.853286" lon="-3.868363">
        <ele>1419.740</ele>
        <time>2021-07-31T13:45:29Z</time>
      </trkpt>
      <trkpt lat="40.853270" lon="-3.868375">
        <ele>1419.577</ele>
        <time>2021-07-31T13:45:32Z</time>
      </trkpt>
      <trkpt lat="40.853264" lon="-3.868407">
        <ele>1418.879</ele>
        <time>2021-07-31T13:45:34Z</time>
      </trkpt>
      <trkpt lat="40.853270" lon="-3.868440">
        <ele>1418.136</ele>
        <time>2021-07-31T13:45:37Z</time>
      </trkpt>
      <trkpt lat="40.853261" lon="-3.868465">
        <ele>1417.636</ele>
        <time>2021-07-31T13:45:40Z</time>
      </trkpt>
      <trkpt lat="40.853232" lon="-3.868480">
        <ele>1417.484</ele>
        <time>2021-07-31T13:45:43Z</time>
      </trkpt>
      <trkpt lat="40.853245" lon="-3.868510">
        <ele>1416.632</ele>
        <time>2021-07-31T13:45:45Z</time>
      </trkpt>
      <trkpt lat="40.853248" lon="-3.868548">
        <ele>1415.792</ele>
        <time>2021-07-31T13:45:47Z</time>
      </trkpt>
      <trkpt lat="40.853238" lon="-3.868576">
        <ele>1415.111</ele>
        <time>2021-07-31T13:45:49Z</time>
      </trkpt>
      <trkpt lat="40.853219" lon="-3.868590">
        <ele>1414.908</ele>
        <time>2021-07-31T13:45:52Z</time>
      </trkpt>
      <trkpt lat="40.853206" lon="-3.868610">
        <ele>1414.550</ele>
        <time>2021-07-31T13:45:54Z</time>
      </trkpt>
      <trkpt lat="40.853210" lon="-3.868635">
        <ele>1414.092</ele>
        <time>2021-07-31T13:45:55Z</time>
      </trkpt>
      <trkpt lat="40.853219" lon="-3.868668">
        <ele>1413.319</ele>
        <time>2021-07-31T13:45:56Z</time>
      </trkpt>
      <trkpt lat="40.853203" lon="-3.868705">
        <ele>1412.656</ele>
        <time>2021-07-31T13:45:58Z</time>
      </trkpt>
      <trkpt lat="40.853194" lon="-3.868744">
        <ele>1411.968</ele>
        <time>2021-07-31T13:46:00Z</time>
      </trkpt>
      <trkpt lat="40.853190" lon="-3.868778">
        <ele>1411.265</ele>
        <time>2021-07-31T13:46:03Z</time>
      </trkpt>
      <trkpt lat="40.853168" lon="-3.868787">
        <ele>1411.135</ele>
        <time>2021-07-31T13:46:05Z</time>
      </trkpt>
      <trkpt lat="40.853146" lon="-3.868790">
        <ele>1411.033</ele>
        <time>2021-07-31T13:46:08Z</time>
      </trkpt>
      <trkpt lat="40.853107" lon="-3.868805">
        <ele>1410.896</ele>
        <time>2021-07-31T13:46:10Z</time>
      </trkpt>
      <trkpt lat="40.853088" lon="-3.868815">
        <ele>1410.631</ele>
        <time>2021-07-31T13:46:14Z</time>
      </trkpt>
      <trkpt lat="40.853072" lon="-3.868830">
        <ele>1410.324</ele>
        <time>2021-07-31T13:46:16Z</time>
      </trkpt>
      <trkpt lat="40.853062" lon="-3.868857">
        <ele>1409.708</ele>
        <time>2021-07-31T13:46:19Z</time>
      </trkpt>
      <trkpt lat="40.853050" lon="-3.868880">
        <ele>1409.316</ele>
        <time>2021-07-31T13:46:22Z</time>
      </trkpt>
      <trkpt lat="40.853034" lon="-3.868892">
        <ele>1409.388</ele>
        <time>2021-07-31T13:46:26Z</time>
      </trkpt>
      <trkpt lat="40.853027" lon="-3.868923">
        <ele>1408.955</ele>
        <time>2021-07-31T13:46:30Z</time>
      </trkpt>
      <trkpt lat="40.853043" lon="-3.868968">
        <ele>1408.022</ele>
        <time>2021-07-31T13:46:32Z</time>
      </trkpt>
      <trkpt lat="40.853062" lon="-3.869010">
        <ele>1407.314</ele>
        <time>2021-07-31T13:46:34Z</time>
      </trkpt>
      <trkpt lat="40.853066" lon="-3.869043">
        <ele>1406.861</ele>
        <time>2021-07-31T13:46:37Z</time>
      </trkpt>
      <trkpt lat="40.853062" lon="-3.869082">
        <ele>1406.211</ele>
        <time>2021-07-31T13:46:39Z</time>
      </trkpt>
      <trkpt lat="40.853069" lon="-3.869112">
        <ele>1405.859</ele>
        <time>2021-07-31T13:46:42Z</time>
      </trkpt>
      <trkpt lat="40.853069" lon="-3.869137">
        <ele>1405.424</ele>
        <time>2021-07-31T13:46:46Z</time>
      </trkpt>
      <trkpt lat="40.853050" lon="-3.869163">
        <ele>1405.104</ele>
        <time>2021-07-31T13:46:48Z</time>
      </trkpt>
      <trkpt lat="40.853053" lon="-3.869193">
        <ele>1404.514</ele>
        <time>2021-07-31T13:46:49Z</time>
      </trkpt>
      <trkpt lat="40.853046" lon="-3.869230">
        <ele>1403.908</ele>
        <time>2021-07-31T13:46:51Z</time>
      </trkpt>
      <trkpt lat="40.853046" lon="-3.869260">
        <ele>1403.419</ele>
        <time>2021-07-31T13:46:54Z</time>
      </trkpt>
      <trkpt lat="40.853027" lon="-3.869276">
        <ele>1403.241</ele>
        <time>2021-07-31T13:46:58Z</time>
      </trkpt>
      <trkpt lat="40.853021" lon="-3.869305">
        <ele>1402.878</ele>
        <time>2021-07-31T13:47:00Z</time>
      </trkpt>
      <trkpt lat="40.853002" lon="-3.869325">
        <ele>1402.565</ele>
        <time>2021-07-31T13:47:06Z</time>
      </trkpt>
      <trkpt lat="40.852998" lon="-3.869350">
        <ele>1402.137</ele>
        <time>2021-07-31T13:47:09Z</time>
      </trkpt>
      <trkpt lat="40.852998" lon="-3.869388">
        <ele>1401.464</ele>
        <time>2021-07-31T13:47:11Z</time>
      </trkpt>
      <trkpt lat="40.853005" lon="-3.869432">
        <ele>1400.664</ele>
        <time>2021-07-31T13:47:13Z</time>
      </trkpt>
      <trkpt lat="40.853021" lon="-3.869454">
        <ele>1399.952</ele>
        <time>2021-07-31T13:47:14Z</time>
      </trkpt>
      <trkpt lat="40.853027" lon="-3.869480">
        <ele>1399.037</ele>
        <time>2021-07-31T13:47:16Z</time>
      </trkpt>
      <trkpt lat="40.853014" lon="-3.869510">
        <ele>1398.249</ele>
        <time>2021-07-31T13:47:22Z</time>
      </trkpt>
      <trkpt lat="40.853043" lon="-3.869538">
        <ele>1396.813</ele>
        <time>2021-07-31T13:47:26Z</time>
      </trkpt>
      <trkpt lat="40.853059" lon="-3.869520">
        <ele>1397.308</ele>
        <time>2021-07-31T13:47:35Z</time>
      </trkpt>
      <trkpt lat="40.853072" lon="-3.869538">
        <ele>1396.870</ele>
        <time>2021-07-31T13:47:47Z</time>
      </trkpt>
      <trkpt lat="40.853088" lon="-3.869557">
        <ele>1396.482</ele>
        <time>2021-07-31T13:47:48Z</time>
      </trkpt>
      <trkpt lat="40.853101" lon="-3.869577">
        <ele>1395.949</ele>
        <time>2021-07-31T13:47:49Z</time>
      </trkpt>
      <trkpt lat="40.853120" lon="-3.869605">
        <ele>1395.496</ele>
        <time>2021-07-31T13:47:51Z</time>
      </trkpt>
      <trkpt lat="40.853139" lon="-3.869636">
        <ele>1394.718</ele>
        <time>2021-07-31T13:47:54Z</time>
      </trkpt>
      <trkpt lat="40.853152" lon="-3.869666">
        <ele>1394.175</ele>
        <time>2021-07-31T13:48:09Z</time>
      </trkpt>
      <trkpt lat="40.853168" lon="-3.869695">
        <ele>1393.625</ele>
        <time>2021-07-31T13:48:11Z</time>
      </trkpt>
      <trkpt lat="40.853184" lon="-3.869730">
        <ele>1393.163</ele>
        <time>2021-07-31T13:48:13Z</time>
      </trkpt>
      <trkpt lat="40.853200" lon="-3.869748">
        <ele>1393.128</ele>
        <time>2021-07-31T13:48:14Z</time>
      </trkpt>
      <trkpt lat="40.853222" lon="-3.869782">
        <ele>1392.989</ele>
        <time>2021-07-31T13:48:16Z</time>
      </trkpt>
      <trkpt lat="40.853238" lon="-3.869812">
        <ele>1392.617</ele>
        <time>2021-07-31T13:48:18Z</time>
      </trkpt>
      <trkpt lat="40.853258" lon="-3.869838">
        <ele>1392.308</ele>
        <time>2021-07-31T13:48:20Z</time>
      </trkpt>
      <trkpt lat="40.853270" lon="-3.869860">
        <ele>1392.099</ele>
        <time>2021-07-31T13:48:22Z</time>
      </trkpt>
      <trkpt lat="40.853290" lon="-3.869877">
        <ele>1391.921</ele>
        <time>2021-07-31T13:48:24Z</time>
      </trkpt>
      <trkpt lat="40.853312" lon="-3.869893">
        <ele>1391.888</ele>
        <time>2021-07-31T13:48:26Z</time>
      </trkpt>
      <trkpt lat="40.853328" lon="-3.869910">
        <ele>1391.575</ele>
        <time>2021-07-31T13:48:28Z</time>
      </trkpt>
      <trkpt lat="40.853344" lon="-3.869933">
        <ele>1391.147</ele>
        <time>2021-07-31T13:48:30Z</time>
      </trkpt>
      <trkpt lat="40.853363" lon="-3.869957">
        <ele>1390.874</ele>
        <time>2021-07-31T13:48:32Z</time>
      </trkpt>
      <trkpt lat="40.853376" lon="-3.869980">
        <ele>1390.534</ele>
        <time>2021-07-31T13:48:34Z</time>
      </trkpt>
      <trkpt lat="40.853392" lon="-3.869998">
        <ele>1390.392</ele>
        <time>2021-07-31T13:48:36Z</time>
      </trkpt>
      <trkpt lat="40.853418" lon="-3.870018">
        <ele>1390.412</ele>
        <time>2021-07-31T13:48:38Z</time>
      </trkpt>
      <trkpt lat="40.853443" lon="-3.870050">
        <ele>1390.032</ele>
        <time>2021-07-31T13:48:40Z</time>
      </trkpt>
      <trkpt lat="40.853466" lon="-3.870067">
        <ele>1390.105</ele>
        <time>2021-07-31T13:48:42Z</time>
      </trkpt>
      <trkpt lat="40.853482" lon="-3.870083">
        <ele>1390.008</ele>
        <time>2021-07-31T13:48:44Z</time>
      </trkpt>
      <trkpt lat="40.853507" lon="-3.870105">
        <ele>1389.998</ele>
        <time>2021-07-31T13:48:46Z</time>
      </trkpt>
      <trkpt lat="40.853526" lon="-3.870133">
        <ele>1389.510</ele>
        <time>2021-07-31T13:48:48Z</time>
      </trkpt>
      <trkpt lat="40.853539" lon="-3.870150">
        <ele>1389.317</ele>
        <time>2021-07-31T13:48:49Z</time>
      </trkpt>
      <trkpt lat="40.853555" lon="-3.870162">
        <ele>1389.274</ele>
        <time>2021-07-31T13:48:50Z</time>
      </trkpt>
      <trkpt lat="40.853578" lon="-3.870177">
        <ele>1389.366</ele>
        <time>2021-07-31T13:48:52Z</time>
      </trkpt>
      <trkpt lat="40.853603" lon="-3.870188">
        <ele>1389.443</ele>
        <time>2021-07-31T13:48:54Z</time>
      </trkpt>
      <trkpt lat="40.853638" lon="-3.870206">
        <ele>1389.373</ele>
        <time>2021-07-31T13:48:56Z</time>
      </trkpt>
      <trkpt lat="40.853661" lon="-3.870210">
        <ele>1389.421</ele>
        <time>2021-07-31T13:48:58Z</time>
      </trkpt>
      <trkpt lat="40.853680" lon="-3.870233">
        <ele>1389.093</ele>
        <time>2021-07-31T13:49:00Z</time>
      </trkpt>
      <trkpt lat="40.853699" lon="-3.870257">
        <ele>1388.565</ele>
        <time>2021-07-31T13:49:02Z</time>
      </trkpt>
      <trkpt lat="40.853709" lon="-3.870278">
        <ele>1388.121</ele>
        <time>2021-07-31T13:49:03Z</time>
      </trkpt>
      <trkpt lat="40.853738" lon="-3.870295">
        <ele>1387.908</ele>
        <time>2021-07-31T13:49:05Z</time>
      </trkpt>
      <trkpt lat="40.853754" lon="-3.870307">
        <ele>1387.856</ele>
        <time>2021-07-31T13:49:06Z</time>
      </trkpt>
      <trkpt lat="40.853773" lon="-3.870320">
        <ele>1387.788</ele>
        <time>2021-07-31T13:49:08Z</time>
      </trkpt>
      <trkpt lat="40.853789" lon="-3.870340">
        <ele>1387.435</ele>
        <time>2021-07-31T13:49:12Z</time>
      </trkpt>
      <trkpt lat="40.853808" lon="-3.870350">
        <ele>1387.332</ele>
        <time>2021-07-31T13:49:14Z</time>
      </trkpt>
      <trkpt lat="40.853827" lon="-3.870366">
        <ele>1387.114</ele>
        <time>2021-07-31T13:49:16Z</time>
      </trkpt>
      <trkpt lat="40.853846" lon="-3.870387">
        <ele>1386.891</ele>
        <time>2021-07-31T13:49:18Z</time>
      </trkpt>
      <trkpt lat="40.853869" lon="-3.870395">
        <ele>1386.821</ele>
        <time>2021-07-31T13:49:19Z</time>
      </trkpt>
      <trkpt lat="40.853888" lon="-3.870397">
        <ele>1387.059</ele>
        <time>2021-07-31T13:49:20Z</time>
      </trkpt>
      <trkpt lat="40.853907" lon="-3.870402">
        <ele>1387.091</ele>
        <time>2021-07-31T13:49:21Z</time>
      </trkpt>
      <trkpt lat="40.853942" lon="-3.870403">
        <ele>1387.181</ele>
        <time>2021-07-31T13:49:23Z</time>
      </trkpt>
      <trkpt lat="40.853965" lon="-3.870413">
        <ele>1387.019</ele>
        <time>2021-07-31T13:49:25Z</time>
      </trkpt>
      <trkpt lat="40.853987" lon="-3.870412">
        <ele>1387.108</ele>
        <time>2021-07-31T13:49:27Z</time>
      </trkpt>
      <trkpt lat="40.854000" lon="-3.870430">
        <ele>1386.896</ele>
        <time>2021-07-31T13:49:28Z</time>
      </trkpt>
      <trkpt lat="40.854026" lon="-3.870443">
        <ele>1386.798</ele>
        <time>2021-07-31T13:49:30Z</time>
      </trkpt>
      <trkpt lat="40.854054" lon="-3.870450">
        <ele>1386.825</ele>
        <time>2021-07-31T13:49:32Z</time>
      </trkpt>
      <trkpt lat="40.854080" lon="-3.870458">
        <ele>1386.872</ele>
        <time>2021-07-31T13:49:34Z</time>
      </trkpt>
      <trkpt lat="40.854099" lon="-3.870470">
        <ele>1386.754</ele>
        <time>2021-07-31T13:49:36Z</time>
      </trkpt>
      <trkpt lat="40.854131" lon="-3.870467">
        <ele>1387.031</ele>
        <time>2021-07-31T13:49:38Z</time>
      </trkpt>
      <trkpt lat="40.854154" lon="-3.870485">
        <ele>1386.991</ele>
        <time>2021-07-31T13:49:41Z</time>
      </trkpt>
      <trkpt lat="40.854173" lon="-3.870498">
        <ele>1386.839</ele>
        <time>2021-07-31T13:49:43Z</time>
      </trkpt>
      <trkpt lat="40.854192" lon="-3.870504">
        <ele>1386.824</ele>
        <time>2021-07-31T13:49:45Z</time>
      </trkpt>
      <trkpt lat="40.854211" lon="-3.870510">
        <ele>1386.704</ele>
        <time>2021-07-31T13:49:47Z</time>
      </trkpt>
      <trkpt lat="40.854237" lon="-3.870527">
        <ele>1386.514</ele>
        <time>2021-07-31T13:49:49Z</time>
      </trkpt>
      <trkpt lat="40.854256" lon="-3.870525">
        <ele>1386.508</ele>
        <time>2021-07-31T13:49:50Z</time>
      </trkpt>
      <trkpt lat="40.854282" lon="-3.870517">
        <ele>1386.759</ele>
        <time>2021-07-31T13:49:52Z</time>
      </trkpt>
      <trkpt lat="40.854301" lon="-3.870495">
        <ele>1387.131</ele>
        <time>2021-07-31T13:49:55Z</time>
      </trkpt>
      <trkpt lat="40.854330" lon="-3.870508">
        <ele>1386.958</ele>
        <time>2021-07-31T13:49:57Z</time>
      </trkpt>
      <trkpt lat="40.854349" lon="-3.870508">
        <ele>1386.995</ele>
        <time>2021-07-31T13:49:58Z</time>
      </trkpt>
      <trkpt lat="40.854390" lon="-3.870514">
        <ele>1386.837</ele>
        <time>2021-07-31T13:50:00Z</time>
      </trkpt>
      <trkpt lat="40.854416" lon="-3.870514">
        <ele>1386.924</ele>
        <time>2021-07-31T13:50:01Z</time>
      </trkpt>
      <trkpt lat="40.854435" lon="-3.870522">
        <ele>1386.714</ele>
        <time>2021-07-31T13:50:02Z</time>
      </trkpt>
      <trkpt lat="40.854470" lon="-3.870530">
        <ele>1387.082</ele>
        <time>2021-07-31T13:50:04Z</time>
      </trkpt>
      <trkpt lat="40.854493" lon="-3.870545">
        <ele>1387.193</ele>
        <time>2021-07-31T13:50:06Z</time>
      </trkpt>
      <trkpt lat="40.854509" lon="-3.870570">
        <ele>1386.965</ele>
        <time>2021-07-31T13:50:09Z</time>
      </trkpt>
      <trkpt lat="40.854528" lon="-3.870577">
        <ele>1387.121</ele>
        <time>2021-07-31T13:50:11Z</time>
      </trkpt>
      <trkpt lat="40.854550" lon="-3.870585">
        <ele>1387.408</ele>
        <time>2021-07-31T13:50:13Z</time>
      </trkpt>
      <trkpt lat="40.854576" lon="-3.870595">
        <ele>1387.716</ele>
        <time>2021-07-31T13:50:15Z</time>
      </trkpt>
      <trkpt lat="40.854595" lon="-3.870612">
        <ele>1387.868</ele>
        <time>2021-07-31T13:50:17Z</time>
      </trkpt>
      <trkpt lat="40.854608" lon="-3.870633">
        <ele>1387.735</ele>
        <time>2021-07-31T13:50:19Z</time>
      </trkpt>
      <trkpt lat="40.854614" lon="-3.870658">
        <ele>1387.432</ele>
        <time>2021-07-31T13:50:21Z</time>
      </trkpt>
      <trkpt lat="40.854630" lon="-3.870678">
        <ele>1387.464</ele>
        <time>2021-07-31T13:50:24Z</time>
      </trkpt>
      <trkpt lat="40.854640" lon="-3.870706">
        <ele>1387.281</ele>
        <time>2021-07-31T13:50:27Z</time>
      </trkpt>
      <trkpt lat="40.854653" lon="-3.870733">
        <ele>1387.091</ele>
        <time>2021-07-31T13:50:29Z</time>
      </trkpt>
      <trkpt lat="40.854662" lon="-3.870773">
        <ele>1386.639</ele>
        <time>2021-07-31T13:50:31Z</time>
      </trkpt>
      <trkpt lat="40.854669" lon="-3.870800">
        <ele>1386.495</ele>
        <time>2021-07-31T13:50:32Z</time>
      </trkpt>
      <trkpt lat="40.854678" lon="-3.870845">
        <ele>1385.849</ele>
        <time>2021-07-31T13:50:34Z</time>
      </trkpt>
      <trkpt lat="40.854682" lon="-3.870888">
        <ele>1385.023</ele>
        <time>2021-07-31T13:50:36Z</time>
      </trkpt>
      <trkpt lat="40.854698" lon="-3.870927">
        <ele>1384.508</ele>
        <time>2021-07-31T13:50:38Z</time>
      </trkpt>
      <trkpt lat="40.854710" lon="-3.870947">
        <ele>1384.346</ele>
        <time>2021-07-31T13:50:39Z</time>
      </trkpt>
      <trkpt lat="40.854733" lon="-3.870963">
        <ele>1384.428</ele>
        <time>2021-07-31T13:50:41Z</time>
      </trkpt>
      <trkpt lat="40.854758" lon="-3.870983">
        <ele>1384.535</ele>
        <time>2021-07-31T13:50:43Z</time>
      </trkpt>
      <trkpt lat="40.854781" lon="-3.871003">
        <ele>1384.592</ele>
        <time>2021-07-31T13:50:45Z</time>
      </trkpt>
      <trkpt lat="40.854800" lon="-3.871020">
        <ele>1384.594</ele>
        <time>2021-07-31T13:50:47Z</time>
      </trkpt>
      <trkpt lat="40.854819" lon="-3.871032">
        <ele>1384.581</ele>
        <time>2021-07-31T13:50:50Z</time>
      </trkpt>
      <trkpt lat="40.854858" lon="-3.871042">
        <ele>1385.121</ele>
        <time>2021-07-31T13:50:52Z</time>
      </trkpt>
      <trkpt lat="40.854880" lon="-3.871048">
        <ele>1385.329</ele>
        <time>2021-07-31T13:50:53Z</time>
      </trkpt>
      <trkpt lat="40.854899" lon="-3.871070">
        <ele>1385.263</ele>
        <time>2021-07-31T13:50:55Z</time>
      </trkpt>
      <trkpt lat="40.854925" lon="-3.871083">
        <ele>1385.344</ele>
        <time>2021-07-31T13:50:57Z</time>
      </trkpt>
      <trkpt lat="40.854960" lon="-3.871095">
        <ele>1385.718</ele>
        <time>2021-07-31T13:50:59Z</time>
      </trkpt>
      <trkpt lat="40.854979" lon="-3.871105">
        <ele>1385.808</ele>
        <time>2021-07-31T13:51:01Z</time>
      </trkpt>
      <trkpt lat="40.854992" lon="-3.871123">
        <ele>1385.543</ele>
        <time>2021-07-31T13:51:04Z</time>
      </trkpt>
      <trkpt lat="40.855011" lon="-3.871127">
        <ele>1385.535</ele>
        <time>2021-07-31T13:51:05Z</time>
      </trkpt>
      <trkpt lat="40.855037" lon="-3.871140">
        <ele>1385.032</ele>
        <time>2021-07-31T13:51:07Z</time>
      </trkpt>
      <trkpt lat="40.855059" lon="-3.871173">
        <ele>1384.069</ele>
        <time>2021-07-31T13:51:09Z</time>
      </trkpt>
      <trkpt lat="40.855072" lon="-3.871190">
        <ele>1383.591</ele>
        <time>2021-07-31T13:51:10Z</time>
      </trkpt>
      <trkpt lat="40.855094" lon="-3.871204">
        <ele>1383.038</ele>
        <time>2021-07-31T13:51:12Z</time>
      </trkpt>
      <trkpt lat="40.855114" lon="-3.871210">
        <ele>1382.728</ele>
        <time>2021-07-31T13:51:14Z</time>
      </trkpt>
      <trkpt lat="40.855146" lon="-3.871212">
        <ele>1382.696</ele>
        <time>2021-07-31T13:51:16Z</time>
      </trkpt>
      <trkpt lat="40.855168" lon="-3.871227">
        <ele>1382.141</ele>
        <time>2021-07-31T13:51:18Z</time>
      </trkpt>
      <trkpt lat="40.855187" lon="-3.871240">
        <ele>1381.681</ele>
        <time>2021-07-31T13:51:20Z</time>
      </trkpt>
      <trkpt lat="40.855203" lon="-3.871252">
        <ele>1381.209</ele>
        <time>2021-07-31T13:51:22Z</time>
      </trkpt>
      <trkpt lat="40.855229" lon="-3.871277">
        <ele>1380.408</ele>
        <time>2021-07-31T13:51:24Z</time>
      </trkpt>
      <trkpt lat="40.855254" lon="-3.871290">
        <ele>1379.921</ele>
        <time>2021-07-31T13:51:26Z</time>
      </trkpt>
      <trkpt lat="40.855274" lon="-3.871297">
        <ele>1379.753</ele>
        <time>2021-07-31T13:51:28Z</time>
      </trkpt>
      <trkpt lat="40.855293" lon="-3.871312">
        <ele>1379.190</ele>
        <time>2021-07-31T13:51:31Z</time>
      </trkpt>
      <trkpt lat="40.855318" lon="-3.871315">
        <ele>1378.987</ele>
        <time>2021-07-31T13:51:33Z</time>
      </trkpt>
      <trkpt lat="40.855347" lon="-3.871333">
        <ele>1378.349</ele>
        <time>2021-07-31T13:51:35Z</time>
      </trkpt>
      <trkpt lat="40.855373" lon="-3.871313">
        <ele>1378.716</ele>
        <time>2021-07-31T13:51:38Z</time>
      </trkpt>
      <trkpt lat="40.855408" lon="-3.871327">
        <ele>1378.156</ele>
        <time>2021-07-31T13:51:40Z</time>
      </trkpt>
      <trkpt lat="40.855437" lon="-3.871320">
        <ele>1378.154</ele>
        <time>2021-07-31T13:51:42Z</time>
      </trkpt>
      <trkpt lat="40.855469" lon="-3.871322">
        <ele>1377.913</ele>
        <time>2021-07-31T13:51:44Z</time>
      </trkpt>
      <trkpt lat="40.855494" lon="-3.871308">
        <ele>1378.143</ele>
        <time>2021-07-31T13:51:46Z</time>
      </trkpt>
      <trkpt lat="40.855517" lon="-3.871290">
        <ele>1378.407</ele>
        <time>2021-07-31T13:51:48Z</time>
      </trkpt>
      <trkpt lat="40.855536" lon="-3.871295">
        <ele>1378.108</ele>
        <time>2021-07-31T13:51:49Z</time>
      </trkpt>
      <trkpt lat="40.855562" lon="-3.871290">
        <ele>1378.178</ele>
        <time>2021-07-31T13:51:51Z</time>
      </trkpt>
      <trkpt lat="40.855587" lon="-3.871285">
        <ele>1377.880</ele>
        <time>2021-07-31T13:51:53Z</time>
      </trkpt>
      <trkpt lat="40.855613" lon="-3.871278">
        <ele>1377.787</ele>
        <time>2021-07-31T13:51:55Z</time>
      </trkpt>
      <trkpt lat="40.855642" lon="-3.871270">
        <ele>1377.584</ele>
        <time>2021-07-31T13:51:57Z</time>
      </trkpt>
      <trkpt lat="40.855661" lon="-3.871277">
        <ele>1377.186</ele>
        <time>2021-07-31T13:51:59Z</time>
      </trkpt>
      <trkpt lat="40.855683" lon="-3.871280">
        <ele>1376.793</ele>
        <time>2021-07-31T13:52:01Z</time>
      </trkpt>
      <trkpt lat="40.855706" lon="-3.871285">
        <ele>1376.363</ele>
        <time>2021-07-31T13:52:03Z</time>
      </trkpt>
      <trkpt lat="40.855728" lon="-3.871282">
        <ele>1376.141</ele>
        <time>2021-07-31T13:52:05Z</time>
      </trkpt>
      <trkpt lat="40.855754" lon="-3.871273">
        <ele>1375.997</ele>
        <time>2021-07-31T13:52:07Z</time>
      </trkpt>
      <trkpt lat="40.855786" lon="-3.871265">
        <ele>1375.723</ele>
        <time>2021-07-31T13:52:09Z</time>
      </trkpt>
      <trkpt lat="40.855811" lon="-3.871253">
        <ele>1375.725</ele>
        <time>2021-07-31T13:52:12Z</time>
      </trkpt>
      <trkpt lat="40.855840" lon="-3.871237">
        <ele>1375.708</ele>
        <time>2021-07-31T13:52:14Z</time>
      </trkpt>
      <trkpt lat="40.855866" lon="-3.871224">
        <ele>1375.736</ele>
        <time>2021-07-31T13:52:16Z</time>
      </trkpt>
      <trkpt lat="40.855888" lon="-3.871222">
        <ele>1375.598</ele>
        <time>2021-07-31T13:52:17Z</time>
      </trkpt>
      <trkpt lat="40.855910" lon="-3.871210">
        <ele>1375.585</ele>
        <time>2021-07-31T13:52:18Z</time>
      </trkpt>
      <trkpt lat="40.855930" lon="-3.871214">
        <ele>1375.192</ele>
        <time>2021-07-31T13:52:19Z</time>
      </trkpt>
      <trkpt lat="40.855958" lon="-3.871204">
        <ele>1375.054</ele>
        <time>2021-07-31T13:52:20Z</time>
      </trkpt>
      <trkpt lat="40.855978" lon="-3.871194">
        <ele>1375.061</ele>
        <time>2021-07-31T13:52:21Z</time>
      </trkpt>
      <trkpt lat="40.856000" lon="-3.871190">
        <ele>1374.871</ele>
        <time>2021-07-31T13:52:24Z</time>
      </trkpt>
      <trkpt lat="40.856019" lon="-3.871200">
        <ele>1374.329</ele>
        <time>2021-07-31T13:52:26Z</time>
      </trkpt>
      <trkpt lat="40.856038" lon="-3.871183">
        <ele>1374.445</ele>
        <time>2021-07-31T13:52:28Z</time>
      </trkpt>
      <trkpt lat="40.856058" lon="-3.871188">
        <ele>1374.147</ele>
        <time>2021-07-31T13:52:30Z</time>
      </trkpt>
      <trkpt lat="40.856077" lon="-3.871204">
        <ele>1373.411</ele>
        <time>2021-07-31T13:52:33Z</time>
      </trkpt>
      <trkpt lat="40.856112" lon="-3.871207">
        <ele>1372.908</ele>
        <time>2021-07-31T13:52:35Z</time>
      </trkpt>
      <trkpt lat="40.856150" lon="-3.871183">
        <ele>1372.931</ele>
        <time>2021-07-31T13:52:37Z</time>
      </trkpt>
      <trkpt lat="40.856182" lon="-3.871173">
        <ele>1372.683</ele>
        <time>2021-07-31T13:52:38Z</time>
      </trkpt>
      <trkpt lat="40.856202" lon="-3.871160">
        <ele>1372.620</ele>
        <time>2021-07-31T13:52:39Z</time>
      </trkpt>
      <trkpt lat="40.856218" lon="-3.871138">
        <ele>1372.987</ele>
        <time>2021-07-31T13:52:40Z</time>
      </trkpt>
      <trkpt lat="40.856237" lon="-3.871127">
        <ele>1372.899</ele>
        <time>2021-07-31T13:52:42Z</time>
      </trkpt>
      <trkpt lat="40.856256" lon="-3.871133">
        <ele>1372.426</ele>
        <time>2021-07-31T13:52:44Z</time>
      </trkpt>
      <trkpt lat="40.856278" lon="-3.871132">
        <ele>1372.126</ele>
        <time>2021-07-31T13:52:46Z</time>
      </trkpt>
      <trkpt lat="40.856304" lon="-3.871123">
        <ele>1372.014</ele>
        <time>2021-07-31T13:52:48Z</time>
      </trkpt>
      <trkpt lat="40.856323" lon="-3.871122">
        <ele>1371.747</ele>
        <time>2021-07-31T13:52:50Z</time>
      </trkpt>
      <trkpt lat="40.856342" lon="-3.871118">
        <ele>1371.529</ele>
        <time>2021-07-31T13:52:51Z</time>
      </trkpt>
      <trkpt lat="40.856365" lon="-3.871115">
        <ele>1371.321</ele>
        <time>2021-07-31T13:52:53Z</time>
      </trkpt>
      <trkpt lat="40.856397" lon="-3.871103">
        <ele>1371.108</ele>
        <time>2021-07-31T13:52:57Z</time>
      </trkpt>
      <trkpt lat="40.856419" lon="-3.871097">
        <ele>1370.841</ele>
        <time>2021-07-31T13:52:59Z</time>
      </trkpt>
      <trkpt lat="40.856429" lon="-3.871127">
        <ele>1369.973</ele>
        <time>2021-07-31T13:53:01Z</time>
      </trkpt>
      <trkpt lat="40.856467" lon="-3.871105">
        <ele>1369.710</ele>
        <time>2021-07-31T13:53:03Z</time>
      </trkpt>
      <trkpt lat="40.856486" lon="-3.871095">
        <ele>1369.797</ele>
        <time>2021-07-31T13:53:04Z</time>
      </trkpt>
      <trkpt lat="40.856522" lon="-3.871088">
        <ele>1369.219</ele>
        <time>2021-07-31T13:53:06Z</time>
      </trkpt>
      <trkpt lat="40.856547" lon="-3.871090">
        <ele>1368.776</ele>
        <time>2021-07-31T13:53:08Z</time>
      </trkpt>
      <trkpt lat="40.856576" lon="-3.871095">
        <ele>1368.036</ele>
        <time>2021-07-31T13:53:10Z</time>
      </trkpt>
      <trkpt lat="40.856602" lon="-3.871080">
        <ele>1367.994</ele>
        <time>2021-07-31T13:53:12Z</time>
      </trkpt>
      <trkpt lat="40.856627" lon="-3.871075">
        <ele>1367.676</ele>
        <time>2021-07-31T13:53:14Z</time>
      </trkpt>
      <trkpt lat="40.856653" lon="-3.871085">
        <ele>1366.990</ele>
        <time>2021-07-31T13:53:16Z</time>
      </trkpt>
      <trkpt lat="40.856678" lon="-3.871086">
        <ele>1366.619</ele>
        <time>2021-07-31T13:53:18Z</time>
      </trkpt>
      <trkpt lat="40.856707" lon="-3.871090">
        <ele>1366.408</ele>
        <time>2021-07-31T13:53:20Z</time>
      </trkpt>
      <trkpt lat="40.856733" lon="-3.871085">
        <ele>1366.444</ele>
        <time>2021-07-31T13:53:21Z</time>
      </trkpt>
      <trkpt lat="40.856752" lon="-3.871078">
        <ele>1366.546</ele>
        <time>2021-07-31T13:53:22Z</time>
      </trkpt>
      <trkpt lat="40.856778" lon="-3.871068">
        <ele>1366.613</ele>
        <time>2021-07-31T13:53:24Z</time>
      </trkpt>
      <trkpt lat="40.856806" lon="-3.871048">
        <ele>1367.050</ele>
        <time>2021-07-31T13:53:26Z</time>
      </trkpt>
      <trkpt lat="40.856826" lon="-3.871033">
        <ele>1367.292</ele>
        <time>2021-07-31T13:53:28Z</time>
      </trkpt>
      <trkpt lat="40.856851" lon="-3.871027">
        <ele>1367.369</ele>
        <time>2021-07-31T13:53:30Z</time>
      </trkpt>
      <trkpt lat="40.856867" lon="-3.871043">
        <ele>1366.839</ele>
        <time>2021-07-31T13:53:32Z</time>
      </trkpt>
      <trkpt lat="40.856893" lon="-3.871045">
        <ele>1366.717</ele>
        <time>2021-07-31T13:53:34Z</time>
      </trkpt>
      <trkpt lat="40.856915" lon="-3.871050">
        <ele>1366.478</ele>
        <time>2021-07-31T13:53:36Z</time>
      </trkpt>
      <trkpt lat="40.856938" lon="-3.871056">
        <ele>1366.233</ele>
        <time>2021-07-31T13:53:38Z</time>
      </trkpt>
      <trkpt lat="40.856963" lon="-3.871068">
        <ele>1365.926</ele>
        <time>2021-07-31T13:53:40Z</time>
      </trkpt>
      <trkpt lat="40.856986" lon="-3.871086">
        <ele>1365.408</ele>
        <time>2021-07-31T13:53:42Z</time>
      </trkpt>
      <trkpt lat="40.857005" lon="-3.871090">
        <ele>1365.264</ele>
        <time>2021-07-31T13:53:43Z</time>
      </trkpt>
      <trkpt lat="40.857024" lon="-3.871085">
        <ele>1365.326</ele>
        <time>2021-07-31T13:53:44Z</time>
      </trkpt>
      <trkpt lat="40.857053" lon="-3.871103">
        <ele>1364.813</ele>
        <time>2021-07-31T13:53:46Z</time>
      </trkpt>
      <trkpt lat="40.857072" lon="-3.871122">
        <ele>1364.320</ele>
        <time>2021-07-31T13:53:47Z</time>
      </trkpt>
      <trkpt lat="40.857098" lon="-3.871128">
        <ele>1364.152</ele>
        <time>2021-07-31T13:53:49Z</time>
      </trkpt>
      <trkpt lat="40.857130" lon="-3.871125">
        <ele>1364.069</ele>
        <time>2021-07-31T13:53:51Z</time>
      </trkpt>
      <trkpt lat="40.857149" lon="-3.871122">
        <ele>1364.029</ele>
        <time>2021-07-31T13:53:53Z</time>
      </trkpt>
      <trkpt lat="40.857178" lon="-3.871107">
        <ele>1364.247</ele>
        <time>2021-07-31T13:53:55Z</time>
      </trkpt>
      <trkpt lat="40.857190" lon="-3.871083">
        <ele>1364.779</ele>
        <time>2021-07-31T13:53:56Z</time>
      </trkpt>
      <trkpt lat="40.857203" lon="-3.871062">
        <ele>1365.105</ele>
        <time>2021-07-31T13:53:57Z</time>
      </trkpt>
      <trkpt lat="40.857222" lon="-3.871033">
        <ele>1365.725</ele>
        <time>2021-07-31T13:53:59Z</time>
      </trkpt>
      <trkpt lat="40.857242" lon="-3.871018">
        <ele>1365.908</ele>
        <time>2021-07-31T13:54:00Z</time>
      </trkpt>
      <trkpt lat="40.857270" lon="-3.871012">
        <ele>1365.914</ele>
        <time>2021-07-31T13:54:02Z</time>
      </trkpt>
      <trkpt lat="40.857299" lon="-3.871012">
        <ele>1365.716</ele>
        <time>2021-07-31T13:54:04Z</time>
      </trkpt>
      <trkpt lat="40.857322" lon="-3.871015">
        <ele>1365.523</ele>
        <time>2021-07-31T13:54:06Z</time>
      </trkpt>
      <trkpt lat="40.857354" lon="-3.871012">
        <ele>1365.430</ele>
        <time>2021-07-31T13:54:08Z</time>
      </trkpt>
      <trkpt lat="40.857389" lon="-3.870997">
        <ele>1365.542</ele>
        <time>2021-07-31T13:54:10Z</time>
      </trkpt>
      <trkpt lat="40.857418" lon="-3.870980">
        <ele>1365.849</ele>
        <time>2021-07-31T13:54:12Z</time>
      </trkpt>
      <trkpt lat="40.857443" lon="-3.870968">
        <ele>1365.999</ele>
        <time>2021-07-31T13:54:14Z</time>
      </trkpt>
      <trkpt lat="40.857456" lon="-3.870950">
        <ele>1366.317</ele>
        <time>2021-07-31T13:54:16Z</time>
      </trkpt>
      <trkpt lat="40.857472" lon="-3.870935">
        <ele>1366.668</ele>
        <time>2021-07-31T13:54:18Z</time>
      </trkpt>
      <trkpt lat="40.857494" lon="-3.870925">
        <ele>1366.742</ele>
        <time>2021-07-31T13:54:20Z</time>
      </trkpt>
      <trkpt lat="40.857514" lon="-3.870905">
        <ele>1366.926</ele>
        <time>2021-07-31T13:54:22Z</time>
      </trkpt>
      <trkpt lat="40.857536" lon="-3.870885">
        <ele>1366.808</ele>
        <time>2021-07-31T13:54:24Z</time>
      </trkpt>
      <trkpt lat="40.857562" lon="-3.870870">
        <ele>1366.583</ele>
        <time>2021-07-31T13:54:26Z</time>
      </trkpt>
      <trkpt lat="40.857578" lon="-3.870848">
        <ele>1366.755</ele>
        <time>2021-07-31T13:54:28Z</time>
      </trkpt>
      <trkpt lat="40.857597" lon="-3.870822">
        <ele>1366.822</ele>
        <time>2021-07-31T13:54:30Z</time>
      </trkpt>
      <trkpt lat="40.857619" lon="-3.870802">
        <ele>1366.679</ele>
        <time>2021-07-31T13:54:32Z</time>
      </trkpt>
      <trkpt lat="40.857635" lon="-3.870782">
        <ele>1366.661</ele>
        <time>2021-07-31T13:54:34Z</time>
      </trkpt>
      <trkpt lat="40.857658" lon="-3.870765">
        <ele>1366.488</ele>
        <time>2021-07-31T13:54:36Z</time>
      </trkpt>
      <trkpt lat="40.857677" lon="-3.870750">
        <ele>1366.248</ele>
        <time>2021-07-31T13:54:38Z</time>
      </trkpt>
      <trkpt lat="40.857696" lon="-3.870733">
        <ele>1366.176</ele>
        <time>2021-07-31T13:54:40Z</time>
      </trkpt>
      <trkpt lat="40.857715" lon="-3.870722">
        <ele>1365.926</ele>
        <time>2021-07-31T13:54:42Z</time>
      </trkpt>
      <trkpt lat="40.857731" lon="-3.870702">
        <ele>1365.947</ele>
        <time>2021-07-31T13:54:44Z</time>
      </trkpt>
      <trkpt lat="40.857750" lon="-3.870662">
        <ele>1366.311</ele>
        <time>2021-07-31T13:54:47Z</time>
      </trkpt>
      <trkpt lat="40.857770" lon="-3.870627">
        <ele>1366.608</ele>
        <time>2021-07-31T13:54:49Z</time>
      </trkpt>
      <trkpt lat="40.857786" lon="-3.870598">
        <ele>1366.749</ele>
        <time>2021-07-31T13:54:51Z</time>
      </trkpt>
      <trkpt lat="40.857798" lon="-3.870570">
        <ele>1366.891</ele>
        <time>2021-07-31T13:54:53Z</time>
      </trkpt>
      <trkpt lat="40.857818" lon="-3.870525">
        <ele>1366.758</ele>
        <time>2021-07-31T13:54:55Z</time>
      </trkpt>
      <trkpt lat="40.857824" lon="-3.870497">
        <ele>1366.835</ele>
        <time>2021-07-31T13:54:56Z</time>
      </trkpt>
      <trkpt lat="40.857830" lon="-3.870473">
        <ele>1366.977</ele>
        <time>2021-07-31T13:54:57Z</time>
      </trkpt>
      <trkpt lat="40.857850" lon="-3.870440">
        <ele>1366.564</ele>
        <time>2021-07-31T13:54:59Z</time>
      </trkpt>
      <trkpt lat="40.857856" lon="-3.870413">
        <ele>1366.754</ele>
        <time>2021-07-31T13:55:01Z</time>
      </trkpt>
      <trkpt lat="40.857869" lon="-3.870387">
        <ele>1366.532</ele>
        <time>2021-07-31T13:55:03Z</time>
      </trkpt>
      <trkpt lat="40.857888" lon="-3.870358">
        <ele>1366.188</ele>
        <time>2021-07-31T13:55:05Z</time>
      </trkpt>
      <trkpt lat="40.857907" lon="-3.870325">
        <ele>1365.724</ele>
        <time>2021-07-31T13:55:07Z</time>
      </trkpt>
      <trkpt lat="40.857923" lon="-3.870297">
        <ele>1365.526</ele>
        <time>2021-07-31T13:55:09Z</time>
      </trkpt>
      <trkpt lat="40.857936" lon="-3.870270">
        <ele>1365.308</ele>
        <time>2021-07-31T13:55:11Z</time>
      </trkpt>
      <trkpt lat="40.857955" lon="-3.870247">
        <ele>1364.825</ele>
        <time>2021-07-31T13:55:13Z</time>
      </trkpt>
      <trkpt lat="40.857965" lon="-3.870222">
        <ele>1364.847</ele>
        <time>2021-07-31T13:55:15Z</time>
      </trkpt>
      <trkpt lat="40.857971" lon="-3.870198">
        <ele>1364.964</ele>
        <time>2021-07-31T13:55:17Z</time>
      </trkpt>
      <trkpt lat="40.857974" lon="-3.870170">
        <ele>1365.211</ele>
        <time>2021-07-31T13:55:19Z</time>
      </trkpt>
      <trkpt lat="40.857990" lon="-3.870145">
        <ele>1365.073</ele>
        <time>2021-07-31T13:55:21Z</time>
      </trkpt>
      <trkpt lat="40.858003" lon="-3.870117">
        <ele>1364.980</ele>
        <time>2021-07-31T13:55:24Z</time>
      </trkpt>
      <trkpt lat="40.858013" lon="-3.870090">
        <ele>1365.040</ele>
        <time>2021-07-31T13:55:26Z</time>
      </trkpt>
      <trkpt lat="40.858019" lon="-3.870065">
        <ele>1365.268</ele>
        <time>2021-07-31T13:55:28Z</time>
      </trkpt>
      <trkpt lat="40.858035" lon="-3.870040">
        <ele>1365.071</ele>
        <time>2021-07-31T13:55:30Z</time>
      </trkpt>
      <trkpt lat="40.858048" lon="-3.870018">
        <ele>1365.041</ele>
        <time>2021-07-31T13:55:32Z</time>
      </trkpt>
      <trkpt lat="40.858067" lon="-3.870000">
        <ele>1364.615</ele>
        <time>2021-07-31T13:55:35Z</time>
      </trkpt>
      <trkpt lat="40.858090" lon="-3.869974">
        <ele>1364.308</ele>
        <time>2021-07-31T13:55:37Z</time>
      </trkpt>
      <trkpt lat="40.858109" lon="-3.869958">
        <ele>1364.044</ele>
        <time>2021-07-31T13:55:38Z</time>
      </trkpt>
      <trkpt lat="40.858131" lon="-3.869938">
        <ele>1363.566</ele>
        <time>2021-07-31T13:55:40Z</time>
      </trkpt>
      <trkpt lat="40.858144" lon="-3.869917">
        <ele>1363.433</ele>
        <time>2021-07-31T13:55:42Z</time>
      </trkpt>
      <trkpt lat="40.858166" lon="-3.869895">
        <ele>1363.020</ele>
        <time>2021-07-31T13:55:44Z</time>
      </trkpt>
      <trkpt lat="40.858176" lon="-3.869860">
        <ele>1363.272</ele>
        <time>2021-07-31T13:55:46Z</time>
      </trkpt>
      <trkpt lat="40.858205" lon="-3.869824">
        <ele>1362.699</ele>
        <time>2021-07-31T13:55:48Z</time>
      </trkpt>
      <trkpt lat="40.858218" lon="-3.869788">
        <ele>1362.789</ele>
        <time>2021-07-31T13:55:50Z</time>
      </trkpt>
      <trkpt lat="40.858224" lon="-3.869745">
        <ele>1363.037</ele>
        <time>2021-07-31T13:55:52Z</time>
      </trkpt>
      <trkpt lat="40.858234" lon="-3.869720">
        <ele>1362.955</ele>
        <time>2021-07-31T13:55:54Z</time>
      </trkpt>
      <trkpt lat="40.858250" lon="-3.869700">
        <ele>1362.407</ele>
        <time>2021-07-31T13:55:56Z</time>
      </trkpt>
      <trkpt lat="40.858256" lon="-3.869666">
        <ele>1362.417</ele>
        <time>2021-07-31T13:55:59Z</time>
      </trkpt>
      <trkpt lat="40.858266" lon="-3.869645">
        <ele>1362.208</ele>
        <time>2021-07-31T13:56:01Z</time>
      </trkpt>
      <trkpt lat="40.858282" lon="-3.869622">
        <ele>1361.712</ele>
        <time>2021-07-31T13:56:03Z</time>
      </trkpt>
      <trkpt lat="40.858291" lon="-3.869600">
        <ele>1361.564</ele>
        <time>2021-07-31T13:56:05Z</time>
      </trkpt>
      <trkpt lat="40.858307" lon="-3.869585">
        <ele>1361.061</ele>
        <time>2021-07-31T13:56:07Z</time>
      </trkpt>
      <trkpt lat="40.858317" lon="-3.869548">
        <ele>1360.928</ele>
        <time>2021-07-31T13:56:09Z</time>
      </trkpt>
      <trkpt lat="40.858342" lon="-3.869538">
        <ele>1360.240</ele>
        <time>2021-07-31T13:56:11Z</time>
      </trkpt>
      <trkpt lat="40.858365" lon="-3.869533">
        <ele>1359.937</ele>
        <time>2021-07-31T13:56:13Z</time>
      </trkpt>
      <trkpt lat="40.858384" lon="-3.869527">
        <ele>1359.757</ele>
        <time>2021-07-31T13:56:14Z</time>
      </trkpt>
      <trkpt lat="40.858403" lon="-3.869513">
        <ele>1359.535</ele>
        <time>2021-07-31T13:56:15Z</time>
      </trkpt>
      <trkpt lat="40.858426" lon="-3.869484">
        <ele>1359.475</ele>
        <time>2021-07-31T13:56:17Z</time>
      </trkpt>
      <trkpt lat="40.858442" lon="-3.869464">
        <ele>1359.328</ele>
        <time>2021-07-31T13:56:18Z</time>
      </trkpt>
      <trkpt lat="40.858464" lon="-3.869434">
        <ele>1359.220</ele>
        <time>2021-07-31T13:56:20Z</time>
      </trkpt>
      <trkpt lat="40.858486" lon="-3.869398">
        <ele>1359.308</ele>
        <time>2021-07-31T13:56:22Z</time>
      </trkpt>
      <trkpt lat="40.858490" lon="-3.869373">
        <ele>1359.554</ele>
        <time>2021-07-31T13:56:23Z</time>
      </trkpt>
      <trkpt lat="40.858499" lon="-3.869332">
        <ele>1359.826</ele>
        <time>2021-07-31T13:56:25Z</time>
      </trkpt>
      <trkpt lat="40.858506" lon="-3.869298">
        <ele>1360.123</ele>
        <time>2021-07-31T13:56:27Z</time>
      </trkpt>
      <trkpt lat="40.858522" lon="-3.869270">
        <ele>1360.290</ele>
        <time>2021-07-31T13:56:29Z</time>
      </trkpt>
      <trkpt lat="40.858531" lon="-3.869235">
        <ele>1360.442</ele>
        <time>2021-07-31T13:56:31Z</time>
      </trkpt>
      <trkpt lat="40.858550" lon="-3.869212">
        <ele>1360.499</ele>
        <time>2021-07-31T13:56:33Z</time>
      </trkpt>
      <trkpt lat="40.858570" lon="-3.869180">
        <ele>1360.439</ele>
        <time>2021-07-31T13:56:35Z</time>
      </trkpt>
      <trkpt lat="40.858579" lon="-3.869146">
        <ele>1360.647</ele>
        <time>2021-07-31T13:56:37Z</time>
      </trkpt>
      <trkpt lat="40.858589" lon="-3.869112">
        <ele>1360.713</ele>
        <time>2021-07-31T13:56:39Z</time>
      </trkpt>
      <trkpt lat="40.858608" lon="-3.869102">
        <ele>1360.543</ele>
        <time>2021-07-31T13:56:41Z</time>
      </trkpt>
      <trkpt lat="40.858627" lon="-3.869092">
        <ele>1360.307</ele>
        <time>2021-07-31T13:56:44Z</time>
      </trkpt>
      <trkpt lat="40.858646" lon="-3.869084">
        <ele>1360.008</ele>
        <time>2021-07-31T13:56:47Z</time>
      </trkpt>
      <trkpt lat="40.858662" lon="-3.869072">
        <ele>1359.878</ele>
        <time>2021-07-31T13:56:48Z</time>
      </trkpt>
      <trkpt lat="40.858685" lon="-3.869052">
        <ele>1359.540</ele>
        <time>2021-07-31T13:56:50Z</time>
      </trkpt>
      <trkpt lat="40.858701" lon="-3.869035">
        <ele>1359.367</ele>
        <time>2021-07-31T13:56:52Z</time>
      </trkpt>
      <trkpt lat="40.858714" lon="-3.869012">
        <ele>1359.364</ele>
        <time>2021-07-31T13:56:54Z</time>
      </trkpt>
      <trkpt lat="40.858746" lon="-3.869005">
        <ele>1358.726</ele>
        <time>2021-07-31T13:56:56Z</time>
      </trkpt>
      <trkpt lat="40.858768" lon="-3.869007">
        <ele>1358.323</ele>
        <time>2021-07-31T13:56:58Z</time>
      </trkpt>
      <trkpt lat="40.858790" lon="-3.868990">
        <ele>1358.143</ele>
        <time>2021-07-31T13:57:00Z</time>
      </trkpt>
      <trkpt lat="40.858813" lon="-3.868980">
        <ele>1357.731</ele>
        <time>2021-07-31T13:57:03Z</time>
      </trkpt>
      <trkpt lat="40.858838" lon="-3.868978">
        <ele>1357.377</ele>
        <time>2021-07-31T13:57:05Z</time>
      </trkpt>
      <trkpt lat="40.858880" lon="-3.868975">
        <ele>1356.561</ele>
        <time>2021-07-31T13:57:07Z</time>
      </trkpt>
      <trkpt lat="40.858902" lon="-3.868972">
        <ele>1356.327</ele>
        <time>2021-07-31T13:57:08Z</time>
      </trkpt>
      <trkpt lat="40.858925" lon="-3.868968">
        <ele>1356.208</ele>
        <time>2021-07-31T13:57:09Z</time>
      </trkpt>
      <trkpt lat="40.858957" lon="-3.868978">
        <ele>1356.044</ele>
        <time>2021-07-31T13:57:11Z</time>
      </trkpt>
      <trkpt lat="40.858976" lon="-3.868980">
        <ele>1355.916</ele>
        <time>2021-07-31T13:57:12Z</time>
      </trkpt>
      <trkpt lat="40.858998" lon="-3.868980">
        <ele>1355.863</ele>
        <time>2021-07-31T13:57:14Z</time>
      </trkpt>
      <trkpt lat="40.859018" lon="-3.868978">
        <ele>1355.740</ele>
        <time>2021-07-31T13:57:16Z</time>
      </trkpt>
      <trkpt lat="40.859043" lon="-3.868965">
        <ele>1355.652</ele>
        <time>2021-07-31T13:57:20Z</time>
      </trkpt>
      <trkpt lat="40.859066" lon="-3.868946">
        <ele>1355.679</ele>
        <time>2021-07-31T13:57:21Z</time>
      </trkpt>
      <trkpt lat="40.859085" lon="-3.868928">
        <ele>1355.579</ele>
        <time>2021-07-31T13:57:22Z</time>
      </trkpt>
      <trkpt lat="40.859110" lon="-3.868926">
        <ele>1355.477</ele>
        <time>2021-07-31T13:57:24Z</time>
      </trkpt>
      <trkpt lat="40.859136" lon="-3.868940">
        <ele>1355.278</ele>
        <time>2021-07-31T13:57:26Z</time>
      </trkpt>
      <trkpt lat="40.859178" lon="-3.868960">
        <ele>1355.033</ele>
        <time>2021-07-31T13:57:28Z</time>
      </trkpt>
      <trkpt lat="40.859197" lon="-3.868976">
        <ele>1354.926</ele>
        <time>2021-07-31T13:57:30Z</time>
      </trkpt>
      <trkpt lat="40.859222" lon="-3.868987">
        <ele>1354.808</ele>
        <time>2021-07-31T13:57:32Z</time>
      </trkpt>
      <trkpt lat="40.859242" lon="-3.868987">
        <ele>1354.744</ele>
        <time>2021-07-31T13:57:34Z</time>
      </trkpt>
      <trkpt lat="40.859267" lon="-3.868987">
        <ele>1354.656</ele>
        <time>2021-07-31T13:57:36Z</time>
      </trkpt>
      <trkpt lat="40.859290" lon="-3.868988">
        <ele>1354.673</ele>
        <time>2021-07-31T13:57:38Z</time>
      </trkpt>
      <trkpt lat="40.859309" lon="-3.868985">
        <ele>1354.550</ele>
        <time>2021-07-31T13:57:41Z</time>
      </trkpt>
      <trkpt lat="40.859334" lon="-3.868965">
        <ele>1354.452</ele>
        <time>2021-07-31T13:58:03Z</time>
      </trkpt>
      <trkpt lat="40.859366" lon="-3.868956">
        <ele>1354.389</ele>
        <time>2021-07-31T13:58:05Z</time>
      </trkpt>
      <trkpt lat="40.859389" lon="-3.868952">
        <ele>1354.259</ele>
        <time>2021-07-31T13:58:06Z</time>
      </trkpt>
      <trkpt lat="40.859418" lon="-3.868940">
        <ele>1354.147</ele>
        <time>2021-07-31T13:58:08Z</time>
      </trkpt>
      <trkpt lat="40.859440" lon="-3.868928">
        <ele>1354.054</ele>
        <time>2021-07-31T13:58:10Z</time>
      </trkpt>
      <trkpt lat="40.859459" lon="-3.868920">
        <ele>1354.056</ele>
        <time>2021-07-31T13:58:11Z</time>
      </trkpt>
      <trkpt lat="40.859482" lon="-3.868903">
        <ele>1354.011</ele>
        <time>2021-07-31T13:58:13Z</time>
      </trkpt>
      <trkpt lat="40.859507" lon="-3.868892">
        <ele>1354.008</ele>
        <time>2021-07-31T13:58:15Z</time>
      </trkpt>
      <trkpt lat="40.859526" lon="-3.868880">
        <ele>1354.052</ele>
        <time>2021-07-31T13:58:18Z</time>
      </trkpt>
      <trkpt lat="40.859555" lon="-3.868865">
        <ele>1354.084</ele>
        <time>2021-07-31T13:58:21Z</time>
      </trkpt>
      <trkpt lat="40.859574" lon="-3.868850">
        <ele>1353.991</ele>
        <time>2021-07-31T13:58:23Z</time>
      </trkpt>
      <trkpt lat="40.859600" lon="-3.868832">
        <ele>1353.958</ele>
        <time>2021-07-31T13:58:26Z</time>
      </trkpt>
      <trkpt lat="40.859622" lon="-3.868815">
        <ele>1353.840</ele>
        <time>2021-07-31T13:58:28Z</time>
      </trkpt>
      <trkpt lat="40.859642" lon="-3.868795">
        <ele>1353.837</ele>
        <time>2021-07-31T13:58:31Z</time>
      </trkpt>
      <trkpt lat="40.859661" lon="-3.868774">
        <ele>1353.717</ele>
        <time>2021-07-31T13:58:33Z</time>
      </trkpt>
      <trkpt lat="40.859677" lon="-3.868754">
        <ele>1353.625</ele>
        <time>2021-07-31T13:58:35Z</time>
      </trkpt>
      <trkpt lat="40.859696" lon="-3.868734">
        <ele>1353.529</ele>
        <time>2021-07-31T13:58:37Z</time>
      </trkpt>
      <trkpt lat="40.859706" lon="-3.868708">
        <ele>1353.400</ele>
        <time>2021-07-31T13:58:39Z</time>
      </trkpt>
      <trkpt lat="40.859734" lon="-3.868685">
        <ele>1353.220</ele>
        <time>2021-07-31T13:58:41Z</time>
      </trkpt>
      <trkpt lat="40.859750" lon="-3.868662">
        <ele>1353.008</ele>
        <time>2021-07-31T13:58:43Z</time>
      </trkpt>
      <trkpt lat="40.859773" lon="-3.868672">
        <ele>1352.939</ele>
        <time>2021-07-31T13:58:45Z</time>
      </trkpt>
      <trkpt lat="40.859795" lon="-3.868662">
        <ele>1352.821</ele>
        <time>2021-07-31T13:58:48Z</time>
      </trkpt>
      <trkpt lat="40.859814" lon="-3.868663">
        <ele>1352.658</ele>
        <time>2021-07-31T13:58:50Z</time>
      </trkpt>
      <trkpt lat="40.859837" lon="-3.868663">
        <ele>1352.525</ele>
        <time>2021-07-31T13:58:51Z</time>
      </trkpt>
      <trkpt lat="40.859862" lon="-3.868662">
        <ele>1352.467</ele>
        <time>2021-07-31T13:58:52Z</time>
      </trkpt>
      <trkpt lat="40.859885" lon="-3.868658">
        <ele>1352.254</ele>
        <time>2021-07-31T13:58:59Z</time>
      </trkpt>
      <trkpt lat="40.859917" lon="-3.868642">
        <ele>1351.974</ele>
        <time>2021-07-31T13:59:01Z</time>
      </trkpt>
      <trkpt lat="40.859933" lon="-3.868628">
        <ele>1351.642</ele>
        <time>2021-07-31T13:59:02Z</time>
      </trkpt>
      <trkpt lat="40.859955" lon="-3.868615">
        <ele>1351.494</ele>
        <time>2021-07-31T13:59:04Z</time>
      </trkpt>
      <trkpt lat="40.859990" lon="-3.868610">
        <ele>1351.157</ele>
        <time>2021-07-31T13:59:07Z</time>
      </trkpt>
      <trkpt lat="40.860010" lon="-3.868623">
        <ele>1351.122</ele>
        <time>2021-07-31T13:59:09Z</time>
      </trkpt>
      <trkpt lat="40.860042" lon="-3.868635">
        <ele>1351.308</ele>
        <time>2021-07-31T13:59:11Z</time>
      </trkpt>
      <trkpt lat="40.860064" lon="-3.868640">
        <ele>1351.376</ele>
        <time>2021-07-31T13:59:12Z</time>
      </trkpt>
      <trkpt lat="40.860083" lon="-3.868645">
        <ele>1351.418</ele>
        <time>2021-07-31T13:59:13Z</time>
      </trkpt>
      <trkpt lat="40.860122" lon="-3.868647">
        <ele>1351.495</ele>
        <time>2021-07-31T13:59:15Z</time>
      </trkpt>
      <trkpt lat="40.860144" lon="-3.868662">
        <ele>1351.552</ele>
        <time>2021-07-31T13:59:17Z</time>
      </trkpt>
      <trkpt lat="40.860170" lon="-3.868662">
        <ele>1351.514</ele>
        <time>2021-07-31T13:59:19Z</time>
      </trkpt>
      <trkpt lat="40.860198" lon="-3.868653">
        <ele>1351.511</ele>
        <time>2021-07-31T13:59:21Z</time>
      </trkpt>
      <trkpt lat="40.860221" lon="-3.868677">
        <ele>1351.711</ele>
        <time>2021-07-31T13:59:23Z</time>
      </trkpt>
      <trkpt lat="40.860243" lon="-3.868678">
        <ele>1351.739</ele>
        <time>2021-07-31T13:59:25Z</time>
      </trkpt>
      <trkpt lat="40.860262" lon="-3.868692">
        <ele>1351.987</ele>
        <time>2021-07-31T13:59:27Z</time>
      </trkpt>
      <trkpt lat="40.860291" lon="-3.868692">
        <ele>1351.742</ele>
        <time>2021-07-31T13:59:29Z</time>
      </trkpt>
      <trkpt lat="40.860310" lon="-3.868690">
        <ele>1351.526</ele>
        <time>2021-07-31T13:59:30Z</time>
      </trkpt>
      <trkpt lat="40.860339" lon="-3.868695">
        <ele>1351.208</ele>
        <time>2021-07-31T13:59:32Z</time>
      </trkpt>
      <trkpt lat="40.860362" lon="-3.868697">
        <ele>1351.015</ele>
        <time>2021-07-31T13:59:34Z</time>
      </trkpt>
      <trkpt lat="40.860381" lon="-3.868702">
        <ele>1350.967</ele>
        <time>2021-07-31T13:59:36Z</time>
      </trkpt>
      <trkpt lat="40.860413" lon="-3.868712">
        <ele>1350.614</ele>
        <time>2021-07-31T13:59:38Z</time>
      </trkpt>
      <trkpt lat="40.860432" lon="-3.868725">
        <ele>1350.631</ele>
        <time>2021-07-31T13:59:39Z</time>
      </trkpt>
      <trkpt lat="40.860451" lon="-3.868730">
        <ele>1350.463</ele>
        <time>2021-07-31T13:59:40Z</time>
      </trkpt>
      <trkpt lat="40.860477" lon="-3.868730">
        <ele>1350.150</ele>
        <time>2021-07-31T13:59:42Z</time>
      </trkpt>
      <trkpt lat="40.860496" lon="-3.868727">
        <ele>1349.970</ele>
        <time>2021-07-31T13:59:44Z</time>
      </trkpt>
      <trkpt lat="40.860525" lon="-3.868730">
        <ele>1349.618</ele>
        <time>2021-07-31T13:59:46Z</time>
      </trkpt>
      <trkpt lat="40.860550" lon="-3.868740">
        <ele>1349.539</ele>
        <time>2021-07-31T13:59:48Z</time>
      </trkpt>
      <trkpt lat="40.860579" lon="-3.868748">
        <ele>1348.901</ele>
        <time>2021-07-31T13:59:50Z</time>
      </trkpt>
      <trkpt lat="40.860608" lon="-3.868745">
        <ele>1348.221</ele>
        <time>2021-07-31T13:59:52Z</time>
      </trkpt>
      <trkpt lat="40.860627" lon="-3.868750">
        <ele>1347.808</ele>
        <time>2021-07-31T13:59:55Z</time>
      </trkpt>
      <trkpt lat="40.860650" lon="-3.868770">
        <ele>1347.530</ele>
        <time>2021-07-31T14:00:01Z</time>
      </trkpt>
      <trkpt lat="40.860672" lon="-3.868787">
        <ele>1347.182</ele>
        <time>2021-07-31T14:00:04Z</time>
      </trkpt>
      <trkpt lat="40.860694" lon="-3.868798">
        <ele>1346.789</ele>
        <time>2021-07-31T14:00:06Z</time>
      </trkpt>
      <trkpt lat="40.860714" lon="-3.868807">
        <ele>1346.346</ele>
        <time>2021-07-31T14:00:07Z</time>
      </trkpt>
      <trkpt lat="40.860739" lon="-3.868818">
        <ele>1345.878</ele>
        <time>2021-07-31T14:00:09Z</time>
      </trkpt>
      <trkpt lat="40.860765" lon="-3.868835">
        <ele>1345.325</ele>
        <time>2021-07-31T14:00:12Z</time>
      </trkpt>
      <trkpt lat="40.860787" lon="-3.868865">
        <ele>1345.055</ele>
        <time>2021-07-31T14:00:14Z</time>
      </trkpt>
      <trkpt lat="40.860806" lon="-3.868888">
        <ele>1344.743</ele>
        <time>2021-07-31T14:00:17Z</time>
      </trkpt>
      <trkpt lat="40.860819" lon="-3.868905">
        <ele>1344.528</ele>
        <time>2021-07-31T14:00:19Z</time>
      </trkpt>
      <trkpt lat="40.860835" lon="-3.868926">
        <ele>1344.489</ele>
        <time>2021-07-31T14:00:21Z</time>
      </trkpt>
      <trkpt lat="40.860851" lon="-3.868952">
        <ele>1344.517</ele>
        <time>2021-07-31T14:00:23Z</time>
      </trkpt>
      <trkpt lat="40.860870" lon="-3.868972">
        <ele>1344.508</ele>
        <time>2021-07-31T14:00:25Z</time>
      </trkpt>
      <trkpt lat="40.860890" lon="-3.868993">
        <ele>1344.499</ele>
        <time>2021-07-31T14:00:27Z</time>
      </trkpt>
      <trkpt lat="40.860909" lon="-3.869020">
        <ele>1344.581</ele>
        <time>2021-07-31T14:00:29Z</time>
      </trkpt>
      <trkpt lat="40.860925" lon="-3.869052">
        <ele>1344.668</ele>
        <time>2021-07-31T14:00:31Z</time>
      </trkpt>
      <trkpt lat="40.860938" lon="-3.869075">
        <ele>1344.615</ele>
        <time>2021-07-31T14:00:33Z</time>
      </trkpt>
      <trkpt lat="40.860957" lon="-3.869090">
        <ele>1344.537</ele>
        <time>2021-07-31T14:00:35Z</time>
      </trkpt>
      <trkpt lat="40.860982" lon="-3.869100">
        <ele>1344.324</ele>
        <time>2021-07-31T14:00:37Z</time>
      </trkpt>
      <trkpt lat="40.861005" lon="-3.869112">
        <ele>1344.124</ele>
        <time>2021-07-31T14:00:39Z</time>
      </trkpt>
      <trkpt lat="40.861024" lon="-3.869134">
        <ele>1344.042</ele>
        <time>2021-07-31T14:00:41Z</time>
      </trkpt>
      <trkpt lat="40.861037" lon="-3.869156">
        <ele>1344.018</ele>
        <time>2021-07-31T14:00:43Z</time>
      </trkpt>
      <trkpt lat="40.861062" lon="-3.869182">
        <ele>1343.998</ele>
        <time>2021-07-31T14:00:45Z</time>
      </trkpt>
      <trkpt lat="40.861082" lon="-3.869212">
        <ele>1343.917</ele>
        <time>2021-07-31T14:00:47Z</time>
      </trkpt>
      <trkpt lat="40.861101" lon="-3.869243">
        <ele>1344.008</ele>
        <time>2021-07-31T14:00:49Z</time>
      </trkpt>
      <trkpt lat="40.861117" lon="-3.869260">
        <ele>1343.928</ele>
        <time>2021-07-31T14:00:51Z</time>
      </trkpt>
      <trkpt lat="40.861142" lon="-3.869278">
        <ele>1343.990</ele>
        <time>2021-07-31T14:00:53Z</time>
      </trkpt>
      <trkpt lat="40.861168" lon="-3.869293">
        <ele>1343.857</ele>
        <time>2021-07-31T14:00:55Z</time>
      </trkpt>
      <trkpt lat="40.861194" lon="-3.869303">
        <ele>1343.644</ele>
        <time>2021-07-31T14:00:57Z</time>
      </trkpt>
      <trkpt lat="40.861222" lon="-3.869305">
        <ele>1343.366</ele>
        <time>2021-07-31T14:00:59Z</time>
      </trkpt>
      <trkpt lat="40.861248" lon="-3.869318">
        <ele>1343.283</ele>
        <time>2021-07-31T14:01:01Z</time>
      </trkpt>
      <trkpt lat="40.861274" lon="-3.869328">
        <ele>1343.063</ele>
        <time>2021-07-31T14:01:03Z</time>
      </trkpt>
      <trkpt lat="40.861293" lon="-3.869338">
        <ele>1342.981</ele>
        <time>2021-07-31T14:01:05Z</time>
      </trkpt>
      <trkpt lat="40.861325" lon="-3.869343">
        <ele>1342.679</ele>
        <time>2021-07-31T14:01:07Z</time>
      </trkpt>
      <trkpt lat="40.861350" lon="-3.869347">
        <ele>1342.405</ele>
        <time>2021-07-31T14:01:09Z</time>
      </trkpt>
      <trkpt lat="40.861373" lon="-3.869348">
        <ele>1342.125</ele>
        <time>2021-07-31T14:01:11Z</time>
      </trkpt>
      <trkpt lat="40.861402" lon="-3.869342">
        <ele>1341.808</ele>
        <time>2021-07-31T14:01:13Z</time>
      </trkpt>
      <trkpt lat="40.861421" lon="-3.869337">
        <ele>1341.784</ele>
        <time>2021-07-31T14:01:14Z</time>
      </trkpt>
      <trkpt lat="40.861440" lon="-3.869328">
        <ele>1341.556</ele>
        <time>2021-07-31T14:01:15Z</time>
      </trkpt>
      <trkpt lat="40.861466" lon="-3.869316">
        <ele>1341.253</ele>
        <time>2021-07-31T14:01:17Z</time>
      </trkpt>
      <trkpt lat="40.861488" lon="-3.869303">
        <ele>1340.960</ele>
        <time>2021-07-31T14:01:19Z</time>
      </trkpt>
      <trkpt lat="40.861510" lon="-3.869290">
        <ele>1340.742</ele>
        <time>2021-07-31T14:01:21Z</time>
      </trkpt>
      <trkpt lat="40.861539" lon="-3.869276">
        <ele>1340.489</ele>
        <time>2021-07-31T14:01:23Z</time>
      </trkpt>
      <trkpt lat="40.861565" lon="-3.869260">
        <ele>1340.239</ele>
        <time>2021-07-31T14:01:25Z</time>
      </trkpt>
      <trkpt lat="40.861590" lon="-3.869237">
        <ele>1339.987</ele>
        <time>2021-07-31T14:01:27Z</time>
      </trkpt>
      <trkpt lat="40.861613" lon="-3.869217">
        <ele>1339.649</ele>
        <time>2021-07-31T14:01:29Z</time>
      </trkpt>
      <trkpt lat="40.861642" lon="-3.869202">
        <ele>1339.402</ele>
        <time>2021-07-31T14:01:31Z</time>
      </trkpt>
      <trkpt lat="40.861664" lon="-3.869195">
        <ele>1339.222</ele>
        <time>2021-07-31T14:01:33Z</time>
      </trkpt>
      <trkpt lat="40.861686" lon="-3.869180">
        <ele>1338.808</ele>
        <time>2021-07-31T14:01:35Z</time>
      </trkpt>
      <trkpt lat="40.861706" lon="-3.869170">
        <ele>1338.521</ele>
        <time>2021-07-31T14:01:37Z</time>
      </trkpt>
      <trkpt lat="40.861738" lon="-3.869162">
        <ele>1337.963</ele>
        <time>2021-07-31T14:01:39Z</time>
      </trkpt>
      <trkpt lat="40.861763" lon="-3.869158">
        <ele>1337.540</ele>
        <time>2021-07-31T14:01:41Z</time>
      </trkpt>
      <trkpt lat="40.861792" lon="-3.869152">
        <ele>1337.087</ele>
        <time>2021-07-31T14:01:43Z</time>
      </trkpt>
      <trkpt lat="40.861818" lon="-3.869150">
        <ele>1336.679</ele>
        <time>2021-07-31T14:01:45Z</time>
      </trkpt>
      <trkpt lat="40.861837" lon="-3.869160">
        <ele>1336.416</ele>
        <time>2021-07-31T14:01:47Z</time>
      </trkpt>
      <trkpt lat="40.861859" lon="-3.869168">
        <ele>1336.276</ele>
        <time>2021-07-31T14:01:49Z</time>
      </trkpt>
      <trkpt lat="40.861878" lon="-3.869172">
        <ele>1336.034</ele>
        <time>2021-07-31T14:01:53Z</time>
      </trkpt>
      <trkpt lat="40.861891" lon="-3.869198">
        <ele>1336.195</ele>
        <time>2021-07-31T14:01:57Z</time>
      </trkpt>
      <trkpt lat="40.861910" lon="-3.869215">
        <ele>1336.049</ele>
        <time>2021-07-31T14:01:59Z</time>
      </trkpt>
      <trkpt lat="40.861930" lon="-3.869237">
        <ele>1336.023</ele>
        <time>2021-07-31T14:02:01Z</time>
      </trkpt>
      <trkpt lat="40.861946" lon="-3.869265">
        <ele>1336.008</ele>
        <time>2021-07-31T14:02:03Z</time>
      </trkpt>
      <trkpt lat="40.861962" lon="-3.869292">
        <ele>1336.076</ele>
        <time>2021-07-31T14:02:05Z</time>
      </trkpt>
      <trkpt lat="40.861981" lon="-3.869312">
        <ele>1335.958</ele>
        <time>2021-07-31T14:02:07Z</time>
      </trkpt>
      <trkpt lat="40.862000" lon="-3.869330">
        <ele>1335.855</ele>
        <time>2021-07-31T14:02:09Z</time>
      </trkpt>
      <trkpt lat="40.862016" lon="-3.869360">
        <ele>1335.812</ele>
        <time>2021-07-31T14:02:11Z</time>
      </trkpt>
      <trkpt lat="40.862026" lon="-3.869390">
        <ele>1335.974</ele>
        <time>2021-07-31T14:02:13Z</time>
      </trkpt>
      <trkpt lat="40.862038" lon="-3.869415">
        <ele>1336.051</ele>
        <time>2021-07-31T14:02:15Z</time>
      </trkpt>
      <trkpt lat="40.862058" lon="-3.869448">
        <ele>1336.081</ele>
        <time>2021-07-31T14:02:17Z</time>
      </trkpt>
      <trkpt lat="40.862083" lon="-3.869467">
        <ele>1335.669</ele>
        <time>2021-07-31T14:02:19Z</time>
      </trkpt>
      <trkpt lat="40.862102" lon="-3.869493">
        <ele>1335.374</ele>
        <time>2021-07-31T14:02:21Z</time>
      </trkpt>
      <trkpt lat="40.862125" lon="-3.869515">
        <ele>1335.056</ele>
        <time>2021-07-31T14:02:23Z</time>
      </trkpt>
      <trkpt lat="40.862144" lon="-3.869535">
        <ele>1334.721</ele>
        <time>2021-07-31T14:02:25Z</time>
      </trkpt>
      <trkpt lat="40.862163" lon="-3.869550">
        <ele>1334.408</ele>
        <time>2021-07-31T14:02:27Z</time>
      </trkpt>
      <trkpt lat="40.862176" lon="-3.869567">
        <ele>1334.394</ele>
        <time>2021-07-31T14:02:29Z</time>
      </trkpt>
      <trkpt lat="40.862189" lon="-3.869585">
        <ele>1334.156</ele>
        <time>2021-07-31T14:02:31Z</time>
      </trkpt>
      <trkpt lat="40.862214" lon="-3.869607">
        <ele>1333.753</ele>
        <time>2021-07-31T14:02:33Z</time>
      </trkpt>
      <trkpt lat="40.862227" lon="-3.869633">
        <ele>1333.690</ele>
        <time>2021-07-31T14:02:35Z</time>
      </trkpt>
      <trkpt lat="40.862253" lon="-3.869662">
        <ele>1333.322</ele>
        <time>2021-07-31T14:02:37Z</time>
      </trkpt>
      <trkpt lat="40.862266" lon="-3.869685">
        <ele>1333.139</ele>
        <time>2021-07-31T14:02:39Z</time>
      </trkpt>
      <trkpt lat="40.862282" lon="-3.869712">
        <ele>1332.929</ele>
        <time>2021-07-31T14:02:41Z</time>
      </trkpt>
      <trkpt lat="40.862294" lon="-3.869742">
        <ele>1332.747</ele>
        <time>2021-07-31T14:02:43Z</time>
      </trkpt>
      <trkpt lat="40.862307" lon="-3.869768">
        <ele>1332.474</ele>
        <time>2021-07-31T14:02:45Z</time>
      </trkpt>
      <trkpt lat="40.862320" lon="-3.869797">
        <ele>1332.156</ele>
        <time>2021-07-31T14:02:47Z</time>
      </trkpt>
      <trkpt lat="40.862323" lon="-3.869832">
        <ele>1331.921</ele>
        <time>2021-07-31T14:02:49Z</time>
      </trkpt>
      <trkpt lat="40.862333" lon="-3.869870">
        <ele>1331.708</ele>
        <time>2021-07-31T14:02:51Z</time>
      </trkpt>
      <trkpt lat="40.862339" lon="-3.869902">
        <ele>1331.534</ele>
        <time>2021-07-31T14:02:53Z</time>
      </trkpt>
      <trkpt lat="40.862355" lon="-3.869932">
        <ele>1331.266</ele>
        <time>2021-07-31T14:02:55Z</time>
      </trkpt>
      <trkpt lat="40.862362" lon="-3.869967">
        <ele>1331.073</ele>
        <time>2021-07-31T14:02:57Z</time>
      </trkpt>
      <trkpt lat="40.862374" lon="-3.869988">
        <ele>1330.870</ele>
        <time>2021-07-31T14:02:59Z</time>
      </trkpt>
      <trkpt lat="40.862384" lon="-3.870013">
        <ele>1330.742</ele>
        <time>2021-07-31T14:03:01Z</time>
      </trkpt>
      <trkpt lat="40.862394" lon="-3.870042">
        <ele>1330.679</ele>
        <time>2021-07-31T14:03:03Z</time>
      </trkpt>
      <trkpt lat="40.862400" lon="-3.870065">
        <ele>1330.599</ele>
        <time>2021-07-31T14:03:06Z</time>
      </trkpt>
      <trkpt lat="40.862403" lon="-3.870108">
        <ele>1330.597</ele>
        <time>2021-07-31T14:03:51Z</time>
      </trkpt>
      <trkpt lat="40.862413" lon="-3.870133">
        <ele>1330.467</ele>
        <time>2021-07-31T14:03:52Z</time>
      </trkpt>
      <trkpt lat="40.862413" lon="-3.870158">
        <ele>1330.481</ele>
        <time>2021-07-31T14:03:53Z</time>
      </trkpt>
      <trkpt lat="40.862416" lon="-3.870206">
        <ele>1330.419</ele>
        <time>2021-07-31T14:03:55Z</time>
      </trkpt>
      <trkpt lat="40.862419" lon="-3.870247">
        <ele>1330.408</ele>
        <time>2021-07-31T14:03:57Z</time>
      </trkpt>
      <trkpt lat="40.862426" lon="-3.870285">
        <ele>1330.473</ele>
        <time>2021-07-31T14:03:59Z</time>
      </trkpt>
      <trkpt lat="40.862432" lon="-3.870312">
        <ele>1330.325</ele>
        <time>2021-07-31T14:04:01Z</time>
      </trkpt>
      <trkpt lat="40.862438" lon="-3.870346">
        <ele>1330.362</ele>
        <time>2021-07-31T14:04:03Z</time>
      </trkpt>
      <trkpt lat="40.862445" lon="-3.870370">
        <ele>1330.319</ele>
        <time>2021-07-31T14:04:05Z</time>
      </trkpt>
      <trkpt lat="40.862451" lon="-3.870402">
        <ele>1330.221</ele>
        <time>2021-07-31T14:04:07Z</time>
      </trkpt>
      <trkpt lat="40.862454" lon="-3.870428">
        <ele>1330.358</ele>
        <time>2021-07-31T14:04:09Z</time>
      </trkpt>
      <trkpt lat="40.862464" lon="-3.870457">
        <ele>1330.238</ele>
        <time>2021-07-31T14:04:11Z</time>
      </trkpt>
      <trkpt lat="40.862474" lon="-3.870487">
        <ele>1330.266</ele>
        <time>2021-07-31T14:04:13Z</time>
      </trkpt>
      <trkpt lat="40.862480" lon="-3.870510">
        <ele>1330.163</ele>
        <time>2021-07-31T14:04:15Z</time>
      </trkpt>
      <trkpt lat="40.862493" lon="-3.870550">
        <ele>1330.144</ele>
        <time>2021-07-31T14:04:17Z</time>
      </trkpt>
      <trkpt lat="40.862502" lon="-3.870590">
        <ele>1330.018</ele>
        <time>2021-07-31T14:04:19Z</time>
      </trkpt>
      <trkpt lat="40.862512" lon="-3.870628">
        <ele>1329.808</ele>
        <time>2021-07-31T14:04:21Z</time>
      </trkpt>
      <trkpt lat="40.862518" lon="-3.870662">
        <ele>1329.833</ele>
        <time>2021-07-31T14:04:23Z</time>
      </trkpt>
      <trkpt lat="40.862534" lon="-3.870693">
        <ele>1329.695</ele>
        <time>2021-07-31T14:04:25Z</time>
      </trkpt>
      <trkpt lat="40.862550" lon="-3.870716">
        <ele>1329.472</ele>
        <time>2021-07-31T14:04:27Z</time>
      </trkpt>
      <trkpt lat="40.862563" lon="-3.870752">
        <ele>1329.319</ele>
        <time>2021-07-31T14:04:29Z</time>
      </trkpt>
      <trkpt lat="40.862582" lon="-3.870788">
        <ele>1329.161</ele>
        <time>2021-07-31T14:04:31Z</time>
      </trkpt>
      <trkpt lat="40.862598" lon="-3.870820">
        <ele>1328.948</ele>
        <time>2021-07-31T14:04:33Z</time>
      </trkpt>
      <trkpt lat="40.862618" lon="-3.870847">
        <ele>1328.748</ele>
        <time>2021-07-31T14:04:35Z</time>
      </trkpt>
      <trkpt lat="40.862637" lon="-3.870880">
        <ele>1328.696</ele>
        <time>2021-07-31T14:04:37Z</time>
      </trkpt>
      <trkpt lat="40.862659" lon="-3.870910">
        <ele>1328.413</ele>
        <time>2021-07-31T14:04:39Z</time>
      </trkpt>
      <trkpt lat="40.862682" lon="-3.870935">
        <ele>1328.343</ele>
        <time>2021-07-31T14:04:41Z</time>
      </trkpt>
      <trkpt lat="40.862701" lon="-3.870967">
        <ele>1328.207</ele>
        <time>2021-07-31T14:04:43Z</time>
      </trkpt>
      <trkpt lat="40.862714" lon="-3.870985">
        <ele>1328.108</ele>
        <time>2021-07-31T14:04:44Z</time>
      </trkpt>
      <trkpt lat="40.862739" lon="-3.871017">
        <ele>1328.098</ele>
        <time>2021-07-31T14:04:46Z</time>
      </trkpt>
      <trkpt lat="40.862758" lon="-3.871038">
        <ele>1327.980</ele>
        <time>2021-07-31T14:04:48Z</time>
      </trkpt>
      <trkpt lat="40.862774" lon="-3.871058">
        <ele>1327.857</ele>
        <time>2021-07-31T14:04:50Z</time>
      </trkpt>
      <trkpt lat="40.862794" lon="-3.871083">
        <ele>1327.754</ele>
        <time>2021-07-31T14:04:52Z</time>
      </trkpt>
      <trkpt lat="40.862816" lon="-3.871112">
        <ele>1327.536</ele>
        <time>2021-07-31T14:04:54Z</time>
      </trkpt>
      <trkpt lat="40.862832" lon="-3.871132">
        <ele>1327.353</ele>
        <time>2021-07-31T14:04:55Z</time>
      </trkpt>
      <trkpt lat="40.862858" lon="-3.871163">
        <ele>1327.033</ele>
        <time>2021-07-31T14:04:57Z</time>
      </trkpt>
      <trkpt lat="40.862874" lon="-3.871183">
        <ele>1326.971</ele>
        <time>2021-07-31T14:04:58Z</time>
      </trkpt>
      <trkpt lat="40.862890" lon="-3.871195">
        <ele>1326.712</ele>
        <time>2021-07-31T14:04:59Z</time>
      </trkpt>
      <trkpt lat="40.862915" lon="-3.871198">
        <ele>1326.332</ele>
        <time>2021-07-31T14:05:01Z</time>
      </trkpt>
      <trkpt lat="40.862941" lon="-3.871212">
        <ele>1326.005</ele>
        <time>2021-07-31T14:05:03Z</time>
      </trkpt>
      <trkpt lat="40.862960" lon="-3.871222">
        <ele>1325.808</ele>
        <time>2021-07-31T14:05:05Z</time>
      </trkpt>
      <trkpt lat="40.862989" lon="-3.871242">
        <ele>1325.498</ele>
        <time>2021-07-31T14:05:07Z</time>
      </trkpt>
      <trkpt lat="40.863014" lon="-3.871262">
        <ele>1325.140</ele>
        <time>2021-07-31T14:05:09Z</time>
      </trkpt>
      <trkpt lat="40.863030" lon="-3.871275">
        <ele>1325.057</ele>
        <time>2021-07-31T14:05:10Z</time>
      </trkpt>
      <trkpt lat="40.863053" lon="-3.871295">
        <ele>1324.794</ele>
        <time>2021-07-31T14:05:12Z</time>
      </trkpt>
      <trkpt lat="40.863072" lon="-3.871312">
        <ele>1324.426</ele>
        <time>2021-07-31T14:05:14Z</time>
      </trkpt>
      <trkpt lat="40.863091" lon="-3.871323">
        <ele>1324.013</ele>
        <time>2021-07-31T14:05:16Z</time>
      </trkpt>
      <trkpt lat="40.863110" lon="-3.871345">
        <ele>1323.793</ele>
        <time>2021-07-31T14:05:18Z</time>
      </trkpt>
      <trkpt lat="40.863130" lon="-3.871368">
        <ele>1323.381</ele>
        <time>2021-07-31T14:05:20Z</time>
      </trkpt>
      <trkpt lat="40.863152" lon="-3.871392">
        <ele>1322.932</ele>
        <time>2021-07-31T14:05:22Z</time>
      </trkpt>
      <trkpt lat="40.863171" lon="-3.871416">
        <ele>1322.692</ele>
        <time>2021-07-31T14:05:25Z</time>
      </trkpt>
      <trkpt lat="40.863187" lon="-3.871435">
        <ele>1322.311</ele>
        <time>2021-07-31T14:05:27Z</time>
      </trkpt>
      <trkpt lat="40.863200" lon="-3.871467">
        <ele>1322.208</ele>
        <time>2021-07-31T14:05:29Z</time>
      </trkpt>
      <trkpt lat="40.863213" lon="-3.871485">
        <ele>1321.970</ele>
        <time>2021-07-31T14:05:30Z</time>
      </trkpt>
      <trkpt lat="40.863226" lon="-3.871513">
        <ele>1321.862</ele>
        <time>2021-07-31T14:05:32Z</time>
      </trkpt>
      <trkpt lat="40.863232" lon="-3.871542">
        <ele>1321.729</ele>
        <time>2021-07-31T14:05:34Z</time>
      </trkpt>
      <trkpt lat="40.863248" lon="-3.871554">
        <ele>1321.496</ele>
        <time>2021-07-31T14:05:36Z</time>
      </trkpt>
      <trkpt lat="40.863267" lon="-3.871580">
        <ele>1321.118</ele>
        <time>2021-07-31T14:05:38Z</time>
      </trkpt>
      <trkpt lat="40.863277" lon="-3.871605">
        <ele>1321.075</ele>
        <time>2021-07-31T14:05:40Z</time>
      </trkpt>
      <trkpt lat="40.863286" lon="-3.871632">
        <ele>1320.955</ele>
        <time>2021-07-31T14:05:42Z</time>
      </trkpt>
      <trkpt lat="40.863296" lon="-3.871667">
        <ele>1320.843</ele>
        <time>2021-07-31T14:05:44Z</time>
      </trkpt>
      <trkpt lat="40.863312" lon="-3.871693">
        <ele>1320.942</ele>
        <time>2021-07-31T14:05:46Z</time>
      </trkpt>
      <trkpt lat="40.863325" lon="-3.871715">
        <ele>1321.022</ele>
        <time>2021-07-31T14:05:48Z</time>
      </trkpt>
      <trkpt lat="40.863338" lon="-3.871742">
        <ele>1321.214</ele>
        <time>2021-07-31T14:05:51Z</time>
      </trkpt>
      <trkpt lat="40.863357" lon="-3.871770">
        <ele>1321.308</ele>
        <time>2021-07-31T14:05:53Z</time>
      </trkpt>
      <trkpt lat="40.863373" lon="-3.871805">
        <ele>1321.471</ele>
        <time>2021-07-31T14:05:55Z</time>
      </trkpt>
      <trkpt lat="40.863379" lon="-3.871838">
        <ele>1321.873</ele>
        <time>2021-07-31T14:05:57Z</time>
      </trkpt>
      <trkpt lat="40.863389" lon="-3.871867">
        <ele>1322.090</ele>
        <time>2021-07-31T14:05:59Z</time>
      </trkpt>
      <trkpt lat="40.863398" lon="-3.871905">
        <ele>1322.397</ele>
        <time>2021-07-31T14:06:01Z</time>
      </trkpt>
      <trkpt lat="40.863411" lon="-3.871938">
        <ele>1322.479</ele>
        <time>2021-07-31T14:06:03Z</time>
      </trkpt>
      <trkpt lat="40.863430" lon="-3.871968">
        <ele>1322.256</ele>
        <time>2021-07-31T14:06:05Z</time>
      </trkpt>
      <trkpt lat="40.863459" lon="-3.871998">
        <ele>1321.686</ele>
        <time>2021-07-31T14:06:07Z</time>
      </trkpt>
      <trkpt lat="40.863469" lon="-3.872023">
        <ele>1321.624</ele>
        <time>2021-07-31T14:06:08Z</time>
      </trkpt>
      <trkpt lat="40.863485" lon="-3.872045">
        <ele>1321.374</ele>
        <time>2021-07-31T14:06:10Z</time>
      </trkpt>
      <trkpt lat="40.863507" lon="-3.872075">
        <ele>1320.856</ele>
        <time>2021-07-31T14:06:14Z</time>
      </trkpt>
      <trkpt lat="40.863526" lon="-3.872093">
        <ele>1320.321</ele>
        <time>2021-07-31T14:06:16Z</time>
      </trkpt>
      <trkpt lat="40.863536" lon="-3.872122">
        <ele>1320.208</ele>
        <time>2021-07-31T14:06:18Z</time>
      </trkpt>
      <trkpt lat="40.863549" lon="-3.872143">
        <ele>1319.914</ele>
        <time>2021-07-31T14:06:20Z</time>
      </trkpt>
      <trkpt lat="40.863558" lon="-3.872182">
        <ele>1319.956</ele>
        <time>2021-07-31T14:06:22Z</time>
      </trkpt>
      <trkpt lat="40.863574" lon="-3.872210">
        <ele>1319.593</ele>
        <time>2021-07-31T14:06:24Z</time>
      </trkpt>
      <trkpt lat="40.863584" lon="-3.872233">
        <ele>1319.270</ele>
        <time>2021-07-31T14:06:26Z</time>
      </trkpt>
      <trkpt lat="40.863594" lon="-3.872267">
        <ele>1319.092</ele>
        <time>2021-07-31T14:06:29Z</time>
      </trkpt>
      <trkpt lat="40.863603" lon="-3.872300">
        <ele>1318.929</ele>
        <time>2021-07-31T14:06:31Z</time>
      </trkpt>
      <trkpt lat="40.863606" lon="-3.872333">
        <ele>1319.029</ele>
        <time>2021-07-31T14:06:33Z</time>
      </trkpt>
      <trkpt lat="40.863613" lon="-3.872373">
        <ele>1319.017</ele>
        <time>2021-07-31T14:06:35Z</time>
      </trkpt>
      <trkpt lat="40.863619" lon="-3.872407">
        <ele>1319.074</ele>
        <time>2021-07-31T14:06:37Z</time>
      </trkpt>
      <trkpt lat="40.863626" lon="-3.872440">
        <ele>1319.056</ele>
        <time>2021-07-31T14:06:40Z</time>
      </trkpt>
      <trkpt lat="40.863635" lon="-3.872475">
        <ele>1318.821</ele>
        <time>2021-07-31T14:06:42Z</time>
      </trkpt>
      <trkpt lat="40.863638" lon="-3.872517">
        <ele>1318.808</ele>
        <time>2021-07-31T14:06:44Z</time>
      </trkpt>
      <trkpt lat="40.863645" lon="-3.872552">
        <ele>1318.524</ele>
        <time>2021-07-31T14:06:46Z</time>
      </trkpt>
      <trkpt lat="40.863645" lon="-3.872588">
        <ele>1318.536</ele>
        <time>2021-07-31T14:06:48Z</time>
      </trkpt>
      <trkpt lat="40.863648" lon="-3.872620">
        <ele>1318.393</ele>
        <time>2021-07-31T14:06:50Z</time>
      </trkpt>
      <trkpt lat="40.863648" lon="-3.872653">
        <ele>1318.380</ele>
        <time>2021-07-31T14:06:52Z</time>
      </trkpt>
      <trkpt lat="40.863651" lon="-3.872693">
        <ele>1318.132</ele>
        <time>2021-07-31T14:06:54Z</time>
      </trkpt>
      <trkpt lat="40.863654" lon="-3.872735">
        <ele>1317.939</ele>
        <time>2021-07-31T14:06:56Z</time>
      </trkpt>
      <trkpt lat="40.863658" lon="-3.872782">
        <ele>1317.629</ele>
        <time>2021-07-31T14:06:58Z</time>
      </trkpt>
      <trkpt lat="40.863664" lon="-3.872818">
        <ele>1316.827</ele>
        <time>2021-07-31T14:07:01Z</time>
      </trkpt>
      <trkpt lat="40.863667" lon="-3.872860">
        <ele>1316.148</ele>
        <time>2021-07-31T14:07:03Z</time>
      </trkpt>
      <trkpt lat="40.863664" lon="-3.872895">
        <ele>1315.861</ele>
        <time>2021-07-31T14:07:05Z</time>
      </trkpt>
      <trkpt lat="40.863654" lon="-3.872933">
        <ele>1315.817</ele>
        <time>2021-07-31T14:07:07Z</time>
      </trkpt>
      <trkpt lat="40.863648" lon="-3.872967">
        <ele>1315.608</ele>
        <time>2021-07-31T14:07:09Z</time>
      </trkpt>
      <trkpt lat="40.863645" lon="-3.873000">
        <ele>1315.331</ele>
        <time>2021-07-31T14:07:11Z</time>
      </trkpt>
      <trkpt lat="40.863638" lon="-3.873033">
        <ele>1315.123</ele>
        <time>2021-07-31T14:07:13Z</time>
      </trkpt>
      <trkpt lat="40.863638" lon="-3.873068">
        <ele>1314.760</ele>
        <time>2021-07-31T14:07:15Z</time>
      </trkpt>
      <trkpt lat="40.863638" lon="-3.873095">
        <ele>1314.317</ele>
        <time>2021-07-31T14:07:17Z</time>
      </trkpt>
      <trkpt lat="40.863629" lon="-3.873122">
        <ele>1314.319</ele>
        <time>2021-07-31T14:07:19Z</time>
      </trkpt>
      <trkpt lat="40.863629" lon="-3.873146">
        <ele>1314.026</ele>
        <time>2021-07-31T14:07:21Z</time>
      </trkpt>
      <trkpt lat="40.863616" lon="-3.873163">
        <ele>1314.346</ele>
        <time>2021-07-31T14:07:23Z</time>
      </trkpt>
      <trkpt lat="40.863603" lon="-3.873185">
        <ele>1314.454</ele>
        <time>2021-07-31T14:07:25Z</time>
      </trkpt>
      <trkpt lat="40.863584" lon="-3.873205">
        <ele>1314.935</ele>
        <time>2021-07-31T14:07:27Z</time>
      </trkpt>
      <trkpt lat="40.863571" lon="-3.873237">
        <ele>1314.886</ele>
        <time>2021-07-31T14:07:30Z</time>
      </trkpt>
      <trkpt lat="40.863558" lon="-3.873270">
        <ele>1314.814</ele>
        <time>2021-07-31T14:07:32Z</time>
      </trkpt>
      <trkpt lat="40.863546" lon="-3.873314">
        <ele>1314.408</ele>
        <time>2021-07-31T14:07:34Z</time>
      </trkpt>
      <trkpt lat="40.863533" lon="-3.873335">
        <ele>1314.550</ele>
        <time>2021-07-31T14:07:35Z</time>
      </trkpt>
      <trkpt lat="40.863530" lon="-3.873363">
        <ele>1314.162</ele>
        <time>2021-07-31T14:07:37Z</time>
      </trkpt>
      <trkpt lat="40.863530" lon="-3.873398">
        <ele>1313.659</ele>
        <time>2021-07-31T14:07:39Z</time>
      </trkpt>
      <trkpt lat="40.863520" lon="-3.873423">
        <ele>1313.466</ele>
        <time>2021-07-31T14:07:41Z</time>
      </trkpt>
      <trkpt lat="40.863494" lon="-3.873447">
        <ele>1313.848</ele>
        <time>2021-07-31T14:07:43Z</time>
      </trkpt>
      <trkpt lat="40.863478" lon="-3.873458">
        <ele>1314.165</ele>
        <time>2021-07-31T14:07:44Z</time>
      </trkpt>
      <trkpt lat="40.863459" lon="-3.873475">
        <ele>1314.315</ele>
        <time>2021-07-31T14:07:46Z</time>
      </trkpt>
      <trkpt lat="40.863440" lon="-3.873498">
        <ele>1314.463</ele>
        <time>2021-07-31T14:07:48Z</time>
      </trkpt>
      <trkpt lat="40.863418" lon="-3.873532">
        <ele>1314.416</ele>
        <time>2021-07-31T14:07:51Z</time>
      </trkpt>
      <trkpt lat="40.863398" lon="-3.873552">
        <ele>1314.576</ele>
        <time>2021-07-31T14:07:53Z</time>
      </trkpt>
      <trkpt lat="40.863379" lon="-3.873577">
        <ele>1314.513</ele>
        <time>2021-07-31T14:07:55Z</time>
      </trkpt>
      <trkpt lat="40.863370" lon="-3.873598">
        <ele>1314.308</ele>
        <time>2021-07-31T14:07:57Z</time>
      </trkpt>
      <trkpt lat="40.863350" lon="-3.873618">
        <ele>1314.548</ele>
        <time>2021-07-31T14:08:00Z</time>
      </trkpt>
      <trkpt lat="40.863331" lon="-3.873632">
        <ele>1314.750</ele>
        <time>2021-07-31T14:08:02Z</time>
      </trkpt>
      <trkpt lat="40.863315" lon="-3.873647">
        <ele>1314.727</ele>
        <time>2021-07-31T14:08:04Z</time>
      </trkpt>
      <trkpt lat="40.863299" lon="-3.873677">
        <ele>1314.554</ele>
        <time>2021-07-31T14:08:06Z</time>
      </trkpt>
      <trkpt lat="40.863290" lon="-3.873710">
        <ele>1314.156</ele>
        <time>2021-07-31T14:08:08Z</time>
      </trkpt>
      <trkpt lat="40.863270" lon="-3.873743">
        <ele>1314.063</ele>
        <time>2021-07-31T14:08:10Z</time>
      </trkpt>
      <trkpt lat="40.863261" lon="-3.873765">
        <ele>1313.823</ele>
        <time>2021-07-31T14:08:11Z</time>
      </trkpt>
      <trkpt lat="40.863258" lon="-3.873792">
        <ele>1313.511</ele>
        <time>2021-07-31T14:08:12Z</time>
      </trkpt>
      <trkpt lat="40.863248" lon="-3.873828">
        <ele>1313.126</ele>
        <time>2021-07-31T14:08:14Z</time>
      </trkpt>
      <trkpt lat="40.863235" lon="-3.873846">
        <ele>1313.147</ele>
        <time>2021-07-31T14:08:15Z</time>
      </trkpt>
      <trkpt lat="40.863232" lon="-3.873870">
        <ele>1312.811</ele>
        <time>2021-07-31T14:08:16Z</time>
      </trkpt>
      <trkpt lat="40.863219" lon="-3.873915">
        <ele>1312.708</ele>
        <time>2021-07-31T14:08:18Z</time>
      </trkpt>
      <trkpt lat="40.863210" lon="-3.873947">
        <ele>1312.729</ele>
        <time>2021-07-31T14:08:20Z</time>
      </trkpt>
      <trkpt lat="40.863194" lon="-3.873972">
        <ele>1312.971</ele>
        <time>2021-07-31T14:08:22Z</time>
      </trkpt>
      <trkpt lat="40.863178" lon="-3.874002">
        <ele>1313.138</ele>
        <time>2021-07-31T14:08:24Z</time>
      </trkpt>
      <trkpt lat="40.863168" lon="-3.874045">
        <ele>1313.045</ele>
        <time>2021-07-31T14:08:26Z</time>
      </trkpt>
      <trkpt lat="40.863162" lon="-3.874075">
        <ele>1313.037</ele>
        <time>2021-07-31T14:08:28Z</time>
      </trkpt>
      <trkpt lat="40.863155" lon="-3.874110">
        <ele>1312.954</ele>
        <time>2021-07-31T14:08:30Z</time>
      </trkpt>
      <trkpt lat="40.863152" lon="-3.874148">
        <ele>1312.734</ele>
        <time>2021-07-31T14:08:32Z</time>
      </trkpt>
      <trkpt lat="40.863152" lon="-3.874180">
        <ele>1312.472</ele>
        <time>2021-07-31T14:08:34Z</time>
      </trkpt>
      <trkpt lat="40.863139" lon="-3.874213">
        <ele>1312.478</ele>
        <time>2021-07-31T14:08:36Z</time>
      </trkpt>
      <trkpt lat="40.863133" lon="-3.874243">
        <ele>1312.333</ele>
        <time>2021-07-31T14:08:38Z</time>
      </trkpt>
      <trkpt lat="40.863130" lon="-3.874267">
        <ele>1312.126</ele>
        <time>2021-07-31T14:08:40Z</time>
      </trkpt>
      <trkpt lat="40.863120" lon="-3.874295">
        <ele>1312.108</ele>
        <time>2021-07-31T14:08:43Z</time>
      </trkpt>
      <trkpt lat="40.863130" lon="-3.874315">
        <ele>1311.794</ele>
        <time>2021-07-31T14:08:44Z</time>
      </trkpt>
      <trkpt lat="40.863142" lon="-3.874354">
        <ele>1311.026</ele>
        <time>2021-07-31T14:08:46Z</time>
      </trkpt>
      <trkpt lat="40.863155" lon="-3.874388">
        <ele>1310.463</ele>
        <time>2021-07-31T14:08:47Z</time>
      </trkpt>
      <trkpt lat="40.863162" lon="-3.874412">
        <ele>1310.050</ele>
        <time>2021-07-31T14:08:48Z</time>
      </trkpt>
      <trkpt lat="40.863162" lon="-3.874440">
        <ele>1309.732</ele>
        <time>2021-07-31T14:08:50Z</time>
      </trkpt>
      <trkpt lat="40.863155" lon="-3.874468">
        <ele>1309.769</ele>
        <time>2021-07-31T14:08:52Z</time>
      </trkpt>
      <trkpt lat="40.863162" lon="-3.874493">
        <ele>1309.469</ele>
        <time>2021-07-31T14:08:54Z</time>
      </trkpt>
      <trkpt lat="40.863171" lon="-3.874535">
        <ele>1308.937</ele>
        <time>2021-07-31T14:08:56Z</time>
      </trkpt>
      <trkpt lat="40.863178" lon="-3.874558">
        <ele>1308.553</ele>
        <time>2021-07-31T14:08:57Z</time>
      </trkpt>
      <trkpt lat="40.863181" lon="-3.874593">
        <ele>1308.204</ele>
        <time>2021-07-31T14:08:59Z</time>
      </trkpt>
      <trkpt lat="40.863174" lon="-3.874633">
        <ele>1308.114</ele>
        <time>2021-07-31T14:09:01Z</time>
      </trkpt>
      <trkpt lat="40.863178" lon="-3.874672">
        <ele>1307.708</ele>
        <time>2021-07-31T14:09:03Z</time>
      </trkpt>
      <trkpt lat="40.863190" lon="-3.874688">
        <ele>1307.322</ele>
        <time>2021-07-31T14:09:04Z</time>
      </trkpt>
      <trkpt lat="40.863194" lon="-3.874727">
        <ele>1307.044</ele>
        <time>2021-07-31T14:09:06Z</time>
      </trkpt>
      <trkpt lat="40.863194" lon="-3.874763">
        <ele>1306.831</ele>
        <time>2021-07-31T14:09:07Z</time>
      </trkpt>
      <trkpt lat="40.863194" lon="-3.874800">
        <ele>1306.678</ele>
        <time>2021-07-31T14:09:09Z</time>
      </trkpt>
      <trkpt lat="40.863194" lon="-3.874827">
        <ele>1306.460</ele>
        <time>2021-07-31T14:09:11Z</time>
      </trkpt>
      <trkpt lat="40.863187" lon="-3.874860">
        <ele>1306.417</ele>
        <time>2021-07-31T14:09:13Z</time>
      </trkpt>
      <trkpt lat="40.863178" lon="-3.874898">
        <ele>1306.487</ele>
        <time>2021-07-31T14:09:15Z</time>
      </trkpt>
      <trkpt lat="40.863174" lon="-3.874935">
        <ele>1306.295</ele>
        <time>2021-07-31T14:09:17Z</time>
      </trkpt>
      <trkpt lat="40.863168" lon="-3.874975">
        <ele>1306.115</ele>
        <time>2021-07-31T14:09:19Z</time>
      </trkpt>
      <trkpt lat="40.863168" lon="-3.875010">
        <ele>1305.965</ele>
        <time>2021-07-31T14:09:21Z</time>
      </trkpt>
      <trkpt lat="40.863168" lon="-3.875035">
        <ele>1305.711</ele>
        <time>2021-07-31T14:09:22Z</time>
      </trkpt>
      <trkpt lat="40.863168" lon="-3.875062">
        <ele>1305.508</ele>
        <time>2021-07-31T14:09:24Z</time>
      </trkpt>
      <trkpt lat="40.863168" lon="-3.875090">
        <ele>1305.358</ele>
        <time>2021-07-31T14:09:26Z</time>
      </trkpt>
      <trkpt lat="40.863158" lon="-3.875120">
        <ele>1305.360</ele>
        <time>2021-07-31T14:09:28Z</time>
      </trkpt>
      <trkpt lat="40.863142" lon="-3.875145">
        <ele>1305.457</ele>
        <time>2021-07-31T14:09:30Z</time>
      </trkpt>
      <trkpt lat="40.863136" lon="-3.875168">
        <ele>1305.344</ele>
        <time>2021-07-31T14:09:31Z</time>
      </trkpt>
      <trkpt lat="40.863133" lon="-3.875200">
        <ele>1305.286</ele>
        <time>2021-07-31T14:09:33Z</time>
      </trkpt>
      <trkpt lat="40.863130" lon="-3.875237">
        <ele>1305.063</ele>
        <time>2021-07-31T14:09:35Z</time>
      </trkpt>
      <trkpt lat="40.863126" lon="-3.875268">
        <ele>1304.843</ele>
        <time>2021-07-31T14:09:37Z</time>
      </trkpt>
      <trkpt lat="40.863120" lon="-3.875307">
        <ele>1304.621</ele>
        <time>2021-07-31T14:09:39Z</time>
      </trkpt>
      <trkpt lat="40.863117" lon="-3.875338">
        <ele>1304.588</ele>
        <time>2021-07-31T14:09:41Z</time>
      </trkpt>
      <trkpt lat="40.863101" lon="-3.875367">
        <ele>1304.524</ele>
        <time>2021-07-31T14:09:43Z</time>
      </trkpt>
      <trkpt lat="40.863098" lon="-3.875392">
        <ele>1304.426</ele>
        <time>2021-07-31T14:09:44Z</time>
      </trkpt>
      <trkpt lat="40.863101" lon="-3.875427">
        <ele>1304.108</ele>
        <time>2021-07-31T14:09:46Z</time>
      </trkpt>
      <trkpt lat="40.863088" lon="-3.875452">
        <ele>1304.285</ele>
        <time>2021-07-31T14:09:48Z</time>
      </trkpt>
      <trkpt lat="40.863075" lon="-3.875482">
        <ele>1304.237</ele>
        <time>2021-07-31T14:09:50Z</time>
      </trkpt>
      <trkpt lat="40.863072" lon="-3.875512">
        <ele>1304.064</ele>
        <time>2021-07-31T14:09:52Z</time>
      </trkpt>
      <trkpt lat="40.863075" lon="-3.875550">
        <ele>1303.761</ele>
        <time>2021-07-31T14:09:54Z</time>
      </trkpt>
      <trkpt lat="40.863069" lon="-3.875580">
        <ele>1303.683</ele>
        <time>2021-07-31T14:09:56Z</time>
      </trkpt>
      <trkpt lat="40.863062" lon="-3.875616">
        <ele>1303.550</ele>
        <time>2021-07-31T14:09:58Z</time>
      </trkpt>
      <trkpt lat="40.863059" lon="-3.875650">
        <ele>1303.370</ele>
        <time>2021-07-31T14:10:00Z</time>
      </trkpt>
      <trkpt lat="40.863056" lon="-3.875677">
        <ele>1303.188</ele>
        <time>2021-07-31T14:10:02Z</time>
      </trkpt>
      <trkpt lat="40.863043" lon="-3.875710">
        <ele>1303.287</ele>
        <time>2021-07-31T14:10:04Z</time>
      </trkpt>
      <trkpt lat="40.863037" lon="-3.875754">
        <ele>1303.142</ele>
        <time>2021-07-31T14:10:07Z</time>
      </trkpt>
      <trkpt lat="40.863034" lon="-3.875784">
        <ele>1303.026</ele>
        <time>2021-07-31T14:10:09Z</time>
      </trkpt>
      <trkpt lat="40.863027" lon="-3.875820">
        <ele>1302.908</ele>
        <time>2021-07-31T14:10:11Z</time>
      </trkpt>
      <trkpt lat="40.863021" lon="-3.875855">
        <ele>1302.815</ele>
        <time>2021-07-31T14:10:13Z</time>
      </trkpt>
      <trkpt lat="40.863011" lon="-3.875883">
        <ele>1302.957</ele>
        <time>2021-07-31T14:10:15Z</time>
      </trkpt>
      <trkpt lat="40.862998" lon="-3.875910">
        <ele>1303.074</ele>
        <time>2021-07-31T14:10:17Z</time>
      </trkpt>
      <trkpt lat="40.862982" lon="-3.875946">
        <ele>1303.241</ele>
        <time>2021-07-31T14:10:19Z</time>
      </trkpt>
      <trkpt lat="40.862976" lon="-3.875980">
        <ele>1303.183</ele>
        <time>2021-07-31T14:10:21Z</time>
      </trkpt>
      <trkpt lat="40.862970" lon="-3.876015">
        <ele>1303.020</ele>
        <time>2021-07-31T14:10:23Z</time>
      </trkpt>
      <trkpt lat="40.862970" lon="-3.876043">
        <ele>1302.710</ele>
        <time>2021-07-31T14:10:25Z</time>
      </trkpt>
      <trkpt lat="40.862973" lon="-3.876070">
        <ele>1302.448</ele>
        <time>2021-07-31T14:10:27Z</time>
      </trkpt>
      <trkpt lat="40.862970" lon="-3.876095">
        <ele>1302.317</ele>
        <time>2021-07-31T14:10:29Z</time>
      </trkpt>
      <trkpt lat="40.862970" lon="-3.876130">
        <ele>1301.987</ele>
        <time>2021-07-31T14:10:31Z</time>
      </trkpt>
      <trkpt lat="40.862963" lon="-3.876172">
        <ele>1301.615</ele>
        <time>2021-07-31T14:10:33Z</time>
      </trkpt>
      <trkpt lat="40.862957" lon="-3.876215">
        <ele>1301.208</ele>
        <time>2021-07-31T14:10:35Z</time>
      </trkpt>
      <trkpt lat="40.862944" lon="-3.876247">
        <ele>1301.148</ele>
        <time>2021-07-31T14:10:37Z</time>
      </trkpt>
      <trkpt lat="40.862941" lon="-3.876282">
        <ele>1300.810</ele>
        <time>2021-07-31T14:10:40Z</time>
      </trkpt>
      <trkpt lat="40.862934" lon="-3.876313">
        <ele>1300.697</ele>
        <time>2021-07-31T14:10:42Z</time>
      </trkpt>
      <trkpt lat="40.862922" lon="-3.876355">
        <ele>1300.314</ele>
        <time>2021-07-31T14:10:44Z</time>
      </trkpt>
      <trkpt lat="40.862915" lon="-3.876385">
        <ele>1300.136</ele>
        <time>2021-07-31T14:10:46Z</time>
      </trkpt>
      <trkpt lat="40.862899" lon="-3.876413">
        <ele>1300.173</ele>
        <time>2021-07-31T14:10:48Z</time>
      </trkpt>
      <trkpt lat="40.862883" lon="-3.876437">
        <ele>1300.163</ele>
        <time>2021-07-31T14:10:50Z</time>
      </trkpt>
      <trkpt lat="40.862874" lon="-3.876468">
        <ele>1299.991</ele>
        <time>2021-07-31T14:10:52Z</time>
      </trkpt>
      <trkpt lat="40.862861" lon="-3.876504">
        <ele>1299.723</ele>
        <time>2021-07-31T14:10:54Z</time>
      </trkpt>
      <trkpt lat="40.862854" lon="-3.876532">
        <ele>1299.483</ele>
        <time>2021-07-31T14:10:56Z</time>
      </trkpt>
      <trkpt lat="40.862838" lon="-3.876560">
        <ele>1299.411</ele>
        <time>2021-07-31T14:10:58Z</time>
      </trkpt>
      <trkpt lat="40.862829" lon="-3.876590">
        <ele>1299.108</ele>
        <time>2021-07-31T14:11:00Z</time>
      </trkpt>
      <trkpt lat="40.862813" lon="-3.876615">
        <ele>1299.129</ele>
        <time>2021-07-31T14:11:02Z</time>
      </trkpt>
      <trkpt lat="40.862803" lon="-3.876645">
        <ele>1298.921</ele>
        <time>2021-07-31T14:11:04Z</time>
      </trkpt>
      <trkpt lat="40.862790" lon="-3.876672">
        <ele>1298.728</ele>
        <time>2021-07-31T14:11:07Z</time>
      </trkpt>
      <trkpt lat="40.862778" lon="-3.876700">
        <ele>1298.585</ele>
        <time>2021-07-31T14:11:09Z</time>
      </trkpt>
      <trkpt lat="40.862762" lon="-3.876732">
        <ele>1298.317</ele>
        <time>2021-07-31T14:11:11Z</time>
      </trkpt>
      <trkpt lat="40.862758" lon="-3.876768">
        <ele>1297.914</ele>
        <time>2021-07-31T14:11:13Z</time>
      </trkpt>
      <trkpt lat="40.862746" lon="-3.876795">
        <ele>1297.724</ele>
        <time>2021-07-31T14:11:15Z</time>
      </trkpt>
      <trkpt lat="40.862736" lon="-3.876820">
        <ele>1297.532</ele>
        <time>2021-07-31T14:11:17Z</time>
      </trkpt>
      <trkpt lat="40.862723" lon="-3.876847">
        <ele>1297.486</ele>
        <time>2021-07-31T14:11:19Z</time>
      </trkpt>
      <trkpt lat="40.862714" lon="-3.876870">
        <ele>1297.260</ele>
        <time>2021-07-31T14:11:21Z</time>
      </trkpt>
      <trkpt lat="40.862701" lon="-3.876890">
        <ele>1297.226</ele>
        <time>2021-07-31T14:11:23Z</time>
      </trkpt>
      <trkpt lat="40.862685" lon="-3.876918">
        <ele>1297.108</ele>
        <time>2021-07-31T14:11:26Z</time>
      </trkpt>
      <trkpt lat="40.862672" lon="-3.876945">
        <ele>1296.945</ele>
        <time>2021-07-31T14:11:28Z</time>
      </trkpt>
      <trkpt lat="40.862656" lon="-3.876970">
        <ele>1296.997</ele>
        <time>2021-07-31T14:11:30Z</time>
      </trkpt>
      <trkpt lat="40.862643" lon="-3.877002">
        <ele>1296.784</ele>
        <time>2021-07-31T14:11:32Z</time>
      </trkpt>
      <trkpt lat="40.862630" lon="-3.877032">
        <ele>1296.531</ele>
        <time>2021-07-31T14:11:34Z</time>
      </trkpt>
      <trkpt lat="40.862618" lon="-3.877050">
        <ele>1296.593</ele>
        <time>2021-07-31T14:11:35Z</time>
      </trkpt>
      <trkpt lat="40.862602" lon="-3.877078">
        <ele>1296.460</ele>
        <time>2021-07-31T14:11:37Z</time>
      </trkpt>
      <trkpt lat="40.862592" lon="-3.877102">
        <ele>1296.340</ele>
        <time>2021-07-31T14:11:39Z</time>
      </trkpt>
      <trkpt lat="40.862582" lon="-3.877128">
        <ele>1296.118</ele>
        <time>2021-07-31T14:11:41Z</time>
      </trkpt>
      <trkpt lat="40.862573" lon="-3.877155">
        <ele>1295.958</ele>
        <time>2021-07-31T14:11:43Z</time>
      </trkpt>
      <trkpt lat="40.862554" lon="-3.877182">
        <ele>1295.852</ele>
        <time>2021-07-31T14:11:45Z</time>
      </trkpt>
      <trkpt lat="40.862544" lon="-3.877205">
        <ele>1295.617</ele>
        <time>2021-07-31T14:11:47Z</time>
      </trkpt>
      <trkpt lat="40.862534" lon="-3.877228">
        <ele>1295.408</ele>
        <time>2021-07-31T14:11:49Z</time>
      </trkpt>
      <trkpt lat="40.862515" lon="-3.877243">
        <ele>1295.572</ele>
        <time>2021-07-31T14:11:51Z</time>
      </trkpt>
      <trkpt lat="40.862493" lon="-3.877273">
        <ele>1295.364</ele>
        <time>2021-07-31T14:11:53Z</time>
      </trkpt>
      <trkpt lat="40.862480" lon="-3.877292">
        <ele>1295.151</ele>
        <time>2021-07-31T14:11:54Z</time>
      </trkpt>
      <trkpt lat="40.862461" lon="-3.877323">
        <ele>1294.768</ele>
        <time>2021-07-31T14:11:56Z</time>
      </trkpt>
      <trkpt lat="40.862445" lon="-3.877348">
        <ele>1294.580</ele>
        <time>2021-07-31T14:11:58Z</time>
      </trkpt>
      <trkpt lat="40.862435" lon="-3.877380">
        <ele>1294.137</ele>
        <time>2021-07-31T14:12:00Z</time>
      </trkpt>
      <trkpt lat="40.862416" lon="-3.877412">
        <ele>1293.897</ele>
        <time>2021-07-31T14:12:02Z</time>
      </trkpt>
      <trkpt lat="40.862400" lon="-3.877427">
        <ele>1293.725</ele>
        <time>2021-07-31T14:12:03Z</time>
      </trkpt>
      <trkpt lat="40.862381" lon="-3.877453">
        <ele>1293.547</ele>
        <time>2021-07-31T14:12:05Z</time>
      </trkpt>
      <trkpt lat="40.862365" lon="-3.877473">
        <ele>1293.329</ele>
        <time>2021-07-31T14:12:08Z</time>
      </trkpt>
      <trkpt lat="40.862346" lon="-3.877497">
        <ele>1293.121</ele>
        <time>2021-07-31T14:12:11Z</time>
      </trkpt>
      <trkpt lat="40.862326" lon="-3.877520">
        <ele>1293.008</ele>
        <time>2021-07-31T14:12:15Z</time>
      </trkpt>
      <trkpt lat="40.862304" lon="-3.877544">
        <ele>1292.951</ele>
        <time>2021-07-31T14:12:18Z</time>
      </trkpt>
      <trkpt lat="40.862278" lon="-3.877560">
        <ele>1293.063</ele>
        <time>2021-07-31T14:12:20Z</time>
      </trkpt>
      <trkpt lat="40.862256" lon="-3.877573">
        <ele>1293.080</ele>
        <time>2021-07-31T14:12:22Z</time>
      </trkpt>
      <trkpt lat="40.862227" lon="-3.877592">
        <ele>1293.047</ele>
        <time>2021-07-31T14:12:24Z</time>
      </trkpt>
      <trkpt lat="40.862205" lon="-3.877610">
        <ele>1292.899</ele>
        <time>2021-07-31T14:12:26Z</time>
      </trkpt>
      <trkpt lat="40.862182" lon="-3.877622">
        <ele>1292.776</ele>
        <time>2021-07-31T14:12:28Z</time>
      </trkpt>
      <trkpt lat="40.862157" lon="-3.877635">
        <ele>1292.796</ele>
        <time>2021-07-31T14:12:30Z</time>
      </trkpt>
      <trkpt lat="40.862134" lon="-3.877645">
        <ele>1292.644</ele>
        <time>2021-07-31T14:12:32Z</time>
      </trkpt>
      <trkpt lat="40.862106" lon="-3.877650">
        <ele>1292.644</ele>
        <time>2021-07-31T14:12:34Z</time>
      </trkpt>
      <trkpt lat="40.862080" lon="-3.877658">
        <ele>1292.605</ele>
        <time>2021-07-31T14:12:36Z</time>
      </trkpt>
      <trkpt lat="40.862058" lon="-3.877663">
        <ele>1292.615</ele>
        <time>2021-07-31T14:12:38Z</time>
      </trkpt>
      <trkpt lat="40.862029" lon="-3.877667">
        <ele>1292.608</ele>
        <time>2021-07-31T14:12:40Z</time>
      </trkpt>
      <trkpt lat="40.862006" lon="-3.877668">
        <ele>1292.791</ele>
        <time>2021-07-31T14:12:42Z</time>
      </trkpt>
      <trkpt lat="40.861981" lon="-3.877675">
        <ele>1292.733</ele>
        <time>2021-07-31T14:12:44Z</time>
      </trkpt>
      <trkpt lat="40.861949" lon="-3.877684">
        <ele>1292.770</ele>
        <time>2021-07-31T14:12:46Z</time>
      </trkpt>
      <trkpt lat="40.861926" lon="-3.877697">
        <ele>1292.457</ele>
        <time>2021-07-31T14:12:48Z</time>
      </trkpt>
      <trkpt lat="40.861904" lon="-3.877700">
        <ele>1292.339</ele>
        <time>2021-07-31T14:12:49Z</time>
      </trkpt>
      <trkpt lat="40.861878" lon="-3.877708">
        <ele>1292.076</ele>
        <time>2021-07-31T14:12:51Z</time>
      </trkpt>
      <trkpt lat="40.861859" lon="-3.877715">
        <ele>1291.866</ele>
        <time>2021-07-31T14:12:53Z</time>
      </trkpt>
      <trkpt lat="40.861840" lon="-3.877726">
        <ele>1291.644</ele>
        <time>2021-07-31T14:12:55Z</time>
      </trkpt>
      <trkpt lat="40.861821" lon="-3.877730">
        <ele>1291.513</ele>
        <time>2021-07-31T14:12:56Z</time>
      </trkpt>
      <trkpt lat="40.861802" lon="-3.877743">
        <ele>1291.243</ele>
        <time>2021-07-31T14:12:58Z</time>
      </trkpt>
      <trkpt lat="40.861779" lon="-3.877758">
        <ele>1291.007</ele>
        <time>2021-07-31T14:13:00Z</time>
      </trkpt>
      <trkpt lat="40.861757" lon="-3.877775">
        <ele>1290.708</ele>
        <time>2021-07-31T14:13:02Z</time>
      </trkpt>
      <trkpt lat="40.861731" lon="-3.877790">
        <ele>1290.458</ele>
        <time>2021-07-31T14:13:04Z</time>
      </trkpt>
      <trkpt lat="40.861709" lon="-3.877803">
        <ele>1290.230</ele>
        <time>2021-07-31T14:13:06Z</time>
      </trkpt>
      <trkpt lat="40.861683" lon="-3.877818">
        <ele>1290.017</ele>
        <time>2021-07-31T14:13:08Z</time>
      </trkpt>
      <trkpt lat="40.861661" lon="-3.877832">
        <ele>1289.714</ele>
        <time>2021-07-31T14:13:10Z</time>
      </trkpt>
      <trkpt lat="40.861642" lon="-3.877838">
        <ele>1289.446</ele>
        <time>2021-07-31T14:13:12Z</time>
      </trkpt>
      <trkpt lat="40.861622" lon="-3.877843">
        <ele>1289.233</ele>
        <time>2021-07-31T14:13:14Z</time>
      </trkpt>
      <trkpt lat="40.861606" lon="-3.877832">
        <ele>1289.073</ele>
        <time>2021-07-31T14:13:17Z</time>
      </trkpt>
      <trkpt lat="40.861581" lon="-3.877842">
        <ele>1288.641</ele>
        <time>2021-07-31T14:13:20Z</time>
      </trkpt>
      <trkpt lat="40.861552" lon="-3.877837">
        <ele>1288.266</ele>
        <time>2021-07-31T14:13:22Z</time>
      </trkpt>
      <trkpt lat="40.861533" lon="-3.877818">
        <ele>1288.029</ele>
        <time>2021-07-31T14:13:24Z</time>
      </trkpt>
      <trkpt lat="40.861510" lon="-3.877800">
        <ele>1287.721</ele>
        <time>2021-07-31T14:13:26Z</time>
      </trkpt>
      <trkpt lat="40.861488" lon="-3.877790">
        <ele>1287.408</ele>
        <time>2021-07-31T14:13:28Z</time>
      </trkpt>
      <trkpt lat="40.861472" lon="-3.877778">
        <ele>1287.253</ele>
        <time>2021-07-31T14:13:30Z</time>
      </trkpt>
      <trkpt lat="40.861450" lon="-3.877746">
        <ele>1287.185</ele>
        <time>2021-07-31T14:13:32Z</time>
      </trkpt>
      <trkpt lat="40.861434" lon="-3.877728">
        <ele>1287.022</ele>
        <time>2021-07-31T14:13:33Z</time>
      </trkpt>
      <trkpt lat="40.861408" lon="-3.877708">
        <ele>1286.859</ele>
        <time>2021-07-31T14:13:35Z</time>
      </trkpt>
      <trkpt lat="40.861395" lon="-3.877687">
        <ele>1286.761</ele>
        <time>2021-07-31T14:13:37Z</time>
      </trkpt>
      <trkpt lat="40.861379" lon="-3.877667">
        <ele>1286.618</ele>
        <time>2021-07-31T14:13:39Z</time>
      </trkpt>
      <trkpt lat="40.861363" lon="-3.877640">
        <ele>1286.668</ele>
        <time>2021-07-31T14:13:41Z</time>
      </trkpt>
      <trkpt lat="40.861347" lon="-3.877607">
        <ele>1286.776</ele>
        <time>2021-07-31T14:13:43Z</time>
      </trkpt>
      <trkpt lat="40.861331" lon="-3.877583">
        <ele>1286.764</ele>
        <time>2021-07-31T14:13:45Z</time>
      </trkpt>
      <trkpt lat="40.861315" lon="-3.877558">
        <ele>1286.706</ele>
        <time>2021-07-31T14:13:47Z</time>
      </trkpt>
      <trkpt lat="40.861299" lon="-3.877528">
        <ele>1286.816</ele>
        <time>2021-07-31T14:13:49Z</time>
      </trkpt>
      <trkpt lat="40.861290" lon="-3.877507">
        <ele>1286.908</ele>
        <time>2021-07-31T14:13:51Z</time>
      </trkpt>
      <trkpt lat="40.861283" lon="-3.877482">
        <ele>1287.063</ele>
        <time>2021-07-31T14:13:53Z</time>
      </trkpt>
      <trkpt lat="40.861280" lon="-3.877448">
        <ele>1287.325</ele>
        <time>2021-07-31T14:13:55Z</time>
      </trkpt>
      <trkpt lat="40.861264" lon="-3.877433">
        <ele>1287.342</ele>
        <time>2021-07-31T14:13:56Z</time>
      </trkpt>
      <trkpt lat="40.861248" lon="-3.877410">
        <ele>1287.569</ele>
        <time>2021-07-31T14:13:58Z</time>
      </trkpt>
      <trkpt lat="40.861229" lon="-3.877393">
        <ele>1287.571</ele>
        <time>2021-07-31T14:14:00Z</time>
      </trkpt>
      <trkpt lat="40.861203" lon="-3.877393">
        <ele>1287.398</ele>
        <time>2021-07-31T14:14:02Z</time>
      </trkpt>
      <trkpt lat="40.861171" lon="-3.877395">
        <ele>1287.028</ele>
        <time>2021-07-31T14:14:04Z</time>
      </trkpt>
      <trkpt lat="40.861146" lon="-3.877406">
        <ele>1286.646</ele>
        <time>2021-07-31T14:14:06Z</time>
      </trkpt>
      <trkpt lat="40.861123" lon="-3.877412">
        <ele>1286.484</ele>
        <time>2021-07-31T14:14:08Z</time>
      </trkpt>
      <trkpt lat="40.861091" lon="-3.877408">
        <ele>1286.007</ele>
        <time>2021-07-31T14:14:10Z</time>
      </trkpt>
      <trkpt lat="40.861072" lon="-3.877417">
        <ele>1285.617</ele>
        <time>2021-07-31T14:14:12Z</time>
      </trkpt>
      <trkpt lat="40.861043" lon="-3.877406">
        <ele>1285.308</ele>
        <time>2021-07-31T14:14:14Z</time>
      </trkpt>
      <trkpt lat="40.861018" lon="-3.877413">
        <ele>1284.815</ele>
        <time>2021-07-31T14:14:16Z</time>
      </trkpt>
      <trkpt lat="40.861002" lon="-3.877425">
        <ele>1284.397</ele>
        <time>2021-07-31T14:14:18Z</time>
      </trkpt>
      <trkpt lat="40.860989" lon="-3.877453">
        <ele>1283.634</ele>
        <time>2021-07-31T14:14:21Z</time>
      </trkpt>
      <trkpt lat="40.860976" lon="-3.877482">
        <ele>1282.951</ele>
        <time>2021-07-31T14:14:23Z</time>
      </trkpt>
      <trkpt lat="40.860973" lon="-3.877512">
        <ele>1282.413</ele>
        <time>2021-07-31T14:14:25Z</time>
      </trkpt>
      <trkpt lat="40.860973" lon="-3.877548">
        <ele>1281.960</ele>
        <time>2021-07-31T14:14:27Z</time>
      </trkpt>
      <trkpt lat="40.860963" lon="-3.877585">
        <ele>1281.330</ele>
        <time>2021-07-31T14:14:29Z</time>
      </trkpt>
      <trkpt lat="40.860947" lon="-3.877603">
        <ele>1280.848</ele>
        <time>2021-07-31T14:14:30Z</time>
      </trkpt>
      <trkpt lat="40.860928" lon="-3.877623">
        <ele>1280.239</ele>
        <time>2021-07-31T14:14:32Z</time>
      </trkpt>
      <trkpt lat="40.860918" lon="-3.877645">
        <ele>1279.801</ele>
        <time>2021-07-31T14:14:34Z</time>
      </trkpt>
      <trkpt lat="40.860909" lon="-3.877668">
        <ele>1279.421</ele>
        <time>2021-07-31T14:14:36Z</time>
      </trkpt>
      <trkpt lat="40.860886" lon="-3.877694">
        <ele>1278.708</ele>
        <time>2021-07-31T14:14:39Z</time>
      </trkpt>
      <trkpt lat="40.860883" lon="-3.877728">
        <ele>1278.360</ele>
        <time>2021-07-31T14:14:41Z</time>
      </trkpt>
      <trkpt lat="40.860896" lon="-3.877762">
        <ele>1278.172</ele>
        <time>2021-07-31T14:14:43Z</time>
      </trkpt>
      <trkpt lat="40.860906" lon="-3.877790">
        <ele>1278.169</ele>
        <time>2021-07-31T14:14:45Z</time>
      </trkpt>
      <trkpt lat="40.860909" lon="-3.877827">
        <ele>1278.196</ele>
        <time>2021-07-31T14:14:47Z</time>
      </trkpt>
      <trkpt lat="40.860909" lon="-3.877860">
        <ele>1278.218</ele>
        <time>2021-07-31T14:14:49Z</time>
      </trkpt>
      <trkpt lat="40.860896" lon="-3.877887">
        <ele>1278.085</ele>
        <time>2021-07-31T14:14:51Z</time>
      </trkpt>
      <trkpt lat="40.860890" lon="-3.877915">
        <ele>1277.965</ele>
        <time>2021-07-31T14:14:53Z</time>
      </trkpt>
      <trkpt lat="40.860874" lon="-3.877938">
        <ele>1277.743</ele>
        <time>2021-07-31T14:14:55Z</time>
      </trkpt>
      <trkpt lat="40.860858" lon="-3.877965">
        <ele>1277.449</ele>
        <time>2021-07-31T14:14:57Z</time>
      </trkpt>
      <trkpt lat="40.860835" lon="-3.877988">
        <ele>1277.002</ele>
        <time>2021-07-31T14:15:00Z</time>
      </trkpt>
      <trkpt lat="40.860819" lon="-3.878017">
        <ele>1276.622</ele>
        <time>2021-07-31T14:15:02Z</time>
      </trkpt>
      <trkpt lat="40.860813" lon="-3.878047">
        <ele>1276.508</ele>
        <time>2021-07-31T14:15:04Z</time>
      </trkpt>
      <trkpt lat="40.860806" lon="-3.878085">
        <ele>1276.361</ele>
        <time>2021-07-31T14:15:06Z</time>
      </trkpt>
      <trkpt lat="40.860794" lon="-3.878117">
        <ele>1276.083</ele>
        <time>2021-07-31T14:15:08Z</time>
      </trkpt>
      <trkpt lat="40.860787" lon="-3.878152">
        <ele>1275.850</ele>
        <time>2021-07-31T14:15:10Z</time>
      </trkpt>
      <trkpt lat="40.860778" lon="-3.878187">
        <ele>1275.657</ele>
        <time>2021-07-31T14:15:12Z</time>
      </trkpt>
      <trkpt lat="40.860771" lon="-3.878222">
        <ele>1275.479</ele>
        <time>2021-07-31T14:15:14Z</time>
      </trkpt>
      <trkpt lat="40.860768" lon="-3.878260">
        <ele>1275.466</ele>
        <time>2021-07-31T14:15:16Z</time>
      </trkpt>
      <trkpt lat="40.860765" lon="-3.878295">
        <ele>1275.326</ele>
        <time>2021-07-31T14:15:18Z</time>
      </trkpt>
      <trkpt lat="40.860758" lon="-3.878328">
        <ele>1275.154</ele>
        <time>2021-07-31T14:15:20Z</time>
      </trkpt>
      <trkpt lat="40.860765" lon="-3.878362">
        <ele>1275.226</ele>
        <time>2021-07-31T14:15:22Z</time>
      </trkpt>
      <trkpt lat="40.860765" lon="-3.878390">
        <ele>1275.147</ele>
        <time>2021-07-31T14:15:24Z</time>
      </trkpt>
      <trkpt lat="40.860771" lon="-3.878426">
        <ele>1275.211</ele>
        <time>2021-07-31T14:15:26Z</time>
      </trkpt>
      <trkpt lat="40.860768" lon="-3.878462">
        <ele>1275.008</ele>
        <time>2021-07-31T14:15:28Z</time>
      </trkpt>
      <trkpt lat="40.860771" lon="-3.878497">
        <ele>1275.059</ele>
        <time>2021-07-31T14:15:30Z</time>
      </trkpt>
      <trkpt lat="40.860774" lon="-3.878530">
        <ele>1274.911</ele>
        <time>2021-07-31T14:15:32Z</time>
      </trkpt>
      <trkpt lat="40.860774" lon="-3.878564">
        <ele>1274.988</ele>
        <time>2021-07-31T14:15:34Z</time>
      </trkpt>
      <trkpt lat="40.860778" lon="-3.878595">
        <ele>1274.945</ele>
        <time>2021-07-31T14:15:36Z</time>
      </trkpt>
      <trkpt lat="40.860784" lon="-3.878625">
        <ele>1274.857</ele>
        <time>2021-07-31T14:15:38Z</time>
      </trkpt>
      <trkpt lat="40.860784" lon="-3.878653">
        <ele>1274.624</ele>
        <time>2021-07-31T14:15:40Z</time>
      </trkpt>
      <trkpt lat="40.860778" lon="-3.878693">
        <ele>1274.284</ele>
        <time>2021-07-31T14:15:42Z</time>
      </trkpt>
      <trkpt lat="40.860784" lon="-3.878733">
        <ele>1274.142</ele>
        <time>2021-07-31T14:15:44Z</time>
      </trkpt>
      <trkpt lat="40.860784" lon="-3.878766">
        <ele>1273.879</ele>
        <time>2021-07-31T14:15:46Z</time>
      </trkpt>
      <trkpt lat="40.860784" lon="-3.878802">
        <ele>1273.605</ele>
        <time>2021-07-31T14:15:48Z</time>
      </trkpt>
      <trkpt lat="40.860784" lon="-3.878840">
        <ele>1273.325</ele>
        <time>2021-07-31T14:15:50Z</time>
      </trkpt>
      <trkpt lat="40.860784" lon="-3.878873">
        <ele>1273.008</ele>
        <time>2021-07-31T14:15:52Z</time>
      </trkpt>
      <trkpt lat="40.860784" lon="-3.878900">
        <ele>1272.994</ele>
        <time>2021-07-31T14:15:54Z</time>
      </trkpt>
      <trkpt lat="40.860784" lon="-3.878928">
        <ele>1272.866</ele>
        <time>2021-07-31T14:15:56Z</time>
      </trkpt>
      <trkpt lat="40.860774" lon="-3.878948">
        <ele>1272.533</ele>
        <time>2021-07-31T14:16:01Z</time>
      </trkpt>
      <trkpt lat="40.860774" lon="-3.878983">
        <ele>1272.320</ele>
        <time>2021-07-31T14:16:04Z</time>
      </trkpt>
      <trkpt lat="40.860765" lon="-3.879023">
        <ele>1271.922</ele>
        <time>2021-07-31T14:16:06Z</time>
      </trkpt>
      <trkpt lat="40.860752" lon="-3.879058">
        <ele>1271.599</ele>
        <time>2021-07-31T14:16:08Z</time>
      </trkpt>
      <trkpt lat="40.860755" lon="-3.879083">
        <ele>1271.449</ele>
        <time>2021-07-31T14:16:10Z</time>
      </trkpt>
      <trkpt lat="40.860765" lon="-3.879110">
        <ele>1271.597</ele>
        <time>2021-07-31T14:16:11Z</time>
      </trkpt>
      <trkpt lat="40.860758" lon="-3.879148">
        <ele>1271.267</ele>
        <time>2021-07-31T14:16:13Z</time>
      </trkpt>
      <trkpt lat="40.860755" lon="-3.879188">
        <ele>1270.981</ele>
        <time>2021-07-31T14:16:15Z</time>
      </trkpt>
      <trkpt lat="40.860752" lon="-3.879230">
        <ele>1270.619</ele>
        <time>2021-07-31T14:16:17Z</time>
      </trkpt>
      <trkpt lat="40.860758" lon="-3.879267">
        <ele>1270.508</ele>
        <time>2021-07-31T14:16:19Z</time>
      </trkpt>
      <trkpt lat="40.860768" lon="-3.879300">
        <ele>1270.583</ele>
        <time>2021-07-31T14:16:21Z</time>
      </trkpt>
      <trkpt lat="40.860774" lon="-3.879335">
        <ele>1270.495</ele>
        <time>2021-07-31T14:16:23Z</time>
      </trkpt>
      <trkpt lat="40.860774" lon="-3.879368">
        <ele>1270.282</ele>
        <time>2021-07-31T14:16:25Z</time>
      </trkpt>
      <trkpt lat="40.860774" lon="-3.879405">
        <ele>1270.019</ele>
        <time>2021-07-31T14:16:27Z</time>
      </trkpt>
      <trkpt lat="40.860787" lon="-3.879423">
        <ele>1270.141</ele>
        <time>2021-07-31T14:16:29Z</time>
      </trkpt>
      <trkpt lat="40.860803" lon="-3.879448">
        <ele>1270.388</ele>
        <time>2021-07-31T14:16:31Z</time>
      </trkpt>
      <trkpt lat="40.860813" lon="-3.879482">
        <ele>1270.468</ele>
        <time>2021-07-31T14:16:33Z</time>
      </trkpt>
      <trkpt lat="40.860813" lon="-3.879522">
        <ele>1270.376</ele>
        <time>2021-07-31T14:16:35Z</time>
      </trkpt>
      <trkpt lat="40.860816" lon="-3.879550">
        <ele>1270.218</ele>
        <time>2021-07-31T14:16:37Z</time>
      </trkpt>
      <trkpt lat="40.860826" lon="-3.879585">
        <ele>1270.398</ele>
        <time>2021-07-31T14:16:39Z</time>
      </trkpt>
      <trkpt lat="40.860829" lon="-3.879612">
        <ele>1270.317</ele>
        <time>2021-07-31T14:16:41Z</time>
      </trkpt>
      <trkpt lat="40.860835" lon="-3.879644">
        <ele>1270.308</ele>
        <time>2021-07-31T14:16:43Z</time>
      </trkpt>
      <trkpt lat="40.860838" lon="-3.879672">
        <ele>1270.368</ele>
        <time>2021-07-31T14:16:45Z</time>
      </trkpt>
      <trkpt lat="40.860848" lon="-3.879698">
        <ele>1270.310</ele>
        <time>2021-07-31T14:16:47Z</time>
      </trkpt>
      <trkpt lat="40.860858" lon="-3.879727">
        <ele>1270.367</ele>
        <time>2021-07-31T14:16:49Z</time>
      </trkpt>
      <trkpt lat="40.860867" lon="-3.879757">
        <ele>1270.154</ele>
        <time>2021-07-31T14:16:51Z</time>
      </trkpt>
      <trkpt lat="40.860877" lon="-3.879783">
        <ele>1269.976</ele>
        <time>2021-07-31T14:16:53Z</time>
      </trkpt>
      <trkpt lat="40.860886" lon="-3.879810">
        <ele>1269.813</ele>
        <time>2021-07-31T14:16:55Z</time>
      </trkpt>
      <trkpt lat="40.860896" lon="-3.879835">
        <ele>1269.623</ele>
        <time>2021-07-31T14:16:57Z</time>
      </trkpt>
      <trkpt lat="40.860909" lon="-3.879856">
        <ele>1269.511</ele>
        <time>2021-07-31T14:16:59Z</time>
      </trkpt>
      <trkpt lat="40.860918" lon="-3.879882">
        <ele>1269.388</ele>
        <time>2021-07-31T14:17:01Z</time>
      </trkpt>
      <trkpt lat="40.860931" lon="-3.879912">
        <ele>1269.124</ele>
        <time>2021-07-31T14:17:03Z</time>
      </trkpt>
      <trkpt lat="40.860947" lon="-3.879943">
        <ele>1268.926</ele>
        <time>2021-07-31T14:17:05Z</time>
      </trkpt>
      <trkpt lat="40.860963" lon="-3.879970">
        <ele>1268.808</ele>
        <time>2021-07-31T14:17:07Z</time>
      </trkpt>
      <trkpt lat="40.860973" lon="-3.879997">
        <ele>1268.545</ele>
        <time>2021-07-31T14:17:09Z</time>
      </trkpt>
      <trkpt lat="40.860986" lon="-3.880014">
        <ele>1268.567</ele>
        <time>2021-07-31T14:17:10Z</time>
      </trkpt>
      <trkpt lat="40.861002" lon="-3.880036">
        <ele>1268.434</ele>
        <time>2021-07-31T14:17:12Z</time>
      </trkpt>
      <trkpt lat="40.861018" lon="-3.880050">
        <ele>1268.491</ele>
        <time>2021-07-31T14:17:14Z</time>
      </trkpt>
      <trkpt lat="40.861037" lon="-3.880070">
        <ele>1268.353</ele>
        <time>2021-07-31T14:17:16Z</time>
      </trkpt>
      <trkpt lat="40.861062" lon="-3.880083">
        <ele>1268.430</ele>
        <time>2021-07-31T14:17:18Z</time>
      </trkpt>
      <trkpt lat="40.861085" lon="-3.880095">
        <ele>1268.490</ele>
        <time>2021-07-31T14:17:20Z</time>
      </trkpt>
      <trkpt lat="40.861107" lon="-3.880118">
        <ele>1268.348</ele>
        <time>2021-07-31T14:17:22Z</time>
      </trkpt>
      <trkpt lat="40.861130" lon="-3.880135">
        <ele>1268.151</ele>
        <time>2021-07-31T14:17:24Z</time>
      </trkpt>
      <trkpt lat="40.861152" lon="-3.880150">
        <ele>1267.901</ele>
        <time>2021-07-31T14:17:26Z</time>
      </trkpt>
      <trkpt lat="40.861181" lon="-3.880176">
        <ele>1267.611</ele>
        <time>2021-07-31T14:17:28Z</time>
      </trkpt>
      <trkpt lat="40.861200" lon="-3.880182">
        <ele>1267.508</ele>
        <time>2021-07-31T14:17:30Z</time>
      </trkpt>
      <trkpt lat="40.861226" lon="-3.880192">
        <ele>1267.472</ele>
        <time>2021-07-31T14:17:32Z</time>
      </trkpt>
      <trkpt lat="40.861251" lon="-3.880208">
        <ele>1267.124</ele>
        <time>2021-07-31T14:17:35Z</time>
      </trkpt>
      <trkpt lat="40.861280" lon="-3.880203">
        <ele>1267.241</ele>
        <time>2021-07-31T14:17:37Z</time>
      </trkpt>
      <trkpt lat="40.861302" lon="-3.880195">
        <ele>1267.458</ele>
        <time>2021-07-31T14:17:39Z</time>
      </trkpt>
      <trkpt lat="40.861334" lon="-3.880188">
        <ele>1267.690</ele>
        <time>2021-07-31T14:17:41Z</time>
      </trkpt>
      <trkpt lat="40.861354" lon="-3.880170">
        <ele>1267.977</ele>
        <time>2021-07-31T14:17:42Z</time>
      </trkpt>
      <trkpt lat="40.861382" lon="-3.880162">
        <ele>1268.197</ele>
        <time>2021-07-31T14:17:44Z</time>
      </trkpt>
      <trkpt lat="40.861408" lon="-3.880152">
        <ele>1268.255</ele>
        <time>2021-07-31T14:17:46Z</time>
      </trkpt>
      <trkpt lat="40.861434" lon="-3.880160">
        <ele>1267.989</ele>
        <time>2021-07-31T14:17:48Z</time>
      </trkpt>
      <trkpt lat="40.861453" lon="-3.880166">
        <ele>1267.706</ele>
        <time>2021-07-31T14:17:49Z</time>
      </trkpt>
      <trkpt lat="40.861478" lon="-3.880168">
        <ele>1267.526</ele>
        <time>2021-07-31T14:17:51Z</time>
      </trkpt>
      <trkpt lat="40.861504" lon="-3.880162">
        <ele>1267.508</ele>
        <time>2021-07-31T14:17:54Z</time>
      </trkpt>
      <trkpt lat="40.861530" lon="-3.880152">
        <ele>1267.525</ele>
        <time>2021-07-31T14:17:56Z</time>
      </trkpt>
      <trkpt lat="40.861558" lon="-3.880158">
        <ele>1267.367</ele>
        <time>2021-07-31T14:17:58Z</time>
      </trkpt>
      <trkpt lat="40.861581" lon="-3.880150">
        <ele>1267.314</ele>
        <time>2021-07-31T14:18:00Z</time>
      </trkpt>
      <trkpt lat="40.861600" lon="-3.880122">
        <ele>1267.661</ele>
        <time>2021-07-31T14:18:03Z</time>
      </trkpt>
      <trkpt lat="40.861629" lon="-3.880110">
        <ele>1267.663</ele>
        <time>2021-07-31T14:18:05Z</time>
      </trkpt>
      <trkpt lat="40.861648" lon="-3.880087">
        <ele>1267.910</ele>
        <time>2021-07-31T14:18:07Z</time>
      </trkpt>
      <trkpt lat="40.861664" lon="-3.880068">
        <ele>1268.030</ele>
        <time>2021-07-31T14:18:09Z</time>
      </trkpt>
      <trkpt lat="40.861686" lon="-3.880062">
        <ele>1268.168</ele>
        <time>2021-07-31T14:18:11Z</time>
      </trkpt>
      <trkpt lat="40.861709" lon="-3.880052">
        <ele>1268.275</ele>
        <time>2021-07-31T14:18:13Z</time>
      </trkpt>
      <trkpt lat="40.861728" lon="-3.880047">
        <ele>1268.228</ele>
        <time>2021-07-31T14:18:15Z</time>
      </trkpt>
      <trkpt lat="40.861747" lon="-3.880036">
        <ele>1268.320</ele>
        <time>2021-07-31T14:18:17Z</time>
      </trkpt>
      <trkpt lat="40.861766" lon="-3.880032">
        <ele>1268.308</ele>
        <time>2021-07-31T14:18:19Z</time>
      </trkpt>
      <trkpt lat="40.861792" lon="-3.880025">
        <ele>1268.364</ele>
        <time>2021-07-31T14:18:22Z</time>
      </trkpt>
      <trkpt lat="40.861811" lon="-3.880018">
        <ele>1268.336</ele>
        <time>2021-07-31T14:18:24Z</time>
      </trkpt>
      <trkpt lat="40.861830" lon="-3.880012">
        <ele>1268.363</ele>
        <time>2021-07-31T14:18:26Z</time>
      </trkpt>
      <trkpt lat="40.861850" lon="-3.880005">
        <ele>1268.370</ele>
        <time>2021-07-31T14:18:28Z</time>
      </trkpt>
      <trkpt lat="40.861878" lon="-3.880004">
        <ele>1268.292</ele>
        <time>2021-07-31T14:18:30Z</time>
      </trkpt>
      <trkpt lat="40.861923" lon="-3.880008">
        <ele>1268.079</ele>
        <time>2021-07-31T14:18:33Z</time>
      </trkpt>
      <trkpt lat="40.862000" lon="-3.880028">
        <ele>1267.699</ele>
        <time>2021-07-31T14:18:40Z</time>
      </trkpt>
      <trkpt lat="40.862029" lon="-3.880028">
        <ele>1267.587</ele>
        <time>2021-07-31T14:18:41Z</time>
      </trkpt>
      <trkpt lat="40.862058" lon="-3.880033">
        <ele>1267.426</ele>
        <time>2021-07-31T14:18:43Z</time>
      </trkpt>
      <trkpt lat="40.862080" lon="-3.880053">
        <ele>1267.147</ele>
        <time>2021-07-31T14:18:44Z</time>
      </trkpt>
      <trkpt lat="40.862102" lon="-3.880060">
        <ele>1267.011</ele>
        <time>2021-07-31T14:18:46Z</time>
      </trkpt>
      <trkpt lat="40.862118" lon="-3.880073">
        <ele>1266.808</ele>
        <time>2021-07-31T14:18:47Z</time>
      </trkpt>
      <trkpt lat="40.862147" lon="-3.880078">
        <ele>1266.729</ele>
        <time>2021-07-31T14:18:49Z</time>
      </trkpt>
      <trkpt lat="40.862176" lon="-3.880078">
        <ele>1266.641</ele>
        <time>2021-07-31T14:18:51Z</time>
      </trkpt>
      <trkpt lat="40.862205" lon="-3.880083">
        <ele>1266.528</ele>
        <time>2021-07-31T14:18:53Z</time>
      </trkpt>
      <trkpt lat="40.862234" lon="-3.880105">
        <ele>1266.235</ele>
        <time>2021-07-31T14:18:55Z</time>
      </trkpt>
      <trkpt lat="40.862262" lon="-3.880118">
        <ele>1265.937</ele>
        <time>2021-07-31T14:18:57Z</time>
      </trkpt>
      <trkpt lat="40.862282" lon="-3.880117">
        <ele>1265.894</ele>
        <time>2021-07-31T14:18:59Z</time>
      </trkpt>
      <trkpt lat="40.862301" lon="-3.880122">
        <ele>1265.734</ele>
        <time>2021-07-31T14:19:01Z</time>
      </trkpt>
      <trkpt lat="40.862323" lon="-3.880120">
        <ele>1265.632</ele>
        <time>2021-07-31T14:19:03Z</time>
      </trkpt>
      <trkpt lat="40.862352" lon="-3.880127">
        <ele>1265.477</ele>
        <time>2021-07-31T14:19:06Z</time>
      </trkpt>
      <trkpt lat="40.862374" lon="-3.880140">
        <ele>1265.261</ele>
        <time>2021-07-31T14:19:08Z</time>
      </trkpt>
      <trkpt lat="40.862397" lon="-3.880154">
        <ele>1265.027</ele>
        <time>2021-07-31T14:19:11Z</time>
      </trkpt>
      <trkpt lat="40.862432" lon="-3.880148">
        <ele>1264.808</ele>
        <time>2021-07-31T14:19:13Z</time>
      </trkpt>
      <trkpt lat="40.862438" lon="-3.880176">
        <ele>1264.714</ele>
        <time>2021-07-31T14:19:15Z</time>
      </trkpt>
      <trkpt lat="40.862451" lon="-3.880195">
        <ele>1264.546</ele>
        <time>2021-07-31T14:19:16Z</time>
      </trkpt>
      <trkpt lat="40.862477" lon="-3.880212">
        <ele>1264.363</ele>
        <time>2021-07-31T14:19:18Z</time>
      </trkpt>
      <trkpt lat="40.862506" lon="-3.880206">
        <ele>1264.210</ele>
        <time>2021-07-31T14:19:20Z</time>
      </trkpt>
      <trkpt lat="40.862534" lon="-3.880208">
        <ele>1264.022</ele>
        <time>2021-07-31T14:19:22Z</time>
      </trkpt>
      <trkpt lat="40.862560" lon="-3.880215">
        <ele>1263.899</ele>
        <time>2021-07-31T14:19:24Z</time>
      </trkpt>
      <trkpt lat="40.862582" lon="-3.880205">
        <ele>1263.759</ele>
        <time>2021-07-31T14:19:26Z</time>
      </trkpt>
      <trkpt lat="40.862605" lon="-3.880193">
        <ele>1263.787</ele>
        <time>2021-07-31T14:19:28Z</time>
      </trkpt>
      <trkpt lat="40.862634" lon="-3.880182">
        <ele>1263.565</ele>
        <time>2021-07-31T14:19:31Z</time>
      </trkpt>
      <trkpt lat="40.862662" lon="-3.880172">
        <ele>1263.468</ele>
        <time>2021-07-31T14:19:33Z</time>
      </trkpt>
      <trkpt lat="40.862682" lon="-3.880165">
        <ele>1263.414</ele>
        <time>2021-07-31T14:19:34Z</time>
      </trkpt>
      <trkpt lat="40.862701" lon="-3.880158">
        <ele>1263.308</ele>
        <time>2021-07-31T14:19:36Z</time>
      </trkpt>
      <trkpt lat="40.862720" lon="-3.880154">
        <ele>1263.293</ele>
        <time>2021-07-31T14:19:38Z</time>
      </trkpt>
      <trkpt lat="40.862736" lon="-3.880166">
        <ele>1263.015</ele>
        <time>2021-07-31T14:19:40Z</time>
      </trkpt>
      <trkpt lat="40.862755" lon="-3.880175">
        <ele>1262.922</ele>
        <time>2021-07-31T14:19:41Z</time>
      </trkpt>
      <trkpt lat="40.862794" lon="-3.880180">
        <ele>1262.719</ele>
        <time>2021-07-31T14:19:43Z</time>
      </trkpt>
      <trkpt lat="40.862819" lon="-3.880196">
        <ele>1262.581</ele>
        <time>2021-07-31T14:19:45Z</time>
      </trkpt>
      <trkpt lat="40.862842" lon="-3.880196">
        <ele>1262.428</ele>
        <time>2021-07-31T14:19:47Z</time>
      </trkpt>
      <trkpt lat="40.862864" lon="-3.880212">
        <ele>1262.248</ele>
        <time>2021-07-31T14:19:49Z</time>
      </trkpt>
      <trkpt lat="40.862896" lon="-3.880227">
        <ele>1262.046</ele>
        <time>2021-07-31T14:19:51Z</time>
      </trkpt>
      <trkpt lat="40.862915" lon="-3.880235">
        <ele>1261.957</ele>
        <time>2021-07-31T14:19:52Z</time>
      </trkpt>
      <trkpt lat="40.862944" lon="-3.880250">
        <ele>1261.700</ele>
        <time>2021-07-31T14:19:54Z</time>
      </trkpt>
      <trkpt lat="40.862970" lon="-3.880260">
        <ele>1261.520</ele>
        <time>2021-07-31T14:19:56Z</time>
      </trkpt>
      <trkpt lat="40.862989" lon="-3.880275">
        <ele>1261.308</ele>
        <time>2021-07-31T14:19:58Z</time>
      </trkpt>
      <trkpt lat="40.863014" lon="-3.880292">
        <ele>1261.062</ele>
        <time>2021-07-31T14:20:01Z</time>
      </trkpt>
      <trkpt lat="40.863037" lon="-3.880308">
        <ele>1260.834</ele>
        <time>2021-07-31T14:20:03Z</time>
      </trkpt>
      <trkpt lat="40.863059" lon="-3.880320">
        <ele>1260.791</ele>
        <time>2021-07-31T14:20:05Z</time>
      </trkpt>
      <trkpt lat="40.863088" lon="-3.880328">
        <ele>1260.568</ele>
        <time>2021-07-31T14:20:07Z</time>
      </trkpt>
      <trkpt lat="40.863114" lon="-3.880348">
        <ele>1260.290</ele>
        <time>2021-07-31T14:20:10Z</time>
      </trkpt>
      <trkpt lat="40.863133" lon="-3.880364">
        <ele>1260.037</ele>
        <time>2021-07-31T14:20:13Z</time>
      </trkpt>
      <trkpt lat="40.863155" lon="-3.880364">
        <ele>1259.917</ele>
        <time>2021-07-31T14:20:15Z</time>
      </trkpt>
      <trkpt lat="40.863174" lon="-3.880358">
        <ele>1259.955</ele>
        <time>2021-07-31T14:20:17Z</time>
      </trkpt>
      <trkpt lat="40.863194" lon="-3.880357">
        <ele>1259.821</ele>
        <time>2021-07-31T14:20:19Z</time>
      </trkpt>
      <trkpt lat="40.863219" lon="-3.880358">
        <ele>1259.741</ele>
        <time>2021-07-31T14:20:21Z</time>
      </trkpt>
      <trkpt lat="40.863238" lon="-3.880360">
        <ele>1259.605</ele>
        <time>2021-07-31T14:20:22Z</time>
      </trkpt>
      <trkpt lat="40.863258" lon="-3.880365">
        <ele>1259.408</ele>
        <time>2021-07-31T14:20:23Z</time>
      </trkpt>
      <trkpt lat="40.863280" lon="-3.880364">
        <ele>1259.379</ele>
        <time>2021-07-31T14:20:25Z</time>
      </trkpt>
      <trkpt lat="40.863312" lon="-3.880352">
        <ele>1259.341</ele>
        <time>2021-07-31T14:20:27Z</time>
      </trkpt>
      <trkpt lat="40.863341" lon="-3.880345">
        <ele>1259.258</ele>
        <time>2021-07-31T14:20:29Z</time>
      </trkpt>
      <trkpt lat="40.863360" lon="-3.880342">
        <ele>1259.055</ele>
        <time>2021-07-31T14:20:30Z</time>
      </trkpt>
      <trkpt lat="40.863386" lon="-3.880342">
        <ele>1258.727</ele>
        <time>2021-07-31T14:20:31Z</time>
      </trkpt>
      <trkpt lat="40.863408" lon="-3.880340">
        <ele>1258.594</ele>
        <time>2021-07-31T14:20:32Z</time>
      </trkpt>
      <trkpt lat="40.863427" lon="-3.880330">
        <ele>1258.494</ele>
        <time>2021-07-31T14:20:33Z</time>
      </trkpt>
      <trkpt lat="40.863453" lon="-3.880325">
        <ele>1258.142</ele>
        <time>2021-07-31T14:20:35Z</time>
      </trkpt>
      <trkpt lat="40.863475" lon="-3.880325">
        <ele>1257.982</ele>
        <time>2021-07-31T14:20:37Z</time>
      </trkpt>
      <trkpt lat="40.863504" lon="-3.880325">
        <ele>1257.543</ele>
        <time>2021-07-31T14:20:39Z</time>
      </trkpt>
      <trkpt lat="40.863526" lon="-3.880313">
        <ele>1257.517</ele>
        <time>2021-07-31T14:20:42Z</time>
      </trkpt>
      <trkpt lat="40.863549" lon="-3.880302">
        <ele>1257.308</ele>
        <time>2021-07-31T14:20:44Z</time>
      </trkpt>
      <trkpt lat="40.863565" lon="-3.880280">
        <ele>1257.575</ele>
        <time>2021-07-31T14:20:47Z</time>
      </trkpt>
      <trkpt lat="40.863578" lon="-3.880260">
        <ele>1257.557</ele>
        <time>2021-07-31T14:20:49Z</time>
      </trkpt>
      <trkpt lat="40.863590" lon="-3.880242">
        <ele>1257.664</ele>
        <time>2021-07-31T14:20:51Z</time>
      </trkpt>
      <trkpt lat="40.863606" lon="-3.880205">
        <ele>1257.881</ele>
        <time>2021-07-31T14:20:53Z</time>
      </trkpt>
      <trkpt lat="40.863616" lon="-3.880182">
        <ele>1257.913</ele>
        <time>2021-07-31T14:20:55Z</time>
      </trkpt>
      <trkpt lat="40.863629" lon="-3.880160">
        <ele>1258.030</ele>
        <time>2021-07-31T14:20:57Z</time>
      </trkpt>
      <trkpt lat="40.863638" lon="-3.880138">
        <ele>1258.070</ele>
        <time>2021-07-31T14:20:59Z</time>
      </trkpt>
      <trkpt lat="40.863651" lon="-3.880118">
        <ele>1258.028</ele>
        <time>2021-07-31T14:21:01Z</time>
      </trkpt>
      <trkpt lat="40.863667" lon="-3.880095">
        <ele>1258.049</ele>
        <time>2021-07-31T14:21:03Z</time>
      </trkpt>
      <trkpt lat="40.863686" lon="-3.880080">
        <ele>1257.802</ele>
        <time>2021-07-31T14:21:05Z</time>
      </trkpt>
      <trkpt lat="40.863702" lon="-3.880058">
        <ele>1257.722</ele>
        <time>2021-07-31T14:21:07Z</time>
      </trkpt>
      <trkpt lat="40.863718" lon="-3.880040">
        <ele>1257.608</ele>
        <time>2021-07-31T14:21:09Z</time>
      </trkpt>
      <trkpt lat="40.863744" lon="-3.880028">
        <ele>1257.381</ele>
        <time>2021-07-31T14:21:11Z</time>
      </trkpt>
      <trkpt lat="40.863766" lon="-3.880010">
        <ele>1257.153</ele>
        <time>2021-07-31T14:21:13Z</time>
      </trkpt>
      <trkpt lat="40.863782" lon="-3.879995">
        <ele>1257.050</ele>
        <time>2021-07-31T14:21:14Z</time>
      </trkpt>
      <trkpt lat="40.863805" lon="-3.879965">
        <ele>1256.867</ele>
        <time>2021-07-31T14:21:16Z</time>
      </trkpt>
      <trkpt lat="40.863818" lon="-3.879947">
        <ele>1256.869</ele>
        <time>2021-07-31T14:21:18Z</time>
      </trkpt>
      <trkpt lat="40.863843" lon="-3.879938">
        <ele>1256.516</ele>
        <time>2021-07-31T14:21:22Z</time>
      </trkpt>
      <trkpt lat="40.863866" lon="-3.879925">
        <ele>1256.246</ele>
        <time>2021-07-31T14:21:36Z</time>
      </trkpt>
      <trkpt lat="40.863882" lon="-3.879908">
        <ele>1256.194</ele>
        <time>2021-07-31T14:21:37Z</time>
      </trkpt>
      <trkpt lat="40.863901" lon="-3.879880">
        <ele>1256.195</ele>
        <time>2021-07-31T14:21:39Z</time>
      </trkpt>
      <trkpt lat="40.863914" lon="-3.879858">
        <ele>1256.049</ele>
        <time>2021-07-31T14:21:41Z</time>
      </trkpt>
      <trkpt lat="40.863936" lon="-3.879840">
        <ele>1255.823</ele>
        <time>2021-07-31T14:21:43Z</time>
      </trkpt>
      <trkpt lat="40.863955" lon="-3.879830">
        <ele>1255.508</ele>
        <time>2021-07-31T14:21:44Z</time>
      </trkpt>
      <trkpt lat="40.863974" lon="-3.879808">
        <ele>1255.336</ele>
        <time>2021-07-31T14:21:46Z</time>
      </trkpt>
      <trkpt lat="40.864003" lon="-3.879788">
        <ele>1254.938</ele>
        <time>2021-07-31T14:21:48Z</time>
      </trkpt>
      <trkpt lat="40.864026" lon="-3.879772">
        <ele>1254.675</ele>
        <time>2021-07-31T14:21:50Z</time>
      </trkpt>
      <trkpt lat="40.864048" lon="-3.879758">
        <ele>1254.392</ele>
        <time>2021-07-31T14:21:52Z</time>
      </trkpt>
      <trkpt lat="40.864067" lon="-3.879748">
        <ele>1253.924</ele>
        <time>2021-07-31T14:21:54Z</time>
      </trkpt>
      <trkpt lat="40.864090" lon="-3.879732">
        <ele>1253.641</ele>
        <time>2021-07-31T14:21:56Z</time>
      </trkpt>
      <trkpt lat="40.864112" lon="-3.879712">
        <ele>1253.371</ele>
        <time>2021-07-31T14:21:58Z</time>
      </trkpt>
      <trkpt lat="40.864134" lon="-3.879698">
        <ele>1252.989</ele>
        <time>2021-07-31T14:22:00Z</time>
      </trkpt>
      <trkpt lat="40.864154" lon="-3.879686">
        <ele>1252.586</ele>
        <time>2021-07-31T14:22:02Z</time>
      </trkpt>
      <trkpt lat="40.864173" lon="-3.879668">
        <ele>1252.360</ele>
        <time>2021-07-31T14:22:04Z</time>
      </trkpt>
      <trkpt lat="40.864195" lon="-3.879648">
        <ele>1252.226</ele>
        <time>2021-07-31T14:22:06Z</time>
      </trkpt>
      <trkpt lat="40.864211" lon="-3.879637">
        <ele>1252.108</ele>
        <time>2021-07-31T14:22:07Z</time>
      </trkpt>
      <trkpt lat="40.864240" lon="-3.879617">
        <ele>1251.935</ele>
        <time>2021-07-31T14:22:09Z</time>
      </trkpt>
      <trkpt lat="40.864259" lon="-3.879603">
        <ele>1251.757</ele>
        <time>2021-07-31T14:22:11Z</time>
      </trkpt>
      <trkpt lat="40.864278" lon="-3.879587">
        <ele>1251.634</ele>
        <time>2021-07-31T14:22:13Z</time>
      </trkpt>
      <trkpt lat="40.864304" lon="-3.879563">
        <ele>1251.441</ele>
        <time>2021-07-31T14:22:15Z</time>
      </trkpt>
      <trkpt lat="40.864320" lon="-3.879550">
        <ele>1251.283</ele>
        <time>2021-07-31T14:22:16Z</time>
      </trkpt>
      <trkpt lat="40.864342" lon="-3.879530">
        <ele>1251.180</ele>
        <time>2021-07-31T14:22:18Z</time>
      </trkpt>
      <trkpt lat="40.864362" lon="-3.879508">
        <ele>1250.990</ele>
        <time>2021-07-31T14:22:21Z</time>
      </trkpt>
      <trkpt lat="40.864381" lon="-3.879482">
        <ele>1250.738</ele>
        <time>2021-07-31T14:22:24Z</time>
      </trkpt>
      <trkpt lat="40.864403" lon="-3.879447">
        <ele>1250.665</ele>
        <time>2021-07-31T14:22:26Z</time>
      </trkpt>
      <trkpt lat="40.864422" lon="-3.879435">
        <ele>1250.468</ele>
        <time>2021-07-31T14:22:27Z</time>
      </trkpt>
      <trkpt lat="40.864451" lon="-3.879418">
        <ele>1250.214</ele>
        <time>2021-07-31T14:22:29Z</time>
      </trkpt>
      <trkpt lat="40.864470" lon="-3.879395">
        <ele>1250.208</ele>
        <time>2021-07-31T14:22:31Z</time>
      </trkpt>
      <trkpt lat="40.864486" lon="-3.879368">
        <ele>1250.343</ele>
        <time>2021-07-31T14:22:33Z</time>
      </trkpt>
      <trkpt lat="40.864506" lon="-3.879357">
        <ele>1250.215</ele>
        <time>2021-07-31T14:22:35Z</time>
      </trkpt>
      <trkpt lat="40.864525" lon="-3.879343">
        <ele>1250.142</ele>
        <time>2021-07-31T14:22:37Z</time>
      </trkpt>
      <trkpt lat="40.864538" lon="-3.879326">
        <ele>1250.169</ele>
        <time>2021-07-31T14:22:40Z</time>
      </trkpt>
      <trkpt lat="40.864557" lon="-3.879308">
        <ele>1250.121</ele>
        <time>2021-07-31T14:22:42Z</time>
      </trkpt>
      <trkpt lat="40.864576" lon="-3.879302">
        <ele>1249.998</ele>
        <time>2021-07-31T14:22:44Z</time>
      </trkpt>
      <trkpt lat="40.864598" lon="-3.879290">
        <ele>1249.718</ele>
        <time>2021-07-31T14:22:46Z</time>
      </trkpt>
      <trkpt lat="40.864621" lon="-3.879275">
        <ele>1249.596</ele>
        <time>2021-07-31T14:22:48Z</time>
      </trkpt>
      <trkpt lat="40.864646" lon="-3.879257">
        <ele>1249.451</ele>
        <time>2021-07-31T14:22:50Z</time>
      </trkpt>
      <trkpt lat="40.864669" lon="-3.879242">
        <ele>1249.201</ele>
        <time>2021-07-31T14:22:52Z</time>
      </trkpt>
      <trkpt lat="40.864685" lon="-3.879227">
        <ele>1249.111</ele>
        <time>2021-07-31T14:22:53Z</time>
      </trkpt>
      <trkpt lat="40.864701" lon="-3.879207">
        <ele>1249.008</ele>
        <time>2021-07-31T14:22:56Z</time>
      </trkpt>
      <trkpt lat="40.864720" lon="-3.879195">
        <ele>1248.812</ele>
        <time>2021-07-31T14:22:58Z</time>
      </trkpt>
      <trkpt lat="40.864739" lon="-3.879178">
        <ele>1248.754</ele>
        <time>2021-07-31T14:23:00Z</time>
      </trkpt>
      <trkpt lat="40.864758" lon="-3.879160">
        <ele>1248.581</ele>
        <time>2021-07-31T14:23:02Z</time>
      </trkpt>
      <trkpt lat="40.864781" lon="-3.879143">
        <ele>1248.368</ele>
        <time>2021-07-31T14:23:04Z</time>
      </trkpt>
      <trkpt lat="40.864803" lon="-3.879132">
        <ele>1248.170</ele>
        <time>2021-07-31T14:23:06Z</time>
      </trkpt>
      <trkpt lat="40.864826" lon="-3.879122">
        <ele>1247.847</ele>
        <time>2021-07-31T14:23:07Z</time>
      </trkpt>
      <trkpt lat="40.864845" lon="-3.879113">
        <ele>1247.647</ele>
        <time>2021-07-31T14:23:08Z</time>
      </trkpt>
      <trkpt lat="40.864867" lon="-3.879102">
        <ele>1247.465</ele>
        <time>2021-07-31T14:23:09Z</time>
      </trkpt>
      <trkpt lat="40.864896" lon="-3.879083">
        <ele>1247.143</ele>
        <time>2021-07-31T14:23:12Z</time>
      </trkpt>
      <trkpt lat="40.864925" lon="-3.879063">
        <ele>1246.864</ele>
        <time>2021-07-31T14:23:15Z</time>
      </trkpt>
      <trkpt lat="40.864944" lon="-3.879057">
        <ele>1246.610</ele>
        <time>2021-07-31T14:23:16Z</time>
      </trkpt>
      <trkpt lat="40.864966" lon="-3.879052">
        <ele>1246.308</ele>
        <time>2021-07-31T14:23:18Z</time>
      </trkpt>
      <trkpt lat="40.864995" lon="-3.879053">
        <ele>1245.911</ele>
        <time>2021-07-31T14:23:20Z</time>
      </trkpt>
      <trkpt lat="40.865014" lon="-3.879040">
        <ele>1245.853</ele>
        <time>2021-07-31T14:23:22Z</time>
      </trkpt>
      <trkpt lat="40.865037" lon="-3.879020">
        <ele>1245.740</ele>
        <time>2021-07-31T14:23:24Z</time>
      </trkpt>
      <trkpt lat="40.865056" lon="-3.879013">
        <ele>1245.687</ele>
        <time>2021-07-31T14:23:25Z</time>
      </trkpt>
      <trkpt lat="40.865085" lon="-3.878995">
        <ele>1245.499</ele>
        <time>2021-07-31T14:23:27Z</time>
      </trkpt>
      <trkpt lat="40.865107" lon="-3.878985">
        <ele>1245.326</ele>
        <time>2021-07-31T14:23:29Z</time>
      </trkpt>
      <trkpt lat="40.865142" lon="-3.878978">
        <ele>1245.016</ele>
        <time>2021-07-31T14:23:31Z</time>
      </trkpt>
      <trkpt lat="40.865162" lon="-3.878965">
        <ele>1244.914</ele>
        <time>2021-07-31T14:23:33Z</time>
      </trkpt>
      <trkpt lat="40.865184" lon="-3.878955">
        <ele>1244.729</ele>
        <time>2021-07-31T14:23:35Z</time>
      </trkpt>
      <trkpt lat="40.865206" lon="-3.878948">
        <ele>1244.500</ele>
        <time>2021-07-31T14:23:37Z</time>
      </trkpt>
      <trkpt lat="40.865226" lon="-3.878940">
        <ele>1244.320</ele>
        <time>2021-07-31T14:23:39Z</time>
      </trkpt>
      <trkpt lat="40.865245" lon="-3.878927">
        <ele>1244.208</ele>
        <time>2021-07-31T14:23:41Z</time>
      </trkpt>
      <trkpt lat="40.865264" lon="-3.878917">
        <ele>1244.079</ele>
        <time>2021-07-31T14:23:43Z</time>
      </trkpt>
      <trkpt lat="40.865293" lon="-3.878902">
        <ele>1243.751</ele>
        <time>2021-07-31T14:23:45Z</time>
      </trkpt>
      <trkpt lat="40.865312" lon="-3.878888">
        <ele>1243.528</ele>
        <time>2021-07-31T14:23:47Z</time>
      </trkpt>
      <trkpt lat="40.865338" lon="-3.878875">
        <ele>1243.295</ele>
        <time>2021-07-31T14:23:49Z</time>
      </trkpt>
      <trkpt lat="40.865363" lon="-3.878872">
        <ele>1242.987</ele>
        <time>2021-07-31T14:23:51Z</time>
      </trkpt>
      <trkpt lat="40.865382" lon="-3.878862">
        <ele>1242.714</ele>
        <time>2021-07-31T14:23:52Z</time>
      </trkpt>
      <trkpt lat="40.865411" lon="-3.878852">
        <ele>1242.344</ele>
        <time>2021-07-31T14:23:54Z</time>
      </trkpt>
      <trkpt lat="40.865437" lon="-3.878842">
        <ele>1242.022</ele>
        <time>2021-07-31T14:23:56Z</time>
      </trkpt>
      <trkpt lat="40.865462" lon="-3.878817">
        <ele>1241.991</ele>
        <time>2021-07-31T14:23:58Z</time>
      </trkpt>
      <trkpt lat="40.865494" lon="-3.878802">
        <ele>1241.581</ele>
        <time>2021-07-31T14:24:00Z</time>
      </trkpt>
      <trkpt lat="40.865517" lon="-3.878798">
        <ele>1241.219</ele>
        <time>2021-07-31T14:24:02Z</time>
      </trkpt>
      <trkpt lat="40.865546" lon="-3.878795">
        <ele>1240.808</ele>
        <time>2021-07-31T14:24:04Z</time>
      </trkpt>
      <trkpt lat="40.865565" lon="-3.878792">
        <ele>1240.686</ele>
        <time>2021-07-31T14:24:05Z</time>
      </trkpt>
      <trkpt lat="40.865584" lon="-3.878788">
        <ele>1240.568</ele>
        <time>2021-07-31T14:24:06Z</time>
      </trkpt>
      <trkpt lat="40.865603" lon="-3.878782">
        <ele>1240.495</ele>
        <time>2021-07-31T14:24:07Z</time>
      </trkpt>
      <trkpt lat="40.865622" lon="-3.878778">
        <ele>1240.352</ele>
        <time>2021-07-31T14:24:08Z</time>
      </trkpt>
      <trkpt lat="40.865651" lon="-3.878780">
        <ele>1240.124</ele>
        <time>2021-07-31T14:24:10Z</time>
      </trkpt>
      <trkpt lat="40.865677" lon="-3.878778">
        <ele>1239.991</ele>
        <time>2021-07-31T14:24:12Z</time>
      </trkpt>
      <trkpt lat="40.865699" lon="-3.878776">
        <ele>1239.821</ele>
        <time>2021-07-31T14:24:14Z</time>
      </trkpt>
      <trkpt lat="40.865718" lon="-3.878778">
        <ele>1239.659</ele>
        <time>2021-07-31T14:24:16Z</time>
      </trkpt>
      <trkpt lat="40.865738" lon="-3.878780">
        <ele>1239.591</ele>
        <time>2021-07-31T14:24:18Z</time>
      </trkpt>
      <trkpt lat="40.865760" lon="-3.878788">
        <ele>1239.381</ele>
        <time>2021-07-31T14:24:20Z</time>
      </trkpt>
      <trkpt lat="40.865782" lon="-3.878795">
        <ele>1239.019</ele>
        <time>2021-07-31T14:24:22Z</time>
      </trkpt>
      <trkpt lat="40.865808" lon="-3.878800">
        <ele>1238.808</ele>
        <time>2021-07-31T14:24:24Z</time>
      </trkpt>
      <trkpt lat="40.865827" lon="-3.878810">
        <ele>1238.656</ele>
        <time>2021-07-31T14:24:26Z</time>
      </trkpt>
      <trkpt lat="40.865853" lon="-3.878823">
        <ele>1238.458</ele>
        <time>2021-07-31T14:24:28Z</time>
      </trkpt>
      <trkpt lat="40.865878" lon="-3.878830">
        <ele>1238.315</ele>
        <time>2021-07-31T14:24:30Z</time>
      </trkpt>
      <trkpt lat="40.865907" lon="-3.878845">
        <ele>1238.152</ele>
        <time>2021-07-31T14:24:32Z</time>
      </trkpt>
      <trkpt lat="40.865936" lon="-3.878855">
        <ele>1237.914</ele>
        <time>2021-07-31T14:24:34Z</time>
      </trkpt>
      <trkpt lat="40.865955" lon="-3.878882">
        <ele>1237.611</ele>
        <time>2021-07-31T14:24:37Z</time>
      </trkpt>
      <trkpt lat="40.865978" lon="-3.878900">
        <ele>1237.481</ele>
        <time>2021-07-31T14:24:39Z</time>
      </trkpt>
      <trkpt lat="40.866006" lon="-3.878902">
        <ele>1237.259</ele>
        <time>2021-07-31T14:24:42Z</time>
      </trkpt>
      <trkpt lat="40.866029" lon="-3.878888">
        <ele>1237.388</ele>
        <time>2021-07-31T14:24:44Z</time>
      </trkpt>
      <trkpt lat="40.866054" lon="-3.878872">
        <ele>1237.424</ele>
        <time>2021-07-31T14:24:46Z</time>
      </trkpt>
      <trkpt lat="40.866070" lon="-3.878857">
        <ele>1237.526</ele>
        <time>2021-07-31T14:24:48Z</time>
      </trkpt>
      <trkpt lat="40.866090" lon="-3.878843">
        <ele>1237.608</ele>
        <time>2021-07-31T14:24:51Z</time>
      </trkpt>
      <trkpt lat="40.866109" lon="-3.878830">
        <ele>1237.685</ele>
        <time>2021-07-31T14:24:53Z</time>
      </trkpt>
      <trkpt lat="40.866134" lon="-3.878822">
        <ele>1237.257</ele>
        <time>2021-07-31T14:24:55Z</time>
      </trkpt>
      <trkpt lat="40.866160" lon="-3.878808">
        <ele>1236.864</ele>
        <time>2021-07-31T14:24:57Z</time>
      </trkpt>
      <trkpt lat="40.866186" lon="-3.878792">
        <ele>1236.461</ele>
        <time>2021-07-31T14:24:59Z</time>
      </trkpt>
      <trkpt lat="40.866205" lon="-3.878768">
        <ele>1236.343</ele>
        <time>2021-07-31T14:25:01Z</time>
      </trkpt>
      <trkpt lat="40.866218" lon="-3.878742">
        <ele>1236.320</ele>
        <time>2021-07-31T14:25:04Z</time>
      </trkpt>
      <trkpt lat="40.866246" lon="-3.878738">
        <ele>1235.760</ele>
        <time>2021-07-31T14:25:15Z</time>
      </trkpt>
      <trkpt lat="40.866269" lon="-3.878717">
        <ele>1235.428</ele>
        <time>2021-07-31T14:25:17Z</time>
      </trkpt>
      <trkpt lat="40.866285" lon="-3.878703">
        <ele>1235.345</ele>
        <time>2021-07-31T14:25:18Z</time>
      </trkpt>
      <trkpt lat="40.866304" lon="-3.878677">
        <ele>1235.147</ele>
        <time>2021-07-31T14:25:20Z</time>
      </trkpt>
      <trkpt lat="40.866314" lon="-3.878640">
        <ele>1235.311</ele>
        <time>2021-07-31T14:25:22Z</time>
      </trkpt>
      <trkpt lat="40.866326" lon="-3.878610">
        <ele>1235.408</ele>
        <time>2021-07-31T14:25:24Z</time>
      </trkpt>
      <trkpt lat="40.866336" lon="-3.878574">
        <ele>1235.451</ele>
        <time>2021-07-31T14:25:26Z</time>
      </trkpt>
      <trkpt lat="40.866349" lon="-3.878552">
        <ele>1235.393</ele>
        <time>2021-07-31T14:25:27Z</time>
      </trkpt>
      <trkpt lat="40.866365" lon="-3.878522">
        <ele>1235.180</ele>
        <time>2021-07-31T14:25:29Z</time>
      </trkpt>
      <trkpt lat="40.866384" lon="-3.878492">
        <ele>1235.027</ele>
        <time>2021-07-31T14:25:31Z</time>
      </trkpt>
      <trkpt lat="40.866403" lon="-3.878462">
        <ele>1234.899</ele>
        <time>2021-07-31T14:25:33Z</time>
      </trkpt>
      <trkpt lat="40.866429" lon="-3.878443">
        <ele>1234.486</ele>
        <time>2021-07-31T14:25:36Z</time>
      </trkpt>
      <trkpt lat="40.866445" lon="-3.878416">
        <ele>1234.316</ele>
        <time>2021-07-31T14:25:38Z</time>
      </trkpt>
      <trkpt lat="40.866454" lon="-3.878387">
        <ele>1234.344</ele>
        <time>2021-07-31T14:25:40Z</time>
      </trkpt>
      <trkpt lat="40.866467" lon="-3.878367">
        <ele>1234.196</ele>
        <time>2021-07-31T14:25:41Z</time>
      </trkpt>
      <trkpt lat="40.866467" lon="-3.878335">
        <ele>1234.331</ele>
        <time>2021-07-31T14:25:43Z</time>
      </trkpt>
      <trkpt lat="40.866470" lon="-3.878310">
        <ele>1234.424</ele>
        <time>2021-07-31T14:25:45Z</time>
      </trkpt>
      <trkpt lat="40.866477" lon="-3.878282">
        <ele>1234.408</ele>
        <time>2021-07-31T14:25:47Z</time>
      </trkpt>
      <trkpt lat="40.866483" lon="-3.878242">
        <ele>1234.586</ele>
        <time>2021-07-31T14:25:49Z</time>
      </trkpt>
      <trkpt lat="40.866486" lon="-3.878212">
        <ele>1234.698</ele>
        <time>2021-07-31T14:25:51Z</time>
      </trkpt>
      <trkpt lat="40.866486" lon="-3.878182">
        <ele>1234.815</ele>
        <time>2021-07-31T14:25:53Z</time>
      </trkpt>
      <trkpt lat="40.866483" lon="-3.878135">
        <ele>1235.242</ele>
        <time>2021-07-31T14:25:55Z</time>
      </trkpt>
      <trkpt lat="40.866477" lon="-3.878098">
        <ele>1235.534</ele>
        <time>2021-07-31T14:25:57Z</time>
      </trkpt>
      <trkpt lat="40.866477" lon="-3.878065">
        <ele>1235.721</ele>
        <time>2021-07-31T14:25:59Z</time>
      </trkpt>
      <trkpt lat="40.866474" lon="-3.878025">
        <ele>1235.981</ele>
        <time>2021-07-31T14:26:01Z</time>
      </trkpt>
      <trkpt lat="40.866470" lon="-3.877990">
        <ele>1236.069</ele>
        <time>2021-07-31T14:26:03Z</time>
      </trkpt>
      <trkpt lat="40.866470" lon="-3.877955">
        <ele>1236.173</ele>
        <time>2021-07-31T14:26:05Z</time>
      </trkpt>
      <trkpt lat="40.866477" lon="-3.877915">
        <ele>1235.985</ele>
        <time>2021-07-31T14:26:07Z</time>
      </trkpt>
      <trkpt lat="40.866490" lon="-3.877882">
        <ele>1235.713</ele>
        <time>2021-07-31T14:26:09Z</time>
      </trkpt>
      <trkpt lat="40.866502" lon="-3.877847">
        <ele>1235.508</ele>
        <time>2021-07-31T14:26:12Z</time>
      </trkpt>
      <trkpt lat="40.866509" lon="-3.877818">
        <ele>1235.394</ele>
        <time>2021-07-31T14:26:14Z</time>
      </trkpt>
      <trkpt lat="40.866528" lon="-3.877795">
        <ele>1235.046</ele>
        <time>2021-07-31T14:26:16Z</time>
      </trkpt>
      <trkpt lat="40.866547" lon="-3.877772">
        <ele>1234.623</ele>
        <time>2021-07-31T14:26:18Z</time>
      </trkpt>
      <trkpt lat="40.866566" lon="-3.877745">
        <ele>1234.220</ele>
        <time>2021-07-31T14:26:20Z</time>
      </trkpt>
      <trkpt lat="40.866589" lon="-3.877726">
        <ele>1233.852</ele>
        <time>2021-07-31T14:26:22Z</time>
      </trkpt>
      <trkpt lat="40.866602" lon="-3.877697">
        <ele>1233.669</ele>
        <time>2021-07-31T14:26:24Z</time>
      </trkpt>
      <trkpt lat="40.866614" lon="-3.877667">
        <ele>1233.519</ele>
        <time>2021-07-31T14:26:26Z</time>
      </trkpt>
      <trkpt lat="40.866627" lon="-3.877632">
        <ele>1233.347</ele>
        <time>2021-07-31T14:26:28Z</time>
      </trkpt>
      <trkpt lat="40.866634" lon="-3.877607">
        <ele>1233.289</ele>
        <time>2021-07-31T14:26:30Z</time>
      </trkpt>
      <trkpt lat="40.866637" lon="-3.877575">
        <ele>1233.306</ele>
        <time>2021-07-31T14:26:32Z</time>
      </trkpt>
      <trkpt lat="40.866653" lon="-3.877548">
        <ele>1233.126</ele>
        <time>2021-07-31T14:26:34Z</time>
      </trkpt>
      <trkpt lat="40.866682" lon="-3.877522">
        <ele>1232.608</ele>
        <time>2021-07-31T14:26:36Z</time>
      </trkpt>
      <trkpt lat="40.866701" lon="-3.877500">
        <ele>1232.425</ele>
        <time>2021-07-31T14:26:38Z</time>
      </trkpt>
      <trkpt lat="40.866704" lon="-3.877463">
        <ele>1232.587</ele>
        <time>2021-07-31T14:26:41Z</time>
      </trkpt>
      <trkpt lat="40.866707" lon="-3.877437">
        <ele>1232.544</ele>
        <time>2021-07-31T14:26:45Z</time>
      </trkpt>
      <trkpt lat="40.866730" lon="-3.877417">
        <ele>1232.251</ele>
        <time>2021-07-31T14:26:47Z</time>
      </trkpt>
      <trkpt lat="40.866749" lon="-3.877395">
        <ele>1231.993</ele>
        <time>2021-07-31T14:26:49Z</time>
      </trkpt>
      <trkpt lat="40.866762" lon="-3.877366">
        <ele>1231.860</ele>
        <time>2021-07-31T14:26:51Z</time>
      </trkpt>
      <trkpt lat="40.866781" lon="-3.877338">
        <ele>1231.590</ele>
        <time>2021-07-31T14:26:53Z</time>
      </trkpt>
      <trkpt lat="40.866794" lon="-3.877318">
        <ele>1231.488</ele>
        <time>2021-07-31T14:26:54Z</time>
      </trkpt>
      <trkpt lat="40.866810" lon="-3.877297">
        <ele>1231.262</ele>
        <time>2021-07-31T14:26:56Z</time>
      </trkpt>
      <trkpt lat="40.866822" lon="-3.877275">
        <ele>1231.083</ele>
        <time>2021-07-31T14:26:57Z</time>
      </trkpt>
      <trkpt lat="40.866842" lon="-3.877247">
        <ele>1230.811</ele>
        <time>2021-07-31T14:26:59Z</time>
      </trkpt>
      <trkpt lat="40.866851" lon="-3.877223">
        <ele>1230.708</ele>
        <time>2021-07-31T14:27:01Z</time>
      </trkpt>
      <trkpt lat="40.866861" lon="-3.877197">
        <ele>1230.643</ele>
        <time>2021-07-31T14:27:03Z</time>
      </trkpt>
      <trkpt lat="40.866861" lon="-3.877172">
        <ele>1230.785</ele>
        <time>2021-07-31T14:27:05Z</time>
      </trkpt>
      <trkpt lat="40.866870" lon="-3.877150">
        <ele>1230.632</ele>
        <time>2021-07-31T14:27:07Z</time>
      </trkpt>
      <trkpt lat="40.866890" lon="-3.877128">
        <ele>1230.319</ele>
        <time>2021-07-31T14:27:09Z</time>
      </trkpt>
      <trkpt lat="40.866912" lon="-3.877098">
        <ele>1230.021</ele>
        <time>2021-07-31T14:27:12Z</time>
      </trkpt>
      <trkpt lat="40.866928" lon="-3.877080">
        <ele>1229.818</ele>
        <time>2021-07-31T14:27:14Z</time>
      </trkpt>
      <trkpt lat="40.866941" lon="-3.877058">
        <ele>1229.728</ele>
        <time>2021-07-31T14:27:16Z</time>
      </trkpt>
      <trkpt lat="40.866954" lon="-3.877032">
        <ele>1229.596</ele>
        <time>2021-07-31T14:27:18Z</time>
      </trkpt>
      <trkpt lat="40.866970" lon="-3.877008">
        <ele>1229.415</ele>
        <time>2021-07-31T14:27:20Z</time>
      </trkpt>
      <trkpt lat="40.866982" lon="-3.876987">
        <ele>1229.365</ele>
        <time>2021-07-31T14:27:22Z</time>
      </trkpt>
      <trkpt lat="40.867002" lon="-3.876963">
        <ele>1229.111</ele>
        <time>2021-07-31T14:27:24Z</time>
      </trkpt>
      <trkpt lat="40.867027" lon="-3.876933">
        <ele>1228.908</ele>
        <time>2021-07-31T14:27:26Z</time>
      </trkpt>
      <trkpt lat="40.867046" lon="-3.876907">
        <ele>1228.798</ele>
        <time>2021-07-31T14:27:28Z</time>
      </trkpt>
      <trkpt lat="40.867066" lon="-3.876880">
        <ele>1228.640</ele>
        <time>2021-07-31T14:27:30Z</time>
      </trkpt>
      <trkpt lat="40.867078" lon="-3.876854">
        <ele>1228.697</ele>
        <time>2021-07-31T14:27:32Z</time>
      </trkpt>
      <trkpt lat="40.867091" lon="-3.876834">
        <ele>1228.554</ele>
        <time>2021-07-31T14:27:34Z</time>
      </trkpt>
      <trkpt lat="40.867110" lon="-3.876805">
        <ele>1228.496</ele>
        <time>2021-07-31T14:27:36Z</time>
      </trkpt>
      <trkpt lat="40.867130" lon="-3.876780">
        <ele>1228.393</ele>
        <time>2021-07-31T14:27:38Z</time>
      </trkpt>
      <trkpt lat="40.867149" lon="-3.876763">
        <ele>1228.273</ele>
        <time>2021-07-31T14:27:40Z</time>
      </trkpt>
      <trkpt lat="40.867165" lon="-3.876743">
        <ele>1228.151</ele>
        <time>2021-07-31T14:27:42Z</time>
      </trkpt>
      <trkpt lat="40.867187" lon="-3.876723">
        <ele>1228.055</ele>
        <time>2021-07-31T14:27:44Z</time>
      </trkpt>
      <trkpt lat="40.867203" lon="-3.876710">
        <ele>1227.907</ele>
        <time>2021-07-31T14:27:45Z</time>
      </trkpt>
      <trkpt lat="40.867219" lon="-3.876688">
        <ele>1227.917</ele>
        <time>2021-07-31T14:27:47Z</time>
      </trkpt>
      <trkpt lat="40.867232" lon="-3.876660">
        <ele>1227.908</ele>
        <time>2021-07-31T14:27:49Z</time>
      </trkpt>
      <trkpt lat="40.867251" lon="-3.876637">
        <ele>1227.912</ele>
        <time>2021-07-31T14:27:51Z</time>
      </trkpt>
      <trkpt lat="40.867277" lon="-3.876613">
        <ele>1227.884</ele>
        <time>2021-07-31T14:27:53Z</time>
      </trkpt>
      <trkpt lat="40.867299" lon="-3.876585">
        <ele>1227.751</ele>
        <time>2021-07-31T14:27:55Z</time>
      </trkpt>
      <trkpt lat="40.867312" lon="-3.876555">
        <ele>1227.768</ele>
        <time>2021-07-31T14:27:57Z</time>
      </trkpt>
      <trkpt lat="40.867325" lon="-3.876537">
        <ele>1227.740</ele>
        <time>2021-07-31T14:27:58Z</time>
      </trkpt>
      <trkpt lat="40.867331" lon="-3.876508">
        <ele>1227.747</ele>
        <time>2021-07-31T14:28:00Z</time>
      </trkpt>
      <trkpt lat="40.867344" lon="-3.876490">
        <ele>1227.777</ele>
        <time>2021-07-31T14:28:02Z</time>
      </trkpt>
      <trkpt lat="40.867350" lon="-3.876467">
        <ele>1227.795</ele>
        <time>2021-07-31T14:28:04Z</time>
      </trkpt>
      <trkpt lat="40.867363" lon="-3.876445">
        <ele>1227.784</ele>
        <time>2021-07-31T14:28:06Z</time>
      </trkpt>
      <trkpt lat="40.867386" lon="-3.876418">
        <ele>1227.507</ele>
        <time>2021-07-31T14:28:08Z</time>
      </trkpt>
      <trkpt lat="40.867402" lon="-3.876392">
        <ele>1227.417</ele>
        <time>2021-07-31T14:28:10Z</time>
      </trkpt>
      <trkpt lat="40.867418" lon="-3.876368">
        <ele>1227.308</ele>
        <time>2021-07-31T14:28:12Z</time>
      </trkpt>
      <trkpt lat="40.867424" lon="-3.876342">
        <ele>1227.325</ele>
        <time>2021-07-31T14:28:15Z</time>
      </trkpt>
      <trkpt lat="40.867437" lon="-3.876306">
        <ele>1227.217</ele>
        <time>2021-07-31T14:28:18Z</time>
      </trkpt>
      <trkpt lat="40.867443" lon="-3.876273">
        <ele>1227.244</ele>
        <time>2021-07-31T14:28:20Z</time>
      </trkpt>
      <trkpt lat="40.867450" lon="-3.876232">
        <ele>1227.391</ele>
        <time>2021-07-31T14:28:22Z</time>
      </trkpt>
      <trkpt lat="40.867459" lon="-3.876208">
        <ele>1227.223</ele>
        <time>2021-07-31T14:28:24Z</time>
      </trkpt>
      <trkpt lat="40.867482" lon="-3.876175">
        <ele>1227.030</ele>
        <time>2021-07-31T14:28:26Z</time>
      </trkpt>
      <trkpt lat="40.867491" lon="-3.876145">
        <ele>1227.030</ele>
        <time>2021-07-31T14:28:28Z</time>
      </trkpt>
      <trkpt lat="40.867504" lon="-3.876115">
        <ele>1226.988</ele>
        <time>2021-07-31T14:28:30Z</time>
      </trkpt>
      <trkpt lat="40.867510" lon="-3.876085">
        <ele>1226.929</ele>
        <time>2021-07-31T14:28:32Z</time>
      </trkpt>
      <trkpt lat="40.867520" lon="-3.876053">
        <ele>1226.700</ele>
        <time>2021-07-31T14:28:34Z</time>
      </trkpt>
      <trkpt lat="40.867526" lon="-3.876025">
        <ele>1226.620</ele>
        <time>2021-07-31T14:28:36Z</time>
      </trkpt>
      <trkpt lat="40.867539" lon="-3.876000">
        <ele>1226.408</ele>
        <time>2021-07-31T14:28:38Z</time>
      </trkpt>
      <trkpt lat="40.867565" lon="-3.875966">
        <ele>1226.179</ele>
        <time>2021-07-31T14:28:40Z</time>
      </trkpt>
      <trkpt lat="40.867578" lon="-3.875944">
        <ele>1225.951</ele>
        <time>2021-07-31T14:28:42Z</time>
      </trkpt>
      <trkpt lat="40.867590" lon="-3.875918">
        <ele>1225.718</ele>
        <time>2021-07-31T14:28:44Z</time>
      </trkpt>
      <trkpt lat="40.867603" lon="-3.875885">
        <ele>1225.515</ele>
        <time>2021-07-31T14:28:46Z</time>
      </trkpt>
      <trkpt lat="40.867619" lon="-3.875852">
        <ele>1225.357</ele>
        <time>2021-07-31T14:28:48Z</time>
      </trkpt>
      <trkpt lat="40.867629" lon="-3.875825">
        <ele>1225.284</ele>
        <time>2021-07-31T14:28:50Z</time>
      </trkpt>
      <trkpt lat="40.867642" lon="-3.875797">
        <ele>1225.034</ele>
        <time>2021-07-31T14:28:52Z</time>
      </trkpt>
      <trkpt lat="40.867654" lon="-3.875764">
        <ele>1224.952</ele>
        <time>2021-07-31T14:28:54Z</time>
      </trkpt>
      <trkpt lat="40.867670" lon="-3.875733">
        <ele>1224.842</ele>
        <time>2021-07-31T14:28:56Z</time>
      </trkpt>
      <trkpt lat="40.867696" lon="-3.875710">
        <ele>1224.522</ele>
        <time>2021-07-31T14:28:58Z</time>
      </trkpt>
      <trkpt lat="40.867709" lon="-3.875693">
        <ele>1224.414</ele>
        <time>2021-07-31T14:29:00Z</time>
      </trkpt>
      <trkpt lat="40.867715" lon="-3.875670">
        <ele>1224.408</ele>
        <time>2021-07-31T14:29:03Z</time>
      </trkpt>
      <trkpt lat="40.867738" lon="-3.875636">
        <ele>1224.221</ele>
        <time>2021-07-31T14:29:07Z</time>
      </trkpt>
      <trkpt lat="40.867754" lon="-3.875625">
        <ele>1224.093</ele>
        <time>2021-07-31T14:29:08Z</time>
      </trkpt>
      <trkpt lat="40.867770" lon="-3.875608">
        <ele>1223.920</ele>
        <time>2021-07-31T14:29:09Z</time>
      </trkpt>
      <trkpt lat="40.867786" lon="-3.875596">
        <ele>1223.897</ele>
        <time>2021-07-31T14:29:10Z</time>
      </trkpt>
      <trkpt lat="40.867802" lon="-3.875580">
        <ele>1223.799</ele>
        <time>2021-07-31T14:29:11Z</time>
      </trkpt>
      <trkpt lat="40.867821" lon="-3.875568">
        <ele>1223.576</ele>
        <time>2021-07-31T14:29:12Z</time>
      </trkpt>
      <trkpt lat="40.867834" lon="-3.875548">
        <ele>1223.466</ele>
        <time>2021-07-31T14:29:14Z</time>
      </trkpt>
      <trkpt lat="40.867846" lon="-3.875528">
        <ele>1223.414</ele>
        <time>2021-07-31T14:29:16Z</time>
      </trkpt>
      <trkpt lat="40.867866" lon="-3.875505">
        <ele>1223.286</ele>
        <time>2021-07-31T14:29:18Z</time>
      </trkpt>
      <trkpt lat="40.867888" lon="-3.875478">
        <ele>1223.160</ele>
        <time>2021-07-31T14:29:20Z</time>
      </trkpt>
      <trkpt lat="40.867901" lon="-3.875457">
        <ele>1223.026</ele>
        <time>2021-07-31T14:29:22Z</time>
      </trkpt>
      <trkpt lat="40.867914" lon="-3.875434">
        <ele>1223.008</ele>
        <time>2021-07-31T14:29:24Z</time>
      </trkpt>
      <trkpt lat="40.867933" lon="-3.875410">
        <ele>1222.885</ele>
        <time>2021-07-31T14:29:26Z</time>
      </trkpt>
      <trkpt lat="40.867952" lon="-3.875380">
        <ele>1222.847</ele>
        <time>2021-07-31T14:29:28Z</time>
      </trkpt>
      <trkpt lat="40.867968" lon="-3.875355">
        <ele>1222.714</ele>
        <time>2021-07-31T14:29:30Z</time>
      </trkpt>
      <trkpt lat="40.867987" lon="-3.875327">
        <ele>1222.611</ele>
        <time>2021-07-31T14:29:32Z</time>
      </trkpt>
      <trkpt lat="40.868003" lon="-3.875303">
        <ele>1222.573</ele>
        <time>2021-07-31T14:29:34Z</time>
      </trkpt>
      <trkpt lat="40.868016" lon="-3.875280">
        <ele>1222.470</ele>
        <time>2021-07-31T14:29:36Z</time>
      </trkpt>
      <trkpt lat="40.868038" lon="-3.875256">
        <ele>1222.240</ele>
        <time>2021-07-31T14:29:38Z</time>
      </trkpt>
      <trkpt lat="40.868054" lon="-3.875228">
        <ele>1222.038</ele>
        <time>2021-07-31T14:29:40Z</time>
      </trkpt>
      <trkpt lat="40.868080" lon="-3.875207">
        <ele>1221.764</ele>
        <time>2021-07-31T14:29:42Z</time>
      </trkpt>
      <trkpt lat="40.868099" lon="-3.875190">
        <ele>1221.506</ele>
        <time>2021-07-31T14:29:44Z</time>
      </trkpt>
      <trkpt lat="40.868115" lon="-3.875177">
        <ele>1221.416</ele>
        <time>2021-07-31T14:29:46Z</time>
      </trkpt>
      <trkpt lat="40.868131" lon="-3.875147">
        <ele>1221.208</ele>
        <time>2021-07-31T14:29:48Z</time>
      </trkpt>
      <trkpt lat="40.868150" lon="-3.875123">
        <ele>1221.023</ele>
        <time>2021-07-31T14:29:50Z</time>
      </trkpt>
      <trkpt lat="40.868179" lon="-3.875105">
        <ele>1220.775</ele>
        <time>2021-07-31T14:29:52Z</time>
      </trkpt>
      <trkpt lat="40.868202" lon="-3.875094">
        <ele>1220.492</ele>
        <time>2021-07-31T14:29:54Z</time>
      </trkpt>
      <trkpt lat="40.868224" lon="-3.875084">
        <ele>1220.229</ele>
        <time>2021-07-31T14:29:56Z</time>
      </trkpt>
      <trkpt lat="40.868240" lon="-3.875052">
        <ele>1220.091</ele>
        <time>2021-07-31T14:29:58Z</time>
      </trkpt>
      <trkpt lat="40.868262" lon="-3.875023">
        <ele>1219.858</ele>
        <time>2021-07-31T14:30:00Z</time>
      </trkpt>
      <trkpt lat="40.868278" lon="-3.875012">
        <ele>1219.698</ele>
        <time>2021-07-31T14:30:01Z</time>
      </trkpt>
      <trkpt lat="40.868304" lon="-3.874992">
        <ele>1219.316</ele>
        <time>2021-07-31T14:30:03Z</time>
      </trkpt>
      <trkpt lat="40.868304" lon="-3.874958">
        <ele>1219.366</ele>
        <time>2021-07-31T14:30:05Z</time>
      </trkpt>
      <trkpt lat="40.868323" lon="-3.874940">
        <ele>1219.129</ele>
        <time>2021-07-31T14:30:09Z</time>
      </trkpt>
      <trkpt lat="40.868342" lon="-3.874915">
        <ele>1218.921</ele>
        <time>2021-07-31T14:30:11Z</time>
      </trkpt>
      <trkpt lat="40.868358" lon="-3.874895">
        <ele>1218.708</ele>
        <time>2021-07-31T14:30:13Z</time>
      </trkpt>
      <trkpt lat="40.868381" lon="-3.874870">
        <ele>1218.583</ele>
        <time>2021-07-31T14:30:16Z</time>
      </trkpt>
      <trkpt lat="40.868397" lon="-3.874847">
        <ele>1218.345</ele>
        <time>2021-07-31T14:30:18Z</time>
      </trkpt>
      <trkpt lat="40.868416" lon="-3.874823">
        <ele>1218.132</ele>
        <time>2021-07-31T14:30:20Z</time>
      </trkpt>
      <trkpt lat="40.868435" lon="-3.874810">
        <ele>1217.989</ele>
        <time>2021-07-31T14:30:22Z</time>
      </trkpt>
      <trkpt lat="40.868461" lon="-3.874793">
        <ele>1217.691</ele>
        <time>2021-07-31T14:30:24Z</time>
      </trkpt>
      <trkpt lat="40.868490" lon="-3.874773">
        <ele>1217.338</ele>
        <time>2021-07-31T14:30:26Z</time>
      </trkpt>
      <trkpt lat="40.868515" lon="-3.874752">
        <ele>1217.068</ele>
        <time>2021-07-31T14:30:28Z</time>
      </trkpt>
      <trkpt lat="40.868534" lon="-3.874744">
        <ele>1216.876</ele>
        <time>2021-07-31T14:30:30Z</time>
      </trkpt>
      <trkpt lat="40.868554" lon="-3.874734">
        <ele>1216.667</ele>
        <time>2021-07-31T14:30:32Z</time>
      </trkpt>
      <trkpt lat="40.868579" lon="-3.874718">
        <ele>1216.381</ele>
        <time>2021-07-31T14:30:34Z</time>
      </trkpt>
      <trkpt lat="40.868598" lon="-3.874695">
        <ele>1216.119</ele>
        <time>2021-07-31T14:30:36Z</time>
      </trkpt>
      <trkpt lat="40.868621" lon="-3.874662">
        <ele>1215.908</ele>
        <time>2021-07-31T14:30:38Z</time>
      </trkpt>
      <trkpt lat="40.868643" lon="-3.874655">
        <ele>1215.773</ele>
        <time>2021-07-31T14:30:42Z</time>
      </trkpt>
      <trkpt lat="40.868675" lon="-3.874645">
        <ele>1215.355</ele>
        <time>2021-07-31T14:30:44Z</time>
      </trkpt>
      <trkpt lat="40.868707" lon="-3.874632">
        <ele>1215.072</ele>
        <time>2021-07-31T14:30:46Z</time>
      </trkpt>
      <trkpt lat="40.868733" lon="-3.874612">
        <ele>1214.779</ele>
        <time>2021-07-31T14:30:48Z</time>
      </trkpt>
      <trkpt lat="40.868752" lon="-3.874592">
        <ele>1214.531</ele>
        <time>2021-07-31T14:30:50Z</time>
      </trkpt>
      <trkpt lat="40.868768" lon="-3.874575">
        <ele>1214.398</ele>
        <time>2021-07-31T14:30:52Z</time>
      </trkpt>
      <trkpt lat="40.868790" lon="-3.874565">
        <ele>1214.178</ele>
        <time>2021-07-31T14:30:55Z</time>
      </trkpt>
      <trkpt lat="40.868816" lon="-3.874562">
        <ele>1213.816</ele>
        <time>2021-07-31T14:30:57Z</time>
      </trkpt>
      <trkpt lat="40.868842" lon="-3.874568">
        <ele>1213.531</ele>
        <time>2021-07-31T14:30:59Z</time>
      </trkpt>
      <trkpt lat="40.868870" lon="-3.874566">
        <ele>1213.261</ele>
        <time>2021-07-31T14:31:01Z</time>
      </trkpt>
      <trkpt lat="40.868890" lon="-3.874565">
        <ele>1213.007</ele>
        <time>2021-07-31T14:31:03Z</time>
      </trkpt>
      <trkpt lat="40.868909" lon="-3.874560">
        <ele>1212.908</ele>
        <time>2021-07-31T14:31:05Z</time>
      </trkpt>
      <trkpt lat="40.868928" lon="-3.874572">
        <ele>1212.720</ele>
        <time>2021-07-31T14:31:07Z</time>
      </trkpt>
      <trkpt lat="40.868954" lon="-3.874586">
        <ele>1212.532</ele>
        <time>2021-07-31T14:31:09Z</time>
      </trkpt>
      <trkpt lat="40.868986" lon="-3.874590">
        <ele>1212.329</ele>
        <time>2021-07-31T14:31:11Z</time>
      </trkpt>
      <trkpt lat="40.869005" lon="-3.874585">
        <ele>1212.266</ele>
        <time>2021-07-31T14:31:12Z</time>
      </trkpt>
      <trkpt lat="40.869021" lon="-3.874562">
        <ele>1212.098</ele>
        <time>2021-07-31T14:31:14Z</time>
      </trkpt>
      <trkpt lat="40.869046" lon="-3.874545">
        <ele>1211.915</ele>
        <time>2021-07-31T14:31:16Z</time>
      </trkpt>
      <trkpt lat="40.869069" lon="-3.874535">
        <ele>1211.765</ele>
        <time>2021-07-31T14:31:18Z</time>
      </trkpt>
      <trkpt lat="40.869094" lon="-3.874530">
        <ele>1211.533</ele>
        <time>2021-07-31T14:31:20Z</time>
      </trkpt>
      <trkpt lat="40.869126" lon="-3.874518">
        <ele>1211.332</ele>
        <time>2021-07-31T14:31:22Z</time>
      </trkpt>
      <trkpt lat="40.869152" lon="-3.874503">
        <ele>1211.192</ele>
        <time>2021-07-31T14:31:24Z</time>
      </trkpt>
      <trkpt lat="40.869178" lon="-3.874487">
        <ele>1211.011</ele>
        <time>2021-07-31T14:31:26Z</time>
      </trkpt>
      <trkpt lat="40.869206" lon="-3.874468">
        <ele>1211.008</ele>
        <time>2021-07-31T14:31:28Z</time>
      </trkpt>
      <trkpt lat="40.869229" lon="-3.874448">
        <ele>1211.010</ele>
        <time>2021-07-31T14:31:30Z</time>
      </trkpt>
      <trkpt lat="40.869251" lon="-3.874425">
        <ele>1211.072</ele>
        <time>2021-07-31T14:31:32Z</time>
      </trkpt>
      <trkpt lat="40.869277" lon="-3.874413">
        <ele>1211.199</ele>
        <time>2021-07-31T14:31:34Z</time>
      </trkpt>
      <trkpt lat="40.869309" lon="-3.874413">
        <ele>1211.186</ele>
        <time>2021-07-31T14:31:36Z</time>
      </trkpt>
      <trkpt lat="40.869338" lon="-3.874410">
        <ele>1211.048</ele>
        <time>2021-07-31T14:31:38Z</time>
      </trkpt>
      <trkpt lat="40.869370" lon="-3.874400">
        <ele>1211.015</ele>
        <time>2021-07-31T14:31:40Z</time>
      </trkpt>
      <trkpt lat="40.869392" lon="-3.874392">
        <ele>1211.055</ele>
        <time>2021-07-31T14:31:42Z</time>
      </trkpt>
      <trkpt lat="40.869414" lon="-3.874392">
        <ele>1211.063</ele>
        <time>2021-07-31T14:31:44Z</time>
      </trkpt>
      <trkpt lat="40.869437" lon="-3.874388">
        <ele>1211.031</ele>
        <time>2021-07-31T14:31:46Z</time>
      </trkpt>
      <trkpt lat="40.869462" lon="-3.874380">
        <ele>1210.961</ele>
        <time>2021-07-31T14:31:49Z</time>
      </trkpt>
      <trkpt lat="40.869491" lon="-3.874368">
        <ele>1210.807</ele>
        <time>2021-07-31T14:31:51Z</time>
      </trkpt>
      <trkpt lat="40.869523" lon="-3.874357">
        <ele>1210.708</ele>
        <time>2021-07-31T14:31:53Z</time>
      </trkpt>
      <trkpt lat="40.869546" lon="-3.874348">
        <ele>1210.620</ele>
        <time>2021-07-31T14:31:54Z</time>
      </trkpt>
      <trkpt lat="40.869565" lon="-3.874342">
        <ele>1210.682</ele>
        <time>2021-07-31T14:31:56Z</time>
      </trkpt>
      <trkpt lat="40.869584" lon="-3.874345">
        <ele>1210.569</ele>
        <time>2021-07-31T14:31:58Z</time>
      </trkpt>
      <trkpt lat="40.869606" lon="-3.874350">
        <ele>1210.426</ele>
        <time>2021-07-31T14:32:00Z</time>
      </trkpt>
      <trkpt lat="40.869629" lon="-3.874360">
        <ele>1210.358</ele>
        <time>2021-07-31T14:32:02Z</time>
      </trkpt>
      <trkpt lat="40.869651" lon="-3.874380">
        <ele>1210.375</ele>
        <time>2021-07-31T14:32:04Z</time>
      </trkpt>
      <trkpt lat="40.869680" lon="-3.874385">
        <ele>1210.215</ele>
        <time>2021-07-31T14:32:06Z</time>
      </trkpt>
      <trkpt lat="40.869709" lon="-3.874377">
        <ele>1210.073</ele>
        <time>2021-07-31T14:32:08Z</time>
      </trkpt>
      <trkpt lat="40.869734" lon="-3.874370">
        <ele>1210.053</ele>
        <time>2021-07-31T14:32:10Z</time>
      </trkpt>
      <trkpt lat="40.869766" lon="-3.874364">
        <ele>1210.004</ele>
        <time>2021-07-31T14:32:12Z</time>
      </trkpt>
      <trkpt lat="40.869789" lon="-3.874360">
        <ele>1210.014</ele>
        <time>2021-07-31T14:32:14Z</time>
      </trkpt>
      <trkpt lat="40.869811" lon="-3.874360">
        <ele>1210.008</ele>
        <time>2021-07-31T14:32:16Z</time>
      </trkpt>
      <trkpt lat="40.869830" lon="-3.874354">
        <ele>1210.062</ele>
        <time>2021-07-31T14:32:18Z</time>
      </trkpt>
      <trkpt lat="40.869850" lon="-3.874343">
        <ele>1210.034</ele>
        <time>2021-07-31T14:32:20Z</time>
      </trkpt>
      <trkpt lat="40.869869" lon="-3.874350">
        <ele>1210.031</ele>
        <time>2021-07-31T14:32:22Z</time>
      </trkpt>
      <trkpt lat="40.869891" lon="-3.874357">
        <ele>1210.068</ele>
        <time>2021-07-31T14:32:24Z</time>
      </trkpt>
      <trkpt lat="40.869907" lon="-3.874368">
        <ele>1210.060</ele>
        <time>2021-07-31T14:32:26Z</time>
      </trkpt>
      <trkpt lat="40.869933" lon="-3.874384">
        <ele>1210.077</ele>
        <time>2021-07-31T14:32:28Z</time>
      </trkpt>
      <trkpt lat="40.869962" lon="-3.874404">
        <ele>1210.067</ele>
        <time>2021-07-31T14:32:30Z</time>
      </trkpt>
      <trkpt lat="40.869990" lon="-3.874416">
        <ele>1210.065</ele>
        <time>2021-07-31T14:32:32Z</time>
      </trkpt>
      <trkpt lat="40.870010" lon="-3.874422">
        <ele>1210.013</ele>
        <time>2021-07-31T14:32:33Z</time>
      </trkpt>
      <trkpt lat="40.870032" lon="-3.874432">
        <ele>1210.043</ele>
        <time>2021-07-31T14:32:34Z</time>
      </trkpt>
      <trkpt lat="40.870051" lon="-3.874438">
        <ele>1210.007</ele>
        <time>2021-07-31T14:32:35Z</time>
      </trkpt>
      <trkpt lat="40.870077" lon="-3.874457">
        <ele>1210.008</ele>
        <time>2021-07-31T14:32:37Z</time>
      </trkpt>
      <trkpt lat="40.870109" lon="-3.874470">
        <ele>1210.098</ele>
        <time>2021-07-31T14:32:39Z</time>
      </trkpt>
      <trkpt lat="40.870138" lon="-3.874483">
        <ele>1210.030</ele>
        <time>2021-07-31T14:32:41Z</time>
      </trkpt>
      <trkpt lat="40.870150" lon="-3.874502">
        <ele>1210.017</ele>
        <time>2021-07-31T14:32:43Z</time>
      </trkpt>
      <trkpt lat="40.870179" lon="-3.874510">
        <ele>1210.044</ele>
        <time>2021-07-31T14:32:45Z</time>
      </trkpt>
      <trkpt lat="40.870198" lon="-3.874517">
        <ele>1210.066</ele>
        <time>2021-07-31T14:32:46Z</time>
      </trkpt>
      <trkpt lat="40.870230" lon="-3.874530">
        <ele>1210.013</ele>
        <time>2021-07-31T14:32:48Z</time>
      </trkpt>
      <trkpt lat="40.870259" lon="-3.874548">
        <ele>1210.073</ele>
        <time>2021-07-31T14:32:50Z</time>
      </trkpt>
      <trkpt lat="40.870291" lon="-3.874562">
        <ele>1209.941</ele>
        <time>2021-07-31T14:32:52Z</time>
      </trkpt>
      <trkpt lat="40.870310" lon="-3.874565">
        <ele>1209.952</ele>
        <time>2021-07-31T14:32:53Z</time>
      </trkpt>
      <trkpt lat="40.870339" lon="-3.874572">
        <ele>1209.853</ele>
        <time>2021-07-31T14:32:56Z</time>
      </trkpt>
      <trkpt lat="40.870362" lon="-3.874568">
        <ele>1209.708</ele>
        <time>2021-07-31T14:32:58Z</time>
      </trkpt>
      <trkpt lat="40.870378" lon="-3.874595">
        <ele>1209.708</ele>
        <time>2021-07-31T14:33:00Z</time>
      </trkpt>
      <trkpt lat="40.870390" lon="-3.874620">
        <ele>1209.722</ele>
        <time>2021-07-31T14:33:02Z</time>
      </trkpt>
      <trkpt lat="40.870419" lon="-3.874637">
        <ele>1209.784</ele>
        <time>2021-07-31T14:33:05Z</time>
      </trkpt>
      <trkpt lat="40.870454" lon="-3.874628">
        <ele>1209.671</ele>
        <time>2021-07-31T14:33:07Z</time>
      </trkpt>
      <trkpt lat="40.870483" lon="-3.874637">
        <ele>1209.538</ele>
        <time>2021-07-31T14:33:09Z</time>
      </trkpt>
      <trkpt lat="40.870509" lon="-3.874628">
        <ele>1209.410</ele>
        <time>2021-07-31T14:33:11Z</time>
      </trkpt>
      <trkpt lat="40.870544" lon="-3.874618">
        <ele>1209.357</ele>
        <time>2021-07-31T14:33:13Z</time>
      </trkpt>
      <trkpt lat="40.870570" lon="-3.874623">
        <ele>1209.197</ele>
        <time>2021-07-31T14:33:15Z</time>
      </trkpt>
      <trkpt lat="40.870595" lon="-3.874612">
        <ele>1208.815</ele>
        <time>2021-07-31T14:33:17Z</time>
      </trkpt>
      <trkpt lat="40.870624" lon="-3.874608">
        <ele>1208.459</ele>
        <time>2021-07-31T14:33:19Z</time>
      </trkpt>
      <trkpt lat="40.870646" lon="-3.874608">
        <ele>1208.203</ele>
        <time>2021-07-31T14:33:21Z</time>
      </trkpt>
      <trkpt lat="40.870666" lon="-3.874605">
        <ele>1208.023</ele>
        <time>2021-07-31T14:33:23Z</time>
      </trkpt>
      <trkpt lat="40.870698" lon="-3.874600">
        <ele>1207.608</ele>
        <time>2021-07-31T14:33:25Z</time>
      </trkpt>
      <trkpt lat="40.870720" lon="-3.874602">
        <ele>1207.442</ele>
        <time>2021-07-31T14:33:27Z</time>
      </trkpt>
      <trkpt lat="40.870746" lon="-3.874618">
        <ele>1207.234</ele>
        <time>2021-07-31T14:33:29Z</time>
      </trkpt>
      <trkpt lat="40.870768" lon="-3.874628">
        <ele>1207.081</ele>
        <time>2021-07-31T14:33:32Z</time>
      </trkpt>
      <trkpt lat="40.870797" lon="-3.874642">
        <ele>1206.838</ele>
        <time>2021-07-31T14:33:34Z</time>
      </trkpt>
      <trkpt lat="40.870816" lon="-3.874668">
        <ele>1206.850</ele>
        <time>2021-07-31T14:33:36Z</time>
      </trkpt>
      <trkpt lat="40.870842" lon="-3.874698">
        <ele>1206.737</ele>
        <time>2021-07-31T14:33:38Z</time>
      </trkpt>
      <trkpt lat="40.870864" lon="-3.874715">
        <ele>1206.657</ele>
        <time>2021-07-31T14:33:40Z</time>
      </trkpt>
      <trkpt lat="40.870893" lon="-3.874715">
        <ele>1206.335</ele>
        <time>2021-07-31T14:33:42Z</time>
      </trkpt>
      <trkpt lat="40.870912" lon="-3.874720">
        <ele>1206.152</ele>
        <time>2021-07-31T14:33:44Z</time>
      </trkpt>
      <trkpt lat="40.870938" lon="-3.874728">
        <ele>1205.953</ele>
        <time>2021-07-31T14:33:46Z</time>
      </trkpt>
      <trkpt lat="40.870963" lon="-3.874734">
        <ele>1205.708</ele>
        <time>2021-07-31T14:33:48Z</time>
      </trkpt>
      <trkpt lat="40.870992" lon="-3.874750">
        <ele>1205.508</ele>
        <time>2021-07-31T14:33:50Z</time>
      </trkpt>
      <trkpt lat="40.871014" lon="-3.874755">
        <ele>1205.352</ele>
        <time>2021-07-31T14:33:52Z</time>
      </trkpt>
      <trkpt lat="40.871037" lon="-3.874765">
        <ele>1205.134</ele>
        <time>2021-07-31T14:33:54Z</time>
      </trkpt>
      <trkpt lat="40.871062" lon="-3.874775">
        <ele>1204.911</ele>
        <time>2021-07-31T14:33:56Z</time>
      </trkpt>
      <trkpt lat="40.871091" lon="-3.874788">
        <ele>1204.718</ele>
        <time>2021-07-31T14:33:58Z</time>
      </trkpt>
      <trkpt lat="40.871117" lon="-3.874802">
        <ele>1204.530</ele>
        <time>2021-07-31T14:34:00Z</time>
      </trkpt>
      <trkpt lat="40.871136" lon="-3.874818">
        <ele>1204.527</ele>
        <time>2021-07-31T14:34:02Z</time>
      </trkpt>
      <trkpt lat="40.871162" lon="-3.874830">
        <ele>1204.447</ele>
        <time>2021-07-31T14:34:04Z</time>
      </trkpt>
      <trkpt lat="40.871190" lon="-3.874842">
        <ele>1204.345</ele>
        <time>2021-07-31T14:34:06Z</time>
      </trkpt>
      <trkpt lat="40.871216" lon="-3.874853">
        <ele>1204.255</ele>
        <time>2021-07-31T14:34:08Z</time>
      </trkpt>
      <trkpt lat="40.871238" lon="-3.874863">
        <ele>1204.107</ele>
        <time>2021-07-31T14:34:10Z</time>
      </trkpt>
      <trkpt lat="40.871264" lon="-3.874875">
        <ele>1204.017</ele>
        <time>2021-07-31T14:34:12Z</time>
      </trkpt>
      <trkpt lat="40.871290" lon="-3.874884">
        <ele>1203.908</ele>
        <time>2021-07-31T14:34:14Z</time>
      </trkpt>
      <trkpt lat="40.871318" lon="-3.874893">
        <ele>1203.722</ele>
        <time>2021-07-31T14:34:16Z</time>
      </trkpt>
      <trkpt lat="40.871341" lon="-3.874900">
        <ele>1203.624</ele>
        <time>2021-07-31T14:34:18Z</time>
      </trkpt>
      <trkpt lat="40.871370" lon="-3.874915">
        <ele>1203.561</ele>
        <time>2021-07-31T14:34:20Z</time>
      </trkpt>
      <trkpt lat="40.871392" lon="-3.874932">
        <ele>1203.568</ele>
        <time>2021-07-31T14:34:22Z</time>
      </trkpt>
      <trkpt lat="40.871411" lon="-3.874948">
        <ele>1203.580</ele>
        <time>2021-07-31T14:34:24Z</time>
      </trkpt>
      <trkpt lat="40.871434" lon="-3.874965">
        <ele>1203.487</ele>
        <time>2021-07-31T14:34:26Z</time>
      </trkpt>
      <trkpt lat="40.871453" lon="-3.874982">
        <ele>1203.427</ele>
        <time>2021-07-31T14:34:28Z</time>
      </trkpt>
      <trkpt lat="40.871475" lon="-3.874997">
        <ele>1203.495</ele>
        <time>2021-07-31T14:34:30Z</time>
      </trkpt>
      <trkpt lat="40.871498" lon="-3.875012">
        <ele>1203.381</ele>
        <time>2021-07-31T14:34:32Z</time>
      </trkpt>
      <trkpt lat="40.871517" lon="-3.875033">
        <ele>1203.361</ele>
        <time>2021-07-31T14:34:34Z</time>
      </trkpt>
      <trkpt lat="40.871539" lon="-3.875055">
        <ele>1203.217</ele>
        <time>2021-07-31T14:34:36Z</time>
      </trkpt>
      <trkpt lat="40.871558" lon="-3.875075">
        <ele>1203.208</ele>
        <time>2021-07-31T14:34:38Z</time>
      </trkpt>
      <trkpt lat="40.871578" lon="-3.875098">
        <ele>1203.235</ele>
        <time>2021-07-31T14:34:40Z</time>
      </trkpt>
      <trkpt lat="40.871600" lon="-3.875122">
        <ele>1203.357</ele>
        <time>2021-07-31T14:34:42Z</time>
      </trkpt>
      <trkpt lat="40.871619" lon="-3.875138">
        <ele>1203.394</ele>
        <time>2021-07-31T14:34:44Z</time>
      </trkpt>
      <trkpt lat="40.871635" lon="-3.875160">
        <ele>1203.331</ele>
        <time>2021-07-31T14:34:46Z</time>
      </trkpt>
      <trkpt lat="40.871654" lon="-3.875182">
        <ele>1203.443</ele>
        <time>2021-07-31T14:34:48Z</time>
      </trkpt>
      <trkpt lat="40.871674" lon="-3.875205">
        <ele>1203.430</ele>
        <time>2021-07-31T14:34:50Z</time>
      </trkpt>
      <trkpt lat="40.871696" lon="-3.875225">
        <ele>1203.380</ele>
        <time>2021-07-31T14:34:52Z</time>
      </trkpt>
      <trkpt lat="40.871712" lon="-3.875245">
        <ele>1203.378</ele>
        <time>2021-07-31T14:34:54Z</time>
      </trkpt>
      <trkpt lat="40.871731" lon="-3.875268">
        <ele>1203.278</ele>
        <time>2021-07-31T14:34:56Z</time>
      </trkpt>
      <trkpt lat="40.871747" lon="-3.875296">
        <ele>1203.233</ele>
        <time>2021-07-31T14:34:58Z</time>
      </trkpt>
      <trkpt lat="40.871766" lon="-3.875323">
        <ele>1203.026</ele>
        <time>2021-07-31T14:35:00Z</time>
      </trkpt>
      <trkpt lat="40.871786" lon="-3.875348">
        <ele>1202.808</ele>
        <time>2021-07-31T14:35:02Z</time>
      </trkpt>
      <trkpt lat="40.871798" lon="-3.875377">
        <ele>1202.874</ele>
        <time>2021-07-31T14:35:04Z</time>
      </trkpt>
      <trkpt lat="40.871811" lon="-3.875402">
        <ele>1202.736</ele>
        <time>2021-07-31T14:35:06Z</time>
      </trkpt>
      <trkpt lat="40.871830" lon="-3.875424">
        <ele>1202.553</ele>
        <time>2021-07-31T14:35:08Z</time>
      </trkpt>
      <trkpt lat="40.871846" lon="-3.875447">
        <ele>1202.550</ele>
        <time>2021-07-31T14:35:10Z</time>
      </trkpt>
      <trkpt lat="40.871869" lon="-3.875463">
        <ele>1202.362</ele>
        <time>2021-07-31T14:35:12Z</time>
      </trkpt>
      <trkpt lat="40.871878" lon="-3.875490">
        <ele>1202.379</ele>
        <time>2021-07-31T14:35:14Z</time>
      </trkpt>
      <trkpt lat="40.871894" lon="-3.875510">
        <ele>1202.259</ele>
        <time>2021-07-31T14:35:16Z</time>
      </trkpt>
      <trkpt lat="40.871914" lon="-3.875535">
        <ele>1202.287</ele>
        <time>2021-07-31T14:35:18Z</time>
      </trkpt>
      <trkpt lat="40.871933" lon="-3.875565">
        <ele>1202.198</ele>
        <time>2021-07-31T14:35:20Z</time>
      </trkpt>
      <trkpt lat="40.871949" lon="-3.875593">
        <ele>1202.015</ele>
        <time>2021-07-31T14:35:22Z</time>
      </trkpt>
      <trkpt lat="40.871958" lon="-3.875620">
        <ele>1201.926</ele>
        <time>2021-07-31T14:35:24Z</time>
      </trkpt>
      <trkpt lat="40.871971" lon="-3.875652">
        <ele>1201.808</ele>
        <time>2021-07-31T14:35:26Z</time>
      </trkpt>
      <trkpt lat="40.871987" lon="-3.875678">
        <ele>1201.776</ele>
        <time>2021-07-31T14:35:28Z</time>
      </trkpt>
      <trkpt lat="40.872003" lon="-3.875705">
        <ele>1201.658</ele>
        <time>2021-07-31T14:35:30Z</time>
      </trkpt>
      <trkpt lat="40.872019" lon="-3.875728">
        <ele>1201.585</ele>
        <time>2021-07-31T14:35:32Z</time>
      </trkpt>
      <trkpt lat="40.872035" lon="-3.875755">
        <ele>1201.372</ele>
        <time>2021-07-31T14:35:34Z</time>
      </trkpt>
      <trkpt lat="40.872051" lon="-3.875784">
        <ele>1201.244</ele>
        <time>2021-07-31T14:35:36Z</time>
      </trkpt>
      <trkpt lat="40.872067" lon="-3.875807">
        <ele>1201.131</ele>
        <time>2021-07-31T14:35:38Z</time>
      </trkpt>
      <trkpt lat="40.872083" lon="-3.875826">
        <ele>1201.071</ele>
        <time>2021-07-31T14:35:40Z</time>
      </trkpt>
      <trkpt lat="40.872096" lon="-3.875855">
        <ele>1200.919</ele>
        <time>2021-07-31T14:35:42Z</time>
      </trkpt>
      <trkpt lat="40.872112" lon="-3.875883">
        <ele>1200.728</ele>
        <time>2021-07-31T14:35:44Z</time>
      </trkpt>
      <trkpt lat="40.872131" lon="-3.875912">
        <ele>1200.689</ele>
        <time>2021-07-31T14:35:46Z</time>
      </trkpt>
      <trkpt lat="40.872147" lon="-3.875935">
        <ele>1200.417</ele>
        <time>2021-07-31T14:35:48Z</time>
      </trkpt>
      <trkpt lat="40.872166" lon="-3.875965">
        <ele>1200.308</ele>
        <time>2021-07-31T14:35:50Z</time>
      </trkpt>
      <trkpt lat="40.872186" lon="-3.875993">
        <ele>1200.289</ele>
        <time>2021-07-31T14:35:52Z</time>
      </trkpt>
      <trkpt lat="40.872202" lon="-3.876022">
        <ele>1200.161</ele>
        <time>2021-07-31T14:35:54Z</time>
      </trkpt>
      <trkpt lat="40.872218" lon="-3.876047">
        <ele>1200.068</ele>
        <time>2021-07-31T14:35:56Z</time>
      </trkpt>
      <trkpt lat="40.872234" lon="-3.876073">
        <ele>1199.925</ele>
        <time>2021-07-31T14:35:58Z</time>
      </trkpt>
      <trkpt lat="40.872253" lon="-3.876098">
        <ele>1199.777</ele>
        <time>2021-07-31T14:36:00Z</time>
      </trkpt>
      <trkpt lat="40.872266" lon="-3.876128">
        <ele>1199.594</ele>
        <time>2021-07-31T14:36:02Z</time>
      </trkpt>
      <trkpt lat="40.872285" lon="-3.876158">
        <ele>1199.394</ele>
        <time>2021-07-31T14:36:04Z</time>
      </trkpt>
      <trkpt lat="40.872307" lon="-3.876192">
        <ele>1199.132</ele>
        <time>2021-07-31T14:36:07Z</time>
      </trkpt>
      <trkpt lat="40.872317" lon="-3.876218">
        <ele>1199.074</ele>
        <time>2021-07-31T14:36:09Z</time>
      </trkpt>
      <trkpt lat="40.872336" lon="-3.876233">
        <ele>1198.856</ele>
        <time>2021-07-31T14:36:10Z</time>
      </trkpt>
      <trkpt lat="40.872352" lon="-3.876250">
        <ele>1198.621</ele>
        <time>2021-07-31T14:36:11Z</time>
      </trkpt>
      <trkpt lat="40.872368" lon="-3.876272">
        <ele>1198.408</ele>
        <time>2021-07-31T14:36:13Z</time>
      </trkpt>
      <trkpt lat="40.872384" lon="-3.876300">
        <ele>1198.394</ele>
        <time>2021-07-31T14:36:15Z</time>
      </trkpt>
      <trkpt lat="40.872394" lon="-3.876330">
        <ele>1198.196</ele>
        <time>2021-07-31T14:36:17Z</time>
      </trkpt>
      <trkpt lat="40.872403" lon="-3.876358">
        <ele>1198.063</ele>
        <time>2021-07-31T14:36:19Z</time>
      </trkpt>
      <trkpt lat="40.872413" lon="-3.876393">
        <ele>1197.970</ele>
        <time>2021-07-31T14:36:21Z</time>
      </trkpt>
      <trkpt lat="40.872426" lon="-3.876410">
        <ele>1197.732</ele>
        <time>2021-07-31T14:36:22Z</time>
      </trkpt>
      <trkpt lat="40.872445" lon="-3.876440">
        <ele>1197.439</ele>
        <time>2021-07-31T14:36:24Z</time>
      </trkpt>
      <trkpt lat="40.872461" lon="-3.876475">
        <ele>1197.139</ele>
        <time>2021-07-31T14:36:26Z</time>
      </trkpt>
      <trkpt lat="40.872474" lon="-3.876504">
        <ele>1196.917</ele>
        <time>2021-07-31T14:36:28Z</time>
      </trkpt>
      <trkpt lat="40.872490" lon="-3.876530">
        <ele>1196.652</ele>
        <time>2021-07-31T14:36:30Z</time>
      </trkpt>
      <trkpt lat="40.872502" lon="-3.876558">
        <ele>1196.453</ele>
        <time>2021-07-31T14:36:32Z</time>
      </trkpt>
      <trkpt lat="40.872512" lon="-3.876583">
        <ele>1196.108</ele>
        <time>2021-07-31T14:36:34Z</time>
      </trkpt>
      <trkpt lat="40.872534" lon="-3.876597">
        <ele>1195.808</ele>
        <time>2021-07-31T14:36:36Z</time>
      </trkpt>
      <trkpt lat="40.872554" lon="-3.876610">
        <ele>1195.432</ele>
        <time>2021-07-31T14:36:38Z</time>
      </trkpt>
      <trkpt lat="40.872579" lon="-3.876628">
        <ele>1195.034</ele>
        <time>2021-07-31T14:36:40Z</time>
      </trkpt>
      <trkpt lat="40.872602" lon="-3.876650">
        <ele>1194.611</ele>
        <time>2021-07-31T14:36:42Z</time>
      </trkpt>
      <trkpt lat="40.872627" lon="-3.876662">
        <ele>1194.288</ele>
        <time>2021-07-31T14:36:44Z</time>
      </trkpt>
      <trkpt lat="40.872650" lon="-3.876670">
        <ele>1193.810</ele>
        <time>2021-07-31T14:36:46Z</time>
      </trkpt>
      <trkpt lat="40.872666" lon="-3.876690">
        <ele>1193.527</ele>
        <time>2021-07-31T14:36:49Z</time>
      </trkpt>
      <trkpt lat="40.872682" lon="-3.876708">
        <ele>1193.227</ele>
        <time>2021-07-31T14:36:51Z</time>
      </trkpt>
      <trkpt lat="40.872707" lon="-3.876718">
        <ele>1192.835</ele>
        <time>2021-07-31T14:36:53Z</time>
      </trkpt>
      <trkpt lat="40.872730" lon="-3.876718">
        <ele>1192.557</ele>
        <time>2021-07-31T14:36:55Z</time>
      </trkpt>
      <trkpt lat="40.872762" lon="-3.876732">
        <ele>1192.000</ele>
        <time>2021-07-31T14:36:57Z</time>
      </trkpt>
      <trkpt lat="40.872784" lon="-3.876753">
        <ele>1191.620</ele>
        <time>2021-07-31T14:37:00Z</time>
      </trkpt>
      <trkpt lat="40.872806" lon="-3.876768">
        <ele>1191.308</ele>
        <time>2021-07-31T14:37:02Z</time>
      </trkpt>
      <trkpt lat="40.872832" lon="-3.876778">
        <ele>1191.052</ele>
        <time>2021-07-31T14:37:04Z</time>
      </trkpt>
      <trkpt lat="40.872851" lon="-3.876785">
        <ele>1190.844</ele>
        <time>2021-07-31T14:37:05Z</time>
      </trkpt>
      <trkpt lat="40.872877" lon="-3.876803">
        <ele>1190.421</ele>
        <time>2021-07-31T14:37:07Z</time>
      </trkpt>
      <trkpt lat="40.872902" lon="-3.876808">
        <ele>1190.218</ele>
        <time>2021-07-31T14:37:09Z</time>
      </trkpt>
      <trkpt lat="40.872928" lon="-3.876807">
        <ele>1189.990</ele>
        <time>2021-07-31T14:37:11Z</time>
      </trkpt>
      <trkpt lat="40.872960" lon="-3.876810">
        <ele>1189.587</ele>
        <time>2021-07-31T14:37:13Z</time>
      </trkpt>
      <trkpt lat="40.872989" lon="-3.876815">
        <ele>1189.287</ele>
        <time>2021-07-31T14:37:15Z</time>
      </trkpt>
      <trkpt lat="40.873011" lon="-3.876812">
        <ele>1189.075</ele>
        <time>2021-07-31T14:37:17Z</time>
      </trkpt>
      <trkpt lat="40.873030" lon="-3.876788">
        <ele>1188.839</ele>
        <time>2021-07-31T14:37:19Z</time>
      </trkpt>
      <trkpt lat="40.873043" lon="-3.876772">
        <ele>1188.801</ele>
        <time>2021-07-31T14:37:21Z</time>
      </trkpt>
      <trkpt lat="40.873059" lon="-3.876752">
        <ele>1188.721</ele>
        <time>2021-07-31T14:37:42Z</time>
      </trkpt>
      <trkpt lat="40.873069" lon="-3.876730">
        <ele>1188.708</ele>
        <time>2021-07-31T14:37:44Z</time>
      </trkpt>
      <trkpt lat="40.873088" lon="-3.876712">
        <ele>1188.680</ele>
        <time>2021-07-31T14:37:46Z</time>
      </trkpt>
      <trkpt lat="40.873101" lon="-3.876683">
        <ele>1188.642</ele>
        <time>2021-07-31T14:37:48Z</time>
      </trkpt>
      <trkpt lat="40.873117" lon="-3.876653">
        <ele>1188.619</ele>
        <time>2021-07-31T14:37:51Z</time>
      </trkpt>
      <trkpt lat="40.873130" lon="-3.876634">
        <ele>1188.646</ele>
        <time>2021-07-31T14:37:53Z</time>
      </trkpt>
      <trkpt lat="40.873146" lon="-3.876617">
        <ele>1188.568</ele>
        <time>2021-07-31T14:37:55Z</time>
      </trkpt>
      <trkpt lat="40.873162" lon="-3.876593">
        <ele>1188.595</ele>
        <time>2021-07-31T14:37:57Z</time>
      </trkpt>
      <trkpt lat="40.873184" lon="-3.876565">
        <ele>1188.435</ele>
        <time>2021-07-31T14:37:59Z</time>
      </trkpt>
      <trkpt lat="40.873203" lon="-3.876545">
        <ele>1188.463</ele>
        <time>2021-07-31T14:38:01Z</time>
      </trkpt>
      <trkpt lat="40.873226" lon="-3.876540">
        <ele>1188.287</ele>
        <time>2021-07-31T14:38:03Z</time>
      </trkpt>
      <trkpt lat="40.873242" lon="-3.876523">
        <ele>1188.242</ele>
        <time>2021-07-31T14:38:06Z</time>
      </trkpt>
      <trkpt lat="40.873264" lon="-3.876530">
        <ele>1188.026</ele>
        <time>2021-07-31T14:38:08Z</time>
      </trkpt>
      <trkpt lat="40.873290" lon="-3.876538">
        <ele>1187.808</ele>
        <time>2021-07-31T14:38:10Z</time>
      </trkpt>
      <trkpt lat="40.873315" lon="-3.876557">
        <ele>1187.545</ele>
        <time>2021-07-31T14:38:13Z</time>
      </trkpt>
      <trkpt lat="40.873338" lon="-3.876573">
        <ele>1187.317</ele>
        <time>2021-07-31T14:38:15Z</time>
      </trkpt>
      <trkpt lat="40.873354" lon="-3.876595">
        <ele>1187.324</ele>
        <time>2021-07-31T14:38:17Z</time>
      </trkpt>
      <trkpt lat="40.873363" lon="-3.876627">
        <ele>1187.111</ele>
        <time>2021-07-31T14:38:20Z</time>
      </trkpt>
      <trkpt lat="40.873379" lon="-3.876648">
        <ele>1187.163</ele>
        <time>2021-07-31T14:38:22Z</time>
      </trkpt>
      <trkpt lat="40.873386" lon="-3.876678">
        <ele>1187.010</ele>
        <time>2021-07-31T14:38:24Z</time>
      </trkpt>
      <trkpt lat="40.873402" lon="-3.876708">
        <ele>1187.090</ele>
        <time>2021-07-31T14:38:26Z</time>
      </trkpt>
      <trkpt lat="40.873437" lon="-3.876733">
        <ele>1186.968</ele>
        <time>2021-07-31T14:38:28Z</time>
      </trkpt>
      <trkpt lat="40.873456" lon="-3.876755">
        <ele>1186.929</ele>
        <time>2021-07-31T14:38:29Z</time>
      </trkpt>
      <trkpt lat="40.873475" lon="-3.876778">
        <ele>1186.800</ele>
        <time>2021-07-31T14:38:32Z</time>
      </trkpt>
      <trkpt lat="40.873494" lon="-3.876792">
        <ele>1186.720</ele>
        <time>2021-07-31T14:38:34Z</time>
      </trkpt>
      <trkpt lat="40.873517" lon="-3.876810">
        <ele>1186.708</ele>
        <time>2021-07-31T14:38:36Z</time>
      </trkpt>
      <trkpt lat="40.873536" lon="-3.876832">
        <ele>1186.689</ele>
        <time>2021-07-31T14:38:38Z</time>
      </trkpt>
      <trkpt lat="40.873555" lon="-3.876852">
        <ele>1186.561</ele>
        <time>2021-07-31T14:38:40Z</time>
      </trkpt>
      <trkpt lat="40.873568" lon="-3.876875">
        <ele>1186.448</ele>
        <time>2021-07-31T14:38:42Z</time>
      </trkpt>
      <trkpt lat="40.873584" lon="-3.876905">
        <ele>1186.245</ele>
        <time>2021-07-31T14:38:44Z</time>
      </trkpt>
      <trkpt lat="40.873603" lon="-3.876937">
        <ele>1186.197</ele>
        <time>2021-07-31T14:38:46Z</time>
      </trkpt>
      <trkpt lat="40.873622" lon="-3.876982">
        <ele>1185.964</ele>
        <time>2021-07-31T14:38:48Z</time>
      </trkpt>
      <trkpt lat="40.873635" lon="-3.877000">
        <ele>1185.884</ele>
        <time>2021-07-31T14:38:49Z</time>
      </trkpt>
      <trkpt lat="40.873654" lon="-3.877033">
        <ele>1185.642</ele>
        <time>2021-07-31T14:38:51Z</time>
      </trkpt>
      <trkpt lat="40.873674" lon="-3.877056">
        <ele>1185.537</ele>
        <time>2021-07-31T14:38:53Z</time>
      </trkpt>
      <trkpt lat="40.873699" lon="-3.877068">
        <ele>1185.449</ele>
        <time>2021-07-31T14:38:55Z</time>
      </trkpt>
      <trkpt lat="40.873722" lon="-3.877090">
        <ele>1185.313</ele>
        <time>2021-07-31T14:38:57Z</time>
      </trkpt>
      <trkpt lat="40.873741" lon="-3.877098">
        <ele>1185.208</ele>
        <time>2021-07-31T14:38:58Z</time>
      </trkpt>
      <trkpt lat="40.873776" lon="-3.877110">
        <ele>1185.080</ele>
        <time>2021-07-31T14:39:00Z</time>
      </trkpt>
      <trkpt lat="40.873798" lon="-3.877115">
        <ele>1185.082</ele>
        <time>2021-07-31T14:39:01Z</time>
      </trkpt>
      <trkpt lat="40.873830" lon="-3.877127">
        <ele>1184.869</ele>
        <time>2021-07-31T14:39:03Z</time>
      </trkpt>
      <trkpt lat="40.873856" lon="-3.877132">
        <ele>1184.736</ele>
        <time>2021-07-31T14:39:05Z</time>
      </trkpt>
      <trkpt lat="40.873882" lon="-3.877130">
        <ele>1184.788</ele>
        <time>2021-07-31T14:39:07Z</time>
      </trkpt>
      <trkpt lat="40.873910" lon="-3.877130">
        <ele>1184.675</ele>
        <time>2021-07-31T14:39:09Z</time>
      </trkpt>
      <trkpt lat="40.873936" lon="-3.877130">
        <ele>1184.685</ele>
        <time>2021-07-31T14:39:11Z</time>
      </trkpt>
      <trkpt lat="40.873962" lon="-3.877127">
        <ele>1184.613</ele>
        <time>2021-07-31T14:39:13Z</time>
      </trkpt>
      <trkpt lat="40.873984" lon="-3.877130">
        <ele>1184.539</ele>
        <time>2021-07-31T14:39:15Z</time>
      </trkpt>
      <trkpt lat="40.874013" lon="-3.877118">
        <ele>1184.601</ele>
        <time>2021-07-31T14:39:17Z</time>
      </trkpt>
      <trkpt lat="40.874038" lon="-3.877108">
        <ele>1184.621</ele>
        <time>2021-07-31T14:39:19Z</time>
      </trkpt>
      <trkpt lat="40.874061" lon="-3.877105">
        <ele>1184.608</ele>
        <time>2021-07-31T14:39:21Z</time>
      </trkpt>
      <trkpt lat="40.874090" lon="-3.877100">
        <ele>1184.660</ele>
        <time>2021-07-31T14:39:23Z</time>
      </trkpt>
      <trkpt lat="40.874112" lon="-3.877097">
        <ele>1184.572</ele>
        <time>2021-07-31T14:39:25Z</time>
      </trkpt>
      <trkpt lat="40.874138" lon="-3.877100">
        <ele>1184.559</ele>
        <time>2021-07-31T14:39:27Z</time>
      </trkpt>
      <trkpt lat="40.874163" lon="-3.877100">
        <ele>1184.426</ele>
        <time>2021-07-31T14:39:29Z</time>
      </trkpt>
      <trkpt lat="40.874189" lon="-3.877108">
        <ele>1184.428</ele>
        <time>2021-07-31T14:39:31Z</time>
      </trkpt>
      <trkpt lat="40.874211" lon="-3.877108">
        <ele>1184.475</ele>
        <time>2021-07-31T14:39:33Z</time>
      </trkpt>
      <trkpt lat="40.874230" lon="-3.877110">
        <ele>1184.435</ele>
        <time>2021-07-31T14:39:34Z</time>
      </trkpt>
      <trkpt lat="40.874250" lon="-3.877113">
        <ele>1184.413</ele>
        <time>2021-07-31T14:39:35Z</time>
      </trkpt>
      <trkpt lat="40.874269" lon="-3.877115">
        <ele>1184.481</ele>
        <time>2021-07-31T14:39:36Z</time>
      </trkpt>
      <trkpt lat="40.874298" lon="-3.877093">
        <ele>1184.561</ele>
        <time>2021-07-31T14:39:38Z</time>
      </trkpt>
      <trkpt lat="40.874317" lon="-3.877073">
        <ele>1184.517</ele>
        <time>2021-07-31T14:39:40Z</time>
      </trkpt>
      <trkpt lat="40.874339" lon="-3.877052">
        <ele>1184.608</ele>
        <time>2021-07-31T14:39:42Z</time>
      </trkpt>
      <trkpt lat="40.874355" lon="-3.877028">
        <ele>1184.765</ele>
        <time>2021-07-31T14:39:44Z</time>
      </trkpt>
      <trkpt lat="40.874368" lon="-3.877012">
        <ele>1184.817</ele>
        <time>2021-07-31T14:39:45Z</time>
      </trkpt>
      <trkpt lat="40.874381" lon="-3.876990">
        <ele>1184.874</ele>
        <time>2021-07-31T14:39:46Z</time>
      </trkpt>
      <trkpt lat="40.874397" lon="-3.876970">
        <ele>1184.991</ele>
        <time>2021-07-31T14:39:47Z</time>
      </trkpt>
      <trkpt lat="40.874413" lon="-3.876938">
        <ele>1185.043</ele>
        <time>2021-07-31T14:39:49Z</time>
      </trkpt>
      <trkpt lat="40.874422" lon="-3.876902">
        <ele>1185.230</ele>
        <time>2021-07-31T14:39:51Z</time>
      </trkpt>
      <trkpt lat="40.874435" lon="-3.876872">
        <ele>1185.380</ele>
        <time>2021-07-31T14:39:53Z</time>
      </trkpt>
      <trkpt lat="40.874448" lon="-3.876847">
        <ele>1185.438</ele>
        <time>2021-07-31T14:39:55Z</time>
      </trkpt>
      <trkpt lat="40.874448" lon="-3.876822">
        <ele>1185.468</ele>
        <time>2021-07-31T14:39:56Z</time>
      </trkpt>
      <trkpt lat="40.874458" lon="-3.876782">
        <ele>1185.642</ele>
        <time>2021-07-31T14:39:58Z</time>
      </trkpt>
      <trkpt lat="40.874474" lon="-3.876757">
        <ele>1185.726</ele>
        <time>2021-07-31T14:40:00Z</time>
      </trkpt>
      <trkpt lat="40.874490" lon="-3.876727">
        <ele>1185.908</ele>
        <time>2021-07-31T14:40:02Z</time>
      </trkpt>
      <trkpt lat="40.874512" lon="-3.876698">
        <ele>1186.183</ele>
        <time>2021-07-31T14:40:04Z</time>
      </trkpt>
      <trkpt lat="40.874518" lon="-3.876675">
        <ele>1186.265</ele>
        <time>2021-07-31T14:40:06Z</time>
      </trkpt>
      <trkpt lat="40.874538" lon="-3.876658">
        <ele>1186.412</ele>
        <time>2021-07-31T14:40:08Z</time>
      </trkpt>
      <trkpt lat="40.874566" lon="-3.876632">
        <ele>1186.629</ele>
        <time>2021-07-31T14:40:10Z</time>
      </trkpt>
      <trkpt lat="40.874586" lon="-3.876608">
        <ele>1186.811</ele>
        <time>2021-07-31T14:40:12Z</time>
      </trkpt>
      <trkpt lat="40.874605" lon="-3.876592">
        <ele>1187.018</ele>
        <time>2021-07-31T14:40:14Z</time>
      </trkpt>
      <trkpt lat="40.874630" lon="-3.876583">
        <ele>1187.138</ele>
        <time>2021-07-31T14:40:16Z</time>
      </trkpt>
      <trkpt lat="40.874646" lon="-3.876558">
        <ele>1187.216</ele>
        <time>2021-07-31T14:40:18Z</time>
      </trkpt>
      <trkpt lat="40.874672" lon="-3.876540">
        <ele>1187.477</ele>
        <time>2021-07-31T14:40:20Z</time>
      </trkpt>
      <trkpt lat="40.874691" lon="-3.876522">
        <ele>1187.561</ele>
        <time>2021-07-31T14:40:22Z</time>
      </trkpt>
      <trkpt lat="40.874710" lon="-3.876507">
        <ele>1187.627</ele>
        <time>2021-07-31T14:40:24Z</time>
      </trkpt>
      <trkpt lat="40.874726" lon="-3.876488">
        <ele>1187.608</ele>
        <time>2021-07-31T14:40:26Z</time>
      </trkpt>
      <trkpt lat="40.874794" lon="-3.876448">
        <ele>1187.854</ele>
        <time>2021-07-31T14:40:32Z</time>
      </trkpt>
      <trkpt lat="40.874819" lon="-3.876425">
        <ele>1187.976</ele>
        <time>2021-07-31T14:40:35Z</time>
      </trkpt>
      <trkpt lat="40.874835" lon="-3.876413">
        <ele>1187.923</ele>
        <time>2021-07-31T14:40:37Z</time>
      </trkpt>
      <trkpt lat="40.874858" lon="-3.876403">
        <ele>1187.960</ele>
        <time>2021-07-31T14:40:39Z</time>
      </trkpt>
      <trkpt lat="40.874886" lon="-3.876408">
        <ele>1187.952</ele>
        <time>2021-07-31T14:40:41Z</time>
      </trkpt>
      <trkpt lat="40.874915" lon="-3.876398">
        <ele>1188.079</ele>
        <time>2021-07-31T14:40:43Z</time>
      </trkpt>
      <trkpt lat="40.874938" lon="-3.876383">
        <ele>1188.019</ele>
        <time>2021-07-31T14:40:45Z</time>
      </trkpt>
      <trkpt lat="40.874966" lon="-3.876368">
        <ele>1188.237</ele>
        <time>2021-07-31T14:40:47Z</time>
      </trkpt>
      <trkpt lat="40.874992" lon="-3.876363">
        <ele>1188.231</ele>
        <time>2021-07-31T14:40:49Z</time>
      </trkpt>
      <trkpt lat="40.875018" lon="-3.876353">
        <ele>1188.361</ele>
        <time>2021-07-31T14:40:51Z</time>
      </trkpt>
      <trkpt lat="40.875050" lon="-3.876350">
        <ele>1188.307</ele>
        <time>2021-07-31T14:41:01Z</time>
      </trkpt>
      <trkpt lat="40.875082" lon="-3.876343">
        <ele>1188.308</ele>
        <time>2021-07-31T14:41:03Z</time>
      </trkpt>
      <trkpt lat="40.875104" lon="-3.876333">
        <ele>1188.440</ele>
        <time>2021-07-31T14:41:04Z</time>
      </trkpt>
      <trkpt lat="40.875126" lon="-3.876325">
        <ele>1188.522</ele>
        <time>2021-07-31T14:41:06Z</time>
      </trkpt>
      <trkpt lat="40.875146" lon="-3.876328">
        <ele>1188.479</ele>
        <time>2021-07-31T14:41:08Z</time>
      </trkpt>
      <trkpt lat="40.875181" lon="-3.876352">
        <ele>1188.316</ele>
        <time>2021-07-31T14:41:11Z</time>
      </trkpt>
      <trkpt lat="40.875197" lon="-3.876370">
        <ele>1188.188</ele>
        <time>2021-07-31T14:41:13Z</time>
      </trkpt>
      <trkpt lat="40.875216" lon="-3.876387">
        <ele>1188.065</ele>
        <time>2021-07-31T14:41:15Z</time>
      </trkpt>
      <trkpt lat="40.875248" lon="-3.876388">
        <ele>1188.055</ele>
        <time>2021-07-31T14:41:17Z</time>
      </trkpt>
      <trkpt lat="40.875270" lon="-3.876383">
        <ele>1188.063</ele>
        <time>2021-07-31T14:41:19Z</time>
      </trkpt>
      <trkpt lat="40.875290" lon="-3.876380">
        <ele>1188.132</ele>
        <time>2021-07-31T14:41:21Z</time>
      </trkpt>
      <trkpt lat="40.875315" lon="-3.876382">
        <ele>1188.092</ele>
        <time>2021-07-31T14:41:24Z</time>
      </trkpt>
      <trkpt lat="40.875344" lon="-3.876392">
        <ele>1188.011</ele>
        <time>2021-07-31T14:41:26Z</time>
      </trkpt>
      <trkpt lat="40.875363" lon="-3.876388">
        <ele>1188.008</ele>
        <time>2021-07-31T14:41:28Z</time>
      </trkpt>
      <trkpt lat="40.875389" lon="-3.876390">
        <ele>1188.060</ele>
        <time>2021-07-31T14:41:30Z</time>
      </trkpt>
      <trkpt lat="40.875408" lon="-3.876388">
        <ele>1188.032</ele>
        <time>2021-07-31T14:41:32Z</time>
      </trkpt>
      <trkpt lat="40.875434" lon="-3.876392">
        <ele>1188.029</ele>
        <time>2021-07-31T14:41:34Z</time>
      </trkpt>
      <trkpt lat="40.875462" lon="-3.876393">
        <ele>1188.036</ele>
        <time>2021-07-31T14:41:36Z</time>
      </trkpt>
      <trkpt lat="40.875485" lon="-3.876390">
        <ele>1188.028</ele>
        <time>2021-07-31T14:41:38Z</time>
      </trkpt>
      <trkpt lat="40.875507" lon="-3.876388">
        <ele>1188.055</ele>
        <time>2021-07-31T14:41:40Z</time>
      </trkpt>
      <trkpt lat="40.875530" lon="-3.876377">
        <ele>1188.125</ele>
        <time>2021-07-31T14:41:42Z</time>
      </trkpt>
      <trkpt lat="40.875558" lon="-3.876365">
        <ele>1188.253</ele>
        <time>2021-07-31T14:41:44Z</time>
      </trkpt>
      <trkpt lat="40.875581" lon="-3.876358">
        <ele>1188.145</ele>
        <time>2021-07-31T14:41:46Z</time>
      </trkpt>
      <trkpt lat="40.875603" lon="-3.876350">
        <ele>1188.147</ele>
        <time>2021-07-31T14:41:48Z</time>
      </trkpt>
      <trkpt lat="40.875626" lon="-3.876333">
        <ele>1188.111</ele>
        <time>2021-07-31T14:41:50Z</time>
      </trkpt>
      <trkpt lat="40.875651" lon="-3.876320">
        <ele>1188.208</ele>
        <time>2021-07-31T14:41:52Z</time>
      </trkpt>
      <trkpt lat="40.875677" lon="-3.876303">
        <ele>1188.281</ele>
        <time>2021-07-31T14:41:54Z</time>
      </trkpt>
      <trkpt lat="40.875702" lon="-3.876296">
        <ele>1188.113</ele>
        <time>2021-07-31T14:41:56Z</time>
      </trkpt>
      <trkpt lat="40.875728" lon="-3.876285">
        <ele>1188.140</ele>
        <time>2021-07-31T14:41:58Z</time>
      </trkpt>
      <trkpt lat="40.875750" lon="-3.876288">
        <ele>1188.037</ele>
        <time>2021-07-31T14:42:00Z</time>
      </trkpt>
      <trkpt lat="40.875782" lon="-3.876278">
        <ele>1188.059</ele>
        <time>2021-07-31T14:42:02Z</time>
      </trkpt>
      <trkpt lat="40.875808" lon="-3.876270">
        <ele>1187.916</ele>
        <time>2021-07-31T14:42:04Z</time>
      </trkpt>
      <trkpt lat="40.875830" lon="-3.876262">
        <ele>1187.976</ele>
        <time>2021-07-31T14:42:06Z</time>
      </trkpt>
      <trkpt lat="40.875856" lon="-3.876253">
        <ele>1187.974</ele>
        <time>2021-07-31T14:42:08Z</time>
      </trkpt>
      <trkpt lat="40.875888" lon="-3.876265">
        <ele>1187.743</ele>
        <time>2021-07-31T14:42:10Z</time>
      </trkpt>
      <trkpt lat="40.875920" lon="-3.876267">
        <ele>1187.664</ele>
        <time>2021-07-31T14:42:12Z</time>
      </trkpt>
      <trkpt lat="40.875939" lon="-3.876260">
        <ele>1187.510</ele>
        <time>2021-07-31T14:42:15Z</time>
      </trkpt>
      <trkpt lat="40.875965" lon="-3.876253">
        <ele>1187.508</ele>
        <time>2021-07-31T14:42:18Z</time>
      </trkpt>
      <trkpt lat="40.875990" lon="-3.876243">
        <ele>1187.521</ele>
        <time>2021-07-31T14:42:20Z</time>
      </trkpt>
      <trkpt lat="40.876010" lon="-3.876235">
        <ele>1187.573</ele>
        <time>2021-07-31T14:42:22Z</time>
      </trkpt>
      <trkpt lat="40.876035" lon="-3.876233">
        <ele>1187.470</ele>
        <time>2021-07-31T14:42:28Z</time>
      </trkpt>
      <trkpt lat="40.876061" lon="-3.876220">
        <ele>1187.437</ele>
        <time>2021-07-31T14:42:30Z</time>
      </trkpt>
      <trkpt lat="40.876083" lon="-3.876213">
        <ele>1187.499</ele>
        <time>2021-07-31T14:42:32Z</time>
      </trkpt>
      <trkpt lat="40.876106" lon="-3.876208">
        <ele>1187.346</ele>
        <time>2021-07-31T14:42:34Z</time>
      </trkpt>
      <trkpt lat="40.876128" lon="-3.876200">
        <ele>1187.266</ele>
        <time>2021-07-31T14:42:36Z</time>
      </trkpt>
      <trkpt lat="40.876147" lon="-3.876197">
        <ele>1187.184</ele>
        <time>2021-07-31T14:42:38Z</time>
      </trkpt>
      <trkpt lat="40.876176" lon="-3.876192">
        <ele>1187.045</ele>
        <time>2021-07-31T14:42:40Z</time>
      </trkpt>
      <trkpt lat="40.876202" lon="-3.876185">
        <ele>1186.847</ele>
        <time>2021-07-31T14:42:42Z</time>
      </trkpt>
      <trkpt lat="40.876234" lon="-3.876175">
        <ele>1186.711</ele>
        <time>2021-07-31T14:42:44Z</time>
      </trkpt>
      <trkpt lat="40.876256" lon="-3.876170">
        <ele>1186.508</ele>
        <time>2021-07-31T14:42:46Z</time>
      </trkpt>
      <trkpt lat="40.876275" lon="-3.876170">
        <ele>1186.441</ele>
        <time>2021-07-31T14:42:48Z</time>
      </trkpt>
      <trkpt lat="40.876298" lon="-3.876165">
        <ele>1186.343</ele>
        <time>2021-07-31T14:42:50Z</time>
      </trkpt>
      <trkpt lat="40.876333" lon="-3.876158">
        <ele>1186.120</ele>
        <time>2021-07-31T14:42:52Z</time>
      </trkpt>
      <trkpt lat="40.876358" lon="-3.876150">
        <ele>1185.917</ele>
        <time>2021-07-31T14:42:54Z</time>
      </trkpt>
      <trkpt lat="40.876381" lon="-3.876142">
        <ele>1185.869</ele>
        <time>2021-07-31T14:42:56Z</time>
      </trkpt>
      <trkpt lat="40.876400" lon="-3.876132">
        <ele>1185.776</ele>
        <time>2021-07-31T14:42:58Z</time>
      </trkpt>
      <trkpt lat="40.876432" lon="-3.876128">
        <ele>1185.316</ele>
        <time>2021-07-31T14:43:00Z</time>
      </trkpt>
      <trkpt lat="40.876458" lon="-3.876117">
        <ele>1185.084</ele>
        <time>2021-07-31T14:43:03Z</time>
      </trkpt>
      <trkpt lat="40.876480" lon="-3.876110">
        <ele>1184.733</ele>
        <time>2021-07-31T14:43:05Z</time>
      </trkpt>
      <trkpt lat="40.876502" lon="-3.876098">
        <ele>1184.423</ele>
        <time>2021-07-31T14:43:07Z</time>
      </trkpt>
      <trkpt lat="40.876531" lon="-3.876080">
        <ele>1184.115</ele>
        <time>2021-07-31T14:43:09Z</time>
      </trkpt>
      <trkpt lat="40.876557" lon="-3.876063">
        <ele>1183.808</ele>
        <time>2021-07-31T14:43:11Z</time>
      </trkpt>
      <trkpt lat="40.876582" lon="-3.876052">
        <ele>1183.590</ele>
        <time>2021-07-31T14:43:13Z</time>
      </trkpt>
      <trkpt lat="40.876602" lon="-3.876033">
        <ele>1183.382</ele>
        <time>2021-07-31T14:43:15Z</time>
      </trkpt>
      <trkpt lat="40.876630" lon="-3.876015">
        <ele>1182.959</ele>
        <time>2021-07-31T14:43:17Z</time>
      </trkpt>
      <trkpt lat="40.876656" lon="-3.875998">
        <ele>1182.676</ele>
        <time>2021-07-31T14:43:19Z</time>
      </trkpt>
      <trkpt lat="40.876678" lon="-3.875985">
        <ele>1182.438</ele>
        <time>2021-07-31T14:43:21Z</time>
      </trkpt>
      <trkpt lat="40.876698" lon="-3.875973">
        <ele>1182.445</ele>
        <time>2021-07-31T14:43:23Z</time>
      </trkpt>
      <trkpt lat="40.876723" lon="-3.875955">
        <ele>1182.425</ele>
        <time>2021-07-31T14:43:25Z</time>
      </trkpt>
      <trkpt lat="40.876746" lon="-3.875932">
        <ele>1182.523</ele>
        <time>2021-07-31T14:43:27Z</time>
      </trkpt>
      <trkpt lat="40.876771" lon="-3.875915">
        <ele>1182.418</ele>
        <time>2021-07-31T14:43:29Z</time>
      </trkpt>
      <trkpt lat="40.876797" lon="-3.875892">
        <ele>1182.498</ele>
        <time>2021-07-31T14:43:31Z</time>
      </trkpt>
      <trkpt lat="40.876816" lon="-3.875867">
        <ele>1182.417</ele>
        <time>2021-07-31T14:43:33Z</time>
      </trkpt>
      <trkpt lat="40.876835" lon="-3.875843">
        <ele>1182.408</ele>
        <time>2021-07-31T14:43:35Z</time>
      </trkpt>
      <trkpt lat="40.876858" lon="-3.875822">
        <ele>1182.418</ele>
        <time>2021-07-31T14:43:37Z</time>
      </trkpt>
      <trkpt lat="40.876877" lon="-3.875798">
        <ele>1182.490</ele>
        <time>2021-07-31T14:43:39Z</time>
      </trkpt>
      <trkpt lat="40.876899" lon="-3.875774">
        <ele>1182.447</ele>
        <time>2021-07-31T14:43:42Z</time>
      </trkpt>
      <trkpt lat="40.876918" lon="-3.875762">
        <ele>1182.484</ele>
        <time>2021-07-31T14:43:44Z</time>
      </trkpt>
      <trkpt lat="40.876941" lon="-3.875743">
        <ele>1182.356</ele>
        <time>2021-07-31T14:43:46Z</time>
      </trkpt>
      <trkpt lat="40.876960" lon="-3.875737">
        <ele>1182.323</ele>
        <time>2021-07-31T14:43:48Z</time>
      </trkpt>
      <trkpt lat="40.876979" lon="-3.875727">
        <ele>1182.443</ele>
        <time>2021-07-31T14:43:50Z</time>
      </trkpt>
      <trkpt lat="40.877008" lon="-3.875717">
        <ele>1182.431</ele>
        <time>2021-07-31T14:43:52Z</time>
      </trkpt>
      <trkpt lat="40.877034" lon="-3.875707">
        <ele>1182.572</ele>
        <time>2021-07-31T14:43:54Z</time>
      </trkpt>
      <trkpt lat="40.877056" lon="-3.875695">
        <ele>1182.513</ele>
        <time>2021-07-31T14:43:56Z</time>
      </trkpt>
      <trkpt lat="40.877075" lon="-3.875682">
        <ele>1182.514</ele>
        <time>2021-07-31T14:43:58Z</time>
      </trkpt>
      <trkpt lat="40.877098" lon="-3.875668">
        <ele>1182.608</ele>
        <time>2021-07-31T14:44:00Z</time>
      </trkpt>
      <trkpt lat="40.877120" lon="-3.875660">
        <ele>1182.634</ele>
        <time>2021-07-31T14:44:02Z</time>
      </trkpt>
      <trkpt lat="40.877152" lon="-3.875660">
        <ele>1182.656</ele>
        <time>2021-07-31T14:44:04Z</time>
      </trkpt>
      <trkpt lat="40.877174" lon="-3.875658">
        <ele>1182.653</ele>
        <time>2021-07-31T14:44:06Z</time>
      </trkpt>
      <trkpt lat="40.877194" lon="-3.875653">
        <ele>1182.620</ele>
        <time>2021-07-31T14:44:08Z</time>
      </trkpt>
      <trkpt lat="40.877229" lon="-3.875657">
        <ele>1182.632</ele>
        <time>2021-07-31T14:44:10Z</time>
      </trkpt>
      <trkpt lat="40.877248" lon="-3.875658">
        <ele>1182.649</ele>
        <time>2021-07-31T14:44:11Z</time>
      </trkpt>
      <trkpt lat="40.877274" lon="-3.875668">
        <ele>1182.589</ele>
        <time>2021-07-31T14:44:13Z</time>
      </trkpt>
      <trkpt lat="40.877296" lon="-3.875682">
        <ele>1182.487</ele>
        <time>2021-07-31T14:44:15Z</time>
      </trkpt>
      <trkpt lat="40.877322" lon="-3.875693">
        <ele>1182.387</ele>
        <time>2021-07-31T14:44:17Z</time>
      </trkpt>
      <trkpt lat="40.877350" lon="-3.875700">
        <ele>1182.342</ele>
        <time>2021-07-31T14:44:19Z</time>
      </trkpt>
      <trkpt lat="40.877370" lon="-3.875703">
        <ele>1182.226</ele>
        <time>2021-07-31T14:44:21Z</time>
      </trkpt>
      <trkpt lat="40.877389" lon="-3.875713">
        <ele>1182.208</ele>
        <time>2021-07-31T14:44:23Z</time>
      </trkpt>
      <trkpt lat="40.877411" lon="-3.875713">
        <ele>1182.145</ele>
        <time>2021-07-31T14:44:25Z</time>
      </trkpt>
      <trkpt lat="40.877430" lon="-3.875715">
        <ele>1182.127</ele>
        <time>2021-07-31T14:44:27Z</time>
      </trkpt>
      <trkpt lat="40.877459" lon="-3.875720">
        <ele>1182.124</ele>
        <time>2021-07-31T14:44:29Z</time>
      </trkpt>
      <trkpt lat="40.877491" lon="-3.875720">
        <ele>1182.061</ele>
        <time>2021-07-31T14:44:31Z</time>
      </trkpt>
      <trkpt lat="40.877517" lon="-3.875725">
        <ele>1182.043</ele>
        <time>2021-07-31T14:44:33Z</time>
      </trkpt>
      <trkpt lat="40.877539" lon="-3.875717">
        <ele>1181.930</ele>
        <time>2021-07-31T14:44:35Z</time>
      </trkpt>
      <trkpt lat="40.877558" lon="-3.875703">
        <ele>1181.930</ele>
        <time>2021-07-31T14:44:37Z</time>
      </trkpt>
      <trkpt lat="40.877584" lon="-3.875692">
        <ele>1181.958</ele>
        <time>2021-07-31T14:44:39Z</time>
      </trkpt>
      <trkpt lat="40.877603" lon="-3.875690">
        <ele>1181.846</ele>
        <time>2021-07-31T14:44:40Z</time>
      </trkpt>
      <trkpt lat="40.877629" lon="-3.875683">
        <ele>1181.888</ele>
        <time>2021-07-31T14:44:42Z</time>
      </trkpt>
      <trkpt lat="40.877658" lon="-3.875685">
        <ele>1181.716</ele>
        <time>2021-07-31T14:44:44Z</time>
      </trkpt>
      <trkpt lat="40.877690" lon="-3.875682">
        <ele>1181.708</ele>
        <time>2021-07-31T14:44:46Z</time>
      </trkpt>
      <trkpt lat="40.877712" lon="-3.875667">
        <ele>1181.771</ele>
        <time>2021-07-31T14:44:48Z</time>
      </trkpt>
      <trkpt lat="40.877738" lon="-3.875653">
        <ele>1181.753</ele>
        <time>2021-07-31T14:44:50Z</time>
      </trkpt>
      <trkpt lat="40.877763" lon="-3.875650">
        <ele>1181.780</ele>
        <time>2021-07-31T14:44:51Z</time>
      </trkpt>
      <trkpt lat="40.877782" lon="-3.875636">
        <ele>1181.727</ele>
        <time>2021-07-31T14:44:52Z</time>
      </trkpt>
      <trkpt lat="40.877805" lon="-3.875626">
        <ele>1181.729</ele>
        <time>2021-07-31T14:44:53Z</time>
      </trkpt>
      <trkpt lat="40.877824" lon="-3.875616">
        <ele>1181.896</ele>
        <time>2021-07-31T14:44:54Z</time>
      </trkpt>
      <trkpt lat="40.877850" lon="-3.875615">
        <ele>1181.896</ele>
        <time>2021-07-31T14:44:56Z</time>
      </trkpt>
      <trkpt lat="40.877875" lon="-3.875606">
        <ele>1181.884</ele>
        <time>2021-07-31T14:44:59Z</time>
      </trkpt>
      <trkpt lat="40.877898" lon="-3.875587">
        <ele>1181.977</ele>
        <time>2021-07-31T14:45:01Z</time>
      </trkpt>
      <trkpt lat="40.877914" lon="-3.875575">
        <ele>1181.961</ele>
        <time>2021-07-31T14:45:02Z</time>
      </trkpt>
      <trkpt lat="40.877936" lon="-3.875562">
        <ele>1182.027</ele>
        <time>2021-07-31T14:45:04Z</time>
      </trkpt>
      <trkpt lat="40.877962" lon="-3.875555">
        <ele>1182.008</ele>
        <time>2021-07-31T14:45:06Z</time>
      </trkpt>
      <trkpt lat="40.877987" lon="-3.875555">
        <ele>1182.064</ele>
        <time>2021-07-31T14:45:08Z</time>
      </trkpt>
      <trkpt lat="40.878006" lon="-3.875548">
        <ele>1182.066</ele>
        <time>2021-07-31T14:45:10Z</time>
      </trkpt>
      <trkpt lat="40.878029" lon="-3.875540">
        <ele>1182.033</ele>
        <time>2021-07-31T14:45:12Z</time>
      </trkpt>
      <trkpt lat="40.878051" lon="-3.875533">
        <ele>1182.050</ele>
        <time>2021-07-31T14:45:14Z</time>
      </trkpt>
      <trkpt lat="40.878083" lon="-3.875527">
        <ele>1181.912</ele>
        <time>2021-07-31T14:45:16Z</time>
      </trkpt>
      <trkpt lat="40.878102" lon="-3.875528">
        <ele>1181.899</ele>
        <time>2021-07-31T14:45:17Z</time>
      </trkpt>
      <trkpt lat="40.878125" lon="-3.875520">
        <ele>1181.879</ele>
        <time>2021-07-31T14:45:19Z</time>
      </trkpt>
      <trkpt lat="40.878147" lon="-3.875510">
        <ele>1181.747</ele>
        <time>2021-07-31T14:45:22Z</time>
      </trkpt>
      <trkpt lat="40.878173" lon="-3.875512">
        <ele>1181.696</ele>
        <time>2021-07-31T14:45:24Z</time>
      </trkpt>
      <trkpt lat="40.878195" lon="-3.875507">
        <ele>1181.631</ele>
        <time>2021-07-31T14:45:26Z</time>
      </trkpt>
      <trkpt lat="40.878224" lon="-3.875510">
        <ele>1181.524</ele>
        <time>2021-07-31T14:45:28Z</time>
      </trkpt>
      <trkpt lat="40.878253" lon="-3.875508">
        <ele>1181.408</ele>
        <time>2021-07-31T14:45:30Z</time>
      </trkpt>
      <trkpt lat="40.878288" lon="-3.875503">
        <ele>1181.396</ele>
        <time>2021-07-31T14:45:32Z</time>
      </trkpt>
      <trkpt lat="40.878314" lon="-3.875502">
        <ele>1181.248</ele>
        <time>2021-07-31T14:45:34Z</time>
      </trkpt>
      <trkpt lat="40.878333" lon="-3.875508">
        <ele>1181.255</ele>
        <time>2021-07-31T14:45:36Z</time>
      </trkpt>
      <trkpt lat="40.878352" lon="-3.875508">
        <ele>1181.232</ele>
        <time>2021-07-31T14:45:38Z</time>
      </trkpt>
      <trkpt lat="40.878378" lon="-3.875515">
        <ele>1181.154</ele>
        <time>2021-07-31T14:45:40Z</time>
      </trkpt>
      <trkpt lat="40.878413" lon="-3.875530">
        <ele>1181.171</ele>
        <time>2021-07-31T14:45:42Z</time>
      </trkpt>
      <trkpt lat="40.878438" lon="-3.875540">
        <ele>1181.071</ele>
        <time>2021-07-31T14:45:43Z</time>
      </trkpt>
      <trkpt lat="40.878451" lon="-3.875557">
        <ele>1181.039</ele>
        <time>2021-07-31T14:45:44Z</time>
      </trkpt>
      <trkpt lat="40.878474" lon="-3.875577">
        <ele>1181.044</ele>
        <time>2021-07-31T14:45:46Z</time>
      </trkpt>
      <trkpt lat="40.878486" lon="-3.875598">
        <ele>1181.005</ele>
        <time>2021-07-31T14:45:48Z</time>
      </trkpt>
      <trkpt lat="40.878502" lon="-3.875618">
        <ele>1181.015</ele>
        <time>2021-07-31T14:45:50Z</time>
      </trkpt>
      <trkpt lat="40.878518" lon="-3.875640">
        <ele>1181.008</ele>
        <time>2021-07-31T14:45:52Z</time>
      </trkpt>
      <trkpt lat="40.878525" lon="-3.875667">
        <ele>1181.021</ele>
        <time>2021-07-31T14:45:54Z</time>
      </trkpt>
      <trkpt lat="40.878541" lon="-3.875688">
        <ele>1181.013</ele>
        <time>2021-07-31T14:45:56Z</time>
      </trkpt>
      <trkpt lat="40.878557" lon="-3.875717">
        <ele>1181.090</ele>
        <time>2021-07-31T14:45:58Z</time>
      </trkpt>
      <trkpt lat="40.878570" lon="-3.875752">
        <ele>1181.047</ele>
        <time>2021-07-31T14:46:00Z</time>
      </trkpt>
      <trkpt lat="40.878582" lon="-3.875778">
        <ele>1181.039</ele>
        <time>2021-07-31T14:46:02Z</time>
      </trkpt>
      <trkpt lat="40.878592" lon="-3.875810">
        <ele>1181.046</ele>
        <time>2021-07-31T14:46:04Z</time>
      </trkpt>
      <trkpt lat="40.878605" lon="-3.875840">
        <ele>1181.096</ele>
        <time>2021-07-31T14:46:06Z</time>
      </trkpt>
      <trkpt lat="40.878618" lon="-3.875872">
        <ele>1180.814</ele>
        <time>2021-07-31T14:46:08Z</time>
      </trkpt>
      <trkpt lat="40.878630" lon="-3.875900">
        <ele>1180.758</ele>
        <time>2021-07-31T14:46:10Z</time>
      </trkpt>
      <trkpt lat="40.878646" lon="-3.875928">
        <ele>1180.652</ele>
        <time>2021-07-31T14:46:12Z</time>
      </trkpt>
      <trkpt lat="40.878662" lon="-3.875958">
        <ele>1180.517</ele>
        <time>2021-07-31T14:46:14Z</time>
      </trkpt>
      <trkpt lat="40.878678" lon="-3.875980">
        <ele>1180.408</ele>
        <time>2021-07-31T14:46:16Z</time>
      </trkpt>
      <trkpt lat="40.878688" lon="-3.876008">
        <ele>1180.332</ele>
        <time>2021-07-31T14:46:18Z</time>
      </trkpt>
      <trkpt lat="40.878701" lon="-3.876037">
        <ele>1180.234</ele>
        <time>2021-07-31T14:46:20Z</time>
      </trkpt>
      <trkpt lat="40.878720" lon="-3.876067">
        <ele>1180.181</ele>
        <time>2021-07-31T14:46:22Z</time>
      </trkpt>
      <trkpt lat="40.878730" lon="-3.876098">
        <ele>1180.068</ele>
        <time>2021-07-31T14:46:24Z</time>
      </trkpt>
      <trkpt lat="40.878749" lon="-3.876125">
        <ele>1180.020</ele>
        <time>2021-07-31T14:46:26Z</time>
      </trkpt>
      <trkpt lat="40.878768" lon="-3.876152">
        <ele>1180.087</ele>
        <time>2021-07-31T14:46:28Z</time>
      </trkpt>
      <trkpt lat="40.878784" lon="-3.876176">
        <ele>1180.097</ele>
        <time>2021-07-31T14:46:30Z</time>
      </trkpt>
      <trkpt lat="40.878803" lon="-3.876202">
        <ele>1180.075</ele>
        <time>2021-07-31T14:46:32Z</time>
      </trkpt>
      <trkpt lat="40.878810" lon="-3.876230">
        <ele>1180.057</ele>
        <time>2021-07-31T14:46:34Z</time>
      </trkpt>
      <trkpt lat="40.878829" lon="-3.876252">
        <ele>1180.000</ele>
        <time>2021-07-31T14:46:36Z</time>
      </trkpt>
      <trkpt lat="40.878848" lon="-3.876278">
        <ele>1180.020</ele>
        <time>2021-07-31T14:46:38Z</time>
      </trkpt>
      <trkpt lat="40.878864" lon="-3.876306">
        <ele>1180.008</ele>
        <time>2021-07-31T14:46:40Z</time>
      </trkpt>
      <trkpt lat="40.878880" lon="-3.876336">
        <ele>1180.072</ele>
        <time>2021-07-31T14:46:42Z</time>
      </trkpt>
      <trkpt lat="40.878896" lon="-3.876365">
        <ele>1180.034</ele>
        <time>2021-07-31T14:46:44Z</time>
      </trkpt>
      <trkpt lat="40.878906" lon="-3.876398">
        <ele>1179.991</ele>
        <time>2021-07-31T14:46:46Z</time>
      </trkpt>
      <trkpt lat="40.878915" lon="-3.876437">
        <ele>1179.788</ele>
        <time>2021-07-31T14:46:48Z</time>
      </trkpt>
      <trkpt lat="40.878922" lon="-3.876470">
        <ele>1179.630</ele>
        <time>2021-07-31T14:46:50Z</time>
      </trkpt>
      <trkpt lat="40.878928" lon="-3.876500">
        <ele>1179.567</ele>
        <time>2021-07-31T14:46:52Z</time>
      </trkpt>
      <trkpt lat="40.878928" lon="-3.876530">
        <ele>1179.467</ele>
        <time>2021-07-31T14:46:54Z</time>
      </trkpt>
      <trkpt lat="40.878934" lon="-3.876562">
        <ele>1179.285</ele>
        <time>2021-07-31T14:46:56Z</time>
      </trkpt>
      <trkpt lat="40.878941" lon="-3.876587">
        <ele>1179.175</ele>
        <time>2021-07-31T14:46:58Z</time>
      </trkpt>
      <trkpt lat="40.878944" lon="-3.876618">
        <ele>1179.028</ele>
        <time>2021-07-31T14:47:00Z</time>
      </trkpt>
      <trkpt lat="40.878947" lon="-3.876648">
        <ele>1178.920</ele>
        <time>2021-07-31T14:47:02Z</time>
      </trkpt>
      <trkpt lat="40.878957" lon="-3.876672">
        <ele>1178.708</ele>
        <time>2021-07-31T14:47:03Z</time>
      </trkpt>
      <trkpt lat="40.878970" lon="-3.876702">
        <ele>1178.694</ele>
        <time>2021-07-31T14:47:05Z</time>
      </trkpt>
      <trkpt lat="40.878995" lon="-3.876718">
        <ele>1178.446</ele>
        <time>2021-07-31T14:47:06Z</time>
      </trkpt>
      <trkpt lat="40.879014" lon="-3.876738">
        <ele>1178.353</ele>
        <time>2021-07-31T14:47:07Z</time>
      </trkpt>
      <trkpt lat="40.879034" lon="-3.876757">
        <ele>1178.220</ele>
        <time>2021-07-31T14:47:10Z</time>
      </trkpt>
      <trkpt lat="40.879043" lon="-3.876785">
        <ele>1178.082</ele>
        <time>2021-07-31T14:47:12Z</time>
      </trkpt>
      <trkpt lat="40.879062" lon="-3.876808">
        <ele>1177.959</ele>
        <time>2021-07-31T14:47:14Z</time>
      </trkpt>
      <trkpt lat="40.879082" lon="-3.876828">
        <ele>1177.739</ele>
        <time>2021-07-31T14:47:16Z</time>
      </trkpt>
      <trkpt lat="40.879104" lon="-3.876852">
        <ele>1177.667</ele>
        <time>2021-07-31T14:47:18Z</time>
      </trkpt>
      <trkpt lat="40.879123" lon="-3.876873">
        <ele>1177.423</ele>
        <time>2021-07-31T14:47:20Z</time>
      </trkpt>
      <trkpt lat="40.879146" lon="-3.876885">
        <ele>1177.383</ele>
        <time>2021-07-31T14:47:22Z</time>
      </trkpt>
      <trkpt lat="40.879165" lon="-3.876900">
        <ele>1177.211</ele>
        <time>2021-07-31T14:47:24Z</time>
      </trkpt>
      <trkpt lat="40.879187" lon="-3.876917">
        <ele>1177.008</ele>
        <time>2021-07-31T14:47:26Z</time>
      </trkpt>
      <trkpt lat="40.879213" lon="-3.876932">
        <ele>1176.949</ele>
        <time>2021-07-31T14:47:28Z</time>
      </trkpt>
      <trkpt lat="40.879235" lon="-3.876943">
        <ele>1176.811</ele>
        <time>2021-07-31T14:47:30Z</time>
      </trkpt>
      <trkpt lat="40.879254" lon="-3.876960">
        <ele>1176.648</ele>
        <time>2021-07-31T14:47:32Z</time>
      </trkpt>
      <trkpt lat="40.879277" lon="-3.876980">
        <ele>1176.565</ele>
        <time>2021-07-31T14:47:34Z</time>
      </trkpt>
      <trkpt lat="40.879299" lon="-3.877003">
        <ele>1176.337</ele>
        <time>2021-07-31T14:47:36Z</time>
      </trkpt>
      <trkpt lat="40.879322" lon="-3.877018">
        <ele>1176.214</ele>
        <time>2021-07-31T14:47:38Z</time>
      </trkpt>
      <trkpt lat="40.879344" lon="-3.877036">
        <ele>1176.084</ele>
        <time>2021-07-31T14:47:40Z</time>
      </trkpt>
      <trkpt lat="40.879363" lon="-3.877062">
        <ele>1175.972</ele>
        <time>2021-07-31T14:47:42Z</time>
      </trkpt>
      <trkpt lat="40.879386" lon="-3.877077">
        <ele>1175.782</ele>
        <time>2021-07-31T14:47:44Z</time>
      </trkpt>
      <trkpt lat="40.879411" lon="-3.877090">
        <ele>1175.643</ele>
        <time>2021-07-31T14:47:46Z</time>
      </trkpt>
      <trkpt lat="40.879430" lon="-3.877107">
        <ele>1175.517</ele>
        <time>2021-07-31T14:47:48Z</time>
      </trkpt>
      <trkpt lat="40.879453" lon="-3.877125">
        <ele>1175.308</ele>
        <time>2021-07-31T14:47:50Z</time>
      </trkpt>
      <trkpt lat="40.879478" lon="-3.877142">
        <ele>1175.295</ele>
        <time>2021-07-31T14:47:52Z</time>
      </trkpt>
      <trkpt lat="40.879501" lon="-3.877158">
        <ele>1175.067</ele>
        <time>2021-07-31T14:47:54Z</time>
      </trkpt>
      <trkpt lat="40.879530" lon="-3.877170">
        <ele>1174.994</ele>
        <time>2021-07-31T14:47:56Z</time>
      </trkpt>
      <trkpt lat="40.879542" lon="-3.877187">
        <ele>1174.871</ele>
        <time>2021-07-31T14:47:58Z</time>
      </trkpt>
      <trkpt lat="40.879558" lon="-3.877198">
        <ele>1174.773</ele>
        <time>2021-07-31T14:47:59Z</time>
      </trkpt>
      <trkpt lat="40.879584" lon="-3.877218">
        <ele>1174.560</ele>
        <time>2021-07-31T14:48:01Z</time>
      </trkpt>
      <trkpt lat="40.879610" lon="-3.877228">
        <ele>1174.450</ele>
        <time>2021-07-31T14:48:03Z</time>
      </trkpt>
      <trkpt lat="40.879635" lon="-3.877232">
        <ele>1174.368</ele>
        <time>2021-07-31T14:48:05Z</time>
      </trkpt>
      <trkpt lat="40.879661" lon="-3.877237">
        <ele>1174.217</ele>
        <time>2021-07-31T14:48:07Z</time>
      </trkpt>
      <trkpt lat="40.879683" lon="-3.877248">
        <ele>1174.187</ele>
        <time>2021-07-31T14:48:09Z</time>
      </trkpt>
      <trkpt lat="40.879709" lon="-3.877265">
        <ele>1174.015</ele>
        <time>2021-07-31T14:48:11Z</time>
      </trkpt>
      <trkpt lat="40.879731" lon="-3.877277">
        <ele>1174.008</ele>
        <time>2021-07-31T14:48:13Z</time>
      </trkpt>
      <trkpt lat="40.879757" lon="-3.877270">
        <ele>1174.058</ele>
        <time>2021-07-31T14:48:15Z</time>
      </trkpt>
      <trkpt lat="40.879779" lon="-3.877262">
        <ele>1174.040</ele>
        <time>2021-07-31T14:48:16Z</time>
      </trkpt>
      <trkpt lat="40.879802" lon="-3.877282">
        <ele>1174.057</ele>
        <time>2021-07-31T14:48:18Z</time>
      </trkpt>
      <trkpt lat="40.879818" lon="-3.877298">
        <ele>1174.054</ele>
        <time>2021-07-31T14:48:20Z</time>
      </trkpt>
      <trkpt lat="40.879843" lon="-3.877315">
        <ele>1174.066</ele>
        <time>2021-07-31T14:48:22Z</time>
      </trkpt>
      <trkpt lat="40.879869" lon="-3.877328">
        <ele>1174.023</ele>
        <time>2021-07-31T14:48:24Z</time>
      </trkpt>
      <trkpt lat="40.879888" lon="-3.877342">
        <ele>1174.083</ele>
        <time>2021-07-31T14:48:26Z</time>
      </trkpt>
      <trkpt lat="40.879910" lon="-3.877352">
        <ele>1174.031</ele>
        <time>2021-07-31T14:48:28Z</time>
      </trkpt>
      <trkpt lat="40.879930" lon="-3.877360">
        <ele>1174.062</ele>
        <time>2021-07-31T14:48:30Z</time>
      </trkpt>
      <trkpt lat="40.879949" lon="-3.877373">
        <ele>1174.083</ele>
        <time>2021-07-31T14:48:33Z</time>
      </trkpt>
      <trkpt lat="40.879968" lon="-3.877390">
        <ele>1174.011</ele>
        <time>2021-07-31T14:48:35Z</time>
      </trkpt>
      <trkpt lat="40.879994" lon="-3.877406">
        <ele>1174.008</ele>
        <time>2021-07-31T14:48:37Z</time>
      </trkpt>
      <trkpt lat="40.880016" lon="-3.877420">
        <ele>1173.923</ele>
        <time>2021-07-31T14:48:39Z</time>
      </trkpt>
      <trkpt lat="40.880038" lon="-3.877427">
        <ele>1173.925</ele>
        <time>2021-07-31T14:48:41Z</time>
      </trkpt>
      <trkpt lat="40.880067" lon="-3.877437">
        <ele>1173.872</ele>
        <time>2021-07-31T14:48:43Z</time>
      </trkpt>
      <trkpt lat="40.880090" lon="-3.877447">
        <ele>1173.759</ele>
        <time>2021-07-31T14:48:45Z</time>
      </trkpt>
      <trkpt lat="40.880115" lon="-3.877460">
        <ele>1173.651</ele>
        <time>2021-07-31T14:48:47Z</time>
      </trkpt>
      <trkpt lat="40.880141" lon="-3.877485">
        <ele>1173.568</ele>
        <time>2021-07-31T14:48:49Z</time>
      </trkpt>
      <trkpt lat="40.880166" lon="-3.877503">
        <ele>1173.488</ele>
        <time>2021-07-31T14:48:51Z</time>
      </trkpt>
      <trkpt lat="40.880189" lon="-3.877517">
        <ele>1173.316</ele>
        <time>2021-07-31T14:48:53Z</time>
      </trkpt>
      <trkpt lat="40.880214" lon="-3.877532">
        <ele>1173.163</ele>
        <time>2021-07-31T14:48:55Z</time>
      </trkpt>
      <trkpt lat="40.880240" lon="-3.877552">
        <ele>1172.944</ele>
        <time>2021-07-31T14:48:57Z</time>
      </trkpt>
      <trkpt lat="40.880266" lon="-3.877573">
        <ele>1172.818</ele>
        <time>2021-07-31T14:48:59Z</time>
      </trkpt>
      <trkpt lat="40.880285" lon="-3.877593">
        <ele>1172.608</ele>
        <time>2021-07-31T14:49:01Z</time>
      </trkpt>
      <trkpt lat="40.880310" lon="-3.877610">
        <ele>1172.573</ele>
        <time>2021-07-31T14:49:03Z</time>
      </trkpt>
      <trkpt lat="40.880330" lon="-3.877630">
        <ele>1172.425</ele>
        <time>2021-07-31T14:49:05Z</time>
      </trkpt>
      <trkpt lat="40.880349" lon="-3.877648">
        <ele>1172.382</ele>
        <time>2021-07-31T14:49:07Z</time>
      </trkpt>
      <trkpt lat="40.880365" lon="-3.877663">
        <ele>1172.399</ele>
        <time>2021-07-31T14:49:08Z</time>
      </trkpt>
      <trkpt lat="40.880387" lon="-3.877682">
        <ele>1172.231</ele>
        <time>2021-07-31T14:49:10Z</time>
      </trkpt>
      <trkpt lat="40.880403" lon="-3.877698">
        <ele>1172.218</ele>
        <time>2021-07-31T14:49:12Z</time>
      </trkpt>
      <trkpt lat="40.880416" lon="-3.877722">
        <ele>1172.168</ele>
        <time>2021-07-31T14:49:14Z</time>
      </trkpt>
      <trkpt lat="40.880419" lon="-3.877750">
        <ele>1172.026</ele>
        <time>2021-07-31T14:49:16Z</time>
      </trkpt>
      <trkpt lat="40.880435" lon="-3.877775">
        <ele>1172.048</ele>
        <time>2021-07-31T14:49:19Z</time>
      </trkpt>
      <trkpt lat="40.880438" lon="-3.877807">
        <ele>1171.961</ele>
        <time>2021-07-31T14:49:21Z</time>
      </trkpt>
      <trkpt lat="40.880451" lon="-3.877833">
        <ele>1171.917</ele>
        <time>2021-07-31T14:49:23Z</time>
      </trkpt>
      <trkpt lat="40.880464" lon="-3.877857">
        <ele>1171.808</ele>
        <time>2021-07-31T14:49:25Z</time>
      </trkpt>
      <trkpt lat="40.880470" lon="-3.877887">
        <ele>1171.751</ele>
        <time>2021-07-31T14:49:27Z</time>
      </trkpt>
      <trkpt lat="40.880474" lon="-3.877920">
        <ele>1171.643</ele>
        <time>2021-07-31T14:49:29Z</time>
      </trkpt>
      <trkpt lat="40.880477" lon="-3.877950">
        <ele>1171.660</ele>
        <time>2021-07-31T14:49:31Z</time>
      </trkpt>
      <trkpt lat="40.880483" lon="-3.877982">
        <ele>1171.577</ele>
        <time>2021-07-31T14:49:33Z</time>
      </trkpt>
      <trkpt lat="40.880490" lon="-3.878005">
        <ele>1171.459</ele>
        <time>2021-07-31T14:49:35Z</time>
      </trkpt>
      <trkpt lat="40.880493" lon="-3.878037">
        <ele>1171.396</ele>
        <time>2021-07-31T14:49:38Z</time>
      </trkpt>
      <trkpt lat="40.880493" lon="-3.878068">
        <ele>1171.216</ele>
        <time>2021-07-31T14:49:40Z</time>
      </trkpt>
      <trkpt lat="40.880483" lon="-3.878103">
        <ele>1171.354</ele>
        <time>2021-07-31T14:49:42Z</time>
      </trkpt>
      <trkpt lat="40.880483" lon="-3.878133">
        <ele>1171.361</ele>
        <time>2021-07-31T14:49:44Z</time>
      </trkpt>
      <trkpt lat="40.880486" lon="-3.878160">
        <ele>1171.221</ele>
        <time>2021-07-31T14:49:46Z</time>
      </trkpt>
      <trkpt lat="40.880483" lon="-3.878195">
        <ele>1171.313</ele>
        <time>2021-07-31T14:49:49Z</time>
      </trkpt>
      <trkpt lat="40.880490" lon="-3.878222">
        <ele>1171.208</ele>
        <time>2021-07-31T14:49:51Z</time>
      </trkpt>
      <trkpt lat="40.880490" lon="-3.878260">
        <ele>1171.283</ele>
        <time>2021-07-31T14:49:53Z</time>
      </trkpt>
      <trkpt lat="40.880486" lon="-3.878290">
        <ele>1171.225</ele>
        <time>2021-07-31T14:49:55Z</time>
      </trkpt>
      <trkpt lat="40.880490" lon="-3.878328">
        <ele>1171.282</ele>
        <time>2021-07-31T14:49:57Z</time>
      </trkpt>
      <trkpt lat="40.880499" lon="-3.878362">
        <ele>1171.299</ele>
        <time>2021-07-31T14:50:00Z</time>
      </trkpt>
      <trkpt lat="40.880499" lon="-3.878403">
        <ele>1171.281</ele>
        <time>2021-07-31T14:50:02Z</time>
      </trkpt>
      <trkpt lat="40.880515" lon="-3.878440">
        <ele>1171.188</ele>
        <time>2021-07-31T14:50:05Z</time>
      </trkpt>
      <trkpt lat="40.880515" lon="-3.878468">
        <ele>1171.188</ele>
        <time>2021-07-31T14:50:07Z</time>
      </trkpt>
      <trkpt lat="40.880509" lon="-3.878498">
        <ele>1171.246</ele>
        <time>2021-07-31T14:50:09Z</time>
      </trkpt>
      <trkpt lat="40.880509" lon="-3.878537">
        <ele>1171.229</ele>
        <time>2021-07-31T14:50:11Z</time>
      </trkpt>
      <trkpt lat="40.880518" lon="-3.878580">
        <ele>1171.100</ele>
        <time>2021-07-31T14:50:13Z</time>
      </trkpt>
      <trkpt lat="40.880528" lon="-3.878605">
        <ele>1171.120</ele>
        <time>2021-07-31T14:50:14Z</time>
      </trkpt>
      <trkpt lat="40.880531" lon="-3.878640">
        <ele>1171.108</ele>
        <time>2021-07-31T14:50:15Z</time>
      </trkpt>
      <trkpt lat="40.880534" lon="-3.878675">
        <ele>1171.199</ele>
        <time>2021-07-31T14:50:17Z</time>
      </trkpt>
      <trkpt lat="40.880534" lon="-3.878723">
        <ele>1171.141</ele>
        <time>2021-07-31T14:50:19Z</time>
      </trkpt>
      <trkpt lat="40.880534" lon="-3.878758">
        <ele>1171.168</ele>
        <time>2021-07-31T14:50:21Z</time>
      </trkpt>
      <trkpt lat="40.880544" lon="-3.878803">
        <ele>1171.015</ele>
        <time>2021-07-31T14:50:23Z</time>
      </trkpt>
      <trkpt lat="40.880563" lon="-3.878838">
        <ele>1171.037</ele>
        <time>2021-07-31T14:50:25Z</time>
      </trkpt>
      <trkpt lat="40.880576" lon="-3.878877">
        <ele>1171.014</ele>
        <time>2021-07-31T14:50:27Z</time>
      </trkpt>
      <trkpt lat="40.880592" lon="-3.878902">
        <ele>1171.034</ele>
        <time>2021-07-31T14:50:29Z</time>
      </trkpt>
      <trkpt lat="40.880611" lon="-3.878924">
        <ele>1171.012</ele>
        <time>2021-07-31T14:50:31Z</time>
      </trkpt>
      <trkpt lat="40.880627" lon="-3.878952">
        <ele>1171.076</ele>
        <time>2021-07-31T14:50:33Z</time>
      </trkpt>
      <trkpt lat="40.880672" lon="-3.879057">
        <ele>1171.090</ele>
        <time>2021-07-31T14:50:40Z</time>
      </trkpt>
      <trkpt lat="40.880675" lon="-3.879083">
        <ele>1171.019</ele>
        <time>2021-07-31T14:50:41Z</time>
      </trkpt>
      <trkpt lat="40.880682" lon="-3.879120">
        <ele>1171.008</ele>
        <time>2021-07-31T14:50:43Z</time>
      </trkpt>
      <trkpt lat="40.880691" lon="-3.879150">
        <ele>1171.054</ele>
        <time>2021-07-31T14:50:45Z</time>
      </trkpt>
      <trkpt lat="40.880694" lon="-3.879188">
        <ele>1170.956</ele>
        <time>2021-07-31T14:50:47Z</time>
      </trkpt>
      <trkpt lat="40.880714" lon="-3.879217">
        <ele>1170.873</ele>
        <time>2021-07-31T14:50:49Z</time>
      </trkpt>
      <trkpt lat="40.880733" lon="-3.879243">
        <ele>1170.780</ele>
        <time>2021-07-31T14:50:51Z</time>
      </trkpt>
      <trkpt lat="40.880749" lon="-3.879267">
        <ele>1170.672</ele>
        <time>2021-07-31T14:50:53Z</time>
      </trkpt>
      <trkpt lat="40.880765" lon="-3.879302">
        <ele>1170.549</ele>
        <time>2021-07-31T14:50:55Z</time>
      </trkpt>
      <trkpt lat="40.880784" lon="-3.879332">
        <ele>1170.459</ele>
        <time>2021-07-31T14:50:57Z</time>
      </trkpt>
      <trkpt lat="40.880806" lon="-3.879348">
        <ele>1170.397</ele>
        <time>2021-07-31T14:50:59Z</time>
      </trkpt>
      <trkpt lat="40.880813" lon="-3.879378">
        <ele>1170.274</ele>
        <time>2021-07-31T14:51:01Z</time>
      </trkpt>
      <trkpt lat="40.880829" lon="-3.879412">
        <ele>1170.156</ele>
        <time>2021-07-31T14:51:03Z</time>
      </trkpt>
      <trkpt lat="40.880842" lon="-3.879447">
        <ele>1170.021</ele>
        <time>2021-07-31T14:51:05Z</time>
      </trkpt>
      <trkpt lat="40.880851" lon="-3.879468">
        <ele>1170.008</ele>
        <time>2021-07-31T14:51:07Z</time>
      </trkpt>
      <trkpt lat="40.880864" lon="-3.879492">
        <ele>1170.084</ele>
        <time>2021-07-31T14:51:09Z</time>
      </trkpt>
      <trkpt lat="40.880870" lon="-3.879527">
        <ele>1170.096</ele>
        <time>2021-07-31T14:51:11Z</time>
      </trkpt>
      <trkpt lat="40.880874" lon="-3.879555">
        <ele>1170.033</ele>
        <time>2021-07-31T14:51:13Z</time>
      </trkpt>
      <trkpt lat="40.880883" lon="-3.879580">
        <ele>1170.070</ele>
        <time>2021-07-31T14:51:15Z</time>
      </trkpt>
      <trkpt lat="40.880886" lon="-3.879607">
        <ele>1170.052</ele>
        <time>2021-07-31T14:51:17Z</time>
      </trkpt>
      <trkpt lat="40.880890" lon="-3.879638">
        <ele>1170.039</ele>
        <time>2021-07-31T14:51:19Z</time>
      </trkpt>
      <trkpt lat="40.880902" lon="-3.879665">
        <ele>1170.039</ele>
        <time>2021-07-31T14:51:21Z</time>
      </trkpt>
      <trkpt lat="40.880912" lon="-3.879695">
        <ele>1170.037</ele>
        <time>2021-07-31T14:51:23Z</time>
      </trkpt>
      <trkpt lat="40.880915" lon="-3.879718">
        <ele>1170.074</ele>
        <time>2021-07-31T14:51:24Z</time>
      </trkpt>
      <trkpt lat="40.880941" lon="-3.879735">
        <ele>1170.056</ele>
        <time>2021-07-31T14:51:30Z</time>
      </trkpt>
      <trkpt lat="40.880995" lon="-3.879760">
        <ele>1170.021</ele>
        <time>2021-07-31T14:51:32Z</time>
      </trkpt>
      <trkpt lat="40.881021" lon="-3.879762">
        <ele>1170.008</ele>
        <time>2021-07-31T14:51:33Z</time>
      </trkpt>
      <trkpt lat="40.881046" lon="-3.879770">
        <ele>1170.064</ele>
        <time>2021-07-31T14:51:35Z</time>
      </trkpt>
      <trkpt lat="40.881066" lon="-3.879792">
        <ele>1170.036</ele>
        <time>2021-07-31T14:51:37Z</time>
      </trkpt>
      <trkpt lat="40.881085" lon="-3.879825">
        <ele>1170.083</ele>
        <time>2021-07-31T14:51:39Z</time>
      </trkpt>
      <trkpt lat="40.881110" lon="-3.879852">
        <ele>1170.040</ele>
        <time>2021-07-31T14:51:41Z</time>
      </trkpt>
      <trkpt lat="40.881133" lon="-3.879867">
        <ele>1170.082</ele>
        <time>2021-07-31T14:51:42Z</time>
      </trkpt>
      <trkpt lat="40.881152" lon="-3.879873">
        <ele>1170.049</ele>
        <time>2021-07-31T14:51:43Z</time>
      </trkpt>
      <trkpt lat="40.881168" lon="-3.879885">
        <ele>1170.099</ele>
        <time>2021-07-31T14:51:44Z</time>
      </trkpt>
      <trkpt lat="40.881194" lon="-3.879893">
        <ele>1170.087</ele>
        <time>2021-07-31T14:51:46Z</time>
      </trkpt>
      <trkpt lat="40.881210" lon="-3.879865">
        <ele>1170.011</ele>
        <time>2021-07-31T14:51:48Z</time>
      </trkpt>
      <trkpt lat="40.881232" lon="-3.879868">
        <ele>1170.021</ele>
        <time>2021-07-31T14:51:51Z</time>
      </trkpt>
      <trkpt lat="40.881261" lon="-3.879890">
        <ele>1170.003</ele>
        <time>2021-07-31T14:51:54Z</time>
      </trkpt>
      <trkpt lat="40.881280" lon="-3.879902">
        <ele>1170.008</ele>
        <time>2021-07-31T14:51:55Z</time>
      </trkpt>
      <trkpt lat="40.881302" lon="-3.879900">
        <ele>1170.018</ele>
        <time>2021-07-31T14:51:59Z</time>
      </trkpt>
      <trkpt lat="40.881322" lon="-3.879900">
        <ele>1170.010</ele>
        <time>2021-07-31T14:52:00Z</time>
      </trkpt>
      <trkpt lat="40.881344" lon="-3.879902">
        <ele>1170.047</ele>
        <time>2021-07-31T14:52:02Z</time>
      </trkpt>
      <trkpt lat="40.881366" lon="-3.879918">
        <ele>1170.024</ele>
        <time>2021-07-31T14:52:04Z</time>
      </trkpt>
      <trkpt lat="40.881392" lon="-3.879938">
        <ele>1170.056</ele>
        <time>2021-07-31T14:52:07Z</time>
      </trkpt>
      <trkpt lat="40.881411" lon="-3.879962">
        <ele>1170.043</ele>
        <time>2021-07-31T14:52:09Z</time>
      </trkpt>
      <trkpt lat="40.881430" lon="-3.879974">
        <ele>1170.053</ele>
        <time>2021-07-31T14:52:11Z</time>
      </trkpt>
      <trkpt lat="40.881456" lon="-3.879978">
        <ele>1170.031</ele>
        <time>2021-07-31T14:52:13Z</time>
      </trkpt>
      <trkpt lat="40.881482" lon="-3.879988">
        <ele>1170.038</ele>
        <time>2021-07-31T14:52:15Z</time>
      </trkpt>
      <trkpt lat="40.881507" lon="-3.880007">
        <ele>1170.070</ele>
        <time>2021-07-31T14:52:17Z</time>
      </trkpt>
      <trkpt lat="40.881536" lon="-3.880025">
        <ele>1170.017</ele>
        <time>2021-07-31T14:52:19Z</time>
      </trkpt>
      <trkpt lat="40.881549" lon="-3.880043">
        <ele>1170.008</ele>
        <time>2021-07-31T14:52:21Z</time>
      </trkpt>
      <trkpt lat="40.881565" lon="-3.880055">
        <ele>1170.080</ele>
        <time>2021-07-31T14:52:22Z</time>
      </trkpt>
      <trkpt lat="40.881584" lon="-3.880072">
        <ele>1170.052</ele>
        <time>2021-07-31T14:52:24Z</time>
      </trkpt>
      <trkpt lat="40.881603" lon="-3.880087">
        <ele>1170.099</ele>
        <time>2021-07-31T14:52:26Z</time>
      </trkpt>
      <trkpt lat="40.881619" lon="-3.880098">
        <ele>1170.036</ele>
        <time>2021-07-31T14:52:27Z</time>
      </trkpt>
      <trkpt lat="40.881635" lon="-3.880110">
        <ele>1170.098</ele>
        <time>2021-07-31T14:52:28Z</time>
      </trkpt>
      <trkpt lat="40.881664" lon="-3.880132">
        <ele>1170.065</ele>
        <time>2021-07-31T14:52:30Z</time>
      </trkpt>
      <trkpt lat="40.881686" lon="-3.880147">
        <ele>1170.085</ele>
        <time>2021-07-31T14:52:32Z</time>
      </trkpt>
      <trkpt lat="40.881702" lon="-3.880172">
        <ele>1170.013</ele>
        <time>2021-07-31T14:52:34Z</time>
      </trkpt>
      <trkpt lat="40.881718" lon="-3.880183">
        <ele>1170.015</ele>
        <time>2021-07-31T14:52:35Z</time>
      </trkpt>
      <trkpt lat="40.881734" lon="-3.880196">
        <ele>1170.065</ele>
        <time>2021-07-31T14:52:36Z</time>
      </trkpt>
      <trkpt lat="40.881757" lon="-3.880215">
        <ele>1170.011</ele>
        <time>2021-07-31T14:52:38Z</time>
      </trkpt>
      <trkpt lat="40.881782" lon="-3.880242">
        <ele>1170.008</ele>
        <time>2021-07-31T14:52:40Z</time>
      </trkpt>
      <trkpt lat="40.881802" lon="-3.880263">
        <ele>1170.068</ele>
        <time>2021-07-31T14:52:42Z</time>
      </trkpt>
      <trkpt lat="40.881814" lon="-3.880288">
        <ele>1170.030</ele>
        <time>2021-07-31T14:52:44Z</time>
      </trkpt>
      <trkpt lat="40.881837" lon="-3.880315">
        <ele>1169.977</ele>
        <time>2021-07-31T14:52:46Z</time>
      </trkpt>
      <trkpt lat="40.881859" lon="-3.880332">
        <ele>1169.954</ele>
        <time>2021-07-31T14:52:48Z</time>
      </trkpt>
      <trkpt lat="40.881885" lon="-3.880335">
        <ele>1169.886</ele>
        <time>2021-07-31T14:52:50Z</time>
      </trkpt>
      <trkpt lat="40.881904" lon="-3.880348">
        <ele>1169.843</ele>
        <time>2021-07-31T14:52:51Z</time>
      </trkpt>
      <trkpt lat="40.881936" lon="-3.880364">
        <ele>1169.733</ele>
        <time>2021-07-31T14:52:53Z</time>
      </trkpt>
      <trkpt lat="40.881958" lon="-3.880370">
        <ele>1169.721</ele>
        <time>2021-07-31T14:52:55Z</time>
      </trkpt>
      <trkpt lat="40.881987" lon="-3.880386">
        <ele>1169.695</ele>
        <time>2021-07-31T14:52:57Z</time>
      </trkpt>
      <trkpt lat="40.882013" lon="-3.880410">
        <ele>1169.549</ele>
        <time>2021-07-31T14:52:59Z</time>
      </trkpt>
      <trkpt lat="40.882035" lon="-3.880437">
        <ele>1169.423</ele>
        <time>2021-07-31T14:53:01Z</time>
      </trkpt>
      <trkpt lat="40.882054" lon="-3.880457">
        <ele>1169.408</ele>
        <time>2021-07-31T14:53:03Z</time>
      </trkpt>
      <trkpt lat="40.882074" lon="-3.880475">
        <ele>1169.376</ele>
        <time>2021-07-31T14:53:05Z</time>
      </trkpt>
      <trkpt lat="40.882096" lon="-3.880488">
        <ele>1169.238</ele>
        <time>2021-07-31T14:53:07Z</time>
      </trkpt>
      <trkpt lat="40.882112" lon="-3.880500">
        <ele>1169.275</ele>
        <time>2021-07-31T14:53:09Z</time>
      </trkpt>
      <trkpt lat="40.882138" lon="-3.880516">
        <ele>1169.132</ele>
        <time>2021-07-31T14:53:12Z</time>
      </trkpt>
      <trkpt lat="40.882147" lon="-3.880542">
        <ele>1169.034</ele>
        <time>2021-07-31T14:53:16Z</time>
      </trkpt>
      <trkpt lat="40.882173" lon="-3.880560">
        <ele>1169.071</ele>
        <time>2021-07-31T14:53:18Z</time>
      </trkpt>
      <trkpt lat="40.882195" lon="-3.880580">
        <ele>1168.921</ele>
        <time>2021-07-31T14:53:20Z</time>
      </trkpt>
      <trkpt lat="40.882211" lon="-3.880608">
        <ele>1168.889</ele>
        <time>2021-07-31T14:53:22Z</time>
      </trkpt>
      <trkpt lat="40.882224" lon="-3.880633">
        <ele>1168.756</ele>
        <time>2021-07-31T14:53:24Z</time>
      </trkpt>
      <trkpt lat="40.882240" lon="-3.880647">
        <ele>1168.759</ele>
        <time>2021-07-31T14:53:25Z</time>
      </trkpt>
      <trkpt lat="40.882262" lon="-3.880670">
        <ele>1168.614</ele>
        <time>2021-07-31T14:53:27Z</time>
      </trkpt>
      <trkpt lat="40.882278" lon="-3.880682">
        <ele>1168.508</ele>
        <time>2021-07-31T14:53:28Z</time>
      </trkpt>
      <trkpt lat="40.882291" lon="-3.880698">
        <ele>1168.522</ele>
        <time>2021-07-31T14:53:29Z</time>
      </trkpt>
      <trkpt lat="40.882310" lon="-3.880698">
        <ele>1168.554</ele>
        <time>2021-07-31T14:53:31Z</time>
      </trkpt>
      <trkpt lat="40.882339" lon="-3.880717">
        <ele>1168.421</ele>
        <time>2021-07-31T14:53:33Z</time>
      </trkpt>
      <trkpt lat="40.882358" lon="-3.880730">
        <ele>1168.428</ele>
        <time>2021-07-31T14:53:35Z</time>
      </trkpt>
      <trkpt lat="40.882384" lon="-3.880752">
        <ele>1168.370</ele>
        <time>2021-07-31T14:53:37Z</time>
      </trkpt>
      <trkpt lat="40.882400" lon="-3.880767">
        <ele>1168.267</ele>
        <time>2021-07-31T14:53:39Z</time>
      </trkpt>
      <trkpt lat="40.882422" lon="-3.880798">
        <ele>1168.167</ele>
        <time>2021-07-31T14:53:41Z</time>
      </trkpt>
      <trkpt lat="40.882442" lon="-3.880822">
        <ele>1168.085</ele>
        <time>2021-07-31T14:53:43Z</time>
      </trkpt>
      <trkpt lat="40.882458" lon="-3.880835">
        <ele>1168.088</ele>
        <time>2021-07-31T14:53:45Z</time>
      </trkpt>
      <trkpt lat="40.882477" lon="-3.880858">
        <ele>1167.824</ele>
        <time>2021-07-31T14:53:47Z</time>
      </trkpt>
      <trkpt lat="40.882502" lon="-3.880873">
        <ele>1167.726</ele>
        <time>2021-07-31T14:53:49Z</time>
      </trkpt>
      <trkpt lat="40.882531" lon="-3.880893">
        <ele>1167.508</ele>
        <time>2021-07-31T14:53:51Z</time>
      </trkpt>
      <trkpt lat="40.882557" lon="-3.880908">
        <ele>1167.345</ele>
        <time>2021-07-31T14:53:53Z</time>
      </trkpt>
      <trkpt lat="40.882573" lon="-3.880925">
        <ele>1167.247</ele>
        <time>2021-07-31T14:53:55Z</time>
      </trkpt>
      <trkpt lat="40.882589" lon="-3.880937">
        <ele>1167.154</ele>
        <time>2021-07-31T14:53:56Z</time>
      </trkpt>
      <trkpt lat="40.882611" lon="-3.880958">
        <ele>1166.951</ele>
        <time>2021-07-31T14:53:58Z</time>
      </trkpt>
      <trkpt lat="40.882634" lon="-3.880980">
        <ele>1166.763</ele>
        <time>2021-07-31T14:54:00Z</time>
      </trkpt>
      <trkpt lat="40.882650" lon="-3.880998">
        <ele>1166.670</ele>
        <time>2021-07-31T14:54:02Z</time>
      </trkpt>
      <trkpt lat="40.882669" lon="-3.881018">
        <ele>1166.570</ele>
        <time>2021-07-31T14:54:04Z</time>
      </trkpt>
      <trkpt lat="40.882691" lon="-3.881045">
        <ele>1166.398</ele>
        <time>2021-07-31T14:54:06Z</time>
      </trkpt>
      <trkpt lat="40.882710" lon="-3.881068">
        <ele>1166.248</ele>
        <time>2021-07-31T14:54:08Z</time>
      </trkpt>
      <trkpt lat="40.882736" lon="-3.881098">
        <ele>1166.161</ele>
        <time>2021-07-31T14:54:10Z</time>
      </trkpt>
      <trkpt lat="40.882758" lon="-3.881125">
        <ele>1166.017</ele>
        <time>2021-07-31T14:54:12Z</time>
      </trkpt>
      <trkpt lat="40.882771" lon="-3.881145">
        <ele>1165.908</ele>
        <time>2021-07-31T14:54:13Z</time>
      </trkpt>
      <trkpt lat="40.882790" lon="-3.881165">
        <ele>1165.831</ele>
        <time>2021-07-31T14:54:15Z</time>
      </trkpt>
      <trkpt lat="40.882806" lon="-3.881204">
        <ele>1165.753</ele>
        <time>2021-07-31T14:54:17Z</time>
      </trkpt>
      <trkpt lat="40.882835" lon="-3.881220">
        <ele>1165.630</ele>
        <time>2021-07-31T14:54:19Z</time>
      </trkpt>
      <trkpt lat="40.882858" lon="-3.881242">
        <ele>1165.557</ele>
        <time>2021-07-31T14:54:21Z</time>
      </trkpt>
      <trkpt lat="40.882877" lon="-3.881252">
        <ele>1165.539</ele>
        <time>2021-07-31T14:54:23Z</time>
      </trkpt>
      <trkpt lat="40.882896" lon="-3.881262">
        <ele>1165.516</ele>
        <time>2021-07-31T14:54:31Z</time>
      </trkpt>
      <trkpt lat="40.882912" lon="-3.881273">
        <ele>1165.476</ele>
        <time>2021-07-31T14:54:32Z</time>
      </trkpt>
      <trkpt lat="40.882928" lon="-3.881297">
        <ele>1165.324</ele>
        <time>2021-07-31T14:54:34Z</time>
      </trkpt>
      <trkpt lat="40.882947" lon="-3.881315">
        <ele>1165.318</ele>
        <time>2021-07-31T14:54:36Z</time>
      </trkpt>
      <trkpt lat="40.882973" lon="-3.881323">
        <ele>1165.298</ele>
        <time>2021-07-31T14:54:38Z</time>
      </trkpt>
      <trkpt lat="40.882992" lon="-3.881330">
        <ele>1165.217</ele>
        <time>2021-07-31T14:54:40Z</time>
      </trkpt>
      <trkpt lat="40.883018" lon="-3.881332">
        <ele>1165.208</ele>
        <time>2021-07-31T14:54:42Z</time>
      </trkpt>
      <trkpt lat="40.883037" lon="-3.881340">
        <ele>1165.278</ele>
        <time>2021-07-31T14:54:44Z</time>
      </trkpt>
      <trkpt lat="40.883059" lon="-3.881345">
        <ele>1165.160</ele>
        <time>2021-07-31T14:54:46Z</time>
      </trkpt>
      <trkpt lat="40.883078" lon="-3.881347">
        <ele>1165.127</ele>
        <time>2021-07-31T14:54:47Z</time>
      </trkpt>
      <trkpt lat="40.883110" lon="-3.881353">
        <ele>1164.944</ele>
        <time>2021-07-31T14:54:49Z</time>
      </trkpt>
      <trkpt lat="40.883136" lon="-3.881355">
        <ele>1164.856</ele>
        <time>2021-07-31T14:54:51Z</time>
      </trkpt>
      <trkpt lat="40.883158" lon="-3.881357">
        <ele>1164.723</ele>
        <time>2021-07-31T14:54:53Z</time>
      </trkpt>
      <trkpt lat="40.883187" lon="-3.881363">
        <ele>1164.663</ele>
        <time>2021-07-31T14:54:55Z</time>
      </trkpt>
      <trkpt lat="40.883206" lon="-3.881370">
        <ele>1164.591</ele>
        <time>2021-07-31T14:54:57Z</time>
      </trkpt>
      <trkpt lat="40.883232" lon="-3.881385">
        <ele>1164.458</ele>
        <time>2021-07-31T14:55:00Z</time>
      </trkpt>
      <trkpt lat="40.883254" lon="-3.881390">
        <ele>1164.352</ele>
        <time>2021-07-31T14:55:02Z</time>
      </trkpt>
      <trkpt lat="40.883277" lon="-3.881390">
        <ele>1164.217</ele>
        <time>2021-07-31T14:55:04Z</time>
      </trkpt>
      <trkpt lat="40.883306" lon="-3.881405">
        <ele>1164.008</ele>
        <time>2021-07-31T14:55:06Z</time>
      </trkpt>
      <trkpt lat="40.883325" lon="-3.881407">
        <ele>1164.092</ele>
        <time>2021-07-31T14:55:07Z</time>
      </trkpt>
      <trkpt lat="40.883350" lon="-3.881415">
        <ele>1163.974</ele>
        <time>2021-07-31T14:55:09Z</time>
      </trkpt>
      <trkpt lat="40.883373" lon="-3.881428">
        <ele>1163.721</ele>
        <time>2021-07-31T14:55:11Z</time>
      </trkpt>
      <trkpt lat="40.883405" lon="-3.881442">
        <ele>1163.658</ele>
        <time>2021-07-31T14:55:13Z</time>
      </trkpt>
      <trkpt lat="40.883424" lon="-3.881445">
        <ele>1163.550</ele>
        <time>2021-07-31T14:55:15Z</time>
      </trkpt>
      <trkpt lat="40.883450" lon="-3.881443">
        <ele>1163.537</ele>
        <time>2021-07-31T14:55:17Z</time>
      </trkpt>
      <trkpt lat="40.883482" lon="-3.881442">
        <ele>1163.417</ele>
        <time>2021-07-31T14:55:19Z</time>
      </trkpt>
      <trkpt lat="40.883507" lon="-3.881453">
        <ele>1163.345</ele>
        <time>2021-07-31T14:55:21Z</time>
      </trkpt>
      <trkpt lat="40.883526" lon="-3.881473">
        <ele>1163.281</ele>
        <time>2021-07-31T14:55:24Z</time>
      </trkpt>
      <trkpt lat="40.883546" lon="-3.881490">
        <ele>1163.161</ele>
        <time>2021-07-31T14:55:26Z</time>
      </trkpt>
      <trkpt lat="40.883568" lon="-3.881500">
        <ele>1163.117</ele>
        <time>2021-07-31T14:55:28Z</time>
      </trkpt>
      <trkpt lat="40.883587" lon="-3.881505">
        <ele>1163.108</ele>
        <time>2021-07-31T14:55:30Z</time>
      </trkpt>
      <trkpt lat="40.883610" lon="-3.881513">
        <ele>1163.095</ele>
        <time>2021-07-31T14:55:32Z</time>
      </trkpt>
      <trkpt lat="40.883635" lon="-3.881515">
        <ele>1163.097</ele>
        <time>2021-07-31T14:55:35Z</time>
      </trkpt>
      <trkpt lat="40.883664" lon="-3.881518">
        <ele>1162.974</ele>
        <time>2021-07-31T14:55:38Z</time>
      </trkpt>
      <trkpt lat="40.883680" lon="-3.881530">
        <ele>1162.931</ele>
        <time>2021-07-31T14:55:40Z</time>
      </trkpt>
      <trkpt lat="40.883706" lon="-3.881542">
        <ele>1162.823</ele>
        <time>2021-07-31T14:55:42Z</time>
      </trkpt>
      <trkpt lat="40.883725" lon="-3.881542">
        <ele>1162.870</ele>
        <time>2021-07-31T14:55:43Z</time>
      </trkpt>
      <trkpt lat="40.883750" lon="-3.881545">
        <ele>1162.790</ele>
        <time>2021-07-31T14:55:45Z</time>
      </trkpt>
      <trkpt lat="40.883782" lon="-3.881548">
        <ele>1162.688</ele>
        <time>2021-07-31T14:55:47Z</time>
      </trkpt>
      <trkpt lat="40.883821" lon="-3.881552">
        <ele>1162.621</ele>
        <time>2021-07-31T14:55:49Z</time>
      </trkpt>
      <trkpt lat="40.883850" lon="-3.881557">
        <ele>1162.541</ele>
        <time>2021-07-31T14:55:51Z</time>
      </trkpt>
      <trkpt lat="40.883872" lon="-3.881558">
        <ele>1162.405</ele>
        <time>2021-07-31T14:55:52Z</time>
      </trkpt>
      <trkpt lat="40.883901" lon="-3.881558">
        <ele>1162.408</ele>
        <time>2021-07-31T14:55:54Z</time>
      </trkpt>
      <trkpt lat="40.883923" lon="-3.881562">
        <ele>1162.319</ele>
        <time>2021-07-31T14:55:56Z</time>
      </trkpt>
      <trkpt lat="40.883949" lon="-3.881565">
        <ele>1162.321</ele>
        <time>2021-07-31T14:55:58Z</time>
      </trkpt>
      <trkpt lat="40.883974" lon="-3.881565">
        <ele>1162.348</ele>
        <time>2021-07-31T14:56:00Z</time>
      </trkpt>
      <trkpt lat="40.884010" lon="-3.881563">
        <ele>1162.225</ele>
        <time>2021-07-31T14:56:02Z</time>
      </trkpt>
      <trkpt lat="40.884042" lon="-3.881570">
        <ele>1162.217</ele>
        <time>2021-07-31T14:56:04Z</time>
      </trkpt>
      <trkpt lat="40.884061" lon="-3.881572">
        <ele>1162.144</ele>
        <time>2021-07-31T14:56:05Z</time>
      </trkpt>
      <trkpt lat="40.884086" lon="-3.881576">
        <ele>1162.154</ele>
        <time>2021-07-31T14:56:07Z</time>
      </trkpt>
      <trkpt lat="40.884112" lon="-3.881576">
        <ele>1162.172</ele>
        <time>2021-07-31T14:56:09Z</time>
      </trkpt>
      <trkpt lat="40.884144" lon="-3.881585">
        <ele>1162.034</ele>
        <time>2021-07-31T14:56:11Z</time>
      </trkpt>
      <trkpt lat="40.884173" lon="-3.881583">
        <ele>1162.055</ele>
        <time>2021-07-31T14:56:13Z</time>
      </trkpt>
      <trkpt lat="40.884192" lon="-3.881588">
        <ele>1161.910</ele>
        <time>2021-07-31T14:56:14Z</time>
      </trkpt>
      <trkpt lat="40.884230" lon="-3.881610">
        <ele>1161.808</ele>
        <time>2021-07-31T14:56:16Z</time>
      </trkpt>
      <trkpt lat="40.884250" lon="-3.881625">
        <ele>1161.750</ele>
        <time>2021-07-31T14:56:18Z</time>
      </trkpt>
      <trkpt lat="40.884272" lon="-3.881638">
        <ele>1161.712</ele>
        <time>2021-07-31T14:56:20Z</time>
      </trkpt>
      <trkpt lat="40.884298" lon="-3.881647">
        <ele>1161.619</ele>
        <time>2021-07-31T14:56:22Z</time>
      </trkpt>
      <trkpt lat="40.884320" lon="-3.881655">
        <ele>1161.586</ele>
        <time>2021-07-31T14:56:24Z</time>
      </trkpt>
      <trkpt lat="40.884339" lon="-3.881662">
        <ele>1161.458</ele>
        <time>2021-07-31T14:56:26Z</time>
      </trkpt>
      <trkpt lat="40.884365" lon="-3.881672">
        <ele>1161.355</ele>
        <time>2021-07-31T14:56:28Z</time>
      </trkpt>
      <trkpt lat="40.884390" lon="-3.881690">
        <ele>1161.285</ele>
        <time>2021-07-31T14:56:30Z</time>
      </trkpt>
      <trkpt lat="40.884419" lon="-3.881703">
        <ele>1161.153</ele>
        <time>2021-07-31T14:56:32Z</time>
      </trkpt>
      <trkpt lat="40.884442" lon="-3.881720">
        <ele>1161.062</ele>
        <time>2021-07-31T14:56:34Z</time>
      </trkpt>
      <trkpt lat="40.884461" lon="-3.881738">
        <ele>1161.083</ele>
        <time>2021-07-31T14:56:36Z</time>
      </trkpt>
      <trkpt lat="40.884477" lon="-3.881758">
        <ele>1161.011</ele>
        <time>2021-07-31T14:56:37Z</time>
      </trkpt>
      <trkpt lat="40.884499" lon="-3.881783">
        <ele>1161.008</ele>
        <time>2021-07-31T14:56:39Z</time>
      </trkpt>
      <trkpt lat="40.884515" lon="-3.881798">
        <ele>1161.083</ele>
        <time>2021-07-31T14:56:40Z</time>
      </trkpt>
      <trkpt lat="40.884538" lon="-3.881818">
        <ele>1161.075</ele>
        <time>2021-07-31T14:56:42Z</time>
      </trkpt>
      <trkpt lat="40.884554" lon="-3.881833">
        <ele>1161.032</ele>
        <time>2021-07-31T14:56:43Z</time>
      </trkpt>
      <trkpt lat="40.884570" lon="-3.881858">
        <ele>1161.079</ele>
        <time>2021-07-31T14:56:45Z</time>
      </trkpt>
      <trkpt lat="40.884598" lon="-3.881883">
        <ele>1161.031</ele>
        <time>2021-07-31T14:56:47Z</time>
      </trkpt>
      <trkpt lat="40.884624" lon="-3.881908">
        <ele>1161.078</ele>
        <time>2021-07-31T14:56:49Z</time>
      </trkpt>
      <trkpt lat="40.884640" lon="-3.881925">
        <ele>1161.048</ele>
        <time>2021-07-31T14:56:50Z</time>
      </trkpt>
      <trkpt lat="40.884656" lon="-3.881940">
        <ele>1161.046</ele>
        <time>2021-07-31T14:56:51Z</time>
      </trkpt>
      <trkpt lat="40.884678" lon="-3.881975">
        <ele>1161.082</ele>
        <time>2021-07-31T14:56:53Z</time>
      </trkpt>
      <trkpt lat="40.884701" lon="-3.881997">
        <ele>1161.043</ele>
        <time>2021-07-31T14:56:55Z</time>
      </trkpt>
      <trkpt lat="40.884720" lon="-3.882013">
        <ele>1161.017</ele>
        <time>2021-07-31T14:56:57Z</time>
      </trkpt>
      <trkpt lat="40.884742" lon="-3.882028">
        <ele>1160.908</ele>
        <time>2021-07-31T14:56:59Z</time>
      </trkpt>
      <trkpt lat="40.884768" lon="-3.882045">
        <ele>1160.885</ele>
        <time>2021-07-31T14:57:01Z</time>
      </trkpt>
      <trkpt lat="40.884784" lon="-3.882058">
        <ele>1160.877</ele>
        <time>2021-07-31T14:57:03Z</time>
      </trkpt>
      <trkpt lat="40.884768" lon="-3.882095">
        <ele>1160.854</ele>
        <time>2021-07-31T14:57:10Z</time>
      </trkpt>
      <trkpt lat="40.884774" lon="-3.882127">
        <ele>1160.871</ele>
        <time>2021-07-31T14:57:12Z</time>
      </trkpt>
      <trkpt lat="40.884806" lon="-3.882143">
        <ele>1160.763</ele>
        <time>2021-07-31T14:57:15Z</time>
      </trkpt>
      <trkpt lat="40.884826" lon="-3.882143">
        <ele>1160.650</ele>
        <time>2021-07-31T14:57:16Z</time>
      </trkpt>
      <trkpt lat="40.884861" lon="-3.882132">
        <ele>1160.560</ele>
        <time>2021-07-31T14:57:18Z</time>
      </trkpt>
      <trkpt lat="40.884880" lon="-3.882115">
        <ele>1160.438</ele>
        <time>2021-07-31T14:57:20Z</time>
      </trkpt>
      <trkpt lat="40.884902" lon="-3.882095">
        <ele>1160.462</ele>
        <time>2021-07-31T14:57:22Z</time>
      </trkpt>
      <trkpt lat="40.884922" lon="-3.882077">
        <ele>1160.383</ele>
        <time>2021-07-31T14:57:24Z</time>
      </trkpt>
      <trkpt lat="40.884941" lon="-3.882060">
        <ele>1160.211</ele>
        <time>2021-07-31T14:57:26Z</time>
      </trkpt>
      <trkpt lat="40.884957" lon="-3.882047">
        <ele>1160.208</ele>
        <time>2021-07-31T14:57:28Z</time>
      </trkpt>
      <trkpt lat="40.884976" lon="-3.882032">
        <ele>1160.193</ele>
        <time>2021-07-31T14:57:30Z</time>
      </trkpt>
      <trkpt lat="40.884992" lon="-3.882007">
        <ele>1160.065</ele>
        <time>2021-07-31T14:57:37Z</time>
      </trkpt>
      <trkpt lat="40.885011" lon="-3.881987">
        <ele>1160.022</ele>
        <time>2021-07-31T14:57:39Z</time>
      </trkpt>
      <trkpt lat="40.885024" lon="-3.881968">
        <ele>1160.039</ele>
        <time>2021-07-31T14:57:41Z</time>
      </trkpt>
      <trkpt lat="40.885053" lon="-3.881942">
        <ele>1160.061</ele>
        <time>2021-07-31T14:57:43Z</time>
      </trkpt>
      <trkpt lat="40.885072" lon="-3.881912">
        <ele>1160.188</ele>
        <time>2021-07-31T14:57:45Z</time>
      </trkpt>
      <trkpt lat="40.885091" lon="-3.881878">
        <ele>1160.218</ele>
        <time>2021-07-31T14:57:47Z</time>
      </trkpt>
      <trkpt lat="40.885104" lon="-3.881857">
        <ele>1160.266</ele>
        <time>2021-07-31T14:57:49Z</time>
      </trkpt>
      <trkpt lat="40.885130" lon="-3.881830">
        <ele>1160.264</ele>
        <time>2021-07-31T14:57:51Z</time>
      </trkpt>
      <trkpt lat="40.885158" lon="-3.881810">
        <ele>1160.206</ele>
        <time>2021-07-31T14:57:53Z</time>
      </trkpt>
      <trkpt lat="40.885190" lon="-3.881795">
        <ele>1160.216</ele>
        <time>2021-07-31T14:57:55Z</time>
      </trkpt>
      <trkpt lat="40.885216" lon="-3.881786">
        <ele>1160.108</ele>
        <time>2021-07-31T14:57:57Z</time>
      </trkpt>
      <trkpt lat="40.885235" lon="-3.881777">
        <ele>1160.143</ele>
        <time>2021-07-31T14:57:59Z</time>
      </trkpt>
      <trkpt lat="40.885261" lon="-3.881757">
        <ele>1160.085</ele>
        <time>2021-07-31T14:58:01Z</time>
      </trkpt>
      <trkpt lat="40.885277" lon="-3.881745">
        <ele>1160.052</ele>
        <time>2021-07-31T14:58:02Z</time>
      </trkpt>
      <trkpt lat="40.885299" lon="-3.881720">
        <ele>1160.069</ele>
        <time>2021-07-31T14:58:04Z</time>
      </trkpt>
      <trkpt lat="40.885318" lon="-3.881718">
        <ele>1160.021</ele>
        <time>2021-07-31T14:58:05Z</time>
      </trkpt>
      <trkpt lat="40.885338" lon="-3.881712">
        <ele>1160.098</ele>
        <time>2021-07-31T14:58:06Z</time>
      </trkpt>
      <trkpt lat="40.885363" lon="-3.881698">
        <ele>1160.018</ele>
        <time>2021-07-31T14:58:08Z</time>
      </trkpt>
      <trkpt lat="40.885382" lon="-3.881687">
        <ele>1160.016</ele>
        <time>2021-07-31T14:58:10Z</time>
      </trkpt>
      <trkpt lat="40.885408" lon="-3.881682">
        <ele>1160.013</ele>
        <time>2021-07-31T14:58:12Z</time>
      </trkpt>
      <trkpt lat="40.885430" lon="-3.881678">
        <ele>1160.043</ele>
        <time>2021-07-31T14:58:14Z</time>
      </trkpt>
      <trkpt lat="40.885456" lon="-3.881673">
        <ele>1160.007</ele>
        <time>2021-07-31T14:58:16Z</time>
      </trkpt>
      <trkpt lat="40.885475" lon="-3.881670">
        <ele>1160.008</ele>
        <time>2021-07-31T14:58:17Z</time>
      </trkpt>
      <trkpt lat="40.885510" lon="-3.881668">
        <ele>1160.018</ele>
        <time>2021-07-31T14:58:19Z</time>
      </trkpt>
      <trkpt lat="40.885530" lon="-3.881648">
        <ele>1160.030</ele>
        <time>2021-07-31T14:58:23Z</time>
      </trkpt>
      <trkpt lat="40.885549" lon="-3.881662">
        <ele>1160.067</ele>
        <time>2021-07-31T14:58:26Z</time>
      </trkpt>
      <trkpt lat="40.885574" lon="-3.881658">
        <ele>1159.914</ele>
        <time>2021-07-31T14:58:28Z</time>
      </trkpt>
      <trkpt lat="40.885600" lon="-3.881657">
        <ele>1159.816</ele>
        <time>2021-07-31T14:58:30Z</time>
      </trkpt>
      <trkpt lat="40.885632" lon="-3.881660">
        <ele>1159.763</ele>
        <time>2021-07-31T14:58:32Z</time>
      </trkpt>
      <trkpt lat="40.885654" lon="-3.881667">
        <ele>1159.613</ele>
        <time>2021-07-31T14:58:34Z</time>
      </trkpt>
      <trkpt lat="40.885686" lon="-3.881665">
        <ele>1159.541</ele>
        <time>2021-07-31T14:58:36Z</time>
      </trkpt>
      <trkpt lat="40.885712" lon="-3.881660">
        <ele>1159.475</ele>
        <time>2021-07-31T14:58:38Z</time>
      </trkpt>
      <trkpt lat="40.885738" lon="-3.881652">
        <ele>1159.328</ele>
        <time>2021-07-31T14:58:40Z</time>
      </trkpt>
      <trkpt lat="40.885766" lon="-3.881642">
        <ele>1159.220</ele>
        <time>2021-07-31T14:58:42Z</time>
      </trkpt>
      <trkpt lat="40.885789" lon="-3.881625">
        <ele>1159.208</ele>
        <time>2021-07-31T14:58:44Z</time>
      </trkpt>
      <trkpt lat="40.885805" lon="-3.881605">
        <ele>1159.164</ele>
        <time>2021-07-31T14:58:46Z</time>
      </trkpt>
      <trkpt lat="40.885821" lon="-3.881586">
        <ele>1159.086</ele>
        <time>2021-07-31T14:58:48Z</time>
      </trkpt>
      <trkpt lat="40.885840" lon="-3.881578">
        <ele>1159.093</ele>
        <time>2021-07-31T14:58:50Z</time>
      </trkpt>
      <trkpt lat="40.885856" lon="-3.881566">
        <ele>1158.970</ele>
        <time>2021-07-31T14:58:52Z</time>
      </trkpt>
      <trkpt lat="40.885875" lon="-3.881554">
        <ele>1158.812</ele>
        <time>2021-07-31T14:58:54Z</time>
      </trkpt>
      <trkpt lat="40.885894" lon="-3.881542">
        <ele>1158.849</ele>
        <time>2021-07-31T14:58:56Z</time>
      </trkpt>
      <trkpt lat="40.885914" lon="-3.881530">
        <ele>1158.719</ele>
        <time>2021-07-31T14:58:58Z</time>
      </trkpt>
      <trkpt lat="40.885936" lon="-3.881523">
        <ele>1158.697</ele>
        <time>2021-07-31T14:59:00Z</time>
      </trkpt>
      <trkpt lat="40.885971" lon="-3.881523">
        <ele>1158.568</ele>
        <time>2021-07-31T14:59:02Z</time>
      </trkpt>
      <trkpt lat="40.885990" lon="-3.881523">
        <ele>1158.442</ele>
        <time>2021-07-31T14:59:03Z</time>
      </trkpt>
      <trkpt lat="40.886016" lon="-3.881523">
        <ele>1158.326</ele>
        <time>2021-07-31T14:59:05Z</time>
      </trkpt>
      <trkpt lat="40.886048" lon="-3.881528">
        <ele>1158.208</ele>
        <time>2021-07-31T14:59:07Z</time>
      </trkpt>
      <trkpt lat="40.886070" lon="-3.881533">
        <ele>1158.113</ele>
        <time>2021-07-31T14:59:09Z</time>
      </trkpt>
      <trkpt lat="40.886093" lon="-3.881530">
        <ele>1158.145</ele>
        <time>2021-07-31T14:59:11Z</time>
      </trkpt>
      <trkpt lat="40.886118" lon="-3.881533">
        <ele>1158.072</ele>
        <time>2021-07-31T14:59:13Z</time>
      </trkpt>
      <trkpt lat="40.886150" lon="-3.881527">
        <ele>1158.089</ele>
        <time>2021-07-31T14:59:15Z</time>
      </trkpt>
      <trkpt lat="40.886173" lon="-3.881520">
        <ele>1158.031</ele>
        <time>2021-07-31T14:59:17Z</time>
      </trkpt>
      <trkpt lat="40.886198" lon="-3.881515">
        <ele>1158.028</ele>
        <time>2021-07-31T14:59:19Z</time>
      </trkpt>
      <trkpt lat="40.886237" lon="-3.881495">
        <ele>1158.078</ele>
        <time>2021-07-31T14:59:21Z</time>
      </trkpt>
      <trkpt lat="40.886269" lon="-3.881478">
        <ele>1158.026</ele>
        <time>2021-07-31T14:59:23Z</time>
      </trkpt>
      <trkpt lat="40.886288" lon="-3.881470">
        <ele>1158.048</ele>
        <time>2021-07-31T14:59:24Z</time>
      </trkpt>
      <trkpt lat="40.886310" lon="-3.881443">
        <ele>1158.061</ele>
        <time>2021-07-31T14:59:26Z</time>
      </trkpt>
      <trkpt lat="40.886333" lon="-3.881424">
        <ele>1158.017</ele>
        <time>2021-07-31T14:59:28Z</time>
      </trkpt>
      <trkpt lat="40.886346" lon="-3.881407">
        <ele>1158.008</ele>
        <time>2021-07-31T14:59:29Z</time>
      </trkpt>
      <trkpt lat="40.886362" lon="-3.881394">
        <ele>1158.041</ele>
        <time>2021-07-31T14:59:30Z</time>
      </trkpt>
      <trkpt lat="40.886381" lon="-3.881377">
        <ele>1158.043</ele>
        <time>2021-07-31T14:59:32Z</time>
      </trkpt>
      <trkpt lat="40.886406" lon="-3.881357">
        <ele>1157.980</ele>
        <time>2021-07-31T14:59:34Z</time>
      </trkpt>
      <trkpt lat="40.886426" lon="-3.881333">
        <ele>1157.967</ele>
        <time>2021-07-31T14:59:36Z</time>
      </trkpt>
      <trkpt lat="40.886445" lon="-3.881320">
        <ele>1157.829</ele>
        <time>2021-07-31T14:59:37Z</time>
      </trkpt>
      <trkpt lat="40.886464" lon="-3.881298">
        <ele>1157.796</ele>
        <time>2021-07-31T14:59:39Z</time>
      </trkpt>
      <trkpt lat="40.886483" lon="-3.881283">
        <ele>1157.766</ele>
        <time>2021-07-31T14:59:41Z</time>
      </trkpt>
      <trkpt lat="40.886502" lon="-3.881280">
        <ele>1157.624</ele>
        <time>2021-07-31T14:59:43Z</time>
      </trkpt>
      <trkpt lat="40.886531" lon="-3.881270">
        <ele>1157.575</ele>
        <time>2021-07-31T14:59:45Z</time>
      </trkpt>
      <trkpt lat="40.886554" lon="-3.881262">
        <ele>1157.428</ele>
        <time>2021-07-31T14:59:46Z</time>
      </trkpt>
      <trkpt lat="40.886573" lon="-3.881240">
        <ele>1157.320</ele>
        <time>2021-07-31T14:59:48Z</time>
      </trkpt>
      <trkpt lat="40.886595" lon="-3.881220">
        <ele>1157.308</ele>
        <time>2021-07-31T14:59:50Z</time>
      </trkpt>
      <trkpt lat="40.886614" lon="-3.881198">
        <ele>1157.264</ele>
        <time>2021-07-31T14:59:51Z</time>
      </trkpt>
      <trkpt lat="40.886634" lon="-3.881172">
        <ele>1157.146</ele>
        <time>2021-07-31T14:59:53Z</time>
      </trkpt>
      <trkpt lat="40.886653" lon="-3.881153">
        <ele>1157.033</ele>
        <time>2021-07-31T14:59:55Z</time>
      </trkpt>
      <trkpt lat="40.886672" lon="-3.881125">
        <ele>1157.080</ele>
        <time>2021-07-31T14:59:57Z</time>
      </trkpt>
      <trkpt lat="40.886694" lon="-3.881112">
        <ele>1157.032</ele>
        <time>2021-07-31T14:59:59Z</time>
      </trkpt>
      <trkpt lat="40.886723" lon="-3.881100">
        <ele>1157.049</ele>
        <time>2021-07-31T15:00:01Z</time>
      </trkpt>
      <trkpt lat="40.886742" lon="-3.881093">
        <ele>1157.179</ele>
        <time>2021-07-31T15:00:03Z</time>
      </trkpt>
      <trkpt lat="40.886765" lon="-3.881083">
        <ele>1157.157</ele>
        <time>2021-07-31T15:00:05Z</time>
      </trkpt>
      <trkpt lat="40.886787" lon="-3.881080">
        <ele>1157.131</ele>
        <time>2021-07-31T15:00:07Z</time>
      </trkpt>
      <trkpt lat="40.886810" lon="-3.881072">
        <ele>1157.161</ele>
        <time>2021-07-31T15:00:09Z</time>
      </trkpt>
      <trkpt lat="40.886838" lon="-3.881074">
        <ele>1157.107</ele>
        <time>2021-07-31T15:00:11Z</time>
      </trkpt>
      <trkpt lat="40.886861" lon="-3.881065">
        <ele>1157.208</ele>
        <time>2021-07-31T15:00:13Z</time>
      </trkpt>
      <trkpt lat="40.886886" lon="-3.881058">
        <ele>1157.220</ele>
        <time>2021-07-31T15:00:15Z</time>
      </trkpt>
      <trkpt lat="40.886909" lon="-3.881040">
        <ele>1157.342</ele>
        <time>2021-07-31T15:00:17Z</time>
      </trkpt>
      <trkpt lat="40.886931" lon="-3.881024">
        <ele>1157.349</ele>
        <time>2021-07-31T15:00:19Z</time>
      </trkpt>
      <trkpt lat="40.886957" lon="-3.881010">
        <ele>1157.416</ele>
        <time>2021-07-31T15:00:21Z</time>
      </trkpt>
      <trkpt lat="40.886979" lon="-3.880992">
        <ele>1157.438</ele>
        <time>2021-07-31T15:00:23Z</time>
      </trkpt>
      <trkpt lat="40.887005" lon="-3.880982">
        <ele>1157.565</ele>
        <time>2021-07-31T15:00:25Z</time>
      </trkpt>
      <trkpt lat="40.887030" lon="-3.880972">
        <ele>1157.525</ele>
        <time>2021-07-31T15:00:27Z</time>
      </trkpt>
      <trkpt lat="40.887056" lon="-3.880958">
        <ele>1157.633</ele>
        <time>2021-07-31T15:00:29Z</time>
      </trkpt>
      <trkpt lat="40.887078" lon="-3.880950">
        <ele>1157.698</ele>
        <time>2021-07-31T15:00:31Z</time>
      </trkpt>
      <trkpt lat="40.887130" lon="-3.880916">
        <ele>1157.715</ele>
        <time>2021-07-31T15:00:36Z</time>
      </trkpt>
      <trkpt lat="40.887149" lon="-3.880910">
        <ele>1157.726</ele>
        <time>2021-07-31T15:00:37Z</time>
      </trkpt>
      <trkpt lat="40.887178" lon="-3.880903">
        <ele>1157.708</ele>
        <time>2021-07-31T15:00:39Z</time>
      </trkpt>
      <trkpt lat="40.887203" lon="-3.880898">
        <ele>1157.846</ele>
        <time>2021-07-31T15:00:41Z</time>
      </trkpt>
      <trkpt lat="40.887229" lon="-3.880890">
        <ele>1157.828</ele>
        <time>2021-07-31T15:00:43Z</time>
      </trkpt>
      <trkpt lat="40.887283" lon="-3.880882">
        <ele>1157.885</ele>
        <time>2021-07-31T15:00:47Z</time>
      </trkpt>
      <trkpt lat="40.887306" lon="-3.880870">
        <ele>1157.972</ele>
        <time>2021-07-31T15:00:49Z</time>
      </trkpt>
      <trkpt lat="40.887338" lon="-3.880872">
        <ele>1157.984</ele>
        <time>2021-07-31T15:00:51Z</time>
      </trkpt>
      <trkpt lat="40.887360" lon="-3.880875">
        <ele>1157.881</ele>
        <time>2021-07-31T15:00:53Z</time>
      </trkpt>
      <trkpt lat="40.887389" lon="-3.880883">
        <ele>1157.861</ele>
        <time>2021-07-31T15:00:55Z</time>
      </trkpt>
      <trkpt lat="40.887418" lon="-3.880883">
        <ele>1157.869</ele>
        <time>2021-07-31T15:00:57Z</time>
      </trkpt>
      <trkpt lat="40.887440" lon="-3.880885">
        <ele>1157.862</ele>
        <time>2021-07-31T15:00:59Z</time>
      </trkpt>
      <trkpt lat="40.887469" lon="-3.880873">
        <ele>1157.983</ele>
        <time>2021-07-31T15:01:01Z</time>
      </trkpt>
      <trkpt lat="40.887494" lon="-3.880872">
        <ele>1157.911</ele>
        <time>2021-07-31T15:01:03Z</time>
      </trkpt>
      <trkpt lat="40.887520" lon="-3.880870">
        <ele>1157.908</ele>
        <time>2021-07-31T15:01:05Z</time>
      </trkpt>
      <trkpt lat="40.887546" lon="-3.880875">
        <ele>1157.893</ele>
        <time>2021-07-31T15:01:07Z</time>
      </trkpt>
      <trkpt lat="40.887578" lon="-3.880890">
        <ele>1157.875</ele>
        <time>2021-07-31T15:01:09Z</time>
      </trkpt>
      <trkpt lat="40.887600" lon="-3.880903">
        <ele>1157.782</ele>
        <time>2021-07-31T15:01:10Z</time>
      </trkpt>
      <trkpt lat="40.887626" lon="-3.880916">
        <ele>1157.739</ele>
        <time>2021-07-31T15:01:13Z</time>
      </trkpt>
      <trkpt lat="40.887648" lon="-3.880916">
        <ele>1157.781</ele>
        <time>2021-07-31T15:01:15Z</time>
      </trkpt>
      <trkpt lat="40.887677" lon="-3.880913">
        <ele>1157.718</ele>
        <time>2021-07-31T15:01:17Z</time>
      </trkpt>
      <trkpt lat="40.887702" lon="-3.880910">
        <ele>1157.778</ele>
        <time>2021-07-31T15:01:19Z</time>
      </trkpt>
      <trkpt lat="40.887731" lon="-3.880906">
        <ele>1157.766</ele>
        <time>2021-07-31T15:01:21Z</time>
      </trkpt>
      <trkpt lat="40.887754" lon="-3.880903">
        <ele>1157.798</ele>
        <time>2021-07-31T15:01:23Z</time>
      </trkpt>
      <trkpt lat="40.887779" lon="-3.880898">
        <ele>1157.815</ele>
        <time>2021-07-31T15:01:25Z</time>
      </trkpt>
      <trkpt lat="40.887798" lon="-3.880895">
        <ele>1157.826</ele>
        <time>2021-07-31T15:01:27Z</time>
      </trkpt>
      <trkpt lat="40.887824" lon="-3.880893">
        <ele>1157.808</ele>
        <time>2021-07-31T15:01:29Z</time>
      </trkpt>
      <trkpt lat="40.887853" lon="-3.880896">
        <ele>1157.886</ele>
        <time>2021-07-31T15:01:31Z</time>
      </trkpt>
      <trkpt lat="40.887878" lon="-3.880896">
        <ele>1157.878</ele>
        <time>2021-07-31T15:01:34Z</time>
      </trkpt>
      <trkpt lat="40.887904" lon="-3.880900">
        <ele>1157.815</ele>
        <time>2021-07-31T15:01:36Z</time>
      </trkpt>
      <trkpt lat="40.887933" lon="-3.880906">
        <ele>1157.762</ele>
        <time>2021-07-31T15:01:38Z</time>
      </trkpt>
      <trkpt lat="40.887955" lon="-3.880913">
        <ele>1157.744</ele>
        <time>2021-07-31T15:01:40Z</time>
      </trkpt>
      <trkpt lat="40.887974" lon="-3.880918">
        <ele>1157.761</ele>
        <time>2021-07-31T15:01:42Z</time>
      </trkpt>
      <trkpt lat="40.888000" lon="-3.880916">
        <ele>1157.731</ele>
        <time>2021-07-31T15:01:44Z</time>
      </trkpt>
      <trkpt lat="40.888022" lon="-3.880920">
        <ele>1157.789</ele>
        <time>2021-07-31T15:01:46Z</time>
      </trkpt>
      <trkpt lat="40.888045" lon="-3.880916">
        <ele>1157.761</ele>
        <time>2021-07-31T15:01:48Z</time>
      </trkpt>
      <trkpt lat="40.888077" lon="-3.880905">
        <ele>1157.721</ele>
        <time>2021-07-31T15:01:50Z</time>
      </trkpt>
      <trkpt lat="40.888096" lon="-3.880895">
        <ele>1157.613</ele>
        <time>2021-07-31T15:01:52Z</time>
      </trkpt>
      <trkpt lat="40.888122" lon="-3.880888">
        <ele>1157.608</ele>
        <time>2021-07-31T15:01:54Z</time>
      </trkpt>
      <trkpt lat="40.888150" lon="-3.880883">
        <ele>1157.523</ele>
        <time>2021-07-31T15:01:56Z</time>
      </trkpt>
      <trkpt lat="40.888179" lon="-3.880880">
        <ele>1157.485</ele>
        <time>2021-07-31T15:01:58Z</time>
      </trkpt>
      <trkpt lat="40.888202" lon="-3.880875">
        <ele>1157.352</ele>
        <time>2021-07-31T15:02:00Z</time>
      </trkpt>
      <trkpt lat="40.888224" lon="-3.880872">
        <ele>1157.389</ele>
        <time>2021-07-31T15:02:02Z</time>
      </trkpt>
      <trkpt lat="40.888256" lon="-3.880872">
        <ele>1157.181</ele>
        <time>2021-07-31T15:02:04Z</time>
      </trkpt>
      <trkpt lat="40.888288" lon="-3.880873">
        <ele>1157.028</ele>
        <time>2021-07-31T15:02:06Z</time>
      </trkpt>
      <trkpt lat="40.888310" lon="-3.880878">
        <ele>1156.998</ele>
        <time>2021-07-31T15:02:08Z</time>
      </trkpt>
      <trkpt lat="40.888333" lon="-3.880883">
        <ele>1156.896</ele>
        <time>2021-07-31T15:02:10Z</time>
      </trkpt>
      <trkpt lat="40.888352" lon="-3.880886">
        <ele>1156.822</ele>
        <time>2021-07-31T15:02:12Z</time>
      </trkpt>
      <trkpt lat="40.888390" lon="-3.880905">
        <ele>1156.762</ele>
        <time>2021-07-31T15:02:14Z</time>
      </trkpt>
      <trkpt lat="40.888413" lon="-3.880906">
        <ele>1156.708</ele>
        <time>2021-07-31T15:02:16Z</time>
      </trkpt>
      <trkpt lat="40.888432" lon="-3.880912">
        <ele>1156.708</ele>
        <time>2021-07-31T15:02:19Z</time>
      </trkpt>
      <trkpt lat="40.888458" lon="-3.880918">
        <ele>1156.799</ele>
        <time>2021-07-31T15:02:21Z</time>
      </trkpt>
      <trkpt lat="40.888480" lon="-3.880928">
        <ele>1156.771</ele>
        <time>2021-07-31T15:02:23Z</time>
      </trkpt>
      <trkpt lat="40.888512" lon="-3.880930">
        <ele>1156.778</ele>
        <time>2021-07-31T15:02:25Z</time>
      </trkpt>
      <trkpt lat="40.888531" lon="-3.880930">
        <ele>1156.735</ele>
        <time>2021-07-31T15:02:27Z</time>
      </trkpt>
      <trkpt lat="40.888554" lon="-3.880925">
        <ele>1156.727</ele>
        <time>2021-07-31T15:02:29Z</time>
      </trkpt>
      <trkpt lat="40.888579" lon="-3.880922">
        <ele>1156.754</ele>
        <time>2021-07-31T15:02:31Z</time>
      </trkpt>
      <trkpt lat="40.888605" lon="-3.880918">
        <ele>1156.724</ele>
        <time>2021-07-31T15:02:33Z</time>
      </trkpt>
      <trkpt lat="40.888634" lon="-3.880923">
        <ele>1156.752</ele>
        <time>2021-07-31T15:02:35Z</time>
      </trkpt>
      <trkpt lat="40.888669" lon="-3.880918">
        <ele>1156.745</ele>
        <time>2021-07-31T15:02:37Z</time>
      </trkpt>
      <trkpt lat="40.888691" lon="-3.880905">
        <ele>1156.747</ele>
        <time>2021-07-31T15:02:39Z</time>
      </trkpt>
      <trkpt lat="40.888714" lon="-3.880896">
        <ele>1156.811</ele>
        <time>2021-07-31T15:02:41Z</time>
      </trkpt>
      <trkpt lat="40.888739" lon="-3.880896">
        <ele>1156.808</ele>
        <time>2021-07-31T15:02:44Z</time>
      </trkpt>
      <trkpt lat="40.888768" lon="-3.880896">
        <ele>1156.891</ele>
        <time>2021-07-31T15:02:46Z</time>
      </trkpt>
      <trkpt lat="40.888794" lon="-3.880896">
        <ele>1156.893</ele>
        <time>2021-07-31T15:02:48Z</time>
      </trkpt>
      <trkpt lat="40.888816" lon="-3.880895">
        <ele>1156.810</ele>
        <time>2021-07-31T15:02:50Z</time>
      </trkpt>
      <trkpt lat="40.888838" lon="-3.880898">
        <ele>1156.857</ele>
        <time>2021-07-31T15:02:52Z</time>
      </trkpt>
      <trkpt lat="40.888870" lon="-3.880910">
        <ele>1156.719</ele>
        <time>2021-07-31T15:02:55Z</time>
      </trkpt>
      <trkpt lat="40.888893" lon="-3.880918">
        <ele>1156.786</ele>
        <time>2021-07-31T15:02:57Z</time>
      </trkpt>
      <trkpt lat="40.888925" lon="-3.880933">
        <ele>1156.616</ele>
        <time>2021-07-31T15:02:59Z</time>
      </trkpt>
      <trkpt lat="40.888950" lon="-3.880948">
        <ele>1156.654</ele>
        <time>2021-07-31T15:03:01Z</time>
      </trkpt>
      <trkpt lat="40.888970" lon="-3.880955">
        <ele>1156.657</ele>
        <time>2021-07-31T15:03:03Z</time>
      </trkpt>
      <trkpt lat="40.888995" lon="-3.880960">
        <ele>1156.500</ele>
        <time>2021-07-31T15:03:05Z</time>
      </trkpt>
      <trkpt lat="40.889018" lon="-3.880965">
        <ele>1156.520</ele>
        <time>2021-07-31T15:03:06Z</time>
      </trkpt>
      <trkpt lat="40.889037" lon="-3.880968">
        <ele>1156.508</ele>
        <time>2021-07-31T15:03:07Z</time>
      </trkpt>
      <trkpt lat="40.889056" lon="-3.880980">
        <ele>1156.552</ele>
        <time>2021-07-31T15:03:08Z</time>
      </trkpt>
      <trkpt lat="40.889082" lon="-3.880988">
        <ele>1156.484</ele>
        <time>2021-07-31T15:03:10Z</time>
      </trkpt>
      <trkpt lat="40.889114" lon="-3.881005">
        <ele>1156.441</ele>
        <time>2021-07-31T15:03:12Z</time>
      </trkpt>
      <trkpt lat="40.889146" lon="-3.881015">
        <ele>1156.388</ele>
        <time>2021-07-31T15:03:14Z</time>
      </trkpt>
      <trkpt lat="40.889171" lon="-3.881027">
        <ele>1156.360</ele>
        <time>2021-07-31T15:03:15Z</time>
      </trkpt>
      <trkpt lat="40.889187" lon="-3.881038">
        <ele>1156.247</ele>
        <time>2021-07-31T15:03:16Z</time>
      </trkpt>
      <trkpt lat="40.889210" lon="-3.881038">
        <ele>1156.167</ele>
        <time>2021-07-31T15:03:18Z</time>
      </trkpt>
      <trkpt lat="40.889235" lon="-3.881045">
        <ele>1156.035</ele>
        <time>2021-07-31T15:03:20Z</time>
      </trkpt>
      <trkpt lat="40.889264" lon="-3.881060">
        <ele>1155.839</ele>
        <time>2021-07-31T15:03:22Z</time>
      </trkpt>
      <trkpt lat="40.889290" lon="-3.881074">
        <ele>1155.701</ele>
        <time>2021-07-31T15:03:24Z</time>
      </trkpt>
      <trkpt lat="40.889312" lon="-3.881083">
        <ele>1155.621</ele>
        <time>2021-07-31T15:03:26Z</time>
      </trkpt>
      <trkpt lat="40.889344" lon="-3.881090">
        <ele>1155.408</ele>
        <time>2021-07-31T15:03:28Z</time>
      </trkpt>
      <trkpt lat="40.889370" lon="-3.881103">
        <ele>1155.340</ele>
        <time>2021-07-31T15:03:30Z</time>
      </trkpt>
      <trkpt lat="40.889395" lon="-3.881107">
        <ele>1155.222</ele>
        <time>2021-07-31T15:03:35Z</time>
      </trkpt>
      <trkpt lat="40.889421" lon="-3.881108">
        <ele>1155.179</ele>
        <time>2021-07-31T15:03:37Z</time>
      </trkpt>
      <trkpt lat="40.889440" lon="-3.881113">
        <ele>1155.086</ele>
        <time>2021-07-31T15:03:39Z</time>
      </trkpt>
      <trkpt lat="40.889459" lon="-3.881117">
        <ele>1154.998</ele>
        <time>2021-07-31T15:03:54Z</time>
      </trkpt>
      <trkpt lat="40.889482" lon="-3.881143">
        <ele>1154.865</ele>
        <time>2021-07-31T15:03:57Z</time>
      </trkpt>
      <trkpt lat="40.889510" lon="-3.881157">
        <ele>1154.685</ele>
        <time>2021-07-31T15:04:00Z</time>
      </trkpt>
      <trkpt lat="40.889530" lon="-3.881167">
        <ele>1154.553</ele>
        <time>2021-07-31T15:04:02Z</time>
      </trkpt>
      <trkpt lat="40.889549" lon="-3.881178">
        <ele>1154.434</ele>
        <time>2021-07-31T15:04:04Z</time>
      </trkpt>
      <trkpt lat="40.889571" lon="-3.881187">
        <ele>1154.355</ele>
        <time>2021-07-31T15:04:06Z</time>
      </trkpt>
      <trkpt lat="40.889594" lon="-3.881195">
        <ele>1154.210</ele>
        <time>2021-07-31T15:04:08Z</time>
      </trkpt>
      <trkpt lat="40.889610" lon="-3.881208">
        <ele>1154.108</ele>
        <time>2021-07-31T15:04:10Z</time>
      </trkpt>
      <trkpt lat="40.889642" lon="-3.881215">
        <ele>1153.990</ele>
        <time>2021-07-31T15:04:12Z</time>
      </trkpt>
      <trkpt lat="40.889661" lon="-3.881223">
        <ele>1153.822</ele>
        <time>2021-07-31T15:04:13Z</time>
      </trkpt>
      <trkpt lat="40.889683" lon="-3.881236">
        <ele>1153.749</ele>
        <time>2021-07-31T15:04:16Z</time>
      </trkpt>
      <trkpt lat="40.889702" lon="-3.881256">
        <ele>1153.656</ele>
        <time>2021-07-31T15:04:19Z</time>
      </trkpt>
      <trkpt lat="40.889725" lon="-3.881270">
        <ele>1153.438</ele>
        <time>2021-07-31T15:04:21Z</time>
      </trkpt>
      <trkpt lat="40.889757" lon="-3.881283">
        <ele>1153.395</ele>
        <time>2021-07-31T15:04:23Z</time>
      </trkpt>
      <trkpt lat="40.889779" lon="-3.881288">
        <ele>1153.225</ele>
        <time>2021-07-31T15:04:25Z</time>
      </trkpt>
      <trkpt lat="40.889821" lon="-3.881290">
        <ele>1153.073</ele>
        <time>2021-07-31T15:04:27Z</time>
      </trkpt>
      <trkpt lat="40.889840" lon="-3.881293">
        <ele>1152.982</ele>
        <time>2021-07-31T15:04:28Z</time>
      </trkpt>
      <trkpt lat="40.889866" lon="-3.881310">
        <ele>1152.843</ele>
        <time>2021-07-31T15:04:31Z</time>
      </trkpt>
      <trkpt lat="40.889885" lon="-3.881313">
        <ele>1152.717</ele>
        <time>2021-07-31T15:04:33Z</time>
      </trkpt>
      <trkpt lat="40.889910" lon="-3.881313">
        <ele>1152.608</ele>
        <time>2021-07-31T15:04:35Z</time>
      </trkpt>
      <trkpt lat="40.889936" lon="-3.881313">
        <ele>1152.575</ele>
        <time>2021-07-31T15:04:37Z</time>
      </trkpt>
      <trkpt lat="40.889958" lon="-3.881305">
        <ele>1152.517</ele>
        <time>2021-07-31T15:04:39Z</time>
      </trkpt>
      <trkpt lat="40.889987" lon="-3.881297">
        <ele>1152.494</ele>
        <time>2021-07-31T15:04:41Z</time>
      </trkpt>
      <trkpt lat="40.890006" lon="-3.881298">
        <ele>1152.341</ele>
        <time>2021-07-31T15:04:43Z</time>
      </trkpt>
      <trkpt lat="40.890026" lon="-3.881285">
        <ele>1152.273</ele>
        <time>2021-07-31T15:04:45Z</time>
      </trkpt>
      <trkpt lat="40.890045" lon="-3.881272">
        <ele>1152.140</ele>
        <time>2021-07-31T15:04:48Z</time>
      </trkpt>
      <trkpt lat="40.890083" lon="-3.881285">
        <ele>1151.860</ele>
        <time>2021-07-31T15:04:51Z</time>
      </trkpt>
      <trkpt lat="40.890099" lon="-3.881268">
        <ele>1151.718</ele>
        <time>2021-07-31T15:04:54Z</time>
      </trkpt>
      <trkpt lat="40.890122" lon="-3.881270">
        <ele>1151.592</ele>
        <time>2021-07-31T15:04:56Z</time>
      </trkpt>
      <trkpt lat="40.890144" lon="-3.881265">
        <ele>1151.473</ele>
        <time>2021-07-31T15:04:58Z</time>
      </trkpt>
      <trkpt lat="40.890166" lon="-3.881243">
        <ele>1151.320</ele>
        <time>2021-07-31T15:05:00Z</time>
      </trkpt>
      <trkpt lat="40.890195" lon="-3.881240">
        <ele>1151.108</ele>
        <time>2021-07-31T15:05:03Z</time>
      </trkpt>
      <trkpt lat="40.890214" lon="-3.881238">
        <ele>1151.036</ele>
        <time>2021-07-31T15:05:05Z</time>
      </trkpt>
      <trkpt lat="40.890237" lon="-3.881250">
        <ele>1150.818</ele>
        <time>2021-07-31T15:05:07Z</time>
      </trkpt>
      <trkpt lat="40.890256" lon="-3.881248">
        <ele>1150.735</ele>
        <time>2021-07-31T15:05:09Z</time>
      </trkpt>
      <trkpt lat="40.890282" lon="-3.881238">
        <ele>1150.522</ele>
        <time>2021-07-31T15:05:11Z</time>
      </trkpt>
      <trkpt lat="40.890298" lon="-3.881226">
        <ele>1150.554</ele>
        <time>2021-07-31T15:05:12Z</time>
      </trkpt>
      <trkpt lat="40.890307" lon="-3.881205">
        <ele>1150.691</ele>
        <time>2021-07-31T15:05:14Z</time>
      </trkpt>
      <trkpt lat="40.890333" lon="-3.881185">
        <ele>1150.541</ele>
        <time>2021-07-31T15:05:16Z</time>
      </trkpt>
      <trkpt lat="40.890349" lon="-3.881162">
        <ele>1150.699</ele>
        <time>2021-07-31T15:05:19Z</time>
      </trkpt>
      <trkpt lat="40.890368" lon="-3.881147">
        <ele>1150.586</ele>
        <time>2021-07-31T15:05:21Z</time>
      </trkpt>
      <trkpt lat="40.890394" lon="-3.881130">
        <ele>1150.560</ele>
        <time>2021-07-31T15:05:23Z</time>
      </trkpt>
      <trkpt lat="40.890422" lon="-3.881113">
        <ele>1150.526</ele>
        <time>2021-07-31T15:05:25Z</time>
      </trkpt>
      <trkpt lat="40.890445" lon="-3.881093">
        <ele>1150.508</ele>
        <time>2021-07-31T15:05:27Z</time>
      </trkpt>
      <trkpt lat="40.890461" lon="-3.881082">
        <ele>1150.585</ele>
        <time>2021-07-31T15:05:28Z</time>
      </trkpt>
      <trkpt lat="40.890477" lon="-3.881070">
        <ele>1150.537</ele>
        <time>2021-07-31T15:05:29Z</time>
      </trkpt>
      <trkpt lat="40.890499" lon="-3.881037">
        <ele>1150.554</ele>
        <time>2021-07-31T15:05:31Z</time>
      </trkpt>
      <trkpt lat="40.890518" lon="-3.881024">
        <ele>1150.561</ele>
        <time>2021-07-31T15:05:33Z</time>
      </trkpt>
      <trkpt lat="40.890547" lon="-3.881010">
        <ele>1150.463</ele>
        <time>2021-07-31T15:05:35Z</time>
      </trkpt>
      <trkpt lat="40.890560" lon="-3.880993">
        <ele>1150.460</ele>
        <time>2021-07-31T15:05:36Z</time>
      </trkpt>
      <trkpt lat="40.890573" lon="-3.880975">
        <ele>1150.430</ele>
        <time>2021-07-31T15:05:37Z</time>
      </trkpt>
      <trkpt lat="40.890605" lon="-3.880945">
        <ele>1150.338</ele>
        <time>2021-07-31T15:05:39Z</time>
      </trkpt>
      <trkpt lat="40.890640" lon="-3.880930">
        <ele>1150.224</ele>
        <time>2021-07-31T15:05:41Z</time>
      </trkpt>
      <trkpt lat="40.890659" lon="-3.880918">
        <ele>1150.104</ele>
        <time>2021-07-31T15:05:42Z</time>
      </trkpt>
      <trkpt lat="40.890675" lon="-3.880895">
        <ele>1150.014</ele>
        <time>2021-07-31T15:05:45Z</time>
      </trkpt>
      <trkpt lat="40.890691" lon="-3.880870">
        <ele>1150.008</ele>
        <time>2021-07-31T15:05:48Z</time>
      </trkpt>
      <trkpt lat="40.890717" lon="-3.880845">
        <ele>1149.889</ele>
        <time>2021-07-31T15:05:51Z</time>
      </trkpt>
      <trkpt lat="40.890733" lon="-3.880832">
        <ele>1149.721</ele>
        <time>2021-07-31T15:05:53Z</time>
      </trkpt>
      <trkpt lat="40.890755" lon="-3.880807">
        <ele>1149.818</ele>
        <time>2021-07-31T15:05:55Z</time>
      </trkpt>
      <trkpt lat="40.890784" lon="-3.880787">
        <ele>1149.785</ele>
        <time>2021-07-31T15:05:57Z</time>
      </trkpt>
      <trkpt lat="40.890800" lon="-3.880772">
        <ele>1149.717</ele>
        <time>2021-07-31T15:05:59Z</time>
      </trkpt>
      <trkpt lat="40.890826" lon="-3.880757">
        <ele>1149.694</ele>
        <time>2021-07-31T15:06:01Z</time>
      </trkpt>
      <trkpt lat="40.890842" lon="-3.880732">
        <ele>1149.764</ele>
        <time>2021-07-31T15:06:03Z</time>
      </trkpt>
      <trkpt lat="40.890858" lon="-3.880712">
        <ele>1149.842</ele>
        <time>2021-07-31T15:06:05Z</time>
      </trkpt>
      <trkpt lat="40.890877" lon="-3.880690">
        <ele>1150.065</ele>
        <time>2021-07-31T15:06:07Z</time>
      </trkpt>
      <trkpt lat="40.890899" lon="-3.880678">
        <ele>1150.068</ele>
        <time>2021-07-31T15:06:09Z</time>
      </trkpt>
      <trkpt lat="40.890918" lon="-3.880657">
        <ele>1150.114</ele>
        <time>2021-07-31T15:06:11Z</time>
      </trkpt>
      <trkpt lat="40.890941" lon="-3.880627">
        <ele>1150.208</ele>
        <time>2021-07-31T15:06:13Z</time>
      </trkpt>
      <trkpt lat="40.890957" lon="-3.880610">
        <ele>1150.283</ele>
        <time>2021-07-31T15:06:14Z</time>
      </trkpt>
      <trkpt lat="40.890970" lon="-3.880588">
        <ele>1150.315</ele>
        <time>2021-07-31T15:06:15Z</time>
      </trkpt>
      <trkpt lat="40.890992" lon="-3.880560">
        <ele>1150.432</ele>
        <time>2021-07-31T15:06:17Z</time>
      </trkpt>
      <trkpt lat="40.891008" lon="-3.880542">
        <ele>1150.449</ele>
        <time>2021-07-31T15:06:21Z</time>
      </trkpt>
      <trkpt lat="40.891024" lon="-3.880513">
        <ele>1150.521</ele>
        <time>2021-07-31T15:06:24Z</time>
      </trkpt>
      <trkpt lat="40.891037" lon="-3.880485">
        <ele>1150.588</ele>
        <time>2021-07-31T15:06:26Z</time>
      </trkpt>
      <trkpt lat="40.891053" lon="-3.880455">
        <ele>1150.618</ele>
        <time>2021-07-31T15:06:28Z</time>
      </trkpt>
      <trkpt lat="40.891069" lon="-3.880432">
        <ele>1150.676</ele>
        <time>2021-07-31T15:06:30Z</time>
      </trkpt>
      <trkpt lat="40.891078" lon="-3.880407">
        <ele>1150.753</ele>
        <time>2021-07-31T15:06:32Z</time>
      </trkpt>
      <trkpt lat="40.891098" lon="-3.880383">
        <ele>1150.704</ele>
        <time>2021-07-31T15:06:34Z</time>
      </trkpt>
      <trkpt lat="40.891123" lon="-3.880355">
        <ele>1150.714</ele>
        <time>2021-07-31T15:06:36Z</time>
      </trkpt>
      <trkpt lat="40.891142" lon="-3.880337">
        <ele>1150.708</ele>
        <time>2021-07-31T15:06:38Z</time>
      </trkpt>
      <trkpt lat="40.891158" lon="-3.880317">
        <ele>1150.762</ele>
        <time>2021-07-31T15:06:40Z</time>
      </trkpt>
      <trkpt lat="40.891181" lon="-3.880302">
        <ele>1150.714</ele>
        <time>2021-07-31T15:06:42Z</time>
      </trkpt>
      <trkpt lat="40.891200" lon="-3.880290">
        <ele>1150.651</ele>
        <time>2021-07-31T15:06:44Z</time>
      </trkpt>
      <trkpt lat="40.891222" lon="-3.880267">
        <ele>1150.628</ele>
        <time>2021-07-31T15:06:46Z</time>
      </trkpt>
      <trkpt lat="40.891251" lon="-3.880260">
        <ele>1150.650</ele>
        <time>2021-07-31T15:06:48Z</time>
      </trkpt>
      <trkpt lat="40.891280" lon="-3.880250">
        <ele>1150.577</ele>
        <time>2021-07-31T15:06:50Z</time>
      </trkpt>
      <trkpt lat="40.891299" lon="-3.880235">
        <ele>1150.567</ele>
        <time>2021-07-31T15:06:52Z</time>
      </trkpt>
      <trkpt lat="40.891328" lon="-3.880227">
        <ele>1150.465</ele>
        <time>2021-07-31T15:06:54Z</time>
      </trkpt>
      <trkpt lat="40.891354" lon="-3.880222">
        <ele>1150.395</ele>
        <time>2021-07-31T15:06:56Z</time>
      </trkpt>
      <trkpt lat="40.891370" lon="-3.880206">
        <ele>1150.349</ele>
        <time>2021-07-31T15:06:58Z</time>
      </trkpt>
      <trkpt lat="40.891395" lon="-3.880188">
        <ele>1150.323</ele>
        <time>2021-07-31T15:07:01Z</time>
      </trkpt>
      <trkpt lat="40.891414" lon="-3.880183">
        <ele>1150.208</ele>
        <time>2021-07-31T15:07:03Z</time>
      </trkpt>
      <trkpt lat="40.891434" lon="-3.880170">
        <ele>1150.246</ele>
        <time>2021-07-31T15:07:06Z</time>
      </trkpt>
      <trkpt lat="40.891453" lon="-3.880152">
        <ele>1150.148</ele>
        <time>2021-07-31T15:07:08Z</time>
      </trkpt>
      <trkpt lat="40.891437" lon="-3.880165">
        <ele>1150.295</ele>
        <time>2021-07-31T15:07:16Z</time>
      </trkpt>
      <trkpt lat="40.891421" lon="-3.880176">
        <ele>1150.292</ele>
        <time>2021-07-31T15:07:19Z</time>
      </trkpt>
      <trkpt lat="40.891434" lon="-3.880145">
        <ele>1150.274</ele>
        <time>2021-07-31T15:07:28Z</time>
      </trkpt>
      <trkpt lat="40.891456" lon="-3.880110">
        <ele>1150.291</ele>
        <time>2021-07-31T15:07:30Z</time>
      </trkpt>
      <trkpt lat="40.891485" lon="-3.880085">
        <ele>1150.181</ele>
        <time>2021-07-31T15:07:32Z</time>
      </trkpt>
      <trkpt lat="40.891501" lon="-3.880060">
        <ele>1150.119</ele>
        <time>2021-07-31T15:07:34Z</time>
      </trkpt>
      <trkpt lat="40.891526" lon="-3.880038">
        <ele>1149.912</ele>
        <time>2021-07-31T15:07:36Z</time>
      </trkpt>
      <trkpt lat="40.891552" lon="-3.880017">
        <ele>1149.832</ele>
        <time>2021-07-31T15:07:38Z</time>
      </trkpt>
      <trkpt lat="40.891574" lon="-3.879987">
        <ele>1149.705</ele>
        <time>2021-07-31T15:07:40Z</time>
      </trkpt>
      <trkpt lat="40.891597" lon="-3.879952">
        <ele>1149.708</ele>
        <time>2021-07-31T15:07:42Z</time>
      </trkpt>
      <trkpt lat="40.891610" lon="-3.879925">
        <ele>1149.758</ele>
        <time>2021-07-31T15:07:44Z</time>
      </trkpt>
      <trkpt lat="40.891619" lon="-3.879902">
        <ele>1149.770</ele>
        <time>2021-07-31T15:07:46Z</time>
      </trkpt>
      <trkpt lat="40.891645" lon="-3.879878">
        <ele>1149.677</ele>
        <time>2021-07-31T15:07:48Z</time>
      </trkpt>
      <trkpt lat="40.891654" lon="-3.879853">
        <ele>1149.644</ele>
        <time>2021-07-31T15:07:50Z</time>
      </trkpt>
      <trkpt lat="40.891683" lon="-3.879832">
        <ele>1149.586</ele>
        <time>2021-07-31T15:07:52Z</time>
      </trkpt>
      <trkpt lat="40.891696" lon="-3.879810">
        <ele>1149.523</ele>
        <time>2021-07-31T15:07:54Z</time>
      </trkpt>
      <trkpt lat="40.891712" lon="-3.879782">
        <ele>1149.583</ele>
        <time>2021-07-31T15:07:56Z</time>
      </trkpt>
      <trkpt lat="40.891734" lon="-3.879758">
        <ele>1149.431</ele>
        <time>2021-07-31T15:07:58Z</time>
      </trkpt>
      <trkpt lat="40.891750" lon="-3.879745">
        <ele>1149.351</ele>
        <time>2021-07-31T15:07:59Z</time>
      </trkpt>
      <trkpt lat="40.891770" lon="-3.879725">
        <ele>1149.201</ele>
        <time>2021-07-31T15:08:01Z</time>
      </trkpt>
      <trkpt lat="40.891789" lon="-3.879692">
        <ele>1149.111</ele>
        <time>2021-07-31T15:08:03Z</time>
      </trkpt>
      <trkpt lat="40.891808" lon="-3.879665">
        <ele>1149.008</ele>
        <time>2021-07-31T15:08:05Z</time>
      </trkpt>
      <trkpt lat="40.891827" lon="-3.879654">
        <ele>1148.942</ele>
        <time>2021-07-31T15:08:06Z</time>
      </trkpt>
      <trkpt lat="40.891853" lon="-3.879628">
        <ele>1148.874</ele>
        <time>2021-07-31T15:08:08Z</time>
      </trkpt>
      <trkpt lat="40.891875" lon="-3.879612">
        <ele>1148.741</ele>
        <time>2021-07-31T15:08:09Z</time>
      </trkpt>
      <trkpt lat="40.891898" lon="-3.879587">
        <ele>1148.768</ele>
        <time>2021-07-31T15:08:11Z</time>
      </trkpt>
      <trkpt lat="40.891917" lon="-3.879570">
        <ele>1148.640</ele>
        <time>2021-07-31T15:08:13Z</time>
      </trkpt>
      <trkpt lat="40.891933" lon="-3.879553">
        <ele>1148.657</ele>
        <time>2021-07-31T15:08:15Z</time>
      </trkpt>
      <trkpt lat="40.891946" lon="-3.879535">
        <ele>1148.747</ele>
        <time>2021-07-31T15:08:17Z</time>
      </trkpt>
      <trkpt lat="40.891965" lon="-3.879498">
        <ele>1148.745</ele>
        <time>2021-07-31T15:08:20Z</time>
      </trkpt>
      <trkpt lat="40.891997" lon="-3.879430">
        <ele>1148.825</ele>
        <time>2021-07-31T15:08:25Z</time>
      </trkpt>
      <trkpt lat="40.892013" lon="-3.879413">
        <ele>1148.826</ele>
        <time>2021-07-31T15:08:26Z</time>
      </trkpt>
      <trkpt lat="40.892016" lon="-3.879383">
        <ele>1148.808</ele>
        <time>2021-07-31T15:08:28Z</time>
      </trkpt>
      <trkpt lat="40.892035" lon="-3.879355">
        <ele>1148.808</ele>
        <time>2021-07-31T15:08:30Z</time>
      </trkpt>
      <trkpt lat="40.892051" lon="-3.879338">
        <ele>1148.889</ele>
        <time>2021-07-31T15:08:32Z</time>
      </trkpt>
      <trkpt lat="40.892064" lon="-3.879320">
        <ele>1148.841</ele>
        <time>2021-07-31T15:08:34Z</time>
      </trkpt>
      <trkpt lat="40.892086" lon="-3.879297">
        <ele>1148.838</ele>
        <time>2021-07-31T15:08:36Z</time>
      </trkpt>
      <trkpt lat="40.892112" lon="-3.879277">
        <ele>1148.895</ele>
        <time>2021-07-31T15:08:38Z</time>
      </trkpt>
      <trkpt lat="40.892131" lon="-3.879258">
        <ele>1148.877</ele>
        <time>2021-07-31T15:08:40Z</time>
      </trkpt>
      <trkpt lat="40.892154" lon="-3.879230">
        <ele>1148.864</ele>
        <time>2021-07-31T15:08:43Z</time>
      </trkpt>
      <trkpt lat="40.892173" lon="-3.879208">
        <ele>1148.914</ele>
        <time>2021-07-31T15:08:45Z</time>
      </trkpt>
      <trkpt lat="40.892192" lon="-3.879183">
        <ele>1148.922</ele>
        <time>2021-07-31T15:08:47Z</time>
      </trkpt>
      <trkpt lat="40.892211" lon="-3.879158">
        <ele>1149.096</ele>
        <time>2021-07-31T15:08:49Z</time>
      </trkpt>
      <trkpt lat="40.892234" lon="-3.879152">
        <ele>1149.031</ele>
        <time>2021-07-31T15:08:51Z</time>
      </trkpt>
      <trkpt lat="40.892243" lon="-3.879130">
        <ele>1149.124</ele>
        <time>2021-07-31T15:08:54Z</time>
      </trkpt>
      <trkpt lat="40.892259" lon="-3.879112">
        <ele>1149.108</ele>
        <time>2021-07-31T15:08:56Z</time>
      </trkpt>
      <trkpt lat="40.892282" lon="-3.879085">
        <ele>1149.176</ele>
        <time>2021-07-31T15:08:58Z</time>
      </trkpt>
      <trkpt lat="40.892301" lon="-3.879060">
        <ele>1149.118</ele>
        <time>2021-07-31T15:09:00Z</time>
      </trkpt>
      <trkpt lat="40.892320" lon="-3.879033">
        <ele>1149.155</ele>
        <time>2021-07-31T15:09:02Z</time>
      </trkpt>
      <trkpt lat="40.892333" lon="-3.879012">
        <ele>1149.292</ele>
        <time>2021-07-31T15:09:04Z</time>
      </trkpt>
      <trkpt lat="40.892358" lon="-3.878992">
        <ele>1149.164</ele>
        <time>2021-07-31T15:09:06Z</time>
      </trkpt>
      <trkpt lat="40.892374" lon="-3.878980">
        <ele>1149.171</ele>
        <time>2021-07-31T15:09:10Z</time>
      </trkpt>
      <trkpt lat="40.892394" lon="-3.878976">
        <ele>1149.141</ele>
        <time>2021-07-31T15:09:12Z</time>
      </trkpt>
      <trkpt lat="40.892413" lon="-3.878978">
        <ele>1149.079</ele>
        <time>2021-07-31T15:09:14Z</time>
      </trkpt>
      <trkpt lat="40.892432" lon="-3.878982">
        <ele>1148.922</ele>
        <time>2021-07-31T15:09:16Z</time>
      </trkpt>
      <trkpt lat="40.892458" lon="-3.878998">
        <ele>1148.862</ele>
        <time>2021-07-31T15:09:18Z</time>
      </trkpt>
      <trkpt lat="40.892480" lon="-3.879008">
        <ele>1148.608</ele>
        <time>2021-07-31T15:09:20Z</time>
      </trkpt>
      <trkpt lat="40.892502" lon="-3.879012">
        <ele>1148.508</ele>
        <time>2021-07-31T15:09:23Z</time>
      </trkpt>
      <trkpt lat="40.892522" lon="-3.879003">
        <ele>1148.559</ele>
        <time>2021-07-31T15:09:25Z</time>
      </trkpt>
      <trkpt lat="40.892541" lon="-3.879007">
        <ele>1148.461</ele>
        <time>2021-07-31T15:09:27Z</time>
      </trkpt>
      <trkpt lat="40.892566" lon="-3.879012">
        <ele>1148.388</ele>
        <time>2021-07-31T15:09:29Z</time>
      </trkpt>
      <trkpt lat="40.892602" lon="-3.879003">
        <ele>1148.285</ele>
        <time>2021-07-31T15:09:31Z</time>
      </trkpt>
      <trkpt lat="40.892621" lon="-3.879000">
        <ele>1148.217</ele>
        <time>2021-07-31T15:09:32Z</time>
      </trkpt>
      <trkpt lat="40.892646" lon="-3.879017">
        <ele>1148.034</ele>
        <time>2021-07-31T15:09:34Z</time>
      </trkpt>
      <trkpt lat="40.892672" lon="-3.879028">
        <ele>1147.924</ele>
        <time>2021-07-31T15:09:36Z</time>
      </trkpt>
      <trkpt lat="40.892704" lon="-3.879035">
        <ele>1147.722</ele>
        <time>2021-07-31T15:09:38Z</time>
      </trkpt>
      <trkpt lat="40.892723" lon="-3.879040">
        <ele>1147.764</ele>
        <time>2021-07-31T15:09:40Z</time>
      </trkpt>
      <trkpt lat="40.892755" lon="-3.879050">
        <ele>1147.506</ele>
        <time>2021-07-31T15:09:42Z</time>
      </trkpt>
      <trkpt lat="40.892778" lon="-3.879055">
        <ele>1147.416</ele>
        <time>2021-07-31T15:09:44Z</time>
      </trkpt>
      <trkpt lat="40.892800" lon="-3.879063">
        <ele>1147.308</ele>
        <time>2021-07-31T15:09:46Z</time>
      </trkpt>
      <trkpt lat="40.892864" lon="-3.879060">
        <ele>1147.133</ele>
        <time>2021-07-31T15:09:51Z</time>
      </trkpt>
      <trkpt lat="40.892845" lon="-3.879043">
        <ele>1147.215</ele>
        <time>2021-07-31T15:09:53Z</time>
      </trkpt>
      <trkpt lat="40.892829" lon="-3.879027">
        <ele>1147.352</ele>
        <time>2021-07-31T15:09:58Z</time>
      </trkpt>
      <trkpt lat="40.892842" lon="-3.879045">
        <ele>1147.229</ele>
        <time>2021-07-31T15:10:00Z</time>
      </trkpt>
      <trkpt lat="40.892867" lon="-3.879065">
        <ele>1147.051</ele>
        <time>2021-07-31T15:10:02Z</time>
      </trkpt>
      <trkpt lat="40.892890" lon="-3.879075">
        <ele>1146.988</ele>
        <time>2021-07-31T15:10:04Z</time>
      </trkpt>
      <trkpt lat="40.892915" lon="-3.879087">
        <ele>1146.898</ele>
        <time>2021-07-31T15:10:06Z</time>
      </trkpt>
      <trkpt lat="40.892944" lon="-3.879108">
        <ele>1146.646</ele>
        <time>2021-07-31T15:10:09Z</time>
      </trkpt>
      <trkpt lat="40.892963" lon="-3.879123">
        <ele>1146.522</ele>
        <time>2021-07-31T15:10:10Z</time>
      </trkpt>
      <trkpt lat="40.892979" lon="-3.879136">
        <ele>1146.462</ele>
        <time>2021-07-31T15:10:11Z</time>
      </trkpt>
      <trkpt lat="40.892995" lon="-3.879148">
        <ele>1146.308</ele>
        <time>2021-07-31T15:10:12Z</time>
      </trkpt>
      <trkpt lat="40.893021" lon="-3.879165">
        <ele>1146.108</ele>
        <time>2021-07-31T15:10:14Z</time>
      </trkpt>
      <trkpt lat="40.893040" lon="-3.879165">
        <ele>1146.179</ele>
        <time>2021-07-31T15:10:16Z</time>
      </trkpt>
      <trkpt lat="40.893059" lon="-3.879185">
        <ele>1145.981</ele>
        <time>2021-07-31T15:10:18Z</time>
      </trkpt>
      <trkpt lat="40.893082" lon="-3.879213">
        <ele>1145.348</ele>
        <time>2021-07-31T15:10:20Z</time>
      </trkpt>
      <trkpt lat="40.893101" lon="-3.879242">
        <ele>1144.885</ele>
        <time>2021-07-31T15:10:22Z</time>
      </trkpt>
      <trkpt lat="40.893117" lon="-3.879268">
        <ele>1144.427</ele>
        <time>2021-07-31T15:10:24Z</time>
      </trkpt>
      <trkpt lat="40.893133" lon="-3.879300">
        <ele>1144.074</ele>
        <time>2021-07-31T15:10:26Z</time>
      </trkpt>
      <trkpt lat="40.893146" lon="-3.879336">
        <ele>1143.694</ele>
        <time>2021-07-31T15:10:28Z</time>
      </trkpt>
      <trkpt lat="40.893158" lon="-3.879353">
        <ele>1143.412</ele>
        <time>2021-07-31T15:10:29Z</time>
      </trkpt>
      <trkpt lat="40.893165" lon="-3.879392">
        <ele>1143.146</ele>
        <time>2021-07-31T15:10:31Z</time>
      </trkpt>
      <trkpt lat="40.893184" lon="-3.879415">
        <ele>1142.788</ele>
        <time>2021-07-31T15:10:33Z</time>
      </trkpt>
      <trkpt lat="40.893206" lon="-3.879438">
        <ele>1142.316</ele>
        <time>2021-07-31T15:10:35Z</time>
      </trkpt>
      <trkpt lat="40.893219" lon="-3.879472">
        <ele>1142.108</ele>
        <time>2021-07-31T15:10:37Z</time>
      </trkpt>
      <trkpt lat="40.893242" lon="-3.879498">
        <ele>1141.811</ele>
        <time>2021-07-31T15:10:39Z</time>
      </trkpt>
      <trkpt lat="40.893261" lon="-3.879510">
        <ele>1141.553</ele>
        <time>2021-07-31T15:10:40Z</time>
      </trkpt>
      <trkpt lat="40.893280" lon="-3.879517">
        <ele>1141.230</ele>
        <time>2021-07-31T15:10:41Z</time>
      </trkpt>
      <trkpt lat="40.893302" lon="-3.879515">
        <ele>1140.887</ele>
        <time>2021-07-31T15:10:43Z</time>
      </trkpt>
      <trkpt lat="40.893325" lon="-3.879503">
        <ele>1140.449</ele>
        <time>2021-07-31T15:10:45Z</time>
      </trkpt>
      <trkpt lat="40.893344" lon="-3.879486">
        <ele>1140.156</ele>
        <time>2021-07-31T15:10:47Z</time>
      </trkpt>
      <trkpt lat="40.893354" lon="-3.879465">
        <ele>1140.156</ele>
        <time>2021-07-31T15:10:49Z</time>
      </trkpt>
      <trkpt lat="40.893360" lon="-3.879438">
        <ele>1140.064</ele>
        <time>2021-07-31T15:10:53Z</time>
      </trkpt>
      <trkpt lat="40.893376" lon="-3.879413">
        <ele>1140.021</ele>
        <time>2021-07-31T15:10:56Z</time>
      </trkpt>
      <trkpt lat="40.893395" lon="-3.879395">
        <ele>1140.041</ele>
        <time>2021-07-31T15:10:58Z</time>
      </trkpt>
      <trkpt lat="40.893405" lon="-3.879368">
        <ele>1140.005</ele>
        <time>2021-07-31T15:10:59Z</time>
      </trkpt>
      <trkpt lat="40.893414" lon="-3.879330">
        <ele>1140.008</ele>
        <time>2021-07-31T15:11:01Z</time>
      </trkpt>
      <trkpt lat="40.893402" lon="-3.879292">
        <ele>1140.069</ele>
        <time>2021-07-31T15:11:03Z</time>
      </trkpt>
      <trkpt lat="40.893405" lon="-3.879252">
        <ele>1140.011</ele>
        <time>2021-07-31T15:11:05Z</time>
      </trkpt>
      <trkpt lat="40.893421" lon="-3.879228">
        <ele>1140.078</ele>
        <time>2021-07-31T15:11:07Z</time>
      </trkpt>
      <trkpt lat="40.893424" lon="-3.879200">
        <ele>1140.075</ele>
        <time>2021-07-31T15:11:10Z</time>
      </trkpt>
      <trkpt lat="40.893430" lon="-3.879177">
        <ele>1140.087</ele>
        <time>2021-07-31T15:11:11Z</time>
      </trkpt>
      <trkpt lat="40.893437" lon="-3.879138">
        <ele>1140.094</ele>
        <time>2021-07-31T15:11:13Z</time>
      </trkpt>
      <trkpt lat="40.893453" lon="-3.879110">
        <ele>1140.044</ele>
        <time>2021-07-31T15:11:15Z</time>
      </trkpt>
      <trkpt lat="40.893462" lon="-3.879073">
        <ele>1140.042</ele>
        <time>2021-07-31T15:11:17Z</time>
      </trkpt>
      <trkpt lat="40.893462" lon="-3.879038">
        <ele>1140.061</ele>
        <time>2021-07-31T15:11:19Z</time>
      </trkpt>
      <trkpt lat="40.893462" lon="-3.879005">
        <ele>1140.021</ele>
        <time>2021-07-31T15:11:21Z</time>
      </trkpt>
      <trkpt lat="40.893478" lon="-3.878973">
        <ele>1140.013</ele>
        <time>2021-07-31T15:11:23Z</time>
      </trkpt>
      <trkpt lat="40.893485" lon="-3.878947">
        <ele>1140.008</ele>
        <time>2021-07-31T15:11:25Z</time>
      </trkpt>
      <trkpt lat="40.893485" lon="-3.878914">
        <ele>1140.063</ele>
        <time>2021-07-31T15:11:29Z</time>
      </trkpt>
      <trkpt lat="40.893491" lon="-3.878887">
        <ele>1140.085</ele>
        <time>2021-07-31T15:11:31Z</time>
      </trkpt>
      <trkpt lat="40.893501" lon="-3.878865">
        <ele>1139.932</ele>
        <time>2021-07-31T15:11:32Z</time>
      </trkpt>
      <trkpt lat="40.893510" lon="-3.878840">
        <ele>1139.929</ele>
        <time>2021-07-31T15:11:33Z</time>
      </trkpt>
      <trkpt lat="40.893514" lon="-3.878805">
        <ele>1139.891</ele>
        <time>2021-07-31T15:11:35Z</time>
      </trkpt>
      <trkpt lat="40.893520" lon="-3.878768">
        <ele>1139.718</ele>
        <time>2021-07-31T15:11:37Z</time>
      </trkpt>
      <trkpt lat="40.893539" lon="-3.878738">
        <ele>1139.668</ele>
        <time>2021-07-31T15:11:39Z</time>
      </trkpt>
      <trkpt lat="40.893542" lon="-3.878702">
        <ele>1139.546</ele>
        <time>2021-07-31T15:11:41Z</time>
      </trkpt>
      <trkpt lat="40.893552" lon="-3.878668">
        <ele>1139.436</ele>
        <time>2021-07-31T15:11:43Z</time>
      </trkpt>
      <trkpt lat="40.893558" lon="-3.878645">
        <ele>1139.317</ele>
        <time>2021-07-31T15:11:45Z</time>
      </trkpt>
      <trkpt lat="40.893571" lon="-3.878618">
        <ele>1139.218</ele>
        <time>2021-07-31T15:11:49Z</time>
      </trkpt>
      <trkpt lat="40.893578" lon="-3.878590">
        <ele>1139.108</ele>
        <time>2021-07-31T15:11:51Z</time>
      </trkpt>
      <trkpt lat="40.893597" lon="-3.878564">
        <ele>1139.140</ele>
        <time>2021-07-31T15:11:53Z</time>
      </trkpt>
      <trkpt lat="40.893610" lon="-3.878537">
        <ele>1139.012</ele>
        <time>2021-07-31T15:11:55Z</time>
      </trkpt>
      <trkpt lat="40.893622" lon="-3.878508">
        <ele>1139.029</ele>
        <time>2021-07-31T15:11:57Z</time>
      </trkpt>
      <trkpt lat="40.893632" lon="-3.878480">
        <ele>1139.086</ele>
        <time>2021-07-31T15:11:59Z</time>
      </trkpt>
      <trkpt lat="40.893638" lon="-3.878450">
        <ele>1139.058</ele>
        <time>2021-07-31T15:12:01Z</time>
      </trkpt>
      <trkpt lat="40.893654" lon="-3.878416">
        <ele>1139.045</ele>
        <time>2021-07-31T15:12:03Z</time>
      </trkpt>
      <trkpt lat="40.893677" lon="-3.878392">
        <ele>1139.015</ele>
        <time>2021-07-31T15:12:05Z</time>
      </trkpt>
      <trkpt lat="40.893699" lon="-3.878365">
        <ele>1139.013</ele>
        <time>2021-07-31T15:12:07Z</time>
      </trkpt>
      <trkpt lat="40.893718" lon="-3.878348">
        <ele>1139.018</ele>
        <time>2021-07-31T15:12:10Z</time>
      </trkpt>
      <trkpt lat="40.893808" lon="-3.878287">
        <ele>1138.998</ele>
        <time>2021-07-31T15:12:18Z</time>
      </trkpt>
      <trkpt lat="40.893814" lon="-3.878262">
        <ele>1138.817</ele>
        <time>2021-07-31T15:12:19Z</time>
      </trkpt>
      <trkpt lat="40.893834" lon="-3.878245">
        <ele>1138.708</ele>
        <time>2021-07-31T15:12:20Z</time>
      </trkpt>
      <trkpt lat="40.893859" lon="-3.878255">
        <ele>1138.768</ele>
        <time>2021-07-31T15:12:22Z</time>
      </trkpt>
      <trkpt lat="40.893878" lon="-3.878252">
        <ele>1138.730</ele>
        <time>2021-07-31T15:12:23Z</time>
      </trkpt>
      <trkpt lat="40.893907" lon="-3.878245">
        <ele>1138.777</ele>
        <time>2021-07-31T15:12:25Z</time>
      </trkpt>
      <trkpt lat="40.893923" lon="-3.878228">
        <ele>1138.694</ele>
        <time>2021-07-31T15:12:27Z</time>
      </trkpt>
      <trkpt lat="40.893949" lon="-3.878225">
        <ele>1138.676</ele>
        <time>2021-07-31T15:12:29Z</time>
      </trkpt>
      <trkpt lat="40.893968" lon="-3.878255">
        <ele>1138.783</ele>
        <time>2021-07-31T15:12:33Z</time>
      </trkpt>
      <trkpt lat="40.893997" lon="-3.878272">
        <ele>1138.853</ele>
        <time>2021-07-31T15:12:35Z</time>
      </trkpt>
      <trkpt lat="40.894029" lon="-3.878285">
        <ele>1138.811</ele>
        <time>2021-07-31T15:12:36Z</time>
      </trkpt>
      <trkpt lat="40.894048" lon="-3.878285">
        <ele>1138.823</ele>
        <time>2021-07-31T15:12:37Z</time>
      </trkpt>
      <trkpt lat="40.894074" lon="-3.878285">
        <ele>1138.883</ele>
        <time>2021-07-31T15:12:38Z</time>
      </trkpt>
      <trkpt lat="40.894099" lon="-3.878283">
        <ele>1138.811</ele>
        <time>2021-07-31T15:12:40Z</time>
      </trkpt>
      <trkpt lat="40.894118" lon="-3.878293">
        <ele>1138.908</ele>
        <time>2021-07-31T15:12:42Z</time>
      </trkpt>
      <trkpt lat="40.894138" lon="-3.878300">
        <ele>1138.989</ele>
        <time>2021-07-31T15:12:44Z</time>
      </trkpt>
      <trkpt lat="40.894170" lon="-3.878297">
        <ele>1138.951</ele>
        <time>2021-07-31T15:12:46Z</time>
      </trkpt>
      <trkpt lat="40.894189" lon="-3.878290">
        <ele>1138.888</ele>
        <time>2021-07-31T15:12:50Z</time>
      </trkpt>
      <trkpt lat="40.894179" lon="-3.878260">
        <ele>1138.745</ele>
        <time>2021-07-31T15:13:04Z</time>
      </trkpt>
      <trkpt lat="40.894150" lon="-3.878285">
        <ele>1138.857</ele>
        <time>2021-07-31T15:14:05Z</time>
      </trkpt>
      <trkpt lat="40.894186" lon="-3.878273">
        <ele>1138.814</ele>
        <time>2021-07-31T15:14:07Z</time>
      </trkpt>
      <trkpt lat="40.894208" lon="-3.878262">
        <ele>1138.774</ele>
        <time>2021-07-31T15:14:09Z</time>
      </trkpt>
      <trkpt lat="40.894227" lon="-3.878245">
        <ele>1138.762</ele>
        <time>2021-07-31T15:14:11Z</time>
      </trkpt>
      <trkpt lat="40.894246" lon="-3.878242">
        <ele>1138.716</ele>
        <time>2021-07-31T15:14:12Z</time>
      </trkpt>
      <trkpt lat="40.894269" lon="-3.878237">
        <ele>1138.776</ele>
        <time>2021-07-31T15:14:13Z</time>
      </trkpt>
      <trkpt lat="40.894288" lon="-3.878230">
        <ele>1138.613</ele>
        <time>2021-07-31T15:14:14Z</time>
      </trkpt>
      <trkpt lat="40.894307" lon="-3.878224">
        <ele>1138.608</ele>
        <time>2021-07-31T15:14:15Z</time>
      </trkpt>
      <trkpt lat="40.894326" lon="-3.878222">
        <ele>1138.648</ele>
        <time>2021-07-31T15:14:16Z</time>
      </trkpt>
      <trkpt lat="40.894355" lon="-3.878212">
        <ele>1138.650</ele>
        <time>2021-07-31T15:14:18Z</time>
      </trkpt>
      <trkpt lat="40.894387" lon="-3.878203">
        <ele>1138.597</ele>
        <time>2021-07-31T15:14:20Z</time>
      </trkpt>
      <trkpt lat="40.894416" lon="-3.878200">
        <ele>1138.584</ele>
        <time>2021-07-31T15:14:22Z</time>
      </trkpt>
      <trkpt lat="40.894435" lon="-3.878198">
        <ele>1138.536</ele>
        <time>2021-07-31T15:14:23Z</time>
      </trkpt>
      <trkpt lat="40.894470" lon="-3.878183">
        <ele>1138.393</ele>
        <time>2021-07-31T15:14:25Z</time>
      </trkpt>
      <trkpt lat="40.894493" lon="-3.878173">
        <ele>1138.293</ele>
        <time>2021-07-31T15:14:26Z</time>
      </trkpt>
      <trkpt lat="40.894525" lon="-3.878158">
        <ele>1138.041</ele>
        <time>2021-07-31T15:14:27Z</time>
      </trkpt>
      <trkpt lat="40.894557" lon="-3.878150">
        <ele>1137.834</ele>
        <time>2021-07-31T15:14:29Z</time>
      </trkpt>
      <trkpt lat="40.894582" lon="-3.878148">
        <ele>1137.755</ele>
        <time>2021-07-31T15:14:30Z</time>
      </trkpt>
      <trkpt lat="40.894608" lon="-3.878147">
        <ele>1137.510</ele>
        <time>2021-07-31T15:14:32Z</time>
      </trkpt>
      <trkpt lat="40.894630" lon="-3.878142">
        <ele>1137.408</ele>
        <time>2021-07-31T15:14:33Z</time>
      </trkpt>
      <trkpt lat="40.894656" lon="-3.878135">
        <ele>1137.350</ele>
        <time>2021-07-31T15:14:35Z</time>
      </trkpt>
      <trkpt lat="40.894682" lon="-3.878127">
        <ele>1137.282</ele>
        <time>2021-07-31T15:14:38Z</time>
      </trkpt>
      <trkpt lat="40.894694" lon="-3.878108">
        <ele>1137.199</ele>
        <time>2021-07-31T15:14:40Z</time>
      </trkpt>
      <trkpt lat="40.894717" lon="-3.878086">
        <ele>1137.036</ele>
        <time>2021-07-31T15:14:43Z</time>
      </trkpt>
      <trkpt lat="40.894742" lon="-3.878063">
        <ele>1137.078</ele>
        <time>2021-07-31T15:14:45Z</time>
      </trkpt>
      <trkpt lat="40.894771" lon="-3.878050">
        <ele>1137.085</ele>
        <time>2021-07-31T15:14:47Z</time>
      </trkpt>
      <trkpt lat="40.894790" lon="-3.878045">
        <ele>1137.025</ele>
        <time>2021-07-31T15:14:48Z</time>
      </trkpt>
      <trkpt lat="40.894816" lon="-3.878037">
        <ele>1137.023</ele>
        <time>2021-07-31T15:14:50Z</time>
      </trkpt>
      <trkpt lat="40.894851" lon="-3.878018">
        <ele>1137.063</ele>
        <time>2021-07-31T15:14:52Z</time>
      </trkpt>
      <trkpt lat="40.894883" lon="-3.878007">
        <ele>1137.044</ele>
        <time>2021-07-31T15:14:54Z</time>
      </trkpt>
      <trkpt lat="40.894902" lon="-3.877992">
        <ele>1137.018</ele>
        <time>2021-07-31T15:14:56Z</time>
      </trkpt>
      <trkpt lat="40.894928" lon="-3.877963">
        <ele>1137.008</ele>
        <time>2021-07-31T15:14:59Z</time>
      </trkpt>
      <trkpt lat="40.894944" lon="-3.877945">
        <ele>1137.033</ele>
        <time>2021-07-31T15:15:01Z</time>
      </trkpt>
      <trkpt lat="40.894960" lon="-3.877928">
        <ele>1137.085</ele>
        <time>2021-07-31T15:15:05Z</time>
      </trkpt>
      <trkpt lat="40.894966" lon="-3.877890">
        <ele>1137.012</ele>
        <time>2021-07-31T15:15:07Z</time>
      </trkpt>
      <trkpt lat="40.894973" lon="-3.877862">
        <ele>1137.079</ele>
        <time>2021-07-31T15:15:13Z</time>
      </trkpt>
      <trkpt lat="40.894995" lon="-3.877842">
        <ele>1137.081</ele>
        <time>2021-07-31T15:15:15Z</time>
      </trkpt>
      <trkpt lat="40.895014" lon="-3.877817">
        <ele>1137.088</ele>
        <time>2021-07-31T15:15:17Z</time>
      </trkpt>
      <trkpt lat="40.895040" lon="-3.877800">
        <ele>1137.098</ele>
        <time>2021-07-31T15:15:19Z</time>
      </trkpt>
      <trkpt lat="40.895062" lon="-3.877767">
        <ele>1137.086</ele>
        <time>2021-07-31T15:15:21Z</time>
      </trkpt>
      <trkpt lat="40.895075" lon="-3.877736">
        <ele>1137.057</ele>
        <time>2021-07-31T15:15:23Z</time>
      </trkpt>
      <trkpt lat="40.895088" lon="-3.877708">
        <ele>1137.000</ele>
        <time>2021-07-31T15:15:25Z</time>
      </trkpt>
      <trkpt lat="40.895101" lon="-3.877687">
        <ele>1137.020</ele>
        <time>2021-07-31T15:15:27Z</time>
      </trkpt>
      <trkpt lat="40.895114" lon="-3.877668">
        <ele>1137.008</ele>
        <time>2021-07-31T15:15:29Z</time>
      </trkpt>
      <trkpt lat="40.895126" lon="-3.877640">
        <ele>1137.062</ele>
        <time>2021-07-31T15:15:31Z</time>
      </trkpt>
      <trkpt lat="40.895133" lon="-3.877617">
        <ele>1137.054</ele>
        <time>2021-07-31T15:15:33Z</time>
      </trkpt>
      <trkpt lat="40.895139" lon="-3.877583">
        <ele>1137.041</ele>
        <time>2021-07-31T15:15:35Z</time>
      </trkpt>
      <trkpt lat="40.895142" lon="-3.877545">
        <ele>1137.068</ele>
        <time>2021-07-31T15:15:37Z</time>
      </trkpt>
      <trkpt lat="40.895158" lon="-3.877530">
        <ele>1137.090</ele>
        <time>2021-07-31T15:15:38Z</time>
      </trkpt>
      <trkpt lat="40.895171" lon="-3.877495">
        <ele>1137.037</ele>
        <time>2021-07-31T15:15:40Z</time>
      </trkpt>
      <trkpt lat="40.895187" lon="-3.877460">
        <ele>1137.087</ele>
        <time>2021-07-31T15:15:42Z</time>
      </trkpt>
      <trkpt lat="40.895190" lon="-3.877433">
        <ele>1137.015</ele>
        <time>2021-07-31T15:15:44Z</time>
      </trkpt>
      <trkpt lat="40.895190" lon="-3.877396">
        <ele>1137.027</ele>
        <time>2021-07-31T15:15:46Z</time>
      </trkpt>
      <trkpt lat="40.895181" lon="-3.877368">
        <ele>1137.068</ele>
        <time>2021-07-31T15:15:47Z</time>
      </trkpt>
      <trkpt lat="40.895174" lon="-3.877345">
        <ele>1137.014</ele>
        <time>2021-07-31T15:15:48Z</time>
      </trkpt>
      <trkpt lat="40.895168" lon="-3.877315">
        <ele>1137.008</ele>
        <time>2021-07-31T15:15:49Z</time>
      </trkpt>
      <trkpt lat="40.895168" lon="-3.877280">
        <ele>1137.089</ele>
        <time>2021-07-31T15:15:51Z</time>
      </trkpt>
      <trkpt lat="40.895165" lon="-3.877253">
        <ele>1137.051</ele>
        <time>2021-07-31T15:15:52Z</time>
      </trkpt>
      <trkpt lat="40.895165" lon="-3.877216">
        <ele>1137.078</ele>
        <time>2021-07-31T15:15:54Z</time>
      </trkpt>
      <trkpt lat="40.895168" lon="-3.877188">
        <ele>1136.945</ele>
        <time>2021-07-31T15:15:56Z</time>
      </trkpt>
      <trkpt lat="40.895171" lon="-3.877162">
        <ele>1136.987</ele>
        <time>2021-07-31T15:15:58Z</time>
      </trkpt>
      <trkpt lat="40.895171" lon="-3.877137">
        <ele>1136.894</ele>
        <time>2021-07-31T15:16:41Z</time>
      </trkpt>
      <trkpt lat="40.895174" lon="-3.877113">
        <ele>1136.824</ele>
        <time>2021-07-31T15:16:42Z</time>
      </trkpt>
      <trkpt lat="40.895181" lon="-3.877077">
        <ele>1136.752</ele>
        <time>2021-07-31T15:16:44Z</time>
      </trkpt>
      <trkpt lat="40.895200" lon="-3.877043">
        <ele>1136.538</ele>
        <time>2021-07-31T15:16:46Z</time>
      </trkpt>
      <trkpt lat="40.895206" lon="-3.877020">
        <ele>1136.570</ele>
        <time>2021-07-31T15:16:47Z</time>
      </trkpt>
      <trkpt lat="40.895210" lon="-3.876982">
        <ele>1136.317</ele>
        <time>2021-07-31T15:16:49Z</time>
      </trkpt>
      <trkpt lat="40.895203" lon="-3.876953">
        <ele>1136.308</ele>
        <time>2021-07-31T15:16:51Z</time>
      </trkpt>
      <trkpt lat="40.895187" lon="-3.876917">
        <ele>1136.310</ele>
        <time>2021-07-31T15:16:53Z</time>
      </trkpt>
      <trkpt lat="40.895181" lon="-3.876882">
        <ele>1136.372</ele>
        <time>2021-07-31T15:16:55Z</time>
      </trkpt>
      <trkpt lat="40.895184" lon="-3.876847">
        <ele>1136.229</ele>
        <time>2021-07-31T15:16:57Z</time>
      </trkpt>
      <trkpt lat="40.895194" lon="-3.876808">
        <ele>1136.226</ele>
        <time>2021-07-31T15:16:59Z</time>
      </trkpt>
      <trkpt lat="40.895203" lon="-3.876772">
        <ele>1136.128</ele>
        <time>2021-07-31T15:17:01Z</time>
      </trkpt>
      <trkpt lat="40.895210" lon="-3.876738">
        <ele>1136.175</ele>
        <time>2021-07-31T15:17:03Z</time>
      </trkpt>
      <trkpt lat="40.895213" lon="-3.876710">
        <ele>1136.095</ele>
        <time>2021-07-31T15:17:05Z</time>
      </trkpt>
      <trkpt lat="40.895213" lon="-3.876676">
        <ele>1136.093</ele>
        <time>2021-07-31T15:17:07Z</time>
      </trkpt>
      <trkpt lat="40.895219" lon="-3.876648">
        <ele>1136.046</ele>
        <time>2021-07-31T15:17:09Z</time>
      </trkpt>
      <trkpt lat="40.895213" lon="-3.876620">
        <ele>1136.088</ele>
        <time>2021-07-31T15:17:11Z</time>
      </trkpt>
      <trkpt lat="40.895222" lon="-3.876587">
        <ele>1136.016</ele>
        <time>2021-07-31T15:17:13Z</time>
      </trkpt>
      <trkpt lat="40.895229" lon="-3.876555">
        <ele>1136.008</ele>
        <time>2021-07-31T15:17:15Z</time>
      </trkpt>
      <trkpt lat="40.895232" lon="-3.876522">
        <ele>1136.071</ele>
        <time>2021-07-31T15:17:17Z</time>
      </trkpt>
      <trkpt lat="40.895238" lon="-3.876492">
        <ele>1136.043</ele>
        <time>2021-07-31T15:17:19Z</time>
      </trkpt>
      <trkpt lat="40.895245" lon="-3.876465">
        <ele>1136.010</ele>
        <time>2021-07-31T15:17:22Z</time>
      </trkpt>
      <trkpt lat="40.895261" lon="-3.876440">
        <ele>1136.087</ele>
        <time>2021-07-31T15:17:26Z</time>
      </trkpt>
      <trkpt lat="40.895274" lon="-3.876413">
        <ele>1136.089</ele>
        <time>2021-07-31T15:17:29Z</time>
      </trkpt>
      <trkpt lat="40.895293" lon="-3.876388">
        <ele>1136.056</ele>
        <time>2021-07-31T15:17:31Z</time>
      </trkpt>
      <trkpt lat="40.895302" lon="-3.876360">
        <ele>1136.096</ele>
        <time>2021-07-31T15:17:33Z</time>
      </trkpt>
      <trkpt lat="40.895322" lon="-3.876333">
        <ele>1136.044</ele>
        <time>2021-07-31T15:17:35Z</time>
      </trkpt>
      <trkpt lat="40.895344" lon="-3.876302">
        <ele>1135.939</ele>
        <time>2021-07-31T15:17:37Z</time>
      </trkpt>
      <trkpt lat="40.895363" lon="-3.876273">
        <ele>1135.901</ele>
        <time>2021-07-31T15:17:39Z</time>
      </trkpt>
      <trkpt lat="40.895386" lon="-3.876248">
        <ele>1135.821</ele>
        <time>2021-07-31T15:17:41Z</time>
      </trkpt>
      <trkpt lat="40.895405" lon="-3.876220">
        <ele>1135.708</ele>
        <time>2021-07-31T15:17:43Z</time>
      </trkpt>
      <trkpt lat="40.895421" lon="-3.876197">
        <ele>1135.620</ele>
        <time>2021-07-31T15:17:45Z</time>
      </trkpt>
      <trkpt lat="40.895443" lon="-3.876180">
        <ele>1135.612</ele>
        <time>2021-07-31T15:17:47Z</time>
      </trkpt>
      <trkpt lat="40.895459" lon="-3.876150">
        <ele>1135.459</ele>
        <time>2021-07-31T15:17:49Z</time>
      </trkpt>
      <trkpt lat="40.895472" lon="-3.876132">
        <ele>1135.426</ele>
        <time>2021-07-31T15:17:50Z</time>
      </trkpt>
      <trkpt lat="40.895485" lon="-3.876102">
        <ele>1135.358</ele>
        <time>2021-07-31T15:17:52Z</time>
      </trkpt>
      <trkpt lat="40.895504" lon="-3.876073">
        <ele>1135.295</ele>
        <time>2021-07-31T15:17:54Z</time>
      </trkpt>
      <trkpt lat="40.895520" lon="-3.876040">
        <ele>1135.175</ele>
        <time>2021-07-31T15:17:56Z</time>
      </trkpt>
      <trkpt lat="40.895536" lon="-3.876013">
        <ele>1135.153</ele>
        <time>2021-07-31T15:17:58Z</time>
      </trkpt>
      <trkpt lat="40.895562" lon="-3.875976">
        <ele>1135.028</ele>
        <time>2021-07-31T15:18:00Z</time>
      </trkpt>
      <trkpt lat="40.895571" lon="-3.875952">
        <ele>1135.189</ele>
        <time>2021-07-31T15:18:02Z</time>
      </trkpt>
      <trkpt lat="40.895587" lon="-3.875930">
        <ele>1135.117</ele>
        <time>2021-07-31T15:18:04Z</time>
      </trkpt>
      <trkpt lat="40.895587" lon="-3.875893">
        <ele>1135.108</ele>
        <time>2021-07-31T15:18:06Z</time>
      </trkpt>
      <trkpt lat="40.895590" lon="-3.875852">
        <ele>1135.159</ele>
        <time>2021-07-31T15:18:08Z</time>
      </trkpt>
      <trkpt lat="40.895603" lon="-3.875828">
        <ele>1135.251</ele>
        <time>2021-07-31T15:18:09Z</time>
      </trkpt>
      <trkpt lat="40.895610" lon="-3.875802">
        <ele>1135.388</ele>
        <time>2021-07-31T15:18:10Z</time>
      </trkpt>
      <trkpt lat="40.895616" lon="-3.875765">
        <ele>1135.465</ele>
        <time>2021-07-31T15:18:12Z</time>
      </trkpt>
      <trkpt lat="40.895626" lon="-3.875732">
        <ele>1135.597</ele>
        <time>2021-07-31T15:18:15Z</time>
      </trkpt>
      <trkpt lat="40.895635" lon="-3.875698">
        <ele>1135.684</ele>
        <time>2021-07-31T15:18:18Z</time>
      </trkpt>
      <trkpt lat="40.895642" lon="-3.875675">
        <ele>1135.754</ele>
        <time>2021-07-31T15:18:20Z</time>
      </trkpt>
      <trkpt lat="40.895645" lon="-3.875650">
        <ele>1135.852</ele>
        <time>2021-07-31T15:18:22Z</time>
      </trkpt>
      <trkpt lat="40.895629" lon="-3.875633">
        <ele>1135.869</ele>
        <time>2021-07-31T15:18:27Z</time>
      </trkpt>
      <trkpt lat="40.895635" lon="-3.875602">
        <ele>1135.904</ele>
        <time>2021-07-31T15:18:28Z</time>
      </trkpt>
      <trkpt lat="40.895642" lon="-3.875572">
        <ele>1136.024</ele>
        <time>2021-07-31T15:18:30Z</time>
      </trkpt>
      <trkpt lat="40.895642" lon="-3.875545">
        <ele>1136.008</ele>
        <time>2021-07-31T15:18:32Z</time>
      </trkpt>
      <trkpt lat="40.895648" lon="-3.875510">
        <ele>1135.953</ele>
        <time>2021-07-31T15:18:34Z</time>
      </trkpt>
      <trkpt lat="40.895661" lon="-3.875482">
        <ele>1135.975</ele>
        <time>2021-07-31T15:18:36Z</time>
      </trkpt>
      <trkpt lat="40.895680" lon="-3.875448">
        <ele>1135.872</ele>
        <time>2021-07-31T15:18:38Z</time>
      </trkpt>
      <trkpt lat="40.895686" lon="-3.875415">
        <ele>1135.869</ele>
        <time>2021-07-31T15:18:40Z</time>
      </trkpt>
      <trkpt lat="40.895680" lon="-3.875392">
        <ele>1135.741</ele>
        <time>2021-07-31T15:18:41Z</time>
      </trkpt>
      <trkpt lat="40.895696" lon="-3.875355">
        <ele>1135.648</ele>
        <time>2021-07-31T15:18:43Z</time>
      </trkpt>
      <trkpt lat="40.895722" lon="-3.875325">
        <ele>1135.518</ele>
        <time>2021-07-31T15:18:45Z</time>
      </trkpt>
      <trkpt lat="40.895741" lon="-3.875296">
        <ele>1135.416</ele>
        <time>2021-07-31T15:18:47Z</time>
      </trkpt>
      <trkpt lat="40.895757" lon="-3.875276">
        <ele>1135.368</ele>
        <time>2021-07-31T15:18:49Z</time>
      </trkpt>
      <trkpt lat="40.895779" lon="-3.875253">
        <ele>1135.242</ele>
        <time>2021-07-31T15:18:52Z</time>
      </trkpt>
      <trkpt lat="40.895802" lon="-3.875245">
        <ele>1135.126</ele>
        <time>2021-07-31T15:18:54Z</time>
      </trkpt>
      <trkpt lat="40.895818" lon="-3.875228">
        <ele>1135.108</ele>
        <time>2021-07-31T15:18:57Z</time>
      </trkpt>
      <trkpt lat="40.895837" lon="-3.875213">
        <ele>1135.023</ele>
        <time>2021-07-31T15:18:59Z</time>
      </trkpt>
      <trkpt lat="40.895862" lon="-3.875195">
        <ele>1135.175</ele>
        <time>2021-07-31T15:19:01Z</time>
      </trkpt>
      <trkpt lat="40.895894" lon="-3.875172">
        <ele>1135.122</ele>
        <time>2021-07-31T15:19:03Z</time>
      </trkpt>
      <trkpt lat="40.895920" lon="-3.875153">
        <ele>1135.289</ele>
        <time>2021-07-31T15:19:05Z</time>
      </trkpt>
      <trkpt lat="40.895939" lon="-3.875128">
        <ele>1135.281</ele>
        <time>2021-07-31T15:19:07Z</time>
      </trkpt>
      <trkpt lat="40.895946" lon="-3.875092">
        <ele>1135.148</ele>
        <time>2021-07-31T15:19:09Z</time>
      </trkpt>
      <trkpt lat="40.895965" lon="-3.875064">
        <ele>1135.158</ele>
        <time>2021-07-31T15:19:11Z</time>
      </trkpt>
      <trkpt lat="40.895981" lon="-3.875052">
        <ele>1135.166</ele>
        <time>2021-07-31T15:19:12Z</time>
      </trkpt>
      <trkpt lat="40.896000" lon="-3.875022">
        <ele>1135.063</ele>
        <time>2021-07-31T15:19:14Z</time>
      </trkpt>
      <trkpt lat="40.896003" lon="-3.874983">
        <ele>1135.044</ele>
        <time>2021-07-31T15:19:16Z</time>
      </trkpt>
      <trkpt lat="40.896013" lon="-3.874945">
        <ele>1135.118</ele>
        <time>2021-07-31T15:19:18Z</time>
      </trkpt>
      <trkpt lat="40.896032" lon="-3.874910">
        <ele>1135.108</ele>
        <time>2021-07-31T15:19:20Z</time>
      </trkpt>
      <trkpt lat="40.896032" lon="-3.874882">
        <ele>1135.173</ele>
        <time>2021-07-31T15:19:21Z</time>
      </trkpt>
      <trkpt lat="40.896048" lon="-3.874857">
        <ele>1135.135</ele>
        <time>2021-07-31T15:19:23Z</time>
      </trkpt>
      <trkpt lat="40.896067" lon="-3.874810">
        <ele>1135.132</ele>
        <time>2021-07-31T15:19:25Z</time>
      </trkpt>
      <trkpt lat="40.896080" lon="-3.874792">
        <ele>1135.129</ele>
        <time>2021-07-31T15:19:26Z</time>
      </trkpt>
      <trkpt lat="40.896086" lon="-3.874752">
        <ele>1135.171</ele>
        <time>2021-07-31T15:19:28Z</time>
      </trkpt>
      <trkpt lat="40.896086" lon="-3.874720">
        <ele>1135.188</ele>
        <time>2021-07-31T15:19:30Z</time>
      </trkpt>
      <trkpt lat="40.896093" lon="-3.874687">
        <ele>1135.138</ele>
        <time>2021-07-31T15:19:32Z</time>
      </trkpt>
      <trkpt lat="40.896096" lon="-3.874652">
        <ele>1135.136</ele>
        <time>2021-07-31T15:19:35Z</time>
      </trkpt>
      <trkpt lat="40.896118" lon="-3.874625">
        <ele>1135.092</ele>
        <time>2021-07-31T15:19:37Z</time>
      </trkpt>
      <trkpt lat="40.896141" lon="-3.874605">
        <ele>1135.073</ele>
        <time>2021-07-31T15:19:38Z</time>
      </trkpt>
      <trkpt lat="40.896160" lon="-3.874576">
        <ele>1134.920</ele>
        <time>2021-07-31T15:19:40Z</time>
      </trkpt>
      <trkpt lat="40.896176" lon="-3.874553">
        <ele>1134.908</ele>
        <time>2021-07-31T15:19:42Z</time>
      </trkpt>
      <trkpt lat="40.896186" lon="-3.874528">
        <ele>1134.846</ele>
        <time>2021-07-31T15:19:44Z</time>
      </trkpt>
      <trkpt lat="40.896198" lon="-3.874505">
        <ele>1134.848</ele>
        <time>2021-07-31T15:19:46Z</time>
      </trkpt>
      <trkpt lat="40.896218" lon="-3.874480">
        <ele>1134.785</ele>
        <time>2021-07-31T15:19:48Z</time>
      </trkpt>
      <trkpt lat="40.896234" lon="-3.874448">
        <ele>1134.642</ele>
        <time>2021-07-31T15:19:50Z</time>
      </trkpt>
      <trkpt lat="40.896253" lon="-3.874428">
        <ele>1134.594</ele>
        <time>2021-07-31T15:19:52Z</time>
      </trkpt>
      <trkpt lat="40.896266" lon="-3.874412">
        <ele>1134.591</ele>
        <time>2021-07-31T15:19:53Z</time>
      </trkpt>
      <trkpt lat="40.896282" lon="-3.874390">
        <ele>1134.581</ele>
        <time>2021-07-31T15:19:54Z</time>
      </trkpt>
      <trkpt lat="40.896304" lon="-3.874367">
        <ele>1134.489</ele>
        <time>2021-07-31T15:19:56Z</time>
      </trkpt>
      <trkpt lat="40.896323" lon="-3.874345">
        <ele>1134.335</ele>
        <time>2021-07-31T15:19:58Z</time>
      </trkpt>
      <trkpt lat="40.896342" lon="-3.874323">
        <ele>1134.286</ele>
        <time>2021-07-31T15:20:00Z</time>
      </trkpt>
      <trkpt lat="40.896358" lon="-3.874303">
        <ele>1134.214</ele>
        <time>2021-07-31T15:20:02Z</time>
      </trkpt>
      <trkpt lat="40.896378" lon="-3.874282">
        <ele>1134.108</ele>
        <time>2021-07-31T15:20:04Z</time>
      </trkpt>
      <trkpt lat="40.896394" lon="-3.874260">
        <ele>1134.010</ele>
        <time>2021-07-31T15:20:06Z</time>
      </trkpt>
      <trkpt lat="40.896410" lon="-3.874245">
        <ele>1134.042</ele>
        <time>2021-07-31T15:20:08Z</time>
      </trkpt>
      <trkpt lat="40.896435" lon="-3.874235">
        <ele>1134.089</ele>
        <time>2021-07-31T15:20:10Z</time>
      </trkpt>
      <trkpt lat="40.896454" lon="-3.874242">
        <ele>1134.066</ele>
        <time>2021-07-31T15:20:13Z</time>
      </trkpt>
      <trkpt lat="40.896470" lon="-3.874257">
        <ele>1134.048</ele>
        <time>2021-07-31T15:20:15Z</time>
      </trkpt>
      <trkpt lat="40.896483" lon="-3.874278">
        <ele>1134.035</ele>
        <time>2021-07-31T15:20:17Z</time>
      </trkpt>
      <trkpt lat="40.896493" lon="-3.874307">
        <ele>1134.075</ele>
        <time>2021-07-31T15:20:19Z</time>
      </trkpt>
      <trkpt lat="40.896509" lon="-3.874335">
        <ele>1134.033</ele>
        <time>2021-07-31T15:20:21Z</time>
      </trkpt>
      <trkpt lat="40.896531" lon="-3.874354">
        <ele>1134.043</ele>
        <time>2021-07-31T15:20:24Z</time>
      </trkpt>
      <trkpt lat="40.896554" lon="-3.874367">
        <ele>1134.064</ele>
        <time>2021-07-31T15:20:26Z</time>
      </trkpt>
      <trkpt lat="40.896570" lon="-3.874390">
        <ele>1134.010</ele>
        <time>2021-07-31T15:20:28Z</time>
      </trkpt>
      <trkpt lat="40.896589" lon="-3.874418">
        <ele>1134.008</ele>
        <time>2021-07-31T15:20:31Z</time>
      </trkpt>
      <trkpt lat="40.896608" lon="-3.874435">
        <ele>1134.011</ele>
        <time>2021-07-31T15:20:33Z</time>
      </trkpt>
      <trkpt lat="40.896634" lon="-3.874453">
        <ele>1134.043</ele>
        <time>2021-07-31T15:20:35Z</time>
      </trkpt>
      <trkpt lat="40.896656" lon="-3.874467">
        <ele>1134.010</ele>
        <time>2021-07-31T15:20:37Z</time>
      </trkpt>
      <trkpt lat="40.896682" lon="-3.874473">
        <ele>1134.047</ele>
        <time>2021-07-31T15:20:39Z</time>
      </trkpt>
      <trkpt lat="40.896714" lon="-3.874483">
        <ele>1134.019</ele>
        <time>2021-07-31T15:20:41Z</time>
      </trkpt>
      <trkpt lat="40.896742" lon="-3.874500">
        <ele>1134.016</ele>
        <time>2021-07-31T15:20:43Z</time>
      </trkpt>
      <trkpt lat="40.896768" lon="-3.874503">
        <ele>1134.036</ele>
        <time>2021-07-31T15:20:45Z</time>
      </trkpt>
      <trkpt lat="40.896787" lon="-3.874510">
        <ele>1134.044</ele>
        <time>2021-07-31T15:20:48Z</time>
      </trkpt>
      <trkpt lat="40.896806" lon="-3.874503">
        <ele>1134.012</ele>
        <time>2021-07-31T15:20:53Z</time>
      </trkpt>
      <trkpt lat="40.896832" lon="-3.874493">
        <ele>1134.032</ele>
        <time>2021-07-31T15:20:55Z</time>
      </trkpt>
      <trkpt lat="40.896854" lon="-3.874485">
        <ele>1134.005</ele>
        <time>2021-07-31T15:20:57Z</time>
      </trkpt>
      <trkpt lat="40.896870" lon="-3.874473">
        <ele>1134.008</ele>
        <time>2021-07-31T15:21:01Z</time>
      </trkpt>
      <trkpt lat="40.896890" lon="-3.874468">
        <ele>1134.018</ele>
        <time>2021-07-31T15:21:03Z</time>
      </trkpt>
      <trkpt lat="40.896915" lon="-3.874468">
        <ele>1134.030</ele>
        <time>2021-07-31T15:21:05Z</time>
      </trkpt>
      <trkpt lat="40.896934" lon="-3.874450">
        <ele>1134.017</ele>
        <time>2021-07-31T15:21:08Z</time>
      </trkpt>
      <trkpt lat="40.896950" lon="-3.874428">
        <ele>1133.964</ele>
        <time>2021-07-31T15:21:10Z</time>
      </trkpt>
      <trkpt lat="40.896966" lon="-3.874408">
        <ele>1133.926</ele>
        <time>2021-07-31T15:21:14Z</time>
      </trkpt>
      <trkpt lat="40.896976" lon="-3.874385">
        <ele>1133.883</ele>
        <time>2021-07-31T15:21:18Z</time>
      </trkpt>
      <trkpt lat="40.896989" lon="-3.874368">
        <ele>1133.723</ele>
        <time>2021-07-31T15:21:20Z</time>
      </trkpt>
      <trkpt lat="40.896998" lon="-3.874340">
        <ele>1133.621</ele>
        <time>2021-07-31T15:21:23Z</time>
      </trkpt>
      <trkpt lat="40.897018" lon="-3.874325">
        <ele>1133.679</ele>
        <time>2021-07-31T15:21:25Z</time>
      </trkpt>
      <trkpt lat="40.897040" lon="-3.874308">
        <ele>1133.505</ele>
        <time>2021-07-31T15:21:27Z</time>
      </trkpt>
      <trkpt lat="40.897056" lon="-3.874292">
        <ele>1133.525</ele>
        <time>2021-07-31T15:21:29Z</time>
      </trkpt>
      <trkpt lat="40.897075" lon="-3.874277">
        <ele>1133.408</ele>
        <time>2021-07-31T15:21:31Z</time>
      </trkpt>
      <trkpt lat="40.897091" lon="-3.874253">
        <ele>1133.374</ele>
        <time>2021-07-31T15:21:33Z</time>
      </trkpt>
      <trkpt lat="40.897114" lon="-3.874238">
        <ele>1133.386</ele>
        <time>2021-07-31T15:21:35Z</time>
      </trkpt>
      <trkpt lat="40.897133" lon="-3.874222">
        <ele>1133.223</ele>
        <time>2021-07-31T15:21:37Z</time>
      </trkpt>
      <trkpt lat="40.897152" lon="-3.874202">
        <ele>1133.110</ele>
        <time>2021-07-31T15:21:39Z</time>
      </trkpt>
      <trkpt lat="40.897168" lon="-3.874187">
        <ele>1133.142</ele>
        <time>2021-07-31T15:21:41Z</time>
      </trkpt>
      <trkpt lat="40.897197" lon="-3.874185">
        <ele>1133.119</ele>
        <time>2021-07-31T15:21:47Z</time>
      </trkpt>
      <trkpt lat="40.897219" lon="-3.874170">
        <ele>1133.099</ele>
        <time>2021-07-31T15:21:49Z</time>
      </trkpt>
      <trkpt lat="40.897238" lon="-3.874148">
        <ele>1133.097</ele>
        <time>2021-07-31T15:21:51Z</time>
      </trkpt>
      <trkpt lat="40.897264" lon="-3.874127">
        <ele>1133.067</ele>
        <time>2021-07-31T15:21:53Z</time>
      </trkpt>
      <trkpt lat="40.897293" lon="-3.874105">
        <ele>1133.081</ele>
        <time>2021-07-31T15:21:55Z</time>
      </trkpt>
      <trkpt lat="40.897312" lon="-3.874088">
        <ele>1133.019</ele>
        <time>2021-07-31T15:21:57Z</time>
      </trkpt>
      <trkpt lat="40.897344" lon="-3.874073">
        <ele>1133.008</ele>
        <time>2021-07-31T15:21:59Z</time>
      </trkpt>
      <trkpt lat="40.897366" lon="-3.874062">
        <ele>1133.043</ele>
        <time>2021-07-31T15:22:01Z</time>
      </trkpt>
      <trkpt lat="40.897389" lon="-3.874052">
        <ele>1133.045</ele>
        <time>2021-07-31T15:22:03Z</time>
      </trkpt>
      <trkpt lat="40.897411" lon="-3.874045">
        <ele>1133.092</ele>
        <time>2021-07-31T15:22:05Z</time>
      </trkpt>
      <trkpt lat="40.897434" lon="-3.874035">
        <ele>1133.099</ele>
        <time>2021-07-31T15:22:07Z</time>
      </trkpt>
      <trkpt lat="40.897462" lon="-3.874034">
        <ele>1133.071</ele>
        <time>2021-07-31T15:22:09Z</time>
      </trkpt>
      <trkpt lat="40.897482" lon="-3.874028">
        <ele>1133.018</ele>
        <time>2021-07-31T15:22:11Z</time>
      </trkpt>
      <trkpt lat="40.897507" lon="-3.874028">
        <ele>1133.018</ele>
        <time>2021-07-31T15:22:13Z</time>
      </trkpt>
      <trkpt lat="40.897530" lon="-3.874028">
        <ele>1133.086</ele>
        <time>2021-07-31T15:22:15Z</time>
      </trkpt>
      <trkpt lat="40.897552" lon="-3.874024">
        <ele>1133.052</ele>
        <time>2021-07-31T15:22:17Z</time>
      </trkpt>
      <trkpt lat="40.897584" lon="-3.874028">
        <ele>1133.053</ele>
        <time>2021-07-31T15:22:19Z</time>
      </trkpt>
      <trkpt lat="40.897613" lon="-3.874035">
        <ele>1133.008</ele>
        <time>2021-07-31T15:22:21Z</time>
      </trkpt>
      <trkpt lat="40.897632" lon="-3.874038">
        <ele>1133.008</ele>
        <time>2021-07-31T15:22:23Z</time>
      </trkpt>
      <trkpt lat="40.897654" lon="-3.874038">
        <ele>1133.052</ele>
        <time>2021-07-31T15:22:25Z</time>
      </trkpt>
      <trkpt lat="40.897677" lon="-3.874048">
        <ele>1133.014</ele>
        <time>2021-07-31T15:22:27Z</time>
      </trkpt>
      <trkpt lat="40.897702" lon="-3.874065">
        <ele>1133.071</ele>
        <time>2021-07-31T15:22:29Z</time>
      </trkpt>
      <trkpt lat="40.897722" lon="-3.874077">
        <ele>1133.028</ele>
        <time>2021-07-31T15:22:31Z</time>
      </trkpt>
      <trkpt lat="40.897750" lon="-3.874083">
        <ele>1133.030</ele>
        <time>2021-07-31T15:22:33Z</time>
      </trkpt>
      <trkpt lat="40.897773" lon="-3.874090">
        <ele>1133.087</ele>
        <time>2021-07-31T15:22:35Z</time>
      </trkpt>
      <trkpt lat="40.897792" lon="-3.874103">
        <ele>1133.127</ele>
        <time>2021-07-31T15:22:37Z</time>
      </trkpt>
      <trkpt lat="40.897811" lon="-3.874110">
        <ele>1133.135</ele>
        <time>2021-07-31T15:22:39Z</time>
      </trkpt>
      <trkpt lat="40.897843" lon="-3.874120">
        <ele>1133.295</ele>
        <time>2021-07-31T15:22:41Z</time>
      </trkpt>
      <trkpt lat="40.897862" lon="-3.874128">
        <ele>1133.349</ele>
        <time>2021-07-31T15:22:43Z</time>
      </trkpt>
      <trkpt lat="40.897891" lon="-3.874142">
        <ele>1133.423</ele>
        <time>2021-07-31T15:22:45Z</time>
      </trkpt>
      <trkpt lat="40.897910" lon="-3.874155">
        <ele>1133.508</ele>
        <time>2021-07-31T15:22:47Z</time>
      </trkpt>
      <trkpt lat="40.897939" lon="-3.874160">
        <ele>1133.686</ele>
        <time>2021-07-31T15:22:49Z</time>
      </trkpt>
      <trkpt lat="40.897962" lon="-3.874172">
        <ele>1133.738</ele>
        <time>2021-07-31T15:22:51Z</time>
      </trkpt>
      <trkpt lat="40.897981" lon="-3.874175">
        <ele>1133.755</ele>
        <time>2021-07-31T15:22:52Z</time>
      </trkpt>
      <trkpt lat="40.898003" lon="-3.874187">
        <ele>1133.872</ele>
        <time>2021-07-31T15:22:58Z</time>
      </trkpt>
      <trkpt lat="40.898022" lon="-3.874190">
        <ele>1133.964</ele>
        <time>2021-07-31T15:23:00Z</time>
      </trkpt>
      <trkpt lat="40.898051" lon="-3.874190">
        <ele>1134.011</ele>
        <time>2021-07-31T15:23:02Z</time>
      </trkpt>
      <trkpt lat="40.898086" lon="-3.874184">
        <ele>1134.151</ele>
        <time>2021-07-31T15:23:04Z</time>
      </trkpt>
      <trkpt lat="40.898109" lon="-3.874175">
        <ele>1134.259</ele>
        <time>2021-07-31T15:23:06Z</time>
      </trkpt>
      <trkpt lat="40.898131" lon="-3.874168">
        <ele>1134.353</ele>
        <time>2021-07-31T15:23:08Z</time>
      </trkpt>
      <trkpt lat="40.898157" lon="-3.874167">
        <ele>1134.404</ele>
        <time>2021-07-31T15:23:10Z</time>
      </trkpt>
      <trkpt lat="40.898179" lon="-3.874168">
        <ele>1134.414</ele>
        <time>2021-07-31T15:23:12Z</time>
      </trkpt>
      <trkpt lat="40.898205" lon="-3.874163">
        <ele>1134.508</ele>
        <time>2021-07-31T15:23:14Z</time>
      </trkpt>
      <trkpt lat="40.898230" lon="-3.874172">
        <ele>1134.662</ele>
        <time>2021-07-31T15:23:16Z</time>
      </trkpt>
      <trkpt lat="40.898259" lon="-3.874184">
        <ele>1134.784</ele>
        <time>2021-07-31T15:23:18Z</time>
      </trkpt>
      <trkpt lat="40.898285" lon="-3.874187">
        <ele>1134.841</ele>
        <time>2021-07-31T15:23:20Z</time>
      </trkpt>
      <trkpt lat="40.898310" lon="-3.874196">
        <ele>1134.998</ele>
        <time>2021-07-31T15:23:22Z</time>
      </trkpt>
      <trkpt lat="40.898336" lon="-3.874208">
        <ele>1135.070</ele>
        <time>2021-07-31T15:23:24Z</time>
      </trkpt>
      <trkpt lat="40.898358" lon="-3.874216">
        <ele>1135.197</ele>
        <time>2021-07-31T15:23:26Z</time>
      </trkpt>
      <trkpt lat="40.898381" lon="-3.874232">
        <ele>1135.267</ele>
        <time>2021-07-31T15:23:28Z</time>
      </trkpt>
      <trkpt lat="40.898400" lon="-3.874250">
        <ele>1135.365</ele>
        <time>2021-07-31T15:23:30Z</time>
      </trkpt>
      <trkpt lat="40.898419" lon="-3.874265">
        <ele>1135.471</ele>
        <time>2021-07-31T15:23:32Z</time>
      </trkpt>
      <trkpt lat="40.898445" lon="-3.874273">
        <ele>1135.641</ele>
        <time>2021-07-31T15:23:34Z</time>
      </trkpt>
      <trkpt lat="40.898467" lon="-3.874287">
        <ele>1135.715</ele>
        <time>2021-07-31T15:23:36Z</time>
      </trkpt>
      <trkpt lat="40.898490" lon="-3.874293">
        <ele>1135.808</ele>
        <time>2021-07-31T15:23:38Z</time>
      </trkpt>
      <trkpt lat="40.898509" lon="-3.874298">
        <ele>1135.944</ele>
        <time>2021-07-31T15:23:39Z</time>
      </trkpt>
      <trkpt lat="40.898538" lon="-3.874310">
        <ele>1136.176</ele>
        <time>2021-07-31T15:23:41Z</time>
      </trkpt>
      <trkpt lat="40.898563" lon="-3.874320">
        <ele>1136.363</ele>
        <time>2021-07-31T15:23:43Z</time>
      </trkpt>
      <trkpt lat="40.898589" lon="-3.874335">
        <ele>1136.560</ele>
        <time>2021-07-31T15:23:45Z</time>
      </trkpt>
      <trkpt lat="40.898614" lon="-3.874354">
        <ele>1136.732</ele>
        <time>2021-07-31T15:23:47Z</time>
      </trkpt>
      <trkpt lat="40.898637" lon="-3.874360">
        <ele>1136.719</ele>
        <time>2021-07-31T15:23:49Z</time>
      </trkpt>
      <trkpt lat="40.898659" lon="-3.874372">
        <ele>1136.749</ele>
        <time>2021-07-31T15:23:51Z</time>
      </trkpt>
      <trkpt lat="40.898678" lon="-3.874397">
        <ele>1136.877</ele>
        <time>2021-07-31T15:23:53Z</time>
      </trkpt>
      <trkpt lat="40.898698" lon="-3.874412">
        <ele>1136.986</ele>
        <time>2021-07-31T15:23:55Z</time>
      </trkpt>
      <trkpt lat="40.898723" lon="-3.874433">
        <ele>1137.060</ele>
        <time>2021-07-31T15:23:57Z</time>
      </trkpt>
      <trkpt lat="40.898746" lon="-3.874447">
        <ele>1137.026</ele>
        <time>2021-07-31T15:23:59Z</time>
      </trkpt>
      <trkpt lat="40.898765" lon="-3.874458">
        <ele>1137.008</ele>
        <time>2021-07-31T15:24:01Z</time>
      </trkpt>
      <trkpt lat="40.898787" lon="-3.874467">
        <ele>1137.075</ele>
        <time>2021-07-31T15:24:03Z</time>
      </trkpt>
      <trkpt lat="40.898816" lon="-3.874475">
        <ele>1137.047</ele>
        <time>2021-07-31T15:24:05Z</time>
      </trkpt>
      <trkpt lat="40.898838" lon="-3.874488">
        <ele>1137.084</ele>
        <time>2021-07-31T15:24:07Z</time>
      </trkpt>
      <trkpt lat="40.898864" lon="-3.874503">
        <ele>1137.061</ele>
        <time>2021-07-31T15:24:09Z</time>
      </trkpt>
      <trkpt lat="40.898886" lon="-3.874517">
        <ele>1137.073</ele>
        <time>2021-07-31T15:24:11Z</time>
      </trkpt>
      <trkpt lat="40.898912" lon="-3.874534">
        <ele>1137.050</ele>
        <time>2021-07-31T15:24:13Z</time>
      </trkpt>
      <trkpt lat="40.898934" lon="-3.874548">
        <ele>1137.090</ele>
        <time>2021-07-31T15:24:15Z</time>
      </trkpt>
      <trkpt lat="40.898957" lon="-3.874566">
        <ele>1137.098</ele>
        <time>2021-07-31T15:24:17Z</time>
      </trkpt>
      <trkpt lat="40.898976" lon="-3.874578">
        <ele>1137.037</ele>
        <time>2021-07-31T15:24:19Z</time>
      </trkpt>
      <trkpt lat="40.898998" lon="-3.874585">
        <ele>1137.049</ele>
        <time>2021-07-31T15:24:21Z</time>
      </trkpt>
      <trkpt lat="40.899021" lon="-3.874608">
        <ele>1137.013</ele>
        <time>2021-07-31T15:24:23Z</time>
      </trkpt>
      <trkpt lat="40.899037" lon="-3.874633">
        <ele>1137.008</ele>
        <time>2021-07-31T15:24:25Z</time>
      </trkpt>
      <trkpt lat="40.899053" lon="-3.874652">
        <ele>1137.030</ele>
        <time>2021-07-31T15:24:27Z</time>
      </trkpt>
      <trkpt lat="40.899072" lon="-3.874650">
        <ele>1137.082</ele>
        <time>2021-07-31T15:24:28Z</time>
      </trkpt>
      <trkpt lat="40.899098" lon="-3.874670">
        <ele>1137.079</ele>
        <time>2021-07-31T15:24:30Z</time>
      </trkpt>
      <trkpt lat="40.899117" lon="-3.874678">
        <ele>1137.076</ele>
        <time>2021-07-31T15:24:32Z</time>
      </trkpt>
      <trkpt lat="40.899133" lon="-3.874697">
        <ele>1137.098</ele>
        <time>2021-07-31T15:24:34Z</time>
      </trkpt>
      <trkpt lat="40.899158" lon="-3.874724">
        <ele>1137.085</ele>
        <time>2021-07-31T15:24:36Z</time>
      </trkpt>
      <trkpt lat="40.899178" lon="-3.874728">
        <ele>1137.045</ele>
        <time>2021-07-31T15:24:38Z</time>
      </trkpt>
      <trkpt lat="40.899197" lon="-3.874745">
        <ele>1137.133</ele>
        <time>2021-07-31T15:24:40Z</time>
      </trkpt>
      <trkpt lat="40.899210" lon="-3.874762">
        <ele>1137.126</ele>
        <time>2021-07-31T15:24:42Z</time>
      </trkpt>
      <trkpt lat="40.899238" lon="-3.874777">
        <ele>1137.247</ele>
        <time>2021-07-31T15:24:52Z</time>
      </trkpt>
      <trkpt lat="40.899251" lon="-3.874800">
        <ele>1137.311</ele>
        <time>2021-07-31T15:24:54Z</time>
      </trkpt>
      <trkpt lat="40.899270" lon="-3.874825">
        <ele>1137.408</ele>
        <time>2021-07-31T15:24:56Z</time>
      </trkpt>
      <trkpt lat="40.899290" lon="-3.874852">
        <ele>1137.529</ele>
        <time>2021-07-31T15:24:59Z</time>
      </trkpt>
      <trkpt lat="40.899309" lon="-3.874873">
        <ele>1137.581</ele>
        <time>2021-07-31T15:25:01Z</time>
      </trkpt>
      <trkpt lat="40.899331" lon="-3.874893">
        <ele>1137.638</ele>
        <time>2021-07-31T15:25:03Z</time>
      </trkpt>
      <trkpt lat="40.899344" lon="-3.874915">
        <ele>1137.735</ele>
        <time>2021-07-31T15:25:05Z</time>
      </trkpt>
      <trkpt lat="40.899360" lon="-3.874935">
        <ele>1137.877</ele>
        <time>2021-07-31T15:25:07Z</time>
      </trkpt>
      <trkpt lat="40.899382" lon="-3.874957">
        <ele>1137.814</ele>
        <time>2021-07-31T15:25:09Z</time>
      </trkpt>
      <trkpt lat="40.899408" lon="-3.874977">
        <ele>1137.934</ele>
        <time>2021-07-31T15:25:11Z</time>
      </trkpt>
      <trkpt lat="40.899418" lon="-3.875007">
        <ele>1138.022</ele>
        <time>2021-07-31T15:25:15Z</time>
      </trkpt>
      <trkpt lat="40.899434" lon="-3.875022">
        <ele>1138.025</ele>
        <time>2021-07-31T15:25:17Z</time>
      </trkpt>
      <trkpt lat="40.899450" lon="-3.875045">
        <ele>1138.026</ele>
        <time>2021-07-31T15:25:19Z</time>
      </trkpt>
      <trkpt lat="40.899472" lon="-3.875064">
        <ele>1138.008</ele>
        <time>2021-07-31T15:25:21Z</time>
      </trkpt>
      <trkpt lat="40.899488" lon="-3.875077">
        <ele>1138.008</ele>
        <time>2021-07-31T15:25:23Z</time>
      </trkpt>
      <trkpt lat="40.899507" lon="-3.875095">
        <ele>1138.089</ele>
        <time>2021-07-31T15:25:25Z</time>
      </trkpt>
      <trkpt lat="40.899520" lon="-3.875112">
        <ele>1138.081</ele>
        <time>2021-07-31T15:25:27Z</time>
      </trkpt>
      <trkpt lat="40.899539" lon="-3.875125">
        <ele>1138.098</ele>
        <time>2021-07-31T15:25:29Z</time>
      </trkpt>
      <trkpt lat="40.899562" lon="-3.875142">
        <ele>1138.055</ele>
        <time>2021-07-31T15:25:31Z</time>
      </trkpt>
      <trkpt lat="40.899578" lon="-3.875160">
        <ele>1138.017</ele>
        <time>2021-07-31T15:25:33Z</time>
      </trkpt>
      <trkpt lat="40.899597" lon="-3.875187">
        <ele>1138.024</ele>
        <time>2021-07-31T15:25:35Z</time>
      </trkpt>
      <trkpt lat="40.899613" lon="-3.875212">
        <ele>1138.034</ele>
        <time>2021-07-31T15:25:37Z</time>
      </trkpt>
      <trkpt lat="40.899635" lon="-3.875234">
        <ele>1138.072</ele>
        <time>2021-07-31T15:25:39Z</time>
      </trkpt>
      <trkpt lat="40.899658" lon="-3.875255">
        <ele>1138.099</ele>
        <time>2021-07-31T15:25:41Z</time>
      </trkpt>
      <trkpt lat="40.899670" lon="-3.875275">
        <ele>1138.007</ele>
        <time>2021-07-31T15:25:43Z</time>
      </trkpt>
      <trkpt lat="40.899686" lon="-3.875290">
        <ele>1138.027</ele>
        <time>2021-07-31T15:25:45Z</time>
      </trkpt>
      <trkpt lat="40.899715" lon="-3.875318">
        <ele>1138.008</ele>
        <time>2021-07-31T15:25:47Z</time>
      </trkpt>
      <trkpt lat="40.899738" lon="-3.875340">
        <ele>1138.136</ele>
        <time>2021-07-31T15:25:49Z</time>
      </trkpt>
      <trkpt lat="40.899757" lon="-3.875357">
        <ele>1138.168</ele>
        <time>2021-07-31T15:25:51Z</time>
      </trkpt>
      <trkpt lat="40.899776" lon="-3.875378">
        <ele>1138.215</ele>
        <time>2021-07-31T15:25:53Z</time>
      </trkpt>
      <trkpt lat="40.899798" lon="-3.875400">
        <ele>1138.392</ele>
        <time>2021-07-31T15:25:55Z</time>
      </trkpt>
      <trkpt lat="40.899818" lon="-3.875417">
        <ele>1138.394</ele>
        <time>2021-07-31T15:25:57Z</time>
      </trkpt>
      <trkpt lat="40.899837" lon="-3.875435">
        <ele>1138.471</ele>
        <time>2021-07-31T15:25:59Z</time>
      </trkpt>
      <trkpt lat="40.899853" lon="-3.875448">
        <ele>1138.511</ele>
        <time>2021-07-31T15:26:01Z</time>
      </trkpt>
      <trkpt lat="40.899872" lon="-3.875458">
        <ele>1138.569</ele>
        <time>2021-07-31T15:26:03Z</time>
      </trkpt>
      <trkpt lat="40.899894" lon="-3.875483">
        <ele>1138.641</ele>
        <time>2021-07-31T15:26:05Z</time>
      </trkpt>
      <trkpt lat="40.899914" lon="-3.875507">
        <ele>1138.781</ele>
        <time>2021-07-31T15:26:07Z</time>
      </trkpt>
      <trkpt lat="40.899930" lon="-3.875518">
        <ele>1138.709</ele>
        <time>2021-07-31T15:26:08Z</time>
      </trkpt>
      <trkpt lat="40.899946" lon="-3.875533">
        <ele>1138.808</ele>
        <time>2021-07-31T15:26:09Z</time>
      </trkpt>
      <trkpt lat="40.899965" lon="-3.875553">
        <ele>1138.971</ele>
        <time>2021-07-31T15:26:11Z</time>
      </trkpt>
      <trkpt lat="40.899990" lon="-3.875575">
        <ele>1139.063</ele>
        <time>2021-07-31T15:26:13Z</time>
      </trkpt>
      <trkpt lat="40.900006" lon="-3.875587">
        <ele>1139.010</ele>
        <time>2021-07-31T15:26:14Z</time>
      </trkpt>
      <trkpt lat="40.900026" lon="-3.875602">
        <ele>1139.077</ele>
        <time>2021-07-31T15:26:16Z</time>
      </trkpt>
      <trkpt lat="40.900051" lon="-3.875623">
        <ele>1139.079</ele>
        <time>2021-07-31T15:26:18Z</time>
      </trkpt>
      <trkpt lat="40.900070" lon="-3.875642">
        <ele>1139.076</ele>
        <time>2021-07-31T15:26:20Z</time>
      </trkpt>
      <trkpt lat="40.900090" lon="-3.875662">
        <ele>1139.066</ele>
        <time>2021-07-31T15:26:22Z</time>
      </trkpt>
      <trkpt lat="40.900112" lon="-3.875678">
        <ele>1139.074</ele>
        <time>2021-07-31T15:26:24Z</time>
      </trkpt>
      <trkpt lat="40.900134" lon="-3.875698">
        <ele>1139.071</ele>
        <time>2021-07-31T15:26:26Z</time>
      </trkpt>
      <trkpt lat="40.900163" lon="-3.875715">
        <ele>1139.041</ele>
        <time>2021-07-31T15:26:28Z</time>
      </trkpt>
      <trkpt lat="40.900182" lon="-3.875735">
        <ele>1139.015</ele>
        <time>2021-07-31T15:26:30Z</time>
      </trkpt>
      <trkpt lat="40.900198" lon="-3.875755">
        <ele>1139.008</ele>
        <time>2021-07-31T15:26:32Z</time>
      </trkpt>
      <trkpt lat="40.900224" lon="-3.875777">
        <ele>1139.014</ele>
        <time>2021-07-31T15:26:34Z</time>
      </trkpt>
      <trkpt lat="40.900246" lon="-3.875795">
        <ele>1139.046</ele>
        <time>2021-07-31T15:26:36Z</time>
      </trkpt>
      <trkpt lat="40.900272" lon="-3.875813">
        <ele>1139.023</ele>
        <time>2021-07-31T15:26:38Z</time>
      </trkpt>
      <trkpt lat="40.900294" lon="-3.875830">
        <ele>1139.130</ele>
        <time>2021-07-31T15:26:40Z</time>
      </trkpt>
      <trkpt lat="40.900317" lon="-3.875847">
        <ele>1139.242</ele>
        <time>2021-07-31T15:26:42Z</time>
      </trkpt>
      <trkpt lat="40.900342" lon="-3.875862">
        <ele>1139.399</ele>
        <time>2021-07-31T15:26:44Z</time>
      </trkpt>
      <trkpt lat="40.900368" lon="-3.875877">
        <ele>1139.429</ele>
        <time>2021-07-31T15:26:46Z</time>
      </trkpt>
      <trkpt lat="40.900387" lon="-3.875893">
        <ele>1139.537</ele>
        <time>2021-07-31T15:26:48Z</time>
      </trkpt>
      <trkpt lat="40.900403" lon="-3.875910">
        <ele>1139.686</ele>
        <time>2021-07-31T15:26:50Z</time>
      </trkpt>
      <trkpt lat="40.900426" lon="-3.875918">
        <ele>1139.760</ele>
        <time>2021-07-31T15:26:53Z</time>
      </trkpt>
      <trkpt lat="40.900445" lon="-3.875932">
        <ele>1139.726</ele>
        <time>2021-07-31T15:26:55Z</time>
      </trkpt>
      <trkpt lat="40.900467" lon="-3.875950">
        <ele>1139.808</ele>
        <time>2021-07-31T15:26:57Z</time>
      </trkpt>
      <trkpt lat="40.900483" lon="-3.875972">
        <ele>1139.985</ele>
        <time>2021-07-31T15:26:59Z</time>
      </trkpt>
      <trkpt lat="40.900502" lon="-3.875993">
        <ele>1139.977</ele>
        <time>2021-07-31T15:27:01Z</time>
      </trkpt>
      <trkpt lat="40.900522" lon="-3.876020">
        <ele>1140.034</ele>
        <time>2021-07-31T15:27:03Z</time>
      </trkpt>
      <trkpt lat="40.900534" lon="-3.876053">
        <ele>1140.021</ele>
        <time>2021-07-31T15:27:06Z</time>
      </trkpt>
      <trkpt lat="40.900560" lon="-3.876077">
        <ele>1140.043</ele>
        <time>2021-07-31T15:27:08Z</time>
      </trkpt>
      <trkpt lat="40.900576" lon="-3.876104">
        <ele>1140.080</ele>
        <time>2021-07-31T15:27:10Z</time>
      </trkpt>
      <trkpt lat="40.900592" lon="-3.876132">
        <ele>1140.130</ele>
        <time>2021-07-31T15:27:12Z</time>
      </trkpt>
      <trkpt lat="40.900608" lon="-3.876170">
        <ele>1140.278</ele>
        <time>2021-07-31T15:27:14Z</time>
      </trkpt>
      <trkpt lat="40.900621" lon="-3.876195">
        <ele>1140.344</ele>
        <time>2021-07-31T15:27:16Z</time>
      </trkpt>
      <trkpt lat="40.900640" lon="-3.876215">
        <ele>1140.405</ele>
        <time>2021-07-31T15:27:18Z</time>
      </trkpt>
      <trkpt lat="40.900653" lon="-3.876238">
        <ele>1140.515</ele>
        <time>2021-07-31T15:27:20Z</time>
      </trkpt>
      <trkpt lat="40.900669" lon="-3.876268">
        <ele>1140.608</ele>
        <time>2021-07-31T15:27:22Z</time>
      </trkpt>
      <trkpt lat="40.900685" lon="-3.876300">
        <ele>1140.761</ele>
        <time>2021-07-31T15:27:24Z</time>
      </trkpt>
      <trkpt lat="40.900704" lon="-3.876325">
        <ele>1140.823</ele>
        <time>2021-07-31T15:27:26Z</time>
      </trkpt>
      <trkpt lat="40.900723" lon="-3.876352">
        <ele>1140.970</ele>
        <time>2021-07-31T15:27:28Z</time>
      </trkpt>
      <trkpt lat="40.900752" lon="-3.876385">
        <ele>1141.017</ele>
        <time>2021-07-31T15:27:30Z</time>
      </trkpt>
      <trkpt lat="40.900768" lon="-3.876397">
        <ele>1141.069</ele>
        <time>2021-07-31T15:27:31Z</time>
      </trkpt>
      <trkpt lat="40.900784" lon="-3.876412">
        <ele>1141.156</ele>
        <time>2021-07-31T15:27:33Z</time>
      </trkpt>
      <trkpt lat="40.900800" lon="-3.876432">
        <ele>1141.246</ele>
        <time>2021-07-31T15:27:35Z</time>
      </trkpt>
      <trkpt lat="40.900819" lon="-3.876457">
        <ele>1141.264</ele>
        <time>2021-07-31T15:27:37Z</time>
      </trkpt>
      <trkpt lat="40.900845" lon="-3.876478">
        <ele>1141.315</ele>
        <time>2021-07-31T15:27:39Z</time>
      </trkpt>
      <trkpt lat="40.900864" lon="-3.876495">
        <ele>1141.465</ele>
        <time>2021-07-31T15:27:41Z</time>
      </trkpt>
      <trkpt lat="40.900883" lon="-3.876510">
        <ele>1141.411</ele>
        <time>2021-07-31T15:27:43Z</time>
      </trkpt>
      <trkpt lat="40.900902" lon="-3.876526">
        <ele>1141.508</ele>
        <time>2021-07-31T15:27:45Z</time>
      </trkpt>
      <trkpt lat="40.900922" lon="-3.876538">
        <ele>1141.588</ele>
        <time>2021-07-31T15:27:47Z</time>
      </trkpt>
      <trkpt lat="40.900941" lon="-3.876552">
        <ele>1141.630</ele>
        <time>2021-07-31T15:27:49Z</time>
      </trkpt>
      <trkpt lat="40.900960" lon="-3.876565">
        <ele>1141.647</ele>
        <time>2021-07-31T15:27:51Z</time>
      </trkpt>
      <trkpt lat="40.900986" lon="-3.876583">
        <ele>1141.794</ele>
        <time>2021-07-31T15:27:53Z</time>
      </trkpt>
      <trkpt lat="40.901005" lon="-3.876595">
        <ele>1141.776</ele>
        <time>2021-07-31T15:27:55Z</time>
      </trkpt>
      <trkpt lat="40.901024" lon="-3.876620">
        <ele>1141.813</ele>
        <time>2021-07-31T15:27:57Z</time>
      </trkpt>
      <trkpt lat="40.901043" lon="-3.876640">
        <ele>1141.953</ele>
        <time>2021-07-31T15:27:59Z</time>
      </trkpt>
      <trkpt lat="40.901062" lon="-3.876655">
        <ele>1142.041</ele>
        <time>2021-07-31T15:28:01Z</time>
      </trkpt>
      <trkpt lat="40.901085" lon="-3.876670">
        <ele>1142.077</ele>
        <time>2021-07-31T15:28:03Z</time>
      </trkpt>
      <trkpt lat="40.901104" lon="-3.876690">
        <ele>1142.061</ele>
        <time>2021-07-31T15:28:05Z</time>
      </trkpt>
      <trkpt lat="40.901120" lon="-3.876708">
        <ele>1142.127</ele>
        <time>2021-07-31T15:28:07Z</time>
      </trkpt>
      <trkpt lat="40.901139" lon="-3.876718">
        <ele>1142.208</ele>
        <time>2021-07-31T15:28:09Z</time>
      </trkpt>
      <trkpt lat="40.901162" lon="-3.876738">
        <ele>1142.474</ele>
        <time>2021-07-31T15:28:11Z</time>
      </trkpt>
      <trkpt lat="40.901178" lon="-3.876755">
        <ele>1142.626</ele>
        <time>2021-07-31T15:28:12Z</time>
      </trkpt>
      <trkpt lat="40.901197" lon="-3.876782">
        <ele>1142.733</ele>
        <time>2021-07-31T15:28:14Z</time>
      </trkpt>
      <trkpt lat="40.901216" lon="-3.876792">
        <ele>1142.950</ele>
        <time>2021-07-31T15:28:16Z</time>
      </trkpt>
      <trkpt lat="40.901238" lon="-3.876814">
        <ele>1143.242</ele>
        <time>2021-07-31T15:28:19Z</time>
      </trkpt>
      <trkpt lat="40.901258" lon="-3.876835">
        <ele>1143.429</ele>
        <time>2021-07-31T15:28:21Z</time>
      </trkpt>
      <trkpt lat="40.901280" lon="-3.876857">
        <ele>1143.629</ele>
        <time>2021-07-31T15:28:23Z</time>
      </trkpt>
      <trkpt lat="40.901302" lon="-3.876887">
        <ele>1143.967</ele>
        <time>2021-07-31T15:28:25Z</time>
      </trkpt>
      <trkpt lat="40.901318" lon="-3.876915">
        <ele>1144.275</ele>
        <time>2021-07-31T15:28:27Z</time>
      </trkpt>
      <trkpt lat="40.901325" lon="-3.876952">
        <ele>1144.328</ele>
        <time>2021-07-31T15:28:28Z</time>
      </trkpt>
      <trkpt lat="40.901341" lon="-3.876967">
        <ele>1144.620</ele>
        <time>2021-07-31T15:28:29Z</time>
      </trkpt>
      <trkpt lat="40.901370" lon="-3.876965">
        <ele>1144.908</ele>
        <time>2021-07-31T15:28:31Z</time>
      </trkpt>
      <trkpt lat="40.901395" lon="-3.876967">
        <ele>1145.174</ele>
        <time>2021-07-31T15:28:33Z</time>
      </trkpt>
      <trkpt lat="40.901418" lon="-3.876982">
        <ele>1145.136</ele>
        <time>2021-07-31T15:28:35Z</time>
      </trkpt>
      <trkpt lat="40.901421" lon="-3.877010">
        <ele>1145.273</ele>
        <time>2021-07-31T15:28:37Z</time>
      </trkpt>
      <trkpt lat="40.901427" lon="-3.877036">
        <ele>1145.340</ele>
        <time>2021-07-31T15:28:39Z</time>
      </trkpt>
      <trkpt lat="40.901440" lon="-3.877062">
        <ele>1145.472</ele>
        <time>2021-07-31T15:28:42Z</time>
      </trkpt>
      <trkpt lat="40.901446" lon="-3.877098">
        <ele>1145.689</ele>
        <time>2021-07-31T15:28:45Z</time>
      </trkpt>
      <trkpt lat="40.901469" lon="-3.877117">
        <ele>1145.699</ele>
        <time>2021-07-31T15:28:47Z</time>
      </trkpt>
      <trkpt lat="40.901488" lon="-3.877145">
        <ele>1145.767</ele>
        <time>2021-07-31T15:28:50Z</time>
      </trkpt>
      <trkpt lat="40.901501" lon="-3.877164">
        <ele>1145.811</ele>
        <time>2021-07-31T15:28:51Z</time>
      </trkpt>
      <trkpt lat="40.901517" lon="-3.877188">
        <ele>1145.921</ele>
        <time>2021-07-31T15:28:53Z</time>
      </trkpt>
      <trkpt lat="40.901536" lon="-3.877208">
        <ele>1145.903</ele>
        <time>2021-07-31T15:28:55Z</time>
      </trkpt>
      <trkpt lat="40.901555" lon="-3.877233">
        <ele>1146.008</ele>
        <time>2021-07-31T15:28:57Z</time>
      </trkpt>
      <trkpt lat="40.901568" lon="-3.877268">
        <ele>1146.178</ele>
        <time>2021-07-31T15:28:59Z</time>
      </trkpt>
      <trkpt lat="40.901587" lon="-3.877287">
        <ele>1146.240</ele>
        <time>2021-07-31T15:29:01Z</time>
      </trkpt>
      <trkpt lat="40.901613" lon="-3.877303">
        <ele>1146.247</ele>
        <time>2021-07-31T15:29:03Z</time>
      </trkpt>
      <trkpt lat="40.901642" lon="-3.877328">
        <ele>1146.354</ele>
        <time>2021-07-31T15:29:05Z</time>
      </trkpt>
      <trkpt lat="40.901658" lon="-3.877340">
        <ele>1146.456</ele>
        <time>2021-07-31T15:29:06Z</time>
      </trkpt>
      <trkpt lat="40.901680" lon="-3.877372">
        <ele>1146.673</ele>
        <time>2021-07-31T15:29:08Z</time>
      </trkpt>
      <trkpt lat="40.901696" lon="-3.877405">
        <ele>1146.753</ele>
        <time>2021-07-31T15:29:10Z</time>
      </trkpt>
      <trkpt lat="40.901718" lon="-3.877428">
        <ele>1146.881</ele>
        <time>2021-07-31T15:29:12Z</time>
      </trkpt>
      <trkpt lat="40.901741" lon="-3.877452">
        <ele>1146.921</ele>
        <time>2021-07-31T15:29:14Z</time>
      </trkpt>
      <trkpt lat="40.901760" lon="-3.877465">
        <ele>1146.941</ele>
        <time>2021-07-31T15:29:16Z</time>
      </trkpt>
      <trkpt lat="40.901779" lon="-3.877487">
        <ele>1147.005</ele>
        <time>2021-07-31T15:29:18Z</time>
      </trkpt>
      <trkpt lat="40.901795" lon="-3.877508">
        <ele>1147.008</ele>
        <time>2021-07-31T15:29:20Z</time>
      </trkpt>
      <trkpt lat="40.901814" lon="-3.877525">
        <ele>1147.129</ele>
        <time>2021-07-31T15:29:22Z</time>
      </trkpt>
      <trkpt lat="40.901837" lon="-3.877545">
        <ele>1147.221</ele>
        <time>2021-07-31T15:29:24Z</time>
      </trkpt>
      <trkpt lat="40.901859" lon="-3.877555">
        <ele>1147.218</ele>
        <time>2021-07-31T15:29:26Z</time>
      </trkpt>
      <trkpt lat="40.901875" lon="-3.877576">
        <ele>1147.385</ele>
        <time>2021-07-31T15:29:28Z</time>
      </trkpt>
      <trkpt lat="40.901898" lon="-3.877597">
        <ele>1147.377</ele>
        <time>2021-07-31T15:29:30Z</time>
      </trkpt>
      <trkpt lat="40.901917" lon="-3.877613">
        <ele>1147.444</ele>
        <time>2021-07-31T15:29:32Z</time>
      </trkpt>
      <trkpt lat="40.901933" lon="-3.877630">
        <ele>1147.534</ele>
        <time>2021-07-31T15:29:34Z</time>
      </trkpt>
      <trkpt lat="40.901955" lon="-3.877648">
        <ele>1147.592</ele>
        <time>2021-07-31T15:29:36Z</time>
      </trkpt>
      <trkpt lat="40.901974" lon="-3.877663">
        <ele>1147.645</ele>
        <time>2021-07-31T15:29:38Z</time>
      </trkpt>
      <trkpt lat="40.901994" lon="-3.877680">
        <ele>1147.647</ele>
        <time>2021-07-31T15:29:40Z</time>
      </trkpt>
      <trkpt lat="40.902013" lon="-3.877700">
        <ele>1147.711</ele>
        <time>2021-07-31T15:29:42Z</time>
      </trkpt>
      <trkpt lat="40.902032" lon="-3.877720">
        <ele>1147.808</ele>
        <time>2021-07-31T15:29:44Z</time>
      </trkpt>
      <trkpt lat="40.902051" lon="-3.877740">
        <ele>1147.991</ele>
        <time>2021-07-31T15:29:46Z</time>
      </trkpt>
      <trkpt lat="40.902074" lon="-3.877748">
        <ele>1147.963</ele>
        <time>2021-07-31T15:29:48Z</time>
      </trkpt>
      <trkpt lat="40.902090" lon="-3.877765">
        <ele>1148.030</ele>
        <time>2021-07-31T15:29:50Z</time>
      </trkpt>
      <trkpt lat="40.902109" lon="-3.877785">
        <ele>1148.027</ele>
        <time>2021-07-31T15:29:52Z</time>
      </trkpt>
      <trkpt lat="40.902125" lon="-3.877802">
        <ele>1148.189</ele>
        <time>2021-07-31T15:29:54Z</time>
      </trkpt>
      <trkpt lat="40.902144" lon="-3.877825">
        <ele>1148.286</ele>
        <time>2021-07-31T15:29:56Z</time>
      </trkpt>
      <trkpt lat="40.902163" lon="-3.877845">
        <ele>1148.286</ele>
        <time>2021-07-31T15:29:58Z</time>
      </trkpt>
      <trkpt lat="40.902179" lon="-3.877865">
        <ele>1148.354</ele>
        <time>2021-07-31T15:30:00Z</time>
      </trkpt>
      <trkpt lat="40.902195" lon="-3.877880">
        <ele>1148.433</ele>
        <time>2021-07-31T15:30:02Z</time>
      </trkpt>
      <trkpt lat="40.902218" lon="-3.877902">
        <ele>1148.423</ele>
        <time>2021-07-31T15:30:04Z</time>
      </trkpt>
      <trkpt lat="40.902243" lon="-3.877922">
        <ele>1148.515</ele>
        <time>2021-07-31T15:30:06Z</time>
      </trkpt>
      <trkpt lat="40.902259" lon="-3.877950">
        <ele>1148.608</ele>
        <time>2021-07-31T15:30:08Z</time>
      </trkpt>
      <trkpt lat="40.902259" lon="-3.877983">
        <ele>1148.780</ele>
        <time>2021-07-31T15:30:11Z</time>
      </trkpt>
      <trkpt lat="40.902272" lon="-3.878020">
        <ele>1148.982</ele>
        <time>2021-07-31T15:30:13Z</time>
      </trkpt>
      <trkpt lat="40.902269" lon="-3.878047">
        <ele>1149.029</ele>
        <time>2021-07-31T15:30:16Z</time>
      </trkpt>
      <trkpt lat="40.902269" lon="-3.878072">
        <ele>1149.196</ele>
        <time>2021-07-31T15:30:19Z</time>
      </trkpt>
      <trkpt lat="40.902269" lon="-3.878096">
        <ele>1149.188</ele>
        <time>2021-07-31T15:30:22Z</time>
      </trkpt>
      <trkpt lat="40.902256" lon="-3.878122">
        <ele>1149.295</ele>
        <time>2021-07-31T15:30:25Z</time>
      </trkpt>
      <trkpt lat="40.902243" lon="-3.878152">
        <ele>1149.315</ele>
        <time>2021-07-31T15:30:27Z</time>
      </trkpt>
      <trkpt lat="40.902234" lon="-3.878175">
        <ele>1149.473</ele>
        <time>2021-07-31T15:30:30Z</time>
      </trkpt>
      <trkpt lat="40.902253" lon="-3.878190">
        <ele>1149.591</ele>
        <time>2021-07-31T15:31:31Z</time>
      </trkpt>
      <trkpt lat="40.902275" lon="-3.878207">
        <ele>1149.581</ele>
        <time>2021-07-31T15:31:33Z</time>
      </trkpt>
      <trkpt lat="40.902288" lon="-3.878225">
        <ele>1149.619</ele>
        <time>2021-07-31T15:31:36Z</time>
      </trkpt>
      <trkpt lat="40.902294" lon="-3.878260">
        <ele>1149.708</ele>
        <time>2021-07-31T15:31:38Z</time>
      </trkpt>
      <trkpt lat="40.902294" lon="-3.878298">
        <ele>1149.916</ele>
        <time>2021-07-31T15:31:40Z</time>
      </trkpt>
      <trkpt lat="40.902288" lon="-3.878323">
        <ele>1150.058</ele>
        <time>2021-07-31T15:31:42Z</time>
      </trkpt>
      <trkpt lat="40.902275" lon="-3.878340">
        <ele>1150.155</ele>
        <time>2021-07-31T15:31:45Z</time>
      </trkpt>
      <trkpt lat="40.902256" lon="-3.878345">
        <ele>1150.112</ele>
        <time>2021-07-31T15:31:56Z</time>
      </trkpt>
      <trkpt lat="40.902243" lon="-3.878367">
        <ele>1150.494</ele>
        <time>2021-07-31T15:32:01Z</time>
      </trkpt>
    </trkseg>
  </trk>
</gpx>
